<?xml version="1.0" encoding="UTF-8"?>
<gpx version="1.1" creator="https://www.youtrack.es" xsi:schemaLocation="http://www.topografix.com/GPX/1/1 http://www.topografix.com/GPX/1/1/gpx.xsd http://www.garmin.com/xmlschemas/GpxExtensions/v3 http://www.garmin.com/xmlschemas/GpxExtensionsv3.xsd http://www.garmin.com/xmlschemas/TrackPointExtension/v1 http://www.garmin.com/xmlschemas/TrackPointExtensionv1.xsd" xmlns:gpxtpx="http://www.garmin.com/xmlschemas/TrackPointExtension/v1" xmlns:gpxx="http://www.garmin.com/xmlschemas/GpxExtensions/v3" xmlns:xsi="http://www.w3.org/2001/XMLSchema-instance">
  <metadata>
    <link href="https://www.youtrack.es">
      <text>YouTrack.es</text>
    </link>
    <time>2026-05-08T08:49:22Z</time>
  </metadata>
  <trk>
    <src>https://www.youtrack.es</src>
    <link href="https://www.youtrack.es/ruta/16858-andalucia">
      <text>YouTrack.es</text>
    </link>
    <trkseg>
      <trkpt lat="37.387269000" lon="-5.986156000">
        <ele>19.7</ele>
        <time>2020-10-11T08:21:52Z</time>
      </trkpt>
      <trkpt lat="37.387346000" lon="-5.986117000">
        <ele>19.7</ele>
        <time>2020-10-11T08:22:10Z</time>
      </trkpt>
      <trkpt lat="37.387432000" lon="-5.986084000">
        <ele>19.8</ele>
        <time>2020-10-11T08:22:13Z</time>
      </trkpt>
      <trkpt lat="37.387501000" lon="-5.986003000">
        <ele>19.8</ele>
        <time>2020-10-11T08:22:16Z</time>
      </trkpt>
      <trkpt lat="37.387583000" lon="-5.985947000">
        <ele>19.9</ele>
        <time>2020-10-11T08:22:19Z</time>
      </trkpt>
      <trkpt lat="37.387681000" lon="-5.985922000">
        <ele>20.0</ele>
        <time>2020-10-11T08:22:22Z</time>
      </trkpt>
      <trkpt lat="37.387779000" lon="-5.985897000">
        <ele>20.3</ele>
        <time>2020-10-11T08:22:27Z</time>
      </trkpt>
      <trkpt lat="37.387833000" lon="-5.985804000">
        <ele>20.5</ele>
        <time>2020-10-11T08:22:32Z</time>
      </trkpt>
      <trkpt lat="37.387807000" lon="-5.985682000">
        <ele>20.7</ele>
        <time>2020-10-11T08:22:36Z</time>
      </trkpt>
      <trkpt lat="37.387759000" lon="-5.985559000">
        <ele>20.8</ele>
        <time>2020-10-11T08:22:39Z</time>
      </trkpt>
      <trkpt lat="37.387696000" lon="-5.985434000">
        <ele>20.9</ele>
        <time>2020-10-11T08:22:44Z</time>
      </trkpt>
      <trkpt lat="37.387656000" lon="-5.985338000">
        <ele>20.9</ele>
        <time>2020-10-11T08:22:48Z</time>
      </trkpt>
      <trkpt lat="37.387727000" lon="-5.985240000">
        <ele>20.8</ele>
        <time>2020-10-11T08:22:53Z</time>
      </trkpt>
      <trkpt lat="37.387817000" lon="-5.985171000">
        <ele>20.6</ele>
        <time>2020-10-11T08:22:56Z</time>
      </trkpt>
      <trkpt lat="37.387897000" lon="-5.985127000">
        <ele>20.4</ele>
        <time>2020-10-11T08:22:58Z</time>
      </trkpt>
      <trkpt lat="37.387982000" lon="-5.985085000">
        <ele>20.0</ele>
        <time>2020-10-11T08:23:00Z</time>
      </trkpt>
      <trkpt lat="37.388067000" lon="-5.985047000">
        <ele>19.6</ele>
        <time>2020-10-11T08:23:02Z</time>
      </trkpt>
      <trkpt lat="37.388152000" lon="-5.985014000">
        <ele>19.2</ele>
        <time>2020-10-11T08:23:04Z</time>
      </trkpt>
      <trkpt lat="37.388238000" lon="-5.984976000">
        <ele>18.8</ele>
        <time>2020-10-11T08:23:06Z</time>
      </trkpt>
      <trkpt lat="37.388343000" lon="-5.984931000">
        <ele>18.5</ele>
        <time>2020-10-11T08:23:08Z</time>
      </trkpt>
      <trkpt lat="37.388420000" lon="-5.984892000">
        <ele>18.3</ele>
        <time>2020-10-11T08:23:10Z</time>
      </trkpt>
      <trkpt lat="37.388509000" lon="-5.984874000">
        <ele>18.1</ele>
        <time>2020-10-11T08:23:12Z</time>
      </trkpt>
      <trkpt lat="37.388593000" lon="-5.984821000">
        <ele>18.0</ele>
        <time>2020-10-11T08:23:15Z</time>
      </trkpt>
      <trkpt lat="37.388701000" lon="-5.984786000">
        <ele>18.0</ele>
        <time>2020-10-11T08:23:18Z</time>
      </trkpt>
      <trkpt lat="37.388817000" lon="-5.984750000">
        <ele>18.2</ele>
        <time>2020-10-11T08:23:21Z</time>
      </trkpt>
      <trkpt lat="37.388904000" lon="-5.984717000">
        <ele>18.3</ele>
        <time>2020-10-11T08:23:23Z</time>
      </trkpt>
      <trkpt lat="37.388993000" lon="-5.984684000">
        <ele>18.4</ele>
        <time>2020-10-11T08:23:25Z</time>
      </trkpt>
      <trkpt lat="37.389077000" lon="-5.984645000">
        <ele>18.5</ele>
        <time>2020-10-11T08:23:27Z</time>
      </trkpt>
      <trkpt lat="37.389177000" lon="-5.984647000">
        <ele>18.5</ele>
        <time>2020-10-11T08:23:30Z</time>
      </trkpt>
      <trkpt lat="37.389266000" lon="-5.984653000">
        <ele>18.3</ele>
        <time>2020-10-11T08:23:33Z</time>
      </trkpt>
      <trkpt lat="37.389329000" lon="-5.984559000">
        <ele>18.1</ele>
        <time>2020-10-11T08:23:36Z</time>
      </trkpt>
      <trkpt lat="37.389441000" lon="-5.984519000">
        <ele>17.7</ele>
        <time>2020-10-11T08:23:39Z</time>
      </trkpt>
      <trkpt lat="37.389517000" lon="-5.984482000">
        <ele>17.4</ele>
        <time>2020-10-11T08:23:41Z</time>
      </trkpt>
      <trkpt lat="37.389592000" lon="-5.984438000">
        <ele>17.0</ele>
        <time>2020-10-11T08:23:43Z</time>
      </trkpt>
      <trkpt lat="37.389668000" lon="-5.984393000">
        <ele>16.6</ele>
        <time>2020-10-11T08:23:45Z</time>
      </trkpt>
      <trkpt lat="37.389780000" lon="-5.984333000">
        <ele>16.3</ele>
        <time>2020-10-11T08:23:48Z</time>
      </trkpt>
      <trkpt lat="37.389893000" lon="-5.984290000">
        <ele>16.1</ele>
        <time>2020-10-11T08:23:51Z</time>
      </trkpt>
      <trkpt lat="37.389979000" lon="-5.984264000">
        <ele>15.9</ele>
        <time>2020-10-11T08:23:53Z</time>
      </trkpt>
      <trkpt lat="37.390068000" lon="-5.984245000">
        <ele>15.8</ele>
        <time>2020-10-11T08:23:55Z</time>
      </trkpt>
      <trkpt lat="37.390155000" lon="-5.984230000">
        <ele>15.7</ele>
        <time>2020-10-11T08:23:57Z</time>
      </trkpt>
      <trkpt lat="37.390240000" lon="-5.984217000">
        <ele>15.7</ele>
        <time>2020-10-11T08:23:59Z</time>
      </trkpt>
      <trkpt lat="37.390329000" lon="-5.984192000">
        <ele>15.6</ele>
        <time>2020-10-11T08:24:01Z</time>
      </trkpt>
      <trkpt lat="37.390427000" lon="-5.984187000">
        <ele>15.5</ele>
        <time>2020-10-11T08:24:03Z</time>
      </trkpt>
      <trkpt lat="37.390520000" lon="-5.984175000">
        <ele>15.5</ele>
        <time>2020-10-11T08:24:05Z</time>
      </trkpt>
      <trkpt lat="37.390620000" lon="-5.984174000">
        <ele>15.4</ele>
        <time>2020-10-11T08:24:07Z</time>
      </trkpt>
      <trkpt lat="37.390710000" lon="-5.984142000">
        <ele>15.3</ele>
        <time>2020-10-11T08:24:09Z</time>
      </trkpt>
      <trkpt lat="37.390793000" lon="-5.984138000">
        <ele>15.1</ele>
        <time>2020-10-11T08:24:11Z</time>
      </trkpt>
      <trkpt lat="37.390901000" lon="-5.984129000">
        <ele>14.9</ele>
        <time>2020-10-11T08:24:13Z</time>
      </trkpt>
      <trkpt lat="37.391003000" lon="-5.984140000">
        <ele>14.7</ele>
        <time>2020-10-11T08:24:15Z</time>
      </trkpt>
      <trkpt lat="37.391097000" lon="-5.984150000">
        <ele>14.5</ele>
        <time>2020-10-11T08:24:17Z</time>
      </trkpt>
      <trkpt lat="37.391216000" lon="-5.984156000">
        <ele>14.3</ele>
        <time>2020-10-11T08:24:20Z</time>
      </trkpt>
      <trkpt lat="37.391338000" lon="-5.984133000">
        <ele>14.1</ele>
        <time>2020-10-11T08:24:23Z</time>
      </trkpt>
      <trkpt lat="37.391433000" lon="-5.984142000">
        <ele>14.1</ele>
        <time>2020-10-11T08:24:25Z</time>
      </trkpt>
      <trkpt lat="37.391518000" lon="-5.984145000">
        <ele>14.2</ele>
        <time>2020-10-11T08:24:27Z</time>
      </trkpt>
      <trkpt lat="37.391603000" lon="-5.984155000">
        <ele>14.3</ele>
        <time>2020-10-11T08:24:29Z</time>
      </trkpt>
      <trkpt lat="37.391694000" lon="-5.984158000">
        <ele>14.4</ele>
        <time>2020-10-11T08:24:31Z</time>
      </trkpt>
      <trkpt lat="37.391793000" lon="-5.984160000">
        <ele>14.5</ele>
        <time>2020-10-11T08:24:33Z</time>
      </trkpt>
      <trkpt lat="37.391884000" lon="-5.984155000">
        <ele>14.5</ele>
        <time>2020-10-11T08:24:35Z</time>
      </trkpt>
      <trkpt lat="37.391984000" lon="-5.984158000">
        <ele>14.6</ele>
        <time>2020-10-11T08:24:37Z</time>
      </trkpt>
      <trkpt lat="37.392084000" lon="-5.984173000">
        <ele>14.7</ele>
        <time>2020-10-11T08:24:39Z</time>
      </trkpt>
      <trkpt lat="37.392184000" lon="-5.984168000">
        <ele>14.7</ele>
        <time>2020-10-11T08:24:41Z</time>
      </trkpt>
      <trkpt lat="37.392277000" lon="-5.984155000">
        <ele>14.7</ele>
        <time>2020-10-11T08:24:43Z</time>
      </trkpt>
      <trkpt lat="37.392386000" lon="-5.984153000">
        <ele>14.6</ele>
        <time>2020-10-11T08:24:45Z</time>
      </trkpt>
      <trkpt lat="37.392490000" lon="-5.984159000">
        <ele>14.5</ele>
        <time>2020-10-11T08:24:47Z</time>
      </trkpt>
      <trkpt lat="37.392595000" lon="-5.984160000">
        <ele>14.2</ele>
        <time>2020-10-11T08:24:49Z</time>
      </trkpt>
      <trkpt lat="37.392693000" lon="-5.984157000">
        <ele>13.9</ele>
        <time>2020-10-11T08:24:51Z</time>
      </trkpt>
      <trkpt lat="37.392788000" lon="-5.984132000">
        <ele>13.6</ele>
        <time>2020-10-11T08:24:53Z</time>
      </trkpt>
      <trkpt lat="37.392891000" lon="-5.984109000">
        <ele>13.5</ele>
        <time>2020-10-11T08:24:55Z</time>
      </trkpt>
      <trkpt lat="37.392976000" lon="-5.984086000">
        <ele>13.3</ele>
        <time>2020-10-11T08:24:57Z</time>
      </trkpt>
      <trkpt lat="37.393070000" lon="-5.984078000">
        <ele>13.2</ele>
        <time>2020-10-11T08:24:59Z</time>
      </trkpt>
      <trkpt lat="37.393159000" lon="-5.984058000">
        <ele>13.2</ele>
        <time>2020-10-11T08:25:01Z</time>
      </trkpt>
      <trkpt lat="37.393246000" lon="-5.984035000">
        <ele>13.3</ele>
        <time>2020-10-11T08:25:03Z</time>
      </trkpt>
      <trkpt lat="37.393334000" lon="-5.984009000">
        <ele>13.4</ele>
        <time>2020-10-11T08:25:05Z</time>
      </trkpt>
      <trkpt lat="37.393423000" lon="-5.983983000">
        <ele>13.5</ele>
        <time>2020-10-11T08:25:07Z</time>
      </trkpt>
      <trkpt lat="37.393513000" lon="-5.983962000">
        <ele>13.7</ele>
        <time>2020-10-11T08:25:09Z</time>
      </trkpt>
      <trkpt lat="37.393603000" lon="-5.983938000">
        <ele>14.1</ele>
        <time>2020-10-11T08:25:11Z</time>
      </trkpt>
      <trkpt lat="37.393704000" lon="-5.983916000">
        <ele>14.5</ele>
        <time>2020-10-11T08:25:13Z</time>
      </trkpt>
      <trkpt lat="37.393811000" lon="-5.983853000">
        <ele>14.8</ele>
        <time>2020-10-11T08:25:16Z</time>
      </trkpt>
      <trkpt lat="37.393929000" lon="-5.983818000">
        <ele>15.2</ele>
        <time>2020-10-11T08:25:19Z</time>
      </trkpt>
      <trkpt lat="37.394040000" lon="-5.983787000">
        <ele>15.5</ele>
        <time>2020-10-11T08:25:22Z</time>
      </trkpt>
      <trkpt lat="37.394129000" lon="-5.983751000">
        <ele>15.7</ele>
        <time>2020-10-11T08:25:24Z</time>
      </trkpt>
      <trkpt lat="37.394213000" lon="-5.983721000">
        <ele>15.8</ele>
        <time>2020-10-11T08:25:26Z</time>
      </trkpt>
      <trkpt lat="37.394298000" lon="-5.983673000">
        <ele>15.9</ele>
        <time>2020-10-11T08:25:28Z</time>
      </trkpt>
      <trkpt lat="37.394380000" lon="-5.983608000">
        <ele>15.9</ele>
        <time>2020-10-11T08:25:30Z</time>
      </trkpt>
      <trkpt lat="37.394466000" lon="-5.983554000">
        <ele>15.8</ele>
        <time>2020-10-11T08:25:32Z</time>
      </trkpt>
      <trkpt lat="37.394545000" lon="-5.983492000">
        <ele>15.6</ele>
        <time>2020-10-11T08:25:34Z</time>
      </trkpt>
      <trkpt lat="37.394610000" lon="-5.983428000">
        <ele>15.3</ele>
        <time>2020-10-11T08:25:36Z</time>
      </trkpt>
      <trkpt lat="37.394685000" lon="-5.983366000">
        <ele>14.8</ele>
        <time>2020-10-11T08:25:38Z</time>
      </trkpt>
      <trkpt lat="37.394766000" lon="-5.983313000">
        <ele>14.4</ele>
        <time>2020-10-11T08:25:40Z</time>
      </trkpt>
      <trkpt lat="37.394841000" lon="-5.983263000">
        <ele>13.7</ele>
        <time>2020-10-11T08:25:42Z</time>
      </trkpt>
      <trkpt lat="37.394936000" lon="-5.983211000">
        <ele>13.1</ele>
        <time>2020-10-11T08:25:44Z</time>
      </trkpt>
      <trkpt lat="37.395010000" lon="-5.983152000">
        <ele>12.6</ele>
        <time>2020-10-11T08:25:46Z</time>
      </trkpt>
      <trkpt lat="37.395103000" lon="-5.983103000">
        <ele>12.2</ele>
        <time>2020-10-11T08:25:48Z</time>
      </trkpt>
      <trkpt lat="37.395184000" lon="-5.983034000">
        <ele>11.7</ele>
        <time>2020-10-11T08:25:50Z</time>
      </trkpt>
      <trkpt lat="37.395271000" lon="-5.982989000">
        <ele>11.5</ele>
        <time>2020-10-11T08:25:52Z</time>
      </trkpt>
      <trkpt lat="37.395356000" lon="-5.982928000">
        <ele>11.3</ele>
        <time>2020-10-11T08:25:54Z</time>
      </trkpt>
      <trkpt lat="37.395441000" lon="-5.982865000">
        <ele>11.2</ele>
        <time>2020-10-11T08:25:56Z</time>
      </trkpt>
      <trkpt lat="37.395525000" lon="-5.982808000">
        <ele>11.2</ele>
        <time>2020-10-11T08:25:58Z</time>
      </trkpt>
      <trkpt lat="37.395610000" lon="-5.982757000">
        <ele>11.2</ele>
        <time>2020-10-11T08:26:00Z</time>
      </trkpt>
      <trkpt lat="37.395705000" lon="-5.982697000">
        <ele>11.2</ele>
        <time>2020-10-11T08:26:02Z</time>
      </trkpt>
      <trkpt lat="37.395795000" lon="-5.982637000">
        <ele>11.3</ele>
        <time>2020-10-11T08:26:04Z</time>
      </trkpt>
      <trkpt lat="37.395881000" lon="-5.982570000">
        <ele>11.4</ele>
        <time>2020-10-11T08:26:06Z</time>
      </trkpt>
      <trkpt lat="37.395965000" lon="-5.982504000">
        <ele>11.4</ele>
        <time>2020-10-11T08:26:08Z</time>
      </trkpt>
      <trkpt lat="37.396043000" lon="-5.982436000">
        <ele>11.4</ele>
        <time>2020-10-11T08:26:10Z</time>
      </trkpt>
      <trkpt lat="37.396125000" lon="-5.982361000">
        <ele>11.4</ele>
        <time>2020-10-11T08:26:12Z</time>
      </trkpt>
      <trkpt lat="37.396215000" lon="-5.982298000">
        <ele>11.4</ele>
        <time>2020-10-11T08:26:14Z</time>
      </trkpt>
      <trkpt lat="37.396300000" lon="-5.982245000">
        <ele>11.4</ele>
        <time>2020-10-11T08:26:16Z</time>
      </trkpt>
      <trkpt lat="37.396385000" lon="-5.982187000">
        <ele>11.4</ele>
        <time>2020-10-11T08:26:18Z</time>
      </trkpt>
      <trkpt lat="37.396474000" lon="-5.982138000">
        <ele>11.4</ele>
        <time>2020-10-11T08:26:20Z</time>
      </trkpt>
      <trkpt lat="37.396546000" lon="-5.982086000">
        <ele>11.5</ele>
        <time>2020-10-11T08:26:22Z</time>
      </trkpt>
      <trkpt lat="37.396622000" lon="-5.982027000">
        <ele>11.5</ele>
        <time>2020-10-11T08:26:26Z</time>
      </trkpt>
      <trkpt lat="37.396706000" lon="-5.981977000">
        <ele>11.6</ele>
        <time>2020-10-11T08:26:29Z</time>
      </trkpt>
      <trkpt lat="37.396786000" lon="-5.981940000">
        <ele>11.7</ele>
        <time>2020-10-11T08:26:35Z</time>
      </trkpt>
      <trkpt lat="37.396876000" lon="-5.981872000">
        <ele>11.8</ele>
        <time>2020-10-11T08:26:40Z</time>
      </trkpt>
      <trkpt lat="37.396948000" lon="-5.981777000">
        <ele>12.0</ele>
        <time>2020-10-11T08:26:43Z</time>
      </trkpt>
      <trkpt lat="37.397036000" lon="-5.981699000">
        <ele>12.2</ele>
        <time>2020-10-11T08:26:46Z</time>
      </trkpt>
      <trkpt lat="37.397132000" lon="-5.981632000">
        <ele>12.3</ele>
        <time>2020-10-11T08:26:49Z</time>
      </trkpt>
      <trkpt lat="37.397208000" lon="-5.981589000">
        <ele>12.4</ele>
        <time>2020-10-11T08:26:51Z</time>
      </trkpt>
      <trkpt lat="37.397287000" lon="-5.981556000">
        <ele>12.5</ele>
        <time>2020-10-11T08:26:53Z</time>
      </trkpt>
      <trkpt lat="37.397413000" lon="-5.981560000">
        <ele>12.5</ele>
        <time>2020-10-11T08:26:56Z</time>
      </trkpt>
      <trkpt lat="37.397514000" lon="-5.981584000">
        <ele>12.6</ele>
        <time>2020-10-11T08:26:58Z</time>
      </trkpt>
      <trkpt lat="37.397602000" lon="-5.981600000">
        <ele>12.7</ele>
        <time>2020-10-11T08:27:00Z</time>
      </trkpt>
      <trkpt lat="37.397697000" lon="-5.981612000">
        <ele>12.8</ele>
        <time>2020-10-11T08:27:02Z</time>
      </trkpt>
      <trkpt lat="37.397795000" lon="-5.981630000">
        <ele>12.9</ele>
        <time>2020-10-11T08:27:04Z</time>
      </trkpt>
      <trkpt lat="37.397886000" lon="-5.981634000">
        <ele>13.0</ele>
        <time>2020-10-11T08:27:06Z</time>
      </trkpt>
      <trkpt lat="37.397977000" lon="-5.981651000">
        <ele>13.0</ele>
        <time>2020-10-11T08:27:08Z</time>
      </trkpt>
      <trkpt lat="37.398062000" lon="-5.981658000">
        <ele>13.0</ele>
        <time>2020-10-11T08:27:10Z</time>
      </trkpt>
      <trkpt lat="37.398168000" lon="-5.981688000">
        <ele>13.0</ele>
        <time>2020-10-11T08:27:12Z</time>
      </trkpt>
      <trkpt lat="37.398263000" lon="-5.981700000">
        <ele>13.0</ele>
        <time>2020-10-11T08:27:14Z</time>
      </trkpt>
      <trkpt lat="37.398350000" lon="-5.981720000">
        <ele>13.0</ele>
        <time>2020-10-11T08:27:16Z</time>
      </trkpt>
      <trkpt lat="37.398443000" lon="-5.981747000">
        <ele>13.0</ele>
        <time>2020-10-11T08:27:18Z</time>
      </trkpt>
      <trkpt lat="37.398521000" lon="-5.981792000">
        <ele>13.1</ele>
        <time>2020-10-11T08:27:20Z</time>
      </trkpt>
      <trkpt lat="37.398610000" lon="-5.981852000">
        <ele>13.2</ele>
        <time>2020-10-11T08:27:22Z</time>
      </trkpt>
      <trkpt lat="37.398690000" lon="-5.981918000">
        <ele>13.3</ele>
        <time>2020-10-11T08:27:24Z</time>
      </trkpt>
      <trkpt lat="37.398769000" lon="-5.981984000">
        <ele>13.4</ele>
        <time>2020-10-11T08:27:26Z</time>
      </trkpt>
      <trkpt lat="37.398846000" lon="-5.982065000">
        <ele>13.5</ele>
        <time>2020-10-11T08:27:28Z</time>
      </trkpt>
      <trkpt lat="37.398910000" lon="-5.982153000">
        <ele>13.5</ele>
        <time>2020-10-11T08:27:30Z</time>
      </trkpt>
      <trkpt lat="37.398966000" lon="-5.982256000">
        <ele>13.5</ele>
        <time>2020-10-11T08:27:32Z</time>
      </trkpt>
      <trkpt lat="37.399022000" lon="-5.982367000">
        <ele>13.5</ele>
        <time>2020-10-11T08:27:34Z</time>
      </trkpt>
      <trkpt lat="37.399067000" lon="-5.982488000">
        <ele>13.5</ele>
        <time>2020-10-11T08:27:36Z</time>
      </trkpt>
      <trkpt lat="37.399120000" lon="-5.982602000">
        <ele>13.5</ele>
        <time>2020-10-11T08:27:38Z</time>
      </trkpt>
      <trkpt lat="37.399167000" lon="-5.982714000">
        <ele>13.5</ele>
        <time>2020-10-11T08:27:40Z</time>
      </trkpt>
      <trkpt lat="37.399214000" lon="-5.982826000">
        <ele>13.5</ele>
        <time>2020-10-11T08:27:42Z</time>
      </trkpt>
      <trkpt lat="37.399262000" lon="-5.982945000">
        <ele>13.6</ele>
        <time>2020-10-11T08:27:44Z</time>
      </trkpt>
      <trkpt lat="37.399306000" lon="-5.983054000">
        <ele>13.7</ele>
        <time>2020-10-11T08:27:46Z</time>
      </trkpt>
      <trkpt lat="37.399343000" lon="-5.983174000">
        <ele>13.9</ele>
        <time>2020-10-11T08:27:48Z</time>
      </trkpt>
      <trkpt lat="37.399383000" lon="-5.983271000">
        <ele>14.2</ele>
        <time>2020-10-11T08:27:50Z</time>
      </trkpt>
      <trkpt lat="37.399419000" lon="-5.983379000">
        <ele>14.6</ele>
        <time>2020-10-11T08:27:52Z</time>
      </trkpt>
      <trkpt lat="37.399467000" lon="-5.983476000">
        <ele>15.1</ele>
        <time>2020-10-11T08:27:54Z</time>
      </trkpt>
      <trkpt lat="37.399512000" lon="-5.983574000">
        <ele>15.5</ele>
        <time>2020-10-11T08:27:56Z</time>
      </trkpt>
      <trkpt lat="37.399557000" lon="-5.983710000">
        <ele>16.0</ele>
        <time>2020-10-11T08:27:59Z</time>
      </trkpt>
      <trkpt lat="37.399610000" lon="-5.983809000">
        <ele>16.4</ele>
        <time>2020-10-11T08:28:01Z</time>
      </trkpt>
      <trkpt lat="37.399654000" lon="-5.983913000">
        <ele>16.6</ele>
        <time>2020-10-11T08:28:03Z</time>
      </trkpt>
      <trkpt lat="37.399707000" lon="-5.984018000">
        <ele>16.8</ele>
        <time>2020-10-11T08:28:05Z</time>
      </trkpt>
      <trkpt lat="37.399750000" lon="-5.984118000">
        <ele>16.9</ele>
        <time>2020-10-11T08:28:07Z</time>
      </trkpt>
      <trkpt lat="37.399790000" lon="-5.984217000">
        <ele>16.9</ele>
        <time>2020-10-11T08:28:09Z</time>
      </trkpt>
      <trkpt lat="37.399844000" lon="-5.984322000">
        <ele>16.7</ele>
        <time>2020-10-11T08:28:11Z</time>
      </trkpt>
      <trkpt lat="37.399886000" lon="-5.984410000">
        <ele>16.5</ele>
        <time>2020-10-11T08:28:13Z</time>
      </trkpt>
      <trkpt lat="37.399935000" lon="-5.984496000">
        <ele>16.1</ele>
        <time>2020-10-11T08:28:15Z</time>
      </trkpt>
      <trkpt lat="37.399988000" lon="-5.984584000">
        <ele>15.6</ele>
        <time>2020-10-11T08:28:17Z</time>
      </trkpt>
      <trkpt lat="37.400075000" lon="-5.984669000">
        <ele>15.1</ele>
        <time>2020-10-11T08:28:20Z</time>
      </trkpt>
      <trkpt lat="37.400145000" lon="-5.984743000">
        <ele>14.5</ele>
        <time>2020-10-11T08:28:24Z</time>
      </trkpt>
      <trkpt lat="37.400219000" lon="-5.984831000">
        <ele>13.9</ele>
        <time>2020-10-11T08:28:34Z</time>
      </trkpt>
      <trkpt lat="37.400293000" lon="-5.984881000">
        <ele>13.4</ele>
        <time>2020-10-11T08:28:37Z</time>
      </trkpt>
      <trkpt lat="37.400392000" lon="-5.984937000">
        <ele>12.9</ele>
        <time>2020-10-11T08:28:40Z</time>
      </trkpt>
      <trkpt lat="37.400474000" lon="-5.985032000">
        <ele>12.5</ele>
        <time>2020-10-11T08:28:43Z</time>
      </trkpt>
      <trkpt lat="37.400549000" lon="-5.985102000">
        <ele>12.2</ele>
        <time>2020-10-11T08:28:45Z</time>
      </trkpt>
      <trkpt lat="37.400628000" lon="-5.985166000">
        <ele>12.0</ele>
        <time>2020-10-11T08:28:47Z</time>
      </trkpt>
      <trkpt lat="37.400707000" lon="-5.985242000">
        <ele>11.9</ele>
        <time>2020-10-11T08:28:49Z</time>
      </trkpt>
      <trkpt lat="37.400776000" lon="-5.985306000">
        <ele>11.8</ele>
        <time>2020-10-11T08:28:51Z</time>
      </trkpt>
      <trkpt lat="37.400865000" lon="-5.985366000">
        <ele>11.9</ele>
        <time>2020-10-11T08:28:53Z</time>
      </trkpt>
      <trkpt lat="37.400957000" lon="-5.985419000">
        <ele>12.1</ele>
        <time>2020-10-11T08:28:55Z</time>
      </trkpt>
      <trkpt lat="37.401039000" lon="-5.985472000">
        <ele>12.5</ele>
        <time>2020-10-11T08:28:57Z</time>
      </trkpt>
      <trkpt lat="37.401139000" lon="-5.985536000">
        <ele>12.8</ele>
        <time>2020-10-11T08:28:59Z</time>
      </trkpt>
      <trkpt lat="37.401236000" lon="-5.985586000">
        <ele>13.3</ele>
        <time>2020-10-11T08:29:01Z</time>
      </trkpt>
      <trkpt lat="37.401336000" lon="-5.985644000">
        <ele>13.7</ele>
        <time>2020-10-11T08:29:03Z</time>
      </trkpt>
      <trkpt lat="37.401439000" lon="-5.985702000">
        <ele>14.2</ele>
        <time>2020-10-11T08:29:05Z</time>
      </trkpt>
      <trkpt lat="37.401544000" lon="-5.985755000">
        <ele>14.6</ele>
        <time>2020-10-11T08:29:07Z</time>
      </trkpt>
      <trkpt lat="37.401651000" lon="-5.985819000">
        <ele>15.1</ele>
        <time>2020-10-11T08:29:09Z</time>
      </trkpt>
      <trkpt lat="37.401749000" lon="-5.985874000">
        <ele>15.5</ele>
        <time>2020-10-11T08:29:11Z</time>
      </trkpt>
      <trkpt lat="37.401843000" lon="-5.985936000">
        <ele>15.8</ele>
        <time>2020-10-11T08:29:13Z</time>
      </trkpt>
      <trkpt lat="37.401932000" lon="-5.986029000">
        <ele>16.1</ele>
        <time>2020-10-11T08:29:15Z</time>
      </trkpt>
      <trkpt lat="37.402003000" lon="-5.986132000">
        <ele>16.3</ele>
        <time>2020-10-11T08:29:17Z</time>
      </trkpt>
      <trkpt lat="37.402057000" lon="-5.986241000">
        <ele>16.3</ele>
        <time>2020-10-11T08:29:19Z</time>
      </trkpt>
      <trkpt lat="37.402124000" lon="-5.986349000">
        <ele>16.3</ele>
        <time>2020-10-11T08:29:21Z</time>
      </trkpt>
      <trkpt lat="37.402185000" lon="-5.986456000">
        <ele>16.2</ele>
        <time>2020-10-11T08:29:23Z</time>
      </trkpt>
      <trkpt lat="37.402250000" lon="-5.986559000">
        <ele>16.2</ele>
        <time>2020-10-11T08:29:25Z</time>
      </trkpt>
      <trkpt lat="37.402315000" lon="-5.986664000">
        <ele>16.2</ele>
        <time>2020-10-11T08:29:27Z</time>
      </trkpt>
      <trkpt lat="37.402373000" lon="-5.986768000">
        <ele>16.1</ele>
        <time>2020-10-11T08:29:29Z</time>
      </trkpt>
      <trkpt lat="37.402436000" lon="-5.986866000">
        <ele>15.9</ele>
        <time>2020-10-11T08:29:31Z</time>
      </trkpt>
      <trkpt lat="37.402493000" lon="-5.986962000">
        <ele>15.5</ele>
        <time>2020-10-11T08:29:33Z</time>
      </trkpt>
      <trkpt lat="37.402559000" lon="-5.987061000">
        <ele>15.1</ele>
        <time>2020-10-11T08:29:35Z</time>
      </trkpt>
      <trkpt lat="37.402619000" lon="-5.987180000">
        <ele>14.6</ele>
        <time>2020-10-11T08:29:38Z</time>
      </trkpt>
      <trkpt lat="37.402690000" lon="-5.987292000">
        <ele>14.3</ele>
        <time>2020-10-11T08:29:41Z</time>
      </trkpt>
      <trkpt lat="37.402768000" lon="-5.987382000">
        <ele>13.9</ele>
        <time>2020-10-11T08:29:44Z</time>
      </trkpt>
      <trkpt lat="37.402813000" lon="-5.987493000">
        <ele>13.5</ele>
        <time>2020-10-11T08:29:47Z</time>
      </trkpt>
      <trkpt lat="37.402889000" lon="-5.987555000">
        <ele>13.3</ele>
        <time>2020-10-11T08:29:51Z</time>
      </trkpt>
      <trkpt lat="37.402970000" lon="-5.987514000">
        <ele>12.9</ele>
        <time>2020-10-11T08:29:54Z</time>
      </trkpt>
      <trkpt lat="37.403078000" lon="-5.987514000">
        <ele>12.5</ele>
        <time>2020-10-11T08:29:57Z</time>
      </trkpt>
      <trkpt lat="37.403190000" lon="-5.987505000">
        <ele>12.0</ele>
        <time>2020-10-11T08:30:00Z</time>
      </trkpt>
      <trkpt lat="37.403309000" lon="-5.987465000">
        <ele>11.5</ele>
        <time>2020-10-11T08:30:03Z</time>
      </trkpt>
      <trkpt lat="37.403392000" lon="-5.987416000">
        <ele>11.2</ele>
        <time>2020-10-11T08:30:05Z</time>
      </trkpt>
      <trkpt lat="37.403477000" lon="-5.987377000">
        <ele>10.9</ele>
        <time>2020-10-11T08:30:07Z</time>
      </trkpt>
      <trkpt lat="37.403563000" lon="-5.987330000">
        <ele>10.6</ele>
        <time>2020-10-11T08:30:09Z</time>
      </trkpt>
      <trkpt lat="37.403650000" lon="-5.987290000">
        <ele>10.3</ele>
        <time>2020-10-11T08:30:11Z</time>
      </trkpt>
      <trkpt lat="37.403740000" lon="-5.987247000">
        <ele>10.0</ele>
        <time>2020-10-11T08:30:13Z</time>
      </trkpt>
      <trkpt lat="37.403831000" lon="-5.987206000">
        <ele>9.7</ele>
        <time>2020-10-11T08:30:15Z</time>
      </trkpt>
      <trkpt lat="37.403920000" lon="-5.987150000">
        <ele>9.4</ele>
        <time>2020-10-11T08:30:17Z</time>
      </trkpt>
      <trkpt lat="37.404008000" lon="-5.987098000">
        <ele>9.0</ele>
        <time>2020-10-11T08:30:19Z</time>
      </trkpt>
      <trkpt lat="37.404088000" lon="-5.987057000">
        <ele>8.7</ele>
        <time>2020-10-11T08:30:21Z</time>
      </trkpt>
      <trkpt lat="37.404168000" lon="-5.987014000">
        <ele>8.5</ele>
        <time>2020-10-11T08:30:23Z</time>
      </trkpt>
      <trkpt lat="37.404251000" lon="-5.986981000">
        <ele>8.4</ele>
        <time>2020-10-11T08:30:25Z</time>
      </trkpt>
      <trkpt lat="37.404338000" lon="-5.986954000">
        <ele>8.4</ele>
        <time>2020-10-11T08:30:27Z</time>
      </trkpt>
      <trkpt lat="37.404424000" lon="-5.986909000">
        <ele>8.4</ele>
        <time>2020-10-11T08:30:29Z</time>
      </trkpt>
      <trkpt lat="37.404508000" lon="-5.986871000">
        <ele>8.4</ele>
        <time>2020-10-11T08:30:31Z</time>
      </trkpt>
      <trkpt lat="37.404596000" lon="-5.986839000">
        <ele>8.5</ele>
        <time>2020-10-11T08:30:33Z</time>
      </trkpt>
      <trkpt lat="37.404683000" lon="-5.986793000">
        <ele>8.5</ele>
        <time>2020-10-11T08:30:35Z</time>
      </trkpt>
      <trkpt lat="37.404774000" lon="-5.986749000">
        <ele>8.6</ele>
        <time>2020-10-11T08:30:37Z</time>
      </trkpt>
      <trkpt lat="37.404865000" lon="-5.986705000">
        <ele>8.7</ele>
        <time>2020-10-11T08:30:39Z</time>
      </trkpt>
      <trkpt lat="37.404950000" lon="-5.986654000">
        <ele>8.8</ele>
        <time>2020-10-11T08:30:41Z</time>
      </trkpt>
      <trkpt lat="37.405047000" lon="-5.986610000">
        <ele>8.9</ele>
        <time>2020-10-11T08:30:43Z</time>
      </trkpt>
      <trkpt lat="37.405140000" lon="-5.986559000">
        <ele>9.0</ele>
        <time>2020-10-11T08:30:45Z</time>
      </trkpt>
      <trkpt lat="37.405234000" lon="-5.986502000">
        <ele>9.0</ele>
        <time>2020-10-11T08:30:47Z</time>
      </trkpt>
      <trkpt lat="37.405325000" lon="-5.986451000">
        <ele>8.9</ele>
        <time>2020-10-11T08:30:49Z</time>
      </trkpt>
      <trkpt lat="37.405416000" lon="-5.986401000">
        <ele>8.8</ele>
        <time>2020-10-11T08:30:51Z</time>
      </trkpt>
      <trkpt lat="37.405509000" lon="-5.986352000">
        <ele>8.8</ele>
        <time>2020-10-11T08:30:53Z</time>
      </trkpt>
      <trkpt lat="37.405595000" lon="-5.986301000">
        <ele>8.9</ele>
        <time>2020-10-11T08:30:55Z</time>
      </trkpt>
      <trkpt lat="37.405687000" lon="-5.986253000">
        <ele>9.1</ele>
        <time>2020-10-11T08:30:57Z</time>
      </trkpt>
      <trkpt lat="37.405774000" lon="-5.986202000">
        <ele>9.4</ele>
        <time>2020-10-11T08:30:59Z</time>
      </trkpt>
      <trkpt lat="37.405860000" lon="-5.986146000">
        <ele>9.8</ele>
        <time>2020-10-11T08:31:01Z</time>
      </trkpt>
      <trkpt lat="37.405949000" lon="-5.986102000">
        <ele>10.4</ele>
        <time>2020-10-11T08:31:03Z</time>
      </trkpt>
      <trkpt lat="37.406037000" lon="-5.986060000">
        <ele>11.1</ele>
        <time>2020-10-11T08:31:05Z</time>
      </trkpt>
      <trkpt lat="37.406119000" lon="-5.986006000">
        <ele>11.9</ele>
        <time>2020-10-11T08:31:07Z</time>
      </trkpt>
      <trkpt lat="37.406204000" lon="-5.985950000">
        <ele>12.8</ele>
        <time>2020-10-11T08:31:09Z</time>
      </trkpt>
      <trkpt lat="37.406291000" lon="-5.985902000">
        <ele>13.8</ele>
        <time>2020-10-11T08:31:11Z</time>
      </trkpt>
      <trkpt lat="37.406378000" lon="-5.985856000">
        <ele>14.8</ele>
        <time>2020-10-11T08:31:13Z</time>
      </trkpt>
      <trkpt lat="37.406468000" lon="-5.985818000">
        <ele>15.6</ele>
        <time>2020-10-11T08:31:15Z</time>
      </trkpt>
      <trkpt lat="37.406553000" lon="-5.985775000">
        <ele>16.3</ele>
        <time>2020-10-11T08:31:17Z</time>
      </trkpt>
      <trkpt lat="37.406640000" lon="-5.985736000">
        <ele>16.7</ele>
        <time>2020-10-11T08:31:19Z</time>
      </trkpt>
      <trkpt lat="37.406717000" lon="-5.985693000">
        <ele>16.9</ele>
        <time>2020-10-11T08:31:21Z</time>
      </trkpt>
      <trkpt lat="37.406806000" lon="-5.985661000">
        <ele>16.9</ele>
        <time>2020-10-11T08:31:23Z</time>
      </trkpt>
      <trkpt lat="37.406898000" lon="-5.985629000">
        <ele>16.7</ele>
        <time>2020-10-11T08:31:25Z</time>
      </trkpt>
      <trkpt lat="37.406990000" lon="-5.985578000">
        <ele>16.4</ele>
        <time>2020-10-11T08:31:27Z</time>
      </trkpt>
      <trkpt lat="37.407082000" lon="-5.985544000">
        <ele>15.9</ele>
        <time>2020-10-11T08:31:29Z</time>
      </trkpt>
      <trkpt lat="37.407177000" lon="-5.985493000">
        <ele>15.5</ele>
        <time>2020-10-11T08:31:31Z</time>
      </trkpt>
      <trkpt lat="37.407268000" lon="-5.985457000">
        <ele>15.2</ele>
        <time>2020-10-11T08:31:33Z</time>
      </trkpt>
      <trkpt lat="37.407354000" lon="-5.985409000">
        <ele>15.0</ele>
        <time>2020-10-11T08:31:35Z</time>
      </trkpt>
      <trkpt lat="37.407436000" lon="-5.985352000">
        <ele>15.0</ele>
        <time>2020-10-11T08:31:37Z</time>
      </trkpt>
      <trkpt lat="37.407550000" lon="-5.985305000">
        <ele>15.3</ele>
        <time>2020-10-11T08:31:40Z</time>
      </trkpt>
      <trkpt lat="37.407626000" lon="-5.985358000">
        <ele>15.5</ele>
        <time>2020-10-11T08:32:01Z</time>
      </trkpt>
      <trkpt lat="37.407664000" lon="-5.985486000">
        <ele>16.0</ele>
        <time>2020-10-11T08:32:05Z</time>
      </trkpt>
      <trkpt lat="37.407600000" lon="-5.985567000">
        <ele>16.4</ele>
        <time>2020-10-11T08:32:08Z</time>
      </trkpt>
      <trkpt lat="37.407554000" lon="-5.985693000">
        <ele>16.8</ele>
        <time>2020-10-11T08:32:11Z</time>
      </trkpt>
      <trkpt lat="37.407555000" lon="-5.985829000">
        <ele>17.2</ele>
        <time>2020-10-11T08:32:14Z</time>
      </trkpt>
      <trkpt lat="37.407578000" lon="-5.985934000">
        <ele>17.5</ele>
        <time>2020-10-11T08:32:17Z</time>
      </trkpt>
      <trkpt lat="37.407575000" lon="-5.986065000">
        <ele>17.7</ele>
        <time>2020-10-11T08:32:21Z</time>
      </trkpt>
      <trkpt lat="37.407604000" lon="-5.986193000">
        <ele>17.6</ele>
        <time>2020-10-11T08:32:25Z</time>
      </trkpt>
      <trkpt lat="37.407634000" lon="-5.986313000">
        <ele>17.4</ele>
        <time>2020-10-11T08:32:31Z</time>
      </trkpt>
      <trkpt lat="37.407656000" lon="-5.986440000">
        <ele>17.0</ele>
        <time>2020-10-11T08:32:34Z</time>
      </trkpt>
      <trkpt lat="37.407681000" lon="-5.986579000">
        <ele>16.4</ele>
        <time>2020-10-11T08:32:37Z</time>
      </trkpt>
      <trkpt lat="37.407712000" lon="-5.986724000">
        <ele>15.8</ele>
        <time>2020-10-11T08:32:40Z</time>
      </trkpt>
      <trkpt lat="37.407736000" lon="-5.986832000">
        <ele>15.3</ele>
        <time>2020-10-11T08:32:42Z</time>
      </trkpt>
      <trkpt lat="37.407757000" lon="-5.986941000">
        <ele>14.8</ele>
        <time>2020-10-11T08:32:44Z</time>
      </trkpt>
      <trkpt lat="37.407774000" lon="-5.987051000">
        <ele>14.5</ele>
        <time>2020-10-11T08:32:46Z</time>
      </trkpt>
      <trkpt lat="37.407787000" lon="-5.987157000">
        <ele>14.2</ele>
        <time>2020-10-11T08:32:48Z</time>
      </trkpt>
      <trkpt lat="37.407797000" lon="-5.987260000">
        <ele>13.9</ele>
        <time>2020-10-11T08:32:50Z</time>
      </trkpt>
      <trkpt lat="37.407803000" lon="-5.987370000">
        <ele>13.7</ele>
        <time>2020-10-11T08:32:52Z</time>
      </trkpt>
      <trkpt lat="37.407808000" lon="-5.987500000">
        <ele>13.6</ele>
        <time>2020-10-11T08:32:54Z</time>
      </trkpt>
      <trkpt lat="37.407830000" lon="-5.987604000">
        <ele>13.6</ele>
        <time>2020-10-11T08:32:56Z</time>
      </trkpt>
      <trkpt lat="37.407840000" lon="-5.987718000">
        <ele>13.6</ele>
        <time>2020-10-11T08:32:58Z</time>
      </trkpt>
      <trkpt lat="37.407848000" lon="-5.987828000">
        <ele>13.6</ele>
        <time>2020-10-11T08:33:00Z</time>
      </trkpt>
      <trkpt lat="37.407881000" lon="-5.987941000">
        <ele>13.7</ele>
        <time>2020-10-11T08:33:02Z</time>
      </trkpt>
      <trkpt lat="37.407940000" lon="-5.988040000">
        <ele>13.8</ele>
        <time>2020-10-11T08:33:04Z</time>
      </trkpt>
      <trkpt lat="37.408007000" lon="-5.988126000">
        <ele>13.9</ele>
        <time>2020-10-11T08:33:06Z</time>
      </trkpt>
      <trkpt lat="37.408079000" lon="-5.988183000">
        <ele>13.8</ele>
        <time>2020-10-11T08:33:08Z</time>
      </trkpt>
      <trkpt lat="37.408194000" lon="-5.988198000">
        <ele>13.7</ele>
        <time>2020-10-11T08:33:11Z</time>
      </trkpt>
      <trkpt lat="37.408281000" lon="-5.988158000">
        <ele>13.6</ele>
        <time>2020-10-11T08:33:14Z</time>
      </trkpt>
      <trkpt lat="37.408349000" lon="-5.988075000">
        <ele>13.5</ele>
        <time>2020-10-11T08:33:18Z</time>
      </trkpt>
      <trkpt lat="37.408430000" lon="-5.988043000">
        <ele>13.5</ele>
        <time>2020-10-11T08:33:25Z</time>
      </trkpt>
      <trkpt lat="37.408538000" lon="-5.988026000">
        <ele>13.4</ele>
        <time>2020-10-11T08:33:31Z</time>
      </trkpt>
      <trkpt lat="37.408644000" lon="-5.988017000">
        <ele>13.3</ele>
        <time>2020-10-11T08:33:34Z</time>
      </trkpt>
      <trkpt lat="37.408745000" lon="-5.987945000">
        <ele>13.3</ele>
        <time>2020-10-11T08:33:37Z</time>
      </trkpt>
      <trkpt lat="37.408848000" lon="-5.987881000">
        <ele>13.2</ele>
        <time>2020-10-11T08:33:40Z</time>
      </trkpt>
      <trkpt lat="37.408929000" lon="-5.987813000">
        <ele>13.1</ele>
        <time>2020-10-11T08:33:43Z</time>
      </trkpt>
      <trkpt lat="37.408946000" lon="-5.987772000">
        <ele>13.0</ele>
        <time>2020-10-11T08:34:03Z</time>
      </trkpt>
      <trkpt lat="37.408906000" lon="-5.987724000">
        <ele>13.0</ele>
        <time>2020-10-11T08:43:07Z</time>
      </trkpt>
      <trkpt lat="37.408878000" lon="-5.987830000">
        <ele>13.1</ele>
        <time>2020-10-11T08:43:36Z</time>
      </trkpt>
      <trkpt lat="37.408796000" lon="-5.987900000">
        <ele>13.2</ele>
        <time>2020-10-11T08:43:40Z</time>
      </trkpt>
      <trkpt lat="37.408707000" lon="-5.987944000">
        <ele>13.2</ele>
        <time>2020-10-11T08:43:43Z</time>
      </trkpt>
      <trkpt lat="37.408620000" lon="-5.987997000">
        <ele>13.2</ele>
        <time>2020-10-11T08:43:46Z</time>
      </trkpt>
      <trkpt lat="37.408525000" lon="-5.988067000">
        <ele>13.2</ele>
        <time>2020-10-11T08:43:49Z</time>
      </trkpt>
      <trkpt lat="37.408429000" lon="-5.988115000">
        <ele>13.2</ele>
        <time>2020-10-11T08:43:52Z</time>
      </trkpt>
      <trkpt lat="37.408344000" lon="-5.988185000">
        <ele>13.2</ele>
        <time>2020-10-11T08:43:55Z</time>
      </trkpt>
      <trkpt lat="37.408264000" lon="-5.988264000">
        <ele>13.2</ele>
        <time>2020-10-11T08:43:58Z</time>
      </trkpt>
      <trkpt lat="37.408279000" lon="-5.988389000">
        <ele>13.2</ele>
        <time>2020-10-11T08:44:01Z</time>
      </trkpt>
      <trkpt lat="37.408339000" lon="-5.988467000">
        <ele>13.2</ele>
        <time>2020-10-11T08:44:03Z</time>
      </trkpt>
      <trkpt lat="37.408401000" lon="-5.988552000">
        <ele>13.2</ele>
        <time>2020-10-11T08:44:05Z</time>
      </trkpt>
      <trkpt lat="37.408464000" lon="-5.988639000">
        <ele>13.0</ele>
        <time>2020-10-11T08:44:07Z</time>
      </trkpt>
      <trkpt lat="37.408523000" lon="-5.988727000">
        <ele>12.8</ele>
        <time>2020-10-11T08:44:09Z</time>
      </trkpt>
      <trkpt lat="37.408584000" lon="-5.988812000">
        <ele>12.7</ele>
        <time>2020-10-11T08:44:11Z</time>
      </trkpt>
      <trkpt lat="37.408656000" lon="-5.988919000">
        <ele>12.6</ele>
        <time>2020-10-11T08:44:13Z</time>
      </trkpt>
      <trkpt lat="37.408707000" lon="-5.989000000">
        <ele>12.5</ele>
        <time>2020-10-11T08:44:15Z</time>
      </trkpt>
      <trkpt lat="37.408767000" lon="-5.989122000">
        <ele>12.5</ele>
        <time>2020-10-11T08:44:20Z</time>
      </trkpt>
      <trkpt lat="37.408821000" lon="-5.989228000">
        <ele>12.4</ele>
        <time>2020-10-11T08:44:23Z</time>
      </trkpt>
      <trkpt lat="37.408865000" lon="-5.989363000">
        <ele>12.3</ele>
        <time>2020-10-11T08:44:26Z</time>
      </trkpt>
      <trkpt lat="37.408894000" lon="-5.989514000">
        <ele>12.2</ele>
        <time>2020-10-11T08:44:29Z</time>
      </trkpt>
      <trkpt lat="37.408906000" lon="-5.989623000">
        <ele>12.1</ele>
        <time>2020-10-11T08:44:31Z</time>
      </trkpt>
      <trkpt lat="37.408915000" lon="-5.989731000">
        <ele>12.0</ele>
        <time>2020-10-11T08:44:33Z</time>
      </trkpt>
      <trkpt lat="37.408922000" lon="-5.989843000">
        <ele>12.0</ele>
        <time>2020-10-11T08:44:35Z</time>
      </trkpt>
      <trkpt lat="37.408932000" lon="-5.989960000">
        <ele>12.0</ele>
        <time>2020-10-11T08:44:37Z</time>
      </trkpt>
      <trkpt lat="37.408950000" lon="-5.990090000">
        <ele>11.9</ele>
        <time>2020-10-11T08:44:39Z</time>
      </trkpt>
      <trkpt lat="37.408960000" lon="-5.990198000">
        <ele>11.8</ele>
        <time>2020-10-11T08:44:41Z</time>
      </trkpt>
      <trkpt lat="37.409029000" lon="-5.990318000">
        <ele>11.6</ele>
        <time>2020-10-11T08:44:44Z</time>
      </trkpt>
      <trkpt lat="37.409112000" lon="-5.990408000">
        <ele>11.3</ele>
        <time>2020-10-11T08:44:47Z</time>
      </trkpt>
      <trkpt lat="37.409162000" lon="-5.990525000">
        <ele>10.8</ele>
        <time>2020-10-11T08:44:50Z</time>
      </trkpt>
      <trkpt lat="37.409096000" lon="-5.990606000">
        <ele>10.3</ele>
        <time>2020-10-11T08:44:53Z</time>
      </trkpt>
      <trkpt lat="37.409015000" lon="-5.990675000">
        <ele>9.7</ele>
        <time>2020-10-11T08:44:56Z</time>
      </trkpt>
      <trkpt lat="37.409064000" lon="-5.990784000">
        <ele>9.1</ele>
        <time>2020-10-11T08:45:01Z</time>
      </trkpt>
      <trkpt lat="37.409119000" lon="-5.990905000">
        <ele>8.5</ele>
        <time>2020-10-11T08:45:05Z</time>
      </trkpt>
      <trkpt lat="37.409168000" lon="-5.991002000">
        <ele>8.0</ele>
        <time>2020-10-11T08:45:08Z</time>
      </trkpt>
      <trkpt lat="37.409210000" lon="-5.991095000">
        <ele>7.5</ele>
        <time>2020-10-11T08:45:11Z</time>
      </trkpt>
      <trkpt lat="37.409279000" lon="-5.991178000">
        <ele>7.0</ele>
        <time>2020-10-11T08:45:15Z</time>
      </trkpt>
      <trkpt lat="37.409346000" lon="-5.991237000">
        <ele>6.5</ele>
        <time>2020-10-11T08:45:18Z</time>
      </trkpt>
      <trkpt lat="37.409402000" lon="-5.991327000">
        <ele>6.2</ele>
        <time>2020-10-11T08:45:21Z</time>
      </trkpt>
      <trkpt lat="37.409455000" lon="-5.991422000">
        <ele>6.0</ele>
        <time>2020-10-11T08:45:24Z</time>
      </trkpt>
      <trkpt lat="37.409503000" lon="-5.991545000">
        <ele>5.9</ele>
        <time>2020-10-11T08:45:28Z</time>
      </trkpt>
      <trkpt lat="37.409594000" lon="-5.991573000">
        <ele>5.9</ele>
        <time>2020-10-11T08:45:33Z</time>
      </trkpt>
      <trkpt lat="37.409514000" lon="-5.991531000">
        <ele>5.9</ele>
        <time>2020-10-11T08:46:31Z</time>
      </trkpt>
      <trkpt lat="37.409404000" lon="-5.991517000">
        <ele>6.0</ele>
        <time>2020-10-11T08:46:36Z</time>
      </trkpt>
      <trkpt lat="37.409315000" lon="-5.991573000">
        <ele>6.0</ele>
        <time>2020-10-11T08:46:39Z</time>
      </trkpt>
      <trkpt lat="37.409223000" lon="-5.991660000">
        <ele>6.1</ele>
        <time>2020-10-11T08:46:42Z</time>
      </trkpt>
      <trkpt lat="37.409123000" lon="-5.991745000">
        <ele>6.2</ele>
        <time>2020-10-11T08:46:45Z</time>
      </trkpt>
      <trkpt lat="37.409025000" lon="-5.991803000">
        <ele>6.3</ele>
        <time>2020-10-11T08:46:48Z</time>
      </trkpt>
      <trkpt lat="37.408949000" lon="-5.991855000">
        <ele>6.4</ele>
        <time>2020-10-11T08:46:50Z</time>
      </trkpt>
      <trkpt lat="37.408871000" lon="-5.991909000">
        <ele>6.5</ele>
        <time>2020-10-11T08:46:52Z</time>
      </trkpt>
      <trkpt lat="37.408794000" lon="-5.991964000">
        <ele>6.7</ele>
        <time>2020-10-11T08:46:54Z</time>
      </trkpt>
      <trkpt lat="37.408709000" lon="-5.992023000">
        <ele>6.9</ele>
        <time>2020-10-11T08:46:56Z</time>
      </trkpt>
      <trkpt lat="37.408632000" lon="-5.992089000">
        <ele>7.0</ele>
        <time>2020-10-11T08:46:58Z</time>
      </trkpt>
      <trkpt lat="37.408547000" lon="-5.992159000">
        <ele>7.0</ele>
        <time>2020-10-11T08:47:00Z</time>
      </trkpt>
      <trkpt lat="37.408469000" lon="-5.992224000">
        <ele>7.0</ele>
        <time>2020-10-11T08:47:02Z</time>
      </trkpt>
      <trkpt lat="37.408387000" lon="-5.992291000">
        <ele>6.9</ele>
        <time>2020-10-11T08:47:04Z</time>
      </trkpt>
      <trkpt lat="37.408302000" lon="-5.992331000">
        <ele>6.7</ele>
        <time>2020-10-11T08:47:06Z</time>
      </trkpt>
      <trkpt lat="37.408213000" lon="-5.992399000">
        <ele>6.6</ele>
        <time>2020-10-11T08:47:08Z</time>
      </trkpt>
      <trkpt lat="37.408140000" lon="-5.992460000">
        <ele>6.5</ele>
        <time>2020-10-11T08:47:10Z</time>
      </trkpt>
      <trkpt lat="37.408061000" lon="-5.992502000">
        <ele>6.4</ele>
        <time>2020-10-11T08:47:12Z</time>
      </trkpt>
      <trkpt lat="37.407971000" lon="-5.992580000">
        <ele>6.1</ele>
        <time>2020-10-11T08:47:14Z</time>
      </trkpt>
      <trkpt lat="37.407883000" lon="-5.992650000">
        <ele>5.9</ele>
        <time>2020-10-11T08:47:16Z</time>
      </trkpt>
      <trkpt lat="37.407793000" lon="-5.992709000">
        <ele>5.8</ele>
        <time>2020-10-11T08:47:18Z</time>
      </trkpt>
      <trkpt lat="37.407705000" lon="-5.992763000">
        <ele>5.9</ele>
        <time>2020-10-11T08:47:20Z</time>
      </trkpt>
      <trkpt lat="37.407616000" lon="-5.992830000">
        <ele>6.1</ele>
        <time>2020-10-11T08:47:22Z</time>
      </trkpt>
      <trkpt lat="37.407530000" lon="-5.992895000">
        <ele>6.2</ele>
        <time>2020-10-11T08:47:24Z</time>
      </trkpt>
      <trkpt lat="37.407447000" lon="-5.992956000">
        <ele>6.4</ele>
        <time>2020-10-11T08:47:26Z</time>
      </trkpt>
      <trkpt lat="37.407369000" lon="-5.993018000">
        <ele>6.5</ele>
        <time>2020-10-11T08:47:28Z</time>
      </trkpt>
      <trkpt lat="37.407277000" lon="-5.993098000">
        <ele>6.5</ele>
        <time>2020-10-11T08:47:30Z</time>
      </trkpt>
      <trkpt lat="37.407188000" lon="-5.993170000">
        <ele>6.6</ele>
        <time>2020-10-11T08:47:32Z</time>
      </trkpt>
      <trkpt lat="37.407092000" lon="-5.993230000">
        <ele>6.8</ele>
        <time>2020-10-11T08:47:34Z</time>
      </trkpt>
      <trkpt lat="37.407000000" lon="-5.993285000">
        <ele>7.0</ele>
        <time>2020-10-11T08:47:36Z</time>
      </trkpt>
      <trkpt lat="37.406912000" lon="-5.993354000">
        <ele>7.1</ele>
        <time>2020-10-11T08:47:38Z</time>
      </trkpt>
      <trkpt lat="37.406814000" lon="-5.993415000">
        <ele>7.2</ele>
        <time>2020-10-11T08:47:40Z</time>
      </trkpt>
      <trkpt lat="37.406721000" lon="-5.993480000">
        <ele>7.2</ele>
        <time>2020-10-11T08:47:42Z</time>
      </trkpt>
      <trkpt lat="37.406625000" lon="-5.993555000">
        <ele>7.2</ele>
        <time>2020-10-11T08:47:44Z</time>
      </trkpt>
      <trkpt lat="37.406517000" lon="-5.993619000">
        <ele>7.3</ele>
        <time>2020-10-11T08:47:46Z</time>
      </trkpt>
      <trkpt lat="37.406427000" lon="-5.993693000">
        <ele>7.4</ele>
        <time>2020-10-11T08:47:48Z</time>
      </trkpt>
      <trkpt lat="37.406335000" lon="-5.993775000">
        <ele>7.5</ele>
        <time>2020-10-11T08:47:50Z</time>
      </trkpt>
      <trkpt lat="37.406246000" lon="-5.993847000">
        <ele>7.6</ele>
        <time>2020-10-11T08:47:52Z</time>
      </trkpt>
      <trkpt lat="37.406152000" lon="-5.993910000">
        <ele>7.8</ele>
        <time>2020-10-11T08:47:54Z</time>
      </trkpt>
      <trkpt lat="37.406066000" lon="-5.993980000">
        <ele>8.0</ele>
        <time>2020-10-11T08:47:56Z</time>
      </trkpt>
      <trkpt lat="37.405960000" lon="-5.994060000">
        <ele>8.2</ele>
        <time>2020-10-11T08:47:58Z</time>
      </trkpt>
      <trkpt lat="37.405870000" lon="-5.994124000">
        <ele>8.3</ele>
        <time>2020-10-11T08:48:00Z</time>
      </trkpt>
      <trkpt lat="37.405782000" lon="-5.994193000">
        <ele>8.3</ele>
        <time>2020-10-11T08:48:02Z</time>
      </trkpt>
      <trkpt lat="37.405691000" lon="-5.994258000">
        <ele>8.2</ele>
        <time>2020-10-11T08:48:04Z</time>
      </trkpt>
      <trkpt lat="37.405601000" lon="-5.994328000">
        <ele>8.1</ele>
        <time>2020-10-11T08:48:06Z</time>
      </trkpt>
      <trkpt lat="37.405509000" lon="-5.994400000">
        <ele>8.0</ele>
        <time>2020-10-11T08:48:08Z</time>
      </trkpt>
      <trkpt lat="37.405422000" lon="-5.994455000">
        <ele>7.9</ele>
        <time>2020-10-11T08:48:10Z</time>
      </trkpt>
      <trkpt lat="37.405331000" lon="-5.994522000">
        <ele>7.9</ele>
        <time>2020-10-11T08:48:12Z</time>
      </trkpt>
      <trkpt lat="37.405231000" lon="-5.994583000">
        <ele>7.9</ele>
        <time>2020-10-11T08:48:14Z</time>
      </trkpt>
      <trkpt lat="37.405140000" lon="-5.994652000">
        <ele>7.9</ele>
        <time>2020-10-11T08:48:16Z</time>
      </trkpt>
      <trkpt lat="37.405050000" lon="-5.994719000">
        <ele>7.7</ele>
        <time>2020-10-11T08:48:18Z</time>
      </trkpt>
      <trkpt lat="37.404957000" lon="-5.994788000">
        <ele>7.5</ele>
        <time>2020-10-11T08:48:20Z</time>
      </trkpt>
      <trkpt lat="37.404863000" lon="-5.994851000">
        <ele>7.5</ele>
        <time>2020-10-11T08:48:22Z</time>
      </trkpt>
      <trkpt lat="37.404769000" lon="-5.994911000">
        <ele>7.5</ele>
        <time>2020-10-11T08:48:24Z</time>
      </trkpt>
      <trkpt lat="37.404692000" lon="-5.994981000">
        <ele>7.5</ele>
        <time>2020-10-11T08:48:26Z</time>
      </trkpt>
      <trkpt lat="37.404734000" lon="-5.995095000">
        <ele>7.5</ele>
        <time>2020-10-11T08:48:29Z</time>
      </trkpt>
      <trkpt lat="37.404678000" lon="-5.995176000">
        <ele>7.6</ele>
        <time>2020-10-11T08:48:34Z</time>
      </trkpt>
      <trkpt lat="37.404585000" lon="-5.995238000">
        <ele>7.8</ele>
        <time>2020-10-11T08:48:38Z</time>
      </trkpt>
      <trkpt lat="37.404496000" lon="-5.995318000">
        <ele>7.9</ele>
        <time>2020-10-11T08:48:41Z</time>
      </trkpt>
      <trkpt lat="37.404429000" lon="-5.995375000">
        <ele>7.9</ele>
        <time>2020-10-11T08:48:43Z</time>
      </trkpt>
      <trkpt lat="37.404354000" lon="-5.995425000">
        <ele>7.7</ele>
        <time>2020-10-11T08:48:45Z</time>
      </trkpt>
      <trkpt lat="37.404285000" lon="-5.995479000">
        <ele>7.7</ele>
        <time>2020-10-11T08:48:47Z</time>
      </trkpt>
      <trkpt lat="37.404185000" lon="-5.995548000">
        <ele>7.6</ele>
        <time>2020-10-11T08:48:50Z</time>
      </trkpt>
      <trkpt lat="37.404110000" lon="-5.995598000">
        <ele>7.5</ele>
        <time>2020-10-11T08:48:52Z</time>
      </trkpt>
      <trkpt lat="37.404110000" lon="-5.995706000">
        <ele>7.5</ele>
        <time>2020-10-11T08:48:56Z</time>
      </trkpt>
      <trkpt lat="37.404194000" lon="-5.995649000">
        <ele>7.4</ele>
        <time>2020-10-11T08:48:59Z</time>
      </trkpt>
      <trkpt lat="37.404278000" lon="-5.995589000">
        <ele>7.2</ele>
        <time>2020-10-11T08:49:01Z</time>
      </trkpt>
      <trkpt lat="37.404369000" lon="-5.995518000">
        <ele>7.0</ele>
        <time>2020-10-11T08:49:03Z</time>
      </trkpt>
      <trkpt lat="37.404463000" lon="-5.995445000">
        <ele>6.7</ele>
        <time>2020-10-11T08:49:05Z</time>
      </trkpt>
      <trkpt lat="37.404570000" lon="-5.995370000">
        <ele>6.5</ele>
        <time>2020-10-11T08:49:07Z</time>
      </trkpt>
      <trkpt lat="37.404653000" lon="-5.995312000">
        <ele>6.5</ele>
        <time>2020-10-11T08:49:09Z</time>
      </trkpt>
      <trkpt lat="37.404753000" lon="-5.995341000">
        <ele>6.4</ele>
        <time>2020-10-11T08:49:12Z</time>
      </trkpt>
      <trkpt lat="37.404835000" lon="-5.995385000">
        <ele>6.4</ele>
        <time>2020-10-11T08:49:15Z</time>
      </trkpt>
      <trkpt lat="37.404814000" lon="-5.995486000">
        <ele>6.5</ele>
        <time>2020-10-11T08:49:20Z</time>
      </trkpt>
      <trkpt lat="37.404747000" lon="-5.995596000">
        <ele>6.5</ele>
        <time>2020-10-11T08:49:24Z</time>
      </trkpt>
      <trkpt lat="37.404836000" lon="-5.995598000">
        <ele>6.4</ele>
        <time>2020-10-11T08:49:31Z</time>
      </trkpt>
      <trkpt lat="37.404936000" lon="-5.995519000">
        <ele>6.4</ele>
        <time>2020-10-11T08:49:34Z</time>
      </trkpt>
      <trkpt lat="37.405005000" lon="-5.995407000">
        <ele>6.2</ele>
        <time>2020-10-11T08:49:36Z</time>
      </trkpt>
      <trkpt lat="37.405088000" lon="-5.995328000">
        <ele>6.0</ele>
        <time>2020-10-11T08:49:38Z</time>
      </trkpt>
      <trkpt lat="37.405177000" lon="-5.995248000">
        <ele>5.9</ele>
        <time>2020-10-11T08:49:40Z</time>
      </trkpt>
      <trkpt lat="37.405269000" lon="-5.995162000">
        <ele>5.8</ele>
        <time>2020-10-11T08:49:42Z</time>
      </trkpt>
      <trkpt lat="37.405359000" lon="-5.995077000">
        <ele>5.7</ele>
        <time>2020-10-11T08:49:44Z</time>
      </trkpt>
      <trkpt lat="37.405452000" lon="-5.994998000">
        <ele>5.7</ele>
        <time>2020-10-11T08:49:46Z</time>
      </trkpt>
      <trkpt lat="37.405544000" lon="-5.994915000">
        <ele>5.6</ele>
        <time>2020-10-11T08:49:48Z</time>
      </trkpt>
      <trkpt lat="37.405636000" lon="-5.994831000">
        <ele>5.5</ele>
        <time>2020-10-11T08:49:50Z</time>
      </trkpt>
      <trkpt lat="37.405731000" lon="-5.994750000">
        <ele>5.5</ele>
        <time>2020-10-11T08:49:52Z</time>
      </trkpt>
      <trkpt lat="37.405819000" lon="-5.994678000">
        <ele>5.5</ele>
        <time>2020-10-11T08:49:54Z</time>
      </trkpt>
      <trkpt lat="37.405900000" lon="-5.994612000">
        <ele>5.5</ele>
        <time>2020-10-11T08:49:56Z</time>
      </trkpt>
      <trkpt lat="37.405997000" lon="-5.994538000">
        <ele>5.7</ele>
        <time>2020-10-11T08:49:58Z</time>
      </trkpt>
      <trkpt lat="37.406079000" lon="-5.994461000">
        <ele>5.9</ele>
        <time>2020-10-11T08:50:00Z</time>
      </trkpt>
      <trkpt lat="37.406168000" lon="-5.994387000">
        <ele>6.0</ele>
        <time>2020-10-11T08:50:02Z</time>
      </trkpt>
      <trkpt lat="37.406264000" lon="-5.994319000">
        <ele>6.0</ele>
        <time>2020-10-11T08:50:04Z</time>
      </trkpt>
      <trkpt lat="37.406362000" lon="-5.994260000">
        <ele>6.0</ele>
        <time>2020-10-11T08:50:06Z</time>
      </trkpt>
      <trkpt lat="37.406451000" lon="-5.994167000">
        <ele>6.0</ele>
        <time>2020-10-11T08:50:08Z</time>
      </trkpt>
      <trkpt lat="37.406537000" lon="-5.994091000">
        <ele>6.0</ele>
        <time>2020-10-11T08:50:10Z</time>
      </trkpt>
      <trkpt lat="37.406625000" lon="-5.994029000">
        <ele>6.0</ele>
        <time>2020-10-11T08:50:12Z</time>
      </trkpt>
      <trkpt lat="37.406712000" lon="-5.993965000">
        <ele>6.0</ele>
        <time>2020-10-11T08:50:14Z</time>
      </trkpt>
      <trkpt lat="37.406798000" lon="-5.993901000">
        <ele>6.0</ele>
        <time>2020-10-11T08:50:16Z</time>
      </trkpt>
      <trkpt lat="37.406886000" lon="-5.993836000">
        <ele>6.0</ele>
        <time>2020-10-11T08:50:18Z</time>
      </trkpt>
      <trkpt lat="37.406975000" lon="-5.993768000">
        <ele>6.0</ele>
        <time>2020-10-11T08:50:20Z</time>
      </trkpt>
      <trkpt lat="37.407061000" lon="-5.993703000">
        <ele>6.0</ele>
        <time>2020-10-11T08:50:22Z</time>
      </trkpt>
      <trkpt lat="37.407147000" lon="-5.993640000">
        <ele>6.0</ele>
        <time>2020-10-11T08:50:24Z</time>
      </trkpt>
      <trkpt lat="37.407241000" lon="-5.993579000">
        <ele>6.0</ele>
        <time>2020-10-11T08:50:26Z</time>
      </trkpt>
      <trkpt lat="37.407318000" lon="-5.993533000">
        <ele>6.0</ele>
        <time>2020-10-11T08:50:28Z</time>
      </trkpt>
      <trkpt lat="37.407368000" lon="-5.993440000">
        <ele>6.0</ele>
        <time>2020-10-11T08:51:34Z</time>
      </trkpt>
      <trkpt lat="37.407468000" lon="-5.993373000">
        <ele>6.0</ele>
        <time>2020-10-11T08:51:38Z</time>
      </trkpt>
      <trkpt lat="37.407567000" lon="-5.993301000">
        <ele>6.0</ele>
        <time>2020-10-11T08:51:41Z</time>
      </trkpt>
      <trkpt lat="37.407638000" lon="-5.993249000">
        <ele>6.0</ele>
        <time>2020-10-11T08:51:43Z</time>
      </trkpt>
      <trkpt lat="37.407712000" lon="-5.993198000">
        <ele>6.0</ele>
        <time>2020-10-11T08:51:45Z</time>
      </trkpt>
      <trkpt lat="37.407784000" lon="-5.993145000">
        <ele>6.0</ele>
        <time>2020-10-11T08:51:47Z</time>
      </trkpt>
      <trkpt lat="37.407858000" lon="-5.993090000">
        <ele>5.9</ele>
        <time>2020-10-11T08:51:49Z</time>
      </trkpt>
      <trkpt lat="37.407931000" lon="-5.993037000">
        <ele>5.8</ele>
        <time>2020-10-11T08:51:51Z</time>
      </trkpt>
      <trkpt lat="37.408005000" lon="-5.992985000">
        <ele>5.7</ele>
        <time>2020-10-11T08:51:53Z</time>
      </trkpt>
      <trkpt lat="37.408077000" lon="-5.992931000">
        <ele>5.6</ele>
        <time>2020-10-11T08:51:55Z</time>
      </trkpt>
      <trkpt lat="37.408149000" lon="-5.992876000">
        <ele>5.5</ele>
        <time>2020-10-11T08:51:57Z</time>
      </trkpt>
      <trkpt lat="37.408223000" lon="-5.992824000">
        <ele>5.5</ele>
        <time>2020-10-11T08:51:59Z</time>
      </trkpt>
      <trkpt lat="37.408296000" lon="-5.992771000">
        <ele>5.4</ele>
        <time>2020-10-11T08:52:01Z</time>
      </trkpt>
      <trkpt lat="37.408370000" lon="-5.992719000">
        <ele>5.3</ele>
        <time>2020-10-11T08:52:03Z</time>
      </trkpt>
      <trkpt lat="37.408474000" lon="-5.992655000">
        <ele>5.2</ele>
        <time>2020-10-11T08:52:06Z</time>
      </trkpt>
      <trkpt lat="37.408543000" lon="-5.992601000">
        <ele>5.1</ele>
        <time>2020-10-11T08:52:08Z</time>
      </trkpt>
      <trkpt lat="37.408638000" lon="-5.992521000">
        <ele>5.0</ele>
        <time>2020-10-11T08:52:11Z</time>
      </trkpt>
      <trkpt lat="37.408731000" lon="-5.992451000">
        <ele>5.0</ele>
        <time>2020-10-11T08:52:14Z</time>
      </trkpt>
      <trkpt lat="37.408806000" lon="-5.992393000">
        <ele>5.0</ele>
        <time>2020-10-11T08:52:17Z</time>
      </trkpt>
      <trkpt lat="37.408890000" lon="-5.992340000">
        <ele>5.0</ele>
        <time>2020-10-11T08:52:20Z</time>
      </trkpt>
      <trkpt lat="37.408970000" lon="-5.992273000">
        <ele>5.0</ele>
        <time>2020-10-11T08:52:23Z</time>
      </trkpt>
      <trkpt lat="37.409043000" lon="-5.992210000">
        <ele>5.0</ele>
        <time>2020-10-11T08:52:26Z</time>
      </trkpt>
      <trkpt lat="37.409117000" lon="-5.992159000">
        <ele>5.0</ele>
        <time>2020-10-11T08:52:29Z</time>
      </trkpt>
      <trkpt lat="37.409188000" lon="-5.992095000">
        <ele>5.0</ele>
        <time>2020-10-11T08:52:32Z</time>
      </trkpt>
      <trkpt lat="37.409258000" lon="-5.992038000">
        <ele>5.0</ele>
        <time>2020-10-11T08:52:35Z</time>
      </trkpt>
      <trkpt lat="37.409329000" lon="-5.991971000">
        <ele>5.0</ele>
        <time>2020-10-11T08:52:38Z</time>
      </trkpt>
      <trkpt lat="37.409408000" lon="-5.991905000">
        <ele>5.0</ele>
        <time>2020-10-11T08:52:41Z</time>
      </trkpt>
      <trkpt lat="37.409486000" lon="-5.991851000">
        <ele>5.0</ele>
        <time>2020-10-11T08:52:44Z</time>
      </trkpt>
      <trkpt lat="37.409568000" lon="-5.991787000">
        <ele>5.1</ele>
        <time>2020-10-11T08:52:47Z</time>
      </trkpt>
      <trkpt lat="37.409652000" lon="-5.991741000">
        <ele>5.2</ele>
        <time>2020-10-11T08:52:50Z</time>
      </trkpt>
      <trkpt lat="37.409735000" lon="-5.991685000">
        <ele>5.2</ele>
        <time>2020-10-11T08:52:53Z</time>
      </trkpt>
      <trkpt lat="37.409814000" lon="-5.991626000">
        <ele>5.2</ele>
        <time>2020-10-11T08:52:56Z</time>
      </trkpt>
      <trkpt lat="37.409898000" lon="-5.991554000">
        <ele>5.2</ele>
        <time>2020-10-11T08:52:59Z</time>
      </trkpt>
      <trkpt lat="37.409988000" lon="-5.991501000">
        <ele>5.2</ele>
        <time>2020-10-11T08:53:02Z</time>
      </trkpt>
      <trkpt lat="37.410077000" lon="-5.991462000">
        <ele>5.2</ele>
        <time>2020-10-11T08:53:05Z</time>
      </trkpt>
      <trkpt lat="37.410026000" lon="-5.991546000">
        <ele>5.2</ele>
        <time>2020-10-11T08:54:23Z</time>
      </trkpt>
      <trkpt lat="37.409927000" lon="-5.991631000">
        <ele>5.2</ele>
        <time>2020-10-11T08:54:27Z</time>
      </trkpt>
      <trkpt lat="37.409846000" lon="-5.991666000">
        <ele>5.2</ele>
        <time>2020-10-11T08:54:29Z</time>
      </trkpt>
      <trkpt lat="37.409743000" lon="-5.991731000">
        <ele>5.2</ele>
        <time>2020-10-11T08:54:32Z</time>
      </trkpt>
      <trkpt lat="37.409644000" lon="-5.991772000">
        <ele>5.1</ele>
        <time>2020-10-11T08:54:35Z</time>
      </trkpt>
      <trkpt lat="37.409567000" lon="-5.991822000">
        <ele>5.0</ele>
        <time>2020-10-11T08:54:38Z</time>
      </trkpt>
      <trkpt lat="37.409493000" lon="-5.991868000">
        <ele>5.0</ele>
        <time>2020-10-11T08:54:41Z</time>
      </trkpt>
      <trkpt lat="37.409412000" lon="-5.991926000">
        <ele>5.0</ele>
        <time>2020-10-11T08:54:44Z</time>
      </trkpt>
      <trkpt lat="37.409330000" lon="-5.991992000">
        <ele>5.0</ele>
        <time>2020-10-11T08:54:47Z</time>
      </trkpt>
      <trkpt lat="37.409256000" lon="-5.992054000">
        <ele>5.0</ele>
        <time>2020-10-11T08:54:50Z</time>
      </trkpt>
      <trkpt lat="37.409181000" lon="-5.992106000">
        <ele>5.0</ele>
        <time>2020-10-11T08:54:53Z</time>
      </trkpt>
      <trkpt lat="37.409101000" lon="-5.992142000">
        <ele>5.0</ele>
        <time>2020-10-11T08:54:56Z</time>
      </trkpt>
      <trkpt lat="37.409020000" lon="-5.992184000">
        <ele>5.0</ele>
        <time>2020-10-11T08:54:59Z</time>
      </trkpt>
      <trkpt lat="37.408946000" lon="-5.992262000">
        <ele>5.0</ele>
        <time>2020-10-11T08:55:02Z</time>
      </trkpt>
      <trkpt lat="37.408849000" lon="-5.992326000">
        <ele>5.0</ele>
        <time>2020-10-11T08:55:05Z</time>
      </trkpt>
      <trkpt lat="37.408755000" lon="-5.992399000">
        <ele>5.0</ele>
        <time>2020-10-11T08:55:08Z</time>
      </trkpt>
      <trkpt lat="37.408683000" lon="-5.992450000">
        <ele>5.0</ele>
        <time>2020-10-11T08:55:10Z</time>
      </trkpt>
      <trkpt lat="37.408611000" lon="-5.992515000">
        <ele>5.0</ele>
        <time>2020-10-11T08:55:12Z</time>
      </trkpt>
      <trkpt lat="37.408528000" lon="-5.992575000">
        <ele>5.1</ele>
        <time>2020-10-11T08:55:14Z</time>
      </trkpt>
      <trkpt lat="37.408449000" lon="-5.992635000">
        <ele>5.2</ele>
        <time>2020-10-11T08:55:16Z</time>
      </trkpt>
      <trkpt lat="37.408370000" lon="-5.992694000">
        <ele>5.3</ele>
        <time>2020-10-11T08:55:18Z</time>
      </trkpt>
      <trkpt lat="37.408292000" lon="-5.992739000">
        <ele>5.4</ele>
        <time>2020-10-11T08:55:20Z</time>
      </trkpt>
      <trkpt lat="37.408217000" lon="-5.992787000">
        <ele>5.5</ele>
        <time>2020-10-11T08:55:22Z</time>
      </trkpt>
      <trkpt lat="37.408146000" lon="-5.992837000">
        <ele>5.5</ele>
        <time>2020-10-11T08:55:24Z</time>
      </trkpt>
      <trkpt lat="37.408069000" lon="-5.992897000">
        <ele>5.6</ele>
        <time>2020-10-11T08:55:26Z</time>
      </trkpt>
      <trkpt lat="37.407982000" lon="-5.992953000">
        <ele>5.7</ele>
        <time>2020-10-11T08:55:28Z</time>
      </trkpt>
      <trkpt lat="37.407902000" lon="-5.993024000">
        <ele>5.8</ele>
        <time>2020-10-11T08:55:30Z</time>
      </trkpt>
      <trkpt lat="37.407817000" lon="-5.993091000">
        <ele>5.9</ele>
        <time>2020-10-11T08:55:32Z</time>
      </trkpt>
      <trkpt lat="37.407730000" lon="-5.993154000">
        <ele>6.0</ele>
        <time>2020-10-11T08:55:34Z</time>
      </trkpt>
      <trkpt lat="37.407635000" lon="-5.993224000">
        <ele>6.0</ele>
        <time>2020-10-11T08:55:36Z</time>
      </trkpt>
      <trkpt lat="37.407544000" lon="-5.993299000">
        <ele>6.0</ele>
        <time>2020-10-11T08:55:38Z</time>
      </trkpt>
      <trkpt lat="37.407461000" lon="-5.993369000">
        <ele>6.0</ele>
        <time>2020-10-11T08:55:40Z</time>
      </trkpt>
      <trkpt lat="37.407372000" lon="-5.993445000">
        <ele>6.0</ele>
        <time>2020-10-11T08:55:42Z</time>
      </trkpt>
      <trkpt lat="37.407283000" lon="-5.993517000">
        <ele>6.0</ele>
        <time>2020-10-11T08:55:44Z</time>
      </trkpt>
      <trkpt lat="37.407190000" lon="-5.993591000">
        <ele>6.0</ele>
        <time>2020-10-11T08:55:46Z</time>
      </trkpt>
      <trkpt lat="37.407095000" lon="-5.993653000">
        <ele>6.0</ele>
        <time>2020-10-11T08:55:48Z</time>
      </trkpt>
      <trkpt lat="37.407005000" lon="-5.993714000">
        <ele>6.0</ele>
        <time>2020-10-11T08:55:50Z</time>
      </trkpt>
      <trkpt lat="37.406916000" lon="-5.993786000">
        <ele>6.0</ele>
        <time>2020-10-11T08:55:52Z</time>
      </trkpt>
      <trkpt lat="37.406827000" lon="-5.993849000">
        <ele>6.0</ele>
        <time>2020-10-11T08:55:54Z</time>
      </trkpt>
      <trkpt lat="37.406740000" lon="-5.993907000">
        <ele>6.0</ele>
        <time>2020-10-11T08:55:56Z</time>
      </trkpt>
      <trkpt lat="37.406655000" lon="-5.993965000">
        <ele>6.0</ele>
        <time>2020-10-11T08:55:58Z</time>
      </trkpt>
      <trkpt lat="37.406570000" lon="-5.994024000">
        <ele>6.0</ele>
        <time>2020-10-11T08:56:00Z</time>
      </trkpt>
      <trkpt lat="37.406497000" lon="-5.994097000">
        <ele>6.0</ele>
        <time>2020-10-11T08:56:02Z</time>
      </trkpt>
      <trkpt lat="37.406422000" lon="-5.994154000">
        <ele>6.0</ele>
        <time>2020-10-11T08:56:04Z</time>
      </trkpt>
      <trkpt lat="37.406345000" lon="-5.994217000">
        <ele>6.0</ele>
        <time>2020-10-11T08:56:06Z</time>
      </trkpt>
      <trkpt lat="37.406267000" lon="-5.994283000">
        <ele>6.0</ele>
        <time>2020-10-11T08:56:08Z</time>
      </trkpt>
      <trkpt lat="37.406196000" lon="-5.994340000">
        <ele>6.0</ele>
        <time>2020-10-11T08:56:10Z</time>
      </trkpt>
      <trkpt lat="37.406116000" lon="-5.994406000">
        <ele>6.0</ele>
        <time>2020-10-11T08:56:12Z</time>
      </trkpt>
      <trkpt lat="37.406044000" lon="-5.994471000">
        <ele>5.9</ele>
        <time>2020-10-11T08:56:14Z</time>
      </trkpt>
      <trkpt lat="37.405963000" lon="-5.994540000">
        <ele>5.7</ele>
        <time>2020-10-11T08:56:16Z</time>
      </trkpt>
      <trkpt lat="37.405885000" lon="-5.994598000">
        <ele>5.5</ele>
        <time>2020-10-11T08:56:18Z</time>
      </trkpt>
      <trkpt lat="37.405812000" lon="-5.994664000">
        <ele>5.5</ele>
        <time>2020-10-11T08:56:20Z</time>
      </trkpt>
      <trkpt lat="37.405743000" lon="-5.994717000">
        <ele>5.5</ele>
        <time>2020-10-11T08:56:22Z</time>
      </trkpt>
      <trkpt lat="37.405644000" lon="-5.994806000">
        <ele>5.5</ele>
        <time>2020-10-11T08:56:25Z</time>
      </trkpt>
      <trkpt lat="37.405568000" lon="-5.994866000">
        <ele>5.5</ele>
        <time>2020-10-11T08:56:27Z</time>
      </trkpt>
      <trkpt lat="37.405501000" lon="-5.994947000">
        <ele>5.5</ele>
        <time>2020-10-11T08:56:29Z</time>
      </trkpt>
      <trkpt lat="37.405427000" lon="-5.995017000">
        <ele>5.5</ele>
        <time>2020-10-11T08:56:31Z</time>
      </trkpt>
      <trkpt lat="37.405350000" lon="-5.995096000">
        <ele>5.5</ele>
        <time>2020-10-11T08:56:33Z</time>
      </trkpt>
      <trkpt lat="37.405269000" lon="-5.995164000">
        <ele>5.5</ele>
        <time>2020-10-11T08:56:35Z</time>
      </trkpt>
      <trkpt lat="37.405189000" lon="-5.995248000">
        <ele>5.6</ele>
        <time>2020-10-11T08:56:37Z</time>
      </trkpt>
      <trkpt lat="37.405109000" lon="-5.995327000">
        <ele>5.8</ele>
        <time>2020-10-11T08:56:39Z</time>
      </trkpt>
      <trkpt lat="37.405028000" lon="-5.995406000">
        <ele>6.0</ele>
        <time>2020-10-11T08:56:41Z</time>
      </trkpt>
      <trkpt lat="37.404947000" lon="-5.995482000">
        <ele>6.2</ele>
        <time>2020-10-11T08:56:43Z</time>
      </trkpt>
      <trkpt lat="37.404870000" lon="-5.995553000">
        <ele>6.3</ele>
        <time>2020-10-11T08:56:45Z</time>
      </trkpt>
      <trkpt lat="37.404788000" lon="-5.995628000">
        <ele>6.3</ele>
        <time>2020-10-11T08:56:47Z</time>
      </trkpt>
      <trkpt lat="37.404702000" lon="-5.995688000">
        <ele>6.3</ele>
        <time>2020-10-11T08:56:49Z</time>
      </trkpt>
      <trkpt lat="37.404622000" lon="-5.995763000">
        <ele>6.4</ele>
        <time>2020-10-11T08:56:51Z</time>
      </trkpt>
      <trkpt lat="37.404543000" lon="-5.995844000">
        <ele>6.5</ele>
        <time>2020-10-11T08:56:53Z</time>
      </trkpt>
      <trkpt lat="37.404461000" lon="-5.995921000">
        <ele>6.5</ele>
        <time>2020-10-11T08:56:55Z</time>
      </trkpt>
      <trkpt lat="37.404378000" lon="-5.995995000">
        <ele>6.6</ele>
        <time>2020-10-11T08:56:57Z</time>
      </trkpt>
      <trkpt lat="37.404300000" lon="-5.996077000">
        <ele>6.6</ele>
        <time>2020-10-11T08:56:59Z</time>
      </trkpt>
      <trkpt lat="37.404213000" lon="-5.996140000">
        <ele>6.6</ele>
        <time>2020-10-11T08:57:01Z</time>
      </trkpt>
      <trkpt lat="37.404136000" lon="-5.996224000">
        <ele>6.6</ele>
        <time>2020-10-11T08:57:03Z</time>
      </trkpt>
      <trkpt lat="37.404053000" lon="-5.996309000">
        <ele>6.5</ele>
        <time>2020-10-11T08:57:05Z</time>
      </trkpt>
      <trkpt lat="37.403966000" lon="-5.996391000">
        <ele>6.5</ele>
        <time>2020-10-11T08:57:07Z</time>
      </trkpt>
      <trkpt lat="37.403890000" lon="-5.996466000">
        <ele>6.5</ele>
        <time>2020-10-11T08:57:09Z</time>
      </trkpt>
      <trkpt lat="37.403816000" lon="-5.996528000">
        <ele>6.5</ele>
        <time>2020-10-11T08:57:11Z</time>
      </trkpt>
      <trkpt lat="37.403725000" lon="-5.996602000">
        <ele>6.4</ele>
        <time>2020-10-11T08:57:13Z</time>
      </trkpt>
      <trkpt lat="37.403639000" lon="-5.996686000">
        <ele>6.3</ele>
        <time>2020-10-11T08:57:15Z</time>
      </trkpt>
      <trkpt lat="37.403557000" lon="-5.996770000">
        <ele>6.2</ele>
        <time>2020-10-11T08:57:17Z</time>
      </trkpt>
      <trkpt lat="37.403472000" lon="-5.996844000">
        <ele>6.1</ele>
        <time>2020-10-11T08:57:19Z</time>
      </trkpt>
      <trkpt lat="37.403381000" lon="-5.996925000">
        <ele>6.0</ele>
        <time>2020-10-11T08:57:21Z</time>
      </trkpt>
      <trkpt lat="37.403299000" lon="-5.997005000">
        <ele>6.0</ele>
        <time>2020-10-11T08:57:23Z</time>
      </trkpt>
      <trkpt lat="37.403215000" lon="-5.997075000">
        <ele>5.9</ele>
        <time>2020-10-11T08:57:25Z</time>
      </trkpt>
      <trkpt lat="37.403132000" lon="-5.997151000">
        <ele>5.8</ele>
        <time>2020-10-11T08:57:27Z</time>
      </trkpt>
      <trkpt lat="37.403056000" lon="-5.997233000">
        <ele>5.7</ele>
        <time>2020-10-11T08:57:29Z</time>
      </trkpt>
      <trkpt lat="37.402977000" lon="-5.997306000">
        <ele>5.5</ele>
        <time>2020-10-11T08:57:31Z</time>
      </trkpt>
      <trkpt lat="37.402901000" lon="-5.997366000">
        <ele>5.4</ele>
        <time>2020-10-11T08:57:33Z</time>
      </trkpt>
      <trkpt lat="37.402825000" lon="-5.997443000">
        <ele>5.1</ele>
        <time>2020-10-11T08:57:35Z</time>
      </trkpt>
      <trkpt lat="37.402749000" lon="-5.997515000">
        <ele>4.9</ele>
        <time>2020-10-11T08:57:37Z</time>
      </trkpt>
      <trkpt lat="37.402677000" lon="-5.997575000">
        <ele>4.8</ele>
        <time>2020-10-11T08:57:39Z</time>
      </trkpt>
      <trkpt lat="37.402605000" lon="-5.997644000">
        <ele>4.8</ele>
        <time>2020-10-11T08:57:41Z</time>
      </trkpt>
      <trkpt lat="37.402533000" lon="-5.997707000">
        <ele>4.8</ele>
        <time>2020-10-11T08:57:43Z</time>
      </trkpt>
      <trkpt lat="37.402447000" lon="-5.997784000">
        <ele>4.8</ele>
        <time>2020-10-11T08:57:45Z</time>
      </trkpt>
      <trkpt lat="37.402367000" lon="-5.997865000">
        <ele>4.9</ele>
        <time>2020-10-11T08:57:47Z</time>
      </trkpt>
      <trkpt lat="37.402279000" lon="-5.997962000">
        <ele>5.0</ele>
        <time>2020-10-11T08:57:49Z</time>
      </trkpt>
      <trkpt lat="37.402187000" lon="-5.998060000">
        <ele>5.1</ele>
        <time>2020-10-11T08:57:51Z</time>
      </trkpt>
      <trkpt lat="37.402097000" lon="-5.998146000">
        <ele>5.3</ele>
        <time>2020-10-11T08:57:53Z</time>
      </trkpt>
      <trkpt lat="37.402005000" lon="-5.998228000">
        <ele>5.5</ele>
        <time>2020-10-11T08:57:55Z</time>
      </trkpt>
      <trkpt lat="37.401919000" lon="-5.998312000">
        <ele>5.7</ele>
        <time>2020-10-11T08:57:57Z</time>
      </trkpt>
      <trkpt lat="37.401826000" lon="-5.998391000">
        <ele>5.9</ele>
        <time>2020-10-11T08:57:59Z</time>
      </trkpt>
      <trkpt lat="37.401738000" lon="-5.998470000">
        <ele>5.9</ele>
        <time>2020-10-11T08:58:01Z</time>
      </trkpt>
      <trkpt lat="37.401652000" lon="-5.998545000">
        <ele>5.8</ele>
        <time>2020-10-11T08:58:03Z</time>
      </trkpt>
      <trkpt lat="37.401570000" lon="-5.998624000">
        <ele>5.7</ele>
        <time>2020-10-11T08:58:05Z</time>
      </trkpt>
      <trkpt lat="37.401489000" lon="-5.998693000">
        <ele>5.6</ele>
        <time>2020-10-11T08:58:07Z</time>
      </trkpt>
      <trkpt lat="37.401423000" lon="-5.998777000">
        <ele>5.6</ele>
        <time>2020-10-11T08:58:09Z</time>
      </trkpt>
      <trkpt lat="37.401332000" lon="-5.998863000">
        <ele>5.6</ele>
        <time>2020-10-11T08:58:12Z</time>
      </trkpt>
      <trkpt lat="37.401255000" lon="-5.998923000">
        <ele>5.6</ele>
        <time>2020-10-11T08:58:33Z</time>
      </trkpt>
      <trkpt lat="37.401170000" lon="-5.999000000">
        <ele>5.6</ele>
        <time>2020-10-11T08:58:37Z</time>
      </trkpt>
      <trkpt lat="37.401084000" lon="-5.999082000">
        <ele>5.7</ele>
        <time>2020-10-11T08:58:40Z</time>
      </trkpt>
      <trkpt lat="37.400988000" lon="-5.999178000">
        <ele>5.8</ele>
        <time>2020-10-11T08:58:43Z</time>
      </trkpt>
      <trkpt lat="37.400919000" lon="-5.999251000">
        <ele>5.9</ele>
        <time>2020-10-11T08:58:45Z</time>
      </trkpt>
      <trkpt lat="37.400844000" lon="-5.999306000">
        <ele>6.0</ele>
        <time>2020-10-11T08:58:47Z</time>
      </trkpt>
      <trkpt lat="37.400767000" lon="-5.999371000">
        <ele>6.1</ele>
        <time>2020-10-11T08:58:49Z</time>
      </trkpt>
      <trkpt lat="37.400691000" lon="-5.999443000">
        <ele>6.1</ele>
        <time>2020-10-11T08:58:51Z</time>
      </trkpt>
      <trkpt lat="37.400623000" lon="-5.999517000">
        <ele>6.2</ele>
        <time>2020-10-11T08:58:53Z</time>
      </trkpt>
      <trkpt lat="37.400550000" lon="-5.999593000">
        <ele>6.4</ele>
        <time>2020-10-11T08:58:55Z</time>
      </trkpt>
      <trkpt lat="37.400473000" lon="-5.999663000">
        <ele>6.8</ele>
        <time>2020-10-11T08:58:57Z</time>
      </trkpt>
      <trkpt lat="37.400395000" lon="-5.999725000">
        <ele>7.5</ele>
        <time>2020-10-11T08:58:59Z</time>
      </trkpt>
      <trkpt lat="37.400326000" lon="-5.999794000">
        <ele>8.4</ele>
        <time>2020-10-11T08:59:01Z</time>
      </trkpt>
      <trkpt lat="37.400251000" lon="-5.999864000">
        <ele>9.2</ele>
        <time>2020-10-11T08:59:03Z</time>
      </trkpt>
      <trkpt lat="37.400168000" lon="-5.999920000">
        <ele>10.1</ele>
        <time>2020-10-11T08:59:05Z</time>
      </trkpt>
      <trkpt lat="37.400092000" lon="-5.999991000">
        <ele>11.2</ele>
        <time>2020-10-11T08:59:07Z</time>
      </trkpt>
      <trkpt lat="37.400021000" lon="-6.000065000">
        <ele>12.5</ele>
        <time>2020-10-11T08:59:09Z</time>
      </trkpt>
      <trkpt lat="37.399950000" lon="-6.000149000">
        <ele>14.2</ele>
        <time>2020-10-11T08:59:11Z</time>
      </trkpt>
      <trkpt lat="37.399875000" lon="-6.000221000">
        <ele>15.9</ele>
        <time>2020-10-11T08:59:13Z</time>
      </trkpt>
      <trkpt lat="37.399795000" lon="-6.000287000">
        <ele>17.5</ele>
        <time>2020-10-11T08:59:15Z</time>
      </trkpt>
      <trkpt lat="37.399719000" lon="-6.000359000">
        <ele>18.5</ele>
        <time>2020-10-11T08:59:17Z</time>
      </trkpt>
      <trkpt lat="37.399643000" lon="-6.000449000">
        <ele>19.0</ele>
        <time>2020-10-11T08:59:21Z</time>
      </trkpt>
      <trkpt lat="37.399562000" lon="-6.000527000">
        <ele>18.7</ele>
        <time>2020-10-11T08:59:24Z</time>
      </trkpt>
      <trkpt lat="37.399458000" lon="-6.000614000">
        <ele>18.1</ele>
        <time>2020-10-11T08:59:27Z</time>
      </trkpt>
      <trkpt lat="37.399388000" lon="-6.000683000">
        <ele>17.2</ele>
        <time>2020-10-11T08:59:29Z</time>
      </trkpt>
      <trkpt lat="37.399321000" lon="-6.000753000">
        <ele>16.0</ele>
        <time>2020-10-11T08:59:31Z</time>
      </trkpt>
      <trkpt lat="37.399250000" lon="-6.000816000">
        <ele>14.5</ele>
        <time>2020-10-11T08:59:33Z</time>
      </trkpt>
      <trkpt lat="37.399185000" lon="-6.000883000">
        <ele>12.9</ele>
        <time>2020-10-11T08:59:35Z</time>
      </trkpt>
      <trkpt lat="37.399109000" lon="-6.000953000">
        <ele>11.0</ele>
        <time>2020-10-11T08:59:37Z</time>
      </trkpt>
      <trkpt lat="37.399034000" lon="-6.001026000">
        <ele>9.1</ele>
        <time>2020-10-11T08:59:39Z</time>
      </trkpt>
      <trkpt lat="37.398958000" lon="-6.001088000">
        <ele>7.2</ele>
        <time>2020-10-11T08:59:41Z</time>
      </trkpt>
      <trkpt lat="37.398881000" lon="-6.001163000">
        <ele>5.5</ele>
        <time>2020-10-11T08:59:43Z</time>
      </trkpt>
      <trkpt lat="37.398798000" lon="-6.001238000">
        <ele>4.2</ele>
        <time>2020-10-11T08:59:45Z</time>
      </trkpt>
      <trkpt lat="37.398722000" lon="-6.001307000">
        <ele>3.2</ele>
        <time>2020-10-11T08:59:47Z</time>
      </trkpt>
      <trkpt lat="37.398640000" lon="-6.001368000">
        <ele>2.5</ele>
        <time>2020-10-11T08:59:49Z</time>
      </trkpt>
      <trkpt lat="37.398564000" lon="-6.001437000">
        <ele>1.9</ele>
        <time>2020-10-11T08:59:51Z</time>
      </trkpt>
      <trkpt lat="37.398487000" lon="-6.001510000">
        <ele>1.5</ele>
        <time>2020-10-11T08:59:53Z</time>
      </trkpt>
      <trkpt lat="37.398414000" lon="-6.001579000">
        <ele>1.2</ele>
        <time>2020-10-11T08:59:55Z</time>
      </trkpt>
      <trkpt lat="37.398367000" lon="-6.001668000">
        <ele>0.7</ele>
        <time>2020-10-11T08:59:58Z</time>
      </trkpt>
      <trkpt lat="37.398299000" lon="-6.001742000">
        <ele>0.5</ele>
        <time>2020-10-11T09:00:01Z</time>
      </trkpt>
      <trkpt lat="37.398237000" lon="-6.001819000">
        <ele>0.5</ele>
        <time>2020-10-11T09:00:05Z</time>
      </trkpt>
      <trkpt lat="37.398164000" lon="-6.001869000">
        <ele>0.5</ele>
        <time>2020-10-11T09:00:09Z</time>
      </trkpt>
      <trkpt lat="37.398131000" lon="-6.001975000">
        <ele>0.9</ele>
        <time>2020-10-11T09:00:14Z</time>
      </trkpt>
      <trkpt lat="37.398031000" lon="-6.001967000">
        <ele>1.6</ele>
        <time>2020-10-11T09:01:10Z</time>
      </trkpt>
      <trkpt lat="37.397955000" lon="-6.002040000">
        <ele>2.5</ele>
        <time>2020-10-11T09:01:13Z</time>
      </trkpt>
      <trkpt lat="37.397860000" lon="-6.002131000">
        <ele>3.2</ele>
        <time>2020-10-11T09:01:16Z</time>
      </trkpt>
      <trkpt lat="37.397790000" lon="-6.002193000">
        <ele>3.6</ele>
        <time>2020-10-11T09:01:18Z</time>
      </trkpt>
      <trkpt lat="37.397713000" lon="-6.002253000">
        <ele>3.6</ele>
        <time>2020-10-11T09:01:20Z</time>
      </trkpt>
      <trkpt lat="37.397627000" lon="-6.002309000">
        <ele>2.6</ele>
        <time>2020-10-11T09:01:22Z</time>
      </trkpt>
      <trkpt lat="37.397553000" lon="-6.002378000">
        <ele>1.8</ele>
        <time>2020-10-11T09:01:24Z</time>
      </trkpt>
      <trkpt lat="37.397475000" lon="-6.002454000">
        <ele>1.3</ele>
        <time>2020-10-11T09:01:26Z</time>
      </trkpt>
      <trkpt lat="37.397389000" lon="-6.002526000">
        <ele>1.1</ele>
        <time>2020-10-11T09:01:28Z</time>
      </trkpt>
      <trkpt lat="37.397310000" lon="-6.002596000">
        <ele>1.1</ele>
        <time>2020-10-11T09:01:30Z</time>
      </trkpt>
      <trkpt lat="37.397227000" lon="-6.002670000">
        <ele>0.9</ele>
        <time>2020-10-11T09:01:32Z</time>
      </trkpt>
      <trkpt lat="37.397147000" lon="-6.002744000">
        <ele>0.5</ele>
        <time>2020-10-11T09:01:34Z</time>
      </trkpt>
      <trkpt lat="37.397067000" lon="-6.002811000">
        <ele>0.3</ele>
        <time>2020-10-11T09:01:36Z</time>
      </trkpt>
      <trkpt lat="37.396983000" lon="-6.002886000">
        <ele>0.1</ele>
        <time>2020-10-11T09:01:38Z</time>
      </trkpt>
      <trkpt lat="37.396903000" lon="-6.002957000">
        <ele>0.3</ele>
        <time>2020-10-11T09:01:40Z</time>
      </trkpt>
      <trkpt lat="37.396830000" lon="-6.003031000">
        <ele>1.0</ele>
        <time>2020-10-11T09:01:42Z</time>
      </trkpt>
      <trkpt lat="37.396754000" lon="-6.003116000">
        <ele>2.7</ele>
        <time>2020-10-11T09:01:44Z</time>
      </trkpt>
      <trkpt lat="37.396672000" lon="-6.003195000">
        <ele>4.5</ele>
        <time>2020-10-11T09:01:46Z</time>
      </trkpt>
      <trkpt lat="37.396603000" lon="-6.003268000">
        <ele>5.7</ele>
        <time>2020-10-11T09:01:48Z</time>
      </trkpt>
      <trkpt lat="37.396524000" lon="-6.003343000">
        <ele>6.4</ele>
        <time>2020-10-11T09:01:50Z</time>
      </trkpt>
      <trkpt lat="37.396448000" lon="-6.003411000">
        <ele>6.9</ele>
        <time>2020-10-11T09:01:52Z</time>
      </trkpt>
      <trkpt lat="37.396376000" lon="-6.003481000">
        <ele>7.4</ele>
        <time>2020-10-11T09:01:54Z</time>
      </trkpt>
      <trkpt lat="37.396308000" lon="-6.003550000">
        <ele>7.7</ele>
        <time>2020-10-11T09:01:56Z</time>
      </trkpt>
      <trkpt lat="37.396237000" lon="-6.003618000">
        <ele>8.1</ele>
        <time>2020-10-11T09:01:58Z</time>
      </trkpt>
      <trkpt lat="37.396151000" lon="-6.003678000">
        <ele>8.5</ele>
        <time>2020-10-11T09:02:00Z</time>
      </trkpt>
      <trkpt lat="37.396065000" lon="-6.003750000">
        <ele>8.7</ele>
        <time>2020-10-11T09:02:02Z</time>
      </trkpt>
      <trkpt lat="37.395993000" lon="-6.003832000">
        <ele>9.0</ele>
        <time>2020-10-11T09:02:04Z</time>
      </trkpt>
      <trkpt lat="37.395918000" lon="-6.003907000">
        <ele>9.2</ele>
        <time>2020-10-11T09:02:06Z</time>
      </trkpt>
      <trkpt lat="37.395835000" lon="-6.003990000">
        <ele>9.3</ele>
        <time>2020-10-11T09:02:08Z</time>
      </trkpt>
      <trkpt lat="37.395762000" lon="-6.004053000">
        <ele>9.4</ele>
        <time>2020-10-11T09:02:10Z</time>
      </trkpt>
      <trkpt lat="37.395682000" lon="-6.004120000">
        <ele>9.5</ele>
        <time>2020-10-11T09:02:12Z</time>
      </trkpt>
      <trkpt lat="37.395605000" lon="-6.004204000">
        <ele>9.5</ele>
        <time>2020-10-11T09:02:14Z</time>
      </trkpt>
      <trkpt lat="37.395519000" lon="-6.004277000">
        <ele>9.6</ele>
        <time>2020-10-11T09:02:16Z</time>
      </trkpt>
      <trkpt lat="37.395429000" lon="-6.004339000">
        <ele>9.7</ele>
        <time>2020-10-11T09:02:18Z</time>
      </trkpt>
      <trkpt lat="37.395341000" lon="-6.004403000">
        <ele>9.7</ele>
        <time>2020-10-11T09:02:20Z</time>
      </trkpt>
      <trkpt lat="37.395254000" lon="-6.004463000">
        <ele>9.7</ele>
        <time>2020-10-11T09:02:22Z</time>
      </trkpt>
      <trkpt lat="37.395160000" lon="-6.004519000">
        <ele>9.8</ele>
        <time>2020-10-11T09:02:24Z</time>
      </trkpt>
      <trkpt lat="37.395080000" lon="-6.004578000">
        <ele>9.7</ele>
        <time>2020-10-11T09:02:26Z</time>
      </trkpt>
      <trkpt lat="37.394996000" lon="-6.004630000">
        <ele>9.5</ele>
        <time>2020-10-11T09:02:28Z</time>
      </trkpt>
      <trkpt lat="37.394908000" lon="-6.004674000">
        <ele>9.4</ele>
        <time>2020-10-11T09:02:30Z</time>
      </trkpt>
      <trkpt lat="37.394822000" lon="-6.004722000">
        <ele>9.1</ele>
        <time>2020-10-11T09:02:32Z</time>
      </trkpt>
      <trkpt lat="37.394734000" lon="-6.004774000">
        <ele>8.6</ele>
        <time>2020-10-11T09:02:34Z</time>
      </trkpt>
      <trkpt lat="37.394643000" lon="-6.004826000">
        <ele>8.1</ele>
        <time>2020-10-11T09:02:36Z</time>
      </trkpt>
      <trkpt lat="37.394563000" lon="-6.004876000">
        <ele>7.5</ele>
        <time>2020-10-11T09:02:38Z</time>
      </trkpt>
      <trkpt lat="37.394481000" lon="-6.004924000">
        <ele>6.8</ele>
        <time>2020-10-11T09:02:40Z</time>
      </trkpt>
      <trkpt lat="37.394386000" lon="-6.004978000">
        <ele>5.9</ele>
        <time>2020-10-11T09:02:42Z</time>
      </trkpt>
      <trkpt lat="37.394285000" lon="-6.005010000">
        <ele>4.9</ele>
        <time>2020-10-11T09:02:44Z</time>
      </trkpt>
      <trkpt lat="37.394196000" lon="-6.005050000">
        <ele>3.9</ele>
        <time>2020-10-11T09:02:46Z</time>
      </trkpt>
      <trkpt lat="37.394109000" lon="-6.005086000">
        <ele>3.1</ele>
        <time>2020-10-11T09:02:48Z</time>
      </trkpt>
      <trkpt lat="37.394031000" lon="-6.005131000">
        <ele>2.5</ele>
        <time>2020-10-11T09:02:50Z</time>
      </trkpt>
      <trkpt lat="37.393933000" lon="-6.005174000">
        <ele>2.1</ele>
        <time>2020-10-11T09:02:52Z</time>
      </trkpt>
      <trkpt lat="37.393840000" lon="-6.005206000">
        <ele>1.9</ele>
        <time>2020-10-11T09:02:54Z</time>
      </trkpt>
      <trkpt lat="37.393760000" lon="-6.005227000">
        <ele>2.0</ele>
        <time>2020-10-11T09:02:56Z</time>
      </trkpt>
      <trkpt lat="37.393658000" lon="-6.005255000">
        <ele>2.2</ele>
        <time>2020-10-11T09:02:59Z</time>
      </trkpt>
      <trkpt lat="37.393537000" lon="-6.005278000">
        <ele>2.5</ele>
        <time>2020-10-11T09:03:02Z</time>
      </trkpt>
      <trkpt lat="37.393456000" lon="-6.005292000">
        <ele>2.7</ele>
        <time>2020-10-11T09:03:04Z</time>
      </trkpt>
      <trkpt lat="37.393373000" lon="-6.005302000">
        <ele>3.3</ele>
        <time>2020-10-11T09:03:06Z</time>
      </trkpt>
      <trkpt lat="37.393288000" lon="-6.005309000">
        <ele>3.9</ele>
        <time>2020-10-11T09:03:08Z</time>
      </trkpt>
      <trkpt lat="37.393206000" lon="-6.005308000">
        <ele>4.5</ele>
        <time>2020-10-11T09:03:10Z</time>
      </trkpt>
      <trkpt lat="37.393088000" lon="-6.005301000">
        <ele>5.2</ele>
        <time>2020-10-11T09:03:13Z</time>
      </trkpt>
      <trkpt lat="37.392987000" lon="-6.005335000">
        <ele>5.7</ele>
        <time>2020-10-11T09:03:16Z</time>
      </trkpt>
      <trkpt lat="37.392879000" lon="-6.005394000">
        <ele>6.2</ele>
        <time>2020-10-11T09:03:19Z</time>
      </trkpt>
      <trkpt lat="37.392802000" lon="-6.005425000">
        <ele>6.6</ele>
        <time>2020-10-11T09:03:21Z</time>
      </trkpt>
      <trkpt lat="37.392712000" lon="-6.005454000">
        <ele>7.0</ele>
        <time>2020-10-11T09:03:23Z</time>
      </trkpt>
      <trkpt lat="37.392619000" lon="-6.005473000">
        <ele>7.3</ele>
        <time>2020-10-11T09:03:25Z</time>
      </trkpt>
      <trkpt lat="37.392525000" lon="-6.005489000">
        <ele>7.5</ele>
        <time>2020-10-11T09:03:27Z</time>
      </trkpt>
      <trkpt lat="37.392431000" lon="-6.005515000">
        <ele>7.7</ele>
        <time>2020-10-11T09:03:29Z</time>
      </trkpt>
      <trkpt lat="37.392340000" lon="-6.005543000">
        <ele>7.9</ele>
        <time>2020-10-11T09:03:31Z</time>
      </trkpt>
      <trkpt lat="37.392249000" lon="-6.005563000">
        <ele>7.9</ele>
        <time>2020-10-11T09:03:33Z</time>
      </trkpt>
      <trkpt lat="37.392158000" lon="-6.005580000">
        <ele>7.7</ele>
        <time>2020-10-11T09:03:35Z</time>
      </trkpt>
      <trkpt lat="37.392069000" lon="-6.005588000">
        <ele>7.5</ele>
        <time>2020-10-11T09:03:37Z</time>
      </trkpt>
      <trkpt lat="37.391978000" lon="-6.005603000">
        <ele>7.1</ele>
        <time>2020-10-11T09:03:39Z</time>
      </trkpt>
      <trkpt lat="37.391896000" lon="-6.005631000">
        <ele>6.5</ele>
        <time>2020-10-11T09:03:41Z</time>
      </trkpt>
      <trkpt lat="37.391799000" lon="-6.005637000">
        <ele>5.5</ele>
        <time>2020-10-11T09:03:43Z</time>
      </trkpt>
      <trkpt lat="37.391704000" lon="-6.005640000">
        <ele>4.3</ele>
        <time>2020-10-11T09:03:45Z</time>
      </trkpt>
      <trkpt lat="37.391596000" lon="-6.005648000">
        <ele>2.6</ele>
        <time>2020-10-11T09:03:47Z</time>
      </trkpt>
      <trkpt lat="37.391487000" lon="-6.005656000">
        <ele>0.5</ele>
        <time>2020-10-11T09:03:49Z</time>
      </trkpt>
      <trkpt lat="37.391377000" lon="-6.005659000">
        <ele>-1.7</ele>
        <time>2020-10-11T09:03:51Z</time>
      </trkpt>
      <trkpt lat="37.391262000" lon="-6.005660000">
        <ele>-3.8</ele>
        <time>2020-10-11T09:03:53Z</time>
      </trkpt>
      <trkpt lat="37.391148000" lon="-6.005658000">
        <ele>-5.6</ele>
        <time>2020-10-11T09:03:55Z</time>
      </trkpt>
      <trkpt lat="37.391034000" lon="-6.005650000">
        <ele>-7.1</ele>
        <time>2020-10-11T09:03:57Z</time>
      </trkpt>
      <trkpt lat="37.390922000" lon="-6.005643000">
        <ele>-8.2</ele>
        <time>2020-10-11T09:03:59Z</time>
      </trkpt>
      <trkpt lat="37.390806000" lon="-6.005624000">
        <ele>-8.8</ele>
        <time>2020-10-11T09:04:01Z</time>
      </trkpt>
      <trkpt lat="37.390693000" lon="-6.005611000">
        <ele>-9.1</ele>
        <time>2020-10-11T09:04:03Z</time>
      </trkpt>
      <trkpt lat="37.390583000" lon="-6.005597000">
        <ele>-8.7</ele>
        <time>2020-10-11T09:04:05Z</time>
      </trkpt>
      <trkpt lat="37.390474000" lon="-6.005581000">
        <ele>-7.9</ele>
        <time>2020-10-11T09:04:07Z</time>
      </trkpt>
      <trkpt lat="37.390370000" lon="-6.005565000">
        <ele>-6.6</ele>
        <time>2020-10-11T09:04:09Z</time>
      </trkpt>
      <trkpt lat="37.390261000" lon="-6.005550000">
        <ele>-4.8</ele>
        <time>2020-10-11T09:04:11Z</time>
      </trkpt>
      <trkpt lat="37.390157000" lon="-6.005527000">
        <ele>-2.7</ele>
        <time>2020-10-11T09:04:13Z</time>
      </trkpt>
      <trkpt lat="37.390055000" lon="-6.005494000">
        <ele>-0.7</ele>
        <time>2020-10-11T09:04:15Z</time>
      </trkpt>
      <trkpt lat="37.389950000" lon="-6.005458000">
        <ele>1.2</ele>
        <time>2020-10-11T09:04:17Z</time>
      </trkpt>
      <trkpt lat="37.389850000" lon="-6.005405000">
        <ele>2.7</ele>
        <time>2020-10-11T09:04:19Z</time>
      </trkpt>
      <trkpt lat="37.389752000" lon="-6.005352000">
        <ele>4.0</ele>
        <time>2020-10-11T09:04:21Z</time>
      </trkpt>
      <trkpt lat="37.389659000" lon="-6.005290000">
        <ele>4.8</ele>
        <time>2020-10-11T09:04:23Z</time>
      </trkpt>
      <trkpt lat="37.389570000" lon="-6.005228000">
        <ele>5.3</ele>
        <time>2020-10-11T09:04:25Z</time>
      </trkpt>
      <trkpt lat="37.389493000" lon="-6.005150000">
        <ele>5.4</ele>
        <time>2020-10-11T09:04:27Z</time>
      </trkpt>
      <trkpt lat="37.389421000" lon="-6.005060000">
        <ele>5.4</ele>
        <time>2020-10-11T09:04:29Z</time>
      </trkpt>
      <trkpt lat="37.389356000" lon="-6.004969000">
        <ele>5.3</ele>
        <time>2020-10-11T09:04:31Z</time>
      </trkpt>
      <trkpt lat="37.389303000" lon="-6.004861000">
        <ele>5.2</ele>
        <time>2020-10-11T09:04:33Z</time>
      </trkpt>
      <trkpt lat="37.389259000" lon="-6.004751000">
        <ele>5.2</ele>
        <time>2020-10-11T09:04:35Z</time>
      </trkpt>
      <trkpt lat="37.389226000" lon="-6.004644000">
        <ele>5.3</ele>
        <time>2020-10-11T09:04:37Z</time>
      </trkpt>
      <trkpt lat="37.389203000" lon="-6.004536000">
        <ele>5.6</ele>
        <time>2020-10-11T09:04:39Z</time>
      </trkpt>
      <trkpt lat="37.389190000" lon="-6.004430000">
        <ele>6.4</ele>
        <time>2020-10-11T09:04:41Z</time>
      </trkpt>
      <trkpt lat="37.389178000" lon="-6.004321000">
        <ele>7.3</ele>
        <time>2020-10-11T09:04:43Z</time>
      </trkpt>
      <trkpt lat="37.389174000" lon="-6.004179000">
        <ele>8.4</ele>
        <time>2020-10-11T09:04:46Z</time>
      </trkpt>
      <trkpt lat="37.389181000" lon="-6.004061000">
        <ele>9.5</ele>
        <time>2020-10-11T09:04:49Z</time>
      </trkpt>
      <trkpt lat="37.389205000" lon="-6.003935000">
        <ele>10.8</ele>
        <time>2020-10-11T09:04:53Z</time>
      </trkpt>
      <trkpt lat="37.389253000" lon="-6.003817000">
        <ele>12.1</ele>
        <time>2020-10-11T09:04:57Z</time>
      </trkpt>
      <trkpt lat="37.389275000" lon="-6.003696000">
        <ele>13.5</ele>
        <time>2020-10-11T09:05:01Z</time>
      </trkpt>
      <trkpt lat="37.389265000" lon="-6.003585000">
        <ele>14.7</ele>
        <time>2020-10-11T09:05:04Z</time>
      </trkpt>
      <trkpt lat="37.389254000" lon="-6.003476000">
        <ele>16.0</ele>
        <time>2020-10-11T09:05:07Z</time>
      </trkpt>
      <trkpt lat="37.389221000" lon="-6.003358000">
        <ele>17.0</ele>
        <time>2020-10-11T09:05:17Z</time>
      </trkpt>
      <trkpt lat="37.389113000" lon="-6.003298000">
        <ele>17.7</ele>
        <time>2020-10-11T09:05:17Z</time>
      </trkpt>
      <trkpt lat="37.389013000" lon="-6.003284000">
        <ele>18.2</ele>
        <time>2020-10-11T09:05:19Z</time>
      </trkpt>
      <trkpt lat="37.388917000" lon="-6.003274000">
        <ele>18.5</ele>
        <time>2020-10-11T09:05:21Z</time>
      </trkpt>
      <trkpt lat="37.388833000" lon="-6.003265000">
        <ele>18.5</ele>
        <time>2020-10-11T09:05:23Z</time>
      </trkpt>
      <trkpt lat="37.388736000" lon="-6.003252000">
        <ele>18.5</ele>
        <time>2020-10-11T09:05:25Z</time>
      </trkpt>
      <trkpt lat="37.388642000" lon="-6.003233000">
        <ele>18.5</ele>
        <time>2020-10-11T09:05:27Z</time>
      </trkpt>
      <trkpt lat="37.388550000" lon="-6.003206000">
        <ele>18.4</ele>
        <time>2020-10-11T09:05:29Z</time>
      </trkpt>
      <trkpt lat="37.388465000" lon="-6.003175000">
        <ele>18.0</ele>
        <time>2020-10-11T09:05:31Z</time>
      </trkpt>
      <trkpt lat="37.388384000" lon="-6.003144000">
        <ele>17.5</ele>
        <time>2020-10-11T09:05:33Z</time>
      </trkpt>
      <trkpt lat="37.388299000" lon="-6.003111000">
        <ele>17.0</ele>
        <time>2020-10-11T09:05:35Z</time>
      </trkpt>
      <trkpt lat="37.388213000" lon="-6.003078000">
        <ele>16.4</ele>
        <time>2020-10-11T09:05:37Z</time>
      </trkpt>
      <trkpt lat="37.388127000" lon="-6.003045000">
        <ele>15.6</ele>
        <time>2020-10-11T09:05:39Z</time>
      </trkpt>
      <trkpt lat="37.388014000" lon="-6.002992000">
        <ele>14.8</ele>
        <time>2020-10-11T09:05:42Z</time>
      </trkpt>
      <trkpt lat="37.387934000" lon="-6.002944000">
        <ele>13.9</ele>
        <time>2020-10-11T09:05:44Z</time>
      </trkpt>
      <trkpt lat="37.387862000" lon="-6.002892000">
        <ele>13.1</ele>
        <time>2020-10-11T09:05:46Z</time>
      </trkpt>
      <trkpt lat="37.387757000" lon="-6.002884000">
        <ele>12.3</ele>
        <time>2020-10-11T09:05:49Z</time>
      </trkpt>
      <trkpt lat="37.387660000" lon="-6.002866000">
        <ele>11.4</ele>
        <time>2020-10-11T09:05:52Z</time>
      </trkpt>
      <trkpt lat="37.387567000" lon="-6.002777000">
        <ele>10.5</ele>
        <time>2020-10-11T09:05:55Z</time>
      </trkpt>
      <trkpt lat="37.387500000" lon="-6.002705000">
        <ele>9.4</ele>
        <time>2020-10-11T09:05:57Z</time>
      </trkpt>
      <trkpt lat="37.387438000" lon="-6.002608000">
        <ele>8.3</ele>
        <time>2020-10-11T09:05:59Z</time>
      </trkpt>
      <trkpt lat="37.387359000" lon="-6.002528000">
        <ele>7.1</ele>
        <time>2020-10-11T09:06:01Z</time>
      </trkpt>
      <trkpt lat="37.387279000" lon="-6.002432000">
        <ele>6.1</ele>
        <time>2020-10-11T09:06:03Z</time>
      </trkpt>
      <trkpt lat="37.387193000" lon="-6.002340000">
        <ele>5.3</ele>
        <time>2020-10-11T09:06:05Z</time>
      </trkpt>
      <trkpt lat="37.387115000" lon="-6.002239000">
        <ele>4.6</ele>
        <time>2020-10-11T09:06:07Z</time>
      </trkpt>
      <trkpt lat="37.387042000" lon="-6.002152000">
        <ele>4.2</ele>
        <time>2020-10-11T09:06:09Z</time>
      </trkpt>
      <trkpt lat="37.386978000" lon="-6.002042000">
        <ele>3.8</ele>
        <time>2020-10-11T09:06:11Z</time>
      </trkpt>
      <trkpt lat="37.386931000" lon="-6.001957000">
        <ele>3.5</ele>
        <time>2020-10-11T09:06:13Z</time>
      </trkpt>
      <trkpt lat="37.386881000" lon="-6.001848000">
        <ele>3.5</ele>
        <time>2020-10-11T09:06:15Z</time>
      </trkpt>
      <trkpt lat="37.386848000" lon="-6.001754000">
        <ele>3.5</ele>
        <time>2020-10-11T09:06:17Z</time>
      </trkpt>
      <trkpt lat="37.386792000" lon="-6.001660000">
        <ele>3.6</ele>
        <time>2020-10-11T09:06:19Z</time>
      </trkpt>
      <trkpt lat="37.386747000" lon="-6.001566000">
        <ele>3.8</ele>
        <time>2020-10-11T09:06:21Z</time>
      </trkpt>
      <trkpt lat="37.386679000" lon="-6.001445000">
        <ele>4.0</ele>
        <time>2020-10-11T09:06:24Z</time>
      </trkpt>
      <trkpt lat="37.386608000" lon="-6.001326000">
        <ele>4.2</ele>
        <time>2020-10-11T09:06:27Z</time>
      </trkpt>
      <trkpt lat="37.386558000" lon="-6.001228000">
        <ele>4.4</ele>
        <time>2020-10-11T09:06:30Z</time>
      </trkpt>
      <trkpt lat="37.386505000" lon="-6.001134000">
        <ele>4.5</ele>
        <time>2020-10-11T09:06:34Z</time>
      </trkpt>
      <trkpt lat="37.386427000" lon="-6.001098000">
        <ele>4.7</ele>
        <time>2020-10-11T09:06:40Z</time>
      </trkpt>
      <trkpt lat="37.386354000" lon="-6.001154000">
        <ele>4.9</ele>
        <time>2020-10-11T09:06:47Z</time>
      </trkpt>
      <trkpt lat="37.386319000" lon="-6.001059000">
        <ele>5.1</ele>
        <time>2020-10-11T09:09:31Z</time>
      </trkpt>
      <trkpt lat="37.386320000" lon="-6.000948000">
        <ele>5.3</ele>
        <time>2020-10-11T09:09:36Z</time>
      </trkpt>
      <trkpt lat="37.386300000" lon="-6.000846000">
        <ele>5.5</ele>
        <time>2020-10-11T09:09:40Z</time>
      </trkpt>
      <trkpt lat="37.386273000" lon="-6.000737000">
        <ele>6.0</ele>
        <time>2020-10-11T09:09:44Z</time>
      </trkpt>
      <trkpt lat="37.386203000" lon="-6.000670000">
        <ele>6.5</ele>
        <time>2020-10-11T09:09:47Z</time>
      </trkpt>
      <trkpt lat="37.386121000" lon="-6.000591000">
        <ele>7.1</ele>
        <time>2020-10-11T09:09:51Z</time>
      </trkpt>
      <trkpt lat="37.386042000" lon="-6.000513000">
        <ele>7.6</ele>
        <time>2020-10-11T09:09:55Z</time>
      </trkpt>
      <trkpt lat="37.385964000" lon="-6.000430000">
        <ele>8.1</ele>
        <time>2020-10-11T09:09:58Z</time>
      </trkpt>
      <trkpt lat="37.385882000" lon="-6.000333000">
        <ele>8.5</ele>
        <time>2020-10-11T09:10:01Z</time>
      </trkpt>
      <trkpt lat="37.385788000" lon="-6.000257000">
        <ele>8.6</ele>
        <time>2020-10-11T09:10:04Z</time>
      </trkpt>
      <trkpt lat="37.385691000" lon="-6.000164000">
        <ele>8.6</ele>
        <time>2020-10-11T09:10:07Z</time>
      </trkpt>
      <trkpt lat="37.385626000" lon="-6.000089000">
        <ele>8.5</ele>
        <time>2020-10-11T09:10:09Z</time>
      </trkpt>
      <trkpt lat="37.385558000" lon="-6.000005000">
        <ele>8.3</ele>
        <time>2020-10-11T09:10:11Z</time>
      </trkpt>
      <trkpt lat="37.385489000" lon="-5.999915000">
        <ele>7.9</ele>
        <time>2020-10-11T09:10:13Z</time>
      </trkpt>
      <trkpt lat="37.385419000" lon="-5.999830000">
        <ele>7.5</ele>
        <time>2020-10-11T09:10:15Z</time>
      </trkpt>
      <trkpt lat="37.385340000" lon="-5.999745000">
        <ele>7.1</ele>
        <time>2020-10-11T09:10:17Z</time>
      </trkpt>
      <trkpt lat="37.385266000" lon="-5.999659000">
        <ele>6.9</ele>
        <time>2020-10-11T09:10:19Z</time>
      </trkpt>
      <trkpt lat="37.385182000" lon="-5.999569000">
        <ele>6.8</ele>
        <time>2020-10-11T09:10:21Z</time>
      </trkpt>
      <trkpt lat="37.385098000" lon="-5.999480000">
        <ele>6.8</ele>
        <time>2020-10-11T09:10:23Z</time>
      </trkpt>
      <trkpt lat="37.385014000" lon="-5.999388000">
        <ele>6.8</ele>
        <time>2020-10-11T09:10:25Z</time>
      </trkpt>
      <trkpt lat="37.384934000" lon="-5.999301000">
        <ele>6.8</ele>
        <time>2020-10-11T09:10:27Z</time>
      </trkpt>
      <trkpt lat="37.384857000" lon="-5.999212000">
        <ele>6.8</ele>
        <time>2020-10-11T09:10:29Z</time>
      </trkpt>
      <trkpt lat="37.384781000" lon="-5.999125000">
        <ele>6.8</ele>
        <time>2020-10-11T09:10:31Z</time>
      </trkpt>
      <trkpt lat="37.384705000" lon="-5.999038000">
        <ele>6.8</ele>
        <time>2020-10-11T09:10:33Z</time>
      </trkpt>
      <trkpt lat="37.384630000" lon="-5.998962000">
        <ele>6.8</ele>
        <time>2020-10-11T09:10:35Z</time>
      </trkpt>
      <trkpt lat="37.384553000" lon="-5.998879000">
        <ele>6.7</ele>
        <time>2020-10-11T09:10:37Z</time>
      </trkpt>
      <trkpt lat="37.384475000" lon="-5.998787000">
        <ele>6.6</ele>
        <time>2020-10-11T09:10:39Z</time>
      </trkpt>
      <trkpt lat="37.384397000" lon="-5.998694000">
        <ele>6.5</ele>
        <time>2020-10-11T09:10:41Z</time>
      </trkpt>
      <trkpt lat="37.384323000" lon="-5.998604000">
        <ele>6.1</ele>
        <time>2020-10-11T09:10:43Z</time>
      </trkpt>
      <trkpt lat="37.384253000" lon="-5.998517000">
        <ele>5.5</ele>
        <time>2020-10-11T09:10:45Z</time>
      </trkpt>
      <trkpt lat="37.384178000" lon="-5.998443000">
        <ele>5.0</ele>
        <time>2020-10-11T09:10:47Z</time>
      </trkpt>
      <trkpt lat="37.384104000" lon="-5.998364000">
        <ele>4.5</ele>
        <time>2020-10-11T09:10:49Z</time>
      </trkpt>
      <trkpt lat="37.384034000" lon="-5.998284000">
        <ele>4.2</ele>
        <time>2020-10-11T09:10:51Z</time>
      </trkpt>
      <trkpt lat="37.383964000" lon="-5.998208000">
        <ele>3.9</ele>
        <time>2020-10-11T09:10:53Z</time>
      </trkpt>
      <trkpt lat="37.383894000" lon="-5.998124000">
        <ele>3.7</ele>
        <time>2020-10-11T09:10:55Z</time>
      </trkpt>
      <trkpt lat="37.383819000" lon="-5.998046000">
        <ele>3.6</ele>
        <time>2020-10-11T09:10:57Z</time>
      </trkpt>
      <trkpt lat="37.383748000" lon="-5.997969000">
        <ele>3.6</ele>
        <time>2020-10-11T09:10:59Z</time>
      </trkpt>
      <trkpt lat="37.383675000" lon="-5.997885000">
        <ele>3.5</ele>
        <time>2020-10-11T09:11:01Z</time>
      </trkpt>
      <trkpt lat="37.383600000" lon="-5.997805000">
        <ele>3.6</ele>
        <time>2020-10-11T09:11:03Z</time>
      </trkpt>
      <trkpt lat="37.383526000" lon="-5.997726000">
        <ele>3.9</ele>
        <time>2020-10-11T09:11:05Z</time>
      </trkpt>
      <trkpt lat="37.383456000" lon="-5.997651000">
        <ele>4.4</ele>
        <time>2020-10-11T09:11:07Z</time>
      </trkpt>
      <trkpt lat="37.383385000" lon="-5.997563000">
        <ele>4.9</ele>
        <time>2020-10-11T09:11:09Z</time>
      </trkpt>
      <trkpt lat="37.383320000" lon="-5.997489000">
        <ele>5.4</ele>
        <time>2020-10-11T09:11:11Z</time>
      </trkpt>
      <trkpt lat="37.383253000" lon="-5.997414000">
        <ele>5.8</ele>
        <time>2020-10-11T09:11:13Z</time>
      </trkpt>
      <trkpt lat="37.383184000" lon="-5.997335000">
        <ele>6.3</ele>
        <time>2020-10-11T09:11:15Z</time>
      </trkpt>
      <trkpt lat="37.383109000" lon="-5.997269000">
        <ele>6.7</ele>
        <time>2020-10-11T09:11:17Z</time>
      </trkpt>
      <trkpt lat="37.383037000" lon="-5.997190000">
        <ele>7.0</ele>
        <time>2020-10-11T09:11:19Z</time>
      </trkpt>
      <trkpt lat="37.382964000" lon="-5.997129000">
        <ele>7.3</ele>
        <time>2020-10-11T09:11:21Z</time>
      </trkpt>
      <trkpt lat="37.382894000" lon="-5.997063000">
        <ele>7.6</ele>
        <time>2020-10-11T09:11:23Z</time>
      </trkpt>
      <trkpt lat="37.382797000" lon="-5.996973000">
        <ele>7.8</ele>
        <time>2020-10-11T09:11:26Z</time>
      </trkpt>
      <trkpt lat="37.382729000" lon="-5.996906000">
        <ele>7.8</ele>
        <time>2020-10-11T09:11:28Z</time>
      </trkpt>
      <trkpt lat="37.382664000" lon="-5.996826000">
        <ele>7.7</ele>
        <time>2020-10-11T09:11:30Z</time>
      </trkpt>
      <trkpt lat="37.382590000" lon="-5.996761000">
        <ele>7.6</ele>
        <time>2020-10-11T09:11:32Z</time>
      </trkpt>
      <trkpt lat="37.382517000" lon="-5.996700000">
        <ele>7.6</ele>
        <time>2020-10-11T09:11:34Z</time>
      </trkpt>
      <trkpt lat="37.382447000" lon="-5.996638000">
        <ele>7.5</ele>
        <time>2020-10-11T09:11:36Z</time>
      </trkpt>
      <trkpt lat="37.382377000" lon="-5.996572000">
        <ele>7.4</ele>
        <time>2020-10-11T09:11:38Z</time>
      </trkpt>
      <trkpt lat="37.382307000" lon="-5.996506000">
        <ele>7.1</ele>
        <time>2020-10-11T09:11:40Z</time>
      </trkpt>
      <trkpt lat="37.382238000" lon="-5.996435000">
        <ele>7.0</ele>
        <time>2020-10-11T09:11:42Z</time>
      </trkpt>
      <trkpt lat="37.382167000" lon="-5.996355000">
        <ele>7.1</ele>
        <time>2020-10-11T09:11:44Z</time>
      </trkpt>
      <trkpt lat="37.382099000" lon="-5.996275000">
        <ele>7.2</ele>
        <time>2020-10-11T09:11:46Z</time>
      </trkpt>
      <trkpt lat="37.382027000" lon="-5.996193000">
        <ele>7.5</ele>
        <time>2020-10-11T09:11:48Z</time>
      </trkpt>
      <trkpt lat="37.381968000" lon="-5.996122000">
        <ele>7.8</ele>
        <time>2020-10-11T09:11:50Z</time>
      </trkpt>
      <trkpt lat="37.381901000" lon="-5.996019000">
        <ele>8.1</ele>
        <time>2020-10-11T09:11:53Z</time>
      </trkpt>
      <trkpt lat="37.381822000" lon="-5.995921000">
        <ele>8.2</ele>
        <time>2020-10-11T09:11:56Z</time>
      </trkpt>
      <trkpt lat="37.381740000" lon="-5.995836000">
        <ele>8.2</ele>
        <time>2020-10-11T09:11:59Z</time>
      </trkpt>
      <trkpt lat="37.381650000" lon="-5.995750000">
        <ele>8.4</ele>
        <time>2020-10-11T09:12:02Z</time>
      </trkpt>
      <trkpt lat="37.381560000" lon="-5.995683000">
        <ele>8.6</ele>
        <time>2020-10-11T09:12:05Z</time>
      </trkpt>
      <trkpt lat="37.381477000" lon="-5.995614000">
        <ele>8.9</ele>
        <time>2020-10-11T09:12:08Z</time>
      </trkpt>
      <trkpt lat="37.381398000" lon="-5.995557000">
        <ele>9.1</ele>
        <time>2020-10-11T09:12:11Z</time>
      </trkpt>
      <trkpt lat="37.381321000" lon="-5.995513000">
        <ele>8.9</ele>
        <time>2020-10-11T09:12:16Z</time>
      </trkpt>
      <trkpt lat="37.381407000" lon="-5.995550000">
        <ele>8.5</ele>
        <time>2020-10-11T09:12:33Z</time>
      </trkpt>
      <trkpt lat="37.381430000" lon="-5.995650000">
        <ele>7.9</ele>
        <time>2020-10-11T09:12:59Z</time>
      </trkpt>
      <trkpt lat="37.381363000" lon="-5.995580000">
        <ele>7.4</ele>
        <time>2020-10-11T09:13:05Z</time>
      </trkpt>
      <trkpt lat="37.381323000" lon="-5.995486000">
        <ele>6.9</ele>
        <time>2020-10-11T09:13:10Z</time>
      </trkpt>
      <trkpt lat="37.381241000" lon="-5.995496000">
        <ele>6.6</ele>
        <time>2020-10-11T09:14:28Z</time>
      </trkpt>
      <trkpt lat="37.381172000" lon="-5.995386000">
        <ele>6.5</ele>
        <time>2020-10-11T09:14:34Z</time>
      </trkpt>
      <trkpt lat="37.381145000" lon="-5.995264000">
        <ele>6.5</ele>
        <time>2020-10-11T09:14:37Z</time>
      </trkpt>
      <trkpt lat="37.381137000" lon="-5.995162000">
        <ele>6.5</ele>
        <time>2020-10-11T09:15:39Z</time>
      </trkpt>
      <trkpt lat="37.381059000" lon="-5.995097000">
        <ele>6.5</ele>
        <time>2020-10-11T09:15:44Z</time>
      </trkpt>
      <trkpt lat="37.380959000" lon="-5.995041000">
        <ele>6.7</ele>
        <time>2020-10-11T09:15:47Z</time>
      </trkpt>
      <trkpt lat="37.380891000" lon="-5.994984000">
        <ele>7.1</ele>
        <time>2020-10-11T09:15:49Z</time>
      </trkpt>
      <trkpt lat="37.380821000" lon="-5.994926000">
        <ele>7.5</ele>
        <time>2020-10-11T09:15:51Z</time>
      </trkpt>
      <trkpt lat="37.380748000" lon="-5.994862000">
        <ele>8.2</ele>
        <time>2020-10-11T09:15:53Z</time>
      </trkpt>
      <trkpt lat="37.380672000" lon="-5.994803000">
        <ele>8.7</ele>
        <time>2020-10-11T09:15:55Z</time>
      </trkpt>
      <trkpt lat="37.380596000" lon="-5.994748000">
        <ele>9.3</ele>
        <time>2020-10-11T09:15:57Z</time>
      </trkpt>
      <trkpt lat="37.380509000" lon="-5.994687000">
        <ele>9.7</ele>
        <time>2020-10-11T09:15:59Z</time>
      </trkpt>
      <trkpt lat="37.380424000" lon="-5.994642000">
        <ele>10.1</ele>
        <time>2020-10-11T09:16:01Z</time>
      </trkpt>
      <trkpt lat="37.380332000" lon="-5.994593000">
        <ele>10.4</ele>
        <time>2020-10-11T09:16:03Z</time>
      </trkpt>
      <trkpt lat="37.380245000" lon="-5.994551000">
        <ele>10.5</ele>
        <time>2020-10-11T09:16:05Z</time>
      </trkpt>
      <trkpt lat="37.380157000" lon="-5.994505000">
        <ele>10.7</ele>
        <time>2020-10-11T09:16:07Z</time>
      </trkpt>
      <trkpt lat="37.380065000" lon="-5.994460000">
        <ele>10.7</ele>
        <time>2020-10-11T09:16:09Z</time>
      </trkpt>
      <trkpt lat="37.379977000" lon="-5.994415000">
        <ele>10.6</ele>
        <time>2020-10-11T09:16:11Z</time>
      </trkpt>
      <trkpt lat="37.379888000" lon="-5.994367000">
        <ele>10.5</ele>
        <time>2020-10-11T09:16:13Z</time>
      </trkpt>
      <trkpt lat="37.379798000" lon="-5.994318000">
        <ele>10.3</ele>
        <time>2020-10-11T09:16:15Z</time>
      </trkpt>
      <trkpt lat="37.379709000" lon="-5.994257000">
        <ele>10.1</ele>
        <time>2020-10-11T09:16:17Z</time>
      </trkpt>
      <trkpt lat="37.379617000" lon="-5.994200000">
        <ele>9.8</ele>
        <time>2020-10-11T09:16:19Z</time>
      </trkpt>
      <trkpt lat="37.379536000" lon="-5.994146000">
        <ele>9.5</ele>
        <time>2020-10-11T09:16:21Z</time>
      </trkpt>
      <trkpt lat="37.379446000" lon="-5.994137000">
        <ele>9.2</ele>
        <time>2020-10-11T09:16:25Z</time>
      </trkpt>
      <trkpt lat="37.379368000" lon="-5.994093000">
        <ele>8.8</ele>
        <time>2020-10-11T09:16:28Z</time>
      </trkpt>
      <trkpt lat="37.379286000" lon="-5.994041000">
        <ele>8.5</ele>
        <time>2020-10-11T09:16:31Z</time>
      </trkpt>
      <trkpt lat="37.379194000" lon="-5.993984000">
        <ele>8.2</ele>
        <time>2020-10-11T09:16:34Z</time>
      </trkpt>
      <trkpt lat="37.379115000" lon="-5.993904000">
        <ele>8.0</ele>
        <time>2020-10-11T09:16:37Z</time>
      </trkpt>
      <trkpt lat="37.379039000" lon="-5.993836000">
        <ele>7.9</ele>
        <time>2020-10-11T09:16:40Z</time>
      </trkpt>
      <trkpt lat="37.378965000" lon="-5.993787000">
        <ele>8.0</ele>
        <time>2020-10-11T09:16:42Z</time>
      </trkpt>
      <trkpt lat="37.378878000" lon="-5.993738000">
        <ele>8.1</ele>
        <time>2020-10-11T09:16:44Z</time>
      </trkpt>
      <trkpt lat="37.378794000" lon="-5.993688000">
        <ele>8.3</ele>
        <time>2020-10-11T09:16:46Z</time>
      </trkpt>
      <trkpt lat="37.378705000" lon="-5.993635000">
        <ele>8.6</ele>
        <time>2020-10-11T09:16:48Z</time>
      </trkpt>
      <trkpt lat="37.378612000" lon="-5.993582000">
        <ele>9.1</ele>
        <time>2020-10-11T09:16:50Z</time>
      </trkpt>
      <trkpt lat="37.378520000" lon="-5.993528000">
        <ele>9.7</ele>
        <time>2020-10-11T09:16:52Z</time>
      </trkpt>
      <trkpt lat="37.378431000" lon="-5.993471000">
        <ele>10.3</ele>
        <time>2020-10-11T09:16:54Z</time>
      </trkpt>
      <trkpt lat="37.378340000" lon="-5.993415000">
        <ele>10.8</ele>
        <time>2020-10-11T09:16:56Z</time>
      </trkpt>
      <trkpt lat="37.378247000" lon="-5.993360000">
        <ele>11.4</ele>
        <time>2020-10-11T09:16:58Z</time>
      </trkpt>
      <trkpt lat="37.378153000" lon="-5.993300000">
        <ele>12.0</ele>
        <time>2020-10-11T09:17:00Z</time>
      </trkpt>
      <trkpt lat="37.378061000" lon="-5.993242000">
        <ele>12.5</ele>
        <time>2020-10-11T09:17:02Z</time>
      </trkpt>
      <trkpt lat="37.377973000" lon="-5.993188000">
        <ele>13.0</ele>
        <time>2020-10-11T09:17:04Z</time>
      </trkpt>
      <trkpt lat="37.377882000" lon="-5.993127000">
        <ele>13.3</ele>
        <time>2020-10-11T09:17:06Z</time>
      </trkpt>
      <trkpt lat="37.377796000" lon="-5.993081000">
        <ele>13.3</ele>
        <time>2020-10-11T09:17:08Z</time>
      </trkpt>
      <trkpt lat="37.377692000" lon="-5.993022000">
        <ele>13.1</ele>
        <time>2020-10-11T09:17:10Z</time>
      </trkpt>
      <trkpt lat="37.377593000" lon="-5.992964000">
        <ele>12.7</ele>
        <time>2020-10-11T09:17:12Z</time>
      </trkpt>
      <trkpt lat="37.377499000" lon="-5.992909000">
        <ele>12.3</ele>
        <time>2020-10-11T09:17:14Z</time>
      </trkpt>
      <trkpt lat="37.377410000" lon="-5.992853000">
        <ele>11.9</ele>
        <time>2020-10-11T09:17:16Z</time>
      </trkpt>
      <trkpt lat="37.377315000" lon="-5.992799000">
        <ele>11.5</ele>
        <time>2020-10-11T09:17:18Z</time>
      </trkpt>
      <trkpt lat="37.377218000" lon="-5.992739000">
        <ele>11.2</ele>
        <time>2020-10-11T09:17:20Z</time>
      </trkpt>
      <trkpt lat="37.377124000" lon="-5.992675000">
        <ele>10.8</ele>
        <time>2020-10-11T09:17:22Z</time>
      </trkpt>
      <trkpt lat="37.377027000" lon="-5.992609000">
        <ele>10.6</ele>
        <time>2020-10-11T09:17:24Z</time>
      </trkpt>
      <trkpt lat="37.376935000" lon="-5.992548000">
        <ele>10.5</ele>
        <time>2020-10-11T09:17:26Z</time>
      </trkpt>
      <trkpt lat="37.376836000" lon="-5.992489000">
        <ele>10.5</ele>
        <time>2020-10-11T09:17:28Z</time>
      </trkpt>
      <trkpt lat="37.376743000" lon="-5.992434000">
        <ele>10.7</ele>
        <time>2020-10-11T09:17:30Z</time>
      </trkpt>
      <trkpt lat="37.376649000" lon="-5.992376000">
        <ele>11.0</ele>
        <time>2020-10-11T09:17:32Z</time>
      </trkpt>
      <trkpt lat="37.376551000" lon="-5.992326000">
        <ele>11.4</ele>
        <time>2020-10-11T09:17:34Z</time>
      </trkpt>
      <trkpt lat="37.376454000" lon="-5.992266000">
        <ele>11.7</ele>
        <time>2020-10-11T09:17:36Z</time>
      </trkpt>
      <trkpt lat="37.376366000" lon="-5.992213000">
        <ele>12.0</ele>
        <time>2020-10-11T09:17:38Z</time>
      </trkpt>
      <trkpt lat="37.376280000" lon="-5.992158000">
        <ele>12.2</ele>
        <time>2020-10-11T09:17:40Z</time>
      </trkpt>
      <trkpt lat="37.376190000" lon="-5.992106000">
        <ele>12.2</ele>
        <time>2020-10-11T09:17:42Z</time>
      </trkpt>
      <trkpt lat="37.376107000" lon="-5.992050000">
        <ele>12.0</ele>
        <time>2020-10-11T09:17:44Z</time>
      </trkpt>
      <trkpt lat="37.376021000" lon="-5.991993000">
        <ele>11.6</ele>
        <time>2020-10-11T09:17:46Z</time>
      </trkpt>
      <trkpt lat="37.375941000" lon="-5.991939000">
        <ele>11.1</ele>
        <time>2020-10-11T09:17:48Z</time>
      </trkpt>
      <trkpt lat="37.375853000" lon="-5.991888000">
        <ele>10.5</ele>
        <time>2020-10-11T09:17:50Z</time>
      </trkpt>
      <trkpt lat="37.375772000" lon="-5.991836000">
        <ele>9.9</ele>
        <time>2020-10-11T09:17:52Z</time>
      </trkpt>
      <trkpt lat="37.375671000" lon="-5.991830000">
        <ele>9.3</ele>
        <time>2020-10-11T09:17:54Z</time>
      </trkpt>
      <trkpt lat="37.375579000" lon="-5.991863000">
        <ele>8.6</ele>
        <time>2020-10-11T09:17:56Z</time>
      </trkpt>
      <trkpt lat="37.375495000" lon="-5.991902000">
        <ele>8.0</ele>
        <time>2020-10-11T09:17:58Z</time>
      </trkpt>
      <trkpt lat="37.375414000" lon="-5.991917000">
        <ele>7.5</ele>
        <time>2020-10-11T09:18:00Z</time>
      </trkpt>
      <trkpt lat="37.375315000" lon="-5.991871000">
        <ele>7.1</ele>
        <time>2020-10-11T09:18:03Z</time>
      </trkpt>
      <trkpt lat="37.375257000" lon="-5.991759000">
        <ele>6.8</ele>
        <time>2020-10-11T09:18:06Z</time>
      </trkpt>
      <trkpt lat="37.375223000" lon="-5.991663000">
        <ele>6.6</ele>
        <time>2020-10-11T09:18:08Z</time>
      </trkpt>
      <trkpt lat="37.375165000" lon="-5.991564000">
        <ele>6.5</ele>
        <time>2020-10-11T09:18:10Z</time>
      </trkpt>
      <trkpt lat="37.375074000" lon="-5.991497000">
        <ele>6.6</ele>
        <time>2020-10-11T09:18:12Z</time>
      </trkpt>
      <trkpt lat="37.374980000" lon="-5.991453000">
        <ele>6.7</ele>
        <time>2020-10-11T09:18:14Z</time>
      </trkpt>
      <trkpt lat="37.374882000" lon="-5.991397000">
        <ele>7.0</ele>
        <time>2020-10-11T09:18:16Z</time>
      </trkpt>
      <trkpt lat="37.374788000" lon="-5.991347000">
        <ele>7.4</ele>
        <time>2020-10-11T09:18:18Z</time>
      </trkpt>
      <trkpt lat="37.374688000" lon="-5.991283000">
        <ele>7.8</ele>
        <time>2020-10-11T09:18:20Z</time>
      </trkpt>
      <trkpt lat="37.374599000" lon="-5.991235000">
        <ele>8.4</ele>
        <time>2020-10-11T09:18:22Z</time>
      </trkpt>
      <trkpt lat="37.374510000" lon="-5.991177000">
        <ele>8.9</ele>
        <time>2020-10-11T09:18:24Z</time>
      </trkpt>
      <trkpt lat="37.374414000" lon="-5.991115000">
        <ele>9.4</ele>
        <time>2020-10-11T09:18:26Z</time>
      </trkpt>
      <trkpt lat="37.374314000" lon="-5.991057000">
        <ele>9.7</ele>
        <time>2020-10-11T09:18:28Z</time>
      </trkpt>
      <trkpt lat="37.374222000" lon="-5.990999000">
        <ele>10.2</ele>
        <time>2020-10-11T09:18:30Z</time>
      </trkpt>
      <trkpt lat="37.374161000" lon="-5.990901000">
        <ele>10.5</ele>
        <time>2020-10-11T09:18:32Z</time>
      </trkpt>
      <trkpt lat="37.374070000" lon="-5.990834000">
        <ele>10.8</ele>
        <time>2020-10-11T09:18:35Z</time>
      </trkpt>
      <trkpt lat="37.373979000" lon="-5.990778000">
        <ele>11.1</ele>
        <time>2020-10-11T09:18:36Z</time>
      </trkpt>
      <trkpt lat="37.373881000" lon="-5.990722000">
        <ele>11.4</ele>
        <time>2020-10-11T09:18:38Z</time>
      </trkpt>
      <trkpt lat="37.373789000" lon="-5.990663000">
        <ele>11.5</ele>
        <time>2020-10-11T09:18:40Z</time>
      </trkpt>
      <trkpt lat="37.373702000" lon="-5.990608000">
        <ele>11.6</ele>
        <time>2020-10-11T09:18:42Z</time>
      </trkpt>
      <trkpt lat="37.373608000" lon="-5.990553000">
        <ele>11.7</ele>
        <time>2020-10-11T09:18:44Z</time>
      </trkpt>
      <trkpt lat="37.373519000" lon="-5.990506000">
        <ele>11.8</ele>
        <time>2020-10-11T09:18:46Z</time>
      </trkpt>
      <trkpt lat="37.373431000" lon="-5.990451000">
        <ele>12.0</ele>
        <time>2020-10-11T09:18:48Z</time>
      </trkpt>
      <trkpt lat="37.373349000" lon="-5.990399000">
        <ele>12.4</ele>
        <time>2020-10-11T09:18:50Z</time>
      </trkpt>
      <trkpt lat="37.373270000" lon="-5.990351000">
        <ele>12.6</ele>
        <time>2020-10-11T09:18:52Z</time>
      </trkpt>
      <trkpt lat="37.373156000" lon="-5.990287000">
        <ele>13.0</ele>
        <time>2020-10-11T09:18:55Z</time>
      </trkpt>
      <trkpt lat="37.373052000" lon="-5.990226000">
        <ele>13.4</ele>
        <time>2020-10-11T09:18:58Z</time>
      </trkpt>
      <trkpt lat="37.372943000" lon="-5.990161000">
        <ele>13.7</ele>
        <time>2020-10-11T09:19:01Z</time>
      </trkpt>
      <trkpt lat="37.372865000" lon="-5.990117000">
        <ele>14.0</ele>
        <time>2020-10-11T09:19:03Z</time>
      </trkpt>
      <trkpt lat="37.372784000" lon="-5.990073000">
        <ele>14.3</ele>
        <time>2020-10-11T09:19:05Z</time>
      </trkpt>
      <trkpt lat="37.372706000" lon="-5.990026000">
        <ele>14.5</ele>
        <time>2020-10-11T09:19:07Z</time>
      </trkpt>
      <trkpt lat="37.372650000" lon="-5.989950000">
        <ele>14.5</ele>
        <time>2020-10-11T09:19:38Z</time>
      </trkpt>
      <trkpt lat="37.372570000" lon="-5.989901000">
        <ele>14.5</ele>
        <time>2020-10-11T09:19:41Z</time>
      </trkpt>
      <trkpt lat="37.372469000" lon="-5.989845000">
        <ele>14.4</ele>
        <time>2020-10-11T09:19:44Z</time>
      </trkpt>
      <trkpt lat="37.372392000" lon="-5.989795000">
        <ele>14.0</ele>
        <time>2020-10-11T09:19:46Z</time>
      </trkpt>
      <trkpt lat="37.372294000" lon="-5.989740000">
        <ele>13.6</ele>
        <time>2020-10-11T09:19:48Z</time>
      </trkpt>
      <trkpt lat="37.372203000" lon="-5.989682000">
        <ele>13.4</ele>
        <time>2020-10-11T09:19:50Z</time>
      </trkpt>
      <trkpt lat="37.372110000" lon="-5.989630000">
        <ele>13.1</ele>
        <time>2020-10-11T09:19:52Z</time>
      </trkpt>
      <trkpt lat="37.372014000" lon="-5.989568000">
        <ele>12.9</ele>
        <time>2020-10-11T09:19:54Z</time>
      </trkpt>
      <trkpt lat="37.371917000" lon="-5.989514000">
        <ele>12.7</ele>
        <time>2020-10-11T09:19:56Z</time>
      </trkpt>
      <trkpt lat="37.371823000" lon="-5.989460000">
        <ele>12.5</ele>
        <time>2020-10-11T09:19:58Z</time>
      </trkpt>
      <trkpt lat="37.371721000" lon="-5.989404000">
        <ele>12.4</ele>
        <time>2020-10-11T09:20:00Z</time>
      </trkpt>
      <trkpt lat="37.371625000" lon="-5.989341000">
        <ele>12.0</ele>
        <time>2020-10-11T09:20:02Z</time>
      </trkpt>
      <trkpt lat="37.371522000" lon="-5.989283000">
        <ele>11.6</ele>
        <time>2020-10-11T09:20:04Z</time>
      </trkpt>
      <trkpt lat="37.371427000" lon="-5.989222000">
        <ele>11.3</ele>
        <time>2020-10-11T09:20:06Z</time>
      </trkpt>
      <trkpt lat="37.371330000" lon="-5.989167000">
        <ele>11.0</ele>
        <time>2020-10-11T09:20:08Z</time>
      </trkpt>
      <trkpt lat="37.371238000" lon="-5.989115000">
        <ele>10.7</ele>
        <time>2020-10-11T09:20:10Z</time>
      </trkpt>
      <trkpt lat="37.371146000" lon="-5.989062000">
        <ele>10.5</ele>
        <time>2020-10-11T09:20:12Z</time>
      </trkpt>
      <trkpt lat="37.371052000" lon="-5.988997000">
        <ele>10.3</ele>
        <time>2020-10-11T09:20:14Z</time>
      </trkpt>
      <trkpt lat="37.370954000" lon="-5.988943000">
        <ele>10.0</ele>
        <time>2020-10-11T09:20:16Z</time>
      </trkpt>
      <trkpt lat="37.370860000" lon="-5.988879000">
        <ele>9.7</ele>
        <time>2020-10-11T09:20:18Z</time>
      </trkpt>
      <trkpt lat="37.370771000" lon="-5.988823000">
        <ele>9.5</ele>
        <time>2020-10-11T09:20:20Z</time>
      </trkpt>
      <trkpt lat="37.370680000" lon="-5.988766000">
        <ele>9.3</ele>
        <time>2020-10-11T09:20:22Z</time>
      </trkpt>
      <trkpt lat="37.370587000" lon="-5.988710000">
        <ele>9.3</ele>
        <time>2020-10-11T09:20:24Z</time>
      </trkpt>
      <trkpt lat="37.370496000" lon="-5.988654000">
        <ele>9.4</ele>
        <time>2020-10-11T09:20:26Z</time>
      </trkpt>
      <trkpt lat="37.370407000" lon="-5.988602000">
        <ele>9.6</ele>
        <time>2020-10-11T09:20:28Z</time>
      </trkpt>
      <trkpt lat="37.370315000" lon="-5.988547000">
        <ele>9.9</ele>
        <time>2020-10-11T09:20:30Z</time>
      </trkpt>
      <trkpt lat="37.370223000" lon="-5.988487000">
        <ele>10.2</ele>
        <time>2020-10-11T09:20:32Z</time>
      </trkpt>
      <trkpt lat="37.370132000" lon="-5.988436000">
        <ele>10.4</ele>
        <time>2020-10-11T09:20:34Z</time>
      </trkpt>
      <trkpt lat="37.370051000" lon="-5.988426000">
        <ele>10.5</ele>
        <time>2020-10-11T09:20:36Z</time>
      </trkpt>
      <trkpt lat="37.369959000" lon="-5.988405000">
        <ele>10.5</ele>
        <time>2020-10-11T09:20:38Z</time>
      </trkpt>
      <trkpt lat="37.369883000" lon="-5.988356000">
        <ele>10.5</ele>
        <time>2020-10-11T09:20:40Z</time>
      </trkpt>
      <trkpt lat="37.369810000" lon="-5.988299000">
        <ele>10.5</ele>
        <time>2020-10-11T09:20:42Z</time>
      </trkpt>
      <trkpt lat="37.369728000" lon="-5.988231000">
        <ele>10.4</ele>
        <time>2020-10-11T09:20:44Z</time>
      </trkpt>
      <trkpt lat="37.369637000" lon="-5.988208000">
        <ele>10.2</ele>
        <time>2020-10-11T09:20:46Z</time>
      </trkpt>
      <trkpt lat="37.369528000" lon="-5.988146000">
        <ele>10.0</ele>
        <time>2020-10-11T09:20:49Z</time>
      </trkpt>
      <trkpt lat="37.369455000" lon="-5.988101000">
        <ele>9.7</ele>
        <time>2020-10-11T09:20:51Z</time>
      </trkpt>
      <trkpt lat="37.369376000" lon="-5.988054000">
        <ele>9.5</ele>
        <time>2020-10-11T09:20:53Z</time>
      </trkpt>
      <trkpt lat="37.369294000" lon="-5.988010000">
        <ele>9.5</ele>
        <time>2020-10-11T09:20:55Z</time>
      </trkpt>
      <trkpt lat="37.369211000" lon="-5.987952000">
        <ele>9.5</ele>
        <time>2020-10-11T09:20:57Z</time>
      </trkpt>
      <trkpt lat="37.369125000" lon="-5.987902000">
        <ele>9.5</ele>
        <time>2020-10-11T09:20:59Z</time>
      </trkpt>
      <trkpt lat="37.369034000" lon="-5.987847000">
        <ele>9.5</ele>
        <time>2020-10-11T09:21:01Z</time>
      </trkpt>
      <trkpt lat="37.368934000" lon="-5.987792000">
        <ele>9.7</ele>
        <time>2020-10-11T09:21:03Z</time>
      </trkpt>
      <trkpt lat="37.368843000" lon="-5.987729000">
        <ele>9.9</ele>
        <time>2020-10-11T09:21:05Z</time>
      </trkpt>
      <trkpt lat="37.368742000" lon="-5.987668000">
        <ele>10.2</ele>
        <time>2020-10-11T09:21:07Z</time>
      </trkpt>
      <trkpt lat="37.368644000" lon="-5.987605000">
        <ele>10.5</ele>
        <time>2020-10-11T09:21:09Z</time>
      </trkpt>
      <trkpt lat="37.368555000" lon="-5.987563000">
        <ele>10.7</ele>
        <time>2020-10-11T09:21:11Z</time>
      </trkpt>
      <trkpt lat="37.368454000" lon="-5.987506000">
        <ele>11.0</ele>
        <time>2020-10-11T09:21:13Z</time>
      </trkpt>
      <trkpt lat="37.368356000" lon="-5.987442000">
        <ele>11.2</ele>
        <time>2020-10-11T09:21:15Z</time>
      </trkpt>
      <trkpt lat="37.368260000" lon="-5.987390000">
        <ele>11.3</ele>
        <time>2020-10-11T09:21:17Z</time>
      </trkpt>
      <trkpt lat="37.368161000" lon="-5.987335000">
        <ele>11.3</ele>
        <time>2020-10-11T09:21:19Z</time>
      </trkpt>
      <trkpt lat="37.368067000" lon="-5.987280000">
        <ele>11.3</ele>
        <time>2020-10-11T09:21:21Z</time>
      </trkpt>
      <trkpt lat="37.367984000" lon="-5.987222000">
        <ele>11.3</ele>
        <time>2020-10-11T09:21:23Z</time>
      </trkpt>
      <trkpt lat="37.367892000" lon="-5.987164000">
        <ele>11.2</ele>
        <time>2020-10-11T09:21:25Z</time>
      </trkpt>
      <trkpt lat="37.367803000" lon="-5.987111000">
        <ele>11.1</ele>
        <time>2020-10-11T09:21:27Z</time>
      </trkpt>
      <trkpt lat="37.367709000" lon="-5.987051000">
        <ele>10.9</ele>
        <time>2020-10-11T09:21:29Z</time>
      </trkpt>
      <trkpt lat="37.367614000" lon="-5.986995000">
        <ele>10.8</ele>
        <time>2020-10-11T09:21:31Z</time>
      </trkpt>
      <trkpt lat="37.367515000" lon="-5.986943000">
        <ele>10.8</ele>
        <time>2020-10-11T09:21:33Z</time>
      </trkpt>
      <trkpt lat="37.367420000" lon="-5.986896000">
        <ele>10.8</ele>
        <time>2020-10-11T09:21:35Z</time>
      </trkpt>
      <trkpt lat="37.367323000" lon="-5.986837000">
        <ele>10.8</ele>
        <time>2020-10-11T09:21:37Z</time>
      </trkpt>
      <trkpt lat="37.367227000" lon="-5.986771000">
        <ele>10.9</ele>
        <time>2020-10-11T09:21:39Z</time>
      </trkpt>
      <trkpt lat="37.367139000" lon="-5.986713000">
        <ele>11.0</ele>
        <time>2020-10-11T09:21:41Z</time>
      </trkpt>
      <trkpt lat="37.367050000" lon="-5.986659000">
        <ele>11.1</ele>
        <time>2020-10-11T09:21:43Z</time>
      </trkpt>
      <trkpt lat="37.366963000" lon="-5.986609000">
        <ele>11.2</ele>
        <time>2020-10-11T09:21:45Z</time>
      </trkpt>
      <trkpt lat="37.366880000" lon="-5.986557000">
        <ele>11.2</ele>
        <time>2020-10-11T09:21:47Z</time>
      </trkpt>
      <trkpt lat="37.366799000" lon="-5.986507000">
        <ele>11.2</ele>
        <time>2020-10-11T09:21:49Z</time>
      </trkpt>
      <trkpt lat="37.366712000" lon="-5.986451000">
        <ele>11.4</ele>
        <time>2020-10-11T09:21:51Z</time>
      </trkpt>
      <trkpt lat="37.366627000" lon="-5.986399000">
        <ele>11.5</ele>
        <time>2020-10-11T09:21:53Z</time>
      </trkpt>
      <trkpt lat="37.366536000" lon="-5.986345000">
        <ele>11.6</ele>
        <time>2020-10-11T09:21:55Z</time>
      </trkpt>
      <trkpt lat="37.366457000" lon="-5.986302000">
        <ele>11.7</ele>
        <time>2020-10-11T09:21:57Z</time>
      </trkpt>
      <trkpt lat="37.366347000" lon="-5.986262000">
        <ele>11.8</ele>
        <time>2020-10-11T09:22:00Z</time>
      </trkpt>
      <trkpt lat="37.366259000" lon="-5.986168000">
        <ele>11.7</ele>
        <time>2020-10-11T09:22:03Z</time>
      </trkpt>
      <trkpt lat="37.366186000" lon="-5.986122000">
        <ele>11.5</ele>
        <time>2020-10-11T09:22:05Z</time>
      </trkpt>
      <trkpt lat="37.366104000" lon="-5.986077000">
        <ele>11.4</ele>
        <time>2020-10-11T09:22:07Z</time>
      </trkpt>
      <trkpt lat="37.366020000" lon="-5.986023000">
        <ele>11.1</ele>
        <time>2020-10-11T09:22:09Z</time>
      </trkpt>
      <trkpt lat="37.365929000" lon="-5.985969000">
        <ele>10.9</ele>
        <time>2020-10-11T09:22:11Z</time>
      </trkpt>
      <trkpt lat="37.365839000" lon="-5.985910000">
        <ele>10.7</ele>
        <time>2020-10-11T09:22:13Z</time>
      </trkpt>
      <trkpt lat="37.365737000" lon="-5.985864000">
        <ele>10.5</ele>
        <time>2020-10-11T09:22:15Z</time>
      </trkpt>
      <trkpt lat="37.365642000" lon="-5.985804000">
        <ele>10.2</ele>
        <time>2020-10-11T09:22:17Z</time>
      </trkpt>
      <trkpt lat="37.365546000" lon="-5.985743000">
        <ele>10.0</ele>
        <time>2020-10-11T09:22:19Z</time>
      </trkpt>
      <trkpt lat="37.365450000" lon="-5.985685000">
        <ele>9.8</ele>
        <time>2020-10-11T09:22:21Z</time>
      </trkpt>
      <trkpt lat="37.365358000" lon="-5.985630000">
        <ele>9.6</ele>
        <time>2020-10-11T09:22:23Z</time>
      </trkpt>
      <trkpt lat="37.365267000" lon="-5.985573000">
        <ele>9.5</ele>
        <time>2020-10-11T09:22:25Z</time>
      </trkpt>
      <trkpt lat="37.365170000" lon="-5.985514000">
        <ele>9.3</ele>
        <time>2020-10-11T09:22:27Z</time>
      </trkpt>
      <trkpt lat="37.365080000" lon="-5.985484000">
        <ele>9.1</ele>
        <time>2020-10-11T09:22:29Z</time>
      </trkpt>
      <trkpt lat="37.365003000" lon="-5.985438000">
        <ele>9.0</ele>
        <time>2020-10-11T09:22:31Z</time>
      </trkpt>
      <trkpt lat="37.364944000" lon="-5.985364000">
        <ele>9.0</ele>
        <time>2020-10-11T09:22:33Z</time>
      </trkpt>
      <trkpt lat="37.364859000" lon="-5.985317000">
        <ele>9.0</ele>
        <time>2020-10-11T09:22:35Z</time>
      </trkpt>
      <trkpt lat="37.364770000" lon="-5.985268000">
        <ele>9.1</ele>
        <time>2020-10-11T09:22:37Z</time>
      </trkpt>
      <trkpt lat="37.364677000" lon="-5.985217000">
        <ele>9.3</ele>
        <time>2020-10-11T09:22:39Z</time>
      </trkpt>
      <trkpt lat="37.364584000" lon="-5.985160000">
        <ele>9.4</ele>
        <time>2020-10-11T09:22:41Z</time>
      </trkpt>
      <trkpt lat="37.364494000" lon="-5.985108000">
        <ele>9.5</ele>
        <time>2020-10-11T09:22:43Z</time>
      </trkpt>
      <trkpt lat="37.364394000" lon="-5.985053000">
        <ele>9.5</ele>
        <time>2020-10-11T09:22:45Z</time>
      </trkpt>
      <trkpt lat="37.364304000" lon="-5.984999000">
        <ele>9.7</ele>
        <time>2020-10-11T09:22:47Z</time>
      </trkpt>
      <trkpt lat="37.364213000" lon="-5.984945000">
        <ele>10.0</ele>
        <time>2020-10-11T09:22:49Z</time>
      </trkpt>
      <trkpt lat="37.364115000" lon="-5.984890000">
        <ele>10.3</ele>
        <time>2020-10-11T09:22:51Z</time>
      </trkpt>
      <trkpt lat="37.364021000" lon="-5.984832000">
        <ele>10.5</ele>
        <time>2020-10-11T09:22:53Z</time>
      </trkpt>
      <trkpt lat="37.363930000" lon="-5.984767000">
        <ele>10.7</ele>
        <time>2020-10-11T09:22:55Z</time>
      </trkpt>
      <trkpt lat="37.363841000" lon="-5.984716000">
        <ele>10.9</ele>
        <time>2020-10-11T09:22:57Z</time>
      </trkpt>
      <trkpt lat="37.363754000" lon="-5.984704000">
        <ele>10.9</ele>
        <time>2020-10-11T09:22:59Z</time>
      </trkpt>
      <trkpt lat="37.363681000" lon="-5.984632000">
        <ele>10.9</ele>
        <time>2020-10-11T09:23:02Z</time>
      </trkpt>
      <trkpt lat="37.363617000" lon="-5.984570000">
        <ele>10.9</ele>
        <time>2020-10-11T09:23:08Z</time>
      </trkpt>
      <trkpt lat="37.363517000" lon="-5.984558000">
        <ele>10.9</ele>
        <time>2020-10-11T09:24:19Z</time>
      </trkpt>
      <trkpt lat="37.363416000" lon="-5.984546000">
        <ele>10.9</ele>
        <time>2020-10-11T09:24:23Z</time>
      </trkpt>
      <trkpt lat="37.363358000" lon="-5.984435000">
        <ele>10.9</ele>
        <time>2020-10-11T09:24:27Z</time>
      </trkpt>
      <trkpt lat="37.363278000" lon="-5.984367000">
        <ele>11.0</ele>
        <time>2020-10-11T09:24:30Z</time>
      </trkpt>
      <trkpt lat="37.363179000" lon="-5.984308000">
        <ele>11.1</ele>
        <time>2020-10-11T09:24:33Z</time>
      </trkpt>
      <trkpt lat="37.363109000" lon="-5.984257000">
        <ele>11.3</ele>
        <time>2020-10-11T09:24:35Z</time>
      </trkpt>
      <trkpt lat="37.362998000" lon="-5.984188000">
        <ele>11.5</ele>
        <time>2020-10-11T09:24:38Z</time>
      </trkpt>
      <trkpt lat="37.362921000" lon="-5.984139000">
        <ele>11.8</ele>
        <time>2020-10-11T09:24:40Z</time>
      </trkpt>
      <trkpt lat="37.362844000" lon="-5.984092000">
        <ele>12.1</ele>
        <time>2020-10-11T09:24:42Z</time>
      </trkpt>
      <trkpt lat="37.362755000" lon="-5.984041000">
        <ele>12.3</ele>
        <time>2020-10-11T09:24:44Z</time>
      </trkpt>
      <trkpt lat="37.362662000" lon="-5.983994000">
        <ele>12.4</ele>
        <time>2020-10-11T09:24:46Z</time>
      </trkpt>
      <trkpt lat="37.362558000" lon="-5.983949000">
        <ele>12.4</ele>
        <time>2020-10-11T09:24:48Z</time>
      </trkpt>
      <trkpt lat="37.362446000" lon="-5.983886000">
        <ele>12.4</ele>
        <time>2020-10-11T09:24:50Z</time>
      </trkpt>
      <trkpt lat="37.362339000" lon="-5.983823000">
        <ele>12.4</ele>
        <time>2020-10-11T09:24:52Z</time>
      </trkpt>
      <trkpt lat="37.362229000" lon="-5.983765000">
        <ele>12.4</ele>
        <time>2020-10-11T09:24:54Z</time>
      </trkpt>
      <trkpt lat="37.362118000" lon="-5.983694000">
        <ele>12.4</ele>
        <time>2020-10-11T09:24:56Z</time>
      </trkpt>
      <trkpt lat="37.362009000" lon="-5.983620000">
        <ele>12.3</ele>
        <time>2020-10-11T09:24:58Z</time>
      </trkpt>
      <trkpt lat="37.361905000" lon="-5.983559000">
        <ele>12.2</ele>
        <time>2020-10-11T09:25:00Z</time>
      </trkpt>
      <trkpt lat="37.361802000" lon="-5.983499000">
        <ele>12.2</ele>
        <time>2020-10-11T09:25:02Z</time>
      </trkpt>
      <trkpt lat="37.361695000" lon="-5.983441000">
        <ele>12.3</ele>
        <time>2020-10-11T09:25:04Z</time>
      </trkpt>
      <trkpt lat="37.361607000" lon="-5.983387000">
        <ele>12.5</ele>
        <time>2020-10-11T09:25:06Z</time>
      </trkpt>
      <trkpt lat="37.361526000" lon="-5.983369000">
        <ele>12.7</ele>
        <time>2020-10-11T09:25:08Z</time>
      </trkpt>
      <trkpt lat="37.361462000" lon="-5.983307000">
        <ele>13.1</ele>
        <time>2020-10-11T09:25:10Z</time>
      </trkpt>
      <trkpt lat="37.361385000" lon="-5.983255000">
        <ele>13.4</ele>
        <time>2020-10-11T09:25:12Z</time>
      </trkpt>
      <trkpt lat="37.361299000" lon="-5.983205000">
        <ele>13.6</ele>
        <time>2020-10-11T09:25:14Z</time>
      </trkpt>
      <trkpt lat="37.361204000" lon="-5.983152000">
        <ele>13.7</ele>
        <time>2020-10-11T09:25:16Z</time>
      </trkpt>
      <trkpt lat="37.361114000" lon="-5.983095000">
        <ele>13.7</ele>
        <time>2020-10-11T09:25:18Z</time>
      </trkpt>
      <trkpt lat="37.361020000" lon="-5.983041000">
        <ele>13.6</ele>
        <time>2020-10-11T09:25:20Z</time>
      </trkpt>
      <trkpt lat="37.360933000" lon="-5.982987000">
        <ele>13.4</ele>
        <time>2020-10-11T09:25:22Z</time>
      </trkpt>
      <trkpt lat="37.360839000" lon="-5.982933000">
        <ele>13.0</ele>
        <time>2020-10-11T09:25:24Z</time>
      </trkpt>
      <trkpt lat="37.360746000" lon="-5.982878000">
        <ele>12.5</ele>
        <time>2020-10-11T09:25:26Z</time>
      </trkpt>
      <trkpt lat="37.360651000" lon="-5.982817000">
        <ele>12.0</ele>
        <time>2020-10-11T09:25:28Z</time>
      </trkpt>
      <trkpt lat="37.360561000" lon="-5.982768000">
        <ele>11.5</ele>
        <time>2020-10-11T09:25:30Z</time>
      </trkpt>
      <trkpt lat="37.360466000" lon="-5.982712000">
        <ele>10.9</ele>
        <time>2020-10-11T09:25:32Z</time>
      </trkpt>
      <trkpt lat="37.360373000" lon="-5.982653000">
        <ele>10.5</ele>
        <time>2020-10-11T09:25:34Z</time>
      </trkpt>
      <trkpt lat="37.360284000" lon="-5.982596000">
        <ele>10.1</ele>
        <time>2020-10-11T09:25:36Z</time>
      </trkpt>
      <trkpt lat="37.360195000" lon="-5.982551000">
        <ele>9.8</ele>
        <time>2020-10-11T09:25:38Z</time>
      </trkpt>
      <trkpt lat="37.360110000" lon="-5.982559000">
        <ele>9.7</ele>
        <time>2020-10-11T09:25:40Z</time>
      </trkpt>
      <trkpt lat="37.360011000" lon="-5.982520000">
        <ele>9.8</ele>
        <time>2020-10-11T09:25:43Z</time>
      </trkpt>
      <trkpt lat="37.359913000" lon="-5.982453000">
        <ele>10.0</ele>
        <time>2020-10-11T09:25:46Z</time>
      </trkpt>
      <trkpt lat="37.359842000" lon="-5.982335000">
        <ele>10.2</ele>
        <time>2020-10-11T09:25:49Z</time>
      </trkpt>
      <trkpt lat="37.359758000" lon="-5.982282000">
        <ele>10.4</ele>
        <time>2020-10-11T09:25:51Z</time>
      </trkpt>
      <trkpt lat="37.359672000" lon="-5.982231000">
        <ele>10.5</ele>
        <time>2020-10-11T09:25:53Z</time>
      </trkpt>
      <trkpt lat="37.359581000" lon="-5.982178000">
        <ele>10.5</ele>
        <time>2020-10-11T09:25:55Z</time>
      </trkpt>
      <trkpt lat="37.359489000" lon="-5.982125000">
        <ele>10.4</ele>
        <time>2020-10-11T09:25:57Z</time>
      </trkpt>
      <trkpt lat="37.359402000" lon="-5.982073000">
        <ele>10.2</ele>
        <time>2020-10-11T09:25:59Z</time>
      </trkpt>
      <trkpt lat="37.359310000" lon="-5.982014000">
        <ele>9.8</ele>
        <time>2020-10-11T09:26:01Z</time>
      </trkpt>
      <trkpt lat="37.359217000" lon="-5.981973000">
        <ele>9.5</ele>
        <time>2020-10-11T09:26:03Z</time>
      </trkpt>
      <trkpt lat="37.359124000" lon="-5.981924000">
        <ele>8.9</ele>
        <time>2020-10-11T09:26:05Z</time>
      </trkpt>
      <trkpt lat="37.359039000" lon="-5.981875000">
        <ele>8.3</ele>
        <time>2020-10-11T09:26:07Z</time>
      </trkpt>
      <trkpt lat="37.358944000" lon="-5.981812000">
        <ele>7.7</ele>
        <time>2020-10-11T09:26:09Z</time>
      </trkpt>
      <trkpt lat="37.358863000" lon="-5.981762000">
        <ele>7.3</ele>
        <time>2020-10-11T09:26:11Z</time>
      </trkpt>
      <trkpt lat="37.358753000" lon="-5.981727000">
        <ele>6.9</ele>
        <time>2020-10-11T09:26:14Z</time>
      </trkpt>
      <trkpt lat="37.358652000" lon="-5.981646000">
        <ele>6.5</ele>
        <time>2020-10-11T09:26:17Z</time>
      </trkpt>
      <trkpt lat="37.358574000" lon="-5.981604000">
        <ele>6.3</ele>
        <time>2020-10-11T09:26:19Z</time>
      </trkpt>
      <trkpt lat="37.358491000" lon="-5.981561000">
        <ele>6.0</ele>
        <time>2020-10-11T09:26:21Z</time>
      </trkpt>
      <trkpt lat="37.358412000" lon="-5.981509000">
        <ele>5.9</ele>
        <time>2020-10-11T09:26:23Z</time>
      </trkpt>
      <trkpt lat="37.358328000" lon="-5.981459000">
        <ele>5.9</ele>
        <time>2020-10-11T09:26:25Z</time>
      </trkpt>
      <trkpt lat="37.358249000" lon="-5.981405000">
        <ele>6.0</ele>
        <time>2020-10-11T09:26:27Z</time>
      </trkpt>
      <trkpt lat="37.358158000" lon="-5.981346000">
        <ele>6.4</ele>
        <time>2020-10-11T09:26:29Z</time>
      </trkpt>
      <trkpt lat="37.358065000" lon="-5.981298000">
        <ele>6.8</ele>
        <time>2020-10-11T09:26:31Z</time>
      </trkpt>
      <trkpt lat="37.357981000" lon="-5.981249000">
        <ele>7.4</ele>
        <time>2020-10-11T09:26:33Z</time>
      </trkpt>
      <trkpt lat="37.357901000" lon="-5.981207000">
        <ele>8.0</ele>
        <time>2020-10-11T09:26:35Z</time>
      </trkpt>
      <trkpt lat="37.357820000" lon="-5.981201000">
        <ele>8.8</ele>
        <time>2020-10-11T09:26:40Z</time>
      </trkpt>
      <trkpt lat="37.357736000" lon="-5.981145000">
        <ele>9.8</ele>
        <time>2020-10-11T09:26:57Z</time>
      </trkpt>
      <trkpt lat="37.357670000" lon="-5.981059000">
        <ele>10.9</ele>
        <time>2020-10-11T09:27:01Z</time>
      </trkpt>
      <trkpt lat="37.357585000" lon="-5.981007000">
        <ele>12.2</ele>
        <time>2020-10-11T09:27:04Z</time>
      </trkpt>
      <trkpt lat="37.357495000" lon="-5.980964000">
        <ele>13.5</ele>
        <time>2020-10-11T09:27:07Z</time>
      </trkpt>
      <trkpt lat="37.357397000" lon="-5.980914000">
        <ele>14.7</ele>
        <time>2020-10-11T09:27:10Z</time>
      </trkpt>
      <trkpt lat="37.357302000" lon="-5.980857000">
        <ele>15.9</ele>
        <time>2020-10-11T09:27:13Z</time>
      </trkpt>
      <trkpt lat="37.357199000" lon="-5.980820000">
        <ele>16.9</ele>
        <time>2020-10-11T09:27:16Z</time>
      </trkpt>
      <trkpt lat="37.357084000" lon="-5.980849000">
        <ele>17.8</ele>
        <time>2020-10-11T09:27:19Z</time>
      </trkpt>
      <trkpt lat="37.356995000" lon="-5.980862000">
        <ele>18.5</ele>
        <time>2020-10-11T09:27:22Z</time>
      </trkpt>
      <trkpt lat="37.356917000" lon="-5.980800000">
        <ele>18.9</ele>
        <time>2020-10-11T09:27:27Z</time>
      </trkpt>
      <trkpt lat="37.356841000" lon="-5.980753000">
        <ele>19.2</ele>
        <time>2020-10-11T09:27:30Z</time>
      </trkpt>
      <trkpt lat="37.356748000" lon="-5.980692000">
        <ele>19.3</ele>
        <time>2020-10-11T09:27:33Z</time>
      </trkpt>
      <trkpt lat="37.356646000" lon="-5.980643000">
        <ele>19.2</ele>
        <time>2020-10-11T09:27:36Z</time>
      </trkpt>
      <trkpt lat="37.356568000" lon="-5.980554000">
        <ele>19.0</ele>
        <time>2020-10-11T09:27:39Z</time>
      </trkpt>
      <trkpt lat="37.356484000" lon="-5.980469000">
        <ele>18.6</ele>
        <time>2020-10-11T09:28:52Z</time>
      </trkpt>
      <trkpt lat="37.356402000" lon="-5.980398000">
        <ele>18.1</ele>
        <time>2020-10-11T09:28:55Z</time>
      </trkpt>
      <trkpt lat="37.356304000" lon="-5.980342000">
        <ele>17.4</ele>
        <time>2020-10-11T09:28:58Z</time>
      </trkpt>
      <trkpt lat="37.356199000" lon="-5.980296000">
        <ele>16.6</ele>
        <time>2020-10-11T09:29:01Z</time>
      </trkpt>
      <trkpt lat="37.356099000" lon="-5.980289000">
        <ele>15.9</ele>
        <time>2020-10-11T09:29:04Z</time>
      </trkpt>
      <trkpt lat="37.356008000" lon="-5.980333000">
        <ele>15.2</ele>
        <time>2020-10-11T09:29:07Z</time>
      </trkpt>
      <trkpt lat="37.355910000" lon="-5.980325000">
        <ele>14.5</ele>
        <time>2020-10-11T09:29:15Z</time>
      </trkpt>
      <trkpt lat="37.355822000" lon="-5.980265000">
        <ele>13.7</ele>
        <time>2020-10-11T09:29:19Z</time>
      </trkpt>
      <trkpt lat="37.355778000" lon="-5.980162000">
        <ele>13.1</ele>
        <time>2020-10-11T09:29:22Z</time>
      </trkpt>
      <trkpt lat="37.355738000" lon="-5.980025000">
        <ele>12.5</ele>
        <time>2020-10-11T09:29:25Z</time>
      </trkpt>
      <trkpt lat="37.355687000" lon="-5.979901000">
        <ele>12.1</ele>
        <time>2020-10-11T09:29:28Z</time>
      </trkpt>
      <trkpt lat="37.355583000" lon="-5.979828000">
        <ele>11.7</ele>
        <time>2020-10-11T09:29:31Z</time>
      </trkpt>
      <trkpt lat="37.355507000" lon="-5.979786000">
        <ele>11.5</ele>
        <time>2020-10-11T09:29:33Z</time>
      </trkpt>
      <trkpt lat="37.355435000" lon="-5.979734000">
        <ele>11.5</ele>
        <time>2020-10-11T09:29:35Z</time>
      </trkpt>
      <trkpt lat="37.355374000" lon="-5.979656000">
        <ele>11.5</ele>
        <time>2020-10-11T09:29:37Z</time>
      </trkpt>
      <trkpt lat="37.355284000" lon="-5.979584000">
        <ele>11.6</ele>
        <time>2020-10-11T09:29:39Z</time>
      </trkpt>
      <trkpt lat="37.355196000" lon="-5.979534000">
        <ele>11.8</ele>
        <time>2020-10-11T09:29:41Z</time>
      </trkpt>
      <trkpt lat="37.355109000" lon="-5.979484000">
        <ele>12.0</ele>
        <time>2020-10-11T09:29:43Z</time>
      </trkpt>
      <trkpt lat="37.355029000" lon="-5.979436000">
        <ele>12.3</ele>
        <time>2020-10-11T09:29:45Z</time>
      </trkpt>
      <trkpt lat="37.354947000" lon="-5.979382000">
        <ele>12.5</ele>
        <time>2020-10-11T09:29:47Z</time>
      </trkpt>
      <trkpt lat="37.354863000" lon="-5.979331000">
        <ele>12.8</ele>
        <time>2020-10-11T09:29:49Z</time>
      </trkpt>
      <trkpt lat="37.354771000" lon="-5.979325000">
        <ele>13.1</ele>
        <time>2020-10-11T09:29:51Z</time>
      </trkpt>
      <trkpt lat="37.354688000" lon="-5.979280000">
        <ele>13.5</ele>
        <time>2020-10-11T09:29:53Z</time>
      </trkpt>
      <trkpt lat="37.354626000" lon="-5.979193000">
        <ele>13.9</ele>
        <time>2020-10-11T09:29:55Z</time>
      </trkpt>
      <trkpt lat="37.354548000" lon="-5.979149000">
        <ele>14.4</ele>
        <time>2020-10-11T09:29:57Z</time>
      </trkpt>
      <trkpt lat="37.354463000" lon="-5.979099000">
        <ele>14.8</ele>
        <time>2020-10-11T09:29:59Z</time>
      </trkpt>
      <trkpt lat="37.354375000" lon="-5.979046000">
        <ele>15.2</ele>
        <time>2020-10-11T09:30:01Z</time>
      </trkpt>
      <trkpt lat="37.354284000" lon="-5.978988000">
        <ele>15.5</ele>
        <time>2020-10-11T09:30:03Z</time>
      </trkpt>
      <trkpt lat="37.354189000" lon="-5.978936000">
        <ele>15.6</ele>
        <time>2020-10-11T09:30:05Z</time>
      </trkpt>
      <trkpt lat="37.354099000" lon="-5.978879000">
        <ele>15.6</ele>
        <time>2020-10-11T09:30:07Z</time>
      </trkpt>
      <trkpt lat="37.354008000" lon="-5.978824000">
        <ele>15.6</ele>
        <time>2020-10-11T09:30:09Z</time>
      </trkpt>
      <trkpt lat="37.353920000" lon="-5.978761000">
        <ele>15.5</ele>
        <time>2020-10-11T09:30:11Z</time>
      </trkpt>
      <trkpt lat="37.353825000" lon="-5.978704000">
        <ele>15.4</ele>
        <time>2020-10-11T09:30:13Z</time>
      </trkpt>
      <trkpt lat="37.353732000" lon="-5.978651000">
        <ele>15.1</ele>
        <time>2020-10-11T09:30:15Z</time>
      </trkpt>
      <trkpt lat="37.353640000" lon="-5.978591000">
        <ele>14.6</ele>
        <time>2020-10-11T09:30:17Z</time>
      </trkpt>
      <trkpt lat="37.353549000" lon="-5.978535000">
        <ele>14.1</ele>
        <time>2020-10-11T09:30:19Z</time>
      </trkpt>
      <trkpt lat="37.353469000" lon="-5.978480000">
        <ele>13.5</ele>
        <time>2020-10-11T09:30:21Z</time>
      </trkpt>
      <trkpt lat="37.353384000" lon="-5.978434000">
        <ele>12.7</ele>
        <time>2020-10-11T09:30:23Z</time>
      </trkpt>
      <trkpt lat="37.353301000" lon="-5.978377000">
        <ele>12.1</ele>
        <time>2020-10-11T09:30:25Z</time>
      </trkpt>
      <trkpt lat="37.353222000" lon="-5.978326000">
        <ele>11.5</ele>
        <time>2020-10-11T09:30:27Z</time>
      </trkpt>
      <trkpt lat="37.353149000" lon="-5.978282000">
        <ele>10.9</ele>
        <time>2020-10-11T09:30:29Z</time>
      </trkpt>
      <trkpt lat="37.353038000" lon="-5.978220000">
        <ele>10.3</ele>
        <time>2020-10-11T09:30:32Z</time>
      </trkpt>
      <trkpt lat="37.352963000" lon="-5.978174000">
        <ele>9.7</ele>
        <time>2020-10-11T09:30:34Z</time>
      </trkpt>
      <trkpt lat="37.352889000" lon="-5.978131000">
        <ele>9.2</ele>
        <time>2020-10-11T09:30:36Z</time>
      </trkpt>
      <trkpt lat="37.352785000" lon="-5.978078000">
        <ele>8.7</ele>
        <time>2020-10-11T09:30:39Z</time>
      </trkpt>
      <trkpt lat="37.352719000" lon="-5.978171000">
        <ele>8.5</ele>
        <time>2020-10-11T09:30:45Z</time>
      </trkpt>
      <trkpt lat="37.352694000" lon="-5.978294000">
        <ele>8.4</ele>
        <time>2020-10-11T09:30:48Z</time>
      </trkpt>
      <trkpt lat="37.352718000" lon="-5.978425000">
        <ele>8.5</ele>
        <time>2020-10-11T09:30:51Z</time>
      </trkpt>
      <trkpt lat="37.352813000" lon="-5.978509000">
        <ele>8.6</ele>
        <time>2020-10-11T09:30:54Z</time>
      </trkpt>
      <trkpt lat="37.352891000" lon="-5.978570000">
        <ele>8.8</ele>
        <time>2020-10-11T09:30:56Z</time>
      </trkpt>
      <trkpt lat="37.352955000" lon="-5.978663000">
        <ele>9.2</ele>
        <time>2020-10-11T09:30:58Z</time>
      </trkpt>
      <trkpt lat="37.352983000" lon="-5.978770000">
        <ele>9.5</ele>
        <time>2020-10-11T09:31:00Z</time>
      </trkpt>
      <trkpt lat="37.352998000" lon="-5.978879000">
        <ele>10.0</ele>
        <time>2020-10-11T09:31:02Z</time>
      </trkpt>
      <trkpt lat="37.352990000" lon="-5.978982000">
        <ele>10.4</ele>
        <time>2020-10-11T09:31:04Z</time>
      </trkpt>
      <trkpt lat="37.352964000" lon="-5.979119000">
        <ele>10.7</ele>
        <time>2020-10-11T09:31:07Z</time>
      </trkpt>
      <trkpt lat="37.353055000" lon="-5.979173000">
        <ele>11.0</ele>
        <time>2020-10-11T09:31:11Z</time>
      </trkpt>
      <trkpt lat="37.353095000" lon="-5.979040000">
        <ele>11.3</ele>
        <time>2020-10-11T09:31:14Z</time>
      </trkpt>
      <trkpt lat="37.353114000" lon="-5.978909000">
        <ele>11.5</ele>
        <time>2020-10-11T09:31:16Z</time>
      </trkpt>
      <trkpt lat="37.353125000" lon="-5.978762000">
        <ele>11.8</ele>
        <time>2020-10-11T09:31:18Z</time>
      </trkpt>
      <trkpt lat="37.353140000" lon="-5.978595000">
        <ele>12.2</ele>
        <time>2020-10-11T09:31:20Z</time>
      </trkpt>
      <trkpt lat="37.353158000" lon="-5.978417000">
        <ele>12.6</ele>
        <time>2020-10-11T09:31:22Z</time>
      </trkpt>
      <trkpt lat="37.353174000" lon="-5.978244000">
        <ele>13.1</ele>
        <time>2020-10-11T09:31:24Z</time>
      </trkpt>
      <trkpt lat="37.353181000" lon="-5.978090000">
        <ele>13.5</ele>
        <time>2020-10-11T09:31:26Z</time>
      </trkpt>
      <trkpt lat="37.353193000" lon="-5.977913000">
        <ele>14.0</ele>
        <time>2020-10-11T09:31:28Z</time>
      </trkpt>
      <trkpt lat="37.353209000" lon="-5.977742000">
        <ele>14.5</ele>
        <time>2020-10-11T09:31:30Z</time>
      </trkpt>
      <trkpt lat="37.353217000" lon="-5.977604000">
        <ele>15.1</ele>
        <time>2020-10-11T09:31:32Z</time>
      </trkpt>
      <trkpt lat="37.353220000" lon="-5.977466000">
        <ele>15.5</ele>
        <time>2020-10-11T09:31:34Z</time>
      </trkpt>
      <trkpt lat="37.353226000" lon="-5.977360000">
        <ele>15.9</ele>
        <time>2020-10-11T09:31:36Z</time>
      </trkpt>
      <trkpt lat="37.353234000" lon="-5.977257000">
        <ele>16.1</ele>
        <time>2020-10-11T09:31:38Z</time>
      </trkpt>
      <trkpt lat="37.353253000" lon="-5.977109000">
        <ele>16.2</ele>
        <time>2020-10-11T09:31:41Z</time>
      </trkpt>
      <trkpt lat="37.353270000" lon="-5.977000000">
        <ele>16.2</ele>
        <time>2020-10-11T09:31:43Z</time>
      </trkpt>
      <trkpt lat="37.353277000" lon="-5.976898000">
        <ele>16.0</ele>
        <time>2020-10-11T09:31:45Z</time>
      </trkpt>
      <trkpt lat="37.353283000" lon="-5.976788000">
        <ele>15.6</ele>
        <time>2020-10-11T09:31:47Z</time>
      </trkpt>
      <trkpt lat="37.353275000" lon="-5.976669000">
        <ele>15.2</ele>
        <time>2020-10-11T09:31:49Z</time>
      </trkpt>
      <trkpt lat="37.353261000" lon="-5.976538000">
        <ele>14.6</ele>
        <time>2020-10-11T09:31:51Z</time>
      </trkpt>
      <trkpt lat="37.353231000" lon="-5.976426000">
        <ele>14.1</ele>
        <time>2020-10-11T09:31:53Z</time>
      </trkpt>
      <trkpt lat="37.353200000" lon="-5.976304000">
        <ele>13.5</ele>
        <time>2020-10-11T09:31:55Z</time>
      </trkpt>
      <trkpt lat="37.353171000" lon="-5.976180000">
        <ele>13.1</ele>
        <time>2020-10-11T09:31:57Z</time>
      </trkpt>
      <trkpt lat="37.353150000" lon="-5.976057000">
        <ele>12.6</ele>
        <time>2020-10-11T09:31:59Z</time>
      </trkpt>
      <trkpt lat="37.353140000" lon="-5.975930000">
        <ele>12.2</ele>
        <time>2020-10-11T09:32:01Z</time>
      </trkpt>
      <trkpt lat="37.353136000" lon="-5.975800000">
        <ele>11.7</ele>
        <time>2020-10-11T09:32:03Z</time>
      </trkpt>
      <trkpt lat="37.353135000" lon="-5.975676000">
        <ele>11.3</ele>
        <time>2020-10-11T09:32:05Z</time>
      </trkpt>
      <trkpt lat="37.353140000" lon="-5.975553000">
        <ele>10.9</ele>
        <time>2020-10-11T09:32:07Z</time>
      </trkpt>
      <trkpt lat="37.353148000" lon="-5.975424000">
        <ele>10.6</ele>
        <time>2020-10-11T09:32:09Z</time>
      </trkpt>
      <trkpt lat="37.353157000" lon="-5.975293000">
        <ele>10.5</ele>
        <time>2020-10-11T09:32:11Z</time>
      </trkpt>
      <trkpt lat="37.353161000" lon="-5.975167000">
        <ele>10.5</ele>
        <time>2020-10-11T09:32:13Z</time>
      </trkpt>
      <trkpt lat="37.353166000" lon="-5.975035000">
        <ele>10.5</ele>
        <time>2020-10-11T09:32:15Z</time>
      </trkpt>
      <trkpt lat="37.353184000" lon="-5.974918000">
        <ele>10.5</ele>
        <time>2020-10-11T09:32:17Z</time>
      </trkpt>
      <trkpt lat="37.353230000" lon="-5.974818000">
        <ele>10.5</ele>
        <time>2020-10-11T09:32:19Z</time>
      </trkpt>
      <trkpt lat="37.353261000" lon="-5.974709000">
        <ele>10.6</ele>
        <time>2020-10-11T09:32:21Z</time>
      </trkpt>
      <trkpt lat="37.353227000" lon="-5.974592000">
        <ele>10.9</ele>
        <time>2020-10-11T09:32:23Z</time>
      </trkpt>
      <trkpt lat="37.353160000" lon="-5.974496000">
        <ele>11.2</ele>
        <time>2020-10-11T09:32:25Z</time>
      </trkpt>
      <trkpt lat="37.353118000" lon="-5.974373000">
        <ele>11.5</ele>
        <time>2020-10-11T09:32:27Z</time>
      </trkpt>
      <trkpt lat="37.353100000" lon="-5.974238000">
        <ele>11.7</ele>
        <time>2020-10-11T09:32:29Z</time>
      </trkpt>
      <trkpt lat="37.353074000" lon="-5.974098000">
        <ele>11.9</ele>
        <time>2020-10-11T09:32:31Z</time>
      </trkpt>
      <trkpt lat="37.353053000" lon="-5.973958000">
        <ele>12.1</ele>
        <time>2020-10-11T09:32:33Z</time>
      </trkpt>
      <trkpt lat="37.353029000" lon="-5.973818000">
        <ele>12.2</ele>
        <time>2020-10-11T09:32:35Z</time>
      </trkpt>
      <trkpt lat="37.353013000" lon="-5.973672000">
        <ele>12.3</ele>
        <time>2020-10-11T09:32:37Z</time>
      </trkpt>
      <trkpt lat="37.352999000" lon="-5.973522000">
        <ele>12.3</ele>
        <time>2020-10-11T09:32:39Z</time>
      </trkpt>
      <trkpt lat="37.352992000" lon="-5.973374000">
        <ele>12.1</ele>
        <time>2020-10-11T09:32:41Z</time>
      </trkpt>
      <trkpt lat="37.352994000" lon="-5.973224000">
        <ele>11.8</ele>
        <time>2020-10-11T09:32:43Z</time>
      </trkpt>
      <trkpt lat="37.352998000" lon="-5.973074000">
        <ele>11.4</ele>
        <time>2020-10-11T09:32:45Z</time>
      </trkpt>
      <trkpt lat="37.353013000" lon="-5.972923000">
        <ele>10.9</ele>
        <time>2020-10-11T09:32:47Z</time>
      </trkpt>
      <trkpt lat="37.353031000" lon="-5.972766000">
        <ele>10.5</ele>
        <time>2020-10-11T09:32:49Z</time>
      </trkpt>
      <trkpt lat="37.353055000" lon="-5.972605000">
        <ele>10.0</ele>
        <time>2020-10-11T09:32:51Z</time>
      </trkpt>
      <trkpt lat="37.353089000" lon="-5.972441000">
        <ele>9.6</ele>
        <time>2020-10-11T09:32:53Z</time>
      </trkpt>
      <trkpt lat="37.353133000" lon="-5.972281000">
        <ele>9.3</ele>
        <time>2020-10-11T09:32:55Z</time>
      </trkpt>
      <trkpt lat="37.353172000" lon="-5.972134000">
        <ele>9.0</ele>
        <time>2020-10-11T09:32:57Z</time>
      </trkpt>
      <trkpt lat="37.353210000" lon="-5.971996000">
        <ele>8.8</ele>
        <time>2020-10-11T09:32:59Z</time>
      </trkpt>
      <trkpt lat="37.353243000" lon="-5.971870000">
        <ele>8.8</ele>
        <time>2020-10-11T09:33:01Z</time>
      </trkpt>
      <trkpt lat="37.353277000" lon="-5.971762000">
        <ele>9.0</ele>
        <time>2020-10-11T09:33:03Z</time>
      </trkpt>
      <trkpt lat="37.353333000" lon="-5.971685000">
        <ele>9.4</ele>
        <time>2020-10-11T09:33:05Z</time>
      </trkpt>
      <trkpt lat="37.353424000" lon="-5.971606000">
        <ele>9.9</ele>
        <time>2020-10-11T09:33:08Z</time>
      </trkpt>
      <trkpt lat="37.353500000" lon="-5.971532000">
        <ele>10.5</ele>
        <time>2020-10-11T09:33:11Z</time>
      </trkpt>
      <trkpt lat="37.353562000" lon="-5.971449000">
        <ele>11.2</ele>
        <time>2020-10-11T09:33:14Z</time>
      </trkpt>
      <trkpt lat="37.353617000" lon="-5.971357000">
        <ele>11.8</ele>
        <time>2020-10-11T09:33:17Z</time>
      </trkpt>
      <trkpt lat="37.353659000" lon="-5.971259000">
        <ele>12.4</ele>
        <time>2020-10-11T09:33:20Z</time>
      </trkpt>
      <trkpt lat="37.353652000" lon="-5.971127000">
        <ele>12.9</ele>
        <time>2020-10-11T09:33:23Z</time>
      </trkpt>
      <trkpt lat="37.353634000" lon="-5.970975000">
        <ele>13.4</ele>
        <time>2020-10-11T09:33:26Z</time>
      </trkpt>
      <trkpt lat="37.353624000" lon="-5.970870000">
        <ele>13.7</ele>
        <time>2020-10-11T09:33:28Z</time>
      </trkpt>
      <trkpt lat="37.353616000" lon="-5.970765000">
        <ele>14.0</ele>
        <time>2020-10-11T09:33:30Z</time>
      </trkpt>
      <trkpt lat="37.353615000" lon="-5.970657000">
        <ele>14.2</ele>
        <time>2020-10-11T09:33:32Z</time>
      </trkpt>
      <trkpt lat="37.353648000" lon="-5.970556000">
        <ele>14.2</ele>
        <time>2020-10-11T09:33:34Z</time>
      </trkpt>
      <trkpt lat="37.353694000" lon="-5.970456000">
        <ele>14.1</ele>
        <time>2020-10-11T09:33:36Z</time>
      </trkpt>
      <trkpt lat="37.353736000" lon="-5.970348000">
        <ele>13.8</ele>
        <time>2020-10-11T09:33:38Z</time>
      </trkpt>
      <trkpt lat="37.353787000" lon="-5.970242000">
        <ele>13.5</ele>
        <time>2020-10-11T09:33:40Z</time>
      </trkpt>
      <trkpt lat="37.353839000" lon="-5.970138000">
        <ele>13.3</ele>
        <time>2020-10-11T09:33:42Z</time>
      </trkpt>
      <trkpt lat="37.353891000" lon="-5.970033000">
        <ele>13.0</ele>
        <time>2020-10-11T09:33:44Z</time>
      </trkpt>
      <trkpt lat="37.353938000" lon="-5.969926000">
        <ele>12.7</ele>
        <time>2020-10-11T09:33:46Z</time>
      </trkpt>
      <trkpt lat="37.353985000" lon="-5.969819000">
        <ele>12.5</ele>
        <time>2020-10-11T09:33:48Z</time>
      </trkpt>
      <trkpt lat="37.354040000" lon="-5.969712000">
        <ele>12.4</ele>
        <time>2020-10-11T09:33:50Z</time>
      </trkpt>
      <trkpt lat="37.354092000" lon="-5.969605000">
        <ele>12.3</ele>
        <time>2020-10-11T09:33:52Z</time>
      </trkpt>
      <trkpt lat="37.354137000" lon="-5.969496000">
        <ele>12.3</ele>
        <time>2020-10-11T09:33:54Z</time>
      </trkpt>
      <trkpt lat="37.354188000" lon="-5.969388000">
        <ele>12.4</ele>
        <time>2020-10-11T09:33:56Z</time>
      </trkpt>
      <trkpt lat="37.354240000" lon="-5.969275000">
        <ele>12.5</ele>
        <time>2020-10-11T09:33:58Z</time>
      </trkpt>
      <trkpt lat="37.354294000" lon="-5.969163000">
        <ele>12.8</ele>
        <time>2020-10-11T09:34:00Z</time>
      </trkpt>
      <trkpt lat="37.354351000" lon="-5.969052000">
        <ele>13.0</ele>
        <time>2020-10-11T09:34:02Z</time>
      </trkpt>
      <trkpt lat="37.354405000" lon="-5.968938000">
        <ele>13.2</ele>
        <time>2020-10-11T09:34:04Z</time>
      </trkpt>
      <trkpt lat="37.354455000" lon="-5.968824000">
        <ele>13.4</ele>
        <time>2020-10-11T09:34:06Z</time>
      </trkpt>
      <trkpt lat="37.354504000" lon="-5.968709000">
        <ele>13.5</ele>
        <time>2020-10-11T09:34:08Z</time>
      </trkpt>
      <trkpt lat="37.354539000" lon="-5.968593000">
        <ele>13.6</ele>
        <time>2020-10-11T09:34:10Z</time>
      </trkpt>
      <trkpt lat="37.354571000" lon="-5.968476000">
        <ele>13.6</ele>
        <time>2020-10-11T09:34:12Z</time>
      </trkpt>
      <trkpt lat="37.354605000" lon="-5.968357000">
        <ele>13.5</ele>
        <time>2020-10-11T09:34:14Z</time>
      </trkpt>
      <trkpt lat="37.354634000" lon="-5.968232000">
        <ele>13.4</ele>
        <time>2020-10-11T09:34:16Z</time>
      </trkpt>
      <trkpt lat="37.354669000" lon="-5.968111000">
        <ele>13.1</ele>
        <time>2020-10-11T09:34:18Z</time>
      </trkpt>
      <trkpt lat="37.354706000" lon="-5.967991000">
        <ele>12.7</ele>
        <time>2020-10-11T09:34:20Z</time>
      </trkpt>
      <trkpt lat="37.354733000" lon="-5.967876000">
        <ele>12.5</ele>
        <time>2020-10-11T09:34:22Z</time>
      </trkpt>
      <trkpt lat="37.354759000" lon="-5.967766000">
        <ele>12.3</ele>
        <time>2020-10-11T09:34:24Z</time>
      </trkpt>
      <trkpt lat="37.354786000" lon="-5.967662000">
        <ele>12.1</ele>
        <time>2020-10-11T09:34:26Z</time>
      </trkpt>
      <trkpt lat="37.354811000" lon="-5.967554000">
        <ele>11.9</ele>
        <time>2020-10-11T09:34:28Z</time>
      </trkpt>
      <trkpt lat="37.354835000" lon="-5.967440000">
        <ele>11.7</ele>
        <time>2020-10-11T09:34:30Z</time>
      </trkpt>
      <trkpt lat="37.354864000" lon="-5.967317000">
        <ele>11.5</ele>
        <time>2020-10-11T09:34:32Z</time>
      </trkpt>
      <trkpt lat="37.354894000" lon="-5.967190000">
        <ele>11.4</ele>
        <time>2020-10-11T09:34:34Z</time>
      </trkpt>
      <trkpt lat="37.354922000" lon="-5.967061000">
        <ele>11.2</ele>
        <time>2020-10-11T09:34:36Z</time>
      </trkpt>
      <trkpt lat="37.354941000" lon="-5.966927000">
        <ele>11.0</ele>
        <time>2020-10-11T09:34:38Z</time>
      </trkpt>
      <trkpt lat="37.354959000" lon="-5.966790000">
        <ele>10.9</ele>
        <time>2020-10-11T09:34:40Z</time>
      </trkpt>
      <trkpt lat="37.354978000" lon="-5.966651000">
        <ele>10.8</ele>
        <time>2020-10-11T09:34:42Z</time>
      </trkpt>
      <trkpt lat="37.354999000" lon="-5.966522000">
        <ele>10.6</ele>
        <time>2020-10-11T09:34:44Z</time>
      </trkpt>
      <trkpt lat="37.355021000" lon="-5.966392000">
        <ele>10.5</ele>
        <time>2020-10-11T09:34:46Z</time>
      </trkpt>
      <trkpt lat="37.355036000" lon="-5.966260000">
        <ele>10.3</ele>
        <time>2020-10-11T09:34:48Z</time>
      </trkpt>
      <trkpt lat="37.355071000" lon="-5.966135000">
        <ele>10.1</ele>
        <time>2020-10-11T09:34:50Z</time>
      </trkpt>
      <trkpt lat="37.355107000" lon="-5.966006000">
        <ele>10.0</ele>
        <time>2020-10-11T09:34:52Z</time>
      </trkpt>
      <trkpt lat="37.355143000" lon="-5.965874000">
        <ele>10.0</ele>
        <time>2020-10-11T09:34:54Z</time>
      </trkpt>
      <trkpt lat="37.355181000" lon="-5.965741000">
        <ele>10.2</ele>
        <time>2020-10-11T09:34:56Z</time>
      </trkpt>
      <trkpt lat="37.355218000" lon="-5.965608000">
        <ele>10.5</ele>
        <time>2020-10-11T09:34:58Z</time>
      </trkpt>
      <trkpt lat="37.355256000" lon="-5.965475000">
        <ele>11.0</ele>
        <time>2020-10-11T09:35:00Z</time>
      </trkpt>
      <trkpt lat="37.355293000" lon="-5.965343000">
        <ele>11.7</ele>
        <time>2020-10-11T09:35:02Z</time>
      </trkpt>
      <trkpt lat="37.355327000" lon="-5.965207000">
        <ele>12.5</ele>
        <time>2020-10-11T09:35:04Z</time>
      </trkpt>
      <trkpt lat="37.355363000" lon="-5.965073000">
        <ele>13.5</ele>
        <time>2020-10-11T09:35:06Z</time>
      </trkpt>
      <trkpt lat="37.355404000" lon="-5.964944000">
        <ele>14.3</ele>
        <time>2020-10-11T09:35:08Z</time>
      </trkpt>
      <trkpt lat="37.355439000" lon="-5.964808000">
        <ele>15.1</ele>
        <time>2020-10-11T09:35:10Z</time>
      </trkpt>
      <trkpt lat="37.355477000" lon="-5.964676000">
        <ele>15.8</ele>
        <time>2020-10-11T09:35:12Z</time>
      </trkpt>
      <trkpt lat="37.355510000" lon="-5.964552000">
        <ele>16.3</ele>
        <time>2020-10-11T09:35:14Z</time>
      </trkpt>
      <trkpt lat="37.355544000" lon="-5.964426000">
        <ele>16.5</ele>
        <time>2020-10-11T09:35:16Z</time>
      </trkpt>
      <trkpt lat="37.355580000" lon="-5.964299000">
        <ele>16.4</ele>
        <time>2020-10-11T09:35:18Z</time>
      </trkpt>
      <trkpt lat="37.355594000" lon="-5.964163000">
        <ele>16.2</ele>
        <time>2020-10-11T09:35:20Z</time>
      </trkpt>
      <trkpt lat="37.355596000" lon="-5.964027000">
        <ele>15.7</ele>
        <time>2020-10-11T09:35:22Z</time>
      </trkpt>
      <trkpt lat="37.355594000" lon="-5.963886000">
        <ele>15.0</ele>
        <time>2020-10-11T09:35:24Z</time>
      </trkpt>
      <trkpt lat="37.355594000" lon="-5.963743000">
        <ele>14.2</ele>
        <time>2020-10-11T09:35:26Z</time>
      </trkpt>
      <trkpt lat="37.355586000" lon="-5.963597000">
        <ele>13.2</ele>
        <time>2020-10-11T09:35:28Z</time>
      </trkpt>
      <trkpt lat="37.355582000" lon="-5.963452000">
        <ele>12.3</ele>
        <time>2020-10-11T09:35:30Z</time>
      </trkpt>
      <trkpt lat="37.355581000" lon="-5.963304000">
        <ele>11.5</ele>
        <time>2020-10-11T09:35:32Z</time>
      </trkpt>
      <trkpt lat="37.355577000" lon="-5.963153000">
        <ele>10.8</ele>
        <time>2020-10-11T09:35:34Z</time>
      </trkpt>
      <trkpt lat="37.355583000" lon="-5.962996000">
        <ele>10.4</ele>
        <time>2020-10-11T09:35:36Z</time>
      </trkpt>
      <trkpt lat="37.355609000" lon="-5.962839000">
        <ele>10.1</ele>
        <time>2020-10-11T09:35:38Z</time>
      </trkpt>
      <trkpt lat="37.355664000" lon="-5.962690000">
        <ele>10.0</ele>
        <time>2020-10-11T09:35:40Z</time>
      </trkpt>
      <trkpt lat="37.355743000" lon="-5.962569000">
        <ele>9.9</ele>
        <time>2020-10-11T09:35:42Z</time>
      </trkpt>
      <trkpt lat="37.355828000" lon="-5.962455000">
        <ele>9.8</ele>
        <time>2020-10-11T09:35:44Z</time>
      </trkpt>
      <trkpt lat="37.355910000" lon="-5.962342000">
        <ele>9.9</ele>
        <time>2020-10-11T09:35:46Z</time>
      </trkpt>
      <trkpt lat="37.355989000" lon="-5.962227000">
        <ele>10.0</ele>
        <time>2020-10-11T09:35:48Z</time>
      </trkpt>
      <trkpt lat="37.356072000" lon="-5.962113000">
        <ele>10.2</ele>
        <time>2020-10-11T09:35:50Z</time>
      </trkpt>
      <trkpt lat="37.356156000" lon="-5.962003000">
        <ele>10.5</ele>
        <time>2020-10-11T09:35:52Z</time>
      </trkpt>
      <trkpt lat="37.356240000" lon="-5.961891000">
        <ele>10.6</ele>
        <time>2020-10-11T09:35:54Z</time>
      </trkpt>
      <trkpt lat="37.356318000" lon="-5.961781000">
        <ele>10.8</ele>
        <time>2020-10-11T09:35:56Z</time>
      </trkpt>
      <trkpt lat="37.356399000" lon="-5.961672000">
        <ele>11.0</ele>
        <time>2020-10-11T09:35:58Z</time>
      </trkpt>
      <trkpt lat="37.356477000" lon="-5.961564000">
        <ele>11.2</ele>
        <time>2020-10-11T09:36:00Z</time>
      </trkpt>
      <trkpt lat="37.356556000" lon="-5.961457000">
        <ele>11.3</ele>
        <time>2020-10-11T09:36:02Z</time>
      </trkpt>
      <trkpt lat="37.356635000" lon="-5.961349000">
        <ele>11.4</ele>
        <time>2020-10-11T09:36:04Z</time>
      </trkpt>
      <trkpt lat="37.356711000" lon="-5.961240000">
        <ele>11.5</ele>
        <time>2020-10-11T09:36:06Z</time>
      </trkpt>
      <trkpt lat="37.356790000" lon="-5.961133000">
        <ele>11.5</ele>
        <time>2020-10-11T09:36:08Z</time>
      </trkpt>
      <trkpt lat="37.356867000" lon="-5.961030000">
        <ele>11.5</ele>
        <time>2020-10-11T09:36:10Z</time>
      </trkpt>
      <trkpt lat="37.356942000" lon="-5.960917000">
        <ele>11.5</ele>
        <time>2020-10-11T09:36:12Z</time>
      </trkpt>
      <trkpt lat="37.356998000" lon="-5.960793000">
        <ele>11.4</ele>
        <time>2020-10-11T09:36:14Z</time>
      </trkpt>
      <trkpt lat="37.357042000" lon="-5.960661000">
        <ele>11.2</ele>
        <time>2020-10-11T09:36:16Z</time>
      </trkpt>
      <trkpt lat="37.357087000" lon="-5.960534000">
        <ele>11.0</ele>
        <time>2020-10-11T09:36:18Z</time>
      </trkpt>
      <trkpt lat="37.357134000" lon="-5.960410000">
        <ele>10.7</ele>
        <time>2020-10-11T09:36:20Z</time>
      </trkpt>
      <trkpt lat="37.357178000" lon="-5.960282000">
        <ele>10.5</ele>
        <time>2020-10-11T09:36:22Z</time>
      </trkpt>
      <trkpt lat="37.357222000" lon="-5.960160000">
        <ele>10.3</ele>
        <time>2020-10-11T09:36:24Z</time>
      </trkpt>
      <trkpt lat="37.357266000" lon="-5.960033000">
        <ele>10.1</ele>
        <time>2020-10-11T09:36:26Z</time>
      </trkpt>
      <trkpt lat="37.357307000" lon="-5.959914000">
        <ele>10.0</ele>
        <time>2020-10-11T09:36:28Z</time>
      </trkpt>
      <trkpt lat="37.357344000" lon="-5.959786000">
        <ele>9.9</ele>
        <time>2020-10-11T09:36:30Z</time>
      </trkpt>
      <trkpt lat="37.357377000" lon="-5.959668000">
        <ele>9.8</ele>
        <time>2020-10-11T09:36:32Z</time>
      </trkpt>
      <trkpt lat="37.357438000" lon="-5.959561000">
        <ele>9.7</ele>
        <time>2020-10-11T09:36:34Z</time>
      </trkpt>
      <trkpt lat="37.357535000" lon="-5.959511000">
        <ele>9.6</ele>
        <time>2020-10-11T09:36:36Z</time>
      </trkpt>
      <trkpt lat="37.357643000" lon="-5.959495000">
        <ele>9.6</ele>
        <time>2020-10-11T09:36:38Z</time>
      </trkpt>
      <trkpt lat="37.357752000" lon="-5.959482000">
        <ele>9.7</ele>
        <time>2020-10-11T09:36:40Z</time>
      </trkpt>
      <trkpt lat="37.357861000" lon="-5.959466000">
        <ele>9.9</ele>
        <time>2020-10-11T09:36:42Z</time>
      </trkpt>
      <trkpt lat="37.357968000" lon="-5.959453000">
        <ele>10.0</ele>
        <time>2020-10-11T09:36:44Z</time>
      </trkpt>
      <trkpt lat="37.358074000" lon="-5.959438000">
        <ele>10.1</ele>
        <time>2020-10-11T09:36:46Z</time>
      </trkpt>
      <trkpt lat="37.358182000" lon="-5.959417000">
        <ele>10.2</ele>
        <time>2020-10-11T09:36:48Z</time>
      </trkpt>
      <trkpt lat="37.358290000" lon="-5.959407000">
        <ele>10.2</ele>
        <time>2020-10-11T09:36:50Z</time>
      </trkpt>
      <trkpt lat="37.358399000" lon="-5.959396000">
        <ele>10.2</ele>
        <time>2020-10-11T09:36:52Z</time>
      </trkpt>
      <trkpt lat="37.358510000" lon="-5.959380000">
        <ele>10.2</ele>
        <time>2020-10-11T09:36:54Z</time>
      </trkpt>
      <trkpt lat="37.358625000" lon="-5.959363000">
        <ele>10.3</ele>
        <time>2020-10-11T09:36:56Z</time>
      </trkpt>
      <trkpt lat="37.358739000" lon="-5.959353000">
        <ele>10.4</ele>
        <time>2020-10-11T09:36:58Z</time>
      </trkpt>
      <trkpt lat="37.358855000" lon="-5.959336000">
        <ele>10.5</ele>
        <time>2020-10-11T09:37:00Z</time>
      </trkpt>
      <trkpt lat="37.358965000" lon="-5.959319000">
        <ele>10.5</ele>
        <time>2020-10-11T09:37:02Z</time>
      </trkpt>
      <trkpt lat="37.359074000" lon="-5.959303000">
        <ele>10.6</ele>
        <time>2020-10-11T09:37:04Z</time>
      </trkpt>
      <trkpt lat="37.359180000" lon="-5.959288000">
        <ele>10.8</ele>
        <time>2020-10-11T09:37:06Z</time>
      </trkpt>
      <trkpt lat="37.359285000" lon="-5.959276000">
        <ele>11.1</ele>
        <time>2020-10-11T09:37:08Z</time>
      </trkpt>
      <trkpt lat="37.359390000" lon="-5.959257000">
        <ele>11.4</ele>
        <time>2020-10-11T09:37:10Z</time>
      </trkpt>
      <trkpt lat="37.359493000" lon="-5.959242000">
        <ele>11.7</ele>
        <time>2020-10-11T09:37:12Z</time>
      </trkpt>
      <trkpt lat="37.359595000" lon="-5.959234000">
        <ele>12.1</ele>
        <time>2020-10-11T09:37:14Z</time>
      </trkpt>
      <trkpt lat="37.359696000" lon="-5.959223000">
        <ele>12.5</ele>
        <time>2020-10-11T09:37:16Z</time>
      </trkpt>
      <trkpt lat="37.359792000" lon="-5.959212000">
        <ele>12.6</ele>
        <time>2020-10-11T09:37:18Z</time>
      </trkpt>
      <trkpt lat="37.359880000" lon="-5.959202000">
        <ele>12.7</ele>
        <time>2020-10-11T09:37:20Z</time>
      </trkpt>
      <trkpt lat="37.359991000" lon="-5.959185000">
        <ele>12.7</ele>
        <time>2020-10-11T09:37:23Z</time>
      </trkpt>
      <trkpt lat="37.360086000" lon="-5.959172000">
        <ele>12.6</ele>
        <time>2020-10-11T09:37:26Z</time>
      </trkpt>
      <trkpt lat="37.360185000" lon="-5.959132000">
        <ele>12.5</ele>
        <time>2020-10-11T09:37:30Z</time>
      </trkpt>
      <trkpt lat="37.360175000" lon="-5.959026000">
        <ele>12.5</ele>
        <time>2020-10-11T09:37:33Z</time>
      </trkpt>
      <trkpt lat="37.360181000" lon="-5.958894000">
        <ele>12.3</ele>
        <time>2020-10-11T09:37:36Z</time>
      </trkpt>
      <trkpt lat="37.360228000" lon="-5.958761000">
        <ele>12.2</ele>
        <time>2020-10-11T09:37:39Z</time>
      </trkpt>
      <trkpt lat="37.360304000" lon="-5.958676000">
        <ele>12.0</ele>
        <time>2020-10-11T09:37:42Z</time>
      </trkpt>
      <trkpt lat="37.360390000" lon="-5.958619000">
        <ele>11.8</ele>
        <time>2020-10-11T09:37:45Z</time>
      </trkpt>
      <trkpt lat="37.360489000" lon="-5.958610000">
        <ele>11.6</ele>
        <time>2020-10-11T09:37:48Z</time>
      </trkpt>
      <trkpt lat="37.360581000" lon="-5.958647000">
        <ele>11.5</ele>
        <time>2020-10-11T09:37:51Z</time>
      </trkpt>
      <trkpt lat="37.360649000" lon="-5.958710000">
        <ele>11.6</ele>
        <time>2020-10-11T09:37:54Z</time>
      </trkpt>
      <trkpt lat="37.360708000" lon="-5.958801000">
        <ele>11.8</ele>
        <time>2020-10-11T09:37:58Z</time>
      </trkpt>
      <trkpt lat="37.360789000" lon="-5.958749000">
        <ele>12.0</ele>
        <time>2020-10-11T09:38:57Z</time>
      </trkpt>
      <trkpt lat="37.360875000" lon="-5.958670000">
        <ele>12.2</ele>
        <time>2020-10-11T09:39:01Z</time>
      </trkpt>
      <trkpt lat="37.360960000" lon="-5.958596000">
        <ele>12.4</ele>
        <time>2020-10-11T09:39:04Z</time>
      </trkpt>
      <trkpt lat="37.361040000" lon="-5.958519000">
        <ele>12.5</ele>
        <time>2020-10-11T09:39:07Z</time>
      </trkpt>
      <trkpt lat="37.361129000" lon="-5.958572000">
        <ele>12.6</ele>
        <time>2020-10-11T09:39:11Z</time>
      </trkpt>
      <trkpt lat="37.361183000" lon="-5.958653000">
        <ele>12.7</ele>
        <time>2020-10-11T09:39:14Z</time>
      </trkpt>
      <trkpt lat="37.361281000" lon="-5.958669000">
        <ele>12.8</ele>
        <time>2020-10-11T09:39:18Z</time>
      </trkpt>
      <trkpt lat="37.361364000" lon="-5.958644000">
        <ele>12.9</ele>
        <time>2020-10-11T09:39:22Z</time>
      </trkpt>
      <trkpt lat="37.361449000" lon="-5.958573000">
        <ele>13.0</ele>
        <time>2020-10-11T09:39:26Z</time>
      </trkpt>
      <trkpt lat="37.361520000" lon="-5.958523000">
        <ele>13.0</ele>
        <time>2020-10-11T09:39:29Z</time>
      </trkpt>
      <trkpt lat="37.361595000" lon="-5.958471000">
        <ele>13.0</ele>
        <time>2020-10-11T09:39:32Z</time>
      </trkpt>
      <trkpt lat="37.361666000" lon="-5.958421000">
        <ele>13.0</ele>
        <time>2020-10-11T09:39:35Z</time>
      </trkpt>
      <trkpt lat="37.361755000" lon="-5.958359000">
        <ele>12.9</ele>
        <time>2020-10-11T09:39:38Z</time>
      </trkpt>
      <trkpt lat="37.361846000" lon="-5.958292000">
        <ele>12.8</ele>
        <time>2020-10-11T09:39:41Z</time>
      </trkpt>
      <trkpt lat="37.361929000" lon="-5.958212000">
        <ele>12.7</ele>
        <time>2020-10-11T09:39:44Z</time>
      </trkpt>
      <trkpt lat="37.361992000" lon="-5.958106000">
        <ele>12.6</ele>
        <time>2020-10-11T09:39:47Z</time>
      </trkpt>
      <trkpt lat="37.362013000" lon="-5.957979000">
        <ele>12.5</ele>
        <time>2020-10-11T09:39:50Z</time>
      </trkpt>
      <trkpt lat="37.361982000" lon="-5.957855000">
        <ele>12.5</ele>
        <time>2020-10-11T09:39:53Z</time>
      </trkpt>
      <trkpt lat="37.361928000" lon="-5.957741000">
        <ele>12.6</ele>
        <time>2020-10-11T09:39:56Z</time>
      </trkpt>
      <trkpt lat="37.361871000" lon="-5.957639000">
        <ele>12.7</ele>
        <time>2020-10-11T09:40:00Z</time>
      </trkpt>
      <trkpt lat="37.361807000" lon="-5.957540000">
        <ele>12.9</ele>
        <time>2020-10-11T09:40:02Z</time>
      </trkpt>
      <trkpt lat="37.361746000" lon="-5.957437000">
        <ele>13.1</ele>
        <time>2020-10-11T09:40:05Z</time>
      </trkpt>
      <trkpt lat="37.361685000" lon="-5.957330000">
        <ele>13.3</ele>
        <time>2020-10-11T09:40:08Z</time>
      </trkpt>
      <trkpt lat="37.361607000" lon="-5.957244000">
        <ele>13.5</ele>
        <time>2020-10-11T09:40:11Z</time>
      </trkpt>
      <trkpt lat="37.361503000" lon="-5.957148000">
        <ele>13.6</ele>
        <time>2020-10-11T09:40:14Z</time>
      </trkpt>
      <trkpt lat="37.361419000" lon="-5.957091000">
        <ele>13.7</ele>
        <time>2020-10-11T09:40:16Z</time>
      </trkpt>
      <trkpt lat="37.361331000" lon="-5.957032000">
        <ele>13.8</ele>
        <time>2020-10-11T09:40:18Z</time>
      </trkpt>
      <trkpt lat="37.361231000" lon="-5.956963000">
        <ele>13.9</ele>
        <time>2020-10-11T09:40:20Z</time>
      </trkpt>
      <trkpt lat="37.361132000" lon="-5.956898000">
        <ele>13.8</ele>
        <time>2020-10-11T09:40:22Z</time>
      </trkpt>
      <trkpt lat="37.361051000" lon="-5.956802000">
        <ele>13.6</ele>
        <time>2020-10-11T09:40:24Z</time>
      </trkpt>
      <trkpt lat="37.361005000" lon="-5.956679000">
        <ele>13.5</ele>
        <time>2020-10-11T09:40:26Z</time>
      </trkpt>
      <trkpt lat="37.360987000" lon="-5.956532000">
        <ele>13.1</ele>
        <time>2020-10-11T09:40:28Z</time>
      </trkpt>
      <trkpt lat="37.360998000" lon="-5.956387000">
        <ele>12.7</ele>
        <time>2020-10-11T09:40:30Z</time>
      </trkpt>
      <trkpt lat="37.361021000" lon="-5.956244000">
        <ele>12.3</ele>
        <time>2020-10-11T09:40:32Z</time>
      </trkpt>
      <trkpt lat="37.361042000" lon="-5.956095000">
        <ele>11.9</ele>
        <time>2020-10-11T09:40:34Z</time>
      </trkpt>
      <trkpt lat="37.361065000" lon="-5.955946000">
        <ele>11.6</ele>
        <time>2020-10-11T09:40:36Z</time>
      </trkpt>
      <trkpt lat="37.361082000" lon="-5.955801000">
        <ele>11.5</ele>
        <time>2020-10-11T09:40:38Z</time>
      </trkpt>
      <trkpt lat="37.361102000" lon="-5.955654000">
        <ele>11.5</ele>
        <time>2020-10-11T09:40:40Z</time>
      </trkpt>
      <trkpt lat="37.361124000" lon="-5.955514000">
        <ele>11.5</ele>
        <time>2020-10-11T09:40:42Z</time>
      </trkpt>
      <trkpt lat="37.361143000" lon="-5.955375000">
        <ele>11.5</ele>
        <time>2020-10-11T09:40:44Z</time>
      </trkpt>
      <trkpt lat="37.361169000" lon="-5.955241000">
        <ele>11.6</ele>
        <time>2020-10-11T09:40:46Z</time>
      </trkpt>
      <trkpt lat="37.361188000" lon="-5.955108000">
        <ele>11.6</ele>
        <time>2020-10-11T09:40:48Z</time>
      </trkpt>
      <trkpt lat="37.361208000" lon="-5.954974000">
        <ele>11.7</ele>
        <time>2020-10-11T09:40:50Z</time>
      </trkpt>
      <trkpt lat="37.361232000" lon="-5.954849000">
        <ele>11.7</ele>
        <time>2020-10-11T09:40:52Z</time>
      </trkpt>
      <trkpt lat="37.361250000" lon="-5.954722000">
        <ele>11.8</ele>
        <time>2020-10-11T09:40:54Z</time>
      </trkpt>
      <trkpt lat="37.361243000" lon="-5.954586000">
        <ele>11.9</ele>
        <time>2020-10-11T09:40:56Z</time>
      </trkpt>
      <trkpt lat="37.361234000" lon="-5.954458000">
        <ele>11.9</ele>
        <time>2020-10-11T09:40:58Z</time>
      </trkpt>
      <trkpt lat="37.361217000" lon="-5.954333000">
        <ele>11.8</ele>
        <time>2020-10-11T09:41:00Z</time>
      </trkpt>
      <trkpt lat="37.361198000" lon="-5.954209000">
        <ele>11.7</ele>
        <time>2020-10-11T09:41:02Z</time>
      </trkpt>
      <trkpt lat="37.361180000" lon="-5.954096000">
        <ele>11.5</ele>
        <time>2020-10-11T09:41:04Z</time>
      </trkpt>
      <trkpt lat="37.361159000" lon="-5.953953000">
        <ele>11.3</ele>
        <time>2020-10-11T09:41:07Z</time>
      </trkpt>
      <trkpt lat="37.361141000" lon="-5.953836000">
        <ele>11.0</ele>
        <time>2020-10-11T09:41:10Z</time>
      </trkpt>
      <trkpt lat="37.361131000" lon="-5.953729000">
        <ele>10.8</ele>
        <time>2020-10-11T09:41:13Z</time>
      </trkpt>
      <trkpt lat="37.361126000" lon="-5.953627000">
        <ele>10.7</ele>
        <time>2020-10-11T09:41:16Z</time>
      </trkpt>
      <trkpt lat="37.361126000" lon="-5.953523000">
        <ele>10.7</ele>
        <time>2020-10-11T09:41:19Z</time>
      </trkpt>
      <trkpt lat="37.361161000" lon="-5.953430000">
        <ele>10.8</ele>
        <time>2020-10-11T09:41:22Z</time>
      </trkpt>
      <trkpt lat="37.361193000" lon="-5.953330000">
        <ele>11.0</ele>
        <time>2020-10-11T09:41:25Z</time>
      </trkpt>
      <trkpt lat="37.361112000" lon="-5.953243000">
        <ele>11.3</ele>
        <time>2020-10-11T09:41:29Z</time>
      </trkpt>
      <trkpt lat="37.361050000" lon="-5.953167000">
        <ele>11.6</ele>
        <time>2020-10-11T09:41:32Z</time>
      </trkpt>
      <trkpt lat="37.360988000" lon="-5.953098000">
        <ele>12.1</ele>
        <time>2020-10-11T09:41:35Z</time>
      </trkpt>
      <trkpt lat="37.360911000" lon="-5.953008000">
        <ele>12.5</ele>
        <time>2020-10-11T09:41:39Z</time>
      </trkpt>
      <trkpt lat="37.360843000" lon="-5.952934000">
        <ele>13.2</ele>
        <time>2020-10-11T09:41:42Z</time>
      </trkpt>
      <trkpt lat="37.360772000" lon="-5.952858000">
        <ele>13.9</ele>
        <time>2020-10-11T09:41:45Z</time>
      </trkpt>
      <trkpt lat="37.360687000" lon="-5.952784000">
        <ele>14.7</ele>
        <time>2020-10-11T09:41:48Z</time>
      </trkpt>
      <trkpt lat="37.360605000" lon="-5.952777000">
        <ele>15.5</ele>
        <time>2020-10-11T09:41:50Z</time>
      </trkpt>
      <trkpt lat="37.360499000" lon="-5.952775000">
        <ele>16.1</ele>
        <time>2020-10-11T09:41:52Z</time>
      </trkpt>
      <trkpt lat="37.360382000" lon="-5.952762000">
        <ele>16.5</ele>
        <time>2020-10-11T09:41:54Z</time>
      </trkpt>
      <trkpt lat="37.360256000" lon="-5.952744000">
        <ele>16.8</ele>
        <time>2020-10-11T09:41:56Z</time>
      </trkpt>
      <trkpt lat="37.360139000" lon="-5.952723000">
        <ele>16.9</ele>
        <time>2020-10-11T09:41:58Z</time>
      </trkpt>
      <trkpt lat="37.360035000" lon="-5.952716000">
        <ele>16.8</ele>
        <time>2020-10-11T09:42:00Z</time>
      </trkpt>
      <trkpt lat="37.359939000" lon="-5.952715000">
        <ele>16.5</ele>
        <time>2020-10-11T09:42:02Z</time>
      </trkpt>
      <trkpt lat="37.359857000" lon="-5.952722000">
        <ele>16.3</ele>
        <time>2020-10-11T09:42:04Z</time>
      </trkpt>
      <trkpt lat="37.359763000" lon="-5.952737000">
        <ele>16.0</ele>
        <time>2020-10-11T09:42:31Z</time>
      </trkpt>
      <trkpt lat="37.359666000" lon="-5.952776000">
        <ele>15.7</ele>
        <time>2020-10-11T09:42:35Z</time>
      </trkpt>
      <trkpt lat="37.359564000" lon="-5.952830000">
        <ele>15.5</ele>
        <time>2020-10-11T09:42:38Z</time>
      </trkpt>
      <trkpt lat="37.359481000" lon="-5.952895000">
        <ele>15.2</ele>
        <time>2020-10-11T09:42:40Z</time>
      </trkpt>
      <trkpt lat="37.359386000" lon="-5.952984000">
        <ele>15.0</ele>
        <time>2020-10-11T09:42:42Z</time>
      </trkpt>
      <trkpt lat="37.359281000" lon="-5.953099000">
        <ele>14.8</ele>
        <time>2020-10-11T09:42:44Z</time>
      </trkpt>
      <trkpt lat="37.359184000" lon="-5.953206000">
        <ele>14.7</ele>
        <time>2020-10-11T09:42:46Z</time>
      </trkpt>
      <trkpt lat="37.359094000" lon="-5.953304000">
        <ele>14.6</ele>
        <time>2020-10-11T09:42:48Z</time>
      </trkpt>
      <trkpt lat="37.358994000" lon="-5.953399000">
        <ele>14.5</ele>
        <time>2020-10-11T09:42:50Z</time>
      </trkpt>
      <trkpt lat="37.358889000" lon="-5.953477000">
        <ele>14.5</ele>
        <time>2020-10-11T09:42:52Z</time>
      </trkpt>
      <trkpt lat="37.358796000" lon="-5.953533000">
        <ele>14.5</ele>
        <time>2020-10-11T09:42:54Z</time>
      </trkpt>
      <trkpt lat="37.358703000" lon="-5.953541000">
        <ele>14.2</ele>
        <time>2020-10-11T09:42:56Z</time>
      </trkpt>
      <trkpt lat="37.358612000" lon="-5.953503000">
        <ele>13.7</ele>
        <time>2020-10-11T09:42:58Z</time>
      </trkpt>
      <trkpt lat="37.358546000" lon="-5.953443000">
        <ele>13.2</ele>
        <time>2020-10-11T09:43:00Z</time>
      </trkpt>
      <trkpt lat="37.358480000" lon="-5.953365000">
        <ele>12.6</ele>
        <time>2020-10-11T09:43:02Z</time>
      </trkpt>
      <trkpt lat="37.358417000" lon="-5.953275000">
        <ele>12.0</ele>
        <time>2020-10-11T09:43:04Z</time>
      </trkpt>
      <trkpt lat="37.358346000" lon="-5.953188000">
        <ele>11.5</ele>
        <time>2020-10-11T09:43:06Z</time>
      </trkpt>
      <trkpt lat="37.358281000" lon="-5.953099000">
        <ele>10.9</ele>
        <time>2020-10-11T09:43:08Z</time>
      </trkpt>
      <trkpt lat="37.358214000" lon="-5.953009000">
        <ele>10.5</ele>
        <time>2020-10-11T09:43:10Z</time>
      </trkpt>
      <trkpt lat="37.358145000" lon="-5.952923000">
        <ele>10.2</ele>
        <time>2020-10-11T09:43:12Z</time>
      </trkpt>
      <trkpt lat="37.358082000" lon="-5.952822000">
        <ele>9.9</ele>
        <time>2020-10-11T09:43:14Z</time>
      </trkpt>
      <trkpt lat="37.358051000" lon="-5.952705000">
        <ele>9.7</ele>
        <time>2020-10-11T09:43:16Z</time>
      </trkpt>
      <trkpt lat="37.358042000" lon="-5.952570000">
        <ele>9.5</ele>
        <time>2020-10-11T09:43:18Z</time>
      </trkpt>
      <trkpt lat="37.358048000" lon="-5.952425000">
        <ele>9.4</ele>
        <time>2020-10-11T09:43:20Z</time>
      </trkpt>
      <trkpt lat="37.358056000" lon="-5.952274000">
        <ele>9.1</ele>
        <time>2020-10-11T09:43:22Z</time>
      </trkpt>
      <trkpt lat="37.358068000" lon="-5.952121000">
        <ele>8.7</ele>
        <time>2020-10-11T09:43:24Z</time>
      </trkpt>
      <trkpt lat="37.358086000" lon="-5.951974000">
        <ele>8.5</ele>
        <time>2020-10-11T09:43:26Z</time>
      </trkpt>
      <trkpt lat="37.358112000" lon="-5.951832000">
        <ele>8.4</ele>
        <time>2020-10-11T09:43:28Z</time>
      </trkpt>
      <trkpt lat="37.358132000" lon="-5.951688000">
        <ele>8.3</ele>
        <time>2020-10-11T09:43:30Z</time>
      </trkpt>
      <trkpt lat="37.358164000" lon="-5.951555000">
        <ele>8.3</ele>
        <time>2020-10-11T09:43:32Z</time>
      </trkpt>
      <trkpt lat="37.358194000" lon="-5.951428000">
        <ele>8.2</ele>
        <time>2020-10-11T09:43:34Z</time>
      </trkpt>
      <trkpt lat="37.358227000" lon="-5.951306000">
        <ele>8.1</ele>
        <time>2020-10-11T09:43:36Z</time>
      </trkpt>
      <trkpt lat="37.358254000" lon="-5.951177000">
        <ele>8.0</ele>
        <time>2020-10-11T09:43:38Z</time>
      </trkpt>
      <trkpt lat="37.358289000" lon="-5.951057000">
        <ele>7.9</ele>
        <time>2020-10-11T09:43:40Z</time>
      </trkpt>
      <trkpt lat="37.358330000" lon="-5.950939000">
        <ele>7.8</ele>
        <time>2020-10-11T09:43:42Z</time>
      </trkpt>
      <trkpt lat="37.358367000" lon="-5.950822000">
        <ele>7.7</ele>
        <time>2020-10-11T09:43:44Z</time>
      </trkpt>
      <trkpt lat="37.358419000" lon="-5.950705000">
        <ele>7.8</ele>
        <time>2020-10-11T09:43:46Z</time>
      </trkpt>
      <trkpt lat="37.358470000" lon="-5.950590000">
        <ele>7.8</ele>
        <time>2020-10-11T09:43:48Z</time>
      </trkpt>
      <trkpt lat="37.358525000" lon="-5.950474000">
        <ele>7.8</ele>
        <time>2020-10-11T09:43:50Z</time>
      </trkpt>
      <trkpt lat="37.358581000" lon="-5.950356000">
        <ele>7.8</ele>
        <time>2020-10-11T09:43:52Z</time>
      </trkpt>
      <trkpt lat="37.358624000" lon="-5.950228000">
        <ele>7.8</ele>
        <time>2020-10-11T09:43:54Z</time>
      </trkpt>
      <trkpt lat="37.358646000" lon="-5.950087000">
        <ele>7.9</ele>
        <time>2020-10-11T09:43:56Z</time>
      </trkpt>
      <trkpt lat="37.358626000" lon="-5.949943000">
        <ele>8.2</ele>
        <time>2020-10-11T09:43:58Z</time>
      </trkpt>
      <trkpt lat="37.358599000" lon="-5.949800000">
        <ele>8.5</ele>
        <time>2020-10-11T09:44:00Z</time>
      </trkpt>
      <trkpt lat="37.358564000" lon="-5.949652000">
        <ele>8.9</ele>
        <time>2020-10-11T09:44:02Z</time>
      </trkpt>
      <trkpt lat="37.358517000" lon="-5.949498000">
        <ele>9.5</ele>
        <time>2020-10-11T09:44:04Z</time>
      </trkpt>
      <trkpt lat="37.358463000" lon="-5.949349000">
        <ele>10.2</ele>
        <time>2020-10-11T09:44:06Z</time>
      </trkpt>
      <trkpt lat="37.358397000" lon="-5.949209000">
        <ele>10.8</ele>
        <time>2020-10-11T09:44:08Z</time>
      </trkpt>
      <trkpt lat="37.358322000" lon="-5.949076000">
        <ele>11.5</ele>
        <time>2020-10-11T09:44:10Z</time>
      </trkpt>
      <trkpt lat="37.358231000" lon="-5.948950000">
        <ele>11.9</ele>
        <time>2020-10-11T09:44:12Z</time>
      </trkpt>
      <trkpt lat="37.358139000" lon="-5.948820000">
        <ele>12.3</ele>
        <time>2020-10-11T09:44:14Z</time>
      </trkpt>
      <trkpt lat="37.358046000" lon="-5.948699000">
        <ele>12.5</ele>
        <time>2020-10-11T09:44:16Z</time>
      </trkpt>
      <trkpt lat="37.357959000" lon="-5.948578000">
        <ele>12.7</ele>
        <time>2020-10-11T09:44:18Z</time>
      </trkpt>
      <trkpt lat="37.357870000" lon="-5.948454000">
        <ele>12.7</ele>
        <time>2020-10-11T09:44:20Z</time>
      </trkpt>
      <trkpt lat="37.357779000" lon="-5.948333000">
        <ele>12.7</ele>
        <time>2020-10-11T09:44:22Z</time>
      </trkpt>
      <trkpt lat="37.357691000" lon="-5.948207000">
        <ele>12.5</ele>
        <time>2020-10-11T09:44:24Z</time>
      </trkpt>
      <trkpt lat="37.357603000" lon="-5.948080000">
        <ele>12.0</ele>
        <time>2020-10-11T09:44:26Z</time>
      </trkpt>
      <trkpt lat="37.357519000" lon="-5.947972000">
        <ele>11.5</ele>
        <time>2020-10-11T09:44:28Z</time>
      </trkpt>
      <trkpt lat="37.357431000" lon="-5.947858000">
        <ele>11.1</ele>
        <time>2020-10-11T09:44:30Z</time>
      </trkpt>
      <trkpt lat="37.357349000" lon="-5.947739000">
        <ele>10.7</ele>
        <time>2020-10-11T09:44:32Z</time>
      </trkpt>
      <trkpt lat="37.357263000" lon="-5.947642000">
        <ele>10.6</ele>
        <time>2020-10-11T09:44:34Z</time>
      </trkpt>
      <trkpt lat="37.357183000" lon="-5.947532000">
        <ele>10.6</ele>
        <time>2020-10-11T09:44:36Z</time>
      </trkpt>
      <trkpt lat="37.357105000" lon="-5.947424000">
        <ele>10.6</ele>
        <time>2020-10-11T09:44:38Z</time>
      </trkpt>
      <trkpt lat="37.357031000" lon="-5.947325000">
        <ele>10.6</ele>
        <time>2020-10-11T09:44:40Z</time>
      </trkpt>
      <trkpt lat="37.356958000" lon="-5.947227000">
        <ele>10.6</ele>
        <time>2020-10-11T09:44:42Z</time>
      </trkpt>
      <trkpt lat="37.356887000" lon="-5.947131000">
        <ele>10.7</ele>
        <time>2020-10-11T09:44:44Z</time>
      </trkpt>
      <trkpt lat="37.356815000" lon="-5.947037000">
        <ele>10.9</ele>
        <time>2020-10-11T09:44:46Z</time>
      </trkpt>
      <trkpt lat="37.356746000" lon="-5.946944000">
        <ele>11.3</ele>
        <time>2020-10-11T09:44:48Z</time>
      </trkpt>
      <trkpt lat="37.356678000" lon="-5.946853000">
        <ele>11.5</ele>
        <time>2020-10-11T09:44:50Z</time>
      </trkpt>
      <trkpt lat="37.356612000" lon="-5.946763000">
        <ele>11.7</ele>
        <time>2020-10-11T09:44:52Z</time>
      </trkpt>
      <trkpt lat="37.356548000" lon="-5.946676000">
        <ele>11.8</ele>
        <time>2020-10-11T09:44:54Z</time>
      </trkpt>
      <trkpt lat="37.356479000" lon="-5.946586000">
        <ele>11.7</ele>
        <time>2020-10-11T09:44:56Z</time>
      </trkpt>
      <trkpt lat="37.356415000" lon="-5.946497000">
        <ele>11.5</ele>
        <time>2020-10-11T09:44:58Z</time>
      </trkpt>
      <trkpt lat="37.356345000" lon="-5.946402000">
        <ele>11.4</ele>
        <time>2020-10-11T09:45:00Z</time>
      </trkpt>
      <trkpt lat="37.356278000" lon="-5.946317000">
        <ele>11.2</ele>
        <time>2020-10-11T09:45:02Z</time>
      </trkpt>
      <trkpt lat="37.356205000" lon="-5.946220000">
        <ele>11.0</ele>
        <time>2020-10-11T09:45:04Z</time>
      </trkpt>
      <trkpt lat="37.356130000" lon="-5.946136000">
        <ele>10.8</ele>
        <time>2020-10-11T09:45:06Z</time>
      </trkpt>
      <trkpt lat="37.356058000" lon="-5.946050000">
        <ele>10.7</ele>
        <time>2020-10-11T09:45:08Z</time>
      </trkpt>
      <trkpt lat="37.355977000" lon="-5.945964000">
        <ele>10.7</ele>
        <time>2020-10-11T09:45:10Z</time>
      </trkpt>
      <trkpt lat="37.355893000" lon="-5.945884000">
        <ele>10.7</ele>
        <time>2020-10-11T09:45:12Z</time>
      </trkpt>
      <trkpt lat="37.355812000" lon="-5.945801000">
        <ele>10.9</ele>
        <time>2020-10-11T09:45:14Z</time>
      </trkpt>
      <trkpt lat="37.355741000" lon="-5.945714000">
        <ele>11.1</ele>
        <time>2020-10-11T09:45:16Z</time>
      </trkpt>
      <trkpt lat="37.355670000" lon="-5.945621000">
        <ele>11.4</ele>
        <time>2020-10-11T09:45:18Z</time>
      </trkpt>
      <trkpt lat="37.355600000" lon="-5.945530000">
        <ele>11.5</ele>
        <time>2020-10-11T09:45:20Z</time>
      </trkpt>
      <trkpt lat="37.355536000" lon="-5.945430000">
        <ele>11.6</ele>
        <time>2020-10-11T09:45:22Z</time>
      </trkpt>
      <trkpt lat="37.355471000" lon="-5.945321000">
        <ele>11.6</ele>
        <time>2020-10-11T09:45:24Z</time>
      </trkpt>
      <trkpt lat="37.355409000" lon="-5.945209000">
        <ele>11.5</ele>
        <time>2020-10-11T09:45:26Z</time>
      </trkpt>
      <trkpt lat="37.355361000" lon="-5.945099000">
        <ele>11.2</ele>
        <time>2020-10-11T09:45:28Z</time>
      </trkpt>
      <trkpt lat="37.355335000" lon="-5.944976000">
        <ele>10.7</ele>
        <time>2020-10-11T09:45:30Z</time>
      </trkpt>
      <trkpt lat="37.355371000" lon="-5.944861000">
        <ele>10.2</ele>
        <time>2020-10-11T09:45:32Z</time>
      </trkpt>
      <trkpt lat="37.355426000" lon="-5.944757000">
        <ele>9.6</ele>
        <time>2020-10-11T09:45:34Z</time>
      </trkpt>
      <trkpt lat="37.355482000" lon="-5.944662000">
        <ele>9.0</ele>
        <time>2020-10-11T09:45:36Z</time>
      </trkpt>
      <trkpt lat="37.355535000" lon="-5.944557000">
        <ele>8.4</ele>
        <time>2020-10-11T09:45:38Z</time>
      </trkpt>
      <trkpt lat="37.355588000" lon="-5.944457000">
        <ele>7.7</ele>
        <time>2020-10-11T09:45:40Z</time>
      </trkpt>
      <trkpt lat="37.355647000" lon="-5.944361000">
        <ele>7.3</ele>
        <time>2020-10-11T09:45:42Z</time>
      </trkpt>
      <trkpt lat="37.355698000" lon="-5.944256000">
        <ele>7.0</ele>
        <time>2020-10-11T09:45:44Z</time>
      </trkpt>
      <trkpt lat="37.355749000" lon="-5.944149000">
        <ele>6.6</ele>
        <time>2020-10-11T09:45:46Z</time>
      </trkpt>
      <trkpt lat="37.355805000" lon="-5.944040000">
        <ele>6.2</ele>
        <time>2020-10-11T09:45:48Z</time>
      </trkpt>
      <trkpt lat="37.355868000" lon="-5.943938000">
        <ele>5.9</ele>
        <time>2020-10-11T09:45:50Z</time>
      </trkpt>
      <trkpt lat="37.355930000" lon="-5.943818000">
        <ele>5.9</ele>
        <time>2020-10-11T09:45:53Z</time>
      </trkpt>
      <trkpt lat="37.355981000" lon="-5.943738000">
        <ele>6.0</ele>
        <time>2020-10-11T09:46:04Z</time>
      </trkpt>
      <trkpt lat="37.355858000" lon="-5.943945000">
        <ele>6.3</ele>
        <time>2020-10-11T09:46:21Z</time>
      </trkpt>
      <trkpt lat="37.355689000" lon="-5.943877000">
        <ele>6.6</ele>
        <time>2020-10-11T09:46:27Z</time>
      </trkpt>
      <trkpt lat="37.355526000" lon="-5.943825000">
        <ele>7.1</ele>
        <time>2020-10-11T09:46:31Z</time>
      </trkpt>
      <trkpt lat="37.355436000" lon="-5.943788000">
        <ele>7.6</ele>
        <time>2020-10-11T09:46:33Z</time>
      </trkpt>
      <trkpt lat="37.355338000" lon="-5.943761000">
        <ele>8.1</ele>
        <time>2020-10-11T09:46:35Z</time>
      </trkpt>
      <trkpt lat="37.355244000" lon="-5.943730000">
        <ele>8.5</ele>
        <time>2020-10-11T09:46:37Z</time>
      </trkpt>
      <trkpt lat="37.355154000" lon="-5.943693000">
        <ele>9.0</ele>
        <time>2020-10-11T09:46:39Z</time>
      </trkpt>
      <trkpt lat="37.355067000" lon="-5.943660000">
        <ele>9.7</ele>
        <time>2020-10-11T09:46:41Z</time>
      </trkpt>
      <trkpt lat="37.354987000" lon="-5.943638000">
        <ele>10.5</ele>
        <time>2020-10-11T09:46:43Z</time>
      </trkpt>
      <trkpt lat="37.354893000" lon="-5.943609000">
        <ele>11.2</ele>
        <time>2020-10-11T09:46:45Z</time>
      </trkpt>
      <trkpt lat="37.354799000" lon="-5.943574000">
        <ele>11.7</ele>
        <time>2020-10-11T09:46:47Z</time>
      </trkpt>
      <trkpt lat="37.354707000" lon="-5.943545000">
        <ele>12.1</ele>
        <time>2020-10-11T09:46:49Z</time>
      </trkpt>
      <trkpt lat="37.354617000" lon="-5.943508000">
        <ele>12.4</ele>
        <time>2020-10-11T09:46:51Z</time>
      </trkpt>
      <trkpt lat="37.354548000" lon="-5.943432000">
        <ele>12.6</ele>
        <time>2020-10-11T09:46:53Z</time>
      </trkpt>
      <trkpt lat="37.354511000" lon="-5.943325000">
        <ele>12.8</ele>
        <time>2020-10-11T09:46:55Z</time>
      </trkpt>
      <trkpt lat="37.354493000" lon="-5.943217000">
        <ele>13.3</ele>
        <time>2020-10-11T09:46:57Z</time>
      </trkpt>
      <trkpt lat="37.354477000" lon="-5.943110000">
        <ele>13.9</ele>
        <time>2020-10-11T09:46:59Z</time>
      </trkpt>
      <trkpt lat="37.354461000" lon="-5.943008000">
        <ele>14.8</ele>
        <time>2020-10-11T09:47:01Z</time>
      </trkpt>
      <trkpt lat="37.354450000" lon="-5.942907000">
        <ele>15.9</ele>
        <time>2020-10-11T09:47:03Z</time>
      </trkpt>
      <trkpt lat="37.354454000" lon="-5.942761000">
        <ele>17.0</ele>
        <time>2020-10-11T09:47:06Z</time>
      </trkpt>
      <trkpt lat="37.354477000" lon="-5.942624000">
        <ele>18.2</ele>
        <time>2020-10-11T09:47:09Z</time>
      </trkpt>
      <trkpt lat="37.354504000" lon="-5.942493000">
        <ele>19.4</ele>
        <time>2020-10-11T09:47:12Z</time>
      </trkpt>
      <trkpt lat="37.354494000" lon="-5.942355000">
        <ele>20.5</ele>
        <time>2020-10-11T09:47:15Z</time>
      </trkpt>
      <trkpt lat="37.354450000" lon="-5.942221000">
        <ele>21.6</ele>
        <time>2020-10-11T09:47:18Z</time>
      </trkpt>
      <trkpt lat="37.354445000" lon="-5.942081000">
        <ele>22.5</ele>
        <time>2020-10-11T09:47:21Z</time>
      </trkpt>
      <trkpt lat="37.354467000" lon="-5.941939000">
        <ele>23.5</ele>
        <time>2020-10-11T09:47:24Z</time>
      </trkpt>
      <trkpt lat="37.354466000" lon="-5.941787000">
        <ele>24.0</ele>
        <time>2020-10-11T09:47:27Z</time>
      </trkpt>
      <trkpt lat="37.354444000" lon="-5.941689000">
        <ele>24.4</ele>
        <time>2020-10-11T09:47:29Z</time>
      </trkpt>
      <trkpt lat="37.354406000" lon="-5.941594000">
        <ele>24.5</ele>
        <time>2020-10-11T09:47:31Z</time>
      </trkpt>
      <trkpt lat="37.354361000" lon="-5.941470000">
        <ele>24.3</ele>
        <time>2020-10-11T09:47:34Z</time>
      </trkpt>
      <trkpt lat="37.354339000" lon="-5.941338000">
        <ele>24.1</ele>
        <time>2020-10-11T09:47:37Z</time>
      </trkpt>
      <trkpt lat="37.354367000" lon="-5.941201000">
        <ele>23.8</ele>
        <time>2020-10-11T09:47:40Z</time>
      </trkpt>
      <trkpt lat="37.354389000" lon="-5.941098000">
        <ele>23.5</ele>
        <time>2020-10-11T09:47:42Z</time>
      </trkpt>
      <trkpt lat="37.354388000" lon="-5.940974000">
        <ele>23.3</ele>
        <time>2020-10-11T09:47:44Z</time>
      </trkpt>
      <trkpt lat="37.354408000" lon="-5.940854000">
        <ele>23.1</ele>
        <time>2020-10-11T09:47:46Z</time>
      </trkpt>
      <trkpt lat="37.354430000" lon="-5.940734000">
        <ele>23.0</ele>
        <time>2020-10-11T09:47:48Z</time>
      </trkpt>
      <trkpt lat="37.354457000" lon="-5.940622000">
        <ele>22.8</ele>
        <time>2020-10-11T09:47:50Z</time>
      </trkpt>
      <trkpt lat="37.354495000" lon="-5.940515000">
        <ele>22.7</ele>
        <time>2020-10-11T09:47:52Z</time>
      </trkpt>
      <trkpt lat="37.354547000" lon="-5.940417000">
        <ele>22.6</ele>
        <time>2020-10-11T09:47:54Z</time>
      </trkpt>
      <trkpt lat="37.354589000" lon="-5.940308000">
        <ele>22.5</ele>
        <time>2020-10-11T09:47:56Z</time>
      </trkpt>
      <trkpt lat="37.354611000" lon="-5.940179000">
        <ele>22.5</ele>
        <time>2020-10-11T09:47:58Z</time>
      </trkpt>
      <trkpt lat="37.354642000" lon="-5.940050000">
        <ele>22.5</ele>
        <time>2020-10-11T09:48:00Z</time>
      </trkpt>
      <trkpt lat="37.354667000" lon="-5.939918000">
        <ele>22.3</ele>
        <time>2020-10-11T09:48:02Z</time>
      </trkpt>
      <trkpt lat="37.354700000" lon="-5.939791000">
        <ele>22.1</ele>
        <time>2020-10-11T09:48:04Z</time>
      </trkpt>
      <trkpt lat="37.354726000" lon="-5.939672000">
        <ele>21.8</ele>
        <time>2020-10-11T09:48:06Z</time>
      </trkpt>
      <trkpt lat="37.354748000" lon="-5.939570000">
        <ele>21.5</ele>
        <time>2020-10-11T09:48:08Z</time>
      </trkpt>
      <trkpt lat="37.354707000" lon="-5.939461000">
        <ele>21.3</ele>
        <time>2020-10-11T09:48:11Z</time>
      </trkpt>
      <trkpt lat="37.354622000" lon="-5.939383000">
        <ele>21.1</ele>
        <time>2020-10-11T09:48:14Z</time>
      </trkpt>
      <trkpt lat="37.354541000" lon="-5.939318000">
        <ele>20.9</ele>
        <time>2020-10-11T09:48:17Z</time>
      </trkpt>
      <trkpt lat="37.354457000" lon="-5.939250000">
        <ele>20.7</ele>
        <time>2020-10-11T09:48:20Z</time>
      </trkpt>
      <trkpt lat="37.354414000" lon="-5.939149000">
        <ele>20.5</ele>
        <time>2020-10-11T09:48:23Z</time>
      </trkpt>
      <trkpt lat="37.354314000" lon="-5.939112000">
        <ele>20.4</ele>
        <time>2020-10-11T09:48:26Z</time>
      </trkpt>
      <trkpt lat="37.354210000" lon="-5.939144000">
        <ele>20.2</ele>
        <time>2020-10-11T09:48:29Z</time>
      </trkpt>
      <trkpt lat="37.354122000" lon="-5.939236000">
        <ele>20.1</ele>
        <time>2020-10-11T09:48:32Z</time>
      </trkpt>
      <trkpt lat="37.354054000" lon="-5.939355000">
        <ele>19.9</ele>
        <time>2020-10-11T09:48:35Z</time>
      </trkpt>
      <trkpt lat="37.353983000" lon="-5.939457000">
        <ele>19.8</ele>
        <time>2020-10-11T09:48:38Z</time>
      </trkpt>
      <trkpt lat="37.353909000" lon="-5.939546000">
        <ele>19.7</ele>
        <time>2020-10-11T09:48:41Z</time>
      </trkpt>
      <trkpt lat="37.353817000" lon="-5.939607000">
        <ele>19.6</ele>
        <time>2020-10-11T09:48:44Z</time>
      </trkpt>
      <trkpt lat="37.353721000" lon="-5.939646000">
        <ele>19.6</ele>
        <time>2020-10-11T09:48:47Z</time>
      </trkpt>
      <trkpt lat="37.353625000" lon="-5.939658000">
        <ele>19.6</ele>
        <time>2020-10-11T09:48:50Z</time>
      </trkpt>
      <trkpt lat="37.353533000" lon="-5.939661000">
        <ele>19.6</ele>
        <time>2020-10-11T09:48:53Z</time>
      </trkpt>
      <trkpt lat="37.353421000" lon="-5.939653000">
        <ele>19.6</ele>
        <time>2020-10-11T09:48:56Z</time>
      </trkpt>
      <trkpt lat="37.353303000" lon="-5.939619000">
        <ele>19.7</ele>
        <time>2020-10-11T09:48:59Z</time>
      </trkpt>
      <trkpt lat="37.353227000" lon="-5.939574000">
        <ele>19.8</ele>
        <time>2020-10-11T09:49:01Z</time>
      </trkpt>
      <trkpt lat="37.353152000" lon="-5.939519000">
        <ele>20.0</ele>
        <time>2020-10-11T09:49:03Z</time>
      </trkpt>
      <trkpt lat="37.353072000" lon="-5.939464000">
        <ele>20.4</ele>
        <time>2020-10-11T09:49:05Z</time>
      </trkpt>
      <trkpt lat="37.352996000" lon="-5.939396000">
        <ele>20.7</ele>
        <time>2020-10-11T09:49:07Z</time>
      </trkpt>
      <trkpt lat="37.352921000" lon="-5.939321000">
        <ele>21.2</ele>
        <time>2020-10-11T09:49:09Z</time>
      </trkpt>
      <trkpt lat="37.352840000" lon="-5.939255000">
        <ele>21.5</ele>
        <time>2020-10-11T09:49:11Z</time>
      </trkpt>
      <trkpt lat="37.352761000" lon="-5.939208000">
        <ele>21.8</ele>
        <time>2020-10-11T09:49:13Z</time>
      </trkpt>
      <trkpt lat="37.352674000" lon="-5.939180000">
        <ele>22.1</ele>
        <time>2020-10-11T09:49:15Z</time>
      </trkpt>
      <trkpt lat="37.352583000" lon="-5.939186000">
        <ele>22.4</ele>
        <time>2020-10-11T09:49:17Z</time>
      </trkpt>
      <trkpt lat="37.352494000" lon="-5.939203000">
        <ele>22.5</ele>
        <time>2020-10-11T09:49:19Z</time>
      </trkpt>
      <trkpt lat="37.352405000" lon="-5.939203000">
        <ele>22.5</ele>
        <time>2020-10-11T09:49:21Z</time>
      </trkpt>
      <trkpt lat="37.352318000" lon="-5.939185000">
        <ele>22.5</ele>
        <time>2020-10-11T09:49:23Z</time>
      </trkpt>
      <trkpt lat="37.352235000" lon="-5.939083000">
        <ele>22.4</ele>
        <time>2020-10-11T09:49:26Z</time>
      </trkpt>
      <trkpt lat="37.352189000" lon="-5.938995000">
        <ele>22.1</ele>
        <time>2020-10-11T09:49:28Z</time>
      </trkpt>
      <trkpt lat="37.352142000" lon="-5.938905000">
        <ele>21.7</ele>
        <time>2020-10-11T09:49:30Z</time>
      </trkpt>
      <trkpt lat="37.352085000" lon="-5.938824000">
        <ele>21.3</ele>
        <time>2020-10-11T09:49:32Z</time>
      </trkpt>
      <trkpt lat="37.352028000" lon="-5.938734000">
        <ele>20.9</ele>
        <time>2020-10-11T09:49:34Z</time>
      </trkpt>
      <trkpt lat="37.351965000" lon="-5.938639000">
        <ele>20.5</ele>
        <time>2020-10-11T09:49:36Z</time>
      </trkpt>
      <trkpt lat="37.351912000" lon="-5.938541000">
        <ele>20.0</ele>
        <time>2020-10-11T09:49:38Z</time>
      </trkpt>
      <trkpt lat="37.351853000" lon="-5.938446000">
        <ele>19.5</ele>
        <time>2020-10-11T09:49:40Z</time>
      </trkpt>
      <trkpt lat="37.351793000" lon="-5.938357000">
        <ele>19.0</ele>
        <time>2020-10-11T09:49:42Z</time>
      </trkpt>
      <trkpt lat="37.351736000" lon="-5.938276000">
        <ele>18.5</ele>
        <time>2020-10-11T09:49:44Z</time>
      </trkpt>
      <trkpt lat="37.351683000" lon="-5.938189000">
        <ele>18.1</ele>
        <time>2020-10-11T09:49:46Z</time>
      </trkpt>
      <trkpt lat="37.351630000" lon="-5.938110000">
        <ele>17.8</ele>
        <time>2020-10-11T09:49:48Z</time>
      </trkpt>
      <trkpt lat="37.351560000" lon="-5.938006000">
        <ele>17.5</ele>
        <time>2020-10-11T09:49:51Z</time>
      </trkpt>
      <trkpt lat="37.351489000" lon="-5.937917000">
        <ele>17.4</ele>
        <time>2020-10-11T09:49:54Z</time>
      </trkpt>
      <trkpt lat="37.351413000" lon="-5.937841000">
        <ele>17.3</ele>
        <time>2020-10-11T09:49:57Z</time>
      </trkpt>
      <trkpt lat="37.351333000" lon="-5.937778000">
        <ele>17.2</ele>
        <time>2020-10-11T09:50:00Z</time>
      </trkpt>
      <trkpt lat="37.351253000" lon="-5.937711000">
        <ele>17.1</ele>
        <time>2020-10-11T09:50:03Z</time>
      </trkpt>
      <trkpt lat="37.351172000" lon="-5.937642000">
        <ele>17.1</ele>
        <time>2020-10-11T09:50:06Z</time>
      </trkpt>
      <trkpt lat="37.351085000" lon="-5.937579000">
        <ele>17.2</ele>
        <time>2020-10-11T09:50:09Z</time>
      </trkpt>
      <trkpt lat="37.351005000" lon="-5.937510000">
        <ele>17.3</ele>
        <time>2020-10-11T09:50:12Z</time>
      </trkpt>
      <trkpt lat="37.350925000" lon="-5.937442000">
        <ele>17.5</ele>
        <time>2020-10-11T09:50:15Z</time>
      </trkpt>
      <trkpt lat="37.350845000" lon="-5.937377000">
        <ele>17.8</ele>
        <time>2020-10-11T09:50:18Z</time>
      </trkpt>
      <trkpt lat="37.350762000" lon="-5.937311000">
        <ele>18.1</ele>
        <time>2020-10-11T09:50:21Z</time>
      </trkpt>
      <trkpt lat="37.350688000" lon="-5.937245000">
        <ele>18.4</ele>
        <time>2020-10-11T09:50:24Z</time>
      </trkpt>
      <trkpt lat="37.350617000" lon="-5.937185000">
        <ele>18.6</ele>
        <time>2020-10-11T09:50:27Z</time>
      </trkpt>
      <trkpt lat="37.350534000" lon="-5.937110000">
        <ele>18.7</ele>
        <time>2020-10-11T09:50:31Z</time>
      </trkpt>
      <trkpt lat="37.350458000" lon="-5.937039000">
        <ele>18.8</ele>
        <time>2020-10-11T09:50:35Z</time>
      </trkpt>
      <trkpt lat="37.350370000" lon="-5.936974000">
        <ele>19.0</ele>
        <time>2020-10-11T09:50:39Z</time>
      </trkpt>
      <trkpt lat="37.350292000" lon="-5.936917000">
        <ele>19.2</ele>
        <time>2020-10-11T09:50:42Z</time>
      </trkpt>
      <trkpt lat="37.350193000" lon="-5.936844000">
        <ele>19.4</ele>
        <time>2020-10-11T09:50:45Z</time>
      </trkpt>
      <trkpt lat="37.350120000" lon="-5.936788000">
        <ele>19.5</ele>
        <time>2020-10-11T09:50:47Z</time>
      </trkpt>
      <trkpt lat="37.350044000" lon="-5.936735000">
        <ele>19.6</ele>
        <time>2020-10-11T09:50:49Z</time>
      </trkpt>
      <trkpt lat="37.349958000" lon="-5.936669000">
        <ele>19.7</ele>
        <time>2020-10-11T09:50:51Z</time>
      </trkpt>
      <trkpt lat="37.349872000" lon="-5.936608000">
        <ele>19.7</ele>
        <time>2020-10-11T09:50:53Z</time>
      </trkpt>
      <trkpt lat="37.349794000" lon="-5.936540000">
        <ele>19.8</ele>
        <time>2020-10-11T09:50:55Z</time>
      </trkpt>
      <trkpt lat="37.349713000" lon="-5.936480000">
        <ele>20.0</ele>
        <time>2020-10-11T09:50:57Z</time>
      </trkpt>
      <trkpt lat="37.349641000" lon="-5.936422000">
        <ele>20.3</ele>
        <time>2020-10-11T09:50:59Z</time>
      </trkpt>
      <trkpt lat="37.349549000" lon="-5.936347000">
        <ele>20.6</ele>
        <time>2020-10-11T09:51:02Z</time>
      </trkpt>
      <trkpt lat="37.349440000" lon="-5.936366000">
        <ele>21.1</ele>
        <time>2020-10-11T09:51:05Z</time>
      </trkpt>
      <trkpt lat="37.349331000" lon="-5.936397000">
        <ele>21.5</ele>
        <time>2020-10-11T09:51:08Z</time>
      </trkpt>
      <trkpt lat="37.349233000" lon="-5.936396000">
        <ele>21.8</ele>
        <time>2020-10-11T09:51:11Z</time>
      </trkpt>
      <trkpt lat="37.349156000" lon="-5.936363000">
        <ele>22.1</ele>
        <time>2020-10-11T09:51:14Z</time>
      </trkpt>
      <trkpt lat="37.349090000" lon="-5.936279000">
        <ele>22.3</ele>
        <time>2020-10-11T09:51:17Z</time>
      </trkpt>
      <trkpt lat="37.349077000" lon="-5.936144000">
        <ele>22.4</ele>
        <time>2020-10-11T09:51:20Z</time>
      </trkpt>
      <trkpt lat="37.349123000" lon="-5.936023000">
        <ele>22.5</ele>
        <time>2020-10-11T09:51:23Z</time>
      </trkpt>
      <trkpt lat="37.349191000" lon="-5.935964000">
        <ele>22.4</ele>
        <time>2020-10-11T09:51:25Z</time>
      </trkpt>
      <trkpt lat="37.349276000" lon="-5.935942000">
        <ele>22.2</ele>
        <time>2020-10-11T09:51:27Z</time>
      </trkpt>
      <trkpt lat="37.349382000" lon="-5.935990000">
        <ele>22.0</ele>
        <time>2020-10-11T09:51:30Z</time>
      </trkpt>
      <trkpt lat="37.349443000" lon="-5.936100000">
        <ele>21.7</ele>
        <time>2020-10-11T09:51:33Z</time>
      </trkpt>
      <trkpt lat="37.349468000" lon="-5.936219000">
        <ele>21.4</ele>
        <time>2020-10-11T09:51:36Z</time>
      </trkpt>
      <trkpt lat="37.349499000" lon="-5.936328000">
        <ele>21.0</ele>
        <time>2020-10-11T09:51:39Z</time>
      </trkpt>
      <trkpt lat="37.349573000" lon="-5.936391000">
        <ele>20.6</ele>
        <time>2020-10-11T09:51:42Z</time>
      </trkpt>
      <trkpt lat="37.349648000" lon="-5.936442000">
        <ele>20.4</ele>
        <time>2020-10-11T09:51:46Z</time>
      </trkpt>
      <trkpt lat="37.349738000" lon="-5.936508000">
        <ele>20.2</ele>
        <time>2020-10-11T09:51:50Z</time>
      </trkpt>
      <trkpt lat="37.349820000" lon="-5.936559000">
        <ele>20.1</ele>
        <time>2020-10-11T09:51:54Z</time>
      </trkpt>
      <trkpt lat="37.349756000" lon="-5.936635000">
        <ele>20.1</ele>
        <time>2020-10-11T09:52:01Z</time>
      </trkpt>
      <trkpt lat="37.349670000" lon="-5.936564000">
        <ele>20.2</ele>
        <time>2020-10-11T09:52:04Z</time>
      </trkpt>
      <trkpt lat="37.349601000" lon="-5.936502000">
        <ele>20.3</ele>
        <time>2020-10-11T09:52:06Z</time>
      </trkpt>
      <trkpt lat="37.349537000" lon="-5.936437000">
        <ele>20.5</ele>
        <time>2020-10-11T09:52:08Z</time>
      </trkpt>
      <trkpt lat="37.349533000" lon="-5.936323000">
        <ele>20.5</ele>
        <time>2020-10-11T09:52:11Z</time>
      </trkpt>
      <trkpt lat="37.349487000" lon="-5.936211000">
        <ele>20.6</ele>
        <time>2020-10-11T09:52:14Z</time>
      </trkpt>
      <trkpt lat="37.349478000" lon="-5.936109000">
        <ele>20.7</ele>
        <time>2020-10-11T09:52:16Z</time>
      </trkpt>
      <trkpt lat="37.349489000" lon="-5.936003000">
        <ele>20.8</ele>
        <time>2020-10-11T09:52:18Z</time>
      </trkpt>
      <trkpt lat="37.349497000" lon="-5.935874000">
        <ele>20.8</ele>
        <time>2020-10-11T09:52:21Z</time>
      </trkpt>
      <trkpt lat="37.349585000" lon="-5.935854000">
        <ele>20.8</ele>
        <time>2020-10-11T09:52:24Z</time>
      </trkpt>
      <trkpt lat="37.349665000" lon="-5.935964000">
        <ele>20.8</ele>
        <time>2020-10-11T09:52:27Z</time>
      </trkpt>
      <trkpt lat="37.349708000" lon="-5.936065000">
        <ele>20.7</ele>
        <time>2020-10-11T09:52:29Z</time>
      </trkpt>
      <trkpt lat="37.349745000" lon="-5.936186000">
        <ele>20.6</ele>
        <time>2020-10-11T09:52:31Z</time>
      </trkpt>
      <trkpt lat="37.349789000" lon="-5.936287000">
        <ele>20.6</ele>
        <time>2020-10-11T09:52:33Z</time>
      </trkpt>
      <trkpt lat="37.349851000" lon="-5.936370000">
        <ele>20.5</ele>
        <time>2020-10-11T09:52:35Z</time>
      </trkpt>
      <trkpt lat="37.349928000" lon="-5.936425000">
        <ele>20.6</ele>
        <time>2020-10-11T09:52:37Z</time>
      </trkpt>
      <trkpt lat="37.350000000" lon="-5.936471000">
        <ele>20.7</ele>
        <time>2020-10-11T09:52:39Z</time>
      </trkpt>
      <trkpt lat="37.350117000" lon="-5.936475000">
        <ele>20.9</ele>
        <time>2020-10-11T09:52:42Z</time>
      </trkpt>
      <trkpt lat="37.350219000" lon="-5.936422000">
        <ele>21.1</ele>
        <time>2020-10-11T09:52:45Z</time>
      </trkpt>
      <trkpt lat="37.350296000" lon="-5.936320000">
        <ele>21.4</ele>
        <time>2020-10-11T09:52:48Z</time>
      </trkpt>
      <trkpt lat="37.350352000" lon="-5.936193000">
        <ele>21.6</ele>
        <time>2020-10-11T09:52:51Z</time>
      </trkpt>
      <trkpt lat="37.350399000" lon="-5.936110000">
        <ele>21.9</ele>
        <time>2020-10-11T09:52:53Z</time>
      </trkpt>
      <trkpt lat="37.350472000" lon="-5.936001000">
        <ele>22.1</ele>
        <time>2020-10-11T09:52:56Z</time>
      </trkpt>
      <trkpt lat="37.350533000" lon="-5.935892000">
        <ele>22.3</ele>
        <time>2020-10-11T09:52:59Z</time>
      </trkpt>
      <trkpt lat="37.350576000" lon="-5.935780000">
        <ele>22.4</ele>
        <time>2020-10-11T09:53:02Z</time>
      </trkpt>
      <trkpt lat="37.350577000" lon="-5.935907000">
        <ele>22.4</ele>
        <time>2020-10-11T09:53:12Z</time>
      </trkpt>
      <trkpt lat="37.350509000" lon="-5.936020000">
        <ele>22.2</ele>
        <time>2020-10-11T09:53:15Z</time>
      </trkpt>
      <trkpt lat="37.350438000" lon="-5.936134000">
        <ele>22.0</ele>
        <time>2020-10-11T09:53:18Z</time>
      </trkpt>
      <trkpt lat="37.350384000" lon="-5.936211000">
        <ele>21.7</ele>
        <time>2020-10-11T09:53:20Z</time>
      </trkpt>
      <trkpt lat="37.350324000" lon="-5.936291000">
        <ele>21.5</ele>
        <time>2020-10-11T09:53:22Z</time>
      </trkpt>
      <trkpt lat="37.350250000" lon="-5.936402000">
        <ele>21.2</ele>
        <time>2020-10-11T09:53:25Z</time>
      </trkpt>
      <trkpt lat="37.350153000" lon="-5.936472000">
        <ele>21.0</ele>
        <time>2020-10-11T09:53:28Z</time>
      </trkpt>
      <trkpt lat="37.350064000" lon="-5.936480000">
        <ele>20.8</ele>
        <time>2020-10-11T09:53:30Z</time>
      </trkpt>
      <trkpt lat="37.349970000" lon="-5.936470000">
        <ele>20.7</ele>
        <time>2020-10-11T09:53:32Z</time>
      </trkpt>
      <trkpt lat="37.349880000" lon="-5.936422000">
        <ele>20.6</ele>
        <time>2020-10-11T09:53:34Z</time>
      </trkpt>
      <trkpt lat="37.349803000" lon="-5.936346000">
        <ele>20.6</ele>
        <time>2020-10-11T09:53:36Z</time>
      </trkpt>
      <trkpt lat="37.349765000" lon="-5.936213000">
        <ele>20.6</ele>
        <time>2020-10-11T09:53:38Z</time>
      </trkpt>
      <trkpt lat="37.349707000" lon="-5.936083000">
        <ele>20.7</ele>
        <time>2020-10-11T09:53:41Z</time>
      </trkpt>
      <trkpt lat="37.349655000" lon="-5.935956000">
        <ele>20.8</ele>
        <time>2020-10-11T09:53:44Z</time>
      </trkpt>
      <trkpt lat="37.349578000" lon="-5.935862000">
        <ele>20.9</ele>
        <time>2020-10-11T09:53:47Z</time>
      </trkpt>
      <trkpt lat="37.349497000" lon="-5.935862000">
        <ele>21.0</ele>
        <time>2020-10-11T09:53:50Z</time>
      </trkpt>
      <trkpt lat="37.349467000" lon="-5.935989000">
        <ele>21.2</ele>
        <time>2020-10-11T09:53:53Z</time>
      </trkpt>
      <trkpt lat="37.349438000" lon="-5.936133000">
        <ele>21.4</ele>
        <time>2020-10-11T09:53:56Z</time>
      </trkpt>
      <trkpt lat="37.349412000" lon="-5.936235000">
        <ele>21.6</ele>
        <time>2020-10-11T09:53:58Z</time>
      </trkpt>
      <trkpt lat="37.349365000" lon="-5.936326000">
        <ele>21.9</ele>
        <time>2020-10-11T09:54:00Z</time>
      </trkpt>
      <trkpt lat="37.349289000" lon="-5.936382000">
        <ele>22.2</ele>
        <time>2020-10-11T09:54:02Z</time>
      </trkpt>
      <trkpt lat="37.349201000" lon="-5.936404000">
        <ele>22.5</ele>
        <time>2020-10-11T09:54:04Z</time>
      </trkpt>
      <trkpt lat="37.349112000" lon="-5.936421000">
        <ele>22.8</ele>
        <time>2020-10-11T09:54:06Z</time>
      </trkpt>
      <trkpt lat="37.349019000" lon="-5.936448000">
        <ele>23.3</ele>
        <time>2020-10-11T09:54:08Z</time>
      </trkpt>
      <trkpt lat="37.348938000" lon="-5.936519000">
        <ele>23.7</ele>
        <time>2020-10-11T09:54:10Z</time>
      </trkpt>
      <trkpt lat="37.348859000" lon="-5.936606000">
        <ele>24.3</ele>
        <time>2020-10-11T09:54:12Z</time>
      </trkpt>
      <trkpt lat="37.348776000" lon="-5.936693000">
        <ele>24.9</ele>
        <time>2020-10-11T09:54:14Z</time>
      </trkpt>
      <trkpt lat="37.348702000" lon="-5.936779000">
        <ele>25.5</ele>
        <time>2020-10-11T09:54:16Z</time>
      </trkpt>
      <trkpt lat="37.348627000" lon="-5.936866000">
        <ele>25.9</ele>
        <time>2020-10-11T09:54:18Z</time>
      </trkpt>
      <trkpt lat="37.348553000" lon="-5.936953000">
        <ele>26.4</ele>
        <time>2020-10-11T09:54:20Z</time>
      </trkpt>
      <trkpt lat="37.348469000" lon="-5.937034000">
        <ele>26.8</ele>
        <time>2020-10-11T09:54:22Z</time>
      </trkpt>
      <trkpt lat="37.348392000" lon="-5.937117000">
        <ele>27.3</ele>
        <time>2020-10-11T09:54:24Z</time>
      </trkpt>
      <trkpt lat="37.348312000" lon="-5.937195000">
        <ele>27.5</ele>
        <time>2020-10-11T09:54:26Z</time>
      </trkpt>
      <trkpt lat="37.348238000" lon="-5.937275000">
        <ele>27.8</ele>
        <time>2020-10-11T09:54:28Z</time>
      </trkpt>
      <trkpt lat="37.348158000" lon="-5.937351000">
        <ele>28.0</ele>
        <time>2020-10-11T09:54:30Z</time>
      </trkpt>
      <trkpt lat="37.348067000" lon="-5.937455000">
        <ele>28.2</ele>
        <time>2020-10-11T09:54:33Z</time>
      </trkpt>
      <trkpt lat="37.348030000" lon="-5.937545000">
        <ele>28.3</ele>
        <time>2020-10-11T09:54:35Z</time>
      </trkpt>
      <trkpt lat="37.348054000" lon="-5.937666000">
        <ele>28.3</ele>
        <time>2020-10-11T09:54:38Z</time>
      </trkpt>
      <trkpt lat="37.348101000" lon="-5.937756000">
        <ele>28.3</ele>
        <time>2020-10-11T09:54:40Z</time>
      </trkpt>
      <trkpt lat="37.348155000" lon="-5.937847000">
        <ele>28.3</ele>
        <time>2020-10-11T09:54:42Z</time>
      </trkpt>
      <trkpt lat="37.348212000" lon="-5.937939000">
        <ele>28.1</ele>
        <time>2020-10-11T09:54:44Z</time>
      </trkpt>
      <trkpt lat="37.348279000" lon="-5.938029000">
        <ele>27.9</ele>
        <time>2020-10-11T09:54:46Z</time>
      </trkpt>
      <trkpt lat="37.348349000" lon="-5.938132000">
        <ele>27.6</ele>
        <time>2020-10-11T09:54:48Z</time>
      </trkpt>
      <trkpt lat="37.348425000" lon="-5.938228000">
        <ele>27.5</ele>
        <time>2020-10-11T09:54:50Z</time>
      </trkpt>
      <trkpt lat="37.348497000" lon="-5.938329000">
        <ele>27.3</ele>
        <time>2020-10-11T09:54:52Z</time>
      </trkpt>
      <trkpt lat="37.348576000" lon="-5.938426000">
        <ele>27.0</ele>
        <time>2020-10-11T09:54:54Z</time>
      </trkpt>
      <trkpt lat="37.348654000" lon="-5.938529000">
        <ele>26.6</ele>
        <time>2020-10-11T09:54:56Z</time>
      </trkpt>
      <trkpt lat="37.348742000" lon="-5.938625000">
        <ele>26.2</ele>
        <time>2020-10-11T09:54:58Z</time>
      </trkpt>
      <trkpt lat="37.348832000" lon="-5.938711000">
        <ele>25.6</ele>
        <time>2020-10-11T09:55:00Z</time>
      </trkpt>
      <trkpt lat="37.348920000" lon="-5.938793000">
        <ele>25.0</ele>
        <time>2020-10-11T09:55:02Z</time>
      </trkpt>
      <trkpt lat="37.349006000" lon="-5.938870000">
        <ele>24.3</ele>
        <time>2020-10-11T09:55:04Z</time>
      </trkpt>
      <trkpt lat="37.349090000" lon="-5.938936000">
        <ele>23.6</ele>
        <time>2020-10-11T09:55:06Z</time>
      </trkpt>
      <trkpt lat="37.349168000" lon="-5.938989000">
        <ele>22.9</ele>
        <time>2020-10-11T09:55:08Z</time>
      </trkpt>
      <trkpt lat="37.349237000" lon="-5.939045000">
        <ele>22.3</ele>
        <time>2020-10-11T09:55:10Z</time>
      </trkpt>
      <trkpt lat="37.349320000" lon="-5.939092000">
        <ele>21.6</ele>
        <time>2020-10-11T09:55:13Z</time>
      </trkpt>
      <trkpt lat="37.349386000" lon="-5.939027000">
        <ele>21.1</ele>
        <time>2020-10-11T09:55:16Z</time>
      </trkpt>
      <trkpt lat="37.349400000" lon="-5.938919000">
        <ele>20.6</ele>
        <time>2020-10-11T09:55:18Z</time>
      </trkpt>
      <trkpt lat="37.349442000" lon="-5.938794000">
        <ele>20.4</ele>
        <time>2020-10-11T09:55:20Z</time>
      </trkpt>
      <trkpt lat="37.349497000" lon="-5.938674000">
        <ele>20.2</ele>
        <time>2020-10-11T09:55:22Z</time>
      </trkpt>
      <trkpt lat="37.349550000" lon="-5.938557000">
        <ele>20.1</ele>
        <time>2020-10-11T09:55:24Z</time>
      </trkpt>
      <trkpt lat="37.349601000" lon="-5.938441000">
        <ele>20.0</ele>
        <time>2020-10-11T09:55:26Z</time>
      </trkpt>
      <trkpt lat="37.349655000" lon="-5.938326000">
        <ele>19.9</ele>
        <time>2020-10-11T09:55:28Z</time>
      </trkpt>
      <trkpt lat="37.349708000" lon="-5.938207000">
        <ele>19.7</ele>
        <time>2020-10-11T09:55:30Z</time>
      </trkpt>
      <trkpt lat="37.349762000" lon="-5.938093000">
        <ele>19.6</ele>
        <time>2020-10-11T09:55:32Z</time>
      </trkpt>
      <trkpt lat="37.349819000" lon="-5.937978000">
        <ele>19.5</ele>
        <time>2020-10-11T09:55:34Z</time>
      </trkpt>
      <trkpt lat="37.349873000" lon="-5.937860000">
        <ele>19.5</ele>
        <time>2020-10-11T09:55:36Z</time>
      </trkpt>
      <trkpt lat="37.349928000" lon="-5.937742000">
        <ele>19.5</ele>
        <time>2020-10-11T09:55:38Z</time>
      </trkpt>
      <trkpt lat="37.349981000" lon="-5.937622000">
        <ele>19.4</ele>
        <time>2020-10-11T09:55:40Z</time>
      </trkpt>
      <trkpt lat="37.350030000" lon="-5.937503000">
        <ele>19.3</ele>
        <time>2020-10-11T09:55:42Z</time>
      </trkpt>
      <trkpt lat="37.350081000" lon="-5.937386000">
        <ele>19.2</ele>
        <time>2020-10-11T09:55:44Z</time>
      </trkpt>
      <trkpt lat="37.350137000" lon="-5.937267000">
        <ele>19.1</ele>
        <time>2020-10-11T09:55:46Z</time>
      </trkpt>
      <trkpt lat="37.350190000" lon="-5.937146000">
        <ele>19.2</ele>
        <time>2020-10-11T09:55:48Z</time>
      </trkpt>
      <trkpt lat="37.350246000" lon="-5.937028000">
        <ele>19.5</ele>
        <time>2020-10-11T09:55:50Z</time>
      </trkpt>
      <trkpt lat="37.350299000" lon="-5.936919000">
        <ele>19.8</ele>
        <time>2020-10-11T09:55:52Z</time>
      </trkpt>
      <trkpt lat="37.350358000" lon="-5.936803000">
        <ele>20.3</ele>
        <time>2020-10-11T09:55:54Z</time>
      </trkpt>
      <trkpt lat="37.350414000" lon="-5.936691000">
        <ele>20.7</ele>
        <time>2020-10-11T09:55:56Z</time>
      </trkpt>
      <trkpt lat="37.350464000" lon="-5.936570000">
        <ele>21.0</ele>
        <time>2020-10-11T09:55:58Z</time>
      </trkpt>
      <trkpt lat="37.350518000" lon="-5.936451000">
        <ele>21.2</ele>
        <time>2020-10-11T09:56:00Z</time>
      </trkpt>
      <trkpt lat="37.350577000" lon="-5.936331000">
        <ele>21.4</ele>
        <time>2020-10-11T09:56:02Z</time>
      </trkpt>
      <trkpt lat="37.350631000" lon="-5.936208000">
        <ele>21.4</ele>
        <time>2020-10-11T09:56:04Z</time>
      </trkpt>
      <trkpt lat="37.350685000" lon="-5.936089000">
        <ele>21.4</ele>
        <time>2020-10-11T09:56:06Z</time>
      </trkpt>
      <trkpt lat="37.350737000" lon="-5.935976000">
        <ele>21.4</ele>
        <time>2020-10-11T09:56:08Z</time>
      </trkpt>
      <trkpt lat="37.350786000" lon="-5.935859000">
        <ele>21.3</ele>
        <time>2020-10-11T09:56:10Z</time>
      </trkpt>
      <trkpt lat="37.350841000" lon="-5.935741000">
        <ele>21.2</ele>
        <time>2020-10-11T09:56:12Z</time>
      </trkpt>
      <trkpt lat="37.350895000" lon="-5.935623000">
        <ele>21.3</ele>
        <time>2020-10-11T09:56:14Z</time>
      </trkpt>
      <trkpt lat="37.350945000" lon="-5.935505000">
        <ele>21.5</ele>
        <time>2020-10-11T09:56:16Z</time>
      </trkpt>
      <trkpt lat="37.350994000" lon="-5.935388000">
        <ele>21.8</ele>
        <time>2020-10-11T09:56:18Z</time>
      </trkpt>
      <trkpt lat="37.351043000" lon="-5.935274000">
        <ele>22.5</ele>
        <time>2020-10-11T09:56:20Z</time>
      </trkpt>
      <trkpt lat="37.351098000" lon="-5.935161000">
        <ele>23.2</ele>
        <time>2020-10-11T09:56:22Z</time>
      </trkpt>
      <trkpt lat="37.351156000" lon="-5.935042000">
        <ele>23.9</ele>
        <time>2020-10-11T09:56:24Z</time>
      </trkpt>
      <trkpt lat="37.351210000" lon="-5.934922000">
        <ele>24.6</ele>
        <time>2020-10-11T09:56:26Z</time>
      </trkpt>
      <trkpt lat="37.351278000" lon="-5.934809000">
        <ele>25.3</ele>
        <time>2020-10-11T09:56:28Z</time>
      </trkpt>
      <trkpt lat="37.351347000" lon="-5.934695000">
        <ele>25.9</ele>
        <time>2020-10-11T09:56:30Z</time>
      </trkpt>
      <trkpt lat="37.351426000" lon="-5.934592000">
        <ele>26.5</ele>
        <time>2020-10-11T09:56:32Z</time>
      </trkpt>
      <trkpt lat="37.351510000" lon="-5.934499000">
        <ele>26.8</ele>
        <time>2020-10-11T09:56:34Z</time>
      </trkpt>
      <trkpt lat="37.351605000" lon="-5.934416000">
        <ele>27.1</ele>
        <time>2020-10-11T09:56:36Z</time>
      </trkpt>
      <trkpt lat="37.351707000" lon="-5.934335000">
        <ele>27.1</ele>
        <time>2020-10-11T09:56:38Z</time>
      </trkpt>
      <trkpt lat="37.351805000" lon="-5.934263000">
        <ele>26.9</ele>
        <time>2020-10-11T09:56:40Z</time>
      </trkpt>
      <trkpt lat="37.351907000" lon="-5.934199000">
        <ele>26.5</ele>
        <time>2020-10-11T09:56:42Z</time>
      </trkpt>
      <trkpt lat="37.352006000" lon="-5.934144000">
        <ele>26.1</ele>
        <time>2020-10-11T09:56:44Z</time>
      </trkpt>
      <trkpt lat="37.352101000" lon="-5.934086000">
        <ele>25.5</ele>
        <time>2020-10-11T09:56:46Z</time>
      </trkpt>
      <trkpt lat="37.352201000" lon="-5.934030000">
        <ele>24.6</ele>
        <time>2020-10-11T09:56:48Z</time>
      </trkpt>
      <trkpt lat="37.352299000" lon="-5.933991000">
        <ele>23.6</ele>
        <time>2020-10-11T09:56:50Z</time>
      </trkpt>
      <trkpt lat="37.352404000" lon="-5.933962000">
        <ele>22.5</ele>
        <time>2020-10-11T09:56:52Z</time>
      </trkpt>
      <trkpt lat="37.352509000" lon="-5.933925000">
        <ele>21.4</ele>
        <time>2020-10-11T09:56:54Z</time>
      </trkpt>
      <trkpt lat="37.352593000" lon="-5.933892000">
        <ele>20.2</ele>
        <time>2020-10-11T09:56:56Z</time>
      </trkpt>
      <trkpt lat="37.352699000" lon="-5.933845000">
        <ele>18.9</ele>
        <time>2020-10-11T09:56:59Z</time>
      </trkpt>
      <trkpt lat="37.352815000" lon="-5.933800000">
        <ele>17.8</ele>
        <time>2020-10-11T09:57:02Z</time>
      </trkpt>
      <trkpt lat="37.352895000" lon="-5.933750000">
        <ele>16.8</ele>
        <time>2020-10-11T09:57:04Z</time>
      </trkpt>
      <trkpt lat="37.352981000" lon="-5.933690000">
        <ele>16.0</ele>
        <time>2020-10-11T09:57:06Z</time>
      </trkpt>
      <trkpt lat="37.353077000" lon="-5.933640000">
        <ele>15.5</ele>
        <time>2020-10-11T09:57:08Z</time>
      </trkpt>
      <trkpt lat="37.353169000" lon="-5.933589000">
        <ele>15.2</ele>
        <time>2020-10-11T09:57:10Z</time>
      </trkpt>
      <trkpt lat="37.353258000" lon="-5.933547000">
        <ele>15.3</ele>
        <time>2020-10-11T09:57:12Z</time>
      </trkpt>
      <trkpt lat="37.353334000" lon="-5.933497000">
        <ele>15.6</ele>
        <time>2020-10-11T09:57:14Z</time>
      </trkpt>
      <trkpt lat="37.353432000" lon="-5.933433000">
        <ele>16.1</ele>
        <time>2020-10-11T09:57:17Z</time>
      </trkpt>
      <trkpt lat="37.353506000" lon="-5.933385000">
        <ele>16.7</ele>
        <time>2020-10-11T09:57:20Z</time>
      </trkpt>
      <trkpt lat="37.353581000" lon="-5.933334000">
        <ele>17.5</ele>
        <time>2020-10-11T09:57:23Z</time>
      </trkpt>
      <trkpt lat="37.353653000" lon="-5.933272000">
        <ele>18.2</ele>
        <time>2020-10-11T09:57:26Z</time>
      </trkpt>
      <trkpt lat="37.353734000" lon="-5.933200000">
        <ele>18.9</ele>
        <time>2020-10-11T09:57:30Z</time>
      </trkpt>
      <trkpt lat="37.353805000" lon="-5.933120000">
        <ele>19.5</ele>
        <time>2020-10-11T09:57:34Z</time>
      </trkpt>
      <trkpt lat="37.353865000" lon="-5.933036000">
        <ele>20.0</ele>
        <time>2020-10-11T09:57:37Z</time>
      </trkpt>
      <trkpt lat="37.353941000" lon="-5.932937000">
        <ele>20.4</ele>
        <time>2020-10-11T09:57:40Z</time>
      </trkpt>
      <trkpt lat="37.353999000" lon="-5.932864000">
        <ele>20.6</ele>
        <time>2020-10-11T09:57:42Z</time>
      </trkpt>
      <trkpt lat="37.354054000" lon="-5.932786000">
        <ele>20.7</ele>
        <time>2020-10-11T09:57:44Z</time>
      </trkpt>
      <trkpt lat="37.354111000" lon="-5.932708000">
        <ele>20.8</ele>
        <time>2020-10-11T09:57:46Z</time>
      </trkpt>
      <trkpt lat="37.354173000" lon="-5.932629000">
        <ele>20.8</ele>
        <time>2020-10-11T09:57:48Z</time>
      </trkpt>
      <trkpt lat="37.354228000" lon="-5.932541000">
        <ele>20.9</ele>
        <time>2020-10-11T09:57:50Z</time>
      </trkpt>
      <trkpt lat="37.354297000" lon="-5.932456000">
        <ele>21.0</ele>
        <time>2020-10-11T09:57:52Z</time>
      </trkpt>
      <trkpt lat="37.354350000" lon="-5.932356000">
        <ele>21.1</ele>
        <time>2020-10-11T09:57:54Z</time>
      </trkpt>
      <trkpt lat="37.354406000" lon="-5.932257000">
        <ele>21.2</ele>
        <time>2020-10-11T09:57:56Z</time>
      </trkpt>
      <trkpt lat="37.354458000" lon="-5.932154000">
        <ele>21.3</ele>
        <time>2020-10-11T09:57:58Z</time>
      </trkpt>
      <trkpt lat="37.354516000" lon="-5.932047000">
        <ele>21.4</ele>
        <time>2020-10-11T09:58:00Z</time>
      </trkpt>
      <trkpt lat="37.354578000" lon="-5.931938000">
        <ele>21.5</ele>
        <time>2020-10-11T09:58:02Z</time>
      </trkpt>
      <trkpt lat="37.354636000" lon="-5.931823000">
        <ele>21.5</ele>
        <time>2020-10-11T09:58:04Z</time>
      </trkpt>
      <trkpt lat="37.354687000" lon="-5.931710000">
        <ele>21.5</ele>
        <time>2020-10-11T09:58:06Z</time>
      </trkpt>
      <trkpt lat="37.354745000" lon="-5.931596000">
        <ele>21.5</ele>
        <time>2020-10-11T09:58:08Z</time>
      </trkpt>
      <trkpt lat="37.354799000" lon="-5.931483000">
        <ele>21.5</ele>
        <time>2020-10-11T09:58:10Z</time>
      </trkpt>
      <trkpt lat="37.354856000" lon="-5.931362000">
        <ele>21.5</ele>
        <time>2020-10-11T09:58:12Z</time>
      </trkpt>
      <trkpt lat="37.354918000" lon="-5.931246000">
        <ele>21.5</ele>
        <time>2020-10-11T09:58:14Z</time>
      </trkpt>
      <trkpt lat="37.354971000" lon="-5.931125000">
        <ele>21.5</ele>
        <time>2020-10-11T09:58:16Z</time>
      </trkpt>
      <trkpt lat="37.355022000" lon="-5.931003000">
        <ele>21.5</ele>
        <time>2020-10-11T09:58:18Z</time>
      </trkpt>
      <trkpt lat="37.355078000" lon="-5.930885000">
        <ele>21.5</ele>
        <time>2020-10-11T09:58:20Z</time>
      </trkpt>
      <trkpt lat="37.355140000" lon="-5.930768000">
        <ele>21.6</ele>
        <time>2020-10-11T09:58:22Z</time>
      </trkpt>
      <trkpt lat="37.355205000" lon="-5.930649000">
        <ele>21.6</ele>
        <time>2020-10-11T09:58:24Z</time>
      </trkpt>
      <trkpt lat="37.355260000" lon="-5.930520000">
        <ele>21.7</ele>
        <time>2020-10-11T09:58:26Z</time>
      </trkpt>
      <trkpt lat="37.355324000" lon="-5.930400000">
        <ele>21.9</ele>
        <time>2020-10-11T09:58:28Z</time>
      </trkpt>
      <trkpt lat="37.355381000" lon="-5.930275000">
        <ele>22.1</ele>
        <time>2020-10-11T09:58:30Z</time>
      </trkpt>
      <trkpt lat="37.355441000" lon="-5.930157000">
        <ele>22.4</ele>
        <time>2020-10-11T09:58:32Z</time>
      </trkpt>
      <trkpt lat="37.355503000" lon="-5.930033000">
        <ele>22.8</ele>
        <time>2020-10-11T09:58:34Z</time>
      </trkpt>
      <trkpt lat="37.355563000" lon="-5.929908000">
        <ele>23.2</ele>
        <time>2020-10-11T09:58:36Z</time>
      </trkpt>
      <trkpt lat="37.355623000" lon="-5.929787000">
        <ele>23.6</ele>
        <time>2020-10-11T09:58:38Z</time>
      </trkpt>
      <trkpt lat="37.355686000" lon="-5.929666000">
        <ele>24.0</ele>
        <time>2020-10-11T09:58:40Z</time>
      </trkpt>
      <trkpt lat="37.355742000" lon="-5.929545000">
        <ele>24.3</ele>
        <time>2020-10-11T09:58:42Z</time>
      </trkpt>
      <trkpt lat="37.355806000" lon="-5.929426000">
        <ele>24.5</ele>
        <time>2020-10-11T09:58:44Z</time>
      </trkpt>
      <trkpt lat="37.355864000" lon="-5.929316000">
        <ele>24.6</ele>
        <time>2020-10-11T09:58:46Z</time>
      </trkpt>
      <trkpt lat="37.355913000" lon="-5.929206000">
        <ele>24.7</ele>
        <time>2020-10-11T09:58:48Z</time>
      </trkpt>
      <trkpt lat="37.355957000" lon="-5.929101000">
        <ele>24.7</ele>
        <time>2020-10-11T09:58:50Z</time>
      </trkpt>
      <trkpt lat="37.356006000" lon="-5.929002000">
        <ele>24.7</ele>
        <time>2020-10-11T09:58:52Z</time>
      </trkpt>
      <trkpt lat="37.356060000" lon="-5.928896000">
        <ele>24.5</ele>
        <time>2020-10-11T09:58:54Z</time>
      </trkpt>
      <trkpt lat="37.356109000" lon="-5.928799000">
        <ele>24.0</ele>
        <time>2020-10-11T09:58:56Z</time>
      </trkpt>
      <trkpt lat="37.356154000" lon="-5.928697000">
        <ele>23.5</ele>
        <time>2020-10-11T09:58:58Z</time>
      </trkpt>
      <trkpt lat="37.356203000" lon="-5.928600000">
        <ele>23.0</ele>
        <time>2020-10-11T09:59:00Z</time>
      </trkpt>
      <trkpt lat="37.356248000" lon="-5.928505000">
        <ele>22.5</ele>
        <time>2020-10-11T09:59:02Z</time>
      </trkpt>
      <trkpt lat="37.356297000" lon="-5.928405000">
        <ele>21.9</ele>
        <time>2020-10-11T09:59:04Z</time>
      </trkpt>
      <trkpt lat="37.356346000" lon="-5.928298000">
        <ele>21.5</ele>
        <time>2020-10-11T09:59:06Z</time>
      </trkpt>
      <trkpt lat="37.356403000" lon="-5.928188000">
        <ele>20.9</ele>
        <time>2020-10-11T09:59:08Z</time>
      </trkpt>
      <trkpt lat="37.356459000" lon="-5.928075000">
        <ele>20.5</ele>
        <time>2020-10-11T09:59:10Z</time>
      </trkpt>
      <trkpt lat="37.356516000" lon="-5.927961000">
        <ele>20.1</ele>
        <time>2020-10-11T09:59:12Z</time>
      </trkpt>
      <trkpt lat="37.356574000" lon="-5.927853000">
        <ele>19.6</ele>
        <time>2020-10-11T09:59:14Z</time>
      </trkpt>
      <trkpt lat="37.356625000" lon="-5.927741000">
        <ele>19.3</ele>
        <time>2020-10-11T09:59:16Z</time>
      </trkpt>
      <trkpt lat="37.356681000" lon="-5.927634000">
        <ele>19.0</ele>
        <time>2020-10-11T09:59:18Z</time>
      </trkpt>
      <trkpt lat="37.356738000" lon="-5.927523000">
        <ele>18.7</ele>
        <time>2020-10-11T09:59:20Z</time>
      </trkpt>
      <trkpt lat="37.356792000" lon="-5.927410000">
        <ele>18.6</ele>
        <time>2020-10-11T09:59:22Z</time>
      </trkpt>
      <trkpt lat="37.356841000" lon="-5.927299000">
        <ele>18.6</ele>
        <time>2020-10-11T09:59:24Z</time>
      </trkpt>
      <trkpt lat="37.356892000" lon="-5.927187000">
        <ele>18.8</ele>
        <time>2020-10-11T09:59:26Z</time>
      </trkpt>
      <trkpt lat="37.356945000" lon="-5.927074000">
        <ele>19.1</ele>
        <time>2020-10-11T09:59:28Z</time>
      </trkpt>
      <trkpt lat="37.356997000" lon="-5.926960000">
        <ele>19.5</ele>
        <time>2020-10-11T09:59:30Z</time>
      </trkpt>
      <trkpt lat="37.357045000" lon="-5.926847000">
        <ele>20.1</ele>
        <time>2020-10-11T09:59:32Z</time>
      </trkpt>
      <trkpt lat="37.357085000" lon="-5.926723000">
        <ele>20.6</ele>
        <time>2020-10-11T09:59:34Z</time>
      </trkpt>
      <trkpt lat="37.357123000" lon="-5.926596000">
        <ele>21.3</ele>
        <time>2020-10-11T09:59:36Z</time>
      </trkpt>
      <trkpt lat="37.357156000" lon="-5.926469000">
        <ele>22.0</ele>
        <time>2020-10-11T09:59:38Z</time>
      </trkpt>
      <trkpt lat="37.357187000" lon="-5.926341000">
        <ele>22.6</ele>
        <time>2020-10-11T09:59:40Z</time>
      </trkpt>
      <trkpt lat="37.357209000" lon="-5.926210000">
        <ele>23.3</ele>
        <time>2020-10-11T09:59:42Z</time>
      </trkpt>
      <trkpt lat="37.357227000" lon="-5.926079000">
        <ele>23.6</ele>
        <time>2020-10-11T09:59:44Z</time>
      </trkpt>
      <trkpt lat="37.357239000" lon="-5.925945000">
        <ele>23.9</ele>
        <time>2020-10-11T09:59:46Z</time>
      </trkpt>
      <trkpt lat="37.357260000" lon="-5.925815000">
        <ele>24.0</ele>
        <time>2020-10-11T09:59:48Z</time>
      </trkpt>
      <trkpt lat="37.357280000" lon="-5.925681000">
        <ele>24.0</ele>
        <time>2020-10-11T09:59:50Z</time>
      </trkpt>
      <trkpt lat="37.357301000" lon="-5.925548000">
        <ele>23.9</ele>
        <time>2020-10-11T09:59:52Z</time>
      </trkpt>
      <trkpt lat="37.357323000" lon="-5.925419000">
        <ele>23.7</ele>
        <time>2020-10-11T09:59:54Z</time>
      </trkpt>
      <trkpt lat="37.357345000" lon="-5.925288000">
        <ele>23.6</ele>
        <time>2020-10-11T09:59:56Z</time>
      </trkpt>
      <trkpt lat="37.357372000" lon="-5.925160000">
        <ele>23.6</ele>
        <time>2020-10-11T09:59:58Z</time>
      </trkpt>
      <trkpt lat="37.357401000" lon="-5.925031000">
        <ele>23.6</ele>
        <time>2020-10-11T10:00:00Z</time>
      </trkpt>
      <trkpt lat="37.357423000" lon="-5.924901000">
        <ele>23.7</ele>
        <time>2020-10-11T10:00:02Z</time>
      </trkpt>
      <trkpt lat="37.357447000" lon="-5.924773000">
        <ele>23.8</ele>
        <time>2020-10-11T10:00:04Z</time>
      </trkpt>
      <trkpt lat="37.357466000" lon="-5.924644000">
        <ele>24.0</ele>
        <time>2020-10-11T10:00:06Z</time>
      </trkpt>
      <trkpt lat="37.357488000" lon="-5.924517000">
        <ele>24.2</ele>
        <time>2020-10-11T10:00:08Z</time>
      </trkpt>
      <trkpt lat="37.357508000" lon="-5.924388000">
        <ele>24.3</ele>
        <time>2020-10-11T10:00:10Z</time>
      </trkpt>
      <trkpt lat="37.357531000" lon="-5.924258000">
        <ele>24.4</ele>
        <time>2020-10-11T10:00:12Z</time>
      </trkpt>
      <trkpt lat="37.357552000" lon="-5.924133000">
        <ele>24.4</ele>
        <time>2020-10-11T10:00:14Z</time>
      </trkpt>
      <trkpt lat="37.357567000" lon="-5.924007000">
        <ele>24.4</ele>
        <time>2020-10-11T10:00:16Z</time>
      </trkpt>
      <trkpt lat="37.357584000" lon="-5.923889000">
        <ele>24.3</ele>
        <time>2020-10-11T10:00:18Z</time>
      </trkpt>
      <trkpt lat="37.357596000" lon="-5.923763000">
        <ele>24.1</ele>
        <time>2020-10-11T10:00:20Z</time>
      </trkpt>
      <trkpt lat="37.357620000" lon="-5.923643000">
        <ele>23.9</ele>
        <time>2020-10-11T10:00:22Z</time>
      </trkpt>
      <trkpt lat="37.357633000" lon="-5.923518000">
        <ele>23.7</ele>
        <time>2020-10-11T10:00:24Z</time>
      </trkpt>
      <trkpt lat="37.357644000" lon="-5.923397000">
        <ele>23.6</ele>
        <time>2020-10-11T10:00:26Z</time>
      </trkpt>
      <trkpt lat="37.357667000" lon="-5.923276000">
        <ele>23.6</ele>
        <time>2020-10-11T10:00:28Z</time>
      </trkpt>
      <trkpt lat="37.357716000" lon="-5.923165000">
        <ele>23.6</ele>
        <time>2020-10-11T10:00:30Z</time>
      </trkpt>
      <trkpt lat="37.357768000" lon="-5.923045000">
        <ele>23.7</ele>
        <time>2020-10-11T10:00:32Z</time>
      </trkpt>
      <trkpt lat="37.357812000" lon="-5.922940000">
        <ele>23.8</ele>
        <time>2020-10-11T10:00:34Z</time>
      </trkpt>
      <trkpt lat="37.357864000" lon="-5.922819000">
        <ele>24.0</ele>
        <time>2020-10-11T10:00:37Z</time>
      </trkpt>
      <trkpt lat="37.357904000" lon="-5.922706000">
        <ele>24.1</ele>
        <time>2020-10-11T10:00:40Z</time>
      </trkpt>
      <trkpt lat="37.357964000" lon="-5.922576000">
        <ele>24.1</ele>
        <time>2020-10-11T10:00:43Z</time>
      </trkpt>
      <trkpt lat="37.358015000" lon="-5.922481000">
        <ele>24.0</ele>
        <time>2020-10-11T10:00:45Z</time>
      </trkpt>
      <trkpt lat="37.358074000" lon="-5.922382000">
        <ele>23.9</ele>
        <time>2020-10-11T10:00:47Z</time>
      </trkpt>
      <trkpt lat="37.358133000" lon="-5.922282000">
        <ele>23.8</ele>
        <time>2020-10-11T10:00:49Z</time>
      </trkpt>
      <trkpt lat="37.358187000" lon="-5.922178000">
        <ele>23.5</ele>
        <time>2020-10-11T10:00:51Z</time>
      </trkpt>
      <trkpt lat="37.358251000" lon="-5.922082000">
        <ele>23.2</ele>
        <time>2020-10-11T10:00:53Z</time>
      </trkpt>
      <trkpt lat="37.358312000" lon="-5.921979000">
        <ele>22.8</ele>
        <time>2020-10-11T10:00:55Z</time>
      </trkpt>
      <trkpt lat="37.358355000" lon="-5.921872000">
        <ele>22.5</ele>
        <time>2020-10-11T10:00:57Z</time>
      </trkpt>
      <trkpt lat="37.358412000" lon="-5.921769000">
        <ele>22.1</ele>
        <time>2020-10-11T10:00:59Z</time>
      </trkpt>
      <trkpt lat="37.358468000" lon="-5.921665000">
        <ele>21.7</ele>
        <time>2020-10-11T10:01:01Z</time>
      </trkpt>
      <trkpt lat="37.358530000" lon="-5.921567000">
        <ele>21.5</ele>
        <time>2020-10-11T10:01:03Z</time>
      </trkpt>
      <trkpt lat="37.358584000" lon="-5.921466000">
        <ele>21.3</ele>
        <time>2020-10-11T10:01:05Z</time>
      </trkpt>
      <trkpt lat="37.358641000" lon="-5.921368000">
        <ele>21.1</ele>
        <time>2020-10-11T10:01:07Z</time>
      </trkpt>
      <trkpt lat="37.358704000" lon="-5.921269000">
        <ele>20.9</ele>
        <time>2020-10-11T10:01:09Z</time>
      </trkpt>
      <trkpt lat="37.358757000" lon="-5.921170000">
        <ele>20.7</ele>
        <time>2020-10-11T10:01:11Z</time>
      </trkpt>
      <trkpt lat="37.358818000" lon="-5.921067000">
        <ele>20.6</ele>
        <time>2020-10-11T10:01:13Z</time>
      </trkpt>
      <trkpt lat="37.358872000" lon="-5.920967000">
        <ele>20.5</ele>
        <time>2020-10-11T10:01:15Z</time>
      </trkpt>
      <trkpt lat="37.358931000" lon="-5.920869000">
        <ele>20.5</ele>
        <time>2020-10-11T10:01:17Z</time>
      </trkpt>
      <trkpt lat="37.358987000" lon="-5.920768000">
        <ele>20.5</ele>
        <time>2020-10-11T10:01:19Z</time>
      </trkpt>
      <trkpt lat="37.359047000" lon="-5.920672000">
        <ele>20.6</ele>
        <time>2020-10-11T10:01:21Z</time>
      </trkpt>
      <trkpt lat="37.359109000" lon="-5.920570000">
        <ele>20.7</ele>
        <time>2020-10-11T10:01:23Z</time>
      </trkpt>
      <trkpt lat="37.359176000" lon="-5.920474000">
        <ele>20.8</ele>
        <time>2020-10-11T10:01:25Z</time>
      </trkpt>
      <trkpt lat="37.359239000" lon="-5.920374000">
        <ele>20.9</ele>
        <time>2020-10-11T10:01:27Z</time>
      </trkpt>
      <trkpt lat="37.359301000" lon="-5.920278000">
        <ele>21.0</ele>
        <time>2020-10-11T10:01:29Z</time>
      </trkpt>
      <trkpt lat="37.359359000" lon="-5.920179000">
        <ele>21.1</ele>
        <time>2020-10-11T10:01:31Z</time>
      </trkpt>
      <trkpt lat="37.359425000" lon="-5.920082000">
        <ele>21.1</ele>
        <time>2020-10-11T10:01:33Z</time>
      </trkpt>
      <trkpt lat="37.359479000" lon="-5.919983000">
        <ele>21.0</ele>
        <time>2020-10-11T10:01:35Z</time>
      </trkpt>
      <trkpt lat="37.359534000" lon="-5.919881000">
        <ele>20.9</ele>
        <time>2020-10-11T10:01:37Z</time>
      </trkpt>
      <trkpt lat="37.359584000" lon="-5.919784000">
        <ele>20.6</ele>
        <time>2020-10-11T10:01:39Z</time>
      </trkpt>
      <trkpt lat="37.359645000" lon="-5.919686000">
        <ele>20.4</ele>
        <time>2020-10-11T10:01:41Z</time>
      </trkpt>
      <trkpt lat="37.359706000" lon="-5.919589000">
        <ele>20.0</ele>
        <time>2020-10-11T10:01:43Z</time>
      </trkpt>
      <trkpt lat="37.359757000" lon="-5.919491000">
        <ele>19.6</ele>
        <time>2020-10-11T10:01:45Z</time>
      </trkpt>
      <trkpt lat="37.359818000" lon="-5.919390000">
        <ele>19.4</ele>
        <time>2020-10-11T10:01:47Z</time>
      </trkpt>
      <trkpt lat="37.359877000" lon="-5.919298000">
        <ele>19.2</ele>
        <time>2020-10-11T10:01:49Z</time>
      </trkpt>
      <trkpt lat="37.359936000" lon="-5.919196000">
        <ele>19.2</ele>
        <time>2020-10-11T10:01:51Z</time>
      </trkpt>
      <trkpt lat="37.359990000" lon="-5.919091000">
        <ele>19.2</ele>
        <time>2020-10-11T10:01:53Z</time>
      </trkpt>
      <trkpt lat="37.360041000" lon="-5.918982000">
        <ele>19.3</ele>
        <time>2020-10-11T10:01:55Z</time>
      </trkpt>
      <trkpt lat="37.360086000" lon="-5.918877000">
        <ele>19.5</ele>
        <time>2020-10-11T10:01:57Z</time>
      </trkpt>
      <trkpt lat="37.360130000" lon="-5.918768000">
        <ele>19.6</ele>
        <time>2020-10-11T10:01:59Z</time>
      </trkpt>
      <trkpt lat="37.360163000" lon="-5.918653000">
        <ele>19.9</ele>
        <time>2020-10-11T10:02:01Z</time>
      </trkpt>
      <trkpt lat="37.360197000" lon="-5.918545000">
        <ele>20.2</ele>
        <time>2020-10-11T10:02:03Z</time>
      </trkpt>
      <trkpt lat="37.360219000" lon="-5.918428000">
        <ele>20.5</ele>
        <time>2020-10-11T10:02:05Z</time>
      </trkpt>
      <trkpt lat="37.360242000" lon="-5.918306000">
        <ele>20.7</ele>
        <time>2020-10-11T10:02:07Z</time>
      </trkpt>
      <trkpt lat="37.360262000" lon="-5.918181000">
        <ele>21.0</ele>
        <time>2020-10-11T10:02:09Z</time>
      </trkpt>
      <trkpt lat="37.360278000" lon="-5.918060000">
        <ele>21.2</ele>
        <time>2020-10-11T10:02:11Z</time>
      </trkpt>
      <trkpt lat="37.360290000" lon="-5.917934000">
        <ele>21.3</ele>
        <time>2020-10-11T10:02:13Z</time>
      </trkpt>
      <trkpt lat="37.360290000" lon="-5.917812000">
        <ele>21.4</ele>
        <time>2020-10-11T10:02:15Z</time>
      </trkpt>
      <trkpt lat="37.360288000" lon="-5.917691000">
        <ele>21.4</ele>
        <time>2020-10-11T10:02:17Z</time>
      </trkpt>
      <trkpt lat="37.360279000" lon="-5.917571000">
        <ele>21.4</ele>
        <time>2020-10-11T10:02:19Z</time>
      </trkpt>
      <trkpt lat="37.360269000" lon="-5.917455000">
        <ele>21.4</ele>
        <time>2020-10-11T10:02:21Z</time>
      </trkpt>
      <trkpt lat="37.360251000" lon="-5.917336000">
        <ele>21.4</ele>
        <time>2020-10-11T10:02:23Z</time>
      </trkpt>
      <trkpt lat="37.360228000" lon="-5.917213000">
        <ele>21.3</ele>
        <time>2020-10-11T10:02:25Z</time>
      </trkpt>
      <trkpt lat="37.360202000" lon="-5.917095000">
        <ele>21.3</ele>
        <time>2020-10-11T10:02:27Z</time>
      </trkpt>
      <trkpt lat="37.360174000" lon="-5.916976000">
        <ele>21.2</ele>
        <time>2020-10-11T10:02:29Z</time>
      </trkpt>
      <trkpt lat="37.360142000" lon="-5.916854000">
        <ele>21.1</ele>
        <time>2020-10-11T10:02:31Z</time>
      </trkpt>
      <trkpt lat="37.360114000" lon="-5.916728000">
        <ele>21.0</ele>
        <time>2020-10-11T10:02:33Z</time>
      </trkpt>
      <trkpt lat="37.360088000" lon="-5.916607000">
        <ele>21.0</ele>
        <time>2020-10-11T10:02:35Z</time>
      </trkpt>
      <trkpt lat="37.360063000" lon="-5.916483000">
        <ele>21.0</ele>
        <time>2020-10-11T10:02:37Z</time>
      </trkpt>
      <trkpt lat="37.360030000" lon="-5.916359000">
        <ele>21.1</ele>
        <time>2020-10-11T10:02:39Z</time>
      </trkpt>
      <trkpt lat="37.360003000" lon="-5.916236000">
        <ele>21.2</ele>
        <time>2020-10-11T10:02:41Z</time>
      </trkpt>
      <trkpt lat="37.359978000" lon="-5.916113000">
        <ele>21.3</ele>
        <time>2020-10-11T10:02:43Z</time>
      </trkpt>
      <trkpt lat="37.359957000" lon="-5.915990000">
        <ele>21.4</ele>
        <time>2020-10-11T10:02:45Z</time>
      </trkpt>
      <trkpt lat="37.359936000" lon="-5.915891000">
        <ele>21.5</ele>
        <time>2020-10-11T10:02:47Z</time>
      </trkpt>
      <trkpt lat="37.359909000" lon="-5.915757000">
        <ele>21.6</ele>
        <time>2020-10-11T10:02:50Z</time>
      </trkpt>
      <trkpt lat="37.359880000" lon="-5.915648000">
        <ele>21.8</ele>
        <time>2020-10-11T10:02:52Z</time>
      </trkpt>
      <trkpt lat="37.359852000" lon="-5.915521000">
        <ele>22.0</ele>
        <time>2020-10-11T10:02:54Z</time>
      </trkpt>
      <trkpt lat="37.359824000" lon="-5.915389000">
        <ele>22.2</ele>
        <time>2020-10-11T10:02:56Z</time>
      </trkpt>
      <trkpt lat="37.359794000" lon="-5.915259000">
        <ele>22.4</ele>
        <time>2020-10-11T10:02:58Z</time>
      </trkpt>
      <trkpt lat="37.359764000" lon="-5.915122000">
        <ele>22.5</ele>
        <time>2020-10-11T10:03:00Z</time>
      </trkpt>
      <trkpt lat="37.359733000" lon="-5.914988000">
        <ele>22.7</ele>
        <time>2020-10-11T10:03:02Z</time>
      </trkpt>
      <trkpt lat="37.359708000" lon="-5.914855000">
        <ele>22.9</ele>
        <time>2020-10-11T10:03:04Z</time>
      </trkpt>
      <trkpt lat="37.359686000" lon="-5.914727000">
        <ele>23.0</ele>
        <time>2020-10-11T10:03:06Z</time>
      </trkpt>
      <trkpt lat="37.359661000" lon="-5.914599000">
        <ele>23.1</ele>
        <time>2020-10-11T10:03:08Z</time>
      </trkpt>
      <trkpt lat="37.359649000" lon="-5.914465000">
        <ele>23.2</ele>
        <time>2020-10-11T10:03:10Z</time>
      </trkpt>
      <trkpt lat="37.359638000" lon="-5.914335000">
        <ele>23.3</ele>
        <time>2020-10-11T10:03:12Z</time>
      </trkpt>
      <trkpt lat="37.359632000" lon="-5.914205000">
        <ele>23.4</ele>
        <time>2020-10-11T10:03:14Z</time>
      </trkpt>
      <trkpt lat="37.359631000" lon="-5.914078000">
        <ele>23.5</ele>
        <time>2020-10-11T10:03:16Z</time>
      </trkpt>
      <trkpt lat="37.359641000" lon="-5.913951000">
        <ele>23.5</ele>
        <time>2020-10-11T10:03:18Z</time>
      </trkpt>
      <trkpt lat="37.359656000" lon="-5.913821000">
        <ele>23.5</ele>
        <time>2020-10-11T10:03:20Z</time>
      </trkpt>
      <trkpt lat="37.359665000" lon="-5.913688000">
        <ele>23.4</ele>
        <time>2020-10-11T10:03:22Z</time>
      </trkpt>
      <trkpt lat="37.359672000" lon="-5.913559000">
        <ele>23.2</ele>
        <time>2020-10-11T10:03:24Z</time>
      </trkpt>
      <trkpt lat="37.359693000" lon="-5.913430000">
        <ele>23.0</ele>
        <time>2020-10-11T10:03:26Z</time>
      </trkpt>
      <trkpt lat="37.359704000" lon="-5.913305000">
        <ele>22.8</ele>
        <time>2020-10-11T10:03:28Z</time>
      </trkpt>
      <trkpt lat="37.359719000" lon="-5.913178000">
        <ele>22.6</ele>
        <time>2020-10-11T10:03:30Z</time>
      </trkpt>
      <trkpt lat="37.359725000" lon="-5.913045000">
        <ele>22.5</ele>
        <time>2020-10-11T10:03:32Z</time>
      </trkpt>
      <trkpt lat="37.359734000" lon="-5.912916000">
        <ele>22.2</ele>
        <time>2020-10-11T10:03:34Z</time>
      </trkpt>
      <trkpt lat="37.359745000" lon="-5.912785000">
        <ele>21.9</ele>
        <time>2020-10-11T10:03:36Z</time>
      </trkpt>
      <trkpt lat="37.359756000" lon="-5.912654000">
        <ele>21.5</ele>
        <time>2020-10-11T10:03:38Z</time>
      </trkpt>
      <trkpt lat="37.359763000" lon="-5.912523000">
        <ele>21.0</ele>
        <time>2020-10-11T10:03:40Z</time>
      </trkpt>
      <trkpt lat="37.359776000" lon="-5.912389000">
        <ele>20.6</ele>
        <time>2020-10-11T10:03:42Z</time>
      </trkpt>
      <trkpt lat="37.359788000" lon="-5.912255000">
        <ele>20.3</ele>
        <time>2020-10-11T10:03:44Z</time>
      </trkpt>
      <trkpt lat="37.359794000" lon="-5.912128000">
        <ele>20.0</ele>
        <time>2020-10-11T10:03:46Z</time>
      </trkpt>
      <trkpt lat="37.359804000" lon="-5.911999000">
        <ele>19.8</ele>
        <time>2020-10-11T10:03:48Z</time>
      </trkpt>
      <trkpt lat="37.359812000" lon="-5.911885000">
        <ele>19.8</ele>
        <time>2020-10-11T10:03:50Z</time>
      </trkpt>
      <trkpt lat="37.359820000" lon="-5.911769000">
        <ele>19.8</ele>
        <time>2020-10-11T10:03:52Z</time>
      </trkpt>
      <trkpt lat="37.359826000" lon="-5.911658000">
        <ele>19.9</ele>
        <time>2020-10-11T10:03:54Z</time>
      </trkpt>
      <trkpt lat="37.359835000" lon="-5.911545000">
        <ele>20.1</ele>
        <time>2020-10-11T10:03:56Z</time>
      </trkpt>
      <trkpt lat="37.359843000" lon="-5.911431000">
        <ele>20.3</ele>
        <time>2020-10-11T10:03:58Z</time>
      </trkpt>
      <trkpt lat="37.359841000" lon="-5.911310000">
        <ele>20.5</ele>
        <time>2020-10-11T10:04:00Z</time>
      </trkpt>
      <trkpt lat="37.359839000" lon="-5.911190000">
        <ele>20.9</ele>
        <time>2020-10-11T10:04:02Z</time>
      </trkpt>
      <trkpt lat="37.359833000" lon="-5.911066000">
        <ele>21.2</ele>
        <time>2020-10-11T10:04:04Z</time>
      </trkpt>
      <trkpt lat="37.359818000" lon="-5.910945000">
        <ele>21.5</ele>
        <time>2020-10-11T10:04:06Z</time>
      </trkpt>
      <trkpt lat="37.359803000" lon="-5.910823000">
        <ele>21.7</ele>
        <time>2020-10-11T10:04:08Z</time>
      </trkpt>
      <trkpt lat="37.359778000" lon="-5.910699000">
        <ele>21.8</ele>
        <time>2020-10-11T10:04:10Z</time>
      </trkpt>
      <trkpt lat="37.359741000" lon="-5.910573000">
        <ele>21.8</ele>
        <time>2020-10-11T10:04:12Z</time>
      </trkpt>
      <trkpt lat="37.359704000" lon="-5.910451000">
        <ele>21.8</ele>
        <time>2020-10-11T10:04:14Z</time>
      </trkpt>
      <trkpt lat="37.359661000" lon="-5.910334000">
        <ele>21.6</ele>
        <time>2020-10-11T10:04:16Z</time>
      </trkpt>
      <trkpt lat="37.359604000" lon="-5.910223000">
        <ele>21.5</ele>
        <time>2020-10-11T10:04:18Z</time>
      </trkpt>
      <trkpt lat="37.359552000" lon="-5.910106000">
        <ele>21.5</ele>
        <time>2020-10-11T10:04:20Z</time>
      </trkpt>
      <trkpt lat="37.359493000" lon="-5.909996000">
        <ele>21.4</ele>
        <time>2020-10-11T10:04:22Z</time>
      </trkpt>
      <trkpt lat="37.359434000" lon="-5.909881000">
        <ele>21.3</ele>
        <time>2020-10-11T10:04:24Z</time>
      </trkpt>
      <trkpt lat="37.359377000" lon="-5.909768000">
        <ele>21.4</ele>
        <time>2020-10-11T10:04:26Z</time>
      </trkpt>
      <trkpt lat="37.359322000" lon="-5.909651000">
        <ele>21.5</ele>
        <time>2020-10-11T10:04:28Z</time>
      </trkpt>
      <trkpt lat="37.359271000" lon="-5.909533000">
        <ele>21.6</ele>
        <time>2020-10-11T10:04:30Z</time>
      </trkpt>
      <trkpt lat="37.359225000" lon="-5.909417000">
        <ele>22.0</ele>
        <time>2020-10-11T10:04:32Z</time>
      </trkpt>
      <trkpt lat="37.359171000" lon="-5.909303000">
        <ele>22.4</ele>
        <time>2020-10-11T10:04:34Z</time>
      </trkpt>
      <trkpt lat="37.359113000" lon="-5.909197000">
        <ele>22.6</ele>
        <time>2020-10-11T10:04:36Z</time>
      </trkpt>
      <trkpt lat="37.359040000" lon="-5.909104000">
        <ele>23.0</ele>
        <time>2020-10-11T10:04:38Z</time>
      </trkpt>
      <trkpt lat="37.358978000" lon="-5.909001000">
        <ele>23.2</ele>
        <time>2020-10-11T10:04:40Z</time>
      </trkpt>
      <trkpt lat="37.358927000" lon="-5.908882000">
        <ele>23.3</ele>
        <time>2020-10-11T10:04:42Z</time>
      </trkpt>
      <trkpt lat="37.358871000" lon="-5.908768000">
        <ele>23.4</ele>
        <time>2020-10-11T10:04:44Z</time>
      </trkpt>
      <trkpt lat="37.358824000" lon="-5.908652000">
        <ele>23.3</ele>
        <time>2020-10-11T10:04:46Z</time>
      </trkpt>
      <trkpt lat="37.358771000" lon="-5.908538000">
        <ele>23.1</ele>
        <time>2020-10-11T10:04:48Z</time>
      </trkpt>
      <trkpt lat="37.358716000" lon="-5.908424000">
        <ele>22.9</ele>
        <time>2020-10-11T10:04:50Z</time>
      </trkpt>
      <trkpt lat="37.358655000" lon="-5.908315000">
        <ele>22.6</ele>
        <time>2020-10-11T10:04:52Z</time>
      </trkpt>
      <trkpt lat="37.358601000" lon="-5.908200000">
        <ele>22.4</ele>
        <time>2020-10-11T10:04:54Z</time>
      </trkpt>
      <trkpt lat="37.358546000" lon="-5.908083000">
        <ele>22.1</ele>
        <time>2020-10-11T10:04:56Z</time>
      </trkpt>
      <trkpt lat="37.358496000" lon="-5.907972000">
        <ele>21.8</ele>
        <time>2020-10-11T10:04:58Z</time>
      </trkpt>
      <trkpt lat="37.358439000" lon="-5.907858000">
        <ele>21.5</ele>
        <time>2020-10-11T10:05:00Z</time>
      </trkpt>
      <trkpt lat="37.358384000" lon="-5.907746000">
        <ele>21.4</ele>
        <time>2020-10-11T10:05:02Z</time>
      </trkpt>
      <trkpt lat="37.358332000" lon="-5.907631000">
        <ele>21.3</ele>
        <time>2020-10-11T10:05:04Z</time>
      </trkpt>
      <trkpt lat="37.358284000" lon="-5.907510000">
        <ele>21.1</ele>
        <time>2020-10-11T10:05:06Z</time>
      </trkpt>
      <trkpt lat="37.358235000" lon="-5.907390000">
        <ele>21.0</ele>
        <time>2020-10-11T10:05:08Z</time>
      </trkpt>
      <trkpt lat="37.358191000" lon="-5.907262000">
        <ele>20.9</ele>
        <time>2020-10-11T10:05:10Z</time>
      </trkpt>
      <trkpt lat="37.358155000" lon="-5.907139000">
        <ele>20.8</ele>
        <time>2020-10-11T10:05:12Z</time>
      </trkpt>
      <trkpt lat="37.358151000" lon="-5.907006000">
        <ele>20.7</ele>
        <time>2020-10-11T10:05:14Z</time>
      </trkpt>
      <trkpt lat="37.358161000" lon="-5.906877000">
        <ele>20.6</ele>
        <time>2020-10-11T10:05:16Z</time>
      </trkpt>
      <trkpt lat="37.358172000" lon="-5.906746000">
        <ele>20.5</ele>
        <time>2020-10-11T10:05:18Z</time>
      </trkpt>
      <trkpt lat="37.358198000" lon="-5.906626000">
        <ele>20.5</ele>
        <time>2020-10-11T10:05:20Z</time>
      </trkpt>
      <trkpt lat="37.358230000" lon="-5.906512000">
        <ele>20.5</ele>
        <time>2020-10-11T10:05:24Z</time>
      </trkpt>
      <trkpt lat="37.358302000" lon="-5.906350000">
        <ele>20.5</ele>
        <time>2020-10-11T10:05:25Z</time>
      </trkpt>
      <trkpt lat="37.358359000" lon="-5.906249000">
        <ele>20.5</ele>
        <time>2020-10-11T10:05:27Z</time>
      </trkpt>
      <trkpt lat="37.358424000" lon="-5.906164000">
        <ele>20.6</ele>
        <time>2020-10-11T10:05:29Z</time>
      </trkpt>
      <trkpt lat="37.358492000" lon="-5.906080000">
        <ele>20.7</ele>
        <time>2020-10-11T10:05:31Z</time>
      </trkpt>
      <trkpt lat="37.358561000" lon="-5.906004000">
        <ele>20.8</ele>
        <time>2020-10-11T10:05:33Z</time>
      </trkpt>
      <trkpt lat="37.358646000" lon="-5.905940000">
        <ele>21.0</ele>
        <time>2020-10-11T10:05:35Z</time>
      </trkpt>
      <trkpt lat="37.358729000" lon="-5.905879000">
        <ele>21.2</ele>
        <time>2020-10-11T10:05:37Z</time>
      </trkpt>
      <trkpt lat="37.358809000" lon="-5.905824000">
        <ele>21.3</ele>
        <time>2020-10-11T10:05:39Z</time>
      </trkpt>
      <trkpt lat="37.358894000" lon="-5.905769000">
        <ele>21.4</ele>
        <time>2020-10-11T10:05:41Z</time>
      </trkpt>
      <trkpt lat="37.358976000" lon="-5.905724000">
        <ele>21.4</ele>
        <time>2020-10-11T10:05:43Z</time>
      </trkpt>
      <trkpt lat="37.359055000" lon="-5.905684000">
        <ele>21.4</ele>
        <time>2020-10-11T10:05:45Z</time>
      </trkpt>
      <trkpt lat="37.359152000" lon="-5.905619000">
        <ele>21.2</ele>
        <time>2020-10-11T10:05:48Z</time>
      </trkpt>
      <trkpt lat="37.359234000" lon="-5.905572000">
        <ele>20.9</ele>
        <time>2020-10-11T10:05:51Z</time>
      </trkpt>
      <trkpt lat="37.359316000" lon="-5.905519000">
        <ele>20.5</ele>
        <time>2020-10-11T10:05:54Z</time>
      </trkpt>
      <trkpt lat="37.359392000" lon="-5.905470000">
        <ele>20.1</ele>
        <time>2020-10-11T10:05:57Z</time>
      </trkpt>
      <trkpt lat="37.359470000" lon="-5.905409000">
        <ele>19.5</ele>
        <time>2020-10-11T10:06:00Z</time>
      </trkpt>
      <trkpt lat="37.359553000" lon="-5.905345000">
        <ele>18.9</ele>
        <time>2020-10-11T10:06:03Z</time>
      </trkpt>
      <trkpt lat="37.359632000" lon="-5.905279000">
        <ele>18.2</ele>
        <time>2020-10-11T10:06:06Z</time>
      </trkpt>
      <trkpt lat="37.359690000" lon="-5.905208000">
        <ele>17.5</ele>
        <time>2020-10-11T10:06:09Z</time>
      </trkpt>
      <trkpt lat="37.359734000" lon="-5.905117000">
        <ele>16.7</ele>
        <time>2020-10-11T10:06:15Z</time>
      </trkpt>
      <trkpt lat="37.359829000" lon="-5.905065000">
        <ele>16.1</ele>
        <time>2020-10-11T10:06:19Z</time>
      </trkpt>
      <trkpt lat="37.359909000" lon="-5.905013000">
        <ele>15.5</ele>
        <time>2020-10-11T10:06:22Z</time>
      </trkpt>
      <trkpt lat="37.360002000" lon="-5.904965000">
        <ele>14.9</ele>
        <time>2020-10-11T10:06:25Z</time>
      </trkpt>
      <trkpt lat="37.360101000" lon="-5.904904000">
        <ele>14.5</ele>
        <time>2020-10-11T10:06:28Z</time>
      </trkpt>
      <trkpt lat="37.360205000" lon="-5.904844000">
        <ele>14.1</ele>
        <time>2020-10-11T10:06:31Z</time>
      </trkpt>
      <trkpt lat="37.360313000" lon="-5.904791000">
        <ele>13.9</ele>
        <time>2020-10-11T10:06:34Z</time>
      </trkpt>
      <trkpt lat="37.360412000" lon="-5.904721000">
        <ele>13.8</ele>
        <time>2020-10-11T10:06:37Z</time>
      </trkpt>
      <trkpt lat="37.360484000" lon="-5.904673000">
        <ele>13.7</ele>
        <time>2020-10-11T10:06:39Z</time>
      </trkpt>
      <trkpt lat="37.360560000" lon="-5.904632000">
        <ele>13.7</ele>
        <time>2020-10-11T10:06:41Z</time>
      </trkpt>
      <trkpt lat="37.360633000" lon="-5.904586000">
        <ele>13.7</ele>
        <time>2020-10-11T10:06:43Z</time>
      </trkpt>
      <trkpt lat="37.360725000" lon="-5.904552000">
        <ele>13.6</ele>
        <time>2020-10-11T10:06:46Z</time>
      </trkpt>
      <trkpt lat="37.360817000" lon="-5.904486000">
        <ele>13.6</ele>
        <time>2020-10-11T10:06:49Z</time>
      </trkpt>
      <trkpt lat="37.360915000" lon="-5.904430000">
        <ele>13.6</ele>
        <time>2020-10-11T10:06:52Z</time>
      </trkpt>
      <trkpt lat="37.361015000" lon="-5.904378000">
        <ele>13.7</ele>
        <time>2020-10-11T10:06:55Z</time>
      </trkpt>
      <trkpt lat="37.361111000" lon="-5.904325000">
        <ele>13.9</ele>
        <time>2020-10-11T10:06:58Z</time>
      </trkpt>
      <trkpt lat="37.361201000" lon="-5.904256000">
        <ele>14.2</ele>
        <time>2020-10-11T10:07:01Z</time>
      </trkpt>
      <trkpt lat="37.361296000" lon="-5.904198000">
        <ele>14.4</ele>
        <time>2020-10-11T10:07:04Z</time>
      </trkpt>
      <trkpt lat="37.361386000" lon="-5.904142000">
        <ele>14.5</ele>
        <time>2020-10-11T10:07:07Z</time>
      </trkpt>
      <trkpt lat="37.361475000" lon="-5.904090000">
        <ele>14.7</ele>
        <time>2020-10-11T10:07:10Z</time>
      </trkpt>
      <trkpt lat="37.361584000" lon="-5.904024000">
        <ele>14.9</ele>
        <time>2020-10-11T10:07:13Z</time>
      </trkpt>
      <trkpt lat="37.361660000" lon="-5.903983000">
        <ele>15.1</ele>
        <time>2020-10-11T10:07:15Z</time>
      </trkpt>
      <trkpt lat="37.361736000" lon="-5.903947000">
        <ele>15.4</ele>
        <time>2020-10-11T10:07:17Z</time>
      </trkpt>
      <trkpt lat="37.361833000" lon="-5.903884000">
        <ele>15.5</ele>
        <time>2020-10-11T10:07:20Z</time>
      </trkpt>
      <trkpt lat="37.361926000" lon="-5.903831000">
        <ele>15.7</ele>
        <time>2020-10-11T10:07:23Z</time>
      </trkpt>
      <trkpt lat="37.362029000" lon="-5.903762000">
        <ele>15.9</ele>
        <time>2020-10-11T10:07:26Z</time>
      </trkpt>
      <trkpt lat="37.362139000" lon="-5.903707000">
        <ele>16.0</ele>
        <time>2020-10-11T10:07:29Z</time>
      </trkpt>
      <trkpt lat="37.362239000" lon="-5.903653000">
        <ele>16.0</ele>
        <time>2020-10-11T10:07:32Z</time>
      </trkpt>
      <trkpt lat="37.362340000" lon="-5.903586000">
        <ele>16.0</ele>
        <time>2020-10-11T10:07:35Z</time>
      </trkpt>
      <trkpt lat="37.362440000" lon="-5.903532000">
        <ele>15.9</ele>
        <time>2020-10-11T10:07:38Z</time>
      </trkpt>
      <trkpt lat="37.362528000" lon="-5.903477000">
        <ele>15.9</ele>
        <time>2020-10-11T10:07:41Z</time>
      </trkpt>
      <trkpt lat="37.362607000" lon="-5.903436000">
        <ele>15.9</ele>
        <time>2020-10-11T10:07:44Z</time>
      </trkpt>
      <trkpt lat="37.362693000" lon="-5.903394000">
        <ele>16.0</ele>
        <time>2020-10-11T10:07:48Z</time>
      </trkpt>
      <trkpt lat="37.362781000" lon="-5.903336000">
        <ele>16.1</ele>
        <time>2020-10-11T10:07:54Z</time>
      </trkpt>
      <trkpt lat="37.362870000" lon="-5.903297000">
        <ele>16.2</ele>
        <time>2020-10-11T10:07:58Z</time>
      </trkpt>
      <trkpt lat="37.362831000" lon="-5.903186000">
        <ele>16.3</ele>
        <time>2020-10-11T10:08:04Z</time>
      </trkpt>
      <trkpt lat="37.362737000" lon="-5.903178000">
        <ele>16.4</ele>
        <time>2020-10-11T10:08:08Z</time>
      </trkpt>
      <trkpt lat="37.362655000" lon="-5.903204000">
        <ele>16.5</ele>
        <time>2020-10-11T10:08:11Z</time>
      </trkpt>
      <trkpt lat="37.362577000" lon="-5.903246000">
        <ele>16.5</ele>
        <time>2020-10-11T10:08:14Z</time>
      </trkpt>
      <trkpt lat="37.362483000" lon="-5.903299000">
        <ele>16.4</ele>
        <time>2020-10-11T10:08:18Z</time>
      </trkpt>
      <trkpt lat="37.362398000" lon="-5.903344000">
        <ele>16.4</ele>
        <time>2020-10-11T10:08:22Z</time>
      </trkpt>
      <trkpt lat="37.362300000" lon="-5.903395000">
        <ele>16.3</ele>
        <time>2020-10-11T10:08:26Z</time>
      </trkpt>
      <trkpt lat="37.362224000" lon="-5.903434000">
        <ele>16.2</ele>
        <time>2020-10-11T10:08:28Z</time>
      </trkpt>
      <trkpt lat="37.362133000" lon="-5.903486000">
        <ele>16.0</ele>
        <time>2020-10-11T10:08:30Z</time>
      </trkpt>
      <trkpt lat="37.362044000" lon="-5.903529000">
        <ele>15.8</ele>
        <time>2020-10-11T10:08:32Z</time>
      </trkpt>
      <trkpt lat="37.361954000" lon="-5.903570000">
        <ele>15.6</ele>
        <time>2020-10-11T10:08:34Z</time>
      </trkpt>
      <trkpt lat="37.361859000" lon="-5.903605000">
        <ele>15.4</ele>
        <time>2020-10-11T10:08:36Z</time>
      </trkpt>
      <trkpt lat="37.361763000" lon="-5.903636000">
        <ele>15.1</ele>
        <time>2020-10-11T10:08:38Z</time>
      </trkpt>
      <trkpt lat="37.361667000" lon="-5.903666000">
        <ele>14.8</ele>
        <time>2020-10-11T10:08:40Z</time>
      </trkpt>
      <trkpt lat="37.361587000" lon="-5.903702000">
        <ele>14.6</ele>
        <time>2020-10-11T10:08:42Z</time>
      </trkpt>
      <trkpt lat="37.361511000" lon="-5.903742000">
        <ele>14.5</ele>
        <time>2020-10-11T10:08:44Z</time>
      </trkpt>
      <trkpt lat="37.361403000" lon="-5.903768000">
        <ele>14.5</ele>
        <time>2020-10-11T10:08:47Z</time>
      </trkpt>
      <trkpt lat="37.361322000" lon="-5.903722000">
        <ele>14.4</ele>
        <time>2020-10-11T10:08:49Z</time>
      </trkpt>
      <trkpt lat="37.361240000" lon="-5.903663000">
        <ele>14.2</ele>
        <time>2020-10-11T10:08:51Z</time>
      </trkpt>
      <trkpt lat="37.361163000" lon="-5.903590000">
        <ele>14.0</ele>
        <time>2020-10-11T10:08:53Z</time>
      </trkpt>
      <trkpt lat="37.361098000" lon="-5.903502000">
        <ele>13.7</ele>
        <time>2020-10-11T10:08:55Z</time>
      </trkpt>
      <trkpt lat="37.361041000" lon="-5.903411000">
        <ele>13.3</ele>
        <time>2020-10-11T10:08:57Z</time>
      </trkpt>
      <trkpt lat="37.360987000" lon="-5.903317000">
        <ele>12.8</ele>
        <time>2020-10-11T10:08:59Z</time>
      </trkpt>
      <trkpt lat="37.360924000" lon="-5.903221000">
        <ele>12.3</ele>
        <time>2020-10-11T10:09:01Z</time>
      </trkpt>
      <trkpt lat="37.360869000" lon="-5.903127000">
        <ele>11.6</ele>
        <time>2020-10-11T10:09:03Z</time>
      </trkpt>
      <trkpt lat="37.360818000" lon="-5.903032000">
        <ele>10.9</ele>
        <time>2020-10-11T10:09:05Z</time>
      </trkpt>
      <trkpt lat="37.360764000" lon="-5.902930000">
        <ele>10.2</ele>
        <time>2020-10-11T10:09:07Z</time>
      </trkpt>
      <trkpt lat="37.360714000" lon="-5.902831000">
        <ele>9.5</ele>
        <time>2020-10-11T10:09:09Z</time>
      </trkpt>
      <trkpt lat="37.360664000" lon="-5.902735000">
        <ele>8.7</ele>
        <time>2020-10-11T10:09:11Z</time>
      </trkpt>
      <trkpt lat="37.360603000" lon="-5.902635000">
        <ele>8.1</ele>
        <time>2020-10-11T10:09:13Z</time>
      </trkpt>
      <trkpt lat="37.360542000" lon="-5.902537000">
        <ele>7.6</ele>
        <time>2020-10-11T10:09:15Z</time>
      </trkpt>
      <trkpt lat="37.360476000" lon="-5.902446000">
        <ele>7.3</ele>
        <time>2020-10-11T10:09:17Z</time>
      </trkpt>
      <trkpt lat="37.360411000" lon="-5.902353000">
        <ele>7.2</ele>
        <time>2020-10-11T10:09:19Z</time>
      </trkpt>
      <trkpt lat="37.360344000" lon="-5.902260000">
        <ele>7.3</ele>
        <time>2020-10-11T10:09:21Z</time>
      </trkpt>
      <trkpt lat="37.360275000" lon="-5.902160000">
        <ele>7.5</ele>
        <time>2020-10-11T10:09:23Z</time>
      </trkpt>
      <trkpt lat="37.360216000" lon="-5.902058000">
        <ele>8.0</ele>
        <time>2020-10-11T10:09:25Z</time>
      </trkpt>
      <trkpt lat="37.360160000" lon="-5.901959000">
        <ele>8.6</ele>
        <time>2020-10-11T10:09:27Z</time>
      </trkpt>
      <trkpt lat="37.360101000" lon="-5.901848000">
        <ele>9.3</ele>
        <time>2020-10-11T10:09:29Z</time>
      </trkpt>
      <trkpt lat="37.360058000" lon="-5.901730000">
        <ele>9.9</ele>
        <time>2020-10-11T10:09:31Z</time>
      </trkpt>
      <trkpt lat="37.360024000" lon="-5.901618000">
        <ele>10.5</ele>
        <time>2020-10-11T10:09:33Z</time>
      </trkpt>
      <trkpt lat="37.359992000" lon="-5.901501000">
        <ele>11.2</ele>
        <time>2020-10-11T10:09:35Z</time>
      </trkpt>
      <trkpt lat="37.359966000" lon="-5.901379000">
        <ele>11.6</ele>
        <time>2020-10-11T10:09:37Z</time>
      </trkpt>
      <trkpt lat="37.359940000" lon="-5.901257000">
        <ele>12.1</ele>
        <time>2020-10-11T10:09:39Z</time>
      </trkpt>
      <trkpt lat="37.359916000" lon="-5.901141000">
        <ele>12.5</ele>
        <time>2020-10-11T10:09:41Z</time>
      </trkpt>
      <trkpt lat="37.359887000" lon="-5.901024000">
        <ele>12.7</ele>
        <time>2020-10-11T10:09:43Z</time>
      </trkpt>
      <trkpt lat="37.359859000" lon="-5.900906000">
        <ele>12.8</ele>
        <time>2020-10-11T10:09:45Z</time>
      </trkpt>
      <trkpt lat="37.359842000" lon="-5.900786000">
        <ele>12.8</ele>
        <time>2020-10-11T10:09:47Z</time>
      </trkpt>
      <trkpt lat="37.359820000" lon="-5.900665000">
        <ele>12.7</ele>
        <time>2020-10-11T10:09:49Z</time>
      </trkpt>
      <trkpt lat="37.359796000" lon="-5.900546000">
        <ele>12.5</ele>
        <time>2020-10-11T10:09:51Z</time>
      </trkpt>
      <trkpt lat="37.359778000" lon="-5.900438000">
        <ele>12.4</ele>
        <time>2020-10-11T10:09:53Z</time>
      </trkpt>
      <trkpt lat="37.359758000" lon="-5.900334000">
        <ele>12.2</ele>
        <time>2020-10-11T10:09:55Z</time>
      </trkpt>
      <trkpt lat="37.359758000" lon="-5.900225000">
        <ele>12.0</ele>
        <time>2020-10-11T10:09:57Z</time>
      </trkpt>
      <trkpt lat="37.359758000" lon="-5.900118000">
        <ele>11.8</ele>
        <time>2020-10-11T10:09:59Z</time>
      </trkpt>
      <trkpt lat="37.359726000" lon="-5.900014000">
        <ele>11.6</ele>
        <time>2020-10-11T10:10:01Z</time>
      </trkpt>
      <trkpt lat="37.359692000" lon="-5.899872000">
        <ele>11.5</ele>
        <time>2020-10-11T10:10:04Z</time>
      </trkpt>
      <trkpt lat="37.359675000" lon="-5.899740000">
        <ele>11.3</ele>
        <time>2020-10-11T10:10:07Z</time>
      </trkpt>
      <trkpt lat="37.359671000" lon="-5.899634000">
        <ele>11.1</ele>
        <time>2020-10-11T10:10:33Z</time>
      </trkpt>
      <trkpt lat="37.359664000" lon="-5.899502000">
        <ele>10.9</ele>
        <time>2020-10-11T10:10:38Z</time>
      </trkpt>
      <trkpt lat="37.359643000" lon="-5.899377000">
        <ele>10.8</ele>
        <time>2020-10-11T10:10:41Z</time>
      </trkpt>
      <trkpt lat="37.359622000" lon="-5.899237000">
        <ele>10.8</ele>
        <time>2020-10-11T10:10:44Z</time>
      </trkpt>
      <trkpt lat="37.359586000" lon="-5.899092000">
        <ele>10.8</ele>
        <time>2020-10-11T10:10:47Z</time>
      </trkpt>
      <trkpt lat="37.359538000" lon="-5.898956000">
        <ele>10.8</ele>
        <time>2020-10-11T10:10:50Z</time>
      </trkpt>
      <trkpt lat="37.359501000" lon="-5.898852000">
        <ele>10.8</ele>
        <time>2020-10-11T10:10:52Z</time>
      </trkpt>
      <trkpt lat="37.359465000" lon="-5.898744000">
        <ele>10.8</ele>
        <time>2020-10-11T10:10:54Z</time>
      </trkpt>
      <trkpt lat="37.359422000" lon="-5.898632000">
        <ele>10.7</ele>
        <time>2020-10-11T10:10:56Z</time>
      </trkpt>
      <trkpt lat="37.359386000" lon="-5.898515000">
        <ele>10.7</ele>
        <time>2020-10-11T10:10:58Z</time>
      </trkpt>
      <trkpt lat="37.359343000" lon="-5.898400000">
        <ele>10.7</ele>
        <time>2020-10-11T10:11:00Z</time>
      </trkpt>
      <trkpt lat="37.359304000" lon="-5.898287000">
        <ele>10.9</ele>
        <time>2020-10-11T10:11:02Z</time>
      </trkpt>
      <trkpt lat="37.359270000" lon="-5.898163000">
        <ele>11.2</ele>
        <time>2020-10-11T10:11:04Z</time>
      </trkpt>
      <trkpt lat="37.359240000" lon="-5.898035000">
        <ele>11.5</ele>
        <time>2020-10-11T10:11:06Z</time>
      </trkpt>
      <trkpt lat="37.359221000" lon="-5.897901000">
        <ele>11.7</ele>
        <time>2020-10-11T10:11:08Z</time>
      </trkpt>
      <trkpt lat="37.359202000" lon="-5.897775000">
        <ele>12.1</ele>
        <time>2020-10-11T10:11:10Z</time>
      </trkpt>
      <trkpt lat="37.359194000" lon="-5.897648000">
        <ele>12.5</ele>
        <time>2020-10-11T10:11:12Z</time>
      </trkpt>
      <trkpt lat="37.359191000" lon="-5.897533000">
        <ele>13.0</ele>
        <time>2020-10-11T10:11:14Z</time>
      </trkpt>
      <trkpt lat="37.359198000" lon="-5.897426000">
        <ele>13.4</ele>
        <time>2020-10-11T10:11:16Z</time>
      </trkpt>
      <trkpt lat="37.359204000" lon="-5.897317000">
        <ele>13.8</ele>
        <time>2020-10-11T10:11:18Z</time>
      </trkpt>
      <trkpt lat="37.359206000" lon="-5.897169000">
        <ele>14.1</ele>
        <time>2020-10-11T10:11:21Z</time>
      </trkpt>
      <trkpt lat="37.359181000" lon="-5.897019000">
        <ele>14.3</ele>
        <time>2020-10-11T10:11:24Z</time>
      </trkpt>
      <trkpt lat="37.359123000" lon="-5.896928000">
        <ele>14.4</ele>
        <time>2020-10-11T10:11:26Z</time>
      </trkpt>
      <trkpt lat="37.359049000" lon="-5.896856000">
        <ele>14.3</ele>
        <time>2020-10-11T10:11:28Z</time>
      </trkpt>
      <trkpt lat="37.358979000" lon="-5.896776000">
        <ele>14.0</ele>
        <time>2020-10-11T10:11:30Z</time>
      </trkpt>
      <trkpt lat="37.358914000" lon="-5.896683000">
        <ele>13.7</ele>
        <time>2020-10-11T10:11:32Z</time>
      </trkpt>
      <trkpt lat="37.358836000" lon="-5.896596000">
        <ele>13.4</ele>
        <time>2020-10-11T10:11:34Z</time>
      </trkpt>
      <trkpt lat="37.358761000" lon="-5.896509000">
        <ele>13.0</ele>
        <time>2020-10-11T10:11:36Z</time>
      </trkpt>
      <trkpt lat="37.358684000" lon="-5.896417000">
        <ele>12.6</ele>
        <time>2020-10-11T10:11:38Z</time>
      </trkpt>
      <trkpt lat="37.358622000" lon="-5.896322000">
        <ele>12.4</ele>
        <time>2020-10-11T10:11:40Z</time>
      </trkpt>
      <trkpt lat="37.358566000" lon="-5.896220000">
        <ele>12.2</ele>
        <time>2020-10-11T10:11:42Z</time>
      </trkpt>
      <trkpt lat="37.358515000" lon="-5.896118000">
        <ele>12.1</ele>
        <time>2020-10-11T10:11:44Z</time>
      </trkpt>
      <trkpt lat="37.358471000" lon="-5.896014000">
        <ele>12.2</ele>
        <time>2020-10-11T10:11:46Z</time>
      </trkpt>
      <trkpt lat="37.358413000" lon="-5.895908000">
        <ele>12.3</ele>
        <time>2020-10-11T10:11:48Z</time>
      </trkpt>
      <trkpt lat="37.358333000" lon="-5.895829000">
        <ele>12.5</ele>
        <time>2020-10-11T10:11:50Z</time>
      </trkpt>
      <trkpt lat="37.358252000" lon="-5.895766000">
        <ele>12.7</ele>
        <time>2020-10-11T10:11:52Z</time>
      </trkpt>
      <trkpt lat="37.358176000" lon="-5.895688000">
        <ele>12.9</ele>
        <time>2020-10-11T10:11:54Z</time>
      </trkpt>
      <trkpt lat="37.358098000" lon="-5.895609000">
        <ele>13.1</ele>
        <time>2020-10-11T10:11:56Z</time>
      </trkpt>
      <trkpt lat="37.358014000" lon="-5.895533000">
        <ele>13.1</ele>
        <time>2020-10-11T10:11:58Z</time>
      </trkpt>
      <trkpt lat="37.357937000" lon="-5.895455000">
        <ele>13.1</ele>
        <time>2020-10-11T10:12:00Z</time>
      </trkpt>
      <trkpt lat="37.357859000" lon="-5.895375000">
        <ele>13.1</ele>
        <time>2020-10-11T10:12:02Z</time>
      </trkpt>
      <trkpt lat="37.357784000" lon="-5.895294000">
        <ele>13.0</ele>
        <time>2020-10-11T10:12:04Z</time>
      </trkpt>
      <trkpt lat="37.357711000" lon="-5.895218000">
        <ele>12.9</ele>
        <time>2020-10-11T10:12:06Z</time>
      </trkpt>
      <trkpt lat="37.357635000" lon="-5.895135000">
        <ele>12.7</ele>
        <time>2020-10-11T10:12:08Z</time>
      </trkpt>
      <trkpt lat="37.357564000" lon="-5.895047000">
        <ele>12.5</ele>
        <time>2020-10-11T10:12:10Z</time>
      </trkpt>
      <trkpt lat="37.357490000" lon="-5.894957000">
        <ele>12.2</ele>
        <time>2020-10-11T10:12:12Z</time>
      </trkpt>
      <trkpt lat="37.357417000" lon="-5.894859000">
        <ele>11.9</ele>
        <time>2020-10-11T10:12:14Z</time>
      </trkpt>
      <trkpt lat="37.357351000" lon="-5.894748000">
        <ele>11.7</ele>
        <time>2020-10-11T10:12:16Z</time>
      </trkpt>
      <trkpt lat="37.357282000" lon="-5.894641000">
        <ele>11.5</ele>
        <time>2020-10-11T10:12:18Z</time>
      </trkpt>
      <trkpt lat="37.357217000" lon="-5.894527000">
        <ele>11.5</ele>
        <time>2020-10-11T10:12:20Z</time>
      </trkpt>
      <trkpt lat="37.357154000" lon="-5.894411000">
        <ele>11.5</ele>
        <time>2020-10-11T10:12:22Z</time>
      </trkpt>
      <trkpt lat="37.357101000" lon="-5.894297000">
        <ele>11.5</ele>
        <time>2020-10-11T10:12:24Z</time>
      </trkpt>
      <trkpt lat="37.357037000" lon="-5.894187000">
        <ele>11.4</ele>
        <time>2020-10-11T10:12:26Z</time>
      </trkpt>
      <trkpt lat="37.356978000" lon="-5.894071000">
        <ele>11.3</ele>
        <time>2020-10-11T10:12:28Z</time>
      </trkpt>
      <trkpt lat="37.356912000" lon="-5.893960000">
        <ele>11.2</ele>
        <time>2020-10-11T10:12:30Z</time>
      </trkpt>
      <trkpt lat="37.356852000" lon="-5.893852000">
        <ele>11.2</ele>
        <time>2020-10-11T10:12:32Z</time>
      </trkpt>
      <trkpt lat="37.356792000" lon="-5.893744000">
        <ele>11.3</ele>
        <time>2020-10-11T10:12:34Z</time>
      </trkpt>
      <trkpt lat="37.356727000" lon="-5.893635000">
        <ele>11.5</ele>
        <time>2020-10-11T10:12:36Z</time>
      </trkpt>
      <trkpt lat="37.356672000" lon="-5.893519000">
        <ele>11.6</ele>
        <time>2020-10-11T10:12:38Z</time>
      </trkpt>
      <trkpt lat="37.356621000" lon="-5.893411000">
        <ele>11.9</ele>
        <time>2020-10-11T10:12:40Z</time>
      </trkpt>
      <trkpt lat="37.356559000" lon="-5.893300000">
        <ele>12.1</ele>
        <time>2020-10-11T10:12:42Z</time>
      </trkpt>
      <trkpt lat="37.356495000" lon="-5.893192000">
        <ele>12.3</ele>
        <time>2020-10-11T10:12:44Z</time>
      </trkpt>
      <trkpt lat="37.356425000" lon="-5.893089000">
        <ele>12.5</ele>
        <time>2020-10-11T10:12:46Z</time>
      </trkpt>
      <trkpt lat="37.356360000" lon="-5.892981000">
        <ele>12.5</ele>
        <time>2020-10-11T10:12:48Z</time>
      </trkpt>
      <trkpt lat="37.356299000" lon="-5.892875000">
        <ele>12.5</ele>
        <time>2020-10-11T10:12:50Z</time>
      </trkpt>
      <trkpt lat="37.356248000" lon="-5.892754000">
        <ele>12.5</ele>
        <time>2020-10-11T10:12:52Z</time>
      </trkpt>
      <trkpt lat="37.356198000" lon="-5.892622000">
        <ele>12.4</ele>
        <time>2020-10-11T10:12:54Z</time>
      </trkpt>
      <trkpt lat="37.356137000" lon="-5.892498000">
        <ele>12.1</ele>
        <time>2020-10-11T10:12:56Z</time>
      </trkpt>
      <trkpt lat="37.356075000" lon="-5.892381000">
        <ele>11.8</ele>
        <time>2020-10-11T10:12:58Z</time>
      </trkpt>
      <trkpt lat="37.356014000" lon="-5.892262000">
        <ele>11.5</ele>
        <time>2020-10-11T10:13:00Z</time>
      </trkpt>
      <trkpt lat="37.355956000" lon="-5.892141000">
        <ele>11.3</ele>
        <time>2020-10-11T10:13:02Z</time>
      </trkpt>
      <trkpt lat="37.355896000" lon="-5.892014000">
        <ele>11.0</ele>
        <time>2020-10-11T10:13:04Z</time>
      </trkpt>
      <trkpt lat="37.355836000" lon="-5.891891000">
        <ele>10.7</ele>
        <time>2020-10-11T10:13:06Z</time>
      </trkpt>
      <trkpt lat="37.355774000" lon="-5.891771000">
        <ele>10.6</ele>
        <time>2020-10-11T10:13:08Z</time>
      </trkpt>
      <trkpt lat="37.355715000" lon="-5.891649000">
        <ele>10.6</ele>
        <time>2020-10-11T10:13:10Z</time>
      </trkpt>
      <trkpt lat="37.355660000" lon="-5.891520000">
        <ele>10.7</ele>
        <time>2020-10-11T10:13:12Z</time>
      </trkpt>
      <trkpt lat="37.355606000" lon="-5.891399000">
        <ele>10.9</ele>
        <time>2020-10-11T10:13:14Z</time>
      </trkpt>
      <trkpt lat="37.355564000" lon="-5.891284000">
        <ele>11.1</ele>
        <time>2020-10-11T10:13:16Z</time>
      </trkpt>
      <trkpt lat="37.355513000" lon="-5.891170000">
        <ele>11.4</ele>
        <time>2020-10-11T10:13:18Z</time>
      </trkpt>
      <trkpt lat="37.355443000" lon="-5.891061000">
        <ele>11.5</ele>
        <time>2020-10-11T10:13:20Z</time>
      </trkpt>
      <trkpt lat="37.355374000" lon="-5.890951000">
        <ele>11.7</ele>
        <time>2020-10-11T10:13:22Z</time>
      </trkpt>
      <trkpt lat="37.355310000" lon="-5.890831000">
        <ele>11.8</ele>
        <time>2020-10-11T10:13:24Z</time>
      </trkpt>
      <trkpt lat="37.355265000" lon="-5.890701000">
        <ele>11.9</ele>
        <time>2020-10-11T10:13:26Z</time>
      </trkpt>
      <trkpt lat="37.355228000" lon="-5.890573000">
        <ele>12.0</ele>
        <time>2020-10-11T10:13:28Z</time>
      </trkpt>
      <trkpt lat="37.355197000" lon="-5.890445000">
        <ele>12.0</ele>
        <time>2020-10-11T10:13:30Z</time>
      </trkpt>
      <trkpt lat="37.355178000" lon="-5.890320000">
        <ele>12.0</ele>
        <time>2020-10-11T10:13:32Z</time>
      </trkpt>
      <trkpt lat="37.355156000" lon="-5.890197000">
        <ele>12.0</ele>
        <time>2020-10-11T10:13:34Z</time>
      </trkpt>
      <trkpt lat="37.355133000" lon="-5.890082000">
        <ele>12.0</ele>
        <time>2020-10-11T10:13:36Z</time>
      </trkpt>
      <trkpt lat="37.355123000" lon="-5.889970000">
        <ele>12.0</ele>
        <time>2020-10-11T10:13:38Z</time>
      </trkpt>
      <trkpt lat="37.355118000" lon="-5.889849000">
        <ele>11.9</ele>
        <time>2020-10-11T10:13:40Z</time>
      </trkpt>
      <trkpt lat="37.355108000" lon="-5.889738000">
        <ele>11.8</ele>
        <time>2020-10-11T10:13:42Z</time>
      </trkpt>
      <trkpt lat="37.355097000" lon="-5.889628000">
        <ele>11.8</ele>
        <time>2020-10-11T10:13:44Z</time>
      </trkpt>
      <trkpt lat="37.355086000" lon="-5.889521000">
        <ele>11.9</ele>
        <time>2020-10-11T10:13:46Z</time>
      </trkpt>
      <trkpt lat="37.355071000" lon="-5.889414000">
        <ele>12.0</ele>
        <time>2020-10-11T10:13:48Z</time>
      </trkpt>
      <trkpt lat="37.355043000" lon="-5.889268000">
        <ele>12.2</ele>
        <time>2020-10-11T10:13:51Z</time>
      </trkpt>
      <trkpt lat="37.355029000" lon="-5.889167000">
        <ele>12.5</ele>
        <time>2020-10-11T10:13:53Z</time>
      </trkpt>
      <trkpt lat="37.355012000" lon="-5.889062000">
        <ele>12.7</ele>
        <time>2020-10-11T10:13:55Z</time>
      </trkpt>
      <trkpt lat="37.354997000" lon="-5.888957000">
        <ele>13.0</ele>
        <time>2020-10-11T10:13:57Z</time>
      </trkpt>
      <trkpt lat="37.354976000" lon="-5.888854000">
        <ele>13.3</ele>
        <time>2020-10-11T10:13:59Z</time>
      </trkpt>
      <trkpt lat="37.354948000" lon="-5.888752000">
        <ele>13.5</ele>
        <time>2020-10-11T10:14:01Z</time>
      </trkpt>
      <trkpt lat="37.354915000" lon="-5.888646000">
        <ele>13.9</ele>
        <time>2020-10-11T10:14:03Z</time>
      </trkpt>
      <trkpt lat="37.354883000" lon="-5.888540000">
        <ele>14.3</ele>
        <time>2020-10-11T10:14:05Z</time>
      </trkpt>
      <trkpt lat="37.354849000" lon="-5.888430000">
        <ele>14.5</ele>
        <time>2020-10-11T10:14:07Z</time>
      </trkpt>
      <trkpt lat="37.354819000" lon="-5.888322000">
        <ele>14.6</ele>
        <time>2020-10-11T10:14:09Z</time>
      </trkpt>
      <trkpt lat="37.354793000" lon="-5.888205000">
        <ele>14.7</ele>
        <time>2020-10-11T10:14:11Z</time>
      </trkpt>
      <trkpt lat="37.354762000" lon="-5.888090000">
        <ele>14.6</ele>
        <time>2020-10-11T10:14:13Z</time>
      </trkpt>
      <trkpt lat="37.354715000" lon="-5.887988000">
        <ele>14.5</ele>
        <time>2020-10-11T10:14:15Z</time>
      </trkpt>
      <trkpt lat="37.354663000" lon="-5.887893000">
        <ele>14.3</ele>
        <time>2020-10-11T10:14:17Z</time>
      </trkpt>
      <trkpt lat="37.354610000" lon="-5.887789000">
        <ele>14.2</ele>
        <time>2020-10-11T10:14:19Z</time>
      </trkpt>
      <trkpt lat="37.354550000" lon="-5.887688000">
        <ele>14.1</ele>
        <time>2020-10-11T10:14:21Z</time>
      </trkpt>
      <trkpt lat="37.354491000" lon="-5.887591000">
        <ele>14.0</ele>
        <time>2020-10-11T10:14:23Z</time>
      </trkpt>
      <trkpt lat="37.354432000" lon="-5.887495000">
        <ele>13.9</ele>
        <time>2020-10-11T10:14:25Z</time>
      </trkpt>
      <trkpt lat="37.354382000" lon="-5.887397000">
        <ele>13.8</ele>
        <time>2020-10-11T10:14:27Z</time>
      </trkpt>
      <trkpt lat="37.354334000" lon="-5.887295000">
        <ele>13.6</ele>
        <time>2020-10-11T10:14:29Z</time>
      </trkpt>
      <trkpt lat="37.354283000" lon="-5.887190000">
        <ele>13.5</ele>
        <time>2020-10-11T10:14:31Z</time>
      </trkpt>
      <trkpt lat="37.354230000" lon="-5.887083000">
        <ele>13.5</ele>
        <time>2020-10-11T10:14:33Z</time>
      </trkpt>
      <trkpt lat="37.354177000" lon="-5.886976000">
        <ele>13.5</ele>
        <time>2020-10-11T10:14:35Z</time>
      </trkpt>
      <trkpt lat="37.354121000" lon="-5.886868000">
        <ele>13.5</ele>
        <time>2020-10-11T10:14:37Z</time>
      </trkpt>
      <trkpt lat="37.354069000" lon="-5.886762000">
        <ele>13.5</ele>
        <time>2020-10-11T10:14:39Z</time>
      </trkpt>
      <trkpt lat="37.354016000" lon="-5.886655000">
        <ele>13.4</ele>
        <time>2020-10-11T10:14:41Z</time>
      </trkpt>
      <trkpt lat="37.353957000" lon="-5.886540000">
        <ele>13.4</ele>
        <time>2020-10-11T10:14:43Z</time>
      </trkpt>
      <trkpt lat="37.353900000" lon="-5.886438000">
        <ele>13.4</ele>
        <time>2020-10-11T10:14:45Z</time>
      </trkpt>
      <trkpt lat="37.353848000" lon="-5.886333000">
        <ele>13.4</ele>
        <time>2020-10-11T10:14:47Z</time>
      </trkpt>
      <trkpt lat="37.353784000" lon="-5.886241000">
        <ele>13.4</ele>
        <time>2020-10-11T10:14:49Z</time>
      </trkpt>
      <trkpt lat="37.353716000" lon="-5.886154000">
        <ele>13.4</ele>
        <time>2020-10-11T10:14:51Z</time>
      </trkpt>
      <trkpt lat="37.353654000" lon="-5.886056000">
        <ele>13.4</ele>
        <time>2020-10-11T10:14:53Z</time>
      </trkpt>
      <trkpt lat="37.353593000" lon="-5.885953000">
        <ele>13.4</ele>
        <time>2020-10-11T10:14:55Z</time>
      </trkpt>
      <trkpt lat="37.353515000" lon="-5.885871000">
        <ele>13.4</ele>
        <time>2020-10-11T10:14:57Z</time>
      </trkpt>
      <trkpt lat="37.353427000" lon="-5.885804000">
        <ele>13.4</ele>
        <time>2020-10-11T10:14:59Z</time>
      </trkpt>
      <trkpt lat="37.353340000" lon="-5.885730000">
        <ele>13.3</ele>
        <time>2020-10-11T10:15:01Z</time>
      </trkpt>
      <trkpt lat="37.353274000" lon="-5.885629000">
        <ele>13.2</ele>
        <time>2020-10-11T10:15:03Z</time>
      </trkpt>
      <trkpt lat="37.353225000" lon="-5.885520000">
        <ele>13.0</ele>
        <time>2020-10-11T10:15:05Z</time>
      </trkpt>
      <trkpt lat="37.353157000" lon="-5.885442000">
        <ele>12.8</ele>
        <time>2020-10-11T10:15:07Z</time>
      </trkpt>
      <trkpt lat="37.353062000" lon="-5.885413000">
        <ele>12.7</ele>
        <time>2020-10-11T10:15:09Z</time>
      </trkpt>
      <trkpt lat="37.352965000" lon="-5.885439000">
        <ele>12.6</ele>
        <time>2020-10-11T10:15:11Z</time>
      </trkpt>
      <trkpt lat="37.352871000" lon="-5.885452000">
        <ele>12.7</ele>
        <time>2020-10-11T10:15:13Z</time>
      </trkpt>
      <trkpt lat="37.352776000" lon="-5.885426000">
        <ele>12.8</ele>
        <time>2020-10-11T10:15:15Z</time>
      </trkpt>
      <trkpt lat="37.352684000" lon="-5.885371000">
        <ele>13.0</ele>
        <time>2020-10-11T10:15:17Z</time>
      </trkpt>
      <trkpt lat="37.352604000" lon="-5.885295000">
        <ele>13.1</ele>
        <time>2020-10-11T10:15:19Z</time>
      </trkpt>
      <trkpt lat="37.352533000" lon="-5.885210000">
        <ele>13.2</ele>
        <time>2020-10-11T10:15:21Z</time>
      </trkpt>
      <trkpt lat="37.352462000" lon="-5.885115000">
        <ele>13.4</ele>
        <time>2020-10-11T10:15:23Z</time>
      </trkpt>
      <trkpt lat="37.352391000" lon="-5.885026000">
        <ele>13.5</ele>
        <time>2020-10-11T10:15:25Z</time>
      </trkpt>
      <trkpt lat="37.352310000" lon="-5.884933000">
        <ele>13.7</ele>
        <time>2020-10-11T10:15:27Z</time>
      </trkpt>
      <trkpt lat="37.352238000" lon="-5.884830000">
        <ele>13.9</ele>
        <time>2020-10-11T10:15:29Z</time>
      </trkpt>
      <trkpt lat="37.352179000" lon="-5.884720000">
        <ele>14.0</ele>
        <time>2020-10-11T10:15:31Z</time>
      </trkpt>
      <trkpt lat="37.352126000" lon="-5.884600000">
        <ele>14.2</ele>
        <time>2020-10-11T10:15:33Z</time>
      </trkpt>
      <trkpt lat="37.352103000" lon="-5.884468000">
        <ele>14.3</ele>
        <time>2020-10-11T10:15:35Z</time>
      </trkpt>
      <trkpt lat="37.352082000" lon="-5.884351000">
        <ele>14.4</ele>
        <time>2020-10-11T10:15:37Z</time>
      </trkpt>
      <trkpt lat="37.352036000" lon="-5.884253000">
        <ele>14.4</ele>
        <time>2020-10-11T10:15:39Z</time>
      </trkpt>
      <trkpt lat="37.351983000" lon="-5.884145000">
        <ele>14.5</ele>
        <time>2020-10-11T10:15:41Z</time>
      </trkpt>
      <trkpt lat="37.351934000" lon="-5.884034000">
        <ele>14.5</ele>
        <time>2020-10-11T10:15:43Z</time>
      </trkpt>
      <trkpt lat="37.351893000" lon="-5.883937000">
        <ele>14.5</ele>
        <time>2020-10-11T10:15:45Z</time>
      </trkpt>
      <trkpt lat="37.351838000" lon="-5.883826000">
        <ele>14.5</ele>
        <time>2020-10-11T10:15:47Z</time>
      </trkpt>
      <trkpt lat="37.351788000" lon="-5.883707000">
        <ele>14.5</ele>
        <time>2020-10-11T10:15:49Z</time>
      </trkpt>
      <trkpt lat="37.351741000" lon="-5.883577000">
        <ele>14.5</ele>
        <time>2020-10-11T10:15:51Z</time>
      </trkpt>
      <trkpt lat="37.351699000" lon="-5.883450000">
        <ele>14.5</ele>
        <time>2020-10-11T10:15:53Z</time>
      </trkpt>
      <trkpt lat="37.351651000" lon="-5.883325000">
        <ele>14.5</ele>
        <time>2020-10-11T10:15:55Z</time>
      </trkpt>
      <trkpt lat="37.351606000" lon="-5.883211000">
        <ele>14.5</ele>
        <time>2020-10-11T10:15:57Z</time>
      </trkpt>
      <trkpt lat="37.351563000" lon="-5.883097000">
        <ele>14.5</ele>
        <time>2020-10-11T10:15:59Z</time>
      </trkpt>
      <trkpt lat="37.351519000" lon="-5.882980000">
        <ele>14.5</ele>
        <time>2020-10-11T10:16:01Z</time>
      </trkpt>
      <trkpt lat="37.351478000" lon="-5.882869000">
        <ele>14.5</ele>
        <time>2020-10-11T10:16:03Z</time>
      </trkpt>
      <trkpt lat="37.351457000" lon="-5.882746000">
        <ele>14.5</ele>
        <time>2020-10-11T10:16:05Z</time>
      </trkpt>
      <trkpt lat="37.351456000" lon="-5.882626000">
        <ele>14.6</ele>
        <time>2020-10-11T10:16:07Z</time>
      </trkpt>
      <trkpt lat="37.351488000" lon="-5.882510000">
        <ele>14.8</ele>
        <time>2020-10-11T10:16:09Z</time>
      </trkpt>
      <trkpt lat="37.351550000" lon="-5.882417000">
        <ele>14.9</ele>
        <time>2020-10-11T10:16:11Z</time>
      </trkpt>
      <trkpt lat="37.351610000" lon="-5.882327000">
        <ele>15.1</ele>
        <time>2020-10-11T10:16:13Z</time>
      </trkpt>
      <trkpt lat="37.351662000" lon="-5.882231000">
        <ele>15.3</ele>
        <time>2020-10-11T10:16:15Z</time>
      </trkpt>
      <trkpt lat="37.351716000" lon="-5.882145000">
        <ele>15.5</ele>
        <time>2020-10-11T10:16:17Z</time>
      </trkpt>
      <trkpt lat="37.351767000" lon="-5.882056000">
        <ele>15.5</ele>
        <time>2020-10-11T10:16:19Z</time>
      </trkpt>
      <trkpt lat="37.351814000" lon="-5.881970000">
        <ele>15.6</ele>
        <time>2020-10-11T10:16:21Z</time>
      </trkpt>
      <trkpt lat="37.351864000" lon="-5.881860000">
        <ele>15.7</ele>
        <time>2020-10-11T10:16:24Z</time>
      </trkpt>
      <trkpt lat="37.351800000" lon="-5.881775000">
        <ele>15.7</ele>
        <time>2020-10-11T10:16:27Z</time>
      </trkpt>
      <trkpt lat="37.351700000" lon="-5.881816000">
        <ele>15.7</ele>
        <time>2020-10-11T10:16:30Z</time>
      </trkpt>
      <trkpt lat="37.351615000" lon="-5.881910000">
        <ele>15.7</ele>
        <time>2020-10-11T10:16:33Z</time>
      </trkpt>
      <trkpt lat="37.351518000" lon="-5.881996000">
        <ele>15.6</ele>
        <time>2020-10-11T10:16:36Z</time>
      </trkpt>
      <trkpt lat="37.351420000" lon="-5.882082000">
        <ele>15.5</ele>
        <time>2020-10-11T10:16:39Z</time>
      </trkpt>
      <trkpt lat="37.351343000" lon="-5.882117000">
        <ele>15.4</ele>
        <time>2020-10-11T10:16:41Z</time>
      </trkpt>
      <trkpt lat="37.351260000" lon="-5.882110000">
        <ele>15.2</ele>
        <time>2020-10-11T10:16:43Z</time>
      </trkpt>
      <trkpt lat="37.351186000" lon="-5.882060000">
        <ele>14.9</ele>
        <time>2020-10-11T10:16:45Z</time>
      </trkpt>
      <trkpt lat="37.351099000" lon="-5.881955000">
        <ele>14.6</ele>
        <time>2020-10-11T10:16:48Z</time>
      </trkpt>
      <trkpt lat="37.351063000" lon="-5.881864000">
        <ele>14.4</ele>
        <time>2020-10-11T10:16:50Z</time>
      </trkpt>
      <trkpt lat="37.351040000" lon="-5.881765000">
        <ele>14.1</ele>
        <time>2020-10-11T10:16:52Z</time>
      </trkpt>
      <trkpt lat="37.350939000" lon="-5.881705000">
        <ele>13.8</ele>
        <time>2020-10-11T10:16:55Z</time>
      </trkpt>
      <trkpt lat="37.350845000" lon="-5.881707000">
        <ele>13.6</ele>
        <time>2020-10-11T10:16:57Z</time>
      </trkpt>
      <trkpt lat="37.350752000" lon="-5.881676000">
        <ele>13.5</ele>
        <time>2020-10-11T10:16:59Z</time>
      </trkpt>
      <trkpt lat="37.350670000" lon="-5.881606000">
        <ele>13.3</ele>
        <time>2020-10-11T10:17:01Z</time>
      </trkpt>
      <trkpt lat="37.350594000" lon="-5.881526000">
        <ele>13.1</ele>
        <time>2020-10-11T10:17:03Z</time>
      </trkpt>
      <trkpt lat="37.350525000" lon="-5.881431000">
        <ele>13.0</ele>
        <time>2020-10-11T10:17:05Z</time>
      </trkpt>
      <trkpt lat="37.350456000" lon="-5.881333000">
        <ele>12.9</ele>
        <time>2020-10-11T10:17:07Z</time>
      </trkpt>
      <trkpt lat="37.350404000" lon="-5.881221000">
        <ele>12.9</ele>
        <time>2020-10-11T10:17:09Z</time>
      </trkpt>
      <trkpt lat="37.350356000" lon="-5.881110000">
        <ele>12.9</ele>
        <time>2020-10-11T10:17:11Z</time>
      </trkpt>
      <trkpt lat="37.350312000" lon="-5.880996000">
        <ele>12.9</ele>
        <time>2020-10-11T10:17:13Z</time>
      </trkpt>
      <trkpt lat="37.350279000" lon="-5.880878000">
        <ele>12.9</ele>
        <time>2020-10-11T10:17:15Z</time>
      </trkpt>
      <trkpt lat="37.350233000" lon="-5.880768000">
        <ele>13.0</ele>
        <time>2020-10-11T10:17:17Z</time>
      </trkpt>
      <trkpt lat="37.350176000" lon="-5.880666000">
        <ele>13.0</ele>
        <time>2020-10-11T10:17:19Z</time>
      </trkpt>
      <trkpt lat="37.350117000" lon="-5.880569000">
        <ele>13.1</ele>
        <time>2020-10-11T10:17:21Z</time>
      </trkpt>
      <trkpt lat="37.350055000" lon="-5.880466000">
        <ele>13.2</ele>
        <time>2020-10-11T10:17:23Z</time>
      </trkpt>
      <trkpt lat="37.349994000" lon="-5.880359000">
        <ele>13.3</ele>
        <time>2020-10-11T10:17:25Z</time>
      </trkpt>
      <trkpt lat="37.349930000" lon="-5.880262000">
        <ele>13.4</ele>
        <time>2020-10-11T10:17:27Z</time>
      </trkpt>
      <trkpt lat="37.349848000" lon="-5.880171000">
        <ele>13.5</ele>
        <time>2020-10-11T10:17:29Z</time>
      </trkpt>
      <trkpt lat="37.349761000" lon="-5.880082000">
        <ele>13.5</ele>
        <time>2020-10-11T10:17:31Z</time>
      </trkpt>
      <trkpt lat="37.349685000" lon="-5.879977000">
        <ele>13.6</ele>
        <time>2020-10-11T10:17:33Z</time>
      </trkpt>
      <trkpt lat="37.349618000" lon="-5.879866000">
        <ele>13.6</ele>
        <time>2020-10-11T10:17:35Z</time>
      </trkpt>
      <trkpt lat="37.349567000" lon="-5.879741000">
        <ele>13.6</ele>
        <time>2020-10-11T10:17:37Z</time>
      </trkpt>
      <trkpt lat="37.349524000" lon="-5.879620000">
        <ele>13.5</ele>
        <time>2020-10-11T10:17:39Z</time>
      </trkpt>
      <trkpt lat="37.349491000" lon="-5.879510000">
        <ele>13.5</ele>
        <time>2020-10-11T10:17:41Z</time>
      </trkpt>
      <trkpt lat="37.349441000" lon="-5.879416000">
        <ele>13.3</ele>
        <time>2020-10-11T10:17:43Z</time>
      </trkpt>
      <trkpt lat="37.349377000" lon="-5.879334000">
        <ele>13.1</ele>
        <time>2020-10-11T10:17:45Z</time>
      </trkpt>
      <trkpt lat="37.349282000" lon="-5.879302000">
        <ele>12.9</ele>
        <time>2020-10-11T10:17:47Z</time>
      </trkpt>
      <trkpt lat="37.349175000" lon="-5.879247000">
        <ele>12.8</ele>
        <time>2020-10-11T10:17:49Z</time>
      </trkpt>
      <trkpt lat="37.349086000" lon="-5.879145000">
        <ele>12.7</ele>
        <time>2020-10-11T10:17:51Z</time>
      </trkpt>
      <trkpt lat="37.349028000" lon="-5.879026000">
        <ele>12.6</ele>
        <time>2020-10-11T10:17:53Z</time>
      </trkpt>
      <trkpt lat="37.348989000" lon="-5.878893000">
        <ele>12.5</ele>
        <time>2020-10-11T10:17:55Z</time>
      </trkpt>
      <trkpt lat="37.348960000" lon="-5.878770000">
        <ele>12.6</ele>
        <time>2020-10-11T10:17:57Z</time>
      </trkpt>
      <trkpt lat="37.348929000" lon="-5.878655000">
        <ele>12.8</ele>
        <time>2020-10-11T10:17:59Z</time>
      </trkpt>
      <trkpt lat="37.348893000" lon="-5.878537000">
        <ele>13.1</ele>
        <time>2020-10-11T10:18:01Z</time>
      </trkpt>
      <trkpt lat="37.348878000" lon="-5.878412000">
        <ele>13.4</ele>
        <time>2020-10-11T10:18:03Z</time>
      </trkpt>
      <trkpt lat="37.348862000" lon="-5.878284000">
        <ele>13.6</ele>
        <time>2020-10-11T10:18:05Z</time>
      </trkpt>
      <trkpt lat="37.348858000" lon="-5.878159000">
        <ele>13.8</ele>
        <time>2020-10-11T10:18:07Z</time>
      </trkpt>
      <trkpt lat="37.348863000" lon="-5.878027000">
        <ele>14.1</ele>
        <time>2020-10-11T10:18:09Z</time>
      </trkpt>
      <trkpt lat="37.348873000" lon="-5.877900000">
        <ele>14.4</ele>
        <time>2020-10-11T10:18:11Z</time>
      </trkpt>
      <trkpt lat="37.348895000" lon="-5.877791000">
        <ele>14.6</ele>
        <time>2020-10-11T10:18:13Z</time>
      </trkpt>
      <trkpt lat="37.348924000" lon="-5.877655000">
        <ele>14.9</ele>
        <time>2020-10-11T10:18:16Z</time>
      </trkpt>
      <trkpt lat="37.348949000" lon="-5.877521000">
        <ele>15.2</ele>
        <time>2020-10-11T10:18:19Z</time>
      </trkpt>
      <trkpt lat="37.348970000" lon="-5.877390000">
        <ele>15.4</ele>
        <time>2020-10-11T10:18:22Z</time>
      </trkpt>
      <trkpt lat="37.348986000" lon="-5.877264000">
        <ele>15.4</ele>
        <time>2020-10-11T10:18:25Z</time>
      </trkpt>
      <trkpt lat="37.348970000" lon="-5.877139000">
        <ele>15.4</ele>
        <time>2020-10-11T10:18:28Z</time>
      </trkpt>
      <trkpt lat="37.348935000" lon="-5.877021000">
        <ele>15.3</ele>
        <time>2020-10-11T10:18:31Z</time>
      </trkpt>
      <trkpt lat="37.348858000" lon="-5.876927000">
        <ele>15.2</ele>
        <time>2020-10-11T10:18:34Z</time>
      </trkpt>
      <trkpt lat="37.348755000" lon="-5.876852000">
        <ele>15.2</ele>
        <time>2020-10-11T10:18:37Z</time>
      </trkpt>
      <trkpt lat="37.348683000" lon="-5.876802000">
        <ele>15.1</ele>
        <time>2020-10-11T10:18:39Z</time>
      </trkpt>
      <trkpt lat="37.348608000" lon="-5.876750000">
        <ele>14.8</ele>
        <time>2020-10-11T10:18:41Z</time>
      </trkpt>
      <trkpt lat="37.348526000" lon="-5.876683000">
        <ele>14.5</ele>
        <time>2020-10-11T10:18:43Z</time>
      </trkpt>
      <trkpt lat="37.348441000" lon="-5.876590000">
        <ele>14.2</ele>
        <time>2020-10-11T10:18:45Z</time>
      </trkpt>
      <trkpt lat="37.348351000" lon="-5.876482000">
        <ele>13.8</ele>
        <time>2020-10-11T10:18:47Z</time>
      </trkpt>
      <trkpt lat="37.348270000" lon="-5.876355000">
        <ele>13.5</ele>
        <time>2020-10-11T10:18:49Z</time>
      </trkpt>
      <trkpt lat="37.348190000" lon="-5.876227000">
        <ele>13.3</ele>
        <time>2020-10-11T10:18:51Z</time>
      </trkpt>
      <trkpt lat="37.348121000" lon="-5.876111000">
        <ele>13.1</ele>
        <time>2020-10-11T10:18:53Z</time>
      </trkpt>
      <trkpt lat="37.348075000" lon="-5.876004000">
        <ele>13.1</ele>
        <time>2020-10-11T10:18:55Z</time>
      </trkpt>
      <trkpt lat="37.348044000" lon="-5.875908000">
        <ele>13.0</ele>
        <time>2020-10-11T10:18:57Z</time>
      </trkpt>
      <trkpt lat="37.348024000" lon="-5.875791000">
        <ele>12.9</ele>
        <time>2020-10-11T10:19:00Z</time>
      </trkpt>
      <trkpt lat="37.348011000" lon="-5.875681000">
        <ele>12.7</ele>
        <time>2020-10-11T10:19:03Z</time>
      </trkpt>
      <trkpt lat="37.347955000" lon="-5.875574000">
        <ele>12.7</ele>
        <time>2020-10-11T10:19:07Z</time>
      </trkpt>
      <trkpt lat="37.347907000" lon="-5.875488000">
        <ele>12.7</ele>
        <time>2020-10-11T10:19:11Z</time>
      </trkpt>
      <trkpt lat="37.347826000" lon="-5.875475000">
        <ele>12.7</ele>
        <time>2020-10-11T10:19:15Z</time>
      </trkpt>
      <trkpt lat="37.347727000" lon="-5.875473000">
        <ele>12.7</ele>
        <time>2020-10-11T10:19:19Z</time>
      </trkpt>
      <trkpt lat="37.347658000" lon="-5.875539000">
        <ele>12.7</ele>
        <time>2020-10-11T10:19:22Z</time>
      </trkpt>
      <trkpt lat="37.347563000" lon="-5.875568000">
        <ele>12.6</ele>
        <time>2020-10-11T10:19:25Z</time>
      </trkpt>
      <trkpt lat="37.347449000" lon="-5.875549000">
        <ele>12.6</ele>
        <time>2020-10-11T10:19:28Z</time>
      </trkpt>
      <trkpt lat="37.347349000" lon="-5.875509000">
        <ele>12.5</ele>
        <time>2020-10-11T10:19:31Z</time>
      </trkpt>
      <trkpt lat="37.347267000" lon="-5.875453000">
        <ele>12.5</ele>
        <time>2020-10-11T10:19:34Z</time>
      </trkpt>
      <trkpt lat="37.347187000" lon="-5.875390000">
        <ele>12.5</ele>
        <time>2020-10-11T10:19:37Z</time>
      </trkpt>
      <trkpt lat="37.347101000" lon="-5.875308000">
        <ele>12.6</ele>
        <time>2020-10-11T10:19:40Z</time>
      </trkpt>
      <trkpt lat="37.347019000" lon="-5.875230000">
        <ele>12.6</ele>
        <time>2020-10-11T10:19:43Z</time>
      </trkpt>
      <trkpt lat="37.346946000" lon="-5.875155000">
        <ele>12.6</ele>
        <time>2020-10-11T10:19:46Z</time>
      </trkpt>
      <trkpt lat="37.346866000" lon="-5.875081000">
        <ele>12.7</ele>
        <time>2020-10-11T10:19:49Z</time>
      </trkpt>
      <trkpt lat="37.346785000" lon="-5.875003000">
        <ele>12.9</ele>
        <time>2020-10-11T10:19:52Z</time>
      </trkpt>
      <trkpt lat="37.346703000" lon="-5.874915000">
        <ele>13.1</ele>
        <time>2020-10-11T10:19:55Z</time>
      </trkpt>
      <trkpt lat="37.346625000" lon="-5.874819000">
        <ele>13.4</ele>
        <time>2020-10-11T10:19:58Z</time>
      </trkpt>
      <trkpt lat="37.346543000" lon="-5.874719000">
        <ele>13.6</ele>
        <time>2020-10-11T10:20:01Z</time>
      </trkpt>
      <trkpt lat="37.346462000" lon="-5.874621000">
        <ele>13.9</ele>
        <time>2020-10-11T10:20:04Z</time>
      </trkpt>
      <trkpt lat="37.346388000" lon="-5.874540000">
        <ele>14.2</ele>
        <time>2020-10-11T10:20:07Z</time>
      </trkpt>
      <trkpt lat="37.346320000" lon="-5.874461000">
        <ele>14.5</ele>
        <time>2020-10-11T10:20:14Z</time>
      </trkpt>
      <trkpt lat="37.346265000" lon="-5.874383000">
        <ele>14.7</ele>
        <time>2020-10-11T10:20:17Z</time>
      </trkpt>
      <trkpt lat="37.346174000" lon="-5.874283000">
        <ele>15.0</ele>
        <time>2020-10-11T10:20:20Z</time>
      </trkpt>
      <trkpt lat="37.346107000" lon="-5.874209000">
        <ele>15.3</ele>
        <time>2020-10-11T10:20:22Z</time>
      </trkpt>
      <trkpt lat="37.346035000" lon="-5.874122000">
        <ele>15.5</ele>
        <time>2020-10-11T10:20:24Z</time>
      </trkpt>
      <trkpt lat="37.345972000" lon="-5.874033000">
        <ele>15.7</ele>
        <time>2020-10-11T10:20:26Z</time>
      </trkpt>
      <trkpt lat="37.345915000" lon="-5.873953000">
        <ele>15.9</ele>
        <time>2020-10-11T10:20:28Z</time>
      </trkpt>
      <trkpt lat="37.345857000" lon="-5.873868000">
        <ele>16.0</ele>
        <time>2020-10-11T10:20:30Z</time>
      </trkpt>
      <trkpt lat="37.345783000" lon="-5.873756000">
        <ele>16.0</ele>
        <time>2020-10-11T10:20:33Z</time>
      </trkpt>
      <trkpt lat="37.345724000" lon="-5.873681000">
        <ele>15.9</ele>
        <time>2020-10-11T10:20:35Z</time>
      </trkpt>
      <trkpt lat="37.345667000" lon="-5.873601000">
        <ele>15.8</ele>
        <time>2020-10-11T10:20:37Z</time>
      </trkpt>
      <trkpt lat="37.345608000" lon="-5.873529000">
        <ele>15.6</ele>
        <time>2020-10-11T10:20:39Z</time>
      </trkpt>
      <trkpt lat="37.345549000" lon="-5.873452000">
        <ele>15.5</ele>
        <time>2020-10-11T10:20:41Z</time>
      </trkpt>
      <trkpt lat="37.345478000" lon="-5.873372000">
        <ele>15.3</ele>
        <time>2020-10-11T10:20:43Z</time>
      </trkpt>
      <trkpt lat="37.345417000" lon="-5.873281000">
        <ele>15.1</ele>
        <time>2020-10-11T10:20:45Z</time>
      </trkpt>
      <trkpt lat="37.345362000" lon="-5.873190000">
        <ele>14.8</ele>
        <time>2020-10-11T10:20:47Z</time>
      </trkpt>
      <trkpt lat="37.345302000" lon="-5.873093000">
        <ele>14.5</ele>
        <time>2020-10-11T10:20:49Z</time>
      </trkpt>
      <trkpt lat="37.345248000" lon="-5.873008000">
        <ele>14.2</ele>
        <time>2020-10-11T10:20:51Z</time>
      </trkpt>
      <trkpt lat="37.345200000" lon="-5.872921000">
        <ele>13.9</ele>
        <time>2020-10-11T10:20:53Z</time>
      </trkpt>
      <trkpt lat="37.345151000" lon="-5.872833000">
        <ele>13.6</ele>
        <time>2020-10-11T10:20:57Z</time>
      </trkpt>
      <trkpt lat="37.345098000" lon="-5.872756000">
        <ele>13.5</ele>
        <time>2020-10-11T10:20:57Z</time>
      </trkpt>
      <trkpt lat="37.345041000" lon="-5.872674000">
        <ele>13.5</ele>
        <time>2020-10-11T10:20:59Z</time>
      </trkpt>
      <trkpt lat="37.344990000" lon="-5.872592000">
        <ele>13.5</ele>
        <time>2020-10-11T10:21:01Z</time>
      </trkpt>
      <trkpt lat="37.344918000" lon="-5.872481000">
        <ele>13.5</ele>
        <time>2020-10-11T10:21:04Z</time>
      </trkpt>
      <trkpt lat="37.344863000" lon="-5.872395000">
        <ele>13.6</ele>
        <time>2020-10-11T10:21:06Z</time>
      </trkpt>
      <trkpt lat="37.344808000" lon="-5.872303000">
        <ele>13.7</ele>
        <time>2020-10-11T10:21:08Z</time>
      </trkpt>
      <trkpt lat="37.344761000" lon="-5.872196000">
        <ele>14.0</ele>
        <time>2020-10-11T10:21:10Z</time>
      </trkpt>
      <trkpt lat="37.344710000" lon="-5.872097000">
        <ele>14.3</ele>
        <time>2020-10-11T10:21:12Z</time>
      </trkpt>
      <trkpt lat="37.344659000" lon="-5.872007000">
        <ele>14.6</ele>
        <time>2020-10-11T10:21:14Z</time>
      </trkpt>
      <trkpt lat="37.344598000" lon="-5.871920000">
        <ele>14.9</ele>
        <time>2020-10-11T10:21:16Z</time>
      </trkpt>
      <trkpt lat="37.344546000" lon="-5.871825000">
        <ele>15.2</ele>
        <time>2020-10-11T10:21:18Z</time>
      </trkpt>
      <trkpt lat="37.344494000" lon="-5.871737000">
        <ele>15.4</ele>
        <time>2020-10-11T10:21:20Z</time>
      </trkpt>
      <trkpt lat="37.344444000" lon="-5.871656000">
        <ele>15.5</ele>
        <time>2020-10-11T10:21:22Z</time>
      </trkpt>
      <trkpt lat="37.344392000" lon="-5.871575000">
        <ele>15.5</ele>
        <time>2020-10-11T10:21:24Z</time>
      </trkpt>
      <trkpt lat="37.344345000" lon="-5.871486000">
        <ele>15.5</ele>
        <time>2020-10-11T10:21:26Z</time>
      </trkpt>
      <trkpt lat="37.344299000" lon="-5.871402000">
        <ele>15.4</ele>
        <time>2020-10-11T10:21:28Z</time>
      </trkpt>
      <trkpt lat="37.344227000" lon="-5.871281000">
        <ele>15.2</ele>
        <time>2020-10-11T10:21:31Z</time>
      </trkpt>
      <trkpt lat="37.344159000" lon="-5.871170000">
        <ele>15.0</ele>
        <time>2020-10-11T10:21:34Z</time>
      </trkpt>
      <trkpt lat="37.344115000" lon="-5.871072000">
        <ele>14.8</ele>
        <time>2020-10-11T10:24:55Z</time>
      </trkpt>
      <trkpt lat="37.344048000" lon="-5.870964000">
        <ele>14.6</ele>
        <time>2020-10-11T10:24:59Z</time>
      </trkpt>
      <trkpt lat="37.343968000" lon="-5.870862000">
        <ele>14.5</ele>
        <time>2020-10-11T10:25:02Z</time>
      </trkpt>
      <trkpt lat="37.343910000" lon="-5.870788000">
        <ele>14.2</ele>
        <time>2020-10-11T10:25:04Z</time>
      </trkpt>
      <trkpt lat="37.343856000" lon="-5.870711000">
        <ele>13.9</ele>
        <time>2020-10-11T10:25:06Z</time>
      </trkpt>
      <trkpt lat="37.343800000" lon="-5.870634000">
        <ele>13.7</ele>
        <time>2020-10-11T10:25:08Z</time>
      </trkpt>
      <trkpt lat="37.343723000" lon="-5.870525000">
        <ele>13.5</ele>
        <time>2020-10-11T10:25:11Z</time>
      </trkpt>
      <trkpt lat="37.343667000" lon="-5.870449000">
        <ele>13.3</ele>
        <time>2020-10-11T10:25:13Z</time>
      </trkpt>
      <trkpt lat="37.343611000" lon="-5.870369000">
        <ele>13.1</ele>
        <time>2020-10-11T10:25:15Z</time>
      </trkpt>
      <trkpt lat="37.343551000" lon="-5.870292000">
        <ele>13.1</ele>
        <time>2020-10-11T10:25:17Z</time>
      </trkpt>
      <trkpt lat="37.343500000" lon="-5.870211000">
        <ele>13.1</ele>
        <time>2020-10-11T10:25:19Z</time>
      </trkpt>
      <trkpt lat="37.343449000" lon="-5.870125000">
        <ele>13.1</ele>
        <time>2020-10-11T10:25:21Z</time>
      </trkpt>
      <trkpt lat="37.343407000" lon="-5.870036000">
        <ele>13.2</ele>
        <time>2020-10-11T10:25:23Z</time>
      </trkpt>
      <trkpt lat="37.343338000" lon="-5.869917000">
        <ele>13.3</ele>
        <time>2020-10-11T10:25:26Z</time>
      </trkpt>
      <trkpt lat="37.343268000" lon="-5.869800000">
        <ele>13.5</ele>
        <time>2020-10-11T10:25:29Z</time>
      </trkpt>
      <trkpt lat="37.343206000" lon="-5.869667000">
        <ele>13.6</ele>
        <time>2020-10-11T10:25:32Z</time>
      </trkpt>
      <trkpt lat="37.343173000" lon="-5.869567000">
        <ele>13.9</ele>
        <time>2020-10-11T10:25:34Z</time>
      </trkpt>
      <trkpt lat="37.343145000" lon="-5.869466000">
        <ele>14.3</ele>
        <time>2020-10-11T10:25:36Z</time>
      </trkpt>
      <trkpt lat="37.343114000" lon="-5.869367000">
        <ele>14.6</ele>
        <time>2020-10-11T10:25:38Z</time>
      </trkpt>
      <trkpt lat="37.343087000" lon="-5.869271000">
        <ele>15.0</ele>
        <time>2020-10-11T10:25:40Z</time>
      </trkpt>
      <trkpt lat="37.343041000" lon="-5.869137000">
        <ele>15.3</ele>
        <time>2020-10-11T10:25:43Z</time>
      </trkpt>
      <trkpt lat="37.343007000" lon="-5.869038000">
        <ele>15.5</ele>
        <time>2020-10-11T10:25:45Z</time>
      </trkpt>
      <trkpt lat="37.342978000" lon="-5.868935000">
        <ele>15.7</ele>
        <time>2020-10-11T10:25:47Z</time>
      </trkpt>
      <trkpt lat="37.342945000" lon="-5.868837000">
        <ele>15.9</ele>
        <time>2020-10-11T10:25:49Z</time>
      </trkpt>
      <trkpt lat="37.342921000" lon="-5.868739000">
        <ele>16.0</ele>
        <time>2020-10-11T10:25:51Z</time>
      </trkpt>
      <trkpt lat="37.342880000" lon="-5.868592000">
        <ele>16.0</ele>
        <time>2020-10-11T10:25:54Z</time>
      </trkpt>
      <trkpt lat="37.342848000" lon="-5.868488000">
        <ele>16.0</ele>
        <time>2020-10-11T10:25:56Z</time>
      </trkpt>
      <trkpt lat="37.342820000" lon="-5.868382000">
        <ele>15.8</ele>
        <time>2020-10-11T10:25:58Z</time>
      </trkpt>
      <trkpt lat="37.342791000" lon="-5.868284000">
        <ele>15.6</ele>
        <time>2020-10-11T10:26:00Z</time>
      </trkpt>
      <trkpt lat="37.342771000" lon="-5.868182000">
        <ele>15.5</ele>
        <time>2020-10-11T10:26:02Z</time>
      </trkpt>
      <trkpt lat="37.342752000" lon="-5.868080000">
        <ele>15.3</ele>
        <time>2020-10-11T10:26:04Z</time>
      </trkpt>
      <trkpt lat="37.342741000" lon="-5.867970000">
        <ele>15.1</ele>
        <time>2020-10-11T10:26:06Z</time>
      </trkpt>
      <trkpt lat="37.342722000" lon="-5.867861000">
        <ele>15.0</ele>
        <time>2020-10-11T10:26:08Z</time>
      </trkpt>
      <trkpt lat="37.342704000" lon="-5.867749000">
        <ele>14.9</ele>
        <time>2020-10-11T10:26:10Z</time>
      </trkpt>
      <trkpt lat="37.342691000" lon="-5.867633000">
        <ele>14.8</ele>
        <time>2020-10-11T10:26:12Z</time>
      </trkpt>
      <trkpt lat="37.342678000" lon="-5.867526000">
        <ele>14.8</ele>
        <time>2020-10-11T10:26:14Z</time>
      </trkpt>
      <trkpt lat="37.342657000" lon="-5.867422000">
        <ele>14.9</ele>
        <time>2020-10-11T10:26:16Z</time>
      </trkpt>
      <trkpt lat="37.342631000" lon="-5.867314000">
        <ele>15.0</ele>
        <time>2020-10-11T10:26:18Z</time>
      </trkpt>
      <trkpt lat="37.342605000" lon="-5.867208000">
        <ele>15.2</ele>
        <time>2020-10-11T10:26:20Z</time>
      </trkpt>
      <trkpt lat="37.342569000" lon="-5.867107000">
        <ele>15.4</ele>
        <time>2020-10-11T10:26:22Z</time>
      </trkpt>
      <trkpt lat="37.342538000" lon="-5.866971000">
        <ele>15.5</ele>
        <time>2020-10-11T10:26:25Z</time>
      </trkpt>
      <trkpt lat="37.342505000" lon="-5.866836000">
        <ele>15.7</ele>
        <time>2020-10-11T10:26:28Z</time>
      </trkpt>
      <trkpt lat="37.342496000" lon="-5.866734000">
        <ele>15.8</ele>
        <time>2020-10-11T10:26:30Z</time>
      </trkpt>
      <trkpt lat="37.342486000" lon="-5.866625000">
        <ele>15.7</ele>
        <time>2020-10-11T10:26:32Z</time>
      </trkpt>
      <trkpt lat="37.342471000" lon="-5.866518000">
        <ele>15.5</ele>
        <time>2020-10-11T10:26:34Z</time>
      </trkpt>
      <trkpt lat="37.342450000" lon="-5.866411000">
        <ele>15.1</ele>
        <time>2020-10-11T10:26:36Z</time>
      </trkpt>
      <trkpt lat="37.342428000" lon="-5.866311000">
        <ele>14.6</ele>
        <time>2020-10-11T10:26:38Z</time>
      </trkpt>
      <trkpt lat="37.342393000" lon="-5.866163000">
        <ele>14.2</ele>
        <time>2020-10-11T10:26:41Z</time>
      </trkpt>
      <trkpt lat="37.342358000" lon="-5.866031000">
        <ele>13.8</ele>
        <time>2020-10-11T10:26:44Z</time>
      </trkpt>
      <trkpt lat="37.342321000" lon="-5.865917000">
        <ele>13.5</ele>
        <time>2020-10-11T10:26:47Z</time>
      </trkpt>
      <trkpt lat="37.342277000" lon="-5.865792000">
        <ele>13.1</ele>
        <time>2020-10-11T10:26:50Z</time>
      </trkpt>
      <trkpt lat="37.342235000" lon="-5.865662000">
        <ele>12.8</ele>
        <time>2020-10-11T10:26:53Z</time>
      </trkpt>
      <trkpt lat="37.342196000" lon="-5.865528000">
        <ele>12.5</ele>
        <time>2020-10-11T10:26:56Z</time>
      </trkpt>
      <trkpt lat="37.342157000" lon="-5.865392000">
        <ele>12.4</ele>
        <time>2020-10-11T10:26:59Z</time>
      </trkpt>
      <trkpt lat="37.342112000" lon="-5.865260000">
        <ele>12.4</ele>
        <time>2020-10-11T10:27:02Z</time>
      </trkpt>
      <trkpt lat="37.342088000" lon="-5.865162000">
        <ele>12.5</ele>
        <time>2020-10-11T10:27:04Z</time>
      </trkpt>
      <trkpt lat="37.342071000" lon="-5.865060000">
        <ele>12.5</ele>
        <time>2020-10-11T10:27:06Z</time>
      </trkpt>
      <trkpt lat="37.342050000" lon="-5.864959000">
        <ele>12.7</ele>
        <time>2020-10-11T10:27:08Z</time>
      </trkpt>
      <trkpt lat="37.342032000" lon="-5.864856000">
        <ele>12.9</ele>
        <time>2020-10-11T10:27:10Z</time>
      </trkpt>
      <trkpt lat="37.342010000" lon="-5.864754000">
        <ele>12.9</ele>
        <time>2020-10-11T10:27:12Z</time>
      </trkpt>
      <trkpt lat="37.341994000" lon="-5.864647000">
        <ele>12.9</ele>
        <time>2020-10-11T10:27:14Z</time>
      </trkpt>
      <trkpt lat="37.341987000" lon="-5.864544000">
        <ele>12.9</ele>
        <time>2020-10-11T10:27:16Z</time>
      </trkpt>
      <trkpt lat="37.341986000" lon="-5.864440000">
        <ele>12.8</ele>
        <time>2020-10-11T10:27:18Z</time>
      </trkpt>
      <trkpt lat="37.341978000" lon="-5.864334000">
        <ele>12.8</ele>
        <time>2020-10-11T10:27:20Z</time>
      </trkpt>
      <trkpt lat="37.341970000" lon="-5.864227000">
        <ele>12.8</ele>
        <time>2020-10-11T10:27:22Z</time>
      </trkpt>
      <trkpt lat="37.341959000" lon="-5.864122000">
        <ele>12.8</ele>
        <time>2020-10-11T10:27:24Z</time>
      </trkpt>
      <trkpt lat="37.341948000" lon="-5.864015000">
        <ele>12.9</ele>
        <time>2020-10-11T10:27:26Z</time>
      </trkpt>
      <trkpt lat="37.341936000" lon="-5.863907000">
        <ele>13.1</ele>
        <time>2020-10-11T10:27:28Z</time>
      </trkpt>
      <trkpt lat="37.341927000" lon="-5.863799000">
        <ele>13.3</ele>
        <time>2020-10-11T10:27:30Z</time>
      </trkpt>
      <trkpt lat="37.341923000" lon="-5.863691000">
        <ele>13.5</ele>
        <time>2020-10-11T10:27:32Z</time>
      </trkpt>
      <trkpt lat="37.341922000" lon="-5.863583000">
        <ele>13.7</ele>
        <time>2020-10-11T10:27:34Z</time>
      </trkpt>
      <trkpt lat="37.341925000" lon="-5.863445000">
        <ele>14.1</ele>
        <time>2020-10-11T10:27:37Z</time>
      </trkpt>
      <trkpt lat="37.341928000" lon="-5.863297000">
        <ele>14.5</ele>
        <time>2020-10-11T10:27:40Z</time>
      </trkpt>
      <trkpt lat="37.341932000" lon="-5.863192000">
        <ele>15.1</ele>
        <time>2020-10-11T10:27:42Z</time>
      </trkpt>
      <trkpt lat="37.341943000" lon="-5.863086000">
        <ele>15.7</ele>
        <time>2020-10-11T10:27:44Z</time>
      </trkpt>
      <trkpt lat="37.341956000" lon="-5.862982000">
        <ele>16.5</ele>
        <time>2020-10-11T10:27:46Z</time>
      </trkpt>
      <trkpt lat="37.341970000" lon="-5.862876000">
        <ele>17.2</ele>
        <time>2020-10-11T10:27:48Z</time>
      </trkpt>
      <trkpt lat="37.341985000" lon="-5.862772000">
        <ele>17.8</ele>
        <time>2020-10-11T10:27:50Z</time>
      </trkpt>
      <trkpt lat="37.342003000" lon="-5.862628000">
        <ele>18.5</ele>
        <time>2020-10-11T10:27:53Z</time>
      </trkpt>
      <trkpt lat="37.342045000" lon="-5.862492000">
        <ele>19.2</ele>
        <time>2020-10-11T10:27:56Z</time>
      </trkpt>
      <trkpt lat="37.342084000" lon="-5.862350000">
        <ele>19.6</ele>
        <time>2020-10-11T10:27:59Z</time>
      </trkpt>
      <trkpt lat="37.342114000" lon="-5.862250000">
        <ele>20.0</ele>
        <time>2020-10-11T10:28:01Z</time>
      </trkpt>
      <trkpt lat="37.342129000" lon="-5.862145000">
        <ele>20.2</ele>
        <time>2020-10-11T10:28:03Z</time>
      </trkpt>
      <trkpt lat="37.342138000" lon="-5.862033000">
        <ele>20.1</ele>
        <time>2020-10-11T10:28:05Z</time>
      </trkpt>
      <trkpt lat="37.342164000" lon="-5.861921000">
        <ele>19.8</ele>
        <time>2020-10-11T10:28:07Z</time>
      </trkpt>
      <trkpt lat="37.342211000" lon="-5.861824000">
        <ele>19.3</ele>
        <time>2020-10-11T10:28:09Z</time>
      </trkpt>
      <trkpt lat="37.342251000" lon="-5.861724000">
        <ele>18.5</ele>
        <time>2020-10-11T10:28:11Z</time>
      </trkpt>
      <trkpt lat="37.342289000" lon="-5.861626000">
        <ele>17.6</ele>
        <time>2020-10-11T10:28:13Z</time>
      </trkpt>
      <trkpt lat="37.342318000" lon="-5.861530000">
        <ele>16.7</ele>
        <time>2020-10-11T10:28:15Z</time>
      </trkpt>
      <trkpt lat="37.342349000" lon="-5.861413000">
        <ele>15.7</ele>
        <time>2020-10-11T10:28:18Z</time>
      </trkpt>
      <trkpt lat="37.342379000" lon="-5.861283000">
        <ele>14.8</ele>
        <time>2020-10-11T10:28:21Z</time>
      </trkpt>
      <trkpt lat="37.342410000" lon="-5.861184000">
        <ele>14.1</ele>
        <time>2020-10-11T10:28:23Z</time>
      </trkpt>
      <trkpt lat="37.342453000" lon="-5.861074000">
        <ele>13.5</ele>
        <time>2020-10-11T10:28:25Z</time>
      </trkpt>
      <trkpt lat="37.342491000" lon="-5.860971000">
        <ele>12.9</ele>
        <time>2020-10-11T10:28:27Z</time>
      </trkpt>
      <trkpt lat="37.342524000" lon="-5.860872000">
        <ele>12.6</ele>
        <time>2020-10-11T10:28:29Z</time>
      </trkpt>
      <trkpt lat="37.342547000" lon="-5.860772000">
        <ele>12.5</ele>
        <time>2020-10-11T10:28:31Z</time>
      </trkpt>
      <trkpt lat="37.342560000" lon="-5.860630000">
        <ele>12.6</ele>
        <time>2020-10-11T10:28:34Z</time>
      </trkpt>
      <trkpt lat="37.342552000" lon="-5.860528000">
        <ele>12.9</ele>
        <time>2020-10-11T10:28:36Z</time>
      </trkpt>
      <trkpt lat="37.342540000" lon="-5.860388000">
        <ele>13.4</ele>
        <time>2020-10-11T10:28:39Z</time>
      </trkpt>
      <trkpt lat="37.342553000" lon="-5.860275000">
        <ele>13.8</ele>
        <time>2020-10-11T10:28:43Z</time>
      </trkpt>
      <trkpt lat="37.342543000" lon="-5.860169000">
        <ele>14.3</ele>
        <time>2020-10-11T10:28:48Z</time>
      </trkpt>
      <trkpt lat="37.342553000" lon="-5.860060000">
        <ele>14.6</ele>
        <time>2020-10-11T10:28:52Z</time>
      </trkpt>
      <trkpt lat="37.342571000" lon="-5.859928000">
        <ele>15.0</ele>
        <time>2020-10-11T10:28:56Z</time>
      </trkpt>
      <trkpt lat="37.342579000" lon="-5.859823000">
        <ele>15.3</ele>
        <time>2020-10-11T10:28:59Z</time>
      </trkpt>
      <trkpt lat="37.342570000" lon="-5.859693000">
        <ele>15.5</ele>
        <time>2020-10-11T10:29:02Z</time>
      </trkpt>
      <trkpt lat="37.342568000" lon="-5.859572000">
        <ele>15.7</ele>
        <time>2020-10-11T10:29:05Z</time>
      </trkpt>
      <trkpt lat="37.342579000" lon="-5.859452000">
        <ele>15.8</ele>
        <time>2020-10-11T10:29:08Z</time>
      </trkpt>
      <trkpt lat="37.342585000" lon="-5.859344000">
        <ele>15.8</ele>
        <time>2020-10-11T10:29:11Z</time>
      </trkpt>
      <trkpt lat="37.342578000" lon="-5.859214000">
        <ele>15.7</ele>
        <time>2020-10-11T10:29:15Z</time>
      </trkpt>
      <trkpt lat="37.342569000" lon="-5.859105000">
        <ele>15.5</ele>
        <time>2020-10-11T10:29:18Z</time>
      </trkpt>
      <trkpt lat="37.342568000" lon="-5.858985000">
        <ele>15.2</ele>
        <time>2020-10-11T10:29:21Z</time>
      </trkpt>
      <trkpt lat="37.342595000" lon="-5.858886000">
        <ele>14.9</ele>
        <time>2020-10-11T10:29:24Z</time>
      </trkpt>
      <trkpt lat="37.342589000" lon="-5.858771000">
        <ele>14.7</ele>
        <time>2020-10-11T10:29:28Z</time>
      </trkpt>
      <trkpt lat="37.342541000" lon="-5.858660000">
        <ele>14.5</ele>
        <time>2020-10-11T10:29:31Z</time>
      </trkpt>
      <trkpt lat="37.342502000" lon="-5.858531000">
        <ele>14.5</ele>
        <time>2020-10-11T10:29:34Z</time>
      </trkpt>
      <trkpt lat="37.342451000" lon="-5.858410000">
        <ele>14.4</ele>
        <time>2020-10-11T10:29:37Z</time>
      </trkpt>
      <trkpt lat="37.342389000" lon="-5.858296000">
        <ele>14.3</ele>
        <time>2020-10-11T10:29:40Z</time>
      </trkpt>
      <trkpt lat="37.342326000" lon="-5.858173000">
        <ele>14.3</ele>
        <time>2020-10-11T10:29:43Z</time>
      </trkpt>
      <trkpt lat="37.342300000" lon="-5.858076000">
        <ele>14.4</ele>
        <time>2020-10-11T10:29:45Z</time>
      </trkpt>
      <trkpt lat="37.342270000" lon="-5.857980000">
        <ele>14.5</ele>
        <time>2020-10-11T10:29:47Z</time>
      </trkpt>
      <trkpt lat="37.342250000" lon="-5.857879000">
        <ele>14.6</ele>
        <time>2020-10-11T10:29:49Z</time>
      </trkpt>
      <trkpt lat="37.342225000" lon="-5.857731000">
        <ele>14.8</ele>
        <time>2020-10-11T10:29:52Z</time>
      </trkpt>
      <trkpt lat="37.342191000" lon="-5.857592000">
        <ele>15.0</ele>
        <time>2020-10-11T10:29:55Z</time>
      </trkpt>
      <trkpt lat="37.342166000" lon="-5.857460000">
        <ele>15.3</ele>
        <time>2020-10-11T10:29:58Z</time>
      </trkpt>
      <trkpt lat="37.342140000" lon="-5.857333000">
        <ele>15.6</ele>
        <time>2020-10-11T10:30:01Z</time>
      </trkpt>
      <trkpt lat="37.342117000" lon="-5.857210000">
        <ele>16.0</ele>
        <time>2020-10-11T10:30:04Z</time>
      </trkpt>
      <trkpt lat="37.342092000" lon="-5.857090000">
        <ele>16.4</ele>
        <time>2020-10-11T10:30:07Z</time>
      </trkpt>
      <trkpt lat="37.342072000" lon="-5.856970000">
        <ele>16.7</ele>
        <time>2020-10-11T10:30:10Z</time>
      </trkpt>
      <trkpt lat="37.342052000" lon="-5.856858000">
        <ele>17.0</ele>
        <time>2020-10-11T10:30:13Z</time>
      </trkpt>
      <trkpt lat="37.342037000" lon="-5.856756000">
        <ele>17.2</ele>
        <time>2020-10-11T10:30:17Z</time>
      </trkpt>
      <trkpt lat="37.341998000" lon="-5.856658000">
        <ele>17.4</ele>
        <time>2020-10-11T10:30:41Z</time>
      </trkpt>
      <trkpt lat="37.341901000" lon="-5.856668000">
        <ele>17.6</ele>
        <time>2020-10-11T10:30:49Z</time>
      </trkpt>
      <trkpt lat="37.341820000" lon="-5.856635000">
        <ele>18.0</ele>
        <time>2020-10-11T10:30:52Z</time>
      </trkpt>
      <trkpt lat="37.341721000" lon="-5.856589000">
        <ele>18.5</ele>
        <time>2020-10-11T10:30:56Z</time>
      </trkpt>
      <trkpt lat="37.341637000" lon="-5.856515000">
        <ele>18.8</ele>
        <time>2020-10-11T10:31:00Z</time>
      </trkpt>
      <trkpt lat="37.341572000" lon="-5.856443000">
        <ele>19.1</ele>
        <time>2020-10-11T10:31:03Z</time>
      </trkpt>
      <trkpt lat="37.341483000" lon="-5.856356000">
        <ele>19.4</ele>
        <time>2020-10-11T10:31:06Z</time>
      </trkpt>
      <trkpt lat="37.341395000" lon="-5.856266000">
        <ele>19.5</ele>
        <time>2020-10-11T10:31:09Z</time>
      </trkpt>
      <trkpt lat="37.341316000" lon="-5.856175000">
        <ele>19.6</ele>
        <time>2020-10-11T10:31:12Z</time>
      </trkpt>
      <trkpt lat="37.341237000" lon="-5.856103000">
        <ele>19.6</ele>
        <time>2020-10-11T10:31:15Z</time>
      </trkpt>
      <trkpt lat="37.341133000" lon="-5.856058000">
        <ele>19.6</ele>
        <time>2020-10-11T10:31:18Z</time>
      </trkpt>
      <trkpt lat="37.341017000" lon="-5.856021000">
        <ele>19.5</ele>
        <time>2020-10-11T10:31:21Z</time>
      </trkpt>
      <trkpt lat="37.340933000" lon="-5.855994000">
        <ele>19.4</ele>
        <time>2020-10-11T10:31:23Z</time>
      </trkpt>
      <trkpt lat="37.340850000" lon="-5.855978000">
        <ele>19.1</ele>
        <time>2020-10-11T10:31:25Z</time>
      </trkpt>
      <trkpt lat="37.340732000" lon="-5.855969000">
        <ele>18.7</ele>
        <time>2020-10-11T10:31:28Z</time>
      </trkpt>
      <trkpt lat="37.340616000" lon="-5.855960000">
        <ele>18.4</ele>
        <time>2020-10-11T10:31:31Z</time>
      </trkpt>
      <trkpt lat="37.340513000" lon="-5.855948000">
        <ele>18.0</ele>
        <time>2020-10-11T10:31:34Z</time>
      </trkpt>
      <trkpt lat="37.340428000" lon="-5.855950000">
        <ele>17.5</ele>
        <time>2020-10-11T10:31:36Z</time>
      </trkpt>
      <trkpt lat="37.340343000" lon="-5.855970000">
        <ele>17.2</ele>
        <time>2020-10-11T10:31:38Z</time>
      </trkpt>
      <trkpt lat="37.340261000" lon="-5.856005000">
        <ele>16.9</ele>
        <time>2020-10-11T10:31:40Z</time>
      </trkpt>
      <trkpt lat="37.340179000" lon="-5.856036000">
        <ele>16.8</ele>
        <time>2020-10-11T10:31:42Z</time>
      </trkpt>
      <trkpt lat="37.340093000" lon="-5.856056000">
        <ele>16.8</ele>
        <time>2020-10-11T10:31:44Z</time>
      </trkpt>
      <trkpt lat="37.339987000" lon="-5.856075000">
        <ele>17.0</ele>
        <time>2020-10-11T10:31:47Z</time>
      </trkpt>
      <trkpt lat="37.339876000" lon="-5.856106000">
        <ele>17.3</ele>
        <time>2020-10-11T10:31:50Z</time>
      </trkpt>
      <trkpt lat="37.339767000" lon="-5.856134000">
        <ele>17.5</ele>
        <time>2020-10-11T10:31:53Z</time>
      </trkpt>
      <trkpt lat="37.339650000" lon="-5.856165000">
        <ele>17.8</ele>
        <time>2020-10-11T10:31:56Z</time>
      </trkpt>
      <trkpt lat="37.339537000" lon="-5.856201000">
        <ele>18.1</ele>
        <time>2020-10-11T10:31:59Z</time>
      </trkpt>
      <trkpt lat="37.339426000" lon="-5.856236000">
        <ele>18.4</ele>
        <time>2020-10-11T10:32:02Z</time>
      </trkpt>
      <trkpt lat="37.339317000" lon="-5.856275000">
        <ele>18.8</ele>
        <time>2020-10-11T10:32:05Z</time>
      </trkpt>
      <trkpt lat="37.339210000" lon="-5.856316000">
        <ele>19.4</ele>
        <time>2020-10-11T10:32:08Z</time>
      </trkpt>
      <trkpt lat="37.339106000" lon="-5.856369000">
        <ele>19.9</ele>
        <time>2020-10-11T10:32:11Z</time>
      </trkpt>
      <trkpt lat="37.339027000" lon="-5.856394000">
        <ele>20.3</ele>
        <time>2020-10-11T10:32:13Z</time>
      </trkpt>
      <trkpt lat="37.338914000" lon="-5.856423000">
        <ele>20.5</ele>
        <time>2020-10-11T10:32:16Z</time>
      </trkpt>
      <trkpt lat="37.338802000" lon="-5.856465000">
        <ele>20.7</ele>
        <time>2020-10-11T10:32:19Z</time>
      </trkpt>
      <trkpt lat="37.338688000" lon="-5.856515000">
        <ele>20.7</ele>
        <time>2020-10-11T10:32:22Z</time>
      </trkpt>
      <trkpt lat="37.338573000" lon="-5.856555000">
        <ele>20.6</ele>
        <time>2020-10-11T10:32:25Z</time>
      </trkpt>
      <trkpt lat="37.338465000" lon="-5.856593000">
        <ele>20.5</ele>
        <time>2020-10-11T10:32:28Z</time>
      </trkpt>
      <trkpt lat="37.338361000" lon="-5.856642000">
        <ele>20.4</ele>
        <time>2020-10-11T10:32:31Z</time>
      </trkpt>
      <trkpt lat="37.338260000" lon="-5.856690000">
        <ele>20.2</ele>
        <time>2020-10-11T10:32:34Z</time>
      </trkpt>
      <trkpt lat="37.338161000" lon="-5.856734000">
        <ele>19.9</ele>
        <time>2020-10-11T10:32:37Z</time>
      </trkpt>
      <trkpt lat="37.338072000" lon="-5.856796000">
        <ele>19.5</ele>
        <time>2020-10-11T10:32:40Z</time>
      </trkpt>
      <trkpt lat="37.337984000" lon="-5.856846000">
        <ele>19.3</ele>
        <time>2020-10-11T10:32:43Z</time>
      </trkpt>
      <trkpt lat="37.337881000" lon="-5.856873000">
        <ele>19.2</ele>
        <time>2020-10-11T10:32:46Z</time>
      </trkpt>
      <trkpt lat="37.337783000" lon="-5.856890000">
        <ele>19.2</ele>
        <time>2020-10-11T10:32:49Z</time>
      </trkpt>
      <trkpt lat="37.337694000" lon="-5.856904000">
        <ele>19.3</ele>
        <time>2020-10-11T10:32:52Z</time>
      </trkpt>
      <trkpt lat="37.337612000" lon="-5.856902000">
        <ele>19.5</ele>
        <time>2020-10-11T10:32:56Z</time>
      </trkpt>
      <trkpt lat="37.337507000" lon="-5.856894000">
        <ele>19.8</ele>
        <time>2020-10-11T10:33:14Z</time>
      </trkpt>
      <trkpt lat="37.337402000" lon="-5.856902000">
        <ele>20.1</ele>
        <time>2020-10-11T10:33:17Z</time>
      </trkpt>
      <trkpt lat="37.337296000" lon="-5.856896000">
        <ele>20.4</ele>
        <time>2020-10-11T10:33:20Z</time>
      </trkpt>
      <trkpt lat="37.337197000" lon="-5.856909000">
        <ele>20.6</ele>
        <time>2020-10-11T10:33:24Z</time>
      </trkpt>
      <trkpt lat="37.337103000" lon="-5.856931000">
        <ele>20.8</ele>
        <time>2020-10-11T10:33:28Z</time>
      </trkpt>
      <trkpt lat="37.337016000" lon="-5.856938000">
        <ele>20.9</ele>
        <time>2020-10-11T10:33:32Z</time>
      </trkpt>
      <trkpt lat="37.337099000" lon="-5.856947000">
        <ele>20.8</ele>
        <time>2020-10-11T10:34:40Z</time>
      </trkpt>
      <trkpt lat="37.337197000" lon="-5.856939000">
        <ele>20.6</ele>
        <time>2020-10-11T10:34:43Z</time>
      </trkpt>
      <trkpt lat="37.337294000" lon="-5.856915000">
        <ele>20.5</ele>
        <time>2020-10-11T10:34:46Z</time>
      </trkpt>
      <trkpt lat="37.337383000" lon="-5.856903000">
        <ele>20.3</ele>
        <time>2020-10-11T10:34:50Z</time>
      </trkpt>
      <trkpt lat="37.337465000" lon="-5.856915000">
        <ele>20.2</ele>
        <time>2020-10-11T10:34:53Z</time>
      </trkpt>
      <trkpt lat="37.337562000" lon="-5.856929000">
        <ele>20.2</ele>
        <time>2020-10-11T10:34:57Z</time>
      </trkpt>
      <trkpt lat="37.337653000" lon="-5.856923000">
        <ele>20.5</ele>
        <time>2020-10-11T10:35:01Z</time>
      </trkpt>
      <trkpt lat="37.337714000" lon="-5.856841000">
        <ele>20.9</ele>
        <time>2020-10-11T10:35:05Z</time>
      </trkpt>
      <trkpt lat="37.337651000" lon="-5.856751000">
        <ele>21.4</ele>
        <time>2020-10-11T10:35:11Z</time>
      </trkpt>
      <trkpt lat="37.337573000" lon="-5.856684000">
        <ele>21.9</ele>
        <time>2020-10-11T10:35:16Z</time>
      </trkpt>
      <trkpt lat="37.337539000" lon="-5.856579000">
        <ele>22.7</ele>
        <time>2020-10-11T10:35:21Z</time>
      </trkpt>
      <trkpt lat="37.337543000" lon="-5.856455000">
        <ele>23.7</ele>
        <time>2020-10-11T10:35:26Z</time>
      </trkpt>
      <trkpt lat="37.337555000" lon="-5.856333000">
        <ele>24.8</ele>
        <time>2020-10-11T10:35:31Z</time>
      </trkpt>
      <trkpt lat="37.337561000" lon="-5.856207000">
        <ele>25.8</ele>
        <time>2020-10-11T10:35:36Z</time>
      </trkpt>
      <trkpt lat="37.337546000" lon="-5.856092000">
        <ele>26.7</ele>
        <time>2020-10-11T10:35:41Z</time>
      </trkpt>
      <trkpt lat="37.337519000" lon="-5.855990000">
        <ele>27.6</ele>
        <time>2020-10-11T10:35:46Z</time>
      </trkpt>
      <trkpt lat="37.337495000" lon="-5.855873000">
        <ele>28.5</ele>
        <time>2020-10-11T10:35:51Z</time>
      </trkpt>
      <trkpt lat="37.337472000" lon="-5.855764000">
        <ele>29.2</ele>
        <time>2020-10-11T10:35:56Z</time>
      </trkpt>
      <trkpt lat="37.337439000" lon="-5.855668000">
        <ele>30.0</ele>
        <time>2020-10-11T10:36:33Z</time>
      </trkpt>
      <trkpt lat="37.337433000" lon="-5.855551000">
        <ele>31.0</ele>
        <time>2020-10-11T10:36:38Z</time>
      </trkpt>
      <trkpt lat="37.337434000" lon="-5.855420000">
        <ele>32.2</ele>
        <time>2020-10-11T10:36:42Z</time>
      </trkpt>
      <trkpt lat="37.337443000" lon="-5.855298000">
        <ele>33.1</ele>
        <time>2020-10-11T10:36:46Z</time>
      </trkpt>
      <trkpt lat="37.337445000" lon="-5.855174000">
        <ele>34.0</ele>
        <time>2020-10-11T10:36:50Z</time>
      </trkpt>
      <trkpt lat="37.337451000" lon="-5.855047000">
        <ele>34.8</ele>
        <time>2020-10-11T10:36:54Z</time>
      </trkpt>
      <trkpt lat="37.337458000" lon="-5.854914000">
        <ele>35.7</ele>
        <time>2020-10-11T10:36:58Z</time>
      </trkpt>
      <trkpt lat="37.337434000" lon="-5.854807000">
        <ele>36.7</ele>
        <time>2020-10-11T10:37:02Z</time>
      </trkpt>
      <trkpt lat="37.337349000" lon="-5.854786000">
        <ele>37.6</ele>
        <time>2020-10-11T10:37:06Z</time>
      </trkpt>
      <trkpt lat="37.337305000" lon="-5.854675000">
        <ele>38.5</ele>
        <time>2020-10-11T10:37:10Z</time>
      </trkpt>
      <trkpt lat="37.337242000" lon="-5.854602000">
        <ele>39.4</ele>
        <time>2020-10-11T10:37:13Z</time>
      </trkpt>
      <trkpt lat="37.337165000" lon="-5.854533000">
        <ele>40.1</ele>
        <time>2020-10-11T10:37:16Z</time>
      </trkpt>
      <trkpt lat="37.337109000" lon="-5.854439000">
        <ele>40.6</ele>
        <time>2020-10-11T10:37:19Z</time>
      </trkpt>
      <trkpt lat="37.337067000" lon="-5.854330000">
        <ele>41.1</ele>
        <time>2020-10-11T10:37:22Z</time>
      </trkpt>
      <trkpt lat="37.337023000" lon="-5.854224000">
        <ele>41.6</ele>
        <time>2020-10-11T10:37:25Z</time>
      </trkpt>
      <trkpt lat="37.336959000" lon="-5.854135000">
        <ele>42.1</ele>
        <time>2020-10-11T10:37:28Z</time>
      </trkpt>
      <trkpt lat="37.336881000" lon="-5.854063000">
        <ele>42.5</ele>
        <time>2020-10-11T10:37:31Z</time>
      </trkpt>
      <trkpt lat="37.336812000" lon="-5.853971000">
        <ele>43.0</ele>
        <time>2020-10-11T10:37:34Z</time>
      </trkpt>
      <trkpt lat="37.336753000" lon="-5.853869000">
        <ele>43.5</ele>
        <time>2020-10-11T10:37:37Z</time>
      </trkpt>
      <trkpt lat="37.336701000" lon="-5.853745000">
        <ele>43.9</ele>
        <time>2020-10-11T10:37:40Z</time>
      </trkpt>
      <trkpt lat="37.336648000" lon="-5.853622000">
        <ele>44.3</ele>
        <time>2020-10-11T10:37:43Z</time>
      </trkpt>
      <trkpt lat="37.336595000" lon="-5.853494000">
        <ele>44.5</ele>
        <time>2020-10-11T10:37:46Z</time>
      </trkpt>
      <trkpt lat="37.336538000" lon="-5.853373000">
        <ele>44.7</ele>
        <time>2020-10-11T10:37:49Z</time>
      </trkpt>
      <trkpt lat="37.336427000" lon="-5.853323000">
        <ele>45.0</ele>
        <time>2020-10-11T10:37:52Z</time>
      </trkpt>
      <trkpt lat="37.336349000" lon="-5.853271000">
        <ele>45.2</ele>
        <time>2020-10-11T10:37:54Z</time>
      </trkpt>
      <trkpt lat="37.336319000" lon="-5.853169000">
        <ele>45.4</ele>
        <time>2020-10-11T10:37:56Z</time>
      </trkpt>
      <trkpt lat="37.336363000" lon="-5.853049000">
        <ele>45.6</ele>
        <time>2020-10-11T10:37:59Z</time>
      </trkpt>
      <trkpt lat="37.336441000" lon="-5.852958000">
        <ele>45.9</ele>
        <time>2020-10-11T10:38:03Z</time>
      </trkpt>
      <trkpt lat="37.336523000" lon="-5.852902000">
        <ele>46.2</ele>
        <time>2020-10-11T10:38:07Z</time>
      </trkpt>
      <trkpt lat="37.336598000" lon="-5.852850000">
        <ele>46.5</ele>
        <time>2020-10-11T10:38:10Z</time>
      </trkpt>
      <trkpt lat="37.336679000" lon="-5.852784000">
        <ele>46.9</ele>
        <time>2020-10-11T10:38:13Z</time>
      </trkpt>
      <trkpt lat="37.336760000" lon="-5.852723000">
        <ele>47.5</ele>
        <time>2020-10-11T10:38:16Z</time>
      </trkpt>
      <trkpt lat="37.336837000" lon="-5.852663000">
        <ele>48.1</ele>
        <time>2020-10-11T10:38:19Z</time>
      </trkpt>
      <trkpt lat="37.336910000" lon="-5.852606000">
        <ele>48.7</ele>
        <time>2020-10-11T10:38:22Z</time>
      </trkpt>
      <trkpt lat="37.336994000" lon="-5.852542000">
        <ele>49.4</ele>
        <time>2020-10-11T10:38:26Z</time>
      </trkpt>
      <trkpt lat="37.337066000" lon="-5.852473000">
        <ele>50.0</ele>
        <time>2020-10-11T10:38:30Z</time>
      </trkpt>
      <trkpt lat="37.337054000" lon="-5.852360000">
        <ele>50.8</ele>
        <time>2020-10-11T10:38:34Z</time>
      </trkpt>
      <trkpt lat="37.337007000" lon="-5.852258000">
        <ele>51.6</ele>
        <time>2020-10-11T10:38:39Z</time>
      </trkpt>
      <trkpt lat="37.336955000" lon="-5.852163000">
        <ele>52.5</ele>
        <time>2020-10-11T10:38:43Z</time>
      </trkpt>
      <trkpt lat="37.336904000" lon="-5.852068000">
        <ele>53.4</ele>
        <time>2020-10-11T10:38:47Z</time>
      </trkpt>
      <trkpt lat="37.336853000" lon="-5.851979000">
        <ele>54.3</ele>
        <time>2020-10-11T10:38:51Z</time>
      </trkpt>
      <trkpt lat="37.336820000" lon="-5.851859000">
        <ele>55.1</ele>
        <time>2020-10-11T10:38:56Z</time>
      </trkpt>
      <trkpt lat="37.336780000" lon="-5.851766000">
        <ele>56.0</ele>
        <time>2020-10-11T10:39:00Z</time>
      </trkpt>
      <trkpt lat="37.336728000" lon="-5.851674000">
        <ele>57.0</ele>
        <time>2020-10-11T10:39:04Z</time>
      </trkpt>
      <trkpt lat="37.336676000" lon="-5.851584000">
        <ele>58.1</ele>
        <time>2020-10-11T10:39:08Z</time>
      </trkpt>
      <trkpt lat="37.336623000" lon="-5.851482000">
        <ele>59.1</ele>
        <time>2020-10-11T10:39:12Z</time>
      </trkpt>
      <trkpt lat="37.336574000" lon="-5.851380000">
        <ele>60.2</ele>
        <time>2020-10-11T10:39:16Z</time>
      </trkpt>
      <trkpt lat="37.336524000" lon="-5.851270000">
        <ele>61.0</ele>
        <time>2020-10-11T10:39:20Z</time>
      </trkpt>
      <trkpt lat="37.336471000" lon="-5.851152000">
        <ele>61.7</ele>
        <time>2020-10-11T10:39:24Z</time>
      </trkpt>
      <trkpt lat="37.336417000" lon="-5.851055000">
        <ele>62.5</ele>
        <time>2020-10-11T10:39:28Z</time>
      </trkpt>
      <trkpt lat="37.336391000" lon="-5.850959000">
        <ele>63.0</ele>
        <time>2020-10-11T10:39:32Z</time>
      </trkpt>
      <trkpt lat="37.336365000" lon="-5.850844000">
        <ele>63.5</ele>
        <time>2020-10-11T10:39:36Z</time>
      </trkpt>
      <trkpt lat="37.336354000" lon="-5.850742000">
        <ele>63.7</ele>
        <time>2020-10-11T10:39:39Z</time>
      </trkpt>
      <trkpt lat="37.336348000" lon="-5.850616000">
        <ele>63.7</ele>
        <time>2020-10-11T10:39:43Z</time>
      </trkpt>
      <trkpt lat="37.336352000" lon="-5.850480000">
        <ele>63.6</ele>
        <time>2020-10-11T10:39:47Z</time>
      </trkpt>
      <trkpt lat="37.336355000" lon="-5.850359000">
        <ele>63.5</ele>
        <time>2020-10-11T10:39:50Z</time>
      </trkpt>
      <trkpt lat="37.336347000" lon="-5.850226000">
        <ele>63.4</ele>
        <time>2020-10-11T10:39:53Z</time>
      </trkpt>
      <trkpt lat="37.336337000" lon="-5.850080000">
        <ele>63.3</ele>
        <time>2020-10-11T10:39:56Z</time>
      </trkpt>
      <trkpt lat="37.336327000" lon="-5.849967000">
        <ele>63.3</ele>
        <time>2020-10-11T10:39:58Z</time>
      </trkpt>
      <trkpt lat="37.336308000" lon="-5.849827000">
        <ele>63.3</ele>
        <time>2020-10-11T10:40:00Z</time>
      </trkpt>
      <trkpt lat="37.336302000" lon="-5.849695000">
        <ele>63.3</ele>
        <time>2020-10-11T10:40:02Z</time>
      </trkpt>
      <trkpt lat="37.336299000" lon="-5.849571000">
        <ele>63.3</ele>
        <time>2020-10-11T10:40:04Z</time>
      </trkpt>
      <trkpt lat="37.336296000" lon="-5.849455000">
        <ele>63.3</ele>
        <time>2020-10-11T10:40:06Z</time>
      </trkpt>
      <trkpt lat="37.336294000" lon="-5.849344000">
        <ele>63.5</ele>
        <time>2020-10-11T10:40:08Z</time>
      </trkpt>
      <trkpt lat="37.336288000" lon="-5.849200000">
        <ele>63.7</ele>
        <time>2020-10-11T10:40:11Z</time>
      </trkpt>
      <trkpt lat="37.336274000" lon="-5.849089000">
        <ele>64.0</ele>
        <time>2020-10-11T10:40:14Z</time>
      </trkpt>
      <trkpt lat="37.336325000" lon="-5.849003000">
        <ele>64.2</ele>
        <time>2020-10-11T10:40:20Z</time>
      </trkpt>
      <trkpt lat="37.336387000" lon="-5.848930000">
        <ele>64.3</ele>
        <time>2020-10-11T10:41:09Z</time>
      </trkpt>
      <trkpt lat="37.336460000" lon="-5.848833000">
        <ele>64.2</ele>
        <time>2020-10-11T10:41:12Z</time>
      </trkpt>
      <trkpt lat="37.336522000" lon="-5.848747000">
        <ele>64.1</ele>
        <time>2020-10-11T10:41:15Z</time>
      </trkpt>
      <trkpt lat="37.336583000" lon="-5.848655000">
        <ele>64.0</ele>
        <time>2020-10-11T10:41:19Z</time>
      </trkpt>
      <trkpt lat="37.336643000" lon="-5.848557000">
        <ele>63.8</ele>
        <time>2020-10-11T10:41:22Z</time>
      </trkpt>
      <trkpt lat="37.336698000" lon="-5.848478000">
        <ele>63.6</ele>
        <time>2020-10-11T10:41:25Z</time>
      </trkpt>
      <trkpt lat="37.336763000" lon="-5.848406000">
        <ele>63.4</ele>
        <time>2020-10-11T10:41:28Z</time>
      </trkpt>
      <trkpt lat="37.336839000" lon="-5.848313000">
        <ele>63.0</ele>
        <time>2020-10-11T10:41:32Z</time>
      </trkpt>
      <trkpt lat="37.336912000" lon="-5.848195000">
        <ele>62.5</ele>
        <time>2020-10-11T10:41:35Z</time>
      </trkpt>
      <trkpt lat="37.336962000" lon="-5.848108000">
        <ele>62.0</ele>
        <time>2020-10-11T10:41:37Z</time>
      </trkpt>
      <trkpt lat="37.337009000" lon="-5.848017000">
        <ele>61.5</ele>
        <time>2020-10-11T10:41:39Z</time>
      </trkpt>
      <trkpt lat="37.337053000" lon="-5.847929000">
        <ele>60.9</ele>
        <time>2020-10-11T10:41:41Z</time>
      </trkpt>
      <trkpt lat="37.337109000" lon="-5.847797000">
        <ele>60.4</ele>
        <time>2020-10-11T10:41:44Z</time>
      </trkpt>
      <trkpt lat="37.337148000" lon="-5.847699000">
        <ele>59.7</ele>
        <time>2020-10-11T10:41:46Z</time>
      </trkpt>
      <trkpt lat="37.337192000" lon="-5.847607000">
        <ele>59.1</ele>
        <time>2020-10-11T10:41:48Z</time>
      </trkpt>
      <trkpt lat="37.337249000" lon="-5.847510000">
        <ele>58.5</ele>
        <time>2020-10-11T10:41:50Z</time>
      </trkpt>
      <trkpt lat="37.337305000" lon="-5.847419000">
        <ele>57.7</ele>
        <time>2020-10-11T10:41:52Z</time>
      </trkpt>
      <trkpt lat="37.337369000" lon="-5.847313000">
        <ele>57.0</ele>
        <time>2020-10-11T10:41:55Z</time>
      </trkpt>
      <trkpt lat="37.337434000" lon="-5.847202000">
        <ele>56.2</ele>
        <time>2020-10-11T10:41:58Z</time>
      </trkpt>
      <trkpt lat="37.337491000" lon="-5.847092000">
        <ele>55.4</ele>
        <time>2020-10-11T10:42:01Z</time>
      </trkpt>
      <trkpt lat="37.337439000" lon="-5.846975000">
        <ele>54.5</ele>
        <time>2020-10-11T10:42:05Z</time>
      </trkpt>
      <trkpt lat="37.337359000" lon="-5.846901000">
        <ele>53.7</ele>
        <time>2020-10-11T10:42:08Z</time>
      </trkpt>
      <trkpt lat="37.337287000" lon="-5.846830000">
        <ele>52.9</ele>
        <time>2020-10-11T10:42:11Z</time>
      </trkpt>
      <trkpt lat="37.337211000" lon="-5.846752000">
        <ele>52.3</ele>
        <time>2020-10-11T10:42:14Z</time>
      </trkpt>
      <trkpt lat="37.337119000" lon="-5.846663000">
        <ele>51.7</ele>
        <time>2020-10-11T10:42:17Z</time>
      </trkpt>
      <trkpt lat="37.337025000" lon="-5.846570000">
        <ele>51.3</ele>
        <time>2020-10-11T10:42:20Z</time>
      </trkpt>
      <trkpt lat="37.336955000" lon="-5.846513000">
        <ele>50.9</ele>
        <time>2020-10-11T10:42:22Z</time>
      </trkpt>
      <trkpt lat="37.336872000" lon="-5.846439000">
        <ele>50.7</ele>
        <time>2020-10-11T10:42:25Z</time>
      </trkpt>
      <trkpt lat="37.336791000" lon="-5.846362000">
        <ele>50.6</ele>
        <time>2020-10-11T10:42:29Z</time>
      </trkpt>
      <trkpt lat="37.336809000" lon="-5.846238000">
        <ele>50.6</ele>
        <time>2020-10-11T10:42:34Z</time>
      </trkpt>
      <trkpt lat="37.336859000" lon="-5.846121000">
        <ele>50.7</ele>
        <time>2020-10-11T10:42:37Z</time>
      </trkpt>
      <trkpt lat="37.336915000" lon="-5.845990000">
        <ele>50.8</ele>
        <time>2020-10-11T10:42:40Z</time>
      </trkpt>
      <trkpt lat="37.336974000" lon="-5.845869000">
        <ele>51.1</ele>
        <time>2020-10-11T10:42:43Z</time>
      </trkpt>
      <trkpt lat="37.337027000" lon="-5.845760000">
        <ele>51.4</ele>
        <time>2020-10-11T10:42:46Z</time>
      </trkpt>
      <trkpt lat="37.337085000" lon="-5.845675000">
        <ele>51.6</ele>
        <time>2020-10-11T10:42:49Z</time>
      </trkpt>
      <trkpt lat="37.337109000" lon="-5.845571000">
        <ele>51.9</ele>
        <time>2020-10-11T10:42:54Z</time>
      </trkpt>
      <trkpt lat="37.337099000" lon="-5.845457000">
        <ele>52.2</ele>
        <time>2020-10-11T10:42:58Z</time>
      </trkpt>
      <trkpt lat="37.337122000" lon="-5.845318000">
        <ele>52.5</ele>
        <time>2020-10-11T10:43:02Z</time>
      </trkpt>
      <trkpt lat="37.337167000" lon="-5.845222000">
        <ele>52.8</ele>
        <time>2020-10-11T10:43:05Z</time>
      </trkpt>
      <trkpt lat="37.337223000" lon="-5.845142000">
        <ele>53.1</ele>
        <time>2020-10-11T10:43:08Z</time>
      </trkpt>
      <trkpt lat="37.337272000" lon="-5.845046000">
        <ele>53.4</ele>
        <time>2020-10-11T10:43:11Z</time>
      </trkpt>
      <trkpt lat="37.337325000" lon="-5.844953000">
        <ele>53.6</ele>
        <time>2020-10-11T10:43:14Z</time>
      </trkpt>
      <trkpt lat="37.337394000" lon="-5.844840000">
        <ele>54.0</ele>
        <time>2020-10-11T10:43:18Z</time>
      </trkpt>
      <trkpt lat="37.337452000" lon="-5.844742000">
        <ele>54.3</ele>
        <time>2020-10-11T10:43:21Z</time>
      </trkpt>
      <trkpt lat="37.337482000" lon="-5.844634000">
        <ele>54.5</ele>
        <time>2020-10-11T10:43:24Z</time>
      </trkpt>
      <trkpt lat="37.337510000" lon="-5.844525000">
        <ele>54.5</ele>
        <time>2020-10-11T10:43:27Z</time>
      </trkpt>
      <trkpt lat="37.337529000" lon="-5.844406000">
        <ele>54.6</ele>
        <time>2020-10-11T10:43:31Z</time>
      </trkpt>
      <trkpt lat="37.337539000" lon="-5.844303000">
        <ele>54.7</ele>
        <time>2020-10-11T10:43:36Z</time>
      </trkpt>
      <trkpt lat="37.337548000" lon="-5.844173000">
        <ele>54.7</ele>
        <time>2020-10-11T10:43:40Z</time>
      </trkpt>
      <trkpt lat="37.337600000" lon="-5.844059000">
        <ele>54.7</ele>
        <time>2020-10-11T10:43:43Z</time>
      </trkpt>
      <trkpt lat="37.337658000" lon="-5.843942000">
        <ele>54.7</ele>
        <time>2020-10-11T10:43:46Z</time>
      </trkpt>
      <trkpt lat="37.337720000" lon="-5.843833000">
        <ele>54.8</ele>
        <time>2020-10-11T10:43:49Z</time>
      </trkpt>
      <trkpt lat="37.337769000" lon="-5.843735000">
        <ele>54.9</ele>
        <time>2020-10-11T10:43:52Z</time>
      </trkpt>
      <trkpt lat="37.337815000" lon="-5.843618000">
        <ele>55.0</ele>
        <time>2020-10-11T10:43:56Z</time>
      </trkpt>
      <trkpt lat="37.337858000" lon="-5.843505000">
        <ele>55.2</ele>
        <time>2020-10-11T10:43:59Z</time>
      </trkpt>
      <trkpt lat="37.337900000" lon="-5.843387000">
        <ele>55.5</ele>
        <time>2020-10-11T10:44:02Z</time>
      </trkpt>
      <trkpt lat="37.337935000" lon="-5.843288000">
        <ele>55.8</ele>
        <time>2020-10-11T10:44:05Z</time>
      </trkpt>
      <trkpt lat="37.337973000" lon="-5.843181000">
        <ele>56.2</ele>
        <time>2020-10-11T10:44:09Z</time>
      </trkpt>
      <trkpt lat="37.338017000" lon="-5.843067000">
        <ele>56.5</ele>
        <time>2020-10-11T10:44:13Z</time>
      </trkpt>
      <trkpt lat="37.338052000" lon="-5.842964000">
        <ele>56.7</ele>
        <time>2020-10-11T10:44:16Z</time>
      </trkpt>
      <trkpt lat="37.338092000" lon="-5.842863000">
        <ele>57.0</ele>
        <time>2020-10-11T10:44:19Z</time>
      </trkpt>
      <trkpt lat="37.338143000" lon="-5.842751000">
        <ele>57.3</ele>
        <time>2020-10-11T10:44:22Z</time>
      </trkpt>
      <trkpt lat="37.338177000" lon="-5.842649000">
        <ele>57.5</ele>
        <time>2020-10-11T10:44:25Z</time>
      </trkpt>
      <trkpt lat="37.338215000" lon="-5.842544000">
        <ele>57.6</ele>
        <time>2020-10-11T10:44:28Z</time>
      </trkpt>
      <trkpt lat="37.338260000" lon="-5.842433000">
        <ele>57.8</ele>
        <time>2020-10-11T10:44:31Z</time>
      </trkpt>
      <trkpt lat="37.338305000" lon="-5.842324000">
        <ele>57.9</ele>
        <time>2020-10-11T10:44:34Z</time>
      </trkpt>
      <trkpt lat="37.338349000" lon="-5.842212000">
        <ele>58.0</ele>
        <time>2020-10-11T10:44:37Z</time>
      </trkpt>
      <trkpt lat="37.338389000" lon="-5.842102000">
        <ele>58.1</ele>
        <time>2020-10-11T10:44:40Z</time>
      </trkpt>
      <trkpt lat="37.338432000" lon="-5.841986000">
        <ele>58.2</ele>
        <time>2020-10-11T10:44:43Z</time>
      </trkpt>
      <trkpt lat="37.338466000" lon="-5.841856000">
        <ele>58.2</ele>
        <time>2020-10-11T10:44:46Z</time>
      </trkpt>
      <trkpt lat="37.338497000" lon="-5.841723000">
        <ele>58.2</ele>
        <time>2020-10-11T10:44:49Z</time>
      </trkpt>
      <trkpt lat="37.338526000" lon="-5.841592000">
        <ele>58.1</ele>
        <time>2020-10-11T10:44:52Z</time>
      </trkpt>
      <trkpt lat="37.338562000" lon="-5.841463000">
        <ele>57.9</ele>
        <time>2020-10-11T10:44:55Z</time>
      </trkpt>
      <trkpt lat="37.338600000" lon="-5.841330000">
        <ele>57.6</ele>
        <time>2020-10-11T10:44:58Z</time>
      </trkpt>
      <trkpt lat="37.338624000" lon="-5.841198000">
        <ele>57.3</ele>
        <time>2020-10-11T10:45:01Z</time>
      </trkpt>
      <trkpt lat="37.338648000" lon="-5.841062000">
        <ele>56.8</ele>
        <time>2020-10-11T10:45:04Z</time>
      </trkpt>
      <trkpt lat="37.338662000" lon="-5.840961000">
        <ele>56.4</ele>
        <time>2020-10-11T10:45:06Z</time>
      </trkpt>
      <trkpt lat="37.338695000" lon="-5.840828000">
        <ele>55.9</ele>
        <time>2020-10-11T10:45:09Z</time>
      </trkpt>
      <trkpt lat="37.338722000" lon="-5.840729000">
        <ele>55.5</ele>
        <time>2020-10-11T10:45:11Z</time>
      </trkpt>
      <trkpt lat="37.338752000" lon="-5.840630000">
        <ele>55.1</ele>
        <time>2020-10-11T10:45:13Z</time>
      </trkpt>
      <trkpt lat="37.338804000" lon="-5.840507000">
        <ele>54.9</ele>
        <time>2020-10-11T10:45:16Z</time>
      </trkpt>
      <trkpt lat="37.338856000" lon="-5.840396000">
        <ele>54.7</ele>
        <time>2020-10-11T10:45:19Z</time>
      </trkpt>
      <trkpt lat="37.338907000" lon="-5.840275000">
        <ele>54.5</ele>
        <time>2020-10-11T10:45:22Z</time>
      </trkpt>
      <trkpt lat="37.338943000" lon="-5.840162000">
        <ele>54.5</ele>
        <time>2020-10-11T10:45:25Z</time>
      </trkpt>
      <trkpt lat="37.338970000" lon="-5.840044000">
        <ele>54.6</ele>
        <time>2020-10-11T10:45:28Z</time>
      </trkpt>
      <trkpt lat="37.338990000" lon="-5.839938000">
        <ele>54.9</ele>
        <time>2020-10-11T10:45:31Z</time>
      </trkpt>
      <trkpt lat="37.338947000" lon="-5.839844000">
        <ele>55.2</ele>
        <time>2020-10-11T10:45:35Z</time>
      </trkpt>
      <trkpt lat="37.338864000" lon="-5.839794000">
        <ele>55.4</ele>
        <time>2020-10-11T10:45:38Z</time>
      </trkpt>
      <trkpt lat="37.338759000" lon="-5.839746000">
        <ele>55.5</ele>
        <time>2020-10-11T10:45:41Z</time>
      </trkpt>
      <trkpt lat="37.338655000" lon="-5.839696000">
        <ele>55.5</ele>
        <time>2020-10-11T10:45:44Z</time>
      </trkpt>
      <trkpt lat="37.338557000" lon="-5.839683000">
        <ele>55.5</ele>
        <time>2020-10-11T10:45:47Z</time>
      </trkpt>
      <trkpt lat="37.338485000" lon="-5.839748000">
        <ele>55.5</ele>
        <time>2020-10-11T10:45:50Z</time>
      </trkpt>
      <trkpt lat="37.338425000" lon="-5.839859000">
        <ele>55.5</ele>
        <time>2020-10-11T10:45:54Z</time>
      </trkpt>
      <trkpt lat="37.338369000" lon="-5.839950000">
        <ele>55.8</ele>
        <time>2020-10-11T10:45:57Z</time>
      </trkpt>
      <trkpt lat="37.338311000" lon="-5.840043000">
        <ele>56.1</ele>
        <time>2020-10-11T10:46:00Z</time>
      </trkpt>
      <trkpt lat="37.338250000" lon="-5.840130000">
        <ele>56.5</ele>
        <time>2020-10-11T10:46:03Z</time>
      </trkpt>
      <trkpt lat="37.338186000" lon="-5.840211000">
        <ele>56.7</ele>
        <time>2020-10-11T10:46:06Z</time>
      </trkpt>
      <trkpt lat="37.338122000" lon="-5.840296000">
        <ele>57.1</ele>
        <time>2020-10-11T10:46:09Z</time>
      </trkpt>
      <trkpt lat="37.338055000" lon="-5.840374000">
        <ele>57.5</ele>
        <time>2020-10-11T10:46:12Z</time>
      </trkpt>
      <trkpt lat="37.337974000" lon="-5.840457000">
        <ele>58.2</ele>
        <time>2020-10-11T10:46:15Z</time>
      </trkpt>
      <trkpt lat="37.337922000" lon="-5.840544000">
        <ele>58.8</ele>
        <time>2020-10-11T10:46:18Z</time>
      </trkpt>
      <trkpt lat="37.337849000" lon="-5.840609000">
        <ele>59.5</ele>
        <time>2020-10-11T10:46:22Z</time>
      </trkpt>
      <trkpt lat="37.337750000" lon="-5.840649000">
        <ele>60.2</ele>
        <time>2020-10-11T10:46:26Z</time>
      </trkpt>
      <trkpt lat="37.337663000" lon="-5.840670000">
        <ele>60.9</ele>
        <time>2020-10-11T10:46:29Z</time>
      </trkpt>
      <trkpt lat="37.337581000" lon="-5.840692000">
        <ele>61.6</ele>
        <time>2020-10-11T10:46:32Z</time>
      </trkpt>
      <trkpt lat="37.337496000" lon="-5.840687000">
        <ele>62.4</ele>
        <time>2020-10-11T10:46:35Z</time>
      </trkpt>
      <trkpt lat="37.337403000" lon="-5.840681000">
        <ele>63.1</ele>
        <time>2020-10-11T10:46:38Z</time>
      </trkpt>
      <trkpt lat="37.337305000" lon="-5.840663000">
        <ele>63.8</ele>
        <time>2020-10-11T10:46:41Z</time>
      </trkpt>
      <trkpt lat="37.337210000" lon="-5.840621000">
        <ele>64.5</ele>
        <time>2020-10-11T10:46:45Z</time>
      </trkpt>
      <trkpt lat="37.337111000" lon="-5.840597000">
        <ele>65.4</ele>
        <time>2020-10-11T10:46:48Z</time>
      </trkpt>
      <trkpt lat="37.337008000" lon="-5.840594000">
        <ele>66.0</ele>
        <time>2020-10-11T10:46:51Z</time>
      </trkpt>
      <trkpt lat="37.336923000" lon="-5.840624000">
        <ele>66.5</ele>
        <time>2020-10-11T10:46:54Z</time>
      </trkpt>
      <trkpt lat="37.336847000" lon="-5.840678000">
        <ele>67.1</ele>
        <time>2020-10-11T10:46:57Z</time>
      </trkpt>
      <trkpt lat="37.336791000" lon="-5.840772000">
        <ele>67.5</ele>
        <time>2020-10-11T10:47:00Z</time>
      </trkpt>
      <trkpt lat="37.336740000" lon="-5.840876000">
        <ele>67.7</ele>
        <time>2020-10-11T10:47:04Z</time>
      </trkpt>
      <trkpt lat="37.336728000" lon="-5.840977000">
        <ele>67.9</ele>
        <time>2020-10-11T10:47:07Z</time>
      </trkpt>
      <trkpt lat="37.336753000" lon="-5.841098000">
        <ele>68.0</ele>
        <time>2020-10-11T10:47:11Z</time>
      </trkpt>
      <trkpt lat="37.336773000" lon="-5.841226000">
        <ele>68.2</ele>
        <time>2020-10-11T10:47:15Z</time>
      </trkpt>
      <trkpt lat="37.336784000" lon="-5.841360000">
        <ele>68.4</ele>
        <time>2020-10-11T10:47:19Z</time>
      </trkpt>
      <trkpt lat="37.336794000" lon="-5.841485000">
        <ele>68.5</ele>
        <time>2020-10-11T10:47:22Z</time>
      </trkpt>
      <trkpt lat="37.336801000" lon="-5.841605000">
        <ele>68.5</ele>
        <time>2020-10-11T10:47:25Z</time>
      </trkpt>
      <trkpt lat="37.336812000" lon="-5.841725000">
        <ele>68.5</ele>
        <time>2020-10-11T10:47:29Z</time>
      </trkpt>
      <trkpt lat="37.336727000" lon="-5.841682000">
        <ele>68.6</ele>
        <time>2020-10-11T10:47:51Z</time>
      </trkpt>
      <trkpt lat="37.336710000" lon="-5.841568000">
        <ele>68.7</ele>
        <time>2020-10-11T10:47:53Z</time>
      </trkpt>
      <trkpt lat="37.336714000" lon="-5.841405000">
        <ele>68.8</ele>
        <time>2020-10-11T10:47:55Z</time>
      </trkpt>
      <trkpt lat="37.336697000" lon="-5.841279000">
        <ele>68.9</ele>
        <time>2020-10-11T10:47:57Z</time>
      </trkpt>
      <trkpt lat="37.336676000" lon="-5.841137000">
        <ele>69.0</ele>
        <time>2020-10-11T10:47:59Z</time>
      </trkpt>
      <trkpt lat="37.336648000" lon="-5.841000000">
        <ele>69.1</ele>
        <time>2020-10-11T10:48:01Z</time>
      </trkpt>
      <trkpt lat="37.336629000" lon="-5.840866000">
        <ele>69.0</ele>
        <time>2020-10-11T10:48:03Z</time>
      </trkpt>
      <trkpt lat="37.336604000" lon="-5.840739000">
        <ele>68.9</ele>
        <time>2020-10-11T10:48:05Z</time>
      </trkpt>
      <trkpt lat="37.336545000" lon="-5.840644000">
        <ele>68.9</ele>
        <time>2020-10-11T10:48:07Z</time>
      </trkpt>
      <trkpt lat="37.336481000" lon="-5.840574000">
        <ele>69.0</ele>
        <time>2020-10-11T10:48:09Z</time>
      </trkpt>
      <trkpt lat="37.336416000" lon="-5.840504000">
        <ele>69.2</ele>
        <time>2020-10-11T10:48:11Z</time>
      </trkpt>
      <trkpt lat="37.336356000" lon="-5.840430000">
        <ele>69.3</ele>
        <time>2020-10-11T10:48:13Z</time>
      </trkpt>
      <trkpt lat="37.336289000" lon="-5.840352000">
        <ele>69.4</ele>
        <time>2020-10-11T10:48:15Z</time>
      </trkpt>
      <trkpt lat="37.336222000" lon="-5.840284000">
        <ele>69.5</ele>
        <time>2020-10-11T10:48:17Z</time>
      </trkpt>
      <trkpt lat="37.336154000" lon="-5.840222000">
        <ele>69.5</ele>
        <time>2020-10-11T10:48:19Z</time>
      </trkpt>
      <trkpt lat="37.336086000" lon="-5.840162000">
        <ele>69.5</ele>
        <time>2020-10-11T10:48:21Z</time>
      </trkpt>
      <trkpt lat="37.336018000" lon="-5.840092000">
        <ele>69.5</ele>
        <time>2020-10-11T10:48:23Z</time>
      </trkpt>
      <trkpt lat="37.335946000" lon="-5.840008000">
        <ele>69.3</ele>
        <time>2020-10-11T10:48:25Z</time>
      </trkpt>
      <trkpt lat="37.335861000" lon="-5.839933000">
        <ele>69.0</ele>
        <time>2020-10-11T10:48:27Z</time>
      </trkpt>
      <trkpt lat="37.335767000" lon="-5.839869000">
        <ele>68.6</ele>
        <time>2020-10-11T10:48:31Z</time>
      </trkpt>
      <trkpt lat="37.335590000" lon="-5.839793000">
        <ele>68.1</ele>
        <time>2020-10-11T10:48:32Z</time>
      </trkpt>
      <trkpt lat="37.335469000" lon="-5.839761000">
        <ele>67.4</ele>
        <time>2020-10-11T10:48:34Z</time>
      </trkpt>
      <trkpt lat="37.335347000" lon="-5.839732000">
        <ele>66.5</ele>
        <time>2020-10-11T10:48:36Z</time>
      </trkpt>
      <trkpt lat="37.335223000" lon="-5.839695000">
        <ele>65.5</ele>
        <time>2020-10-11T10:48:38Z</time>
      </trkpt>
      <trkpt lat="37.335092000" lon="-5.839665000">
        <ele>64.4</ele>
        <time>2020-10-11T10:48:40Z</time>
      </trkpt>
      <trkpt lat="37.334962000" lon="-5.839623000">
        <ele>63.3</ele>
        <time>2020-10-11T10:48:42Z</time>
      </trkpt>
      <trkpt lat="37.334835000" lon="-5.839591000">
        <ele>62.2</ele>
        <time>2020-10-11T10:48:44Z</time>
      </trkpt>
      <trkpt lat="37.334708000" lon="-5.839562000">
        <ele>61.2</ele>
        <time>2020-10-11T10:48:46Z</time>
      </trkpt>
      <trkpt lat="37.334580000" lon="-5.839538000">
        <ele>60.3</ele>
        <time>2020-10-11T10:48:48Z</time>
      </trkpt>
      <trkpt lat="37.334467000" lon="-5.839507000">
        <ele>59.5</ele>
        <time>2020-10-11T10:48:50Z</time>
      </trkpt>
      <trkpt lat="37.334355000" lon="-5.839480000">
        <ele>58.7</ele>
        <time>2020-10-11T10:48:52Z</time>
      </trkpt>
      <trkpt lat="37.334250000" lon="-5.839459000">
        <ele>58.1</ele>
        <time>2020-10-11T10:48:54Z</time>
      </trkpt>
      <trkpt lat="37.334149000" lon="-5.839450000">
        <ele>57.7</ele>
        <time>2020-10-11T10:48:56Z</time>
      </trkpt>
      <trkpt lat="37.334041000" lon="-5.839445000">
        <ele>57.5</ele>
        <time>2020-10-11T10:48:59Z</time>
      </trkpt>
      <trkpt lat="37.334000000" lon="-5.839328000">
        <ele>57.5</ele>
        <time>2020-10-11T10:49:41Z</time>
      </trkpt>
      <trkpt lat="37.333960000" lon="-5.839184000">
        <ele>57.5</ele>
        <time>2020-10-11T10:49:44Z</time>
      </trkpt>
      <trkpt lat="37.333936000" lon="-5.839075000">
        <ele>57.6</ele>
        <time>2020-10-11T10:49:46Z</time>
      </trkpt>
      <trkpt lat="37.333914000" lon="-5.838962000">
        <ele>57.9</ele>
        <time>2020-10-11T10:49:48Z</time>
      </trkpt>
      <trkpt lat="37.333882000" lon="-5.838849000">
        <ele>58.2</ele>
        <time>2020-10-11T10:49:50Z</time>
      </trkpt>
      <trkpt lat="37.333847000" lon="-5.838733000">
        <ele>58.4</ele>
        <time>2020-10-11T10:49:52Z</time>
      </trkpt>
      <trkpt lat="37.333815000" lon="-5.838613000">
        <ele>58.5</ele>
        <time>2020-10-11T10:49:54Z</time>
      </trkpt>
      <trkpt lat="37.333789000" lon="-5.838483000">
        <ele>58.7</ele>
        <time>2020-10-11T10:49:56Z</time>
      </trkpt>
      <trkpt lat="37.333756000" lon="-5.838361000">
        <ele>58.9</ele>
        <time>2020-10-11T10:49:58Z</time>
      </trkpt>
      <trkpt lat="37.333723000" lon="-5.838236000">
        <ele>59.0</ele>
        <time>2020-10-11T10:50:00Z</time>
      </trkpt>
      <trkpt lat="37.333690000" lon="-5.838109000">
        <ele>59.2</ele>
        <time>2020-10-11T10:50:02Z</time>
      </trkpt>
      <trkpt lat="37.333659000" lon="-5.837982000">
        <ele>59.4</ele>
        <time>2020-10-11T10:50:04Z</time>
      </trkpt>
      <trkpt lat="37.333631000" lon="-5.837855000">
        <ele>59.5</ele>
        <time>2020-10-11T10:50:06Z</time>
      </trkpt>
      <trkpt lat="37.333602000" lon="-5.837733000">
        <ele>59.5</ele>
        <time>2020-10-11T10:50:08Z</time>
      </trkpt>
      <trkpt lat="37.333574000" lon="-5.837621000">
        <ele>59.6</ele>
        <time>2020-10-11T10:50:10Z</time>
      </trkpt>
      <trkpt lat="37.333542000" lon="-5.837512000">
        <ele>59.7</ele>
        <time>2020-10-11T10:50:12Z</time>
      </trkpt>
      <trkpt lat="37.333504000" lon="-5.837404000">
        <ele>59.9</ele>
        <time>2020-10-11T10:50:14Z</time>
      </trkpt>
      <trkpt lat="37.333473000" lon="-5.837287000">
        <ele>60.1</ele>
        <time>2020-10-11T10:50:16Z</time>
      </trkpt>
      <trkpt lat="37.333433000" lon="-5.837171000">
        <ele>60.3</ele>
        <time>2020-10-11T10:50:18Z</time>
      </trkpt>
      <trkpt lat="37.333390000" lon="-5.837061000">
        <ele>60.5</ele>
        <time>2020-10-11T10:50:20Z</time>
      </trkpt>
      <trkpt lat="37.333349000" lon="-5.836954000">
        <ele>60.6</ele>
        <time>2020-10-11T10:50:22Z</time>
      </trkpt>
      <trkpt lat="37.333305000" lon="-5.836845000">
        <ele>60.7</ele>
        <time>2020-10-11T10:50:24Z</time>
      </trkpt>
      <trkpt lat="37.333262000" lon="-5.836735000">
        <ele>60.8</ele>
        <time>2020-10-11T10:50:26Z</time>
      </trkpt>
      <trkpt lat="37.333223000" lon="-5.836629000">
        <ele>60.8</ele>
        <time>2020-10-11T10:50:28Z</time>
      </trkpt>
      <trkpt lat="37.333178000" lon="-5.836520000">
        <ele>60.7</ele>
        <time>2020-10-11T10:50:30Z</time>
      </trkpt>
      <trkpt lat="37.333139000" lon="-5.836408000">
        <ele>60.5</ele>
        <time>2020-10-11T10:50:32Z</time>
      </trkpt>
      <trkpt lat="37.333104000" lon="-5.836292000">
        <ele>60.2</ele>
        <time>2020-10-11T10:50:34Z</time>
      </trkpt>
      <trkpt lat="37.333060000" lon="-5.836171000">
        <ele>59.7</ele>
        <time>2020-10-11T10:50:36Z</time>
      </trkpt>
      <trkpt lat="37.332992000" lon="-5.836048000">
        <ele>59.2</ele>
        <time>2020-10-11T10:50:38Z</time>
      </trkpt>
      <trkpt lat="37.332938000" lon="-5.835910000">
        <ele>58.6</ele>
        <time>2020-10-11T10:50:40Z</time>
      </trkpt>
      <trkpt lat="37.332885000" lon="-5.835772000">
        <ele>58.0</ele>
        <time>2020-10-11T10:50:42Z</time>
      </trkpt>
      <trkpt lat="37.332831000" lon="-5.835632000">
        <ele>57.4</ele>
        <time>2020-10-11T10:50:44Z</time>
      </trkpt>
      <trkpt lat="37.332773000" lon="-5.835475000">
        <ele>56.7</ele>
        <time>2020-10-11T10:50:46Z</time>
      </trkpt>
      <trkpt lat="37.332700000" lon="-5.835312000">
        <ele>56.0</ele>
        <time>2020-10-11T10:50:48Z</time>
      </trkpt>
      <trkpt lat="37.332641000" lon="-5.835165000">
        <ele>55.4</ele>
        <time>2020-10-11T10:50:50Z</time>
      </trkpt>
      <trkpt lat="37.332584000" lon="-5.835012000">
        <ele>54.8</ele>
        <time>2020-10-11T10:50:52Z</time>
      </trkpt>
      <trkpt lat="37.332523000" lon="-5.834857000">
        <ele>54.4</ele>
        <time>2020-10-11T10:50:54Z</time>
      </trkpt>
      <trkpt lat="37.332467000" lon="-5.834716000">
        <ele>53.9</ele>
        <time>2020-10-11T10:50:56Z</time>
      </trkpt>
      <trkpt lat="37.332412000" lon="-5.834590000">
        <ele>53.5</ele>
        <time>2020-10-11T10:50:58Z</time>
      </trkpt>
      <trkpt lat="37.332364000" lon="-5.834469000">
        <ele>53.4</ele>
        <time>2020-10-11T10:51:00Z</time>
      </trkpt>
      <trkpt lat="37.332324000" lon="-5.834347000">
        <ele>53.2</ele>
        <time>2020-10-11T10:51:02Z</time>
      </trkpt>
      <trkpt lat="37.332278000" lon="-5.834213000">
        <ele>53.1</ele>
        <time>2020-10-11T10:51:04Z</time>
      </trkpt>
      <trkpt lat="37.332235000" lon="-5.834082000">
        <ele>52.9</ele>
        <time>2020-10-11T10:51:06Z</time>
      </trkpt>
      <trkpt lat="37.332186000" lon="-5.833957000">
        <ele>52.6</ele>
        <time>2020-10-11T10:51:08Z</time>
      </trkpt>
      <trkpt lat="37.332140000" lon="-5.833823000">
        <ele>52.5</ele>
        <time>2020-10-11T10:51:10Z</time>
      </trkpt>
      <trkpt lat="37.332085000" lon="-5.833706000">
        <ele>52.2</ele>
        <time>2020-10-11T10:51:12Z</time>
      </trkpt>
      <trkpt lat="37.332033000" lon="-5.833574000">
        <ele>51.9</ele>
        <time>2020-10-11T10:51:14Z</time>
      </trkpt>
      <trkpt lat="37.331983000" lon="-5.833444000">
        <ele>51.5</ele>
        <time>2020-10-11T10:51:16Z</time>
      </trkpt>
      <trkpt lat="37.331930000" lon="-5.833320000">
        <ele>51.2</ele>
        <time>2020-10-11T10:51:18Z</time>
      </trkpt>
      <trkpt lat="37.331884000" lon="-5.833197000">
        <ele>50.9</ele>
        <time>2020-10-11T10:51:20Z</time>
      </trkpt>
      <trkpt lat="37.331837000" lon="-5.833065000">
        <ele>50.5</ele>
        <time>2020-10-11T10:51:22Z</time>
      </trkpt>
      <trkpt lat="37.331797000" lon="-5.832941000">
        <ele>50.3</ele>
        <time>2020-10-11T10:51:24Z</time>
      </trkpt>
      <trkpt lat="37.331743000" lon="-5.832809000">
        <ele>50.0</ele>
        <time>2020-10-11T10:51:26Z</time>
      </trkpt>
      <trkpt lat="37.331684000" lon="-5.832694000">
        <ele>49.9</ele>
        <time>2020-10-11T10:51:28Z</time>
      </trkpt>
      <trkpt lat="37.331634000" lon="-5.832566000">
        <ele>49.9</ele>
        <time>2020-10-11T10:51:30Z</time>
      </trkpt>
      <trkpt lat="37.331581000" lon="-5.832438000">
        <ele>49.9</ele>
        <time>2020-10-11T10:51:32Z</time>
      </trkpt>
      <trkpt lat="37.331534000" lon="-5.832311000">
        <ele>50.0</ele>
        <time>2020-10-11T10:51:34Z</time>
      </trkpt>
      <trkpt lat="37.331486000" lon="-5.832185000">
        <ele>50.1</ele>
        <time>2020-10-11T10:51:36Z</time>
      </trkpt>
      <trkpt lat="37.331434000" lon="-5.832059000">
        <ele>50.3</ele>
        <time>2020-10-11T10:51:38Z</time>
      </trkpt>
      <trkpt lat="37.331383000" lon="-5.831936000">
        <ele>50.5</ele>
        <time>2020-10-11T10:51:40Z</time>
      </trkpt>
      <trkpt lat="37.331340000" lon="-5.831808000">
        <ele>50.6</ele>
        <time>2020-10-11T10:51:42Z</time>
      </trkpt>
      <trkpt lat="37.331299000" lon="-5.831685000">
        <ele>50.8</ele>
        <time>2020-10-11T10:51:44Z</time>
      </trkpt>
      <trkpt lat="37.331260000" lon="-5.831582000">
        <ele>50.9</ele>
        <time>2020-10-11T10:51:46Z</time>
      </trkpt>
      <trkpt lat="37.331218000" lon="-5.831471000">
        <ele>51.1</ele>
        <time>2020-10-11T10:51:48Z</time>
      </trkpt>
      <trkpt lat="37.331169000" lon="-5.831360000">
        <ele>51.2</ele>
        <time>2020-10-11T10:51:50Z</time>
      </trkpt>
      <trkpt lat="37.331124000" lon="-5.831252000">
        <ele>51.3</ele>
        <time>2020-10-11T10:51:52Z</time>
      </trkpt>
      <trkpt lat="37.331079000" lon="-5.831130000">
        <ele>51.5</ele>
        <time>2020-10-11T10:51:54Z</time>
      </trkpt>
      <trkpt lat="37.331035000" lon="-5.831019000">
        <ele>51.6</ele>
        <time>2020-10-11T10:51:56Z</time>
      </trkpt>
      <trkpt lat="37.330986000" lon="-5.830905000">
        <ele>51.8</ele>
        <time>2020-10-11T10:51:58Z</time>
      </trkpt>
      <trkpt lat="37.330945000" lon="-5.830785000">
        <ele>52.0</ele>
        <time>2020-10-11T10:52:00Z</time>
      </trkpt>
      <trkpt lat="37.330895000" lon="-5.830671000">
        <ele>52.2</ele>
        <time>2020-10-11T10:52:02Z</time>
      </trkpt>
      <trkpt lat="37.330848000" lon="-5.830549000">
        <ele>52.4</ele>
        <time>2020-10-11T10:52:04Z</time>
      </trkpt>
      <trkpt lat="37.330808000" lon="-5.830441000">
        <ele>52.5</ele>
        <time>2020-10-11T10:52:06Z</time>
      </trkpt>
      <trkpt lat="37.330763000" lon="-5.830324000">
        <ele>52.7</ele>
        <time>2020-10-11T10:52:08Z</time>
      </trkpt>
      <trkpt lat="37.330715000" lon="-5.830209000">
        <ele>52.8</ele>
        <time>2020-10-11T10:52:10Z</time>
      </trkpt>
      <trkpt lat="37.330671000" lon="-5.830097000">
        <ele>52.9</ele>
        <time>2020-10-11T10:52:12Z</time>
      </trkpt>
      <trkpt lat="37.330634000" lon="-5.829995000">
        <ele>53.0</ele>
        <time>2020-10-11T10:52:14Z</time>
      </trkpt>
      <trkpt lat="37.330597000" lon="-5.829886000">
        <ele>53.0</ele>
        <time>2020-10-11T10:52:16Z</time>
      </trkpt>
      <trkpt lat="37.330557000" lon="-5.829785000">
        <ele>53.1</ele>
        <time>2020-10-11T10:52:18Z</time>
      </trkpt>
      <trkpt lat="37.330504000" lon="-5.829654000">
        <ele>53.3</ele>
        <time>2020-10-11T10:52:21Z</time>
      </trkpt>
      <trkpt lat="37.330468000" lon="-5.829562000">
        <ele>53.5</ele>
        <time>2020-10-11T10:52:23Z</time>
      </trkpt>
      <trkpt lat="37.330420000" lon="-5.829441000">
        <ele>53.7</ele>
        <time>2020-10-11T10:52:26Z</time>
      </trkpt>
      <trkpt lat="37.330367000" lon="-5.829320000">
        <ele>54.1</ele>
        <time>2020-10-11T10:52:29Z</time>
      </trkpt>
      <trkpt lat="37.330310000" lon="-5.829182000">
        <ele>54.5</ele>
        <time>2020-10-11T10:52:32Z</time>
      </trkpt>
      <trkpt lat="37.330276000" lon="-5.829084000">
        <ele>54.8</ele>
        <time>2020-10-11T10:52:34Z</time>
      </trkpt>
      <trkpt lat="37.330239000" lon="-5.828990000">
        <ele>55.3</ele>
        <time>2020-10-11T10:52:36Z</time>
      </trkpt>
      <trkpt lat="37.330194000" lon="-5.828856000">
        <ele>55.8</ele>
        <time>2020-10-11T10:52:39Z</time>
      </trkpt>
      <trkpt lat="37.330144000" lon="-5.828726000">
        <ele>56.5</ele>
        <time>2020-10-11T10:52:42Z</time>
      </trkpt>
      <trkpt lat="37.330111000" lon="-5.828632000">
        <ele>57.2</ele>
        <time>2020-10-11T10:52:44Z</time>
      </trkpt>
      <trkpt lat="37.330073000" lon="-5.828541000">
        <ele>57.9</ele>
        <time>2020-10-11T10:52:46Z</time>
      </trkpt>
      <trkpt lat="37.330019000" lon="-5.828408000">
        <ele>58.5</ele>
        <time>2020-10-11T10:52:49Z</time>
      </trkpt>
      <trkpt lat="37.329969000" lon="-5.828288000">
        <ele>59.2</ele>
        <time>2020-10-11T10:52:52Z</time>
      </trkpt>
      <trkpt lat="37.329916000" lon="-5.828157000">
        <ele>59.8</ele>
        <time>2020-10-11T10:52:55Z</time>
      </trkpt>
      <trkpt lat="37.329877000" lon="-5.828066000">
        <ele>60.4</ele>
        <time>2020-10-11T10:52:57Z</time>
      </trkpt>
      <trkpt lat="37.329822000" lon="-5.827931000">
        <ele>60.9</ele>
        <time>2020-10-11T10:53:00Z</time>
      </trkpt>
      <trkpt lat="37.329785000" lon="-5.827836000">
        <ele>61.4</ele>
        <time>2020-10-11T10:53:02Z</time>
      </trkpt>
      <trkpt lat="37.329730000" lon="-5.827700000">
        <ele>61.8</ele>
        <time>2020-10-11T10:53:05Z</time>
      </trkpt>
      <trkpt lat="37.329694000" lon="-5.827605000">
        <ele>62.2</ele>
        <time>2020-10-11T10:53:07Z</time>
      </trkpt>
      <trkpt lat="37.329651000" lon="-5.827513000">
        <ele>62.5</ele>
        <time>2020-10-11T10:53:09Z</time>
      </trkpt>
      <trkpt lat="37.329598000" lon="-5.827380000">
        <ele>62.7</ele>
        <time>2020-10-11T10:53:12Z</time>
      </trkpt>
      <trkpt lat="37.329540000" lon="-5.827250000">
        <ele>62.9</ele>
        <time>2020-10-11T10:53:15Z</time>
      </trkpt>
      <trkpt lat="37.329492000" lon="-5.827126000">
        <ele>63.1</ele>
        <time>2020-10-11T10:53:18Z</time>
      </trkpt>
      <trkpt lat="37.329445000" lon="-5.827004000">
        <ele>63.2</ele>
        <time>2020-10-11T10:53:21Z</time>
      </trkpt>
      <trkpt lat="37.329398000" lon="-5.826883000">
        <ele>63.2</ele>
        <time>2020-10-11T10:53:24Z</time>
      </trkpt>
      <trkpt lat="37.329355000" lon="-5.826767000">
        <ele>63.2</ele>
        <time>2020-10-11T10:53:27Z</time>
      </trkpt>
      <trkpt lat="37.329310000" lon="-5.826655000">
        <ele>63.2</ele>
        <time>2020-10-11T10:53:30Z</time>
      </trkpt>
      <trkpt lat="37.329261000" lon="-5.826557000">
        <ele>63.3</ele>
        <time>2020-10-11T10:53:33Z</time>
      </trkpt>
      <trkpt lat="37.329218000" lon="-5.826434000">
        <ele>63.4</ele>
        <time>2020-10-11T10:53:36Z</time>
      </trkpt>
      <trkpt lat="37.329167000" lon="-5.826303000">
        <ele>63.5</ele>
        <time>2020-10-11T10:53:39Z</time>
      </trkpt>
      <trkpt lat="37.329119000" lon="-5.826172000">
        <ele>63.6</ele>
        <time>2020-10-11T10:53:42Z</time>
      </trkpt>
      <trkpt lat="37.329072000" lon="-5.826048000">
        <ele>63.8</ele>
        <time>2020-10-11T10:53:45Z</time>
      </trkpt>
      <trkpt lat="37.329023000" lon="-5.825918000">
        <ele>64.1</ele>
        <time>2020-10-11T10:53:48Z</time>
      </trkpt>
      <trkpt lat="37.328970000" lon="-5.825786000">
        <ele>64.5</ele>
        <time>2020-10-11T10:53:51Z</time>
      </trkpt>
      <trkpt lat="37.328916000" lon="-5.825655000">
        <ele>64.9</ele>
        <time>2020-10-11T10:53:54Z</time>
      </trkpt>
      <trkpt lat="37.328854000" lon="-5.825536000">
        <ele>65.4</ele>
        <time>2020-10-11T10:53:57Z</time>
      </trkpt>
      <trkpt lat="37.328787000" lon="-5.825415000">
        <ele>65.8</ele>
        <time>2020-10-11T10:54:00Z</time>
      </trkpt>
      <trkpt lat="37.328713000" lon="-5.825295000">
        <ele>66.3</ele>
        <time>2020-10-11T10:54:03Z</time>
      </trkpt>
      <trkpt lat="37.328661000" lon="-5.825214000">
        <ele>66.7</ele>
        <time>2020-10-11T10:54:05Z</time>
      </trkpt>
      <trkpt lat="37.328603000" lon="-5.825134000">
        <ele>67.2</ele>
        <time>2020-10-11T10:54:07Z</time>
      </trkpt>
      <trkpt lat="37.328544000" lon="-5.825051000">
        <ele>67.7</ele>
        <time>2020-10-11T10:54:09Z</time>
      </trkpt>
      <trkpt lat="37.328484000" lon="-5.824958000">
        <ele>68.3</ele>
        <time>2020-10-11T10:54:11Z</time>
      </trkpt>
      <trkpt lat="37.328426000" lon="-5.824870000">
        <ele>68.8</ele>
        <time>2020-10-11T10:54:13Z</time>
      </trkpt>
      <trkpt lat="37.328365000" lon="-5.824780000">
        <ele>69.3</ele>
        <time>2020-10-11T10:54:15Z</time>
      </trkpt>
      <trkpt lat="37.328308000" lon="-5.824681000">
        <ele>69.6</ele>
        <time>2020-10-11T10:54:17Z</time>
      </trkpt>
      <trkpt lat="37.328253000" lon="-5.824587000">
        <ele>70.0</ele>
        <time>2020-10-11T10:54:19Z</time>
      </trkpt>
      <trkpt lat="37.328205000" lon="-5.824492000">
        <ele>70.4</ele>
        <time>2020-10-11T10:54:21Z</time>
      </trkpt>
      <trkpt lat="37.328160000" lon="-5.824397000">
        <ele>70.6</ele>
        <time>2020-10-11T10:54:23Z</time>
      </trkpt>
      <trkpt lat="37.328120000" lon="-5.824290000">
        <ele>70.9</ele>
        <time>2020-10-11T10:54:25Z</time>
      </trkpt>
      <trkpt lat="37.328080000" lon="-5.824184000">
        <ele>71.1</ele>
        <time>2020-10-11T10:54:27Z</time>
      </trkpt>
      <trkpt lat="37.328046000" lon="-5.824071000">
        <ele>71.2</ele>
        <time>2020-10-11T10:54:29Z</time>
      </trkpt>
      <trkpt lat="37.328004000" lon="-5.823950000">
        <ele>71.1</ele>
        <time>2020-10-11T10:54:31Z</time>
      </trkpt>
      <trkpt lat="37.327969000" lon="-5.823825000">
        <ele>70.8</ele>
        <time>2020-10-11T10:54:33Z</time>
      </trkpt>
      <trkpt lat="37.327940000" lon="-5.823697000">
        <ele>70.3</ele>
        <time>2020-10-11T10:54:35Z</time>
      </trkpt>
      <trkpt lat="37.327913000" lon="-5.823569000">
        <ele>69.5</ele>
        <time>2020-10-11T10:54:37Z</time>
      </trkpt>
      <trkpt lat="37.327892000" lon="-5.823435000">
        <ele>68.7</ele>
        <time>2020-10-11T10:54:39Z</time>
      </trkpt>
      <trkpt lat="37.327871000" lon="-5.823300000">
        <ele>67.8</ele>
        <time>2020-10-11T10:54:41Z</time>
      </trkpt>
      <trkpt lat="37.327858000" lon="-5.823159000">
        <ele>66.8</ele>
        <time>2020-10-11T10:54:43Z</time>
      </trkpt>
      <trkpt lat="37.327846000" lon="-5.823017000">
        <ele>65.8</ele>
        <time>2020-10-11T10:54:45Z</time>
      </trkpt>
      <trkpt lat="37.327844000" lon="-5.822880000">
        <ele>64.7</ele>
        <time>2020-10-11T10:54:47Z</time>
      </trkpt>
      <trkpt lat="37.327841000" lon="-5.822730000">
        <ele>63.6</ele>
        <time>2020-10-11T10:54:49Z</time>
      </trkpt>
      <trkpt lat="37.327844000" lon="-5.822579000">
        <ele>62.5</ele>
        <time>2020-10-11T10:54:51Z</time>
      </trkpt>
      <trkpt lat="37.327840000" lon="-5.822420000">
        <ele>61.5</ele>
        <time>2020-10-11T10:54:53Z</time>
      </trkpt>
      <trkpt lat="37.327831000" lon="-5.822264000">
        <ele>60.4</ele>
        <time>2020-10-11T10:54:55Z</time>
      </trkpt>
      <trkpt lat="37.327816000" lon="-5.822104000">
        <ele>59.5</ele>
        <time>2020-10-11T10:54:57Z</time>
      </trkpt>
      <trkpt lat="37.327805000" lon="-5.821945000">
        <ele>58.6</ele>
        <time>2020-10-11T10:54:59Z</time>
      </trkpt>
      <trkpt lat="37.327791000" lon="-5.821796000">
        <ele>57.8</ele>
        <time>2020-10-11T10:55:01Z</time>
      </trkpt>
      <trkpt lat="37.327780000" lon="-5.821646000">
        <ele>57.1</ele>
        <time>2020-10-11T10:55:03Z</time>
      </trkpt>
      <trkpt lat="37.327766000" lon="-5.821491000">
        <ele>56.4</ele>
        <time>2020-10-11T10:55:05Z</time>
      </trkpt>
      <trkpt lat="37.327753000" lon="-5.821339000">
        <ele>55.7</ele>
        <time>2020-10-11T10:55:07Z</time>
      </trkpt>
      <trkpt lat="37.327740000" lon="-5.821191000">
        <ele>55.2</ele>
        <time>2020-10-11T10:55:09Z</time>
      </trkpt>
      <trkpt lat="37.327729000" lon="-5.821046000">
        <ele>54.8</ele>
        <time>2020-10-11T10:55:11Z</time>
      </trkpt>
      <trkpt lat="37.327721000" lon="-5.820911000">
        <ele>54.5</ele>
        <time>2020-10-11T10:55:13Z</time>
      </trkpt>
      <trkpt lat="37.327714000" lon="-5.820803000">
        <ele>54.4</ele>
        <time>2020-10-11T10:55:15Z</time>
      </trkpt>
      <trkpt lat="37.327726000" lon="-5.820683000">
        <ele>54.4</ele>
        <time>2020-10-11T10:55:19Z</time>
      </trkpt>
      <trkpt lat="37.327735000" lon="-5.820580000">
        <ele>54.4</ele>
        <time>2020-10-11T10:55:23Z</time>
      </trkpt>
      <trkpt lat="37.327742000" lon="-5.820458000">
        <ele>54.5</ele>
        <time>2020-10-11T10:55:26Z</time>
      </trkpt>
      <trkpt lat="37.327733000" lon="-5.820305000">
        <ele>54.6</ele>
        <time>2020-10-11T10:55:29Z</time>
      </trkpt>
      <trkpt lat="37.327734000" lon="-5.820202000">
        <ele>54.8</ele>
        <time>2020-10-11T10:55:31Z</time>
      </trkpt>
      <trkpt lat="37.327733000" lon="-5.820065000">
        <ele>55.1</ele>
        <time>2020-10-11T10:55:34Z</time>
      </trkpt>
      <trkpt lat="37.327719000" lon="-5.819924000">
        <ele>55.4</ele>
        <time>2020-10-11T10:55:49Z</time>
      </trkpt>
      <trkpt lat="37.327716000" lon="-5.819818000">
        <ele>55.6</ele>
        <time>2020-10-11T10:55:51Z</time>
      </trkpt>
      <trkpt lat="37.327736000" lon="-5.819702000">
        <ele>55.8</ele>
        <time>2020-10-11T10:55:53Z</time>
      </trkpt>
      <trkpt lat="37.327736000" lon="-5.819590000">
        <ele>56.0</ele>
        <time>2020-10-11T10:55:55Z</time>
      </trkpt>
      <trkpt lat="37.327740000" lon="-5.819477000">
        <ele>56.2</ele>
        <time>2020-10-11T10:55:57Z</time>
      </trkpt>
      <trkpt lat="37.327746000" lon="-5.819358000">
        <ele>56.3</ele>
        <time>2020-10-11T10:55:59Z</time>
      </trkpt>
      <trkpt lat="37.327743000" lon="-5.819230000">
        <ele>56.4</ele>
        <time>2020-10-11T10:56:01Z</time>
      </trkpt>
      <trkpt lat="37.327745000" lon="-5.819099000">
        <ele>56.5</ele>
        <time>2020-10-11T10:56:03Z</time>
      </trkpt>
      <trkpt lat="37.327747000" lon="-5.818978000">
        <ele>56.6</ele>
        <time>2020-10-11T10:56:05Z</time>
      </trkpt>
      <trkpt lat="37.327746000" lon="-5.818853000">
        <ele>56.8</ele>
        <time>2020-10-11T10:56:07Z</time>
      </trkpt>
      <trkpt lat="37.327742000" lon="-5.818729000">
        <ele>57.0</ele>
        <time>2020-10-11T10:56:09Z</time>
      </trkpt>
      <trkpt lat="37.327739000" lon="-5.818596000">
        <ele>57.2</ele>
        <time>2020-10-11T10:56:11Z</time>
      </trkpt>
      <trkpt lat="37.327742000" lon="-5.818474000">
        <ele>57.4</ele>
        <time>2020-10-11T10:56:13Z</time>
      </trkpt>
      <trkpt lat="37.327743000" lon="-5.818348000">
        <ele>57.5</ele>
        <time>2020-10-11T10:56:15Z</time>
      </trkpt>
      <trkpt lat="37.327743000" lon="-5.818221000">
        <ele>57.6</ele>
        <time>2020-10-11T10:56:17Z</time>
      </trkpt>
      <trkpt lat="37.327748000" lon="-5.818098000">
        <ele>57.7</ele>
        <time>2020-10-11T10:56:19Z</time>
      </trkpt>
      <trkpt lat="37.327743000" lon="-5.817972000">
        <ele>57.7</ele>
        <time>2020-10-11T10:56:21Z</time>
      </trkpt>
      <trkpt lat="37.327745000" lon="-5.817848000">
        <ele>57.7</ele>
        <time>2020-10-11T10:56:23Z</time>
      </trkpt>
      <trkpt lat="37.327749000" lon="-5.817723000">
        <ele>57.6</ele>
        <time>2020-10-11T10:56:25Z</time>
      </trkpt>
      <trkpt lat="37.327744000" lon="-5.817588000">
        <ele>57.5</ele>
        <time>2020-10-11T10:56:27Z</time>
      </trkpt>
      <trkpt lat="37.327746000" lon="-5.817459000">
        <ele>57.3</ele>
        <time>2020-10-11T10:56:29Z</time>
      </trkpt>
      <trkpt lat="37.327737000" lon="-5.817337000">
        <ele>57.1</ele>
        <time>2020-10-11T10:56:31Z</time>
      </trkpt>
      <trkpt lat="37.327730000" lon="-5.817224000">
        <ele>56.9</ele>
        <time>2020-10-11T10:56:33Z</time>
      </trkpt>
      <trkpt lat="37.327723000" lon="-5.817114000">
        <ele>56.7</ele>
        <time>2020-10-11T10:56:35Z</time>
      </trkpt>
      <trkpt lat="37.327717000" lon="-5.817011000">
        <ele>56.5</ele>
        <time>2020-10-11T10:56:37Z</time>
      </trkpt>
      <trkpt lat="37.327718000" lon="-5.816909000">
        <ele>56.3</ele>
        <time>2020-10-11T10:56:39Z</time>
      </trkpt>
      <trkpt lat="37.327714000" lon="-5.816804000">
        <ele>56.0</ele>
        <time>2020-10-11T10:56:41Z</time>
      </trkpt>
      <trkpt lat="37.327713000" lon="-5.816657000">
        <ele>55.8</ele>
        <time>2020-10-11T10:56:44Z</time>
      </trkpt>
      <trkpt lat="37.327711000" lon="-5.816522000">
        <ele>55.6</ele>
        <time>2020-10-11T10:56:47Z</time>
      </trkpt>
      <trkpt lat="37.327702000" lon="-5.816385000">
        <ele>55.5</ele>
        <time>2020-10-11T10:56:50Z</time>
      </trkpt>
      <trkpt lat="37.327696000" lon="-5.816266000">
        <ele>55.5</ele>
        <time>2020-10-11T10:56:54Z</time>
      </trkpt>
      <trkpt lat="37.327649000" lon="-5.816356000">
        <ele>55.5</ele>
        <time>2020-10-11T10:57:09Z</time>
      </trkpt>
      <trkpt lat="37.327688000" lon="-5.816461000">
        <ele>55.5</ele>
        <time>2020-10-11T10:57:37Z</time>
      </trkpt>
      <trkpt lat="37.327699000" lon="-5.816593000">
        <ele>55.5</ele>
        <time>2020-10-11T10:57:41Z</time>
      </trkpt>
      <trkpt lat="37.327692000" lon="-5.816699000">
        <ele>55.5</ele>
        <time>2020-10-11T10:57:45Z</time>
      </trkpt>
      <trkpt lat="37.327699000" lon="-5.816805000">
        <ele>55.7</ele>
        <time>2020-10-11T10:57:48Z</time>
      </trkpt>
      <trkpt lat="37.327707000" lon="-5.816926000">
        <ele>55.9</ele>
        <time>2020-10-11T10:57:51Z</time>
      </trkpt>
      <trkpt lat="37.327705000" lon="-5.817051000">
        <ele>56.2</ele>
        <time>2020-10-11T10:57:54Z</time>
      </trkpt>
      <trkpt lat="37.327709000" lon="-5.817179000">
        <ele>56.5</ele>
        <time>2020-10-11T10:57:57Z</time>
      </trkpt>
      <trkpt lat="37.327720000" lon="-5.817314000">
        <ele>56.7</ele>
        <time>2020-10-11T10:58:00Z</time>
      </trkpt>
      <trkpt lat="37.327729000" lon="-5.817452000">
        <ele>57.0</ele>
        <time>2020-10-11T10:58:03Z</time>
      </trkpt>
      <trkpt lat="37.327732000" lon="-5.817586000">
        <ele>57.3</ele>
        <time>2020-10-11T10:58:06Z</time>
      </trkpt>
      <trkpt lat="37.327732000" lon="-5.817721000">
        <ele>57.5</ele>
        <time>2020-10-11T10:58:09Z</time>
      </trkpt>
      <trkpt lat="37.327732000" lon="-5.817845000">
        <ele>57.6</ele>
        <time>2020-10-11T10:58:12Z</time>
      </trkpt>
      <trkpt lat="37.327735000" lon="-5.817961000">
        <ele>57.7</ele>
        <time>2020-10-11T10:58:15Z</time>
      </trkpt>
      <trkpt lat="37.327733000" lon="-5.818069000">
        <ele>57.7</ele>
        <time>2020-10-11T10:58:18Z</time>
      </trkpt>
      <trkpt lat="37.327730000" lon="-5.818179000">
        <ele>57.7</ele>
        <time>2020-10-11T10:58:21Z</time>
      </trkpt>
      <trkpt lat="37.327718000" lon="-5.818281000">
        <ele>57.6</ele>
        <time>2020-10-11T10:58:25Z</time>
      </trkpt>
      <trkpt lat="37.327723000" lon="-5.818403000">
        <ele>57.5</ele>
        <time>2020-10-11T11:00:41Z</time>
      </trkpt>
      <trkpt lat="37.327716000" lon="-5.818540000">
        <ele>57.4</ele>
        <time>2020-10-11T11:00:44Z</time>
      </trkpt>
      <trkpt lat="37.327715000" lon="-5.818644000">
        <ele>57.2</ele>
        <time>2020-10-11T11:00:46Z</time>
      </trkpt>
      <trkpt lat="37.327718000" lon="-5.818756000">
        <ele>57.0</ele>
        <time>2020-10-11T11:00:48Z</time>
      </trkpt>
      <trkpt lat="37.327727000" lon="-5.818874000">
        <ele>56.8</ele>
        <time>2020-10-11T11:00:50Z</time>
      </trkpt>
      <trkpt lat="37.327727000" lon="-5.818994000">
        <ele>56.6</ele>
        <time>2020-10-11T11:00:52Z</time>
      </trkpt>
      <trkpt lat="37.327728000" lon="-5.819116000">
        <ele>56.5</ele>
        <time>2020-10-11T11:00:54Z</time>
      </trkpt>
      <trkpt lat="37.327725000" lon="-5.819234000">
        <ele>56.4</ele>
        <time>2020-10-11T11:00:56Z</time>
      </trkpt>
      <trkpt lat="37.327726000" lon="-5.819349000">
        <ele>56.3</ele>
        <time>2020-10-11T11:00:58Z</time>
      </trkpt>
      <trkpt lat="37.327735000" lon="-5.819465000">
        <ele>56.2</ele>
        <time>2020-10-11T11:01:00Z</time>
      </trkpt>
      <trkpt lat="37.327735000" lon="-5.819579000">
        <ele>56.1</ele>
        <time>2020-10-11T11:01:02Z</time>
      </trkpt>
      <trkpt lat="37.327731000" lon="-5.819693000">
        <ele>55.9</ele>
        <time>2020-10-11T11:01:04Z</time>
      </trkpt>
      <trkpt lat="37.327730000" lon="-5.819804000">
        <ele>55.7</ele>
        <time>2020-10-11T11:01:06Z</time>
      </trkpt>
      <trkpt lat="37.327734000" lon="-5.819911000">
        <ele>55.5</ele>
        <time>2020-10-11T11:01:08Z</time>
      </trkpt>
      <trkpt lat="37.327735000" lon="-5.820020000">
        <ele>55.2</ele>
        <time>2020-10-11T11:01:10Z</time>
      </trkpt>
      <trkpt lat="37.327732000" lon="-5.820128000">
        <ele>54.9</ele>
        <time>2020-10-11T11:01:12Z</time>
      </trkpt>
      <trkpt lat="37.327736000" lon="-5.820274000">
        <ele>54.7</ele>
        <time>2020-10-11T11:01:15Z</time>
      </trkpt>
      <trkpt lat="37.327735000" lon="-5.820402000">
        <ele>54.6</ele>
        <time>2020-10-11T11:01:18Z</time>
      </trkpt>
      <trkpt lat="37.327729000" lon="-5.820512000">
        <ele>54.6</ele>
        <time>2020-10-11T11:01:21Z</time>
      </trkpt>
      <trkpt lat="37.327692000" lon="-5.820612000">
        <ele>54.7</ele>
        <time>2020-10-11T11:01:26Z</time>
      </trkpt>
      <trkpt lat="37.327783000" lon="-5.820668000">
        <ele>54.9</ele>
        <time>2020-10-11T11:01:31Z</time>
      </trkpt>
      <trkpt lat="37.327864000" lon="-5.820676000">
        <ele>55.2</ele>
        <time>2020-10-11T11:01:34Z</time>
      </trkpt>
      <trkpt lat="37.327948000" lon="-5.820687000">
        <ele>55.5</ele>
        <time>2020-10-11T11:01:37Z</time>
      </trkpt>
      <trkpt lat="37.328018000" lon="-5.820753000">
        <ele>56.1</ele>
        <time>2020-10-11T11:01:40Z</time>
      </trkpt>
      <trkpt lat="37.328038000" lon="-5.820876000">
        <ele>56.7</ele>
        <time>2020-10-11T11:01:43Z</time>
      </trkpt>
      <trkpt lat="37.328042000" lon="-5.820987000">
        <ele>57.4</ele>
        <time>2020-10-11T11:01:46Z</time>
      </trkpt>
      <trkpt lat="37.328038000" lon="-5.821098000">
        <ele>58.0</ele>
        <time>2020-10-11T11:01:50Z</time>
      </trkpt>
      <trkpt lat="37.328046000" lon="-5.821207000">
        <ele>58.5</ele>
        <time>2020-10-11T11:01:54Z</time>
      </trkpt>
      <trkpt lat="37.328043000" lon="-5.821342000">
        <ele>59.0</ele>
        <time>2020-10-11T11:01:57Z</time>
      </trkpt>
      <trkpt lat="37.328041000" lon="-5.821485000">
        <ele>59.4</ele>
        <time>2020-10-11T11:02:00Z</time>
      </trkpt>
      <trkpt lat="37.328040000" lon="-5.821618000">
        <ele>59.7</ele>
        <time>2020-10-11T11:02:03Z</time>
      </trkpt>
      <trkpt lat="37.328044000" lon="-5.821763000">
        <ele>60.0</ele>
        <time>2020-10-11T11:02:06Z</time>
      </trkpt>
      <trkpt lat="37.328047000" lon="-5.821871000">
        <ele>60.3</ele>
        <time>2020-10-11T11:02:08Z</time>
      </trkpt>
      <trkpt lat="37.328039000" lon="-5.821992000">
        <ele>60.6</ele>
        <time>2020-10-11T11:02:10Z</time>
      </trkpt>
      <trkpt lat="37.328035000" lon="-5.822112000">
        <ele>61.0</ele>
        <time>2020-10-11T11:02:12Z</time>
      </trkpt>
      <trkpt lat="37.328035000" lon="-5.822225000">
        <ele>61.5</ele>
        <time>2020-10-11T11:02:14Z</time>
      </trkpt>
      <trkpt lat="37.328037000" lon="-5.822344000">
        <ele>62.2</ele>
        <time>2020-10-11T11:02:16Z</time>
      </trkpt>
      <trkpt lat="37.328039000" lon="-5.822455000">
        <ele>63.0</ele>
        <time>2020-10-11T11:02:18Z</time>
      </trkpt>
      <trkpt lat="37.328038000" lon="-5.822564000">
        <ele>63.9</ele>
        <time>2020-10-11T11:02:20Z</time>
      </trkpt>
      <trkpt lat="37.328034000" lon="-5.822670000">
        <ele>64.9</ele>
        <time>2020-10-11T11:02:22Z</time>
      </trkpt>
      <trkpt lat="37.328041000" lon="-5.822774000">
        <ele>65.9</ele>
        <time>2020-10-11T11:02:24Z</time>
      </trkpt>
      <trkpt lat="37.328034000" lon="-5.822877000">
        <ele>66.8</ele>
        <time>2020-10-11T11:02:26Z</time>
      </trkpt>
      <trkpt lat="37.328036000" lon="-5.822982000">
        <ele>67.6</ele>
        <time>2020-10-11T11:02:28Z</time>
      </trkpt>
      <trkpt lat="37.328052000" lon="-5.823094000">
        <ele>68.4</ele>
        <time>2020-10-11T11:02:30Z</time>
      </trkpt>
      <trkpt lat="37.328063000" lon="-5.823213000">
        <ele>69.1</ele>
        <time>2020-10-11T11:02:32Z</time>
      </trkpt>
      <trkpt lat="37.328081000" lon="-5.823330000">
        <ele>69.6</ele>
        <time>2020-10-11T11:02:34Z</time>
      </trkpt>
      <trkpt lat="37.328100000" lon="-5.823445000">
        <ele>70.0</ele>
        <time>2020-10-11T11:02:36Z</time>
      </trkpt>
      <trkpt lat="37.328119000" lon="-5.823561000">
        <ele>70.3</ele>
        <time>2020-10-11T11:02:38Z</time>
      </trkpt>
      <trkpt lat="37.328146000" lon="-5.823672000">
        <ele>70.4</ele>
        <time>2020-10-11T11:02:40Z</time>
      </trkpt>
      <trkpt lat="37.328175000" lon="-5.823785000">
        <ele>70.4</ele>
        <time>2020-10-11T11:02:42Z</time>
      </trkpt>
      <trkpt lat="37.328201000" lon="-5.823897000">
        <ele>70.3</ele>
        <time>2020-10-11T11:02:44Z</time>
      </trkpt>
      <trkpt lat="37.328241000" lon="-5.824008000">
        <ele>70.2</ele>
        <time>2020-10-11T11:02:46Z</time>
      </trkpt>
      <trkpt lat="37.328282000" lon="-5.824119000">
        <ele>70.0</ele>
        <time>2020-10-11T11:02:48Z</time>
      </trkpt>
      <trkpt lat="37.328322000" lon="-5.824232000">
        <ele>69.9</ele>
        <time>2020-10-11T11:02:50Z</time>
      </trkpt>
      <trkpt lat="37.328365000" lon="-5.824336000">
        <ele>69.8</ele>
        <time>2020-10-11T11:02:52Z</time>
      </trkpt>
      <trkpt lat="37.328407000" lon="-5.824433000">
        <ele>69.7</ele>
        <time>2020-10-11T11:02:54Z</time>
      </trkpt>
      <trkpt lat="37.328457000" lon="-5.824525000">
        <ele>69.7</ele>
        <time>2020-10-11T11:02:56Z</time>
      </trkpt>
      <trkpt lat="37.328510000" lon="-5.824610000">
        <ele>69.6</ele>
        <time>2020-10-11T11:02:58Z</time>
      </trkpt>
      <trkpt lat="37.328567000" lon="-5.824698000">
        <ele>69.5</ele>
        <time>2020-10-11T11:03:00Z</time>
      </trkpt>
      <trkpt lat="37.328630000" lon="-5.824787000">
        <ele>69.4</ele>
        <time>2020-10-11T11:03:02Z</time>
      </trkpt>
      <trkpt lat="37.328688000" lon="-5.824874000">
        <ele>69.1</ele>
        <time>2020-10-11T11:03:04Z</time>
      </trkpt>
      <trkpt lat="37.328759000" lon="-5.824962000">
        <ele>68.8</ele>
        <time>2020-10-11T11:03:06Z</time>
      </trkpt>
      <trkpt lat="37.328825000" lon="-5.825049000">
        <ele>68.5</ele>
        <time>2020-10-11T11:03:08Z</time>
      </trkpt>
      <trkpt lat="37.328900000" lon="-5.825132000">
        <ele>68.5</ele>
        <time>2020-10-11T11:03:10Z</time>
      </trkpt>
      <trkpt lat="37.328980000" lon="-5.825209000">
        <ele>68.4</ele>
        <time>2020-10-11T11:03:12Z</time>
      </trkpt>
      <trkpt lat="37.329071000" lon="-5.825282000">
        <ele>68.3</ele>
        <time>2020-10-11T11:03:14Z</time>
      </trkpt>
      <trkpt lat="37.329173000" lon="-5.825341000">
        <ele>68.2</ele>
        <time>2020-10-11T11:03:16Z</time>
      </trkpt>
      <trkpt lat="37.329272000" lon="-5.825398000">
        <ele>68.1</ele>
        <time>2020-10-11T11:03:18Z</time>
      </trkpt>
      <trkpt lat="37.329371000" lon="-5.825467000">
        <ele>68.0</ele>
        <time>2020-10-11T11:03:20Z</time>
      </trkpt>
      <trkpt lat="37.329469000" lon="-5.825529000">
        <ele>67.9</ele>
        <time>2020-10-11T11:03:22Z</time>
      </trkpt>
      <trkpt lat="37.329563000" lon="-5.825577000">
        <ele>67.8</ele>
        <time>2020-10-11T11:03:24Z</time>
      </trkpt>
      <trkpt lat="37.329662000" lon="-5.825617000">
        <ele>67.7</ele>
        <time>2020-10-11T11:03:26Z</time>
      </trkpt>
      <trkpt lat="37.329755000" lon="-5.825658000">
        <ele>67.6</ele>
        <time>2020-10-11T11:03:28Z</time>
      </trkpt>
      <trkpt lat="37.329851000" lon="-5.825695000">
        <ele>67.5</ele>
        <time>2020-10-11T11:03:30Z</time>
      </trkpt>
      <trkpt lat="37.329958000" lon="-5.825730000">
        <ele>67.4</ele>
        <time>2020-10-11T11:03:32Z</time>
      </trkpt>
      <trkpt lat="37.330065000" lon="-5.825764000">
        <ele>67.2</ele>
        <time>2020-10-11T11:03:34Z</time>
      </trkpt>
      <trkpt lat="37.330174000" lon="-5.825790000">
        <ele>67.0</ele>
        <time>2020-10-11T11:03:36Z</time>
      </trkpt>
      <trkpt lat="37.330279000" lon="-5.825819000">
        <ele>66.7</ele>
        <time>2020-10-11T11:03:38Z</time>
      </trkpt>
      <trkpt lat="37.330389000" lon="-5.825843000">
        <ele>66.5</ele>
        <time>2020-10-11T11:03:40Z</time>
      </trkpt>
      <trkpt lat="37.330500000" lon="-5.825865000">
        <ele>66.3</ele>
        <time>2020-10-11T11:03:42Z</time>
      </trkpt>
      <trkpt lat="37.330610000" lon="-5.825897000">
        <ele>66.1</ele>
        <time>2020-10-11T11:03:44Z</time>
      </trkpt>
      <trkpt lat="37.330720000" lon="-5.825922000">
        <ele>66.1</ele>
        <time>2020-10-11T11:03:46Z</time>
      </trkpt>
      <trkpt lat="37.330834000" lon="-5.825949000">
        <ele>66.2</ele>
        <time>2020-10-11T11:03:48Z</time>
      </trkpt>
      <trkpt lat="37.330949000" lon="-5.825972000">
        <ele>66.4</ele>
        <time>2020-10-11T11:03:50Z</time>
      </trkpt>
      <trkpt lat="37.331061000" lon="-5.826002000">
        <ele>66.6</ele>
        <time>2020-10-11T11:03:52Z</time>
      </trkpt>
      <trkpt lat="37.331172000" lon="-5.826037000">
        <ele>66.9</ele>
        <time>2020-10-11T11:03:54Z</time>
      </trkpt>
      <trkpt lat="37.331283000" lon="-5.826071000">
        <ele>67.2</ele>
        <time>2020-10-11T11:03:56Z</time>
      </trkpt>
      <trkpt lat="37.331396000" lon="-5.826107000">
        <ele>67.5</ele>
        <time>2020-10-11T11:03:58Z</time>
      </trkpt>
      <trkpt lat="37.331512000" lon="-5.826143000">
        <ele>67.6</ele>
        <time>2020-10-11T11:04:00Z</time>
      </trkpt>
      <trkpt lat="37.331627000" lon="-5.826178000">
        <ele>67.7</ele>
        <time>2020-10-11T11:04:02Z</time>
      </trkpt>
      <trkpt lat="37.331739000" lon="-5.826214000">
        <ele>67.8</ele>
        <time>2020-10-11T11:04:04Z</time>
      </trkpt>
      <trkpt lat="37.331850000" lon="-5.826250000">
        <ele>67.9</ele>
        <time>2020-10-11T11:04:06Z</time>
      </trkpt>
      <trkpt lat="37.331962000" lon="-5.826287000">
        <ele>67.9</ele>
        <time>2020-10-11T11:04:08Z</time>
      </trkpt>
      <trkpt lat="37.332075000" lon="-5.826325000">
        <ele>67.8</ele>
        <time>2020-10-11T11:04:10Z</time>
      </trkpt>
      <trkpt lat="37.332185000" lon="-5.826369000">
        <ele>67.6</ele>
        <time>2020-10-11T11:04:12Z</time>
      </trkpt>
      <trkpt lat="37.332291000" lon="-5.826414000">
        <ele>67.4</ele>
        <time>2020-10-11T11:04:14Z</time>
      </trkpt>
      <trkpt lat="37.332394000" lon="-5.826463000">
        <ele>67.0</ele>
        <time>2020-10-11T11:04:16Z</time>
      </trkpt>
      <trkpt lat="37.332499000" lon="-5.826508000">
        <ele>66.5</ele>
        <time>2020-10-11T11:04:18Z</time>
      </trkpt>
      <trkpt lat="37.332605000" lon="-5.826557000">
        <ele>66.1</ele>
        <time>2020-10-11T11:04:20Z</time>
      </trkpt>
      <trkpt lat="37.332714000" lon="-5.826602000">
        <ele>65.8</ele>
        <time>2020-10-11T11:04:22Z</time>
      </trkpt>
      <trkpt lat="37.332818000" lon="-5.826641000">
        <ele>65.6</ele>
        <time>2020-10-11T11:04:24Z</time>
      </trkpt>
      <trkpt lat="37.332922000" lon="-5.826683000">
        <ele>65.5</ele>
        <time>2020-10-11T11:04:26Z</time>
      </trkpt>
      <trkpt lat="37.333019000" lon="-5.826728000">
        <ele>65.5</ele>
        <time>2020-10-11T11:04:28Z</time>
      </trkpt>
      <trkpt lat="37.333118000" lon="-5.826780000">
        <ele>65.5</ele>
        <time>2020-10-11T11:04:30Z</time>
      </trkpt>
      <trkpt lat="37.333221000" lon="-5.826827000">
        <ele>65.7</ele>
        <time>2020-10-11T11:04:32Z</time>
      </trkpt>
      <trkpt lat="37.333312000" lon="-5.826871000">
        <ele>66.0</ele>
        <time>2020-10-11T11:04:34Z</time>
      </trkpt>
      <trkpt lat="37.333405000" lon="-5.826923000">
        <ele>66.4</ele>
        <time>2020-10-11T11:04:36Z</time>
      </trkpt>
      <trkpt lat="37.333495000" lon="-5.826969000">
        <ele>66.9</ele>
        <time>2020-10-11T11:04:38Z</time>
      </trkpt>
      <trkpt lat="37.333585000" lon="-5.827016000">
        <ele>67.6</ele>
        <time>2020-10-11T11:04:40Z</time>
      </trkpt>
      <trkpt lat="37.333675000" lon="-5.827062000">
        <ele>68.4</ele>
        <time>2020-10-11T11:04:42Z</time>
      </trkpt>
      <trkpt lat="37.333764000" lon="-5.827104000">
        <ele>69.1</ele>
        <time>2020-10-11T11:04:44Z</time>
      </trkpt>
      <trkpt lat="37.333855000" lon="-5.827156000">
        <ele>69.8</ele>
        <time>2020-10-11T11:04:46Z</time>
      </trkpt>
      <trkpt lat="37.333945000" lon="-5.827205000">
        <ele>70.5</ele>
        <time>2020-10-11T11:04:48Z</time>
      </trkpt>
      <trkpt lat="37.334031000" lon="-5.827250000">
        <ele>71.0</ele>
        <time>2020-10-11T11:04:50Z</time>
      </trkpt>
      <trkpt lat="37.334107000" lon="-5.827294000">
        <ele>71.5</ele>
        <time>2020-10-11T11:04:52Z</time>
      </trkpt>
      <trkpt lat="37.334189000" lon="-5.827333000">
        <ele>72.1</ele>
        <time>2020-10-11T11:04:54Z</time>
      </trkpt>
      <trkpt lat="37.334260000" lon="-5.827382000">
        <ele>72.6</ele>
        <time>2020-10-11T11:04:56Z</time>
      </trkpt>
      <trkpt lat="37.334337000" lon="-5.827420000">
        <ele>73.1</ele>
        <time>2020-10-11T11:04:58Z</time>
      </trkpt>
      <trkpt lat="37.334418000" lon="-5.827462000">
        <ele>73.5</ele>
        <time>2020-10-11T11:05:00Z</time>
      </trkpt>
      <trkpt lat="37.334498000" lon="-5.827499000">
        <ele>73.9</ele>
        <time>2020-10-11T11:05:02Z</time>
      </trkpt>
      <trkpt lat="37.334610000" lon="-5.827548000">
        <ele>74.4</ele>
        <time>2020-10-11T11:05:05Z</time>
      </trkpt>
      <trkpt lat="37.334724000" lon="-5.827587000">
        <ele>74.7</ele>
        <time>2020-10-11T11:05:08Z</time>
      </trkpt>
      <trkpt lat="37.334805000" lon="-5.827619000">
        <ele>75.1</ele>
        <time>2020-10-11T11:05:10Z</time>
      </trkpt>
      <trkpt lat="37.334886000" lon="-5.827645000">
        <ele>75.5</ele>
        <time>2020-10-11T11:05:12Z</time>
      </trkpt>
      <trkpt lat="37.334994000" lon="-5.827674000">
        <ele>76.0</ele>
        <time>2020-10-11T11:05:15Z</time>
      </trkpt>
      <trkpt lat="37.335100000" lon="-5.827695000">
        <ele>76.5</ele>
        <time>2020-10-11T11:05:18Z</time>
      </trkpt>
      <trkpt lat="37.335207000" lon="-5.827709000">
        <ele>76.8</ele>
        <time>2020-10-11T11:05:21Z</time>
      </trkpt>
      <trkpt lat="37.335323000" lon="-5.827716000">
        <ele>77.2</ele>
        <time>2020-10-11T11:05:24Z</time>
      </trkpt>
      <trkpt lat="37.335437000" lon="-5.827718000">
        <ele>77.5</ele>
        <time>2020-10-11T11:05:27Z</time>
      </trkpt>
      <trkpt lat="37.335547000" lon="-5.827714000">
        <ele>77.9</ele>
        <time>2020-10-11T11:05:30Z</time>
      </trkpt>
      <trkpt lat="37.335651000" lon="-5.827707000">
        <ele>78.4</ele>
        <time>2020-10-11T11:05:33Z</time>
      </trkpt>
      <trkpt lat="37.335754000" lon="-5.827696000">
        <ele>78.8</ele>
        <time>2020-10-11T11:05:36Z</time>
      </trkpt>
      <trkpt lat="37.335863000" lon="-5.827689000">
        <ele>79.4</ele>
        <time>2020-10-11T11:05:39Z</time>
      </trkpt>
      <trkpt lat="37.335974000" lon="-5.827675000">
        <ele>80.0</ele>
        <time>2020-10-11T11:05:42Z</time>
      </trkpt>
      <trkpt lat="37.336080000" lon="-5.827657000">
        <ele>80.7</ele>
        <time>2020-10-11T11:05:45Z</time>
      </trkpt>
      <trkpt lat="37.336187000" lon="-5.827633000">
        <ele>81.5</ele>
        <time>2020-10-11T11:05:48Z</time>
      </trkpt>
      <trkpt lat="37.336300000" lon="-5.827605000">
        <ele>82.5</ele>
        <time>2020-10-11T11:05:51Z</time>
      </trkpt>
      <trkpt lat="37.336404000" lon="-5.827570000">
        <ele>83.4</ele>
        <time>2020-10-11T11:05:54Z</time>
      </trkpt>
      <trkpt lat="37.336504000" lon="-5.827526000">
        <ele>84.3</ele>
        <time>2020-10-11T11:05:57Z</time>
      </trkpt>
      <trkpt lat="37.336606000" lon="-5.827475000">
        <ele>85.2</ele>
        <time>2020-10-11T11:06:00Z</time>
      </trkpt>
      <trkpt lat="37.336715000" lon="-5.827422000">
        <ele>86.1</ele>
        <time>2020-10-11T11:06:03Z</time>
      </trkpt>
      <trkpt lat="37.336819000" lon="-5.827361000">
        <ele>86.9</ele>
        <time>2020-10-11T11:06:06Z</time>
      </trkpt>
      <trkpt lat="37.336922000" lon="-5.827296000">
        <ele>87.6</ele>
        <time>2020-10-11T11:06:09Z</time>
      </trkpt>
      <trkpt lat="37.336991000" lon="-5.827238000">
        <ele>88.3</ele>
        <time>2020-10-11T11:06:11Z</time>
      </trkpt>
      <trkpt lat="37.337067000" lon="-5.827125000">
        <ele>88.7</ele>
        <time>2020-10-11T11:06:14Z</time>
      </trkpt>
      <trkpt lat="37.337127000" lon="-5.826993000">
        <ele>88.9</ele>
        <time>2020-10-11T11:06:17Z</time>
      </trkpt>
      <trkpt lat="37.337180000" lon="-5.826910000">
        <ele>89.0</ele>
        <time>2020-10-11T11:06:19Z</time>
      </trkpt>
      <trkpt lat="37.337260000" lon="-5.826852000">
        <ele>89.0</ele>
        <time>2020-10-11T11:06:21Z</time>
      </trkpt>
      <trkpt lat="37.337341000" lon="-5.826827000">
        <ele>89.0</ele>
        <time>2020-10-11T11:06:23Z</time>
      </trkpt>
      <trkpt lat="37.337421000" lon="-5.826804000">
        <ele>88.9</ele>
        <time>2020-10-11T11:06:25Z</time>
      </trkpt>
      <trkpt lat="37.337534000" lon="-5.826754000">
        <ele>88.8</ele>
        <time>2020-10-11T11:06:28Z</time>
      </trkpt>
      <trkpt lat="37.337608000" lon="-5.826698000">
        <ele>88.6</ele>
        <time>2020-10-11T11:06:30Z</time>
      </trkpt>
      <trkpt lat="37.337675000" lon="-5.826630000">
        <ele>88.5</ele>
        <time>2020-10-11T11:06:32Z</time>
      </trkpt>
      <trkpt lat="37.337741000" lon="-5.826559000">
        <ele>88.3</ele>
        <time>2020-10-11T11:06:34Z</time>
      </trkpt>
      <trkpt lat="37.337806000" lon="-5.826488000">
        <ele>88.2</ele>
        <time>2020-10-11T11:06:36Z</time>
      </trkpt>
      <trkpt lat="37.337872000" lon="-5.826419000">
        <ele>88.2</ele>
        <time>2020-10-11T11:06:38Z</time>
      </trkpt>
      <trkpt lat="37.337936000" lon="-5.826345000">
        <ele>88.3</ele>
        <time>2020-10-11T11:06:40Z</time>
      </trkpt>
      <trkpt lat="37.338000000" lon="-5.826268000">
        <ele>88.4</ele>
        <time>2020-10-11T11:06:42Z</time>
      </trkpt>
      <trkpt lat="37.338070000" lon="-5.826189000">
        <ele>88.5</ele>
        <time>2020-10-11T11:06:44Z</time>
      </trkpt>
      <trkpt lat="37.338137000" lon="-5.826111000">
        <ele>88.7</ele>
        <time>2020-10-11T11:06:46Z</time>
      </trkpt>
      <trkpt lat="37.338209000" lon="-5.826035000">
        <ele>89.0</ele>
        <time>2020-10-11T11:06:48Z</time>
      </trkpt>
      <trkpt lat="37.338282000" lon="-5.825956000">
        <ele>89.3</ele>
        <time>2020-10-11T11:06:50Z</time>
      </trkpt>
      <trkpt lat="37.338357000" lon="-5.825870000">
        <ele>89.5</ele>
        <time>2020-10-11T11:06:52Z</time>
      </trkpt>
      <trkpt lat="37.338434000" lon="-5.825790000">
        <ele>89.8</ele>
        <time>2020-10-11T11:06:54Z</time>
      </trkpt>
      <trkpt lat="37.338508000" lon="-5.825708000">
        <ele>90.0</ele>
        <time>2020-10-11T11:06:56Z</time>
      </trkpt>
      <trkpt lat="37.338584000" lon="-5.825627000">
        <ele>90.1</ele>
        <time>2020-10-11T11:06:58Z</time>
      </trkpt>
      <trkpt lat="37.338659000" lon="-5.825541000">
        <ele>90.2</ele>
        <time>2020-10-11T11:07:00Z</time>
      </trkpt>
      <trkpt lat="37.338728000" lon="-5.825457000">
        <ele>90.4</ele>
        <time>2020-10-11T11:07:02Z</time>
      </trkpt>
      <trkpt lat="37.338802000" lon="-5.825381000">
        <ele>90.5</ele>
        <time>2020-10-11T11:07:04Z</time>
      </trkpt>
      <trkpt lat="37.338880000" lon="-5.825295000">
        <ele>90.6</ele>
        <time>2020-10-11T11:07:06Z</time>
      </trkpt>
      <trkpt lat="37.338961000" lon="-5.825210000">
        <ele>90.7</ele>
        <time>2020-10-11T11:07:08Z</time>
      </trkpt>
      <trkpt lat="37.339036000" lon="-5.825125000">
        <ele>90.8</ele>
        <time>2020-10-11T11:07:10Z</time>
      </trkpt>
      <trkpt lat="37.339108000" lon="-5.825037000">
        <ele>90.9</ele>
        <time>2020-10-11T11:07:12Z</time>
      </trkpt>
      <trkpt lat="37.339179000" lon="-5.824950000">
        <ele>90.9</ele>
        <time>2020-10-11T11:07:14Z</time>
      </trkpt>
      <trkpt lat="37.339255000" lon="-5.824870000">
        <ele>90.9</ele>
        <time>2020-10-11T11:07:16Z</time>
      </trkpt>
      <trkpt lat="37.339333000" lon="-5.824787000">
        <ele>91.0</ele>
        <time>2020-10-11T11:07:18Z</time>
      </trkpt>
      <trkpt lat="37.339398000" lon="-5.824697000">
        <ele>91.0</ele>
        <time>2020-10-11T11:07:20Z</time>
      </trkpt>
      <trkpt lat="37.339471000" lon="-5.824613000">
        <ele>90.9</ele>
        <time>2020-10-11T11:07:22Z</time>
      </trkpt>
      <trkpt lat="37.339540000" lon="-5.824525000">
        <ele>90.7</ele>
        <time>2020-10-11T11:07:24Z</time>
      </trkpt>
      <trkpt lat="37.339598000" lon="-5.824418000">
        <ele>90.5</ele>
        <time>2020-10-11T11:07:26Z</time>
      </trkpt>
      <trkpt lat="37.339648000" lon="-5.824314000">
        <ele>90.2</ele>
        <time>2020-10-11T11:07:28Z</time>
      </trkpt>
      <trkpt lat="37.339722000" lon="-5.824229000">
        <ele>89.9</ele>
        <time>2020-10-11T11:07:30Z</time>
      </trkpt>
      <trkpt lat="37.339810000" lon="-5.824164000">
        <ele>89.5</ele>
        <time>2020-10-11T11:07:32Z</time>
      </trkpt>
      <trkpt lat="37.339899000" lon="-5.824119000">
        <ele>89.2</ele>
        <time>2020-10-11T11:07:34Z</time>
      </trkpt>
      <trkpt lat="37.339973000" lon="-5.824042000">
        <ele>88.9</ele>
        <time>2020-10-11T11:07:36Z</time>
      </trkpt>
      <trkpt lat="37.340051000" lon="-5.823962000">
        <ele>88.6</ele>
        <time>2020-10-11T11:07:38Z</time>
      </trkpt>
      <trkpt lat="37.340127000" lon="-5.823873000">
        <ele>88.4</ele>
        <time>2020-10-11T11:07:40Z</time>
      </trkpt>
      <trkpt lat="37.340204000" lon="-5.823784000">
        <ele>88.3</ele>
        <time>2020-10-11T11:07:42Z</time>
      </trkpt>
      <trkpt lat="37.340282000" lon="-5.823699000">
        <ele>88.3</ele>
        <time>2020-10-11T11:07:44Z</time>
      </trkpt>
      <trkpt lat="37.340365000" lon="-5.823616000">
        <ele>88.3</ele>
        <time>2020-10-11T11:07:46Z</time>
      </trkpt>
      <trkpt lat="37.340441000" lon="-5.823529000">
        <ele>88.5</ele>
        <time>2020-10-11T11:07:48Z</time>
      </trkpt>
      <trkpt lat="37.340519000" lon="-5.823442000">
        <ele>88.6</ele>
        <time>2020-10-11T11:07:50Z</time>
      </trkpt>
      <trkpt lat="37.340598000" lon="-5.823353000">
        <ele>88.9</ele>
        <time>2020-10-11T11:07:52Z</time>
      </trkpt>
      <trkpt lat="37.340670000" lon="-5.823262000">
        <ele>89.2</ele>
        <time>2020-10-11T11:07:54Z</time>
      </trkpt>
      <trkpt lat="37.340746000" lon="-5.823179000">
        <ele>89.5</ele>
        <time>2020-10-11T11:07:56Z</time>
      </trkpt>
      <trkpt lat="37.340824000" lon="-5.823094000">
        <ele>89.6</ele>
        <time>2020-10-11T11:07:58Z</time>
      </trkpt>
      <trkpt lat="37.340901000" lon="-5.823007000">
        <ele>89.7</ele>
        <time>2020-10-11T11:08:00Z</time>
      </trkpt>
      <trkpt lat="37.340979000" lon="-5.822921000">
        <ele>89.7</ele>
        <time>2020-10-11T11:08:02Z</time>
      </trkpt>
      <trkpt lat="37.341054000" lon="-5.822838000">
        <ele>89.5</ele>
        <time>2020-10-11T11:08:04Z</time>
      </trkpt>
      <trkpt lat="37.341133000" lon="-5.822756000">
        <ele>89.4</ele>
        <time>2020-10-11T11:08:06Z</time>
      </trkpt>
      <trkpt lat="37.341213000" lon="-5.822671000">
        <ele>89.1</ele>
        <time>2020-10-11T11:08:08Z</time>
      </trkpt>
      <trkpt lat="37.341297000" lon="-5.822584000">
        <ele>88.6</ele>
        <time>2020-10-11T11:08:10Z</time>
      </trkpt>
      <trkpt lat="37.341378000" lon="-5.822489000">
        <ele>88.2</ele>
        <time>2020-10-11T11:08:12Z</time>
      </trkpt>
      <trkpt lat="37.341461000" lon="-5.822400000">
        <ele>87.5</ele>
        <time>2020-10-11T11:08:14Z</time>
      </trkpt>
      <trkpt lat="37.341544000" lon="-5.822306000">
        <ele>87.0</ele>
        <time>2020-10-11T11:08:16Z</time>
      </trkpt>
      <trkpt lat="37.341628000" lon="-5.822213000">
        <ele>86.5</ele>
        <time>2020-10-11T11:08:18Z</time>
      </trkpt>
      <trkpt lat="37.341713000" lon="-5.822116000">
        <ele>86.1</ele>
        <time>2020-10-11T11:08:20Z</time>
      </trkpt>
      <trkpt lat="37.341793000" lon="-5.822017000">
        <ele>85.9</ele>
        <time>2020-10-11T11:08:22Z</time>
      </trkpt>
      <trkpt lat="37.341865000" lon="-5.821916000">
        <ele>85.9</ele>
        <time>2020-10-11T11:08:24Z</time>
      </trkpt>
      <trkpt lat="37.341925000" lon="-5.821807000">
        <ele>86.1</ele>
        <time>2020-10-11T11:08:26Z</time>
      </trkpt>
      <trkpt lat="37.341993000" lon="-5.821704000">
        <ele>86.3</ele>
        <time>2020-10-11T11:08:28Z</time>
      </trkpt>
      <trkpt lat="37.342077000" lon="-5.821623000">
        <ele>86.5</ele>
        <time>2020-10-11T11:08:30Z</time>
      </trkpt>
      <trkpt lat="37.342168000" lon="-5.821557000">
        <ele>87.0</ele>
        <time>2020-10-11T11:08:32Z</time>
      </trkpt>
      <trkpt lat="37.342261000" lon="-5.821491000">
        <ele>87.5</ele>
        <time>2020-10-11T11:08:34Z</time>
      </trkpt>
      <trkpt lat="37.342356000" lon="-5.821424000">
        <ele>88.0</ele>
        <time>2020-10-11T11:08:36Z</time>
      </trkpt>
      <trkpt lat="37.342455000" lon="-5.821356000">
        <ele>88.4</ele>
        <time>2020-10-11T11:08:38Z</time>
      </trkpt>
      <trkpt lat="37.342559000" lon="-5.821296000">
        <ele>88.7</ele>
        <time>2020-10-11T11:08:40Z</time>
      </trkpt>
      <trkpt lat="37.342655000" lon="-5.821239000">
        <ele>89.0</ele>
        <time>2020-10-11T11:08:42Z</time>
      </trkpt>
      <trkpt lat="37.342756000" lon="-5.821177000">
        <ele>89.1</ele>
        <time>2020-10-11T11:08:44Z</time>
      </trkpt>
      <trkpt lat="37.342868000" lon="-5.821122000">
        <ele>89.1</ele>
        <time>2020-10-11T11:08:46Z</time>
      </trkpt>
      <trkpt lat="37.342975000" lon="-5.821076000">
        <ele>88.9</ele>
        <time>2020-10-11T11:08:48Z</time>
      </trkpt>
      <trkpt lat="37.343074000" lon="-5.821032000">
        <ele>88.7</ele>
        <time>2020-10-11T11:08:50Z</time>
      </trkpt>
      <trkpt lat="37.343178000" lon="-5.821004000">
        <ele>88.5</ele>
        <time>2020-10-11T11:08:52Z</time>
      </trkpt>
      <trkpt lat="37.343282000" lon="-5.820984000">
        <ele>88.3</ele>
        <time>2020-10-11T11:08:54Z</time>
      </trkpt>
      <trkpt lat="37.343390000" lon="-5.820969000">
        <ele>88.0</ele>
        <time>2020-10-11T11:08:56Z</time>
      </trkpt>
      <trkpt lat="37.343495000" lon="-5.820961000">
        <ele>87.7</ele>
        <time>2020-10-11T11:08:58Z</time>
      </trkpt>
      <trkpt lat="37.343603000" lon="-5.820960000">
        <ele>87.5</ele>
        <time>2020-10-11T11:09:00Z</time>
      </trkpt>
      <trkpt lat="37.343711000" lon="-5.820961000">
        <ele>87.5</ele>
        <time>2020-10-11T11:09:02Z</time>
      </trkpt>
      <trkpt lat="37.343818000" lon="-5.820966000">
        <ele>87.4</ele>
        <time>2020-10-11T11:09:04Z</time>
      </trkpt>
      <trkpt lat="37.343919000" lon="-5.820985000">
        <ele>87.5</ele>
        <time>2020-10-11T11:09:06Z</time>
      </trkpt>
      <trkpt lat="37.344028000" lon="-5.821000000">
        <ele>87.5</ele>
        <time>2020-10-11T11:09:08Z</time>
      </trkpt>
      <trkpt lat="37.344127000" lon="-5.821016000">
        <ele>87.8</ele>
        <time>2020-10-11T11:09:10Z</time>
      </trkpt>
      <trkpt lat="37.344222000" lon="-5.821045000">
        <ele>88.0</ele>
        <time>2020-10-11T11:09:12Z</time>
      </trkpt>
      <trkpt lat="37.344306000" lon="-5.821070000">
        <ele>88.2</ele>
        <time>2020-10-11T11:09:14Z</time>
      </trkpt>
      <trkpt lat="37.344376000" lon="-5.821008000">
        <ele>88.4</ele>
        <time>2020-10-11T11:09:17Z</time>
      </trkpt>
      <trkpt lat="37.344379000" lon="-5.820893000">
        <ele>88.5</ele>
        <time>2020-10-11T11:09:19Z</time>
      </trkpt>
      <trkpt lat="37.344375000" lon="-5.820764000">
        <ele>88.5</ele>
        <time>2020-10-11T11:09:21Z</time>
      </trkpt>
      <trkpt lat="37.344360000" lon="-5.820632000">
        <ele>88.5</ele>
        <time>2020-10-11T11:09:23Z</time>
      </trkpt>
      <trkpt lat="37.344335000" lon="-5.820500000">
        <ele>88.5</ele>
        <time>2020-10-11T11:09:25Z</time>
      </trkpt>
      <trkpt lat="37.344311000" lon="-5.820371000">
        <ele>88.4</ele>
        <time>2020-10-11T11:09:27Z</time>
      </trkpt>
      <trkpt lat="37.344278000" lon="-5.820252000">
        <ele>88.2</ele>
        <time>2020-10-11T11:09:29Z</time>
      </trkpt>
      <trkpt lat="37.344246000" lon="-5.820138000">
        <ele>88.0</ele>
        <time>2020-10-11T11:09:31Z</time>
      </trkpt>
      <trkpt lat="37.344216000" lon="-5.820020000">
        <ele>87.7</ele>
        <time>2020-10-11T11:09:33Z</time>
      </trkpt>
      <trkpt lat="37.344185000" lon="-5.819895000">
        <ele>87.5</ele>
        <time>2020-10-11T11:09:35Z</time>
      </trkpt>
      <trkpt lat="37.344147000" lon="-5.819782000">
        <ele>87.4</ele>
        <time>2020-10-11T11:09:37Z</time>
      </trkpt>
      <trkpt lat="37.344116000" lon="-5.819664000">
        <ele>87.2</ele>
        <time>2020-10-11T11:09:39Z</time>
      </trkpt>
      <trkpt lat="37.344082000" lon="-5.819550000">
        <ele>87.1</ele>
        <time>2020-10-11T11:09:41Z</time>
      </trkpt>
      <trkpt lat="37.344051000" lon="-5.819443000">
        <ele>87.0</ele>
        <time>2020-10-11T11:09:43Z</time>
      </trkpt>
      <trkpt lat="37.344025000" lon="-5.819343000">
        <ele>87.2</ele>
        <time>2020-10-11T11:09:45Z</time>
      </trkpt>
      <trkpt lat="37.344000000" lon="-5.819246000">
        <ele>87.5</ele>
        <time>2020-10-11T11:09:47Z</time>
      </trkpt>
      <trkpt lat="37.343963000" lon="-5.819102000">
        <ele>87.9</ele>
        <time>2020-10-11T11:09:50Z</time>
      </trkpt>
      <trkpt lat="37.343928000" lon="-5.818967000">
        <ele>88.5</ele>
        <time>2020-10-11T11:09:53Z</time>
      </trkpt>
      <trkpt lat="37.343890000" lon="-5.818830000">
        <ele>89.0</ele>
        <time>2020-10-11T11:09:56Z</time>
      </trkpt>
      <trkpt lat="37.343855000" lon="-5.818693000">
        <ele>89.6</ele>
        <time>2020-10-11T11:09:59Z</time>
      </trkpt>
      <trkpt lat="37.343817000" lon="-5.818558000">
        <ele>90.3</ele>
        <time>2020-10-11T11:10:02Z</time>
      </trkpt>
      <trkpt lat="37.343784000" lon="-5.818419000">
        <ele>90.9</ele>
        <time>2020-10-11T11:10:05Z</time>
      </trkpt>
      <trkpt lat="37.343752000" lon="-5.818302000">
        <ele>91.5</ele>
        <time>2020-10-11T11:10:08Z</time>
      </trkpt>
      <trkpt lat="37.343723000" lon="-5.818195000">
        <ele>92.2</ele>
        <time>2020-10-11T11:10:11Z</time>
      </trkpt>
      <trkpt lat="37.343690000" lon="-5.818092000">
        <ele>92.8</ele>
        <time>2020-10-11T11:10:14Z</time>
      </trkpt>
      <trkpt lat="37.343660000" lon="-5.817977000">
        <ele>93.3</ele>
        <time>2020-10-11T11:10:17Z</time>
      </trkpt>
      <trkpt lat="37.343633000" lon="-5.817849000">
        <ele>93.6</ele>
        <time>2020-10-11T11:10:20Z</time>
      </trkpt>
      <trkpt lat="37.343606000" lon="-5.817742000">
        <ele>93.7</ele>
        <time>2020-10-11T11:10:23Z</time>
      </trkpt>
      <trkpt lat="37.343582000" lon="-5.817632000">
        <ele>93.6</ele>
        <time>2020-10-11T11:10:26Z</time>
      </trkpt>
      <trkpt lat="37.343556000" lon="-5.817517000">
        <ele>93.5</ele>
        <time>2020-10-11T11:10:29Z</time>
      </trkpt>
      <trkpt lat="37.343535000" lon="-5.817393000">
        <ele>93.1</ele>
        <time>2020-10-11T11:10:32Z</time>
      </trkpt>
      <trkpt lat="37.343519000" lon="-5.817251000">
        <ele>92.6</ele>
        <time>2020-10-11T11:10:35Z</time>
      </trkpt>
      <trkpt lat="37.343517000" lon="-5.817136000">
        <ele>92.2</ele>
        <time>2020-10-11T11:10:37Z</time>
      </trkpt>
      <trkpt lat="37.343517000" lon="-5.817010000">
        <ele>91.6</ele>
        <time>2020-10-11T11:10:39Z</time>
      </trkpt>
      <trkpt lat="37.343527000" lon="-5.816867000">
        <ele>91.1</ele>
        <time>2020-10-11T11:10:41Z</time>
      </trkpt>
      <trkpt lat="37.343536000" lon="-5.816709000">
        <ele>90.6</ele>
        <time>2020-10-11T11:10:43Z</time>
      </trkpt>
      <trkpt lat="37.343542000" lon="-5.816548000">
        <ele>90.2</ele>
        <time>2020-10-11T11:10:45Z</time>
      </trkpt>
      <trkpt lat="37.343554000" lon="-5.816390000">
        <ele>89.6</ele>
        <time>2020-10-11T11:10:47Z</time>
      </trkpt>
      <trkpt lat="37.343556000" lon="-5.816230000">
        <ele>89.2</ele>
        <time>2020-10-11T11:10:49Z</time>
      </trkpt>
      <trkpt lat="37.343562000" lon="-5.816071000">
        <ele>88.9</ele>
        <time>2020-10-11T11:10:51Z</time>
      </trkpt>
      <trkpt lat="37.343576000" lon="-5.815928000">
        <ele>88.8</ele>
        <time>2020-10-11T11:10:53Z</time>
      </trkpt>
      <trkpt lat="37.343584000" lon="-5.815784000">
        <ele>88.9</ele>
        <time>2020-10-11T11:10:55Z</time>
      </trkpt>
      <trkpt lat="37.343585000" lon="-5.815651000">
        <ele>89.2</ele>
        <time>2020-10-11T11:10:57Z</time>
      </trkpt>
      <trkpt lat="37.343589000" lon="-5.815519000">
        <ele>89.5</ele>
        <time>2020-10-11T11:10:59Z</time>
      </trkpt>
      <trkpt lat="37.343599000" lon="-5.815392000">
        <ele>89.8</ele>
        <time>2020-10-11T11:11:01Z</time>
      </trkpt>
      <trkpt lat="37.343603000" lon="-5.815274000">
        <ele>90.3</ele>
        <time>2020-10-11T11:11:03Z</time>
      </trkpt>
      <trkpt lat="37.343593000" lon="-5.815152000">
        <ele>90.6</ele>
        <time>2020-10-11T11:11:05Z</time>
      </trkpt>
      <trkpt lat="37.343582000" lon="-5.815039000">
        <ele>90.9</ele>
        <time>2020-10-11T11:11:07Z</time>
      </trkpt>
      <trkpt lat="37.343564000" lon="-5.814932000">
        <ele>91.3</ele>
        <time>2020-10-11T11:11:09Z</time>
      </trkpt>
      <trkpt lat="37.343542000" lon="-5.814827000">
        <ele>91.6</ele>
        <time>2020-10-11T11:11:11Z</time>
      </trkpt>
      <trkpt lat="37.343517000" lon="-5.814726000">
        <ele>91.8</ele>
        <time>2020-10-11T11:11:13Z</time>
      </trkpt>
      <trkpt lat="37.343488000" lon="-5.814627000">
        <ele>91.8</ele>
        <time>2020-10-11T11:11:15Z</time>
      </trkpt>
      <trkpt lat="37.343457000" lon="-5.814519000">
        <ele>91.5</ele>
        <time>2020-10-11T11:11:17Z</time>
      </trkpt>
      <trkpt lat="37.343423000" lon="-5.814396000">
        <ele>91.1</ele>
        <time>2020-10-11T11:11:19Z</time>
      </trkpt>
      <trkpt lat="37.343383000" lon="-5.814254000">
        <ele>90.6</ele>
        <time>2020-10-11T11:11:21Z</time>
      </trkpt>
      <trkpt lat="37.343336000" lon="-5.814097000">
        <ele>90.2</ele>
        <time>2020-10-11T11:11:23Z</time>
      </trkpt>
      <trkpt lat="37.343290000" lon="-5.813913000">
        <ele>89.6</ele>
        <time>2020-10-11T11:11:25Z</time>
      </trkpt>
      <trkpt lat="37.343236000" lon="-5.813726000">
        <ele>89.1</ele>
        <time>2020-10-11T11:11:27Z</time>
      </trkpt>
      <trkpt lat="37.343177000" lon="-5.813535000">
        <ele>88.6</ele>
        <time>2020-10-11T11:11:29Z</time>
      </trkpt>
      <trkpt lat="37.343123000" lon="-5.813363000">
        <ele>88.2</ele>
        <time>2020-10-11T11:11:31Z</time>
      </trkpt>
      <trkpt lat="37.343081000" lon="-5.813186000">
        <ele>87.7</ele>
        <time>2020-10-11T11:11:33Z</time>
      </trkpt>
      <trkpt lat="37.343036000" lon="-5.813015000">
        <ele>87.5</ele>
        <time>2020-10-11T11:11:35Z</time>
      </trkpt>
      <trkpt lat="37.342988000" lon="-5.812849000">
        <ele>87.3</ele>
        <time>2020-10-11T11:11:37Z</time>
      </trkpt>
      <trkpt lat="37.342945000" lon="-5.812697000">
        <ele>87.3</ele>
        <time>2020-10-11T11:11:39Z</time>
      </trkpt>
      <trkpt lat="37.342911000" lon="-5.812563000">
        <ele>87.4</ele>
        <time>2020-10-11T11:11:41Z</time>
      </trkpt>
      <trkpt lat="37.342875000" lon="-5.812444000">
        <ele>87.5</ele>
        <time>2020-10-11T11:11:43Z</time>
      </trkpt>
      <trkpt lat="37.342848000" lon="-5.812341000">
        <ele>87.5</ele>
        <time>2020-10-11T11:11:45Z</time>
      </trkpt>
      <trkpt lat="37.342820000" lon="-5.812242000">
        <ele>87.6</ele>
        <time>2020-10-11T11:11:47Z</time>
      </trkpt>
      <trkpt lat="37.342793000" lon="-5.812115000">
        <ele>87.7</ele>
        <time>2020-10-11T11:11:50Z</time>
      </trkpt>
      <trkpt lat="37.342757000" lon="-5.811985000">
        <ele>87.8</ele>
        <time>2020-10-11T11:11:53Z</time>
      </trkpt>
      <trkpt lat="37.342725000" lon="-5.811855000">
        <ele>87.8</ele>
        <time>2020-10-11T11:11:56Z</time>
      </trkpt>
      <trkpt lat="37.342695000" lon="-5.811758000">
        <ele>87.8</ele>
        <time>2020-10-11T11:11:58Z</time>
      </trkpt>
      <trkpt lat="37.342660000" lon="-5.811644000">
        <ele>87.7</ele>
        <time>2020-10-11T11:12:00Z</time>
      </trkpt>
      <trkpt lat="37.342633000" lon="-5.811520000">
        <ele>87.6</ele>
        <time>2020-10-11T11:12:02Z</time>
      </trkpt>
      <trkpt lat="37.342598000" lon="-5.811384000">
        <ele>87.6</ele>
        <time>2020-10-11T11:12:04Z</time>
      </trkpt>
      <trkpt lat="37.342556000" lon="-5.811246000">
        <ele>87.7</ele>
        <time>2020-10-11T11:12:06Z</time>
      </trkpt>
      <trkpt lat="37.342522000" lon="-5.811112000">
        <ele>87.9</ele>
        <time>2020-10-11T11:12:08Z</time>
      </trkpt>
      <trkpt lat="37.342490000" lon="-5.810979000">
        <ele>88.2</ele>
        <time>2020-10-11T11:12:10Z</time>
      </trkpt>
      <trkpt lat="37.342456000" lon="-5.810866000">
        <ele>88.6</ele>
        <time>2020-10-11T11:12:12Z</time>
      </trkpt>
      <trkpt lat="37.342424000" lon="-5.810758000">
        <ele>89.3</ele>
        <time>2020-10-11T11:12:14Z</time>
      </trkpt>
      <trkpt lat="37.342397000" lon="-5.810658000">
        <ele>90.0</ele>
        <time>2020-10-11T11:12:16Z</time>
      </trkpt>
      <trkpt lat="37.342358000" lon="-5.810537000">
        <ele>90.9</ele>
        <time>2020-10-11T11:12:19Z</time>
      </trkpt>
      <trkpt lat="37.342328000" lon="-5.810429000">
        <ele>91.8</ele>
        <time>2020-10-11T11:12:22Z</time>
      </trkpt>
      <trkpt lat="37.342288000" lon="-5.810304000">
        <ele>92.6</ele>
        <time>2020-10-11T11:12:26Z</time>
      </trkpt>
      <trkpt lat="37.342257000" lon="-5.810195000">
        <ele>93.5</ele>
        <time>2020-10-11T11:12:29Z</time>
      </trkpt>
      <trkpt lat="37.342231000" lon="-5.810091000">
        <ele>94.2</ele>
        <time>2020-10-11T11:12:32Z</time>
      </trkpt>
      <trkpt lat="37.342201000" lon="-5.809986000">
        <ele>94.8</ele>
        <time>2020-10-11T11:12:35Z</time>
      </trkpt>
      <trkpt lat="37.342170000" lon="-5.809889000">
        <ele>95.3</ele>
        <time>2020-10-11T11:12:38Z</time>
      </trkpt>
      <trkpt lat="37.342143000" lon="-5.809791000">
        <ele>95.6</ele>
        <time>2020-10-11T11:12:41Z</time>
      </trkpt>
      <trkpt lat="37.342107000" lon="-5.809669000">
        <ele>95.8</ele>
        <time>2020-10-11T11:12:45Z</time>
      </trkpt>
      <trkpt lat="37.342084000" lon="-5.809571000">
        <ele>95.7</ele>
        <time>2020-10-11T11:12:48Z</time>
      </trkpt>
      <trkpt lat="37.342055000" lon="-5.809463000">
        <ele>95.5</ele>
        <time>2020-10-11T11:12:51Z</time>
      </trkpt>
      <trkpt lat="37.342021000" lon="-5.809331000">
        <ele>95.3</ele>
        <time>2020-10-11T11:12:54Z</time>
      </trkpt>
      <trkpt lat="37.341996000" lon="-5.809215000">
        <ele>95.0</ele>
        <time>2020-10-11T11:12:56Z</time>
      </trkpt>
      <trkpt lat="37.341960000" lon="-5.809098000">
        <ele>94.8</ele>
        <time>2020-10-11T11:12:58Z</time>
      </trkpt>
      <trkpt lat="37.341918000" lon="-5.808967000">
        <ele>94.6</ele>
        <time>2020-10-11T11:13:00Z</time>
      </trkpt>
      <trkpt lat="37.341883000" lon="-5.808828000">
        <ele>94.5</ele>
        <time>2020-10-11T11:13:02Z</time>
      </trkpt>
      <trkpt lat="37.341844000" lon="-5.808686000">
        <ele>94.4</ele>
        <time>2020-10-11T11:13:04Z</time>
      </trkpt>
      <trkpt lat="37.341804000" lon="-5.808551000">
        <ele>94.5</ele>
        <time>2020-10-11T11:13:06Z</time>
      </trkpt>
      <trkpt lat="37.341767000" lon="-5.808422000">
        <ele>94.6</ele>
        <time>2020-10-11T11:13:08Z</time>
      </trkpt>
      <trkpt lat="37.341742000" lon="-5.808301000">
        <ele>94.8</ele>
        <time>2020-10-11T11:13:10Z</time>
      </trkpt>
      <trkpt lat="37.341711000" lon="-5.808197000">
        <ele>95.2</ele>
        <time>2020-10-11T11:13:12Z</time>
      </trkpt>
      <trkpt lat="37.341688000" lon="-5.808095000">
        <ele>95.5</ele>
        <time>2020-10-11T11:13:14Z</time>
      </trkpt>
      <trkpt lat="37.341650000" lon="-5.807957000">
        <ele>96.0</ele>
        <time>2020-10-11T11:13:17Z</time>
      </trkpt>
      <trkpt lat="37.341619000" lon="-5.807847000">
        <ele>96.5</ele>
        <time>2020-10-11T11:13:20Z</time>
      </trkpt>
      <trkpt lat="37.341594000" lon="-5.807739000">
        <ele>97.0</ele>
        <time>2020-10-11T11:13:23Z</time>
      </trkpt>
      <trkpt lat="37.341560000" lon="-5.807633000">
        <ele>97.5</ele>
        <time>2020-10-11T11:13:26Z</time>
      </trkpt>
      <trkpt lat="37.341523000" lon="-5.807532000">
        <ele>97.9</ele>
        <time>2020-10-11T11:13:29Z</time>
      </trkpt>
      <trkpt lat="37.341481000" lon="-5.807410000">
        <ele>98.2</ele>
        <time>2020-10-11T11:13:33Z</time>
      </trkpt>
      <trkpt lat="37.341447000" lon="-5.807311000">
        <ele>98.2</ele>
        <time>2020-10-11T11:13:36Z</time>
      </trkpt>
      <trkpt lat="37.341376000" lon="-5.807175000">
        <ele>98.0</ele>
        <time>2020-10-11T11:13:39Z</time>
      </trkpt>
      <trkpt lat="37.341312000" lon="-5.807066000">
        <ele>97.8</ele>
        <time>2020-10-11T11:13:41Z</time>
      </trkpt>
      <trkpt lat="37.341240000" lon="-5.806943000">
        <ele>97.5</ele>
        <time>2020-10-11T11:13:43Z</time>
      </trkpt>
      <trkpt lat="37.341160000" lon="-5.806808000">
        <ele>97.2</ele>
        <time>2020-10-11T11:13:45Z</time>
      </trkpt>
      <trkpt lat="37.341071000" lon="-5.806657000">
        <ele>96.8</ele>
        <time>2020-10-11T11:13:47Z</time>
      </trkpt>
      <trkpt lat="37.340971000" lon="-5.806492000">
        <ele>96.5</ele>
        <time>2020-10-11T11:13:49Z</time>
      </trkpt>
      <trkpt lat="37.340922000" lon="-5.806400000">
        <ele>96.0</ele>
        <time>2020-10-11T11:13:50Z</time>
      </trkpt>
      <trkpt lat="37.340867000" lon="-5.806308000">
        <ele>95.6</ele>
        <time>2020-10-11T11:13:51Z</time>
      </trkpt>
      <trkpt lat="37.340814000" lon="-5.806217000">
        <ele>95.3</ele>
        <time>2020-10-11T11:13:52Z</time>
      </trkpt>
      <trkpt lat="37.340764000" lon="-5.806129000">
        <ele>95.1</ele>
        <time>2020-10-11T11:13:53Z</time>
      </trkpt>
      <trkpt lat="37.340715000" lon="-5.806046000">
        <ele>95.1</ele>
        <time>2020-10-11T11:13:54Z</time>
      </trkpt>
      <trkpt lat="37.340623000" lon="-5.805886000">
        <ele>95.2</ele>
        <time>2020-10-11T11:13:56Z</time>
      </trkpt>
      <trkpt lat="37.340542000" lon="-5.805745000">
        <ele>95.3</ele>
        <time>2020-10-11T11:13:58Z</time>
      </trkpt>
      <trkpt lat="37.340471000" lon="-5.805627000">
        <ele>95.5</ele>
        <time>2020-10-11T11:14:00Z</time>
      </trkpt>
      <trkpt lat="37.340416000" lon="-5.805533000">
        <ele>95.5</ele>
        <time>2020-10-11T11:14:02Z</time>
      </trkpt>
      <trkpt lat="37.340359000" lon="-5.805416000">
        <ele>95.7</ele>
        <time>2020-10-11T11:14:05Z</time>
      </trkpt>
      <trkpt lat="37.340304000" lon="-5.805321000">
        <ele>95.9</ele>
        <time>2020-10-11T11:14:08Z</time>
      </trkpt>
      <trkpt lat="37.340255000" lon="-5.805238000">
        <ele>96.1</ele>
        <time>2020-10-11T11:14:11Z</time>
      </trkpt>
      <trkpt lat="37.340206000" lon="-5.805140000">
        <ele>96.3</ele>
        <time>2020-10-11T11:14:14Z</time>
      </trkpt>
      <trkpt lat="37.340151000" lon="-5.805049000">
        <ele>96.5</ele>
        <time>2020-10-11T11:14:17Z</time>
      </trkpt>
      <trkpt lat="37.340098000" lon="-5.804960000">
        <ele>96.7</ele>
        <time>2020-10-11T11:14:20Z</time>
      </trkpt>
      <trkpt lat="37.340054000" lon="-5.804869000">
        <ele>96.9</ele>
        <time>2020-10-11T11:14:23Z</time>
      </trkpt>
      <trkpt lat="37.340004000" lon="-5.804772000">
        <ele>97.1</ele>
        <time>2020-10-11T11:14:26Z</time>
      </trkpt>
      <trkpt lat="37.339946000" lon="-5.804672000">
        <ele>97.3</ele>
        <time>2020-10-11T11:14:29Z</time>
      </trkpt>
      <trkpt lat="37.339889000" lon="-5.804559000">
        <ele>97.5</ele>
        <time>2020-10-11T11:14:32Z</time>
      </trkpt>
      <trkpt lat="37.339824000" lon="-5.804455000">
        <ele>97.6</ele>
        <time>2020-10-11T11:14:35Z</time>
      </trkpt>
      <trkpt lat="37.339758000" lon="-5.804345000">
        <ele>97.7</ele>
        <time>2020-10-11T11:14:38Z</time>
      </trkpt>
      <trkpt lat="37.339687000" lon="-5.804232000">
        <ele>97.8</ele>
        <time>2020-10-11T11:14:41Z</time>
      </trkpt>
      <trkpt lat="37.339619000" lon="-5.804119000">
        <ele>97.8</ele>
        <time>2020-10-11T11:14:44Z</time>
      </trkpt>
      <trkpt lat="37.339553000" lon="-5.804003000">
        <ele>97.8</ele>
        <time>2020-10-11T11:14:47Z</time>
      </trkpt>
      <trkpt lat="37.339485000" lon="-5.803891000">
        <ele>97.6</ele>
        <time>2020-10-11T11:14:50Z</time>
      </trkpt>
      <trkpt lat="37.339410000" lon="-5.803768000">
        <ele>97.5</ele>
        <time>2020-10-11T11:14:53Z</time>
      </trkpt>
      <trkpt lat="37.339353000" lon="-5.803659000">
        <ele>97.4</ele>
        <time>2020-10-11T11:14:55Z</time>
      </trkpt>
      <trkpt lat="37.339290000" lon="-5.803550000">
        <ele>97.4</ele>
        <time>2020-10-11T11:14:57Z</time>
      </trkpt>
      <trkpt lat="37.339216000" lon="-5.803419000">
        <ele>97.4</ele>
        <time>2020-10-11T11:14:59Z</time>
      </trkpt>
      <trkpt lat="37.339136000" lon="-5.803281000">
        <ele>97.5</ele>
        <time>2020-10-11T11:15:01Z</time>
      </trkpt>
      <trkpt lat="37.339054000" lon="-5.803134000">
        <ele>97.6</ele>
        <time>2020-10-11T11:15:03Z</time>
      </trkpt>
      <trkpt lat="37.338971000" lon="-5.802984000">
        <ele>97.8</ele>
        <time>2020-10-11T11:15:05Z</time>
      </trkpt>
      <trkpt lat="37.338881000" lon="-5.802839000">
        <ele>98.1</ele>
        <time>2020-10-11T11:15:07Z</time>
      </trkpt>
      <trkpt lat="37.338801000" lon="-5.802688000">
        <ele>98.5</ele>
        <time>2020-10-11T11:15:09Z</time>
      </trkpt>
      <trkpt lat="37.338726000" lon="-5.802552000">
        <ele>98.9</ele>
        <time>2020-10-11T11:15:11Z</time>
      </trkpt>
      <trkpt lat="37.338656000" lon="-5.802424000">
        <ele>99.5</ele>
        <time>2020-10-11T11:15:13Z</time>
      </trkpt>
      <trkpt lat="37.338592000" lon="-5.802313000">
        <ele>100.0</ele>
        <time>2020-10-11T11:15:15Z</time>
      </trkpt>
      <trkpt lat="37.338535000" lon="-5.802220000">
        <ele>100.5</ele>
        <time>2020-10-11T11:15:17Z</time>
      </trkpt>
      <trkpt lat="37.338486000" lon="-5.802137000">
        <ele>101.0</ele>
        <time>2020-10-11T11:15:19Z</time>
      </trkpt>
      <trkpt lat="37.338430000" lon="-5.802025000">
        <ele>101.5</ele>
        <time>2020-10-11T11:15:22Z</time>
      </trkpt>
      <trkpt lat="37.338364000" lon="-5.801915000">
        <ele>101.8</ele>
        <time>2020-10-11T11:15:25Z</time>
      </trkpt>
      <trkpt lat="37.338298000" lon="-5.801807000">
        <ele>102.1</ele>
        <time>2020-10-11T11:15:28Z</time>
      </trkpt>
      <trkpt lat="37.338247000" lon="-5.801710000">
        <ele>102.4</ele>
        <time>2020-10-11T11:15:31Z</time>
      </trkpt>
      <trkpt lat="37.338192000" lon="-5.801620000">
        <ele>102.5</ele>
        <time>2020-10-11T11:15:34Z</time>
      </trkpt>
      <trkpt lat="37.338132000" lon="-5.801513000">
        <ele>102.5</ele>
        <time>2020-10-11T11:15:38Z</time>
      </trkpt>
      <trkpt lat="37.338068000" lon="-5.801405000">
        <ele>102.5</ele>
        <time>2020-10-11T11:15:42Z</time>
      </trkpt>
      <trkpt lat="37.338018000" lon="-5.801317000">
        <ele>102.5</ele>
        <time>2020-10-11T11:15:45Z</time>
      </trkpt>
      <trkpt lat="37.337965000" lon="-5.801216000">
        <ele>102.5</ele>
        <time>2020-10-11T11:15:48Z</time>
      </trkpt>
      <trkpt lat="37.337905000" lon="-5.801111000">
        <ele>102.5</ele>
        <time>2020-10-11T11:15:51Z</time>
      </trkpt>
      <trkpt lat="37.337845000" lon="-5.801008000">
        <ele>102.4</ele>
        <time>2020-10-11T11:15:54Z</time>
      </trkpt>
      <trkpt lat="37.337780000" lon="-5.800912000">
        <ele>102.4</ele>
        <time>2020-10-11T11:15:57Z</time>
      </trkpt>
      <trkpt lat="37.337718000" lon="-5.800810000">
        <ele>102.4</ele>
        <time>2020-10-11T11:16:00Z</time>
      </trkpt>
      <trkpt lat="37.337652000" lon="-5.800706000">
        <ele>102.5</ele>
        <time>2020-10-11T11:16:03Z</time>
      </trkpt>
      <trkpt lat="37.337587000" lon="-5.800605000">
        <ele>102.5</ele>
        <time>2020-10-11T11:16:06Z</time>
      </trkpt>
      <trkpt lat="37.337523000" lon="-5.800505000">
        <ele>102.6</ele>
        <time>2020-10-11T11:16:09Z</time>
      </trkpt>
      <trkpt lat="37.337457000" lon="-5.800417000">
        <ele>102.7</ele>
        <time>2020-10-11T11:16:12Z</time>
      </trkpt>
      <trkpt lat="37.337396000" lon="-5.800326000">
        <ele>102.7</ele>
        <time>2020-10-11T11:16:15Z</time>
      </trkpt>
      <trkpt lat="37.337329000" lon="-5.800236000">
        <ele>102.6</ele>
        <time>2020-10-11T11:16:18Z</time>
      </trkpt>
      <trkpt lat="37.337248000" lon="-5.800135000">
        <ele>102.5</ele>
        <time>2020-10-11T11:16:21Z</time>
      </trkpt>
      <trkpt lat="37.337186000" lon="-5.800051000">
        <ele>102.5</ele>
        <time>2020-10-11T11:16:23Z</time>
      </trkpt>
      <trkpt lat="37.337105000" lon="-5.799956000">
        <ele>102.5</ele>
        <time>2020-10-11T11:16:25Z</time>
      </trkpt>
      <trkpt lat="37.337018000" lon="-5.799852000">
        <ele>102.5</ele>
        <time>2020-10-11T11:16:27Z</time>
      </trkpt>
      <trkpt lat="37.336920000" lon="-5.799730000">
        <ele>102.5</ele>
        <time>2020-10-11T11:16:29Z</time>
      </trkpt>
      <trkpt lat="37.336823000" lon="-5.799600000">
        <ele>102.5</ele>
        <time>2020-10-11T11:16:31Z</time>
      </trkpt>
      <trkpt lat="37.336717000" lon="-5.799463000">
        <ele>102.5</ele>
        <time>2020-10-11T11:16:33Z</time>
      </trkpt>
      <trkpt lat="37.336608000" lon="-5.799327000">
        <ele>102.5</ele>
        <time>2020-10-11T11:16:35Z</time>
      </trkpt>
      <trkpt lat="37.336501000" lon="-5.799190000">
        <ele>102.4</ele>
        <time>2020-10-11T11:16:37Z</time>
      </trkpt>
      <trkpt lat="37.336391000" lon="-5.799058000">
        <ele>102.3</ele>
        <time>2020-10-11T11:16:39Z</time>
      </trkpt>
      <trkpt lat="37.336286000" lon="-5.798931000">
        <ele>102.3</ele>
        <time>2020-10-11T11:16:41Z</time>
      </trkpt>
      <trkpt lat="37.336185000" lon="-5.798801000">
        <ele>102.2</ele>
        <time>2020-10-11T11:16:43Z</time>
      </trkpt>
      <trkpt lat="37.336089000" lon="-5.798677000">
        <ele>102.0</ele>
        <time>2020-10-11T11:16:45Z</time>
      </trkpt>
      <trkpt lat="37.336000000" lon="-5.798571000">
        <ele>101.7</ele>
        <time>2020-10-11T11:16:47Z</time>
      </trkpt>
      <trkpt lat="37.335915000" lon="-5.798466000">
        <ele>101.4</ele>
        <time>2020-10-11T11:16:49Z</time>
      </trkpt>
      <trkpt lat="37.335833000" lon="-5.798359000">
        <ele>100.9</ele>
        <time>2020-10-11T11:16:51Z</time>
      </trkpt>
      <trkpt lat="37.335754000" lon="-5.798263000">
        <ele>100.5</ele>
        <time>2020-10-11T11:16:53Z</time>
      </trkpt>
      <trkpt lat="37.335675000" lon="-5.798164000">
        <ele>100.1</ele>
        <time>2020-10-11T11:16:55Z</time>
      </trkpt>
      <trkpt lat="37.335591000" lon="-5.798055000">
        <ele>99.7</ele>
        <time>2020-10-11T11:16:57Z</time>
      </trkpt>
      <trkpt lat="37.335508000" lon="-5.797954000">
        <ele>99.5</ele>
        <time>2020-10-11T11:16:59Z</time>
      </trkpt>
      <trkpt lat="37.335438000" lon="-5.797874000">
        <ele>99.2</ele>
        <time>2020-10-11T11:17:01Z</time>
      </trkpt>
      <trkpt lat="37.335371000" lon="-5.797796000">
        <ele>98.9</ele>
        <time>2020-10-11T11:17:03Z</time>
      </trkpt>
      <trkpt lat="37.335314000" lon="-5.797725000">
        <ele>98.6</ele>
        <time>2020-10-11T11:17:05Z</time>
      </trkpt>
      <trkpt lat="37.335237000" lon="-5.797623000">
        <ele>98.4</ele>
        <time>2020-10-11T11:17:08Z</time>
      </trkpt>
      <trkpt lat="37.335179000" lon="-5.797543000">
        <ele>98.0</ele>
        <time>2020-10-11T11:17:11Z</time>
      </trkpt>
      <trkpt lat="37.335109000" lon="-5.797478000">
        <ele>97.5</ele>
        <time>2020-10-11T11:17:51Z</time>
      </trkpt>
      <trkpt lat="37.335047000" lon="-5.797398000">
        <ele>97.1</ele>
        <time>2020-10-11T11:17:55Z</time>
      </trkpt>
      <trkpt lat="37.334983000" lon="-5.797313000">
        <ele>96.6</ele>
        <time>2020-10-11T11:17:58Z</time>
      </trkpt>
      <trkpt lat="37.334906000" lon="-5.797212000">
        <ele>96.2</ele>
        <time>2020-10-11T11:18:01Z</time>
      </trkpt>
      <trkpt lat="37.334827000" lon="-5.797104000">
        <ele>95.7</ele>
        <time>2020-10-11T11:18:04Z</time>
      </trkpt>
      <trkpt lat="37.334746000" lon="-5.796996000">
        <ele>95.4</ele>
        <time>2020-10-11T11:18:07Z</time>
      </trkpt>
      <trkpt lat="37.334689000" lon="-5.796924000">
        <ele>95.2</ele>
        <time>2020-10-11T11:18:09Z</time>
      </trkpt>
      <trkpt lat="37.334631000" lon="-5.796850000">
        <ele>95.0</ele>
        <time>2020-10-11T11:18:11Z</time>
      </trkpt>
      <trkpt lat="37.334573000" lon="-5.796776000">
        <ele>95.0</ele>
        <time>2020-10-11T11:18:13Z</time>
      </trkpt>
      <trkpt lat="37.334512000" lon="-5.796702000">
        <ele>95.3</ele>
        <time>2020-10-11T11:18:15Z</time>
      </trkpt>
      <trkpt lat="37.334450000" lon="-5.796628000">
        <ele>95.7</ele>
        <time>2020-10-11T11:18:17Z</time>
      </trkpt>
      <trkpt lat="37.334389000" lon="-5.796559000">
        <ele>96.4</ele>
        <time>2020-10-11T11:18:19Z</time>
      </trkpt>
      <trkpt lat="37.334331000" lon="-5.796487000">
        <ele>97.0</ele>
        <time>2020-10-11T11:18:21Z</time>
      </trkpt>
      <trkpt lat="37.334246000" lon="-5.796383000">
        <ele>97.7</ele>
        <time>2020-10-11T11:18:24Z</time>
      </trkpt>
      <trkpt lat="37.334163000" lon="-5.796279000">
        <ele>98.5</ele>
        <time>2020-10-11T11:18:27Z</time>
      </trkpt>
      <trkpt lat="37.334086000" lon="-5.796184000">
        <ele>99.2</ele>
        <time>2020-10-11T11:18:30Z</time>
      </trkpt>
      <trkpt lat="37.334013000" lon="-5.796102000">
        <ele>99.8</ele>
        <time>2020-10-11T11:18:33Z</time>
      </trkpt>
      <trkpt lat="37.333944000" lon="-5.796016000">
        <ele>100.5</ele>
        <time>2020-10-11T11:18:36Z</time>
      </trkpt>
      <trkpt lat="37.333878000" lon="-5.795933000">
        <ele>101.1</ele>
        <time>2020-10-11T11:18:39Z</time>
      </trkpt>
      <trkpt lat="37.333814000" lon="-5.795847000">
        <ele>101.6</ele>
        <time>2020-10-11T11:18:42Z</time>
      </trkpt>
      <trkpt lat="37.333747000" lon="-5.795763000">
        <ele>102.1</ele>
        <time>2020-10-11T11:18:45Z</time>
      </trkpt>
      <trkpt lat="37.333673000" lon="-5.795676000">
        <ele>102.5</ele>
        <time>2020-10-11T11:18:48Z</time>
      </trkpt>
      <trkpt lat="37.333607000" lon="-5.795592000">
        <ele>102.7</ele>
        <time>2020-10-11T11:18:51Z</time>
      </trkpt>
      <trkpt lat="37.333529000" lon="-5.795511000">
        <ele>103.0</ele>
        <time>2020-10-11T11:18:54Z</time>
      </trkpt>
      <trkpt lat="37.333459000" lon="-5.795429000">
        <ele>103.1</ele>
        <time>2020-10-11T11:18:57Z</time>
      </trkpt>
      <trkpt lat="37.333399000" lon="-5.795353000">
        <ele>103.2</ele>
        <time>2020-10-11T11:19:00Z</time>
      </trkpt>
      <trkpt lat="37.333326000" lon="-5.795257000">
        <ele>103.3</ele>
        <time>2020-10-11T11:19:04Z</time>
      </trkpt>
      <trkpt lat="37.333259000" lon="-5.795161000">
        <ele>103.4</ele>
        <time>2020-10-11T11:19:08Z</time>
      </trkpt>
      <trkpt lat="37.333198000" lon="-5.795080000">
        <ele>103.4</ele>
        <time>2020-10-11T11:19:11Z</time>
      </trkpt>
      <trkpt lat="37.333132000" lon="-5.794974000">
        <ele>103.3</ele>
        <time>2020-10-11T11:19:14Z</time>
      </trkpt>
      <trkpt lat="37.333067000" lon="-5.794845000">
        <ele>103.2</ele>
        <time>2020-10-11T11:19:17Z</time>
      </trkpt>
      <trkpt lat="37.333023000" lon="-5.794753000">
        <ele>103.0</ele>
        <time>2020-10-11T11:19:19Z</time>
      </trkpt>
      <trkpt lat="37.332979000" lon="-5.794651000">
        <ele>102.7</ele>
        <time>2020-10-11T11:19:21Z</time>
      </trkpt>
      <trkpt lat="37.332928000" lon="-5.794542000">
        <ele>102.3</ele>
        <time>2020-10-11T11:19:23Z</time>
      </trkpt>
      <trkpt lat="37.332876000" lon="-5.794426000">
        <ele>101.7</ele>
        <time>2020-10-11T11:19:25Z</time>
      </trkpt>
      <trkpt lat="37.332830000" lon="-5.794310000">
        <ele>101.1</ele>
        <time>2020-10-11T11:19:27Z</time>
      </trkpt>
      <trkpt lat="37.332785000" lon="-5.794196000">
        <ele>100.3</ele>
        <time>2020-10-11T11:19:29Z</time>
      </trkpt>
      <trkpt lat="37.332733000" lon="-5.794075000">
        <ele>99.4</ele>
        <time>2020-10-11T11:19:31Z</time>
      </trkpt>
      <trkpt lat="37.332693000" lon="-5.793960000">
        <ele>98.5</ele>
        <time>2020-10-11T11:19:33Z</time>
      </trkpt>
      <trkpt lat="37.332639000" lon="-5.793838000">
        <ele>97.5</ele>
        <time>2020-10-11T11:19:35Z</time>
      </trkpt>
      <trkpt lat="37.332588000" lon="-5.793722000">
        <ele>96.5</ele>
        <time>2020-10-11T11:19:37Z</time>
      </trkpt>
      <trkpt lat="37.332534000" lon="-5.793600000">
        <ele>95.4</ele>
        <time>2020-10-11T11:19:39Z</time>
      </trkpt>
      <trkpt lat="37.332480000" lon="-5.793475000">
        <ele>94.3</ele>
        <time>2020-10-11T11:19:41Z</time>
      </trkpt>
      <trkpt lat="37.332432000" lon="-5.793350000">
        <ele>93.2</ele>
        <time>2020-10-11T11:19:43Z</time>
      </trkpt>
      <trkpt lat="37.332377000" lon="-5.793234000">
        <ele>92.3</ele>
        <time>2020-10-11T11:19:45Z</time>
      </trkpt>
      <trkpt lat="37.332324000" lon="-5.793123000">
        <ele>91.5</ele>
        <time>2020-10-11T11:19:47Z</time>
      </trkpt>
      <trkpt lat="37.332278000" lon="-5.793010000">
        <ele>90.8</ele>
        <time>2020-10-11T11:19:49Z</time>
      </trkpt>
      <trkpt lat="37.332231000" lon="-5.792902000">
        <ele>90.4</ele>
        <time>2020-10-11T11:19:51Z</time>
      </trkpt>
      <trkpt lat="37.332191000" lon="-5.792799000">
        <ele>90.0</ele>
        <time>2020-10-11T11:19:53Z</time>
      </trkpt>
      <trkpt lat="37.332153000" lon="-5.792699000">
        <ele>89.6</ele>
        <time>2020-10-11T11:19:55Z</time>
      </trkpt>
      <trkpt lat="37.332115000" lon="-5.792578000">
        <ele>89.4</ele>
        <time>2020-10-11T11:19:58Z</time>
      </trkpt>
      <trkpt lat="37.332143000" lon="-5.792456000">
        <ele>89.2</ele>
        <time>2020-10-11T11:20:02Z</time>
      </trkpt>
      <trkpt lat="37.332231000" lon="-5.792383000">
        <ele>89.1</ele>
        <time>2020-10-11T11:20:06Z</time>
      </trkpt>
      <trkpt lat="37.332318000" lon="-5.792341000">
        <ele>89.0</ele>
        <time>2020-10-11T11:20:10Z</time>
      </trkpt>
      <trkpt lat="37.332405000" lon="-5.792292000">
        <ele>89.0</ele>
        <time>2020-10-11T11:20:14Z</time>
      </trkpt>
      <trkpt lat="37.332498000" lon="-5.792249000">
        <ele>89.1</ele>
        <time>2020-10-11T11:20:18Z</time>
      </trkpt>
      <trkpt lat="37.332590000" lon="-5.792190000">
        <ele>89.3</ele>
        <time>2020-10-11T11:20:22Z</time>
      </trkpt>
      <trkpt lat="37.332667000" lon="-5.792142000">
        <ele>89.6</ele>
        <time>2020-10-11T11:20:25Z</time>
      </trkpt>
      <trkpt lat="37.332747000" lon="-5.792091000">
        <ele>90.1</ele>
        <time>2020-10-11T11:20:28Z</time>
      </trkpt>
      <trkpt lat="37.332833000" lon="-5.792030000">
        <ele>90.7</ele>
        <time>2020-10-11T11:20:31Z</time>
      </trkpt>
      <trkpt lat="37.332934000" lon="-5.791978000">
        <ele>91.5</ele>
        <time>2020-10-11T11:20:34Z</time>
      </trkpt>
      <trkpt lat="37.333037000" lon="-5.791912000">
        <ele>92.2</ele>
        <time>2020-10-11T11:20:37Z</time>
      </trkpt>
      <trkpt lat="37.333149000" lon="-5.791862000">
        <ele>93.0</ele>
        <time>2020-10-11T11:20:40Z</time>
      </trkpt>
      <trkpt lat="37.333227000" lon="-5.791825000">
        <ele>93.8</ele>
        <time>2020-10-11T11:20:42Z</time>
      </trkpt>
      <trkpt lat="37.333304000" lon="-5.791794000">
        <ele>94.6</ele>
        <time>2020-10-11T11:20:44Z</time>
      </trkpt>
      <trkpt lat="37.333409000" lon="-5.791732000">
        <ele>95.4</ele>
        <time>2020-10-11T11:20:47Z</time>
      </trkpt>
      <trkpt lat="37.333518000" lon="-5.791676000">
        <ele>96.0</ele>
        <time>2020-10-11T11:20:50Z</time>
      </trkpt>
      <trkpt lat="37.333622000" lon="-5.791617000">
        <ele>96.6</ele>
        <time>2020-10-11T11:20:53Z</time>
      </trkpt>
      <trkpt lat="37.333730000" lon="-5.791556000">
        <ele>97.1</ele>
        <time>2020-10-11T11:20:56Z</time>
      </trkpt>
      <trkpt lat="37.333836000" lon="-5.791488000">
        <ele>97.5</ele>
        <time>2020-10-11T11:20:59Z</time>
      </trkpt>
      <trkpt lat="37.333935000" lon="-5.791421000">
        <ele>97.6</ele>
        <time>2020-10-11T11:21:02Z</time>
      </trkpt>
      <trkpt lat="37.334035000" lon="-5.791353000">
        <ele>97.6</ele>
        <time>2020-10-11T11:21:05Z</time>
      </trkpt>
      <trkpt lat="37.334137000" lon="-5.791292000">
        <ele>97.6</ele>
        <time>2020-10-11T11:21:08Z</time>
      </trkpt>
      <trkpt lat="37.334239000" lon="-5.791220000">
        <ele>97.5</ele>
        <time>2020-10-11T11:21:11Z</time>
      </trkpt>
      <trkpt lat="37.334338000" lon="-5.791142000">
        <ele>97.3</ele>
        <time>2020-10-11T11:21:14Z</time>
      </trkpt>
      <trkpt lat="37.334438000" lon="-5.791060000">
        <ele>97.1</ele>
        <time>2020-10-11T11:21:17Z</time>
      </trkpt>
      <trkpt lat="37.334507000" lon="-5.791004000">
        <ele>97.0</ele>
        <time>2020-10-11T11:21:19Z</time>
      </trkpt>
      <trkpt lat="37.334578000" lon="-5.790945000">
        <ele>96.9</ele>
        <time>2020-10-11T11:21:21Z</time>
      </trkpt>
      <trkpt lat="37.334661000" lon="-5.790873000">
        <ele>96.7</ele>
        <time>2020-10-11T11:21:23Z</time>
      </trkpt>
      <trkpt lat="37.334731000" lon="-5.790799000">
        <ele>96.5</ele>
        <time>2020-10-11T11:21:25Z</time>
      </trkpt>
      <trkpt lat="37.334808000" lon="-5.790724000">
        <ele>96.4</ele>
        <time>2020-10-11T11:21:27Z</time>
      </trkpt>
      <trkpt lat="37.334880000" lon="-5.790645000">
        <ele>96.2</ele>
        <time>2020-10-11T11:21:29Z</time>
      </trkpt>
      <trkpt lat="37.334954000" lon="-5.790576000">
        <ele>96.0</ele>
        <time>2020-10-11T11:21:31Z</time>
      </trkpt>
      <trkpt lat="37.335027000" lon="-5.790502000">
        <ele>95.8</ele>
        <time>2020-10-11T11:21:33Z</time>
      </trkpt>
      <trkpt lat="37.335095000" lon="-5.790422000">
        <ele>95.7</ele>
        <time>2020-10-11T11:21:35Z</time>
      </trkpt>
      <trkpt lat="37.335168000" lon="-5.790342000">
        <ele>95.6</ele>
        <time>2020-10-11T11:21:37Z</time>
      </trkpt>
      <trkpt lat="37.335236000" lon="-5.790260000">
        <ele>95.5</ele>
        <time>2020-10-11T11:21:39Z</time>
      </trkpt>
      <trkpt lat="37.335306000" lon="-5.790174000">
        <ele>95.5</ele>
        <time>2020-10-11T11:21:41Z</time>
      </trkpt>
      <trkpt lat="37.335371000" lon="-5.790085000">
        <ele>95.3</ele>
        <time>2020-10-11T11:21:43Z</time>
      </trkpt>
      <trkpt lat="37.335433000" lon="-5.789992000">
        <ele>95.1</ele>
        <time>2020-10-11T11:21:45Z</time>
      </trkpt>
      <trkpt lat="37.335501000" lon="-5.789897000">
        <ele>94.9</ele>
        <time>2020-10-11T11:21:47Z</time>
      </trkpt>
      <trkpt lat="37.335568000" lon="-5.789803000">
        <ele>94.7</ele>
        <time>2020-10-11T11:21:49Z</time>
      </trkpt>
      <trkpt lat="37.335648000" lon="-5.789724000">
        <ele>94.5</ele>
        <time>2020-10-11T11:21:51Z</time>
      </trkpt>
      <trkpt lat="37.335706000" lon="-5.789626000">
        <ele>94.3</ele>
        <time>2020-10-11T11:21:53Z</time>
      </trkpt>
      <trkpt lat="37.335760000" lon="-5.789533000">
        <ele>94.1</ele>
        <time>2020-10-11T11:21:55Z</time>
      </trkpt>
      <trkpt lat="37.335825000" lon="-5.789449000">
        <ele>93.9</ele>
        <time>2020-10-11T11:21:57Z</time>
      </trkpt>
      <trkpt lat="37.335879000" lon="-5.789359000">
        <ele>93.7</ele>
        <time>2020-10-11T11:21:59Z</time>
      </trkpt>
      <trkpt lat="37.335931000" lon="-5.789257000">
        <ele>93.5</ele>
        <time>2020-10-11T11:22:01Z</time>
      </trkpt>
      <trkpt lat="37.335993000" lon="-5.789165000">
        <ele>93.5</ele>
        <time>2020-10-11T11:22:03Z</time>
      </trkpt>
      <trkpt lat="37.336052000" lon="-5.789072000">
        <ele>93.5</ele>
        <time>2020-10-11T11:22:05Z</time>
      </trkpt>
      <trkpt lat="37.336108000" lon="-5.788981000">
        <ele>93.5</ele>
        <time>2020-10-11T11:22:07Z</time>
      </trkpt>
      <trkpt lat="37.336165000" lon="-5.788889000">
        <ele>93.5</ele>
        <time>2020-10-11T11:22:09Z</time>
      </trkpt>
      <trkpt lat="37.336223000" lon="-5.788795000">
        <ele>93.5</ele>
        <time>2020-10-11T11:22:11Z</time>
      </trkpt>
      <trkpt lat="37.336276000" lon="-5.788709000">
        <ele>93.5</ele>
        <time>2020-10-11T11:22:13Z</time>
      </trkpt>
      <trkpt lat="37.336335000" lon="-5.788623000">
        <ele>93.6</ele>
        <time>2020-10-11T11:22:15Z</time>
      </trkpt>
      <trkpt lat="37.336393000" lon="-5.788538000">
        <ele>93.7</ele>
        <time>2020-10-11T11:22:17Z</time>
      </trkpt>
      <trkpt lat="37.336451000" lon="-5.788450000">
        <ele>93.8</ele>
        <time>2020-10-11T11:22:19Z</time>
      </trkpt>
      <trkpt lat="37.336512000" lon="-5.788370000">
        <ele>93.9</ele>
        <time>2020-10-11T11:22:21Z</time>
      </trkpt>
      <trkpt lat="37.336570000" lon="-5.788282000">
        <ele>94.0</ele>
        <time>2020-10-11T11:22:23Z</time>
      </trkpt>
      <trkpt lat="37.336620000" lon="-5.788198000">
        <ele>94.0</ele>
        <time>2020-10-11T11:22:25Z</time>
      </trkpt>
      <trkpt lat="37.336673000" lon="-5.788109000">
        <ele>94.0</ele>
        <time>2020-10-11T11:22:27Z</time>
      </trkpt>
      <trkpt lat="37.336731000" lon="-5.788017000">
        <ele>94.0</ele>
        <time>2020-10-11T11:22:29Z</time>
      </trkpt>
      <trkpt lat="37.336780000" lon="-5.787931000">
        <ele>94.0</ele>
        <time>2020-10-11T11:22:31Z</time>
      </trkpt>
      <trkpt lat="37.336834000" lon="-5.787849000">
        <ele>94.0</ele>
        <time>2020-10-11T11:22:33Z</time>
      </trkpt>
      <trkpt lat="37.336891000" lon="-5.787768000">
        <ele>94.0</ele>
        <time>2020-10-11T11:22:35Z</time>
      </trkpt>
      <trkpt lat="37.336947000" lon="-5.787687000">
        <ele>94.0</ele>
        <time>2020-10-11T11:22:37Z</time>
      </trkpt>
      <trkpt lat="37.336999000" lon="-5.787602000">
        <ele>94.0</ele>
        <time>2020-10-11T11:22:39Z</time>
      </trkpt>
      <trkpt lat="37.337050000" lon="-5.787517000">
        <ele>94.0</ele>
        <time>2020-10-11T11:22:41Z</time>
      </trkpt>
      <trkpt lat="37.337103000" lon="-5.787433000">
        <ele>94.0</ele>
        <time>2020-10-11T11:22:43Z</time>
      </trkpt>
      <trkpt lat="37.337161000" lon="-5.787350000">
        <ele>94.0</ele>
        <time>2020-10-11T11:22:45Z</time>
      </trkpt>
      <trkpt lat="37.337218000" lon="-5.787265000">
        <ele>94.0</ele>
        <time>2020-10-11T11:22:47Z</time>
      </trkpt>
      <trkpt lat="37.337274000" lon="-5.787179000">
        <ele>94.0</ele>
        <time>2020-10-11T11:22:49Z</time>
      </trkpt>
      <trkpt lat="37.337330000" lon="-5.787093000">
        <ele>94.0</ele>
        <time>2020-10-11T11:22:51Z</time>
      </trkpt>
      <trkpt lat="37.337382000" lon="-5.787006000">
        <ele>94.0</ele>
        <time>2020-10-11T11:22:53Z</time>
      </trkpt>
      <trkpt lat="37.337433000" lon="-5.786922000">
        <ele>94.0</ele>
        <time>2020-10-11T11:22:55Z</time>
      </trkpt>
      <trkpt lat="37.337484000" lon="-5.786842000">
        <ele>94.0</ele>
        <time>2020-10-11T11:22:57Z</time>
      </trkpt>
      <trkpt lat="37.337532000" lon="-5.786760000">
        <ele>94.0</ele>
        <time>2020-10-11T11:22:59Z</time>
      </trkpt>
      <trkpt lat="37.337582000" lon="-5.786678000">
        <ele>94.0</ele>
        <time>2020-10-11T11:23:01Z</time>
      </trkpt>
      <trkpt lat="37.337636000" lon="-5.786602000">
        <ele>94.0</ele>
        <time>2020-10-11T11:23:03Z</time>
      </trkpt>
      <trkpt lat="37.337688000" lon="-5.786521000">
        <ele>94.0</ele>
        <time>2020-10-11T11:23:05Z</time>
      </trkpt>
      <trkpt lat="37.337739000" lon="-5.786439000">
        <ele>94.0</ele>
        <time>2020-10-11T11:23:07Z</time>
      </trkpt>
      <trkpt lat="37.337795000" lon="-5.786360000">
        <ele>94.0</ele>
        <time>2020-10-11T11:23:09Z</time>
      </trkpt>
      <trkpt lat="37.337850000" lon="-5.786279000">
        <ele>94.0</ele>
        <time>2020-10-11T11:23:11Z</time>
      </trkpt>
      <trkpt lat="37.337907000" lon="-5.786200000">
        <ele>94.0</ele>
        <time>2020-10-11T11:23:13Z</time>
      </trkpt>
      <trkpt lat="37.337961000" lon="-5.786112000">
        <ele>94.0</ele>
        <time>2020-10-11T11:23:15Z</time>
      </trkpt>
      <trkpt lat="37.338011000" lon="-5.786023000">
        <ele>94.0</ele>
        <time>2020-10-11T11:23:17Z</time>
      </trkpt>
      <trkpt lat="37.338063000" lon="-5.785936000">
        <ele>94.0</ele>
        <time>2020-10-11T11:23:19Z</time>
      </trkpt>
      <trkpt lat="37.338117000" lon="-5.785847000">
        <ele>94.0</ele>
        <time>2020-10-11T11:23:21Z</time>
      </trkpt>
      <trkpt lat="37.338176000" lon="-5.785761000">
        <ele>94.0</ele>
        <time>2020-10-11T11:23:23Z</time>
      </trkpt>
      <trkpt lat="37.338236000" lon="-5.785677000">
        <ele>93.9</ele>
        <time>2020-10-11T11:23:25Z</time>
      </trkpt>
      <trkpt lat="37.338291000" lon="-5.785590000">
        <ele>93.9</ele>
        <time>2020-10-11T11:23:27Z</time>
      </trkpt>
      <trkpt lat="37.338347000" lon="-5.785504000">
        <ele>93.9</ele>
        <time>2020-10-11T11:23:29Z</time>
      </trkpt>
      <trkpt lat="37.338403000" lon="-5.785418000">
        <ele>93.9</ele>
        <time>2020-10-11T11:23:31Z</time>
      </trkpt>
      <trkpt lat="37.338459000" lon="-5.785332000">
        <ele>93.9</ele>
        <time>2020-10-11T11:23:33Z</time>
      </trkpt>
      <trkpt lat="37.338506000" lon="-5.785240000">
        <ele>93.9</ele>
        <time>2020-10-11T11:23:35Z</time>
      </trkpt>
      <trkpt lat="37.338564000" lon="-5.785158000">
        <ele>93.9</ele>
        <time>2020-10-11T11:23:37Z</time>
      </trkpt>
      <trkpt lat="37.338622000" lon="-5.785065000">
        <ele>93.9</ele>
        <time>2020-10-11T11:23:39Z</time>
      </trkpt>
      <trkpt lat="37.338678000" lon="-5.784976000">
        <ele>94.0</ele>
        <time>2020-10-11T11:23:41Z</time>
      </trkpt>
      <trkpt lat="37.338735000" lon="-5.784883000">
        <ele>94.0</ele>
        <time>2020-10-11T11:23:43Z</time>
      </trkpt>
      <trkpt lat="37.338794000" lon="-5.784784000">
        <ele>94.0</ele>
        <time>2020-10-11T11:23:45Z</time>
      </trkpt>
      <trkpt lat="37.338855000" lon="-5.784701000">
        <ele>94.1</ele>
        <time>2020-10-11T11:23:47Z</time>
      </trkpt>
      <trkpt lat="37.338914000" lon="-5.784603000">
        <ele>94.1</ele>
        <time>2020-10-11T11:23:49Z</time>
      </trkpt>
      <trkpt lat="37.338972000" lon="-5.784513000">
        <ele>94.1</ele>
        <time>2020-10-11T11:23:51Z</time>
      </trkpt>
      <trkpt lat="37.339028000" lon="-5.784427000">
        <ele>94.2</ele>
        <time>2020-10-11T11:23:53Z</time>
      </trkpt>
      <trkpt lat="37.339080000" lon="-5.784339000">
        <ele>94.3</ele>
        <time>2020-10-11T11:23:55Z</time>
      </trkpt>
      <trkpt lat="37.339131000" lon="-5.784255000">
        <ele>94.4</ele>
        <time>2020-10-11T11:23:57Z</time>
      </trkpt>
      <trkpt lat="37.339189000" lon="-5.784173000">
        <ele>94.5</ele>
        <time>2020-10-11T11:23:59Z</time>
      </trkpt>
      <trkpt lat="37.339248000" lon="-5.784089000">
        <ele>94.5</ele>
        <time>2020-10-11T11:24:01Z</time>
      </trkpt>
      <trkpt lat="37.339304000" lon="-5.784007000">
        <ele>94.5</ele>
        <time>2020-10-11T11:24:03Z</time>
      </trkpt>
      <trkpt lat="37.339361000" lon="-5.783929000">
        <ele>94.6</ele>
        <time>2020-10-11T11:24:05Z</time>
      </trkpt>
      <trkpt lat="37.339423000" lon="-5.783856000">
        <ele>94.8</ele>
        <time>2020-10-11T11:24:07Z</time>
      </trkpt>
      <trkpt lat="37.339480000" lon="-5.783777000">
        <ele>95.0</ele>
        <time>2020-10-11T11:24:09Z</time>
      </trkpt>
      <trkpt lat="37.339531000" lon="-5.783690000">
        <ele>95.1</ele>
        <time>2020-10-11T11:24:11Z</time>
      </trkpt>
      <trkpt lat="37.339577000" lon="-5.783604000">
        <ele>95.2</ele>
        <time>2020-10-11T11:24:13Z</time>
      </trkpt>
      <trkpt lat="37.339628000" lon="-5.783523000">
        <ele>95.2</ele>
        <time>2020-10-11T11:24:15Z</time>
      </trkpt>
      <trkpt lat="37.339711000" lon="-5.783412000">
        <ele>95.1</ele>
        <time>2020-10-11T11:24:18Z</time>
      </trkpt>
      <trkpt lat="37.339784000" lon="-5.783291000">
        <ele>95.0</ele>
        <time>2020-10-11T11:24:21Z</time>
      </trkpt>
      <trkpt lat="37.339836000" lon="-5.783211000">
        <ele>94.9</ele>
        <time>2020-10-11T11:24:23Z</time>
      </trkpt>
      <trkpt lat="37.339916000" lon="-5.783102000">
        <ele>94.7</ele>
        <time>2020-10-11T11:24:26Z</time>
      </trkpt>
      <trkpt lat="37.339994000" lon="-5.782986000">
        <ele>94.5</ele>
        <time>2020-10-11T11:24:29Z</time>
      </trkpt>
      <trkpt lat="37.340056000" lon="-5.782888000">
        <ele>94.4</ele>
        <time>2020-10-11T11:24:32Z</time>
      </trkpt>
      <trkpt lat="37.340108000" lon="-5.782781000">
        <ele>94.2</ele>
        <time>2020-10-11T11:24:36Z</time>
      </trkpt>
      <trkpt lat="37.340177000" lon="-5.782682000">
        <ele>94.0</ele>
        <time>2020-10-11T11:24:39Z</time>
      </trkpt>
      <trkpt lat="37.340245000" lon="-5.782575000">
        <ele>94.0</ele>
        <time>2020-10-11T11:24:42Z</time>
      </trkpt>
      <trkpt lat="37.340314000" lon="-5.782482000">
        <ele>94.1</ele>
        <time>2020-10-11T11:24:45Z</time>
      </trkpt>
      <trkpt lat="37.340371000" lon="-5.782378000">
        <ele>94.3</ele>
        <time>2020-10-11T11:24:48Z</time>
      </trkpt>
      <trkpt lat="37.340421000" lon="-5.782283000">
        <ele>94.6</ele>
        <time>2020-10-11T11:24:51Z</time>
      </trkpt>
      <trkpt lat="37.340473000" lon="-5.782168000">
        <ele>95.0</ele>
        <time>2020-10-11T11:24:55Z</time>
      </trkpt>
      <trkpt lat="37.340520000" lon="-5.782079000">
        <ele>95.5</ele>
        <time>2020-10-11T11:24:58Z</time>
      </trkpt>
      <trkpt lat="37.340567000" lon="-5.781977000">
        <ele>96.1</ele>
        <time>2020-10-11T11:25:01Z</time>
      </trkpt>
      <trkpt lat="37.340604000" lon="-5.781876000">
        <ele>96.7</ele>
        <time>2020-10-11T11:25:04Z</time>
      </trkpt>
      <trkpt lat="37.340654000" lon="-5.781793000">
        <ele>97.4</ele>
        <time>2020-10-11T11:25:07Z</time>
      </trkpt>
      <trkpt lat="37.340703000" lon="-5.781681000">
        <ele>97.9</ele>
        <time>2020-10-11T11:25:11Z</time>
      </trkpt>
      <trkpt lat="37.340763000" lon="-5.781588000">
        <ele>98.5</ele>
        <time>2020-10-11T11:25:16Z</time>
      </trkpt>
      <trkpt lat="37.340828000" lon="-5.781490000">
        <ele>98.9</ele>
        <time>2020-10-11T11:25:20Z</time>
      </trkpt>
      <trkpt lat="37.340864000" lon="-5.781386000">
        <ele>99.2</ele>
        <time>2020-10-11T11:25:23Z</time>
      </trkpt>
      <trkpt lat="37.340905000" lon="-5.781282000">
        <ele>99.4</ele>
        <time>2020-10-11T11:25:26Z</time>
      </trkpt>
      <trkpt lat="37.340942000" lon="-5.781178000">
        <ele>99.4</ele>
        <time>2020-10-11T11:25:29Z</time>
      </trkpt>
      <trkpt lat="37.340986000" lon="-5.781078000">
        <ele>99.4</ele>
        <time>2020-10-11T11:25:32Z</time>
      </trkpt>
      <trkpt lat="37.341020000" lon="-5.780979000">
        <ele>99.2</ele>
        <time>2020-10-11T11:25:35Z</time>
      </trkpt>
      <trkpt lat="37.341057000" lon="-5.780866000">
        <ele>98.9</ele>
        <time>2020-10-11T11:25:38Z</time>
      </trkpt>
      <trkpt lat="37.341099000" lon="-5.780746000">
        <ele>98.6</ele>
        <time>2020-10-11T11:25:41Z</time>
      </trkpt>
      <trkpt lat="37.341134000" lon="-5.780621000">
        <ele>98.4</ele>
        <time>2020-10-11T11:25:44Z</time>
      </trkpt>
      <trkpt lat="37.341174000" lon="-5.780498000">
        <ele>98.1</ele>
        <time>2020-10-11T11:25:47Z</time>
      </trkpt>
      <trkpt lat="37.341227000" lon="-5.780381000">
        <ele>97.9</ele>
        <time>2020-10-11T11:25:50Z</time>
      </trkpt>
      <trkpt lat="37.341268000" lon="-5.780260000">
        <ele>97.8</ele>
        <time>2020-10-11T11:25:53Z</time>
      </trkpt>
      <trkpt lat="37.341305000" lon="-5.780140000">
        <ele>97.8</ele>
        <time>2020-10-11T11:25:56Z</time>
      </trkpt>
      <trkpt lat="37.341345000" lon="-5.780024000">
        <ele>97.9</ele>
        <time>2020-10-11T11:25:59Z</time>
      </trkpt>
      <trkpt lat="37.341377000" lon="-5.779898000">
        <ele>98.1</ele>
        <time>2020-10-11T11:26:02Z</time>
      </trkpt>
      <trkpt lat="37.341395000" lon="-5.779764000">
        <ele>98.3</ele>
        <time>2020-10-11T11:26:05Z</time>
      </trkpt>
      <trkpt lat="37.341423000" lon="-5.779631000">
        <ele>98.5</ele>
        <time>2020-10-11T11:26:08Z</time>
      </trkpt>
      <trkpt lat="37.341455000" lon="-5.779498000">
        <ele>98.8</ele>
        <time>2020-10-11T11:26:11Z</time>
      </trkpt>
      <trkpt lat="37.341510000" lon="-5.779379000">
        <ele>99.1</ele>
        <time>2020-10-11T11:26:14Z</time>
      </trkpt>
      <trkpt lat="37.341546000" lon="-5.779251000">
        <ele>99.4</ele>
        <time>2020-10-11T11:26:17Z</time>
      </trkpt>
      <trkpt lat="37.341568000" lon="-5.779109000">
        <ele>99.5</ele>
        <time>2020-10-11T11:26:20Z</time>
      </trkpt>
      <trkpt lat="37.341591000" lon="-5.778967000">
        <ele>99.6</ele>
        <time>2020-10-11T11:26:23Z</time>
      </trkpt>
      <trkpt lat="37.341615000" lon="-5.778820000">
        <ele>99.7</ele>
        <time>2020-10-11T11:26:26Z</time>
      </trkpt>
      <trkpt lat="37.341629000" lon="-5.778673000">
        <ele>99.8</ele>
        <time>2020-10-11T11:26:29Z</time>
      </trkpt>
      <trkpt lat="37.341645000" lon="-5.778529000">
        <ele>99.7</ele>
        <time>2020-10-11T11:26:32Z</time>
      </trkpt>
      <trkpt lat="37.341650000" lon="-5.778385000">
        <ele>99.6</ele>
        <time>2020-10-11T11:26:35Z</time>
      </trkpt>
      <trkpt lat="37.341661000" lon="-5.778242000">
        <ele>99.5</ele>
        <time>2020-10-11T11:26:38Z</time>
      </trkpt>
      <trkpt lat="37.341668000" lon="-5.778091000">
        <ele>99.5</ele>
        <time>2020-10-11T11:26:41Z</time>
      </trkpt>
      <trkpt lat="37.341675000" lon="-5.777989000">
        <ele>99.5</ele>
        <time>2020-10-11T11:26:43Z</time>
      </trkpt>
      <trkpt lat="37.341685000" lon="-5.777885000">
        <ele>99.6</ele>
        <time>2020-10-11T11:26:45Z</time>
      </trkpt>
      <trkpt lat="37.341710000" lon="-5.777739000">
        <ele>99.6</ele>
        <time>2020-10-11T11:26:48Z</time>
      </trkpt>
      <trkpt lat="37.341723000" lon="-5.777598000">
        <ele>99.7</ele>
        <time>2020-10-11T11:26:51Z</time>
      </trkpt>
      <trkpt lat="37.341728000" lon="-5.777452000">
        <ele>99.8</ele>
        <time>2020-10-11T11:26:54Z</time>
      </trkpt>
      <trkpt lat="37.341732000" lon="-5.777304000">
        <ele>99.8</ele>
        <time>2020-10-11T11:26:57Z</time>
      </trkpt>
      <trkpt lat="37.341734000" lon="-5.777152000">
        <ele>99.7</ele>
        <time>2020-10-11T11:27:00Z</time>
      </trkpt>
      <trkpt lat="37.341728000" lon="-5.777001000">
        <ele>99.7</ele>
        <time>2020-10-11T11:27:03Z</time>
      </trkpt>
      <trkpt lat="37.341743000" lon="-5.776855000">
        <ele>99.7</ele>
        <time>2020-10-11T11:27:06Z</time>
      </trkpt>
      <trkpt lat="37.341742000" lon="-5.776716000">
        <ele>99.7</ele>
        <time>2020-10-11T11:27:09Z</time>
      </trkpt>
      <trkpt lat="37.341732000" lon="-5.776611000">
        <ele>99.6</ele>
        <time>2020-10-11T11:27:11Z</time>
      </trkpt>
      <trkpt lat="37.341727000" lon="-5.776499000">
        <ele>99.5</ele>
        <time>2020-10-11T11:27:13Z</time>
      </trkpt>
      <trkpt lat="37.341718000" lon="-5.776384000">
        <ele>99.2</ele>
        <time>2020-10-11T11:27:15Z</time>
      </trkpt>
      <trkpt lat="37.341709000" lon="-5.776270000">
        <ele>99.1</ele>
        <time>2020-10-11T11:27:17Z</time>
      </trkpt>
      <trkpt lat="37.341695000" lon="-5.776157000">
        <ele>99.0</ele>
        <time>2020-10-11T11:27:19Z</time>
      </trkpt>
      <trkpt lat="37.341684000" lon="-5.776039000">
        <ele>98.9</ele>
        <time>2020-10-11T11:27:21Z</time>
      </trkpt>
      <trkpt lat="37.341674000" lon="-5.775917000">
        <ele>98.8</ele>
        <time>2020-10-11T11:27:23Z</time>
      </trkpt>
      <trkpt lat="37.341669000" lon="-5.775798000">
        <ele>98.8</ele>
        <time>2020-10-11T11:27:25Z</time>
      </trkpt>
      <trkpt lat="37.341663000" lon="-5.775678000">
        <ele>98.8</ele>
        <time>2020-10-11T11:27:27Z</time>
      </trkpt>
      <trkpt lat="37.341656000" lon="-5.775565000">
        <ele>98.8</ele>
        <time>2020-10-11T11:27:29Z</time>
      </trkpt>
      <trkpt lat="37.341642000" lon="-5.775449000">
        <ele>98.8</ele>
        <time>2020-10-11T11:27:31Z</time>
      </trkpt>
      <trkpt lat="37.341621000" lon="-5.775321000">
        <ele>98.8</ele>
        <time>2020-10-11T11:27:33Z</time>
      </trkpt>
      <trkpt lat="37.341593000" lon="-5.775202000">
        <ele>98.9</ele>
        <time>2020-10-11T11:27:35Z</time>
      </trkpt>
      <trkpt lat="37.341578000" lon="-5.775084000">
        <ele>99.0</ele>
        <time>2020-10-11T11:27:37Z</time>
      </trkpt>
      <trkpt lat="37.341576000" lon="-5.774964000">
        <ele>99.0</ele>
        <time>2020-10-11T11:27:39Z</time>
      </trkpt>
      <trkpt lat="37.341559000" lon="-5.774848000">
        <ele>98.9</ele>
        <time>2020-10-11T11:27:41Z</time>
      </trkpt>
      <trkpt lat="37.341533000" lon="-5.774738000">
        <ele>98.8</ele>
        <time>2020-10-11T11:27:43Z</time>
      </trkpt>
      <trkpt lat="37.341506000" lon="-5.774633000">
        <ele>98.7</ele>
        <time>2020-10-11T11:27:45Z</time>
      </trkpt>
      <trkpt lat="37.341493000" lon="-5.774520000">
        <ele>98.5</ele>
        <time>2020-10-11T11:27:47Z</time>
      </trkpt>
      <trkpt lat="37.341485000" lon="-5.774417000">
        <ele>98.4</ele>
        <time>2020-10-11T11:27:49Z</time>
      </trkpt>
      <trkpt lat="37.341462000" lon="-5.774272000">
        <ele>98.2</ele>
        <time>2020-10-11T11:27:52Z</time>
      </trkpt>
      <trkpt lat="37.341447000" lon="-5.774163000">
        <ele>98.0</ele>
        <time>2020-10-11T11:27:54Z</time>
      </trkpt>
      <trkpt lat="37.341436000" lon="-5.774044000">
        <ele>97.9</ele>
        <time>2020-10-11T11:27:56Z</time>
      </trkpt>
      <trkpt lat="37.341414000" lon="-5.773927000">
        <ele>97.9</ele>
        <time>2020-10-11T11:27:58Z</time>
      </trkpt>
      <trkpt lat="37.341403000" lon="-5.773804000">
        <ele>97.9</ele>
        <time>2020-10-11T11:28:00Z</time>
      </trkpt>
      <trkpt lat="37.341374000" lon="-5.773685000">
        <ele>97.9</ele>
        <time>2020-10-11T11:28:02Z</time>
      </trkpt>
      <trkpt lat="37.341362000" lon="-5.773555000">
        <ele>98.0</ele>
        <time>2020-10-11T11:28:04Z</time>
      </trkpt>
      <trkpt lat="37.341344000" lon="-5.773423000">
        <ele>98.1</ele>
        <time>2020-10-11T11:28:06Z</time>
      </trkpt>
      <trkpt lat="37.341345000" lon="-5.773290000">
        <ele>98.2</ele>
        <time>2020-10-11T11:28:08Z</time>
      </trkpt>
      <trkpt lat="37.341330000" lon="-5.773161000">
        <ele>98.3</ele>
        <time>2020-10-11T11:28:10Z</time>
      </trkpt>
      <trkpt lat="37.341307000" lon="-5.773034000">
        <ele>98.3</ele>
        <time>2020-10-11T11:28:12Z</time>
      </trkpt>
      <trkpt lat="37.341285000" lon="-5.772904000">
        <ele>98.3</ele>
        <time>2020-10-11T11:28:14Z</time>
      </trkpt>
      <trkpt lat="37.341265000" lon="-5.772778000">
        <ele>98.2</ele>
        <time>2020-10-11T11:28:16Z</time>
      </trkpt>
      <trkpt lat="37.341245000" lon="-5.772650000">
        <ele>98.0</ele>
        <time>2020-10-11T11:28:18Z</time>
      </trkpt>
      <trkpt lat="37.341226000" lon="-5.772522000">
        <ele>97.7</ele>
        <time>2020-10-11T11:28:20Z</time>
      </trkpt>
      <trkpt lat="37.341192000" lon="-5.772398000">
        <ele>97.4</ele>
        <time>2020-10-11T11:28:22Z</time>
      </trkpt>
      <trkpt lat="37.341176000" lon="-5.772277000">
        <ele>97.0</ele>
        <time>2020-10-11T11:28:24Z</time>
      </trkpt>
      <trkpt lat="37.341169000" lon="-5.772145000">
        <ele>96.6</ele>
        <time>2020-10-11T11:28:26Z</time>
      </trkpt>
      <trkpt lat="37.341155000" lon="-5.772015000">
        <ele>96.3</ele>
        <time>2020-10-11T11:28:28Z</time>
      </trkpt>
      <trkpt lat="37.341143000" lon="-5.771886000">
        <ele>95.9</ele>
        <time>2020-10-11T11:28:30Z</time>
      </trkpt>
      <trkpt lat="37.341131000" lon="-5.771769000">
        <ele>95.6</ele>
        <time>2020-10-11T11:28:32Z</time>
      </trkpt>
      <trkpt lat="37.341116000" lon="-5.771643000">
        <ele>95.4</ele>
        <time>2020-10-11T11:28:34Z</time>
      </trkpt>
      <trkpt lat="37.341104000" lon="-5.771516000">
        <ele>95.1</ele>
        <time>2020-10-11T11:28:36Z</time>
      </trkpt>
      <trkpt lat="37.341082000" lon="-5.771389000">
        <ele>94.9</ele>
        <time>2020-10-11T11:28:38Z</time>
      </trkpt>
      <trkpt lat="37.341060000" lon="-5.771265000">
        <ele>94.7</ele>
        <time>2020-10-11T11:28:40Z</time>
      </trkpt>
      <trkpt lat="37.341041000" lon="-5.771136000">
        <ele>94.5</ele>
        <time>2020-10-11T11:28:42Z</time>
      </trkpt>
      <trkpt lat="37.341027000" lon="-5.771008000">
        <ele>94.3</ele>
        <time>2020-10-11T11:28:44Z</time>
      </trkpt>
      <trkpt lat="37.341016000" lon="-5.770882000">
        <ele>94.1</ele>
        <time>2020-10-11T11:28:46Z</time>
      </trkpt>
      <trkpt lat="37.341005000" lon="-5.770755000">
        <ele>93.8</ele>
        <time>2020-10-11T11:28:48Z</time>
      </trkpt>
      <trkpt lat="37.340986000" lon="-5.770627000">
        <ele>93.5</ele>
        <time>2020-10-11T11:28:50Z</time>
      </trkpt>
      <trkpt lat="37.340970000" lon="-5.770501000">
        <ele>93.3</ele>
        <time>2020-10-11T11:28:52Z</time>
      </trkpt>
      <trkpt lat="37.340952000" lon="-5.770376000">
        <ele>93.0</ele>
        <time>2020-10-11T11:28:54Z</time>
      </trkpt>
      <trkpt lat="37.340938000" lon="-5.770260000">
        <ele>92.8</ele>
        <time>2020-10-11T11:28:56Z</time>
      </trkpt>
      <trkpt lat="37.340930000" lon="-5.770139000">
        <ele>92.6</ele>
        <time>2020-10-11T11:28:58Z</time>
      </trkpt>
      <trkpt lat="37.340929000" lon="-5.770012000">
        <ele>92.5</ele>
        <time>2020-10-11T11:29:00Z</time>
      </trkpt>
      <trkpt lat="37.340927000" lon="-5.769880000">
        <ele>92.2</ele>
        <time>2020-10-11T11:29:02Z</time>
      </trkpt>
      <trkpt lat="37.340929000" lon="-5.769755000">
        <ele>92.0</ele>
        <time>2020-10-11T11:29:04Z</time>
      </trkpt>
      <trkpt lat="37.340929000" lon="-5.769620000">
        <ele>91.8</ele>
        <time>2020-10-11T11:29:06Z</time>
      </trkpt>
      <trkpt lat="37.340930000" lon="-5.769484000">
        <ele>91.6</ele>
        <time>2020-10-11T11:29:08Z</time>
      </trkpt>
      <trkpt lat="37.340945000" lon="-5.769355000">
        <ele>91.6</ele>
        <time>2020-10-11T11:29:10Z</time>
      </trkpt>
      <trkpt lat="37.340958000" lon="-5.769221000">
        <ele>91.7</ele>
        <time>2020-10-11T11:29:12Z</time>
      </trkpt>
      <trkpt lat="37.340978000" lon="-5.769093000">
        <ele>91.8</ele>
        <time>2020-10-11T11:29:14Z</time>
      </trkpt>
      <trkpt lat="37.340997000" lon="-5.768979000">
        <ele>91.9</ele>
        <time>2020-10-11T11:29:16Z</time>
      </trkpt>
      <trkpt lat="37.341015000" lon="-5.768868000">
        <ele>92.0</ele>
        <time>2020-10-11T11:29:18Z</time>
      </trkpt>
      <trkpt lat="37.341038000" lon="-5.768753000">
        <ele>92.0</ele>
        <time>2020-10-11T11:29:20Z</time>
      </trkpt>
      <trkpt lat="37.341067000" lon="-5.768639000">
        <ele>91.9</ele>
        <time>2020-10-11T11:29:22Z</time>
      </trkpt>
      <trkpt lat="37.341083000" lon="-5.768532000">
        <ele>91.9</ele>
        <time>2020-10-11T11:29:24Z</time>
      </trkpt>
      <trkpt lat="37.341093000" lon="-5.768420000">
        <ele>91.7</ele>
        <time>2020-10-11T11:29:26Z</time>
      </trkpt>
      <trkpt lat="37.341126000" lon="-5.768311000">
        <ele>91.5</ele>
        <time>2020-10-11T11:29:28Z</time>
      </trkpt>
      <trkpt lat="37.341155000" lon="-5.768209000">
        <ele>91.2</ele>
        <time>2020-10-11T11:29:30Z</time>
      </trkpt>
      <trkpt lat="37.341172000" lon="-5.768105000">
        <ele>90.7</ele>
        <time>2020-10-11T11:29:32Z</time>
      </trkpt>
      <trkpt lat="37.341208000" lon="-5.768007000">
        <ele>90.2</ele>
        <time>2020-10-11T11:29:34Z</time>
      </trkpt>
      <trkpt lat="37.341241000" lon="-5.767907000">
        <ele>89.6</ele>
        <time>2020-10-11T11:29:36Z</time>
      </trkpt>
      <trkpt lat="37.341282000" lon="-5.767811000">
        <ele>89.0</ele>
        <time>2020-10-11T11:29:38Z</time>
      </trkpt>
      <trkpt lat="37.341321000" lon="-5.767718000">
        <ele>88.4</ele>
        <time>2020-10-11T11:29:40Z</time>
      </trkpt>
      <trkpt lat="37.341378000" lon="-5.767597000">
        <ele>87.8</ele>
        <time>2020-10-11T11:29:43Z</time>
      </trkpt>
      <trkpt lat="37.341433000" lon="-5.767485000">
        <ele>87.4</ele>
        <time>2020-10-11T11:29:46Z</time>
      </trkpt>
      <trkpt lat="37.341495000" lon="-5.767372000">
        <ele>86.9</ele>
        <time>2020-10-11T11:29:49Z</time>
      </trkpt>
      <trkpt lat="37.341565000" lon="-5.767247000">
        <ele>86.6</ele>
        <time>2020-10-11T11:29:52Z</time>
      </trkpt>
      <trkpt lat="37.341612000" lon="-5.767159000">
        <ele>86.4</ele>
        <time>2020-10-11T11:29:54Z</time>
      </trkpt>
      <trkpt lat="37.341662000" lon="-5.767074000">
        <ele>86.1</ele>
        <time>2020-10-11T11:29:56Z</time>
      </trkpt>
      <trkpt lat="37.341710000" lon="-5.766992000">
        <ele>85.9</ele>
        <time>2020-10-11T11:29:58Z</time>
      </trkpt>
      <trkpt lat="37.341758000" lon="-5.766908000">
        <ele>85.7</ele>
        <time>2020-10-11T11:30:00Z</time>
      </trkpt>
      <trkpt lat="37.341814000" lon="-5.766825000">
        <ele>85.5</ele>
        <time>2020-10-11T11:30:03Z</time>
      </trkpt>
      <trkpt lat="37.341871000" lon="-5.766739000">
        <ele>85.5</ele>
        <time>2020-10-11T11:30:04Z</time>
      </trkpt>
      <trkpt lat="37.341934000" lon="-5.766653000">
        <ele>85.5</ele>
        <time>2020-10-11T11:30:06Z</time>
      </trkpt>
      <trkpt lat="37.342003000" lon="-5.766580000">
        <ele>85.4</ele>
        <time>2020-10-11T11:30:08Z</time>
      </trkpt>
      <trkpt lat="37.342075000" lon="-5.766504000">
        <ele>85.2</ele>
        <time>2020-10-11T11:30:10Z</time>
      </trkpt>
      <trkpt lat="37.342148000" lon="-5.766426000">
        <ele>85.0</ele>
        <time>2020-10-11T11:30:12Z</time>
      </trkpt>
      <trkpt lat="37.342210000" lon="-5.766348000">
        <ele>84.7</ele>
        <time>2020-10-11T11:30:14Z</time>
      </trkpt>
      <trkpt lat="37.342278000" lon="-5.766279000">
        <ele>84.5</ele>
        <time>2020-10-11T11:30:16Z</time>
      </trkpt>
      <trkpt lat="37.342347000" lon="-5.766202000">
        <ele>84.3</ele>
        <time>2020-10-11T11:30:18Z</time>
      </trkpt>
      <trkpt lat="37.342428000" lon="-5.766131000">
        <ele>84.0</ele>
        <time>2020-10-11T11:31:37Z</time>
      </trkpt>
      <trkpt lat="37.342499000" lon="-5.766074000">
        <ele>83.7</ele>
        <time>2020-10-11T11:31:40Z</time>
      </trkpt>
      <trkpt lat="37.342593000" lon="-5.766006000">
        <ele>83.5</ele>
        <time>2020-10-11T11:31:43Z</time>
      </trkpt>
      <trkpt lat="37.342691000" lon="-5.765942000">
        <ele>83.1</ele>
        <time>2020-10-11T11:31:46Z</time>
      </trkpt>
      <trkpt lat="37.342799000" lon="-5.765871000">
        <ele>82.8</ele>
        <time>2020-10-11T11:31:49Z</time>
      </trkpt>
      <trkpt lat="37.342872000" lon="-5.765812000">
        <ele>82.5</ele>
        <time>2020-10-11T11:31:51Z</time>
      </trkpt>
      <trkpt lat="37.342961000" lon="-5.765759000">
        <ele>82.4</ele>
        <time>2020-10-11T11:31:53Z</time>
      </trkpt>
      <trkpt lat="37.343042000" lon="-5.765701000">
        <ele>82.2</ele>
        <time>2020-10-11T11:31:55Z</time>
      </trkpt>
      <trkpt lat="37.343129000" lon="-5.765639000">
        <ele>82.0</ele>
        <time>2020-10-11T11:31:57Z</time>
      </trkpt>
      <trkpt lat="37.343219000" lon="-5.765589000">
        <ele>81.8</ele>
        <time>2020-10-11T11:31:59Z</time>
      </trkpt>
      <trkpt lat="37.343306000" lon="-5.765536000">
        <ele>81.7</ele>
        <time>2020-10-11T11:32:01Z</time>
      </trkpt>
      <trkpt lat="37.343392000" lon="-5.765477000">
        <ele>81.5</ele>
        <time>2020-10-11T11:32:03Z</time>
      </trkpt>
      <trkpt lat="37.343484000" lon="-5.765412000">
        <ele>81.4</ele>
        <time>2020-10-11T11:32:05Z</time>
      </trkpt>
      <trkpt lat="37.343571000" lon="-5.765350000">
        <ele>81.1</ele>
        <time>2020-10-11T11:32:07Z</time>
      </trkpt>
      <trkpt lat="37.343656000" lon="-5.765284000">
        <ele>80.8</ele>
        <time>2020-10-11T11:32:09Z</time>
      </trkpt>
      <trkpt lat="37.343745000" lon="-5.765219000">
        <ele>80.5</ele>
        <time>2020-10-11T11:32:11Z</time>
      </trkpt>
      <trkpt lat="37.343833000" lon="-5.765143000">
        <ele>80.2</ele>
        <time>2020-10-11T11:32:13Z</time>
      </trkpt>
      <trkpt lat="37.343933000" lon="-5.765065000">
        <ele>79.8</ele>
        <time>2020-10-11T11:32:15Z</time>
      </trkpt>
      <trkpt lat="37.344032000" lon="-5.764979000">
        <ele>79.5</ele>
        <time>2020-10-11T11:32:17Z</time>
      </trkpt>
      <trkpt lat="37.344128000" lon="-5.764892000">
        <ele>79.3</ele>
        <time>2020-10-11T11:32:19Z</time>
      </trkpt>
      <trkpt lat="37.344211000" lon="-5.764802000">
        <ele>79.2</ele>
        <time>2020-10-11T11:32:21Z</time>
      </trkpt>
      <trkpt lat="37.344304000" lon="-5.764711000">
        <ele>79.1</ele>
        <time>2020-10-11T11:32:23Z</time>
      </trkpt>
      <trkpt lat="37.344388000" lon="-5.764623000">
        <ele>79.1</ele>
        <time>2020-10-11T11:32:25Z</time>
      </trkpt>
      <trkpt lat="37.344465000" lon="-5.764536000">
        <ele>79.1</ele>
        <time>2020-10-11T11:32:27Z</time>
      </trkpt>
      <trkpt lat="37.344541000" lon="-5.764467000">
        <ele>79.2</ele>
        <time>2020-10-11T11:32:29Z</time>
      </trkpt>
      <trkpt lat="37.344604000" lon="-5.764382000">
        <ele>79.3</ele>
        <time>2020-10-11T11:32:31Z</time>
      </trkpt>
      <trkpt lat="37.344654000" lon="-5.764280000">
        <ele>79.5</ele>
        <time>2020-10-11T11:32:33Z</time>
      </trkpt>
      <trkpt lat="37.344706000" lon="-5.764180000">
        <ele>79.7</ele>
        <time>2020-10-11T11:32:35Z</time>
      </trkpt>
      <trkpt lat="37.344769000" lon="-5.764091000">
        <ele>80.0</ele>
        <time>2020-10-11T11:32:37Z</time>
      </trkpt>
      <trkpt lat="37.344821000" lon="-5.763996000">
        <ele>80.3</ele>
        <time>2020-10-11T11:32:39Z</time>
      </trkpt>
      <trkpt lat="37.344872000" lon="-5.763900000">
        <ele>80.5</ele>
        <time>2020-10-11T11:32:41Z</time>
      </trkpt>
      <trkpt lat="37.344928000" lon="-5.763813000">
        <ele>80.5</ele>
        <time>2020-10-11T11:32:43Z</time>
      </trkpt>
      <trkpt lat="37.344986000" lon="-5.763726000">
        <ele>80.6</ele>
        <time>2020-10-11T11:32:45Z</time>
      </trkpt>
      <trkpt lat="37.345038000" lon="-5.763632000">
        <ele>80.7</ele>
        <time>2020-10-11T11:32:47Z</time>
      </trkpt>
      <trkpt lat="37.345094000" lon="-5.763539000">
        <ele>80.9</ele>
        <time>2020-10-11T11:32:49Z</time>
      </trkpt>
      <trkpt lat="37.345151000" lon="-5.763448000">
        <ele>81.1</ele>
        <time>2020-10-11T11:32:51Z</time>
      </trkpt>
      <trkpt lat="37.345213000" lon="-5.763354000">
        <ele>81.3</ele>
        <time>2020-10-11T11:32:53Z</time>
      </trkpt>
      <trkpt lat="37.345270000" lon="-5.763254000">
        <ele>81.4</ele>
        <time>2020-10-11T11:32:55Z</time>
      </trkpt>
      <trkpt lat="37.345328000" lon="-5.763154000">
        <ele>81.5</ele>
        <time>2020-10-11T11:32:57Z</time>
      </trkpt>
      <trkpt lat="37.345382000" lon="-5.763056000">
        <ele>81.5</ele>
        <time>2020-10-11T11:32:59Z</time>
      </trkpt>
      <trkpt lat="37.345432000" lon="-5.762958000">
        <ele>81.7</ele>
        <time>2020-10-11T11:33:01Z</time>
      </trkpt>
      <trkpt lat="37.345488000" lon="-5.762857000">
        <ele>81.9</ele>
        <time>2020-10-11T11:33:03Z</time>
      </trkpt>
      <trkpt lat="37.345546000" lon="-5.762762000">
        <ele>82.1</ele>
        <time>2020-10-11T11:33:05Z</time>
      </trkpt>
      <trkpt lat="37.345600000" lon="-5.762671000">
        <ele>82.2</ele>
        <time>2020-10-11T11:33:07Z</time>
      </trkpt>
      <trkpt lat="37.345656000" lon="-5.762581000">
        <ele>82.3</ele>
        <time>2020-10-11T11:33:09Z</time>
      </trkpt>
      <trkpt lat="37.345705000" lon="-5.762488000">
        <ele>82.3</ele>
        <time>2020-10-11T11:33:11Z</time>
      </trkpt>
      <trkpt lat="37.345762000" lon="-5.762400000">
        <ele>82.4</ele>
        <time>2020-10-11T11:33:13Z</time>
      </trkpt>
      <trkpt lat="37.345820000" lon="-5.762308000">
        <ele>82.5</ele>
        <time>2020-10-11T11:33:15Z</time>
      </trkpt>
      <trkpt lat="37.345866000" lon="-5.762213000">
        <ele>82.5</ele>
        <time>2020-10-11T11:33:17Z</time>
      </trkpt>
      <trkpt lat="37.345919000" lon="-5.762116000">
        <ele>82.7</ele>
        <time>2020-10-11T11:33:19Z</time>
      </trkpt>
      <trkpt lat="37.345975000" lon="-5.762022000">
        <ele>82.9</ele>
        <time>2020-10-11T11:33:21Z</time>
      </trkpt>
      <trkpt lat="37.346037000" lon="-5.761928000">
        <ele>83.1</ele>
        <time>2020-10-11T11:33:23Z</time>
      </trkpt>
      <trkpt lat="37.346095000" lon="-5.761836000">
        <ele>83.3</ele>
        <time>2020-10-11T11:33:25Z</time>
      </trkpt>
      <trkpt lat="37.346154000" lon="-5.761743000">
        <ele>83.5</ele>
        <time>2020-10-11T11:33:27Z</time>
      </trkpt>
      <trkpt lat="37.346217000" lon="-5.761644000">
        <ele>83.7</ele>
        <time>2020-10-11T11:33:29Z</time>
      </trkpt>
      <trkpt lat="37.346281000" lon="-5.761542000">
        <ele>84.0</ele>
        <time>2020-10-11T11:33:31Z</time>
      </trkpt>
      <trkpt lat="37.346346000" lon="-5.761441000">
        <ele>84.2</ele>
        <time>2020-10-11T11:33:33Z</time>
      </trkpt>
      <trkpt lat="37.346404000" lon="-5.761340000">
        <ele>84.3</ele>
        <time>2020-10-11T11:33:35Z</time>
      </trkpt>
      <trkpt lat="37.346462000" lon="-5.761241000">
        <ele>84.3</ele>
        <time>2020-10-11T11:33:37Z</time>
      </trkpt>
      <trkpt lat="37.346522000" lon="-5.761136000">
        <ele>84.3</ele>
        <time>2020-10-11T11:33:39Z</time>
      </trkpt>
      <trkpt lat="37.346579000" lon="-5.761035000">
        <ele>84.1</ele>
        <time>2020-10-11T11:33:41Z</time>
      </trkpt>
      <trkpt lat="37.346643000" lon="-5.760932000">
        <ele>83.8</ele>
        <time>2020-10-11T11:33:43Z</time>
      </trkpt>
      <trkpt lat="37.346701000" lon="-5.760832000">
        <ele>83.4</ele>
        <time>2020-10-11T11:33:45Z</time>
      </trkpt>
      <trkpt lat="37.346758000" lon="-5.760733000">
        <ele>82.8</ele>
        <time>2020-10-11T11:33:47Z</time>
      </trkpt>
      <trkpt lat="37.346828000" lon="-5.760635000">
        <ele>82.2</ele>
        <time>2020-10-11T11:33:49Z</time>
      </trkpt>
      <trkpt lat="37.346888000" lon="-5.760528000">
        <ele>81.5</ele>
        <time>2020-10-11T11:33:51Z</time>
      </trkpt>
      <trkpt lat="37.346954000" lon="-5.760428000">
        <ele>80.9</ele>
        <time>2020-10-11T11:33:53Z</time>
      </trkpt>
      <trkpt lat="37.347014000" lon="-5.760336000">
        <ele>80.4</ele>
        <time>2020-10-11T11:33:55Z</time>
      </trkpt>
      <trkpt lat="37.347077000" lon="-5.760218000">
        <ele>79.8</ele>
        <time>2020-10-11T11:33:58Z</time>
      </trkpt>
      <trkpt lat="37.347130000" lon="-5.760131000">
        <ele>79.4</ele>
        <time>2020-10-11T11:34:01Z</time>
      </trkpt>
      <trkpt lat="37.347186000" lon="-5.760051000">
        <ele>78.9</ele>
        <time>2020-10-11T11:34:25Z</time>
      </trkpt>
      <trkpt lat="37.347243000" lon="-5.759975000">
        <ele>78.5</ele>
        <time>2020-10-11T11:34:28Z</time>
      </trkpt>
      <trkpt lat="37.347310000" lon="-5.759868000">
        <ele>78.3</ele>
        <time>2020-10-11T11:34:31Z</time>
      </trkpt>
      <trkpt lat="37.347390000" lon="-5.759758000">
        <ele>78.1</ele>
        <time>2020-10-11T11:34:34Z</time>
      </trkpt>
      <trkpt lat="37.347450000" lon="-5.759680000">
        <ele>78.1</ele>
        <time>2020-10-11T11:34:36Z</time>
      </trkpt>
      <trkpt lat="37.347515000" lon="-5.759597000">
        <ele>78.3</ele>
        <time>2020-10-11T11:34:38Z</time>
      </trkpt>
      <trkpt lat="37.347578000" lon="-5.759519000">
        <ele>78.5</ele>
        <time>2020-10-11T11:34:40Z</time>
      </trkpt>
      <trkpt lat="37.347638000" lon="-5.759447000">
        <ele>78.6</ele>
        <time>2020-10-11T11:34:42Z</time>
      </trkpt>
      <trkpt lat="37.347721000" lon="-5.759336000">
        <ele>78.8</ele>
        <time>2020-10-11T11:34:45Z</time>
      </trkpt>
      <trkpt lat="37.347774000" lon="-5.759253000">
        <ele>79.0</ele>
        <time>2020-10-11T11:34:47Z</time>
      </trkpt>
      <trkpt lat="37.347833000" lon="-5.759172000">
        <ele>79.2</ele>
        <time>2020-10-11T11:34:49Z</time>
      </trkpt>
      <trkpt lat="37.347897000" lon="-5.759088000">
        <ele>79.3</ele>
        <time>2020-10-11T11:34:51Z</time>
      </trkpt>
      <trkpt lat="37.347962000" lon="-5.758995000">
        <ele>79.4</ele>
        <time>2020-10-11T11:34:53Z</time>
      </trkpt>
      <trkpt lat="37.348027000" lon="-5.758898000">
        <ele>79.4</ele>
        <time>2020-10-11T11:34:55Z</time>
      </trkpt>
      <trkpt lat="37.348096000" lon="-5.758805000">
        <ele>79.4</ele>
        <time>2020-10-11T11:34:57Z</time>
      </trkpt>
      <trkpt lat="37.348164000" lon="-5.758715000">
        <ele>79.3</ele>
        <time>2020-10-11T11:34:59Z</time>
      </trkpt>
      <trkpt lat="37.348230000" lon="-5.758616000">
        <ele>79.1</ele>
        <time>2020-10-11T11:35:01Z</time>
      </trkpt>
      <trkpt lat="37.348305000" lon="-5.758519000">
        <ele>78.9</ele>
        <time>2020-10-11T11:35:03Z</time>
      </trkpt>
      <trkpt lat="37.348377000" lon="-5.758424000">
        <ele>78.8</ele>
        <time>2020-10-11T11:35:05Z</time>
      </trkpt>
      <trkpt lat="37.348450000" lon="-5.758330000">
        <ele>78.7</ele>
        <time>2020-10-11T11:35:07Z</time>
      </trkpt>
      <trkpt lat="37.348527000" lon="-5.758232000">
        <ele>78.6</ele>
        <time>2020-10-11T11:35:09Z</time>
      </trkpt>
      <trkpt lat="37.348591000" lon="-5.758133000">
        <ele>78.5</ele>
        <time>2020-10-11T11:35:11Z</time>
      </trkpt>
      <trkpt lat="37.348658000" lon="-5.758037000">
        <ele>78.4</ele>
        <time>2020-10-11T11:35:13Z</time>
      </trkpt>
      <trkpt lat="37.348733000" lon="-5.757946000">
        <ele>78.2</ele>
        <time>2020-10-11T11:35:15Z</time>
      </trkpt>
      <trkpt lat="37.348801000" lon="-5.757851000">
        <ele>78.0</ele>
        <time>2020-10-11T11:35:17Z</time>
      </trkpt>
      <trkpt lat="37.348873000" lon="-5.757752000">
        <ele>77.8</ele>
        <time>2020-10-11T11:35:19Z</time>
      </trkpt>
      <trkpt lat="37.348949000" lon="-5.757662000">
        <ele>77.5</ele>
        <time>2020-10-11T11:35:21Z</time>
      </trkpt>
      <trkpt lat="37.349019000" lon="-5.757563000">
        <ele>77.1</ele>
        <time>2020-10-11T11:35:23Z</time>
      </trkpt>
      <trkpt lat="37.349093000" lon="-5.757464000">
        <ele>76.5</ele>
        <time>2020-10-11T11:35:25Z</time>
      </trkpt>
      <trkpt lat="37.349170000" lon="-5.757357000">
        <ele>75.8</ele>
        <time>2020-10-11T11:35:27Z</time>
      </trkpt>
      <trkpt lat="37.349246000" lon="-5.757251000">
        <ele>75.1</ele>
        <time>2020-10-11T11:35:29Z</time>
      </trkpt>
      <trkpt lat="37.349323000" lon="-5.757140000">
        <ele>74.4</ele>
        <time>2020-10-11T11:35:31Z</time>
      </trkpt>
      <trkpt lat="37.349399000" lon="-5.757037000">
        <ele>73.7</ele>
        <time>2020-10-11T11:35:33Z</time>
      </trkpt>
      <trkpt lat="37.349464000" lon="-5.756932000">
        <ele>73.1</ele>
        <time>2020-10-11T11:35:35Z</time>
      </trkpt>
      <trkpt lat="37.349531000" lon="-5.756830000">
        <ele>72.5</ele>
        <time>2020-10-11T11:35:37Z</time>
      </trkpt>
      <trkpt lat="37.349606000" lon="-5.756729000">
        <ele>72.2</ele>
        <time>2020-10-11T11:35:39Z</time>
      </trkpt>
      <trkpt lat="37.349691000" lon="-5.756630000">
        <ele>71.8</ele>
        <time>2020-10-11T11:35:41Z</time>
      </trkpt>
      <trkpt lat="37.349770000" lon="-5.756538000">
        <ele>71.6</ele>
        <time>2020-10-11T11:35:43Z</time>
      </trkpt>
      <trkpt lat="37.349844000" lon="-5.756433000">
        <ele>71.6</ele>
        <time>2020-10-11T11:35:45Z</time>
      </trkpt>
      <trkpt lat="37.349919000" lon="-5.756326000">
        <ele>71.7</ele>
        <time>2020-10-11T11:35:47Z</time>
      </trkpt>
      <trkpt lat="37.349994000" lon="-5.756232000">
        <ele>71.9</ele>
        <time>2020-10-11T11:35:49Z</time>
      </trkpt>
      <trkpt lat="37.350057000" lon="-5.756130000">
        <ele>72.2</ele>
        <time>2020-10-11T11:35:51Z</time>
      </trkpt>
      <trkpt lat="37.350135000" lon="-5.756036000">
        <ele>72.4</ele>
        <time>2020-10-11T11:35:53Z</time>
      </trkpt>
      <trkpt lat="37.350201000" lon="-5.755940000">
        <ele>72.5</ele>
        <time>2020-10-11T11:35:55Z</time>
      </trkpt>
      <trkpt lat="37.350272000" lon="-5.755843000">
        <ele>72.7</ele>
        <time>2020-10-11T11:35:57Z</time>
      </trkpt>
      <trkpt lat="37.350339000" lon="-5.755755000">
        <ele>72.8</ele>
        <time>2020-10-11T11:35:59Z</time>
      </trkpt>
      <trkpt lat="37.350414000" lon="-5.755658000">
        <ele>72.8</ele>
        <time>2020-10-11T11:36:01Z</time>
      </trkpt>
      <trkpt lat="37.350469000" lon="-5.755556000">
        <ele>72.8</ele>
        <time>2020-10-11T11:36:03Z</time>
      </trkpt>
      <trkpt lat="37.350525000" lon="-5.755465000">
        <ele>72.7</ele>
        <time>2020-10-11T11:36:05Z</time>
      </trkpt>
      <trkpt lat="37.350577000" lon="-5.755373000">
        <ele>72.6</ele>
        <time>2020-10-11T11:36:07Z</time>
      </trkpt>
      <trkpt lat="37.350638000" lon="-5.755281000">
        <ele>72.5</ele>
        <time>2020-10-11T11:36:09Z</time>
      </trkpt>
      <trkpt lat="37.350709000" lon="-5.755192000">
        <ele>72.2</ele>
        <time>2020-10-11T11:36:11Z</time>
      </trkpt>
      <trkpt lat="37.350773000" lon="-5.755100000">
        <ele>71.8</ele>
        <time>2020-10-11T11:36:13Z</time>
      </trkpt>
      <trkpt lat="37.350844000" lon="-5.755010000">
        <ele>71.5</ele>
        <time>2020-10-11T11:36:15Z</time>
      </trkpt>
      <trkpt lat="37.350919000" lon="-5.754916000">
        <ele>71.4</ele>
        <time>2020-10-11T11:36:17Z</time>
      </trkpt>
      <trkpt lat="37.350997000" lon="-5.754817000">
        <ele>71.3</ele>
        <time>2020-10-11T11:36:19Z</time>
      </trkpt>
      <trkpt lat="37.351069000" lon="-5.754720000">
        <ele>71.4</ele>
        <time>2020-10-11T11:36:21Z</time>
      </trkpt>
      <trkpt lat="37.351151000" lon="-5.754622000">
        <ele>71.5</ele>
        <time>2020-10-11T11:36:23Z</time>
      </trkpt>
      <trkpt lat="37.351228000" lon="-5.754526000">
        <ele>71.5</ele>
        <time>2020-10-11T11:36:25Z</time>
      </trkpt>
      <trkpt lat="37.351305000" lon="-5.754429000">
        <ele>71.6</ele>
        <time>2020-10-11T11:36:27Z</time>
      </trkpt>
      <trkpt lat="37.351382000" lon="-5.754334000">
        <ele>71.6</ele>
        <time>2020-10-11T11:36:29Z</time>
      </trkpt>
      <trkpt lat="37.351458000" lon="-5.754237000">
        <ele>71.6</ele>
        <time>2020-10-11T11:36:31Z</time>
      </trkpt>
      <trkpt lat="37.351534000" lon="-5.754141000">
        <ele>71.7</ele>
        <time>2020-10-11T11:36:33Z</time>
      </trkpt>
      <trkpt lat="37.351611000" lon="-5.754057000">
        <ele>71.7</ele>
        <time>2020-10-11T11:36:35Z</time>
      </trkpt>
      <trkpt lat="37.351695000" lon="-5.753964000">
        <ele>71.8</ele>
        <time>2020-10-11T11:36:37Z</time>
      </trkpt>
      <trkpt lat="37.351772000" lon="-5.753870000">
        <ele>71.9</ele>
        <time>2020-10-11T11:36:39Z</time>
      </trkpt>
      <trkpt lat="37.351850000" lon="-5.753788000">
        <ele>71.9</ele>
        <time>2020-10-11T11:36:41Z</time>
      </trkpt>
      <trkpt lat="37.351927000" lon="-5.753696000">
        <ele>71.8</ele>
        <time>2020-10-11T11:36:43Z</time>
      </trkpt>
      <trkpt lat="37.352008000" lon="-5.753607000">
        <ele>71.6</ele>
        <time>2020-10-11T11:36:45Z</time>
      </trkpt>
      <trkpt lat="37.352089000" lon="-5.753532000">
        <ele>71.5</ele>
        <time>2020-10-11T11:36:47Z</time>
      </trkpt>
      <trkpt lat="37.352174000" lon="-5.753454000">
        <ele>71.2</ele>
        <time>2020-10-11T11:36:49Z</time>
      </trkpt>
      <trkpt lat="37.352254000" lon="-5.753372000">
        <ele>70.9</ele>
        <time>2020-10-11T11:36:51Z</time>
      </trkpt>
      <trkpt lat="37.352336000" lon="-5.753296000">
        <ele>70.7</ele>
        <time>2020-10-11T11:36:53Z</time>
      </trkpt>
      <trkpt lat="37.352421000" lon="-5.753221000">
        <ele>70.5</ele>
        <time>2020-10-11T11:36:55Z</time>
      </trkpt>
      <trkpt lat="37.352508000" lon="-5.753148000">
        <ele>70.3</ele>
        <time>2020-10-11T11:36:57Z</time>
      </trkpt>
      <trkpt lat="37.352591000" lon="-5.753078000">
        <ele>70.0</ele>
        <time>2020-10-11T11:36:59Z</time>
      </trkpt>
      <trkpt lat="37.352673000" lon="-5.752994000">
        <ele>69.7</ele>
        <time>2020-10-11T11:37:01Z</time>
      </trkpt>
      <trkpt lat="37.352755000" lon="-5.752920000">
        <ele>69.5</ele>
        <time>2020-10-11T11:37:03Z</time>
      </trkpt>
      <trkpt lat="37.352828000" lon="-5.752837000">
        <ele>69.3</ele>
        <time>2020-10-11T11:37:05Z</time>
      </trkpt>
      <trkpt lat="37.352909000" lon="-5.752760000">
        <ele>69.2</ele>
        <time>2020-10-11T11:37:07Z</time>
      </trkpt>
      <trkpt lat="37.352993000" lon="-5.752710000">
        <ele>69.1</ele>
        <time>2020-10-11T11:37:09Z</time>
      </trkpt>
      <trkpt lat="37.353074000" lon="-5.752657000">
        <ele>69.1</ele>
        <time>2020-10-11T11:37:11Z</time>
      </trkpt>
      <trkpt lat="37.353145000" lon="-5.752574000">
        <ele>69.2</ele>
        <time>2020-10-11T11:37:13Z</time>
      </trkpt>
      <trkpt lat="37.353217000" lon="-5.752493000">
        <ele>69.3</ele>
        <time>2020-10-11T11:37:15Z</time>
      </trkpt>
      <trkpt lat="37.353297000" lon="-5.752417000">
        <ele>69.5</ele>
        <time>2020-10-11T11:37:17Z</time>
      </trkpt>
      <trkpt lat="37.353380000" lon="-5.752353000">
        <ele>69.6</ele>
        <time>2020-10-11T11:37:19Z</time>
      </trkpt>
      <trkpt lat="37.353461000" lon="-5.752282000">
        <ele>69.9</ele>
        <time>2020-10-11T11:37:21Z</time>
      </trkpt>
      <trkpt lat="37.353548000" lon="-5.752214000">
        <ele>70.1</ele>
        <time>2020-10-11T11:37:23Z</time>
      </trkpt>
      <trkpt lat="37.353633000" lon="-5.752136000">
        <ele>70.3</ele>
        <time>2020-10-11T11:37:25Z</time>
      </trkpt>
      <trkpt lat="37.353719000" lon="-5.752058000">
        <ele>70.4</ele>
        <time>2020-10-11T11:37:27Z</time>
      </trkpt>
      <trkpt lat="37.353800000" lon="-5.751978000">
        <ele>70.5</ele>
        <time>2020-10-11T11:37:29Z</time>
      </trkpt>
      <trkpt lat="37.353881000" lon="-5.751897000">
        <ele>70.5</ele>
        <time>2020-10-11T11:37:31Z</time>
      </trkpt>
      <trkpt lat="37.353963000" lon="-5.751814000">
        <ele>70.5</ele>
        <time>2020-10-11T11:37:33Z</time>
      </trkpt>
      <trkpt lat="37.354042000" lon="-5.751740000">
        <ele>70.5</ele>
        <time>2020-10-11T11:37:35Z</time>
      </trkpt>
      <trkpt lat="37.354128000" lon="-5.751661000">
        <ele>70.4</ele>
        <time>2020-10-11T11:37:37Z</time>
      </trkpt>
      <trkpt lat="37.354206000" lon="-5.751588000">
        <ele>70.3</ele>
        <time>2020-10-11T11:37:39Z</time>
      </trkpt>
      <trkpt lat="37.354285000" lon="-5.751507000">
        <ele>70.2</ele>
        <time>2020-10-11T11:37:41Z</time>
      </trkpt>
      <trkpt lat="37.354364000" lon="-5.751435000">
        <ele>70.0</ele>
        <time>2020-10-11T11:37:43Z</time>
      </trkpt>
      <trkpt lat="37.354451000" lon="-5.751368000">
        <ele>69.9</ele>
        <time>2020-10-11T11:37:45Z</time>
      </trkpt>
      <trkpt lat="37.354542000" lon="-5.751289000">
        <ele>69.8</ele>
        <time>2020-10-11T11:37:47Z</time>
      </trkpt>
      <trkpt lat="37.354629000" lon="-5.751213000">
        <ele>69.7</ele>
        <time>2020-10-11T11:37:49Z</time>
      </trkpt>
      <trkpt lat="37.354715000" lon="-5.751137000">
        <ele>69.6</ele>
        <time>2020-10-11T11:37:51Z</time>
      </trkpt>
      <trkpt lat="37.354796000" lon="-5.751054000">
        <ele>69.6</ele>
        <time>2020-10-11T11:37:53Z</time>
      </trkpt>
      <trkpt lat="37.354870000" lon="-5.750988000">
        <ele>69.6</ele>
        <time>2020-10-11T11:37:55Z</time>
      </trkpt>
      <trkpt lat="37.354950000" lon="-5.750915000">
        <ele>69.6</ele>
        <time>2020-10-11T11:37:57Z</time>
      </trkpt>
      <trkpt lat="37.355024000" lon="-5.750847000">
        <ele>69.7</ele>
        <time>2020-10-11T11:37:59Z</time>
      </trkpt>
      <trkpt lat="37.355099000" lon="-5.750783000">
        <ele>69.8</ele>
        <time>2020-10-11T11:38:01Z</time>
      </trkpt>
      <trkpt lat="37.355185000" lon="-5.750717000">
        <ele>69.9</ele>
        <time>2020-10-11T11:38:03Z</time>
      </trkpt>
      <trkpt lat="37.355262000" lon="-5.750646000">
        <ele>70.0</ele>
        <time>2020-10-11T11:38:05Z</time>
      </trkpt>
      <trkpt lat="37.355338000" lon="-5.750578000">
        <ele>69.9</ele>
        <time>2020-10-11T11:38:07Z</time>
      </trkpt>
      <trkpt lat="37.355408000" lon="-5.750508000">
        <ele>69.8</ele>
        <time>2020-10-11T11:38:09Z</time>
      </trkpt>
      <trkpt lat="37.355480000" lon="-5.750441000">
        <ele>69.6</ele>
        <time>2020-10-11T11:38:11Z</time>
      </trkpt>
      <trkpt lat="37.355546000" lon="-5.750367000">
        <ele>69.5</ele>
        <time>2020-10-11T11:38:13Z</time>
      </trkpt>
      <trkpt lat="37.355617000" lon="-5.750298000">
        <ele>69.3</ele>
        <time>2020-10-11T11:38:15Z</time>
      </trkpt>
      <trkpt lat="37.355689000" lon="-5.750232000">
        <ele>69.0</ele>
        <time>2020-10-11T11:38:17Z</time>
      </trkpt>
      <trkpt lat="37.355766000" lon="-5.750167000">
        <ele>68.7</ele>
        <time>2020-10-11T11:38:19Z</time>
      </trkpt>
      <trkpt lat="37.355835000" lon="-5.750097000">
        <ele>68.5</ele>
        <time>2020-10-11T11:38:21Z</time>
      </trkpt>
      <trkpt lat="37.355917000" lon="-5.750030000">
        <ele>68.2</ele>
        <time>2020-10-11T11:38:23Z</time>
      </trkpt>
      <trkpt lat="37.355985000" lon="-5.749967000">
        <ele>67.9</ele>
        <time>2020-10-11T11:38:25Z</time>
      </trkpt>
      <trkpt lat="37.356058000" lon="-5.749891000">
        <ele>67.6</ele>
        <time>2020-10-11T11:38:27Z</time>
      </trkpt>
      <trkpt lat="37.356130000" lon="-5.749826000">
        <ele>67.5</ele>
        <time>2020-10-11T11:38:29Z</time>
      </trkpt>
      <trkpt lat="37.356207000" lon="-5.749760000">
        <ele>67.3</ele>
        <time>2020-10-11T11:38:31Z</time>
      </trkpt>
      <trkpt lat="37.356281000" lon="-5.749694000">
        <ele>67.2</ele>
        <time>2020-10-11T11:38:33Z</time>
      </trkpt>
      <trkpt lat="37.356353000" lon="-5.749629000">
        <ele>67.2</ele>
        <time>2020-10-11T11:38:35Z</time>
      </trkpt>
      <trkpt lat="37.356427000" lon="-5.749563000">
        <ele>67.2</ele>
        <time>2020-10-11T11:38:37Z</time>
      </trkpt>
      <trkpt lat="37.356499000" lon="-5.749494000">
        <ele>67.3</ele>
        <time>2020-10-11T11:38:39Z</time>
      </trkpt>
      <trkpt lat="37.356565000" lon="-5.749417000">
        <ele>67.4</ele>
        <time>2020-10-11T11:38:41Z</time>
      </trkpt>
      <trkpt lat="37.356641000" lon="-5.749354000">
        <ele>67.5</ele>
        <time>2020-10-11T11:38:43Z</time>
      </trkpt>
      <trkpt lat="37.356713000" lon="-5.749297000">
        <ele>67.6</ele>
        <time>2020-10-11T11:38:45Z</time>
      </trkpt>
      <trkpt lat="37.356782000" lon="-5.749239000">
        <ele>67.8</ele>
        <time>2020-10-11T11:38:47Z</time>
      </trkpt>
      <trkpt lat="37.356880000" lon="-5.749150000">
        <ele>68.0</ele>
        <time>2020-10-11T11:38:50Z</time>
      </trkpt>
      <trkpt lat="37.356948000" lon="-5.749087000">
        <ele>68.3</ele>
        <time>2020-10-11T11:38:52Z</time>
      </trkpt>
      <trkpt lat="37.357019000" lon="-5.749024000">
        <ele>68.6</ele>
        <time>2020-10-11T11:38:54Z</time>
      </trkpt>
      <trkpt lat="37.357086000" lon="-5.748963000">
        <ele>69.0</ele>
        <time>2020-10-11T11:38:56Z</time>
      </trkpt>
      <trkpt lat="37.357184000" lon="-5.748876000">
        <ele>69.4</ele>
        <time>2020-10-11T11:38:59Z</time>
      </trkpt>
      <trkpt lat="37.357282000" lon="-5.748788000">
        <ele>69.7</ele>
        <time>2020-10-11T11:39:02Z</time>
      </trkpt>
      <trkpt lat="37.357351000" lon="-5.748733000">
        <ele>70.1</ele>
        <time>2020-10-11T11:39:04Z</time>
      </trkpt>
      <trkpt lat="37.357455000" lon="-5.748655000">
        <ele>70.5</ele>
        <time>2020-10-11T11:39:07Z</time>
      </trkpt>
      <trkpt lat="37.357550000" lon="-5.748574000">
        <ele>70.8</ele>
        <time>2020-10-11T11:39:10Z</time>
      </trkpt>
      <trkpt lat="37.357633000" lon="-5.748488000">
        <ele>71.1</ele>
        <time>2020-10-11T11:39:13Z</time>
      </trkpt>
      <trkpt lat="37.357725000" lon="-5.748405000">
        <ele>71.4</ele>
        <time>2020-10-11T11:39:16Z</time>
      </trkpt>
      <trkpt lat="37.357823000" lon="-5.748324000">
        <ele>71.7</ele>
        <time>2020-10-11T11:39:19Z</time>
      </trkpt>
      <trkpt lat="37.357917000" lon="-5.748246000">
        <ele>72.0</ele>
        <time>2020-10-11T11:39:22Z</time>
      </trkpt>
      <trkpt lat="37.358005000" lon="-5.748164000">
        <ele>72.3</ele>
        <time>2020-10-11T11:39:25Z</time>
      </trkpt>
      <trkpt lat="37.358093000" lon="-5.748086000">
        <ele>72.5</ele>
        <time>2020-10-11T11:39:28Z</time>
      </trkpt>
      <trkpt lat="37.358172000" lon="-5.748002000">
        <ele>72.7</ele>
        <time>2020-10-11T11:39:31Z</time>
      </trkpt>
      <trkpt lat="37.358259000" lon="-5.747928000">
        <ele>72.9</ele>
        <time>2020-10-11T11:39:34Z</time>
      </trkpt>
      <trkpt lat="37.358342000" lon="-5.747850000">
        <ele>73.1</ele>
        <time>2020-10-11T11:39:37Z</time>
      </trkpt>
      <trkpt lat="37.358426000" lon="-5.747775000">
        <ele>73.3</ele>
        <time>2020-10-11T11:39:40Z</time>
      </trkpt>
      <trkpt lat="37.358510000" lon="-5.747695000">
        <ele>73.5</ele>
        <time>2020-10-11T11:39:43Z</time>
      </trkpt>
      <trkpt lat="37.358593000" lon="-5.747624000">
        <ele>73.6</ele>
        <time>2020-10-11T11:39:46Z</time>
      </trkpt>
      <trkpt lat="37.358676000" lon="-5.747560000">
        <ele>73.9</ele>
        <time>2020-10-11T11:39:49Z</time>
      </trkpt>
      <trkpt lat="37.358758000" lon="-5.747491000">
        <ele>74.1</ele>
        <time>2020-10-11T11:39:52Z</time>
      </trkpt>
      <trkpt lat="37.358836000" lon="-5.747426000">
        <ele>74.3</ele>
        <time>2020-10-11T11:39:55Z</time>
      </trkpt>
      <trkpt lat="37.358915000" lon="-5.747342000">
        <ele>74.4</ele>
        <time>2020-10-11T11:39:58Z</time>
      </trkpt>
      <trkpt lat="37.358995000" lon="-5.747270000">
        <ele>74.5</ele>
        <time>2020-10-11T11:40:01Z</time>
      </trkpt>
      <trkpt lat="37.359077000" lon="-5.747195000">
        <ele>74.5</ele>
        <time>2020-10-11T11:40:04Z</time>
      </trkpt>
      <trkpt lat="37.359160000" lon="-5.747112000">
        <ele>74.6</ele>
        <time>2020-10-11T11:40:07Z</time>
      </trkpt>
      <trkpt lat="37.359250000" lon="-5.747025000">
        <ele>74.7</ele>
        <time>2020-10-11T11:40:10Z</time>
      </trkpt>
      <trkpt lat="37.359339000" lon="-5.746940000">
        <ele>74.8</ele>
        <time>2020-10-11T11:40:13Z</time>
      </trkpt>
      <trkpt lat="37.359425000" lon="-5.746867000">
        <ele>75.0</ele>
        <time>2020-10-11T11:40:16Z</time>
      </trkpt>
      <trkpt lat="37.359511000" lon="-5.746788000">
        <ele>75.3</ele>
        <time>2020-10-11T11:40:19Z</time>
      </trkpt>
      <trkpt lat="37.359594000" lon="-5.746716000">
        <ele>75.5</ele>
        <time>2020-10-11T11:40:22Z</time>
      </trkpt>
      <trkpt lat="37.359671000" lon="-5.746643000">
        <ele>75.6</ele>
        <time>2020-10-11T11:40:25Z</time>
      </trkpt>
      <trkpt lat="37.359747000" lon="-5.746573000">
        <ele>75.8</ele>
        <time>2020-10-11T11:40:28Z</time>
      </trkpt>
      <trkpt lat="37.359829000" lon="-5.746499000">
        <ele>76.1</ele>
        <time>2020-10-11T11:40:31Z</time>
      </trkpt>
      <trkpt lat="37.359911000" lon="-5.746416000">
        <ele>76.4</ele>
        <time>2020-10-11T11:40:34Z</time>
      </trkpt>
      <trkpt lat="37.359997000" lon="-5.746346000">
        <ele>76.7</ele>
        <time>2020-10-11T11:40:37Z</time>
      </trkpt>
      <trkpt lat="37.360080000" lon="-5.746269000">
        <ele>77.2</ele>
        <time>2020-10-11T11:40:40Z</time>
      </trkpt>
      <trkpt lat="37.360170000" lon="-5.746194000">
        <ele>77.6</ele>
        <time>2020-10-11T11:40:43Z</time>
      </trkpt>
      <trkpt lat="37.360260000" lon="-5.746117000">
        <ele>78.0</ele>
        <time>2020-10-11T11:40:46Z</time>
      </trkpt>
      <trkpt lat="37.360352000" lon="-5.746038000">
        <ele>78.2</ele>
        <time>2020-10-11T11:40:49Z</time>
      </trkpt>
      <trkpt lat="37.360441000" lon="-5.745967000">
        <ele>78.3</ele>
        <time>2020-10-11T11:40:52Z</time>
      </trkpt>
      <trkpt lat="37.360530000" lon="-5.745893000">
        <ele>78.4</ele>
        <time>2020-10-11T11:40:55Z</time>
      </trkpt>
      <trkpt lat="37.360619000" lon="-5.745810000">
        <ele>78.5</ele>
        <time>2020-10-11T11:40:58Z</time>
      </trkpt>
      <trkpt lat="37.360704000" lon="-5.745729000">
        <ele>78.6</ele>
        <time>2020-10-11T11:41:01Z</time>
      </trkpt>
      <trkpt lat="37.360789000" lon="-5.745646000">
        <ele>78.8</ele>
        <time>2020-10-11T11:41:04Z</time>
      </trkpt>
      <trkpt lat="37.360875000" lon="-5.745565000">
        <ele>79.1</ele>
        <time>2020-10-11T11:41:07Z</time>
      </trkpt>
      <trkpt lat="37.360964000" lon="-5.745490000">
        <ele>79.3</ele>
        <time>2020-10-11T11:41:10Z</time>
      </trkpt>
      <trkpt lat="37.361051000" lon="-5.745414000">
        <ele>79.4</ele>
        <time>2020-10-11T11:41:13Z</time>
      </trkpt>
      <trkpt lat="37.361139000" lon="-5.745340000">
        <ele>79.5</ele>
        <time>2020-10-11T11:41:16Z</time>
      </trkpt>
      <trkpt lat="37.361228000" lon="-5.745271000">
        <ele>79.5</ele>
        <time>2020-10-11T11:41:19Z</time>
      </trkpt>
      <trkpt lat="37.361321000" lon="-5.745202000">
        <ele>79.7</ele>
        <time>2020-10-11T11:41:22Z</time>
      </trkpt>
      <trkpt lat="37.361424000" lon="-5.745134000">
        <ele>79.8</ele>
        <time>2020-10-11T11:41:25Z</time>
      </trkpt>
      <trkpt lat="37.361529000" lon="-5.745064000">
        <ele>79.9</ele>
        <time>2020-10-11T11:41:28Z</time>
      </trkpt>
      <trkpt lat="37.361631000" lon="-5.745002000">
        <ele>80.0</ele>
        <time>2020-10-11T11:41:31Z</time>
      </trkpt>
      <trkpt lat="37.361733000" lon="-5.744953000">
        <ele>80.0</ele>
        <time>2020-10-11T11:41:34Z</time>
      </trkpt>
      <trkpt lat="37.361833000" lon="-5.744908000">
        <ele>80.0</ele>
        <time>2020-10-11T11:41:37Z</time>
      </trkpt>
      <trkpt lat="37.361932000" lon="-5.744869000">
        <ele>79.9</ele>
        <time>2020-10-11T11:41:40Z</time>
      </trkpt>
      <trkpt lat="37.362028000" lon="-5.744830000">
        <ele>79.9</ele>
        <time>2020-10-11T11:41:43Z</time>
      </trkpt>
      <trkpt lat="37.362128000" lon="-5.744791000">
        <ele>80.0</ele>
        <time>2020-10-11T11:41:46Z</time>
      </trkpt>
      <trkpt lat="37.362229000" lon="-5.744758000">
        <ele>80.1</ele>
        <time>2020-10-11T11:41:49Z</time>
      </trkpt>
      <trkpt lat="37.362329000" lon="-5.744731000">
        <ele>80.4</ele>
        <time>2020-10-11T11:41:52Z</time>
      </trkpt>
      <trkpt lat="37.362432000" lon="-5.744714000">
        <ele>80.6</ele>
        <time>2020-10-11T11:41:55Z</time>
      </trkpt>
      <trkpt lat="37.362538000" lon="-5.744701000">
        <ele>81.0</ele>
        <time>2020-10-11T11:41:58Z</time>
      </trkpt>
      <trkpt lat="37.362644000" lon="-5.744681000">
        <ele>81.5</ele>
        <time>2020-10-11T11:42:01Z</time>
      </trkpt>
      <trkpt lat="37.362753000" lon="-5.744660000">
        <ele>81.9</ele>
        <time>2020-10-11T11:42:04Z</time>
      </trkpt>
      <trkpt lat="37.362862000" lon="-5.744642000">
        <ele>82.5</ele>
        <time>2020-10-11T11:42:07Z</time>
      </trkpt>
      <trkpt lat="37.362972000" lon="-5.744637000">
        <ele>82.9</ele>
        <time>2020-10-11T11:42:10Z</time>
      </trkpt>
      <trkpt lat="37.363078000" lon="-5.744638000">
        <ele>83.5</ele>
        <time>2020-10-11T11:42:13Z</time>
      </trkpt>
      <trkpt lat="37.363182000" lon="-5.744645000">
        <ele>83.9</ele>
        <time>2020-10-11T11:42:16Z</time>
      </trkpt>
      <trkpt lat="37.363281000" lon="-5.744657000">
        <ele>84.4</ele>
        <time>2020-10-11T11:42:19Z</time>
      </trkpt>
      <trkpt lat="37.363378000" lon="-5.744664000">
        <ele>84.8</ele>
        <time>2020-10-11T11:42:22Z</time>
      </trkpt>
      <trkpt lat="37.363473000" lon="-5.744677000">
        <ele>85.2</ele>
        <time>2020-10-11T11:42:25Z</time>
      </trkpt>
      <trkpt lat="37.363571000" lon="-5.744691000">
        <ele>85.5</ele>
        <time>2020-10-11T11:42:28Z</time>
      </trkpt>
      <trkpt lat="37.363668000" lon="-5.744712000">
        <ele>85.9</ele>
        <time>2020-10-11T11:42:33Z</time>
      </trkpt>
      <trkpt lat="37.363759000" lon="-5.744738000">
        <ele>86.2</ele>
        <time>2020-10-11T11:42:34Z</time>
      </trkpt>
      <trkpt lat="37.363849000" lon="-5.744753000">
        <ele>86.5</ele>
        <time>2020-10-11T11:42:37Z</time>
      </trkpt>
      <trkpt lat="37.363939000" lon="-5.744770000">
        <ele>86.6</ele>
        <time>2020-10-11T11:42:40Z</time>
      </trkpt>
      <trkpt lat="37.364030000" lon="-5.744782000">
        <ele>86.8</ele>
        <time>2020-10-11T11:42:43Z</time>
      </trkpt>
      <trkpt lat="37.364119000" lon="-5.744805000">
        <ele>86.8</ele>
        <time>2020-10-11T11:42:46Z</time>
      </trkpt>
      <trkpt lat="37.364204000" lon="-5.744824000">
        <ele>86.8</ele>
        <time>2020-10-11T11:42:49Z</time>
      </trkpt>
      <trkpt lat="37.364289000" lon="-5.744845000">
        <ele>86.7</ele>
        <time>2020-10-11T11:42:52Z</time>
      </trkpt>
      <trkpt lat="37.364375000" lon="-5.744865000">
        <ele>86.6</ele>
        <time>2020-10-11T11:42:55Z</time>
      </trkpt>
      <trkpt lat="37.364461000" lon="-5.744883000">
        <ele>86.6</ele>
        <time>2020-10-11T11:42:58Z</time>
      </trkpt>
      <trkpt lat="37.364551000" lon="-5.744898000">
        <ele>86.6</ele>
        <time>2020-10-11T11:43:01Z</time>
      </trkpt>
      <trkpt lat="37.364637000" lon="-5.744925000">
        <ele>86.6</ele>
        <time>2020-10-11T11:43:04Z</time>
      </trkpt>
      <trkpt lat="37.364725000" lon="-5.744934000">
        <ele>86.6</ele>
        <time>2020-10-11T11:43:07Z</time>
      </trkpt>
      <trkpt lat="37.364826000" lon="-5.744955000">
        <ele>86.6</ele>
        <time>2020-10-11T11:43:10Z</time>
      </trkpt>
      <trkpt lat="37.364929000" lon="-5.744981000">
        <ele>86.6</ele>
        <time>2020-10-11T11:43:13Z</time>
      </trkpt>
      <trkpt lat="37.365035000" lon="-5.744995000">
        <ele>86.6</ele>
        <time>2020-10-11T11:43:16Z</time>
      </trkpt>
      <trkpt lat="37.365142000" lon="-5.744976000">
        <ele>86.8</ele>
        <time>2020-10-11T11:43:19Z</time>
      </trkpt>
      <trkpt lat="37.365238000" lon="-5.744929000">
        <ele>87.0</ele>
        <time>2020-10-11T11:43:22Z</time>
      </trkpt>
      <trkpt lat="37.365321000" lon="-5.744872000">
        <ele>87.2</ele>
        <time>2020-10-11T11:43:25Z</time>
      </trkpt>
      <trkpt lat="37.365395000" lon="-5.744814000">
        <ele>87.4</ele>
        <time>2020-10-11T11:43:28Z</time>
      </trkpt>
      <trkpt lat="37.365471000" lon="-5.744734000">
        <ele>87.5</ele>
        <time>2020-10-11T11:43:31Z</time>
      </trkpt>
      <trkpt lat="37.365536000" lon="-5.744632000">
        <ele>87.5</ele>
        <time>2020-10-11T11:43:34Z</time>
      </trkpt>
      <trkpt lat="37.365599000" lon="-5.744530000">
        <ele>87.6</ele>
        <time>2020-10-11T11:43:37Z</time>
      </trkpt>
      <trkpt lat="37.365665000" lon="-5.744427000">
        <ele>87.7</ele>
        <time>2020-10-11T11:43:40Z</time>
      </trkpt>
      <trkpt lat="37.365741000" lon="-5.744328000">
        <ele>87.8</ele>
        <time>2020-10-11T11:43:43Z</time>
      </trkpt>
      <trkpt lat="37.365830000" lon="-5.744220000">
        <ele>87.9</ele>
        <time>2020-10-11T11:43:46Z</time>
      </trkpt>
      <trkpt lat="37.365895000" lon="-5.744148000">
        <ele>88.0</ele>
        <time>2020-10-11T11:43:48Z</time>
      </trkpt>
      <trkpt lat="37.365963000" lon="-5.744078000">
        <ele>88.0</ele>
        <time>2020-10-11T11:43:50Z</time>
      </trkpt>
      <trkpt lat="37.366030000" lon="-5.744000000">
        <ele>88.0</ele>
        <time>2020-10-11T11:43:52Z</time>
      </trkpt>
      <trkpt lat="37.366101000" lon="-5.743928000">
        <ele>88.0</ele>
        <time>2020-10-11T11:43:54Z</time>
      </trkpt>
      <trkpt lat="37.366174000" lon="-5.743855000">
        <ele>88.0</ele>
        <time>2020-10-11T11:43:56Z</time>
      </trkpt>
      <trkpt lat="37.366234000" lon="-5.743782000">
        <ele>88.0</ele>
        <time>2020-10-11T11:43:58Z</time>
      </trkpt>
      <trkpt lat="37.366296000" lon="-5.743707000">
        <ele>88.0</ele>
        <time>2020-10-11T11:44:00Z</time>
      </trkpt>
      <trkpt lat="37.366360000" lon="-5.743635000">
        <ele>88.1</ele>
        <time>2020-10-11T11:44:02Z</time>
      </trkpt>
      <trkpt lat="37.366425000" lon="-5.743563000">
        <ele>88.2</ele>
        <time>2020-10-11T11:44:04Z</time>
      </trkpt>
      <trkpt lat="37.366481000" lon="-5.743482000">
        <ele>88.4</ele>
        <time>2020-10-11T11:44:06Z</time>
      </trkpt>
      <trkpt lat="37.366535000" lon="-5.743394000">
        <ele>88.6</ele>
        <time>2020-10-11T11:44:08Z</time>
      </trkpt>
      <trkpt lat="37.366581000" lon="-5.743299000">
        <ele>89.0</ele>
        <time>2020-10-11T11:44:10Z</time>
      </trkpt>
      <trkpt lat="37.366624000" lon="-5.743205000">
        <ele>89.4</ele>
        <time>2020-10-11T11:44:12Z</time>
      </trkpt>
      <trkpt lat="37.366671000" lon="-5.743119000">
        <ele>89.7</ele>
        <time>2020-10-11T11:44:14Z</time>
      </trkpt>
      <trkpt lat="37.366714000" lon="-5.742980000">
        <ele>90.0</ele>
        <time>2020-10-11T11:44:17Z</time>
      </trkpt>
      <trkpt lat="37.366748000" lon="-5.742887000">
        <ele>90.3</ele>
        <time>2020-10-11T11:44:19Z</time>
      </trkpt>
      <trkpt lat="37.366783000" lon="-5.742790000">
        <ele>90.5</ele>
        <time>2020-10-11T11:44:21Z</time>
      </trkpt>
      <trkpt lat="37.366814000" lon="-5.742689000">
        <ele>90.6</ele>
        <time>2020-10-11T11:44:23Z</time>
      </trkpt>
      <trkpt lat="37.366845000" lon="-5.742587000">
        <ele>90.7</ele>
        <time>2020-10-11T11:44:25Z</time>
      </trkpt>
      <trkpt lat="37.366878000" lon="-5.742479000">
        <ele>90.8</ele>
        <time>2020-10-11T11:44:27Z</time>
      </trkpt>
      <trkpt lat="37.366901000" lon="-5.742371000">
        <ele>90.7</ele>
        <time>2020-10-11T11:44:29Z</time>
      </trkpt>
      <trkpt lat="37.366928000" lon="-5.742261000">
        <ele>90.5</ele>
        <time>2020-10-11T11:44:31Z</time>
      </trkpt>
      <trkpt lat="37.366949000" lon="-5.742151000">
        <ele>90.3</ele>
        <time>2020-10-11T11:44:33Z</time>
      </trkpt>
      <trkpt lat="37.366977000" lon="-5.742043000">
        <ele>90.0</ele>
        <time>2020-10-11T11:44:35Z</time>
      </trkpt>
      <trkpt lat="37.366998000" lon="-5.741930000">
        <ele>89.7</ele>
        <time>2020-10-11T11:44:37Z</time>
      </trkpt>
      <trkpt lat="37.367011000" lon="-5.741819000">
        <ele>89.5</ele>
        <time>2020-10-11T11:44:39Z</time>
      </trkpt>
      <trkpt lat="37.367026000" lon="-5.741713000">
        <ele>89.4</ele>
        <time>2020-10-11T11:44:41Z</time>
      </trkpt>
      <trkpt lat="37.367045000" lon="-5.741609000">
        <ele>89.4</ele>
        <time>2020-10-11T11:44:43Z</time>
      </trkpt>
      <trkpt lat="37.367069000" lon="-5.741500000">
        <ele>89.4</ele>
        <time>2020-10-11T11:44:45Z</time>
      </trkpt>
      <trkpt lat="37.367088000" lon="-5.741393000">
        <ele>89.4</ele>
        <time>2020-10-11T11:44:47Z</time>
      </trkpt>
      <trkpt lat="37.367102000" lon="-5.741291000">
        <ele>89.3</ele>
        <time>2020-10-11T11:44:49Z</time>
      </trkpt>
      <trkpt lat="37.367128000" lon="-5.741148000">
        <ele>89.3</ele>
        <time>2020-10-11T11:44:52Z</time>
      </trkpt>
      <trkpt lat="37.367157000" lon="-5.741009000">
        <ele>89.3</ele>
        <time>2020-10-11T11:44:55Z</time>
      </trkpt>
      <trkpt lat="37.367185000" lon="-5.740862000">
        <ele>89.2</ele>
        <time>2020-10-11T11:44:58Z</time>
      </trkpt>
      <trkpt lat="37.367200000" lon="-5.740760000">
        <ele>89.2</ele>
        <time>2020-10-11T11:45:00Z</time>
      </trkpt>
      <trkpt lat="37.367227000" lon="-5.740614000">
        <ele>89.2</ele>
        <time>2020-10-11T11:45:03Z</time>
      </trkpt>
      <trkpt lat="37.367254000" lon="-5.740476000">
        <ele>89.2</ele>
        <time>2020-10-11T11:45:06Z</time>
      </trkpt>
      <trkpt lat="37.367275000" lon="-5.740330000">
        <ele>89.2</ele>
        <time>2020-10-11T11:45:09Z</time>
      </trkpt>
      <trkpt lat="37.367293000" lon="-5.740224000">
        <ele>89.1</ele>
        <time>2020-10-11T11:45:11Z</time>
      </trkpt>
      <trkpt lat="37.367316000" lon="-5.740117000">
        <ele>89.0</ele>
        <time>2020-10-11T11:45:13Z</time>
      </trkpt>
      <trkpt lat="37.367338000" lon="-5.740009000">
        <ele>88.9</ele>
        <time>2020-10-11T11:45:15Z</time>
      </trkpt>
      <trkpt lat="37.367357000" lon="-5.739902000">
        <ele>88.9</ele>
        <time>2020-10-11T11:45:17Z</time>
      </trkpt>
      <trkpt lat="37.367378000" lon="-5.739788000">
        <ele>88.8</ele>
        <time>2020-10-11T11:45:19Z</time>
      </trkpt>
      <trkpt lat="37.367396000" lon="-5.739682000">
        <ele>88.7</ele>
        <time>2020-10-11T11:45:21Z</time>
      </trkpt>
      <trkpt lat="37.367418000" lon="-5.739577000">
        <ele>88.7</ele>
        <time>2020-10-11T11:45:23Z</time>
      </trkpt>
      <trkpt lat="37.367438000" lon="-5.739469000">
        <ele>88.5</ele>
        <time>2020-10-11T11:45:25Z</time>
      </trkpt>
      <trkpt lat="37.367461000" lon="-5.739327000">
        <ele>88.4</ele>
        <time>2020-10-11T11:45:28Z</time>
      </trkpt>
      <trkpt lat="37.367484000" lon="-5.739229000">
        <ele>88.2</ele>
        <time>2020-10-11T11:45:30Z</time>
      </trkpt>
      <trkpt lat="37.367517000" lon="-5.739095000">
        <ele>88.0</ele>
        <time>2020-10-11T11:45:33Z</time>
      </trkpt>
      <trkpt lat="37.367537000" lon="-5.738964000">
        <ele>87.8</ele>
        <time>2020-10-11T11:45:36Z</time>
      </trkpt>
      <trkpt lat="37.367554000" lon="-5.738819000">
        <ele>87.5</ele>
        <time>2020-10-11T11:45:39Z</time>
      </trkpt>
      <trkpt lat="37.367580000" lon="-5.738704000">
        <ele>87.3</ele>
        <time>2020-10-11T11:45:41Z</time>
      </trkpt>
      <trkpt lat="37.367597000" lon="-5.738597000">
        <ele>87.0</ele>
        <time>2020-10-11T11:45:43Z</time>
      </trkpt>
      <trkpt lat="37.367619000" lon="-5.738479000">
        <ele>86.8</ele>
        <time>2020-10-11T11:45:45Z</time>
      </trkpt>
      <trkpt lat="37.367639000" lon="-5.738366000">
        <ele>86.6</ele>
        <time>2020-10-11T11:45:47Z</time>
      </trkpt>
      <trkpt lat="37.367661000" lon="-5.738256000">
        <ele>86.5</ele>
        <time>2020-10-11T11:45:49Z</time>
      </trkpt>
      <trkpt lat="37.367681000" lon="-5.738139000">
        <ele>86.3</ele>
        <time>2020-10-11T11:45:51Z</time>
      </trkpt>
      <trkpt lat="37.367702000" lon="-5.738025000">
        <ele>86.1</ele>
        <time>2020-10-11T11:45:53Z</time>
      </trkpt>
      <trkpt lat="37.367726000" lon="-5.737906000">
        <ele>85.8</ele>
        <time>2020-10-11T11:45:55Z</time>
      </trkpt>
      <trkpt lat="37.367743000" lon="-5.737785000">
        <ele>85.5</ele>
        <time>2020-10-11T11:45:57Z</time>
      </trkpt>
      <trkpt lat="37.367768000" lon="-5.737667000">
        <ele>85.3</ele>
        <time>2020-10-11T11:45:59Z</time>
      </trkpt>
      <trkpt lat="37.367799000" lon="-5.737549000">
        <ele>85.1</ele>
        <time>2020-10-11T11:46:01Z</time>
      </trkpt>
      <trkpt lat="37.367833000" lon="-5.737430000">
        <ele>84.9</ele>
        <time>2020-10-11T11:46:03Z</time>
      </trkpt>
      <trkpt lat="37.367856000" lon="-5.737302000">
        <ele>84.7</ele>
        <time>2020-10-11T11:46:05Z</time>
      </trkpt>
      <trkpt lat="37.367877000" lon="-5.737173000">
        <ele>84.5</ele>
        <time>2020-10-11T11:46:07Z</time>
      </trkpt>
      <trkpt lat="37.367895000" lon="-5.737043000">
        <ele>84.2</ele>
        <time>2020-10-11T11:46:09Z</time>
      </trkpt>
      <trkpt lat="37.367914000" lon="-5.736915000">
        <ele>83.9</ele>
        <time>2020-10-11T11:46:11Z</time>
      </trkpt>
      <trkpt lat="37.367924000" lon="-5.736786000">
        <ele>83.7</ele>
        <time>2020-10-11T11:46:13Z</time>
      </trkpt>
      <trkpt lat="37.367935000" lon="-5.736646000">
        <ele>83.6</ele>
        <time>2020-10-11T11:46:15Z</time>
      </trkpt>
      <trkpt lat="37.367949000" lon="-5.736513000">
        <ele>83.6</ele>
        <time>2020-10-11T11:46:17Z</time>
      </trkpt>
      <trkpt lat="37.367954000" lon="-5.736374000">
        <ele>83.6</ele>
        <time>2020-10-11T11:46:19Z</time>
      </trkpt>
      <trkpt lat="37.367960000" lon="-5.736233000">
        <ele>83.6</ele>
        <time>2020-10-11T11:46:21Z</time>
      </trkpt>
      <trkpt lat="37.367965000" lon="-5.736100000">
        <ele>83.6</ele>
        <time>2020-10-11T11:46:23Z</time>
      </trkpt>
      <trkpt lat="37.367969000" lon="-5.735963000">
        <ele>83.6</ele>
        <time>2020-10-11T11:46:25Z</time>
      </trkpt>
      <trkpt lat="37.367972000" lon="-5.735826000">
        <ele>83.6</ele>
        <time>2020-10-11T11:46:27Z</time>
      </trkpt>
      <trkpt lat="37.367976000" lon="-5.735696000">
        <ele>83.6</ele>
        <time>2020-10-11T11:46:29Z</time>
      </trkpt>
      <trkpt lat="37.367983000" lon="-5.735571000">
        <ele>83.6</ele>
        <time>2020-10-11T11:46:31Z</time>
      </trkpt>
      <trkpt lat="37.367999000" lon="-5.735454000">
        <ele>83.6</ele>
        <time>2020-10-11T11:46:33Z</time>
      </trkpt>
      <trkpt lat="37.368004000" lon="-5.735346000">
        <ele>83.7</ele>
        <time>2020-10-11T11:46:35Z</time>
      </trkpt>
      <trkpt lat="37.368004000" lon="-5.735231000">
        <ele>83.7</ele>
        <time>2020-10-11T11:46:37Z</time>
      </trkpt>
      <trkpt lat="37.368004000" lon="-5.735115000">
        <ele>83.7</ele>
        <time>2020-10-11T11:46:39Z</time>
      </trkpt>
      <trkpt lat="37.368007000" lon="-5.734996000">
        <ele>83.7</ele>
        <time>2020-10-11T11:46:41Z</time>
      </trkpt>
      <trkpt lat="37.368013000" lon="-5.734873000">
        <ele>83.6</ele>
        <time>2020-10-11T11:46:43Z</time>
      </trkpt>
      <trkpt lat="37.368013000" lon="-5.734754000">
        <ele>83.5</ele>
        <time>2020-10-11T11:46:45Z</time>
      </trkpt>
      <trkpt lat="37.368016000" lon="-5.734628000">
        <ele>83.4</ele>
        <time>2020-10-11T11:46:47Z</time>
      </trkpt>
      <trkpt lat="37.368017000" lon="-5.734504000">
        <ele>83.2</ele>
        <time>2020-10-11T11:46:49Z</time>
      </trkpt>
      <trkpt lat="37.368021000" lon="-5.734374000">
        <ele>83.1</ele>
        <time>2020-10-11T11:46:51Z</time>
      </trkpt>
      <trkpt lat="37.368028000" lon="-5.734247000">
        <ele>83.0</ele>
        <time>2020-10-11T11:46:53Z</time>
      </trkpt>
      <trkpt lat="37.368025000" lon="-5.734121000">
        <ele>82.9</ele>
        <time>2020-10-11T11:46:55Z</time>
      </trkpt>
      <trkpt lat="37.368026000" lon="-5.733995000">
        <ele>82.8</ele>
        <time>2020-10-11T11:46:57Z</time>
      </trkpt>
      <trkpt lat="37.368022000" lon="-5.733870000">
        <ele>82.6</ele>
        <time>2020-10-11T11:46:59Z</time>
      </trkpt>
      <trkpt lat="37.368015000" lon="-5.733742000">
        <ele>82.5</ele>
        <time>2020-10-11T11:47:01Z</time>
      </trkpt>
      <trkpt lat="37.368008000" lon="-5.733608000">
        <ele>82.3</ele>
        <time>2020-10-11T11:47:03Z</time>
      </trkpt>
      <trkpt lat="37.368012000" lon="-5.733478000">
        <ele>82.2</ele>
        <time>2020-10-11T11:47:05Z</time>
      </trkpt>
      <trkpt lat="37.368022000" lon="-5.733352000">
        <ele>82.1</ele>
        <time>2020-10-11T11:47:07Z</time>
      </trkpt>
      <trkpt lat="37.368030000" lon="-5.733223000">
        <ele>82.1</ele>
        <time>2020-10-11T11:47:09Z</time>
      </trkpt>
      <trkpt lat="37.368034000" lon="-5.733099000">
        <ele>82.1</ele>
        <time>2020-10-11T11:47:11Z</time>
      </trkpt>
      <trkpt lat="37.368039000" lon="-5.732974000">
        <ele>82.2</ele>
        <time>2020-10-11T11:47:13Z</time>
      </trkpt>
      <trkpt lat="37.368049000" lon="-5.732854000">
        <ele>82.3</ele>
        <time>2020-10-11T11:47:15Z</time>
      </trkpt>
      <trkpt lat="37.368061000" lon="-5.732739000">
        <ele>82.4</ele>
        <time>2020-10-11T11:47:17Z</time>
      </trkpt>
      <trkpt lat="37.368064000" lon="-5.732635000">
        <ele>82.4</ele>
        <time>2020-10-11T11:47:19Z</time>
      </trkpt>
      <trkpt lat="37.368065000" lon="-5.732501000">
        <ele>82.5</ele>
        <time>2020-10-11T11:47:22Z</time>
      </trkpt>
      <trkpt lat="37.368069000" lon="-5.732368000">
        <ele>82.6</ele>
        <time>2020-10-11T11:47:25Z</time>
      </trkpt>
      <trkpt lat="37.368076000" lon="-5.732243000">
        <ele>82.8</ele>
        <time>2020-10-11T11:47:28Z</time>
      </trkpt>
      <trkpt lat="37.368075000" lon="-5.732097000">
        <ele>83.0</ele>
        <time>2020-10-11T11:47:31Z</time>
      </trkpt>
      <trkpt lat="37.368078000" lon="-5.731991000">
        <ele>83.2</ele>
        <time>2020-10-11T11:47:33Z</time>
      </trkpt>
      <trkpt lat="37.368077000" lon="-5.731881000">
        <ele>83.4</ele>
        <time>2020-10-11T11:47:35Z</time>
      </trkpt>
      <trkpt lat="37.368083000" lon="-5.731772000">
        <ele>83.5</ele>
        <time>2020-10-11T11:47:37Z</time>
      </trkpt>
      <trkpt lat="37.368084000" lon="-5.731653000">
        <ele>83.5</ele>
        <time>2020-10-11T11:47:39Z</time>
      </trkpt>
      <trkpt lat="37.368092000" lon="-5.731531000">
        <ele>83.4</ele>
        <time>2020-10-11T11:47:41Z</time>
      </trkpt>
      <trkpt lat="37.368103000" lon="-5.731400000">
        <ele>83.3</ele>
        <time>2020-10-11T11:47:43Z</time>
      </trkpt>
      <trkpt lat="37.368104000" lon="-5.731272000">
        <ele>83.2</ele>
        <time>2020-10-11T11:47:45Z</time>
      </trkpt>
      <trkpt lat="37.368106000" lon="-5.731141000">
        <ele>83.0</ele>
        <time>2020-10-11T11:47:47Z</time>
      </trkpt>
      <trkpt lat="37.368109000" lon="-5.731009000">
        <ele>82.7</ele>
        <time>2020-10-11T11:47:49Z</time>
      </trkpt>
      <trkpt lat="37.368107000" lon="-5.730880000">
        <ele>82.5</ele>
        <time>2020-10-11T11:47:51Z</time>
      </trkpt>
      <trkpt lat="37.368110000" lon="-5.730744000">
        <ele>82.1</ele>
        <time>2020-10-11T11:47:53Z</time>
      </trkpt>
      <trkpt lat="37.368112000" lon="-5.730612000">
        <ele>81.7</ele>
        <time>2020-10-11T11:47:55Z</time>
      </trkpt>
      <trkpt lat="37.368115000" lon="-5.730482000">
        <ele>81.3</ele>
        <time>2020-10-11T11:47:57Z</time>
      </trkpt>
      <trkpt lat="37.368124000" lon="-5.730351000">
        <ele>80.9</ele>
        <time>2020-10-11T11:47:59Z</time>
      </trkpt>
      <trkpt lat="37.368128000" lon="-5.730228000">
        <ele>80.5</ele>
        <time>2020-10-11T11:48:01Z</time>
      </trkpt>
      <trkpt lat="37.368133000" lon="-5.730103000">
        <ele>80.3</ele>
        <time>2020-10-11T11:48:03Z</time>
      </trkpt>
      <trkpt lat="37.368137000" lon="-5.729977000">
        <ele>80.0</ele>
        <time>2020-10-11T11:48:05Z</time>
      </trkpt>
      <trkpt lat="37.368141000" lon="-5.729852000">
        <ele>79.7</ele>
        <time>2020-10-11T11:48:07Z</time>
      </trkpt>
      <trkpt lat="37.368144000" lon="-5.729727000">
        <ele>79.5</ele>
        <time>2020-10-11T11:48:09Z</time>
      </trkpt>
      <trkpt lat="37.368140000" lon="-5.729601000">
        <ele>79.4</ele>
        <time>2020-10-11T11:48:11Z</time>
      </trkpt>
      <trkpt lat="37.368141000" lon="-5.729478000">
        <ele>79.2</ele>
        <time>2020-10-11T11:48:13Z</time>
      </trkpt>
      <trkpt lat="37.368139000" lon="-5.729354000">
        <ele>79.1</ele>
        <time>2020-10-11T11:48:15Z</time>
      </trkpt>
      <trkpt lat="37.368140000" lon="-5.729231000">
        <ele>78.9</ele>
        <time>2020-10-11T11:48:17Z</time>
      </trkpt>
      <trkpt lat="37.368135000" lon="-5.729109000">
        <ele>78.8</ele>
        <time>2020-10-11T11:48:19Z</time>
      </trkpt>
      <trkpt lat="37.368137000" lon="-5.728978000">
        <ele>78.6</ele>
        <time>2020-10-11T11:48:21Z</time>
      </trkpt>
      <trkpt lat="37.368141000" lon="-5.728841000">
        <ele>78.5</ele>
        <time>2020-10-11T11:48:23Z</time>
      </trkpt>
      <trkpt lat="37.368140000" lon="-5.728709000">
        <ele>78.2</ele>
        <time>2020-10-11T11:48:25Z</time>
      </trkpt>
      <trkpt lat="37.368145000" lon="-5.728580000">
        <ele>77.9</ele>
        <time>2020-10-11T11:48:27Z</time>
      </trkpt>
      <trkpt lat="37.368150000" lon="-5.728457000">
        <ele>77.6</ele>
        <time>2020-10-11T11:48:29Z</time>
      </trkpt>
      <trkpt lat="37.368148000" lon="-5.728335000">
        <ele>77.4</ele>
        <time>2020-10-11T11:48:31Z</time>
      </trkpt>
      <trkpt lat="37.368146000" lon="-5.728213000">
        <ele>77.1</ele>
        <time>2020-10-11T11:48:33Z</time>
      </trkpt>
      <trkpt lat="37.368150000" lon="-5.728092000">
        <ele>76.8</ele>
        <time>2020-10-11T11:48:35Z</time>
      </trkpt>
      <trkpt lat="37.368171000" lon="-5.727975000">
        <ele>76.6</ele>
        <time>2020-10-11T11:48:37Z</time>
      </trkpt>
      <trkpt lat="37.368173000" lon="-5.727850000">
        <ele>76.5</ele>
        <time>2020-10-11T11:48:39Z</time>
      </trkpt>
      <trkpt lat="37.368174000" lon="-5.727737000">
        <ele>76.5</ele>
        <time>2020-10-11T11:48:41Z</time>
      </trkpt>
      <trkpt lat="37.368168000" lon="-5.727630000">
        <ele>76.6</ele>
        <time>2020-10-11T11:48:43Z</time>
      </trkpt>
      <trkpt lat="37.368170000" lon="-5.727520000">
        <ele>76.7</ele>
        <time>2020-10-11T11:48:45Z</time>
      </trkpt>
      <trkpt lat="37.368174000" lon="-5.727414000">
        <ele>77.0</ele>
        <time>2020-10-11T11:48:47Z</time>
      </trkpt>
      <trkpt lat="37.368176000" lon="-5.727309000">
        <ele>77.3</ele>
        <time>2020-10-11T11:48:49Z</time>
      </trkpt>
      <trkpt lat="37.368179000" lon="-5.727203000">
        <ele>77.6</ele>
        <time>2020-10-11T11:48:51Z</time>
      </trkpt>
      <trkpt lat="37.368181000" lon="-5.727099000">
        <ele>78.0</ele>
        <time>2020-10-11T11:48:53Z</time>
      </trkpt>
      <trkpt lat="37.368182000" lon="-5.726994000">
        <ele>78.4</ele>
        <time>2020-10-11T11:48:55Z</time>
      </trkpt>
      <trkpt lat="37.368185000" lon="-5.726892000">
        <ele>78.7</ele>
        <time>2020-10-11T11:48:57Z</time>
      </trkpt>
      <trkpt lat="37.368193000" lon="-5.726789000">
        <ele>79.1</ele>
        <time>2020-10-11T11:48:59Z</time>
      </trkpt>
      <trkpt lat="37.368201000" lon="-5.726637000">
        <ele>79.5</ele>
        <time>2020-10-11T11:49:02Z</time>
      </trkpt>
      <trkpt lat="37.368209000" lon="-5.726536000">
        <ele>79.7</ele>
        <time>2020-10-11T11:49:04Z</time>
      </trkpt>
      <trkpt lat="37.368216000" lon="-5.726431000">
        <ele>80.0</ele>
        <time>2020-10-11T11:49:06Z</time>
      </trkpt>
      <trkpt lat="37.368220000" lon="-5.726328000">
        <ele>80.3</ele>
        <time>2020-10-11T11:49:08Z</time>
      </trkpt>
      <trkpt lat="37.368224000" lon="-5.726180000">
        <ele>80.5</ele>
        <time>2020-10-11T11:49:11Z</time>
      </trkpt>
      <trkpt lat="37.368228000" lon="-5.726033000">
        <ele>80.7</ele>
        <time>2020-10-11T11:49:14Z</time>
      </trkpt>
      <trkpt lat="37.368240000" lon="-5.725881000">
        <ele>80.9</ele>
        <time>2020-10-11T11:49:17Z</time>
      </trkpt>
      <trkpt lat="37.368241000" lon="-5.725779000">
        <ele>81.1</ele>
        <time>2020-10-11T11:49:19Z</time>
      </trkpt>
      <trkpt lat="37.368243000" lon="-5.725672000">
        <ele>81.4</ele>
        <time>2020-10-11T11:49:21Z</time>
      </trkpt>
      <trkpt lat="37.368246000" lon="-5.725569000">
        <ele>81.6</ele>
        <time>2020-10-11T11:49:23Z</time>
      </trkpt>
      <trkpt lat="37.368247000" lon="-5.725432000">
        <ele>81.8</ele>
        <time>2020-10-11T11:49:26Z</time>
      </trkpt>
      <trkpt lat="37.368247000" lon="-5.725302000">
        <ele>82.0</ele>
        <time>2020-10-11T11:49:29Z</time>
      </trkpt>
      <trkpt lat="37.368246000" lon="-5.725163000">
        <ele>82.2</ele>
        <time>2020-10-11T11:49:32Z</time>
      </trkpt>
      <trkpt lat="37.368251000" lon="-5.725017000">
        <ele>82.4</ele>
        <time>2020-10-11T11:49:35Z</time>
      </trkpt>
      <trkpt lat="37.368260000" lon="-5.724890000">
        <ele>82.5</ele>
        <time>2020-10-11T11:49:38Z</time>
      </trkpt>
      <trkpt lat="37.368272000" lon="-5.724752000">
        <ele>82.7</ele>
        <time>2020-10-11T11:49:41Z</time>
      </trkpt>
      <trkpt lat="37.368268000" lon="-5.724633000">
        <ele>82.8</ele>
        <time>2020-10-11T11:49:44Z</time>
      </trkpt>
      <trkpt lat="37.368259000" lon="-5.724519000">
        <ele>82.9</ele>
        <time>2020-10-11T11:49:47Z</time>
      </trkpt>
      <trkpt lat="37.368262000" lon="-5.724404000">
        <ele>82.9</ele>
        <time>2020-10-11T11:49:50Z</time>
      </trkpt>
      <trkpt lat="37.368268000" lon="-5.724290000">
        <ele>82.8</ele>
        <time>2020-10-11T11:49:53Z</time>
      </trkpt>
      <trkpt lat="37.368272000" lon="-5.724161000">
        <ele>82.6</ele>
        <time>2020-10-11T11:49:56Z</time>
      </trkpt>
      <trkpt lat="37.368274000" lon="-5.724032000">
        <ele>82.5</ele>
        <time>2020-10-11T11:49:59Z</time>
      </trkpt>
      <trkpt lat="37.368273000" lon="-5.723908000">
        <ele>82.3</ele>
        <time>2020-10-11T11:50:02Z</time>
      </trkpt>
      <trkpt lat="37.368278000" lon="-5.723781000">
        <ele>82.1</ele>
        <time>2020-10-11T11:50:05Z</time>
      </trkpt>
      <trkpt lat="37.368283000" lon="-5.723644000">
        <ele>81.9</ele>
        <time>2020-10-11T11:50:08Z</time>
      </trkpt>
      <trkpt lat="37.368284000" lon="-5.723496000">
        <ele>81.7</ele>
        <time>2020-10-11T11:50:11Z</time>
      </trkpt>
      <trkpt lat="37.368288000" lon="-5.723392000">
        <ele>81.5</ele>
        <time>2020-10-11T11:50:13Z</time>
      </trkpt>
      <trkpt lat="37.368289000" lon="-5.723280000">
        <ele>81.4</ele>
        <time>2020-10-11T11:50:15Z</time>
      </trkpt>
      <trkpt lat="37.368287000" lon="-5.723167000">
        <ele>81.2</ele>
        <time>2020-10-11T11:50:17Z</time>
      </trkpt>
      <trkpt lat="37.368290000" lon="-5.723054000">
        <ele>81.1</ele>
        <time>2020-10-11T11:50:19Z</time>
      </trkpt>
      <trkpt lat="37.368295000" lon="-5.722937000">
        <ele>81.0</ele>
        <time>2020-10-11T11:50:21Z</time>
      </trkpt>
      <trkpt lat="37.368296000" lon="-5.722823000">
        <ele>81.1</ele>
        <time>2020-10-11T11:50:23Z</time>
      </trkpt>
      <trkpt lat="37.368302000" lon="-5.722703000">
        <ele>81.2</ele>
        <time>2020-10-11T11:50:25Z</time>
      </trkpt>
      <trkpt lat="37.368302000" lon="-5.722592000">
        <ele>81.3</ele>
        <time>2020-10-11T11:50:27Z</time>
      </trkpt>
      <trkpt lat="37.368300000" lon="-5.722489000">
        <ele>81.4</ele>
        <time>2020-10-11T11:50:29Z</time>
      </trkpt>
      <trkpt lat="37.368301000" lon="-5.722379000">
        <ele>81.5</ele>
        <time>2020-10-11T11:50:31Z</time>
      </trkpt>
      <trkpt lat="37.368304000" lon="-5.722268000">
        <ele>81.5</ele>
        <time>2020-10-11T11:50:33Z</time>
      </trkpt>
      <trkpt lat="37.368304000" lon="-5.722159000">
        <ele>81.6</ele>
        <time>2020-10-11T11:50:35Z</time>
      </trkpt>
      <trkpt lat="37.368307000" lon="-5.722051000">
        <ele>81.8</ele>
        <time>2020-10-11T11:50:37Z</time>
      </trkpt>
      <trkpt lat="37.368317000" lon="-5.721948000">
        <ele>82.0</ele>
        <time>2020-10-11T11:50:39Z</time>
      </trkpt>
      <trkpt lat="37.368326000" lon="-5.721795000">
        <ele>82.3</ele>
        <time>2020-10-11T11:50:42Z</time>
      </trkpt>
      <trkpt lat="37.368341000" lon="-5.721695000">
        <ele>82.5</ele>
        <time>2020-10-11T11:50:44Z</time>
      </trkpt>
      <trkpt lat="37.368356000" lon="-5.721593000">
        <ele>82.7</ele>
        <time>2020-10-11T11:50:46Z</time>
      </trkpt>
      <trkpt lat="37.368365000" lon="-5.721489000">
        <ele>82.9</ele>
        <time>2020-10-11T11:50:48Z</time>
      </trkpt>
      <trkpt lat="37.368381000" lon="-5.721389000">
        <ele>83.1</ele>
        <time>2020-10-11T11:50:50Z</time>
      </trkpt>
      <trkpt lat="37.368399000" lon="-5.721286000">
        <ele>83.3</ele>
        <time>2020-10-11T11:50:52Z</time>
      </trkpt>
      <trkpt lat="37.368408000" lon="-5.721180000">
        <ele>83.4</ele>
        <time>2020-10-11T11:50:54Z</time>
      </trkpt>
      <trkpt lat="37.368423000" lon="-5.721073000">
        <ele>83.5</ele>
        <time>2020-10-11T11:50:56Z</time>
      </trkpt>
      <trkpt lat="37.368441000" lon="-5.720963000">
        <ele>83.5</ele>
        <time>2020-10-11T11:50:58Z</time>
      </trkpt>
      <trkpt lat="37.368465000" lon="-5.720855000">
        <ele>83.4</ele>
        <time>2020-10-11T11:51:00Z</time>
      </trkpt>
      <trkpt lat="37.368486000" lon="-5.720741000">
        <ele>83.3</ele>
        <time>2020-10-11T11:51:02Z</time>
      </trkpt>
      <trkpt lat="37.368512000" lon="-5.720628000">
        <ele>83.1</ele>
        <time>2020-10-11T11:51:04Z</time>
      </trkpt>
      <trkpt lat="37.368542000" lon="-5.720521000">
        <ele>82.9</ele>
        <time>2020-10-11T11:51:06Z</time>
      </trkpt>
      <trkpt lat="37.368576000" lon="-5.720412000">
        <ele>82.7</ele>
        <time>2020-10-11T11:51:08Z</time>
      </trkpt>
      <trkpt lat="37.368605000" lon="-5.720304000">
        <ele>82.5</ele>
        <time>2020-10-11T11:51:10Z</time>
      </trkpt>
      <trkpt lat="37.368632000" lon="-5.720199000">
        <ele>82.4</ele>
        <time>2020-10-11T11:51:12Z</time>
      </trkpt>
      <trkpt lat="37.368661000" lon="-5.720092000">
        <ele>82.1</ele>
        <time>2020-10-11T11:51:14Z</time>
      </trkpt>
      <trkpt lat="37.368696000" lon="-5.719991000">
        <ele>81.9</ele>
        <time>2020-10-11T11:51:16Z</time>
      </trkpt>
      <trkpt lat="37.368730000" lon="-5.719892000">
        <ele>81.7</ele>
        <time>2020-10-11T11:51:18Z</time>
      </trkpt>
      <trkpt lat="37.368772000" lon="-5.719789000">
        <ele>81.5</ele>
        <time>2020-10-11T11:51:20Z</time>
      </trkpt>
      <trkpt lat="37.368810000" lon="-5.719683000">
        <ele>81.4</ele>
        <time>2020-10-11T11:51:22Z</time>
      </trkpt>
      <trkpt lat="37.368854000" lon="-5.719579000">
        <ele>81.1</ele>
        <time>2020-10-11T11:51:24Z</time>
      </trkpt>
      <trkpt lat="37.368900000" lon="-5.719481000">
        <ele>80.8</ele>
        <time>2020-10-11T11:51:26Z</time>
      </trkpt>
      <trkpt lat="37.368943000" lon="-5.719378000">
        <ele>80.5</ele>
        <time>2020-10-11T11:51:28Z</time>
      </trkpt>
      <trkpt lat="37.368990000" lon="-5.719277000">
        <ele>80.2</ele>
        <time>2020-10-11T11:51:30Z</time>
      </trkpt>
      <trkpt lat="37.369034000" lon="-5.719182000">
        <ele>79.8</ele>
        <time>2020-10-11T11:51:32Z</time>
      </trkpt>
      <trkpt lat="37.369080000" lon="-5.719080000">
        <ele>79.5</ele>
        <time>2020-10-11T11:51:34Z</time>
      </trkpt>
      <trkpt lat="37.369123000" lon="-5.718980000">
        <ele>79.2</ele>
        <time>2020-10-11T11:51:36Z</time>
      </trkpt>
      <trkpt lat="37.369171000" lon="-5.718877000">
        <ele>78.9</ele>
        <time>2020-10-11T11:51:38Z</time>
      </trkpt>
      <trkpt lat="37.369219000" lon="-5.718772000">
        <ele>78.7</ele>
        <time>2020-10-11T11:51:40Z</time>
      </trkpt>
      <trkpt lat="37.369269000" lon="-5.718671000">
        <ele>78.7</ele>
        <time>2020-10-11T11:51:42Z</time>
      </trkpt>
      <trkpt lat="37.369312000" lon="-5.718570000">
        <ele>78.8</ele>
        <time>2020-10-11T11:51:44Z</time>
      </trkpt>
      <trkpt lat="37.369361000" lon="-5.718471000">
        <ele>79.1</ele>
        <time>2020-10-11T11:51:46Z</time>
      </trkpt>
      <trkpt lat="37.369405000" lon="-5.718367000">
        <ele>79.4</ele>
        <time>2020-10-11T11:51:48Z</time>
      </trkpt>
      <trkpt lat="37.369447000" lon="-5.718268000">
        <ele>79.7</ele>
        <time>2020-10-11T11:51:50Z</time>
      </trkpt>
      <trkpt lat="37.369492000" lon="-5.718163000">
        <ele>80.1</ele>
        <time>2020-10-11T11:51:52Z</time>
      </trkpt>
      <trkpt lat="37.369529000" lon="-5.718070000">
        <ele>80.5</ele>
        <time>2020-10-11T11:51:54Z</time>
      </trkpt>
      <trkpt lat="37.369566000" lon="-5.717977000">
        <ele>80.8</ele>
        <time>2020-10-11T11:51:56Z</time>
      </trkpt>
      <trkpt lat="37.369626000" lon="-5.717844000">
        <ele>81.2</ele>
        <time>2020-10-11T11:51:59Z</time>
      </trkpt>
      <trkpt lat="37.369685000" lon="-5.717716000">
        <ele>81.5</ele>
        <time>2020-10-11T11:52:02Z</time>
      </trkpt>
      <trkpt lat="37.369741000" lon="-5.717593000">
        <ele>81.6</ele>
        <time>2020-10-11T11:52:05Z</time>
      </trkpt>
      <trkpt lat="37.369800000" lon="-5.717467000">
        <ele>81.7</ele>
        <time>2020-10-11T11:52:08Z</time>
      </trkpt>
      <trkpt lat="37.369864000" lon="-5.717340000">
        <ele>81.7</ele>
        <time>2020-10-11T11:52:11Z</time>
      </trkpt>
      <trkpt lat="37.369928000" lon="-5.717208000">
        <ele>81.6</ele>
        <time>2020-10-11T11:52:14Z</time>
      </trkpt>
      <trkpt lat="37.369993000" lon="-5.717080000">
        <ele>81.5</ele>
        <time>2020-10-11T11:52:17Z</time>
      </trkpt>
      <trkpt lat="37.370060000" lon="-5.716956000">
        <ele>81.3</ele>
        <time>2020-10-11T11:52:20Z</time>
      </trkpt>
      <trkpt lat="37.370123000" lon="-5.716825000">
        <ele>81.1</ele>
        <time>2020-10-11T11:52:23Z</time>
      </trkpt>
      <trkpt lat="37.370169000" lon="-5.716736000">
        <ele>80.9</ele>
        <time>2020-10-11T11:52:25Z</time>
      </trkpt>
      <trkpt lat="37.370222000" lon="-5.716648000">
        <ele>80.7</ele>
        <time>2020-10-11T11:52:27Z</time>
      </trkpt>
      <trkpt lat="37.370278000" lon="-5.716551000">
        <ele>80.5</ele>
        <time>2020-10-11T11:52:29Z</time>
      </trkpt>
      <trkpt lat="37.370333000" lon="-5.716466000">
        <ele>80.5</ele>
        <time>2020-10-11T11:52:31Z</time>
      </trkpt>
      <trkpt lat="37.370391000" lon="-5.716382000">
        <ele>80.5</ele>
        <time>2020-10-11T11:52:33Z</time>
      </trkpt>
      <trkpt lat="37.370451000" lon="-5.716298000">
        <ele>80.5</ele>
        <time>2020-10-11T11:52:35Z</time>
      </trkpt>
      <trkpt lat="37.370513000" lon="-5.716218000">
        <ele>80.5</ele>
        <time>2020-10-11T11:52:37Z</time>
      </trkpt>
      <trkpt lat="37.370573000" lon="-5.716143000">
        <ele>80.5</ele>
        <time>2020-10-11T11:52:39Z</time>
      </trkpt>
      <trkpt lat="37.370625000" lon="-5.716062000">
        <ele>80.5</ele>
        <time>2020-10-11T11:52:41Z</time>
      </trkpt>
      <trkpt lat="37.370679000" lon="-5.715979000">
        <ele>80.6</ele>
        <time>2020-10-11T11:52:43Z</time>
      </trkpt>
      <trkpt lat="37.370739000" lon="-5.715901000">
        <ele>80.7</ele>
        <time>2020-10-11T11:52:45Z</time>
      </trkpt>
      <trkpt lat="37.370796000" lon="-5.715828000">
        <ele>80.8</ele>
        <time>2020-10-11T11:52:47Z</time>
      </trkpt>
      <trkpt lat="37.370855000" lon="-5.715759000">
        <ele>81.0</ele>
        <time>2020-10-11T11:52:49Z</time>
      </trkpt>
      <trkpt lat="37.370945000" lon="-5.715663000">
        <ele>81.2</ele>
        <time>2020-10-11T11:52:52Z</time>
      </trkpt>
      <trkpt lat="37.371036000" lon="-5.715570000">
        <ele>81.4</ele>
        <time>2020-10-11T11:52:55Z</time>
      </trkpt>
      <trkpt lat="37.371134000" lon="-5.715485000">
        <ele>81.6</ele>
        <time>2020-10-11T11:52:58Z</time>
      </trkpt>
      <trkpt lat="37.371232000" lon="-5.715402000">
        <ele>82.0</ele>
        <time>2020-10-11T11:53:01Z</time>
      </trkpt>
      <trkpt lat="37.371328000" lon="-5.715315000">
        <ele>82.4</ele>
        <time>2020-10-11T11:53:04Z</time>
      </trkpt>
      <trkpt lat="37.371422000" lon="-5.715225000">
        <ele>82.7</ele>
        <time>2020-10-11T11:53:07Z</time>
      </trkpt>
      <trkpt lat="37.371515000" lon="-5.715140000">
        <ele>83.1</ele>
        <time>2020-10-11T11:53:10Z</time>
      </trkpt>
      <trkpt lat="37.371608000" lon="-5.715057000">
        <ele>83.5</ele>
        <time>2020-10-11T11:53:13Z</time>
      </trkpt>
      <trkpt lat="37.371704000" lon="-5.714985000">
        <ele>83.8</ele>
        <time>2020-10-11T11:53:16Z</time>
      </trkpt>
      <trkpt lat="37.371796000" lon="-5.714901000">
        <ele>84.2</ele>
        <time>2020-10-11T11:53:19Z</time>
      </trkpt>
      <trkpt lat="37.371890000" lon="-5.714823000">
        <ele>84.5</ele>
        <time>2020-10-11T11:53:22Z</time>
      </trkpt>
      <trkpt lat="37.371986000" lon="-5.714749000">
        <ele>84.9</ele>
        <time>2020-10-11T11:53:25Z</time>
      </trkpt>
      <trkpt lat="37.372077000" lon="-5.714688000">
        <ele>85.2</ele>
        <time>2020-10-11T11:53:28Z</time>
      </trkpt>
      <trkpt lat="37.372163000" lon="-5.714636000">
        <ele>85.4</ele>
        <time>2020-10-11T11:53:31Z</time>
      </trkpt>
      <trkpt lat="37.372244000" lon="-5.714579000">
        <ele>85.5</ele>
        <time>2020-10-11T11:53:34Z</time>
      </trkpt>
      <trkpt lat="37.372329000" lon="-5.714526000">
        <ele>85.5</ele>
        <time>2020-10-11T11:53:37Z</time>
      </trkpt>
      <trkpt lat="37.372420000" lon="-5.714486000">
        <ele>85.7</ele>
        <time>2020-10-11T11:53:40Z</time>
      </trkpt>
      <trkpt lat="37.372500000" lon="-5.714452000">
        <ele>85.9</ele>
        <time>2020-10-11T11:53:43Z</time>
      </trkpt>
      <trkpt lat="37.372585000" lon="-5.714407000">
        <ele>86.1</ele>
        <time>2020-10-11T11:53:46Z</time>
      </trkpt>
      <trkpt lat="37.372666000" lon="-5.714367000">
        <ele>86.3</ele>
        <time>2020-10-11T11:53:49Z</time>
      </trkpt>
      <trkpt lat="37.372760000" lon="-5.714318000">
        <ele>86.5</ele>
        <time>2020-10-11T11:53:52Z</time>
      </trkpt>
      <trkpt lat="37.372857000" lon="-5.714274000">
        <ele>86.5</ele>
        <time>2020-10-11T11:53:55Z</time>
      </trkpt>
      <trkpt lat="37.372950000" lon="-5.714234000">
        <ele>86.6</ele>
        <time>2020-10-11T11:53:58Z</time>
      </trkpt>
      <trkpt lat="37.373044000" lon="-5.714198000">
        <ele>86.7</ele>
        <time>2020-10-11T11:54:01Z</time>
      </trkpt>
      <trkpt lat="37.373145000" lon="-5.714161000">
        <ele>86.8</ele>
        <time>2020-10-11T11:54:04Z</time>
      </trkpt>
      <trkpt lat="37.373246000" lon="-5.714124000">
        <ele>86.9</ele>
        <time>2020-10-11T11:54:07Z</time>
      </trkpt>
      <trkpt lat="37.373346000" lon="-5.714084000">
        <ele>87.0</ele>
        <time>2020-10-11T11:54:10Z</time>
      </trkpt>
      <trkpt lat="37.373446000" lon="-5.714052000">
        <ele>87.0</ele>
        <time>2020-10-11T11:54:13Z</time>
      </trkpt>
      <trkpt lat="37.373548000" lon="-5.714016000">
        <ele>87.1</ele>
        <time>2020-10-11T11:54:16Z</time>
      </trkpt>
      <trkpt lat="37.373651000" lon="-5.713980000">
        <ele>87.2</ele>
        <time>2020-10-11T11:54:19Z</time>
      </trkpt>
      <trkpt lat="37.373761000" lon="-5.713954000">
        <ele>87.3</ele>
        <time>2020-10-11T11:54:22Z</time>
      </trkpt>
      <trkpt lat="37.373870000" lon="-5.713928000">
        <ele>87.4</ele>
        <time>2020-10-11T11:54:25Z</time>
      </trkpt>
      <trkpt lat="37.373958000" lon="-5.713910000">
        <ele>87.5</ele>
        <time>2020-10-11T11:54:28Z</time>
      </trkpt>
      <trkpt lat="37.374049000" lon="-5.713890000">
        <ele>87.7</ele>
        <time>2020-10-11T11:54:31Z</time>
      </trkpt>
      <trkpt lat="37.374145000" lon="-5.713869000">
        <ele>87.9</ele>
        <time>2020-10-11T11:54:34Z</time>
      </trkpt>
      <trkpt lat="37.374245000" lon="-5.713858000">
        <ele>88.1</ele>
        <time>2020-10-11T11:54:37Z</time>
      </trkpt>
      <trkpt lat="37.374348000" lon="-5.713839000">
        <ele>88.2</ele>
        <time>2020-10-11T11:54:40Z</time>
      </trkpt>
      <trkpt lat="37.374453000" lon="-5.713827000">
        <ele>88.2</ele>
        <time>2020-10-11T11:54:43Z</time>
      </trkpt>
      <trkpt lat="37.374558000" lon="-5.713820000">
        <ele>88.1</ele>
        <time>2020-10-11T11:54:46Z</time>
      </trkpt>
      <trkpt lat="37.374666000" lon="-5.713803000">
        <ele>87.8</ele>
        <time>2020-10-11T11:54:49Z</time>
      </trkpt>
      <trkpt lat="37.374777000" lon="-5.713801000">
        <ele>87.5</ele>
        <time>2020-10-11T11:54:52Z</time>
      </trkpt>
      <trkpt lat="37.374892000" lon="-5.713794000">
        <ele>87.3</ele>
        <time>2020-10-11T11:54:55Z</time>
      </trkpt>
      <trkpt lat="37.375010000" lon="-5.713788000">
        <ele>87.0</ele>
        <time>2020-10-11T11:54:58Z</time>
      </trkpt>
      <trkpt lat="37.375127000" lon="-5.713790000">
        <ele>86.6</ele>
        <time>2020-10-11T11:55:01Z</time>
      </trkpt>
      <trkpt lat="37.375241000" lon="-5.713792000">
        <ele>86.4</ele>
        <time>2020-10-11T11:55:04Z</time>
      </trkpt>
      <trkpt lat="37.375346000" lon="-5.713795000">
        <ele>86.1</ele>
        <time>2020-10-11T11:55:07Z</time>
      </trkpt>
      <trkpt lat="37.375452000" lon="-5.713807000">
        <ele>85.9</ele>
        <time>2020-10-11T11:55:10Z</time>
      </trkpt>
      <trkpt lat="37.375561000" lon="-5.713821000">
        <ele>85.8</ele>
        <time>2020-10-11T11:55:13Z</time>
      </trkpt>
      <trkpt lat="37.375669000" lon="-5.713835000">
        <ele>85.9</ele>
        <time>2020-10-11T11:55:16Z</time>
      </trkpt>
      <trkpt lat="37.375782000" lon="-5.713843000">
        <ele>86.2</ele>
        <time>2020-10-11T11:55:19Z</time>
      </trkpt>
      <trkpt lat="37.375896000" lon="-5.713853000">
        <ele>86.6</ele>
        <time>2020-10-11T11:55:22Z</time>
      </trkpt>
      <trkpt lat="37.376011000" lon="-5.713869000">
        <ele>87.1</ele>
        <time>2020-10-11T11:55:25Z</time>
      </trkpt>
      <trkpt lat="37.376124000" lon="-5.713885000">
        <ele>87.6</ele>
        <time>2020-10-11T11:55:28Z</time>
      </trkpt>
      <trkpt lat="37.376232000" lon="-5.713908000">
        <ele>88.2</ele>
        <time>2020-10-11T11:55:31Z</time>
      </trkpt>
      <trkpt lat="37.376334000" lon="-5.713929000">
        <ele>88.8</ele>
        <time>2020-10-11T11:55:34Z</time>
      </trkpt>
      <trkpt lat="37.376439000" lon="-5.713952000">
        <ele>89.4</ele>
        <time>2020-10-11T11:55:37Z</time>
      </trkpt>
      <trkpt lat="37.376548000" lon="-5.713979000">
        <ele>89.9</ele>
        <time>2020-10-11T11:55:40Z</time>
      </trkpt>
      <trkpt lat="37.376648000" lon="-5.714019000">
        <ele>90.3</ele>
        <time>2020-10-11T11:55:43Z</time>
      </trkpt>
      <trkpt lat="37.376743000" lon="-5.714048000">
        <ele>90.6</ele>
        <time>2020-10-11T11:55:46Z</time>
      </trkpt>
      <trkpt lat="37.376836000" lon="-5.714082000">
        <ele>90.9</ele>
        <time>2020-10-11T11:55:49Z</time>
      </trkpt>
      <trkpt lat="37.376928000" lon="-5.714113000">
        <ele>91.1</ele>
        <time>2020-10-11T11:55:52Z</time>
      </trkpt>
      <trkpt lat="37.377018000" lon="-5.714138000">
        <ele>91.2</ele>
        <time>2020-10-11T11:55:55Z</time>
      </trkpt>
      <trkpt lat="37.377107000" lon="-5.714172000">
        <ele>91.3</ele>
        <time>2020-10-11T11:55:58Z</time>
      </trkpt>
      <trkpt lat="37.377197000" lon="-5.714202000">
        <ele>91.2</ele>
        <time>2020-10-11T11:56:01Z</time>
      </trkpt>
      <trkpt lat="37.377289000" lon="-5.714228000">
        <ele>91.1</ele>
        <time>2020-10-11T11:56:04Z</time>
      </trkpt>
      <trkpt lat="37.377381000" lon="-5.714267000">
        <ele>90.9</ele>
        <time>2020-10-11T11:56:07Z</time>
      </trkpt>
      <trkpt lat="37.377486000" lon="-5.714306000">
        <ele>90.8</ele>
        <time>2020-10-11T11:56:11Z</time>
      </trkpt>
      <trkpt lat="37.377575000" lon="-5.714344000">
        <ele>90.8</ele>
        <time>2020-10-11T11:56:14Z</time>
      </trkpt>
      <trkpt lat="37.377675000" lon="-5.714378000">
        <ele>91.0</ele>
        <time>2020-10-11T11:56:17Z</time>
      </trkpt>
      <trkpt lat="37.377772000" lon="-5.714415000">
        <ele>91.3</ele>
        <time>2020-10-11T11:56:20Z</time>
      </trkpt>
      <trkpt lat="37.377873000" lon="-5.714449000">
        <ele>91.6</ele>
        <time>2020-10-11T11:56:23Z</time>
      </trkpt>
      <trkpt lat="37.377972000" lon="-5.714491000">
        <ele>92.1</ele>
        <time>2020-10-11T11:56:26Z</time>
      </trkpt>
      <trkpt lat="37.378071000" lon="-5.714528000">
        <ele>92.6</ele>
        <time>2020-10-11T11:56:29Z</time>
      </trkpt>
      <trkpt lat="37.378170000" lon="-5.714566000">
        <ele>93.3</ele>
        <time>2020-10-11T11:56:32Z</time>
      </trkpt>
      <trkpt lat="37.378265000" lon="-5.714602000">
        <ele>94.1</ele>
        <time>2020-10-11T11:56:35Z</time>
      </trkpt>
      <trkpt lat="37.378352000" lon="-5.714636000">
        <ele>95.0</ele>
        <time>2020-10-11T11:56:38Z</time>
      </trkpt>
      <trkpt lat="37.378439000" lon="-5.714673000">
        <ele>95.9</ele>
        <time>2020-10-11T11:56:41Z</time>
      </trkpt>
      <trkpt lat="37.378533000" lon="-5.714701000">
        <ele>96.7</ele>
        <time>2020-10-11T11:56:44Z</time>
      </trkpt>
      <trkpt lat="37.378626000" lon="-5.714731000">
        <ele>97.5</ele>
        <time>2020-10-11T11:56:47Z</time>
      </trkpt>
      <trkpt lat="37.378715000" lon="-5.714772000">
        <ele>98.0</ele>
        <time>2020-10-11T11:56:50Z</time>
      </trkpt>
      <trkpt lat="37.378802000" lon="-5.714804000">
        <ele>98.5</ele>
        <time>2020-10-11T11:56:53Z</time>
      </trkpt>
      <trkpt lat="37.378898000" lon="-5.714833000">
        <ele>98.7</ele>
        <time>2020-10-11T11:56:56Z</time>
      </trkpt>
      <trkpt lat="37.378988000" lon="-5.714859000">
        <ele>98.8</ele>
        <time>2020-10-11T11:56:59Z</time>
      </trkpt>
      <trkpt lat="37.379085000" lon="-5.714892000">
        <ele>98.8</ele>
        <time>2020-10-11T11:57:02Z</time>
      </trkpt>
      <trkpt lat="37.379178000" lon="-5.714930000">
        <ele>98.7</ele>
        <time>2020-10-11T11:57:05Z</time>
      </trkpt>
      <trkpt lat="37.379275000" lon="-5.714958000">
        <ele>98.6</ele>
        <time>2020-10-11T11:57:08Z</time>
      </trkpt>
      <trkpt lat="37.379373000" lon="-5.714994000">
        <ele>98.5</ele>
        <time>2020-10-11T11:57:11Z</time>
      </trkpt>
      <trkpt lat="37.379467000" lon="-5.715028000">
        <ele>98.4</ele>
        <time>2020-10-11T11:57:14Z</time>
      </trkpt>
      <trkpt lat="37.379563000" lon="-5.715062000">
        <ele>98.3</ele>
        <time>2020-10-11T11:57:17Z</time>
      </trkpt>
      <trkpt lat="37.379663000" lon="-5.715095000">
        <ele>98.2</ele>
        <time>2020-10-11T11:57:20Z</time>
      </trkpt>
      <trkpt lat="37.379767000" lon="-5.715142000">
        <ele>98.2</ele>
        <time>2020-10-11T11:57:23Z</time>
      </trkpt>
      <trkpt lat="37.379873000" lon="-5.715183000">
        <ele>98.1</ele>
        <time>2020-10-11T11:57:26Z</time>
      </trkpt>
      <trkpt lat="37.379986000" lon="-5.715231000">
        <ele>98.1</ele>
        <time>2020-10-11T11:57:29Z</time>
      </trkpt>
      <trkpt lat="37.380101000" lon="-5.715274000">
        <ele>98.2</ele>
        <time>2020-10-11T11:57:32Z</time>
      </trkpt>
      <trkpt lat="37.380180000" lon="-5.715302000">
        <ele>98.3</ele>
        <time>2020-10-11T11:57:34Z</time>
      </trkpt>
      <trkpt lat="37.380260000" lon="-5.715333000">
        <ele>98.4</ele>
        <time>2020-10-11T11:57:36Z</time>
      </trkpt>
      <trkpt lat="37.380344000" lon="-5.715359000">
        <ele>98.4</ele>
        <time>2020-10-11T11:57:38Z</time>
      </trkpt>
      <trkpt lat="37.380430000" lon="-5.715382000">
        <ele>98.4</ele>
        <time>2020-10-11T11:57:40Z</time>
      </trkpt>
      <trkpt lat="37.380519000" lon="-5.715404000">
        <ele>98.3</ele>
        <time>2020-10-11T11:57:42Z</time>
      </trkpt>
      <trkpt lat="37.380605000" lon="-5.715433000">
        <ele>98.2</ele>
        <time>2020-10-11T11:57:44Z</time>
      </trkpt>
      <trkpt lat="37.380689000" lon="-5.715460000">
        <ele>98.1</ele>
        <time>2020-10-11T11:57:46Z</time>
      </trkpt>
      <trkpt lat="37.380777000" lon="-5.715483000">
        <ele>98.0</ele>
        <time>2020-10-11T11:57:48Z</time>
      </trkpt>
      <trkpt lat="37.380861000" lon="-5.715514000">
        <ele>98.0</ele>
        <time>2020-10-11T11:57:50Z</time>
      </trkpt>
      <trkpt lat="37.380946000" lon="-5.715543000">
        <ele>98.0</ele>
        <time>2020-10-11T11:57:52Z</time>
      </trkpt>
      <trkpt lat="37.381034000" lon="-5.715570000">
        <ele>98.0</ele>
        <time>2020-10-11T11:57:54Z</time>
      </trkpt>
      <trkpt lat="37.381128000" lon="-5.715606000">
        <ele>98.0</ele>
        <time>2020-10-11T11:57:56Z</time>
      </trkpt>
      <trkpt lat="37.381218000" lon="-5.715640000">
        <ele>98.0</ele>
        <time>2020-10-11T11:57:58Z</time>
      </trkpt>
      <trkpt lat="37.381310000" lon="-5.715663000">
        <ele>98.0</ele>
        <time>2020-10-11T11:58:00Z</time>
      </trkpt>
      <trkpt lat="37.381410000" lon="-5.715682000">
        <ele>98.1</ele>
        <time>2020-10-11T11:58:02Z</time>
      </trkpt>
      <trkpt lat="37.381508000" lon="-5.715695000">
        <ele>98.2</ele>
        <time>2020-10-11T11:58:04Z</time>
      </trkpt>
      <trkpt lat="37.381600000" lon="-5.715700000">
        <ele>98.3</ele>
        <time>2020-10-11T11:58:06Z</time>
      </trkpt>
      <trkpt lat="37.381698000" lon="-5.715690000">
        <ele>98.4</ele>
        <time>2020-10-11T11:58:08Z</time>
      </trkpt>
      <trkpt lat="37.381793000" lon="-5.715672000">
        <ele>98.5</ele>
        <time>2020-10-11T11:58:10Z</time>
      </trkpt>
      <trkpt lat="37.381885000" lon="-5.715671000">
        <ele>98.6</ele>
        <time>2020-10-11T11:58:12Z</time>
      </trkpt>
      <trkpt lat="37.381967000" lon="-5.715666000">
        <ele>98.8</ele>
        <time>2020-10-11T11:58:14Z</time>
      </trkpt>
      <trkpt lat="37.382078000" lon="-5.715664000">
        <ele>99.0</ele>
        <time>2020-10-11T11:58:17Z</time>
      </trkpt>
      <trkpt lat="37.382175000" lon="-5.715660000">
        <ele>99.2</ele>
        <time>2020-10-11T11:58:20Z</time>
      </trkpt>
      <trkpt lat="37.382266000" lon="-5.715630000">
        <ele>99.5</ele>
        <time>2020-10-11T11:58:24Z</time>
      </trkpt>
      <trkpt lat="37.382364000" lon="-5.715592000">
        <ele>99.7</ele>
        <time>2020-10-11T11:58:29Z</time>
      </trkpt>
      <trkpt lat="37.382445000" lon="-5.715547000">
        <ele>99.9</ele>
        <time>2020-10-11T11:58:32Z</time>
      </trkpt>
      <trkpt lat="37.382537000" lon="-5.715494000">
        <ele>100.1</ele>
        <time>2020-10-11T11:58:35Z</time>
      </trkpt>
      <trkpt lat="37.382641000" lon="-5.715427000">
        <ele>100.4</ele>
        <time>2020-10-11T11:58:38Z</time>
      </trkpt>
      <trkpt lat="37.382716000" lon="-5.715384000">
        <ele>100.6</ele>
        <time>2020-10-11T11:58:40Z</time>
      </trkpt>
      <trkpt lat="37.382791000" lon="-5.715336000">
        <ele>100.8</ele>
        <time>2020-10-11T11:58:42Z</time>
      </trkpt>
      <trkpt lat="37.382868000" lon="-5.715289000">
        <ele>100.9</ele>
        <time>2020-10-11T11:58:44Z</time>
      </trkpt>
      <trkpt lat="37.382947000" lon="-5.715247000">
        <ele>101.0</ele>
        <time>2020-10-11T11:58:46Z</time>
      </trkpt>
      <trkpt lat="37.383024000" lon="-5.715205000">
        <ele>101.1</ele>
        <time>2020-10-11T11:58:48Z</time>
      </trkpt>
      <trkpt lat="37.383101000" lon="-5.715158000">
        <ele>101.2</ele>
        <time>2020-10-11T11:58:50Z</time>
      </trkpt>
      <trkpt lat="37.383175000" lon="-5.715105000">
        <ele>101.2</ele>
        <time>2020-10-11T11:58:52Z</time>
      </trkpt>
      <trkpt lat="37.383253000" lon="-5.715047000">
        <ele>101.2</ele>
        <time>2020-10-11T11:58:54Z</time>
      </trkpt>
      <trkpt lat="37.383331000" lon="-5.714972000">
        <ele>101.2</ele>
        <time>2020-10-11T11:58:56Z</time>
      </trkpt>
      <trkpt lat="37.383407000" lon="-5.714908000">
        <ele>101.2</ele>
        <time>2020-10-11T11:58:58Z</time>
      </trkpt>
      <trkpt lat="37.383482000" lon="-5.714837000">
        <ele>101.1</ele>
        <time>2020-10-11T11:59:00Z</time>
      </trkpt>
      <trkpt lat="37.383560000" lon="-5.714769000">
        <ele>100.9</ele>
        <time>2020-10-11T11:59:02Z</time>
      </trkpt>
      <trkpt lat="37.383636000" lon="-5.714701000">
        <ele>100.7</ele>
        <time>2020-10-11T11:59:04Z</time>
      </trkpt>
      <trkpt lat="37.383711000" lon="-5.714627000">
        <ele>100.5</ele>
        <time>2020-10-11T11:59:06Z</time>
      </trkpt>
      <trkpt lat="37.383782000" lon="-5.714549000">
        <ele>100.3</ele>
        <time>2020-10-11T11:59:08Z</time>
      </trkpt>
      <trkpt lat="37.383854000" lon="-5.714482000">
        <ele>99.9</ele>
        <time>2020-10-11T11:59:10Z</time>
      </trkpt>
      <trkpt lat="37.383935000" lon="-5.714393000">
        <ele>99.5</ele>
        <time>2020-10-11T11:59:13Z</time>
      </trkpt>
      <trkpt lat="37.384000000" lon="-5.714321000">
        <ele>99.0</ele>
        <time>2020-10-11T11:59:16Z</time>
      </trkpt>
      <trkpt lat="37.384069000" lon="-5.714230000">
        <ele>98.5</ele>
        <time>2020-10-11T11:59:19Z</time>
      </trkpt>
      <trkpt lat="37.384137000" lon="-5.714120000">
        <ele>98.0</ele>
        <time>2020-10-11T11:59:22Z</time>
      </trkpt>
      <trkpt lat="37.384204000" lon="-5.714002000">
        <ele>97.5</ele>
        <time>2020-10-11T11:59:25Z</time>
      </trkpt>
      <trkpt lat="37.384270000" lon="-5.713877000">
        <ele>96.9</ele>
        <time>2020-10-11T11:59:28Z</time>
      </trkpt>
      <trkpt lat="37.384315000" lon="-5.713793000">
        <ele>96.5</ele>
        <time>2020-10-11T11:59:30Z</time>
      </trkpt>
      <trkpt lat="37.384364000" lon="-5.713707000">
        <ele>96.2</ele>
        <time>2020-10-11T11:59:32Z</time>
      </trkpt>
      <trkpt lat="37.384402000" lon="-5.713613000">
        <ele>96.0</ele>
        <time>2020-10-11T11:59:34Z</time>
      </trkpt>
      <trkpt lat="37.384438000" lon="-5.713515000">
        <ele>95.9</ele>
        <time>2020-10-11T11:59:36Z</time>
      </trkpt>
      <trkpt lat="37.384471000" lon="-5.713416000">
        <ele>95.9</ele>
        <time>2020-10-11T11:59:38Z</time>
      </trkpt>
      <trkpt lat="37.384499000" lon="-5.713318000">
        <ele>96.0</ele>
        <time>2020-10-11T11:59:40Z</time>
      </trkpt>
      <trkpt lat="37.384530000" lon="-5.713223000">
        <ele>96.1</ele>
        <time>2020-10-11T11:59:42Z</time>
      </trkpt>
      <trkpt lat="37.384569000" lon="-5.713082000">
        <ele>96.2</ele>
        <time>2020-10-11T11:59:45Z</time>
      </trkpt>
      <trkpt lat="37.384592000" lon="-5.712982000">
        <ele>96.4</ele>
        <time>2020-10-11T11:59:47Z</time>
      </trkpt>
      <trkpt lat="37.384620000" lon="-5.712883000">
        <ele>96.5</ele>
        <time>2020-10-11T11:59:49Z</time>
      </trkpt>
      <trkpt lat="37.384648000" lon="-5.712783000">
        <ele>96.7</ele>
        <time>2020-10-11T11:59:51Z</time>
      </trkpt>
      <trkpt lat="37.384672000" lon="-5.712680000">
        <ele>96.9</ele>
        <time>2020-10-11T11:59:53Z</time>
      </trkpt>
      <trkpt lat="37.384696000" lon="-5.712573000">
        <ele>97.0</ele>
        <time>2020-10-11T11:59:55Z</time>
      </trkpt>
      <trkpt lat="37.384722000" lon="-5.712469000">
        <ele>97.0</ele>
        <time>2020-10-11T11:59:57Z</time>
      </trkpt>
      <trkpt lat="37.384745000" lon="-5.712367000">
        <ele>97.1</ele>
        <time>2020-10-11T11:59:59Z</time>
      </trkpt>
      <trkpt lat="37.384769000" lon="-5.712263000">
        <ele>97.2</ele>
        <time>2020-10-11T12:00:01Z</time>
      </trkpt>
      <trkpt lat="37.384796000" lon="-5.712159000">
        <ele>97.3</ele>
        <time>2020-10-11T12:00:03Z</time>
      </trkpt>
      <trkpt lat="37.384825000" lon="-5.712055000">
        <ele>97.4</ele>
        <time>2020-10-11T12:00:05Z</time>
      </trkpt>
      <trkpt lat="37.384856000" lon="-5.711953000">
        <ele>97.5</ele>
        <time>2020-10-11T12:00:07Z</time>
      </trkpt>
      <trkpt lat="37.384886000" lon="-5.711854000">
        <ele>97.5</ele>
        <time>2020-10-11T12:00:09Z</time>
      </trkpt>
      <trkpt lat="37.384916000" lon="-5.711759000">
        <ele>97.7</ele>
        <time>2020-10-11T12:00:11Z</time>
      </trkpt>
      <trkpt lat="37.384944000" lon="-5.711663000">
        <ele>97.9</ele>
        <time>2020-10-11T12:00:13Z</time>
      </trkpt>
      <trkpt lat="37.384984000" lon="-5.711522000">
        <ele>98.2</ele>
        <time>2020-10-11T12:00:16Z</time>
      </trkpt>
      <trkpt lat="37.385028000" lon="-5.711384000">
        <ele>98.5</ele>
        <time>2020-10-11T12:00:19Z</time>
      </trkpt>
      <trkpt lat="37.385076000" lon="-5.711256000">
        <ele>98.8</ele>
        <time>2020-10-11T12:00:22Z</time>
      </trkpt>
      <trkpt lat="37.385132000" lon="-5.711124000">
        <ele>99.1</ele>
        <time>2020-10-11T12:00:25Z</time>
      </trkpt>
      <trkpt lat="37.385190000" lon="-5.710996000">
        <ele>99.3</ele>
        <time>2020-10-11T12:00:28Z</time>
      </trkpt>
      <trkpt lat="37.385251000" lon="-5.710867000">
        <ele>99.5</ele>
        <time>2020-10-11T12:00:31Z</time>
      </trkpt>
      <trkpt lat="37.385309000" lon="-5.710750000">
        <ele>99.6</ele>
        <time>2020-10-11T12:00:34Z</time>
      </trkpt>
      <trkpt lat="37.385370000" lon="-5.710639000">
        <ele>99.9</ele>
        <time>2020-10-11T12:00:37Z</time>
      </trkpt>
      <trkpt lat="37.385427000" lon="-5.710527000">
        <ele>100.2</ele>
        <time>2020-10-11T12:00:40Z</time>
      </trkpt>
      <trkpt lat="37.385494000" lon="-5.710421000">
        <ele>100.4</ele>
        <time>2020-10-11T12:00:43Z</time>
      </trkpt>
      <trkpt lat="37.385562000" lon="-5.710312000">
        <ele>100.5</ele>
        <time>2020-10-11T12:00:46Z</time>
      </trkpt>
      <trkpt lat="37.385633000" lon="-5.710209000">
        <ele>100.6</ele>
        <time>2020-10-11T12:00:49Z</time>
      </trkpt>
      <trkpt lat="37.385708000" lon="-5.710106000">
        <ele>100.7</ele>
        <time>2020-10-11T12:00:52Z</time>
      </trkpt>
      <trkpt lat="37.385785000" lon="-5.709999000">
        <ele>100.6</ele>
        <time>2020-10-11T12:00:55Z</time>
      </trkpt>
      <trkpt lat="37.385869000" lon="-5.709897000">
        <ele>100.5</ele>
        <time>2020-10-11T12:00:58Z</time>
      </trkpt>
      <trkpt lat="37.385959000" lon="-5.709795000">
        <ele>100.4</ele>
        <time>2020-10-11T12:01:01Z</time>
      </trkpt>
      <trkpt lat="37.386018000" lon="-5.709723000">
        <ele>100.3</ele>
        <time>2020-10-11T12:01:03Z</time>
      </trkpt>
      <trkpt lat="37.386107000" lon="-5.709622000">
        <ele>100.2</ele>
        <time>2020-10-11T12:01:06Z</time>
      </trkpt>
      <trkpt lat="37.386171000" lon="-5.709554000">
        <ele>99.9</ele>
        <time>2020-10-11T12:01:08Z</time>
      </trkpt>
      <trkpt lat="37.386238000" lon="-5.709490000">
        <ele>99.6</ele>
        <time>2020-10-11T12:01:10Z</time>
      </trkpt>
      <trkpt lat="37.386308000" lon="-5.709425000">
        <ele>99.4</ele>
        <time>2020-10-11T12:01:12Z</time>
      </trkpt>
      <trkpt lat="37.386376000" lon="-5.709353000">
        <ele>99.1</ele>
        <time>2020-10-11T12:01:14Z</time>
      </trkpt>
      <trkpt lat="37.386451000" lon="-5.709284000">
        <ele>98.8</ele>
        <time>2020-10-11T12:01:16Z</time>
      </trkpt>
      <trkpt lat="37.386531000" lon="-5.709220000">
        <ele>98.5</ele>
        <time>2020-10-11T12:01:18Z</time>
      </trkpt>
      <trkpt lat="37.386610000" lon="-5.709152000">
        <ele>98.4</ele>
        <time>2020-10-11T12:01:20Z</time>
      </trkpt>
      <trkpt lat="37.386684000" lon="-5.709091000">
        <ele>98.4</ele>
        <time>2020-10-11T12:01:22Z</time>
      </trkpt>
      <trkpt lat="37.386761000" lon="-5.709027000">
        <ele>98.5</ele>
        <time>2020-10-11T12:01:24Z</time>
      </trkpt>
      <trkpt lat="37.386829000" lon="-5.708971000">
        <ele>98.5</ele>
        <time>2020-10-11T12:01:26Z</time>
      </trkpt>
      <trkpt lat="37.386903000" lon="-5.708921000">
        <ele>98.7</ele>
        <time>2020-10-11T12:01:28Z</time>
      </trkpt>
      <trkpt lat="37.386998000" lon="-5.708837000">
        <ele>99.0</ele>
        <time>2020-10-11T12:01:31Z</time>
      </trkpt>
      <trkpt lat="37.387091000" lon="-5.708746000">
        <ele>99.4</ele>
        <time>2020-10-11T12:01:34Z</time>
      </trkpt>
      <trkpt lat="37.387191000" lon="-5.708664000">
        <ele>99.7</ele>
        <time>2020-10-11T12:01:37Z</time>
      </trkpt>
      <trkpt lat="37.387291000" lon="-5.708582000">
        <ele>100.1</ele>
        <time>2020-10-11T12:01:40Z</time>
      </trkpt>
      <trkpt lat="37.387390000" lon="-5.708505000">
        <ele>100.5</ele>
        <time>2020-10-11T12:01:43Z</time>
      </trkpt>
      <trkpt lat="37.387483000" lon="-5.708425000">
        <ele>101.1</ele>
        <time>2020-10-11T12:01:46Z</time>
      </trkpt>
      <trkpt lat="37.387570000" lon="-5.708354000">
        <ele>101.7</ele>
        <time>2020-10-11T12:01:49Z</time>
      </trkpt>
      <trkpt lat="37.387647000" lon="-5.708283000">
        <ele>102.3</ele>
        <time>2020-10-11T12:01:52Z</time>
      </trkpt>
      <trkpt lat="37.387726000" lon="-5.708211000">
        <ele>102.6</ele>
        <time>2020-10-11T12:01:55Z</time>
      </trkpt>
      <trkpt lat="37.387807000" lon="-5.708143000">
        <ele>103.0</ele>
        <time>2020-10-11T12:01:58Z</time>
      </trkpt>
      <trkpt lat="37.387893000" lon="-5.708073000">
        <ele>103.3</ele>
        <time>2020-10-11T12:02:01Z</time>
      </trkpt>
      <trkpt lat="37.387976000" lon="-5.707987000">
        <ele>103.6</ele>
        <time>2020-10-11T12:02:04Z</time>
      </trkpt>
      <trkpt lat="37.388069000" lon="-5.707911000">
        <ele>103.9</ele>
        <time>2020-10-11T12:02:07Z</time>
      </trkpt>
      <trkpt lat="37.388160000" lon="-5.707835000">
        <ele>104.3</ele>
        <time>2020-10-11T12:02:10Z</time>
      </trkpt>
      <trkpt lat="37.388253000" lon="-5.707758000">
        <ele>104.6</ele>
        <time>2020-10-11T12:02:13Z</time>
      </trkpt>
      <trkpt lat="37.388346000" lon="-5.707678000">
        <ele>104.9</ele>
        <time>2020-10-11T12:02:16Z</time>
      </trkpt>
      <trkpt lat="37.388442000" lon="-5.707602000">
        <ele>105.1</ele>
        <time>2020-10-11T12:02:19Z</time>
      </trkpt>
      <trkpt lat="37.388537000" lon="-5.707518000">
        <ele>105.2</ele>
        <time>2020-10-11T12:02:22Z</time>
      </trkpt>
      <trkpt lat="37.388634000" lon="-5.707439000">
        <ele>105.2</ele>
        <time>2020-10-11T12:02:25Z</time>
      </trkpt>
      <trkpt lat="37.388726000" lon="-5.707353000">
        <ele>105.2</ele>
        <time>2020-10-11T12:02:28Z</time>
      </trkpt>
      <trkpt lat="37.388823000" lon="-5.707278000">
        <ele>105.2</ele>
        <time>2020-10-11T12:02:31Z</time>
      </trkpt>
      <trkpt lat="37.388916000" lon="-5.707200000">
        <ele>105.2</ele>
        <time>2020-10-11T12:02:34Z</time>
      </trkpt>
      <trkpt lat="37.389004000" lon="-5.707124000">
        <ele>105.1</ele>
        <time>2020-10-11T12:02:37Z</time>
      </trkpt>
      <trkpt lat="37.389092000" lon="-5.707040000">
        <ele>105.0</ele>
        <time>2020-10-11T12:02:40Z</time>
      </trkpt>
      <trkpt lat="37.389190000" lon="-5.706959000">
        <ele>104.9</ele>
        <time>2020-10-11T12:02:43Z</time>
      </trkpt>
      <trkpt lat="37.389288000" lon="-5.706868000">
        <ele>104.9</ele>
        <time>2020-10-11T12:02:46Z</time>
      </trkpt>
      <trkpt lat="37.389385000" lon="-5.706779000">
        <ele>104.9</ele>
        <time>2020-10-11T12:02:49Z</time>
      </trkpt>
      <trkpt lat="37.389451000" lon="-5.706719000">
        <ele>105.0</ele>
        <time>2020-10-11T12:02:51Z</time>
      </trkpt>
      <trkpt lat="37.389548000" lon="-5.706628000">
        <ele>105.2</ele>
        <time>2020-10-11T12:02:54Z</time>
      </trkpt>
      <trkpt lat="37.389647000" lon="-5.706541000">
        <ele>105.5</ele>
        <time>2020-10-11T12:02:57Z</time>
      </trkpt>
      <trkpt lat="37.389712000" lon="-5.706480000">
        <ele>105.8</ele>
        <time>2020-10-11T12:02:59Z</time>
      </trkpt>
      <trkpt lat="37.389777000" lon="-5.706419000">
        <ele>106.2</ele>
        <time>2020-10-11T12:03:01Z</time>
      </trkpt>
      <trkpt lat="37.389873000" lon="-5.706328000">
        <ele>106.5</ele>
        <time>2020-10-11T12:03:04Z</time>
      </trkpt>
      <trkpt lat="37.389969000" lon="-5.706242000">
        <ele>106.7</ele>
        <time>2020-10-11T12:03:07Z</time>
      </trkpt>
      <trkpt lat="37.390066000" lon="-5.706159000">
        <ele>107.0</ele>
        <time>2020-10-11T12:03:10Z</time>
      </trkpt>
      <trkpt lat="37.390162000" lon="-5.706083000">
        <ele>107.1</ele>
        <time>2020-10-11T12:03:13Z</time>
      </trkpt>
      <trkpt lat="37.390259000" lon="-5.706008000">
        <ele>107.0</ele>
        <time>2020-10-11T12:03:16Z</time>
      </trkpt>
      <trkpt lat="37.390356000" lon="-5.705926000">
        <ele>106.9</ele>
        <time>2020-10-11T12:03:19Z</time>
      </trkpt>
      <trkpt lat="37.390427000" lon="-5.705870000">
        <ele>106.6</ele>
        <time>2020-10-11T12:03:21Z</time>
      </trkpt>
      <trkpt lat="37.390497000" lon="-5.705809000">
        <ele>106.2</ele>
        <time>2020-10-11T12:03:23Z</time>
      </trkpt>
      <trkpt lat="37.390566000" lon="-5.705747000">
        <ele>105.7</ele>
        <time>2020-10-11T12:03:25Z</time>
      </trkpt>
      <trkpt lat="37.390636000" lon="-5.705683000">
        <ele>105.2</ele>
        <time>2020-10-11T12:03:27Z</time>
      </trkpt>
      <trkpt lat="37.390703000" lon="-5.705616000">
        <ele>104.6</ele>
        <time>2020-10-11T12:03:29Z</time>
      </trkpt>
      <trkpt lat="37.390766000" lon="-5.705553000">
        <ele>104.2</ele>
        <time>2020-10-11T12:03:31Z</time>
      </trkpt>
      <trkpt lat="37.390860000" lon="-5.705467000">
        <ele>103.7</ele>
        <time>2020-10-11T12:03:34Z</time>
      </trkpt>
      <trkpt lat="37.390957000" lon="-5.705374000">
        <ele>103.3</ele>
        <time>2020-10-11T12:03:37Z</time>
      </trkpt>
      <trkpt lat="37.391023000" lon="-5.705310000">
        <ele>102.9</ele>
        <time>2020-10-11T12:03:39Z</time>
      </trkpt>
      <trkpt lat="37.391089000" lon="-5.705243000">
        <ele>102.5</ele>
        <time>2020-10-11T12:03:41Z</time>
      </trkpt>
      <trkpt lat="37.391156000" lon="-5.705169000">
        <ele>102.2</ele>
        <time>2020-10-11T12:03:43Z</time>
      </trkpt>
      <trkpt lat="37.391226000" lon="-5.705094000">
        <ele>101.9</ele>
        <time>2020-10-11T12:03:45Z</time>
      </trkpt>
      <trkpt lat="37.391298000" lon="-5.705019000">
        <ele>101.7</ele>
        <time>2020-10-11T12:03:47Z</time>
      </trkpt>
      <trkpt lat="37.391364000" lon="-5.704941000">
        <ele>101.5</ele>
        <time>2020-10-11T12:03:49Z</time>
      </trkpt>
      <trkpt lat="37.391431000" lon="-5.704865000">
        <ele>101.5</ele>
        <time>2020-10-11T12:03:51Z</time>
      </trkpt>
      <trkpt lat="37.391492000" lon="-5.704786000">
        <ele>101.4</ele>
        <time>2020-10-11T12:03:53Z</time>
      </trkpt>
      <trkpt lat="37.391563000" lon="-5.704713000">
        <ele>101.2</ele>
        <time>2020-10-11T12:03:55Z</time>
      </trkpt>
      <trkpt lat="37.391629000" lon="-5.704635000">
        <ele>101.0</ele>
        <time>2020-10-11T12:03:57Z</time>
      </trkpt>
      <trkpt lat="37.391698000" lon="-5.704559000">
        <ele>100.7</ele>
        <time>2020-10-11T12:03:59Z</time>
      </trkpt>
      <trkpt lat="37.391770000" lon="-5.704478000">
        <ele>100.5</ele>
        <time>2020-10-11T12:04:01Z</time>
      </trkpt>
      <trkpt lat="37.391844000" lon="-5.704398000">
        <ele>100.2</ele>
        <time>2020-10-11T12:04:03Z</time>
      </trkpt>
      <trkpt lat="37.391920000" lon="-5.704314000">
        <ele>100.0</ele>
        <time>2020-10-11T12:04:05Z</time>
      </trkpt>
      <trkpt lat="37.391993000" lon="-5.704229000">
        <ele>99.8</ele>
        <time>2020-10-11T12:04:07Z</time>
      </trkpt>
      <trkpt lat="37.392071000" lon="-5.704144000">
        <ele>99.7</ele>
        <time>2020-10-11T12:04:09Z</time>
      </trkpt>
      <trkpt lat="37.392144000" lon="-5.704063000">
        <ele>99.7</ele>
        <time>2020-10-11T12:04:11Z</time>
      </trkpt>
      <trkpt lat="37.392207000" lon="-5.703979000">
        <ele>99.8</ele>
        <time>2020-10-11T12:04:13Z</time>
      </trkpt>
      <trkpt lat="37.392279000" lon="-5.703895000">
        <ele>100.0</ele>
        <time>2020-10-11T12:04:15Z</time>
      </trkpt>
      <trkpt lat="37.392353000" lon="-5.703813000">
        <ele>100.4</ele>
        <time>2020-10-11T12:04:17Z</time>
      </trkpt>
      <trkpt lat="37.392418000" lon="-5.703736000">
        <ele>100.8</ele>
        <time>2020-10-11T12:04:19Z</time>
      </trkpt>
      <trkpt lat="37.392475000" lon="-5.703659000">
        <ele>101.4</ele>
        <time>2020-10-11T12:04:21Z</time>
      </trkpt>
      <trkpt lat="37.392563000" lon="-5.703549000">
        <ele>101.8</ele>
        <time>2020-10-11T12:04:24Z</time>
      </trkpt>
      <trkpt lat="37.392623000" lon="-5.703475000">
        <ele>102.4</ele>
        <time>2020-10-11T12:04:26Z</time>
      </trkpt>
      <trkpt lat="37.392710000" lon="-5.703366000">
        <ele>102.7</ele>
        <time>2020-10-11T12:04:29Z</time>
      </trkpt>
      <trkpt lat="37.392770000" lon="-5.703293000">
        <ele>103.0</ele>
        <time>2020-10-11T12:04:31Z</time>
      </trkpt>
      <trkpt lat="37.392858000" lon="-5.703189000">
        <ele>103.2</ele>
        <time>2020-10-11T12:04:34Z</time>
      </trkpt>
      <trkpt lat="37.392945000" lon="-5.703087000">
        <ele>103.2</ele>
        <time>2020-10-11T12:04:37Z</time>
      </trkpt>
      <trkpt lat="37.393037000" lon="-5.702989000">
        <ele>103.1</ele>
        <time>2020-10-11T12:04:40Z</time>
      </trkpt>
      <trkpt lat="37.393127000" lon="-5.702888000">
        <ele>102.9</ele>
        <time>2020-10-11T12:04:43Z</time>
      </trkpt>
      <trkpt lat="37.393186000" lon="-5.702814000">
        <ele>102.6</ele>
        <time>2020-10-11T12:04:45Z</time>
      </trkpt>
      <trkpt lat="37.393270000" lon="-5.702711000">
        <ele>102.3</ele>
        <time>2020-10-11T12:04:48Z</time>
      </trkpt>
      <trkpt lat="37.393355000" lon="-5.702616000">
        <ele>101.9</ele>
        <time>2020-10-11T12:04:51Z</time>
      </trkpt>
      <trkpt lat="37.393422000" lon="-5.702543000">
        <ele>101.6</ele>
        <time>2020-10-11T12:04:53Z</time>
      </trkpt>
      <trkpt lat="37.393489000" lon="-5.702461000">
        <ele>101.4</ele>
        <time>2020-10-11T12:04:55Z</time>
      </trkpt>
      <trkpt lat="37.393550000" lon="-5.702377000">
        <ele>101.2</ele>
        <time>2020-10-11T12:04:57Z</time>
      </trkpt>
      <trkpt lat="37.393619000" lon="-5.702292000">
        <ele>101.1</ele>
        <time>2020-10-11T12:04:59Z</time>
      </trkpt>
      <trkpt lat="37.393685000" lon="-5.702216000">
        <ele>100.9</ele>
        <time>2020-10-11T12:05:01Z</time>
      </trkpt>
      <trkpt lat="37.393761000" lon="-5.702139000">
        <ele>100.8</ele>
        <time>2020-10-11T12:05:03Z</time>
      </trkpt>
      <trkpt lat="37.393835000" lon="-5.702060000">
        <ele>100.7</ele>
        <time>2020-10-11T12:05:05Z</time>
      </trkpt>
      <trkpt lat="37.393907000" lon="-5.701970000">
        <ele>100.6</ele>
        <time>2020-10-11T12:05:07Z</time>
      </trkpt>
      <trkpt lat="37.393976000" lon="-5.701889000">
        <ele>100.5</ele>
        <time>2020-10-11T12:05:09Z</time>
      </trkpt>
      <trkpt lat="37.394051000" lon="-5.701806000">
        <ele>100.5</ele>
        <time>2020-10-11T12:05:11Z</time>
      </trkpt>
      <trkpt lat="37.394123000" lon="-5.701720000">
        <ele>100.4</ele>
        <time>2020-10-11T12:05:13Z</time>
      </trkpt>
      <trkpt lat="37.394190000" lon="-5.701630000">
        <ele>100.3</ele>
        <time>2020-10-11T12:05:15Z</time>
      </trkpt>
      <trkpt lat="37.394262000" lon="-5.701543000">
        <ele>100.3</ele>
        <time>2020-10-11T12:05:17Z</time>
      </trkpt>
      <trkpt lat="37.394333000" lon="-5.701460000">
        <ele>100.4</ele>
        <time>2020-10-11T12:05:19Z</time>
      </trkpt>
      <trkpt lat="37.394408000" lon="-5.701377000">
        <ele>100.5</ele>
        <time>2020-10-11T12:05:21Z</time>
      </trkpt>
      <trkpt lat="37.394477000" lon="-5.701299000">
        <ele>100.6</ele>
        <time>2020-10-11T12:05:23Z</time>
      </trkpt>
      <trkpt lat="37.394543000" lon="-5.701218000">
        <ele>100.9</ele>
        <time>2020-10-11T12:05:25Z</time>
      </trkpt>
      <trkpt lat="37.394616000" lon="-5.701132000">
        <ele>101.1</ele>
        <time>2020-10-11T12:05:27Z</time>
      </trkpt>
      <trkpt lat="37.394680000" lon="-5.701055000">
        <ele>101.3</ele>
        <time>2020-10-11T12:05:29Z</time>
      </trkpt>
      <trkpt lat="37.394746000" lon="-5.700978000">
        <ele>101.4</ele>
        <time>2020-10-11T12:05:31Z</time>
      </trkpt>
      <trkpt lat="37.394809000" lon="-5.700908000">
        <ele>101.5</ele>
        <time>2020-10-11T12:05:33Z</time>
      </trkpt>
      <trkpt lat="37.394879000" lon="-5.700830000">
        <ele>101.5</ele>
        <time>2020-10-11T12:05:35Z</time>
      </trkpt>
      <trkpt lat="37.394946000" lon="-5.700756000">
        <ele>101.4</ele>
        <time>2020-10-11T12:05:37Z</time>
      </trkpt>
      <trkpt lat="37.395027000" lon="-5.700639000">
        <ele>101.2</ele>
        <time>2020-10-11T12:05:40Z</time>
      </trkpt>
      <trkpt lat="37.395083000" lon="-5.700562000">
        <ele>100.8</ele>
        <time>2020-10-11T12:05:42Z</time>
      </trkpt>
      <trkpt lat="37.395143000" lon="-5.700489000">
        <ele>100.5</ele>
        <time>2020-10-11T12:05:44Z</time>
      </trkpt>
      <trkpt lat="37.395201000" lon="-5.700418000">
        <ele>100.1</ele>
        <time>2020-10-11T12:05:46Z</time>
      </trkpt>
      <trkpt lat="37.395265000" lon="-5.700342000">
        <ele>99.6</ele>
        <time>2020-10-11T12:05:48Z</time>
      </trkpt>
      <trkpt lat="37.395336000" lon="-5.700269000">
        <ele>99.4</ele>
        <time>2020-10-11T12:05:50Z</time>
      </trkpt>
      <trkpt lat="37.395401000" lon="-5.700192000">
        <ele>99.2</ele>
        <time>2020-10-11T12:05:52Z</time>
      </trkpt>
      <trkpt lat="37.395470000" lon="-5.700111000">
        <ele>99.1</ele>
        <time>2020-10-11T12:05:54Z</time>
      </trkpt>
      <trkpt lat="37.395533000" lon="-5.700031000">
        <ele>99.0</ele>
        <time>2020-10-11T12:05:56Z</time>
      </trkpt>
      <trkpt lat="37.395600000" lon="-5.699954000">
        <ele>99.0</ele>
        <time>2020-10-11T12:05:58Z</time>
      </trkpt>
      <trkpt lat="37.395666000" lon="-5.699879000">
        <ele>99.2</ele>
        <time>2020-10-11T12:06:00Z</time>
      </trkpt>
      <trkpt lat="37.395728000" lon="-5.699805000">
        <ele>99.4</ele>
        <time>2020-10-11T12:06:02Z</time>
      </trkpt>
      <trkpt lat="37.395791000" lon="-5.699737000">
        <ele>99.6</ele>
        <time>2020-10-11T12:06:04Z</time>
      </trkpt>
      <trkpt lat="37.395849000" lon="-5.699663000">
        <ele>99.9</ele>
        <time>2020-10-11T12:06:06Z</time>
      </trkpt>
      <trkpt lat="37.395917000" lon="-5.699600000">
        <ele>100.2</ele>
        <time>2020-10-11T12:06:08Z</time>
      </trkpt>
      <trkpt lat="37.395977000" lon="-5.699522000">
        <ele>100.5</ele>
        <time>2020-10-11T12:06:10Z</time>
      </trkpt>
      <trkpt lat="37.396042000" lon="-5.699442000">
        <ele>100.6</ele>
        <time>2020-10-11T12:06:12Z</time>
      </trkpt>
      <trkpt lat="37.396107000" lon="-5.699359000">
        <ele>100.7</ele>
        <time>2020-10-11T12:06:14Z</time>
      </trkpt>
      <trkpt lat="37.396176000" lon="-5.699279000">
        <ele>100.8</ele>
        <time>2020-10-11T12:06:16Z</time>
      </trkpt>
      <trkpt lat="37.396237000" lon="-5.699198000">
        <ele>100.9</ele>
        <time>2020-10-11T12:06:18Z</time>
      </trkpt>
      <trkpt lat="37.396304000" lon="-5.699116000">
        <ele>101.0</ele>
        <time>2020-10-11T12:06:20Z</time>
      </trkpt>
      <trkpt lat="37.396366000" lon="-5.699038000">
        <ele>101.0</ele>
        <time>2020-10-11T12:06:22Z</time>
      </trkpt>
      <trkpt lat="37.396437000" lon="-5.698961000">
        <ele>101.0</ele>
        <time>2020-10-11T12:06:24Z</time>
      </trkpt>
      <trkpt lat="37.396503000" lon="-5.698878000">
        <ele>101.0</ele>
        <time>2020-10-11T12:06:26Z</time>
      </trkpt>
      <trkpt lat="37.396566000" lon="-5.698800000">
        <ele>101.1</ele>
        <time>2020-10-11T12:06:28Z</time>
      </trkpt>
      <trkpt lat="37.396634000" lon="-5.698725000">
        <ele>101.2</ele>
        <time>2020-10-11T12:06:30Z</time>
      </trkpt>
      <trkpt lat="37.396692000" lon="-5.698650000">
        <ele>101.3</ele>
        <time>2020-10-11T12:06:32Z</time>
      </trkpt>
      <trkpt lat="37.396756000" lon="-5.698572000">
        <ele>101.4</ele>
        <time>2020-10-11T12:06:34Z</time>
      </trkpt>
      <trkpt lat="37.396826000" lon="-5.698497000">
        <ele>101.5</ele>
        <time>2020-10-11T12:06:36Z</time>
      </trkpt>
      <trkpt lat="37.396893000" lon="-5.698416000">
        <ele>101.5</ele>
        <time>2020-10-11T12:06:38Z</time>
      </trkpt>
      <trkpt lat="37.396959000" lon="-5.698341000">
        <ele>101.5</ele>
        <time>2020-10-11T12:06:40Z</time>
      </trkpt>
      <trkpt lat="37.397029000" lon="-5.698263000">
        <ele>101.5</ele>
        <time>2020-10-11T12:06:42Z</time>
      </trkpt>
      <trkpt lat="37.397094000" lon="-5.698187000">
        <ele>101.5</ele>
        <time>2020-10-11T12:06:44Z</time>
      </trkpt>
      <trkpt lat="37.397158000" lon="-5.698105000">
        <ele>101.4</ele>
        <time>2020-10-11T12:06:46Z</time>
      </trkpt>
      <trkpt lat="37.397227000" lon="-5.698026000">
        <ele>101.2</ele>
        <time>2020-10-11T12:06:48Z</time>
      </trkpt>
      <trkpt lat="37.397292000" lon="-5.697949000">
        <ele>100.9</ele>
        <time>2020-10-11T12:06:50Z</time>
      </trkpt>
      <trkpt lat="37.397361000" lon="-5.697868000">
        <ele>100.5</ele>
        <time>2020-10-11T12:06:52Z</time>
      </trkpt>
      <trkpt lat="37.397431000" lon="-5.697784000">
        <ele>100.1</ele>
        <time>2020-10-11T12:06:54Z</time>
      </trkpt>
      <trkpt lat="37.397502000" lon="-5.697702000">
        <ele>99.6</ele>
        <time>2020-10-11T12:06:56Z</time>
      </trkpt>
      <trkpt lat="37.397566000" lon="-5.697614000">
        <ele>99.2</ele>
        <time>2020-10-11T12:06:58Z</time>
      </trkpt>
      <trkpt lat="37.397632000" lon="-5.697534000">
        <ele>98.7</ele>
        <time>2020-10-11T12:07:00Z</time>
      </trkpt>
      <trkpt lat="37.397694000" lon="-5.697453000">
        <ele>98.5</ele>
        <time>2020-10-11T12:07:02Z</time>
      </trkpt>
      <trkpt lat="37.397759000" lon="-5.697375000">
        <ele>98.2</ele>
        <time>2020-10-11T12:07:04Z</time>
      </trkpt>
      <trkpt lat="37.397825000" lon="-5.697297000">
        <ele>98.0</ele>
        <time>2020-10-11T12:07:06Z</time>
      </trkpt>
      <trkpt lat="37.397888000" lon="-5.697220000">
        <ele>97.8</ele>
        <time>2020-10-11T12:07:08Z</time>
      </trkpt>
      <trkpt lat="37.397954000" lon="-5.697147000">
        <ele>97.7</ele>
        <time>2020-10-11T12:07:10Z</time>
      </trkpt>
      <trkpt lat="37.398020000" lon="-5.697063000">
        <ele>97.6</ele>
        <time>2020-10-11T12:07:12Z</time>
      </trkpt>
      <trkpt lat="37.398095000" lon="-5.696983000">
        <ele>97.6</ele>
        <time>2020-10-11T12:07:14Z</time>
      </trkpt>
      <trkpt lat="37.398163000" lon="-5.696906000">
        <ele>97.6</ele>
        <time>2020-10-11T12:07:16Z</time>
      </trkpt>
      <trkpt lat="37.398228000" lon="-5.696830000">
        <ele>97.6</ele>
        <time>2020-10-11T12:07:18Z</time>
      </trkpt>
      <trkpt lat="37.398290000" lon="-5.696754000">
        <ele>97.6</ele>
        <time>2020-10-11T12:07:20Z</time>
      </trkpt>
      <trkpt lat="37.398355000" lon="-5.696679000">
        <ele>97.5</ele>
        <time>2020-10-11T12:07:22Z</time>
      </trkpt>
      <trkpt lat="37.398424000" lon="-5.696600000">
        <ele>97.4</ele>
        <time>2020-10-11T12:07:24Z</time>
      </trkpt>
      <trkpt lat="37.398487000" lon="-5.696515000">
        <ele>97.2</ele>
        <time>2020-10-11T12:07:26Z</time>
      </trkpt>
      <trkpt lat="37.398564000" lon="-5.696428000">
        <ele>97.0</ele>
        <time>2020-10-11T12:07:28Z</time>
      </trkpt>
      <trkpt lat="37.398632000" lon="-5.696340000">
        <ele>96.8</ele>
        <time>2020-10-11T12:07:30Z</time>
      </trkpt>
      <trkpt lat="37.398702000" lon="-5.696246000">
        <ele>96.5</ele>
        <time>2020-10-11T12:07:32Z</time>
      </trkpt>
      <trkpt lat="37.398776000" lon="-5.696151000">
        <ele>96.3</ele>
        <time>2020-10-11T12:07:34Z</time>
      </trkpt>
      <trkpt lat="37.398854000" lon="-5.696057000">
        <ele>96.0</ele>
        <time>2020-10-11T12:07:36Z</time>
      </trkpt>
      <trkpt lat="37.398923000" lon="-5.695965000">
        <ele>95.8</ele>
        <time>2020-10-11T12:07:38Z</time>
      </trkpt>
      <trkpt lat="37.398993000" lon="-5.695873000">
        <ele>95.6</ele>
        <time>2020-10-11T12:07:40Z</time>
      </trkpt>
      <trkpt lat="37.399069000" lon="-5.695783000">
        <ele>95.5</ele>
        <time>2020-10-11T12:07:42Z</time>
      </trkpt>
      <trkpt lat="37.399146000" lon="-5.695694000">
        <ele>95.5</ele>
        <time>2020-10-11T12:07:44Z</time>
      </trkpt>
      <trkpt lat="37.399220000" lon="-5.695599000">
        <ele>95.5</ele>
        <time>2020-10-11T12:07:46Z</time>
      </trkpt>
      <trkpt lat="37.399299000" lon="-5.695506000">
        <ele>95.5</ele>
        <time>2020-10-11T12:07:48Z</time>
      </trkpt>
      <trkpt lat="37.399380000" lon="-5.695416000">
        <ele>95.5</ele>
        <time>2020-10-11T12:07:50Z</time>
      </trkpt>
      <trkpt lat="37.399463000" lon="-5.695324000">
        <ele>95.5</ele>
        <time>2020-10-11T12:07:52Z</time>
      </trkpt>
      <trkpt lat="37.399546000" lon="-5.695228000">
        <ele>95.5</ele>
        <time>2020-10-11T12:07:54Z</time>
      </trkpt>
      <trkpt lat="37.399626000" lon="-5.695136000">
        <ele>95.4</ele>
        <time>2020-10-11T12:07:56Z</time>
      </trkpt>
      <trkpt lat="37.399706000" lon="-5.695044000">
        <ele>95.3</ele>
        <time>2020-10-11T12:07:58Z</time>
      </trkpt>
      <trkpt lat="37.399783000" lon="-5.694946000">
        <ele>95.1</ele>
        <time>2020-10-11T12:08:00Z</time>
      </trkpt>
      <trkpt lat="37.399865000" lon="-5.694850000">
        <ele>94.9</ele>
        <time>2020-10-11T12:08:02Z</time>
      </trkpt>
      <trkpt lat="37.399948000" lon="-5.694753000">
        <ele>94.6</ele>
        <time>2020-10-11T12:08:04Z</time>
      </trkpt>
      <trkpt lat="37.400026000" lon="-5.694660000">
        <ele>94.3</ele>
        <time>2020-10-11T12:08:06Z</time>
      </trkpt>
      <trkpt lat="37.400101000" lon="-5.694571000">
        <ele>93.9</ele>
        <time>2020-10-11T12:08:08Z</time>
      </trkpt>
      <trkpt lat="37.400180000" lon="-5.694476000">
        <ele>93.5</ele>
        <time>2020-10-11T12:08:10Z</time>
      </trkpt>
      <trkpt lat="37.400258000" lon="-5.694384000">
        <ele>93.2</ele>
        <time>2020-10-11T12:08:12Z</time>
      </trkpt>
      <trkpt lat="37.400337000" lon="-5.694294000">
        <ele>92.8</ele>
        <time>2020-10-11T12:08:14Z</time>
      </trkpt>
      <trkpt lat="37.400412000" lon="-5.694207000">
        <ele>92.5</ele>
        <time>2020-10-11T12:08:16Z</time>
      </trkpt>
      <trkpt lat="37.400489000" lon="-5.694123000">
        <ele>92.5</ele>
        <time>2020-10-11T12:08:18Z</time>
      </trkpt>
      <trkpt lat="37.400563000" lon="-5.694042000">
        <ele>92.4</ele>
        <time>2020-10-11T12:08:20Z</time>
      </trkpt>
      <trkpt lat="37.400642000" lon="-5.693959000">
        <ele>92.4</ele>
        <time>2020-10-11T12:08:22Z</time>
      </trkpt>
      <trkpt lat="37.400718000" lon="-5.693876000">
        <ele>92.4</ele>
        <time>2020-10-11T12:08:24Z</time>
      </trkpt>
      <trkpt lat="37.400792000" lon="-5.693790000">
        <ele>92.5</ele>
        <time>2020-10-11T12:08:26Z</time>
      </trkpt>
      <trkpt lat="37.400864000" lon="-5.693714000">
        <ele>92.6</ele>
        <time>2020-10-11T12:08:28Z</time>
      </trkpt>
      <trkpt lat="37.400931000" lon="-5.693634000">
        <ele>92.8</ele>
        <time>2020-10-11T12:08:30Z</time>
      </trkpt>
      <trkpt lat="37.401001000" lon="-5.693555000">
        <ele>92.9</ele>
        <time>2020-10-11T12:08:32Z</time>
      </trkpt>
      <trkpt lat="37.401069000" lon="-5.693475000">
        <ele>93.0</ele>
        <time>2020-10-11T12:08:34Z</time>
      </trkpt>
      <trkpt lat="37.401135000" lon="-5.693403000">
        <ele>93.1</ele>
        <time>2020-10-11T12:08:36Z</time>
      </trkpt>
      <trkpt lat="37.401191000" lon="-5.693325000">
        <ele>93.2</ele>
        <time>2020-10-11T12:08:38Z</time>
      </trkpt>
      <trkpt lat="37.401275000" lon="-5.693227000">
        <ele>93.2</ele>
        <time>2020-10-11T12:08:41Z</time>
      </trkpt>
      <trkpt lat="37.401333000" lon="-5.693151000">
        <ele>93.2</ele>
        <time>2020-10-11T12:08:43Z</time>
      </trkpt>
      <trkpt lat="37.401416000" lon="-5.693063000">
        <ele>93.2</ele>
        <time>2020-10-11T12:08:46Z</time>
      </trkpt>
      <trkpt lat="37.401496000" lon="-5.692976000">
        <ele>93.2</ele>
        <time>2020-10-11T12:08:49Z</time>
      </trkpt>
      <trkpt lat="37.401570000" lon="-5.692876000">
        <ele>93.2</ele>
        <time>2020-10-11T12:08:52Z</time>
      </trkpt>
      <trkpt lat="37.401647000" lon="-5.692786000">
        <ele>93.1</ele>
        <time>2020-10-11T12:08:55Z</time>
      </trkpt>
      <trkpt lat="37.401723000" lon="-5.692697000">
        <ele>93.1</ele>
        <time>2020-10-11T12:08:58Z</time>
      </trkpt>
      <trkpt lat="37.401803000" lon="-5.692608000">
        <ele>93.2</ele>
        <time>2020-10-11T12:09:01Z</time>
      </trkpt>
      <trkpt lat="37.401886000" lon="-5.692523000">
        <ele>93.3</ele>
        <time>2020-10-11T12:09:04Z</time>
      </trkpt>
      <trkpt lat="37.401954000" lon="-5.692425000">
        <ele>93.4</ele>
        <time>2020-10-11T12:09:07Z</time>
      </trkpt>
      <trkpt lat="37.402028000" lon="-5.692334000">
        <ele>93.5</ele>
        <time>2020-10-11T12:09:10Z</time>
      </trkpt>
      <trkpt lat="37.402104000" lon="-5.692240000">
        <ele>93.8</ele>
        <time>2020-10-11T12:09:13Z</time>
      </trkpt>
      <trkpt lat="37.402185000" lon="-5.692148000">
        <ele>94.0</ele>
        <time>2020-10-11T12:09:16Z</time>
      </trkpt>
      <trkpt lat="37.402262000" lon="-5.692053000">
        <ele>94.2</ele>
        <time>2020-10-11T12:09:19Z</time>
      </trkpt>
      <trkpt lat="37.402341000" lon="-5.691963000">
        <ele>94.3</ele>
        <time>2020-10-11T12:09:22Z</time>
      </trkpt>
      <trkpt lat="37.402417000" lon="-5.691867000">
        <ele>94.4</ele>
        <time>2020-10-11T12:09:25Z</time>
      </trkpt>
      <trkpt lat="37.402494000" lon="-5.691776000">
        <ele>94.5</ele>
        <time>2020-10-11T12:09:28Z</time>
      </trkpt>
      <trkpt lat="37.402570000" lon="-5.691685000">
        <ele>94.4</ele>
        <time>2020-10-11T12:09:31Z</time>
      </trkpt>
      <trkpt lat="37.402649000" lon="-5.691599000">
        <ele>94.3</ele>
        <time>2020-10-11T12:09:34Z</time>
      </trkpt>
      <trkpt lat="37.402726000" lon="-5.691505000">
        <ele>94.3</ele>
        <time>2020-10-11T12:09:37Z</time>
      </trkpt>
      <trkpt lat="37.402799000" lon="-5.691406000">
        <ele>94.3</ele>
        <time>2020-10-11T12:09:40Z</time>
      </trkpt>
      <trkpt lat="37.402880000" lon="-5.691315000">
        <ele>94.3</ele>
        <time>2020-10-11T12:09:43Z</time>
      </trkpt>
      <trkpt lat="37.402957000" lon="-5.691222000">
        <ele>94.2</ele>
        <time>2020-10-11T12:09:46Z</time>
      </trkpt>
      <trkpt lat="37.403032000" lon="-5.691130000">
        <ele>94.2</ele>
        <time>2020-10-11T12:09:49Z</time>
      </trkpt>
      <trkpt lat="37.403110000" lon="-5.691038000">
        <ele>94.2</ele>
        <time>2020-10-11T12:09:52Z</time>
      </trkpt>
      <trkpt lat="37.403192000" lon="-5.690946000">
        <ele>94.3</ele>
        <time>2020-10-11T12:09:55Z</time>
      </trkpt>
      <trkpt lat="37.403271000" lon="-5.690852000">
        <ele>94.4</ele>
        <time>2020-10-11T12:09:58Z</time>
      </trkpt>
      <trkpt lat="37.403350000" lon="-5.690761000">
        <ele>94.5</ele>
        <time>2020-10-11T12:10:01Z</time>
      </trkpt>
      <trkpt lat="37.403428000" lon="-5.690664000">
        <ele>94.6</ele>
        <time>2020-10-11T12:10:04Z</time>
      </trkpt>
      <trkpt lat="37.403506000" lon="-5.690568000">
        <ele>94.8</ele>
        <time>2020-10-11T12:10:07Z</time>
      </trkpt>
      <trkpt lat="37.403587000" lon="-5.690475000">
        <ele>94.9</ele>
        <time>2020-10-11T12:10:10Z</time>
      </trkpt>
      <trkpt lat="37.403667000" lon="-5.690386000">
        <ele>95.1</ele>
        <time>2020-10-11T12:10:13Z</time>
      </trkpt>
      <trkpt lat="37.403743000" lon="-5.690293000">
        <ele>95.3</ele>
        <time>2020-10-11T12:10:16Z</time>
      </trkpt>
      <trkpt lat="37.403825000" lon="-5.690193000">
        <ele>95.5</ele>
        <time>2020-10-11T12:10:19Z</time>
      </trkpt>
      <trkpt lat="37.403908000" lon="-5.690097000">
        <ele>95.6</ele>
        <time>2020-10-11T12:10:22Z</time>
      </trkpt>
      <trkpt lat="37.403988000" lon="-5.689997000">
        <ele>95.8</ele>
        <time>2020-10-11T12:10:25Z</time>
      </trkpt>
      <trkpt lat="37.404064000" lon="-5.689903000">
        <ele>96.0</ele>
        <time>2020-10-11T12:10:28Z</time>
      </trkpt>
      <trkpt lat="37.404140000" lon="-5.689812000">
        <ele>96.2</ele>
        <time>2020-10-11T12:10:31Z</time>
      </trkpt>
      <trkpt lat="37.404218000" lon="-5.689722000">
        <ele>96.4</ele>
        <time>2020-10-11T12:10:34Z</time>
      </trkpt>
      <trkpt lat="37.404293000" lon="-5.689630000">
        <ele>96.5</ele>
        <time>2020-10-11T12:10:37Z</time>
      </trkpt>
      <trkpt lat="37.404366000" lon="-5.689545000">
        <ele>96.7</ele>
        <time>2020-10-11T12:10:40Z</time>
      </trkpt>
      <trkpt lat="37.404440000" lon="-5.689453000">
        <ele>97.0</ele>
        <time>2020-10-11T12:10:43Z</time>
      </trkpt>
      <trkpt lat="37.404520000" lon="-5.689356000">
        <ele>97.2</ele>
        <time>2020-10-11T12:10:46Z</time>
      </trkpt>
      <trkpt lat="37.404596000" lon="-5.689259000">
        <ele>97.4</ele>
        <time>2020-10-11T12:10:49Z</time>
      </trkpt>
      <trkpt lat="37.404671000" lon="-5.689172000">
        <ele>97.5</ele>
        <time>2020-10-11T12:10:52Z</time>
      </trkpt>
      <trkpt lat="37.404743000" lon="-5.689096000">
        <ele>97.8</ele>
        <time>2020-10-11T12:10:56Z</time>
      </trkpt>
      <trkpt lat="37.404805000" lon="-5.689020000">
        <ele>98.1</ele>
        <time>2020-10-11T12:10:58Z</time>
      </trkpt>
      <trkpt lat="37.404873000" lon="-5.688944000">
        <ele>98.5</ele>
        <time>2020-10-11T12:11:01Z</time>
      </trkpt>
      <trkpt lat="37.404942000" lon="-5.688872000">
        <ele>98.8</ele>
        <time>2020-10-11T12:11:04Z</time>
      </trkpt>
      <trkpt lat="37.405008000" lon="-5.688801000">
        <ele>99.3</ele>
        <time>2020-10-11T12:11:07Z</time>
      </trkpt>
      <trkpt lat="37.405078000" lon="-5.688724000">
        <ele>99.8</ele>
        <time>2020-10-11T12:11:10Z</time>
      </trkpt>
      <trkpt lat="37.405144000" lon="-5.688659000">
        <ele>100.5</ele>
        <time>2020-10-11T12:11:13Z</time>
      </trkpt>
      <trkpt lat="37.405204000" lon="-5.688585000">
        <ele>101.0</ele>
        <time>2020-10-11T12:11:16Z</time>
      </trkpt>
      <trkpt lat="37.405276000" lon="-5.688495000">
        <ele>101.6</ele>
        <time>2020-10-11T12:11:20Z</time>
      </trkpt>
      <trkpt lat="37.405353000" lon="-5.688412000">
        <ele>102.3</ele>
        <time>2020-10-11T12:11:24Z</time>
      </trkpt>
      <trkpt lat="37.405413000" lon="-5.688337000">
        <ele>102.9</ele>
        <time>2020-10-11T12:11:27Z</time>
      </trkpt>
      <trkpt lat="37.405480000" lon="-5.688259000">
        <ele>103.5</ele>
        <time>2020-10-11T12:11:30Z</time>
      </trkpt>
      <trkpt lat="37.405542000" lon="-5.688181000">
        <ele>104.2</ele>
        <time>2020-10-11T12:11:33Z</time>
      </trkpt>
      <trkpt lat="37.405602000" lon="-5.688102000">
        <ele>104.7</ele>
        <time>2020-10-11T12:11:36Z</time>
      </trkpt>
      <trkpt lat="37.405664000" lon="-5.688025000">
        <ele>105.4</ele>
        <time>2020-10-11T12:11:39Z</time>
      </trkpt>
      <trkpt lat="37.405726000" lon="-5.687948000">
        <ele>105.8</ele>
        <time>2020-10-11T12:11:42Z</time>
      </trkpt>
      <trkpt lat="37.405798000" lon="-5.687879000">
        <ele>106.2</ele>
        <time>2020-10-11T12:11:45Z</time>
      </trkpt>
      <trkpt lat="37.405874000" lon="-5.687813000">
        <ele>106.5</ele>
        <time>2020-10-11T12:11:48Z</time>
      </trkpt>
      <trkpt lat="37.405948000" lon="-5.687762000">
        <ele>106.9</ele>
        <time>2020-10-11T12:11:51Z</time>
      </trkpt>
      <trkpt lat="37.406038000" lon="-5.687693000">
        <ele>107.1</ele>
        <time>2020-10-11T12:11:55Z</time>
      </trkpt>
      <trkpt lat="37.406127000" lon="-5.687619000">
        <ele>107.2</ele>
        <time>2020-10-11T12:11:59Z</time>
      </trkpt>
      <trkpt lat="37.406195000" lon="-5.687553000">
        <ele>107.2</ele>
        <time>2020-10-11T12:12:02Z</time>
      </trkpt>
      <trkpt lat="37.406268000" lon="-5.687484000">
        <ele>107.0</ele>
        <time>2020-10-11T12:12:05Z</time>
      </trkpt>
      <trkpt lat="37.406349000" lon="-5.687418000">
        <ele>106.7</ele>
        <time>2020-10-11T12:12:08Z</time>
      </trkpt>
      <trkpt lat="37.406429000" lon="-5.687352000">
        <ele>106.4</ele>
        <time>2020-10-11T12:12:11Z</time>
      </trkpt>
      <trkpt lat="37.406501000" lon="-5.687283000">
        <ele>105.8</ele>
        <time>2020-10-11T12:12:14Z</time>
      </trkpt>
      <trkpt lat="37.406581000" lon="-5.687194000">
        <ele>105.3</ele>
        <time>2020-10-11T12:12:17Z</time>
      </trkpt>
      <trkpt lat="37.406673000" lon="-5.687101000">
        <ele>104.6</ele>
        <time>2020-10-11T12:12:20Z</time>
      </trkpt>
      <trkpt lat="37.406767000" lon="-5.687012000">
        <ele>103.9</ele>
        <time>2020-10-11T12:12:23Z</time>
      </trkpt>
      <trkpt lat="37.406868000" lon="-5.686941000">
        <ele>103.1</ele>
        <time>2020-10-11T12:12:26Z</time>
      </trkpt>
      <trkpt lat="37.406936000" lon="-5.686885000">
        <ele>102.3</ele>
        <time>2020-10-11T12:12:28Z</time>
      </trkpt>
      <trkpt lat="37.407000000" lon="-5.686820000">
        <ele>101.5</ele>
        <time>2020-10-11T12:12:30Z</time>
      </trkpt>
      <trkpt lat="37.407069000" lon="-5.686765000">
        <ele>100.6</ele>
        <time>2020-10-11T12:12:32Z</time>
      </trkpt>
      <trkpt lat="37.407131000" lon="-5.686697000">
        <ele>99.9</ele>
        <time>2020-10-11T12:12:34Z</time>
      </trkpt>
      <trkpt lat="37.407191000" lon="-5.686618000">
        <ele>99.2</ele>
        <time>2020-10-11T12:12:36Z</time>
      </trkpt>
      <trkpt lat="37.407266000" lon="-5.686554000">
        <ele>98.5</ele>
        <time>2020-10-11T12:12:38Z</time>
      </trkpt>
      <trkpt lat="37.407345000" lon="-5.686492000">
        <ele>97.9</ele>
        <time>2020-10-11T12:12:40Z</time>
      </trkpt>
      <trkpt lat="37.407423000" lon="-5.686423000">
        <ele>97.4</ele>
        <time>2020-10-11T12:12:42Z</time>
      </trkpt>
      <trkpt lat="37.407503000" lon="-5.686355000">
        <ele>96.8</ele>
        <time>2020-10-11T12:12:44Z</time>
      </trkpt>
      <trkpt lat="37.407585000" lon="-5.686285000">
        <ele>96.3</ele>
        <time>2020-10-11T12:12:46Z</time>
      </trkpt>
      <trkpt lat="37.407667000" lon="-5.686225000">
        <ele>95.7</ele>
        <time>2020-10-11T12:12:48Z</time>
      </trkpt>
      <trkpt lat="37.407744000" lon="-5.686159000">
        <ele>95.3</ele>
        <time>2020-10-11T12:12:50Z</time>
      </trkpt>
      <trkpt lat="37.407814000" lon="-5.686091000">
        <ele>94.8</ele>
        <time>2020-10-11T12:12:52Z</time>
      </trkpt>
      <trkpt lat="37.407895000" lon="-5.686024000">
        <ele>94.5</ele>
        <time>2020-10-11T12:12:54Z</time>
      </trkpt>
      <trkpt lat="37.407974000" lon="-5.685952000">
        <ele>94.3</ele>
        <time>2020-10-11T12:12:56Z</time>
      </trkpt>
      <trkpt lat="37.408054000" lon="-5.685883000">
        <ele>94.2</ele>
        <time>2020-10-11T12:12:58Z</time>
      </trkpt>
      <trkpt lat="37.408137000" lon="-5.685813000">
        <ele>94.1</ele>
        <time>2020-10-11T12:13:00Z</time>
      </trkpt>
      <trkpt lat="37.408218000" lon="-5.685734000">
        <ele>94.1</ele>
        <time>2020-10-11T12:13:02Z</time>
      </trkpt>
      <trkpt lat="37.408304000" lon="-5.685660000">
        <ele>94.1</ele>
        <time>2020-10-11T12:13:04Z</time>
      </trkpt>
      <trkpt lat="37.408388000" lon="-5.685581000">
        <ele>94.2</ele>
        <time>2020-10-11T12:13:06Z</time>
      </trkpt>
      <trkpt lat="37.408473000" lon="-5.685505000">
        <ele>94.3</ele>
        <time>2020-10-11T12:13:08Z</time>
      </trkpt>
      <trkpt lat="37.408559000" lon="-5.685435000">
        <ele>94.4</ele>
        <time>2020-10-11T12:13:10Z</time>
      </trkpt>
      <trkpt lat="37.408642000" lon="-5.685355000">
        <ele>94.5</ele>
        <time>2020-10-11T12:13:12Z</time>
      </trkpt>
      <trkpt lat="37.408724000" lon="-5.685281000">
        <ele>94.5</ele>
        <time>2020-10-11T12:13:14Z</time>
      </trkpt>
      <trkpt lat="37.408812000" lon="-5.685207000">
        <ele>94.5</ele>
        <time>2020-10-11T12:13:16Z</time>
      </trkpt>
      <trkpt lat="37.408897000" lon="-5.685132000">
        <ele>94.4</ele>
        <time>2020-10-11T12:13:18Z</time>
      </trkpt>
      <trkpt lat="37.408986000" lon="-5.685053000">
        <ele>94.2</ele>
        <time>2020-10-11T12:13:20Z</time>
      </trkpt>
      <trkpt lat="37.409073000" lon="-5.684976000">
        <ele>94.0</ele>
        <time>2020-10-11T12:13:22Z</time>
      </trkpt>
      <trkpt lat="37.409158000" lon="-5.684900000">
        <ele>93.8</ele>
        <time>2020-10-11T12:13:24Z</time>
      </trkpt>
      <trkpt lat="37.409243000" lon="-5.684819000">
        <ele>93.7</ele>
        <time>2020-10-11T12:13:26Z</time>
      </trkpt>
      <trkpt lat="37.409335000" lon="-5.684737000">
        <ele>93.6</ele>
        <time>2020-10-11T12:13:28Z</time>
      </trkpt>
      <trkpt lat="37.409423000" lon="-5.684666000">
        <ele>93.6</ele>
        <time>2020-10-11T12:13:30Z</time>
      </trkpt>
      <trkpt lat="37.409504000" lon="-5.684588000">
        <ele>93.7</ele>
        <time>2020-10-11T12:13:32Z</time>
      </trkpt>
      <trkpt lat="37.409585000" lon="-5.684514000">
        <ele>93.8</ele>
        <time>2020-10-11T12:13:34Z</time>
      </trkpt>
      <trkpt lat="37.409674000" lon="-5.684441000">
        <ele>93.8</ele>
        <time>2020-10-11T12:13:36Z</time>
      </trkpt>
      <trkpt lat="37.409756000" lon="-5.684362000">
        <ele>93.8</ele>
        <time>2020-10-11T12:13:38Z</time>
      </trkpt>
      <trkpt lat="37.409834000" lon="-5.684285000">
        <ele>93.8</ele>
        <time>2020-10-11T12:13:40Z</time>
      </trkpt>
      <trkpt lat="37.409912000" lon="-5.684208000">
        <ele>93.8</ele>
        <time>2020-10-11T12:13:42Z</time>
      </trkpt>
      <trkpt lat="37.409996000" lon="-5.684127000">
        <ele>93.8</ele>
        <time>2020-10-11T12:13:44Z</time>
      </trkpt>
      <trkpt lat="37.410077000" lon="-5.684049000">
        <ele>93.8</ele>
        <time>2020-10-11T12:13:46Z</time>
      </trkpt>
      <trkpt lat="37.410166000" lon="-5.683982000">
        <ele>93.7</ele>
        <time>2020-10-11T12:13:48Z</time>
      </trkpt>
      <trkpt lat="37.410252000" lon="-5.683910000">
        <ele>93.6</ele>
        <time>2020-10-11T12:13:50Z</time>
      </trkpt>
      <trkpt lat="37.410334000" lon="-5.683839000">
        <ele>93.5</ele>
        <time>2020-10-11T12:13:52Z</time>
      </trkpt>
      <trkpt lat="37.410417000" lon="-5.683763000">
        <ele>93.3</ele>
        <time>2020-10-11T12:13:54Z</time>
      </trkpt>
      <trkpt lat="37.410494000" lon="-5.683694000">
        <ele>93.1</ele>
        <time>2020-10-11T12:13:56Z</time>
      </trkpt>
      <trkpt lat="37.410573000" lon="-5.683620000">
        <ele>93.0</ele>
        <time>2020-10-11T12:13:58Z</time>
      </trkpt>
      <trkpt lat="37.410649000" lon="-5.683549000">
        <ele>93.0</ele>
        <time>2020-10-11T12:14:00Z</time>
      </trkpt>
      <trkpt lat="37.410728000" lon="-5.683482000">
        <ele>93.0</ele>
        <time>2020-10-11T12:14:02Z</time>
      </trkpt>
      <trkpt lat="37.410806000" lon="-5.683419000">
        <ele>93.0</ele>
        <time>2020-10-11T12:14:04Z</time>
      </trkpt>
      <trkpt lat="37.410880000" lon="-5.683359000">
        <ele>93.0</ele>
        <time>2020-10-11T12:14:06Z</time>
      </trkpt>
      <trkpt lat="37.410959000" lon="-5.683300000">
        <ele>93.0</ele>
        <time>2020-10-11T12:14:08Z</time>
      </trkpt>
      <trkpt lat="37.411028000" lon="-5.683235000">
        <ele>93.0</ele>
        <time>2020-10-11T12:14:10Z</time>
      </trkpt>
      <trkpt lat="37.411102000" lon="-5.683168000">
        <ele>93.0</ele>
        <time>2020-10-11T12:14:12Z</time>
      </trkpt>
      <trkpt lat="37.411181000" lon="-5.683067000">
        <ele>93.0</ele>
        <time>2020-10-11T12:14:15Z</time>
      </trkpt>
      <trkpt lat="37.411252000" lon="-5.683009000">
        <ele>93.1</ele>
        <time>2020-10-11T12:14:17Z</time>
      </trkpt>
      <trkpt lat="37.411324000" lon="-5.682958000">
        <ele>93.2</ele>
        <time>2020-10-11T12:14:19Z</time>
      </trkpt>
      <trkpt lat="37.411418000" lon="-5.682892000">
        <ele>93.4</ele>
        <time>2020-10-11T12:14:22Z</time>
      </trkpt>
      <trkpt lat="37.411504000" lon="-5.682845000">
        <ele>93.5</ele>
        <time>2020-10-11T12:14:25Z</time>
      </trkpt>
      <trkpt lat="37.411592000" lon="-5.682779000">
        <ele>93.7</ele>
        <time>2020-10-11T12:14:28Z</time>
      </trkpt>
      <trkpt lat="37.411670000" lon="-5.682684000">
        <ele>93.8</ele>
        <time>2020-10-11T12:14:31Z</time>
      </trkpt>
      <trkpt lat="37.411762000" lon="-5.682610000">
        <ele>93.9</ele>
        <time>2020-10-11T12:14:34Z</time>
      </trkpt>
      <trkpt lat="37.411860000" lon="-5.682534000">
        <ele>93.9</ele>
        <time>2020-10-11T12:14:37Z</time>
      </trkpt>
      <trkpt lat="37.411960000" lon="-5.682450000">
        <ele>93.9</ele>
        <time>2020-10-11T12:14:40Z</time>
      </trkpt>
      <trkpt lat="37.412059000" lon="-5.682365000">
        <ele>93.9</ele>
        <time>2020-10-11T12:14:43Z</time>
      </trkpt>
      <trkpt lat="37.412156000" lon="-5.682280000">
        <ele>93.9</ele>
        <time>2020-10-11T12:14:46Z</time>
      </trkpt>
      <trkpt lat="37.412253000" lon="-5.682197000">
        <ele>93.9</ele>
        <time>2020-10-11T12:14:49Z</time>
      </trkpt>
      <trkpt lat="37.412350000" lon="-5.682110000">
        <ele>94.0</ele>
        <time>2020-10-11T12:14:52Z</time>
      </trkpt>
      <trkpt lat="37.412443000" lon="-5.682024000">
        <ele>94.0</ele>
        <time>2020-10-11T12:14:55Z</time>
      </trkpt>
      <trkpt lat="37.412534000" lon="-5.681937000">
        <ele>94.0</ele>
        <time>2020-10-11T12:14:58Z</time>
      </trkpt>
      <trkpt lat="37.412622000" lon="-5.681862000">
        <ele>94.0</ele>
        <time>2020-10-11T12:15:01Z</time>
      </trkpt>
      <trkpt lat="37.412705000" lon="-5.681786000">
        <ele>94.1</ele>
        <time>2020-10-11T12:15:04Z</time>
      </trkpt>
      <trkpt lat="37.412789000" lon="-5.681707000">
        <ele>94.3</ele>
        <time>2020-10-11T12:15:07Z</time>
      </trkpt>
      <trkpt lat="37.412882000" lon="-5.681626000">
        <ele>94.5</ele>
        <time>2020-10-11T12:15:10Z</time>
      </trkpt>
      <trkpt lat="37.412982000" lon="-5.681540000">
        <ele>94.8</ele>
        <time>2020-10-11T12:15:13Z</time>
      </trkpt>
      <trkpt lat="37.413080000" lon="-5.681460000">
        <ele>95.2</ele>
        <time>2020-10-11T12:15:16Z</time>
      </trkpt>
      <trkpt lat="37.413175000" lon="-5.681385000">
        <ele>95.6</ele>
        <time>2020-10-11T12:15:19Z</time>
      </trkpt>
      <trkpt lat="37.413278000" lon="-5.681322000">
        <ele>96.0</ele>
        <time>2020-10-11T12:15:22Z</time>
      </trkpt>
      <trkpt lat="37.413377000" lon="-5.681246000">
        <ele>96.3</ele>
        <time>2020-10-11T12:15:25Z</time>
      </trkpt>
      <trkpt lat="37.413473000" lon="-5.681159000">
        <ele>96.5</ele>
        <time>2020-10-11T12:15:28Z</time>
      </trkpt>
      <trkpt lat="37.413560000" lon="-5.681062000">
        <ele>96.8</ele>
        <time>2020-10-11T12:15:31Z</time>
      </trkpt>
      <trkpt lat="37.413651000" lon="-5.680976000">
        <ele>97.0</ele>
        <time>2020-10-11T12:15:34Z</time>
      </trkpt>
      <trkpt lat="37.413737000" lon="-5.680895000">
        <ele>97.2</ele>
        <time>2020-10-11T12:15:37Z</time>
      </trkpt>
      <trkpt lat="37.413822000" lon="-5.680819000">
        <ele>97.2</ele>
        <time>2020-10-11T12:15:40Z</time>
      </trkpt>
      <trkpt lat="37.413909000" lon="-5.680750000">
        <ele>97.2</ele>
        <time>2020-10-11T12:15:43Z</time>
      </trkpt>
      <trkpt lat="37.413994000" lon="-5.680680000">
        <ele>97.1</ele>
        <time>2020-10-11T12:15:46Z</time>
      </trkpt>
      <trkpt lat="37.414077000" lon="-5.680603000">
        <ele>96.9</ele>
        <time>2020-10-11T12:15:49Z</time>
      </trkpt>
      <trkpt lat="37.414161000" lon="-5.680523000">
        <ele>96.6</ele>
        <time>2020-10-11T12:15:52Z</time>
      </trkpt>
      <trkpt lat="37.414248000" lon="-5.680453000">
        <ele>96.4</ele>
        <time>2020-10-11T12:15:55Z</time>
      </trkpt>
      <trkpt lat="37.414343000" lon="-5.680360000">
        <ele>96.1</ele>
        <time>2020-10-11T12:15:58Z</time>
      </trkpt>
      <trkpt lat="37.414436000" lon="-5.680280000">
        <ele>95.7</ele>
        <time>2020-10-11T12:16:01Z</time>
      </trkpt>
      <trkpt lat="37.414523000" lon="-5.680205000">
        <ele>95.4</ele>
        <time>2020-10-11T12:16:04Z</time>
      </trkpt>
      <trkpt lat="37.414605000" lon="-5.680124000">
        <ele>95.1</ele>
        <time>2020-10-11T12:16:07Z</time>
      </trkpt>
      <trkpt lat="37.414699000" lon="-5.680047000">
        <ele>94.8</ele>
        <time>2020-10-11T12:16:10Z</time>
      </trkpt>
      <trkpt lat="37.414799000" lon="-5.679960000">
        <ele>94.6</ele>
        <time>2020-10-11T12:16:13Z</time>
      </trkpt>
      <trkpt lat="37.414869000" lon="-5.679899000">
        <ele>94.5</ele>
        <time>2020-10-11T12:16:15Z</time>
      </trkpt>
      <trkpt lat="37.414936000" lon="-5.679842000">
        <ele>94.5</ele>
        <time>2020-10-11T12:16:17Z</time>
      </trkpt>
      <trkpt lat="37.415004000" lon="-5.679786000">
        <ele>94.6</ele>
        <time>2020-10-11T12:16:19Z</time>
      </trkpt>
      <trkpt lat="37.415106000" lon="-5.679708000">
        <ele>94.7</ele>
        <time>2020-10-11T12:16:22Z</time>
      </trkpt>
      <trkpt lat="37.415200000" lon="-5.679628000">
        <ele>94.8</ele>
        <time>2020-10-11T12:16:25Z</time>
      </trkpt>
      <trkpt lat="37.415302000" lon="-5.679547000">
        <ele>94.9</ele>
        <time>2020-10-11T12:16:28Z</time>
      </trkpt>
      <trkpt lat="37.415362000" lon="-5.679477000">
        <ele>95.1</ele>
        <time>2020-10-11T12:16:30Z</time>
      </trkpt>
      <trkpt lat="37.415431000" lon="-5.679417000">
        <ele>95.3</ele>
        <time>2020-10-11T12:16:32Z</time>
      </trkpt>
      <trkpt lat="37.415498000" lon="-5.679356000">
        <ele>95.5</ele>
        <time>2020-10-11T12:16:34Z</time>
      </trkpt>
      <trkpt lat="37.415570000" lon="-5.679299000">
        <ele>95.5</ele>
        <time>2020-10-11T12:16:36Z</time>
      </trkpt>
      <trkpt lat="37.415640000" lon="-5.679237000">
        <ele>95.6</ele>
        <time>2020-10-11T12:16:38Z</time>
      </trkpt>
      <trkpt lat="37.415706000" lon="-5.679174000">
        <ele>95.6</ele>
        <time>2020-10-11T12:16:40Z</time>
      </trkpt>
      <trkpt lat="37.415773000" lon="-5.679115000">
        <ele>95.6</ele>
        <time>2020-10-11T12:16:42Z</time>
      </trkpt>
      <trkpt lat="37.415872000" lon="-5.679028000">
        <ele>95.5</ele>
        <time>2020-10-11T12:16:45Z</time>
      </trkpt>
      <trkpt lat="37.415940000" lon="-5.678970000">
        <ele>95.3</ele>
        <time>2020-10-11T12:16:47Z</time>
      </trkpt>
      <trkpt lat="37.416009000" lon="-5.678914000">
        <ele>95.1</ele>
        <time>2020-10-11T12:16:49Z</time>
      </trkpt>
      <trkpt lat="37.416106000" lon="-5.678833000">
        <ele>94.9</ele>
        <time>2020-10-11T12:16:52Z</time>
      </trkpt>
      <trkpt lat="37.416175000" lon="-5.678779000">
        <ele>94.7</ele>
        <time>2020-10-11T12:16:54Z</time>
      </trkpt>
      <trkpt lat="37.416246000" lon="-5.678723000">
        <ele>94.5</ele>
        <time>2020-10-11T12:16:56Z</time>
      </trkpt>
      <trkpt lat="37.416312000" lon="-5.678658000">
        <ele>94.4</ele>
        <time>2020-10-11T12:16:58Z</time>
      </trkpt>
      <trkpt lat="37.416376000" lon="-5.678593000">
        <ele>94.3</ele>
        <time>2020-10-11T12:17:00Z</time>
      </trkpt>
      <trkpt lat="37.416443000" lon="-5.678529000">
        <ele>94.2</ele>
        <time>2020-10-11T12:17:02Z</time>
      </trkpt>
      <trkpt lat="37.416513000" lon="-5.678469000">
        <ele>94.1</ele>
        <time>2020-10-11T12:17:04Z</time>
      </trkpt>
      <trkpt lat="37.416585000" lon="-5.678405000">
        <ele>94.0</ele>
        <time>2020-10-11T12:17:06Z</time>
      </trkpt>
      <trkpt lat="37.416658000" lon="-5.678343000">
        <ele>94.0</ele>
        <time>2020-10-11T12:17:08Z</time>
      </trkpt>
      <trkpt lat="37.416733000" lon="-5.678286000">
        <ele>94.0</ele>
        <time>2020-10-11T12:17:10Z</time>
      </trkpt>
      <trkpt lat="37.416808000" lon="-5.678223000">
        <ele>94.0</ele>
        <time>2020-10-11T12:17:12Z</time>
      </trkpt>
      <trkpt lat="37.416883000" lon="-5.678156000">
        <ele>93.9</ele>
        <time>2020-10-11T12:17:14Z</time>
      </trkpt>
      <trkpt lat="37.416962000" lon="-5.678100000">
        <ele>93.8</ele>
        <time>2020-10-11T12:17:16Z</time>
      </trkpt>
      <trkpt lat="37.417035000" lon="-5.678044000">
        <ele>93.7</ele>
        <time>2020-10-11T12:17:18Z</time>
      </trkpt>
      <trkpt lat="37.417106000" lon="-5.677977000">
        <ele>93.6</ele>
        <time>2020-10-11T12:17:20Z</time>
      </trkpt>
      <trkpt lat="37.417180000" lon="-5.677918000">
        <ele>93.5</ele>
        <time>2020-10-11T12:17:22Z</time>
      </trkpt>
      <trkpt lat="37.417257000" lon="-5.677858000">
        <ele>93.5</ele>
        <time>2020-10-11T12:17:24Z</time>
      </trkpt>
      <trkpt lat="37.417328000" lon="-5.677789000">
        <ele>93.4</ele>
        <time>2020-10-11T12:17:26Z</time>
      </trkpt>
      <trkpt lat="37.417396000" lon="-5.677712000">
        <ele>93.3</ele>
        <time>2020-10-11T12:17:28Z</time>
      </trkpt>
      <trkpt lat="37.417461000" lon="-5.677649000">
        <ele>93.3</ele>
        <time>2020-10-11T12:17:30Z</time>
      </trkpt>
      <trkpt lat="37.417528000" lon="-5.677590000">
        <ele>93.3</ele>
        <time>2020-10-11T12:17:32Z</time>
      </trkpt>
      <trkpt lat="37.417594000" lon="-5.677531000">
        <ele>93.4</ele>
        <time>2020-10-11T12:17:34Z</time>
      </trkpt>
      <trkpt lat="37.417690000" lon="-5.677446000">
        <ele>93.6</ele>
        <time>2020-10-11T12:17:37Z</time>
      </trkpt>
      <trkpt lat="37.417785000" lon="-5.677364000">
        <ele>93.9</ele>
        <time>2020-10-11T12:17:40Z</time>
      </trkpt>
      <trkpt lat="37.417882000" lon="-5.677283000">
        <ele>94.2</ele>
        <time>2020-10-11T12:17:43Z</time>
      </trkpt>
      <trkpt lat="37.417970000" lon="-5.677203000">
        <ele>94.5</ele>
        <time>2020-10-11T12:17:46Z</time>
      </trkpt>
      <trkpt lat="37.418058000" lon="-5.677129000">
        <ele>94.9</ele>
        <time>2020-10-11T12:17:49Z</time>
      </trkpt>
      <trkpt lat="37.418142000" lon="-5.677053000">
        <ele>95.4</ele>
        <time>2020-10-11T12:17:52Z</time>
      </trkpt>
      <trkpt lat="37.418221000" lon="-5.676976000">
        <ele>95.9</ele>
        <time>2020-10-11T12:17:55Z</time>
      </trkpt>
      <trkpt lat="37.418301000" lon="-5.676907000">
        <ele>96.5</ele>
        <time>2020-10-11T12:17:58Z</time>
      </trkpt>
      <trkpt lat="37.418379000" lon="-5.676838000">
        <ele>96.9</ele>
        <time>2020-10-11T12:18:01Z</time>
      </trkpt>
      <trkpt lat="37.418456000" lon="-5.676775000">
        <ele>97.5</ele>
        <time>2020-10-11T12:18:04Z</time>
      </trkpt>
      <trkpt lat="37.418531000" lon="-5.676719000">
        <ele>97.9</ele>
        <time>2020-10-11T12:18:07Z</time>
      </trkpt>
      <trkpt lat="37.418608000" lon="-5.676667000">
        <ele>98.3</ele>
        <time>2020-10-11T12:18:10Z</time>
      </trkpt>
      <trkpt lat="37.418687000" lon="-5.676601000">
        <ele>98.7</ele>
        <time>2020-10-11T12:18:13Z</time>
      </trkpt>
      <trkpt lat="37.418766000" lon="-5.676538000">
        <ele>99.2</ele>
        <time>2020-10-11T12:18:16Z</time>
      </trkpt>
      <trkpt lat="37.418843000" lon="-5.676470000">
        <ele>99.5</ele>
        <time>2020-10-11T12:18:19Z</time>
      </trkpt>
      <trkpt lat="37.418920000" lon="-5.676396000">
        <ele>99.9</ele>
        <time>2020-10-11T12:18:22Z</time>
      </trkpt>
      <trkpt lat="37.418999000" lon="-5.676323000">
        <ele>100.2</ele>
        <time>2020-10-11T12:18:25Z</time>
      </trkpt>
      <trkpt lat="37.419079000" lon="-5.676247000">
        <ele>100.4</ele>
        <time>2020-10-11T12:18:28Z</time>
      </trkpt>
      <trkpt lat="37.419161000" lon="-5.676161000">
        <ele>100.5</ele>
        <time>2020-10-11T12:18:31Z</time>
      </trkpt>
      <trkpt lat="37.419243000" lon="-5.676090000">
        <ele>100.5</ele>
        <time>2020-10-11T12:18:34Z</time>
      </trkpt>
      <trkpt lat="37.419320000" lon="-5.676015000">
        <ele>100.5</ele>
        <time>2020-10-11T12:18:37Z</time>
      </trkpt>
      <trkpt lat="37.419399000" lon="-5.675952000">
        <ele>100.4</ele>
        <time>2020-10-11T12:18:40Z</time>
      </trkpt>
      <trkpt lat="37.419480000" lon="-5.675886000">
        <ele>100.2</ele>
        <time>2020-10-11T12:18:43Z</time>
      </trkpt>
      <trkpt lat="37.419559000" lon="-5.675806000">
        <ele>100.0</ele>
        <time>2020-10-11T12:18:46Z</time>
      </trkpt>
      <trkpt lat="37.419641000" lon="-5.675731000">
        <ele>99.8</ele>
        <time>2020-10-11T12:18:49Z</time>
      </trkpt>
      <trkpt lat="37.419736000" lon="-5.675651000">
        <ele>99.5</ele>
        <time>2020-10-11T12:18:52Z</time>
      </trkpt>
      <trkpt lat="37.419806000" lon="-5.675592000">
        <ele>99.3</ele>
        <time>2020-10-11T12:18:54Z</time>
      </trkpt>
      <trkpt lat="37.419877000" lon="-5.675534000">
        <ele>99.0</ele>
        <time>2020-10-11T12:18:56Z</time>
      </trkpt>
      <trkpt lat="37.419946000" lon="-5.675474000">
        <ele>98.7</ele>
        <time>2020-10-11T12:18:58Z</time>
      </trkpt>
      <trkpt lat="37.420014000" lon="-5.675414000">
        <ele>98.5</ele>
        <time>2020-10-11T12:19:00Z</time>
      </trkpt>
      <trkpt lat="37.420082000" lon="-5.675353000">
        <ele>98.4</ele>
        <time>2020-10-11T12:19:02Z</time>
      </trkpt>
      <trkpt lat="37.420151000" lon="-5.675294000">
        <ele>98.2</ele>
        <time>2020-10-11T12:19:04Z</time>
      </trkpt>
      <trkpt lat="37.420224000" lon="-5.675241000">
        <ele>98.0</ele>
        <time>2020-10-11T12:19:06Z</time>
      </trkpt>
      <trkpt lat="37.420297000" lon="-5.675192000">
        <ele>98.0</ele>
        <time>2020-10-11T12:19:08Z</time>
      </trkpt>
      <trkpt lat="37.420356000" lon="-5.675119000">
        <ele>97.9</ele>
        <time>2020-10-11T12:19:10Z</time>
      </trkpt>
      <trkpt lat="37.420418000" lon="-5.675049000">
        <ele>97.8</ele>
        <time>2020-10-11T12:19:12Z</time>
      </trkpt>
      <trkpt lat="37.420518000" lon="-5.674968000">
        <ele>97.9</ele>
        <time>2020-10-11T12:19:15Z</time>
      </trkpt>
      <trkpt lat="37.420626000" lon="-5.674893000">
        <ele>98.0</ele>
        <time>2020-10-11T12:19:18Z</time>
      </trkpt>
      <trkpt lat="37.420694000" lon="-5.674831000">
        <ele>98.1</ele>
        <time>2020-10-11T12:19:20Z</time>
      </trkpt>
      <trkpt lat="37.420792000" lon="-5.674746000">
        <ele>98.2</ele>
        <time>2020-10-11T12:19:23Z</time>
      </trkpt>
      <trkpt lat="37.420890000" lon="-5.674662000">
        <ele>98.2</ele>
        <time>2020-10-11T12:19:26Z</time>
      </trkpt>
      <trkpt lat="37.420978000" lon="-5.674584000">
        <ele>98.2</ele>
        <time>2020-10-11T12:19:29Z</time>
      </trkpt>
      <trkpt lat="37.421074000" lon="-5.674506000">
        <ele>98.3</ele>
        <time>2020-10-11T12:19:32Z</time>
      </trkpt>
      <trkpt lat="37.421166000" lon="-5.674418000">
        <ele>98.3</ele>
        <time>2020-10-11T12:19:35Z</time>
      </trkpt>
      <trkpt lat="37.421259000" lon="-5.674329000">
        <ele>98.2</ele>
        <time>2020-10-11T12:19:38Z</time>
      </trkpt>
      <trkpt lat="37.421346000" lon="-5.674247000">
        <ele>98.0</ele>
        <time>2020-10-11T12:19:41Z</time>
      </trkpt>
      <trkpt lat="37.421450000" lon="-5.674170000">
        <ele>97.8</ele>
        <time>2020-10-11T12:19:44Z</time>
      </trkpt>
      <trkpt lat="37.421516000" lon="-5.674109000">
        <ele>97.5</ele>
        <time>2020-10-11T12:19:46Z</time>
      </trkpt>
      <trkpt lat="37.421614000" lon="-5.674031000">
        <ele>97.3</ele>
        <time>2020-10-11T12:19:49Z</time>
      </trkpt>
      <trkpt lat="37.421713000" lon="-5.673948000">
        <ele>96.9</ele>
        <time>2020-10-11T12:19:52Z</time>
      </trkpt>
      <trkpt lat="37.421809000" lon="-5.673864000">
        <ele>96.5</ele>
        <time>2020-10-11T12:19:55Z</time>
      </trkpt>
      <trkpt lat="37.421900000" lon="-5.673793000">
        <ele>96.3</ele>
        <time>2020-10-11T12:19:58Z</time>
      </trkpt>
      <trkpt lat="37.421988000" lon="-5.673720000">
        <ele>96.1</ele>
        <time>2020-10-11T12:20:01Z</time>
      </trkpt>
      <trkpt lat="37.422082000" lon="-5.673646000">
        <ele>95.9</ele>
        <time>2020-10-11T12:20:04Z</time>
      </trkpt>
      <trkpt lat="37.422170000" lon="-5.673563000">
        <ele>95.8</ele>
        <time>2020-10-11T12:20:07Z</time>
      </trkpt>
      <trkpt lat="37.422257000" lon="-5.673483000">
        <ele>95.7</ele>
        <time>2020-10-11T12:20:10Z</time>
      </trkpt>
      <trkpt lat="37.422342000" lon="-5.673408000">
        <ele>95.7</ele>
        <time>2020-10-11T12:20:13Z</time>
      </trkpt>
      <trkpt lat="37.422420000" lon="-5.673323000">
        <ele>95.7</ele>
        <time>2020-10-11T12:20:16Z</time>
      </trkpt>
      <trkpt lat="37.422509000" lon="-5.673239000">
        <ele>95.7</ele>
        <time>2020-10-11T12:20:19Z</time>
      </trkpt>
      <trkpt lat="37.422613000" lon="-5.673162000">
        <ele>95.7</ele>
        <time>2020-10-11T12:20:22Z</time>
      </trkpt>
      <trkpt lat="37.422684000" lon="-5.673110000">
        <ele>95.8</ele>
        <time>2020-10-11T12:20:24Z</time>
      </trkpt>
      <trkpt lat="37.422755000" lon="-5.673057000">
        <ele>95.9</ele>
        <time>2020-10-11T12:20:26Z</time>
      </trkpt>
      <trkpt lat="37.422825000" lon="-5.673000000">
        <ele>96.0</ele>
        <time>2020-10-11T12:20:28Z</time>
      </trkpt>
      <trkpt lat="37.422889000" lon="-5.672934000">
        <ele>96.0</ele>
        <time>2020-10-11T12:20:30Z</time>
      </trkpt>
      <trkpt lat="37.422954000" lon="-5.672871000">
        <ele>96.0</ele>
        <time>2020-10-11T12:20:32Z</time>
      </trkpt>
      <trkpt lat="37.423015000" lon="-5.672800000">
        <ele>96.0</ele>
        <time>2020-10-11T12:20:34Z</time>
      </trkpt>
      <trkpt lat="37.423082000" lon="-5.672741000">
        <ele>96.0</ele>
        <time>2020-10-11T12:20:36Z</time>
      </trkpt>
      <trkpt lat="37.423149000" lon="-5.672682000">
        <ele>96.0</ele>
        <time>2020-10-11T12:20:38Z</time>
      </trkpt>
      <trkpt lat="37.423245000" lon="-5.672592000">
        <ele>96.0</ele>
        <time>2020-10-11T12:20:41Z</time>
      </trkpt>
      <trkpt lat="37.423343000" lon="-5.672507000">
        <ele>96.0</ele>
        <time>2020-10-11T12:20:44Z</time>
      </trkpt>
      <trkpt lat="37.423439000" lon="-5.672429000">
        <ele>96.0</ele>
        <time>2020-10-11T12:20:47Z</time>
      </trkpt>
      <trkpt lat="37.423538000" lon="-5.672354000">
        <ele>96.0</ele>
        <time>2020-10-11T12:20:50Z</time>
      </trkpt>
      <trkpt lat="37.423629000" lon="-5.672261000">
        <ele>96.0</ele>
        <time>2020-10-11T12:20:53Z</time>
      </trkpt>
      <trkpt lat="37.423694000" lon="-5.672200000">
        <ele>96.0</ele>
        <time>2020-10-11T12:20:55Z</time>
      </trkpt>
      <trkpt lat="37.423793000" lon="-5.672113000">
        <ele>96.0</ele>
        <time>2020-10-11T12:20:58Z</time>
      </trkpt>
      <trkpt lat="37.423892000" lon="-5.672034000">
        <ele>96.0</ele>
        <time>2020-10-11T12:21:01Z</time>
      </trkpt>
      <trkpt lat="37.423990000" lon="-5.671958000">
        <ele>96.0</ele>
        <time>2020-10-11T12:21:04Z</time>
      </trkpt>
      <trkpt lat="37.424087000" lon="-5.671874000">
        <ele>95.9</ele>
        <time>2020-10-11T12:21:07Z</time>
      </trkpt>
      <trkpt lat="37.424177000" lon="-5.671787000">
        <ele>95.8</ele>
        <time>2020-10-11T12:21:10Z</time>
      </trkpt>
      <trkpt lat="37.424272000" lon="-5.671706000">
        <ele>95.7</ele>
        <time>2020-10-11T12:21:13Z</time>
      </trkpt>
      <trkpt lat="37.424365000" lon="-5.671622000">
        <ele>95.6</ele>
        <time>2020-10-11T12:21:16Z</time>
      </trkpt>
      <trkpt lat="37.424459000" lon="-5.671549000">
        <ele>95.5</ele>
        <time>2020-10-11T12:21:19Z</time>
      </trkpt>
      <trkpt lat="37.424544000" lon="-5.671470000">
        <ele>95.3</ele>
        <time>2020-10-11T12:21:22Z</time>
      </trkpt>
      <trkpt lat="37.424611000" lon="-5.671397000">
        <ele>95.2</ele>
        <time>2020-10-11T12:21:25Z</time>
      </trkpt>
      <trkpt lat="37.424695000" lon="-5.671347000">
        <ele>95.1</ele>
        <time>2020-10-11T12:26:12Z</time>
      </trkpt>
      <trkpt lat="37.424783000" lon="-5.671266000">
        <ele>95.1</ele>
        <time>2020-10-11T12:26:16Z</time>
      </trkpt>
      <trkpt lat="37.424873000" lon="-5.671179000">
        <ele>95.2</ele>
        <time>2020-10-11T12:26:19Z</time>
      </trkpt>
      <trkpt lat="37.424969000" lon="-5.671097000">
        <ele>95.4</ele>
        <time>2020-10-11T12:26:22Z</time>
      </trkpt>
      <trkpt lat="37.425070000" lon="-5.671013000">
        <ele>95.6</ele>
        <time>2020-10-11T12:26:25Z</time>
      </trkpt>
      <trkpt lat="37.425166000" lon="-5.670931000">
        <ele>95.9</ele>
        <time>2020-10-11T12:26:28Z</time>
      </trkpt>
      <trkpt lat="37.425268000" lon="-5.670847000">
        <ele>96.2</ele>
        <time>2020-10-11T12:26:31Z</time>
      </trkpt>
      <trkpt lat="37.425367000" lon="-5.670760000">
        <ele>96.5</ele>
        <time>2020-10-11T12:26:34Z</time>
      </trkpt>
      <trkpt lat="37.425462000" lon="-5.670673000">
        <ele>97.0</ele>
        <time>2020-10-11T12:26:37Z</time>
      </trkpt>
      <trkpt lat="37.425556000" lon="-5.670581000">
        <ele>97.5</ele>
        <time>2020-10-11T12:26:40Z</time>
      </trkpt>
      <trkpt lat="37.425650000" lon="-5.670503000">
        <ele>97.9</ele>
        <time>2020-10-11T12:26:43Z</time>
      </trkpt>
      <trkpt lat="37.425737000" lon="-5.670429000">
        <ele>98.4</ele>
        <time>2020-10-11T12:26:46Z</time>
      </trkpt>
      <trkpt lat="37.425825000" lon="-5.670354000">
        <ele>98.7</ele>
        <time>2020-10-11T12:26:49Z</time>
      </trkpt>
      <trkpt lat="37.425911000" lon="-5.670281000">
        <ele>99.0</ele>
        <time>2020-10-11T12:26:52Z</time>
      </trkpt>
      <trkpt lat="37.425991000" lon="-5.670202000">
        <ele>99.2</ele>
        <time>2020-10-11T12:26:55Z</time>
      </trkpt>
      <trkpt lat="37.426075000" lon="-5.670128000">
        <ele>99.4</ele>
        <time>2020-10-11T12:26:58Z</time>
      </trkpt>
      <trkpt lat="37.426157000" lon="-5.670055000">
        <ele>99.5</ele>
        <time>2020-10-11T12:27:01Z</time>
      </trkpt>
      <trkpt lat="37.426234000" lon="-5.669985000">
        <ele>99.7</ele>
        <time>2020-10-11T12:27:04Z</time>
      </trkpt>
      <trkpt lat="37.426315000" lon="-5.669924000">
        <ele>99.9</ele>
        <time>2020-10-11T12:27:07Z</time>
      </trkpt>
      <trkpt lat="37.426391000" lon="-5.669861000">
        <ele>100.1</ele>
        <time>2020-10-11T12:27:10Z</time>
      </trkpt>
      <trkpt lat="37.426470000" lon="-5.669785000">
        <ele>100.3</ele>
        <time>2020-10-11T12:27:13Z</time>
      </trkpt>
      <trkpt lat="37.426556000" lon="-5.669712000">
        <ele>100.4</ele>
        <time>2020-10-11T12:27:16Z</time>
      </trkpt>
      <trkpt lat="37.426643000" lon="-5.669639000">
        <ele>100.5</ele>
        <time>2020-10-11T12:27:19Z</time>
      </trkpt>
      <trkpt lat="37.426725000" lon="-5.669560000">
        <ele>100.5</ele>
        <time>2020-10-11T12:27:22Z</time>
      </trkpt>
      <trkpt lat="37.426807000" lon="-5.669484000">
        <ele>100.6</ele>
        <time>2020-10-11T12:27:25Z</time>
      </trkpt>
      <trkpt lat="37.426896000" lon="-5.669409000">
        <ele>100.7</ele>
        <time>2020-10-11T12:27:28Z</time>
      </trkpt>
      <trkpt lat="37.426978000" lon="-5.669331000">
        <ele>100.8</ele>
        <time>2020-10-11T12:27:31Z</time>
      </trkpt>
      <trkpt lat="37.427067000" lon="-5.669259000">
        <ele>100.9</ele>
        <time>2020-10-11T12:27:34Z</time>
      </trkpt>
      <trkpt lat="37.427156000" lon="-5.669182000">
        <ele>101.0</ele>
        <time>2020-10-11T12:27:37Z</time>
      </trkpt>
      <trkpt lat="37.427242000" lon="-5.669108000">
        <ele>101.0</ele>
        <time>2020-10-11T12:27:40Z</time>
      </trkpt>
      <trkpt lat="37.427327000" lon="-5.669028000">
        <ele>101.0</ele>
        <time>2020-10-11T12:27:43Z</time>
      </trkpt>
      <trkpt lat="37.427414000" lon="-5.668954000">
        <ele>101.0</ele>
        <time>2020-10-11T12:27:46Z</time>
      </trkpt>
      <trkpt lat="37.427500000" lon="-5.668885000">
        <ele>100.9</ele>
        <time>2020-10-11T12:27:49Z</time>
      </trkpt>
      <trkpt lat="37.427589000" lon="-5.668803000">
        <ele>100.8</ele>
        <time>2020-10-11T12:27:52Z</time>
      </trkpt>
      <trkpt lat="37.427660000" lon="-5.668739000">
        <ele>100.6</ele>
        <time>2020-10-11T12:27:55Z</time>
      </trkpt>
      <trkpt lat="37.427739000" lon="-5.668680000">
        <ele>100.5</ele>
        <time>2020-10-11T12:27:59Z</time>
      </trkpt>
      <trkpt lat="37.427807000" lon="-5.668618000">
        <ele>100.2</ele>
        <time>2020-10-11T12:28:02Z</time>
      </trkpt>
      <trkpt lat="37.427887000" lon="-5.668549000">
        <ele>99.9</ele>
        <time>2020-10-11T12:28:05Z</time>
      </trkpt>
      <trkpt lat="37.427983000" lon="-5.668481000">
        <ele>99.6</ele>
        <time>2020-10-11T12:28:08Z</time>
      </trkpt>
      <trkpt lat="37.428081000" lon="-5.668395000">
        <ele>99.4</ele>
        <time>2020-10-11T12:28:11Z</time>
      </trkpt>
      <trkpt lat="37.428148000" lon="-5.668336000">
        <ele>99.1</ele>
        <time>2020-10-11T12:28:13Z</time>
      </trkpt>
      <trkpt lat="37.428218000" lon="-5.668278000">
        <ele>98.9</ele>
        <time>2020-10-11T12:28:15Z</time>
      </trkpt>
      <trkpt lat="37.428290000" lon="-5.668218000">
        <ele>98.7</ele>
        <time>2020-10-11T12:28:17Z</time>
      </trkpt>
      <trkpt lat="37.428360000" lon="-5.668158000">
        <ele>98.6</ele>
        <time>2020-10-11T12:28:19Z</time>
      </trkpt>
      <trkpt lat="37.428435000" lon="-5.668105000">
        <ele>98.5</ele>
        <time>2020-10-11T12:28:21Z</time>
      </trkpt>
      <trkpt lat="37.428510000" lon="-5.668053000">
        <ele>98.5</ele>
        <time>2020-10-11T12:28:23Z</time>
      </trkpt>
      <trkpt lat="37.428602000" lon="-5.667970000">
        <ele>98.5</ele>
        <time>2020-10-11T12:28:26Z</time>
      </trkpt>
      <trkpt lat="37.428673000" lon="-5.667906000">
        <ele>98.6</ele>
        <time>2020-10-11T12:28:36Z</time>
      </trkpt>
      <trkpt lat="37.428739000" lon="-5.667835000">
        <ele>98.8</ele>
        <time>2020-10-11T12:28:39Z</time>
      </trkpt>
      <trkpt lat="37.428826000" lon="-5.667750000">
        <ele>99.0</ele>
        <time>2020-10-11T12:28:42Z</time>
      </trkpt>
      <trkpt lat="37.428889000" lon="-5.667687000">
        <ele>99.3</ele>
        <time>2020-10-11T12:28:44Z</time>
      </trkpt>
      <trkpt lat="37.428956000" lon="-5.667626000">
        <ele>99.5</ele>
        <time>2020-10-11T12:28:46Z</time>
      </trkpt>
      <trkpt lat="37.429022000" lon="-5.667567000">
        <ele>99.7</ele>
        <time>2020-10-11T12:28:48Z</time>
      </trkpt>
      <trkpt lat="37.429120000" lon="-5.667492000">
        <ele>99.9</ele>
        <time>2020-10-11T12:28:51Z</time>
      </trkpt>
      <trkpt lat="37.429220000" lon="-5.667410000">
        <ele>100.1</ele>
        <time>2020-10-11T12:28:54Z</time>
      </trkpt>
      <trkpt lat="37.429319000" lon="-5.667320000">
        <ele>100.3</ele>
        <time>2020-10-11T12:28:57Z</time>
      </trkpt>
      <trkpt lat="37.429387000" lon="-5.667258000">
        <ele>100.5</ele>
        <time>2020-10-11T12:28:59Z</time>
      </trkpt>
      <trkpt lat="37.429452000" lon="-5.667194000">
        <ele>100.6</ele>
        <time>2020-10-11T12:29:01Z</time>
      </trkpt>
      <trkpt lat="37.429518000" lon="-5.667134000">
        <ele>100.8</ele>
        <time>2020-10-11T12:29:03Z</time>
      </trkpt>
      <trkpt lat="37.429616000" lon="-5.667047000">
        <ele>100.9</ele>
        <time>2020-10-11T12:29:06Z</time>
      </trkpt>
      <trkpt lat="37.429684000" lon="-5.666987000">
        <ele>101.0</ele>
        <time>2020-10-11T12:29:08Z</time>
      </trkpt>
      <trkpt lat="37.429751000" lon="-5.666925000">
        <ele>101.0</ele>
        <time>2020-10-11T12:29:10Z</time>
      </trkpt>
      <trkpt lat="37.429816000" lon="-5.666864000">
        <ele>101.0</ele>
        <time>2020-10-11T12:29:12Z</time>
      </trkpt>
      <trkpt lat="37.429916000" lon="-5.666776000">
        <ele>101.0</ele>
        <time>2020-10-11T12:29:15Z</time>
      </trkpt>
      <trkpt lat="37.429983000" lon="-5.666715000">
        <ele>101.0</ele>
        <time>2020-10-11T12:29:17Z</time>
      </trkpt>
      <trkpt lat="37.430052000" lon="-5.666658000">
        <ele>101.1</ele>
        <time>2020-10-11T12:29:19Z</time>
      </trkpt>
      <trkpt lat="37.430121000" lon="-5.666599000">
        <ele>101.2</ele>
        <time>2020-10-11T12:29:21Z</time>
      </trkpt>
      <trkpt lat="37.430192000" lon="-5.666539000">
        <ele>101.3</ele>
        <time>2020-10-11T12:29:23Z</time>
      </trkpt>
      <trkpt lat="37.430263000" lon="-5.666487000">
        <ele>101.5</ele>
        <time>2020-10-11T12:29:25Z</time>
      </trkpt>
      <trkpt lat="37.430328000" lon="-5.666424000">
        <ele>101.6</ele>
        <time>2020-10-11T12:29:27Z</time>
      </trkpt>
      <trkpt lat="37.430427000" lon="-5.666341000">
        <ele>101.8</ele>
        <time>2020-10-11T12:29:30Z</time>
      </trkpt>
      <trkpt lat="37.430522000" lon="-5.666258000">
        <ele>102.1</ele>
        <time>2020-10-11T12:29:33Z</time>
      </trkpt>
      <trkpt lat="37.430618000" lon="-5.666171000">
        <ele>102.4</ele>
        <time>2020-10-11T12:29:36Z</time>
      </trkpt>
      <trkpt lat="37.430710000" lon="-5.666087000">
        <ele>102.5</ele>
        <time>2020-10-11T12:29:39Z</time>
      </trkpt>
      <trkpt lat="37.430799000" lon="-5.666000000">
        <ele>102.7</ele>
        <time>2020-10-11T12:29:42Z</time>
      </trkpt>
      <trkpt lat="37.430895000" lon="-5.665920000">
        <ele>102.9</ele>
        <time>2020-10-11T12:29:45Z</time>
      </trkpt>
      <trkpt lat="37.430989000" lon="-5.665836000">
        <ele>103.0</ele>
        <time>2020-10-11T12:29:48Z</time>
      </trkpt>
      <trkpt lat="37.431083000" lon="-5.665754000">
        <ele>103.1</ele>
        <time>2020-10-11T12:29:51Z</time>
      </trkpt>
      <trkpt lat="37.431176000" lon="-5.665674000">
        <ele>103.1</ele>
        <time>2020-10-11T12:29:54Z</time>
      </trkpt>
      <trkpt lat="37.431273000" lon="-5.665587000">
        <ele>103.0</ele>
        <time>2020-10-11T12:29:57Z</time>
      </trkpt>
      <trkpt lat="37.431369000" lon="-5.665501000">
        <ele>102.9</ele>
        <time>2020-10-11T12:30:00Z</time>
      </trkpt>
      <trkpt lat="37.431461000" lon="-5.665419000">
        <ele>102.7</ele>
        <time>2020-10-11T12:30:03Z</time>
      </trkpt>
      <trkpt lat="37.431555000" lon="-5.665338000">
        <ele>102.5</ele>
        <time>2020-10-11T12:30:06Z</time>
      </trkpt>
      <trkpt lat="37.431651000" lon="-5.665257000">
        <ele>102.3</ele>
        <time>2020-10-11T12:30:09Z</time>
      </trkpt>
      <trkpt lat="37.431749000" lon="-5.665176000">
        <ele>102.2</ele>
        <time>2020-10-11T12:30:12Z</time>
      </trkpt>
      <trkpt lat="37.431849000" lon="-5.665093000">
        <ele>102.1</ele>
        <time>2020-10-11T12:30:15Z</time>
      </trkpt>
      <trkpt lat="37.431947000" lon="-5.665006000">
        <ele>102.0</ele>
        <time>2020-10-11T12:30:18Z</time>
      </trkpt>
      <trkpt lat="37.432037000" lon="-5.664924000">
        <ele>101.9</ele>
        <time>2020-10-11T12:30:21Z</time>
      </trkpt>
      <trkpt lat="37.432127000" lon="-5.664829000">
        <ele>101.8</ele>
        <time>2020-10-11T12:30:24Z</time>
      </trkpt>
      <trkpt lat="37.432199000" lon="-5.664772000">
        <ele>101.8</ele>
        <time>2020-10-11T12:30:26Z</time>
      </trkpt>
      <trkpt lat="37.432271000" lon="-5.664713000">
        <ele>101.8</ele>
        <time>2020-10-11T12:30:28Z</time>
      </trkpt>
      <trkpt lat="37.432342000" lon="-5.664650000">
        <ele>101.8</ele>
        <time>2020-10-11T12:30:30Z</time>
      </trkpt>
      <trkpt lat="37.432413000" lon="-5.664589000">
        <ele>101.8</ele>
        <time>2020-10-11T12:30:32Z</time>
      </trkpt>
      <trkpt lat="37.432493000" lon="-5.664534000">
        <ele>101.8</ele>
        <time>2020-10-11T12:30:34Z</time>
      </trkpt>
      <trkpt lat="37.432568000" lon="-5.664476000">
        <ele>101.7</ele>
        <time>2020-10-11T12:30:36Z</time>
      </trkpt>
      <trkpt lat="37.432635000" lon="-5.664416000">
        <ele>101.7</ele>
        <time>2020-10-11T12:30:38Z</time>
      </trkpt>
      <trkpt lat="37.432703000" lon="-5.664354000">
        <ele>101.7</ele>
        <time>2020-10-11T12:30:40Z</time>
      </trkpt>
      <trkpt lat="37.432772000" lon="-5.664292000">
        <ele>101.7</ele>
        <time>2020-10-11T12:30:42Z</time>
      </trkpt>
      <trkpt lat="37.432842000" lon="-5.664227000">
        <ele>101.7</ele>
        <time>2020-10-11T12:30:44Z</time>
      </trkpt>
      <trkpt lat="37.432914000" lon="-5.664167000">
        <ele>101.7</ele>
        <time>2020-10-11T12:30:46Z</time>
      </trkpt>
      <trkpt lat="37.432986000" lon="-5.664106000">
        <ele>101.7</ele>
        <time>2020-10-11T12:30:48Z</time>
      </trkpt>
      <trkpt lat="37.433059000" lon="-5.664048000">
        <ele>101.7</ele>
        <time>2020-10-11T12:30:50Z</time>
      </trkpt>
      <trkpt lat="37.433131000" lon="-5.663984000">
        <ele>101.7</ele>
        <time>2020-10-11T12:30:52Z</time>
      </trkpt>
      <trkpt lat="37.433200000" lon="-5.663923000">
        <ele>101.8</ele>
        <time>2020-10-11T12:30:54Z</time>
      </trkpt>
      <trkpt lat="37.433270000" lon="-5.663867000">
        <ele>101.9</ele>
        <time>2020-10-11T12:30:56Z</time>
      </trkpt>
      <trkpt lat="37.433340000" lon="-5.663812000">
        <ele>102.0</ele>
        <time>2020-10-11T12:30:58Z</time>
      </trkpt>
      <trkpt lat="37.433404000" lon="-5.663747000">
        <ele>102.0</ele>
        <time>2020-10-11T12:31:00Z</time>
      </trkpt>
      <trkpt lat="37.433468000" lon="-5.663681000">
        <ele>102.0</ele>
        <time>2020-10-11T12:31:02Z</time>
      </trkpt>
      <trkpt lat="37.433535000" lon="-5.663620000">
        <ele>102.0</ele>
        <time>2020-10-11T12:31:04Z</time>
      </trkpt>
      <trkpt lat="37.433603000" lon="-5.663561000">
        <ele>102.1</ele>
        <time>2020-10-11T12:31:06Z</time>
      </trkpt>
      <trkpt lat="37.433670000" lon="-5.663501000">
        <ele>102.3</ele>
        <time>2020-10-11T12:31:08Z</time>
      </trkpt>
      <trkpt lat="37.433737000" lon="-5.663438000">
        <ele>102.5</ele>
        <time>2020-10-11T12:31:10Z</time>
      </trkpt>
      <trkpt lat="37.433810000" lon="-5.663387000">
        <ele>102.7</ele>
        <time>2020-10-11T12:31:12Z</time>
      </trkpt>
      <trkpt lat="37.433906000" lon="-5.663296000">
        <ele>103.0</ele>
        <time>2020-10-11T12:31:15Z</time>
      </trkpt>
      <trkpt lat="37.434004000" lon="-5.663209000">
        <ele>103.3</ele>
        <time>2020-10-11T12:31:18Z</time>
      </trkpt>
      <trkpt lat="37.434099000" lon="-5.663117000">
        <ele>103.5</ele>
        <time>2020-10-11T12:31:21Z</time>
      </trkpt>
      <trkpt lat="37.434197000" lon="-5.663029000">
        <ele>103.7</ele>
        <time>2020-10-11T12:31:24Z</time>
      </trkpt>
      <trkpt lat="37.434293000" lon="-5.662946000">
        <ele>103.9</ele>
        <time>2020-10-11T12:31:27Z</time>
      </trkpt>
      <trkpt lat="37.434382000" lon="-5.662866000">
        <ele>104.2</ele>
        <time>2020-10-11T12:31:30Z</time>
      </trkpt>
      <trkpt lat="37.434471000" lon="-5.662789000">
        <ele>104.5</ele>
        <time>2020-10-11T12:31:33Z</time>
      </trkpt>
      <trkpt lat="37.434570000" lon="-5.662708000">
        <ele>104.6</ele>
        <time>2020-10-11T12:31:36Z</time>
      </trkpt>
      <trkpt lat="37.434672000" lon="-5.662629000">
        <ele>104.7</ele>
        <time>2020-10-11T12:31:39Z</time>
      </trkpt>
      <trkpt lat="37.434766000" lon="-5.662541000">
        <ele>104.9</ele>
        <time>2020-10-11T12:31:42Z</time>
      </trkpt>
      <trkpt lat="37.434861000" lon="-5.662451000">
        <ele>105.1</ele>
        <time>2020-10-11T12:31:45Z</time>
      </trkpt>
      <trkpt lat="37.434929000" lon="-5.662396000">
        <ele>105.3</ele>
        <time>2020-10-11T12:31:47Z</time>
      </trkpt>
      <trkpt lat="37.434997000" lon="-5.662339000">
        <ele>105.5</ele>
        <time>2020-10-11T12:31:49Z</time>
      </trkpt>
      <trkpt lat="37.435061000" lon="-5.662276000">
        <ele>105.6</ele>
        <time>2020-10-11T12:31:51Z</time>
      </trkpt>
      <trkpt lat="37.435158000" lon="-5.662187000">
        <ele>105.8</ele>
        <time>2020-10-11T12:31:54Z</time>
      </trkpt>
      <trkpt lat="37.435255000" lon="-5.662100000">
        <ele>106.0</ele>
        <time>2020-10-11T12:31:57Z</time>
      </trkpt>
      <trkpt lat="37.435349000" lon="-5.662012000">
        <ele>106.2</ele>
        <time>2020-10-11T12:32:00Z</time>
      </trkpt>
      <trkpt lat="37.435448000" lon="-5.661923000">
        <ele>106.4</ele>
        <time>2020-10-11T12:32:03Z</time>
      </trkpt>
      <trkpt lat="37.435516000" lon="-5.661863000">
        <ele>106.5</ele>
        <time>2020-10-11T12:32:05Z</time>
      </trkpt>
      <trkpt lat="37.435585000" lon="-5.661801000">
        <ele>106.6</ele>
        <time>2020-10-11T12:32:07Z</time>
      </trkpt>
      <trkpt lat="37.435655000" lon="-5.661738000">
        <ele>106.6</ele>
        <time>2020-10-11T12:32:09Z</time>
      </trkpt>
      <trkpt lat="37.435754000" lon="-5.661655000">
        <ele>106.5</ele>
        <time>2020-10-11T12:32:12Z</time>
      </trkpt>
      <trkpt lat="37.435844000" lon="-5.661568000">
        <ele>106.5</ele>
        <time>2020-10-11T12:32:15Z</time>
      </trkpt>
      <trkpt lat="37.435936000" lon="-5.661491000">
        <ele>106.4</ele>
        <time>2020-10-11T12:32:18Z</time>
      </trkpt>
      <trkpt lat="37.436025000" lon="-5.661417000">
        <ele>106.3</ele>
        <time>2020-10-11T12:32:21Z</time>
      </trkpt>
      <trkpt lat="37.436111000" lon="-5.661337000">
        <ele>106.3</ele>
        <time>2020-10-11T12:32:24Z</time>
      </trkpt>
      <trkpt lat="37.436195000" lon="-5.661256000">
        <ele>106.3</ele>
        <time>2020-10-11T12:32:27Z</time>
      </trkpt>
      <trkpt lat="37.436280000" lon="-5.661180000">
        <ele>106.2</ele>
        <time>2020-10-11T12:32:30Z</time>
      </trkpt>
      <trkpt lat="37.436366000" lon="-5.661102000">
        <ele>106.1</ele>
        <time>2020-10-11T12:32:33Z</time>
      </trkpt>
      <trkpt lat="37.436451000" lon="-5.661027000">
        <ele>106.1</ele>
        <time>2020-10-11T12:32:36Z</time>
      </trkpt>
      <trkpt lat="37.436535000" lon="-5.660951000">
        <ele>106.2</ele>
        <time>2020-10-11T12:32:39Z</time>
      </trkpt>
      <trkpt lat="37.436621000" lon="-5.660878000">
        <ele>106.3</ele>
        <time>2020-10-11T12:32:42Z</time>
      </trkpt>
      <trkpt lat="37.436711000" lon="-5.660803000">
        <ele>106.4</ele>
        <time>2020-10-11T12:32:45Z</time>
      </trkpt>
      <trkpt lat="37.436797000" lon="-5.660725000">
        <ele>106.5</ele>
        <time>2020-10-11T12:32:48Z</time>
      </trkpt>
      <trkpt lat="37.436870000" lon="-5.660645000">
        <ele>106.5</ele>
        <time>2020-10-11T12:32:51Z</time>
      </trkpt>
      <trkpt lat="37.436936000" lon="-5.660558000">
        <ele>106.6</ele>
        <time>2020-10-11T12:32:54Z</time>
      </trkpt>
      <trkpt lat="37.437020000" lon="-5.660483000">
        <ele>106.7</ele>
        <time>2020-10-11T12:32:57Z</time>
      </trkpt>
      <trkpt lat="37.437111000" lon="-5.660402000">
        <ele>106.9</ele>
        <time>2020-10-11T12:33:00Z</time>
      </trkpt>
      <trkpt lat="37.437212000" lon="-5.660319000">
        <ele>107.1</ele>
        <time>2020-10-11T12:33:03Z</time>
      </trkpt>
      <trkpt lat="37.437306000" lon="-5.660240000">
        <ele>107.3</ele>
        <time>2020-10-11T12:33:06Z</time>
      </trkpt>
      <trkpt lat="37.437395000" lon="-5.660161000">
        <ele>107.4</ele>
        <time>2020-10-11T12:33:09Z</time>
      </trkpt>
      <trkpt lat="37.437484000" lon="-5.660081000">
        <ele>107.5</ele>
        <time>2020-10-11T12:33:12Z</time>
      </trkpt>
      <trkpt lat="37.437578000" lon="-5.660005000">
        <ele>107.7</ele>
        <time>2020-10-11T12:33:15Z</time>
      </trkpt>
      <trkpt lat="37.437667000" lon="-5.659927000">
        <ele>107.9</ele>
        <time>2020-10-11T12:33:18Z</time>
      </trkpt>
      <trkpt lat="37.437756000" lon="-5.659854000">
        <ele>108.1</ele>
        <time>2020-10-11T12:33:21Z</time>
      </trkpt>
      <trkpt lat="37.437838000" lon="-5.659782000">
        <ele>108.3</ele>
        <time>2020-10-11T12:33:24Z</time>
      </trkpt>
      <trkpt lat="37.437927000" lon="-5.659706000">
        <ele>108.5</ele>
        <time>2020-10-11T12:33:27Z</time>
      </trkpt>
      <trkpt lat="37.438007000" lon="-5.659633000">
        <ele>108.6</ele>
        <time>2020-10-11T12:33:30Z</time>
      </trkpt>
      <trkpt lat="37.438095000" lon="-5.659564000">
        <ele>108.7</ele>
        <time>2020-10-11T12:33:33Z</time>
      </trkpt>
      <trkpt lat="37.438181000" lon="-5.659482000">
        <ele>108.8</ele>
        <time>2020-10-11T12:33:36Z</time>
      </trkpt>
      <trkpt lat="37.438271000" lon="-5.659403000">
        <ele>108.9</ele>
        <time>2020-10-11T12:33:39Z</time>
      </trkpt>
      <trkpt lat="37.438361000" lon="-5.659318000">
        <ele>109.1</ele>
        <time>2020-10-11T12:33:42Z</time>
      </trkpt>
      <trkpt lat="37.438457000" lon="-5.659242000">
        <ele>109.2</ele>
        <time>2020-10-11T12:33:45Z</time>
      </trkpt>
      <trkpt lat="37.438551000" lon="-5.659165000">
        <ele>109.3</ele>
        <time>2020-10-11T12:33:48Z</time>
      </trkpt>
      <trkpt lat="37.438648000" lon="-5.659090000">
        <ele>109.4</ele>
        <time>2020-10-11T12:33:51Z</time>
      </trkpt>
      <trkpt lat="37.438743000" lon="-5.659017000">
        <ele>109.5</ele>
        <time>2020-10-11T12:33:54Z</time>
      </trkpt>
      <trkpt lat="37.438842000" lon="-5.658941000">
        <ele>109.5</ele>
        <time>2020-10-11T12:33:57Z</time>
      </trkpt>
      <trkpt lat="37.438934000" lon="-5.658854000">
        <ele>109.5</ele>
        <time>2020-10-11T12:34:00Z</time>
      </trkpt>
      <trkpt lat="37.439025000" lon="-5.658769000">
        <ele>109.5</ele>
        <time>2020-10-11T12:34:03Z</time>
      </trkpt>
      <trkpt lat="37.439117000" lon="-5.658686000">
        <ele>109.5</ele>
        <time>2020-10-11T12:34:06Z</time>
      </trkpt>
      <trkpt lat="37.439201000" lon="-5.658604000">
        <ele>109.5</ele>
        <time>2020-10-11T12:34:09Z</time>
      </trkpt>
      <trkpt lat="37.439279000" lon="-5.658532000">
        <ele>109.5</ele>
        <time>2020-10-11T12:34:12Z</time>
      </trkpt>
      <trkpt lat="37.439357000" lon="-5.658460000">
        <ele>109.5</ele>
        <time>2020-10-11T12:34:15Z</time>
      </trkpt>
      <trkpt lat="37.439432000" lon="-5.658383000">
        <ele>109.5</ele>
        <time>2020-10-11T12:34:18Z</time>
      </trkpt>
      <trkpt lat="37.439505000" lon="-5.658313000">
        <ele>109.5</ele>
        <time>2020-10-11T12:34:21Z</time>
      </trkpt>
      <trkpt lat="37.439581000" lon="-5.658233000">
        <ele>109.5</ele>
        <time>2020-10-11T12:34:24Z</time>
      </trkpt>
      <trkpt lat="37.439658000" lon="-5.658140000">
        <ele>109.6</ele>
        <time>2020-10-11T12:34:27Z</time>
      </trkpt>
      <trkpt lat="37.439739000" lon="-5.658044000">
        <ele>109.8</ele>
        <time>2020-10-11T12:34:30Z</time>
      </trkpt>
      <trkpt lat="37.439822000" lon="-5.657953000">
        <ele>110.0</ele>
        <time>2020-10-11T12:34:33Z</time>
      </trkpt>
      <trkpt lat="37.439903000" lon="-5.657857000">
        <ele>110.2</ele>
        <time>2020-10-11T12:34:36Z</time>
      </trkpt>
      <trkpt lat="37.439986000" lon="-5.657756000">
        <ele>110.4</ele>
        <time>2020-10-11T12:34:39Z</time>
      </trkpt>
      <trkpt lat="37.440072000" lon="-5.657653000">
        <ele>110.5</ele>
        <time>2020-10-11T12:34:42Z</time>
      </trkpt>
      <trkpt lat="37.440159000" lon="-5.657547000">
        <ele>110.5</ele>
        <time>2020-10-11T12:34:45Z</time>
      </trkpt>
      <trkpt lat="37.440241000" lon="-5.657445000">
        <ele>110.6</ele>
        <time>2020-10-11T12:34:48Z</time>
      </trkpt>
      <trkpt lat="37.440324000" lon="-5.657340000">
        <ele>110.5</ele>
        <time>2020-10-11T12:34:51Z</time>
      </trkpt>
      <trkpt lat="37.440382000" lon="-5.657266000">
        <ele>110.5</ele>
        <time>2020-10-11T12:34:53Z</time>
      </trkpt>
      <trkpt lat="37.440447000" lon="-5.657193000">
        <ele>110.3</ele>
        <time>2020-10-11T12:34:55Z</time>
      </trkpt>
      <trkpt lat="37.440516000" lon="-5.657113000">
        <ele>110.1</ele>
        <time>2020-10-11T12:34:57Z</time>
      </trkpt>
      <trkpt lat="37.440582000" lon="-5.657028000">
        <ele>109.8</ele>
        <time>2020-10-11T12:34:59Z</time>
      </trkpt>
      <trkpt lat="37.440657000" lon="-5.656950000">
        <ele>109.6</ele>
        <time>2020-10-11T12:35:01Z</time>
      </trkpt>
      <trkpt lat="37.440731000" lon="-5.656877000">
        <ele>109.5</ele>
        <time>2020-10-11T12:35:03Z</time>
      </trkpt>
      <trkpt lat="37.440800000" lon="-5.656792000">
        <ele>109.3</ele>
        <time>2020-10-11T12:35:05Z</time>
      </trkpt>
      <trkpt lat="37.440864000" lon="-5.656709000">
        <ele>109.3</ele>
        <time>2020-10-11T12:35:07Z</time>
      </trkpt>
      <trkpt lat="37.440933000" lon="-5.656635000">
        <ele>109.4</ele>
        <time>2020-10-11T12:35:09Z</time>
      </trkpt>
      <trkpt lat="37.441001000" lon="-5.656555000">
        <ele>109.5</ele>
        <time>2020-10-11T12:35:11Z</time>
      </trkpt>
      <trkpt lat="37.441066000" lon="-5.656484000">
        <ele>109.6</ele>
        <time>2020-10-11T12:35:13Z</time>
      </trkpt>
      <trkpt lat="37.441127000" lon="-5.656415000">
        <ele>109.8</ele>
        <time>2020-10-11T12:35:15Z</time>
      </trkpt>
      <trkpt lat="37.441214000" lon="-5.656315000">
        <ele>110.0</ele>
        <time>2020-10-11T12:35:18Z</time>
      </trkpt>
      <trkpt lat="37.441298000" lon="-5.656223000">
        <ele>110.3</ele>
        <time>2020-10-11T12:35:21Z</time>
      </trkpt>
      <trkpt lat="37.441375000" lon="-5.656134000">
        <ele>110.5</ele>
        <time>2020-10-11T12:35:24Z</time>
      </trkpt>
      <trkpt lat="37.441438000" lon="-5.656042000">
        <ele>110.9</ele>
        <time>2020-10-11T12:35:27Z</time>
      </trkpt>
      <trkpt lat="37.441504000" lon="-5.655961000">
        <ele>111.3</ele>
        <time>2020-10-11T12:35:30Z</time>
      </trkpt>
      <trkpt lat="37.441568000" lon="-5.655882000">
        <ele>111.6</ele>
        <time>2020-10-11T12:35:33Z</time>
      </trkpt>
      <trkpt lat="37.441632000" lon="-5.655808000">
        <ele>112.0</ele>
        <time>2020-10-11T12:35:36Z</time>
      </trkpt>
      <trkpt lat="37.441696000" lon="-5.655738000">
        <ele>112.3</ele>
        <time>2020-10-11T12:35:39Z</time>
      </trkpt>
      <trkpt lat="37.441760000" lon="-5.655668000">
        <ele>112.6</ele>
        <time>2020-10-11T12:35:42Z</time>
      </trkpt>
      <trkpt lat="37.441822000" lon="-5.655602000">
        <ele>113.0</ele>
        <time>2020-10-11T12:35:45Z</time>
      </trkpt>
      <trkpt lat="37.441893000" lon="-5.655519000">
        <ele>113.4</ele>
        <time>2020-10-11T12:35:48Z</time>
      </trkpt>
      <trkpt lat="37.441968000" lon="-5.655436000">
        <ele>113.8</ele>
        <time>2020-10-11T12:35:51Z</time>
      </trkpt>
      <trkpt lat="37.442043000" lon="-5.655349000">
        <ele>114.2</ele>
        <time>2020-10-11T12:35:54Z</time>
      </trkpt>
      <trkpt lat="37.442121000" lon="-5.655263000">
        <ele>114.5</ele>
        <time>2020-10-11T12:35:57Z</time>
      </trkpt>
      <trkpt lat="37.442193000" lon="-5.655186000">
        <ele>114.9</ele>
        <time>2020-10-11T12:36:00Z</time>
      </trkpt>
      <trkpt lat="37.442265000" lon="-5.655106000">
        <ele>115.3</ele>
        <time>2020-10-11T12:36:03Z</time>
      </trkpt>
      <trkpt lat="37.442332000" lon="-5.655025000">
        <ele>115.6</ele>
        <time>2020-10-11T12:36:06Z</time>
      </trkpt>
      <trkpt lat="37.442399000" lon="-5.654950000">
        <ele>115.9</ele>
        <time>2020-10-11T12:36:09Z</time>
      </trkpt>
      <trkpt lat="37.442471000" lon="-5.654882000">
        <ele>116.2</ele>
        <time>2020-10-11T12:36:12Z</time>
      </trkpt>
      <trkpt lat="37.442535000" lon="-5.654797000">
        <ele>116.4</ele>
        <time>2020-10-11T12:36:15Z</time>
      </trkpt>
      <trkpt lat="37.442609000" lon="-5.654719000">
        <ele>116.5</ele>
        <time>2020-10-11T12:36:18Z</time>
      </trkpt>
      <trkpt lat="37.442682000" lon="-5.654635000">
        <ele>116.7</ele>
        <time>2020-10-11T12:36:21Z</time>
      </trkpt>
      <trkpt lat="37.442759000" lon="-5.654541000">
        <ele>116.9</ele>
        <time>2020-10-11T12:36:24Z</time>
      </trkpt>
      <trkpt lat="37.442833000" lon="-5.654448000">
        <ele>117.1</ele>
        <time>2020-10-11T12:36:27Z</time>
      </trkpt>
      <trkpt lat="37.442905000" lon="-5.654354000">
        <ele>117.3</ele>
        <time>2020-10-11T12:36:30Z</time>
      </trkpt>
      <trkpt lat="37.442978000" lon="-5.654262000">
        <ele>117.4</ele>
        <time>2020-10-11T12:36:33Z</time>
      </trkpt>
      <trkpt lat="37.443059000" lon="-5.654167000">
        <ele>117.5</ele>
        <time>2020-10-11T12:36:36Z</time>
      </trkpt>
      <trkpt lat="37.443140000" lon="-5.654073000">
        <ele>117.5</ele>
        <time>2020-10-11T12:36:39Z</time>
      </trkpt>
      <trkpt lat="37.443221000" lon="-5.653977000">
        <ele>117.5</ele>
        <time>2020-10-11T12:36:42Z</time>
      </trkpt>
      <trkpt lat="37.443301000" lon="-5.653879000">
        <ele>117.5</ele>
        <time>2020-10-11T12:36:45Z</time>
      </trkpt>
      <trkpt lat="37.443389000" lon="-5.653780000">
        <ele>117.5</ele>
        <time>2020-10-11T12:36:48Z</time>
      </trkpt>
      <trkpt lat="37.443449000" lon="-5.653711000">
        <ele>117.5</ele>
        <time>2020-10-11T12:36:50Z</time>
      </trkpt>
      <trkpt lat="37.443513000" lon="-5.653642000">
        <ele>117.4</ele>
        <time>2020-10-11T12:36:52Z</time>
      </trkpt>
      <trkpt lat="37.443575000" lon="-5.653572000">
        <ele>117.1</ele>
        <time>2020-10-11T12:36:54Z</time>
      </trkpt>
      <trkpt lat="37.443636000" lon="-5.653501000">
        <ele>116.8</ele>
        <time>2020-10-11T12:36:56Z</time>
      </trkpt>
      <trkpt lat="37.443700000" lon="-5.653429000">
        <ele>116.5</ele>
        <time>2020-10-11T12:36:58Z</time>
      </trkpt>
      <trkpt lat="37.443764000" lon="-5.653355000">
        <ele>116.2</ele>
        <time>2020-10-11T12:37:00Z</time>
      </trkpt>
      <trkpt lat="37.443831000" lon="-5.653283000">
        <ele>115.8</ele>
        <time>2020-10-11T12:37:02Z</time>
      </trkpt>
      <trkpt lat="37.443894000" lon="-5.653208000">
        <ele>115.5</ele>
        <time>2020-10-11T12:37:04Z</time>
      </trkpt>
      <trkpt lat="37.443957000" lon="-5.653131000">
        <ele>115.2</ele>
        <time>2020-10-11T12:37:06Z</time>
      </trkpt>
      <trkpt lat="37.444024000" lon="-5.653055000">
        <ele>114.9</ele>
        <time>2020-10-11T12:37:08Z</time>
      </trkpt>
      <trkpt lat="37.444090000" lon="-5.652980000">
        <ele>114.6</ele>
        <time>2020-10-11T12:37:10Z</time>
      </trkpt>
      <trkpt lat="37.444154000" lon="-5.652901000">
        <ele>114.5</ele>
        <time>2020-10-11T12:37:12Z</time>
      </trkpt>
      <trkpt lat="37.444222000" lon="-5.652824000">
        <ele>114.3</ele>
        <time>2020-10-11T12:37:14Z</time>
      </trkpt>
      <trkpt lat="37.444292000" lon="-5.652746000">
        <ele>114.2</ele>
        <time>2020-10-11T12:37:16Z</time>
      </trkpt>
      <trkpt lat="37.444360000" lon="-5.652668000">
        <ele>114.0</ele>
        <time>2020-10-11T12:37:18Z</time>
      </trkpt>
      <trkpt lat="37.444427000" lon="-5.652593000">
        <ele>113.9</ele>
        <time>2020-10-11T12:37:20Z</time>
      </trkpt>
      <trkpt lat="37.444495000" lon="-5.652514000">
        <ele>113.8</ele>
        <time>2020-10-11T12:37:22Z</time>
      </trkpt>
      <trkpt lat="37.444557000" lon="-5.652435000">
        <ele>113.8</ele>
        <time>2020-10-11T12:37:24Z</time>
      </trkpt>
      <trkpt lat="37.444620000" lon="-5.652356000">
        <ele>113.8</ele>
        <time>2020-10-11T12:37:26Z</time>
      </trkpt>
      <trkpt lat="37.444683000" lon="-5.652281000">
        <ele>113.8</ele>
        <time>2020-10-11T12:37:28Z</time>
      </trkpt>
      <trkpt lat="37.444743000" lon="-5.652201000">
        <ele>113.8</ele>
        <time>2020-10-11T12:37:30Z</time>
      </trkpt>
      <trkpt lat="37.444810000" lon="-5.652140000">
        <ele>113.8</ele>
        <time>2020-10-11T12:37:32Z</time>
      </trkpt>
      <trkpt lat="37.444878000" lon="-5.652078000">
        <ele>113.8</ele>
        <time>2020-10-11T12:37:34Z</time>
      </trkpt>
      <trkpt lat="37.444945000" lon="-5.652007000">
        <ele>113.8</ele>
        <time>2020-10-11T12:37:36Z</time>
      </trkpt>
      <trkpt lat="37.445013000" lon="-5.651931000">
        <ele>113.7</ele>
        <time>2020-10-11T12:37:38Z</time>
      </trkpt>
      <trkpt lat="37.445083000" lon="-5.651858000">
        <ele>113.7</ele>
        <time>2020-10-11T12:37:40Z</time>
      </trkpt>
      <trkpt lat="37.445154000" lon="-5.651783000">
        <ele>113.6</ele>
        <time>2020-10-11T12:37:42Z</time>
      </trkpt>
      <trkpt lat="37.445218000" lon="-5.651713000">
        <ele>113.5</ele>
        <time>2020-10-11T12:37:44Z</time>
      </trkpt>
      <trkpt lat="37.445285000" lon="-5.651638000">
        <ele>113.3</ele>
        <time>2020-10-11T12:37:46Z</time>
      </trkpt>
      <trkpt lat="37.445354000" lon="-5.651555000">
        <ele>113.1</ele>
        <time>2020-10-11T12:37:48Z</time>
      </trkpt>
      <trkpt lat="37.445426000" lon="-5.651466000">
        <ele>112.9</ele>
        <time>2020-10-11T12:37:50Z</time>
      </trkpt>
      <trkpt lat="37.445500000" lon="-5.651369000">
        <ele>112.7</ele>
        <time>2020-10-11T12:37:52Z</time>
      </trkpt>
      <trkpt lat="37.445572000" lon="-5.651282000">
        <ele>112.6</ele>
        <time>2020-10-11T12:37:54Z</time>
      </trkpt>
      <trkpt lat="37.445646000" lon="-5.651195000">
        <ele>112.5</ele>
        <time>2020-10-11T12:37:56Z</time>
      </trkpt>
      <trkpt lat="37.445729000" lon="-5.651105000">
        <ele>112.5</ele>
        <time>2020-10-11T12:37:58Z</time>
      </trkpt>
      <trkpt lat="37.445817000" lon="-5.651016000">
        <ele>112.5</ele>
        <time>2020-10-11T12:38:00Z</time>
      </trkpt>
      <trkpt lat="37.445898000" lon="-5.650930000">
        <ele>112.5</ele>
        <time>2020-10-11T12:38:02Z</time>
      </trkpt>
      <trkpt lat="37.445981000" lon="-5.650848000">
        <ele>112.5</ele>
        <time>2020-10-11T12:38:04Z</time>
      </trkpt>
      <trkpt lat="37.446053000" lon="-5.650765000">
        <ele>112.5</ele>
        <time>2020-10-11T12:38:06Z</time>
      </trkpt>
      <trkpt lat="37.446123000" lon="-5.650680000">
        <ele>112.4</ele>
        <time>2020-10-11T12:38:08Z</time>
      </trkpt>
      <trkpt lat="37.446196000" lon="-5.650590000">
        <ele>112.2</ele>
        <time>2020-10-11T12:38:10Z</time>
      </trkpt>
      <trkpt lat="37.446269000" lon="-5.650506000">
        <ele>112.0</ele>
        <time>2020-10-11T12:38:12Z</time>
      </trkpt>
      <trkpt lat="37.446350000" lon="-5.650428000">
        <ele>111.7</ele>
        <time>2020-10-11T12:38:14Z</time>
      </trkpt>
      <trkpt lat="37.446422000" lon="-5.650352000">
        <ele>111.4</ele>
        <time>2020-10-11T12:38:16Z</time>
      </trkpt>
      <trkpt lat="37.446490000" lon="-5.650265000">
        <ele>111.0</ele>
        <time>2020-10-11T12:38:18Z</time>
      </trkpt>
      <trkpt lat="37.446551000" lon="-5.650188000">
        <ele>110.6</ele>
        <time>2020-10-11T12:38:20Z</time>
      </trkpt>
      <trkpt lat="37.446621000" lon="-5.650103000">
        <ele>110.3</ele>
        <time>2020-10-11T12:38:22Z</time>
      </trkpt>
      <trkpt lat="37.446684000" lon="-5.650024000">
        <ele>110.0</ele>
        <time>2020-10-11T12:38:24Z</time>
      </trkpt>
      <trkpt lat="37.446754000" lon="-5.649946000">
        <ele>109.8</ele>
        <time>2020-10-11T12:38:26Z</time>
      </trkpt>
      <trkpt lat="37.446826000" lon="-5.649871000">
        <ele>109.7</ele>
        <time>2020-10-11T12:38:28Z</time>
      </trkpt>
      <trkpt lat="37.446890000" lon="-5.649795000">
        <ele>109.7</ele>
        <time>2020-10-11T12:38:30Z</time>
      </trkpt>
      <trkpt lat="37.446952000" lon="-5.649729000">
        <ele>109.8</ele>
        <time>2020-10-11T12:38:32Z</time>
      </trkpt>
      <trkpt lat="37.447019000" lon="-5.649659000">
        <ele>109.9</ele>
        <time>2020-10-11T12:38:34Z</time>
      </trkpt>
      <trkpt lat="37.447088000" lon="-5.649580000">
        <ele>110.0</ele>
        <time>2020-10-11T12:38:36Z</time>
      </trkpt>
      <trkpt lat="37.447160000" lon="-5.649506000">
        <ele>110.1</ele>
        <time>2020-10-11T12:38:38Z</time>
      </trkpt>
      <trkpt lat="37.447229000" lon="-5.649424000">
        <ele>110.2</ele>
        <time>2020-10-11T12:38:40Z</time>
      </trkpt>
      <trkpt lat="37.447302000" lon="-5.649340000">
        <ele>110.2</ele>
        <time>2020-10-11T12:38:42Z</time>
      </trkpt>
      <trkpt lat="37.447369000" lon="-5.649248000">
        <ele>110.2</ele>
        <time>2020-10-11T12:38:44Z</time>
      </trkpt>
      <trkpt lat="37.447442000" lon="-5.649161000">
        <ele>110.1</ele>
        <time>2020-10-11T12:38:46Z</time>
      </trkpt>
      <trkpt lat="37.447513000" lon="-5.649071000">
        <ele>110.0</ele>
        <time>2020-10-11T12:38:48Z</time>
      </trkpt>
      <trkpt lat="37.447587000" lon="-5.648991000">
        <ele>109.8</ele>
        <time>2020-10-11T12:38:50Z</time>
      </trkpt>
      <trkpt lat="37.447660000" lon="-5.648912000">
        <ele>109.6</ele>
        <time>2020-10-11T12:38:52Z</time>
      </trkpt>
      <trkpt lat="37.447733000" lon="-5.648832000">
        <ele>109.5</ele>
        <time>2020-10-11T12:38:54Z</time>
      </trkpt>
      <trkpt lat="37.447806000" lon="-5.648751000">
        <ele>109.3</ele>
        <time>2020-10-11T12:38:56Z</time>
      </trkpt>
      <trkpt lat="37.447877000" lon="-5.648664000">
        <ele>109.2</ele>
        <time>2020-10-11T12:38:58Z</time>
      </trkpt>
      <trkpt lat="37.447946000" lon="-5.648575000">
        <ele>109.1</ele>
        <time>2020-10-11T12:39:00Z</time>
      </trkpt>
      <trkpt lat="37.448014000" lon="-5.648491000">
        <ele>109.0</ele>
        <time>2020-10-11T12:39:02Z</time>
      </trkpt>
      <trkpt lat="37.448085000" lon="-5.648411000">
        <ele>109.0</ele>
        <time>2020-10-11T12:39:04Z</time>
      </trkpt>
      <trkpt lat="37.448157000" lon="-5.648343000">
        <ele>109.1</ele>
        <time>2020-10-11T12:39:06Z</time>
      </trkpt>
      <trkpt lat="37.448227000" lon="-5.648272000">
        <ele>109.2</ele>
        <time>2020-10-11T12:39:08Z</time>
      </trkpt>
      <trkpt lat="37.448297000" lon="-5.648196000">
        <ele>109.3</ele>
        <time>2020-10-11T12:39:10Z</time>
      </trkpt>
      <trkpt lat="37.448365000" lon="-5.648118000">
        <ele>109.4</ele>
        <time>2020-10-11T12:39:12Z</time>
      </trkpt>
      <trkpt lat="37.448437000" lon="-5.648045000">
        <ele>109.5</ele>
        <time>2020-10-11T12:39:14Z</time>
      </trkpt>
      <trkpt lat="37.448505000" lon="-5.647959000">
        <ele>109.5</ele>
        <time>2020-10-11T12:39:16Z</time>
      </trkpt>
      <trkpt lat="37.448576000" lon="-5.647879000">
        <ele>109.6</ele>
        <time>2020-10-11T12:39:18Z</time>
      </trkpt>
      <trkpt lat="37.448645000" lon="-5.647803000">
        <ele>109.7</ele>
        <time>2020-10-11T12:39:20Z</time>
      </trkpt>
      <trkpt lat="37.448713000" lon="-5.647721000">
        <ele>109.7</ele>
        <time>2020-10-11T12:39:22Z</time>
      </trkpt>
      <trkpt lat="37.448784000" lon="-5.647642000">
        <ele>109.7</ele>
        <time>2020-10-11T12:39:24Z</time>
      </trkpt>
      <trkpt lat="37.448850000" lon="-5.647557000">
        <ele>109.7</ele>
        <time>2020-10-11T12:39:26Z</time>
      </trkpt>
      <trkpt lat="37.448923000" lon="-5.647478000">
        <ele>109.6</ele>
        <time>2020-10-11T12:39:28Z</time>
      </trkpt>
      <trkpt lat="37.448994000" lon="-5.647404000">
        <ele>109.5</ele>
        <time>2020-10-11T12:39:30Z</time>
      </trkpt>
      <trkpt lat="37.449063000" lon="-5.647331000">
        <ele>109.3</ele>
        <time>2020-10-11T12:39:32Z</time>
      </trkpt>
      <trkpt lat="37.449130000" lon="-5.647252000">
        <ele>109.1</ele>
        <time>2020-10-11T12:39:34Z</time>
      </trkpt>
      <trkpt lat="37.449196000" lon="-5.647172000">
        <ele>108.9</ele>
        <time>2020-10-11T12:39:36Z</time>
      </trkpt>
      <trkpt lat="37.449259000" lon="-5.647094000">
        <ele>108.7</ele>
        <time>2020-10-11T12:39:38Z</time>
      </trkpt>
      <trkpt lat="37.449333000" lon="-5.646963000">
        <ele>108.5</ele>
        <time>2020-10-11T12:39:41Z</time>
      </trkpt>
      <trkpt lat="37.449393000" lon="-5.646877000">
        <ele>108.1</ele>
        <time>2020-10-11T12:39:43Z</time>
      </trkpt>
      <trkpt lat="37.449460000" lon="-5.646792000">
        <ele>107.8</ele>
        <time>2020-10-11T12:39:45Z</time>
      </trkpt>
      <trkpt lat="37.449525000" lon="-5.646708000">
        <ele>107.5</ele>
        <time>2020-10-11T12:39:47Z</time>
      </trkpt>
      <trkpt lat="37.449596000" lon="-5.646624000">
        <ele>107.0</ele>
        <time>2020-10-11T12:39:49Z</time>
      </trkpt>
      <trkpt lat="37.449668000" lon="-5.646546000">
        <ele>106.5</ele>
        <time>2020-10-11T12:39:51Z</time>
      </trkpt>
      <trkpt lat="37.449742000" lon="-5.646463000">
        <ele>105.9</ele>
        <time>2020-10-11T12:39:53Z</time>
      </trkpt>
      <trkpt lat="37.449816000" lon="-5.646379000">
        <ele>105.4</ele>
        <time>2020-10-11T12:39:55Z</time>
      </trkpt>
      <trkpt lat="37.449892000" lon="-5.646298000">
        <ele>104.8</ele>
        <time>2020-10-11T12:39:57Z</time>
      </trkpt>
      <trkpt lat="37.449969000" lon="-5.646226000">
        <ele>104.3</ele>
        <time>2020-10-11T12:39:59Z</time>
      </trkpt>
      <trkpt lat="37.450048000" lon="-5.646159000">
        <ele>103.8</ele>
        <time>2020-10-11T12:40:01Z</time>
      </trkpt>
      <trkpt lat="37.450129000" lon="-5.646084000">
        <ele>103.5</ele>
        <time>2020-10-11T12:40:03Z</time>
      </trkpt>
      <trkpt lat="37.450209000" lon="-5.646002000">
        <ele>103.2</ele>
        <time>2020-10-11T12:40:05Z</time>
      </trkpt>
      <trkpt lat="37.450280000" lon="-5.645925000">
        <ele>102.9</ele>
        <time>2020-10-11T12:40:07Z</time>
      </trkpt>
      <trkpt lat="37.450355000" lon="-5.645849000">
        <ele>102.7</ele>
        <time>2020-10-11T12:40:09Z</time>
      </trkpt>
      <trkpt lat="37.450424000" lon="-5.645769000">
        <ele>102.7</ele>
        <time>2020-10-11T12:40:11Z</time>
      </trkpt>
      <trkpt lat="37.450493000" lon="-5.645692000">
        <ele>102.8</ele>
        <time>2020-10-11T12:40:13Z</time>
      </trkpt>
      <trkpt lat="37.450560000" lon="-5.645617000">
        <ele>103.0</ele>
        <time>2020-10-11T12:40:15Z</time>
      </trkpt>
      <trkpt lat="37.450614000" lon="-5.645533000">
        <ele>103.2</ele>
        <time>2020-10-11T12:40:17Z</time>
      </trkpt>
      <trkpt lat="37.450676000" lon="-5.645459000">
        <ele>103.4</ele>
        <time>2020-10-11T12:40:19Z</time>
      </trkpt>
      <trkpt lat="37.450764000" lon="-5.645356000">
        <ele>103.5</ele>
        <time>2020-10-11T12:40:22Z</time>
      </trkpt>
      <trkpt lat="37.450823000" lon="-5.645283000">
        <ele>103.6</ele>
        <time>2020-10-11T12:40:24Z</time>
      </trkpt>
      <trkpt lat="37.450879000" lon="-5.645207000">
        <ele>103.7</ele>
        <time>2020-10-11T12:40:26Z</time>
      </trkpt>
      <trkpt lat="37.450936000" lon="-5.645130000">
        <ele>103.8</ele>
        <time>2020-10-11T12:40:28Z</time>
      </trkpt>
      <trkpt lat="37.450988000" lon="-5.645052000">
        <ele>104.0</ele>
        <time>2020-10-11T12:40:30Z</time>
      </trkpt>
      <trkpt lat="37.451064000" lon="-5.644936000">
        <ele>104.2</ele>
        <time>2020-10-11T12:40:33Z</time>
      </trkpt>
      <trkpt lat="37.451135000" lon="-5.644821000">
        <ele>104.2</ele>
        <time>2020-10-11T12:40:36Z</time>
      </trkpt>
      <trkpt lat="37.451204000" lon="-5.644703000">
        <ele>104.2</ele>
        <time>2020-10-11T12:40:39Z</time>
      </trkpt>
      <trkpt lat="37.451267000" lon="-5.644578000">
        <ele>104.1</ele>
        <time>2020-10-11T12:40:42Z</time>
      </trkpt>
      <trkpt lat="37.451336000" lon="-5.644466000">
        <ele>104.0</ele>
        <time>2020-10-11T12:40:45Z</time>
      </trkpt>
      <trkpt lat="37.451400000" lon="-5.644340000">
        <ele>103.9</ele>
        <time>2020-10-11T12:40:48Z</time>
      </trkpt>
      <trkpt lat="37.451439000" lon="-5.644250000">
        <ele>103.7</ele>
        <time>2020-10-11T12:40:50Z</time>
      </trkpt>
      <trkpt lat="37.451478000" lon="-5.644159000">
        <ele>103.5</ele>
        <time>2020-10-11T12:40:52Z</time>
      </trkpt>
      <trkpt lat="37.451518000" lon="-5.644069000">
        <ele>103.5</ele>
        <time>2020-10-11T12:40:54Z</time>
      </trkpt>
      <trkpt lat="37.451566000" lon="-5.643937000">
        <ele>103.4</ele>
        <time>2020-10-11T12:40:57Z</time>
      </trkpt>
      <trkpt lat="37.451617000" lon="-5.643808000">
        <ele>103.3</ele>
        <time>2020-10-11T12:41:00Z</time>
      </trkpt>
      <trkpt lat="37.451663000" lon="-5.643674000">
        <ele>103.2</ele>
        <time>2020-10-11T12:41:03Z</time>
      </trkpt>
      <trkpt lat="37.451711000" lon="-5.643545000">
        <ele>103.2</ele>
        <time>2020-10-11T12:41:06Z</time>
      </trkpt>
      <trkpt lat="37.451751000" lon="-5.643416000">
        <ele>103.2</ele>
        <time>2020-10-11T12:41:09Z</time>
      </trkpt>
      <trkpt lat="37.451784000" lon="-5.643284000">
        <ele>103.3</ele>
        <time>2020-10-11T12:41:12Z</time>
      </trkpt>
      <trkpt lat="37.451821000" lon="-5.643152000">
        <ele>103.5</ele>
        <time>2020-10-11T12:41:15Z</time>
      </trkpt>
      <trkpt lat="37.451859000" lon="-5.643020000">
        <ele>103.6</ele>
        <time>2020-10-11T12:41:18Z</time>
      </trkpt>
      <trkpt lat="37.451896000" lon="-5.642894000">
        <ele>104.0</ele>
        <time>2020-10-11T12:41:21Z</time>
      </trkpt>
      <trkpt lat="37.451937000" lon="-5.642764000">
        <ele>104.4</ele>
        <time>2020-10-11T12:41:24Z</time>
      </trkpt>
      <trkpt lat="37.451977000" lon="-5.642649000">
        <ele>104.7</ele>
        <time>2020-10-11T12:41:27Z</time>
      </trkpt>
      <trkpt lat="37.452018000" lon="-5.642521000">
        <ele>105.1</ele>
        <time>2020-10-11T12:41:30Z</time>
      </trkpt>
      <trkpt lat="37.452061000" lon="-5.642396000">
        <ele>105.5</ele>
        <time>2020-10-11T12:41:33Z</time>
      </trkpt>
      <trkpt lat="37.452094000" lon="-5.642265000">
        <ele>105.9</ele>
        <time>2020-10-11T12:41:36Z</time>
      </trkpt>
      <trkpt lat="37.452134000" lon="-5.642144000">
        <ele>106.4</ele>
        <time>2020-10-11T12:41:39Z</time>
      </trkpt>
      <trkpt lat="37.452171000" lon="-5.642024000">
        <ele>106.8</ele>
        <time>2020-10-11T12:41:42Z</time>
      </trkpt>
      <trkpt lat="37.452208000" lon="-5.641906000">
        <ele>107.3</ele>
        <time>2020-10-11T12:41:45Z</time>
      </trkpt>
      <trkpt lat="37.452249000" lon="-5.641785000">
        <ele>107.6</ele>
        <time>2020-10-11T12:41:48Z</time>
      </trkpt>
      <trkpt lat="37.452290000" lon="-5.641661000">
        <ele>108.0</ele>
        <time>2020-10-11T12:41:51Z</time>
      </trkpt>
      <trkpt lat="37.452334000" lon="-5.641534000">
        <ele>108.3</ele>
        <time>2020-10-11T12:41:54Z</time>
      </trkpt>
      <trkpt lat="37.452381000" lon="-5.641407000">
        <ele>108.6</ele>
        <time>2020-10-11T12:41:57Z</time>
      </trkpt>
      <trkpt lat="37.452433000" lon="-5.641282000">
        <ele>108.9</ele>
        <time>2020-10-11T12:42:00Z</time>
      </trkpt>
      <trkpt lat="37.452488000" lon="-5.641155000">
        <ele>109.2</ele>
        <time>2020-10-11T12:42:03Z</time>
      </trkpt>
      <trkpt lat="37.452542000" lon="-5.641049000">
        <ele>109.4</ele>
        <time>2020-10-11T12:42:06Z</time>
      </trkpt>
      <trkpt lat="37.452602000" lon="-5.640952000">
        <ele>109.5</ele>
        <time>2020-10-11T12:42:09Z</time>
      </trkpt>
      <trkpt lat="37.452658000" lon="-5.640858000">
        <ele>109.5</ele>
        <time>2020-10-11T12:42:12Z</time>
      </trkpt>
      <trkpt lat="37.452723000" lon="-5.640770000">
        <ele>109.6</ele>
        <time>2020-10-11T12:42:15Z</time>
      </trkpt>
      <trkpt lat="37.452788000" lon="-5.640686000">
        <ele>109.7</ele>
        <time>2020-10-11T12:42:18Z</time>
      </trkpt>
      <trkpt lat="37.452856000" lon="-5.640598000">
        <ele>109.8</ele>
        <time>2020-10-11T12:42:21Z</time>
      </trkpt>
      <trkpt lat="37.452921000" lon="-5.640511000">
        <ele>109.8</ele>
        <time>2020-10-11T12:42:24Z</time>
      </trkpt>
      <trkpt lat="37.452986000" lon="-5.640433000">
        <ele>109.8</ele>
        <time>2020-10-11T12:42:27Z</time>
      </trkpt>
      <trkpt lat="37.453054000" lon="-5.640350000">
        <ele>109.6</ele>
        <time>2020-10-11T12:42:30Z</time>
      </trkpt>
      <trkpt lat="37.453121000" lon="-5.640263000">
        <ele>109.4</ele>
        <time>2020-10-11T12:42:33Z</time>
      </trkpt>
      <trkpt lat="37.453186000" lon="-5.640179000">
        <ele>109.0</ele>
        <time>2020-10-11T12:42:36Z</time>
      </trkpt>
      <trkpt lat="37.453253000" lon="-5.640085000">
        <ele>108.6</ele>
        <time>2020-10-11T12:42:39Z</time>
      </trkpt>
      <trkpt lat="37.453333000" lon="-5.639991000">
        <ele>108.3</ele>
        <time>2020-10-11T12:42:42Z</time>
      </trkpt>
      <trkpt lat="37.453419000" lon="-5.639894000">
        <ele>107.9</ele>
        <time>2020-10-11T12:42:45Z</time>
      </trkpt>
      <trkpt lat="37.453505000" lon="-5.639801000">
        <ele>107.5</ele>
        <time>2020-10-11T12:42:48Z</time>
      </trkpt>
      <trkpt lat="37.453592000" lon="-5.639703000">
        <ele>107.2</ele>
        <time>2020-10-11T12:42:51Z</time>
      </trkpt>
      <trkpt lat="37.453685000" lon="-5.639612000">
        <ele>106.8</ele>
        <time>2020-10-11T12:42:54Z</time>
      </trkpt>
      <trkpt lat="37.453778000" lon="-5.639514000">
        <ele>106.6</ele>
        <time>2020-10-11T12:42:57Z</time>
      </trkpt>
      <trkpt lat="37.453841000" lon="-5.639448000">
        <ele>106.5</ele>
        <time>2020-10-11T12:42:59Z</time>
      </trkpt>
      <trkpt lat="37.453902000" lon="-5.639375000">
        <ele>106.4</ele>
        <time>2020-10-11T12:43:01Z</time>
      </trkpt>
      <trkpt lat="37.453992000" lon="-5.639279000">
        <ele>106.4</ele>
        <time>2020-10-11T12:43:04Z</time>
      </trkpt>
      <trkpt lat="37.454077000" lon="-5.639177000">
        <ele>106.4</ele>
        <time>2020-10-11T12:43:07Z</time>
      </trkpt>
      <trkpt lat="37.454162000" lon="-5.639073000">
        <ele>106.4</ele>
        <time>2020-10-11T12:43:10Z</time>
      </trkpt>
      <trkpt lat="37.454254000" lon="-5.638973000">
        <ele>106.4</ele>
        <time>2020-10-11T12:43:13Z</time>
      </trkpt>
      <trkpt lat="37.454320000" lon="-5.638906000">
        <ele>106.4</ele>
        <time>2020-10-11T12:43:15Z</time>
      </trkpt>
      <trkpt lat="37.454389000" lon="-5.638845000">
        <ele>106.4</ele>
        <time>2020-10-11T12:43:17Z</time>
      </trkpt>
      <trkpt lat="37.454458000" lon="-5.638779000">
        <ele>106.5</ele>
        <time>2020-10-11T12:43:19Z</time>
      </trkpt>
      <trkpt lat="37.454528000" lon="-5.638710000">
        <ele>106.6</ele>
        <time>2020-10-11T12:43:21Z</time>
      </trkpt>
      <trkpt lat="37.454593000" lon="-5.638637000">
        <ele>106.8</ele>
        <time>2020-10-11T12:43:23Z</time>
      </trkpt>
      <trkpt lat="37.454652000" lon="-5.638563000">
        <ele>107.0</ele>
        <time>2020-10-11T12:43:25Z</time>
      </trkpt>
      <trkpt lat="37.454717000" lon="-5.638493000">
        <ele>107.2</ele>
        <time>2020-10-11T12:43:27Z</time>
      </trkpt>
      <trkpt lat="37.454807000" lon="-5.638393000">
        <ele>107.4</ele>
        <time>2020-10-11T12:43:30Z</time>
      </trkpt>
      <trkpt lat="37.454898000" lon="-5.638298000">
        <ele>107.5</ele>
        <time>2020-10-11T12:43:33Z</time>
      </trkpt>
      <trkpt lat="37.454984000" lon="-5.638208000">
        <ele>107.7</ele>
        <time>2020-10-11T12:43:36Z</time>
      </trkpt>
      <trkpt lat="37.455068000" lon="-5.638122000">
        <ele>107.9</ele>
        <time>2020-10-11T12:43:39Z</time>
      </trkpt>
      <trkpt lat="37.455129000" lon="-5.638054000">
        <ele>108.1</ele>
        <time>2020-10-11T12:43:41Z</time>
      </trkpt>
      <trkpt lat="37.455219000" lon="-5.637959000">
        <ele>108.3</ele>
        <time>2020-10-11T12:43:44Z</time>
      </trkpt>
      <trkpt lat="37.455305000" lon="-5.637866000">
        <ele>108.4</ele>
        <time>2020-10-11T12:43:47Z</time>
      </trkpt>
      <trkpt lat="37.455392000" lon="-5.637764000">
        <ele>108.4</ele>
        <time>2020-10-11T12:43:50Z</time>
      </trkpt>
      <trkpt lat="37.455455000" lon="-5.637693000">
        <ele>108.3</ele>
        <time>2020-10-11T12:43:52Z</time>
      </trkpt>
      <trkpt lat="37.455519000" lon="-5.637622000">
        <ele>108.2</ele>
        <time>2020-10-11T12:43:54Z</time>
      </trkpt>
      <trkpt lat="37.455582000" lon="-5.637547000">
        <ele>108.1</ele>
        <time>2020-10-11T12:43:56Z</time>
      </trkpt>
      <trkpt lat="37.455655000" lon="-5.637478000">
        <ele>108.1</ele>
        <time>2020-10-11T12:43:58Z</time>
      </trkpt>
      <trkpt lat="37.455722000" lon="-5.637406000">
        <ele>108.3</ele>
        <time>2020-10-11T12:44:00Z</time>
      </trkpt>
      <trkpt lat="37.455786000" lon="-5.637339000">
        <ele>108.5</ele>
        <time>2020-10-11T12:44:02Z</time>
      </trkpt>
      <trkpt lat="37.455851000" lon="-5.637269000">
        <ele>108.7</ele>
        <time>2020-10-11T12:44:04Z</time>
      </trkpt>
      <trkpt lat="37.455914000" lon="-5.637201000">
        <ele>109.1</ele>
        <time>2020-10-11T12:44:06Z</time>
      </trkpt>
      <trkpt lat="37.455976000" lon="-5.637132000">
        <ele>109.5</ele>
        <time>2020-10-11T12:44:08Z</time>
      </trkpt>
      <trkpt lat="37.456061000" lon="-5.637049000">
        <ele>110.0</ele>
        <time>2020-10-11T12:44:11Z</time>
      </trkpt>
      <trkpt lat="37.456140000" lon="-5.636962000">
        <ele>110.5</ele>
        <time>2020-10-11T12:44:14Z</time>
      </trkpt>
      <trkpt lat="37.456225000" lon="-5.636877000">
        <ele>110.9</ele>
        <time>2020-10-11T12:44:17Z</time>
      </trkpt>
      <trkpt lat="37.456305000" lon="-5.636789000">
        <ele>111.3</ele>
        <time>2020-10-11T12:44:20Z</time>
      </trkpt>
      <trkpt lat="37.456383000" lon="-5.636703000">
        <ele>111.6</ele>
        <time>2020-10-11T12:44:23Z</time>
      </trkpt>
      <trkpt lat="37.456457000" lon="-5.636618000">
        <ele>111.9</ele>
        <time>2020-10-11T12:44:26Z</time>
      </trkpt>
      <trkpt lat="37.456533000" lon="-5.636544000">
        <ele>112.1</ele>
        <time>2020-10-11T12:44:29Z</time>
      </trkpt>
      <trkpt lat="37.456605000" lon="-5.636476000">
        <ele>112.4</ele>
        <time>2020-10-11T12:44:32Z</time>
      </trkpt>
      <trkpt lat="37.456670000" lon="-5.636408000">
        <ele>112.5</ele>
        <time>2020-10-11T12:44:35Z</time>
      </trkpt>
      <trkpt lat="37.456761000" lon="-5.636340000">
        <ele>112.7</ele>
        <time>2020-10-11T12:44:39Z</time>
      </trkpt>
      <trkpt lat="37.456833000" lon="-5.636287000">
        <ele>112.8</ele>
        <time>2020-10-11T12:44:44Z</time>
      </trkpt>
      <trkpt lat="37.456911000" lon="-5.636329000">
        <ele>112.8</ele>
        <time>2020-10-11T12:44:49Z</time>
      </trkpt>
      <trkpt lat="37.457001000" lon="-5.636339000">
        <ele>112.8</ele>
        <time>2020-10-11T12:44:54Z</time>
      </trkpt>
      <trkpt lat="37.457080000" lon="-5.636375000">
        <ele>112.8</ele>
        <time>2020-10-11T12:44:58Z</time>
      </trkpt>
      <trkpt lat="37.457155000" lon="-5.636424000">
        <ele>112.9</ele>
        <time>2020-10-11T12:45:02Z</time>
      </trkpt>
      <trkpt lat="37.457216000" lon="-5.636436000">
        <ele>113.0</ele>
        <time>2020-10-11T12:47:12Z</time>
      </trkpt>
      <trkpt lat="37.457009000" lon="-5.636336000">
        <ele>111.8</ele>
        <time>2020-10-11T13:10:53Z</time>
      </trkpt>
      <trkpt lat="37.456976000" lon="-5.636315000">
        <ele>111.6</ele>
        <time>2020-10-11T13:10:53Z</time>
      </trkpt>
      <trkpt lat="37.456868000" lon="-5.636249000">
        <ele>111.4</ele>
        <time>2020-10-11T13:10:56Z</time>
      </trkpt>
      <trkpt lat="37.456781000" lon="-5.636195000">
        <ele>111.2</ele>
        <time>2020-10-11T13:10:58Z</time>
      </trkpt>
      <trkpt lat="37.456691000" lon="-5.636140000">
        <ele>111.1</ele>
        <time>2020-10-11T13:11:00Z</time>
      </trkpt>
      <trkpt lat="37.456593000" lon="-5.636084000">
        <ele>111.0</ele>
        <time>2020-10-11T13:11:02Z</time>
      </trkpt>
      <trkpt lat="37.456478000" lon="-5.636020000">
        <ele>110.7</ele>
        <time>2020-10-11T13:11:04Z</time>
      </trkpt>
      <trkpt lat="37.456357000" lon="-5.635949000">
        <ele>110.3</ele>
        <time>2020-10-11T13:11:06Z</time>
      </trkpt>
      <trkpt lat="37.456230000" lon="-5.635871000">
        <ele>109.7</ele>
        <time>2020-10-11T13:11:08Z</time>
      </trkpt>
      <trkpt lat="37.456095000" lon="-5.635803000">
        <ele>109.1</ele>
        <time>2020-10-11T13:11:10Z</time>
      </trkpt>
      <trkpt lat="37.455951000" lon="-5.635719000">
        <ele>108.3</ele>
        <time>2020-10-11T13:11:12Z</time>
      </trkpt>
      <trkpt lat="37.455808000" lon="-5.635635000">
        <ele>107.5</ele>
        <time>2020-10-11T13:11:14Z</time>
      </trkpt>
      <trkpt lat="37.455668000" lon="-5.635559000">
        <ele>106.8</ele>
        <time>2020-10-11T13:11:16Z</time>
      </trkpt>
      <trkpt lat="37.455533000" lon="-5.635482000">
        <ele>106.1</ele>
        <time>2020-10-11T13:11:18Z</time>
      </trkpt>
      <trkpt lat="37.455406000" lon="-5.635407000">
        <ele>105.4</ele>
        <time>2020-10-11T13:11:20Z</time>
      </trkpt>
      <trkpt lat="37.455286000" lon="-5.635335000">
        <ele>104.6</ele>
        <time>2020-10-11T13:11:22Z</time>
      </trkpt>
      <trkpt lat="37.455172000" lon="-5.635270000">
        <ele>103.8</ele>
        <time>2020-10-11T13:11:24Z</time>
      </trkpt>
      <trkpt lat="37.455056000" lon="-5.635206000">
        <ele>103.0</ele>
        <time>2020-10-11T13:11:26Z</time>
      </trkpt>
      <trkpt lat="37.454942000" lon="-5.635138000">
        <ele>102.4</ele>
        <time>2020-10-11T13:11:28Z</time>
      </trkpt>
      <trkpt lat="37.454831000" lon="-5.635068000">
        <ele>101.9</ele>
        <time>2020-10-11T13:11:30Z</time>
      </trkpt>
      <trkpt lat="37.454712000" lon="-5.635000000">
        <ele>101.5</ele>
        <time>2020-10-11T13:11:32Z</time>
      </trkpt>
      <trkpt lat="37.454597000" lon="-5.634927000">
        <ele>101.3</ele>
        <time>2020-10-11T13:11:34Z</time>
      </trkpt>
      <trkpt lat="37.454474000" lon="-5.634857000">
        <ele>100.9</ele>
        <time>2020-10-11T13:11:36Z</time>
      </trkpt>
      <trkpt lat="37.454349000" lon="-5.634782000">
        <ele>100.3</ele>
        <time>2020-10-11T13:11:38Z</time>
      </trkpt>
      <trkpt lat="37.454223000" lon="-5.634706000">
        <ele>99.7</ele>
        <time>2020-10-11T13:11:40Z</time>
      </trkpt>
      <trkpt lat="37.454097000" lon="-5.634629000">
        <ele>99.1</ele>
        <time>2020-10-11T13:11:42Z</time>
      </trkpt>
      <trkpt lat="37.453961000" lon="-5.634546000">
        <ele>98.5</ele>
        <time>2020-10-11T13:11:44Z</time>
      </trkpt>
      <trkpt lat="37.453827000" lon="-5.634467000">
        <ele>97.9</ele>
        <time>2020-10-11T13:11:46Z</time>
      </trkpt>
      <trkpt lat="37.453687000" lon="-5.634384000">
        <ele>97.4</ele>
        <time>2020-10-11T13:11:48Z</time>
      </trkpt>
      <trkpt lat="37.453613000" lon="-5.634339000">
        <ele>96.8</ele>
        <time>2020-10-11T13:11:49Z</time>
      </trkpt>
      <trkpt lat="37.453537000" lon="-5.634292000">
        <ele>96.4</ele>
        <time>2020-10-11T13:11:50Z</time>
      </trkpt>
      <trkpt lat="37.453392000" lon="-5.634200000">
        <ele>96.0</ele>
        <time>2020-10-11T13:11:52Z</time>
      </trkpt>
      <trkpt lat="37.453316000" lon="-5.634154000">
        <ele>95.6</ele>
        <time>2020-10-11T13:11:53Z</time>
      </trkpt>
      <trkpt lat="37.453238000" lon="-5.634106000">
        <ele>95.4</ele>
        <time>2020-10-11T13:11:54Z</time>
      </trkpt>
      <trkpt lat="37.453161000" lon="-5.634060000">
        <ele>95.3</ele>
        <time>2020-10-11T13:11:55Z</time>
      </trkpt>
      <trkpt lat="37.453082000" lon="-5.634016000">
        <ele>95.1</ele>
        <time>2020-10-11T13:11:56Z</time>
      </trkpt>
      <trkpt lat="37.453006000" lon="-5.633974000">
        <ele>95.0</ele>
        <time>2020-10-11T13:11:57Z</time>
      </trkpt>
      <trkpt lat="37.452931000" lon="-5.633931000">
        <ele>94.8</ele>
        <time>2020-10-11T13:11:58Z</time>
      </trkpt>
      <trkpt lat="37.452856000" lon="-5.633889000">
        <ele>94.6</ele>
        <time>2020-10-11T13:11:59Z</time>
      </trkpt>
      <trkpt lat="37.452714000" lon="-5.633797000">
        <ele>94.5</ele>
        <time>2020-10-11T13:12:01Z</time>
      </trkpt>
      <trkpt lat="37.452569000" lon="-5.633712000">
        <ele>94.2</ele>
        <time>2020-10-11T13:12:03Z</time>
      </trkpt>
      <trkpt lat="37.452429000" lon="-5.633633000">
        <ele>93.8</ele>
        <time>2020-10-11T13:12:05Z</time>
      </trkpt>
      <trkpt lat="37.452296000" lon="-5.633546000">
        <ele>93.5</ele>
        <time>2020-10-11T13:12:07Z</time>
      </trkpt>
      <trkpt lat="37.452164000" lon="-5.633477000">
        <ele>93.2</ele>
        <time>2020-10-11T13:12:09Z</time>
      </trkpt>
      <trkpt lat="37.452037000" lon="-5.633405000">
        <ele>92.9</ele>
        <time>2020-10-11T13:12:11Z</time>
      </trkpt>
      <trkpt lat="37.451905000" lon="-5.633356000">
        <ele>92.6</ele>
        <time>2020-10-11T13:12:13Z</time>
      </trkpt>
      <trkpt lat="37.451775000" lon="-5.633303000">
        <ele>92.5</ele>
        <time>2020-10-11T13:12:15Z</time>
      </trkpt>
      <trkpt lat="37.451642000" lon="-5.633258000">
        <ele>92.3</ele>
        <time>2020-10-11T13:12:17Z</time>
      </trkpt>
      <trkpt lat="37.451510000" lon="-5.633206000">
        <ele>92.1</ele>
        <time>2020-10-11T13:12:19Z</time>
      </trkpt>
      <trkpt lat="37.451383000" lon="-5.633154000">
        <ele>92.0</ele>
        <time>2020-10-11T13:12:21Z</time>
      </trkpt>
      <trkpt lat="37.451254000" lon="-5.633103000">
        <ele>91.9</ele>
        <time>2020-10-11T13:12:23Z</time>
      </trkpt>
      <trkpt lat="37.451127000" lon="-5.633053000">
        <ele>91.9</ele>
        <time>2020-10-11T13:12:25Z</time>
      </trkpt>
      <trkpt lat="37.450998000" lon="-5.633006000">
        <ele>91.9</ele>
        <time>2020-10-11T13:12:27Z</time>
      </trkpt>
      <trkpt lat="37.450865000" lon="-5.632959000">
        <ele>91.9</ele>
        <time>2020-10-11T13:12:29Z</time>
      </trkpt>
      <trkpt lat="37.450730000" lon="-5.632903000">
        <ele>91.8</ele>
        <time>2020-10-11T13:12:31Z</time>
      </trkpt>
      <trkpt lat="37.450599000" lon="-5.632851000">
        <ele>91.7</ele>
        <time>2020-10-11T13:12:33Z</time>
      </trkpt>
      <trkpt lat="37.450463000" lon="-5.632801000">
        <ele>91.5</ele>
        <time>2020-10-11T13:12:35Z</time>
      </trkpt>
      <trkpt lat="37.450330000" lon="-5.632747000">
        <ele>91.4</ele>
        <time>2020-10-11T13:12:37Z</time>
      </trkpt>
      <trkpt lat="37.450197000" lon="-5.632690000">
        <ele>91.2</ele>
        <time>2020-10-11T13:12:39Z</time>
      </trkpt>
      <trkpt lat="37.450061000" lon="-5.632644000">
        <ele>91.1</ele>
        <time>2020-10-11T13:12:41Z</time>
      </trkpt>
      <trkpt lat="37.449930000" lon="-5.632588000">
        <ele>90.8</ele>
        <time>2020-10-11T13:12:43Z</time>
      </trkpt>
      <trkpt lat="37.449802000" lon="-5.632544000">
        <ele>90.5</ele>
        <time>2020-10-11T13:12:45Z</time>
      </trkpt>
      <trkpt lat="37.449676000" lon="-5.632496000">
        <ele>90.1</ele>
        <time>2020-10-11T13:12:47Z</time>
      </trkpt>
      <trkpt lat="37.449552000" lon="-5.632451000">
        <ele>89.8</ele>
        <time>2020-10-11T13:12:49Z</time>
      </trkpt>
      <trkpt lat="37.449429000" lon="-5.632400000">
        <ele>89.5</ele>
        <time>2020-10-11T13:12:51Z</time>
      </trkpt>
      <trkpt lat="37.449309000" lon="-5.632352000">
        <ele>89.4</ele>
        <time>2020-10-11T13:12:53Z</time>
      </trkpt>
      <trkpt lat="37.449188000" lon="-5.632305000">
        <ele>89.2</ele>
        <time>2020-10-11T13:12:55Z</time>
      </trkpt>
      <trkpt lat="37.449075000" lon="-5.632259000">
        <ele>89.0</ele>
        <time>2020-10-11T13:12:57Z</time>
      </trkpt>
      <trkpt lat="37.448958000" lon="-5.632217000">
        <ele>88.8</ele>
        <time>2020-10-11T13:12:59Z</time>
      </trkpt>
      <trkpt lat="37.448845000" lon="-5.632174000">
        <ele>88.6</ele>
        <time>2020-10-11T13:13:01Z</time>
      </trkpt>
      <trkpt lat="37.448739000" lon="-5.632125000">
        <ele>88.5</ele>
        <time>2020-10-11T13:13:03Z</time>
      </trkpt>
      <trkpt lat="37.448627000" lon="-5.632077000">
        <ele>88.5</ele>
        <time>2020-10-11T13:13:05Z</time>
      </trkpt>
      <trkpt lat="37.448516000" lon="-5.632033000">
        <ele>88.6</ele>
        <time>2020-10-11T13:13:07Z</time>
      </trkpt>
      <trkpt lat="37.448401000" lon="-5.631987000">
        <ele>88.8</ele>
        <time>2020-10-11T13:13:09Z</time>
      </trkpt>
      <trkpt lat="37.448286000" lon="-5.631948000">
        <ele>88.9</ele>
        <time>2020-10-11T13:13:11Z</time>
      </trkpt>
      <trkpt lat="37.448171000" lon="-5.631902000">
        <ele>88.9</ele>
        <time>2020-10-11T13:13:13Z</time>
      </trkpt>
      <trkpt lat="37.448061000" lon="-5.631859000">
        <ele>88.9</ele>
        <time>2020-10-11T13:13:15Z</time>
      </trkpt>
      <trkpt lat="37.447942000" lon="-5.631807000">
        <ele>88.9</ele>
        <time>2020-10-11T13:13:17Z</time>
      </trkpt>
      <trkpt lat="37.447827000" lon="-5.631769000">
        <ele>88.9</ele>
        <time>2020-10-11T13:13:19Z</time>
      </trkpt>
      <trkpt lat="37.447715000" lon="-5.631723000">
        <ele>88.9</ele>
        <time>2020-10-11T13:13:21Z</time>
      </trkpt>
      <trkpt lat="37.447599000" lon="-5.631680000">
        <ele>88.8</ele>
        <time>2020-10-11T13:13:23Z</time>
      </trkpt>
      <trkpt lat="37.447483000" lon="-5.631638000">
        <ele>88.6</ele>
        <time>2020-10-11T13:13:25Z</time>
      </trkpt>
      <trkpt lat="37.447379000" lon="-5.631599000">
        <ele>88.5</ele>
        <time>2020-10-11T13:13:27Z</time>
      </trkpt>
      <trkpt lat="37.447273000" lon="-5.631555000">
        <ele>88.2</ele>
        <time>2020-10-11T13:13:29Z</time>
      </trkpt>
      <trkpt lat="37.447168000" lon="-5.631512000">
        <ele>87.8</ele>
        <time>2020-10-11T13:13:31Z</time>
      </trkpt>
      <trkpt lat="37.447061000" lon="-5.631471000">
        <ele>87.4</ele>
        <time>2020-10-11T13:13:33Z</time>
      </trkpt>
      <trkpt lat="37.446965000" lon="-5.631423000">
        <ele>87.0</ele>
        <time>2020-10-11T13:13:35Z</time>
      </trkpt>
      <trkpt lat="37.446864000" lon="-5.631389000">
        <ele>86.6</ele>
        <time>2020-10-11T13:13:37Z</time>
      </trkpt>
      <trkpt lat="37.446762000" lon="-5.631351000">
        <ele>86.4</ele>
        <time>2020-10-11T13:13:39Z</time>
      </trkpt>
      <trkpt lat="37.446656000" lon="-5.631315000">
        <ele>86.2</ele>
        <time>2020-10-11T13:13:41Z</time>
      </trkpt>
      <trkpt lat="37.446546000" lon="-5.631278000">
        <ele>86.1</ele>
        <time>2020-10-11T13:13:43Z</time>
      </trkpt>
      <trkpt lat="37.446432000" lon="-5.631236000">
        <ele>86.1</ele>
        <time>2020-10-11T13:13:45Z</time>
      </trkpt>
      <trkpt lat="37.446314000" lon="-5.631189000">
        <ele>86.1</ele>
        <time>2020-10-11T13:13:47Z</time>
      </trkpt>
      <trkpt lat="37.446193000" lon="-5.631141000">
        <ele>86.1</ele>
        <time>2020-10-11T13:13:49Z</time>
      </trkpt>
      <trkpt lat="37.446071000" lon="-5.631091000">
        <ele>86.1</ele>
        <time>2020-10-11T13:13:51Z</time>
      </trkpt>
      <trkpt lat="37.445946000" lon="-5.631048000">
        <ele>86.0</ele>
        <time>2020-10-11T13:13:53Z</time>
      </trkpt>
      <trkpt lat="37.445818000" lon="-5.631001000">
        <ele>86.1</ele>
        <time>2020-10-11T13:13:55Z</time>
      </trkpt>
      <trkpt lat="37.445690000" lon="-5.630952000">
        <ele>86.2</ele>
        <time>2020-10-11T13:13:57Z</time>
      </trkpt>
      <trkpt lat="37.445561000" lon="-5.630903000">
        <ele>86.3</ele>
        <time>2020-10-11T13:13:59Z</time>
      </trkpt>
      <trkpt lat="37.445431000" lon="-5.630856000">
        <ele>86.4</ele>
        <time>2020-10-11T13:14:01Z</time>
      </trkpt>
      <trkpt lat="37.445306000" lon="-5.630807000">
        <ele>86.5</ele>
        <time>2020-10-11T13:14:03Z</time>
      </trkpt>
      <trkpt lat="37.445180000" lon="-5.630756000">
        <ele>86.4</ele>
        <time>2020-10-11T13:14:05Z</time>
      </trkpt>
      <trkpt lat="37.445064000" lon="-5.630711000">
        <ele>86.3</ele>
        <time>2020-10-11T13:14:07Z</time>
      </trkpt>
      <trkpt lat="37.444951000" lon="-5.630670000">
        <ele>86.1</ele>
        <time>2020-10-11T13:14:09Z</time>
      </trkpt>
      <trkpt lat="37.444841000" lon="-5.630617000">
        <ele>85.9</ele>
        <time>2020-10-11T13:14:11Z</time>
      </trkpt>
      <trkpt lat="37.444734000" lon="-5.630583000">
        <ele>85.8</ele>
        <time>2020-10-11T13:14:13Z</time>
      </trkpt>
      <trkpt lat="37.444622000" lon="-5.630543000">
        <ele>85.8</ele>
        <time>2020-10-11T13:14:15Z</time>
      </trkpt>
      <trkpt lat="37.444513000" lon="-5.630496000">
        <ele>85.6</ele>
        <time>2020-10-11T13:14:17Z</time>
      </trkpt>
      <trkpt lat="37.444405000" lon="-5.630451000">
        <ele>85.5</ele>
        <time>2020-10-11T13:14:19Z</time>
      </trkpt>
      <trkpt lat="37.444296000" lon="-5.630402000">
        <ele>85.3</ele>
        <time>2020-10-11T13:14:21Z</time>
      </trkpt>
      <trkpt lat="37.444184000" lon="-5.630355000">
        <ele>85.0</ele>
        <time>2020-10-11T13:14:23Z</time>
      </trkpt>
      <trkpt lat="37.444087000" lon="-5.630309000">
        <ele>84.7</ele>
        <time>2020-10-11T13:14:25Z</time>
      </trkpt>
      <trkpt lat="37.444007000" lon="-5.630283000">
        <ele>84.5</ele>
        <time>2020-10-11T13:14:30Z</time>
      </trkpt>
      <trkpt lat="37.443924000" lon="-5.630243000">
        <ele>84.3</ele>
        <time>2020-10-11T13:14:55Z</time>
      </trkpt>
      <trkpt lat="37.443823000" lon="-5.630192000">
        <ele>84.1</ele>
        <time>2020-10-11T13:14:58Z</time>
      </trkpt>
      <trkpt lat="37.443730000" lon="-5.630139000">
        <ele>83.8</ele>
        <time>2020-10-11T13:15:00Z</time>
      </trkpt>
      <trkpt lat="37.443622000" lon="-5.630087000">
        <ele>83.5</ele>
        <time>2020-10-11T13:15:02Z</time>
      </trkpt>
      <trkpt lat="37.443507000" lon="-5.630021000">
        <ele>83.2</ele>
        <time>2020-10-11T13:15:04Z</time>
      </trkpt>
      <trkpt lat="37.443382000" lon="-5.629955000">
        <ele>82.9</ele>
        <time>2020-10-11T13:15:06Z</time>
      </trkpt>
      <trkpt lat="37.443259000" lon="-5.629885000">
        <ele>82.7</ele>
        <time>2020-10-11T13:15:08Z</time>
      </trkpt>
      <trkpt lat="37.443131000" lon="-5.629816000">
        <ele>82.5</ele>
        <time>2020-10-11T13:15:10Z</time>
      </trkpt>
      <trkpt lat="37.443003000" lon="-5.629747000">
        <ele>82.4</ele>
        <time>2020-10-11T13:15:12Z</time>
      </trkpt>
      <trkpt lat="37.442875000" lon="-5.629674000">
        <ele>82.1</ele>
        <time>2020-10-11T13:15:14Z</time>
      </trkpt>
      <trkpt lat="37.442748000" lon="-5.629600000">
        <ele>81.8</ele>
        <time>2020-10-11T13:15:16Z</time>
      </trkpt>
      <trkpt lat="37.442616000" lon="-5.629528000">
        <ele>81.6</ele>
        <time>2020-10-11T13:15:18Z</time>
      </trkpt>
      <trkpt lat="37.442488000" lon="-5.629456000">
        <ele>81.5</ele>
        <time>2020-10-11T13:15:20Z</time>
      </trkpt>
      <trkpt lat="37.442362000" lon="-5.629386000">
        <ele>81.4</ele>
        <time>2020-10-11T13:15:22Z</time>
      </trkpt>
      <trkpt lat="37.442238000" lon="-5.629320000">
        <ele>81.3</ele>
        <time>2020-10-11T13:15:24Z</time>
      </trkpt>
      <trkpt lat="37.442111000" lon="-5.629252000">
        <ele>81.2</ele>
        <time>2020-10-11T13:15:26Z</time>
      </trkpt>
      <trkpt lat="37.441987000" lon="-5.629179000">
        <ele>81.1</ele>
        <time>2020-10-11T13:15:28Z</time>
      </trkpt>
      <trkpt lat="37.441859000" lon="-5.629109000">
        <ele>80.9</ele>
        <time>2020-10-11T13:15:30Z</time>
      </trkpt>
      <trkpt lat="37.441736000" lon="-5.629048000">
        <ele>80.7</ele>
        <time>2020-10-11T13:15:32Z</time>
      </trkpt>
      <trkpt lat="37.441611000" lon="-5.628981000">
        <ele>80.5</ele>
        <time>2020-10-11T13:15:34Z</time>
      </trkpt>
      <trkpt lat="37.441486000" lon="-5.628913000">
        <ele>80.5</ele>
        <time>2020-10-11T13:15:36Z</time>
      </trkpt>
      <trkpt lat="37.441362000" lon="-5.628847000">
        <ele>80.4</ele>
        <time>2020-10-11T13:15:38Z</time>
      </trkpt>
      <trkpt lat="37.441236000" lon="-5.628783000">
        <ele>80.2</ele>
        <time>2020-10-11T13:15:40Z</time>
      </trkpt>
      <trkpt lat="37.441108000" lon="-5.628715000">
        <ele>80.0</ele>
        <time>2020-10-11T13:15:42Z</time>
      </trkpt>
      <trkpt lat="37.440982000" lon="-5.628651000">
        <ele>79.7</ele>
        <time>2020-10-11T13:15:44Z</time>
      </trkpt>
      <trkpt lat="37.440858000" lon="-5.628588000">
        <ele>79.5</ele>
        <time>2020-10-11T13:15:46Z</time>
      </trkpt>
      <trkpt lat="37.440738000" lon="-5.628518000">
        <ele>79.2</ele>
        <time>2020-10-11T13:15:48Z</time>
      </trkpt>
      <trkpt lat="37.440622000" lon="-5.628452000">
        <ele>78.9</ele>
        <time>2020-10-11T13:15:50Z</time>
      </trkpt>
      <trkpt lat="37.440506000" lon="-5.628392000">
        <ele>78.6</ele>
        <time>2020-10-11T13:15:52Z</time>
      </trkpt>
      <trkpt lat="37.440387000" lon="-5.628329000">
        <ele>78.3</ele>
        <time>2020-10-11T13:15:54Z</time>
      </trkpt>
      <trkpt lat="37.440269000" lon="-5.628261000">
        <ele>77.8</ele>
        <time>2020-10-11T13:15:56Z</time>
      </trkpt>
      <trkpt lat="37.440155000" lon="-5.628192000">
        <ele>77.4</ele>
        <time>2020-10-11T13:15:58Z</time>
      </trkpt>
      <trkpt lat="37.440042000" lon="-5.628118000">
        <ele>76.9</ele>
        <time>2020-10-11T13:16:00Z</time>
      </trkpt>
      <trkpt lat="37.439929000" lon="-5.628045000">
        <ele>76.5</ele>
        <time>2020-10-11T13:16:02Z</time>
      </trkpt>
      <trkpt lat="37.439824000" lon="-5.627958000">
        <ele>76.3</ele>
        <time>2020-10-11T13:16:04Z</time>
      </trkpt>
      <trkpt lat="37.439718000" lon="-5.627870000">
        <ele>76.2</ele>
        <time>2020-10-11T13:16:06Z</time>
      </trkpt>
      <trkpt lat="37.439607000" lon="-5.627779000">
        <ele>76.1</ele>
        <time>2020-10-11T13:16:08Z</time>
      </trkpt>
      <trkpt lat="37.439498000" lon="-5.627683000">
        <ele>76.1</ele>
        <time>2020-10-11T13:16:10Z</time>
      </trkpt>
      <trkpt lat="37.439390000" lon="-5.627586000">
        <ele>76.1</ele>
        <time>2020-10-11T13:16:12Z</time>
      </trkpt>
      <trkpt lat="37.439281000" lon="-5.627492000">
        <ele>76.1</ele>
        <time>2020-10-11T13:16:14Z</time>
      </trkpt>
      <trkpt lat="37.439173000" lon="-5.627400000">
        <ele>76.2</ele>
        <time>2020-10-11T13:16:16Z</time>
      </trkpt>
      <trkpt lat="37.439065000" lon="-5.627303000">
        <ele>76.4</ele>
        <time>2020-10-11T13:16:18Z</time>
      </trkpt>
      <trkpt lat="37.438959000" lon="-5.627207000">
        <ele>76.5</ele>
        <time>2020-10-11T13:16:20Z</time>
      </trkpt>
      <trkpt lat="37.438849000" lon="-5.627106000">
        <ele>76.7</ele>
        <time>2020-10-11T13:16:22Z</time>
      </trkpt>
      <trkpt lat="37.438739000" lon="-5.627008000">
        <ele>76.9</ele>
        <time>2020-10-11T13:16:24Z</time>
      </trkpt>
      <trkpt lat="37.438631000" lon="-5.626912000">
        <ele>77.0</ele>
        <time>2020-10-11T13:16:26Z</time>
      </trkpt>
      <trkpt lat="37.438523000" lon="-5.626814000">
        <ele>77.0</ele>
        <time>2020-10-11T13:16:28Z</time>
      </trkpt>
      <trkpt lat="37.438412000" lon="-5.626725000">
        <ele>76.9</ele>
        <time>2020-10-11T13:16:30Z</time>
      </trkpt>
      <trkpt lat="37.438309000" lon="-5.626625000">
        <ele>76.8</ele>
        <time>2020-10-11T13:16:32Z</time>
      </trkpt>
      <trkpt lat="37.438206000" lon="-5.626532000">
        <ele>76.7</ele>
        <time>2020-10-11T13:16:34Z</time>
      </trkpt>
      <trkpt lat="37.438100000" lon="-5.626438000">
        <ele>76.6</ele>
        <time>2020-10-11T13:16:36Z</time>
      </trkpt>
      <trkpt lat="37.438000000" lon="-5.626341000">
        <ele>76.5</ele>
        <time>2020-10-11T13:16:38Z</time>
      </trkpt>
      <trkpt lat="37.437895000" lon="-5.626248000">
        <ele>76.5</ele>
        <time>2020-10-11T13:16:40Z</time>
      </trkpt>
      <trkpt lat="37.437792000" lon="-5.626151000">
        <ele>76.3</ele>
        <time>2020-10-11T13:16:42Z</time>
      </trkpt>
      <trkpt lat="37.437683000" lon="-5.626060000">
        <ele>76.1</ele>
        <time>2020-10-11T13:16:44Z</time>
      </trkpt>
      <trkpt lat="37.437576000" lon="-5.625963000">
        <ele>75.9</ele>
        <time>2020-10-11T13:16:46Z</time>
      </trkpt>
      <trkpt lat="37.437470000" lon="-5.625869000">
        <ele>75.6</ele>
        <time>2020-10-11T13:16:48Z</time>
      </trkpt>
      <trkpt lat="37.437364000" lon="-5.625772000">
        <ele>75.4</ele>
        <time>2020-10-11T13:16:50Z</time>
      </trkpt>
      <trkpt lat="37.437256000" lon="-5.625677000">
        <ele>75.2</ele>
        <time>2020-10-11T13:16:52Z</time>
      </trkpt>
      <trkpt lat="37.437144000" lon="-5.625580000">
        <ele>75.0</ele>
        <time>2020-10-11T13:16:54Z</time>
      </trkpt>
      <trkpt lat="37.437036000" lon="-5.625483000">
        <ele>74.8</ele>
        <time>2020-10-11T13:16:56Z</time>
      </trkpt>
      <trkpt lat="37.436926000" lon="-5.625387000">
        <ele>74.6</ele>
        <time>2020-10-11T13:16:58Z</time>
      </trkpt>
      <trkpt lat="37.436820000" lon="-5.625291000">
        <ele>74.5</ele>
        <time>2020-10-11T13:17:00Z</time>
      </trkpt>
      <trkpt lat="37.436717000" lon="-5.625196000">
        <ele>74.4</ele>
        <time>2020-10-11T13:17:02Z</time>
      </trkpt>
      <trkpt lat="37.436610000" lon="-5.625108000">
        <ele>74.4</ele>
        <time>2020-10-11T13:17:04Z</time>
      </trkpt>
      <trkpt lat="37.436507000" lon="-5.625025000">
        <ele>74.5</ele>
        <time>2020-10-11T13:17:06Z</time>
      </trkpt>
      <trkpt lat="37.436402000" lon="-5.624942000">
        <ele>74.5</ele>
        <time>2020-10-11T13:17:08Z</time>
      </trkpt>
      <trkpt lat="37.436299000" lon="-5.624861000">
        <ele>74.7</ele>
        <time>2020-10-11T13:17:10Z</time>
      </trkpt>
      <trkpt lat="37.436190000" lon="-5.624782000">
        <ele>74.8</ele>
        <time>2020-10-11T13:17:12Z</time>
      </trkpt>
      <trkpt lat="37.436086000" lon="-5.624707000">
        <ele>74.8</ele>
        <time>2020-10-11T13:17:14Z</time>
      </trkpt>
      <trkpt lat="37.435978000" lon="-5.624640000">
        <ele>74.7</ele>
        <time>2020-10-11T13:17:16Z</time>
      </trkpt>
      <trkpt lat="37.435865000" lon="-5.624571000">
        <ele>74.5</ele>
        <time>2020-10-11T13:17:18Z</time>
      </trkpt>
      <trkpt lat="37.435758000" lon="-5.624501000">
        <ele>74.3</ele>
        <time>2020-10-11T13:17:20Z</time>
      </trkpt>
      <trkpt lat="37.435650000" lon="-5.624435000">
        <ele>74.1</ele>
        <time>2020-10-11T13:17:22Z</time>
      </trkpt>
      <trkpt lat="37.435540000" lon="-5.624361000">
        <ele>73.8</ele>
        <time>2020-10-11T13:17:24Z</time>
      </trkpt>
      <trkpt lat="37.435428000" lon="-5.624288000">
        <ele>73.6</ele>
        <time>2020-10-11T13:17:26Z</time>
      </trkpt>
      <trkpt lat="37.435315000" lon="-5.624220000">
        <ele>73.5</ele>
        <time>2020-10-11T13:17:28Z</time>
      </trkpt>
      <trkpt lat="37.435196000" lon="-5.624155000">
        <ele>73.4</ele>
        <time>2020-10-11T13:17:30Z</time>
      </trkpt>
      <trkpt lat="37.435077000" lon="-5.624087000">
        <ele>73.3</ele>
        <time>2020-10-11T13:17:32Z</time>
      </trkpt>
      <trkpt lat="37.434958000" lon="-5.624019000">
        <ele>73.3</ele>
        <time>2020-10-11T13:17:34Z</time>
      </trkpt>
      <trkpt lat="37.434840000" lon="-5.623944000">
        <ele>73.4</ele>
        <time>2020-10-11T13:17:36Z</time>
      </trkpt>
      <trkpt lat="37.434722000" lon="-5.623877000">
        <ele>73.5</ele>
        <time>2020-10-11T13:17:38Z</time>
      </trkpt>
      <trkpt lat="37.434599000" lon="-5.623802000">
        <ele>73.8</ele>
        <time>2020-10-11T13:17:40Z</time>
      </trkpt>
      <trkpt lat="37.434480000" lon="-5.623731000">
        <ele>74.1</ele>
        <time>2020-10-11T13:17:42Z</time>
      </trkpt>
      <trkpt lat="37.434358000" lon="-5.623664000">
        <ele>74.3</ele>
        <time>2020-10-11T13:17:44Z</time>
      </trkpt>
      <trkpt lat="37.434243000" lon="-5.623593000">
        <ele>74.5</ele>
        <time>2020-10-11T13:17:46Z</time>
      </trkpt>
      <trkpt lat="37.434119000" lon="-5.623527000">
        <ele>74.5</ele>
        <time>2020-10-11T13:17:48Z</time>
      </trkpt>
      <trkpt lat="37.433999000" lon="-5.623462000">
        <ele>74.5</ele>
        <time>2020-10-11T13:17:50Z</time>
      </trkpt>
      <trkpt lat="37.433875000" lon="-5.623393000">
        <ele>74.5</ele>
        <time>2020-10-11T13:17:52Z</time>
      </trkpt>
      <trkpt lat="37.433758000" lon="-5.623323000">
        <ele>74.4</ele>
        <time>2020-10-11T13:17:54Z</time>
      </trkpt>
      <trkpt lat="37.433636000" lon="-5.623253000">
        <ele>74.3</ele>
        <time>2020-10-11T13:17:56Z</time>
      </trkpt>
      <trkpt lat="37.433519000" lon="-5.623183000">
        <ele>74.2</ele>
        <time>2020-10-11T13:17:58Z</time>
      </trkpt>
      <trkpt lat="37.433406000" lon="-5.623110000">
        <ele>74.0</ele>
        <time>2020-10-11T13:18:00Z</time>
      </trkpt>
      <trkpt lat="37.433282000" lon="-5.623041000">
        <ele>73.8</ele>
        <time>2020-10-11T13:18:02Z</time>
      </trkpt>
      <trkpt lat="37.433160000" lon="-5.622980000">
        <ele>73.7</ele>
        <time>2020-10-11T13:18:04Z</time>
      </trkpt>
      <trkpt lat="37.433045000" lon="-5.622911000">
        <ele>73.6</ele>
        <time>2020-10-11T13:18:06Z</time>
      </trkpt>
      <trkpt lat="37.432930000" lon="-5.622848000">
        <ele>73.5</ele>
        <time>2020-10-11T13:18:08Z</time>
      </trkpt>
      <trkpt lat="37.432821000" lon="-5.622779000">
        <ele>73.5</ele>
        <time>2020-10-11T13:18:10Z</time>
      </trkpt>
      <trkpt lat="37.432707000" lon="-5.622710000">
        <ele>73.3</ele>
        <time>2020-10-11T13:18:12Z</time>
      </trkpt>
      <trkpt lat="37.432593000" lon="-5.622649000">
        <ele>73.1</ele>
        <time>2020-10-11T13:18:14Z</time>
      </trkpt>
      <trkpt lat="37.432482000" lon="-5.622587000">
        <ele>72.8</ele>
        <time>2020-10-11T13:18:16Z</time>
      </trkpt>
      <trkpt lat="37.432372000" lon="-5.622522000">
        <ele>72.5</ele>
        <time>2020-10-11T13:18:18Z</time>
      </trkpt>
      <trkpt lat="37.432265000" lon="-5.622460000">
        <ele>72.3</ele>
        <time>2020-10-11T13:18:20Z</time>
      </trkpt>
      <trkpt lat="37.432160000" lon="-5.622399000">
        <ele>72.0</ele>
        <time>2020-10-11T13:18:22Z</time>
      </trkpt>
      <trkpt lat="37.432049000" lon="-5.622336000">
        <ele>71.7</ele>
        <time>2020-10-11T13:18:24Z</time>
      </trkpt>
      <trkpt lat="37.431938000" lon="-5.622269000">
        <ele>71.4</ele>
        <time>2020-10-11T13:18:26Z</time>
      </trkpt>
      <trkpt lat="37.431828000" lon="-5.622203000">
        <ele>71.0</ele>
        <time>2020-10-11T13:18:28Z</time>
      </trkpt>
      <trkpt lat="37.431718000" lon="-5.622136000">
        <ele>70.6</ele>
        <time>2020-10-11T13:18:30Z</time>
      </trkpt>
      <trkpt lat="37.431607000" lon="-5.622078000">
        <ele>70.3</ele>
        <time>2020-10-11T13:18:32Z</time>
      </trkpt>
      <trkpt lat="37.431498000" lon="-5.622012000">
        <ele>70.1</ele>
        <time>2020-10-11T13:18:34Z</time>
      </trkpt>
      <trkpt lat="37.431391000" lon="-5.621949000">
        <ele>70.0</ele>
        <time>2020-10-11T13:18:36Z</time>
      </trkpt>
      <trkpt lat="37.431284000" lon="-5.621874000">
        <ele>70.1</ele>
        <time>2020-10-11T13:18:38Z</time>
      </trkpt>
      <trkpt lat="37.431184000" lon="-5.621787000">
        <ele>70.3</ele>
        <time>2020-10-11T13:18:40Z</time>
      </trkpt>
      <trkpt lat="37.431091000" lon="-5.621694000">
        <ele>70.5</ele>
        <time>2020-10-11T13:18:42Z</time>
      </trkpt>
      <trkpt lat="37.431001000" lon="-5.621598000">
        <ele>70.7</ele>
        <time>2020-10-11T13:18:44Z</time>
      </trkpt>
      <trkpt lat="37.430910000" lon="-5.621497000">
        <ele>71.0</ele>
        <time>2020-10-11T13:18:46Z</time>
      </trkpt>
      <trkpt lat="37.430818000" lon="-5.621402000">
        <ele>71.4</ele>
        <time>2020-10-11T13:18:48Z</time>
      </trkpt>
      <trkpt lat="37.430727000" lon="-5.621304000">
        <ele>71.7</ele>
        <time>2020-10-11T13:18:50Z</time>
      </trkpt>
      <trkpt lat="37.430638000" lon="-5.621209000">
        <ele>72.1</ele>
        <time>2020-10-11T13:18:52Z</time>
      </trkpt>
      <trkpt lat="37.430554000" lon="-5.621120000">
        <ele>72.5</ele>
        <time>2020-10-11T13:18:54Z</time>
      </trkpt>
      <trkpt lat="37.430466000" lon="-5.621028000">
        <ele>72.8</ele>
        <time>2020-10-11T13:18:56Z</time>
      </trkpt>
      <trkpt lat="37.430378000" lon="-5.620935000">
        <ele>73.0</ele>
        <time>2020-10-11T13:18:58Z</time>
      </trkpt>
      <trkpt lat="37.430291000" lon="-5.620841000">
        <ele>73.1</ele>
        <time>2020-10-11T13:19:00Z</time>
      </trkpt>
      <trkpt lat="37.430201000" lon="-5.620749000">
        <ele>73.1</ele>
        <time>2020-10-11T13:19:02Z</time>
      </trkpt>
      <trkpt lat="37.430114000" lon="-5.620657000">
        <ele>73.0</ele>
        <time>2020-10-11T13:19:04Z</time>
      </trkpt>
      <trkpt lat="37.430027000" lon="-5.620562000">
        <ele>72.9</ele>
        <time>2020-10-11T13:19:06Z</time>
      </trkpt>
      <trkpt lat="37.429939000" lon="-5.620469000">
        <ele>72.8</ele>
        <time>2020-10-11T13:19:08Z</time>
      </trkpt>
      <trkpt lat="37.429858000" lon="-5.620376000">
        <ele>72.7</ele>
        <time>2020-10-11T13:19:10Z</time>
      </trkpt>
      <trkpt lat="37.429772000" lon="-5.620289000">
        <ele>72.6</ele>
        <time>2020-10-11T13:19:12Z</time>
      </trkpt>
      <trkpt lat="37.429689000" lon="-5.620195000">
        <ele>72.5</ele>
        <time>2020-10-11T13:19:14Z</time>
      </trkpt>
      <trkpt lat="37.429609000" lon="-5.620110000">
        <ele>72.5</ele>
        <time>2020-10-11T13:19:16Z</time>
      </trkpt>
      <trkpt lat="37.429528000" lon="-5.620021000">
        <ele>72.3</ele>
        <time>2020-10-11T13:19:18Z</time>
      </trkpt>
      <trkpt lat="37.429449000" lon="-5.619935000">
        <ele>72.2</ele>
        <time>2020-10-11T13:19:20Z</time>
      </trkpt>
      <trkpt lat="37.429366000" lon="-5.619846000">
        <ele>72.1</ele>
        <time>2020-10-11T13:19:22Z</time>
      </trkpt>
      <trkpt lat="37.429284000" lon="-5.619755000">
        <ele>72.0</ele>
        <time>2020-10-11T13:19:24Z</time>
      </trkpt>
      <trkpt lat="37.429201000" lon="-5.619667000">
        <ele>72.0</ele>
        <time>2020-10-11T13:19:26Z</time>
      </trkpt>
      <trkpt lat="37.429117000" lon="-5.619577000">
        <ele>71.9</ele>
        <time>2020-10-11T13:19:28Z</time>
      </trkpt>
      <trkpt lat="37.429037000" lon="-5.619486000">
        <ele>71.8</ele>
        <time>2020-10-11T13:19:30Z</time>
      </trkpt>
      <trkpt lat="37.428959000" lon="-5.619397000">
        <ele>71.7</ele>
        <time>2020-10-11T13:19:32Z</time>
      </trkpt>
      <trkpt lat="37.428880000" lon="-5.619311000">
        <ele>71.6</ele>
        <time>2020-10-11T13:19:34Z</time>
      </trkpt>
      <trkpt lat="37.428796000" lon="-5.619232000">
        <ele>71.5</ele>
        <time>2020-10-11T13:19:36Z</time>
      </trkpt>
      <trkpt lat="37.428717000" lon="-5.619143000">
        <ele>71.5</ele>
        <time>2020-10-11T13:19:38Z</time>
      </trkpt>
      <trkpt lat="37.428638000" lon="-5.619060000">
        <ele>71.4</ele>
        <time>2020-10-11T13:19:40Z</time>
      </trkpt>
      <trkpt lat="37.428562000" lon="-5.618980000">
        <ele>71.3</ele>
        <time>2020-10-11T13:19:42Z</time>
      </trkpt>
      <trkpt lat="37.428484000" lon="-5.618900000">
        <ele>71.2</ele>
        <time>2020-10-11T13:19:44Z</time>
      </trkpt>
      <trkpt lat="37.428407000" lon="-5.618816000">
        <ele>71.1</ele>
        <time>2020-10-11T13:19:46Z</time>
      </trkpt>
      <trkpt lat="37.428331000" lon="-5.618736000">
        <ele>71.0</ele>
        <time>2020-10-11T13:19:48Z</time>
      </trkpt>
      <trkpt lat="37.428261000" lon="-5.618656000">
        <ele>71.1</ele>
        <time>2020-10-11T13:19:50Z</time>
      </trkpt>
      <trkpt lat="37.428184000" lon="-5.618575000">
        <ele>71.2</ele>
        <time>2020-10-11T13:19:52Z</time>
      </trkpt>
      <trkpt lat="37.428113000" lon="-5.618490000">
        <ele>71.3</ele>
        <time>2020-10-11T13:19:54Z</time>
      </trkpt>
      <trkpt lat="37.428040000" lon="-5.618412000">
        <ele>71.4</ele>
        <time>2020-10-11T13:19:56Z</time>
      </trkpt>
      <trkpt lat="37.427972000" lon="-5.618332000">
        <ele>71.5</ele>
        <time>2020-10-11T13:19:58Z</time>
      </trkpt>
      <trkpt lat="37.427903000" lon="-5.618252000">
        <ele>71.7</ele>
        <time>2020-10-11T13:20:00Z</time>
      </trkpt>
      <trkpt lat="37.427836000" lon="-5.618186000">
        <ele>71.9</ele>
        <time>2020-10-11T13:20:02Z</time>
      </trkpt>
      <trkpt lat="37.427768000" lon="-5.618111000">
        <ele>72.1</ele>
        <time>2020-10-11T13:20:04Z</time>
      </trkpt>
      <trkpt lat="37.427696000" lon="-5.618035000">
        <ele>72.4</ele>
        <time>2020-10-11T13:20:06Z</time>
      </trkpt>
      <trkpt lat="37.427628000" lon="-5.617966000">
        <ele>72.6</ele>
        <time>2020-10-11T13:20:08Z</time>
      </trkpt>
      <trkpt lat="37.427556000" lon="-5.617892000">
        <ele>72.9</ele>
        <time>2020-10-11T13:20:10Z</time>
      </trkpt>
      <trkpt lat="37.427492000" lon="-5.617823000">
        <ele>73.1</ele>
        <time>2020-10-11T13:20:12Z</time>
      </trkpt>
      <trkpt lat="37.427400000" lon="-5.617719000">
        <ele>73.2</ele>
        <time>2020-10-11T13:20:15Z</time>
      </trkpt>
      <trkpt lat="37.427337000" lon="-5.617649000">
        <ele>73.3</ele>
        <time>2020-10-11T13:20:17Z</time>
      </trkpt>
      <trkpt lat="37.427274000" lon="-5.617579000">
        <ele>73.4</ele>
        <time>2020-10-11T13:20:19Z</time>
      </trkpt>
      <trkpt lat="37.427210000" lon="-5.617514000">
        <ele>73.4</ele>
        <time>2020-10-11T13:20:21Z</time>
      </trkpt>
      <trkpt lat="37.427146000" lon="-5.617449000">
        <ele>73.4</ele>
        <time>2020-10-11T13:20:23Z</time>
      </trkpt>
      <trkpt lat="37.427082000" lon="-5.617380000">
        <ele>73.4</ele>
        <time>2020-10-11T13:20:25Z</time>
      </trkpt>
      <trkpt lat="37.427016000" lon="-5.617312000">
        <ele>73.4</ele>
        <time>2020-10-11T13:20:27Z</time>
      </trkpt>
      <trkpt lat="37.426951000" lon="-5.617243000">
        <ele>73.3</ele>
        <time>2020-10-11T13:20:29Z</time>
      </trkpt>
      <trkpt lat="37.426856000" lon="-5.617150000">
        <ele>73.2</ele>
        <time>2020-10-11T13:20:32Z</time>
      </trkpt>
      <trkpt lat="37.426786000" lon="-5.617093000">
        <ele>73.1</ele>
        <time>2020-10-11T13:20:34Z</time>
      </trkpt>
      <trkpt lat="37.426702000" lon="-5.617051000">
        <ele>73.0</ele>
        <time>2020-10-11T13:20:36Z</time>
      </trkpt>
      <trkpt lat="37.426620000" lon="-5.616991000">
        <ele>72.9</ele>
        <time>2020-10-11T13:20:38Z</time>
      </trkpt>
      <trkpt lat="37.426533000" lon="-5.616930000">
        <ele>72.8</ele>
        <time>2020-10-11T13:20:40Z</time>
      </trkpt>
      <trkpt lat="37.426443000" lon="-5.616867000">
        <ele>72.7</ele>
        <time>2020-10-11T13:20:42Z</time>
      </trkpt>
      <trkpt lat="37.426353000" lon="-5.616810000">
        <ele>72.5</ele>
        <time>2020-10-11T13:20:44Z</time>
      </trkpt>
      <trkpt lat="37.426260000" lon="-5.616754000">
        <ele>72.4</ele>
        <time>2020-10-11T13:20:46Z</time>
      </trkpt>
      <trkpt lat="37.426160000" lon="-5.616683000">
        <ele>72.2</ele>
        <time>2020-10-11T13:20:48Z</time>
      </trkpt>
      <trkpt lat="37.426057000" lon="-5.616615000">
        <ele>72.0</ele>
        <time>2020-10-11T13:20:50Z</time>
      </trkpt>
      <trkpt lat="37.425952000" lon="-5.616544000">
        <ele>71.7</ele>
        <time>2020-10-11T13:20:52Z</time>
      </trkpt>
      <trkpt lat="37.425844000" lon="-5.616466000">
        <ele>71.5</ele>
        <time>2020-10-11T13:20:54Z</time>
      </trkpt>
      <trkpt lat="37.425730000" lon="-5.616398000">
        <ele>71.1</ele>
        <time>2020-10-11T13:20:56Z</time>
      </trkpt>
      <trkpt lat="37.425619000" lon="-5.616330000">
        <ele>70.7</ele>
        <time>2020-10-11T13:20:58Z</time>
      </trkpt>
      <trkpt lat="37.425512000" lon="-5.616266000">
        <ele>70.5</ele>
        <time>2020-10-11T13:21:00Z</time>
      </trkpt>
      <trkpt lat="37.425405000" lon="-5.616201000">
        <ele>70.2</ele>
        <time>2020-10-11T13:21:02Z</time>
      </trkpt>
      <trkpt lat="37.425296000" lon="-5.616140000">
        <ele>69.9</ele>
        <time>2020-10-11T13:21:04Z</time>
      </trkpt>
      <trkpt lat="37.425183000" lon="-5.616076000">
        <ele>69.7</ele>
        <time>2020-10-11T13:21:06Z</time>
      </trkpt>
      <trkpt lat="37.425070000" lon="-5.616018000">
        <ele>69.5</ele>
        <time>2020-10-11T13:21:08Z</time>
      </trkpt>
      <trkpt lat="37.424960000" lon="-5.615960000">
        <ele>69.4</ele>
        <time>2020-10-11T13:21:10Z</time>
      </trkpt>
      <trkpt lat="37.424850000" lon="-5.615904000">
        <ele>69.2</ele>
        <time>2020-10-11T13:21:12Z</time>
      </trkpt>
      <trkpt lat="37.424743000" lon="-5.615851000">
        <ele>69.1</ele>
        <time>2020-10-11T13:21:14Z</time>
      </trkpt>
      <trkpt lat="37.424642000" lon="-5.615792000">
        <ele>69.0</ele>
        <time>2020-10-11T13:21:16Z</time>
      </trkpt>
      <trkpt lat="37.424535000" lon="-5.615737000">
        <ele>69.1</ele>
        <time>2020-10-11T13:21:18Z</time>
      </trkpt>
      <trkpt lat="37.424429000" lon="-5.615690000">
        <ele>69.2</ele>
        <time>2020-10-11T13:21:20Z</time>
      </trkpt>
      <trkpt lat="37.424317000" lon="-5.615634000">
        <ele>69.3</ele>
        <time>2020-10-11T13:21:22Z</time>
      </trkpt>
      <trkpt lat="37.424210000" lon="-5.615577000">
        <ele>69.4</ele>
        <time>2020-10-11T13:21:24Z</time>
      </trkpt>
      <trkpt lat="37.424102000" lon="-5.615521000">
        <ele>69.5</ele>
        <time>2020-10-11T13:21:26Z</time>
      </trkpt>
      <trkpt lat="37.423996000" lon="-5.615469000">
        <ele>69.5</ele>
        <time>2020-10-11T13:21:28Z</time>
      </trkpt>
      <trkpt lat="37.423896000" lon="-5.615418000">
        <ele>69.7</ele>
        <time>2020-10-11T13:21:30Z</time>
      </trkpt>
      <trkpt lat="37.423792000" lon="-5.615366000">
        <ele>69.9</ele>
        <time>2020-10-11T13:21:32Z</time>
      </trkpt>
      <trkpt lat="37.423694000" lon="-5.615313000">
        <ele>70.1</ele>
        <time>2020-10-11T13:21:34Z</time>
      </trkpt>
      <trkpt lat="37.423595000" lon="-5.615260000">
        <ele>70.4</ele>
        <time>2020-10-11T13:21:36Z</time>
      </trkpt>
      <trkpt lat="37.423497000" lon="-5.615214000">
        <ele>70.6</ele>
        <time>2020-10-11T13:21:38Z</time>
      </trkpt>
      <trkpt lat="37.423403000" lon="-5.615163000">
        <ele>70.8</ele>
        <time>2020-10-11T13:21:40Z</time>
      </trkpt>
      <trkpt lat="37.423311000" lon="-5.615121000">
        <ele>71.0</ele>
        <time>2020-10-11T13:21:42Z</time>
      </trkpt>
      <trkpt lat="37.423220000" lon="-5.615069000">
        <ele>71.1</ele>
        <time>2020-10-11T13:21:44Z</time>
      </trkpt>
      <trkpt lat="37.423123000" lon="-5.615017000">
        <ele>71.2</ele>
        <time>2020-10-11T13:21:46Z</time>
      </trkpt>
      <trkpt lat="37.423023000" lon="-5.614974000">
        <ele>71.2</ele>
        <time>2020-10-11T13:21:48Z</time>
      </trkpt>
      <trkpt lat="37.422932000" lon="-5.614928000">
        <ele>71.2</ele>
        <time>2020-10-11T13:21:50Z</time>
      </trkpt>
      <trkpt lat="37.422836000" lon="-5.614878000">
        <ele>71.2</ele>
        <time>2020-10-11T13:21:52Z</time>
      </trkpt>
      <trkpt lat="37.422742000" lon="-5.614823000">
        <ele>71.2</ele>
        <time>2020-10-11T13:21:54Z</time>
      </trkpt>
      <trkpt lat="37.422647000" lon="-5.614779000">
        <ele>71.2</ele>
        <time>2020-10-11T13:21:56Z</time>
      </trkpt>
      <trkpt lat="37.422551000" lon="-5.614721000">
        <ele>71.1</ele>
        <time>2020-10-11T13:21:58Z</time>
      </trkpt>
      <trkpt lat="37.422455000" lon="-5.614672000">
        <ele>71.1</ele>
        <time>2020-10-11T13:22:00Z</time>
      </trkpt>
      <trkpt lat="37.422363000" lon="-5.614625000">
        <ele>71.1</ele>
        <time>2020-10-11T13:22:02Z</time>
      </trkpt>
      <trkpt lat="37.422263000" lon="-5.614578000">
        <ele>71.1</ele>
        <time>2020-10-11T13:22:04Z</time>
      </trkpt>
      <trkpt lat="37.422170000" lon="-5.614531000">
        <ele>71.2</ele>
        <time>2020-10-11T13:22:06Z</time>
      </trkpt>
      <trkpt lat="37.422086000" lon="-5.614480000">
        <ele>71.4</ele>
        <time>2020-10-11T13:22:08Z</time>
      </trkpt>
      <trkpt lat="37.421998000" lon="-5.614438000">
        <ele>71.6</ele>
        <time>2020-10-11T13:22:10Z</time>
      </trkpt>
      <trkpt lat="37.421911000" lon="-5.614392000">
        <ele>71.8</ele>
        <time>2020-10-11T13:22:12Z</time>
      </trkpt>
      <trkpt lat="37.421824000" lon="-5.614344000">
        <ele>71.9</ele>
        <time>2020-10-11T13:22:14Z</time>
      </trkpt>
      <trkpt lat="37.421734000" lon="-5.614299000">
        <ele>72.0</ele>
        <time>2020-10-11T13:22:16Z</time>
      </trkpt>
      <trkpt lat="37.421640000" lon="-5.614249000">
        <ele>72.2</ele>
        <time>2020-10-11T13:22:18Z</time>
      </trkpt>
      <trkpt lat="37.421541000" lon="-5.614197000">
        <ele>72.4</ele>
        <time>2020-10-11T13:22:20Z</time>
      </trkpt>
      <trkpt lat="37.421439000" lon="-5.614150000">
        <ele>72.5</ele>
        <time>2020-10-11T13:22:22Z</time>
      </trkpt>
      <trkpt lat="37.421333000" lon="-5.614101000">
        <ele>72.5</ele>
        <time>2020-10-11T13:22:24Z</time>
      </trkpt>
      <trkpt lat="37.421227000" lon="-5.614046000">
        <ele>72.6</ele>
        <time>2020-10-11T13:22:26Z</time>
      </trkpt>
      <trkpt lat="37.421116000" lon="-5.613988000">
        <ele>72.7</ele>
        <time>2020-10-11T13:22:28Z</time>
      </trkpt>
      <trkpt lat="37.421006000" lon="-5.613935000">
        <ele>72.7</ele>
        <time>2020-10-11T13:22:30Z</time>
      </trkpt>
      <trkpt lat="37.420894000" lon="-5.613876000">
        <ele>72.8</ele>
        <time>2020-10-11T13:22:32Z</time>
      </trkpt>
      <trkpt lat="37.420778000" lon="-5.613826000">
        <ele>73.0</ele>
        <time>2020-10-11T13:22:34Z</time>
      </trkpt>
      <trkpt lat="37.420659000" lon="-5.613787000">
        <ele>73.2</ele>
        <time>2020-10-11T13:22:36Z</time>
      </trkpt>
      <trkpt lat="37.420543000" lon="-5.613743000">
        <ele>73.4</ele>
        <time>2020-10-11T13:22:38Z</time>
      </trkpt>
      <trkpt lat="37.420424000" lon="-5.613702000">
        <ele>73.5</ele>
        <time>2020-10-11T13:22:40Z</time>
      </trkpt>
      <trkpt lat="37.420301000" lon="-5.613668000">
        <ele>73.5</ele>
        <time>2020-10-11T13:22:42Z</time>
      </trkpt>
      <trkpt lat="37.420182000" lon="-5.613631000">
        <ele>73.4</ele>
        <time>2020-10-11T13:22:44Z</time>
      </trkpt>
      <trkpt lat="37.420062000" lon="-5.613595000">
        <ele>73.2</ele>
        <time>2020-10-11T13:22:46Z</time>
      </trkpt>
      <trkpt lat="37.419940000" lon="-5.613562000">
        <ele>72.9</ele>
        <time>2020-10-11T13:22:48Z</time>
      </trkpt>
      <trkpt lat="37.419820000" lon="-5.613531000">
        <ele>72.5</ele>
        <time>2020-10-11T13:22:50Z</time>
      </trkpt>
      <trkpt lat="37.419702000" lon="-5.613485000">
        <ele>72.2</ele>
        <time>2020-10-11T13:22:52Z</time>
      </trkpt>
      <trkpt lat="37.419583000" lon="-5.613445000">
        <ele>71.8</ele>
        <time>2020-10-11T13:22:54Z</time>
      </trkpt>
      <trkpt lat="37.419459000" lon="-5.613412000">
        <ele>71.5</ele>
        <time>2020-10-11T13:22:56Z</time>
      </trkpt>
      <trkpt lat="37.419334000" lon="-5.613377000">
        <ele>71.2</ele>
        <time>2020-10-11T13:22:58Z</time>
      </trkpt>
      <trkpt lat="37.419214000" lon="-5.613339000">
        <ele>71.0</ele>
        <time>2020-10-11T13:23:00Z</time>
      </trkpt>
      <trkpt lat="37.419090000" lon="-5.613302000">
        <ele>70.9</ele>
        <time>2020-10-11T13:23:02Z</time>
      </trkpt>
      <trkpt lat="37.418967000" lon="-5.613259000">
        <ele>70.9</ele>
        <time>2020-10-11T13:23:04Z</time>
      </trkpt>
      <trkpt lat="37.418845000" lon="-5.613222000">
        <ele>71.0</ele>
        <time>2020-10-11T13:23:06Z</time>
      </trkpt>
      <trkpt lat="37.418718000" lon="-5.613182000">
        <ele>71.1</ele>
        <time>2020-10-11T13:23:08Z</time>
      </trkpt>
      <trkpt lat="37.418594000" lon="-5.613153000">
        <ele>71.3</ele>
        <time>2020-10-11T13:23:10Z</time>
      </trkpt>
      <trkpt lat="37.418471000" lon="-5.613119000">
        <ele>71.5</ele>
        <time>2020-10-11T13:23:12Z</time>
      </trkpt>
      <trkpt lat="37.418347000" lon="-5.613076000">
        <ele>71.5</ele>
        <time>2020-10-11T13:23:14Z</time>
      </trkpt>
      <trkpt lat="37.418216000" lon="-5.613038000">
        <ele>71.5</ele>
        <time>2020-10-11T13:23:16Z</time>
      </trkpt>
      <trkpt lat="37.418089000" lon="-5.612997000">
        <ele>71.5</ele>
        <time>2020-10-11T13:23:18Z</time>
      </trkpt>
      <trkpt lat="37.417962000" lon="-5.612957000">
        <ele>71.4</ele>
        <time>2020-10-11T13:23:20Z</time>
      </trkpt>
      <trkpt lat="37.417838000" lon="-5.612921000">
        <ele>71.2</ele>
        <time>2020-10-11T13:23:22Z</time>
      </trkpt>
      <trkpt lat="37.417710000" lon="-5.612881000">
        <ele>70.9</ele>
        <time>2020-10-11T13:23:24Z</time>
      </trkpt>
      <trkpt lat="37.417584000" lon="-5.612839000">
        <ele>70.6</ele>
        <time>2020-10-11T13:23:26Z</time>
      </trkpt>
      <trkpt lat="37.417457000" lon="-5.612803000">
        <ele>70.4</ele>
        <time>2020-10-11T13:23:28Z</time>
      </trkpt>
      <trkpt lat="37.417330000" lon="-5.612766000">
        <ele>70.2</ele>
        <time>2020-10-11T13:23:30Z</time>
      </trkpt>
      <trkpt lat="37.417200000" lon="-5.612728000">
        <ele>70.0</ele>
        <time>2020-10-11T13:23:32Z</time>
      </trkpt>
      <trkpt lat="37.417073000" lon="-5.612689000">
        <ele>69.8</ele>
        <time>2020-10-11T13:23:34Z</time>
      </trkpt>
      <trkpt lat="37.416949000" lon="-5.612649000">
        <ele>69.7</ele>
        <time>2020-10-11T13:23:36Z</time>
      </trkpt>
      <trkpt lat="37.416823000" lon="-5.612613000">
        <ele>69.6</ele>
        <time>2020-10-11T13:23:38Z</time>
      </trkpt>
      <trkpt lat="37.416702000" lon="-5.612573000">
        <ele>69.5</ele>
        <time>2020-10-11T13:23:40Z</time>
      </trkpt>
      <trkpt lat="37.416579000" lon="-5.612538000">
        <ele>69.5</ele>
        <time>2020-10-11T13:23:42Z</time>
      </trkpt>
      <trkpt lat="37.416460000" lon="-5.612499000">
        <ele>69.5</ele>
        <time>2020-10-11T13:23:44Z</time>
      </trkpt>
      <trkpt lat="37.416343000" lon="-5.612464000">
        <ele>69.5</ele>
        <time>2020-10-11T13:23:46Z</time>
      </trkpt>
      <trkpt lat="37.416226000" lon="-5.612424000">
        <ele>69.5</ele>
        <time>2020-10-11T13:23:48Z</time>
      </trkpt>
      <trkpt lat="37.416103000" lon="-5.612392000">
        <ele>69.5</ele>
        <time>2020-10-11T13:23:50Z</time>
      </trkpt>
      <trkpt lat="37.415986000" lon="-5.612355000">
        <ele>69.4</ele>
        <time>2020-10-11T13:23:52Z</time>
      </trkpt>
      <trkpt lat="37.415868000" lon="-5.612321000">
        <ele>69.3</ele>
        <time>2020-10-11T13:23:54Z</time>
      </trkpt>
      <trkpt lat="37.415748000" lon="-5.612288000">
        <ele>69.2</ele>
        <time>2020-10-11T13:23:56Z</time>
      </trkpt>
      <trkpt lat="37.415628000" lon="-5.612249000">
        <ele>69.0</ele>
        <time>2020-10-11T13:23:58Z</time>
      </trkpt>
      <trkpt lat="37.415503000" lon="-5.612207000">
        <ele>68.8</ele>
        <time>2020-10-11T13:24:00Z</time>
      </trkpt>
      <trkpt lat="37.415378000" lon="-5.612169000">
        <ele>68.6</ele>
        <time>2020-10-11T13:24:02Z</time>
      </trkpt>
      <trkpt lat="37.415253000" lon="-5.612135000">
        <ele>68.4</ele>
        <time>2020-10-11T13:24:04Z</time>
      </trkpt>
      <trkpt lat="37.415130000" lon="-5.612104000">
        <ele>68.1</ele>
        <time>2020-10-11T13:24:06Z</time>
      </trkpt>
      <trkpt lat="37.415003000" lon="-5.612070000">
        <ele>67.8</ele>
        <time>2020-10-11T13:24:08Z</time>
      </trkpt>
      <trkpt lat="37.414873000" lon="-5.612026000">
        <ele>67.6</ele>
        <time>2020-10-11T13:24:10Z</time>
      </trkpt>
      <trkpt lat="37.414750000" lon="-5.611989000">
        <ele>67.5</ele>
        <time>2020-10-11T13:24:12Z</time>
      </trkpt>
      <trkpt lat="37.414626000" lon="-5.611946000">
        <ele>67.4</ele>
        <time>2020-10-11T13:24:14Z</time>
      </trkpt>
      <trkpt lat="37.414503000" lon="-5.611907000">
        <ele>67.3</ele>
        <time>2020-10-11T13:24:16Z</time>
      </trkpt>
      <trkpt lat="37.414377000" lon="-5.611872000">
        <ele>67.3</ele>
        <time>2020-10-11T13:24:18Z</time>
      </trkpt>
      <trkpt lat="37.414254000" lon="-5.611834000">
        <ele>67.3</ele>
        <time>2020-10-11T13:24:20Z</time>
      </trkpt>
      <trkpt lat="37.414133000" lon="-5.611798000">
        <ele>67.3</ele>
        <time>2020-10-11T13:24:22Z</time>
      </trkpt>
      <trkpt lat="37.414015000" lon="-5.611760000">
        <ele>67.4</ele>
        <time>2020-10-11T13:24:24Z</time>
      </trkpt>
      <trkpt lat="37.413900000" lon="-5.611726000">
        <ele>67.5</ele>
        <time>2020-10-11T13:24:26Z</time>
      </trkpt>
      <trkpt lat="37.413788000" lon="-5.611685000">
        <ele>67.5</ele>
        <time>2020-10-11T13:24:28Z</time>
      </trkpt>
      <trkpt lat="37.413682000" lon="-5.611655000">
        <ele>67.5</ele>
        <time>2020-10-11T13:24:30Z</time>
      </trkpt>
      <trkpt lat="37.413574000" lon="-5.611621000">
        <ele>67.5</ele>
        <time>2020-10-11T13:24:32Z</time>
      </trkpt>
      <trkpt lat="37.413468000" lon="-5.611591000">
        <ele>67.5</ele>
        <time>2020-10-11T13:24:34Z</time>
      </trkpt>
      <trkpt lat="37.413368000" lon="-5.611562000">
        <ele>67.5</ele>
        <time>2020-10-11T13:24:36Z</time>
      </trkpt>
      <trkpt lat="37.413269000" lon="-5.611533000">
        <ele>67.4</ele>
        <time>2020-10-11T13:24:38Z</time>
      </trkpt>
      <trkpt lat="37.413172000" lon="-5.611502000">
        <ele>67.3</ele>
        <time>2020-10-11T13:24:40Z</time>
      </trkpt>
      <trkpt lat="37.413078000" lon="-5.611469000">
        <ele>67.3</ele>
        <time>2020-10-11T13:24:42Z</time>
      </trkpt>
      <trkpt lat="37.412985000" lon="-5.611442000">
        <ele>67.3</ele>
        <time>2020-10-11T13:24:44Z</time>
      </trkpt>
      <trkpt lat="37.412899000" lon="-5.611412000">
        <ele>67.3</ele>
        <time>2020-10-11T13:24:46Z</time>
      </trkpt>
      <trkpt lat="37.412813000" lon="-5.611381000">
        <ele>67.4</ele>
        <time>2020-10-11T13:24:48Z</time>
      </trkpt>
      <trkpt lat="37.412722000" lon="-5.611356000">
        <ele>67.5</ele>
        <time>2020-10-11T13:24:50Z</time>
      </trkpt>
      <trkpt lat="37.412632000" lon="-5.611329000">
        <ele>67.5</ele>
        <time>2020-10-11T13:24:52Z</time>
      </trkpt>
      <trkpt lat="37.412539000" lon="-5.611301000">
        <ele>67.5</ele>
        <time>2020-10-11T13:24:54Z</time>
      </trkpt>
      <trkpt lat="37.412449000" lon="-5.611270000">
        <ele>67.6</ele>
        <time>2020-10-11T13:24:56Z</time>
      </trkpt>
      <trkpt lat="37.412356000" lon="-5.611243000">
        <ele>67.9</ele>
        <time>2020-10-11T13:24:58Z</time>
      </trkpt>
      <trkpt lat="37.412260000" lon="-5.611210000">
        <ele>68.2</ele>
        <time>2020-10-11T13:25:00Z</time>
      </trkpt>
      <trkpt lat="37.412159000" lon="-5.611182000">
        <ele>68.5</ele>
        <time>2020-10-11T13:25:02Z</time>
      </trkpt>
      <trkpt lat="37.412063000" lon="-5.611153000">
        <ele>68.9</ele>
        <time>2020-10-11T13:25:04Z</time>
      </trkpt>
      <trkpt lat="37.411966000" lon="-5.611121000">
        <ele>69.2</ele>
        <time>2020-10-11T13:25:06Z</time>
      </trkpt>
      <trkpt lat="37.411862000" lon="-5.611093000">
        <ele>69.5</ele>
        <time>2020-10-11T13:25:08Z</time>
      </trkpt>
      <trkpt lat="37.411760000" lon="-5.611061000">
        <ele>69.6</ele>
        <time>2020-10-11T13:25:10Z</time>
      </trkpt>
      <trkpt lat="37.411656000" lon="-5.611026000">
        <ele>69.8</ele>
        <time>2020-10-11T13:25:12Z</time>
      </trkpt>
      <trkpt lat="37.411541000" lon="-5.610994000">
        <ele>70.0</ele>
        <time>2020-10-11T13:25:14Z</time>
      </trkpt>
      <trkpt lat="37.411428000" lon="-5.610963000">
        <ele>70.2</ele>
        <time>2020-10-11T13:25:16Z</time>
      </trkpt>
      <trkpt lat="37.411321000" lon="-5.610933000">
        <ele>70.4</ele>
        <time>2020-10-11T13:25:18Z</time>
      </trkpt>
      <trkpt lat="37.411214000" lon="-5.610901000">
        <ele>70.5</ele>
        <time>2020-10-11T13:25:20Z</time>
      </trkpt>
      <trkpt lat="37.411099000" lon="-5.610862000">
        <ele>70.5</ele>
        <time>2020-10-11T13:25:22Z</time>
      </trkpt>
      <trkpt lat="37.410992000" lon="-5.610828000">
        <ele>70.5</ele>
        <time>2020-10-11T13:25:24Z</time>
      </trkpt>
      <trkpt lat="37.410888000" lon="-5.610797000">
        <ele>70.5</ele>
        <time>2020-10-11T13:25:26Z</time>
      </trkpt>
      <trkpt lat="37.410787000" lon="-5.610767000">
        <ele>70.6</ele>
        <time>2020-10-11T13:25:28Z</time>
      </trkpt>
      <trkpt lat="37.410690000" lon="-5.610736000">
        <ele>70.6</ele>
        <time>2020-10-11T13:25:30Z</time>
      </trkpt>
      <trkpt lat="37.410592000" lon="-5.610705000">
        <ele>70.5</ele>
        <time>2020-10-11T13:25:32Z</time>
      </trkpt>
      <trkpt lat="37.410494000" lon="-5.610683000">
        <ele>70.3</ele>
        <time>2020-10-11T13:25:34Z</time>
      </trkpt>
      <trkpt lat="37.410397000" lon="-5.610655000">
        <ele>70.0</ele>
        <time>2020-10-11T13:25:37Z</time>
      </trkpt>
      <trkpt lat="37.410302000" lon="-5.610614000">
        <ele>69.6</ele>
        <time>2020-10-11T13:25:38Z</time>
      </trkpt>
      <trkpt lat="37.410207000" lon="-5.610576000">
        <ele>69.3</ele>
        <time>2020-10-11T13:25:40Z</time>
      </trkpt>
      <trkpt lat="37.410110000" lon="-5.610547000">
        <ele>68.9</ele>
        <time>2020-10-11T13:25:42Z</time>
      </trkpt>
      <trkpt lat="37.410014000" lon="-5.610505000">
        <ele>68.6</ele>
        <time>2020-10-11T13:25:44Z</time>
      </trkpt>
      <trkpt lat="37.409920000" lon="-5.610461000">
        <ele>68.4</ele>
        <time>2020-10-11T13:25:46Z</time>
      </trkpt>
      <trkpt lat="37.409825000" lon="-5.610429000">
        <ele>68.1</ele>
        <time>2020-10-11T13:25:48Z</time>
      </trkpt>
      <trkpt lat="37.409725000" lon="-5.610393000">
        <ele>67.9</ele>
        <time>2020-10-11T13:25:50Z</time>
      </trkpt>
      <trkpt lat="37.409624000" lon="-5.610349000">
        <ele>67.8</ele>
        <time>2020-10-11T13:25:52Z</time>
      </trkpt>
      <trkpt lat="37.409524000" lon="-5.610312000">
        <ele>67.9</ele>
        <time>2020-10-11T13:25:54Z</time>
      </trkpt>
      <trkpt lat="37.409423000" lon="-5.610279000">
        <ele>68.2</ele>
        <time>2020-10-11T13:25:56Z</time>
      </trkpt>
      <trkpt lat="37.409326000" lon="-5.610245000">
        <ele>68.5</ele>
        <time>2020-10-11T13:25:58Z</time>
      </trkpt>
      <trkpt lat="37.409228000" lon="-5.610210000">
        <ele>68.7</ele>
        <time>2020-10-11T13:26:00Z</time>
      </trkpt>
      <trkpt lat="37.409129000" lon="-5.610174000">
        <ele>69.0</ele>
        <time>2020-10-11T13:26:02Z</time>
      </trkpt>
      <trkpt lat="37.409032000" lon="-5.610138000">
        <ele>69.3</ele>
        <time>2020-10-11T13:26:04Z</time>
      </trkpt>
      <trkpt lat="37.408942000" lon="-5.610098000">
        <ele>69.4</ele>
        <time>2020-10-11T13:26:06Z</time>
      </trkpt>
      <trkpt lat="37.408846000" lon="-5.610063000">
        <ele>69.4</ele>
        <time>2020-10-11T13:26:08Z</time>
      </trkpt>
      <trkpt lat="37.408756000" lon="-5.610027000">
        <ele>69.3</ele>
        <time>2020-10-11T13:26:10Z</time>
      </trkpt>
      <trkpt lat="37.408662000" lon="-5.609989000">
        <ele>69.1</ele>
        <time>2020-10-11T13:26:12Z</time>
      </trkpt>
      <trkpt lat="37.408567000" lon="-5.609955000">
        <ele>68.9</ele>
        <time>2020-10-11T13:26:14Z</time>
      </trkpt>
      <trkpt lat="37.408475000" lon="-5.609923000">
        <ele>68.6</ele>
        <time>2020-10-11T13:26:16Z</time>
      </trkpt>
      <trkpt lat="37.408380000" lon="-5.609889000">
        <ele>68.5</ele>
        <time>2020-10-11T13:26:18Z</time>
      </trkpt>
      <trkpt lat="37.408284000" lon="-5.609850000">
        <ele>68.4</ele>
        <time>2020-10-11T13:26:20Z</time>
      </trkpt>
      <trkpt lat="37.408189000" lon="-5.609821000">
        <ele>68.4</ele>
        <time>2020-10-11T13:26:22Z</time>
      </trkpt>
      <trkpt lat="37.408097000" lon="-5.609783000">
        <ele>68.5</ele>
        <time>2020-10-11T13:26:24Z</time>
      </trkpt>
      <trkpt lat="37.408005000" lon="-5.609745000">
        <ele>68.5</ele>
        <time>2020-10-11T13:26:26Z</time>
      </trkpt>
      <trkpt lat="37.407908000" lon="-5.609708000">
        <ele>68.7</ele>
        <time>2020-10-11T13:26:28Z</time>
      </trkpt>
      <trkpt lat="37.407811000" lon="-5.609672000">
        <ele>69.0</ele>
        <time>2020-10-11T13:26:30Z</time>
      </trkpt>
      <trkpt lat="37.407716000" lon="-5.609632000">
        <ele>69.4</ele>
        <time>2020-10-11T13:26:32Z</time>
      </trkpt>
      <trkpt lat="37.407622000" lon="-5.609592000">
        <ele>69.6</ele>
        <time>2020-10-11T13:26:34Z</time>
      </trkpt>
      <trkpt lat="37.407527000" lon="-5.609557000">
        <ele>69.9</ele>
        <time>2020-10-11T13:26:36Z</time>
      </trkpt>
      <trkpt lat="37.407429000" lon="-5.609522000">
        <ele>70.1</ele>
        <time>2020-10-11T13:26:38Z</time>
      </trkpt>
      <trkpt lat="37.407328000" lon="-5.609488000">
        <ele>70.2</ele>
        <time>2020-10-11T13:26:40Z</time>
      </trkpt>
      <trkpt lat="37.407227000" lon="-5.609447000">
        <ele>70.2</ele>
        <time>2020-10-11T13:26:42Z</time>
      </trkpt>
      <trkpt lat="37.407126000" lon="-5.609407000">
        <ele>70.0</ele>
        <time>2020-10-11T13:26:44Z</time>
      </trkpt>
      <trkpt lat="37.407027000" lon="-5.609366000">
        <ele>69.8</ele>
        <time>2020-10-11T13:26:46Z</time>
      </trkpt>
      <trkpt lat="37.406926000" lon="-5.609334000">
        <ele>69.6</ele>
        <time>2020-10-11T13:26:48Z</time>
      </trkpt>
      <trkpt lat="37.406829000" lon="-5.609297000">
        <ele>69.5</ele>
        <time>2020-10-11T13:26:50Z</time>
      </trkpt>
      <trkpt lat="37.406733000" lon="-5.609256000">
        <ele>69.3</ele>
        <time>2020-10-11T13:26:52Z</time>
      </trkpt>
      <trkpt lat="37.406632000" lon="-5.609218000">
        <ele>69.1</ele>
        <time>2020-10-11T13:26:54Z</time>
      </trkpt>
      <trkpt lat="37.406531000" lon="-5.609181000">
        <ele>69.0</ele>
        <time>2020-10-11T13:26:56Z</time>
      </trkpt>
      <trkpt lat="37.406436000" lon="-5.609144000">
        <ele>69.0</ele>
        <time>2020-10-11T13:26:58Z</time>
      </trkpt>
      <trkpt lat="37.406343000" lon="-5.609108000">
        <ele>69.1</ele>
        <time>2020-10-11T13:27:00Z</time>
      </trkpt>
      <trkpt lat="37.406255000" lon="-5.609074000">
        <ele>69.2</ele>
        <time>2020-10-11T13:27:02Z</time>
      </trkpt>
      <trkpt lat="37.406161000" lon="-5.609031000">
        <ele>69.4</ele>
        <time>2020-10-11T13:27:04Z</time>
      </trkpt>
      <trkpt lat="37.406065000" lon="-5.608993000">
        <ele>69.7</ele>
        <time>2020-10-11T13:27:06Z</time>
      </trkpt>
      <trkpt lat="37.405968000" lon="-5.608955000">
        <ele>70.0</ele>
        <time>2020-10-11T13:27:08Z</time>
      </trkpt>
      <trkpt lat="37.405872000" lon="-5.608919000">
        <ele>70.4</ele>
        <time>2020-10-11T13:27:10Z</time>
      </trkpt>
      <trkpt lat="37.405779000" lon="-5.608880000">
        <ele>70.8</ele>
        <time>2020-10-11T13:27:12Z</time>
      </trkpt>
      <trkpt lat="37.405687000" lon="-5.608841000">
        <ele>71.3</ele>
        <time>2020-10-11T13:27:14Z</time>
      </trkpt>
      <trkpt lat="37.405595000" lon="-5.608808000">
        <ele>71.7</ele>
        <time>2020-10-11T13:27:16Z</time>
      </trkpt>
      <trkpt lat="37.405508000" lon="-5.608773000">
        <ele>72.2</ele>
        <time>2020-10-11T13:27:18Z</time>
      </trkpt>
      <trkpt lat="37.405417000" lon="-5.608733000">
        <ele>72.5</ele>
        <time>2020-10-11T13:27:20Z</time>
      </trkpt>
      <trkpt lat="37.405328000" lon="-5.608704000">
        <ele>72.8</ele>
        <time>2020-10-11T13:27:22Z</time>
      </trkpt>
      <trkpt lat="37.405234000" lon="-5.608663000">
        <ele>73.1</ele>
        <time>2020-10-11T13:27:24Z</time>
      </trkpt>
      <trkpt lat="37.405139000" lon="-5.608634000">
        <ele>73.3</ele>
        <time>2020-10-11T13:27:26Z</time>
      </trkpt>
      <trkpt lat="37.405048000" lon="-5.608596000">
        <ele>73.4</ele>
        <time>2020-10-11T13:27:28Z</time>
      </trkpt>
      <trkpt lat="37.404960000" lon="-5.608558000">
        <ele>73.5</ele>
        <time>2020-10-11T13:27:30Z</time>
      </trkpt>
      <trkpt lat="37.404875000" lon="-5.608528000">
        <ele>73.5</ele>
        <time>2020-10-11T13:27:32Z</time>
      </trkpt>
      <trkpt lat="37.404790000" lon="-5.608491000">
        <ele>73.3</ele>
        <time>2020-10-11T13:27:34Z</time>
      </trkpt>
      <trkpt lat="37.404701000" lon="-5.608452000">
        <ele>73.1</ele>
        <time>2020-10-11T13:27:36Z</time>
      </trkpt>
      <trkpt lat="37.404613000" lon="-5.608411000">
        <ele>72.9</ele>
        <time>2020-10-11T13:27:38Z</time>
      </trkpt>
      <trkpt lat="37.404523000" lon="-5.608362000">
        <ele>72.7</ele>
        <time>2020-10-11T13:27:40Z</time>
      </trkpt>
      <trkpt lat="37.404435000" lon="-5.608313000">
        <ele>72.5</ele>
        <time>2020-10-11T13:27:42Z</time>
      </trkpt>
      <trkpt lat="37.404341000" lon="-5.608256000">
        <ele>72.3</ele>
        <time>2020-10-11T13:27:44Z</time>
      </trkpt>
      <trkpt lat="37.404240000" lon="-5.608202000">
        <ele>72.0</ele>
        <time>2020-10-11T13:27:46Z</time>
      </trkpt>
      <trkpt lat="37.404138000" lon="-5.608143000">
        <ele>71.7</ele>
        <time>2020-10-11T13:27:48Z</time>
      </trkpt>
      <trkpt lat="37.404032000" lon="-5.608080000">
        <ele>71.5</ele>
        <time>2020-10-11T13:27:50Z</time>
      </trkpt>
      <trkpt lat="37.403923000" lon="-5.608015000">
        <ele>71.2</ele>
        <time>2020-10-11T13:27:52Z</time>
      </trkpt>
      <trkpt lat="37.403808000" lon="-5.607949000">
        <ele>70.8</ele>
        <time>2020-10-11T13:27:54Z</time>
      </trkpt>
      <trkpt lat="37.403694000" lon="-5.607883000">
        <ele>70.5</ele>
        <time>2020-10-11T13:27:56Z</time>
      </trkpt>
      <trkpt lat="37.403581000" lon="-5.607816000">
        <ele>70.3</ele>
        <time>2020-10-11T13:27:58Z</time>
      </trkpt>
      <trkpt lat="37.403468000" lon="-5.607752000">
        <ele>70.0</ele>
        <time>2020-10-11T13:28:00Z</time>
      </trkpt>
      <trkpt lat="37.403352000" lon="-5.607691000">
        <ele>69.7</ele>
        <time>2020-10-11T13:28:02Z</time>
      </trkpt>
      <trkpt lat="37.403235000" lon="-5.607617000">
        <ele>69.5</ele>
        <time>2020-10-11T13:28:04Z</time>
      </trkpt>
      <trkpt lat="37.403118000" lon="-5.607546000">
        <ele>69.4</ele>
        <time>2020-10-11T13:28:06Z</time>
      </trkpt>
      <trkpt lat="37.402998000" lon="-5.607481000">
        <ele>69.2</ele>
        <time>2020-10-11T13:28:08Z</time>
      </trkpt>
      <trkpt lat="37.402881000" lon="-5.607411000">
        <ele>69.0</ele>
        <time>2020-10-11T13:28:10Z</time>
      </trkpt>
      <trkpt lat="37.402762000" lon="-5.607342000">
        <ele>68.8</ele>
        <time>2020-10-11T13:28:12Z</time>
      </trkpt>
      <trkpt lat="37.402643000" lon="-5.607269000">
        <ele>68.5</ele>
        <time>2020-10-11T13:28:14Z</time>
      </trkpt>
      <trkpt lat="37.402526000" lon="-5.607197000">
        <ele>68.4</ele>
        <time>2020-10-11T13:28:16Z</time>
      </trkpt>
      <trkpt lat="37.402408000" lon="-5.607125000">
        <ele>68.2</ele>
        <time>2020-10-11T13:28:18Z</time>
      </trkpt>
      <trkpt lat="37.402285000" lon="-5.607060000">
        <ele>68.0</ele>
        <time>2020-10-11T13:28:20Z</time>
      </trkpt>
      <trkpt lat="37.402165000" lon="-5.606993000">
        <ele>67.9</ele>
        <time>2020-10-11T13:28:22Z</time>
      </trkpt>
      <trkpt lat="37.402044000" lon="-5.606925000">
        <ele>67.9</ele>
        <time>2020-10-11T13:28:24Z</time>
      </trkpt>
      <trkpt lat="37.401929000" lon="-5.606859000">
        <ele>68.0</ele>
        <time>2020-10-11T13:28:26Z</time>
      </trkpt>
      <trkpt lat="37.401816000" lon="-5.606791000">
        <ele>68.1</ele>
        <time>2020-10-11T13:28:28Z</time>
      </trkpt>
      <trkpt lat="37.401702000" lon="-5.606726000">
        <ele>68.3</ele>
        <time>2020-10-11T13:28:30Z</time>
      </trkpt>
      <trkpt lat="37.401589000" lon="-5.606661000">
        <ele>68.5</ele>
        <time>2020-10-11T13:28:32Z</time>
      </trkpt>
      <trkpt lat="37.401476000" lon="-5.606600000">
        <ele>68.5</ele>
        <time>2020-10-11T13:28:34Z</time>
      </trkpt>
      <trkpt lat="37.401367000" lon="-5.606533000">
        <ele>68.7</ele>
        <time>2020-10-11T13:28:36Z</time>
      </trkpt>
      <trkpt lat="37.401254000" lon="-5.606465000">
        <ele>68.8</ele>
        <time>2020-10-11T13:28:38Z</time>
      </trkpt>
      <trkpt lat="37.401138000" lon="-5.606407000">
        <ele>68.8</ele>
        <time>2020-10-11T13:28:40Z</time>
      </trkpt>
      <trkpt lat="37.401031000" lon="-5.606346000">
        <ele>68.8</ele>
        <time>2020-10-11T13:28:42Z</time>
      </trkpt>
      <trkpt lat="37.400923000" lon="-5.606283000">
        <ele>68.7</ele>
        <time>2020-10-11T13:28:44Z</time>
      </trkpt>
      <trkpt lat="37.400817000" lon="-5.606218000">
        <ele>68.6</ele>
        <time>2020-10-11T13:28:46Z</time>
      </trkpt>
      <trkpt lat="37.400710000" lon="-5.606156000">
        <ele>68.5</ele>
        <time>2020-10-11T13:28:48Z</time>
      </trkpt>
      <trkpt lat="37.400610000" lon="-5.606097000">
        <ele>68.3</ele>
        <time>2020-10-11T13:28:50Z</time>
      </trkpt>
      <trkpt lat="37.400512000" lon="-5.606044000">
        <ele>68.2</ele>
        <time>2020-10-11T13:28:52Z</time>
      </trkpt>
      <trkpt lat="37.400419000" lon="-5.605992000">
        <ele>68.1</ele>
        <time>2020-10-11T13:28:54Z</time>
      </trkpt>
      <trkpt lat="37.400326000" lon="-5.605944000">
        <ele>68.1</ele>
        <time>2020-10-11T13:28:56Z</time>
      </trkpt>
      <trkpt lat="37.400235000" lon="-5.605885000">
        <ele>68.1</ele>
        <time>2020-10-11T13:28:58Z</time>
      </trkpt>
      <trkpt lat="37.400148000" lon="-5.605835000">
        <ele>68.2</ele>
        <time>2020-10-11T13:29:00Z</time>
      </trkpt>
      <trkpt lat="37.400061000" lon="-5.605788000">
        <ele>68.4</ele>
        <time>2020-10-11T13:29:02Z</time>
      </trkpt>
      <trkpt lat="37.399979000" lon="-5.605743000">
        <ele>68.5</ele>
        <time>2020-10-11T13:29:04Z</time>
      </trkpt>
      <trkpt lat="37.399891000" lon="-5.605691000">
        <ele>68.8</ele>
        <time>2020-10-11T13:29:06Z</time>
      </trkpt>
      <trkpt lat="37.399801000" lon="-5.605643000">
        <ele>69.0</ele>
        <time>2020-10-11T13:29:08Z</time>
      </trkpt>
      <trkpt lat="37.399721000" lon="-5.605595000">
        <ele>69.2</ele>
        <time>2020-10-11T13:29:10Z</time>
      </trkpt>
      <trkpt lat="37.399642000" lon="-5.605552000">
        <ele>69.4</ele>
        <time>2020-10-11T13:29:12Z</time>
      </trkpt>
      <trkpt lat="37.399563000" lon="-5.605504000">
        <ele>69.5</ele>
        <time>2020-10-11T13:29:14Z</time>
      </trkpt>
      <trkpt lat="37.399478000" lon="-5.605448000">
        <ele>69.5</ele>
        <time>2020-10-11T13:29:16Z</time>
      </trkpt>
      <trkpt lat="37.399392000" lon="-5.605398000">
        <ele>69.5</ele>
        <time>2020-10-11T13:29:18Z</time>
      </trkpt>
      <trkpt lat="37.399306000" lon="-5.605349000">
        <ele>69.5</ele>
        <time>2020-10-11T13:29:20Z</time>
      </trkpt>
      <trkpt lat="37.399217000" lon="-5.605302000">
        <ele>69.5</ele>
        <time>2020-10-11T13:29:22Z</time>
      </trkpt>
      <trkpt lat="37.399129000" lon="-5.605248000">
        <ele>69.5</ele>
        <time>2020-10-11T13:29:24Z</time>
      </trkpt>
      <trkpt lat="37.399041000" lon="-5.605202000">
        <ele>69.6</ele>
        <time>2020-10-11T13:29:26Z</time>
      </trkpt>
      <trkpt lat="37.398955000" lon="-5.605150000">
        <ele>69.7</ele>
        <time>2020-10-11T13:29:28Z</time>
      </trkpt>
      <trkpt lat="37.398871000" lon="-5.605104000">
        <ele>69.8</ele>
        <time>2020-10-11T13:29:30Z</time>
      </trkpt>
      <trkpt lat="37.398788000" lon="-5.605056000">
        <ele>69.9</ele>
        <time>2020-10-11T13:29:32Z</time>
      </trkpt>
      <trkpt lat="37.398704000" lon="-5.605008000">
        <ele>70.0</ele>
        <time>2020-10-11T13:29:34Z</time>
      </trkpt>
      <trkpt lat="37.398616000" lon="-5.604954000">
        <ele>70.0</ele>
        <time>2020-10-11T13:29:36Z</time>
      </trkpt>
      <trkpt lat="37.398534000" lon="-5.604906000">
        <ele>70.1</ele>
        <time>2020-10-11T13:29:38Z</time>
      </trkpt>
      <trkpt lat="37.398451000" lon="-5.604854000">
        <ele>70.2</ele>
        <time>2020-10-11T13:29:40Z</time>
      </trkpt>
      <trkpt lat="37.398366000" lon="-5.604802000">
        <ele>70.3</ele>
        <time>2020-10-11T13:29:42Z</time>
      </trkpt>
      <trkpt lat="37.398277000" lon="-5.604755000">
        <ele>70.4</ele>
        <time>2020-10-11T13:29:44Z</time>
      </trkpt>
      <trkpt lat="37.398191000" lon="-5.604705000">
        <ele>70.4</ele>
        <time>2020-10-11T13:29:46Z</time>
      </trkpt>
      <trkpt lat="37.398104000" lon="-5.604655000">
        <ele>70.5</ele>
        <time>2020-10-11T13:29:48Z</time>
      </trkpt>
      <trkpt lat="37.398019000" lon="-5.604612000">
        <ele>70.5</ele>
        <time>2020-10-11T13:29:50Z</time>
      </trkpt>
      <trkpt lat="37.397931000" lon="-5.604564000">
        <ele>70.5</ele>
        <time>2020-10-11T13:29:52Z</time>
      </trkpt>
      <trkpt lat="37.397844000" lon="-5.604513000">
        <ele>70.5</ele>
        <time>2020-10-11T13:29:54Z</time>
      </trkpt>
      <trkpt lat="37.397756000" lon="-5.604458000">
        <ele>70.5</ele>
        <time>2020-10-11T13:29:56Z</time>
      </trkpt>
      <trkpt lat="37.397666000" lon="-5.604405000">
        <ele>70.6</ele>
        <time>2020-10-11T13:29:58Z</time>
      </trkpt>
      <trkpt lat="37.397582000" lon="-5.604362000">
        <ele>70.7</ele>
        <time>2020-10-11T13:30:00Z</time>
      </trkpt>
      <trkpt lat="37.397491000" lon="-5.604310000">
        <ele>70.8</ele>
        <time>2020-10-11T13:30:02Z</time>
      </trkpt>
      <trkpt lat="37.397406000" lon="-5.604261000">
        <ele>70.9</ele>
        <time>2020-10-11T13:30:04Z</time>
      </trkpt>
      <trkpt lat="37.397322000" lon="-5.604209000">
        <ele>71.0</ele>
        <time>2020-10-11T13:30:06Z</time>
      </trkpt>
      <trkpt lat="37.397237000" lon="-5.604163000">
        <ele>71.1</ele>
        <time>2020-10-11T13:30:08Z</time>
      </trkpt>
      <trkpt lat="37.397157000" lon="-5.604115000">
        <ele>71.2</ele>
        <time>2020-10-11T13:30:10Z</time>
      </trkpt>
      <trkpt lat="37.397073000" lon="-5.604065000">
        <ele>71.3</ele>
        <time>2020-10-11T13:30:12Z</time>
      </trkpt>
      <trkpt lat="37.396995000" lon="-5.604022000">
        <ele>71.3</ele>
        <time>2020-10-11T13:30:14Z</time>
      </trkpt>
      <trkpt lat="37.396915000" lon="-5.603974000">
        <ele>71.4</ele>
        <time>2020-10-11T13:30:16Z</time>
      </trkpt>
      <trkpt lat="37.396837000" lon="-5.603923000">
        <ele>71.5</ele>
        <time>2020-10-11T13:30:18Z</time>
      </trkpt>
      <trkpt lat="37.396760000" lon="-5.603874000">
        <ele>71.5</ele>
        <time>2020-10-11T13:30:20Z</time>
      </trkpt>
      <trkpt lat="37.396687000" lon="-5.603823000">
        <ele>71.6</ele>
        <time>2020-10-11T13:30:22Z</time>
      </trkpt>
      <trkpt lat="37.396610000" lon="-5.603773000">
        <ele>71.7</ele>
        <time>2020-10-11T13:30:24Z</time>
      </trkpt>
      <trkpt lat="37.396533000" lon="-5.603719000">
        <ele>71.8</ele>
        <time>2020-10-11T13:30:26Z</time>
      </trkpt>
      <trkpt lat="37.396459000" lon="-5.603662000">
        <ele>71.9</ele>
        <time>2020-10-11T13:30:28Z</time>
      </trkpt>
      <trkpt lat="37.396388000" lon="-5.603601000">
        <ele>72.0</ele>
        <time>2020-10-11T13:30:30Z</time>
      </trkpt>
      <trkpt lat="37.396304000" lon="-5.603541000">
        <ele>71.9</ele>
        <time>2020-10-11T13:30:32Z</time>
      </trkpt>
      <trkpt lat="37.396226000" lon="-5.603490000">
        <ele>71.8</ele>
        <time>2020-10-11T13:30:34Z</time>
      </trkpt>
      <trkpt lat="37.396148000" lon="-5.603435000">
        <ele>71.8</ele>
        <time>2020-10-11T13:30:36Z</time>
      </trkpt>
      <trkpt lat="37.396068000" lon="-5.603381000">
        <ele>71.8</ele>
        <time>2020-10-11T13:30:38Z</time>
      </trkpt>
      <trkpt lat="37.395985000" lon="-5.603323000">
        <ele>71.8</ele>
        <time>2020-10-11T13:30:40Z</time>
      </trkpt>
      <trkpt lat="37.395901000" lon="-5.603265000">
        <ele>71.9</ele>
        <time>2020-10-11T13:30:42Z</time>
      </trkpt>
      <trkpt lat="37.395818000" lon="-5.603199000">
        <ele>72.1</ele>
        <time>2020-10-11T13:30:44Z</time>
      </trkpt>
      <trkpt lat="37.395736000" lon="-5.603137000">
        <ele>72.4</ele>
        <time>2020-10-11T13:30:46Z</time>
      </trkpt>
      <trkpt lat="37.395658000" lon="-5.603080000">
        <ele>72.7</ele>
        <time>2020-10-11T13:30:48Z</time>
      </trkpt>
      <trkpt lat="37.395577000" lon="-5.603022000">
        <ele>73.1</ele>
        <time>2020-10-11T13:30:50Z</time>
      </trkpt>
      <trkpt lat="37.395495000" lon="-5.602964000">
        <ele>73.5</ele>
        <time>2020-10-11T13:30:52Z</time>
      </trkpt>
      <trkpt lat="37.395416000" lon="-5.602905000">
        <ele>73.8</ele>
        <time>2020-10-11T13:30:54Z</time>
      </trkpt>
      <trkpt lat="37.395332000" lon="-5.602845000">
        <ele>74.2</ele>
        <time>2020-10-11T13:30:56Z</time>
      </trkpt>
      <trkpt lat="37.395249000" lon="-5.602781000">
        <ele>74.4</ele>
        <time>2020-10-11T13:30:58Z</time>
      </trkpt>
      <trkpt lat="37.395165000" lon="-5.602716000">
        <ele>74.5</ele>
        <time>2020-10-11T13:31:00Z</time>
      </trkpt>
      <trkpt lat="37.395084000" lon="-5.602653000">
        <ele>74.6</ele>
        <time>2020-10-11T13:31:02Z</time>
      </trkpt>
      <trkpt lat="37.394997000" lon="-5.602590000">
        <ele>74.5</ele>
        <time>2020-10-11T13:31:04Z</time>
      </trkpt>
      <trkpt lat="37.394903000" lon="-5.602529000">
        <ele>74.4</ele>
        <time>2020-10-11T13:31:06Z</time>
      </trkpt>
      <trkpt lat="37.394804000" lon="-5.602460000">
        <ele>74.1</ele>
        <time>2020-10-11T13:31:08Z</time>
      </trkpt>
      <trkpt lat="37.394697000" lon="-5.602395000">
        <ele>73.7</ele>
        <time>2020-10-11T13:31:10Z</time>
      </trkpt>
      <trkpt lat="37.394593000" lon="-5.602324000">
        <ele>73.4</ele>
        <time>2020-10-11T13:31:12Z</time>
      </trkpt>
      <trkpt lat="37.394482000" lon="-5.602254000">
        <ele>73.0</ele>
        <time>2020-10-11T13:31:14Z</time>
      </trkpt>
      <trkpt lat="37.394373000" lon="-5.602186000">
        <ele>72.7</ele>
        <time>2020-10-11T13:31:16Z</time>
      </trkpt>
      <trkpt lat="37.394266000" lon="-5.602113000">
        <ele>72.5</ele>
        <time>2020-10-11T13:31:18Z</time>
      </trkpt>
      <trkpt lat="37.394154000" lon="-5.602043000">
        <ele>72.4</ele>
        <time>2020-10-11T13:31:20Z</time>
      </trkpt>
      <trkpt lat="37.394047000" lon="-5.601971000">
        <ele>72.3</ele>
        <time>2020-10-11T13:31:22Z</time>
      </trkpt>
      <trkpt lat="37.393937000" lon="-5.601903000">
        <ele>72.3</ele>
        <time>2020-10-11T13:31:24Z</time>
      </trkpt>
      <trkpt lat="37.393827000" lon="-5.601832000">
        <ele>72.2</ele>
        <time>2020-10-11T13:31:26Z</time>
      </trkpt>
      <trkpt lat="37.393713000" lon="-5.601771000">
        <ele>71.9</ele>
        <time>2020-10-11T13:31:28Z</time>
      </trkpt>
      <trkpt lat="37.393595000" lon="-5.601706000">
        <ele>71.5</ele>
        <time>2020-10-11T13:31:30Z</time>
      </trkpt>
      <trkpt lat="37.393473000" lon="-5.601646000">
        <ele>70.8</ele>
        <time>2020-10-11T13:31:32Z</time>
      </trkpt>
      <trkpt lat="37.393348000" lon="-5.601584000">
        <ele>70.2</ele>
        <time>2020-10-11T13:31:34Z</time>
      </trkpt>
      <trkpt lat="37.393221000" lon="-5.601518000">
        <ele>69.5</ele>
        <time>2020-10-11T13:31:36Z</time>
      </trkpt>
      <trkpt lat="37.393092000" lon="-5.601456000">
        <ele>68.9</ele>
        <time>2020-10-11T13:31:38Z</time>
      </trkpt>
      <trkpt lat="37.392962000" lon="-5.601396000">
        <ele>68.4</ele>
        <time>2020-10-11T13:31:40Z</time>
      </trkpt>
      <trkpt lat="37.392836000" lon="-5.601334000">
        <ele>67.7</ele>
        <time>2020-10-11T13:31:42Z</time>
      </trkpt>
      <trkpt lat="37.392706000" lon="-5.601275000">
        <ele>67.1</ele>
        <time>2020-10-11T13:31:44Z</time>
      </trkpt>
      <trkpt lat="37.392577000" lon="-5.601222000">
        <ele>66.5</ele>
        <time>2020-10-11T13:31:46Z</time>
      </trkpt>
      <trkpt lat="37.392457000" lon="-5.601166000">
        <ele>66.1</ele>
        <time>2020-10-11T13:31:48Z</time>
      </trkpt>
      <trkpt lat="37.392340000" lon="-5.601112000">
        <ele>65.9</ele>
        <time>2020-10-11T13:31:50Z</time>
      </trkpt>
      <trkpt lat="37.392229000" lon="-5.601059000">
        <ele>65.9</ele>
        <time>2020-10-11T13:31:52Z</time>
      </trkpt>
      <trkpt lat="37.392112000" lon="-5.601004000">
        <ele>66.1</ele>
        <time>2020-10-11T13:31:54Z</time>
      </trkpt>
      <trkpt lat="37.392002000" lon="-5.600952000">
        <ele>66.2</ele>
        <time>2020-10-11T13:31:56Z</time>
      </trkpt>
      <trkpt lat="37.391895000" lon="-5.600899000">
        <ele>66.3</ele>
        <time>2020-10-11T13:31:58Z</time>
      </trkpt>
      <trkpt lat="37.391783000" lon="-5.600850000">
        <ele>66.4</ele>
        <time>2020-10-11T13:32:00Z</time>
      </trkpt>
      <trkpt lat="37.391669000" lon="-5.600803000">
        <ele>66.4</ele>
        <time>2020-10-11T13:32:02Z</time>
      </trkpt>
      <trkpt lat="37.391552000" lon="-5.600764000">
        <ele>66.4</ele>
        <time>2020-10-11T13:32:04Z</time>
      </trkpt>
      <trkpt lat="37.391435000" lon="-5.600725000">
        <ele>66.5</ele>
        <time>2020-10-11T13:32:06Z</time>
      </trkpt>
      <trkpt lat="37.391321000" lon="-5.600690000">
        <ele>66.5</ele>
        <time>2020-10-11T13:32:08Z</time>
      </trkpt>
      <trkpt lat="37.391211000" lon="-5.600654000">
        <ele>66.5</ele>
        <time>2020-10-11T13:32:10Z</time>
      </trkpt>
      <trkpt lat="37.391107000" lon="-5.600611000">
        <ele>66.5</ele>
        <time>2020-10-11T13:32:12Z</time>
      </trkpt>
      <trkpt lat="37.391002000" lon="-5.600574000">
        <ele>66.4</ele>
        <time>2020-10-11T13:32:14Z</time>
      </trkpt>
      <trkpt lat="37.390899000" lon="-5.600538000">
        <ele>66.2</ele>
        <time>2020-10-11T13:32:16Z</time>
      </trkpt>
      <trkpt lat="37.390797000" lon="-5.600499000">
        <ele>66.1</ele>
        <time>2020-10-11T13:32:18Z</time>
      </trkpt>
      <trkpt lat="37.390701000" lon="-5.600464000">
        <ele>66.0</ele>
        <time>2020-10-11T13:32:20Z</time>
      </trkpt>
      <trkpt lat="37.390603000" lon="-5.600431000">
        <ele>66.0</ele>
        <time>2020-10-11T13:32:22Z</time>
      </trkpt>
      <trkpt lat="37.390505000" lon="-5.600399000">
        <ele>66.0</ele>
        <time>2020-10-11T13:32:24Z</time>
      </trkpt>
      <trkpt lat="37.390409000" lon="-5.600365000">
        <ele>66.0</ele>
        <time>2020-10-11T13:32:26Z</time>
      </trkpt>
      <trkpt lat="37.390312000" lon="-5.600327000">
        <ele>65.9</ele>
        <time>2020-10-11T13:32:28Z</time>
      </trkpt>
      <trkpt lat="37.390220000" lon="-5.600299000">
        <ele>65.9</ele>
        <time>2020-10-11T13:32:30Z</time>
      </trkpt>
      <trkpt lat="37.390129000" lon="-5.600267000">
        <ele>65.9</ele>
        <time>2020-10-11T13:32:32Z</time>
      </trkpt>
      <trkpt lat="37.390041000" lon="-5.600235000">
        <ele>66.1</ele>
        <time>2020-10-11T13:32:34Z</time>
      </trkpt>
      <trkpt lat="37.389955000" lon="-5.600204000">
        <ele>66.3</ele>
        <time>2020-10-11T13:32:36Z</time>
      </trkpt>
      <trkpt lat="37.389868000" lon="-5.600172000">
        <ele>66.5</ele>
        <time>2020-10-11T13:32:38Z</time>
      </trkpt>
      <trkpt lat="37.389777000" lon="-5.600142000">
        <ele>66.9</ele>
        <time>2020-10-11T13:32:40Z</time>
      </trkpt>
      <trkpt lat="37.389685000" lon="-5.600103000">
        <ele>67.4</ele>
        <time>2020-10-11T13:32:42Z</time>
      </trkpt>
      <trkpt lat="37.389591000" lon="-5.600064000">
        <ele>67.7</ele>
        <time>2020-10-11T13:32:44Z</time>
      </trkpt>
      <trkpt lat="37.389499000" lon="-5.600036000">
        <ele>68.1</ele>
        <time>2020-10-11T13:32:46Z</time>
      </trkpt>
      <trkpt lat="37.389408000" lon="-5.600009000">
        <ele>68.5</ele>
        <time>2020-10-11T13:32:48Z</time>
      </trkpt>
      <trkpt lat="37.389321000" lon="-5.599982000">
        <ele>68.7</ele>
        <time>2020-10-11T13:32:50Z</time>
      </trkpt>
      <trkpt lat="37.389234000" lon="-5.599951000">
        <ele>68.8</ele>
        <time>2020-10-11T13:32:52Z</time>
      </trkpt>
      <trkpt lat="37.389145000" lon="-5.599924000">
        <ele>68.8</ele>
        <time>2020-10-11T13:32:54Z</time>
      </trkpt>
      <trkpt lat="37.389062000" lon="-5.599894000">
        <ele>68.6</ele>
        <time>2020-10-11T13:32:56Z</time>
      </trkpt>
      <trkpt lat="37.388977000" lon="-5.599866000">
        <ele>68.5</ele>
        <time>2020-10-11T13:32:58Z</time>
      </trkpt>
      <trkpt lat="37.388893000" lon="-5.599830000">
        <ele>68.3</ele>
        <time>2020-10-11T13:33:00Z</time>
      </trkpt>
      <trkpt lat="37.388806000" lon="-5.599802000">
        <ele>67.9</ele>
        <time>2020-10-11T13:33:02Z</time>
      </trkpt>
      <trkpt lat="37.388722000" lon="-5.599770000">
        <ele>67.5</ele>
        <time>2020-10-11T13:33:04Z</time>
      </trkpt>
      <trkpt lat="37.388640000" lon="-5.599742000">
        <ele>67.0</ele>
        <time>2020-10-11T13:33:06Z</time>
      </trkpt>
      <trkpt lat="37.388560000" lon="-5.599714000">
        <ele>66.5</ele>
        <time>2020-10-11T13:33:08Z</time>
      </trkpt>
      <trkpt lat="37.388480000" lon="-5.599690000">
        <ele>66.1</ele>
        <time>2020-10-11T13:33:10Z</time>
      </trkpt>
      <trkpt lat="37.388402000" lon="-5.599661000">
        <ele>65.7</ele>
        <time>2020-10-11T13:33:12Z</time>
      </trkpt>
      <trkpt lat="37.388286000" lon="-5.599625000">
        <ele>65.4</ele>
        <time>2020-10-11T13:33:15Z</time>
      </trkpt>
      <trkpt lat="37.388171000" lon="-5.599581000">
        <ele>65.1</ele>
        <time>2020-10-11T13:33:18Z</time>
      </trkpt>
      <trkpt lat="37.388055000" lon="-5.599537000">
        <ele>65.0</ele>
        <time>2020-10-11T13:33:21Z</time>
      </trkpt>
      <trkpt lat="37.387977000" lon="-5.599507000">
        <ele>64.9</ele>
        <time>2020-10-11T13:33:23Z</time>
      </trkpt>
      <trkpt lat="37.387895000" lon="-5.599479000">
        <ele>64.8</ele>
        <time>2020-10-11T13:33:25Z</time>
      </trkpt>
      <trkpt lat="37.387814000" lon="-5.599447000">
        <ele>65.0</ele>
        <time>2020-10-11T13:33:27Z</time>
      </trkpt>
      <trkpt lat="37.387733000" lon="-5.599415000">
        <ele>65.3</ele>
        <time>2020-10-11T13:33:29Z</time>
      </trkpt>
      <trkpt lat="37.387654000" lon="-5.599385000">
        <ele>65.6</ele>
        <time>2020-10-11T13:33:31Z</time>
      </trkpt>
      <trkpt lat="37.387576000" lon="-5.599357000">
        <ele>66.1</ele>
        <time>2020-10-11T13:33:33Z</time>
      </trkpt>
      <trkpt lat="37.387497000" lon="-5.599328000">
        <ele>66.5</ele>
        <time>2020-10-11T13:33:35Z</time>
      </trkpt>
      <trkpt lat="37.387415000" lon="-5.599303000">
        <ele>67.1</ele>
        <time>2020-10-11T13:33:37Z</time>
      </trkpt>
      <trkpt lat="37.387334000" lon="-5.599275000">
        <ele>67.7</ele>
        <time>2020-10-11T13:33:39Z</time>
      </trkpt>
      <trkpt lat="37.387253000" lon="-5.599247000">
        <ele>68.4</ele>
        <time>2020-10-11T13:33:41Z</time>
      </trkpt>
      <trkpt lat="37.387169000" lon="-5.599226000">
        <ele>68.8</ele>
        <time>2020-10-11T13:33:43Z</time>
      </trkpt>
      <trkpt lat="37.387084000" lon="-5.599208000">
        <ele>69.3</ele>
        <time>2020-10-11T13:33:45Z</time>
      </trkpt>
      <trkpt lat="37.387000000" lon="-5.599187000">
        <ele>69.7</ele>
        <time>2020-10-11T13:33:47Z</time>
      </trkpt>
      <trkpt lat="37.386908000" lon="-5.599171000">
        <ele>70.0</ele>
        <time>2020-10-11T13:33:49Z</time>
      </trkpt>
      <trkpt lat="37.386823000" lon="-5.599153000">
        <ele>70.2</ele>
        <time>2020-10-11T13:33:51Z</time>
      </trkpt>
      <trkpt lat="37.386700000" lon="-5.599121000">
        <ele>70.4</ele>
        <time>2020-10-11T13:33:54Z</time>
      </trkpt>
      <trkpt lat="37.386610000" lon="-5.599100000">
        <ele>70.5</ele>
        <time>2020-10-11T13:33:56Z</time>
      </trkpt>
      <trkpt lat="37.386518000" lon="-5.599075000">
        <ele>70.5</ele>
        <time>2020-10-11T13:33:58Z</time>
      </trkpt>
      <trkpt lat="37.386424000" lon="-5.599052000">
        <ele>70.5</ele>
        <time>2020-10-11T13:34:00Z</time>
      </trkpt>
      <trkpt lat="37.386329000" lon="-5.599027000">
        <ele>70.5</ele>
        <time>2020-10-11T13:34:02Z</time>
      </trkpt>
      <trkpt lat="37.386233000" lon="-5.599003000">
        <ele>70.5</ele>
        <time>2020-10-11T13:34:04Z</time>
      </trkpt>
      <trkpt lat="37.386138000" lon="-5.598974000">
        <ele>70.5</ele>
        <time>2020-10-11T13:34:06Z</time>
      </trkpt>
      <trkpt lat="37.386035000" lon="-5.598947000">
        <ele>70.4</ele>
        <time>2020-10-11T13:34:08Z</time>
      </trkpt>
      <trkpt lat="37.385930000" lon="-5.598920000">
        <ele>70.3</ele>
        <time>2020-10-11T13:34:10Z</time>
      </trkpt>
      <trkpt lat="37.385821000" lon="-5.598897000">
        <ele>70.2</ele>
        <time>2020-10-11T13:34:12Z</time>
      </trkpt>
      <trkpt lat="37.385715000" lon="-5.598871000">
        <ele>70.1</ele>
        <time>2020-10-11T13:34:14Z</time>
      </trkpt>
      <trkpt lat="37.385611000" lon="-5.598848000">
        <ele>69.9</ele>
        <time>2020-10-11T13:34:16Z</time>
      </trkpt>
      <trkpt lat="37.385505000" lon="-5.598823000">
        <ele>69.7</ele>
        <time>2020-10-11T13:34:18Z</time>
      </trkpt>
      <trkpt lat="37.385401000" lon="-5.598797000">
        <ele>69.5</ele>
        <time>2020-10-11T13:34:20Z</time>
      </trkpt>
      <trkpt lat="37.385296000" lon="-5.598772000">
        <ele>69.4</ele>
        <time>2020-10-11T13:34:22Z</time>
      </trkpt>
      <trkpt lat="37.385192000" lon="-5.598741000">
        <ele>69.2</ele>
        <time>2020-10-11T13:34:24Z</time>
      </trkpt>
      <trkpt lat="37.385088000" lon="-5.598720000">
        <ele>69.1</ele>
        <time>2020-10-11T13:34:26Z</time>
      </trkpt>
      <trkpt lat="37.384986000" lon="-5.598693000">
        <ele>69.0</ele>
        <time>2020-10-11T13:34:28Z</time>
      </trkpt>
      <trkpt lat="37.384881000" lon="-5.598669000">
        <ele>69.0</ele>
        <time>2020-10-11T13:34:30Z</time>
      </trkpt>
      <trkpt lat="37.384774000" lon="-5.598644000">
        <ele>68.9</ele>
        <time>2020-10-11T13:34:32Z</time>
      </trkpt>
      <trkpt lat="37.384669000" lon="-5.598617000">
        <ele>68.8</ele>
        <time>2020-10-11T13:34:34Z</time>
      </trkpt>
      <trkpt lat="37.384565000" lon="-5.598593000">
        <ele>68.6</ele>
        <time>2020-10-11T13:34:36Z</time>
      </trkpt>
      <trkpt lat="37.384458000" lon="-5.598566000">
        <ele>68.4</ele>
        <time>2020-10-11T13:34:38Z</time>
      </trkpt>
      <trkpt lat="37.384350000" lon="-5.598537000">
        <ele>68.0</ele>
        <time>2020-10-11T13:34:40Z</time>
      </trkpt>
      <trkpt lat="37.384245000" lon="-5.598508000">
        <ele>67.6</ele>
        <time>2020-10-11T13:34:42Z</time>
      </trkpt>
      <trkpt lat="37.384137000" lon="-5.598480000">
        <ele>67.2</ele>
        <time>2020-10-11T13:34:44Z</time>
      </trkpt>
      <trkpt lat="37.384029000" lon="-5.598455000">
        <ele>66.7</ele>
        <time>2020-10-11T13:34:46Z</time>
      </trkpt>
      <trkpt lat="37.383916000" lon="-5.598430000">
        <ele>66.3</ele>
        <time>2020-10-11T13:34:48Z</time>
      </trkpt>
      <trkpt lat="37.383806000" lon="-5.598398000">
        <ele>65.8</ele>
        <time>2020-10-11T13:34:50Z</time>
      </trkpt>
      <trkpt lat="37.383691000" lon="-5.598369000">
        <ele>65.4</ele>
        <time>2020-10-11T13:34:52Z</time>
      </trkpt>
      <trkpt lat="37.383579000" lon="-5.598338000">
        <ele>65.0</ele>
        <time>2020-10-11T13:34:54Z</time>
      </trkpt>
      <trkpt lat="37.383463000" lon="-5.598307000">
        <ele>64.7</ele>
        <time>2020-10-11T13:34:56Z</time>
      </trkpt>
      <trkpt lat="37.383348000" lon="-5.598281000">
        <ele>64.5</ele>
        <time>2020-10-11T13:34:58Z</time>
      </trkpt>
      <trkpt lat="37.383234000" lon="-5.598254000">
        <ele>64.5</ele>
        <time>2020-10-11T13:35:00Z</time>
      </trkpt>
      <trkpt lat="37.383119000" lon="-5.598229000">
        <ele>64.5</ele>
        <time>2020-10-11T13:35:02Z</time>
      </trkpt>
      <trkpt lat="37.383009000" lon="-5.598202000">
        <ele>64.5</ele>
        <time>2020-10-11T13:35:04Z</time>
      </trkpt>
      <trkpt lat="37.382894000" lon="-5.598175000">
        <ele>64.5</ele>
        <time>2020-10-11T13:35:06Z</time>
      </trkpt>
      <trkpt lat="37.382779000" lon="-5.598139000">
        <ele>64.6</ele>
        <time>2020-10-11T13:35:08Z</time>
      </trkpt>
      <trkpt lat="37.382663000" lon="-5.598114000">
        <ele>64.7</ele>
        <time>2020-10-11T13:35:10Z</time>
      </trkpt>
      <trkpt lat="37.382551000" lon="-5.598087000">
        <ele>64.9</ele>
        <time>2020-10-11T13:35:12Z</time>
      </trkpt>
      <trkpt lat="37.382437000" lon="-5.598057000">
        <ele>65.0</ele>
        <time>2020-10-11T13:35:14Z</time>
      </trkpt>
      <trkpt lat="37.382320000" lon="-5.598032000">
        <ele>65.1</ele>
        <time>2020-10-11T13:35:16Z</time>
      </trkpt>
      <trkpt lat="37.382200000" lon="-5.598000000">
        <ele>65.1</ele>
        <time>2020-10-11T13:35:18Z</time>
      </trkpt>
      <trkpt lat="37.382082000" lon="-5.597978000">
        <ele>65.2</ele>
        <time>2020-10-11T13:35:20Z</time>
      </trkpt>
      <trkpt lat="37.381968000" lon="-5.597946000">
        <ele>65.3</ele>
        <time>2020-10-11T13:35:22Z</time>
      </trkpt>
      <trkpt lat="37.381857000" lon="-5.597913000">
        <ele>65.4</ele>
        <time>2020-10-11T13:35:24Z</time>
      </trkpt>
      <trkpt lat="37.381749000" lon="-5.597879000">
        <ele>65.5</ele>
        <time>2020-10-11T13:35:26Z</time>
      </trkpt>
      <trkpt lat="37.381637000" lon="-5.597844000">
        <ele>65.7</ele>
        <time>2020-10-11T13:35:28Z</time>
      </trkpt>
      <trkpt lat="37.381525000" lon="-5.597813000">
        <ele>65.8</ele>
        <time>2020-10-11T13:35:30Z</time>
      </trkpt>
      <trkpt lat="37.381416000" lon="-5.597774000">
        <ele>65.8</ele>
        <time>2020-10-11T13:35:32Z</time>
      </trkpt>
      <trkpt lat="37.381309000" lon="-5.597745000">
        <ele>65.6</ele>
        <time>2020-10-11T13:35:34Z</time>
      </trkpt>
      <trkpt lat="37.381205000" lon="-5.597711000">
        <ele>65.5</ele>
        <time>2020-10-11T13:35:36Z</time>
      </trkpt>
      <trkpt lat="37.381104000" lon="-5.597675000">
        <ele>65.4</ele>
        <time>2020-10-11T13:35:38Z</time>
      </trkpt>
      <trkpt lat="37.381003000" lon="-5.597643000">
        <ele>65.2</ele>
        <time>2020-10-11T13:35:40Z</time>
      </trkpt>
      <trkpt lat="37.380898000" lon="-5.597614000">
        <ele>64.9</ele>
        <time>2020-10-11T13:35:42Z</time>
      </trkpt>
      <trkpt lat="37.380798000" lon="-5.597580000">
        <ele>64.7</ele>
        <time>2020-10-11T13:35:44Z</time>
      </trkpt>
      <trkpt lat="37.380700000" lon="-5.597548000">
        <ele>64.5</ele>
        <time>2020-10-11T13:35:46Z</time>
      </trkpt>
      <trkpt lat="37.380602000" lon="-5.597515000">
        <ele>64.4</ele>
        <time>2020-10-11T13:35:48Z</time>
      </trkpt>
      <trkpt lat="37.380507000" lon="-5.597485000">
        <ele>64.2</ele>
        <time>2020-10-11T13:35:50Z</time>
      </trkpt>
      <trkpt lat="37.380408000" lon="-5.597455000">
        <ele>64.1</ele>
        <time>2020-10-11T13:35:52Z</time>
      </trkpt>
      <trkpt lat="37.380313000" lon="-5.597425000">
        <ele>64.1</ele>
        <time>2020-10-11T13:35:54Z</time>
      </trkpt>
      <trkpt lat="37.380212000" lon="-5.597394000">
        <ele>64.2</ele>
        <time>2020-10-11T13:35:56Z</time>
      </trkpt>
      <trkpt lat="37.380111000" lon="-5.597363000">
        <ele>64.3</ele>
        <time>2020-10-11T13:35:58Z</time>
      </trkpt>
      <trkpt lat="37.380007000" lon="-5.597331000">
        <ele>64.5</ele>
        <time>2020-10-11T13:36:00Z</time>
      </trkpt>
      <trkpt lat="37.379906000" lon="-5.597300000">
        <ele>64.6</ele>
        <time>2020-10-11T13:36:02Z</time>
      </trkpt>
      <trkpt lat="37.379803000" lon="-5.597267000">
        <ele>64.8</ele>
        <time>2020-10-11T13:36:04Z</time>
      </trkpt>
      <trkpt lat="37.379699000" lon="-5.597228000">
        <ele>64.8</ele>
        <time>2020-10-11T13:36:06Z</time>
      </trkpt>
      <trkpt lat="37.379599000" lon="-5.597202000">
        <ele>64.8</ele>
        <time>2020-10-11T13:36:08Z</time>
      </trkpt>
      <trkpt lat="37.379494000" lon="-5.597169000">
        <ele>64.7</ele>
        <time>2020-10-11T13:36:10Z</time>
      </trkpt>
      <trkpt lat="37.379389000" lon="-5.597143000">
        <ele>64.6</ele>
        <time>2020-10-11T13:36:12Z</time>
      </trkpt>
      <trkpt lat="37.379288000" lon="-5.597114000">
        <ele>64.5</ele>
        <time>2020-10-11T13:36:14Z</time>
      </trkpt>
      <trkpt lat="37.379184000" lon="-5.597077000">
        <ele>64.5</ele>
        <time>2020-10-11T13:36:16Z</time>
      </trkpt>
      <trkpt lat="37.379080000" lon="-5.597044000">
        <ele>64.5</ele>
        <time>2020-10-11T13:36:18Z</time>
      </trkpt>
      <trkpt lat="37.378983000" lon="-5.597003000">
        <ele>64.5</ele>
        <time>2020-10-11T13:36:20Z</time>
      </trkpt>
      <trkpt lat="37.378887000" lon="-5.596966000">
        <ele>64.6</ele>
        <time>2020-10-11T13:36:22Z</time>
      </trkpt>
      <trkpt lat="37.378795000" lon="-5.596927000">
        <ele>64.7</ele>
        <time>2020-10-11T13:36:24Z</time>
      </trkpt>
      <trkpt lat="37.378704000" lon="-5.596885000">
        <ele>64.8</ele>
        <time>2020-10-11T13:36:26Z</time>
      </trkpt>
      <trkpt lat="37.378611000" lon="-5.596842000">
        <ele>65.0</ele>
        <time>2020-10-11T13:36:28Z</time>
      </trkpt>
      <trkpt lat="37.378520000" lon="-5.596798000">
        <ele>65.2</ele>
        <time>2020-10-11T13:36:30Z</time>
      </trkpt>
      <trkpt lat="37.378433000" lon="-5.596754000">
        <ele>65.4</ele>
        <time>2020-10-11T13:36:32Z</time>
      </trkpt>
      <trkpt lat="37.378341000" lon="-5.596701000">
        <ele>65.5</ele>
        <time>2020-10-11T13:36:34Z</time>
      </trkpt>
      <trkpt lat="37.378253000" lon="-5.596654000">
        <ele>65.7</ele>
        <time>2020-10-11T13:36:36Z</time>
      </trkpt>
      <trkpt lat="37.378162000" lon="-5.596599000">
        <ele>65.8</ele>
        <time>2020-10-11T13:36:38Z</time>
      </trkpt>
      <trkpt lat="37.378071000" lon="-5.596544000">
        <ele>65.9</ele>
        <time>2020-10-11T13:36:40Z</time>
      </trkpt>
      <trkpt lat="37.377977000" lon="-5.596487000">
        <ele>66.0</ele>
        <time>2020-10-11T13:36:42Z</time>
      </trkpt>
      <trkpt lat="37.377881000" lon="-5.596429000">
        <ele>66.0</ele>
        <time>2020-10-11T13:36:44Z</time>
      </trkpt>
      <trkpt lat="37.377793000" lon="-5.596371000">
        <ele>66.1</ele>
        <time>2020-10-11T13:36:46Z</time>
      </trkpt>
      <trkpt lat="37.377701000" lon="-5.596315000">
        <ele>66.2</ele>
        <time>2020-10-11T13:36:48Z</time>
      </trkpt>
      <trkpt lat="37.377614000" lon="-5.596261000">
        <ele>66.2</ele>
        <time>2020-10-11T13:36:50Z</time>
      </trkpt>
      <trkpt lat="37.377528000" lon="-5.596200000">
        <ele>66.1</ele>
        <time>2020-10-11T13:36:52Z</time>
      </trkpt>
      <trkpt lat="37.377443000" lon="-5.596140000">
        <ele>66.0</ele>
        <time>2020-10-11T13:36:54Z</time>
      </trkpt>
      <trkpt lat="37.377352000" lon="-5.596087000">
        <ele>65.8</ele>
        <time>2020-10-11T13:36:56Z</time>
      </trkpt>
      <trkpt lat="37.377267000" lon="-5.596027000">
        <ele>65.7</ele>
        <time>2020-10-11T13:36:58Z</time>
      </trkpt>
      <trkpt lat="37.377176000" lon="-5.595966000">
        <ele>65.6</ele>
        <time>2020-10-11T13:37:00Z</time>
      </trkpt>
      <trkpt lat="37.377084000" lon="-5.595911000">
        <ele>65.6</ele>
        <time>2020-10-11T13:37:02Z</time>
      </trkpt>
      <trkpt lat="37.376995000" lon="-5.595850000">
        <ele>65.6</ele>
        <time>2020-10-11T13:37:04Z</time>
      </trkpt>
      <trkpt lat="37.376906000" lon="-5.595789000">
        <ele>65.7</ele>
        <time>2020-10-11T13:37:06Z</time>
      </trkpt>
      <trkpt lat="37.376817000" lon="-5.595726000">
        <ele>65.7</ele>
        <time>2020-10-11T13:37:08Z</time>
      </trkpt>
      <trkpt lat="37.376725000" lon="-5.595668000">
        <ele>65.7</ele>
        <time>2020-10-11T13:37:10Z</time>
      </trkpt>
      <trkpt lat="37.376637000" lon="-5.595607000">
        <ele>65.8</ele>
        <time>2020-10-11T13:37:12Z</time>
      </trkpt>
      <trkpt lat="37.376550000" lon="-5.595547000">
        <ele>66.0</ele>
        <time>2020-10-11T13:37:14Z</time>
      </trkpt>
      <trkpt lat="37.376462000" lon="-5.595486000">
        <ele>66.3</ele>
        <time>2020-10-11T13:37:16Z</time>
      </trkpt>
      <trkpt lat="37.376376000" lon="-5.595424000">
        <ele>66.7</ele>
        <time>2020-10-11T13:37:18Z</time>
      </trkpt>
      <trkpt lat="37.376284000" lon="-5.595361000">
        <ele>67.2</ele>
        <time>2020-10-11T13:37:20Z</time>
      </trkpt>
      <trkpt lat="37.376199000" lon="-5.595298000">
        <ele>67.7</ele>
        <time>2020-10-11T13:37:22Z</time>
      </trkpt>
      <trkpt lat="37.376108000" lon="-5.595237000">
        <ele>68.2</ele>
        <time>2020-10-11T13:37:24Z</time>
      </trkpt>
      <trkpt lat="37.376018000" lon="-5.595171000">
        <ele>68.6</ele>
        <time>2020-10-11T13:37:26Z</time>
      </trkpt>
      <trkpt lat="37.375930000" lon="-5.595113000">
        <ele>69.0</ele>
        <time>2020-10-11T13:37:28Z</time>
      </trkpt>
      <trkpt lat="37.375843000" lon="-5.595054000">
        <ele>69.4</ele>
        <time>2020-10-11T13:37:30Z</time>
      </trkpt>
      <trkpt lat="37.375754000" lon="-5.595000000">
        <ele>69.6</ele>
        <time>2020-10-11T13:37:32Z</time>
      </trkpt>
      <trkpt lat="37.375669000" lon="-5.594945000">
        <ele>69.9</ele>
        <time>2020-10-11T13:37:34Z</time>
      </trkpt>
      <trkpt lat="37.375582000" lon="-5.594889000">
        <ele>70.2</ele>
        <time>2020-10-11T13:37:36Z</time>
      </trkpt>
      <trkpt lat="37.375498000" lon="-5.594828000">
        <ele>70.4</ele>
        <time>2020-10-11T13:37:38Z</time>
      </trkpt>
      <trkpt lat="37.375415000" lon="-5.594777000">
        <ele>70.5</ele>
        <time>2020-10-11T13:37:40Z</time>
      </trkpt>
      <trkpt lat="37.375339000" lon="-5.594721000">
        <ele>70.6</ele>
        <time>2020-10-11T13:37:42Z</time>
      </trkpt>
      <trkpt lat="37.375266000" lon="-5.594675000">
        <ele>70.6</ele>
        <time>2020-10-11T13:37:44Z</time>
      </trkpt>
      <trkpt lat="37.375190000" lon="-5.594626000">
        <ele>70.6</ele>
        <time>2020-10-11T13:37:46Z</time>
      </trkpt>
      <trkpt lat="37.375109000" lon="-5.594569000">
        <ele>70.5</ele>
        <time>2020-10-11T13:37:48Z</time>
      </trkpt>
      <trkpt lat="37.375023000" lon="-5.594514000">
        <ele>70.5</ele>
        <time>2020-10-11T13:37:50Z</time>
      </trkpt>
      <trkpt lat="37.374932000" lon="-5.594467000">
        <ele>70.4</ele>
        <time>2020-10-11T13:37:52Z</time>
      </trkpt>
      <trkpt lat="37.374853000" lon="-5.594404000">
        <ele>70.4</ele>
        <time>2020-10-11T13:37:54Z</time>
      </trkpt>
      <trkpt lat="37.374767000" lon="-5.594342000">
        <ele>70.4</ele>
        <time>2020-10-11T13:37:56Z</time>
      </trkpt>
      <trkpt lat="37.374682000" lon="-5.594282000">
        <ele>70.4</ele>
        <time>2020-10-11T13:37:58Z</time>
      </trkpt>
      <trkpt lat="37.374596000" lon="-5.594224000">
        <ele>70.4</ele>
        <time>2020-10-11T13:38:00Z</time>
      </trkpt>
      <trkpt lat="37.374508000" lon="-5.594168000">
        <ele>70.2</ele>
        <time>2020-10-11T13:38:02Z</time>
      </trkpt>
      <trkpt lat="37.374425000" lon="-5.594109000">
        <ele>70.0</ele>
        <time>2020-10-11T13:38:04Z</time>
      </trkpt>
      <trkpt lat="37.374340000" lon="-5.594048000">
        <ele>69.7</ele>
        <time>2020-10-11T13:38:06Z</time>
      </trkpt>
      <trkpt lat="37.374251000" lon="-5.593989000">
        <ele>69.5</ele>
        <time>2020-10-11T13:38:08Z</time>
      </trkpt>
      <trkpt lat="37.374162000" lon="-5.593928000">
        <ele>69.3</ele>
        <time>2020-10-11T13:38:10Z</time>
      </trkpt>
      <trkpt lat="37.374074000" lon="-5.593872000">
        <ele>69.1</ele>
        <time>2020-10-11T13:38:12Z</time>
      </trkpt>
      <trkpt lat="37.373984000" lon="-5.593808000">
        <ele>68.9</ele>
        <time>2020-10-11T13:38:14Z</time>
      </trkpt>
      <trkpt lat="37.373886000" lon="-5.593747000">
        <ele>68.7</ele>
        <time>2020-10-11T13:38:16Z</time>
      </trkpt>
      <trkpt lat="37.373791000" lon="-5.593683000">
        <ele>68.5</ele>
        <time>2020-10-11T13:38:18Z</time>
      </trkpt>
      <trkpt lat="37.373694000" lon="-5.593613000">
        <ele>68.4</ele>
        <time>2020-10-11T13:38:20Z</time>
      </trkpt>
      <trkpt lat="37.373597000" lon="-5.593548000">
        <ele>68.2</ele>
        <time>2020-10-11T13:38:22Z</time>
      </trkpt>
      <trkpt lat="37.373495000" lon="-5.593479000">
        <ele>68.1</ele>
        <time>2020-10-11T13:38:24Z</time>
      </trkpt>
      <trkpt lat="37.373394000" lon="-5.593407000">
        <ele>68.1</ele>
        <time>2020-10-11T13:38:26Z</time>
      </trkpt>
      <trkpt lat="37.373289000" lon="-5.593337000">
        <ele>68.2</ele>
        <time>2020-10-11T13:38:28Z</time>
      </trkpt>
      <trkpt lat="37.373186000" lon="-5.593265000">
        <ele>68.3</ele>
        <time>2020-10-11T13:38:30Z</time>
      </trkpt>
      <trkpt lat="37.373087000" lon="-5.593197000">
        <ele>68.4</ele>
        <time>2020-10-11T13:38:32Z</time>
      </trkpt>
      <trkpt lat="37.372983000" lon="-5.593128000">
        <ele>68.4</ele>
        <time>2020-10-11T13:38:34Z</time>
      </trkpt>
      <trkpt lat="37.372886000" lon="-5.593061000">
        <ele>68.4</ele>
        <time>2020-10-11T13:38:36Z</time>
      </trkpt>
      <trkpt lat="37.372788000" lon="-5.592997000">
        <ele>68.4</ele>
        <time>2020-10-11T13:38:38Z</time>
      </trkpt>
      <trkpt lat="37.372688000" lon="-5.592931000">
        <ele>68.3</ele>
        <time>2020-10-11T13:38:40Z</time>
      </trkpt>
      <trkpt lat="37.372594000" lon="-5.592867000">
        <ele>68.3</ele>
        <time>2020-10-11T13:38:42Z</time>
      </trkpt>
      <trkpt lat="37.372502000" lon="-5.592803000">
        <ele>68.4</ele>
        <time>2020-10-11T13:38:44Z</time>
      </trkpt>
      <trkpt lat="37.372411000" lon="-5.592742000">
        <ele>68.5</ele>
        <time>2020-10-11T13:38:46Z</time>
      </trkpt>
      <trkpt lat="37.372322000" lon="-5.592682000">
        <ele>68.6</ele>
        <time>2020-10-11T13:38:48Z</time>
      </trkpt>
      <trkpt lat="37.372234000" lon="-5.592623000">
        <ele>68.8</ele>
        <time>2020-10-11T13:38:50Z</time>
      </trkpt>
      <trkpt lat="37.372147000" lon="-5.592561000">
        <ele>69.1</ele>
        <time>2020-10-11T13:38:52Z</time>
      </trkpt>
      <trkpt lat="37.372060000" lon="-5.592503000">
        <ele>69.5</ele>
        <time>2020-10-11T13:38:54Z</time>
      </trkpt>
      <trkpt lat="37.371978000" lon="-5.592445000">
        <ele>69.9</ele>
        <time>2020-10-11T13:38:56Z</time>
      </trkpt>
      <trkpt lat="37.371892000" lon="-5.592390000">
        <ele>70.4</ele>
        <time>2020-10-11T13:38:58Z</time>
      </trkpt>
      <trkpt lat="37.371809000" lon="-5.592326000">
        <ele>70.8</ele>
        <time>2020-10-11T13:39:00Z</time>
      </trkpt>
      <trkpt lat="37.371723000" lon="-5.592271000">
        <ele>71.3</ele>
        <time>2020-10-11T13:39:02Z</time>
      </trkpt>
      <trkpt lat="37.371633000" lon="-5.592217000">
        <ele>71.6</ele>
        <time>2020-10-11T13:39:04Z</time>
      </trkpt>
      <trkpt lat="37.371549000" lon="-5.592157000">
        <ele>71.8</ele>
        <time>2020-10-11T13:39:06Z</time>
      </trkpt>
      <trkpt lat="37.371461000" lon="-5.592098000">
        <ele>71.9</ele>
        <time>2020-10-11T13:39:08Z</time>
      </trkpt>
      <trkpt lat="37.371369000" lon="-5.592039000">
        <ele>72.0</ele>
        <time>2020-10-11T13:39:10Z</time>
      </trkpt>
      <trkpt lat="37.371277000" lon="-5.591981000">
        <ele>72.0</ele>
        <time>2020-10-11T13:39:12Z</time>
      </trkpt>
      <trkpt lat="37.371189000" lon="-5.591927000">
        <ele>71.9</ele>
        <time>2020-10-11T13:39:14Z</time>
      </trkpt>
      <trkpt lat="37.371097000" lon="-5.591878000">
        <ele>71.8</ele>
        <time>2020-10-11T13:39:16Z</time>
      </trkpt>
      <trkpt lat="37.371008000" lon="-5.591828000">
        <ele>71.7</ele>
        <time>2020-10-11T13:39:18Z</time>
      </trkpt>
      <trkpt lat="37.370914000" lon="-5.591779000">
        <ele>71.5</ele>
        <time>2020-10-11T13:39:20Z</time>
      </trkpt>
      <trkpt lat="37.370817000" lon="-5.591739000">
        <ele>71.4</ele>
        <time>2020-10-11T13:39:22Z</time>
      </trkpt>
      <trkpt lat="37.370725000" lon="-5.591697000">
        <ele>71.2</ele>
        <time>2020-10-11T13:39:24Z</time>
      </trkpt>
      <trkpt lat="37.370632000" lon="-5.591654000">
        <ele>71.0</ele>
        <time>2020-10-11T13:39:26Z</time>
      </trkpt>
      <trkpt lat="37.370538000" lon="-5.591609000">
        <ele>70.8</ele>
        <time>2020-10-11T13:39:28Z</time>
      </trkpt>
      <trkpt lat="37.370442000" lon="-5.591571000">
        <ele>70.6</ele>
        <time>2020-10-11T13:39:30Z</time>
      </trkpt>
      <trkpt lat="37.370337000" lon="-5.591523000">
        <ele>70.5</ele>
        <time>2020-10-11T13:39:32Z</time>
      </trkpt>
      <trkpt lat="37.370235000" lon="-5.591483000">
        <ele>70.3</ele>
        <time>2020-10-11T13:39:34Z</time>
      </trkpt>
      <trkpt lat="37.370129000" lon="-5.591446000">
        <ele>70.1</ele>
        <time>2020-10-11T13:39:36Z</time>
      </trkpt>
      <trkpt lat="37.370012000" lon="-5.591410000">
        <ele>69.9</ele>
        <time>2020-10-11T13:39:38Z</time>
      </trkpt>
      <trkpt lat="37.369889000" lon="-5.591375000">
        <ele>69.7</ele>
        <time>2020-10-11T13:39:40Z</time>
      </trkpt>
      <trkpt lat="37.369761000" lon="-5.591334000">
        <ele>69.6</ele>
        <time>2020-10-11T13:39:42Z</time>
      </trkpt>
      <trkpt lat="37.369633000" lon="-5.591298000">
        <ele>69.5</ele>
        <time>2020-10-11T13:39:44Z</time>
      </trkpt>
      <trkpt lat="37.369499000" lon="-5.591260000">
        <ele>69.5</ele>
        <time>2020-10-11T13:39:46Z</time>
      </trkpt>
      <trkpt lat="37.369361000" lon="-5.591221000">
        <ele>69.5</ele>
        <time>2020-10-11T13:39:48Z</time>
      </trkpt>
      <trkpt lat="37.369217000" lon="-5.591176000">
        <ele>69.5</ele>
        <time>2020-10-11T13:39:50Z</time>
      </trkpt>
      <trkpt lat="37.369074000" lon="-5.591132000">
        <ele>69.4</ele>
        <time>2020-10-11T13:39:52Z</time>
      </trkpt>
      <trkpt lat="37.368925000" lon="-5.591093000">
        <ele>69.1</ele>
        <time>2020-10-11T13:39:54Z</time>
      </trkpt>
      <trkpt lat="37.368776000" lon="-5.591050000">
        <ele>68.7</ele>
        <time>2020-10-11T13:39:56Z</time>
      </trkpt>
      <trkpt lat="37.368624000" lon="-5.591005000">
        <ele>68.4</ele>
        <time>2020-10-11T13:39:58Z</time>
      </trkpt>
      <trkpt lat="37.368472000" lon="-5.590958000">
        <ele>68.0</ele>
        <time>2020-10-11T13:40:00Z</time>
      </trkpt>
      <trkpt lat="37.368319000" lon="-5.590916000">
        <ele>67.7</ele>
        <time>2020-10-11T13:40:02Z</time>
      </trkpt>
      <trkpt lat="37.368240000" lon="-5.590892000">
        <ele>67.5</ele>
        <time>2020-10-11T13:40:03Z</time>
      </trkpt>
      <trkpt lat="37.368084000" lon="-5.590841000">
        <ele>67.4</ele>
        <time>2020-10-11T13:40:05Z</time>
      </trkpt>
      <trkpt lat="37.368004000" lon="-5.590817000">
        <ele>67.3</ele>
        <time>2020-10-11T13:40:06Z</time>
      </trkpt>
      <trkpt lat="37.367848000" lon="-5.590773000">
        <ele>67.2</ele>
        <time>2020-10-11T13:40:08Z</time>
      </trkpt>
      <trkpt lat="37.367769000" lon="-5.590754000">
        <ele>67.1</ele>
        <time>2020-10-11T13:40:09Z</time>
      </trkpt>
      <trkpt lat="37.367613000" lon="-5.590711000">
        <ele>67.1</ele>
        <time>2020-10-11T13:40:11Z</time>
      </trkpt>
      <trkpt lat="37.367465000" lon="-5.590664000">
        <ele>67.1</ele>
        <time>2020-10-11T13:40:13Z</time>
      </trkpt>
      <trkpt lat="37.367320000" lon="-5.590622000">
        <ele>67.1</ele>
        <time>2020-10-11T13:40:15Z</time>
      </trkpt>
      <trkpt lat="37.367181000" lon="-5.590579000">
        <ele>67.0</ele>
        <time>2020-10-11T13:40:17Z</time>
      </trkpt>
      <trkpt lat="37.367045000" lon="-5.590542000">
        <ele>66.7</ele>
        <time>2020-10-11T13:40:19Z</time>
      </trkpt>
      <trkpt lat="37.366913000" lon="-5.590501000">
        <ele>66.3</ele>
        <time>2020-10-11T13:40:21Z</time>
      </trkpt>
      <trkpt lat="37.366787000" lon="-5.590457000">
        <ele>65.7</ele>
        <time>2020-10-11T13:40:23Z</time>
      </trkpt>
      <trkpt lat="37.366660000" lon="-5.590418000">
        <ele>65.2</ele>
        <time>2020-10-11T13:40:25Z</time>
      </trkpt>
      <trkpt lat="37.366535000" lon="-5.590382000">
        <ele>64.6</ele>
        <time>2020-10-11T13:40:27Z</time>
      </trkpt>
      <trkpt lat="37.366411000" lon="-5.590345000">
        <ele>64.3</ele>
        <time>2020-10-11T13:40:29Z</time>
      </trkpt>
      <trkpt lat="37.366296000" lon="-5.590311000">
        <ele>64.0</ele>
        <time>2020-10-11T13:40:31Z</time>
      </trkpt>
      <trkpt lat="37.366179000" lon="-5.590277000">
        <ele>63.9</ele>
        <time>2020-10-11T13:40:33Z</time>
      </trkpt>
      <trkpt lat="37.366069000" lon="-5.590247000">
        <ele>64.0</ele>
        <time>2020-10-11T13:40:35Z</time>
      </trkpt>
      <trkpt lat="37.365958000" lon="-5.590216000">
        <ele>64.2</ele>
        <time>2020-10-11T13:40:37Z</time>
      </trkpt>
      <trkpt lat="37.365851000" lon="-5.590183000">
        <ele>64.5</ele>
        <time>2020-10-11T13:40:39Z</time>
      </trkpt>
      <trkpt lat="37.365745000" lon="-5.590155000">
        <ele>65.0</ele>
        <time>2020-10-11T13:40:41Z</time>
      </trkpt>
      <trkpt lat="37.365633000" lon="-5.590125000">
        <ele>65.5</ele>
        <time>2020-10-11T13:40:43Z</time>
      </trkpt>
      <trkpt lat="37.365525000" lon="-5.590086000">
        <ele>65.9</ele>
        <time>2020-10-11T13:40:45Z</time>
      </trkpt>
      <trkpt lat="37.365416000" lon="-5.590043000">
        <ele>66.3</ele>
        <time>2020-10-11T13:40:47Z</time>
      </trkpt>
      <trkpt lat="37.365307000" lon="-5.590007000">
        <ele>66.5</ele>
        <time>2020-10-11T13:40:49Z</time>
      </trkpt>
      <trkpt lat="37.365202000" lon="-5.589967000">
        <ele>66.5</ele>
        <time>2020-10-11T13:40:51Z</time>
      </trkpt>
      <trkpt lat="37.365087000" lon="-5.589924000">
        <ele>66.5</ele>
        <time>2020-10-11T13:40:53Z</time>
      </trkpt>
      <trkpt lat="37.364971000" lon="-5.589882000">
        <ele>66.2</ele>
        <time>2020-10-11T13:40:55Z</time>
      </trkpt>
      <trkpt lat="37.364852000" lon="-5.589833000">
        <ele>65.7</ele>
        <time>2020-10-11T13:40:57Z</time>
      </trkpt>
      <trkpt lat="37.364736000" lon="-5.589786000">
        <ele>65.2</ele>
        <time>2020-10-11T13:40:59Z</time>
      </trkpt>
      <trkpt lat="37.364621000" lon="-5.589741000">
        <ele>64.5</ele>
        <time>2020-10-11T13:41:01Z</time>
      </trkpt>
      <trkpt lat="37.364500000" lon="-5.589693000">
        <ele>64.0</ele>
        <time>2020-10-11T13:41:03Z</time>
      </trkpt>
      <trkpt lat="37.364385000" lon="-5.589646000">
        <ele>63.6</ele>
        <time>2020-10-11T13:41:05Z</time>
      </trkpt>
      <trkpt lat="37.364264000" lon="-5.589597000">
        <ele>63.4</ele>
        <time>2020-10-11T13:41:07Z</time>
      </trkpt>
      <trkpt lat="37.364144000" lon="-5.589549000">
        <ele>63.3</ele>
        <time>2020-10-11T13:41:09Z</time>
      </trkpt>
      <trkpt lat="37.364024000" lon="-5.589496000">
        <ele>63.2</ele>
        <time>2020-10-11T13:41:11Z</time>
      </trkpt>
      <trkpt lat="37.363907000" lon="-5.589437000">
        <ele>63.1</ele>
        <time>2020-10-11T13:41:13Z</time>
      </trkpt>
      <trkpt lat="37.363793000" lon="-5.589380000">
        <ele>63.1</ele>
        <time>2020-10-11T13:41:15Z</time>
      </trkpt>
      <trkpt lat="37.363679000" lon="-5.589324000">
        <ele>63.1</ele>
        <time>2020-10-11T13:41:17Z</time>
      </trkpt>
      <trkpt lat="37.363567000" lon="-5.589263000">
        <ele>63.2</ele>
        <time>2020-10-11T13:41:19Z</time>
      </trkpt>
      <trkpt lat="37.363451000" lon="-5.589205000">
        <ele>63.3</ele>
        <time>2020-10-11T13:41:21Z</time>
      </trkpt>
      <trkpt lat="37.363338000" lon="-5.589142000">
        <ele>63.4</ele>
        <time>2020-10-11T13:41:23Z</time>
      </trkpt>
      <trkpt lat="37.363220000" lon="-5.589078000">
        <ele>63.4</ele>
        <time>2020-10-11T13:41:25Z</time>
      </trkpt>
      <trkpt lat="37.363105000" lon="-5.589013000">
        <ele>63.3</ele>
        <time>2020-10-11T13:41:27Z</time>
      </trkpt>
      <trkpt lat="37.362990000" lon="-5.588946000">
        <ele>63.2</ele>
        <time>2020-10-11T13:41:29Z</time>
      </trkpt>
      <trkpt lat="37.362877000" lon="-5.588886000">
        <ele>63.1</ele>
        <time>2020-10-11T13:41:31Z</time>
      </trkpt>
      <trkpt lat="37.362768000" lon="-5.588826000">
        <ele>63.0</ele>
        <time>2020-10-11T13:41:33Z</time>
      </trkpt>
      <trkpt lat="37.362655000" lon="-5.588765000">
        <ele>63.1</ele>
        <time>2020-10-11T13:41:35Z</time>
      </trkpt>
      <trkpt lat="37.362546000" lon="-5.588702000">
        <ele>63.2</ele>
        <time>2020-10-11T13:41:37Z</time>
      </trkpt>
      <trkpt lat="37.362438000" lon="-5.588642000">
        <ele>63.5</ele>
        <time>2020-10-11T13:41:39Z</time>
      </trkpt>
      <trkpt lat="37.362333000" lon="-5.588588000">
        <ele>63.7</ele>
        <time>2020-10-11T13:41:41Z</time>
      </trkpt>
      <trkpt lat="37.362224000" lon="-5.588530000">
        <ele>64.1</ele>
        <time>2020-10-11T13:41:43Z</time>
      </trkpt>
      <trkpt lat="37.362114000" lon="-5.588469000">
        <ele>64.5</ele>
        <time>2020-10-11T13:41:45Z</time>
      </trkpt>
      <trkpt lat="37.362011000" lon="-5.588403000">
        <ele>64.9</ele>
        <time>2020-10-11T13:41:47Z</time>
      </trkpt>
      <trkpt lat="37.361907000" lon="-5.588346000">
        <ele>65.4</ele>
        <time>2020-10-11T13:41:49Z</time>
      </trkpt>
      <trkpt lat="37.361808000" lon="-5.588288000">
        <ele>65.7</ele>
        <time>2020-10-11T13:41:51Z</time>
      </trkpt>
      <trkpt lat="37.361710000" lon="-5.588232000">
        <ele>66.0</ele>
        <time>2020-10-11T13:41:53Z</time>
      </trkpt>
      <trkpt lat="37.361610000" lon="-5.588177000">
        <ele>66.3</ele>
        <time>2020-10-11T13:41:55Z</time>
      </trkpt>
      <trkpt lat="37.361509000" lon="-5.588125000">
        <ele>66.5</ele>
        <time>2020-10-11T13:41:57Z</time>
      </trkpt>
      <trkpt lat="37.361407000" lon="-5.588072000">
        <ele>66.5</ele>
        <time>2020-10-11T13:41:59Z</time>
      </trkpt>
      <trkpt lat="37.361304000" lon="-5.588021000">
        <ele>66.5</ele>
        <time>2020-10-11T13:42:01Z</time>
      </trkpt>
      <trkpt lat="37.361205000" lon="-5.587971000">
        <ele>66.3</ele>
        <time>2020-10-11T13:42:03Z</time>
      </trkpt>
      <trkpt lat="37.361099000" lon="-5.587922000">
        <ele>66.1</ele>
        <time>2020-10-11T13:42:05Z</time>
      </trkpt>
      <trkpt lat="37.360991000" lon="-5.587867000">
        <ele>65.9</ele>
        <time>2020-10-11T13:42:07Z</time>
      </trkpt>
      <trkpt lat="37.360889000" lon="-5.587828000">
        <ele>65.6</ele>
        <time>2020-10-11T13:42:09Z</time>
      </trkpt>
      <trkpt lat="37.360781000" lon="-5.587786000">
        <ele>65.5</ele>
        <time>2020-10-11T13:42:11Z</time>
      </trkpt>
      <trkpt lat="37.360673000" lon="-5.587743000">
        <ele>65.4</ele>
        <time>2020-10-11T13:42:13Z</time>
      </trkpt>
      <trkpt lat="37.360568000" lon="-5.587698000">
        <ele>65.4</ele>
        <time>2020-10-11T13:42:15Z</time>
      </trkpt>
      <trkpt lat="37.360456000" lon="-5.587658000">
        <ele>65.5</ele>
        <time>2020-10-11T13:42:17Z</time>
      </trkpt>
      <trkpt lat="37.360348000" lon="-5.587613000">
        <ele>65.6</ele>
        <time>2020-10-11T13:42:19Z</time>
      </trkpt>
      <trkpt lat="37.360238000" lon="-5.587568000">
        <ele>65.9</ele>
        <time>2020-10-11T13:42:21Z</time>
      </trkpt>
      <trkpt lat="37.360129000" lon="-5.587519000">
        <ele>66.3</ele>
        <time>2020-10-11T13:42:23Z</time>
      </trkpt>
      <trkpt lat="37.360019000" lon="-5.587468000">
        <ele>66.7</ele>
        <time>2020-10-11T13:42:25Z</time>
      </trkpt>
      <trkpt lat="37.359910000" lon="-5.587420000">
        <ele>67.2</ele>
        <time>2020-10-11T13:42:27Z</time>
      </trkpt>
      <trkpt lat="37.359804000" lon="-5.587365000">
        <ele>67.5</ele>
        <time>2020-10-11T13:42:29Z</time>
      </trkpt>
      <trkpt lat="37.359705000" lon="-5.587314000">
        <ele>67.7</ele>
        <time>2020-10-11T13:42:31Z</time>
      </trkpt>
      <trkpt lat="37.359608000" lon="-5.587269000">
        <ele>67.8</ele>
        <time>2020-10-11T13:42:33Z</time>
      </trkpt>
      <trkpt lat="37.359509000" lon="-5.587218000">
        <ele>67.8</ele>
        <time>2020-10-11T13:42:35Z</time>
      </trkpt>
      <trkpt lat="37.359414000" lon="-5.587165000">
        <ele>67.7</ele>
        <time>2020-10-11T13:42:37Z</time>
      </trkpt>
      <trkpt lat="37.359319000" lon="-5.587113000">
        <ele>67.5</ele>
        <time>2020-10-11T13:42:39Z</time>
      </trkpt>
      <trkpt lat="37.359222000" lon="-5.587061000">
        <ele>67.2</ele>
        <time>2020-10-11T13:42:41Z</time>
      </trkpt>
      <trkpt lat="37.359123000" lon="-5.587005000">
        <ele>66.8</ele>
        <time>2020-10-11T13:42:43Z</time>
      </trkpt>
      <trkpt lat="37.359028000" lon="-5.586951000">
        <ele>66.5</ele>
        <time>2020-10-11T13:42:45Z</time>
      </trkpt>
      <trkpt lat="37.358932000" lon="-5.586898000">
        <ele>66.0</ele>
        <time>2020-10-11T13:42:47Z</time>
      </trkpt>
      <trkpt lat="37.358837000" lon="-5.586845000">
        <ele>65.5</ele>
        <time>2020-10-11T13:42:49Z</time>
      </trkpt>
      <trkpt lat="37.358741000" lon="-5.586791000">
        <ele>65.2</ele>
        <time>2020-10-11T13:42:51Z</time>
      </trkpt>
      <trkpt lat="37.358637000" lon="-5.586741000">
        <ele>65.1</ele>
        <time>2020-10-11T13:42:53Z</time>
      </trkpt>
      <trkpt lat="37.358547000" lon="-5.586689000">
        <ele>65.0</ele>
        <time>2020-10-11T13:42:55Z</time>
      </trkpt>
      <trkpt lat="37.358459000" lon="-5.586642000">
        <ele>64.9</ele>
        <time>2020-10-11T13:42:57Z</time>
      </trkpt>
      <trkpt lat="37.358370000" lon="-5.586596000">
        <ele>64.8</ele>
        <time>2020-10-11T13:42:59Z</time>
      </trkpt>
      <trkpt lat="37.358280000" lon="-5.586553000">
        <ele>64.7</ele>
        <time>2020-10-11T13:43:01Z</time>
      </trkpt>
      <trkpt lat="37.358186000" lon="-5.586501000">
        <ele>64.8</ele>
        <time>2020-10-11T13:43:03Z</time>
      </trkpt>
      <trkpt lat="37.358102000" lon="-5.586454000">
        <ele>64.9</ele>
        <time>2020-10-11T13:43:05Z</time>
      </trkpt>
      <trkpt lat="37.358019000" lon="-5.586415000">
        <ele>65.1</ele>
        <time>2020-10-11T13:43:07Z</time>
      </trkpt>
      <trkpt lat="37.357931000" lon="-5.586363000">
        <ele>65.4</ele>
        <time>2020-10-11T13:43:09Z</time>
      </trkpt>
      <trkpt lat="37.357847000" lon="-5.586321000">
        <ele>65.7</ele>
        <time>2020-10-11T13:43:11Z</time>
      </trkpt>
      <trkpt lat="37.357770000" lon="-5.586275000">
        <ele>66.2</ele>
        <time>2020-10-11T13:43:13Z</time>
      </trkpt>
      <trkpt lat="37.357695000" lon="-5.586226000">
        <ele>66.6</ele>
        <time>2020-10-11T13:43:15Z</time>
      </trkpt>
      <trkpt lat="37.357619000" lon="-5.586183000">
        <ele>67.1</ele>
        <time>2020-10-11T13:43:17Z</time>
      </trkpt>
      <trkpt lat="37.357540000" lon="-5.586140000">
        <ele>67.6</ele>
        <time>2020-10-11T13:43:19Z</time>
      </trkpt>
      <trkpt lat="37.357429000" lon="-5.586081000">
        <ele>68.2</ele>
        <time>2020-10-11T13:43:22Z</time>
      </trkpt>
      <trkpt lat="37.357322000" lon="-5.586020000">
        <ele>68.7</ele>
        <time>2020-10-11T13:43:25Z</time>
      </trkpt>
      <trkpt lat="37.357216000" lon="-5.585959000">
        <ele>69.1</ele>
        <time>2020-10-11T13:43:28Z</time>
      </trkpt>
      <trkpt lat="37.357109000" lon="-5.585901000">
        <ele>69.5</ele>
        <time>2020-10-11T13:43:31Z</time>
      </trkpt>
      <trkpt lat="37.357003000" lon="-5.585842000">
        <ele>69.9</ele>
        <time>2020-10-11T13:43:34Z</time>
      </trkpt>
      <trkpt lat="37.356900000" lon="-5.585785000">
        <ele>70.4</ele>
        <time>2020-10-11T13:43:37Z</time>
      </trkpt>
      <trkpt lat="37.356800000" lon="-5.585743000">
        <ele>70.7</ele>
        <time>2020-10-11T13:43:40Z</time>
      </trkpt>
      <trkpt lat="37.356702000" lon="-5.585689000">
        <ele>71.0</ele>
        <time>2020-10-11T13:43:43Z</time>
      </trkpt>
      <trkpt lat="37.356602000" lon="-5.585637000">
        <ele>71.2</ele>
        <time>2020-10-11T13:43:46Z</time>
      </trkpt>
      <trkpt lat="37.356503000" lon="-5.585585000">
        <ele>71.4</ele>
        <time>2020-10-11T13:43:49Z</time>
      </trkpt>
      <trkpt lat="37.356402000" lon="-5.585532000">
        <ele>71.5</ele>
        <time>2020-10-11T13:43:52Z</time>
      </trkpt>
      <trkpt lat="37.356300000" lon="-5.585484000">
        <ele>71.7</ele>
        <time>2020-10-11T13:43:55Z</time>
      </trkpt>
      <trkpt lat="37.356194000" lon="-5.585435000">
        <ele>71.9</ele>
        <time>2020-10-11T13:43:58Z</time>
      </trkpt>
      <trkpt lat="37.356087000" lon="-5.585386000">
        <ele>72.1</ele>
        <time>2020-10-11T13:44:01Z</time>
      </trkpt>
      <trkpt lat="37.355976000" lon="-5.585336000">
        <ele>72.2</ele>
        <time>2020-10-11T13:44:04Z</time>
      </trkpt>
      <trkpt lat="37.355865000" lon="-5.585283000">
        <ele>72.3</ele>
        <time>2020-10-11T13:44:07Z</time>
      </trkpt>
      <trkpt lat="37.355750000" lon="-5.585234000">
        <ele>72.3</ele>
        <time>2020-10-11T13:44:10Z</time>
      </trkpt>
      <trkpt lat="37.355674000" lon="-5.585200000">
        <ele>72.3</ele>
        <time>2020-10-11T13:44:12Z</time>
      </trkpt>
      <trkpt lat="37.355596000" lon="-5.585168000">
        <ele>72.3</ele>
        <time>2020-10-11T13:44:14Z</time>
      </trkpt>
      <trkpt lat="37.355487000" lon="-5.585121000">
        <ele>72.3</ele>
        <time>2020-10-11T13:44:17Z</time>
      </trkpt>
      <trkpt lat="37.355378000" lon="-5.585073000">
        <ele>72.2</ele>
        <time>2020-10-11T13:44:20Z</time>
      </trkpt>
      <trkpt lat="37.355302000" lon="-5.585038000">
        <ele>72.0</ele>
        <time>2020-10-11T13:44:22Z</time>
      </trkpt>
      <trkpt lat="37.355223000" lon="-5.585007000">
        <ele>71.9</ele>
        <time>2020-10-11T13:44:24Z</time>
      </trkpt>
      <trkpt lat="37.355146000" lon="-5.584970000">
        <ele>71.8</ele>
        <time>2020-10-11T13:44:26Z</time>
      </trkpt>
      <trkpt lat="37.355069000" lon="-5.584935000">
        <ele>71.8</ele>
        <time>2020-10-11T13:44:28Z</time>
      </trkpt>
      <trkpt lat="37.354990000" lon="-5.584897000">
        <ele>71.8</ele>
        <time>2020-10-11T13:44:30Z</time>
      </trkpt>
      <trkpt lat="37.354913000" lon="-5.584862000">
        <ele>71.8</ele>
        <time>2020-10-11T13:44:32Z</time>
      </trkpt>
      <trkpt lat="37.354833000" lon="-5.584821000">
        <ele>71.8</ele>
        <time>2020-10-11T13:44:34Z</time>
      </trkpt>
      <trkpt lat="37.354745000" lon="-5.584783000">
        <ele>71.8</ele>
        <time>2020-10-11T13:44:36Z</time>
      </trkpt>
      <trkpt lat="37.354655000" lon="-5.584733000">
        <ele>71.8</ele>
        <time>2020-10-11T13:44:38Z</time>
      </trkpt>
      <trkpt lat="37.354562000" lon="-5.584690000">
        <ele>71.8</ele>
        <time>2020-10-11T13:44:40Z</time>
      </trkpt>
      <trkpt lat="37.354464000" lon="-5.584644000">
        <ele>71.9</ele>
        <time>2020-10-11T13:44:42Z</time>
      </trkpt>
      <trkpt lat="37.354368000" lon="-5.584599000">
        <ele>72.0</ele>
        <time>2020-10-11T13:44:44Z</time>
      </trkpt>
      <trkpt lat="37.354268000" lon="-5.584556000">
        <ele>72.0</ele>
        <time>2020-10-11T13:44:46Z</time>
      </trkpt>
      <trkpt lat="37.354166000" lon="-5.584505000">
        <ele>72.0</ele>
        <time>2020-10-11T13:44:48Z</time>
      </trkpt>
      <trkpt lat="37.354059000" lon="-5.584453000">
        <ele>72.0</ele>
        <time>2020-10-11T13:44:50Z</time>
      </trkpt>
      <trkpt lat="37.353949000" lon="-5.584404000">
        <ele>72.0</ele>
        <time>2020-10-11T13:44:52Z</time>
      </trkpt>
      <trkpt lat="37.353838000" lon="-5.584352000">
        <ele>72.0</ele>
        <time>2020-10-11T13:44:54Z</time>
      </trkpt>
      <trkpt lat="37.353729000" lon="-5.584298000">
        <ele>71.9</ele>
        <time>2020-10-11T13:44:56Z</time>
      </trkpt>
      <trkpt lat="37.353619000" lon="-5.584250000">
        <ele>71.9</ele>
        <time>2020-10-11T13:44:58Z</time>
      </trkpt>
      <trkpt lat="37.353506000" lon="-5.584195000">
        <ele>71.9</ele>
        <time>2020-10-11T13:45:00Z</time>
      </trkpt>
      <trkpt lat="37.353392000" lon="-5.584144000">
        <ele>71.9</ele>
        <time>2020-10-11T13:45:02Z</time>
      </trkpt>
      <trkpt lat="37.353284000" lon="-5.584090000">
        <ele>71.9</ele>
        <time>2020-10-11T13:45:04Z</time>
      </trkpt>
      <trkpt lat="37.353171000" lon="-5.584030000">
        <ele>71.8</ele>
        <time>2020-10-11T13:45:06Z</time>
      </trkpt>
      <trkpt lat="37.353059000" lon="-5.583975000">
        <ele>71.7</ele>
        <time>2020-10-11T13:45:08Z</time>
      </trkpt>
      <trkpt lat="37.352948000" lon="-5.583923000">
        <ele>71.6</ele>
        <time>2020-10-11T13:45:10Z</time>
      </trkpt>
      <trkpt lat="37.352834000" lon="-5.583869000">
        <ele>71.5</ele>
        <time>2020-10-11T13:45:12Z</time>
      </trkpt>
      <trkpt lat="37.352713000" lon="-5.583817000">
        <ele>71.3</ele>
        <time>2020-10-11T13:45:14Z</time>
      </trkpt>
      <trkpt lat="37.352600000" lon="-5.583762000">
        <ele>71.0</ele>
        <time>2020-10-11T13:45:16Z</time>
      </trkpt>
      <trkpt lat="37.352486000" lon="-5.583707000">
        <ele>70.8</ele>
        <time>2020-10-11T13:45:18Z</time>
      </trkpt>
      <trkpt lat="37.352371000" lon="-5.583654000">
        <ele>70.5</ele>
        <time>2020-10-11T13:45:20Z</time>
      </trkpt>
      <trkpt lat="37.352254000" lon="-5.583600000">
        <ele>70.3</ele>
        <time>2020-10-11T13:45:22Z</time>
      </trkpt>
      <trkpt lat="37.352141000" lon="-5.583544000">
        <ele>69.9</ele>
        <time>2020-10-11T13:45:24Z</time>
      </trkpt>
      <trkpt lat="37.352030000" lon="-5.583491000">
        <ele>69.5</ele>
        <time>2020-10-11T13:45:26Z</time>
      </trkpt>
      <trkpt lat="37.351920000" lon="-5.583436000">
        <ele>69.3</ele>
        <time>2020-10-11T13:45:28Z</time>
      </trkpt>
      <trkpt lat="37.351806000" lon="-5.583377000">
        <ele>68.9</ele>
        <time>2020-10-11T13:45:30Z</time>
      </trkpt>
      <trkpt lat="37.351694000" lon="-5.583320000">
        <ele>68.5</ele>
        <time>2020-10-11T13:45:32Z</time>
      </trkpt>
      <trkpt lat="37.351585000" lon="-5.583270000">
        <ele>68.3</ele>
        <time>2020-10-11T13:45:34Z</time>
      </trkpt>
      <trkpt lat="37.351476000" lon="-5.583209000">
        <ele>68.1</ele>
        <time>2020-10-11T13:45:36Z</time>
      </trkpt>
      <trkpt lat="37.351368000" lon="-5.583160000">
        <ele>68.1</ele>
        <time>2020-10-11T13:45:38Z</time>
      </trkpt>
      <trkpt lat="37.351263000" lon="-5.583115000">
        <ele>68.1</ele>
        <time>2020-10-11T13:45:40Z</time>
      </trkpt>
      <trkpt lat="37.351154000" lon="-5.583059000">
        <ele>68.1</ele>
        <time>2020-10-11T13:45:42Z</time>
      </trkpt>
      <trkpt lat="37.351050000" lon="-5.583004000">
        <ele>68.1</ele>
        <time>2020-10-11T13:45:44Z</time>
      </trkpt>
      <trkpt lat="37.350946000" lon="-5.582954000">
        <ele>68.1</ele>
        <time>2020-10-11T13:45:46Z</time>
      </trkpt>
      <trkpt lat="37.350839000" lon="-5.582904000">
        <ele>68.1</ele>
        <time>2020-10-11T13:45:48Z</time>
      </trkpt>
      <trkpt lat="37.350737000" lon="-5.582858000">
        <ele>68.1</ele>
        <time>2020-10-11T13:45:50Z</time>
      </trkpt>
      <trkpt lat="37.350636000" lon="-5.582812000">
        <ele>68.3</ele>
        <time>2020-10-11T13:45:52Z</time>
      </trkpt>
      <trkpt lat="37.350536000" lon="-5.582762000">
        <ele>68.5</ele>
        <time>2020-10-11T13:45:54Z</time>
      </trkpt>
      <trkpt lat="37.350439000" lon="-5.582722000">
        <ele>68.6</ele>
        <time>2020-10-11T13:45:56Z</time>
      </trkpt>
      <trkpt lat="37.350343000" lon="-5.582669000">
        <ele>68.7</ele>
        <time>2020-10-11T13:45:58Z</time>
      </trkpt>
      <trkpt lat="37.350240000" lon="-5.582617000">
        <ele>68.7</ele>
        <time>2020-10-11T13:46:00Z</time>
      </trkpt>
      <trkpt lat="37.350127000" lon="-5.582565000">
        <ele>68.7</ele>
        <time>2020-10-11T13:46:02Z</time>
      </trkpt>
      <trkpt lat="37.350019000" lon="-5.582514000">
        <ele>68.7</ele>
        <time>2020-10-11T13:46:04Z</time>
      </trkpt>
      <trkpt lat="37.349906000" lon="-5.582458000">
        <ele>68.7</ele>
        <time>2020-10-11T13:46:06Z</time>
      </trkpt>
      <trkpt lat="37.349803000" lon="-5.582406000">
        <ele>68.8</ele>
        <time>2020-10-11T13:46:08Z</time>
      </trkpt>
      <trkpt lat="37.349703000" lon="-5.582358000">
        <ele>68.9</ele>
        <time>2020-10-11T13:46:10Z</time>
      </trkpt>
      <trkpt lat="37.349600000" lon="-5.582312000">
        <ele>69.1</ele>
        <time>2020-10-11T13:46:12Z</time>
      </trkpt>
      <trkpt lat="37.349493000" lon="-5.582273000">
        <ele>69.2</ele>
        <time>2020-10-11T13:46:14Z</time>
      </trkpt>
      <trkpt lat="37.349384000" lon="-5.582234000">
        <ele>69.3</ele>
        <time>2020-10-11T13:46:16Z</time>
      </trkpt>
      <trkpt lat="37.349281000" lon="-5.582201000">
        <ele>69.5</ele>
        <time>2020-10-11T13:46:18Z</time>
      </trkpt>
      <trkpt lat="37.349179000" lon="-5.582171000">
        <ele>69.6</ele>
        <time>2020-10-11T13:46:20Z</time>
      </trkpt>
      <trkpt lat="37.349082000" lon="-5.582140000">
        <ele>69.8</ele>
        <time>2020-10-11T13:46:22Z</time>
      </trkpt>
      <trkpt lat="37.348988000" lon="-5.582118000">
        <ele>70.0</ele>
        <time>2020-10-11T13:46:24Z</time>
      </trkpt>
      <trkpt lat="37.348896000" lon="-5.582088000">
        <ele>70.3</ele>
        <time>2020-10-11T13:46:26Z</time>
      </trkpt>
      <trkpt lat="37.348801000" lon="-5.582067000">
        <ele>70.5</ele>
        <time>2020-10-11T13:46:28Z</time>
      </trkpt>
      <trkpt lat="37.348703000" lon="-5.582036000">
        <ele>70.8</ele>
        <time>2020-10-11T13:46:30Z</time>
      </trkpt>
      <trkpt lat="37.348606000" lon="-5.582007000">
        <ele>71.2</ele>
        <time>2020-10-11T13:46:32Z</time>
      </trkpt>
      <trkpt lat="37.348507000" lon="-5.581982000">
        <ele>71.5</ele>
        <time>2020-10-11T13:46:34Z</time>
      </trkpt>
      <trkpt lat="37.348410000" lon="-5.581943000">
        <ele>71.7</ele>
        <time>2020-10-11T13:46:36Z</time>
      </trkpt>
      <trkpt lat="37.348310000" lon="-5.581901000">
        <ele>72.0</ele>
        <time>2020-10-11T13:46:38Z</time>
      </trkpt>
      <trkpt lat="37.348214000" lon="-5.581860000">
        <ele>72.1</ele>
        <time>2020-10-11T13:46:40Z</time>
      </trkpt>
      <trkpt lat="37.348113000" lon="-5.581814000">
        <ele>72.1</ele>
        <time>2020-10-11T13:46:42Z</time>
      </trkpt>
      <trkpt lat="37.348008000" lon="-5.581766000">
        <ele>72.1</ele>
        <time>2020-10-11T13:46:44Z</time>
      </trkpt>
      <trkpt lat="37.347900000" lon="-5.581709000">
        <ele>72.1</ele>
        <time>2020-10-11T13:46:46Z</time>
      </trkpt>
      <trkpt lat="37.347791000" lon="-5.581655000">
        <ele>72.0</ele>
        <time>2020-10-11T13:46:48Z</time>
      </trkpt>
      <trkpt lat="37.347675000" lon="-5.581596000">
        <ele>71.8</ele>
        <time>2020-10-11T13:46:50Z</time>
      </trkpt>
      <trkpt lat="37.347554000" lon="-5.581542000">
        <ele>71.6</ele>
        <time>2020-10-11T13:46:52Z</time>
      </trkpt>
      <trkpt lat="37.347431000" lon="-5.581490000">
        <ele>71.3</ele>
        <time>2020-10-11T13:46:55Z</time>
      </trkpt>
      <trkpt lat="37.347309000" lon="-5.581445000">
        <ele>70.9</ele>
        <time>2020-10-11T13:46:56Z</time>
      </trkpt>
      <trkpt lat="37.347185000" lon="-5.581407000">
        <ele>70.5</ele>
        <time>2020-10-11T13:46:58Z</time>
      </trkpt>
      <trkpt lat="37.347059000" lon="-5.581365000">
        <ele>70.1</ele>
        <time>2020-10-11T13:47:00Z</time>
      </trkpt>
      <trkpt lat="37.346928000" lon="-5.581321000">
        <ele>69.7</ele>
        <time>2020-10-11T13:47:02Z</time>
      </trkpt>
      <trkpt lat="37.346795000" lon="-5.581276000">
        <ele>69.5</ele>
        <time>2020-10-11T13:47:04Z</time>
      </trkpt>
      <trkpt lat="37.346659000" lon="-5.581228000">
        <ele>69.4</ele>
        <time>2020-10-11T13:47:06Z</time>
      </trkpt>
      <trkpt lat="37.346524000" lon="-5.581182000">
        <ele>69.1</ele>
        <time>2020-10-11T13:47:08Z</time>
      </trkpt>
      <trkpt lat="37.346388000" lon="-5.581132000">
        <ele>68.8</ele>
        <time>2020-10-11T13:47:10Z</time>
      </trkpt>
      <trkpt lat="37.346250000" lon="-5.581086000">
        <ele>68.5</ele>
        <time>2020-10-11T13:47:12Z</time>
      </trkpt>
      <trkpt lat="37.346110000" lon="-5.581044000">
        <ele>68.3</ele>
        <time>2020-10-11T13:47:14Z</time>
      </trkpt>
      <trkpt lat="37.345969000" lon="-5.580993000">
        <ele>68.0</ele>
        <time>2020-10-11T13:47:16Z</time>
      </trkpt>
      <trkpt lat="37.345833000" lon="-5.580949000">
        <ele>67.7</ele>
        <time>2020-10-11T13:47:18Z</time>
      </trkpt>
      <trkpt lat="37.345695000" lon="-5.580902000">
        <ele>67.4</ele>
        <time>2020-10-11T13:47:20Z</time>
      </trkpt>
      <trkpt lat="37.345557000" lon="-5.580858000">
        <ele>67.1</ele>
        <time>2020-10-11T13:47:22Z</time>
      </trkpt>
      <trkpt lat="37.345422000" lon="-5.580821000">
        <ele>66.9</ele>
        <time>2020-10-11T13:47:24Z</time>
      </trkpt>
      <trkpt lat="37.345286000" lon="-5.580784000">
        <ele>66.6</ele>
        <time>2020-10-11T13:47:26Z</time>
      </trkpt>
      <trkpt lat="37.345150000" lon="-5.580754000">
        <ele>66.4</ele>
        <time>2020-10-11T13:47:28Z</time>
      </trkpt>
      <trkpt lat="37.345010000" lon="-5.580723000">
        <ele>66.2</ele>
        <time>2020-10-11T13:47:30Z</time>
      </trkpt>
      <trkpt lat="37.344871000" lon="-5.580699000">
        <ele>66.0</ele>
        <time>2020-10-11T13:47:32Z</time>
      </trkpt>
      <trkpt lat="37.344734000" lon="-5.580677000">
        <ele>65.9</ele>
        <time>2020-10-11T13:47:34Z</time>
      </trkpt>
      <trkpt lat="37.344601000" lon="-5.580661000">
        <ele>65.8</ele>
        <time>2020-10-11T13:47:36Z</time>
      </trkpt>
      <trkpt lat="37.344469000" lon="-5.580640000">
        <ele>65.8</ele>
        <time>2020-10-11T13:47:38Z</time>
      </trkpt>
      <trkpt lat="37.344334000" lon="-5.580619000">
        <ele>65.8</ele>
        <time>2020-10-11T13:47:40Z</time>
      </trkpt>
      <trkpt lat="37.344203000" lon="-5.580596000">
        <ele>65.9</ele>
        <time>2020-10-11T13:47:42Z</time>
      </trkpt>
      <trkpt lat="37.344074000" lon="-5.580573000">
        <ele>65.9</ele>
        <time>2020-10-11T13:47:44Z</time>
      </trkpt>
      <trkpt lat="37.343948000" lon="-5.580549000">
        <ele>65.8</ele>
        <time>2020-10-11T13:47:46Z</time>
      </trkpt>
      <trkpt lat="37.343822000" lon="-5.580526000">
        <ele>65.7</ele>
        <time>2020-10-11T13:47:48Z</time>
      </trkpt>
      <trkpt lat="37.343693000" lon="-5.580505000">
        <ele>65.5</ele>
        <time>2020-10-11T13:47:50Z</time>
      </trkpt>
      <trkpt lat="37.343566000" lon="-5.580489000">
        <ele>65.4</ele>
        <time>2020-10-11T13:47:52Z</time>
      </trkpt>
      <trkpt lat="37.343437000" lon="-5.580466000">
        <ele>65.1</ele>
        <time>2020-10-11T13:47:54Z</time>
      </trkpt>
      <trkpt lat="37.343309000" lon="-5.580442000">
        <ele>64.8</ele>
        <time>2020-10-11T13:47:56Z</time>
      </trkpt>
      <trkpt lat="37.343178000" lon="-5.580419000">
        <ele>64.5</ele>
        <time>2020-10-11T13:47:58Z</time>
      </trkpt>
      <trkpt lat="37.343046000" lon="-5.580395000">
        <ele>64.3</ele>
        <time>2020-10-11T13:48:00Z</time>
      </trkpt>
      <trkpt lat="37.342915000" lon="-5.580373000">
        <ele>64.0</ele>
        <time>2020-10-11T13:48:02Z</time>
      </trkpt>
      <trkpt lat="37.342784000" lon="-5.580353000">
        <ele>63.7</ele>
        <time>2020-10-11T13:48:04Z</time>
      </trkpt>
      <trkpt lat="37.342653000" lon="-5.580327000">
        <ele>63.5</ele>
        <time>2020-10-11T13:48:06Z</time>
      </trkpt>
      <trkpt lat="37.342528000" lon="-5.580299000">
        <ele>63.4</ele>
        <time>2020-10-11T13:48:08Z</time>
      </trkpt>
      <trkpt lat="37.342403000" lon="-5.580261000">
        <ele>63.2</ele>
        <time>2020-10-11T13:48:10Z</time>
      </trkpt>
      <trkpt lat="37.342283000" lon="-5.580217000">
        <ele>63.1</ele>
        <time>2020-10-11T13:48:12Z</time>
      </trkpt>
      <trkpt lat="37.342170000" lon="-5.580167000">
        <ele>63.0</ele>
        <time>2020-10-11T13:48:14Z</time>
      </trkpt>
      <trkpt lat="37.342056000" lon="-5.580110000">
        <ele>63.0</ele>
        <time>2020-10-11T13:48:16Z</time>
      </trkpt>
      <trkpt lat="37.341947000" lon="-5.580057000">
        <ele>63.1</ele>
        <time>2020-10-11T13:48:18Z</time>
      </trkpt>
      <trkpt lat="37.341834000" lon="-5.580002000">
        <ele>63.2</ele>
        <time>2020-10-11T13:48:20Z</time>
      </trkpt>
      <trkpt lat="37.341727000" lon="-5.579951000">
        <ele>63.4</ele>
        <time>2020-10-11T13:48:22Z</time>
      </trkpt>
      <trkpt lat="37.341624000" lon="-5.579900000">
        <ele>63.5</ele>
        <time>2020-10-11T13:48:24Z</time>
      </trkpt>
      <trkpt lat="37.341520000" lon="-5.579855000">
        <ele>63.7</ele>
        <time>2020-10-11T13:48:26Z</time>
      </trkpt>
      <trkpt lat="37.341414000" lon="-5.579802000">
        <ele>63.9</ele>
        <time>2020-10-11T13:48:28Z</time>
      </trkpt>
      <trkpt lat="37.341306000" lon="-5.579751000">
        <ele>64.1</ele>
        <time>2020-10-11T13:48:30Z</time>
      </trkpt>
      <trkpt lat="37.341199000" lon="-5.579701000">
        <ele>64.2</ele>
        <time>2020-10-11T13:48:32Z</time>
      </trkpt>
      <trkpt lat="37.341088000" lon="-5.579645000">
        <ele>64.3</ele>
        <time>2020-10-11T13:48:34Z</time>
      </trkpt>
      <trkpt lat="37.340982000" lon="-5.579591000">
        <ele>64.5</ele>
        <time>2020-10-11T13:48:36Z</time>
      </trkpt>
      <trkpt lat="37.340877000" lon="-5.579542000">
        <ele>64.7</ele>
        <time>2020-10-11T13:48:38Z</time>
      </trkpt>
      <trkpt lat="37.340769000" lon="-5.579495000">
        <ele>65.0</ele>
        <time>2020-10-11T13:48:40Z</time>
      </trkpt>
      <trkpt lat="37.340665000" lon="-5.579448000">
        <ele>65.4</ele>
        <time>2020-10-11T13:48:42Z</time>
      </trkpt>
      <trkpt lat="37.340561000" lon="-5.579406000">
        <ele>65.7</ele>
        <time>2020-10-11T13:48:44Z</time>
      </trkpt>
      <trkpt lat="37.340455000" lon="-5.579369000">
        <ele>66.1</ele>
        <time>2020-10-11T13:48:46Z</time>
      </trkpt>
      <trkpt lat="37.340353000" lon="-5.579334000">
        <ele>66.5</ele>
        <time>2020-10-11T13:48:48Z</time>
      </trkpt>
      <trkpt lat="37.340255000" lon="-5.579296000">
        <ele>66.8</ele>
        <time>2020-10-11T13:48:50Z</time>
      </trkpt>
      <trkpt lat="37.340155000" lon="-5.579261000">
        <ele>67.2</ele>
        <time>2020-10-11T13:48:52Z</time>
      </trkpt>
      <trkpt lat="37.340055000" lon="-5.579233000">
        <ele>67.6</ele>
        <time>2020-10-11T13:48:54Z</time>
      </trkpt>
      <trkpt lat="37.339957000" lon="-5.579200000">
        <ele>68.1</ele>
        <time>2020-10-11T13:48:56Z</time>
      </trkpt>
      <trkpt lat="37.339861000" lon="-5.579165000">
        <ele>68.4</ele>
        <time>2020-10-11T13:48:58Z</time>
      </trkpt>
      <trkpt lat="37.339763000" lon="-5.579136000">
        <ele>68.5</ele>
        <time>2020-10-11T13:49:00Z</time>
      </trkpt>
      <trkpt lat="37.339675000" lon="-5.579110000">
        <ele>68.7</ele>
        <time>2020-10-11T13:49:02Z</time>
      </trkpt>
      <trkpt lat="37.339591000" lon="-5.579080000">
        <ele>68.8</ele>
        <time>2020-10-11T13:49:04Z</time>
      </trkpt>
      <trkpt lat="37.339502000" lon="-5.579046000">
        <ele>68.8</ele>
        <time>2020-10-11T13:49:06Z</time>
      </trkpt>
      <trkpt lat="37.339420000" lon="-5.579020000">
        <ele>68.8</ele>
        <time>2020-10-11T13:49:08Z</time>
      </trkpt>
      <trkpt lat="37.339338000" lon="-5.578996000">
        <ele>68.8</ele>
        <time>2020-10-11T13:49:10Z</time>
      </trkpt>
      <trkpt lat="37.339227000" lon="-5.578952000">
        <ele>68.8</ele>
        <time>2020-10-11T13:49:13Z</time>
      </trkpt>
      <trkpt lat="37.339116000" lon="-5.578916000">
        <ele>68.8</ele>
        <time>2020-10-11T13:49:16Z</time>
      </trkpt>
      <trkpt lat="37.339009000" lon="-5.578877000">
        <ele>68.8</ele>
        <time>2020-10-11T13:49:19Z</time>
      </trkpt>
      <trkpt lat="37.338898000" lon="-5.578842000">
        <ele>68.8</ele>
        <time>2020-10-11T13:49:22Z</time>
      </trkpt>
      <trkpt lat="37.338782000" lon="-5.578803000">
        <ele>68.9</ele>
        <time>2020-10-11T13:49:25Z</time>
      </trkpt>
      <trkpt lat="37.338702000" lon="-5.578776000">
        <ele>69.0</ele>
        <time>2020-10-11T13:49:27Z</time>
      </trkpt>
      <trkpt lat="37.338620000" lon="-5.578749000">
        <ele>68.9</ele>
        <time>2020-10-11T13:49:29Z</time>
      </trkpt>
      <trkpt lat="37.338535000" lon="-5.578718000">
        <ele>68.8</ele>
        <time>2020-10-11T13:49:31Z</time>
      </trkpt>
      <trkpt lat="37.338450000" lon="-5.578688000">
        <ele>68.7</ele>
        <time>2020-10-11T13:49:33Z</time>
      </trkpt>
      <trkpt lat="37.338364000" lon="-5.578661000">
        <ele>68.5</ele>
        <time>2020-10-11T13:49:35Z</time>
      </trkpt>
      <trkpt lat="37.338275000" lon="-5.578633000">
        <ele>68.4</ele>
        <time>2020-10-11T13:49:37Z</time>
      </trkpt>
      <trkpt lat="37.338184000" lon="-5.578599000">
        <ele>68.2</ele>
        <time>2020-10-11T13:49:39Z</time>
      </trkpt>
      <trkpt lat="37.338089000" lon="-5.578559000">
        <ele>67.9</ele>
        <time>2020-10-11T13:49:41Z</time>
      </trkpt>
      <trkpt lat="37.337989000" lon="-5.578520000">
        <ele>67.6</ele>
        <time>2020-10-11T13:49:43Z</time>
      </trkpt>
      <trkpt lat="37.337890000" lon="-5.578470000">
        <ele>67.5</ele>
        <time>2020-10-11T13:49:45Z</time>
      </trkpt>
      <trkpt lat="37.337787000" lon="-5.578422000">
        <ele>67.3</ele>
        <time>2020-10-11T13:49:47Z</time>
      </trkpt>
      <trkpt lat="37.337682000" lon="-5.578361000">
        <ele>67.1</ele>
        <time>2020-10-11T13:49:49Z</time>
      </trkpt>
      <trkpt lat="37.337579000" lon="-5.578288000">
        <ele>67.0</ele>
        <time>2020-10-11T13:49:51Z</time>
      </trkpt>
      <trkpt lat="37.337475000" lon="-5.578225000">
        <ele>66.9</ele>
        <time>2020-10-11T13:49:53Z</time>
      </trkpt>
      <trkpt lat="37.337375000" lon="-5.578165000">
        <ele>66.8</ele>
        <time>2020-10-11T13:49:55Z</time>
      </trkpt>
      <trkpt lat="37.337266000" lon="-5.578094000">
        <ele>66.7</ele>
        <time>2020-10-11T13:49:57Z</time>
      </trkpt>
      <trkpt lat="37.337164000" lon="-5.578028000">
        <ele>66.6</ele>
        <time>2020-10-11T13:49:59Z</time>
      </trkpt>
      <trkpt lat="37.337054000" lon="-5.577962000">
        <ele>66.5</ele>
        <time>2020-10-11T13:50:01Z</time>
      </trkpt>
      <trkpt lat="37.336943000" lon="-5.577893000">
        <ele>66.5</ele>
        <time>2020-10-11T13:50:03Z</time>
      </trkpt>
      <trkpt lat="37.336832000" lon="-5.577821000">
        <ele>66.5</ele>
        <time>2020-10-11T13:50:05Z</time>
      </trkpt>
      <trkpt lat="37.336721000" lon="-5.577751000">
        <ele>66.4</ele>
        <time>2020-10-11T13:50:07Z</time>
      </trkpt>
      <trkpt lat="37.336609000" lon="-5.577676000">
        <ele>66.2</ele>
        <time>2020-10-11T13:50:09Z</time>
      </trkpt>
      <trkpt lat="37.336494000" lon="-5.577599000">
        <ele>66.0</ele>
        <time>2020-10-11T13:50:11Z</time>
      </trkpt>
      <trkpt lat="37.336377000" lon="-5.577519000">
        <ele>65.7</ele>
        <time>2020-10-11T13:50:13Z</time>
      </trkpt>
      <trkpt lat="37.336253000" lon="-5.577447000">
        <ele>65.5</ele>
        <time>2020-10-11T13:50:15Z</time>
      </trkpt>
      <trkpt lat="37.336124000" lon="-5.577388000">
        <ele>65.1</ele>
        <time>2020-10-11T13:50:17Z</time>
      </trkpt>
      <trkpt lat="37.335994000" lon="-5.577340000">
        <ele>64.7</ele>
        <time>2020-10-11T13:50:19Z</time>
      </trkpt>
      <trkpt lat="37.335856000" lon="-5.577306000">
        <ele>64.4</ele>
        <time>2020-10-11T13:50:21Z</time>
      </trkpt>
      <trkpt lat="37.335721000" lon="-5.577280000">
        <ele>64.1</ele>
        <time>2020-10-11T13:50:23Z</time>
      </trkpt>
      <trkpt lat="37.335582000" lon="-5.577262000">
        <ele>63.8</ele>
        <time>2020-10-11T13:50:25Z</time>
      </trkpt>
      <trkpt lat="37.335448000" lon="-5.577250000">
        <ele>63.5</ele>
        <time>2020-10-11T13:50:27Z</time>
      </trkpt>
      <trkpt lat="37.335308000" lon="-5.577236000">
        <ele>63.4</ele>
        <time>2020-10-11T13:50:29Z</time>
      </trkpt>
      <trkpt lat="37.335169000" lon="-5.577220000">
        <ele>63.2</ele>
        <time>2020-10-11T13:50:31Z</time>
      </trkpt>
      <trkpt lat="37.335033000" lon="-5.577200000">
        <ele>63.0</ele>
        <time>2020-10-11T13:50:33Z</time>
      </trkpt>
      <trkpt lat="37.334896000" lon="-5.577179000">
        <ele>62.9</ele>
        <time>2020-10-11T13:50:35Z</time>
      </trkpt>
      <trkpt lat="37.334755000" lon="-5.577161000">
        <ele>62.8</ele>
        <time>2020-10-11T13:50:37Z</time>
      </trkpt>
      <trkpt lat="37.334617000" lon="-5.577146000">
        <ele>62.7</ele>
        <time>2020-10-11T13:50:39Z</time>
      </trkpt>
      <trkpt lat="37.334478000" lon="-5.577129000">
        <ele>62.7</ele>
        <time>2020-10-11T13:50:41Z</time>
      </trkpt>
      <trkpt lat="37.334347000" lon="-5.577103000">
        <ele>62.7</ele>
        <time>2020-10-11T13:50:43Z</time>
      </trkpt>
      <trkpt lat="37.334216000" lon="-5.577062000">
        <ele>62.6</ele>
        <time>2020-10-11T13:50:45Z</time>
      </trkpt>
      <trkpt lat="37.334092000" lon="-5.577015000">
        <ele>62.5</ele>
        <time>2020-10-11T13:50:47Z</time>
      </trkpt>
      <trkpt lat="37.333967000" lon="-5.576961000">
        <ele>62.5</ele>
        <time>2020-10-11T13:50:49Z</time>
      </trkpt>
      <trkpt lat="37.333850000" lon="-5.576906000">
        <ele>62.4</ele>
        <time>2020-10-11T13:50:51Z</time>
      </trkpt>
      <trkpt lat="37.333732000" lon="-5.576841000">
        <ele>62.3</ele>
        <time>2020-10-11T13:50:53Z</time>
      </trkpt>
      <trkpt lat="37.333618000" lon="-5.576776000">
        <ele>62.2</ele>
        <time>2020-10-11T13:50:55Z</time>
      </trkpt>
      <trkpt lat="37.333497000" lon="-5.576708000">
        <ele>62.1</ele>
        <time>2020-10-11T13:50:57Z</time>
      </trkpt>
      <trkpt lat="37.333383000" lon="-5.576638000">
        <ele>62.0</ele>
        <time>2020-10-11T13:50:59Z</time>
      </trkpt>
      <trkpt lat="37.333268000" lon="-5.576568000">
        <ele>61.9</ele>
        <time>2020-10-11T13:51:01Z</time>
      </trkpt>
      <trkpt lat="37.333159000" lon="-5.576497000">
        <ele>61.8</ele>
        <time>2020-10-11T13:51:03Z</time>
      </trkpt>
      <trkpt lat="37.333055000" lon="-5.576426000">
        <ele>61.8</ele>
        <time>2020-10-11T13:51:05Z</time>
      </trkpt>
      <trkpt lat="37.332957000" lon="-5.576359000">
        <ele>61.8</ele>
        <time>2020-10-11T13:51:07Z</time>
      </trkpt>
      <trkpt lat="37.332863000" lon="-5.576295000">
        <ele>61.8</ele>
        <time>2020-10-11T13:51:09Z</time>
      </trkpt>
      <trkpt lat="37.332780000" lon="-5.576220000">
        <ele>61.9</ele>
        <time>2020-10-11T13:51:11Z</time>
      </trkpt>
      <trkpt lat="37.332693000" lon="-5.576158000">
        <ele>62.1</ele>
        <time>2020-10-11T13:51:13Z</time>
      </trkpt>
      <trkpt lat="37.332606000" lon="-5.576090000">
        <ele>62.3</ele>
        <time>2020-10-11T13:51:15Z</time>
      </trkpt>
      <trkpt lat="37.332518000" lon="-5.576026000">
        <ele>62.5</ele>
        <time>2020-10-11T13:51:17Z</time>
      </trkpt>
      <trkpt lat="37.332432000" lon="-5.575963000">
        <ele>62.6</ele>
        <time>2020-10-11T13:51:19Z</time>
      </trkpt>
      <trkpt lat="37.332346000" lon="-5.575900000">
        <ele>62.8</ele>
        <time>2020-10-11T13:51:21Z</time>
      </trkpt>
      <trkpt lat="37.332260000" lon="-5.575838000">
        <ele>63.1</ele>
        <time>2020-10-11T13:51:23Z</time>
      </trkpt>
      <trkpt lat="37.332177000" lon="-5.575772000">
        <ele>63.4</ele>
        <time>2020-10-11T13:51:25Z</time>
      </trkpt>
      <trkpt lat="37.332101000" lon="-5.575713000">
        <ele>63.5</ele>
        <time>2020-10-11T13:51:27Z</time>
      </trkpt>
      <trkpt lat="37.332022000" lon="-5.575657000">
        <ele>63.7</ele>
        <time>2020-10-11T13:51:29Z</time>
      </trkpt>
      <trkpt lat="37.331941000" lon="-5.575595000">
        <ele>63.9</ele>
        <time>2020-10-11T13:51:31Z</time>
      </trkpt>
      <trkpt lat="37.331854000" lon="-5.575525000">
        <ele>63.9</ele>
        <time>2020-10-11T13:51:33Z</time>
      </trkpt>
      <trkpt lat="37.331780000" lon="-5.575465000">
        <ele>63.8</ele>
        <time>2020-10-11T13:51:35Z</time>
      </trkpt>
      <trkpt lat="37.331706000" lon="-5.575408000">
        <ele>63.7</ele>
        <time>2020-10-11T13:51:37Z</time>
      </trkpt>
      <trkpt lat="37.331621000" lon="-5.575354000">
        <ele>63.6</ele>
        <time>2020-10-11T13:51:39Z</time>
      </trkpt>
      <trkpt lat="37.331542000" lon="-5.575296000">
        <ele>63.6</ele>
        <time>2020-10-11T13:51:41Z</time>
      </trkpt>
      <trkpt lat="37.331469000" lon="-5.575245000">
        <ele>63.6</ele>
        <time>2020-10-11T13:51:43Z</time>
      </trkpt>
      <trkpt lat="37.331399000" lon="-5.575190000">
        <ele>63.7</ele>
        <time>2020-10-11T13:51:45Z</time>
      </trkpt>
      <trkpt lat="37.331329000" lon="-5.575133000">
        <ele>63.8</ele>
        <time>2020-10-11T13:51:47Z</time>
      </trkpt>
      <trkpt lat="37.331225000" lon="-5.575049000">
        <ele>63.9</ele>
        <time>2020-10-11T13:51:50Z</time>
      </trkpt>
      <trkpt lat="37.331154000" lon="-5.574998000">
        <ele>64.0</ele>
        <time>2020-10-11T13:51:52Z</time>
      </trkpt>
      <trkpt lat="37.331049000" lon="-5.574926000">
        <ele>64.2</ele>
        <time>2020-10-11T13:51:55Z</time>
      </trkpt>
      <trkpt lat="37.330945000" lon="-5.574849000">
        <ele>64.5</ele>
        <time>2020-10-11T13:51:58Z</time>
      </trkpt>
      <trkpt lat="37.330838000" lon="-5.574778000">
        <ele>64.7</ele>
        <time>2020-10-11T13:52:01Z</time>
      </trkpt>
      <trkpt lat="37.330736000" lon="-5.574700000">
        <ele>65.0</ele>
        <time>2020-10-11T13:52:04Z</time>
      </trkpt>
      <trkpt lat="37.330631000" lon="-5.574632000">
        <ele>65.3</ele>
        <time>2020-10-11T13:52:07Z</time>
      </trkpt>
      <trkpt lat="37.330525000" lon="-5.574562000">
        <ele>65.5</ele>
        <time>2020-10-11T13:52:10Z</time>
      </trkpt>
      <trkpt lat="37.330416000" lon="-5.574494000">
        <ele>65.6</ele>
        <time>2020-10-11T13:52:13Z</time>
      </trkpt>
      <trkpt lat="37.330339000" lon="-5.574449000">
        <ele>65.7</ele>
        <time>2020-10-11T13:52:15Z</time>
      </trkpt>
      <trkpt lat="37.330262000" lon="-5.574396000">
        <ele>65.8</ele>
        <time>2020-10-11T13:52:17Z</time>
      </trkpt>
      <trkpt lat="37.330179000" lon="-5.574348000">
        <ele>65.9</ele>
        <time>2020-10-11T13:52:19Z</time>
      </trkpt>
      <trkpt lat="37.330092000" lon="-5.574301000">
        <ele>66.0</ele>
        <time>2020-10-11T13:52:21Z</time>
      </trkpt>
      <trkpt lat="37.330008000" lon="-5.574244000">
        <ele>66.1</ele>
        <time>2020-10-11T13:52:23Z</time>
      </trkpt>
      <trkpt lat="37.329917000" lon="-5.574190000">
        <ele>66.3</ele>
        <time>2020-10-11T13:52:25Z</time>
      </trkpt>
      <trkpt lat="37.329822000" lon="-5.574132000">
        <ele>66.5</ele>
        <time>2020-10-11T13:52:27Z</time>
      </trkpt>
      <trkpt lat="37.329727000" lon="-5.574075000">
        <ele>66.6</ele>
        <time>2020-10-11T13:52:29Z</time>
      </trkpt>
      <trkpt lat="37.329631000" lon="-5.574021000">
        <ele>66.8</ele>
        <time>2020-10-11T13:52:31Z</time>
      </trkpt>
      <trkpt lat="37.329535000" lon="-5.573970000">
        <ele>66.9</ele>
        <time>2020-10-11T13:52:33Z</time>
      </trkpt>
      <trkpt lat="37.329441000" lon="-5.573910000">
        <ele>67.0</ele>
        <time>2020-10-11T13:52:35Z</time>
      </trkpt>
      <trkpt lat="37.329347000" lon="-5.573864000">
        <ele>67.1</ele>
        <time>2020-10-11T13:52:37Z</time>
      </trkpt>
      <trkpt lat="37.329265000" lon="-5.573815000">
        <ele>67.2</ele>
        <time>2020-10-11T13:52:39Z</time>
      </trkpt>
      <trkpt lat="37.329172000" lon="-5.573756000">
        <ele>67.4</ele>
        <time>2020-10-11T13:52:41Z</time>
      </trkpt>
      <trkpt lat="37.329078000" lon="-5.573696000">
        <ele>67.5</ele>
        <time>2020-10-11T13:52:43Z</time>
      </trkpt>
      <trkpt lat="37.328978000" lon="-5.573649000">
        <ele>67.5</ele>
        <time>2020-10-11T13:52:45Z</time>
      </trkpt>
      <trkpt lat="37.328878000" lon="-5.573598000">
        <ele>67.5</ele>
        <time>2020-10-11T13:52:47Z</time>
      </trkpt>
      <trkpt lat="37.328779000" lon="-5.573542000">
        <ele>67.5</ele>
        <time>2020-10-11T13:52:49Z</time>
      </trkpt>
      <trkpt lat="37.328680000" lon="-5.573486000">
        <ele>67.5</ele>
        <time>2020-10-11T13:52:51Z</time>
      </trkpt>
      <trkpt lat="37.328577000" lon="-5.573422000">
        <ele>67.5</ele>
        <time>2020-10-11T13:52:53Z</time>
      </trkpt>
      <trkpt lat="37.328479000" lon="-5.573361000">
        <ele>67.5</ele>
        <time>2020-10-11T13:52:55Z</time>
      </trkpt>
      <trkpt lat="37.328372000" lon="-5.573298000">
        <ele>67.5</ele>
        <time>2020-10-11T13:52:57Z</time>
      </trkpt>
      <trkpt lat="37.328266000" lon="-5.573238000">
        <ele>67.5</ele>
        <time>2020-10-11T13:52:59Z</time>
      </trkpt>
      <trkpt lat="37.328154000" lon="-5.573175000">
        <ele>67.3</ele>
        <time>2020-10-11T13:53:01Z</time>
      </trkpt>
      <trkpt lat="37.328043000" lon="-5.573115000">
        <ele>66.9</ele>
        <time>2020-10-11T13:53:03Z</time>
      </trkpt>
      <trkpt lat="37.327929000" lon="-5.573049000">
        <ele>66.5</ele>
        <time>2020-10-11T13:53:05Z</time>
      </trkpt>
      <trkpt lat="37.327812000" lon="-5.572985000">
        <ele>66.2</ele>
        <time>2020-10-11T13:53:07Z</time>
      </trkpt>
      <trkpt lat="37.327695000" lon="-5.572918000">
        <ele>65.8</ele>
        <time>2020-10-11T13:53:09Z</time>
      </trkpt>
      <trkpt lat="37.327577000" lon="-5.572850000">
        <ele>65.4</ele>
        <time>2020-10-11T13:53:11Z</time>
      </trkpt>
      <trkpt lat="37.327455000" lon="-5.572780000">
        <ele>64.9</ele>
        <time>2020-10-11T13:53:13Z</time>
      </trkpt>
      <trkpt lat="37.327340000" lon="-5.572711000">
        <ele>64.5</ele>
        <time>2020-10-11T13:53:15Z</time>
      </trkpt>
      <trkpt lat="37.327218000" lon="-5.572640000">
        <ele>64.2</ele>
        <time>2020-10-11T13:53:17Z</time>
      </trkpt>
      <trkpt lat="37.327099000" lon="-5.572574000">
        <ele>63.9</ele>
        <time>2020-10-11T13:53:19Z</time>
      </trkpt>
      <trkpt lat="37.326983000" lon="-5.572504000">
        <ele>63.7</ele>
        <time>2020-10-11T13:53:21Z</time>
      </trkpt>
      <trkpt lat="37.326862000" lon="-5.572431000">
        <ele>63.6</ele>
        <time>2020-10-11T13:53:23Z</time>
      </trkpt>
      <trkpt lat="37.326747000" lon="-5.572366000">
        <ele>63.6</ele>
        <time>2020-10-11T13:53:25Z</time>
      </trkpt>
      <trkpt lat="37.326630000" lon="-5.572296000">
        <ele>63.6</ele>
        <time>2020-10-11T13:53:27Z</time>
      </trkpt>
      <trkpt lat="37.326515000" lon="-5.572226000">
        <ele>63.7</ele>
        <time>2020-10-11T13:53:29Z</time>
      </trkpt>
      <trkpt lat="37.326402000" lon="-5.572160000">
        <ele>63.7</ele>
        <time>2020-10-11T13:53:31Z</time>
      </trkpt>
      <trkpt lat="37.326291000" lon="-5.572091000">
        <ele>63.8</ele>
        <time>2020-10-11T13:53:33Z</time>
      </trkpt>
      <trkpt lat="37.326184000" lon="-5.572029000">
        <ele>63.9</ele>
        <time>2020-10-11T13:53:35Z</time>
      </trkpt>
      <trkpt lat="37.326073000" lon="-5.571967000">
        <ele>63.9</ele>
        <time>2020-10-11T13:53:37Z</time>
      </trkpt>
      <trkpt lat="37.325967000" lon="-5.571909000">
        <ele>63.9</ele>
        <time>2020-10-11T13:53:39Z</time>
      </trkpt>
      <trkpt lat="37.325864000" lon="-5.571853000">
        <ele>63.9</ele>
        <time>2020-10-11T13:53:41Z</time>
      </trkpt>
      <trkpt lat="37.325761000" lon="-5.571794000">
        <ele>64.0</ele>
        <time>2020-10-11T13:53:43Z</time>
      </trkpt>
      <trkpt lat="37.325656000" lon="-5.571736000">
        <ele>64.1</ele>
        <time>2020-10-11T13:53:45Z</time>
      </trkpt>
      <trkpt lat="37.325557000" lon="-5.571674000">
        <ele>64.2</ele>
        <time>2020-10-11T13:53:47Z</time>
      </trkpt>
      <trkpt lat="37.325455000" lon="-5.571615000">
        <ele>64.3</ele>
        <time>2020-10-11T13:53:49Z</time>
      </trkpt>
      <trkpt lat="37.325353000" lon="-5.571554000">
        <ele>64.4</ele>
        <time>2020-10-11T13:53:51Z</time>
      </trkpt>
      <trkpt lat="37.325250000" lon="-5.571495000">
        <ele>64.5</ele>
        <time>2020-10-11T13:53:53Z</time>
      </trkpt>
      <trkpt lat="37.325144000" lon="-5.571432000">
        <ele>64.6</ele>
        <time>2020-10-11T13:53:55Z</time>
      </trkpt>
      <trkpt lat="37.325039000" lon="-5.571373000">
        <ele>64.8</ele>
        <time>2020-10-11T13:53:57Z</time>
      </trkpt>
      <trkpt lat="37.324935000" lon="-5.571317000">
        <ele>65.0</ele>
        <time>2020-10-11T13:53:59Z</time>
      </trkpt>
      <trkpt lat="37.324833000" lon="-5.571261000">
        <ele>65.2</ele>
        <time>2020-10-11T13:54:01Z</time>
      </trkpt>
      <trkpt lat="37.324738000" lon="-5.571203000">
        <ele>65.4</ele>
        <time>2020-10-11T13:54:03Z</time>
      </trkpt>
      <trkpt lat="37.324643000" lon="-5.571146000">
        <ele>65.5</ele>
        <time>2020-10-11T13:54:05Z</time>
      </trkpt>
      <trkpt lat="37.324548000" lon="-5.571092000">
        <ele>65.5</ele>
        <time>2020-10-11T13:54:07Z</time>
      </trkpt>
      <trkpt lat="37.324452000" lon="-5.571035000">
        <ele>65.6</ele>
        <time>2020-10-11T13:54:09Z</time>
      </trkpt>
      <trkpt lat="37.324357000" lon="-5.570979000">
        <ele>65.7</ele>
        <time>2020-10-11T13:54:11Z</time>
      </trkpt>
      <trkpt lat="37.324255000" lon="-5.570927000">
        <ele>65.8</ele>
        <time>2020-10-11T13:54:13Z</time>
      </trkpt>
      <trkpt lat="37.324158000" lon="-5.570864000">
        <ele>65.8</ele>
        <time>2020-10-11T13:54:15Z</time>
      </trkpt>
      <trkpt lat="37.324067000" lon="-5.570805000">
        <ele>65.8</ele>
        <time>2020-10-11T13:54:17Z</time>
      </trkpt>
      <trkpt lat="37.323975000" lon="-5.570756000">
        <ele>65.7</ele>
        <time>2020-10-11T13:54:19Z</time>
      </trkpt>
      <trkpt lat="37.323885000" lon="-5.570708000">
        <ele>65.6</ele>
        <time>2020-10-11T13:54:21Z</time>
      </trkpt>
      <trkpt lat="37.323797000" lon="-5.570659000">
        <ele>65.5</ele>
        <time>2020-10-11T13:54:23Z</time>
      </trkpt>
      <trkpt lat="37.323707000" lon="-5.570612000">
        <ele>65.5</ele>
        <time>2020-10-11T13:54:25Z</time>
      </trkpt>
      <trkpt lat="37.323611000" lon="-5.570555000">
        <ele>65.4</ele>
        <time>2020-10-11T13:54:27Z</time>
      </trkpt>
      <trkpt lat="37.323515000" lon="-5.570501000">
        <ele>65.3</ele>
        <time>2020-10-11T13:54:29Z</time>
      </trkpt>
      <trkpt lat="37.323424000" lon="-5.570444000">
        <ele>65.2</ele>
        <time>2020-10-11T13:54:31Z</time>
      </trkpt>
      <trkpt lat="37.323333000" lon="-5.570387000">
        <ele>65.2</ele>
        <time>2020-10-11T13:54:33Z</time>
      </trkpt>
      <trkpt lat="37.323242000" lon="-5.570335000">
        <ele>65.2</ele>
        <time>2020-10-11T13:54:35Z</time>
      </trkpt>
      <trkpt lat="37.323153000" lon="-5.570283000">
        <ele>65.3</ele>
        <time>2020-10-11T13:54:37Z</time>
      </trkpt>
      <trkpt lat="37.323062000" lon="-5.570234000">
        <ele>65.4</ele>
        <time>2020-10-11T13:54:39Z</time>
      </trkpt>
      <trkpt lat="37.322975000" lon="-5.570181000">
        <ele>65.5</ele>
        <time>2020-10-11T13:54:41Z</time>
      </trkpt>
      <trkpt lat="37.322888000" lon="-5.570132000">
        <ele>65.5</ele>
        <time>2020-10-11T13:54:43Z</time>
      </trkpt>
      <trkpt lat="37.322798000" lon="-5.570085000">
        <ele>65.6</ele>
        <time>2020-10-11T13:54:45Z</time>
      </trkpt>
      <trkpt lat="37.322709000" lon="-5.570035000">
        <ele>65.7</ele>
        <time>2020-10-11T13:54:47Z</time>
      </trkpt>
      <trkpt lat="37.322620000" lon="-5.569983000">
        <ele>65.8</ele>
        <time>2020-10-11T13:54:49Z</time>
      </trkpt>
      <trkpt lat="37.322533000" lon="-5.569937000">
        <ele>65.9</ele>
        <time>2020-10-11T13:54:51Z</time>
      </trkpt>
      <trkpt lat="37.322438000" lon="-5.569886000">
        <ele>66.0</ele>
        <time>2020-10-11T13:54:53Z</time>
      </trkpt>
      <trkpt lat="37.322351000" lon="-5.569835000">
        <ele>66.0</ele>
        <time>2020-10-11T13:54:55Z</time>
      </trkpt>
      <trkpt lat="37.322260000" lon="-5.569781000">
        <ele>66.0</ele>
        <time>2020-10-11T13:54:57Z</time>
      </trkpt>
      <trkpt lat="37.322169000" lon="-5.569728000">
        <ele>66.0</ele>
        <time>2020-10-11T13:54:59Z</time>
      </trkpt>
      <trkpt lat="37.322080000" lon="-5.569679000">
        <ele>66.0</ele>
        <time>2020-10-11T13:55:01Z</time>
      </trkpt>
      <trkpt lat="37.321989000" lon="-5.569623000">
        <ele>66.0</ele>
        <time>2020-10-11T13:55:03Z</time>
      </trkpt>
      <trkpt lat="37.321899000" lon="-5.569569000">
        <ele>66.0</ele>
        <time>2020-10-11T13:55:05Z</time>
      </trkpt>
      <trkpt lat="37.321814000" lon="-5.569518000">
        <ele>66.0</ele>
        <time>2020-10-11T13:55:07Z</time>
      </trkpt>
      <trkpt lat="37.321723000" lon="-5.569469000">
        <ele>66.0</ele>
        <time>2020-10-11T13:55:09Z</time>
      </trkpt>
      <trkpt lat="37.321634000" lon="-5.569418000">
        <ele>66.1</ele>
        <time>2020-10-11T13:55:11Z</time>
      </trkpt>
      <trkpt lat="37.321548000" lon="-5.569367000">
        <ele>66.2</ele>
        <time>2020-10-11T13:55:13Z</time>
      </trkpt>
      <trkpt lat="37.321459000" lon="-5.569320000">
        <ele>66.3</ele>
        <time>2020-10-11T13:55:15Z</time>
      </trkpt>
      <trkpt lat="37.321371000" lon="-5.569267000">
        <ele>66.4</ele>
        <time>2020-10-11T13:55:17Z</time>
      </trkpt>
      <trkpt lat="37.321285000" lon="-5.569220000">
        <ele>66.5</ele>
        <time>2020-10-11T13:55:19Z</time>
      </trkpt>
      <trkpt lat="37.321197000" lon="-5.569174000">
        <ele>66.7</ele>
        <time>2020-10-11T13:55:21Z</time>
      </trkpt>
      <trkpt lat="37.321108000" lon="-5.569129000">
        <ele>66.9</ele>
        <time>2020-10-11T13:55:23Z</time>
      </trkpt>
      <trkpt lat="37.321020000" lon="-5.569076000">
        <ele>67.1</ele>
        <time>2020-10-11T13:55:25Z</time>
      </trkpt>
      <trkpt lat="37.320931000" lon="-5.569021000">
        <ele>67.3</ele>
        <time>2020-10-11T13:55:27Z</time>
      </trkpt>
      <trkpt lat="37.320845000" lon="-5.568970000">
        <ele>67.4</ele>
        <time>2020-10-11T13:55:29Z</time>
      </trkpt>
      <trkpt lat="37.320755000" lon="-5.568914000">
        <ele>67.4</ele>
        <time>2020-10-11T13:55:31Z</time>
      </trkpt>
      <trkpt lat="37.320663000" lon="-5.568861000">
        <ele>67.3</ele>
        <time>2020-10-11T13:55:33Z</time>
      </trkpt>
      <trkpt lat="37.320576000" lon="-5.568805000">
        <ele>67.2</ele>
        <time>2020-10-11T13:55:35Z</time>
      </trkpt>
      <trkpt lat="37.320483000" lon="-5.568750000">
        <ele>67.1</ele>
        <time>2020-10-11T13:55:37Z</time>
      </trkpt>
      <trkpt lat="37.320384000" lon="-5.568694000">
        <ele>67.0</ele>
        <time>2020-10-11T13:55:39Z</time>
      </trkpt>
      <trkpt lat="37.320287000" lon="-5.568637000">
        <ele>66.8</ele>
        <time>2020-10-11T13:55:41Z</time>
      </trkpt>
      <trkpt lat="37.320191000" lon="-5.568587000">
        <ele>66.6</ele>
        <time>2020-10-11T13:55:43Z</time>
      </trkpt>
      <trkpt lat="37.320091000" lon="-5.568529000">
        <ele>66.5</ele>
        <time>2020-10-11T13:55:45Z</time>
      </trkpt>
      <trkpt lat="37.319995000" lon="-5.568468000">
        <ele>66.3</ele>
        <time>2020-10-11T13:55:47Z</time>
      </trkpt>
      <trkpt lat="37.319894000" lon="-5.568413000">
        <ele>66.1</ele>
        <time>2020-10-11T13:55:49Z</time>
      </trkpt>
      <trkpt lat="37.319794000" lon="-5.568356000">
        <ele>65.9</ele>
        <time>2020-10-11T13:55:51Z</time>
      </trkpt>
      <trkpt lat="37.319689000" lon="-5.568301000">
        <ele>65.8</ele>
        <time>2020-10-11T13:55:53Z</time>
      </trkpt>
      <trkpt lat="37.319590000" lon="-5.568246000">
        <ele>65.7</ele>
        <time>2020-10-11T13:55:55Z</time>
      </trkpt>
      <trkpt lat="37.319493000" lon="-5.568190000">
        <ele>65.6</ele>
        <time>2020-10-11T13:55:57Z</time>
      </trkpt>
      <trkpt lat="37.319401000" lon="-5.568131000">
        <ele>65.6</ele>
        <time>2020-10-11T13:55:59Z</time>
      </trkpt>
      <trkpt lat="37.319311000" lon="-5.568081000">
        <ele>65.7</ele>
        <time>2020-10-11T13:56:01Z</time>
      </trkpt>
      <trkpt lat="37.319220000" lon="-5.568033000">
        <ele>65.8</ele>
        <time>2020-10-11T13:56:03Z</time>
      </trkpt>
      <trkpt lat="37.319135000" lon="-5.567977000">
        <ele>66.0</ele>
        <time>2020-10-11T13:56:05Z</time>
      </trkpt>
      <trkpt lat="37.319052000" lon="-5.567929000">
        <ele>66.2</ele>
        <time>2020-10-11T13:56:07Z</time>
      </trkpt>
      <trkpt lat="37.318968000" lon="-5.567884000">
        <ele>66.4</ele>
        <time>2020-10-11T13:56:09Z</time>
      </trkpt>
      <trkpt lat="37.318882000" lon="-5.567835000">
        <ele>66.5</ele>
        <time>2020-10-11T13:56:11Z</time>
      </trkpt>
      <trkpt lat="37.318795000" lon="-5.567787000">
        <ele>66.8</ele>
        <time>2020-10-11T13:56:13Z</time>
      </trkpt>
      <trkpt lat="37.318710000" lon="-5.567738000">
        <ele>67.1</ele>
        <time>2020-10-11T13:56:15Z</time>
      </trkpt>
      <trkpt lat="37.318627000" lon="-5.567693000">
        <ele>67.3</ele>
        <time>2020-10-11T13:56:17Z</time>
      </trkpt>
      <trkpt lat="37.318539000" lon="-5.567657000">
        <ele>67.5</ele>
        <time>2020-10-11T13:56:19Z</time>
      </trkpt>
      <trkpt lat="37.318457000" lon="-5.567621000">
        <ele>67.5</ele>
        <time>2020-10-11T13:56:21Z</time>
      </trkpt>
      <trkpt lat="37.318369000" lon="-5.567587000">
        <ele>67.5</ele>
        <time>2020-10-11T13:56:23Z</time>
      </trkpt>
      <trkpt lat="37.318283000" lon="-5.567557000">
        <ele>67.5</ele>
        <time>2020-10-11T13:56:25Z</time>
      </trkpt>
      <trkpt lat="37.318193000" lon="-5.567530000">
        <ele>67.4</ele>
        <time>2020-10-11T13:56:27Z</time>
      </trkpt>
      <trkpt lat="37.318101000" lon="-5.567496000">
        <ele>67.2</ele>
        <time>2020-10-11T13:56:29Z</time>
      </trkpt>
      <trkpt lat="37.318010000" lon="-5.567458000">
        <ele>67.0</ele>
        <time>2020-10-11T13:56:31Z</time>
      </trkpt>
      <trkpt lat="37.317920000" lon="-5.567424000">
        <ele>66.8</ele>
        <time>2020-10-11T13:56:33Z</time>
      </trkpt>
      <trkpt lat="37.317832000" lon="-5.567389000">
        <ele>66.5</ele>
        <time>2020-10-11T13:56:35Z</time>
      </trkpt>
      <trkpt lat="37.317745000" lon="-5.567364000">
        <ele>66.3</ele>
        <time>2020-10-11T13:56:37Z</time>
      </trkpt>
      <trkpt lat="37.317656000" lon="-5.567332000">
        <ele>66.0</ele>
        <time>2020-10-11T13:56:39Z</time>
      </trkpt>
      <trkpt lat="37.317570000" lon="-5.567300000">
        <ele>65.7</ele>
        <time>2020-10-11T13:56:41Z</time>
      </trkpt>
      <trkpt lat="37.317478000" lon="-5.567269000">
        <ele>65.5</ele>
        <time>2020-10-11T13:56:43Z</time>
      </trkpt>
      <trkpt lat="37.317387000" lon="-5.567238000">
        <ele>65.2</ele>
        <time>2020-10-11T13:56:45Z</time>
      </trkpt>
      <trkpt lat="37.317290000" lon="-5.567202000">
        <ele>64.9</ele>
        <time>2020-10-11T13:56:47Z</time>
      </trkpt>
      <trkpt lat="37.317200000" lon="-5.567169000">
        <ele>64.7</ele>
        <time>2020-10-11T13:56:49Z</time>
      </trkpt>
      <trkpt lat="37.317114000" lon="-5.567136000">
        <ele>64.6</ele>
        <time>2020-10-11T13:56:51Z</time>
      </trkpt>
      <trkpt lat="37.317031000" lon="-5.567106000">
        <ele>64.5</ele>
        <time>2020-10-11T13:56:53Z</time>
      </trkpt>
      <trkpt lat="37.316943000" lon="-5.567079000">
        <ele>64.5</ele>
        <time>2020-10-11T13:56:55Z</time>
      </trkpt>
      <trkpt lat="37.316848000" lon="-5.567054000">
        <ele>64.5</ele>
        <time>2020-10-11T13:56:57Z</time>
      </trkpt>
      <trkpt lat="37.316744000" lon="-5.567038000">
        <ele>64.5</ele>
        <time>2020-10-11T13:56:59Z</time>
      </trkpt>
      <trkpt lat="37.316643000" lon="-5.567014000">
        <ele>64.5</ele>
        <time>2020-10-11T13:57:01Z</time>
      </trkpt>
      <trkpt lat="37.316541000" lon="-5.566995000">
        <ele>64.6</ele>
        <time>2020-10-11T13:57:03Z</time>
      </trkpt>
      <trkpt lat="37.316437000" lon="-5.566989000">
        <ele>64.8</ele>
        <time>2020-10-11T13:57:05Z</time>
      </trkpt>
      <trkpt lat="37.316332000" lon="-5.566988000">
        <ele>65.0</ele>
        <time>2020-10-11T13:57:07Z</time>
      </trkpt>
      <trkpt lat="37.316230000" lon="-5.566989000">
        <ele>65.2</ele>
        <time>2020-10-11T13:57:09Z</time>
      </trkpt>
      <trkpt lat="37.316130000" lon="-5.567001000">
        <ele>65.4</ele>
        <time>2020-10-11T13:57:11Z</time>
      </trkpt>
      <trkpt lat="37.316037000" lon="-5.567013000">
        <ele>65.5</ele>
        <time>2020-10-11T13:57:13Z</time>
      </trkpt>
      <trkpt lat="37.315946000" lon="-5.567028000">
        <ele>65.5</ele>
        <time>2020-10-11T13:57:15Z</time>
      </trkpt>
      <trkpt lat="37.315848000" lon="-5.567038000">
        <ele>65.5</ele>
        <time>2020-10-11T13:57:17Z</time>
      </trkpt>
      <trkpt lat="37.315745000" lon="-5.567053000">
        <ele>65.5</ele>
        <time>2020-10-11T13:57:19Z</time>
      </trkpt>
      <trkpt lat="37.315642000" lon="-5.567067000">
        <ele>65.5</ele>
        <time>2020-10-11T13:57:21Z</time>
      </trkpt>
      <trkpt lat="37.315534000" lon="-5.567078000">
        <ele>65.5</ele>
        <time>2020-10-11T13:57:23Z</time>
      </trkpt>
      <trkpt lat="37.315425000" lon="-5.567087000">
        <ele>65.5</ele>
        <time>2020-10-11T13:57:25Z</time>
      </trkpt>
      <trkpt lat="37.315318000" lon="-5.567082000">
        <ele>65.5</ele>
        <time>2020-10-11T13:57:27Z</time>
      </trkpt>
      <trkpt lat="37.315217000" lon="-5.567068000">
        <ele>65.5</ele>
        <time>2020-10-11T13:57:29Z</time>
      </trkpt>
      <trkpt lat="37.315113000" lon="-5.567052000">
        <ele>65.5</ele>
        <time>2020-10-11T13:57:31Z</time>
      </trkpt>
      <trkpt lat="37.315017000" lon="-5.567036000">
        <ele>65.6</ele>
        <time>2020-10-11T13:57:33Z</time>
      </trkpt>
      <trkpt lat="37.314918000" lon="-5.567003000">
        <ele>65.7</ele>
        <time>2020-10-11T13:57:35Z</time>
      </trkpt>
      <trkpt lat="37.314823000" lon="-5.566978000">
        <ele>65.8</ele>
        <time>2020-10-11T13:57:37Z</time>
      </trkpt>
      <trkpt lat="37.314726000" lon="-5.566935000">
        <ele>66.0</ele>
        <time>2020-10-11T13:57:39Z</time>
      </trkpt>
      <trkpt lat="37.314631000" lon="-5.566897000">
        <ele>66.2</ele>
        <time>2020-10-11T13:57:41Z</time>
      </trkpt>
      <trkpt lat="37.314539000" lon="-5.566864000">
        <ele>66.4</ele>
        <time>2020-10-11T13:57:43Z</time>
      </trkpt>
      <trkpt lat="37.314443000" lon="-5.566824000">
        <ele>66.5</ele>
        <time>2020-10-11T13:57:45Z</time>
      </trkpt>
      <trkpt lat="37.314352000" lon="-5.566785000">
        <ele>66.5</ele>
        <time>2020-10-11T13:57:47Z</time>
      </trkpt>
      <trkpt lat="37.314257000" lon="-5.566744000">
        <ele>66.5</ele>
        <time>2020-10-11T13:57:49Z</time>
      </trkpt>
      <trkpt lat="37.314164000" lon="-5.566708000">
        <ele>66.5</ele>
        <time>2020-10-11T13:57:51Z</time>
      </trkpt>
      <trkpt lat="37.314070000" lon="-5.566672000">
        <ele>66.4</ele>
        <time>2020-10-11T13:57:53Z</time>
      </trkpt>
      <trkpt lat="37.313981000" lon="-5.566632000">
        <ele>66.2</ele>
        <time>2020-10-11T13:57:55Z</time>
      </trkpt>
      <trkpt lat="37.313892000" lon="-5.566600000">
        <ele>66.1</ele>
        <time>2020-10-11T13:57:57Z</time>
      </trkpt>
      <trkpt lat="37.313805000" lon="-5.566563000">
        <ele>66.0</ele>
        <time>2020-10-11T13:57:59Z</time>
      </trkpt>
      <trkpt lat="37.313725000" lon="-5.566533000">
        <ele>66.0</ele>
        <time>2020-10-11T13:58:01Z</time>
      </trkpt>
      <trkpt lat="37.313618000" lon="-5.566485000">
        <ele>66.0</ele>
        <time>2020-10-11T13:58:04Z</time>
      </trkpt>
      <trkpt lat="37.313519000" lon="-5.566451000">
        <ele>66.1</ele>
        <time>2020-10-11T13:58:07Z</time>
      </trkpt>
      <trkpt lat="37.313438000" lon="-5.566414000">
        <ele>66.3</ele>
        <time>2020-10-11T13:58:10Z</time>
      </trkpt>
      <trkpt lat="37.313345000" lon="-5.566403000">
        <ele>66.5</ele>
        <time>2020-10-11T13:58:13Z</time>
      </trkpt>
      <trkpt lat="37.313254000" lon="-5.566358000">
        <ele>66.5</ele>
        <time>2020-10-11T14:00:21Z</time>
      </trkpt>
      <trkpt lat="37.313161000" lon="-5.566320000">
        <ele>66.7</ele>
        <time>2020-10-11T14:00:24Z</time>
      </trkpt>
      <trkpt lat="37.313055000" lon="-5.566276000">
        <ele>66.8</ele>
        <time>2020-10-11T14:00:27Z</time>
      </trkpt>
      <trkpt lat="37.312944000" lon="-5.566232000">
        <ele>66.9</ele>
        <time>2020-10-11T14:00:30Z</time>
      </trkpt>
      <trkpt lat="37.312862000" lon="-5.566201000">
        <ele>66.9</ele>
        <time>2020-10-11T14:00:32Z</time>
      </trkpt>
      <trkpt lat="37.312781000" lon="-5.566166000">
        <ele>67.0</ele>
        <time>2020-10-11T14:00:34Z</time>
      </trkpt>
      <trkpt lat="37.312701000" lon="-5.566134000">
        <ele>67.0</ele>
        <time>2020-10-11T14:00:36Z</time>
      </trkpt>
      <trkpt lat="37.312620000" lon="-5.566100000">
        <ele>67.0</ele>
        <time>2020-10-11T14:00:38Z</time>
      </trkpt>
      <trkpt lat="37.312541000" lon="-5.566067000">
        <ele>67.0</ele>
        <time>2020-10-11T14:00:40Z</time>
      </trkpt>
      <trkpt lat="37.312462000" lon="-5.566035000">
        <ele>67.0</ele>
        <time>2020-10-11T14:00:42Z</time>
      </trkpt>
      <trkpt lat="37.312382000" lon="-5.566008000">
        <ele>67.1</ele>
        <time>2020-10-11T14:00:44Z</time>
      </trkpt>
      <trkpt lat="37.312301000" lon="-5.565976000">
        <ele>67.3</ele>
        <time>2020-10-11T14:00:46Z</time>
      </trkpt>
      <trkpt lat="37.312218000" lon="-5.565951000">
        <ele>67.5</ele>
        <time>2020-10-11T14:00:48Z</time>
      </trkpt>
      <trkpt lat="37.312138000" lon="-5.565922000">
        <ele>67.7</ele>
        <time>2020-10-11T14:00:50Z</time>
      </trkpt>
      <trkpt lat="37.312060000" lon="-5.565890000">
        <ele>68.0</ele>
        <time>2020-10-11T14:00:52Z</time>
      </trkpt>
      <trkpt lat="37.311952000" lon="-5.565846000">
        <ele>68.4</ele>
        <time>2020-10-11T14:00:55Z</time>
      </trkpt>
      <trkpt lat="37.311848000" lon="-5.565806000">
        <ele>68.7</ele>
        <time>2020-10-11T14:00:58Z</time>
      </trkpt>
      <trkpt lat="37.311743000" lon="-5.565772000">
        <ele>69.2</ele>
        <time>2020-10-11T14:01:01Z</time>
      </trkpt>
      <trkpt lat="37.311640000" lon="-5.565737000">
        <ele>69.8</ele>
        <time>2020-10-11T14:01:04Z</time>
      </trkpt>
      <trkpt lat="37.311541000" lon="-5.565705000">
        <ele>70.5</ele>
        <time>2020-10-11T14:01:07Z</time>
      </trkpt>
      <trkpt lat="37.311439000" lon="-5.565672000">
        <ele>71.1</ele>
        <time>2020-10-11T14:01:10Z</time>
      </trkpt>
      <trkpt lat="37.311337000" lon="-5.565636000">
        <ele>71.7</ele>
        <time>2020-10-11T14:01:13Z</time>
      </trkpt>
      <trkpt lat="37.311237000" lon="-5.565603000">
        <ele>72.4</ele>
        <time>2020-10-11T14:01:16Z</time>
      </trkpt>
      <trkpt lat="37.311138000" lon="-5.565566000">
        <ele>73.0</ele>
        <time>2020-10-11T14:01:19Z</time>
      </trkpt>
      <trkpt lat="37.311046000" lon="-5.565533000">
        <ele>73.6</ele>
        <time>2020-10-11T14:01:22Z</time>
      </trkpt>
      <trkpt lat="37.310967000" lon="-5.565502000">
        <ele>74.3</ele>
        <time>2020-10-11T14:01:25Z</time>
      </trkpt>
      <trkpt lat="37.310888000" lon="-5.565479000">
        <ele>74.7</ele>
        <time>2020-10-11T14:01:28Z</time>
      </trkpt>
      <trkpt lat="37.310802000" lon="-5.565446000">
        <ele>75.1</ele>
        <time>2020-10-11T14:01:31Z</time>
      </trkpt>
      <trkpt lat="37.310714000" lon="-5.565414000">
        <ele>75.4</ele>
        <time>2020-10-11T14:01:34Z</time>
      </trkpt>
      <trkpt lat="37.310618000" lon="-5.565377000">
        <ele>75.4</ele>
        <time>2020-10-11T14:01:37Z</time>
      </trkpt>
      <trkpt lat="37.310507000" lon="-5.565335000">
        <ele>75.2</ele>
        <time>2020-10-11T14:01:40Z</time>
      </trkpt>
      <trkpt lat="37.310417000" lon="-5.565314000">
        <ele>75.0</ele>
        <time>2020-10-11T14:01:42Z</time>
      </trkpt>
      <trkpt lat="37.310322000" lon="-5.565282000">
        <ele>74.6</ele>
        <time>2020-10-11T14:01:44Z</time>
      </trkpt>
      <trkpt lat="37.310223000" lon="-5.565245000">
        <ele>74.3</ele>
        <time>2020-10-11T14:01:46Z</time>
      </trkpt>
      <trkpt lat="37.310114000" lon="-5.565208000">
        <ele>73.9</ele>
        <time>2020-10-11T14:01:48Z</time>
      </trkpt>
      <trkpt lat="37.309997000" lon="-5.565163000">
        <ele>73.5</ele>
        <time>2020-10-11T14:01:50Z</time>
      </trkpt>
      <trkpt lat="37.309874000" lon="-5.565124000">
        <ele>73.0</ele>
        <time>2020-10-11T14:01:52Z</time>
      </trkpt>
      <trkpt lat="37.309744000" lon="-5.565094000">
        <ele>72.6</ele>
        <time>2020-10-11T14:01:54Z</time>
      </trkpt>
      <trkpt lat="37.309607000" lon="-5.565083000">
        <ele>72.3</ele>
        <time>2020-10-11T14:01:56Z</time>
      </trkpt>
      <trkpt lat="37.309465000" lon="-5.565111000">
        <ele>71.9</ele>
        <time>2020-10-11T14:01:58Z</time>
      </trkpt>
      <trkpt lat="37.309333000" lon="-5.565151000">
        <ele>71.6</ele>
        <time>2020-10-11T14:02:00Z</time>
      </trkpt>
      <trkpt lat="37.309211000" lon="-5.565194000">
        <ele>71.5</ele>
        <time>2020-10-11T14:02:02Z</time>
      </trkpt>
      <trkpt lat="37.309088000" lon="-5.565234000">
        <ele>71.3</ele>
        <time>2020-10-11T14:02:04Z</time>
      </trkpt>
      <trkpt lat="37.308965000" lon="-5.565276000">
        <ele>71.2</ele>
        <time>2020-10-11T14:02:06Z</time>
      </trkpt>
      <trkpt lat="37.308846000" lon="-5.565320000">
        <ele>71.1</ele>
        <time>2020-10-11T14:02:08Z</time>
      </trkpt>
      <trkpt lat="37.308726000" lon="-5.565353000">
        <ele>71.1</ele>
        <time>2020-10-11T14:02:10Z</time>
      </trkpt>
      <trkpt lat="37.308608000" lon="-5.565393000">
        <ele>71.2</ele>
        <time>2020-10-11T14:02:12Z</time>
      </trkpt>
      <trkpt lat="37.308492000" lon="-5.565440000">
        <ele>71.4</ele>
        <time>2020-10-11T14:02:14Z</time>
      </trkpt>
      <trkpt lat="37.308376000" lon="-5.565481000">
        <ele>71.5</ele>
        <time>2020-10-11T14:02:16Z</time>
      </trkpt>
      <trkpt lat="37.308261000" lon="-5.565519000">
        <ele>71.7</ele>
        <time>2020-10-11T14:02:18Z</time>
      </trkpt>
      <trkpt lat="37.308145000" lon="-5.565550000">
        <ele>71.9</ele>
        <time>2020-10-11T14:02:20Z</time>
      </trkpt>
      <trkpt lat="37.308030000" lon="-5.565585000">
        <ele>72.1</ele>
        <time>2020-10-11T14:02:22Z</time>
      </trkpt>
      <trkpt lat="37.307913000" lon="-5.565624000">
        <ele>72.4</ele>
        <time>2020-10-11T14:02:24Z</time>
      </trkpt>
      <trkpt lat="37.307804000" lon="-5.565667000">
        <ele>72.6</ele>
        <time>2020-10-11T14:02:26Z</time>
      </trkpt>
      <trkpt lat="37.307693000" lon="-5.565701000">
        <ele>72.9</ele>
        <time>2020-10-11T14:02:28Z</time>
      </trkpt>
      <trkpt lat="37.307583000" lon="-5.565732000">
        <ele>73.1</ele>
        <time>2020-10-11T14:02:30Z</time>
      </trkpt>
      <trkpt lat="37.307474000" lon="-5.565767000">
        <ele>73.2</ele>
        <time>2020-10-11T14:02:32Z</time>
      </trkpt>
      <trkpt lat="37.307370000" lon="-5.565796000">
        <ele>73.3</ele>
        <time>2020-10-11T14:02:34Z</time>
      </trkpt>
      <trkpt lat="37.307269000" lon="-5.565833000">
        <ele>73.3</ele>
        <time>2020-10-11T14:02:36Z</time>
      </trkpt>
      <trkpt lat="37.307161000" lon="-5.565869000">
        <ele>73.3</ele>
        <time>2020-10-11T14:02:38Z</time>
      </trkpt>
      <trkpt lat="37.307058000" lon="-5.565902000">
        <ele>73.3</ele>
        <time>2020-10-11T14:02:40Z</time>
      </trkpt>
      <trkpt lat="37.306965000" lon="-5.565938000">
        <ele>73.4</ele>
        <time>2020-10-11T14:02:42Z</time>
      </trkpt>
      <trkpt lat="37.306866000" lon="-5.565972000">
        <ele>73.5</ele>
        <time>2020-10-11T14:02:44Z</time>
      </trkpt>
      <trkpt lat="37.306770000" lon="-5.565995000">
        <ele>73.7</ele>
        <time>2020-10-11T14:02:46Z</time>
      </trkpt>
      <trkpt lat="37.306675000" lon="-5.566029000">
        <ele>74.0</ele>
        <time>2020-10-11T14:02:48Z</time>
      </trkpt>
      <trkpt lat="37.306578000" lon="-5.566066000">
        <ele>74.4</ele>
        <time>2020-10-11T14:02:50Z</time>
      </trkpt>
      <trkpt lat="37.306483000" lon="-5.566102000">
        <ele>74.9</ele>
        <time>2020-10-11T14:02:52Z</time>
      </trkpt>
      <trkpt lat="37.306391000" lon="-5.566137000">
        <ele>75.5</ele>
        <time>2020-10-11T14:02:54Z</time>
      </trkpt>
      <trkpt lat="37.306294000" lon="-5.566165000">
        <ele>76.1</ele>
        <time>2020-10-11T14:02:56Z</time>
      </trkpt>
      <trkpt lat="37.306200000" lon="-5.566190000">
        <ele>76.7</ele>
        <time>2020-10-11T14:02:58Z</time>
      </trkpt>
      <trkpt lat="37.306108000" lon="-5.566218000">
        <ele>77.4</ele>
        <time>2020-10-11T14:03:00Z</time>
      </trkpt>
      <trkpt lat="37.306025000" lon="-5.566249000">
        <ele>78.0</ele>
        <time>2020-10-11T14:03:02Z</time>
      </trkpt>
      <trkpt lat="37.305939000" lon="-5.566277000">
        <ele>78.5</ele>
        <time>2020-10-11T14:03:04Z</time>
      </trkpt>
      <trkpt lat="37.305824000" lon="-5.566316000">
        <ele>79.0</ele>
        <time>2020-10-11T14:03:07Z</time>
      </trkpt>
      <trkpt lat="37.305703000" lon="-5.566351000">
        <ele>79.4</ele>
        <time>2020-10-11T14:03:10Z</time>
      </trkpt>
      <trkpt lat="37.305618000" lon="-5.566370000">
        <ele>79.6</ele>
        <time>2020-10-11T14:03:12Z</time>
      </trkpt>
      <trkpt lat="37.305501000" lon="-5.566380000">
        <ele>79.8</ele>
        <time>2020-10-11T14:03:15Z</time>
      </trkpt>
      <trkpt lat="37.305386000" lon="-5.566384000">
        <ele>79.9</ele>
        <time>2020-10-11T14:03:18Z</time>
      </trkpt>
      <trkpt lat="37.305273000" lon="-5.566371000">
        <ele>80.0</ele>
        <time>2020-10-11T14:03:21Z</time>
      </trkpt>
      <trkpt lat="37.305164000" lon="-5.566346000">
        <ele>80.1</ele>
        <time>2020-10-11T14:03:24Z</time>
      </trkpt>
      <trkpt lat="37.305060000" lon="-5.566324000">
        <ele>80.2</ele>
        <time>2020-10-11T14:03:27Z</time>
      </trkpt>
      <trkpt lat="37.304958000" lon="-5.566308000">
        <ele>80.4</ele>
        <time>2020-10-11T14:03:30Z</time>
      </trkpt>
      <trkpt lat="37.304862000" lon="-5.566282000">
        <ele>80.5</ele>
        <time>2020-10-11T14:03:33Z</time>
      </trkpt>
      <trkpt lat="37.304769000" lon="-5.566262000">
        <ele>80.7</ele>
        <time>2020-10-11T14:03:36Z</time>
      </trkpt>
      <trkpt lat="37.304674000" lon="-5.566232000">
        <ele>81.0</ele>
        <time>2020-10-11T14:03:39Z</time>
      </trkpt>
      <trkpt lat="37.304575000" lon="-5.566201000">
        <ele>81.3</ele>
        <time>2020-10-11T14:03:42Z</time>
      </trkpt>
      <trkpt lat="37.304484000" lon="-5.566145000">
        <ele>81.5</ele>
        <time>2020-10-11T14:03:45Z</time>
      </trkpt>
      <trkpt lat="37.304399000" lon="-5.566077000">
        <ele>81.8</ele>
        <time>2020-10-11T14:03:48Z</time>
      </trkpt>
      <trkpt lat="37.304328000" lon="-5.565989000">
        <ele>82.1</ele>
        <time>2020-10-11T14:03:51Z</time>
      </trkpt>
      <trkpt lat="37.304271000" lon="-5.565886000">
        <ele>82.4</ele>
        <time>2020-10-11T14:03:54Z</time>
      </trkpt>
      <trkpt lat="37.304223000" lon="-5.565781000">
        <ele>82.6</ele>
        <time>2020-10-11T14:03:57Z</time>
      </trkpt>
      <trkpt lat="37.304188000" lon="-5.565679000">
        <ele>82.9</ele>
        <time>2020-10-11T14:04:00Z</time>
      </trkpt>
      <trkpt lat="37.304155000" lon="-5.565577000">
        <ele>83.2</ele>
        <time>2020-10-11T14:04:03Z</time>
      </trkpt>
      <trkpt lat="37.304123000" lon="-5.565476000">
        <ele>83.5</ele>
        <time>2020-10-11T14:04:06Z</time>
      </trkpt>
      <trkpt lat="37.304094000" lon="-5.565365000">
        <ele>83.8</ele>
        <time>2020-10-11T14:04:09Z</time>
      </trkpt>
      <trkpt lat="37.304065000" lon="-5.565247000">
        <ele>84.2</ele>
        <time>2020-10-11T14:04:12Z</time>
      </trkpt>
      <trkpt lat="37.304037000" lon="-5.565135000">
        <ele>84.6</ele>
        <time>2020-10-11T14:04:15Z</time>
      </trkpt>
      <trkpt lat="37.304017000" lon="-5.565021000">
        <ele>85.1</ele>
        <time>2020-10-11T14:04:18Z</time>
      </trkpt>
      <trkpt lat="37.304003000" lon="-5.564908000">
        <ele>85.5</ele>
        <time>2020-10-11T14:04:21Z</time>
      </trkpt>
      <trkpt lat="37.303998000" lon="-5.564795000">
        <ele>86.0</ele>
        <time>2020-10-11T14:04:24Z</time>
      </trkpt>
      <trkpt lat="37.303996000" lon="-5.564679000">
        <ele>86.5</ele>
        <time>2020-10-11T14:04:27Z</time>
      </trkpt>
      <trkpt lat="37.304005000" lon="-5.564559000">
        <ele>86.8</ele>
        <time>2020-10-11T14:04:30Z</time>
      </trkpt>
      <trkpt lat="37.304020000" lon="-5.564440000">
        <ele>87.2</ele>
        <time>2020-10-11T14:04:33Z</time>
      </trkpt>
      <trkpt lat="37.304041000" lon="-5.564323000">
        <ele>87.4</ele>
        <time>2020-10-11T14:04:36Z</time>
      </trkpt>
      <trkpt lat="37.304057000" lon="-5.564206000">
        <ele>87.5</ele>
        <time>2020-10-11T14:04:39Z</time>
      </trkpt>
      <trkpt lat="37.304074000" lon="-5.564087000">
        <ele>87.5</ele>
        <time>2020-10-11T14:04:42Z</time>
      </trkpt>
      <trkpt lat="37.304084000" lon="-5.563974000">
        <ele>87.5</ele>
        <time>2020-10-11T14:04:45Z</time>
      </trkpt>
      <trkpt lat="37.304089000" lon="-5.563860000">
        <ele>87.2</ele>
        <time>2020-10-11T14:04:48Z</time>
      </trkpt>
      <trkpt lat="37.304070000" lon="-5.563748000">
        <ele>86.9</ele>
        <time>2020-10-11T14:04:51Z</time>
      </trkpt>
      <trkpt lat="37.304010000" lon="-5.563642000">
        <ele>86.6</ele>
        <time>2020-10-11T14:04:54Z</time>
      </trkpt>
      <trkpt lat="37.303946000" lon="-5.563575000">
        <ele>86.3</ele>
        <time>2020-10-11T14:04:56Z</time>
      </trkpt>
      <trkpt lat="37.303866000" lon="-5.563500000">
        <ele>85.9</ele>
        <time>2020-10-11T14:04:58Z</time>
      </trkpt>
      <trkpt lat="37.303773000" lon="-5.563425000">
        <ele>85.5</ele>
        <time>2020-10-11T14:05:00Z</time>
      </trkpt>
      <trkpt lat="37.303666000" lon="-5.563347000">
        <ele>84.9</ele>
        <time>2020-10-11T14:05:02Z</time>
      </trkpt>
      <trkpt lat="37.303557000" lon="-5.563266000">
        <ele>84.5</ele>
        <time>2020-10-11T14:05:04Z</time>
      </trkpt>
      <trkpt lat="37.303442000" lon="-5.563172000">
        <ele>83.9</ele>
        <time>2020-10-11T14:05:06Z</time>
      </trkpt>
      <trkpt lat="37.303321000" lon="-5.563081000">
        <ele>83.5</ele>
        <time>2020-10-11T14:05:08Z</time>
      </trkpt>
      <trkpt lat="37.303198000" lon="-5.562994000">
        <ele>82.9</ele>
        <time>2020-10-11T14:05:10Z</time>
      </trkpt>
      <trkpt lat="37.303075000" lon="-5.562898000">
        <ele>82.5</ele>
        <time>2020-10-11T14:05:12Z</time>
      </trkpt>
      <trkpt lat="37.302948000" lon="-5.562804000">
        <ele>81.9</ele>
        <time>2020-10-11T14:05:14Z</time>
      </trkpt>
      <trkpt lat="37.302815000" lon="-5.562704000">
        <ele>81.4</ele>
        <time>2020-10-11T14:05:16Z</time>
      </trkpt>
      <trkpt lat="37.302683000" lon="-5.562600000">
        <ele>80.9</ele>
        <time>2020-10-11T14:05:18Z</time>
      </trkpt>
      <trkpt lat="37.302549000" lon="-5.562503000">
        <ele>80.5</ele>
        <time>2020-10-11T14:05:20Z</time>
      </trkpt>
      <trkpt lat="37.302416000" lon="-5.562401000">
        <ele>80.1</ele>
        <time>2020-10-11T14:05:22Z</time>
      </trkpt>
      <trkpt lat="37.302279000" lon="-5.562301000">
        <ele>79.8</ele>
        <time>2020-10-11T14:05:24Z</time>
      </trkpt>
      <trkpt lat="37.302150000" lon="-5.562204000">
        <ele>79.5</ele>
        <time>2020-10-11T14:05:26Z</time>
      </trkpt>
      <trkpt lat="37.302015000" lon="-5.562104000">
        <ele>79.4</ele>
        <time>2020-10-11T14:05:28Z</time>
      </trkpt>
      <trkpt lat="37.301885000" lon="-5.562006000">
        <ele>79.2</ele>
        <time>2020-10-11T14:05:30Z</time>
      </trkpt>
      <trkpt lat="37.301753000" lon="-5.561908000">
        <ele>79.1</ele>
        <time>2020-10-11T14:05:32Z</time>
      </trkpt>
      <trkpt lat="37.301624000" lon="-5.561810000">
        <ele>79.0</ele>
        <time>2020-10-11T14:05:34Z</time>
      </trkpt>
      <trkpt lat="37.301495000" lon="-5.561716000">
        <ele>78.9</ele>
        <time>2020-10-11T14:05:36Z</time>
      </trkpt>
      <trkpt lat="37.301359000" lon="-5.561618000">
        <ele>78.7</ele>
        <time>2020-10-11T14:05:38Z</time>
      </trkpt>
      <trkpt lat="37.301230000" lon="-5.561518000">
        <ele>78.5</ele>
        <time>2020-10-11T14:05:40Z</time>
      </trkpt>
      <trkpt lat="37.301161000" lon="-5.561464000">
        <ele>78.4</ele>
        <time>2020-10-11T14:05:41Z</time>
      </trkpt>
      <trkpt lat="37.301026000" lon="-5.561361000">
        <ele>78.2</ele>
        <time>2020-10-11T14:05:43Z</time>
      </trkpt>
      <trkpt lat="37.300894000" lon="-5.561263000">
        <ele>78.0</ele>
        <time>2020-10-11T14:05:45Z</time>
      </trkpt>
      <trkpt lat="37.300762000" lon="-5.561161000">
        <ele>77.7</ele>
        <time>2020-10-11T14:05:47Z</time>
      </trkpt>
      <trkpt lat="37.300626000" lon="-5.561057000">
        <ele>77.4</ele>
        <time>2020-10-11T14:05:49Z</time>
      </trkpt>
      <trkpt lat="37.300556000" lon="-5.561005000">
        <ele>77.0</ele>
        <time>2020-10-11T14:05:50Z</time>
      </trkpt>
      <trkpt lat="37.300421000" lon="-5.560910000">
        <ele>76.5</ele>
        <time>2020-10-11T14:05:52Z</time>
      </trkpt>
      <trkpt lat="37.300286000" lon="-5.560806000">
        <ele>76.1</ele>
        <time>2020-10-11T14:05:54Z</time>
      </trkpt>
      <trkpt lat="37.300153000" lon="-5.560701000">
        <ele>75.6</ele>
        <time>2020-10-11T14:05:56Z</time>
      </trkpt>
      <trkpt lat="37.300025000" lon="-5.560604000">
        <ele>75.3</ele>
        <time>2020-10-11T14:05:58Z</time>
      </trkpt>
      <trkpt lat="37.299897000" lon="-5.560510000">
        <ele>75.0</ele>
        <time>2020-10-11T14:06:00Z</time>
      </trkpt>
      <trkpt lat="37.299767000" lon="-5.560416000">
        <ele>74.7</ele>
        <time>2020-10-11T14:06:02Z</time>
      </trkpt>
      <trkpt lat="37.299639000" lon="-5.560316000">
        <ele>74.5</ele>
        <time>2020-10-11T14:06:04Z</time>
      </trkpt>
      <trkpt lat="37.299510000" lon="-5.560224000">
        <ele>74.2</ele>
        <time>2020-10-11T14:06:06Z</time>
      </trkpt>
      <trkpt lat="37.299390000" lon="-5.560130000">
        <ele>74.0</ele>
        <time>2020-10-11T14:06:08Z</time>
      </trkpt>
      <trkpt lat="37.299267000" lon="-5.560042000">
        <ele>73.9</ele>
        <time>2020-10-11T14:06:10Z</time>
      </trkpt>
      <trkpt lat="37.299148000" lon="-5.559954000">
        <ele>73.8</ele>
        <time>2020-10-11T14:06:12Z</time>
      </trkpt>
      <trkpt lat="37.299037000" lon="-5.559872000">
        <ele>73.8</ele>
        <time>2020-10-11T14:06:14Z</time>
      </trkpt>
      <trkpt lat="37.298926000" lon="-5.559796000">
        <ele>73.9</ele>
        <time>2020-10-11T14:06:16Z</time>
      </trkpt>
      <trkpt lat="37.298814000" lon="-5.559730000">
        <ele>74.0</ele>
        <time>2020-10-11T14:06:18Z</time>
      </trkpt>
      <trkpt lat="37.298698000" lon="-5.559672000">
        <ele>74.1</ele>
        <time>2020-10-11T14:06:20Z</time>
      </trkpt>
      <trkpt lat="37.298581000" lon="-5.559622000">
        <ele>74.1</ele>
        <time>2020-10-11T14:06:22Z</time>
      </trkpt>
      <trkpt lat="37.298461000" lon="-5.559588000">
        <ele>74.1</ele>
        <time>2020-10-11T14:06:24Z</time>
      </trkpt>
      <trkpt lat="37.298341000" lon="-5.559545000">
        <ele>74.1</ele>
        <time>2020-10-11T14:06:26Z</time>
      </trkpt>
      <trkpt lat="37.298220000" lon="-5.559513000">
        <ele>74.1</ele>
        <time>2020-10-11T14:06:28Z</time>
      </trkpt>
      <trkpt lat="37.298099000" lon="-5.559479000">
        <ele>74.0</ele>
        <time>2020-10-11T14:06:30Z</time>
      </trkpt>
      <trkpt lat="37.297972000" lon="-5.559438000">
        <ele>73.9</ele>
        <time>2020-10-11T14:06:32Z</time>
      </trkpt>
      <trkpt lat="37.297847000" lon="-5.559393000">
        <ele>73.8</ele>
        <time>2020-10-11T14:06:34Z</time>
      </trkpt>
      <trkpt lat="37.297721000" lon="-5.559353000">
        <ele>73.7</ele>
        <time>2020-10-11T14:06:36Z</time>
      </trkpt>
      <trkpt lat="37.297601000" lon="-5.559319000">
        <ele>73.5</ele>
        <time>2020-10-11T14:06:38Z</time>
      </trkpt>
      <trkpt lat="37.297480000" lon="-5.559282000">
        <ele>73.3</ele>
        <time>2020-10-11T14:06:40Z</time>
      </trkpt>
      <trkpt lat="37.297368000" lon="-5.559248000">
        <ele>73.0</ele>
        <time>2020-10-11T14:06:42Z</time>
      </trkpt>
      <trkpt lat="37.297253000" lon="-5.559210000">
        <ele>72.7</ele>
        <time>2020-10-11T14:06:44Z</time>
      </trkpt>
      <trkpt lat="37.297142000" lon="-5.559177000">
        <ele>72.5</ele>
        <time>2020-10-11T14:06:46Z</time>
      </trkpt>
      <trkpt lat="37.297032000" lon="-5.559145000">
        <ele>72.3</ele>
        <time>2020-10-11T14:06:48Z</time>
      </trkpt>
      <trkpt lat="37.296918000" lon="-5.559111000">
        <ele>72.2</ele>
        <time>2020-10-11T14:06:50Z</time>
      </trkpt>
      <trkpt lat="37.296803000" lon="-5.559068000">
        <ele>72.3</ele>
        <time>2020-10-11T14:06:52Z</time>
      </trkpt>
      <trkpt lat="37.296691000" lon="-5.559038000">
        <ele>72.5</ele>
        <time>2020-10-11T14:06:54Z</time>
      </trkpt>
      <trkpt lat="37.296584000" lon="-5.559008000">
        <ele>72.6</ele>
        <time>2020-10-11T14:06:56Z</time>
      </trkpt>
      <trkpt lat="37.296482000" lon="-5.558971000">
        <ele>72.8</ele>
        <time>2020-10-11T14:06:58Z</time>
      </trkpt>
      <trkpt lat="37.296376000" lon="-5.558938000">
        <ele>73.1</ele>
        <time>2020-10-11T14:07:00Z</time>
      </trkpt>
      <trkpt lat="37.296264000" lon="-5.558905000">
        <ele>73.4</ele>
        <time>2020-10-11T14:07:02Z</time>
      </trkpt>
      <trkpt lat="37.296163000" lon="-5.558873000">
        <ele>73.7</ele>
        <time>2020-10-11T14:07:04Z</time>
      </trkpt>
      <trkpt lat="37.296067000" lon="-5.558849000">
        <ele>74.1</ele>
        <time>2020-10-11T14:07:06Z</time>
      </trkpt>
      <trkpt lat="37.295971000" lon="-5.558829000">
        <ele>74.4</ele>
        <time>2020-10-11T14:07:08Z</time>
      </trkpt>
      <trkpt lat="37.295876000" lon="-5.558822000">
        <ele>74.5</ele>
        <time>2020-10-11T14:07:10Z</time>
      </trkpt>
      <trkpt lat="37.295787000" lon="-5.558810000">
        <ele>74.6</ele>
        <time>2020-10-11T14:07:12Z</time>
      </trkpt>
      <trkpt lat="37.295685000" lon="-5.558803000">
        <ele>74.6</ele>
        <time>2020-10-11T14:07:14Z</time>
      </trkpt>
      <trkpt lat="37.295573000" lon="-5.558795000">
        <ele>74.5</ele>
        <time>2020-10-11T14:07:16Z</time>
      </trkpt>
      <trkpt lat="37.295466000" lon="-5.558787000">
        <ele>74.5</ele>
        <time>2020-10-11T14:07:18Z</time>
      </trkpt>
      <trkpt lat="37.295360000" lon="-5.558789000">
        <ele>74.4</ele>
        <time>2020-10-11T14:07:20Z</time>
      </trkpt>
      <trkpt lat="37.295260000" lon="-5.558790000">
        <ele>74.3</ele>
        <time>2020-10-11T14:07:22Z</time>
      </trkpt>
      <trkpt lat="37.295165000" lon="-5.558774000">
        <ele>74.2</ele>
        <time>2020-10-11T14:07:24Z</time>
      </trkpt>
      <trkpt lat="37.295061000" lon="-5.558769000">
        <ele>74.1</ele>
        <time>2020-10-11T14:07:26Z</time>
      </trkpt>
      <trkpt lat="37.294952000" lon="-5.558768000">
        <ele>74.0</ele>
        <time>2020-10-11T14:07:28Z</time>
      </trkpt>
      <trkpt lat="37.294849000" lon="-5.558760000">
        <ele>74.0</ele>
        <time>2020-10-11T14:07:30Z</time>
      </trkpt>
      <trkpt lat="37.294759000" lon="-5.558753000">
        <ele>74.0</ele>
        <time>2020-10-11T14:07:32Z</time>
      </trkpt>
      <trkpt lat="37.294661000" lon="-5.558742000">
        <ele>74.1</ele>
        <time>2020-10-11T14:07:34Z</time>
      </trkpt>
      <trkpt lat="37.294572000" lon="-5.558744000">
        <ele>74.2</ele>
        <time>2020-10-11T14:07:36Z</time>
      </trkpt>
      <trkpt lat="37.294467000" lon="-5.558732000">
        <ele>74.3</ele>
        <time>2020-10-11T14:07:38Z</time>
      </trkpt>
      <trkpt lat="37.294374000" lon="-5.558729000">
        <ele>74.5</ele>
        <time>2020-10-11T14:07:40Z</time>
      </trkpt>
      <trkpt lat="37.294275000" lon="-5.558717000">
        <ele>74.6</ele>
        <time>2020-10-11T14:07:42Z</time>
      </trkpt>
      <trkpt lat="37.294179000" lon="-5.558717000">
        <ele>74.8</ele>
        <time>2020-10-11T14:07:44Z</time>
      </trkpt>
      <trkpt lat="37.294081000" lon="-5.558715000">
        <ele>75.1</ele>
        <time>2020-10-11T14:07:46Z</time>
      </trkpt>
      <trkpt lat="37.293982000" lon="-5.558706000">
        <ele>75.4</ele>
        <time>2020-10-11T14:07:48Z</time>
      </trkpt>
      <trkpt lat="37.293883000" lon="-5.558707000">
        <ele>75.7</ele>
        <time>2020-10-11T14:07:50Z</time>
      </trkpt>
      <trkpt lat="37.293786000" lon="-5.558713000">
        <ele>76.1</ele>
        <time>2020-10-11T14:07:52Z</time>
      </trkpt>
      <trkpt lat="37.293684000" lon="-5.558707000">
        <ele>76.4</ele>
        <time>2020-10-11T14:07:54Z</time>
      </trkpt>
      <trkpt lat="37.293582000" lon="-5.558704000">
        <ele>76.5</ele>
        <time>2020-10-11T14:07:56Z</time>
      </trkpt>
      <trkpt lat="37.293487000" lon="-5.558693000">
        <ele>76.7</ele>
        <time>2020-10-11T14:07:58Z</time>
      </trkpt>
      <trkpt lat="37.293390000" lon="-5.558685000">
        <ele>76.8</ele>
        <time>2020-10-11T14:08:00Z</time>
      </trkpt>
      <trkpt lat="37.293292000" lon="-5.558686000">
        <ele>76.8</ele>
        <time>2020-10-11T14:08:02Z</time>
      </trkpt>
      <trkpt lat="37.293197000" lon="-5.558680000">
        <ele>76.8</ele>
        <time>2020-10-11T14:08:04Z</time>
      </trkpt>
      <trkpt lat="37.293100000" lon="-5.558670000">
        <ele>76.8</ele>
        <time>2020-10-11T14:08:06Z</time>
      </trkpt>
      <trkpt lat="37.293002000" lon="-5.558670000">
        <ele>76.7</ele>
        <time>2020-10-11T14:08:08Z</time>
      </trkpt>
      <trkpt lat="37.292904000" lon="-5.558665000">
        <ele>76.6</ele>
        <time>2020-10-11T14:08:10Z</time>
      </trkpt>
      <trkpt lat="37.292806000" lon="-5.558652000">
        <ele>76.5</ele>
        <time>2020-10-11T14:08:12Z</time>
      </trkpt>
      <trkpt lat="37.292716000" lon="-5.558648000">
        <ele>76.3</ele>
        <time>2020-10-11T14:08:14Z</time>
      </trkpt>
      <trkpt lat="37.292619000" lon="-5.558648000">
        <ele>76.2</ele>
        <time>2020-10-11T14:08:16Z</time>
      </trkpt>
      <trkpt lat="37.292527000" lon="-5.558642000">
        <ele>76.1</ele>
        <time>2020-10-11T14:08:18Z</time>
      </trkpt>
      <trkpt lat="37.292439000" lon="-5.558621000">
        <ele>76.0</ele>
        <time>2020-10-11T14:08:20Z</time>
      </trkpt>
      <trkpt lat="37.292353000" lon="-5.558608000">
        <ele>76.0</ele>
        <time>2020-10-11T14:08:22Z</time>
      </trkpt>
      <trkpt lat="37.292263000" lon="-5.558585000">
        <ele>76.0</ele>
        <time>2020-10-11T14:08:24Z</time>
      </trkpt>
      <trkpt lat="37.292173000" lon="-5.558559000">
        <ele>76.0</ele>
        <time>2020-10-11T14:08:26Z</time>
      </trkpt>
      <trkpt lat="37.292084000" lon="-5.558525000">
        <ele>76.0</ele>
        <time>2020-10-11T14:08:28Z</time>
      </trkpt>
      <trkpt lat="37.291987000" lon="-5.558496000">
        <ele>75.9</ele>
        <time>2020-10-11T14:08:30Z</time>
      </trkpt>
      <trkpt lat="37.291891000" lon="-5.558461000">
        <ele>75.8</ele>
        <time>2020-10-11T14:08:32Z</time>
      </trkpt>
      <trkpt lat="37.291800000" lon="-5.558425000">
        <ele>75.6</ele>
        <time>2020-10-11T14:08:34Z</time>
      </trkpt>
      <trkpt lat="37.291706000" lon="-5.558389000">
        <ele>75.5</ele>
        <time>2020-10-11T14:08:36Z</time>
      </trkpt>
      <trkpt lat="37.291612000" lon="-5.558351000">
        <ele>75.3</ele>
        <time>2020-10-11T14:08:39Z</time>
      </trkpt>
      <trkpt lat="37.291522000" lon="-5.558322000">
        <ele>75.1</ele>
        <time>2020-10-11T14:08:40Z</time>
      </trkpt>
      <trkpt lat="37.291433000" lon="-5.558284000">
        <ele>74.8</ele>
        <time>2020-10-11T14:08:42Z</time>
      </trkpt>
      <trkpt lat="37.291343000" lon="-5.558249000">
        <ele>74.5</ele>
        <time>2020-10-11T14:08:44Z</time>
      </trkpt>
      <trkpt lat="37.291251000" lon="-5.558215000">
        <ele>74.3</ele>
        <time>2020-10-11T14:08:46Z</time>
      </trkpt>
      <trkpt lat="37.291153000" lon="-5.558176000">
        <ele>74.1</ele>
        <time>2020-10-11T14:08:48Z</time>
      </trkpt>
      <trkpt lat="37.291060000" lon="-5.558138000">
        <ele>73.9</ele>
        <time>2020-10-11T14:08:50Z</time>
      </trkpt>
      <trkpt lat="37.290970000" lon="-5.558115000">
        <ele>73.8</ele>
        <time>2020-10-11T14:08:52Z</time>
      </trkpt>
      <trkpt lat="37.290879000" lon="-5.558078000">
        <ele>73.8</ele>
        <time>2020-10-11T14:08:54Z</time>
      </trkpt>
      <trkpt lat="37.290787000" lon="-5.558043000">
        <ele>73.9</ele>
        <time>2020-10-11T14:08:56Z</time>
      </trkpt>
      <trkpt lat="37.290700000" lon="-5.558009000">
        <ele>74.0</ele>
        <time>2020-10-11T14:08:58Z</time>
      </trkpt>
      <trkpt lat="37.290616000" lon="-5.557977000">
        <ele>74.1</ele>
        <time>2020-10-11T14:09:00Z</time>
      </trkpt>
      <trkpt lat="37.290528000" lon="-5.557943000">
        <ele>74.2</ele>
        <time>2020-10-11T14:09:02Z</time>
      </trkpt>
      <trkpt lat="37.290436000" lon="-5.557910000">
        <ele>74.4</ele>
        <time>2020-10-11T14:09:04Z</time>
      </trkpt>
      <trkpt lat="37.290352000" lon="-5.557879000">
        <ele>74.5</ele>
        <time>2020-10-11T14:09:06Z</time>
      </trkpt>
      <trkpt lat="37.290267000" lon="-5.557845000">
        <ele>74.7</ele>
        <time>2020-10-11T14:09:08Z</time>
      </trkpt>
      <trkpt lat="37.290180000" lon="-5.557821000">
        <ele>74.7</ele>
        <time>2020-10-11T14:09:10Z</time>
      </trkpt>
      <trkpt lat="37.290092000" lon="-5.557785000">
        <ele>74.7</ele>
        <time>2020-10-11T14:09:12Z</time>
      </trkpt>
      <trkpt lat="37.290001000" lon="-5.557751000">
        <ele>74.7</ele>
        <time>2020-10-11T14:09:14Z</time>
      </trkpt>
      <trkpt lat="37.289908000" lon="-5.557725000">
        <ele>74.6</ele>
        <time>2020-10-11T14:09:16Z</time>
      </trkpt>
      <trkpt lat="37.289808000" lon="-5.557690000">
        <ele>74.6</ele>
        <time>2020-10-11T14:09:18Z</time>
      </trkpt>
      <trkpt lat="37.289706000" lon="-5.557653000">
        <ele>74.6</ele>
        <time>2020-10-11T14:09:20Z</time>
      </trkpt>
      <trkpt lat="37.289603000" lon="-5.557619000">
        <ele>74.6</ele>
        <time>2020-10-11T14:09:22Z</time>
      </trkpt>
      <trkpt lat="37.289502000" lon="-5.557581000">
        <ele>74.6</ele>
        <time>2020-10-11T14:09:24Z</time>
      </trkpt>
      <trkpt lat="37.289399000" lon="-5.557547000">
        <ele>74.6</ele>
        <time>2020-10-11T14:09:26Z</time>
      </trkpt>
      <trkpt lat="37.289298000" lon="-5.557513000">
        <ele>74.6</ele>
        <time>2020-10-11T14:09:28Z</time>
      </trkpt>
      <trkpt lat="37.289192000" lon="-5.557469000">
        <ele>74.5</ele>
        <time>2020-10-11T14:09:30Z</time>
      </trkpt>
      <trkpt lat="37.289093000" lon="-5.557423000">
        <ele>74.5</ele>
        <time>2020-10-11T14:09:32Z</time>
      </trkpt>
      <trkpt lat="37.289000000" lon="-5.557391000">
        <ele>74.5</ele>
        <time>2020-10-11T14:09:34Z</time>
      </trkpt>
      <trkpt lat="37.288897000" lon="-5.557354000">
        <ele>74.6</ele>
        <time>2020-10-11T14:09:36Z</time>
      </trkpt>
      <trkpt lat="37.288794000" lon="-5.557324000">
        <ele>74.7</ele>
        <time>2020-10-11T14:09:38Z</time>
      </trkpt>
      <trkpt lat="37.288700000" lon="-5.557280000">
        <ele>74.7</ele>
        <time>2020-10-11T14:09:40Z</time>
      </trkpt>
      <trkpt lat="37.288612000" lon="-5.557245000">
        <ele>74.7</ele>
        <time>2020-10-11T14:09:42Z</time>
      </trkpt>
      <trkpt lat="37.288517000" lon="-5.557212000">
        <ele>74.7</ele>
        <time>2020-10-11T14:09:44Z</time>
      </trkpt>
      <trkpt lat="37.288423000" lon="-5.557169000">
        <ele>74.7</ele>
        <time>2020-10-11T14:09:46Z</time>
      </trkpt>
      <trkpt lat="37.288329000" lon="-5.557139000">
        <ele>74.7</ele>
        <time>2020-10-11T14:09:48Z</time>
      </trkpt>
      <trkpt lat="37.288240000" lon="-5.557106000">
        <ele>74.7</ele>
        <time>2020-10-11T14:09:50Z</time>
      </trkpt>
      <trkpt lat="37.288141000" lon="-5.557071000">
        <ele>74.8</ele>
        <time>2020-10-11T14:09:52Z</time>
      </trkpt>
      <trkpt lat="37.288053000" lon="-5.557036000">
        <ele>74.9</ele>
        <time>2020-10-11T14:09:54Z</time>
      </trkpt>
      <trkpt lat="37.287960000" lon="-5.557006000">
        <ele>75.1</ele>
        <time>2020-10-11T14:09:56Z</time>
      </trkpt>
      <trkpt lat="37.287873000" lon="-5.556966000">
        <ele>75.2</ele>
        <time>2020-10-11T14:09:58Z</time>
      </trkpt>
      <trkpt lat="37.287784000" lon="-5.556935000">
        <ele>75.3</ele>
        <time>2020-10-11T14:10:00Z</time>
      </trkpt>
      <trkpt lat="37.287699000" lon="-5.556906000">
        <ele>75.4</ele>
        <time>2020-10-11T14:10:02Z</time>
      </trkpt>
      <trkpt lat="37.287613000" lon="-5.556870000">
        <ele>75.5</ele>
        <time>2020-10-11T14:10:04Z</time>
      </trkpt>
      <trkpt lat="37.287521000" lon="-5.556837000">
        <ele>75.5</ele>
        <time>2020-10-11T14:10:06Z</time>
      </trkpt>
      <trkpt lat="37.287423000" lon="-5.556797000">
        <ele>75.5</ele>
        <time>2020-10-11T14:10:08Z</time>
      </trkpt>
      <trkpt lat="37.287332000" lon="-5.556757000">
        <ele>75.5</ele>
        <time>2020-10-11T14:10:10Z</time>
      </trkpt>
      <trkpt lat="37.287242000" lon="-5.556725000">
        <ele>75.5</ele>
        <time>2020-10-11T14:10:12Z</time>
      </trkpt>
      <trkpt lat="37.287138000" lon="-5.556689000">
        <ele>75.6</ele>
        <time>2020-10-11T14:10:14Z</time>
      </trkpt>
      <trkpt lat="37.287039000" lon="-5.556663000">
        <ele>75.8</ele>
        <time>2020-10-11T14:10:16Z</time>
      </trkpt>
      <trkpt lat="37.286937000" lon="-5.556644000">
        <ele>76.0</ele>
        <time>2020-10-11T14:10:18Z</time>
      </trkpt>
      <trkpt lat="37.286831000" lon="-5.556629000">
        <ele>76.2</ele>
        <time>2020-10-11T14:10:20Z</time>
      </trkpt>
      <trkpt lat="37.286723000" lon="-5.556620000">
        <ele>76.4</ele>
        <time>2020-10-11T14:10:22Z</time>
      </trkpt>
      <trkpt lat="37.286619000" lon="-5.556617000">
        <ele>76.5</ele>
        <time>2020-10-11T14:10:24Z</time>
      </trkpt>
      <trkpt lat="37.286509000" lon="-5.556618000">
        <ele>76.7</ele>
        <time>2020-10-11T14:10:26Z</time>
      </trkpt>
      <trkpt lat="37.286399000" lon="-5.556613000">
        <ele>77.0</ele>
        <time>2020-10-11T14:10:28Z</time>
      </trkpt>
      <trkpt lat="37.286295000" lon="-5.556609000">
        <ele>77.3</ele>
        <time>2020-10-11T14:10:30Z</time>
      </trkpt>
      <trkpt lat="37.286192000" lon="-5.556602000">
        <ele>77.5</ele>
        <time>2020-10-11T14:10:32Z</time>
      </trkpt>
      <trkpt lat="37.286087000" lon="-5.556603000">
        <ele>77.5</ele>
        <time>2020-10-11T14:10:34Z</time>
      </trkpt>
      <trkpt lat="37.285985000" lon="-5.556597000">
        <ele>77.6</ele>
        <time>2020-10-11T14:10:36Z</time>
      </trkpt>
      <trkpt lat="37.285883000" lon="-5.556591000">
        <ele>77.6</ele>
        <time>2020-10-11T14:10:38Z</time>
      </trkpt>
      <trkpt lat="37.285775000" lon="-5.556584000">
        <ele>77.5</ele>
        <time>2020-10-11T14:10:40Z</time>
      </trkpt>
      <trkpt lat="37.285675000" lon="-5.556580000">
        <ele>77.5</ele>
        <time>2020-10-11T14:10:42Z</time>
      </trkpt>
      <trkpt lat="37.285575000" lon="-5.556575000">
        <ele>77.4</ele>
        <time>2020-10-11T14:10:44Z</time>
      </trkpt>
      <trkpt lat="37.285479000" lon="-5.556575000">
        <ele>77.4</ele>
        <time>2020-10-11T14:10:46Z</time>
      </trkpt>
      <trkpt lat="37.285389000" lon="-5.556570000">
        <ele>77.4</ele>
        <time>2020-10-11T14:10:48Z</time>
      </trkpt>
      <trkpt lat="37.285305000" lon="-5.556564000">
        <ele>77.4</ele>
        <time>2020-10-11T14:10:50Z</time>
      </trkpt>
      <trkpt lat="37.285223000" lon="-5.556549000">
        <ele>77.4</ele>
        <time>2020-10-11T14:10:52Z</time>
      </trkpt>
      <trkpt lat="37.285138000" lon="-5.556550000">
        <ele>77.5</ele>
        <time>2020-10-11T14:10:54Z</time>
      </trkpt>
      <trkpt lat="37.285023000" lon="-5.556552000">
        <ele>77.5</ele>
        <time>2020-10-11T14:10:57Z</time>
      </trkpt>
      <trkpt lat="37.284919000" lon="-5.556546000">
        <ele>77.7</ele>
        <time>2020-10-11T14:11:00Z</time>
      </trkpt>
      <trkpt lat="37.284808000" lon="-5.556543000">
        <ele>77.9</ele>
        <time>2020-10-11T14:11:03Z</time>
      </trkpt>
      <trkpt lat="37.284687000" lon="-5.556540000">
        <ele>78.2</ele>
        <time>2020-10-11T14:11:06Z</time>
      </trkpt>
      <trkpt lat="37.284571000" lon="-5.556533000">
        <ele>78.5</ele>
        <time>2020-10-11T14:11:09Z</time>
      </trkpt>
      <trkpt lat="37.284458000" lon="-5.556531000">
        <ele>78.9</ele>
        <time>2020-10-11T14:11:12Z</time>
      </trkpt>
      <trkpt lat="37.284341000" lon="-5.556523000">
        <ele>79.3</ele>
        <time>2020-10-11T14:11:15Z</time>
      </trkpt>
      <trkpt lat="37.284221000" lon="-5.556520000">
        <ele>79.7</ele>
        <time>2020-10-11T14:11:18Z</time>
      </trkpt>
      <trkpt lat="37.284139000" lon="-5.556517000">
        <ele>80.2</ele>
        <time>2020-10-11T14:11:20Z</time>
      </trkpt>
      <trkpt lat="37.284057000" lon="-5.556513000">
        <ele>80.7</ele>
        <time>2020-10-11T14:11:22Z</time>
      </trkpt>
      <trkpt lat="37.283935000" lon="-5.556509000">
        <ele>81.3</ele>
        <time>2020-10-11T14:11:25Z</time>
      </trkpt>
      <trkpt lat="37.283855000" lon="-5.556502000">
        <ele>81.8</ele>
        <time>2020-10-11T14:11:27Z</time>
      </trkpt>
      <trkpt lat="37.283774000" lon="-5.556503000">
        <ele>82.3</ele>
        <time>2020-10-11T14:11:29Z</time>
      </trkpt>
      <trkpt lat="37.283692000" lon="-5.556497000">
        <ele>82.6</ele>
        <time>2020-10-11T14:11:31Z</time>
      </trkpt>
      <trkpt lat="37.283610000" lon="-5.556495000">
        <ele>82.8</ele>
        <time>2020-10-11T14:11:33Z</time>
      </trkpt>
      <trkpt lat="37.283489000" lon="-5.556484000">
        <ele>82.9</ele>
        <time>2020-10-11T14:11:36Z</time>
      </trkpt>
      <trkpt lat="37.283373000" lon="-5.556466000">
        <ele>82.8</ele>
        <time>2020-10-11T14:11:39Z</time>
      </trkpt>
      <trkpt lat="37.283255000" lon="-5.556443000">
        <ele>82.7</ele>
        <time>2020-10-11T14:11:42Z</time>
      </trkpt>
      <trkpt lat="37.283140000" lon="-5.556403000">
        <ele>82.5</ele>
        <time>2020-10-11T14:11:45Z</time>
      </trkpt>
      <trkpt lat="37.283027000" lon="-5.556355000">
        <ele>82.3</ele>
        <time>2020-10-11T14:11:48Z</time>
      </trkpt>
      <trkpt lat="37.282951000" lon="-5.556318000">
        <ele>82.0</ele>
        <time>2020-10-11T14:11:50Z</time>
      </trkpt>
      <trkpt lat="37.282873000" lon="-5.556280000">
        <ele>81.7</ele>
        <time>2020-10-11T14:11:52Z</time>
      </trkpt>
      <trkpt lat="37.282792000" lon="-5.556242000">
        <ele>81.5</ele>
        <time>2020-10-11T14:11:54Z</time>
      </trkpt>
      <trkpt lat="37.282708000" lon="-5.556198000">
        <ele>81.4</ele>
        <time>2020-10-11T14:11:56Z</time>
      </trkpt>
      <trkpt lat="37.282621000" lon="-5.556150000">
        <ele>81.3</ele>
        <time>2020-10-11T14:11:58Z</time>
      </trkpt>
      <trkpt lat="37.282524000" lon="-5.556099000">
        <ele>81.2</ele>
        <time>2020-10-11T14:12:00Z</time>
      </trkpt>
      <trkpt lat="37.282425000" lon="-5.556049000">
        <ele>81.2</ele>
        <time>2020-10-11T14:12:02Z</time>
      </trkpt>
      <trkpt lat="37.282326000" lon="-5.555993000">
        <ele>81.2</ele>
        <time>2020-10-11T14:12:04Z</time>
      </trkpt>
      <trkpt lat="37.282223000" lon="-5.555944000">
        <ele>81.1</ele>
        <time>2020-10-11T14:12:06Z</time>
      </trkpt>
      <trkpt lat="37.282121000" lon="-5.555900000">
        <ele>81.1</ele>
        <time>2020-10-11T14:12:08Z</time>
      </trkpt>
      <trkpt lat="37.282021000" lon="-5.555846000">
        <ele>81.0</ele>
        <time>2020-10-11T14:12:10Z</time>
      </trkpt>
      <trkpt lat="37.281919000" lon="-5.555798000">
        <ele>80.9</ele>
        <time>2020-10-11T14:12:12Z</time>
      </trkpt>
      <trkpt lat="37.281818000" lon="-5.555751000">
        <ele>80.8</ele>
        <time>2020-10-11T14:12:14Z</time>
      </trkpt>
      <trkpt lat="37.281717000" lon="-5.555701000">
        <ele>80.7</ele>
        <time>2020-10-11T14:12:16Z</time>
      </trkpt>
      <trkpt lat="37.281616000" lon="-5.555645000">
        <ele>80.6</ele>
        <time>2020-10-11T14:12:18Z</time>
      </trkpt>
      <trkpt lat="37.281520000" lon="-5.555595000">
        <ele>80.5</ele>
        <time>2020-10-11T14:12:20Z</time>
      </trkpt>
      <trkpt lat="37.281426000" lon="-5.555545000">
        <ele>80.6</ele>
        <time>2020-10-11T14:12:22Z</time>
      </trkpt>
      <trkpt lat="37.281330000" lon="-5.555497000">
        <ele>80.7</ele>
        <time>2020-10-11T14:12:24Z</time>
      </trkpt>
      <trkpt lat="37.281233000" lon="-5.555447000">
        <ele>80.8</ele>
        <time>2020-10-11T14:12:26Z</time>
      </trkpt>
      <trkpt lat="37.281139000" lon="-5.555396000">
        <ele>81.0</ele>
        <time>2020-10-11T14:12:28Z</time>
      </trkpt>
      <trkpt lat="37.281048000" lon="-5.555350000">
        <ele>81.3</ele>
        <time>2020-10-11T14:12:30Z</time>
      </trkpt>
      <trkpt lat="37.280955000" lon="-5.555307000">
        <ele>81.5</ele>
        <time>2020-10-11T14:12:32Z</time>
      </trkpt>
      <trkpt lat="37.280865000" lon="-5.555261000">
        <ele>81.8</ele>
        <time>2020-10-11T14:12:34Z</time>
      </trkpt>
      <trkpt lat="37.280777000" lon="-5.555218000">
        <ele>82.0</ele>
        <time>2020-10-11T14:12:36Z</time>
      </trkpt>
      <trkpt lat="37.280686000" lon="-5.555171000">
        <ele>82.1</ele>
        <time>2020-10-11T14:12:38Z</time>
      </trkpt>
      <trkpt lat="37.280601000" lon="-5.555127000">
        <ele>82.2</ele>
        <time>2020-10-11T14:12:40Z</time>
      </trkpt>
      <trkpt lat="37.280514000" lon="-5.555078000">
        <ele>82.3</ele>
        <time>2020-10-11T14:12:42Z</time>
      </trkpt>
      <trkpt lat="37.280430000" lon="-5.555040000">
        <ele>82.3</ele>
        <time>2020-10-11T14:12:44Z</time>
      </trkpt>
      <trkpt lat="37.280350000" lon="-5.555003000">
        <ele>82.4</ele>
        <time>2020-10-11T14:12:46Z</time>
      </trkpt>
      <trkpt lat="37.280268000" lon="-5.554967000">
        <ele>82.5</ele>
        <time>2020-10-11T14:12:48Z</time>
      </trkpt>
      <trkpt lat="37.280165000" lon="-5.554918000">
        <ele>82.8</ele>
        <time>2020-10-11T14:12:51Z</time>
      </trkpt>
      <trkpt lat="37.280072000" lon="-5.554877000">
        <ele>83.1</ele>
        <time>2020-10-11T14:12:54Z</time>
      </trkpt>
      <trkpt lat="37.279995000" lon="-5.554841000">
        <ele>83.5</ele>
        <time>2020-10-11T14:12:57Z</time>
      </trkpt>
      <trkpt lat="37.279918000" lon="-5.554802000">
        <ele>83.9</ele>
        <time>2020-10-11T14:13:00Z</time>
      </trkpt>
      <trkpt lat="37.279823000" lon="-5.554757000">
        <ele>84.5</ele>
        <time>2020-10-11T14:13:04Z</time>
      </trkpt>
      <trkpt lat="37.279731000" lon="-5.554710000">
        <ele>85.3</ele>
        <time>2020-10-11T14:13:08Z</time>
      </trkpt>
      <trkpt lat="37.279647000" lon="-5.554664000">
        <ele>86.2</ele>
        <time>2020-10-11T14:13:12Z</time>
      </trkpt>
      <trkpt lat="37.279564000" lon="-5.554624000">
        <ele>87.1</ele>
        <time>2020-10-11T14:13:16Z</time>
      </trkpt>
      <trkpt lat="37.279483000" lon="-5.554592000">
        <ele>88.1</ele>
        <time>2020-10-11T14:13:20Z</time>
      </trkpt>
      <trkpt lat="37.279395000" lon="-5.554545000">
        <ele>89.2</ele>
        <time>2020-10-11T14:13:24Z</time>
      </trkpt>
      <trkpt lat="37.279302000" lon="-5.554493000">
        <ele>90.3</ele>
        <time>2020-10-11T14:13:29Z</time>
      </trkpt>
      <trkpt lat="37.279210000" lon="-5.554442000">
        <ele>91.4</ele>
        <time>2020-10-11T14:13:34Z</time>
      </trkpt>
      <trkpt lat="37.279128000" lon="-5.554387000">
        <ele>92.4</ele>
        <time>2020-10-11T14:13:39Z</time>
      </trkpt>
      <trkpt lat="37.279052000" lon="-5.554322000">
        <ele>93.4</ele>
        <time>2020-10-11T14:13:44Z</time>
      </trkpt>
      <trkpt lat="37.278964000" lon="-5.554269000">
        <ele>94.4</ele>
        <time>2020-10-11T14:13:49Z</time>
      </trkpt>
      <trkpt lat="37.278900000" lon="-5.554202000">
        <ele>95.3</ele>
        <time>2020-10-11T14:13:53Z</time>
      </trkpt>
      <trkpt lat="37.278835000" lon="-5.554140000">
        <ele>96.2</ele>
        <time>2020-10-11T14:13:57Z</time>
      </trkpt>
      <trkpt lat="37.278772000" lon="-5.554068000">
        <ele>96.9</ele>
        <time>2020-10-11T14:14:02Z</time>
      </trkpt>
      <trkpt lat="37.278706000" lon="-5.553998000">
        <ele>97.6</ele>
        <time>2020-10-11T14:14:06Z</time>
      </trkpt>
      <trkpt lat="37.278636000" lon="-5.553934000">
        <ele>98.3</ele>
        <time>2020-10-11T14:14:10Z</time>
      </trkpt>
      <trkpt lat="37.278562000" lon="-5.553859000">
        <ele>98.6</ele>
        <time>2020-10-11T14:14:15Z</time>
      </trkpt>
      <trkpt lat="37.278488000" lon="-5.553794000">
        <ele>98.8</ele>
        <time>2020-10-11T14:14:19Z</time>
      </trkpt>
      <trkpt lat="37.278414000" lon="-5.553720000">
        <ele>98.9</ele>
        <time>2020-10-11T14:14:24Z</time>
      </trkpt>
      <trkpt lat="37.278333000" lon="-5.553650000">
        <ele>98.9</ele>
        <time>2020-10-11T14:14:29Z</time>
      </trkpt>
      <trkpt lat="37.278257000" lon="-5.553565000">
        <ele>98.8</ele>
        <time>2020-10-11T14:14:34Z</time>
      </trkpt>
      <trkpt lat="37.278185000" lon="-5.553492000">
        <ele>98.5</ele>
        <time>2020-10-11T14:14:38Z</time>
      </trkpt>
      <trkpt lat="37.278097000" lon="-5.553413000">
        <ele>98.3</ele>
        <time>2020-10-11T14:14:42Z</time>
      </trkpt>
      <trkpt lat="37.278024000" lon="-5.553334000">
        <ele>97.8</ele>
        <time>2020-10-11T14:14:45Z</time>
      </trkpt>
      <trkpt lat="37.277941000" lon="-5.553230000">
        <ele>97.3</ele>
        <time>2020-10-11T14:14:48Z</time>
      </trkpt>
      <trkpt lat="37.277866000" lon="-5.553154000">
        <ele>96.6</ele>
        <time>2020-10-11T14:14:50Z</time>
      </trkpt>
      <trkpt lat="37.277791000" lon="-5.553063000">
        <ele>95.9</ele>
        <time>2020-10-11T14:14:52Z</time>
      </trkpt>
      <trkpt lat="37.277715000" lon="-5.552954000">
        <ele>95.4</ele>
        <time>2020-10-11T14:14:54Z</time>
      </trkpt>
      <trkpt lat="37.277626000" lon="-5.552835000">
        <ele>94.9</ele>
        <time>2020-10-11T14:14:56Z</time>
      </trkpt>
      <trkpt lat="37.277526000" lon="-5.552709000">
        <ele>94.5</ele>
        <time>2020-10-11T14:14:58Z</time>
      </trkpt>
      <trkpt lat="37.277420000" lon="-5.552585000">
        <ele>94.2</ele>
        <time>2020-10-11T14:15:00Z</time>
      </trkpt>
      <trkpt lat="37.277307000" lon="-5.552451000">
        <ele>94.0</ele>
        <time>2020-10-11T14:15:02Z</time>
      </trkpt>
      <trkpt lat="37.277206000" lon="-5.552326000">
        <ele>94.0</ele>
        <time>2020-10-11T14:15:04Z</time>
      </trkpt>
      <trkpt lat="37.277101000" lon="-5.552212000">
        <ele>94.2</ele>
        <time>2020-10-11T14:15:06Z</time>
      </trkpt>
      <trkpt lat="37.277002000" lon="-5.552123000">
        <ele>94.5</ele>
        <time>2020-10-11T14:15:08Z</time>
      </trkpt>
      <trkpt lat="37.276911000" lon="-5.552048000">
        <ele>95.1</ele>
        <time>2020-10-11T14:15:10Z</time>
      </trkpt>
      <trkpt lat="37.276841000" lon="-5.551992000">
        <ele>95.8</ele>
        <time>2020-10-11T14:15:12Z</time>
      </trkpt>
      <trkpt lat="37.276747000" lon="-5.551923000">
        <ele>96.6</ele>
        <time>2020-10-11T14:15:15Z</time>
      </trkpt>
      <trkpt lat="37.276669000" lon="-5.551866000">
        <ele>97.5</ele>
        <time>2020-10-11T14:15:18Z</time>
      </trkpt>
      <trkpt lat="37.276585000" lon="-5.551795000">
        <ele>98.3</ele>
        <time>2020-10-11T14:15:22Z</time>
      </trkpt>
      <trkpt lat="37.276505000" lon="-5.551727000">
        <ele>99.2</ele>
        <time>2020-10-11T14:15:26Z</time>
      </trkpt>
      <trkpt lat="37.276417000" lon="-5.551662000">
        <ele>100.1</ele>
        <time>2020-10-11T14:15:30Z</time>
      </trkpt>
      <trkpt lat="37.276349000" lon="-5.551607000">
        <ele>101.0</ele>
        <time>2020-10-11T14:15:34Z</time>
      </trkpt>
      <trkpt lat="37.276257000" lon="-5.551536000">
        <ele>101.8</ele>
        <time>2020-10-11T14:15:38Z</time>
      </trkpt>
      <trkpt lat="37.276193000" lon="-5.551467000">
        <ele>102.5</ele>
        <time>2020-10-11T14:15:42Z</time>
      </trkpt>
      <trkpt lat="37.276107000" lon="-5.551402000">
        <ele>103.3</ele>
        <time>2020-10-11T14:15:47Z</time>
      </trkpt>
      <trkpt lat="37.276024000" lon="-5.551347000">
        <ele>104.0</ele>
        <time>2020-10-11T14:15:52Z</time>
      </trkpt>
      <trkpt lat="37.275947000" lon="-5.551282000">
        <ele>104.7</ele>
        <time>2020-10-11T14:15:58Z</time>
      </trkpt>
      <trkpt lat="37.275879000" lon="-5.551221000">
        <ele>105.5</ele>
        <time>2020-10-11T14:16:03Z</time>
      </trkpt>
      <trkpt lat="37.275802000" lon="-5.551162000">
        <ele>106.2</ele>
        <time>2020-10-11T14:16:08Z</time>
      </trkpt>
      <trkpt lat="37.275723000" lon="-5.551098000">
        <ele>106.9</ele>
        <time>2020-10-11T14:16:13Z</time>
      </trkpt>
      <trkpt lat="37.275653000" lon="-5.551026000">
        <ele>107.6</ele>
        <time>2020-10-11T14:16:17Z</time>
      </trkpt>
      <trkpt lat="37.275589000" lon="-5.550961000">
        <ele>108.3</ele>
        <time>2020-10-11T14:16:21Z</time>
      </trkpt>
      <trkpt lat="37.275514000" lon="-5.550886000">
        <ele>108.8</ele>
        <time>2020-10-11T14:16:25Z</time>
      </trkpt>
      <trkpt lat="37.275448000" lon="-5.550804000">
        <ele>109.5</ele>
        <time>2020-10-11T14:16:29Z</time>
      </trkpt>
      <trkpt lat="37.275377000" lon="-5.550724000">
        <ele>110.0</ele>
        <time>2020-10-11T14:16:33Z</time>
      </trkpt>
      <trkpt lat="37.275307000" lon="-5.550637000">
        <ele>110.5</ele>
        <time>2020-10-11T14:16:37Z</time>
      </trkpt>
      <trkpt lat="37.275242000" lon="-5.550561000">
        <ele>111.0</ele>
        <time>2020-10-11T14:16:41Z</time>
      </trkpt>
      <trkpt lat="37.275178000" lon="-5.550490000">
        <ele>111.4</ele>
        <time>2020-10-11T14:16:45Z</time>
      </trkpt>
      <trkpt lat="37.275111000" lon="-5.550416000">
        <ele>111.8</ele>
        <time>2020-10-11T14:16:49Z</time>
      </trkpt>
      <trkpt lat="37.275042000" lon="-5.550334000">
        <ele>112.2</ele>
        <time>2020-10-11T14:16:53Z</time>
      </trkpt>
      <trkpt lat="37.274969000" lon="-5.550251000">
        <ele>112.5</ele>
        <time>2020-10-11T14:16:57Z</time>
      </trkpt>
      <trkpt lat="37.274893000" lon="-5.550167000">
        <ele>112.8</ele>
        <time>2020-10-11T14:17:01Z</time>
      </trkpt>
      <trkpt lat="37.274832000" lon="-5.550099000">
        <ele>113.1</ele>
        <time>2020-10-11T14:17:04Z</time>
      </trkpt>
      <trkpt lat="37.274766000" lon="-5.550031000">
        <ele>113.3</ele>
        <time>2020-10-11T14:17:07Z</time>
      </trkpt>
      <trkpt lat="37.274702000" lon="-5.549965000">
        <ele>113.4</ele>
        <time>2020-10-11T14:17:10Z</time>
      </trkpt>
      <trkpt lat="37.274644000" lon="-5.549892000">
        <ele>113.5</ele>
        <time>2020-10-11T14:17:13Z</time>
      </trkpt>
      <trkpt lat="37.274582000" lon="-5.549822000">
        <ele>113.4</ele>
        <time>2020-10-11T14:17:16Z</time>
      </trkpt>
      <trkpt lat="37.274518000" lon="-5.549751000">
        <ele>113.3</ele>
        <time>2020-10-11T14:17:19Z</time>
      </trkpt>
      <trkpt lat="37.274454000" lon="-5.549681000">
        <ele>113.2</ele>
        <time>2020-10-11T14:17:22Z</time>
      </trkpt>
      <trkpt lat="37.274395000" lon="-5.549608000">
        <ele>113.0</ele>
        <time>2020-10-11T14:17:25Z</time>
      </trkpt>
      <trkpt lat="37.274338000" lon="-5.549530000">
        <ele>112.9</ele>
        <time>2020-10-11T14:17:28Z</time>
      </trkpt>
      <trkpt lat="37.274279000" lon="-5.549452000">
        <ele>112.8</ele>
        <time>2020-10-11T14:17:31Z</time>
      </trkpt>
      <trkpt lat="37.274212000" lon="-5.549368000">
        <ele>112.8</ele>
        <time>2020-10-11T14:17:34Z</time>
      </trkpt>
      <trkpt lat="37.274141000" lon="-5.549276000">
        <ele>112.8</ele>
        <time>2020-10-11T14:17:37Z</time>
      </trkpt>
      <trkpt lat="37.274067000" lon="-5.549176000">
        <ele>112.8</ele>
        <time>2020-10-11T14:17:40Z</time>
      </trkpt>
      <trkpt lat="37.273985000" lon="-5.549068000">
        <ele>112.8</ele>
        <time>2020-10-11T14:17:43Z</time>
      </trkpt>
      <trkpt lat="37.273924000" lon="-5.548993000">
        <ele>112.8</ele>
        <time>2020-10-11T14:17:45Z</time>
      </trkpt>
      <trkpt lat="37.273862000" lon="-5.548919000">
        <ele>112.9</ele>
        <time>2020-10-11T14:17:47Z</time>
      </trkpt>
      <trkpt lat="37.273798000" lon="-5.548840000">
        <ele>112.9</ele>
        <time>2020-10-11T14:17:49Z</time>
      </trkpt>
      <trkpt lat="37.273726000" lon="-5.548760000">
        <ele>112.9</ele>
        <time>2020-10-11T14:17:51Z</time>
      </trkpt>
      <trkpt lat="37.273654000" lon="-5.548680000">
        <ele>113.0</ele>
        <time>2020-10-11T14:17:53Z</time>
      </trkpt>
      <trkpt lat="37.273575000" lon="-5.548596000">
        <ele>113.0</ele>
        <time>2020-10-11T14:17:55Z</time>
      </trkpt>
      <trkpt lat="37.273498000" lon="-5.548508000">
        <ele>113.0</ele>
        <time>2020-10-11T14:17:57Z</time>
      </trkpt>
      <trkpt lat="37.273414000" lon="-5.548424000">
        <ele>112.9</ele>
        <time>2020-10-11T14:17:59Z</time>
      </trkpt>
      <trkpt lat="37.273330000" lon="-5.548334000">
        <ele>112.7</ele>
        <time>2020-10-11T14:18:01Z</time>
      </trkpt>
      <trkpt lat="37.273239000" lon="-5.548233000">
        <ele>112.5</ele>
        <time>2020-10-11T14:18:03Z</time>
      </trkpt>
      <trkpt lat="37.273138000" lon="-5.548135000">
        <ele>112.2</ele>
        <time>2020-10-11T14:18:05Z</time>
      </trkpt>
      <trkpt lat="37.273039000" lon="-5.548026000">
        <ele>111.8</ele>
        <time>2020-10-11T14:18:07Z</time>
      </trkpt>
      <trkpt lat="37.272936000" lon="-5.547917000">
        <ele>111.4</ele>
        <time>2020-10-11T14:18:09Z</time>
      </trkpt>
      <trkpt lat="37.272826000" lon="-5.547800000">
        <ele>111.0</ele>
        <time>2020-10-11T14:18:11Z</time>
      </trkpt>
      <trkpt lat="37.272715000" lon="-5.547665000">
        <ele>110.5</ele>
        <time>2020-10-11T14:18:13Z</time>
      </trkpt>
      <trkpt lat="37.272601000" lon="-5.547526000">
        <ele>110.0</ele>
        <time>2020-10-11T14:18:15Z</time>
      </trkpt>
      <trkpt lat="37.272541000" lon="-5.547454000">
        <ele>109.5</ele>
        <time>2020-10-11T14:18:16Z</time>
      </trkpt>
      <trkpt lat="37.272479000" lon="-5.547381000">
        <ele>108.8</ele>
        <time>2020-10-11T14:18:17Z</time>
      </trkpt>
      <trkpt lat="37.272412000" lon="-5.547303000">
        <ele>108.2</ele>
        <time>2020-10-11T14:18:18Z</time>
      </trkpt>
      <trkpt lat="37.272337000" lon="-5.547230000">
        <ele>107.5</ele>
        <time>2020-10-11T14:18:19Z</time>
      </trkpt>
      <trkpt lat="37.272258000" lon="-5.547159000">
        <ele>106.9</ele>
        <time>2020-10-11T14:18:20Z</time>
      </trkpt>
      <trkpt lat="37.272174000" lon="-5.547096000">
        <ele>106.4</ele>
        <time>2020-10-11T14:18:21Z</time>
      </trkpt>
      <trkpt lat="37.272085000" lon="-5.547035000">
        <ele>105.7</ele>
        <time>2020-10-11T14:18:22Z</time>
      </trkpt>
      <trkpt lat="37.271992000" lon="-5.546982000">
        <ele>105.1</ele>
        <time>2020-10-11T14:18:23Z</time>
      </trkpt>
      <trkpt lat="37.271896000" lon="-5.546930000">
        <ele>104.4</ele>
        <time>2020-10-11T14:18:24Z</time>
      </trkpt>
      <trkpt lat="37.271799000" lon="-5.546881000">
        <ele>103.6</ele>
        <time>2020-10-11T14:18:25Z</time>
      </trkpt>
      <trkpt lat="37.271698000" lon="-5.546831000">
        <ele>102.9</ele>
        <time>2020-10-11T14:18:26Z</time>
      </trkpt>
      <trkpt lat="37.271598000" lon="-5.546785000">
        <ele>102.1</ele>
        <time>2020-10-11T14:18:27Z</time>
      </trkpt>
      <trkpt lat="37.271495000" lon="-5.546749000">
        <ele>101.3</ele>
        <time>2020-10-11T14:18:28Z</time>
      </trkpt>
      <trkpt lat="37.271391000" lon="-5.546721000">
        <ele>100.5</ele>
        <time>2020-10-11T14:18:29Z</time>
      </trkpt>
      <trkpt lat="37.271289000" lon="-5.546696000">
        <ele>99.7</ele>
        <time>2020-10-11T14:18:30Z</time>
      </trkpt>
      <trkpt lat="37.271181000" lon="-5.546668000">
        <ele>99.0</ele>
        <time>2020-10-11T14:18:31Z</time>
      </trkpt>
      <trkpt lat="37.271074000" lon="-5.546643000">
        <ele>98.4</ele>
        <time>2020-10-11T14:18:32Z</time>
      </trkpt>
      <trkpt lat="37.270970000" lon="-5.546614000">
        <ele>97.7</ele>
        <time>2020-10-11T14:18:33Z</time>
      </trkpt>
      <trkpt lat="37.270866000" lon="-5.546590000">
        <ele>97.2</ele>
        <time>2020-10-11T14:18:34Z</time>
      </trkpt>
      <trkpt lat="37.270766000" lon="-5.546569000">
        <ele>96.6</ele>
        <time>2020-10-11T14:18:35Z</time>
      </trkpt>
      <trkpt lat="37.270665000" lon="-5.546546000">
        <ele>96.2</ele>
        <time>2020-10-11T14:18:36Z</time>
      </trkpt>
      <trkpt lat="37.270564000" lon="-5.546526000">
        <ele>95.8</ele>
        <time>2020-10-11T14:18:37Z</time>
      </trkpt>
      <trkpt lat="37.270469000" lon="-5.546503000">
        <ele>95.5</ele>
        <time>2020-10-11T14:18:38Z</time>
      </trkpt>
      <trkpt lat="37.270372000" lon="-5.546484000">
        <ele>95.5</ele>
        <time>2020-10-11T14:18:39Z</time>
      </trkpt>
      <trkpt lat="37.270281000" lon="-5.546465000">
        <ele>95.4</ele>
        <time>2020-10-11T14:18:40Z</time>
      </trkpt>
      <trkpt lat="37.270193000" lon="-5.546447000">
        <ele>95.4</ele>
        <time>2020-10-11T14:18:41Z</time>
      </trkpt>
      <trkpt lat="37.270042000" lon="-5.546407000">
        <ele>95.5</ele>
        <time>2020-10-11T14:18:43Z</time>
      </trkpt>
      <trkpt lat="37.269926000" lon="-5.546384000">
        <ele>95.5</ele>
        <time>2020-10-11T14:18:45Z</time>
      </trkpt>
      <trkpt lat="37.269818000" lon="-5.546355000">
        <ele>95.7</ele>
        <time>2020-10-11T14:18:48Z</time>
      </trkpt>
      <trkpt lat="37.269728000" lon="-5.546328000">
        <ele>95.9</ele>
        <time>2020-10-11T14:18:51Z</time>
      </trkpt>
      <trkpt lat="37.269646000" lon="-5.546302000">
        <ele>96.2</ele>
        <time>2020-10-11T14:18:54Z</time>
      </trkpt>
      <trkpt lat="37.269545000" lon="-5.546276000">
        <ele>96.5</ele>
        <time>2020-10-11T14:18:57Z</time>
      </trkpt>
      <trkpt lat="37.269428000" lon="-5.546241000">
        <ele>96.6</ele>
        <time>2020-10-11T14:19:00Z</time>
      </trkpt>
      <trkpt lat="37.269346000" lon="-5.546217000">
        <ele>96.8</ele>
        <time>2020-10-11T14:19:02Z</time>
      </trkpt>
      <trkpt lat="37.269227000" lon="-5.546183000">
        <ele>96.9</ele>
        <time>2020-10-11T14:19:05Z</time>
      </trkpt>
      <trkpt lat="37.269145000" lon="-5.546162000">
        <ele>97.0</ele>
        <time>2020-10-11T14:19:07Z</time>
      </trkpt>
      <trkpt lat="37.269062000" lon="-5.546140000">
        <ele>97.0</ele>
        <time>2020-10-11T14:19:09Z</time>
      </trkpt>
      <trkpt lat="37.268979000" lon="-5.546116000">
        <ele>97.1</ele>
        <time>2020-10-11T14:19:11Z</time>
      </trkpt>
      <trkpt lat="37.268895000" lon="-5.546092000">
        <ele>97.3</ele>
        <time>2020-10-11T14:19:13Z</time>
      </trkpt>
      <trkpt lat="37.268812000" lon="-5.546061000">
        <ele>97.5</ele>
        <time>2020-10-11T14:19:15Z</time>
      </trkpt>
      <trkpt lat="37.268729000" lon="-5.546032000">
        <ele>97.8</ele>
        <time>2020-10-11T14:19:17Z</time>
      </trkpt>
      <trkpt lat="37.268647000" lon="-5.546004000">
        <ele>98.2</ele>
        <time>2020-10-11T14:19:19Z</time>
      </trkpt>
      <trkpt lat="37.268566000" lon="-5.545973000">
        <ele>98.5</ele>
        <time>2020-10-11T14:19:21Z</time>
      </trkpt>
      <trkpt lat="37.268487000" lon="-5.545936000">
        <ele>99.0</ele>
        <time>2020-10-11T14:19:23Z</time>
      </trkpt>
      <trkpt lat="37.268375000" lon="-5.545891000">
        <ele>99.5</ele>
        <time>2020-10-11T14:19:26Z</time>
      </trkpt>
      <trkpt lat="37.268273000" lon="-5.545852000">
        <ele>99.9</ele>
        <time>2020-10-11T14:19:29Z</time>
      </trkpt>
      <trkpt lat="37.268185000" lon="-5.545813000">
        <ele>100.5</ele>
        <time>2020-10-11T14:19:32Z</time>
      </trkpt>
      <trkpt lat="37.268087000" lon="-5.545767000">
        <ele>101.0</ele>
        <time>2020-10-11T14:19:36Z</time>
      </trkpt>
      <trkpt lat="37.268001000" lon="-5.545725000">
        <ele>101.5</ele>
        <time>2020-10-11T14:19:40Z</time>
      </trkpt>
      <trkpt lat="37.267922000" lon="-5.545685000">
        <ele>102.1</ele>
        <time>2020-10-11T14:19:44Z</time>
      </trkpt>
      <trkpt lat="37.267832000" lon="-5.545654000">
        <ele>102.5</ele>
        <time>2020-10-11T14:19:47Z</time>
      </trkpt>
      <trkpt lat="37.267751000" lon="-5.545609000">
        <ele>103.1</ele>
        <time>2020-10-11T14:19:50Z</time>
      </trkpt>
      <trkpt lat="37.267651000" lon="-5.545563000">
        <ele>103.7</ele>
        <time>2020-10-11T14:19:54Z</time>
      </trkpt>
      <trkpt lat="37.267554000" lon="-5.545528000">
        <ele>104.5</ele>
        <time>2020-10-11T14:19:58Z</time>
      </trkpt>
      <trkpt lat="37.267475000" lon="-5.545502000">
        <ele>105.2</ele>
        <time>2020-10-11T14:20:02Z</time>
      </trkpt>
      <trkpt lat="37.267392000" lon="-5.545466000">
        <ele>106.0</ele>
        <time>2020-10-11T14:20:06Z</time>
      </trkpt>
      <trkpt lat="37.267312000" lon="-5.545421000">
        <ele>106.9</ele>
        <time>2020-10-11T14:20:10Z</time>
      </trkpt>
      <trkpt lat="37.267236000" lon="-5.545341000">
        <ele>107.7</ele>
        <time>2020-10-11T14:20:15Z</time>
      </trkpt>
      <trkpt lat="37.267151000" lon="-5.545284000">
        <ele>108.5</ele>
        <time>2020-10-11T14:20:19Z</time>
      </trkpt>
      <trkpt lat="37.267076000" lon="-5.545209000">
        <ele>109.4</ele>
        <time>2020-10-11T14:20:24Z</time>
      </trkpt>
      <trkpt lat="37.267018000" lon="-5.545112000">
        <ele>110.1</ele>
        <time>2020-10-11T14:20:29Z</time>
      </trkpt>
      <trkpt lat="37.266964000" lon="-5.545031000">
        <ele>110.8</ele>
        <time>2020-10-11T14:20:33Z</time>
      </trkpt>
      <trkpt lat="37.266919000" lon="-5.544941000">
        <ele>111.5</ele>
        <time>2020-10-11T14:20:37Z</time>
      </trkpt>
      <trkpt lat="37.266859000" lon="-5.544849000">
        <ele>111.9</ele>
        <time>2020-10-11T14:20:42Z</time>
      </trkpt>
      <trkpt lat="37.266808000" lon="-5.544769000">
        <ele>112.3</ele>
        <time>2020-10-11T14:20:46Z</time>
      </trkpt>
      <trkpt lat="37.266757000" lon="-5.544687000">
        <ele>112.6</ele>
        <time>2020-10-11T14:20:51Z</time>
      </trkpt>
      <trkpt lat="37.266714000" lon="-5.544601000">
        <ele>112.9</ele>
        <time>2020-10-11T14:20:55Z</time>
      </trkpt>
      <trkpt lat="37.266654000" lon="-5.544508000">
        <ele>113.1</ele>
        <time>2020-10-11T14:21:01Z</time>
      </trkpt>
      <trkpt lat="37.266645000" lon="-5.544403000">
        <ele>113.3</ele>
        <time>2020-10-11T14:21:53Z</time>
      </trkpt>
      <trkpt lat="37.266590000" lon="-5.544321000">
        <ele>113.5</ele>
        <time>2020-10-11T14:21:57Z</time>
      </trkpt>
      <trkpt lat="37.266532000" lon="-5.544224000">
        <ele>113.5</ele>
        <time>2020-10-11T14:22:01Z</time>
      </trkpt>
      <trkpt lat="37.266475000" lon="-5.544125000">
        <ele>113.6</ele>
        <time>2020-10-11T14:22:05Z</time>
      </trkpt>
      <trkpt lat="37.266413000" lon="-5.544020000">
        <ele>113.7</ele>
        <time>2020-10-11T14:22:09Z</time>
      </trkpt>
      <trkpt lat="37.266356000" lon="-5.543919000">
        <ele>113.9</ele>
        <time>2020-10-11T14:22:13Z</time>
      </trkpt>
      <trkpt lat="37.266291000" lon="-5.543821000">
        <ele>114.1</ele>
        <time>2020-10-11T14:22:17Z</time>
      </trkpt>
      <trkpt lat="37.266225000" lon="-5.543738000">
        <ele>114.4</ele>
        <time>2020-10-11T14:22:21Z</time>
      </trkpt>
      <trkpt lat="37.266158000" lon="-5.543662000">
        <ele>114.6</ele>
        <time>2020-10-11T14:22:25Z</time>
      </trkpt>
      <trkpt lat="37.266092000" lon="-5.543571000">
        <ele>115.0</ele>
        <time>2020-10-11T14:22:29Z</time>
      </trkpt>
      <trkpt lat="37.266039000" lon="-5.543491000">
        <ele>115.5</ele>
        <time>2020-10-11T14:22:32Z</time>
      </trkpt>
      <trkpt lat="37.265983000" lon="-5.543408000">
        <ele>115.9</ele>
        <time>2020-10-11T14:22:35Z</time>
      </trkpt>
      <trkpt lat="37.265931000" lon="-5.543323000">
        <ele>116.4</ele>
        <time>2020-10-11T14:22:38Z</time>
      </trkpt>
      <trkpt lat="37.265878000" lon="-5.543240000">
        <ele>116.8</ele>
        <time>2020-10-11T14:22:41Z</time>
      </trkpt>
      <trkpt lat="37.265822000" lon="-5.543137000">
        <ele>117.3</ele>
        <time>2020-10-11T14:22:44Z</time>
      </trkpt>
      <trkpt lat="37.265768000" lon="-5.543053000">
        <ele>117.7</ele>
        <time>2020-10-11T14:22:47Z</time>
      </trkpt>
      <trkpt lat="37.265717000" lon="-5.542971000">
        <ele>118.1</ele>
        <time>2020-10-11T14:22:50Z</time>
      </trkpt>
      <trkpt lat="37.265666000" lon="-5.542890000">
        <ele>118.5</ele>
        <time>2020-10-11T14:22:53Z</time>
      </trkpt>
      <trkpt lat="37.265609000" lon="-5.542811000">
        <ele>118.7</ele>
        <time>2020-10-11T14:22:56Z</time>
      </trkpt>
      <trkpt lat="37.265556000" lon="-5.542727000">
        <ele>118.9</ele>
        <time>2020-10-11T14:22:59Z</time>
      </trkpt>
      <trkpt lat="37.265499000" lon="-5.542646000">
        <ele>119.0</ele>
        <time>2020-10-11T14:23:02Z</time>
      </trkpt>
      <trkpt lat="37.265442000" lon="-5.542567000">
        <ele>118.9</ele>
        <time>2020-10-11T14:23:05Z</time>
      </trkpt>
      <trkpt lat="37.265382000" lon="-5.542482000">
        <ele>118.8</ele>
        <time>2020-10-11T14:23:08Z</time>
      </trkpt>
      <trkpt lat="37.265326000" lon="-5.542398000">
        <ele>118.7</ele>
        <time>2020-10-11T14:23:11Z</time>
      </trkpt>
      <trkpt lat="37.265270000" lon="-5.542312000">
        <ele>118.6</ele>
        <time>2020-10-11T14:23:14Z</time>
      </trkpt>
      <trkpt lat="37.265207000" lon="-5.542222000">
        <ele>118.5</ele>
        <time>2020-10-11T14:23:17Z</time>
      </trkpt>
      <trkpt lat="37.265151000" lon="-5.542137000">
        <ele>118.4</ele>
        <time>2020-10-11T14:23:20Z</time>
      </trkpt>
      <trkpt lat="37.265098000" lon="-5.542051000">
        <ele>118.2</ele>
        <time>2020-10-11T14:23:23Z</time>
      </trkpt>
      <trkpt lat="37.265048000" lon="-5.541969000">
        <ele>118.0</ele>
        <time>2020-10-11T14:23:26Z</time>
      </trkpt>
      <trkpt lat="37.264983000" lon="-5.541861000">
        <ele>117.8</ele>
        <time>2020-10-11T14:23:30Z</time>
      </trkpt>
      <trkpt lat="37.264930000" lon="-5.541764000">
        <ele>117.6</ele>
        <time>2020-10-11T14:23:33Z</time>
      </trkpt>
      <trkpt lat="37.264873000" lon="-5.541672000">
        <ele>117.5</ele>
        <time>2020-10-11T14:23:36Z</time>
      </trkpt>
      <trkpt lat="37.264823000" lon="-5.541584000">
        <ele>117.4</ele>
        <time>2020-10-11T14:23:39Z</time>
      </trkpt>
      <trkpt lat="37.264760000" lon="-5.541475000">
        <ele>117.3</ele>
        <time>2020-10-11T14:23:43Z</time>
      </trkpt>
      <trkpt lat="37.264701000" lon="-5.541369000">
        <ele>117.2</ele>
        <time>2020-10-11T14:23:47Z</time>
      </trkpt>
      <trkpt lat="37.264617000" lon="-5.541353000">
        <ele>117.1</ele>
        <time>2020-10-11T14:23:51Z</time>
      </trkpt>
      <trkpt lat="37.264700000" lon="-5.541341000">
        <ele>117.1</ele>
        <time>2020-10-11T14:24:05Z</time>
      </trkpt>
      <trkpt lat="37.264767000" lon="-5.541434000">
        <ele>117.2</ele>
        <time>2020-10-11T14:24:08Z</time>
      </trkpt>
      <trkpt lat="37.264825000" lon="-5.541543000">
        <ele>117.3</ele>
        <time>2020-10-11T14:24:11Z</time>
      </trkpt>
      <trkpt lat="37.264889000" lon="-5.541651000">
        <ele>117.4</ele>
        <time>2020-10-11T14:24:14Z</time>
      </trkpt>
      <trkpt lat="37.264945000" lon="-5.541765000">
        <ele>117.5</ele>
        <time>2020-10-11T14:24:17Z</time>
      </trkpt>
      <trkpt lat="37.264980000" lon="-5.541879000">
        <ele>117.7</ele>
        <time>2020-10-11T14:24:20Z</time>
      </trkpt>
      <trkpt lat="37.264925000" lon="-5.541993000">
        <ele>118.0</ele>
        <time>2020-10-11T14:24:23Z</time>
      </trkpt>
      <trkpt lat="37.264863000" lon="-5.542064000">
        <ele>118.3</ele>
        <time>2020-10-11T14:24:25Z</time>
      </trkpt>
      <trkpt lat="37.264798000" lon="-5.542129000">
        <ele>118.5</ele>
        <time>2020-10-11T14:24:27Z</time>
      </trkpt>
      <trkpt lat="37.264710000" lon="-5.542231000">
        <ele>118.8</ele>
        <time>2020-10-11T14:24:30Z</time>
      </trkpt>
      <trkpt lat="37.264622000" lon="-5.542330000">
        <ele>119.2</ele>
        <time>2020-10-11T14:24:33Z</time>
      </trkpt>
      <trkpt lat="37.264534000" lon="-5.542417000">
        <ele>119.4</ele>
        <time>2020-10-11T14:24:36Z</time>
      </trkpt>
      <trkpt lat="37.264456000" lon="-5.542502000">
        <ele>119.5</ele>
        <time>2020-10-11T14:24:39Z</time>
      </trkpt>
      <trkpt lat="37.264383000" lon="-5.542593000">
        <ele>119.8</ele>
        <time>2020-10-11T14:24:42Z</time>
      </trkpt>
      <trkpt lat="37.264317000" lon="-5.542687000">
        <ele>120.1</ele>
        <time>2020-10-11T14:24:45Z</time>
      </trkpt>
      <trkpt lat="37.264254000" lon="-5.542787000">
        <ele>120.2</ele>
        <time>2020-10-11T14:24:48Z</time>
      </trkpt>
      <trkpt lat="37.264180000" lon="-5.542902000">
        <ele>120.3</ele>
        <time>2020-10-11T14:24:51Z</time>
      </trkpt>
      <trkpt lat="37.264109000" lon="-5.542999000">
        <ele>120.2</ele>
        <time>2020-10-11T14:24:54Z</time>
      </trkpt>
      <trkpt lat="37.264019000" lon="-5.543035000">
        <ele>120.1</ele>
        <time>2020-10-11T14:24:59Z</time>
      </trkpt>
      <trkpt lat="37.263923000" lon="-5.543060000">
        <ele>119.9</ele>
        <time>2020-10-11T14:25:03Z</time>
      </trkpt>
      <trkpt lat="37.263850000" lon="-5.543110000">
        <ele>119.7</ele>
        <time>2020-10-11T14:25:06Z</time>
      </trkpt>
      <trkpt lat="37.263752000" lon="-5.543157000">
        <ele>119.5</ele>
        <time>2020-10-11T14:25:10Z</time>
      </trkpt>
      <trkpt lat="37.263662000" lon="-5.543199000">
        <ele>119.3</ele>
        <time>2020-10-11T14:25:14Z</time>
      </trkpt>
      <trkpt lat="37.263572000" lon="-5.543226000">
        <ele>119.1</ele>
        <time>2020-10-11T14:25:18Z</time>
      </trkpt>
      <trkpt lat="37.263483000" lon="-5.543240000">
        <ele>118.9</ele>
        <time>2020-10-11T14:25:22Z</time>
      </trkpt>
      <trkpt lat="37.263381000" lon="-5.543279000">
        <ele>118.7</ele>
        <time>2020-10-11T14:25:26Z</time>
      </trkpt>
      <trkpt lat="37.263301000" lon="-5.543363000">
        <ele>118.6</ele>
        <time>2020-10-11T14:25:30Z</time>
      </trkpt>
      <trkpt lat="37.263227000" lon="-5.543463000">
        <ele>118.5</ele>
        <time>2020-10-11T14:25:34Z</time>
      </trkpt>
      <trkpt lat="37.263177000" lon="-5.543555000">
        <ele>118.5</ele>
        <time>2020-10-11T14:25:37Z</time>
      </trkpt>
      <trkpt lat="37.263128000" lon="-5.543651000">
        <ele>118.5</ele>
        <time>2020-10-11T14:25:40Z</time>
      </trkpt>
      <trkpt lat="37.263072000" lon="-5.543754000">
        <ele>118.5</ele>
        <time>2020-10-11T14:25:44Z</time>
      </trkpt>
      <trkpt lat="37.263025000" lon="-5.543866000">
        <ele>118.5</ele>
        <time>2020-10-11T14:25:49Z</time>
      </trkpt>
      <trkpt lat="37.262987000" lon="-5.543983000">
        <ele>118.5</ele>
        <time>2020-10-11T14:25:52Z</time>
      </trkpt>
      <trkpt lat="37.262939000" lon="-5.544093000">
        <ele>118.5</ele>
        <time>2020-10-11T14:25:55Z</time>
      </trkpt>
      <trkpt lat="37.262883000" lon="-5.544206000">
        <ele>118.4</ele>
        <time>2020-10-11T14:25:58Z</time>
      </trkpt>
      <trkpt lat="37.262835000" lon="-5.544317000">
        <ele>118.2</ele>
        <time>2020-10-11T14:26:01Z</time>
      </trkpt>
      <trkpt lat="37.262779000" lon="-5.544424000">
        <ele>118.0</ele>
        <time>2020-10-11T14:26:04Z</time>
      </trkpt>
      <trkpt lat="37.262728000" lon="-5.544525000">
        <ele>117.9</ele>
        <time>2020-10-11T14:26:07Z</time>
      </trkpt>
      <trkpt lat="37.262684000" lon="-5.544616000">
        <ele>117.8</ele>
        <time>2020-10-11T14:26:10Z</time>
      </trkpt>
      <trkpt lat="37.262639000" lon="-5.544720000">
        <ele>117.7</ele>
        <time>2020-10-11T14:26:14Z</time>
      </trkpt>
      <trkpt lat="37.262567000" lon="-5.544791000">
        <ele>117.7</ele>
        <time>2020-10-11T14:26:19Z</time>
      </trkpt>
      <trkpt lat="37.262483000" lon="-5.544743000">
        <ele>117.7</ele>
        <time>2020-10-11T14:26:24Z</time>
      </trkpt>
      <trkpt lat="37.262400000" lon="-5.544727000">
        <ele>117.7</ele>
        <time>2020-10-11T14:26:31Z</time>
      </trkpt>
      <trkpt lat="37.262339000" lon="-5.544814000">
        <ele>117.7</ele>
        <time>2020-10-11T14:26:36Z</time>
      </trkpt>
      <trkpt lat="37.262284000" lon="-5.544892000">
        <ele>117.8</ele>
        <time>2020-10-11T14:26:45Z</time>
      </trkpt>
      <trkpt lat="37.262253000" lon="-5.545005000">
        <ele>118.0</ele>
        <time>2020-10-11T14:27:00Z</time>
      </trkpt>
      <trkpt lat="37.262240000" lon="-5.545124000">
        <ele>118.2</ele>
        <time>2020-10-11T14:27:05Z</time>
      </trkpt>
      <trkpt lat="37.262203000" lon="-5.545235000">
        <ele>118.4</ele>
        <time>2020-10-11T14:27:10Z</time>
      </trkpt>
      <trkpt lat="37.262179000" lon="-5.545340000">
        <ele>118.5</ele>
        <time>2020-10-11T14:27:15Z</time>
      </trkpt>
      <trkpt lat="37.262166000" lon="-5.545451000">
        <ele>118.5</ele>
        <time>2020-10-11T14:27:20Z</time>
      </trkpt>
      <trkpt lat="37.262097000" lon="-5.545520000">
        <ele>118.4</ele>
        <time>2020-10-11T14:27:24Z</time>
      </trkpt>
      <trkpt lat="37.262017000" lon="-5.545587000">
        <ele>118.2</ele>
        <time>2020-10-11T14:27:28Z</time>
      </trkpt>
      <trkpt lat="37.261930000" lon="-5.545648000">
        <ele>118.1</ele>
        <time>2020-10-11T14:27:32Z</time>
      </trkpt>
      <trkpt lat="37.261859000" lon="-5.545705000">
        <ele>117.9</ele>
        <time>2020-10-11T14:27:35Z</time>
      </trkpt>
      <trkpt lat="37.261783000" lon="-5.545756000">
        <ele>117.7</ele>
        <time>2020-10-11T14:27:38Z</time>
      </trkpt>
      <trkpt lat="37.261707000" lon="-5.545806000">
        <ele>117.5</ele>
        <time>2020-10-11T14:27:41Z</time>
      </trkpt>
      <trkpt lat="37.261620000" lon="-5.545880000">
        <ele>117.4</ele>
        <time>2020-10-11T14:27:45Z</time>
      </trkpt>
      <trkpt lat="37.261537000" lon="-5.545951000">
        <ele>117.2</ele>
        <time>2020-10-11T14:27:49Z</time>
      </trkpt>
      <trkpt lat="37.261455000" lon="-5.545995000">
        <ele>117.0</ele>
        <time>2020-10-11T14:27:54Z</time>
      </trkpt>
      <trkpt lat="37.261383000" lon="-5.546055000">
        <ele>116.8</ele>
        <time>2020-10-11T14:27:58Z</time>
      </trkpt>
      <trkpt lat="37.261297000" lon="-5.546105000">
        <ele>116.7</ele>
        <time>2020-10-11T14:28:03Z</time>
      </trkpt>
      <trkpt lat="37.261220000" lon="-5.546161000">
        <ele>116.7</ele>
        <time>2020-10-11T14:28:07Z</time>
      </trkpt>
      <trkpt lat="37.261151000" lon="-5.546225000">
        <ele>116.7</ele>
        <time>2020-10-11T14:28:11Z</time>
      </trkpt>
      <trkpt lat="37.261074000" lon="-5.546293000">
        <ele>116.7</ele>
        <time>2020-10-11T14:28:15Z</time>
      </trkpt>
      <trkpt lat="37.261004000" lon="-5.546364000">
        <ele>116.7</ele>
        <time>2020-10-11T14:28:19Z</time>
      </trkpt>
      <trkpt lat="37.260940000" lon="-5.546431000">
        <ele>116.7</ele>
        <time>2020-10-11T14:28:23Z</time>
      </trkpt>
      <trkpt lat="37.261099000" lon="-5.546387000">
        <ele>116.7</ele>
        <time>2020-10-11T14:28:42Z</time>
      </trkpt>
      <trkpt lat="37.261168000" lon="-5.546309000">
        <ele>116.6</ele>
        <time>2020-10-11T14:28:47Z</time>
      </trkpt>
      <trkpt lat="37.261247000" lon="-5.546242000">
        <ele>116.6</ele>
        <time>2020-10-11T14:28:50Z</time>
      </trkpt>
      <trkpt lat="37.261327000" lon="-5.546194000">
        <ele>116.6</ele>
        <time>2020-10-11T14:28:53Z</time>
      </trkpt>
      <trkpt lat="37.261425000" lon="-5.546120000">
        <ele>116.7</ele>
        <time>2020-10-11T14:28:57Z</time>
      </trkpt>
      <trkpt lat="37.261512000" lon="-5.546066000">
        <ele>116.8</ele>
        <time>2020-10-11T14:29:00Z</time>
      </trkpt>
      <trkpt lat="37.261584000" lon="-5.546009000">
        <ele>117.0</ele>
        <time>2020-10-11T14:29:05Z</time>
      </trkpt>
      <trkpt lat="37.261662000" lon="-5.545943000">
        <ele>117.2</ele>
        <time>2020-10-11T14:29:06Z</time>
      </trkpt>
      <trkpt lat="37.261732000" lon="-5.545881000">
        <ele>117.4</ele>
        <time>2020-10-11T14:29:09Z</time>
      </trkpt>
      <trkpt lat="37.261803000" lon="-5.545814000">
        <ele>117.6</ele>
        <time>2020-10-11T14:29:12Z</time>
      </trkpt>
      <trkpt lat="37.261868000" lon="-5.545745000">
        <ele>117.8</ele>
        <time>2020-10-11T14:29:16Z</time>
      </trkpt>
      <trkpt lat="37.261931000" lon="-5.545677000">
        <ele>118.0</ele>
        <time>2020-10-11T14:29:21Z</time>
      </trkpt>
      <trkpt lat="37.262001000" lon="-5.545598000">
        <ele>118.2</ele>
        <time>2020-10-11T14:29:26Z</time>
      </trkpt>
      <trkpt lat="37.262061000" lon="-5.545512000">
        <ele>118.3</ele>
        <time>2020-10-11T14:29:31Z</time>
      </trkpt>
      <trkpt lat="37.262149000" lon="-5.545452000">
        <ele>118.4</ele>
        <time>2020-10-11T14:29:35Z</time>
      </trkpt>
      <trkpt lat="37.262205000" lon="-5.545378000">
        <ele>118.4</ele>
        <time>2020-10-11T14:30:41Z</time>
      </trkpt>
      <trkpt lat="37.262242000" lon="-5.545287000">
        <ele>118.4</ele>
        <time>2020-10-11T14:30:49Z</time>
      </trkpt>
      <trkpt lat="37.262276000" lon="-5.545186000">
        <ele>118.3</ele>
        <time>2020-10-11T14:30:55Z</time>
      </trkpt>
      <trkpt lat="37.262280000" lon="-5.545060000">
        <ele>118.1</ele>
        <time>2020-10-11T14:31:00Z</time>
      </trkpt>
      <trkpt lat="37.262294000" lon="-5.544942000">
        <ele>117.9</ele>
        <time>2020-10-11T14:31:05Z</time>
      </trkpt>
      <trkpt lat="37.262318000" lon="-5.544837000">
        <ele>117.8</ele>
        <time>2020-10-11T14:31:14Z</time>
      </trkpt>
      <trkpt lat="37.262328000" lon="-5.544735000">
        <ele>117.8</ele>
        <time>2020-10-11T14:31:21Z</time>
      </trkpt>
      <trkpt lat="37.262422000" lon="-5.544697000">
        <ele>117.8</ele>
        <time>2020-10-11T14:32:27Z</time>
      </trkpt>
      <trkpt lat="37.262505000" lon="-5.544717000">
        <ele>117.7</ele>
        <time>2020-10-11T14:32:36Z</time>
      </trkpt>
      <trkpt lat="37.262483000" lon="-5.544723000">
        <ele>117.7</ele>
        <time>2020-10-11T14:34:28Z</time>
      </trkpt>
      <trkpt lat="37.262320000" lon="-5.544699000">
        <ele>118.0</ele>
        <time>2020-10-11T15:39:38Z</time>
      </trkpt>
      <trkpt lat="37.262335000" lon="-5.544603000">
        <ele>118.0</ele>
        <time>2020-10-11T15:40:53Z</time>
      </trkpt>
      <trkpt lat="37.262326000" lon="-5.544499000">
        <ele>118.0</ele>
        <time>2020-10-11T15:40:56Z</time>
      </trkpt>
      <trkpt lat="37.262322000" lon="-5.544385000">
        <ele>118.0</ele>
        <time>2020-10-11T15:40:59Z</time>
      </trkpt>
      <trkpt lat="37.262319000" lon="-5.544263000">
        <ele>118.0</ele>
        <time>2020-10-11T15:41:02Z</time>
      </trkpt>
      <trkpt lat="37.262319000" lon="-5.544132000">
        <ele>118.1</ele>
        <time>2020-10-11T15:41:06Z</time>
      </trkpt>
      <trkpt lat="37.262327000" lon="-5.543998000">
        <ele>118.2</ele>
        <time>2020-10-11T15:41:10Z</time>
      </trkpt>
      <trkpt lat="37.262339000" lon="-5.543883000">
        <ele>118.2</ele>
        <time>2020-10-11T15:41:13Z</time>
      </trkpt>
      <trkpt lat="37.262336000" lon="-5.543779000">
        <ele>118.2</ele>
        <time>2020-10-11T15:41:16Z</time>
      </trkpt>
      <trkpt lat="37.262355000" lon="-5.543657000">
        <ele>118.3</ele>
        <time>2020-10-11T15:41:20Z</time>
      </trkpt>
      <trkpt lat="37.262400000" lon="-5.543570000">
        <ele>118.4</ele>
        <time>2020-10-11T15:41:23Z</time>
      </trkpt>
      <trkpt lat="37.262466000" lon="-5.543494000">
        <ele>118.5</ele>
        <time>2020-10-11T15:41:26Z</time>
      </trkpt>
      <trkpt lat="37.262532000" lon="-5.543427000">
        <ele>118.5</ele>
        <time>2020-10-11T15:41:29Z</time>
      </trkpt>
      <trkpt lat="37.262604000" lon="-5.543366000">
        <ele>118.6</ele>
        <time>2020-10-11T15:41:32Z</time>
      </trkpt>
      <trkpt lat="37.262662000" lon="-5.543288000">
        <ele>118.7</ele>
        <time>2020-10-11T15:41:36Z</time>
      </trkpt>
      <trkpt lat="37.262700000" lon="-5.543187000">
        <ele>118.8</ele>
        <time>2020-10-11T15:41:40Z</time>
      </trkpt>
      <trkpt lat="37.262749000" lon="-5.543081000">
        <ele>118.8</ele>
        <time>2020-10-11T15:41:44Z</time>
      </trkpt>
      <trkpt lat="37.262814000" lon="-5.543005000">
        <ele>118.8</ele>
        <time>2020-10-11T15:41:47Z</time>
      </trkpt>
      <trkpt lat="37.262877000" lon="-5.542930000">
        <ele>118.9</ele>
        <time>2020-10-11T15:41:50Z</time>
      </trkpt>
      <trkpt lat="37.262957000" lon="-5.542852000">
        <ele>118.9</ele>
        <time>2020-10-11T15:41:53Z</time>
      </trkpt>
      <trkpt lat="37.263036000" lon="-5.542789000">
        <ele>118.8</ele>
        <time>2020-10-11T15:41:56Z</time>
      </trkpt>
      <trkpt lat="37.263106000" lon="-5.542739000">
        <ele>118.8</ele>
        <time>2020-10-11T15:41:59Z</time>
      </trkpt>
      <trkpt lat="37.263183000" lon="-5.542673000">
        <ele>118.8</ele>
        <time>2020-10-11T15:42:02Z</time>
      </trkpt>
      <trkpt lat="37.263255000" lon="-5.542604000">
        <ele>118.8</ele>
        <time>2020-10-11T15:42:05Z</time>
      </trkpt>
      <trkpt lat="37.263323000" lon="-5.542521000">
        <ele>118.8</ele>
        <time>2020-10-11T15:42:08Z</time>
      </trkpt>
      <trkpt lat="37.263401000" lon="-5.542453000">
        <ele>118.9</ele>
        <time>2020-10-11T15:42:11Z</time>
      </trkpt>
      <trkpt lat="37.263485000" lon="-5.542394000">
        <ele>119.0</ele>
        <time>2020-10-11T15:42:14Z</time>
      </trkpt>
      <trkpt lat="37.263577000" lon="-5.542341000">
        <ele>119.1</ele>
        <time>2020-10-11T15:42:17Z</time>
      </trkpt>
      <trkpt lat="37.263665000" lon="-5.542294000">
        <ele>119.2</ele>
        <time>2020-10-11T15:42:21Z</time>
      </trkpt>
      <trkpt lat="37.263746000" lon="-5.542255000">
        <ele>119.3</ele>
        <time>2020-10-11T15:42:24Z</time>
      </trkpt>
      <trkpt lat="37.263831000" lon="-5.542214000">
        <ele>119.5</ele>
        <time>2020-10-11T15:42:27Z</time>
      </trkpt>
      <trkpt lat="37.263922000" lon="-5.542171000">
        <ele>119.6</ele>
        <time>2020-10-11T15:42:30Z</time>
      </trkpt>
      <trkpt lat="37.264011000" lon="-5.542135000">
        <ele>119.7</ele>
        <time>2020-10-11T15:42:33Z</time>
      </trkpt>
      <trkpt lat="37.264108000" lon="-5.542093000">
        <ele>119.7</ele>
        <time>2020-10-11T15:42:36Z</time>
      </trkpt>
      <trkpt lat="37.264198000" lon="-5.542050000">
        <ele>119.6</ele>
        <time>2020-10-11T15:42:39Z</time>
      </trkpt>
      <trkpt lat="37.264286000" lon="-5.541998000">
        <ele>119.5</ele>
        <time>2020-10-11T15:42:42Z</time>
      </trkpt>
      <trkpt lat="37.264365000" lon="-5.541960000">
        <ele>119.4</ele>
        <time>2020-10-11T15:42:45Z</time>
      </trkpt>
      <trkpt lat="37.264443000" lon="-5.541920000">
        <ele>119.1</ele>
        <time>2020-10-11T15:42:48Z</time>
      </trkpt>
      <trkpt lat="37.264532000" lon="-5.541853000">
        <ele>118.8</ele>
        <time>2020-10-11T15:42:52Z</time>
      </trkpt>
      <trkpt lat="37.264614000" lon="-5.541774000">
        <ele>118.5</ele>
        <time>2020-10-11T15:42:56Z</time>
      </trkpt>
      <trkpt lat="37.264677000" lon="-5.541703000">
        <ele>118.4</ele>
        <time>2020-10-11T15:42:59Z</time>
      </trkpt>
      <trkpt lat="37.264749000" lon="-5.541638000">
        <ele>118.2</ele>
        <time>2020-10-11T15:43:03Z</time>
      </trkpt>
      <trkpt lat="37.264815000" lon="-5.541568000">
        <ele>118.0</ele>
        <time>2020-10-11T15:43:20Z</time>
      </trkpt>
      <trkpt lat="37.264909000" lon="-5.541626000">
        <ele>117.8</ele>
        <time>2020-10-11T15:43:24Z</time>
      </trkpt>
      <trkpt lat="37.264972000" lon="-5.541734000">
        <ele>117.7</ele>
        <time>2020-10-11T15:43:27Z</time>
      </trkpt>
      <trkpt lat="37.265034000" lon="-5.541845000">
        <ele>117.7</ele>
        <time>2020-10-11T15:43:30Z</time>
      </trkpt>
      <trkpt lat="37.265105000" lon="-5.541939000">
        <ele>117.7</ele>
        <time>2020-10-11T15:43:33Z</time>
      </trkpt>
      <trkpt lat="37.265203000" lon="-5.541926000">
        <ele>117.8</ele>
        <time>2020-10-11T15:43:36Z</time>
      </trkpt>
      <trkpt lat="37.265314000" lon="-5.541870000">
        <ele>118.0</ele>
        <time>2020-10-11T15:43:39Z</time>
      </trkpt>
      <trkpt lat="37.265398000" lon="-5.541835000">
        <ele>118.2</ele>
        <time>2020-10-11T15:43:41Z</time>
      </trkpt>
      <trkpt lat="37.265497000" lon="-5.541801000">
        <ele>118.4</ele>
        <time>2020-10-11T15:43:43Z</time>
      </trkpt>
      <trkpt lat="37.265580000" lon="-5.541759000">
        <ele>118.5</ele>
        <time>2020-10-11T15:43:45Z</time>
      </trkpt>
      <trkpt lat="37.265668000" lon="-5.541710000">
        <ele>118.5</ele>
        <time>2020-10-11T15:43:47Z</time>
      </trkpt>
      <trkpt lat="37.265754000" lon="-5.541662000">
        <ele>118.6</ele>
        <time>2020-10-11T15:43:49Z</time>
      </trkpt>
      <trkpt lat="37.265846000" lon="-5.541619000">
        <ele>118.6</ele>
        <time>2020-10-11T15:43:51Z</time>
      </trkpt>
      <trkpt lat="37.265931000" lon="-5.541578000">
        <ele>118.6</ele>
        <time>2020-10-11T15:43:53Z</time>
      </trkpt>
      <trkpt lat="37.266020000" lon="-5.541535000">
        <ele>118.6</ele>
        <time>2020-10-11T15:43:55Z</time>
      </trkpt>
      <trkpt lat="37.266108000" lon="-5.541493000">
        <ele>118.5</ele>
        <time>2020-10-11T15:43:57Z</time>
      </trkpt>
      <trkpt lat="37.266197000" lon="-5.541462000">
        <ele>118.4</ele>
        <time>2020-10-11T15:43:59Z</time>
      </trkpt>
      <trkpt lat="37.266285000" lon="-5.541420000">
        <ele>118.2</ele>
        <time>2020-10-11T15:44:01Z</time>
      </trkpt>
      <trkpt lat="37.266365000" lon="-5.541367000">
        <ele>117.9</ele>
        <time>2020-10-11T15:44:03Z</time>
      </trkpt>
      <trkpt lat="37.266458000" lon="-5.541327000">
        <ele>117.5</ele>
        <time>2020-10-11T15:44:05Z</time>
      </trkpt>
      <trkpt lat="37.266553000" lon="-5.541304000">
        <ele>117.2</ele>
        <time>2020-10-11T15:44:07Z</time>
      </trkpt>
      <trkpt lat="37.266646000" lon="-5.541274000">
        <ele>116.7</ele>
        <time>2020-10-11T15:44:09Z</time>
      </trkpt>
      <trkpt lat="37.266727000" lon="-5.541245000">
        <ele>116.3</ele>
        <time>2020-10-11T15:44:11Z</time>
      </trkpt>
      <trkpt lat="37.266829000" lon="-5.541209000">
        <ele>115.9</ele>
        <time>2020-10-11T15:44:14Z</time>
      </trkpt>
      <trkpt lat="37.266933000" lon="-5.541168000">
        <ele>115.5</ele>
        <time>2020-10-11T15:44:17Z</time>
      </trkpt>
      <trkpt lat="37.267028000" lon="-5.541135000">
        <ele>115.2</ele>
        <time>2020-10-11T15:44:20Z</time>
      </trkpt>
      <trkpt lat="37.267144000" lon="-5.541108000">
        <ele>114.9</ele>
        <time>2020-10-11T15:44:23Z</time>
      </trkpt>
      <trkpt lat="37.267222000" lon="-5.541078000">
        <ele>114.6</ele>
        <time>2020-10-11T15:44:25Z</time>
      </trkpt>
      <trkpt lat="37.267307000" lon="-5.541049000">
        <ele>114.4</ele>
        <time>2020-10-11T15:44:27Z</time>
      </trkpt>
      <trkpt lat="37.267389000" lon="-5.541018000">
        <ele>114.1</ele>
        <time>2020-10-11T15:44:29Z</time>
      </trkpt>
      <trkpt lat="37.267471000" lon="-5.540986000">
        <ele>113.8</ele>
        <time>2020-10-11T15:44:31Z</time>
      </trkpt>
      <trkpt lat="37.267554000" lon="-5.540956000">
        <ele>113.5</ele>
        <time>2020-10-11T15:44:33Z</time>
      </trkpt>
      <trkpt lat="37.267641000" lon="-5.540930000">
        <ele>113.1</ele>
        <time>2020-10-11T15:44:35Z</time>
      </trkpt>
      <trkpt lat="37.267723000" lon="-5.540908000">
        <ele>112.6</ele>
        <time>2020-10-11T15:44:37Z</time>
      </trkpt>
      <trkpt lat="37.267804000" lon="-5.540883000">
        <ele>112.1</ele>
        <time>2020-10-11T15:44:39Z</time>
      </trkpt>
      <trkpt lat="37.267915000" lon="-5.540839000">
        <ele>111.5</ele>
        <time>2020-10-11T15:44:42Z</time>
      </trkpt>
      <trkpt lat="37.268020000" lon="-5.540785000">
        <ele>110.7</ele>
        <time>2020-10-11T15:44:45Z</time>
      </trkpt>
      <trkpt lat="37.268092000" lon="-5.540726000">
        <ele>109.8</ele>
        <time>2020-10-11T15:44:47Z</time>
      </trkpt>
      <trkpt lat="37.268183000" lon="-5.540642000">
        <ele>108.8</ele>
        <time>2020-10-11T15:44:49Z</time>
      </trkpt>
      <trkpt lat="37.268291000" lon="-5.540547000">
        <ele>107.6</ele>
        <time>2020-10-11T15:44:51Z</time>
      </trkpt>
      <trkpt lat="37.268414000" lon="-5.540440000">
        <ele>106.5</ele>
        <time>2020-10-11T15:44:53Z</time>
      </trkpt>
      <trkpt lat="37.268537000" lon="-5.540325000">
        <ele>105.2</ele>
        <time>2020-10-11T15:44:55Z</time>
      </trkpt>
      <trkpt lat="37.268665000" lon="-5.540214000">
        <ele>103.8</ele>
        <time>2020-10-11T15:44:57Z</time>
      </trkpt>
      <trkpt lat="37.268792000" lon="-5.540103000">
        <ele>102.5</ele>
        <time>2020-10-11T15:44:59Z</time>
      </trkpt>
      <trkpt lat="37.268920000" lon="-5.539987000">
        <ele>101.1</ele>
        <time>2020-10-11T15:45:01Z</time>
      </trkpt>
      <trkpt lat="37.268988000" lon="-5.539926000">
        <ele>99.7</ele>
        <time>2020-10-11T15:45:02Z</time>
      </trkpt>
      <trkpt lat="37.269054000" lon="-5.539859000">
        <ele>98.4</ele>
        <time>2020-10-11T15:45:03Z</time>
      </trkpt>
      <trkpt lat="37.269121000" lon="-5.539785000">
        <ele>97.1</ele>
        <time>2020-10-11T15:45:04Z</time>
      </trkpt>
      <trkpt lat="37.269191000" lon="-5.539711000">
        <ele>96.1</ele>
        <time>2020-10-11T15:45:05Z</time>
      </trkpt>
      <trkpt lat="37.269254000" lon="-5.539627000">
        <ele>95.2</ele>
        <time>2020-10-11T15:45:06Z</time>
      </trkpt>
      <trkpt lat="37.269315000" lon="-5.539537000">
        <ele>94.5</ele>
        <time>2020-10-11T15:45:07Z</time>
      </trkpt>
      <trkpt lat="37.269370000" lon="-5.539447000">
        <ele>94.0</ele>
        <time>2020-10-11T15:45:08Z</time>
      </trkpt>
      <trkpt lat="37.269421000" lon="-5.539353000">
        <ele>93.6</ele>
        <time>2020-10-11T15:45:09Z</time>
      </trkpt>
      <trkpt lat="37.269469000" lon="-5.539255000">
        <ele>93.5</ele>
        <time>2020-10-11T15:45:10Z</time>
      </trkpt>
      <trkpt lat="37.269514000" lon="-5.539161000">
        <ele>93.4</ele>
        <time>2020-10-11T15:45:11Z</time>
      </trkpt>
      <trkpt lat="37.269557000" lon="-5.539066000">
        <ele>93.4</ele>
        <time>2020-10-11T15:45:12Z</time>
      </trkpt>
      <trkpt lat="37.269597000" lon="-5.538971000">
        <ele>93.3</ele>
        <time>2020-10-11T15:45:13Z</time>
      </trkpt>
      <trkpt lat="37.269637000" lon="-5.538876000">
        <ele>93.3</ele>
        <time>2020-10-11T15:45:14Z</time>
      </trkpt>
      <trkpt lat="37.269676000" lon="-5.538781000">
        <ele>93.2</ele>
        <time>2020-10-11T15:45:15Z</time>
      </trkpt>
      <trkpt lat="37.269713000" lon="-5.538686000">
        <ele>92.9</ele>
        <time>2020-10-11T15:45:16Z</time>
      </trkpt>
      <trkpt lat="37.269753000" lon="-5.538592000">
        <ele>92.6</ele>
        <time>2020-10-11T15:45:17Z</time>
      </trkpt>
      <trkpt lat="37.269835000" lon="-5.538418000">
        <ele>92.4</ele>
        <time>2020-10-11T15:45:19Z</time>
      </trkpt>
      <trkpt lat="37.269902000" lon="-5.538239000">
        <ele>92.1</ele>
        <time>2020-10-11T15:45:21Z</time>
      </trkpt>
      <trkpt lat="37.269971000" lon="-5.538064000">
        <ele>91.9</ele>
        <time>2020-10-11T15:45:23Z</time>
      </trkpt>
      <trkpt lat="37.270040000" lon="-5.537889000">
        <ele>91.6</ele>
        <time>2020-10-11T15:45:25Z</time>
      </trkpt>
      <trkpt lat="37.270111000" lon="-5.537718000">
        <ele>91.3</ele>
        <time>2020-10-11T15:45:27Z</time>
      </trkpt>
      <trkpt lat="37.270183000" lon="-5.537547000">
        <ele>90.8</ele>
        <time>2020-10-11T15:45:29Z</time>
      </trkpt>
      <trkpt lat="37.270247000" lon="-5.537382000">
        <ele>90.5</ele>
        <time>2020-10-11T15:45:31Z</time>
      </trkpt>
      <trkpt lat="37.270313000" lon="-5.537216000">
        <ele>90.0</ele>
        <time>2020-10-11T15:45:33Z</time>
      </trkpt>
      <trkpt lat="37.270376000" lon="-5.537051000">
        <ele>89.6</ele>
        <time>2020-10-11T15:45:35Z</time>
      </trkpt>
      <trkpt lat="37.270443000" lon="-5.536888000">
        <ele>89.4</ele>
        <time>2020-10-11T15:45:37Z</time>
      </trkpt>
      <trkpt lat="37.270500000" lon="-5.536729000">
        <ele>89.1</ele>
        <time>2020-10-11T15:45:39Z</time>
      </trkpt>
      <trkpt lat="37.270562000" lon="-5.536570000">
        <ele>88.6</ele>
        <time>2020-10-11T15:45:41Z</time>
      </trkpt>
      <trkpt lat="37.270626000" lon="-5.536421000">
        <ele>88.2</ele>
        <time>2020-10-11T15:45:43Z</time>
      </trkpt>
      <trkpt lat="37.270693000" lon="-5.536282000">
        <ele>87.6</ele>
        <time>2020-10-11T15:45:45Z</time>
      </trkpt>
      <trkpt lat="37.270772000" lon="-5.536151000">
        <ele>87.2</ele>
        <time>2020-10-11T15:45:47Z</time>
      </trkpt>
      <trkpt lat="37.270850000" lon="-5.536020000">
        <ele>86.9</ele>
        <time>2020-10-11T15:45:49Z</time>
      </trkpt>
      <trkpt lat="37.270939000" lon="-5.535891000">
        <ele>86.7</ele>
        <time>2020-10-11T15:45:51Z</time>
      </trkpt>
      <trkpt lat="37.271026000" lon="-5.535765000">
        <ele>86.6</ele>
        <time>2020-10-11T15:45:53Z</time>
      </trkpt>
      <trkpt lat="37.271114000" lon="-5.535634000">
        <ele>86.5</ele>
        <time>2020-10-11T15:45:55Z</time>
      </trkpt>
      <trkpt lat="37.271199000" lon="-5.535509000">
        <ele>86.4</ele>
        <time>2020-10-11T15:45:57Z</time>
      </trkpt>
      <trkpt lat="37.271280000" lon="-5.535382000">
        <ele>86.2</ele>
        <time>2020-10-11T15:45:59Z</time>
      </trkpt>
      <trkpt lat="37.271357000" lon="-5.535257000">
        <ele>86.0</ele>
        <time>2020-10-11T15:46:01Z</time>
      </trkpt>
      <trkpt lat="37.271441000" lon="-5.535129000">
        <ele>86.0</ele>
        <time>2020-10-11T15:46:03Z</time>
      </trkpt>
      <trkpt lat="37.271516000" lon="-5.535005000">
        <ele>86.0</ele>
        <time>2020-10-11T15:46:05Z</time>
      </trkpt>
      <trkpt lat="37.271591000" lon="-5.534888000">
        <ele>86.0</ele>
        <time>2020-10-11T15:46:07Z</time>
      </trkpt>
      <trkpt lat="37.271658000" lon="-5.534769000">
        <ele>86.0</ele>
        <time>2020-10-11T15:46:09Z</time>
      </trkpt>
      <trkpt lat="37.271729000" lon="-5.534652000">
        <ele>85.8</ele>
        <time>2020-10-11T15:46:11Z</time>
      </trkpt>
      <trkpt lat="37.271789000" lon="-5.534532000">
        <ele>85.6</ele>
        <time>2020-10-11T15:46:13Z</time>
      </trkpt>
      <trkpt lat="37.271848000" lon="-5.534417000">
        <ele>85.5</ele>
        <time>2020-10-11T15:46:15Z</time>
      </trkpt>
      <trkpt lat="37.271911000" lon="-5.534306000">
        <ele>85.4</ele>
        <time>2020-10-11T15:46:17Z</time>
      </trkpt>
      <trkpt lat="37.271974000" lon="-5.534185000">
        <ele>85.4</ele>
        <time>2020-10-11T15:46:19Z</time>
      </trkpt>
      <trkpt lat="37.272031000" lon="-5.534065000">
        <ele>85.3</ele>
        <time>2020-10-11T15:46:21Z</time>
      </trkpt>
      <trkpt lat="37.272094000" lon="-5.533951000">
        <ele>85.2</ele>
        <time>2020-10-11T15:46:23Z</time>
      </trkpt>
      <trkpt lat="37.272152000" lon="-5.533835000">
        <ele>85.0</ele>
        <time>2020-10-11T15:46:25Z</time>
      </trkpt>
      <trkpt lat="37.272211000" lon="-5.533720000">
        <ele>84.8</ele>
        <time>2020-10-11T15:46:27Z</time>
      </trkpt>
      <trkpt lat="37.272274000" lon="-5.533607000">
        <ele>84.6</ele>
        <time>2020-10-11T15:46:29Z</time>
      </trkpt>
      <trkpt lat="37.272337000" lon="-5.533489000">
        <ele>84.4</ele>
        <time>2020-10-11T15:46:31Z</time>
      </trkpt>
      <trkpt lat="37.272397000" lon="-5.533374000">
        <ele>84.2</ele>
        <time>2020-10-11T15:46:33Z</time>
      </trkpt>
      <trkpt lat="37.272459000" lon="-5.533261000">
        <ele>84.0</ele>
        <time>2020-10-11T15:46:35Z</time>
      </trkpt>
      <trkpt lat="37.272524000" lon="-5.533151000">
        <ele>83.8</ele>
        <time>2020-10-11T15:46:37Z</time>
      </trkpt>
      <trkpt lat="37.272585000" lon="-5.533044000">
        <ele>83.6</ele>
        <time>2020-10-11T15:46:39Z</time>
      </trkpt>
      <trkpt lat="37.272652000" lon="-5.532936000">
        <ele>83.5</ele>
        <time>2020-10-11T15:46:41Z</time>
      </trkpt>
      <trkpt lat="37.272718000" lon="-5.532827000">
        <ele>83.5</ele>
        <time>2020-10-11T15:46:43Z</time>
      </trkpt>
      <trkpt lat="37.272783000" lon="-5.532723000">
        <ele>83.5</ele>
        <time>2020-10-11T15:46:45Z</time>
      </trkpt>
      <trkpt lat="37.272848000" lon="-5.532617000">
        <ele>83.5</ele>
        <time>2020-10-11T15:46:47Z</time>
      </trkpt>
      <trkpt lat="37.272907000" lon="-5.532509000">
        <ele>83.5</ele>
        <time>2020-10-11T15:46:49Z</time>
      </trkpt>
      <trkpt lat="37.272968000" lon="-5.532404000">
        <ele>83.6</ele>
        <time>2020-10-11T15:46:51Z</time>
      </trkpt>
      <trkpt lat="37.273024000" lon="-5.532292000">
        <ele>83.8</ele>
        <time>2020-10-11T15:46:53Z</time>
      </trkpt>
      <trkpt lat="37.273082000" lon="-5.532185000">
        <ele>84.0</ele>
        <time>2020-10-11T15:46:55Z</time>
      </trkpt>
      <trkpt lat="37.273137000" lon="-5.532080000">
        <ele>84.2</ele>
        <time>2020-10-11T15:46:57Z</time>
      </trkpt>
      <trkpt lat="37.273191000" lon="-5.531972000">
        <ele>84.4</ele>
        <time>2020-10-11T15:46:59Z</time>
      </trkpt>
      <trkpt lat="37.273249000" lon="-5.531873000">
        <ele>84.5</ele>
        <time>2020-10-11T15:47:01Z</time>
      </trkpt>
      <trkpt lat="37.273301000" lon="-5.531776000">
        <ele>84.5</ele>
        <time>2020-10-11T15:47:03Z</time>
      </trkpt>
      <trkpt lat="37.273348000" lon="-5.531679000">
        <ele>84.5</ele>
        <time>2020-10-11T15:47:05Z</time>
      </trkpt>
      <trkpt lat="37.273398000" lon="-5.531577000">
        <ele>84.5</ele>
        <time>2020-10-11T15:47:07Z</time>
      </trkpt>
      <trkpt lat="37.273450000" lon="-5.531477000">
        <ele>84.4</ele>
        <time>2020-10-11T15:47:09Z</time>
      </trkpt>
      <trkpt lat="37.273503000" lon="-5.531370000">
        <ele>84.3</ele>
        <time>2020-10-11T15:47:11Z</time>
      </trkpt>
      <trkpt lat="37.273555000" lon="-5.531271000">
        <ele>84.0</ele>
        <time>2020-10-11T15:47:13Z</time>
      </trkpt>
      <trkpt lat="37.273603000" lon="-5.531167000">
        <ele>83.6</ele>
        <time>2020-10-11T15:47:15Z</time>
      </trkpt>
      <trkpt lat="37.273656000" lon="-5.531057000">
        <ele>83.3</ele>
        <time>2020-10-11T15:47:17Z</time>
      </trkpt>
      <trkpt lat="37.273714000" lon="-5.530950000">
        <ele>83.0</ele>
        <time>2020-10-11T15:47:19Z</time>
      </trkpt>
      <trkpt lat="37.273767000" lon="-5.530846000">
        <ele>82.8</ele>
        <time>2020-10-11T15:47:21Z</time>
      </trkpt>
      <trkpt lat="37.273825000" lon="-5.530743000">
        <ele>82.7</ele>
        <time>2020-10-11T15:47:23Z</time>
      </trkpt>
      <trkpt lat="37.273880000" lon="-5.530635000">
        <ele>82.7</ele>
        <time>2020-10-11T15:47:25Z</time>
      </trkpt>
      <trkpt lat="37.273933000" lon="-5.530536000">
        <ele>82.8</ele>
        <time>2020-10-11T15:47:27Z</time>
      </trkpt>
      <trkpt lat="37.273982000" lon="-5.530439000">
        <ele>82.9</ele>
        <time>2020-10-11T15:47:29Z</time>
      </trkpt>
      <trkpt lat="37.274031000" lon="-5.530337000">
        <ele>83.1</ele>
        <time>2020-10-11T15:47:31Z</time>
      </trkpt>
      <trkpt lat="37.274083000" lon="-5.530244000">
        <ele>83.3</ele>
        <time>2020-10-11T15:47:33Z</time>
      </trkpt>
      <trkpt lat="37.274133000" lon="-5.530152000">
        <ele>83.5</ele>
        <time>2020-10-11T15:47:35Z</time>
      </trkpt>
      <trkpt lat="37.274179000" lon="-5.530062000">
        <ele>83.9</ele>
        <time>2020-10-11T15:47:37Z</time>
      </trkpt>
      <trkpt lat="37.274227000" lon="-5.529965000">
        <ele>84.3</ele>
        <time>2020-10-11T15:47:39Z</time>
      </trkpt>
      <trkpt lat="37.274282000" lon="-5.529873000">
        <ele>84.5</ele>
        <time>2020-10-11T15:47:41Z</time>
      </trkpt>
      <trkpt lat="37.274340000" lon="-5.529782000">
        <ele>84.5</ele>
        <time>2020-10-11T15:47:43Z</time>
      </trkpt>
      <trkpt lat="37.274394000" lon="-5.529698000">
        <ele>84.6</ele>
        <time>2020-10-11T15:47:45Z</time>
      </trkpt>
      <trkpt lat="37.274451000" lon="-5.529603000">
        <ele>84.5</ele>
        <time>2020-10-11T15:47:47Z</time>
      </trkpt>
      <trkpt lat="37.274513000" lon="-5.529512000">
        <ele>84.3</ele>
        <time>2020-10-11T15:47:49Z</time>
      </trkpt>
      <trkpt lat="37.274577000" lon="-5.529430000">
        <ele>83.9</ele>
        <time>2020-10-11T15:47:51Z</time>
      </trkpt>
      <trkpt lat="37.274640000" lon="-5.529342000">
        <ele>83.5</ele>
        <time>2020-10-11T15:47:53Z</time>
      </trkpt>
      <trkpt lat="37.274699000" lon="-5.529248000">
        <ele>83.3</ele>
        <time>2020-10-11T15:47:55Z</time>
      </trkpt>
      <trkpt lat="37.274764000" lon="-5.529162000">
        <ele>83.0</ele>
        <time>2020-10-11T15:47:57Z</time>
      </trkpt>
      <trkpt lat="37.274827000" lon="-5.529067000">
        <ele>82.8</ele>
        <time>2020-10-11T15:47:59Z</time>
      </trkpt>
      <trkpt lat="37.274894000" lon="-5.528973000">
        <ele>82.7</ele>
        <time>2020-10-11T15:48:01Z</time>
      </trkpt>
      <trkpt lat="37.274960000" lon="-5.528886000">
        <ele>82.8</ele>
        <time>2020-10-11T15:48:03Z</time>
      </trkpt>
      <trkpt lat="37.275027000" lon="-5.528793000">
        <ele>82.9</ele>
        <time>2020-10-11T15:48:05Z</time>
      </trkpt>
      <trkpt lat="37.275091000" lon="-5.528702000">
        <ele>83.0</ele>
        <time>2020-10-11T15:48:07Z</time>
      </trkpt>
      <trkpt lat="37.275151000" lon="-5.528611000">
        <ele>83.1</ele>
        <time>2020-10-11T15:48:09Z</time>
      </trkpt>
      <trkpt lat="37.275217000" lon="-5.528518000">
        <ele>83.3</ele>
        <time>2020-10-11T15:48:11Z</time>
      </trkpt>
      <trkpt lat="37.275280000" lon="-5.528428000">
        <ele>83.5</ele>
        <time>2020-10-11T15:48:13Z</time>
      </trkpt>
      <trkpt lat="37.275340000" lon="-5.528341000">
        <ele>83.8</ele>
        <time>2020-10-11T15:48:15Z</time>
      </trkpt>
      <trkpt lat="37.275401000" lon="-5.528247000">
        <ele>84.1</ele>
        <time>2020-10-11T15:48:17Z</time>
      </trkpt>
      <trkpt lat="37.275463000" lon="-5.528161000">
        <ele>84.4</ele>
        <time>2020-10-11T15:48:19Z</time>
      </trkpt>
      <trkpt lat="37.275523000" lon="-5.528075000">
        <ele>84.5</ele>
        <time>2020-10-11T15:48:21Z</time>
      </trkpt>
      <trkpt lat="37.275582000" lon="-5.527993000">
        <ele>84.6</ele>
        <time>2020-10-11T15:48:23Z</time>
      </trkpt>
      <trkpt lat="37.275638000" lon="-5.527908000">
        <ele>84.6</ele>
        <time>2020-10-11T15:48:25Z</time>
      </trkpt>
      <trkpt lat="37.275698000" lon="-5.527826000">
        <ele>84.6</ele>
        <time>2020-10-11T15:48:27Z</time>
      </trkpt>
      <trkpt lat="37.275765000" lon="-5.527750000">
        <ele>84.6</ele>
        <time>2020-10-11T15:48:29Z</time>
      </trkpt>
      <trkpt lat="37.275828000" lon="-5.527669000">
        <ele>84.8</ele>
        <time>2020-10-11T15:48:31Z</time>
      </trkpt>
      <trkpt lat="37.275886000" lon="-5.527586000">
        <ele>84.9</ele>
        <time>2020-10-11T15:48:33Z</time>
      </trkpt>
      <trkpt lat="37.275947000" lon="-5.527507000">
        <ele>85.0</ele>
        <time>2020-10-11T15:48:35Z</time>
      </trkpt>
      <trkpt lat="37.276007000" lon="-5.527425000">
        <ele>85.0</ele>
        <time>2020-10-11T15:48:37Z</time>
      </trkpt>
      <trkpt lat="37.276067000" lon="-5.527345000">
        <ele>84.9</ele>
        <time>2020-10-11T15:48:39Z</time>
      </trkpt>
      <trkpt lat="37.276127000" lon="-5.527261000">
        <ele>84.8</ele>
        <time>2020-10-11T15:48:41Z</time>
      </trkpt>
      <trkpt lat="37.276186000" lon="-5.527176000">
        <ele>84.6</ele>
        <time>2020-10-11T15:48:43Z</time>
      </trkpt>
      <trkpt lat="37.276248000" lon="-5.527091000">
        <ele>84.4</ele>
        <time>2020-10-11T15:48:45Z</time>
      </trkpt>
      <trkpt lat="37.276307000" lon="-5.527007000">
        <ele>84.1</ele>
        <time>2020-10-11T15:48:47Z</time>
      </trkpt>
      <trkpt lat="37.276362000" lon="-5.526921000">
        <ele>83.8</ele>
        <time>2020-10-11T15:48:49Z</time>
      </trkpt>
      <trkpt lat="37.276424000" lon="-5.526838000">
        <ele>83.5</ele>
        <time>2020-10-11T15:48:51Z</time>
      </trkpt>
      <trkpt lat="37.276480000" lon="-5.526754000">
        <ele>83.2</ele>
        <time>2020-10-11T15:48:53Z</time>
      </trkpt>
      <trkpt lat="37.276540000" lon="-5.526667000">
        <ele>82.9</ele>
        <time>2020-10-11T15:48:55Z</time>
      </trkpt>
      <trkpt lat="37.276597000" lon="-5.526579000">
        <ele>82.7</ele>
        <time>2020-10-11T15:48:57Z</time>
      </trkpt>
      <trkpt lat="37.276661000" lon="-5.526489000">
        <ele>82.6</ele>
        <time>2020-10-11T15:48:59Z</time>
      </trkpt>
      <trkpt lat="37.276721000" lon="-5.526404000">
        <ele>82.6</ele>
        <time>2020-10-11T15:49:01Z</time>
      </trkpt>
      <trkpt lat="37.276785000" lon="-5.526317000">
        <ele>82.6</ele>
        <time>2020-10-11T15:49:03Z</time>
      </trkpt>
      <trkpt lat="37.276843000" lon="-5.526229000">
        <ele>82.7</ele>
        <time>2020-10-11T15:49:05Z</time>
      </trkpt>
      <trkpt lat="37.276904000" lon="-5.526142000">
        <ele>82.8</ele>
        <time>2020-10-11T15:49:07Z</time>
      </trkpt>
      <trkpt lat="37.276966000" lon="-5.526057000">
        <ele>82.8</ele>
        <time>2020-10-11T15:49:09Z</time>
      </trkpt>
      <trkpt lat="37.277024000" lon="-5.525971000">
        <ele>82.7</ele>
        <time>2020-10-11T15:49:11Z</time>
      </trkpt>
      <trkpt lat="37.277085000" lon="-5.525881000">
        <ele>82.6</ele>
        <time>2020-10-11T15:49:13Z</time>
      </trkpt>
      <trkpt lat="37.277148000" lon="-5.525791000">
        <ele>82.5</ele>
        <time>2020-10-11T15:49:15Z</time>
      </trkpt>
      <trkpt lat="37.277211000" lon="-5.525699000">
        <ele>82.2</ele>
        <time>2020-10-11T15:49:17Z</time>
      </trkpt>
      <trkpt lat="37.277273000" lon="-5.525606000">
        <ele>81.8</ele>
        <time>2020-10-11T15:49:19Z</time>
      </trkpt>
      <trkpt lat="37.277334000" lon="-5.525514000">
        <ele>81.5</ele>
        <time>2020-10-11T15:49:21Z</time>
      </trkpt>
      <trkpt lat="37.277398000" lon="-5.525418000">
        <ele>81.0</ele>
        <time>2020-10-11T15:49:23Z</time>
      </trkpt>
      <trkpt lat="37.277460000" lon="-5.525325000">
        <ele>80.6</ele>
        <time>2020-10-11T15:49:25Z</time>
      </trkpt>
      <trkpt lat="37.277525000" lon="-5.525229000">
        <ele>80.3</ele>
        <time>2020-10-11T15:49:27Z</time>
      </trkpt>
      <trkpt lat="37.277590000" lon="-5.525137000">
        <ele>80.0</ele>
        <time>2020-10-11T15:49:29Z</time>
      </trkpt>
      <trkpt lat="37.277652000" lon="-5.525045000">
        <ele>79.8</ele>
        <time>2020-10-11T15:49:31Z</time>
      </trkpt>
      <trkpt lat="37.277713000" lon="-5.524950000">
        <ele>79.8</ele>
        <time>2020-10-11T15:49:33Z</time>
      </trkpt>
      <trkpt lat="37.277769000" lon="-5.524855000">
        <ele>79.8</ele>
        <time>2020-10-11T15:49:35Z</time>
      </trkpt>
      <trkpt lat="37.277832000" lon="-5.524770000">
        <ele>79.9</ele>
        <time>2020-10-11T15:49:37Z</time>
      </trkpt>
      <trkpt lat="37.277892000" lon="-5.524684000">
        <ele>80.1</ele>
        <time>2020-10-11T15:49:39Z</time>
      </trkpt>
      <trkpt lat="37.277954000" lon="-5.524600000">
        <ele>80.3</ele>
        <time>2020-10-11T15:49:41Z</time>
      </trkpt>
      <trkpt lat="37.278008000" lon="-5.524507000">
        <ele>80.5</ele>
        <time>2020-10-11T15:49:43Z</time>
      </trkpt>
      <trkpt lat="37.278068000" lon="-5.524423000">
        <ele>80.6</ele>
        <time>2020-10-11T15:49:45Z</time>
      </trkpt>
      <trkpt lat="37.278136000" lon="-5.524345000">
        <ele>80.8</ele>
        <time>2020-10-11T15:49:47Z</time>
      </trkpt>
      <trkpt lat="37.278193000" lon="-5.524268000">
        <ele>81.0</ele>
        <time>2020-10-11T15:49:49Z</time>
      </trkpt>
      <trkpt lat="37.278251000" lon="-5.524184000">
        <ele>81.2</ele>
        <time>2020-10-11T15:49:51Z</time>
      </trkpt>
      <trkpt lat="37.278310000" lon="-5.524107000">
        <ele>81.5</ele>
        <time>2020-10-11T15:49:53Z</time>
      </trkpt>
      <trkpt lat="37.278370000" lon="-5.524027000">
        <ele>81.6</ele>
        <time>2020-10-11T15:49:55Z</time>
      </trkpt>
      <trkpt lat="37.278428000" lon="-5.523949000">
        <ele>81.8</ele>
        <time>2020-10-11T15:49:57Z</time>
      </trkpt>
      <trkpt lat="37.278488000" lon="-5.523871000">
        <ele>81.9</ele>
        <time>2020-10-11T15:49:59Z</time>
      </trkpt>
      <trkpt lat="37.278547000" lon="-5.523789000">
        <ele>82.0</ele>
        <time>2020-10-11T15:50:01Z</time>
      </trkpt>
      <trkpt lat="37.278606000" lon="-5.523704000">
        <ele>82.1</ele>
        <time>2020-10-11T15:50:03Z</time>
      </trkpt>
      <trkpt lat="37.278666000" lon="-5.523623000">
        <ele>82.2</ele>
        <time>2020-10-11T15:50:05Z</time>
      </trkpt>
      <trkpt lat="37.278729000" lon="-5.523546000">
        <ele>82.3</ele>
        <time>2020-10-11T15:50:07Z</time>
      </trkpt>
      <trkpt lat="37.278786000" lon="-5.523471000">
        <ele>82.3</ele>
        <time>2020-10-11T15:50:09Z</time>
      </trkpt>
      <trkpt lat="37.278866000" lon="-5.523358000">
        <ele>82.3</ele>
        <time>2020-10-11T15:50:12Z</time>
      </trkpt>
      <trkpt lat="37.278945000" lon="-5.523246000">
        <ele>82.3</ele>
        <time>2020-10-11T15:50:15Z</time>
      </trkpt>
      <trkpt lat="37.279024000" lon="-5.523131000">
        <ele>82.2</ele>
        <time>2020-10-11T15:50:18Z</time>
      </trkpt>
      <trkpt lat="37.279100000" lon="-5.523013000">
        <ele>82.1</ele>
        <time>2020-10-11T15:50:21Z</time>
      </trkpt>
      <trkpt lat="37.279174000" lon="-5.522897000">
        <ele>82.1</ele>
        <time>2020-10-11T15:50:24Z</time>
      </trkpt>
      <trkpt lat="37.279247000" lon="-5.522781000">
        <ele>82.3</ele>
        <time>2020-10-11T15:50:27Z</time>
      </trkpt>
      <trkpt lat="37.279313000" lon="-5.522662000">
        <ele>82.5</ele>
        <time>2020-10-11T15:50:30Z</time>
      </trkpt>
      <trkpt lat="37.279377000" lon="-5.522546000">
        <ele>82.9</ele>
        <time>2020-10-11T15:50:33Z</time>
      </trkpt>
      <trkpt lat="37.279441000" lon="-5.522433000">
        <ele>83.3</ele>
        <time>2020-10-11T15:50:36Z</time>
      </trkpt>
      <trkpt lat="37.279501000" lon="-5.522325000">
        <ele>83.7</ele>
        <time>2020-10-11T15:50:39Z</time>
      </trkpt>
      <trkpt lat="37.279563000" lon="-5.522223000">
        <ele>84.2</ele>
        <time>2020-10-11T15:50:42Z</time>
      </trkpt>
      <trkpt lat="37.279626000" lon="-5.522123000">
        <ele>84.6</ele>
        <time>2020-10-11T15:50:45Z</time>
      </trkpt>
      <trkpt lat="37.279694000" lon="-5.522015000">
        <ele>85.1</ele>
        <time>2020-10-11T15:50:48Z</time>
      </trkpt>
      <trkpt lat="37.279763000" lon="-5.521897000">
        <ele>85.5</ele>
        <time>2020-10-11T15:50:51Z</time>
      </trkpt>
      <trkpt lat="37.279834000" lon="-5.521778000">
        <ele>85.7</ele>
        <time>2020-10-11T15:50:54Z</time>
      </trkpt>
      <trkpt lat="37.279904000" lon="-5.521667000">
        <ele>85.8</ele>
        <time>2020-10-11T15:50:57Z</time>
      </trkpt>
      <trkpt lat="37.279972000" lon="-5.521556000">
        <ele>85.8</ele>
        <time>2020-10-11T15:51:00Z</time>
      </trkpt>
      <trkpt lat="37.280041000" lon="-5.521444000">
        <ele>85.6</ele>
        <time>2020-10-11T15:51:03Z</time>
      </trkpt>
      <trkpt lat="37.280110000" lon="-5.521331000">
        <ele>85.4</ele>
        <time>2020-10-11T15:51:06Z</time>
      </trkpt>
      <trkpt lat="37.280181000" lon="-5.521213000">
        <ele>85.3</ele>
        <time>2020-10-11T15:51:09Z</time>
      </trkpt>
      <trkpt lat="37.280227000" lon="-5.521128000">
        <ele>85.3</ele>
        <time>2020-10-11T15:51:11Z</time>
      </trkpt>
      <trkpt lat="37.280276000" lon="-5.521045000">
        <ele>85.4</ele>
        <time>2020-10-11T15:51:13Z</time>
      </trkpt>
      <trkpt lat="37.280327000" lon="-5.520965000">
        <ele>85.5</ele>
        <time>2020-10-11T15:51:15Z</time>
      </trkpt>
      <trkpt lat="37.280400000" lon="-5.520846000">
        <ele>85.8</ele>
        <time>2020-10-11T15:51:18Z</time>
      </trkpt>
      <trkpt lat="37.280474000" lon="-5.520734000">
        <ele>86.2</ele>
        <time>2020-10-11T15:51:21Z</time>
      </trkpt>
      <trkpt lat="37.280537000" lon="-5.520618000">
        <ele>86.7</ele>
        <time>2020-10-11T15:51:24Z</time>
      </trkpt>
      <trkpt lat="37.280606000" lon="-5.520510000">
        <ele>87.4</ele>
        <time>2020-10-11T15:51:27Z</time>
      </trkpt>
      <trkpt lat="37.280673000" lon="-5.520400000">
        <ele>87.9</ele>
        <time>2020-10-11T15:51:30Z</time>
      </trkpt>
      <trkpt lat="37.280743000" lon="-5.520289000">
        <ele>88.5</ele>
        <time>2020-10-11T15:51:33Z</time>
      </trkpt>
      <trkpt lat="37.280811000" lon="-5.520179000">
        <ele>89.0</ele>
        <time>2020-10-11T15:51:36Z</time>
      </trkpt>
      <trkpt lat="37.280882000" lon="-5.520068000">
        <ele>89.3</ele>
        <time>2020-10-11T15:51:39Z</time>
      </trkpt>
      <trkpt lat="37.280952000" lon="-5.519956000">
        <ele>89.4</ele>
        <time>2020-10-11T15:51:42Z</time>
      </trkpt>
      <trkpt lat="37.281023000" lon="-5.519841000">
        <ele>89.4</ele>
        <time>2020-10-11T15:51:45Z</time>
      </trkpt>
      <trkpt lat="37.281092000" lon="-5.519721000">
        <ele>89.2</ele>
        <time>2020-10-11T15:51:48Z</time>
      </trkpt>
      <trkpt lat="37.281162000" lon="-5.519598000">
        <ele>89.0</ele>
        <time>2020-10-11T15:51:51Z</time>
      </trkpt>
      <trkpt lat="37.281212000" lon="-5.519515000">
        <ele>88.8</ele>
        <time>2020-10-11T15:51:53Z</time>
      </trkpt>
      <trkpt lat="37.281259000" lon="-5.519431000">
        <ele>88.5</ele>
        <time>2020-10-11T15:51:55Z</time>
      </trkpt>
      <trkpt lat="37.281323000" lon="-5.519305000">
        <ele>88.3</ele>
        <time>2020-10-11T15:51:58Z</time>
      </trkpt>
      <trkpt lat="37.281386000" lon="-5.519182000">
        <ele>88.1</ele>
        <time>2020-10-11T15:52:01Z</time>
      </trkpt>
      <trkpt lat="37.281449000" lon="-5.519062000">
        <ele>88.0</ele>
        <time>2020-10-11T15:52:04Z</time>
      </trkpt>
      <trkpt lat="37.281507000" lon="-5.518939000">
        <ele>87.9</ele>
        <time>2020-10-11T15:52:07Z</time>
      </trkpt>
      <trkpt lat="37.281568000" lon="-5.518812000">
        <ele>87.9</ele>
        <time>2020-10-11T15:52:10Z</time>
      </trkpt>
      <trkpt lat="37.281614000" lon="-5.518727000">
        <ele>88.0</ele>
        <time>2020-10-11T15:52:12Z</time>
      </trkpt>
      <trkpt lat="37.281659000" lon="-5.518639000">
        <ele>88.2</ele>
        <time>2020-10-11T15:52:14Z</time>
      </trkpt>
      <trkpt lat="37.281703000" lon="-5.518551000">
        <ele>88.5</ele>
        <time>2020-10-11T15:52:16Z</time>
      </trkpt>
      <trkpt lat="37.281747000" lon="-5.518463000">
        <ele>88.6</ele>
        <time>2020-10-11T15:52:18Z</time>
      </trkpt>
      <trkpt lat="37.281790000" lon="-5.518376000">
        <ele>88.9</ele>
        <time>2020-10-11T15:52:20Z</time>
      </trkpt>
      <trkpt lat="37.281850000" lon="-5.518248000">
        <ele>89.2</ele>
        <time>2020-10-11T15:52:23Z</time>
      </trkpt>
      <trkpt lat="37.281912000" lon="-5.518127000">
        <ele>89.5</ele>
        <time>2020-10-11T15:52:26Z</time>
      </trkpt>
      <trkpt lat="37.281969000" lon="-5.518013000">
        <ele>89.7</ele>
        <time>2020-10-11T15:52:29Z</time>
      </trkpt>
      <trkpt lat="37.282026000" lon="-5.517894000">
        <ele>90.0</ele>
        <time>2020-10-11T15:52:32Z</time>
      </trkpt>
      <trkpt lat="37.282087000" lon="-5.517778000">
        <ele>90.3</ele>
        <time>2020-10-11T15:52:35Z</time>
      </trkpt>
      <trkpt lat="37.282147000" lon="-5.517662000">
        <ele>90.6</ele>
        <time>2020-10-11T15:52:38Z</time>
      </trkpt>
      <trkpt lat="37.282204000" lon="-5.517547000">
        <ele>90.9</ele>
        <time>2020-10-11T15:52:41Z</time>
      </trkpt>
      <trkpt lat="37.282260000" lon="-5.517434000">
        <ele>91.2</ele>
        <time>2020-10-11T15:52:44Z</time>
      </trkpt>
      <trkpt lat="37.282316000" lon="-5.517322000">
        <ele>91.5</ele>
        <time>2020-10-11T15:52:47Z</time>
      </trkpt>
      <trkpt lat="37.282375000" lon="-5.517211000">
        <ele>91.8</ele>
        <time>2020-10-11T15:52:50Z</time>
      </trkpt>
      <trkpt lat="37.282425000" lon="-5.517096000">
        <ele>92.0</ele>
        <time>2020-10-11T15:52:53Z</time>
      </trkpt>
      <trkpt lat="37.282481000" lon="-5.516986000">
        <ele>92.2</ele>
        <time>2020-10-11T15:52:56Z</time>
      </trkpt>
      <trkpt lat="37.282532000" lon="-5.516877000">
        <ele>92.4</ele>
        <time>2020-10-11T15:52:59Z</time>
      </trkpt>
      <trkpt lat="37.282584000" lon="-5.516767000">
        <ele>92.5</ele>
        <time>2020-10-11T15:53:02Z</time>
      </trkpt>
      <trkpt lat="37.282636000" lon="-5.516661000">
        <ele>92.5</ele>
        <time>2020-10-11T15:53:05Z</time>
      </trkpt>
      <trkpt lat="37.282693000" lon="-5.516550000">
        <ele>92.6</ele>
        <time>2020-10-11T15:53:08Z</time>
      </trkpt>
      <trkpt lat="37.282752000" lon="-5.516436000">
        <ele>92.6</ele>
        <time>2020-10-11T15:53:11Z</time>
      </trkpt>
      <trkpt lat="37.282808000" lon="-5.516329000">
        <ele>92.6</ele>
        <time>2020-10-11T15:53:14Z</time>
      </trkpt>
      <trkpt lat="37.282859000" lon="-5.516222000">
        <ele>92.5</ele>
        <time>2020-10-11T15:53:17Z</time>
      </trkpt>
      <trkpt lat="37.282909000" lon="-5.516113000">
        <ele>92.5</ele>
        <time>2020-10-11T15:53:20Z</time>
      </trkpt>
      <trkpt lat="37.282964000" lon="-5.516002000">
        <ele>92.3</ele>
        <time>2020-10-11T15:53:23Z</time>
      </trkpt>
      <trkpt lat="37.283016000" lon="-5.515886000">
        <ele>92.3</ele>
        <time>2020-10-11T15:53:26Z</time>
      </trkpt>
      <trkpt lat="37.283071000" lon="-5.515770000">
        <ele>92.3</ele>
        <time>2020-10-11T15:53:29Z</time>
      </trkpt>
      <trkpt lat="37.283131000" lon="-5.515655000">
        <ele>92.4</ele>
        <time>2020-10-11T15:53:32Z</time>
      </trkpt>
      <trkpt lat="37.283192000" lon="-5.515537000">
        <ele>92.5</ele>
        <time>2020-10-11T15:53:35Z</time>
      </trkpt>
      <trkpt lat="37.283256000" lon="-5.515417000">
        <ele>92.8</ele>
        <time>2020-10-11T15:53:38Z</time>
      </trkpt>
      <trkpt lat="37.283322000" lon="-5.515297000">
        <ele>93.1</ele>
        <time>2020-10-11T15:53:41Z</time>
      </trkpt>
      <trkpt lat="37.283386000" lon="-5.515175000">
        <ele>93.5</ele>
        <time>2020-10-11T15:53:44Z</time>
      </trkpt>
      <trkpt lat="37.283452000" lon="-5.515052000">
        <ele>93.8</ele>
        <time>2020-10-11T15:53:47Z</time>
      </trkpt>
      <trkpt lat="37.283519000" lon="-5.514928000">
        <ele>94.2</ele>
        <time>2020-10-11T15:53:50Z</time>
      </trkpt>
      <trkpt lat="37.283578000" lon="-5.514803000">
        <ele>94.5</ele>
        <time>2020-10-11T15:53:53Z</time>
      </trkpt>
      <trkpt lat="37.283636000" lon="-5.514684000">
        <ele>94.9</ele>
        <time>2020-10-11T15:53:56Z</time>
      </trkpt>
      <trkpt lat="37.283693000" lon="-5.514568000">
        <ele>95.2</ele>
        <time>2020-10-11T15:53:59Z</time>
      </trkpt>
      <trkpt lat="37.283750000" lon="-5.514449000">
        <ele>95.5</ele>
        <time>2020-10-11T15:54:02Z</time>
      </trkpt>
      <trkpt lat="37.283808000" lon="-5.514330000">
        <ele>95.8</ele>
        <time>2020-10-11T15:54:05Z</time>
      </trkpt>
      <trkpt lat="37.283867000" lon="-5.514216000">
        <ele>96.1</ele>
        <time>2020-10-11T15:54:08Z</time>
      </trkpt>
      <trkpt lat="37.283925000" lon="-5.514102000">
        <ele>96.3</ele>
        <time>2020-10-11T15:54:11Z</time>
      </trkpt>
      <trkpt lat="37.283979000" lon="-5.513993000">
        <ele>96.5</ele>
        <time>2020-10-11T15:54:14Z</time>
      </trkpt>
      <trkpt lat="37.284033000" lon="-5.513882000">
        <ele>96.5</ele>
        <time>2020-10-11T15:54:17Z</time>
      </trkpt>
      <trkpt lat="37.284087000" lon="-5.513775000">
        <ele>96.6</ele>
        <time>2020-10-11T15:54:20Z</time>
      </trkpt>
      <trkpt lat="37.284136000" lon="-5.513672000">
        <ele>96.7</ele>
        <time>2020-10-11T15:54:23Z</time>
      </trkpt>
      <trkpt lat="37.284185000" lon="-5.513571000">
        <ele>96.8</ele>
        <time>2020-10-11T15:54:26Z</time>
      </trkpt>
      <trkpt lat="37.284234000" lon="-5.513471000">
        <ele>96.9</ele>
        <time>2020-10-11T15:54:29Z</time>
      </trkpt>
      <trkpt lat="37.284284000" lon="-5.513370000">
        <ele>97.1</ele>
        <time>2020-10-11T15:54:32Z</time>
      </trkpt>
      <trkpt lat="37.284330000" lon="-5.513269000">
        <ele>97.3</ele>
        <time>2020-10-11T15:54:35Z</time>
      </trkpt>
      <trkpt lat="37.284381000" lon="-5.513171000">
        <ele>97.5</ele>
        <time>2020-10-11T15:54:38Z</time>
      </trkpt>
      <trkpt lat="37.284430000" lon="-5.513067000">
        <ele>97.6</ele>
        <time>2020-10-11T15:54:41Z</time>
      </trkpt>
      <trkpt lat="37.284483000" lon="-5.512961000">
        <ele>97.8</ele>
        <time>2020-10-11T15:54:44Z</time>
      </trkpt>
      <trkpt lat="37.284536000" lon="-5.512861000">
        <ele>98.0</ele>
        <time>2020-10-11T15:54:47Z</time>
      </trkpt>
      <trkpt lat="37.284590000" lon="-5.512762000">
        <ele>98.3</ele>
        <time>2020-10-11T15:54:50Z</time>
      </trkpt>
      <trkpt lat="37.284643000" lon="-5.512656000">
        <ele>98.6</ele>
        <time>2020-10-11T15:54:53Z</time>
      </trkpt>
      <trkpt lat="37.284697000" lon="-5.512545000">
        <ele>99.0</ele>
        <time>2020-10-11T15:54:56Z</time>
      </trkpt>
      <trkpt lat="37.284752000" lon="-5.512442000">
        <ele>99.5</ele>
        <time>2020-10-11T15:54:59Z</time>
      </trkpt>
      <trkpt lat="37.284803000" lon="-5.512338000">
        <ele>100.0</ele>
        <time>2020-10-11T15:55:02Z</time>
      </trkpt>
      <trkpt lat="37.284850000" lon="-5.512239000">
        <ele>100.5</ele>
        <time>2020-10-11T15:55:05Z</time>
      </trkpt>
      <trkpt lat="37.284895000" lon="-5.512141000">
        <ele>101.1</ele>
        <time>2020-10-11T15:55:08Z</time>
      </trkpt>
      <trkpt lat="37.284943000" lon="-5.512046000">
        <ele>101.7</ele>
        <time>2020-10-11T15:55:11Z</time>
      </trkpt>
      <trkpt lat="37.284990000" lon="-5.511955000">
        <ele>102.4</ele>
        <time>2020-10-11T15:55:14Z</time>
      </trkpt>
      <trkpt lat="37.285038000" lon="-5.511865000">
        <ele>103.1</ele>
        <time>2020-10-11T15:55:17Z</time>
      </trkpt>
      <trkpt lat="37.285083000" lon="-5.511768000">
        <ele>103.8</ele>
        <time>2020-10-11T15:55:20Z</time>
      </trkpt>
      <trkpt lat="37.285130000" lon="-5.511674000">
        <ele>104.5</ele>
        <time>2020-10-11T15:55:23Z</time>
      </trkpt>
      <trkpt lat="37.285175000" lon="-5.511588000">
        <ele>105.2</ele>
        <time>2020-10-11T15:55:26Z</time>
      </trkpt>
      <trkpt lat="37.285219000" lon="-5.511498000">
        <ele>105.9</ele>
        <time>2020-10-11T15:55:29Z</time>
      </trkpt>
      <trkpt lat="37.285264000" lon="-5.511406000">
        <ele>106.5</ele>
        <time>2020-10-11T15:55:32Z</time>
      </trkpt>
      <trkpt lat="37.285306000" lon="-5.511316000">
        <ele>106.9</ele>
        <time>2020-10-11T15:55:35Z</time>
      </trkpt>
      <trkpt lat="37.285351000" lon="-5.511223000">
        <ele>107.3</ele>
        <time>2020-10-11T15:55:38Z</time>
      </trkpt>
      <trkpt lat="37.285401000" lon="-5.511138000">
        <ele>107.5</ele>
        <time>2020-10-11T15:55:41Z</time>
      </trkpt>
      <trkpt lat="37.285446000" lon="-5.511047000">
        <ele>107.8</ele>
        <time>2020-10-11T15:55:44Z</time>
      </trkpt>
      <trkpt lat="37.285493000" lon="-5.510954000">
        <ele>108.1</ele>
        <time>2020-10-11T15:55:47Z</time>
      </trkpt>
      <trkpt lat="37.285540000" lon="-5.510866000">
        <ele>108.2</ele>
        <time>2020-10-11T15:55:50Z</time>
      </trkpt>
      <trkpt lat="37.285586000" lon="-5.510780000">
        <ele>108.3</ele>
        <time>2020-10-11T15:55:53Z</time>
      </trkpt>
      <trkpt lat="37.285643000" lon="-5.510665000">
        <ele>108.3</ele>
        <time>2020-10-11T15:55:57Z</time>
      </trkpt>
      <trkpt lat="37.285696000" lon="-5.510579000">
        <ele>108.3</ele>
        <time>2020-10-11T15:56:00Z</time>
      </trkpt>
      <trkpt lat="37.285744000" lon="-5.510484000">
        <ele>108.1</ele>
        <time>2020-10-11T15:56:03Z</time>
      </trkpt>
      <trkpt lat="37.285801000" lon="-5.510377000">
        <ele>108.0</ele>
        <time>2020-10-11T15:56:06Z</time>
      </trkpt>
      <trkpt lat="37.285863000" lon="-5.510259000">
        <ele>107.8</ele>
        <time>2020-10-11T15:56:09Z</time>
      </trkpt>
      <trkpt lat="37.285927000" lon="-5.510128000">
        <ele>107.5</ele>
        <time>2020-10-11T15:56:12Z</time>
      </trkpt>
      <trkpt lat="37.285971000" lon="-5.510041000">
        <ele>107.2</ele>
        <time>2020-10-11T15:56:14Z</time>
      </trkpt>
      <trkpt lat="37.286035000" lon="-5.509919000">
        <ele>106.7</ele>
        <time>2020-10-11T15:56:17Z</time>
      </trkpt>
      <trkpt lat="37.286090000" lon="-5.509803000">
        <ele>106.3</ele>
        <time>2020-10-11T15:56:20Z</time>
      </trkpt>
      <trkpt lat="37.286143000" lon="-5.509694000">
        <ele>105.9</ele>
        <time>2020-10-11T15:56:23Z</time>
      </trkpt>
      <trkpt lat="37.286199000" lon="-5.509585000">
        <ele>105.5</ele>
        <time>2020-10-11T15:56:26Z</time>
      </trkpt>
      <trkpt lat="37.286252000" lon="-5.509482000">
        <ele>105.3</ele>
        <time>2020-10-11T15:56:29Z</time>
      </trkpt>
      <trkpt lat="37.286299000" lon="-5.509387000">
        <ele>105.1</ele>
        <time>2020-10-11T15:56:32Z</time>
      </trkpt>
      <trkpt lat="37.286355000" lon="-5.509281000">
        <ele>105.1</ele>
        <time>2020-10-11T15:56:36Z</time>
      </trkpt>
      <trkpt lat="37.286418000" lon="-5.509170000">
        <ele>105.2</ele>
        <time>2020-10-11T15:56:40Z</time>
      </trkpt>
      <trkpt lat="37.286469000" lon="-5.509071000">
        <ele>105.5</ele>
        <time>2020-10-11T15:56:43Z</time>
      </trkpt>
      <trkpt lat="37.286522000" lon="-5.508960000">
        <ele>105.9</ele>
        <time>2020-10-11T15:56:46Z</time>
      </trkpt>
      <trkpt lat="37.286578000" lon="-5.508852000">
        <ele>106.6</ele>
        <time>2020-10-11T15:56:49Z</time>
      </trkpt>
      <trkpt lat="37.286632000" lon="-5.508758000">
        <ele>107.5</ele>
        <time>2020-10-11T15:56:52Z</time>
      </trkpt>
      <trkpt lat="37.286677000" lon="-5.508661000">
        <ele>108.5</ele>
        <time>2020-10-11T15:56:55Z</time>
      </trkpt>
      <trkpt lat="37.286720000" lon="-5.508569000">
        <ele>109.5</ele>
        <time>2020-10-11T15:56:58Z</time>
      </trkpt>
      <trkpt lat="37.286777000" lon="-5.508476000">
        <ele>110.7</ele>
        <time>2020-10-11T15:57:02Z</time>
      </trkpt>
      <trkpt lat="37.286831000" lon="-5.508365000">
        <ele>111.8</ele>
        <time>2020-10-11T15:57:06Z</time>
      </trkpt>
      <trkpt lat="37.286889000" lon="-5.508265000">
        <ele>112.9</ele>
        <time>2020-10-11T15:57:10Z</time>
      </trkpt>
      <trkpt lat="37.286940000" lon="-5.508164000">
        <ele>114.0</ele>
        <time>2020-10-11T15:57:14Z</time>
      </trkpt>
      <trkpt lat="37.286990000" lon="-5.508050000">
        <ele>115.1</ele>
        <time>2020-10-11T15:57:18Z</time>
      </trkpt>
      <trkpt lat="37.287038000" lon="-5.507955000">
        <ele>116.2</ele>
        <time>2020-10-11T15:57:22Z</time>
      </trkpt>
      <trkpt lat="37.287081000" lon="-5.507858000">
        <ele>117.4</ele>
        <time>2020-10-11T15:57:26Z</time>
      </trkpt>
      <trkpt lat="37.287135000" lon="-5.507761000">
        <ele>118.4</ele>
        <time>2020-10-11T15:57:30Z</time>
      </trkpt>
      <trkpt lat="37.287182000" lon="-5.507658000">
        <ele>119.4</ele>
        <time>2020-10-11T15:57:34Z</time>
      </trkpt>
      <trkpt lat="37.287232000" lon="-5.507555000">
        <ele>120.1</ele>
        <time>2020-10-11T15:57:38Z</time>
      </trkpt>
      <trkpt lat="37.287287000" lon="-5.507465000">
        <ele>120.8</ele>
        <time>2020-10-11T15:57:42Z</time>
      </trkpt>
      <trkpt lat="37.287344000" lon="-5.507364000">
        <ele>121.5</ele>
        <time>2020-10-11T15:57:46Z</time>
      </trkpt>
      <trkpt lat="37.287401000" lon="-5.507257000">
        <ele>122.2</ele>
        <time>2020-10-11T15:57:50Z</time>
      </trkpt>
      <trkpt lat="37.287457000" lon="-5.507146000">
        <ele>122.8</ele>
        <time>2020-10-11T15:57:54Z</time>
      </trkpt>
      <trkpt lat="37.287519000" lon="-5.507043000">
        <ele>123.5</ele>
        <time>2020-10-11T15:57:58Z</time>
      </trkpt>
      <trkpt lat="37.287571000" lon="-5.506928000">
        <ele>124.0</ele>
        <time>2020-10-11T15:58:02Z</time>
      </trkpt>
      <trkpt lat="37.287612000" lon="-5.506839000">
        <ele>124.5</ele>
        <time>2020-10-11T15:58:05Z</time>
      </trkpt>
      <trkpt lat="37.287646000" lon="-5.506715000">
        <ele>124.7</ele>
        <time>2020-10-11T15:58:09Z</time>
      </trkpt>
      <trkpt lat="37.287669000" lon="-5.506585000">
        <ele>125.0</ele>
        <time>2020-10-11T15:58:13Z</time>
      </trkpt>
      <trkpt lat="37.287697000" lon="-5.506457000">
        <ele>125.2</ele>
        <time>2020-10-11T15:58:17Z</time>
      </trkpt>
      <trkpt lat="37.287723000" lon="-5.506334000">
        <ele>125.5</ele>
        <time>2020-10-11T15:58:21Z</time>
      </trkpt>
      <trkpt lat="37.287743000" lon="-5.506232000">
        <ele>125.6</ele>
        <time>2020-10-11T15:58:24Z</time>
      </trkpt>
      <trkpt lat="37.287769000" lon="-5.506131000">
        <ele>125.9</ele>
        <time>2020-10-11T15:58:27Z</time>
      </trkpt>
      <trkpt lat="37.287787000" lon="-5.506030000">
        <ele>126.2</ele>
        <time>2020-10-11T15:58:30Z</time>
      </trkpt>
      <trkpt lat="37.287806000" lon="-5.505929000">
        <ele>126.5</ele>
        <time>2020-10-11T15:58:33Z</time>
      </trkpt>
      <trkpt lat="37.287822000" lon="-5.505798000">
        <ele>126.9</ele>
        <time>2020-10-11T15:58:37Z</time>
      </trkpt>
      <trkpt lat="37.287843000" lon="-5.505665000">
        <ele>127.4</ele>
        <time>2020-10-11T15:58:41Z</time>
      </trkpt>
      <trkpt lat="37.287860000" lon="-5.505558000">
        <ele>127.9</ele>
        <time>2020-10-11T15:58:44Z</time>
      </trkpt>
      <trkpt lat="37.287880000" lon="-5.505453000">
        <ele>128.4</ele>
        <time>2020-10-11T15:58:47Z</time>
      </trkpt>
      <trkpt lat="37.287901000" lon="-5.505345000">
        <ele>128.8</ele>
        <time>2020-10-11T15:58:50Z</time>
      </trkpt>
      <trkpt lat="37.287923000" lon="-5.505237000">
        <ele>129.3</ele>
        <time>2020-10-11T15:58:53Z</time>
      </trkpt>
      <trkpt lat="37.287946000" lon="-5.505126000">
        <ele>129.7</ele>
        <time>2020-10-11T15:58:56Z</time>
      </trkpt>
      <trkpt lat="37.287967000" lon="-5.505018000">
        <ele>130.2</ele>
        <time>2020-10-11T15:58:59Z</time>
      </trkpt>
      <trkpt lat="37.287992000" lon="-5.504912000">
        <ele>130.5</ele>
        <time>2020-10-11T15:59:02Z</time>
      </trkpt>
      <trkpt lat="37.288013000" lon="-5.504806000">
        <ele>130.7</ele>
        <time>2020-10-11T15:59:05Z</time>
      </trkpt>
      <trkpt lat="37.288033000" lon="-5.504691000">
        <ele>130.8</ele>
        <time>2020-10-11T15:59:08Z</time>
      </trkpt>
      <trkpt lat="37.288058000" lon="-5.504569000">
        <ele>130.7</ele>
        <time>2020-10-11T15:59:11Z</time>
      </trkpt>
      <trkpt lat="37.288086000" lon="-5.504444000">
        <ele>130.5</ele>
        <time>2020-10-11T15:59:14Z</time>
      </trkpt>
      <trkpt lat="37.288111000" lon="-5.504314000">
        <ele>130.2</ele>
        <time>2020-10-11T15:59:17Z</time>
      </trkpt>
      <trkpt lat="37.288134000" lon="-5.504176000">
        <ele>129.8</ele>
        <time>2020-10-11T15:59:20Z</time>
      </trkpt>
      <trkpt lat="37.288167000" lon="-5.504033000">
        <ele>129.5</ele>
        <time>2020-10-11T15:59:23Z</time>
      </trkpt>
      <trkpt lat="37.288184000" lon="-5.503931000">
        <ele>129.3</ele>
        <time>2020-10-11T15:59:25Z</time>
      </trkpt>
      <trkpt lat="37.288208000" lon="-5.503829000">
        <ele>129.0</ele>
        <time>2020-10-11T15:59:27Z</time>
      </trkpt>
      <trkpt lat="37.288239000" lon="-5.503726000">
        <ele>128.7</ele>
        <time>2020-10-11T15:59:29Z</time>
      </trkpt>
      <trkpt lat="37.288270000" lon="-5.503624000">
        <ele>128.5</ele>
        <time>2020-10-11T15:59:31Z</time>
      </trkpt>
      <trkpt lat="37.288295000" lon="-5.503521000">
        <ele>128.3</ele>
        <time>2020-10-11T15:59:33Z</time>
      </trkpt>
      <trkpt lat="37.288317000" lon="-5.503421000">
        <ele>128.1</ele>
        <time>2020-10-11T15:59:35Z</time>
      </trkpt>
      <trkpt lat="37.288339000" lon="-5.503319000">
        <ele>128.0</ele>
        <time>2020-10-11T15:59:37Z</time>
      </trkpt>
      <trkpt lat="37.288384000" lon="-5.503207000">
        <ele>127.9</ele>
        <time>2020-10-11T15:59:39Z</time>
      </trkpt>
      <trkpt lat="37.288409000" lon="-5.503091000">
        <ele>127.9</ele>
        <time>2020-10-11T15:59:41Z</time>
      </trkpt>
      <trkpt lat="37.288441000" lon="-5.502980000">
        <ele>128.0</ele>
        <time>2020-10-11T15:59:43Z</time>
      </trkpt>
      <trkpt lat="37.288468000" lon="-5.502866000">
        <ele>128.1</ele>
        <time>2020-10-11T15:59:45Z</time>
      </trkpt>
      <trkpt lat="37.288498000" lon="-5.502749000">
        <ele>128.2</ele>
        <time>2020-10-11T15:59:47Z</time>
      </trkpt>
      <trkpt lat="37.288527000" lon="-5.502633000">
        <ele>128.3</ele>
        <time>2020-10-11T15:59:49Z</time>
      </trkpt>
      <trkpt lat="37.288555000" lon="-5.502510000">
        <ele>128.4</ele>
        <time>2020-10-11T15:59:51Z</time>
      </trkpt>
      <trkpt lat="37.288581000" lon="-5.502393000">
        <ele>128.4</ele>
        <time>2020-10-11T15:59:53Z</time>
      </trkpt>
      <trkpt lat="37.288607000" lon="-5.502272000">
        <ele>128.4</ele>
        <time>2020-10-11T15:59:55Z</time>
      </trkpt>
      <trkpt lat="37.288635000" lon="-5.502153000">
        <ele>128.3</ele>
        <time>2020-10-11T15:59:57Z</time>
      </trkpt>
      <trkpt lat="37.288666000" lon="-5.502034000">
        <ele>128.2</ele>
        <time>2020-10-11T15:59:59Z</time>
      </trkpt>
      <trkpt lat="37.288696000" lon="-5.501914000">
        <ele>128.0</ele>
        <time>2020-10-11T16:00:01Z</time>
      </trkpt>
      <trkpt lat="37.288727000" lon="-5.501799000">
        <ele>127.8</ele>
        <time>2020-10-11T16:00:03Z</time>
      </trkpt>
      <trkpt lat="37.288762000" lon="-5.501686000">
        <ele>127.6</ele>
        <time>2020-10-11T16:00:05Z</time>
      </trkpt>
      <trkpt lat="37.288793000" lon="-5.501569000">
        <ele>127.4</ele>
        <time>2020-10-11T16:00:07Z</time>
      </trkpt>
      <trkpt lat="37.288827000" lon="-5.501465000">
        <ele>127.2</ele>
        <time>2020-10-11T16:00:10Z</time>
      </trkpt>
      <trkpt lat="37.288869000" lon="-5.501369000">
        <ele>127.0</ele>
        <time>2020-10-11T16:00:11Z</time>
      </trkpt>
      <trkpt lat="37.288899000" lon="-5.501271000">
        <ele>126.9</ele>
        <time>2020-10-11T16:00:13Z</time>
      </trkpt>
      <trkpt lat="37.288924000" lon="-5.501170000">
        <ele>126.9</ele>
        <time>2020-10-11T16:00:15Z</time>
      </trkpt>
      <trkpt lat="37.288951000" lon="-5.501069000">
        <ele>127.0</ele>
        <time>2020-10-11T16:00:17Z</time>
      </trkpt>
      <trkpt lat="37.288978000" lon="-5.500971000">
        <ele>127.2</ele>
        <time>2020-10-11T16:00:21Z</time>
      </trkpt>
      <trkpt lat="37.289013000" lon="-5.500869000">
        <ele>127.4</ele>
        <time>2020-10-11T16:00:27Z</time>
      </trkpt>
      <trkpt lat="37.289049000" lon="-5.500765000">
        <ele>127.6</ele>
        <time>2020-10-11T16:00:30Z</time>
      </trkpt>
      <trkpt lat="37.289086000" lon="-5.500666000">
        <ele>127.8</ele>
        <time>2020-10-11T16:00:32Z</time>
      </trkpt>
      <trkpt lat="37.289117000" lon="-5.500562000">
        <ele>128.0</ele>
        <time>2020-10-11T16:00:34Z</time>
      </trkpt>
      <trkpt lat="37.289152000" lon="-5.500452000">
        <ele>128.1</ele>
        <time>2020-10-11T16:00:36Z</time>
      </trkpt>
      <trkpt lat="37.289179000" lon="-5.500345000">
        <ele>128.1</ele>
        <time>2020-10-11T16:00:38Z</time>
      </trkpt>
      <trkpt lat="37.289217000" lon="-5.500244000">
        <ele>128.1</ele>
        <time>2020-10-11T16:00:40Z</time>
      </trkpt>
      <trkpt lat="37.289248000" lon="-5.500144000">
        <ele>128.0</ele>
        <time>2020-10-11T16:00:42Z</time>
      </trkpt>
      <trkpt lat="37.289287000" lon="-5.500015000">
        <ele>128.0</ele>
        <time>2020-10-11T16:00:45Z</time>
      </trkpt>
      <trkpt lat="37.289323000" lon="-5.499917000">
        <ele>127.8</ele>
        <time>2020-10-11T16:00:48Z</time>
      </trkpt>
      <trkpt lat="37.289362000" lon="-5.499812000">
        <ele>127.5</ele>
        <time>2020-10-11T16:00:51Z</time>
      </trkpt>
      <trkpt lat="37.289402000" lon="-5.499698000">
        <ele>127.2</ele>
        <time>2020-10-11T16:00:54Z</time>
      </trkpt>
      <trkpt lat="37.289443000" lon="-5.499588000">
        <ele>126.8</ele>
        <time>2020-10-11T16:00:57Z</time>
      </trkpt>
      <trkpt lat="37.289491000" lon="-5.499469000">
        <ele>126.5</ele>
        <time>2020-10-11T16:01:00Z</time>
      </trkpt>
      <trkpt lat="37.289535000" lon="-5.499349000">
        <ele>126.1</ele>
        <time>2020-10-11T16:01:03Z</time>
      </trkpt>
      <trkpt lat="37.289583000" lon="-5.499235000">
        <ele>125.8</ele>
        <time>2020-10-11T16:01:06Z</time>
      </trkpt>
      <trkpt lat="37.289639000" lon="-5.499113000">
        <ele>125.5</ele>
        <time>2020-10-11T16:01:09Z</time>
      </trkpt>
      <trkpt lat="37.289695000" lon="-5.498987000">
        <ele>125.4</ele>
        <time>2020-10-11T16:01:12Z</time>
      </trkpt>
      <trkpt lat="37.289745000" lon="-5.498864000">
        <ele>125.2</ele>
        <time>2020-10-11T16:01:15Z</time>
      </trkpt>
      <trkpt lat="37.289792000" lon="-5.498738000">
        <ele>124.9</ele>
        <time>2020-10-11T16:01:18Z</time>
      </trkpt>
      <trkpt lat="37.289838000" lon="-5.498612000">
        <ele>124.7</ele>
        <time>2020-10-11T16:01:21Z</time>
      </trkpt>
      <trkpt lat="37.289885000" lon="-5.498486000">
        <ele>124.6</ele>
        <time>2020-10-11T16:01:24Z</time>
      </trkpt>
      <trkpt lat="37.289923000" lon="-5.498356000">
        <ele>124.5</ele>
        <time>2020-10-11T16:01:27Z</time>
      </trkpt>
      <trkpt lat="37.289957000" lon="-5.498232000">
        <ele>124.5</ele>
        <time>2020-10-11T16:01:30Z</time>
      </trkpt>
      <trkpt lat="37.289992000" lon="-5.498102000">
        <ele>124.5</ele>
        <time>2020-10-11T16:01:33Z</time>
      </trkpt>
      <trkpt lat="37.290032000" lon="-5.497970000">
        <ele>124.5</ele>
        <time>2020-10-11T16:01:36Z</time>
      </trkpt>
      <trkpt lat="37.290069000" lon="-5.497832000">
        <ele>124.5</ele>
        <time>2020-10-11T16:01:39Z</time>
      </trkpt>
      <trkpt lat="37.290093000" lon="-5.497734000">
        <ele>124.4</ele>
        <time>2020-10-11T16:01:41Z</time>
      </trkpt>
      <trkpt lat="37.290114000" lon="-5.497630000">
        <ele>124.2</ele>
        <time>2020-10-11T16:01:43Z</time>
      </trkpt>
      <trkpt lat="37.290131000" lon="-5.497514000">
        <ele>124.0</ele>
        <time>2020-10-11T16:01:45Z</time>
      </trkpt>
      <trkpt lat="37.290156000" lon="-5.497400000">
        <ele>123.8</ele>
        <time>2020-10-11T16:01:47Z</time>
      </trkpt>
      <trkpt lat="37.290178000" lon="-5.497288000">
        <ele>123.6</ele>
        <time>2020-10-11T16:01:49Z</time>
      </trkpt>
      <trkpt lat="37.290205000" lon="-5.497171000">
        <ele>123.5</ele>
        <time>2020-10-11T16:01:51Z</time>
      </trkpt>
      <trkpt lat="37.290230000" lon="-5.497056000">
        <ele>123.3</ele>
        <time>2020-10-11T16:01:53Z</time>
      </trkpt>
      <trkpt lat="37.290261000" lon="-5.496943000">
        <ele>123.1</ele>
        <time>2020-10-11T16:01:55Z</time>
      </trkpt>
      <trkpt lat="37.290299000" lon="-5.496834000">
        <ele>122.9</ele>
        <time>2020-10-11T16:01:57Z</time>
      </trkpt>
      <trkpt lat="37.290346000" lon="-5.496733000">
        <ele>122.7</ele>
        <time>2020-10-11T16:01:59Z</time>
      </trkpt>
      <trkpt lat="37.290394000" lon="-5.496631000">
        <ele>122.5</ele>
        <time>2020-10-11T16:02:01Z</time>
      </trkpt>
      <trkpt lat="37.290443000" lon="-5.496547000">
        <ele>122.5</ele>
        <time>2020-10-11T16:02:03Z</time>
      </trkpt>
      <trkpt lat="37.290512000" lon="-5.496432000">
        <ele>122.4</ele>
        <time>2020-10-11T16:02:06Z</time>
      </trkpt>
      <trkpt lat="37.290582000" lon="-5.496316000">
        <ele>122.3</ele>
        <time>2020-10-11T16:02:09Z</time>
      </trkpt>
      <trkpt lat="37.290644000" lon="-5.496250000">
        <ele>122.2</ele>
        <time>2020-10-11T16:02:11Z</time>
      </trkpt>
      <trkpt lat="37.290708000" lon="-5.496179000">
        <ele>122.1</ele>
        <time>2020-10-11T16:02:13Z</time>
      </trkpt>
      <trkpt lat="37.290773000" lon="-5.496109000">
        <ele>122.0</ele>
        <time>2020-10-11T16:02:15Z</time>
      </trkpt>
      <trkpt lat="37.290838000" lon="-5.496043000">
        <ele>122.0</ele>
        <time>2020-10-11T16:02:17Z</time>
      </trkpt>
      <trkpt lat="37.290926000" lon="-5.495951000">
        <ele>122.0</ele>
        <time>2020-10-11T16:02:20Z</time>
      </trkpt>
      <trkpt lat="37.291007000" lon="-5.495858000">
        <ele>122.0</ele>
        <time>2020-10-11T16:02:23Z</time>
      </trkpt>
      <trkpt lat="37.291091000" lon="-5.495777000">
        <ele>122.1</ele>
        <time>2020-10-11T16:02:26Z</time>
      </trkpt>
      <trkpt lat="37.291171000" lon="-5.495700000">
        <ele>122.2</ele>
        <time>2020-10-11T16:02:29Z</time>
      </trkpt>
      <trkpt lat="37.291253000" lon="-5.495623000">
        <ele>122.4</ele>
        <time>2020-10-11T16:02:32Z</time>
      </trkpt>
      <trkpt lat="37.291328000" lon="-5.495550000">
        <ele>122.5</ele>
        <time>2020-10-11T16:02:35Z</time>
      </trkpt>
      <trkpt lat="37.291392000" lon="-5.495485000">
        <ele>122.8</ele>
        <time>2020-10-11T16:02:38Z</time>
      </trkpt>
      <trkpt lat="37.291471000" lon="-5.495408000">
        <ele>123.1</ele>
        <time>2020-10-11T16:02:42Z</time>
      </trkpt>
      <trkpt lat="37.291554000" lon="-5.495327000">
        <ele>123.5</ele>
        <time>2020-10-11T16:02:46Z</time>
      </trkpt>
      <trkpt lat="37.291622000" lon="-5.495262000">
        <ele>123.8</ele>
        <time>2020-10-11T16:02:49Z</time>
      </trkpt>
      <trkpt lat="37.291692000" lon="-5.495193000">
        <ele>124.1</ele>
        <time>2020-10-11T16:02:52Z</time>
      </trkpt>
      <trkpt lat="37.291774000" lon="-5.495107000">
        <ele>124.4</ele>
        <time>2020-10-11T16:02:56Z</time>
      </trkpt>
      <trkpt lat="37.291840000" lon="-5.495047000">
        <ele>124.6</ele>
        <time>2020-10-11T16:02:59Z</time>
      </trkpt>
      <trkpt lat="37.291911000" lon="-5.494979000">
        <ele>124.8</ele>
        <time>2020-10-11T16:03:02Z</time>
      </trkpt>
      <trkpt lat="37.291997000" lon="-5.494911000">
        <ele>125.0</ele>
        <time>2020-10-11T16:03:05Z</time>
      </trkpt>
      <trkpt lat="37.292078000" lon="-5.494853000">
        <ele>125.1</ele>
        <time>2020-10-11T16:03:08Z</time>
      </trkpt>
      <trkpt lat="37.292161000" lon="-5.494787000">
        <ele>125.2</ele>
        <time>2020-10-11T16:03:11Z</time>
      </trkpt>
      <trkpt lat="37.292242000" lon="-5.494721000">
        <ele>125.3</ele>
        <time>2020-10-11T16:03:14Z</time>
      </trkpt>
      <trkpt lat="37.292330000" lon="-5.494652000">
        <ele>125.4</ele>
        <time>2020-10-11T16:03:17Z</time>
      </trkpt>
      <trkpt lat="37.292418000" lon="-5.494592000">
        <ele>125.4</ele>
        <time>2020-10-11T16:03:20Z</time>
      </trkpt>
      <trkpt lat="37.292509000" lon="-5.494532000">
        <ele>125.4</ele>
        <time>2020-10-11T16:03:23Z</time>
      </trkpt>
      <trkpt lat="37.292587000" lon="-5.494467000">
        <ele>125.5</ele>
        <time>2020-10-11T16:03:26Z</time>
      </trkpt>
      <trkpt lat="37.292673000" lon="-5.494398000">
        <ele>125.5</ele>
        <time>2020-10-11T16:03:30Z</time>
      </trkpt>
      <trkpt lat="37.292750000" lon="-5.494344000">
        <ele>125.7</ele>
        <time>2020-10-11T16:03:33Z</time>
      </trkpt>
      <trkpt lat="37.292823000" lon="-5.494292000">
        <ele>125.8</ele>
        <time>2020-10-11T16:03:36Z</time>
      </trkpt>
      <trkpt lat="37.292893000" lon="-5.494209000">
        <ele>125.9</ele>
        <time>2020-10-11T16:03:40Z</time>
      </trkpt>
      <trkpt lat="37.292970000" lon="-5.494131000">
        <ele>126.0</ele>
        <time>2020-10-11T16:03:45Z</time>
      </trkpt>
      <trkpt lat="37.293052000" lon="-5.494050000">
        <ele>126.1</ele>
        <time>2020-10-11T16:03:49Z</time>
      </trkpt>
      <trkpt lat="37.293132000" lon="-5.493966000">
        <ele>126.0</ele>
        <time>2020-10-11T16:03:52Z</time>
      </trkpt>
      <trkpt lat="37.293206000" lon="-5.493887000">
        <ele>125.9</ele>
        <time>2020-10-11T16:03:55Z</time>
      </trkpt>
      <trkpt lat="37.293267000" lon="-5.493816000">
        <ele>125.7</ele>
        <time>2020-10-11T16:04:00Z</time>
      </trkpt>
      <trkpt lat="37.293329000" lon="-5.493739000">
        <ele>125.5</ele>
        <time>2020-10-11T16:04:39Z</time>
      </trkpt>
      <trkpt lat="37.293400000" lon="-5.493641000">
        <ele>125.4</ele>
        <time>2020-10-11T16:04:43Z</time>
      </trkpt>
      <trkpt lat="37.293453000" lon="-5.493558000">
        <ele>125.2</ele>
        <time>2020-10-11T16:04:46Z</time>
      </trkpt>
      <trkpt lat="37.293505000" lon="-5.493476000">
        <ele>124.9</ele>
        <time>2020-10-11T16:04:49Z</time>
      </trkpt>
      <trkpt lat="37.293559000" lon="-5.493393000">
        <ele>124.7</ele>
        <time>2020-10-11T16:04:52Z</time>
      </trkpt>
      <trkpt lat="37.293614000" lon="-5.493304000">
        <ele>124.5</ele>
        <time>2020-10-11T16:04:55Z</time>
      </trkpt>
      <trkpt lat="37.293664000" lon="-5.493205000">
        <ele>124.4</ele>
        <time>2020-10-11T16:04:58Z</time>
      </trkpt>
      <trkpt lat="37.293719000" lon="-5.493104000">
        <ele>124.1</ele>
        <time>2020-10-11T16:05:01Z</time>
      </trkpt>
      <trkpt lat="37.293774000" lon="-5.492998000">
        <ele>123.9</ele>
        <time>2020-10-11T16:05:04Z</time>
      </trkpt>
      <trkpt lat="37.293819000" lon="-5.492907000">
        <ele>123.6</ele>
        <time>2020-10-11T16:05:08Z</time>
      </trkpt>
      <trkpt lat="37.293851000" lon="-5.492786000">
        <ele>123.5</ele>
        <time>2020-10-11T16:05:12Z</time>
      </trkpt>
      <trkpt lat="37.293855000" lon="-5.492680000">
        <ele>123.3</ele>
        <time>2020-10-11T16:05:16Z</time>
      </trkpt>
      <trkpt lat="37.293870000" lon="-5.492556000">
        <ele>123.1</ele>
        <time>2020-10-11T16:05:19Z</time>
      </trkpt>
      <trkpt lat="37.293885000" lon="-5.492437000">
        <ele>122.8</ele>
        <time>2020-10-11T16:05:23Z</time>
      </trkpt>
      <trkpt lat="37.293895000" lon="-5.492315000">
        <ele>122.5</ele>
        <time>2020-10-11T16:05:26Z</time>
      </trkpt>
      <trkpt lat="37.293905000" lon="-5.492166000">
        <ele>122.1</ele>
        <time>2020-10-11T16:05:29Z</time>
      </trkpt>
      <trkpt lat="37.293903000" lon="-5.492045000">
        <ele>121.7</ele>
        <time>2020-10-11T16:05:31Z</time>
      </trkpt>
      <trkpt lat="37.293900000" lon="-5.491918000">
        <ele>121.2</ele>
        <time>2020-10-11T16:05:33Z</time>
      </trkpt>
      <trkpt lat="37.293910000" lon="-5.491773000">
        <ele>120.6</ele>
        <time>2020-10-11T16:05:35Z</time>
      </trkpt>
      <trkpt lat="37.293945000" lon="-5.491628000">
        <ele>119.9</ele>
        <time>2020-10-11T16:05:37Z</time>
      </trkpt>
      <trkpt lat="37.294004000" lon="-5.491485000">
        <ele>119.2</ele>
        <time>2020-10-11T16:05:39Z</time>
      </trkpt>
      <trkpt lat="37.294078000" lon="-5.491344000">
        <ele>118.4</ele>
        <time>2020-10-11T16:05:41Z</time>
      </trkpt>
      <trkpt lat="37.294168000" lon="-5.491203000">
        <ele>117.5</ele>
        <time>2020-10-11T16:05:43Z</time>
      </trkpt>
      <trkpt lat="37.294264000" lon="-5.491052000">
        <ele>116.4</ele>
        <time>2020-10-11T16:05:45Z</time>
      </trkpt>
      <trkpt lat="37.294311000" lon="-5.490966000">
        <ele>115.4</ele>
        <time>2020-10-11T16:05:46Z</time>
      </trkpt>
      <trkpt lat="37.294355000" lon="-5.490878000">
        <ele>114.5</ele>
        <time>2020-10-11T16:05:47Z</time>
      </trkpt>
      <trkpt lat="37.294396000" lon="-5.490781000">
        <ele>113.5</ele>
        <time>2020-10-11T16:05:48Z</time>
      </trkpt>
      <trkpt lat="37.294424000" lon="-5.490680000">
        <ele>112.6</ele>
        <time>2020-10-11T16:05:49Z</time>
      </trkpt>
      <trkpt lat="37.294455000" lon="-5.490574000">
        <ele>111.9</ele>
        <time>2020-10-11T16:05:50Z</time>
      </trkpt>
      <trkpt lat="37.294479000" lon="-5.490464000">
        <ele>111.2</ele>
        <time>2020-10-11T16:05:51Z</time>
      </trkpt>
      <trkpt lat="37.294496000" lon="-5.490351000">
        <ele>110.5</ele>
        <time>2020-10-11T16:05:52Z</time>
      </trkpt>
      <trkpt lat="37.294513000" lon="-5.490237000">
        <ele>109.9</ele>
        <time>2020-10-11T16:05:53Z</time>
      </trkpt>
      <trkpt lat="37.294531000" lon="-5.490126000">
        <ele>109.4</ele>
        <time>2020-10-11T16:05:54Z</time>
      </trkpt>
      <trkpt lat="37.294544000" lon="-5.490021000">
        <ele>108.9</ele>
        <time>2020-10-11T16:05:55Z</time>
      </trkpt>
      <trkpt lat="37.294560000" lon="-5.489907000">
        <ele>108.6</ele>
        <time>2020-10-11T16:05:56Z</time>
      </trkpt>
      <trkpt lat="37.294578000" lon="-5.489796000">
        <ele>108.4</ele>
        <time>2020-10-11T16:05:57Z</time>
      </trkpt>
      <trkpt lat="37.294592000" lon="-5.489689000">
        <ele>108.1</ele>
        <time>2020-10-11T16:05:58Z</time>
      </trkpt>
      <trkpt lat="37.294608000" lon="-5.489583000">
        <ele>107.8</ele>
        <time>2020-10-11T16:05:59Z</time>
      </trkpt>
      <trkpt lat="37.294624000" lon="-5.489480000">
        <ele>107.4</ele>
        <time>2020-10-11T16:06:00Z</time>
      </trkpt>
      <trkpt lat="37.294643000" lon="-5.489380000">
        <ele>106.8</ele>
        <time>2020-10-11T16:06:01Z</time>
      </trkpt>
      <trkpt lat="37.294692000" lon="-5.489187000">
        <ele>106.2</ele>
        <time>2020-10-11T16:06:03Z</time>
      </trkpt>
      <trkpt lat="37.294748000" lon="-5.489002000">
        <ele>105.6</ele>
        <time>2020-10-11T16:06:05Z</time>
      </trkpt>
      <trkpt lat="37.294824000" lon="-5.488842000">
        <ele>105.2</ele>
        <time>2020-10-11T16:06:07Z</time>
      </trkpt>
      <trkpt lat="37.294895000" lon="-5.488684000">
        <ele>104.8</ele>
        <time>2020-10-11T16:06:09Z</time>
      </trkpt>
      <trkpt lat="37.294969000" lon="-5.488536000">
        <ele>104.5</ele>
        <time>2020-10-11T16:06:11Z</time>
      </trkpt>
      <trkpt lat="37.295048000" lon="-5.488392000">
        <ele>104.3</ele>
        <time>2020-10-11T16:06:13Z</time>
      </trkpt>
      <trkpt lat="37.295120000" lon="-5.488258000">
        <ele>104.0</ele>
        <time>2020-10-11T16:06:15Z</time>
      </trkpt>
      <trkpt lat="37.295189000" lon="-5.488121000">
        <ele>103.7</ele>
        <time>2020-10-11T16:06:17Z</time>
      </trkpt>
      <trkpt lat="37.295254000" lon="-5.487986000">
        <ele>103.4</ele>
        <time>2020-10-11T16:06:19Z</time>
      </trkpt>
      <trkpt lat="37.295322000" lon="-5.487853000">
        <ele>103.1</ele>
        <time>2020-10-11T16:06:21Z</time>
      </trkpt>
      <trkpt lat="37.295376000" lon="-5.487720000">
        <ele>102.9</ele>
        <time>2020-10-11T16:06:23Z</time>
      </trkpt>
      <trkpt lat="37.295424000" lon="-5.487587000">
        <ele>102.9</ele>
        <time>2020-10-11T16:06:25Z</time>
      </trkpt>
      <trkpt lat="37.295473000" lon="-5.487456000">
        <ele>102.9</ele>
        <time>2020-10-11T16:06:27Z</time>
      </trkpt>
      <trkpt lat="37.295516000" lon="-5.487326000">
        <ele>102.8</ele>
        <time>2020-10-11T16:06:29Z</time>
      </trkpt>
      <trkpt lat="37.295554000" lon="-5.487192000">
        <ele>102.7</ele>
        <time>2020-10-11T16:06:31Z</time>
      </trkpt>
      <trkpt lat="37.295599000" lon="-5.487057000">
        <ele>102.5</ele>
        <time>2020-10-11T16:06:33Z</time>
      </trkpt>
      <trkpt lat="37.295635000" lon="-5.486917000">
        <ele>102.4</ele>
        <time>2020-10-11T16:06:35Z</time>
      </trkpt>
      <trkpt lat="37.295673000" lon="-5.486780000">
        <ele>102.2</ele>
        <time>2020-10-11T16:06:37Z</time>
      </trkpt>
      <trkpt lat="37.295714000" lon="-5.486639000">
        <ele>102.0</ele>
        <time>2020-10-11T16:06:39Z</time>
      </trkpt>
      <trkpt lat="37.295749000" lon="-5.486497000">
        <ele>101.9</ele>
        <time>2020-10-11T16:06:41Z</time>
      </trkpt>
      <trkpt lat="37.295792000" lon="-5.486361000">
        <ele>101.8</ele>
        <time>2020-10-11T16:06:43Z</time>
      </trkpt>
      <trkpt lat="37.295834000" lon="-5.486216000">
        <ele>101.6</ele>
        <time>2020-10-11T16:06:45Z</time>
      </trkpt>
      <trkpt lat="37.295874000" lon="-5.486072000">
        <ele>101.5</ele>
        <time>2020-10-11T16:06:47Z</time>
      </trkpt>
      <trkpt lat="37.295923000" lon="-5.485933000">
        <ele>101.3</ele>
        <time>2020-10-11T16:06:49Z</time>
      </trkpt>
      <trkpt lat="37.295958000" lon="-5.485800000">
        <ele>101.1</ele>
        <time>2020-10-11T16:06:51Z</time>
      </trkpt>
      <trkpt lat="37.296003000" lon="-5.485665000">
        <ele>100.8</ele>
        <time>2020-10-11T16:06:53Z</time>
      </trkpt>
      <trkpt lat="37.296047000" lon="-5.485530000">
        <ele>100.5</ele>
        <time>2020-10-11T16:06:55Z</time>
      </trkpt>
      <trkpt lat="37.296095000" lon="-5.485397000">
        <ele>100.1</ele>
        <time>2020-10-11T16:06:57Z</time>
      </trkpt>
      <trkpt lat="37.296144000" lon="-5.485263000">
        <ele>99.7</ele>
        <time>2020-10-11T16:06:59Z</time>
      </trkpt>
      <trkpt lat="37.296190000" lon="-5.485132000">
        <ele>99.5</ele>
        <time>2020-10-11T16:07:01Z</time>
      </trkpt>
      <trkpt lat="37.296237000" lon="-5.485001000">
        <ele>99.2</ele>
        <time>2020-10-11T16:07:03Z</time>
      </trkpt>
      <trkpt lat="37.296286000" lon="-5.484874000">
        <ele>99.1</ele>
        <time>2020-10-11T16:07:05Z</time>
      </trkpt>
      <trkpt lat="37.296341000" lon="-5.484754000">
        <ele>99.1</ele>
        <time>2020-10-11T16:07:07Z</time>
      </trkpt>
      <trkpt lat="37.296388000" lon="-5.484629000">
        <ele>99.0</ele>
        <time>2020-10-11T16:07:09Z</time>
      </trkpt>
      <trkpt lat="37.296442000" lon="-5.484505000">
        <ele>98.7</ele>
        <time>2020-10-11T16:07:11Z</time>
      </trkpt>
      <trkpt lat="37.296486000" lon="-5.484383000">
        <ele>98.5</ele>
        <time>2020-10-11T16:07:13Z</time>
      </trkpt>
      <trkpt lat="37.296538000" lon="-5.484257000">
        <ele>98.1</ele>
        <time>2020-10-11T16:07:15Z</time>
      </trkpt>
      <trkpt lat="37.296596000" lon="-5.484139000">
        <ele>97.8</ele>
        <time>2020-10-11T16:07:17Z</time>
      </trkpt>
      <trkpt lat="37.296650000" lon="-5.484021000">
        <ele>97.5</ele>
        <time>2020-10-11T16:07:19Z</time>
      </trkpt>
      <trkpt lat="37.296706000" lon="-5.483900000">
        <ele>97.4</ele>
        <time>2020-10-11T16:07:21Z</time>
      </trkpt>
      <trkpt lat="37.296764000" lon="-5.483777000">
        <ele>97.1</ele>
        <time>2020-10-11T16:07:23Z</time>
      </trkpt>
      <trkpt lat="37.296832000" lon="-5.483659000">
        <ele>96.8</ele>
        <time>2020-10-11T16:07:25Z</time>
      </trkpt>
      <trkpt lat="37.296904000" lon="-5.483543000">
        <ele>96.5</ele>
        <time>2020-10-11T16:07:27Z</time>
      </trkpt>
      <trkpt lat="37.296976000" lon="-5.483424000">
        <ele>96.1</ele>
        <time>2020-10-11T16:07:29Z</time>
      </trkpt>
      <trkpt lat="37.297057000" lon="-5.483307000">
        <ele>95.7</ele>
        <time>2020-10-11T16:07:31Z</time>
      </trkpt>
      <trkpt lat="37.297145000" lon="-5.483193000">
        <ele>95.5</ele>
        <time>2020-10-11T16:07:33Z</time>
      </trkpt>
      <trkpt lat="37.297235000" lon="-5.483075000">
        <ele>95.5</ele>
        <time>2020-10-11T16:07:35Z</time>
      </trkpt>
      <trkpt lat="37.297325000" lon="-5.482957000">
        <ele>95.5</ele>
        <time>2020-10-11T16:07:37Z</time>
      </trkpt>
      <trkpt lat="37.297408000" lon="-5.482837000">
        <ele>95.5</ele>
        <time>2020-10-11T16:07:39Z</time>
      </trkpt>
      <trkpt lat="37.297492000" lon="-5.482708000">
        <ele>95.5</ele>
        <time>2020-10-11T16:07:41Z</time>
      </trkpt>
      <trkpt lat="37.297569000" lon="-5.482571000">
        <ele>95.3</ele>
        <time>2020-10-11T16:07:43Z</time>
      </trkpt>
      <trkpt lat="37.297645000" lon="-5.482433000">
        <ele>95.1</ele>
        <time>2020-10-11T16:07:45Z</time>
      </trkpt>
      <trkpt lat="37.297714000" lon="-5.482297000">
        <ele>94.9</ele>
        <time>2020-10-11T16:07:47Z</time>
      </trkpt>
      <trkpt lat="37.297781000" lon="-5.482162000">
        <ele>94.7</ele>
        <time>2020-10-11T16:07:49Z</time>
      </trkpt>
      <trkpt lat="37.297845000" lon="-5.482029000">
        <ele>94.6</ele>
        <time>2020-10-11T16:07:51Z</time>
      </trkpt>
      <trkpt lat="37.297918000" lon="-5.481906000">
        <ele>94.7</ele>
        <time>2020-10-11T16:07:53Z</time>
      </trkpt>
      <trkpt lat="37.297993000" lon="-5.481788000">
        <ele>94.8</ele>
        <time>2020-10-11T16:07:55Z</time>
      </trkpt>
      <trkpt lat="37.298071000" lon="-5.481667000">
        <ele>95.0</ele>
        <time>2020-10-11T16:07:57Z</time>
      </trkpt>
      <trkpt lat="37.298155000" lon="-5.481553000">
        <ele>95.2</ele>
        <time>2020-10-11T16:07:59Z</time>
      </trkpt>
      <trkpt lat="37.298239000" lon="-5.481449000">
        <ele>95.3</ele>
        <time>2020-10-11T16:08:01Z</time>
      </trkpt>
      <trkpt lat="37.298324000" lon="-5.481357000">
        <ele>95.4</ele>
        <time>2020-10-11T16:08:03Z</time>
      </trkpt>
      <trkpt lat="37.298424000" lon="-5.481278000">
        <ele>95.5</ele>
        <time>2020-10-11T16:08:05Z</time>
      </trkpt>
      <trkpt lat="37.298520000" lon="-5.481203000">
        <ele>95.5</ele>
        <time>2020-10-11T16:08:07Z</time>
      </trkpt>
      <trkpt lat="37.298615000" lon="-5.481134000">
        <ele>95.6</ele>
        <time>2020-10-11T16:08:09Z</time>
      </trkpt>
      <trkpt lat="37.298698000" lon="-5.481055000">
        <ele>95.7</ele>
        <time>2020-10-11T16:08:11Z</time>
      </trkpt>
      <trkpt lat="37.298772000" lon="-5.480981000">
        <ele>95.7</ele>
        <time>2020-10-11T16:08:13Z</time>
      </trkpt>
      <trkpt lat="37.298841000" lon="-5.480914000">
        <ele>95.6</ele>
        <time>2020-10-11T16:08:15Z</time>
      </trkpt>
      <trkpt lat="37.298906000" lon="-5.480851000">
        <ele>95.5</ele>
        <time>2020-10-11T16:08:17Z</time>
      </trkpt>
      <trkpt lat="37.298983000" lon="-5.480757000">
        <ele>95.5</ele>
        <time>2020-10-11T16:08:20Z</time>
      </trkpt>
      <trkpt lat="37.299049000" lon="-5.480667000">
        <ele>95.4</ele>
        <time>2020-10-11T16:08:23Z</time>
      </trkpt>
      <trkpt lat="37.299111000" lon="-5.480574000">
        <ele>95.4</ele>
        <time>2020-10-11T16:08:26Z</time>
      </trkpt>
      <trkpt lat="37.299170000" lon="-5.480485000">
        <ele>95.4</ele>
        <time>2020-10-11T16:08:29Z</time>
      </trkpt>
      <trkpt lat="37.299220000" lon="-5.480400000">
        <ele>95.5</ele>
        <time>2020-10-11T16:08:32Z</time>
      </trkpt>
      <trkpt lat="37.299282000" lon="-5.480292000">
        <ele>95.5</ele>
        <time>2020-10-11T16:08:36Z</time>
      </trkpt>
      <trkpt lat="37.299327000" lon="-5.480193000">
        <ele>95.6</ele>
        <time>2020-10-11T16:08:39Z</time>
      </trkpt>
      <trkpt lat="37.299377000" lon="-5.480082000">
        <ele>95.6</ele>
        <time>2020-10-11T16:08:42Z</time>
      </trkpt>
      <trkpt lat="37.299431000" lon="-5.479964000">
        <ele>95.6</ele>
        <time>2020-10-11T16:08:45Z</time>
      </trkpt>
      <trkpt lat="37.299486000" lon="-5.479837000">
        <ele>95.6</ele>
        <time>2020-10-11T16:08:48Z</time>
      </trkpt>
      <trkpt lat="37.299541000" lon="-5.479700000">
        <ele>95.5</ele>
        <time>2020-10-11T16:08:51Z</time>
      </trkpt>
      <trkpt lat="37.299588000" lon="-5.479603000">
        <ele>95.5</ele>
        <time>2020-10-11T16:08:53Z</time>
      </trkpt>
      <trkpt lat="37.299628000" lon="-5.479501000">
        <ele>95.4</ele>
        <time>2020-10-11T16:08:55Z</time>
      </trkpt>
      <trkpt lat="37.299675000" lon="-5.479397000">
        <ele>95.3</ele>
        <time>2020-10-11T16:08:57Z</time>
      </trkpt>
      <trkpt lat="37.299722000" lon="-5.479292000">
        <ele>95.3</ele>
        <time>2020-10-11T16:08:59Z</time>
      </trkpt>
      <trkpt lat="37.299767000" lon="-5.479184000">
        <ele>95.3</ele>
        <time>2020-10-11T16:09:01Z</time>
      </trkpt>
      <trkpt lat="37.299817000" lon="-5.479082000">
        <ele>95.2</ele>
        <time>2020-10-11T16:09:03Z</time>
      </trkpt>
      <trkpt lat="37.299857000" lon="-5.478964000">
        <ele>95.1</ele>
        <time>2020-10-11T16:09:05Z</time>
      </trkpt>
      <trkpt lat="37.299907000" lon="-5.478850000">
        <ele>95.0</ele>
        <time>2020-10-11T16:09:07Z</time>
      </trkpt>
      <trkpt lat="37.299961000" lon="-5.478736000">
        <ele>94.8</ele>
        <time>2020-10-11T16:09:09Z</time>
      </trkpt>
      <trkpt lat="37.300013000" lon="-5.478619000">
        <ele>94.5</ele>
        <time>2020-10-11T16:09:11Z</time>
      </trkpt>
      <trkpt lat="37.300067000" lon="-5.478502000">
        <ele>94.5</ele>
        <time>2020-10-11T16:09:13Z</time>
      </trkpt>
      <trkpt lat="37.300125000" lon="-5.478386000">
        <ele>94.3</ele>
        <time>2020-10-11T16:09:15Z</time>
      </trkpt>
      <trkpt lat="37.300182000" lon="-5.478274000">
        <ele>94.1</ele>
        <time>2020-10-11T16:09:17Z</time>
      </trkpt>
      <trkpt lat="37.300233000" lon="-5.478157000">
        <ele>94.0</ele>
        <time>2020-10-11T16:09:19Z</time>
      </trkpt>
      <trkpt lat="37.300282000" lon="-5.478043000">
        <ele>93.8</ele>
        <time>2020-10-11T16:09:21Z</time>
      </trkpt>
      <trkpt lat="37.300336000" lon="-5.477932000">
        <ele>93.7</ele>
        <time>2020-10-11T16:09:23Z</time>
      </trkpt>
      <trkpt lat="37.300390000" lon="-5.477826000">
        <ele>93.7</ele>
        <time>2020-10-11T16:09:25Z</time>
      </trkpt>
      <trkpt lat="37.300443000" lon="-5.477716000">
        <ele>93.6</ele>
        <time>2020-10-11T16:09:27Z</time>
      </trkpt>
      <trkpt lat="37.300494000" lon="-5.477603000">
        <ele>93.5</ele>
        <time>2020-10-11T16:09:29Z</time>
      </trkpt>
      <trkpt lat="37.300547000" lon="-5.477498000">
        <ele>93.5</ele>
        <time>2020-10-11T16:09:31Z</time>
      </trkpt>
      <trkpt lat="37.300604000" lon="-5.477385000">
        <ele>93.5</ele>
        <time>2020-10-11T16:09:33Z</time>
      </trkpt>
      <trkpt lat="37.300666000" lon="-5.477270000">
        <ele>93.5</ele>
        <time>2020-10-11T16:09:35Z</time>
      </trkpt>
      <trkpt lat="37.300723000" lon="-5.477154000">
        <ele>93.6</ele>
        <time>2020-10-11T16:09:37Z</time>
      </trkpt>
      <trkpt lat="37.300779000" lon="-5.477037000">
        <ele>93.7</ele>
        <time>2020-10-11T16:09:39Z</time>
      </trkpt>
      <trkpt lat="37.300836000" lon="-5.476924000">
        <ele>93.8</ele>
        <time>2020-10-11T16:09:41Z</time>
      </trkpt>
      <trkpt lat="37.300893000" lon="-5.476808000">
        <ele>93.8</ele>
        <time>2020-10-11T16:09:43Z</time>
      </trkpt>
      <trkpt lat="37.300954000" lon="-5.476699000">
        <ele>93.7</ele>
        <time>2020-10-11T16:09:45Z</time>
      </trkpt>
      <trkpt lat="37.301009000" lon="-5.476588000">
        <ele>93.5</ele>
        <time>2020-10-11T16:09:47Z</time>
      </trkpt>
      <trkpt lat="37.301062000" lon="-5.476478000">
        <ele>93.4</ele>
        <time>2020-10-11T16:09:49Z</time>
      </trkpt>
      <trkpt lat="37.301119000" lon="-5.476358000">
        <ele>93.3</ele>
        <time>2020-10-11T16:09:51Z</time>
      </trkpt>
      <trkpt lat="37.301182000" lon="-5.476249000">
        <ele>93.4</ele>
        <time>2020-10-11T16:09:53Z</time>
      </trkpt>
      <trkpt lat="37.301244000" lon="-5.476124000">
        <ele>93.4</ele>
        <time>2020-10-11T16:09:55Z</time>
      </trkpt>
      <trkpt lat="37.301307000" lon="-5.475999000">
        <ele>93.4</ele>
        <time>2020-10-11T16:09:57Z</time>
      </trkpt>
      <trkpt lat="37.301371000" lon="-5.475878000">
        <ele>93.2</ele>
        <time>2020-10-11T16:09:59Z</time>
      </trkpt>
      <trkpt lat="37.301430000" lon="-5.475754000">
        <ele>93.0</ele>
        <time>2020-10-11T16:10:01Z</time>
      </trkpt>
      <trkpt lat="37.301489000" lon="-5.475635000">
        <ele>92.7</ele>
        <time>2020-10-11T16:10:03Z</time>
      </trkpt>
      <trkpt lat="37.301550000" lon="-5.475518000">
        <ele>92.5</ele>
        <time>2020-10-11T16:10:05Z</time>
      </trkpt>
      <trkpt lat="37.301611000" lon="-5.475398000">
        <ele>92.1</ele>
        <time>2020-10-11T16:10:07Z</time>
      </trkpt>
      <trkpt lat="37.301675000" lon="-5.475276000">
        <ele>91.8</ele>
        <time>2020-10-11T16:10:09Z</time>
      </trkpt>
      <trkpt lat="37.301740000" lon="-5.475151000">
        <ele>91.6</ele>
        <time>2020-10-11T16:10:11Z</time>
      </trkpt>
      <trkpt lat="37.301799000" lon="-5.475023000">
        <ele>91.4</ele>
        <time>2020-10-11T16:10:13Z</time>
      </trkpt>
      <trkpt lat="37.301863000" lon="-5.474903000">
        <ele>91.0</ele>
        <time>2020-10-11T16:10:15Z</time>
      </trkpt>
      <trkpt lat="37.301920000" lon="-5.474777000">
        <ele>90.6</ele>
        <time>2020-10-11T16:10:17Z</time>
      </trkpt>
      <trkpt lat="37.301983000" lon="-5.474656000">
        <ele>90.3</ele>
        <time>2020-10-11T16:10:19Z</time>
      </trkpt>
      <trkpt lat="37.302043000" lon="-5.474537000">
        <ele>90.0</ele>
        <time>2020-10-11T16:10:21Z</time>
      </trkpt>
      <trkpt lat="37.302099000" lon="-5.474421000">
        <ele>89.7</ele>
        <time>2020-10-11T16:10:23Z</time>
      </trkpt>
      <trkpt lat="37.302153000" lon="-5.474301000">
        <ele>89.5</ele>
        <time>2020-10-11T16:10:25Z</time>
      </trkpt>
      <trkpt lat="37.302210000" lon="-5.474188000">
        <ele>89.3</ele>
        <time>2020-10-11T16:10:27Z</time>
      </trkpt>
      <trkpt lat="37.302267000" lon="-5.474074000">
        <ele>89.3</ele>
        <time>2020-10-11T16:10:29Z</time>
      </trkpt>
      <trkpt lat="37.302319000" lon="-5.473959000">
        <ele>89.3</ele>
        <time>2020-10-11T16:10:31Z</time>
      </trkpt>
      <trkpt lat="37.302372000" lon="-5.473854000">
        <ele>89.4</ele>
        <time>2020-10-11T16:10:33Z</time>
      </trkpt>
      <trkpt lat="37.302428000" lon="-5.473746000">
        <ele>89.6</ele>
        <time>2020-10-11T16:10:35Z</time>
      </trkpt>
      <trkpt lat="37.302482000" lon="-5.473635000">
        <ele>90.0</ele>
        <time>2020-10-11T16:10:37Z</time>
      </trkpt>
      <trkpt lat="37.302531000" lon="-5.473520000">
        <ele>90.4</ele>
        <time>2020-10-11T16:10:39Z</time>
      </trkpt>
      <trkpt lat="37.302579000" lon="-5.473411000">
        <ele>90.7</ele>
        <time>2020-10-11T16:10:41Z</time>
      </trkpt>
      <trkpt lat="37.302630000" lon="-5.473310000">
        <ele>91.1</ele>
        <time>2020-10-11T16:10:43Z</time>
      </trkpt>
      <trkpt lat="37.302680000" lon="-5.473206000">
        <ele>91.5</ele>
        <time>2020-10-11T16:10:45Z</time>
      </trkpt>
      <trkpt lat="37.302729000" lon="-5.473100000">
        <ele>91.8</ele>
        <time>2020-10-11T16:10:47Z</time>
      </trkpt>
      <trkpt lat="37.302777000" lon="-5.472990000">
        <ele>92.2</ele>
        <time>2020-10-11T16:10:49Z</time>
      </trkpt>
      <trkpt lat="37.302831000" lon="-5.472889000">
        <ele>92.5</ele>
        <time>2020-10-11T16:10:51Z</time>
      </trkpt>
      <trkpt lat="37.302881000" lon="-5.472783000">
        <ele>92.7</ele>
        <time>2020-10-11T16:10:53Z</time>
      </trkpt>
      <trkpt lat="37.302929000" lon="-5.472681000">
        <ele>92.9</ele>
        <time>2020-10-11T16:10:55Z</time>
      </trkpt>
      <trkpt lat="37.302978000" lon="-5.472575000">
        <ele>93.0</ele>
        <time>2020-10-11T16:10:57Z</time>
      </trkpt>
      <trkpt lat="37.303028000" lon="-5.472476000">
        <ele>93.0</ele>
        <time>2020-10-11T16:10:59Z</time>
      </trkpt>
      <trkpt lat="37.303072000" lon="-5.472373000">
        <ele>92.9</ele>
        <time>2020-10-11T16:11:01Z</time>
      </trkpt>
      <trkpt lat="37.303122000" lon="-5.472265000">
        <ele>92.7</ele>
        <time>2020-10-11T16:11:03Z</time>
      </trkpt>
      <trkpt lat="37.303163000" lon="-5.472156000">
        <ele>92.5</ele>
        <time>2020-10-11T16:11:05Z</time>
      </trkpt>
      <trkpt lat="37.303212000" lon="-5.472050000">
        <ele>92.3</ele>
        <time>2020-10-11T16:11:07Z</time>
      </trkpt>
      <trkpt lat="37.303259000" lon="-5.471941000">
        <ele>92.0</ele>
        <time>2020-10-11T16:11:09Z</time>
      </trkpt>
      <trkpt lat="37.303307000" lon="-5.471829000">
        <ele>91.7</ele>
        <time>2020-10-11T16:11:11Z</time>
      </trkpt>
      <trkpt lat="37.303353000" lon="-5.471717000">
        <ele>91.5</ele>
        <time>2020-10-11T16:11:13Z</time>
      </trkpt>
      <trkpt lat="37.303403000" lon="-5.471607000">
        <ele>91.2</ele>
        <time>2020-10-11T16:11:15Z</time>
      </trkpt>
      <trkpt lat="37.303457000" lon="-5.471499000">
        <ele>91.0</ele>
        <time>2020-10-11T16:11:17Z</time>
      </trkpt>
      <trkpt lat="37.303508000" lon="-5.471387000">
        <ele>90.9</ele>
        <time>2020-10-11T16:11:19Z</time>
      </trkpt>
      <trkpt lat="37.303562000" lon="-5.471274000">
        <ele>90.8</ele>
        <time>2020-10-11T16:11:21Z</time>
      </trkpt>
      <trkpt lat="37.303614000" lon="-5.471160000">
        <ele>90.9</ele>
        <time>2020-10-11T16:11:23Z</time>
      </trkpt>
      <trkpt lat="37.303667000" lon="-5.471047000">
        <ele>91.1</ele>
        <time>2020-10-11T16:11:25Z</time>
      </trkpt>
      <trkpt lat="37.303722000" lon="-5.470941000">
        <ele>91.4</ele>
        <time>2020-10-11T16:11:27Z</time>
      </trkpt>
      <trkpt lat="37.303777000" lon="-5.470832000">
        <ele>91.7</ele>
        <time>2020-10-11T16:11:29Z</time>
      </trkpt>
      <trkpt lat="37.303829000" lon="-5.470722000">
        <ele>92.1</ele>
        <time>2020-10-11T16:11:31Z</time>
      </trkpt>
      <trkpt lat="37.303881000" lon="-5.470609000">
        <ele>92.5</ele>
        <time>2020-10-11T16:11:33Z</time>
      </trkpt>
      <trkpt lat="37.303937000" lon="-5.470504000">
        <ele>93.0</ele>
        <time>2020-10-11T16:11:35Z</time>
      </trkpt>
      <trkpt lat="37.303994000" lon="-5.470400000">
        <ele>93.4</ele>
        <time>2020-10-11T16:11:37Z</time>
      </trkpt>
      <trkpt lat="37.304048000" lon="-5.470297000">
        <ele>93.5</ele>
        <time>2020-10-11T16:11:39Z</time>
      </trkpt>
      <trkpt lat="37.304109000" lon="-5.470200000">
        <ele>93.6</ele>
        <time>2020-10-11T16:11:41Z</time>
      </trkpt>
      <trkpt lat="37.304164000" lon="-5.470106000">
        <ele>93.6</ele>
        <time>2020-10-11T16:11:43Z</time>
      </trkpt>
      <trkpt lat="37.304222000" lon="-5.470010000">
        <ele>93.5</ele>
        <time>2020-10-11T16:11:45Z</time>
      </trkpt>
      <trkpt lat="37.304282000" lon="-5.469911000">
        <ele>93.5</ele>
        <time>2020-10-11T16:11:47Z</time>
      </trkpt>
      <trkpt lat="37.304336000" lon="-5.469811000">
        <ele>93.3</ele>
        <time>2020-10-11T16:11:49Z</time>
      </trkpt>
      <trkpt lat="37.304396000" lon="-5.469715000">
        <ele>93.2</ele>
        <time>2020-10-11T16:11:51Z</time>
      </trkpt>
      <trkpt lat="37.304458000" lon="-5.469621000">
        <ele>93.1</ele>
        <time>2020-10-11T16:11:53Z</time>
      </trkpt>
      <trkpt lat="37.304514000" lon="-5.469528000">
        <ele>93.0</ele>
        <time>2020-10-11T16:11:55Z</time>
      </trkpt>
      <trkpt lat="37.304569000" lon="-5.469441000">
        <ele>92.9</ele>
        <time>2020-10-11T16:11:57Z</time>
      </trkpt>
      <trkpt lat="37.304624000" lon="-5.469357000">
        <ele>92.9</ele>
        <time>2020-10-11T16:11:59Z</time>
      </trkpt>
      <trkpt lat="37.304674000" lon="-5.469275000">
        <ele>93.1</ele>
        <time>2020-10-11T16:12:01Z</time>
      </trkpt>
      <trkpt lat="37.304732000" lon="-5.469186000">
        <ele>93.3</ele>
        <time>2020-10-11T16:12:03Z</time>
      </trkpt>
      <trkpt lat="37.304786000" lon="-5.469099000">
        <ele>93.5</ele>
        <time>2020-10-11T16:12:05Z</time>
      </trkpt>
      <trkpt lat="37.304838000" lon="-5.469011000">
        <ele>93.6</ele>
        <time>2020-10-11T16:12:07Z</time>
      </trkpt>
      <trkpt lat="37.304886000" lon="-5.468922000">
        <ele>93.9</ele>
        <time>2020-10-11T16:12:09Z</time>
      </trkpt>
      <trkpt lat="37.304930000" lon="-5.468834000">
        <ele>94.2</ele>
        <time>2020-10-11T16:12:11Z</time>
      </trkpt>
      <trkpt lat="37.304989000" lon="-5.468703000">
        <ele>94.4</ele>
        <time>2020-10-11T16:12:14Z</time>
      </trkpt>
      <trkpt lat="37.305043000" lon="-5.468570000">
        <ele>94.6</ele>
        <time>2020-10-11T16:12:17Z</time>
      </trkpt>
      <trkpt lat="37.305097000" lon="-5.468433000">
        <ele>94.8</ele>
        <time>2020-10-11T16:12:20Z</time>
      </trkpt>
      <trkpt lat="37.305140000" lon="-5.468340000">
        <ele>95.0</ele>
        <time>2020-10-11T16:12:22Z</time>
      </trkpt>
      <trkpt lat="37.305180000" lon="-5.468215000">
        <ele>95.2</ele>
        <time>2020-10-11T16:12:25Z</time>
      </trkpt>
      <trkpt lat="37.305229000" lon="-5.468092000">
        <ele>95.3</ele>
        <time>2020-10-11T16:12:28Z</time>
      </trkpt>
      <trkpt lat="37.305271000" lon="-5.468001000">
        <ele>95.4</ele>
        <time>2020-10-11T16:12:30Z</time>
      </trkpt>
      <trkpt lat="37.305314000" lon="-5.467910000">
        <ele>95.5</ele>
        <time>2020-10-11T16:12:32Z</time>
      </trkpt>
      <trkpt lat="37.305373000" lon="-5.467782000">
        <ele>95.8</ele>
        <time>2020-10-11T16:12:35Z</time>
      </trkpt>
      <trkpt lat="37.305435000" lon="-5.467660000">
        <ele>96.1</ele>
        <time>2020-10-11T16:12:38Z</time>
      </trkpt>
      <trkpt lat="37.305499000" lon="-5.467536000">
        <ele>96.4</ele>
        <time>2020-10-11T16:12:41Z</time>
      </trkpt>
      <trkpt lat="37.305563000" lon="-5.467412000">
        <ele>96.6</ele>
        <time>2020-10-11T16:12:44Z</time>
      </trkpt>
      <trkpt lat="37.305634000" lon="-5.467296000">
        <ele>96.8</ele>
        <time>2020-10-11T16:12:47Z</time>
      </trkpt>
      <trkpt lat="37.305702000" lon="-5.467180000">
        <ele>97.1</ele>
        <time>2020-10-11T16:12:50Z</time>
      </trkpt>
      <trkpt lat="37.305766000" lon="-5.467062000">
        <ele>97.4</ele>
        <time>2020-10-11T16:12:53Z</time>
      </trkpt>
      <trkpt lat="37.305836000" lon="-5.466949000">
        <ele>97.6</ele>
        <time>2020-10-11T16:12:56Z</time>
      </trkpt>
      <trkpt lat="37.305904000" lon="-5.466830000">
        <ele>97.9</ele>
        <time>2020-10-11T16:12:59Z</time>
      </trkpt>
      <trkpt lat="37.305969000" lon="-5.466719000">
        <ele>98.1</ele>
        <time>2020-10-11T16:13:02Z</time>
      </trkpt>
      <trkpt lat="37.306046000" lon="-5.466619000">
        <ele>98.3</ele>
        <time>2020-10-11T16:13:05Z</time>
      </trkpt>
      <trkpt lat="37.306129000" lon="-5.466523000">
        <ele>98.4</ele>
        <time>2020-10-11T16:13:08Z</time>
      </trkpt>
      <trkpt lat="37.306221000" lon="-5.466428000">
        <ele>98.3</ele>
        <time>2020-10-11T16:13:11Z</time>
      </trkpt>
      <trkpt lat="37.306315000" lon="-5.466333000">
        <ele>98.2</ele>
        <time>2020-10-11T16:13:14Z</time>
      </trkpt>
      <trkpt lat="37.306409000" lon="-5.466242000">
        <ele>98.1</ele>
        <time>2020-10-11T16:13:17Z</time>
      </trkpt>
      <trkpt lat="37.306475000" lon="-5.466181000">
        <ele>97.9</ele>
        <time>2020-10-11T16:13:19Z</time>
      </trkpt>
      <trkpt lat="37.306540000" lon="-5.466120000">
        <ele>97.7</ele>
        <time>2020-10-11T16:13:21Z</time>
      </trkpt>
      <trkpt lat="37.306606000" lon="-5.466061000">
        <ele>97.5</ele>
        <time>2020-10-11T16:13:23Z</time>
      </trkpt>
      <trkpt lat="37.306707000" lon="-5.465973000">
        <ele>97.5</ele>
        <time>2020-10-11T16:13:26Z</time>
      </trkpt>
      <trkpt lat="37.306781000" lon="-5.465907000">
        <ele>97.5</ele>
        <time>2020-10-11T16:13:28Z</time>
      </trkpt>
      <trkpt lat="37.306857000" lon="-5.465843000">
        <ele>97.5</ele>
        <time>2020-10-11T16:13:30Z</time>
      </trkpt>
      <trkpt lat="37.306939000" lon="-5.465772000">
        <ele>97.5</ele>
        <time>2020-10-11T16:13:32Z</time>
      </trkpt>
      <trkpt lat="37.307020000" lon="-5.465702000">
        <ele>97.5</ele>
        <time>2020-10-11T16:13:34Z</time>
      </trkpt>
      <trkpt lat="37.307109000" lon="-5.465632000">
        <ele>97.5</ele>
        <time>2020-10-11T16:13:36Z</time>
      </trkpt>
      <trkpt lat="37.307199000" lon="-5.465559000">
        <ele>97.4</ele>
        <time>2020-10-11T16:13:38Z</time>
      </trkpt>
      <trkpt lat="37.307287000" lon="-5.465485000">
        <ele>97.3</ele>
        <time>2020-10-11T16:13:40Z</time>
      </trkpt>
      <trkpt lat="37.307376000" lon="-5.465408000">
        <ele>97.2</ele>
        <time>2020-10-11T16:13:42Z</time>
      </trkpt>
      <trkpt lat="37.307470000" lon="-5.465335000">
        <ele>96.9</ele>
        <time>2020-10-11T16:13:44Z</time>
      </trkpt>
      <trkpt lat="37.307563000" lon="-5.465247000">
        <ele>96.6</ele>
        <time>2020-10-11T16:13:46Z</time>
      </trkpt>
      <trkpt lat="37.307659000" lon="-5.465160000">
        <ele>96.2</ele>
        <time>2020-10-11T16:13:48Z</time>
      </trkpt>
      <trkpt lat="37.307751000" lon="-5.465070000">
        <ele>95.6</ele>
        <time>2020-10-11T16:13:50Z</time>
      </trkpt>
      <trkpt lat="37.307833000" lon="-5.464974000">
        <ele>95.1</ele>
        <time>2020-10-11T16:13:52Z</time>
      </trkpt>
      <trkpt lat="37.307905000" lon="-5.464873000">
        <ele>94.5</ele>
        <time>2020-10-11T16:13:54Z</time>
      </trkpt>
      <trkpt lat="37.307967000" lon="-5.464771000">
        <ele>94.1</ele>
        <time>2020-10-11T16:13:56Z</time>
      </trkpt>
      <trkpt lat="37.308032000" lon="-5.464675000">
        <ele>93.7</ele>
        <time>2020-10-11T16:13:58Z</time>
      </trkpt>
      <trkpt lat="37.308094000" lon="-5.464570000">
        <ele>93.5</ele>
        <time>2020-10-11T16:14:00Z</time>
      </trkpt>
      <trkpt lat="37.308153000" lon="-5.464476000">
        <ele>93.5</ele>
        <time>2020-10-11T16:14:02Z</time>
      </trkpt>
      <trkpt lat="37.308206000" lon="-5.464375000">
        <ele>93.5</ele>
        <time>2020-10-11T16:14:04Z</time>
      </trkpt>
      <trkpt lat="37.308261000" lon="-5.464280000">
        <ele>93.7</ele>
        <time>2020-10-11T16:14:06Z</time>
      </trkpt>
      <trkpt lat="37.308319000" lon="-5.464190000">
        <ele>94.0</ele>
        <time>2020-10-11T16:14:08Z</time>
      </trkpt>
      <trkpt lat="37.308370000" lon="-5.464097000">
        <ele>94.5</ele>
        <time>2020-10-11T16:14:10Z</time>
      </trkpt>
      <trkpt lat="37.308422000" lon="-5.464008000">
        <ele>94.9</ele>
        <time>2020-10-11T16:14:12Z</time>
      </trkpt>
      <trkpt lat="37.308473000" lon="-5.463917000">
        <ele>95.5</ele>
        <time>2020-10-11T16:14:14Z</time>
      </trkpt>
      <trkpt lat="37.308522000" lon="-5.463822000">
        <ele>95.9</ele>
        <time>2020-10-11T16:14:16Z</time>
      </trkpt>
      <trkpt lat="37.308572000" lon="-5.463729000">
        <ele>96.3</ele>
        <time>2020-10-11T16:14:18Z</time>
      </trkpt>
      <trkpt lat="37.308626000" lon="-5.463639000">
        <ele>96.6</ele>
        <time>2020-10-11T16:14:20Z</time>
      </trkpt>
      <trkpt lat="37.308682000" lon="-5.463551000">
        <ele>96.9</ele>
        <time>2020-10-11T16:14:22Z</time>
      </trkpt>
      <trkpt lat="37.308733000" lon="-5.463461000">
        <ele>97.1</ele>
        <time>2020-10-11T16:14:24Z</time>
      </trkpt>
      <trkpt lat="37.308780000" lon="-5.463372000">
        <ele>97.1</ele>
        <time>2020-10-11T16:14:26Z</time>
      </trkpt>
      <trkpt lat="37.308829000" lon="-5.463283000">
        <ele>97.1</ele>
        <time>2020-10-11T16:14:28Z</time>
      </trkpt>
      <trkpt lat="37.308879000" lon="-5.463194000">
        <ele>97.0</ele>
        <time>2020-10-11T16:14:30Z</time>
      </trkpt>
      <trkpt lat="37.308930000" lon="-5.463106000">
        <ele>96.8</ele>
        <time>2020-10-11T16:14:32Z</time>
      </trkpt>
      <trkpt lat="37.308978000" lon="-5.463016000">
        <ele>96.5</ele>
        <time>2020-10-11T16:14:34Z</time>
      </trkpt>
      <trkpt lat="37.309025000" lon="-5.462921000">
        <ele>96.3</ele>
        <time>2020-10-11T16:14:36Z</time>
      </trkpt>
      <trkpt lat="37.309070000" lon="-5.462826000">
        <ele>96.2</ele>
        <time>2020-10-11T16:14:38Z</time>
      </trkpt>
      <trkpt lat="37.309114000" lon="-5.462733000">
        <ele>96.1</ele>
        <time>2020-10-11T16:14:40Z</time>
      </trkpt>
      <trkpt lat="37.309156000" lon="-5.462645000">
        <ele>96.1</ele>
        <time>2020-10-11T16:14:42Z</time>
      </trkpt>
      <trkpt lat="37.309199000" lon="-5.462557000">
        <ele>96.1</ele>
        <time>2020-10-11T16:14:44Z</time>
      </trkpt>
      <trkpt lat="37.309254000" lon="-5.462423000">
        <ele>96.1</ele>
        <time>2020-10-11T16:14:47Z</time>
      </trkpt>
      <trkpt lat="37.309293000" lon="-5.462333000">
        <ele>96.2</ele>
        <time>2020-10-11T16:14:49Z</time>
      </trkpt>
      <trkpt lat="37.309351000" lon="-5.462202000">
        <ele>96.3</ele>
        <time>2020-10-11T16:14:52Z</time>
      </trkpt>
      <trkpt lat="37.309402000" lon="-5.462072000">
        <ele>96.4</ele>
        <time>2020-10-11T16:14:55Z</time>
      </trkpt>
      <trkpt lat="37.309453000" lon="-5.461940000">
        <ele>96.5</ele>
        <time>2020-10-11T16:14:58Z</time>
      </trkpt>
      <trkpt lat="37.309512000" lon="-5.461809000">
        <ele>96.6</ele>
        <time>2020-10-11T16:15:01Z</time>
      </trkpt>
      <trkpt lat="37.309552000" lon="-5.461718000">
        <ele>96.8</ele>
        <time>2020-10-11T16:15:03Z</time>
      </trkpt>
      <trkpt lat="37.309593000" lon="-5.461623000">
        <ele>96.8</ele>
        <time>2020-10-11T16:15:05Z</time>
      </trkpt>
      <trkpt lat="37.309634000" lon="-5.461525000">
        <ele>96.8</ele>
        <time>2020-10-11T16:15:07Z</time>
      </trkpt>
      <trkpt lat="37.309675000" lon="-5.461426000">
        <ele>96.7</ele>
        <time>2020-10-11T16:15:09Z</time>
      </trkpt>
      <trkpt lat="37.309726000" lon="-5.461329000">
        <ele>96.7</ele>
        <time>2020-10-11T16:15:11Z</time>
      </trkpt>
      <trkpt lat="37.309769000" lon="-5.461230000">
        <ele>96.7</ele>
        <time>2020-10-11T16:15:13Z</time>
      </trkpt>
      <trkpt lat="37.309808000" lon="-5.461135000">
        <ele>96.7</ele>
        <time>2020-10-11T16:15:15Z</time>
      </trkpt>
      <trkpt lat="37.309856000" lon="-5.461043000">
        <ele>96.7</ele>
        <time>2020-10-11T16:15:17Z</time>
      </trkpt>
      <trkpt lat="37.309897000" lon="-5.460948000">
        <ele>96.7</ele>
        <time>2020-10-11T16:15:19Z</time>
      </trkpt>
      <trkpt lat="37.309937000" lon="-5.460857000">
        <ele>96.8</ele>
        <time>2020-10-11T16:15:21Z</time>
      </trkpt>
      <trkpt lat="37.309980000" lon="-5.460767000">
        <ele>96.9</ele>
        <time>2020-10-11T16:15:23Z</time>
      </trkpt>
      <trkpt lat="37.310026000" lon="-5.460680000">
        <ele>97.0</ele>
        <time>2020-10-11T16:15:25Z</time>
      </trkpt>
      <trkpt lat="37.310078000" lon="-5.460594000">
        <ele>97.1</ele>
        <time>2020-10-11T16:15:27Z</time>
      </trkpt>
      <trkpt lat="37.310133000" lon="-5.460511000">
        <ele>97.2</ele>
        <time>2020-10-11T16:15:29Z</time>
      </trkpt>
      <trkpt lat="37.310188000" lon="-5.460429000">
        <ele>97.2</ele>
        <time>2020-10-11T16:15:31Z</time>
      </trkpt>
      <trkpt lat="37.310242000" lon="-5.460348000">
        <ele>97.1</ele>
        <time>2020-10-11T16:15:33Z</time>
      </trkpt>
      <trkpt lat="37.310295000" lon="-5.460263000">
        <ele>97.1</ele>
        <time>2020-10-11T16:15:35Z</time>
      </trkpt>
      <trkpt lat="37.310346000" lon="-5.460176000">
        <ele>97.1</ele>
        <time>2020-10-11T16:15:37Z</time>
      </trkpt>
      <trkpt lat="37.310401000" lon="-5.460092000">
        <ele>97.1</ele>
        <time>2020-10-11T16:15:39Z</time>
      </trkpt>
      <trkpt lat="37.310452000" lon="-5.460006000">
        <ele>97.2</ele>
        <time>2020-10-11T16:15:41Z</time>
      </trkpt>
      <trkpt lat="37.310507000" lon="-5.459921000">
        <ele>97.2</ele>
        <time>2020-10-11T16:15:43Z</time>
      </trkpt>
      <trkpt lat="37.310562000" lon="-5.459835000">
        <ele>97.2</ele>
        <time>2020-10-11T16:15:45Z</time>
      </trkpt>
      <trkpt lat="37.310619000" lon="-5.459749000">
        <ele>97.2</ele>
        <time>2020-10-11T16:15:47Z</time>
      </trkpt>
      <trkpt lat="37.310671000" lon="-5.459657000">
        <ele>97.3</ele>
        <time>2020-10-11T16:15:49Z</time>
      </trkpt>
      <trkpt lat="37.310730000" lon="-5.459571000">
        <ele>97.4</ele>
        <time>2020-10-11T16:15:51Z</time>
      </trkpt>
      <trkpt lat="37.310776000" lon="-5.459486000">
        <ele>97.5</ele>
        <time>2020-10-11T16:15:53Z</time>
      </trkpt>
      <trkpt lat="37.310832000" lon="-5.459403000">
        <ele>97.6</ele>
        <time>2020-10-11T16:15:55Z</time>
      </trkpt>
      <trkpt lat="37.310888000" lon="-5.459322000">
        <ele>97.5</ele>
        <time>2020-10-11T16:15:57Z</time>
      </trkpt>
      <trkpt lat="37.310948000" lon="-5.459236000">
        <ele>97.4</ele>
        <time>2020-10-11T16:15:59Z</time>
      </trkpt>
      <trkpt lat="37.311006000" lon="-5.459152000">
        <ele>97.2</ele>
        <time>2020-10-11T16:16:01Z</time>
      </trkpt>
      <trkpt lat="37.311062000" lon="-5.459067000">
        <ele>96.8</ele>
        <time>2020-10-11T16:16:03Z</time>
      </trkpt>
      <trkpt lat="37.311120000" lon="-5.458983000">
        <ele>96.5</ele>
        <time>2020-10-11T16:16:05Z</time>
      </trkpt>
      <trkpt lat="37.311178000" lon="-5.458900000">
        <ele>96.1</ele>
        <time>2020-10-11T16:16:07Z</time>
      </trkpt>
      <trkpt lat="37.311238000" lon="-5.458818000">
        <ele>95.7</ele>
        <time>2020-10-11T16:16:09Z</time>
      </trkpt>
      <trkpt lat="37.311295000" lon="-5.458732000">
        <ele>95.3</ele>
        <time>2020-10-11T16:16:11Z</time>
      </trkpt>
      <trkpt lat="37.311352000" lon="-5.458645000">
        <ele>94.8</ele>
        <time>2020-10-11T16:16:13Z</time>
      </trkpt>
      <trkpt lat="37.311407000" lon="-5.458560000">
        <ele>94.5</ele>
        <time>2020-10-11T16:16:15Z</time>
      </trkpt>
      <trkpt lat="37.311465000" lon="-5.458477000">
        <ele>94.2</ele>
        <time>2020-10-11T16:16:17Z</time>
      </trkpt>
      <trkpt lat="37.311520000" lon="-5.458395000">
        <ele>94.1</ele>
        <time>2020-10-11T16:16:19Z</time>
      </trkpt>
      <trkpt lat="37.311577000" lon="-5.458313000">
        <ele>94.1</ele>
        <time>2020-10-11T16:16:21Z</time>
      </trkpt>
      <trkpt lat="37.311631000" lon="-5.458229000">
        <ele>94.2</ele>
        <time>2020-10-11T16:16:23Z</time>
      </trkpt>
      <trkpt lat="37.311685000" lon="-5.458145000">
        <ele>94.5</ele>
        <time>2020-10-11T16:16:25Z</time>
      </trkpt>
      <trkpt lat="37.311737000" lon="-5.458059000">
        <ele>94.7</ele>
        <time>2020-10-11T16:16:27Z</time>
      </trkpt>
      <trkpt lat="37.311792000" lon="-5.457978000">
        <ele>95.0</ele>
        <time>2020-10-11T16:16:29Z</time>
      </trkpt>
      <trkpt lat="37.311848000" lon="-5.457899000">
        <ele>95.2</ele>
        <time>2020-10-11T16:16:31Z</time>
      </trkpt>
      <trkpt lat="37.311898000" lon="-5.457818000">
        <ele>95.5</ele>
        <time>2020-10-11T16:16:33Z</time>
      </trkpt>
      <trkpt lat="37.311954000" lon="-5.457742000">
        <ele>95.7</ele>
        <time>2020-10-11T16:16:35Z</time>
      </trkpt>
      <trkpt lat="37.312032000" lon="-5.457628000">
        <ele>95.9</ele>
        <time>2020-10-11T16:16:38Z</time>
      </trkpt>
      <trkpt lat="37.312109000" lon="-5.457517000">
        <ele>96.2</ele>
        <time>2020-10-11T16:16:41Z</time>
      </trkpt>
      <trkpt lat="37.312183000" lon="-5.457403000">
        <ele>96.4</ele>
        <time>2020-10-11T16:16:44Z</time>
      </trkpt>
      <trkpt lat="37.312255000" lon="-5.457296000">
        <ele>96.6</ele>
        <time>2020-10-11T16:16:47Z</time>
      </trkpt>
      <trkpt lat="37.312325000" lon="-5.457189000">
        <ele>96.8</ele>
        <time>2020-10-11T16:16:50Z</time>
      </trkpt>
      <trkpt lat="37.312401000" lon="-5.457080000">
        <ele>96.9</ele>
        <time>2020-10-11T16:16:53Z</time>
      </trkpt>
      <trkpt lat="37.312475000" lon="-5.456971000">
        <ele>97.0</ele>
        <time>2020-10-11T16:16:56Z</time>
      </trkpt>
      <trkpt lat="37.312546000" lon="-5.456861000">
        <ele>97.1</ele>
        <time>2020-10-11T16:16:59Z</time>
      </trkpt>
      <trkpt lat="37.312620000" lon="-5.456748000">
        <ele>97.3</ele>
        <time>2020-10-11T16:17:02Z</time>
      </trkpt>
      <trkpt lat="37.312697000" lon="-5.456641000">
        <ele>97.5</ele>
        <time>2020-10-11T16:17:05Z</time>
      </trkpt>
      <trkpt lat="37.312768000" lon="-5.456530000">
        <ele>97.6</ele>
        <time>2020-10-11T16:17:08Z</time>
      </trkpt>
      <trkpt lat="37.312839000" lon="-5.456417000">
        <ele>97.9</ele>
        <time>2020-10-11T16:17:11Z</time>
      </trkpt>
      <trkpt lat="37.312914000" lon="-5.456305000">
        <ele>98.1</ele>
        <time>2020-10-11T16:17:14Z</time>
      </trkpt>
      <trkpt lat="37.312984000" lon="-5.456198000">
        <ele>98.3</ele>
        <time>2020-10-11T16:17:17Z</time>
      </trkpt>
      <trkpt lat="37.313059000" lon="-5.456089000">
        <ele>98.4</ele>
        <time>2020-10-11T16:17:20Z</time>
      </trkpt>
      <trkpt lat="37.313134000" lon="-5.455982000">
        <ele>98.5</ele>
        <time>2020-10-11T16:17:23Z</time>
      </trkpt>
      <trkpt lat="37.313207000" lon="-5.455874000">
        <ele>98.6</ele>
        <time>2020-10-11T16:17:26Z</time>
      </trkpt>
      <trkpt lat="37.313273000" lon="-5.455770000">
        <ele>98.8</ele>
        <time>2020-10-11T16:17:29Z</time>
      </trkpt>
      <trkpt lat="37.313339000" lon="-5.455667000">
        <ele>98.9</ele>
        <time>2020-10-11T16:17:32Z</time>
      </trkpt>
      <trkpt lat="37.313404000" lon="-5.455568000">
        <ele>99.0</ele>
        <time>2020-10-11T16:17:35Z</time>
      </trkpt>
      <trkpt lat="37.313473000" lon="-5.455464000">
        <ele>99.0</ele>
        <time>2020-10-11T16:17:38Z</time>
      </trkpt>
      <trkpt lat="37.313543000" lon="-5.455355000">
        <ele>98.9</ele>
        <time>2020-10-11T16:17:41Z</time>
      </trkpt>
      <trkpt lat="37.313613000" lon="-5.455240000">
        <ele>98.7</ele>
        <time>2020-10-11T16:17:44Z</time>
      </trkpt>
      <trkpt lat="37.313684000" lon="-5.455125000">
        <ele>98.6</ele>
        <time>2020-10-11T16:17:47Z</time>
      </trkpt>
      <trkpt lat="37.313757000" lon="-5.455012000">
        <ele>98.5</ele>
        <time>2020-10-11T16:17:50Z</time>
      </trkpt>
      <trkpt lat="37.313831000" lon="-5.454893000">
        <ele>98.5</ele>
        <time>2020-10-11T16:17:53Z</time>
      </trkpt>
      <trkpt lat="37.313906000" lon="-5.454776000">
        <ele>98.5</ele>
        <time>2020-10-11T16:17:56Z</time>
      </trkpt>
      <trkpt lat="37.313975000" lon="-5.454655000">
        <ele>98.4</ele>
        <time>2020-10-11T16:17:59Z</time>
      </trkpt>
      <trkpt lat="37.314053000" lon="-5.454541000">
        <ele>98.3</ele>
        <time>2020-10-11T16:18:02Z</time>
      </trkpt>
      <trkpt lat="37.314127000" lon="-5.454423000">
        <ele>98.3</ele>
        <time>2020-10-11T16:18:05Z</time>
      </trkpt>
      <trkpt lat="37.314197000" lon="-5.454301000">
        <ele>98.3</ele>
        <time>2020-10-11T16:18:08Z</time>
      </trkpt>
      <trkpt lat="37.314272000" lon="-5.454182000">
        <ele>98.5</ele>
        <time>2020-10-11T16:18:11Z</time>
      </trkpt>
      <trkpt lat="37.314321000" lon="-5.454094000">
        <ele>98.7</ele>
        <time>2020-10-11T16:18:13Z</time>
      </trkpt>
      <trkpt lat="37.314373000" lon="-5.454005000">
        <ele>98.9</ele>
        <time>2020-10-11T16:18:15Z</time>
      </trkpt>
      <trkpt lat="37.314436000" lon="-5.453916000">
        <ele>99.0</ele>
        <time>2020-10-11T16:18:17Z</time>
      </trkpt>
      <trkpt lat="37.314493000" lon="-5.453822000">
        <ele>99.1</ele>
        <time>2020-10-11T16:18:19Z</time>
      </trkpt>
      <trkpt lat="37.314552000" lon="-5.453734000">
        <ele>99.1</ele>
        <time>2020-10-11T16:18:21Z</time>
      </trkpt>
      <trkpt lat="37.314607000" lon="-5.453642000">
        <ele>99.1</ele>
        <time>2020-10-11T16:18:23Z</time>
      </trkpt>
      <trkpt lat="37.314662000" lon="-5.453548000">
        <ele>99.1</ele>
        <time>2020-10-11T16:18:25Z</time>
      </trkpt>
      <trkpt lat="37.314721000" lon="-5.453454000">
        <ele>99.1</ele>
        <time>2020-10-11T16:18:27Z</time>
      </trkpt>
      <trkpt lat="37.314780000" lon="-5.453362000">
        <ele>99.2</ele>
        <time>2020-10-11T16:18:29Z</time>
      </trkpt>
      <trkpt lat="37.314848000" lon="-5.453279000">
        <ele>99.4</ele>
        <time>2020-10-11T16:18:31Z</time>
      </trkpt>
      <trkpt lat="37.314914000" lon="-5.453193000">
        <ele>99.5</ele>
        <time>2020-10-11T16:18:33Z</time>
      </trkpt>
      <trkpt lat="37.314977000" lon="-5.453108000">
        <ele>99.7</ele>
        <time>2020-10-11T16:18:35Z</time>
      </trkpt>
      <trkpt lat="37.315044000" lon="-5.453028000">
        <ele>99.9</ele>
        <time>2020-10-11T16:18:37Z</time>
      </trkpt>
      <trkpt lat="37.315117000" lon="-5.452945000">
        <ele>100.1</ele>
        <time>2020-10-11T16:18:39Z</time>
      </trkpt>
      <trkpt lat="37.315186000" lon="-5.452858000">
        <ele>100.2</ele>
        <time>2020-10-11T16:18:41Z</time>
      </trkpt>
      <trkpt lat="37.315260000" lon="-5.452769000">
        <ele>100.4</ele>
        <time>2020-10-11T16:18:43Z</time>
      </trkpt>
      <trkpt lat="37.315332000" lon="-5.452680000">
        <ele>100.5</ele>
        <time>2020-10-11T16:18:45Z</time>
      </trkpt>
      <trkpt lat="37.315404000" lon="-5.452589000">
        <ele>100.5</ele>
        <time>2020-10-11T16:18:47Z</time>
      </trkpt>
      <trkpt lat="37.315474000" lon="-5.452499000">
        <ele>100.6</ele>
        <time>2020-10-11T16:18:49Z</time>
      </trkpt>
      <trkpt lat="37.315538000" lon="-5.452409000">
        <ele>100.6</ele>
        <time>2020-10-11T16:18:51Z</time>
      </trkpt>
      <trkpt lat="37.315609000" lon="-5.452316000">
        <ele>100.5</ele>
        <time>2020-10-11T16:18:53Z</time>
      </trkpt>
      <trkpt lat="37.315678000" lon="-5.452220000">
        <ele>100.3</ele>
        <time>2020-10-11T16:18:55Z</time>
      </trkpt>
      <trkpt lat="37.315742000" lon="-5.452119000">
        <ele>100.0</ele>
        <time>2020-10-11T16:18:57Z</time>
      </trkpt>
      <trkpt lat="37.315804000" lon="-5.452015000">
        <ele>99.8</ele>
        <time>2020-10-11T16:18:59Z</time>
      </trkpt>
      <trkpt lat="37.315863000" lon="-5.451915000">
        <ele>99.6</ele>
        <time>2020-10-11T16:19:01Z</time>
      </trkpt>
      <trkpt lat="37.315927000" lon="-5.451807000">
        <ele>99.5</ele>
        <time>2020-10-11T16:19:03Z</time>
      </trkpt>
      <trkpt lat="37.315988000" lon="-5.451696000">
        <ele>99.3</ele>
        <time>2020-10-11T16:19:05Z</time>
      </trkpt>
      <trkpt lat="37.316047000" lon="-5.451582000">
        <ele>99.0</ele>
        <time>2020-10-11T16:19:07Z</time>
      </trkpt>
      <trkpt lat="37.316099000" lon="-5.451476000">
        <ele>98.8</ele>
        <time>2020-10-11T16:19:09Z</time>
      </trkpt>
      <trkpt lat="37.316147000" lon="-5.451369000">
        <ele>98.6</ele>
        <time>2020-10-11T16:19:11Z</time>
      </trkpt>
      <trkpt lat="37.316197000" lon="-5.451261000">
        <ele>98.5</ele>
        <time>2020-10-11T16:19:13Z</time>
      </trkpt>
      <trkpt lat="37.316246000" lon="-5.451154000">
        <ele>98.3</ele>
        <time>2020-10-11T16:19:15Z</time>
      </trkpt>
      <trkpt lat="37.316298000" lon="-5.451042000">
        <ele>98.2</ele>
        <time>2020-10-11T16:19:17Z</time>
      </trkpt>
      <trkpt lat="37.316344000" lon="-5.450939000">
        <ele>98.2</ele>
        <time>2020-10-11T16:19:19Z</time>
      </trkpt>
      <trkpt lat="37.316390000" lon="-5.450832000">
        <ele>98.2</ele>
        <time>2020-10-11T16:19:21Z</time>
      </trkpt>
      <trkpt lat="37.316437000" lon="-5.450723000">
        <ele>98.2</ele>
        <time>2020-10-11T16:19:23Z</time>
      </trkpt>
      <trkpt lat="37.316484000" lon="-5.450619000">
        <ele>98.2</ele>
        <time>2020-10-11T16:19:25Z</time>
      </trkpt>
      <trkpt lat="37.316533000" lon="-5.450514000">
        <ele>98.2</ele>
        <time>2020-10-11T16:19:27Z</time>
      </trkpt>
      <trkpt lat="37.316581000" lon="-5.450415000">
        <ele>98.3</ele>
        <time>2020-10-11T16:19:29Z</time>
      </trkpt>
      <trkpt lat="37.316624000" lon="-5.450315000">
        <ele>98.2</ele>
        <time>2020-10-11T16:19:31Z</time>
      </trkpt>
      <trkpt lat="37.316671000" lon="-5.450218000">
        <ele>98.1</ele>
        <time>2020-10-11T16:19:33Z</time>
      </trkpt>
      <trkpt lat="37.316717000" lon="-5.450118000">
        <ele>98.0</ele>
        <time>2020-10-11T16:19:35Z</time>
      </trkpt>
      <trkpt lat="37.316760000" lon="-5.450014000">
        <ele>98.0</ele>
        <time>2020-10-11T16:19:37Z</time>
      </trkpt>
      <trkpt lat="37.316803000" lon="-5.449921000">
        <ele>98.0</ele>
        <time>2020-10-11T16:19:39Z</time>
      </trkpt>
      <trkpt lat="37.316846000" lon="-5.449826000">
        <ele>98.0</ele>
        <time>2020-10-11T16:19:41Z</time>
      </trkpt>
      <trkpt lat="37.316889000" lon="-5.449728000">
        <ele>98.0</ele>
        <time>2020-10-11T16:19:43Z</time>
      </trkpt>
      <trkpt lat="37.316930000" lon="-5.449628000">
        <ele>98.0</ele>
        <time>2020-10-11T16:19:45Z</time>
      </trkpt>
      <trkpt lat="37.316970000" lon="-5.449533000">
        <ele>98.1</ele>
        <time>2020-10-11T16:19:47Z</time>
      </trkpt>
      <trkpt lat="37.317012000" lon="-5.449438000">
        <ele>98.2</ele>
        <time>2020-10-11T16:19:49Z</time>
      </trkpt>
      <trkpt lat="37.317054000" lon="-5.449343000">
        <ele>98.2</ele>
        <time>2020-10-11T16:19:51Z</time>
      </trkpt>
      <trkpt lat="37.317097000" lon="-5.449248000">
        <ele>98.2</ele>
        <time>2020-10-11T16:19:53Z</time>
      </trkpt>
      <trkpt lat="37.317140000" lon="-5.449155000">
        <ele>98.2</ele>
        <time>2020-10-11T16:19:55Z</time>
      </trkpt>
      <trkpt lat="37.317179000" lon="-5.449066000">
        <ele>98.2</ele>
        <time>2020-10-11T16:19:57Z</time>
      </trkpt>
      <trkpt lat="37.317240000" lon="-5.448938000">
        <ele>98.1</ele>
        <time>2020-10-11T16:20:00Z</time>
      </trkpt>
      <trkpt lat="37.317292000" lon="-5.448817000">
        <ele>98.0</ele>
        <time>2020-10-11T16:20:03Z</time>
      </trkpt>
      <trkpt lat="37.317350000" lon="-5.448697000">
        <ele>97.8</ele>
        <time>2020-10-11T16:20:06Z</time>
      </trkpt>
      <trkpt lat="37.317411000" lon="-5.448582000">
        <ele>97.6</ele>
        <time>2020-10-11T16:20:09Z</time>
      </trkpt>
      <trkpt lat="37.317470000" lon="-5.448466000">
        <ele>97.5</ele>
        <time>2020-10-11T16:20:12Z</time>
      </trkpt>
      <trkpt lat="37.317516000" lon="-5.448375000">
        <ele>97.2</ele>
        <time>2020-10-11T16:20:14Z</time>
      </trkpt>
      <trkpt lat="37.317579000" lon="-5.448248000">
        <ele>96.9</ele>
        <time>2020-10-11T16:20:17Z</time>
      </trkpt>
      <trkpt lat="37.317643000" lon="-5.448131000">
        <ele>96.7</ele>
        <time>2020-10-11T16:20:20Z</time>
      </trkpt>
      <trkpt lat="37.317692000" lon="-5.448039000">
        <ele>96.6</ele>
        <time>2020-10-11T16:20:22Z</time>
      </trkpt>
      <trkpt lat="37.317736000" lon="-5.447952000">
        <ele>96.6</ele>
        <time>2020-10-11T16:20:24Z</time>
      </trkpt>
      <trkpt lat="37.317793000" lon="-5.447832000">
        <ele>96.7</ele>
        <time>2020-10-11T16:20:27Z</time>
      </trkpt>
      <trkpt lat="37.317851000" lon="-5.447715000">
        <ele>96.8</ele>
        <time>2020-10-11T16:20:30Z</time>
      </trkpt>
      <trkpt lat="37.317916000" lon="-5.447596000">
        <ele>97.0</ele>
        <time>2020-10-11T16:20:33Z</time>
      </trkpt>
      <trkpt lat="37.317984000" lon="-5.447471000">
        <ele>97.2</ele>
        <time>2020-10-11T16:20:36Z</time>
      </trkpt>
      <trkpt lat="37.318030000" lon="-5.447388000">
        <ele>97.5</ele>
        <time>2020-10-11T16:20:38Z</time>
      </trkpt>
      <trkpt lat="37.318095000" lon="-5.447261000">
        <ele>97.7</ele>
        <time>2020-10-11T16:20:41Z</time>
      </trkpt>
      <trkpt lat="37.318162000" lon="-5.447139000">
        <ele>98.1</ele>
        <time>2020-10-11T16:20:44Z</time>
      </trkpt>
      <trkpt lat="37.318229000" lon="-5.447017000">
        <ele>98.5</ele>
        <time>2020-10-11T16:20:47Z</time>
      </trkpt>
      <trkpt lat="37.318295000" lon="-5.446898000">
        <ele>98.9</ele>
        <time>2020-10-11T16:20:50Z</time>
      </trkpt>
      <trkpt lat="37.318354000" lon="-5.446770000">
        <ele>99.4</ele>
        <time>2020-10-11T16:20:53Z</time>
      </trkpt>
      <trkpt lat="37.318394000" lon="-5.446681000">
        <ele>99.7</ele>
        <time>2020-10-11T16:20:55Z</time>
      </trkpt>
      <trkpt lat="37.318439000" lon="-5.446594000">
        <ele>99.9</ele>
        <time>2020-10-11T16:20:57Z</time>
      </trkpt>
      <trkpt lat="37.318482000" lon="-5.446506000">
        <ele>100.1</ele>
        <time>2020-10-11T16:20:59Z</time>
      </trkpt>
      <trkpt lat="37.318541000" lon="-5.446377000">
        <ele>100.1</ele>
        <time>2020-10-11T16:21:02Z</time>
      </trkpt>
      <trkpt lat="37.318603000" lon="-5.446256000">
        <ele>100.1</ele>
        <time>2020-10-11T16:21:05Z</time>
      </trkpt>
      <trkpt lat="37.318670000" lon="-5.446135000">
        <ele>100.1</ele>
        <time>2020-10-11T16:21:08Z</time>
      </trkpt>
      <trkpt lat="37.318716000" lon="-5.446051000">
        <ele>100.1</ele>
        <time>2020-10-11T16:21:10Z</time>
      </trkpt>
      <trkpt lat="37.318784000" lon="-5.445924000">
        <ele>100.1</ele>
        <time>2020-10-11T16:21:13Z</time>
      </trkpt>
      <trkpt lat="37.318849000" lon="-5.445793000">
        <ele>100.1</ele>
        <time>2020-10-11T16:21:16Z</time>
      </trkpt>
      <trkpt lat="37.318894000" lon="-5.445700000">
        <ele>100.0</ele>
        <time>2020-10-11T16:21:18Z</time>
      </trkpt>
      <trkpt lat="37.318943000" lon="-5.445610000">
        <ele>99.9</ele>
        <time>2020-10-11T16:21:20Z</time>
      </trkpt>
      <trkpt lat="37.318990000" lon="-5.445524000">
        <ele>99.8</ele>
        <time>2020-10-11T16:21:22Z</time>
      </trkpt>
      <trkpt lat="37.319035000" lon="-5.445438000">
        <ele>99.9</ele>
        <time>2020-10-11T16:21:24Z</time>
      </trkpt>
      <trkpt lat="37.319082000" lon="-5.445353000">
        <ele>100.0</ele>
        <time>2020-10-11T16:21:26Z</time>
      </trkpt>
      <trkpt lat="37.319129000" lon="-5.445268000">
        <ele>100.2</ele>
        <time>2020-10-11T16:21:28Z</time>
      </trkpt>
      <trkpt lat="37.319170000" lon="-5.445179000">
        <ele>100.4</ele>
        <time>2020-10-11T16:21:30Z</time>
      </trkpt>
      <trkpt lat="37.319217000" lon="-5.445093000">
        <ele>100.5</ele>
        <time>2020-10-11T16:21:32Z</time>
      </trkpt>
      <trkpt lat="37.319259000" lon="-5.445003000">
        <ele>100.8</ele>
        <time>2020-10-11T16:21:34Z</time>
      </trkpt>
      <trkpt lat="37.319302000" lon="-5.444917000">
        <ele>101.1</ele>
        <time>2020-10-11T16:21:36Z</time>
      </trkpt>
      <trkpt lat="37.319366000" lon="-5.444789000">
        <ele>101.4</ele>
        <time>2020-10-11T16:21:39Z</time>
      </trkpt>
      <trkpt lat="37.319428000" lon="-5.444663000">
        <ele>101.6</ele>
        <time>2020-10-11T16:21:42Z</time>
      </trkpt>
      <trkpt lat="37.319484000" lon="-5.444542000">
        <ele>102.0</ele>
        <time>2020-10-11T16:21:45Z</time>
      </trkpt>
      <trkpt lat="37.319532000" lon="-5.444420000">
        <ele>102.4</ele>
        <time>2020-10-11T16:21:48Z</time>
      </trkpt>
      <trkpt lat="37.319579000" lon="-5.444298000">
        <ele>102.6</ele>
        <time>2020-10-11T16:21:51Z</time>
      </trkpt>
      <trkpt lat="37.319625000" lon="-5.444181000">
        <ele>102.9</ele>
        <time>2020-10-11T16:21:54Z</time>
      </trkpt>
      <trkpt lat="37.319666000" lon="-5.444066000">
        <ele>103.2</ele>
        <time>2020-10-11T16:21:57Z</time>
      </trkpt>
      <trkpt lat="37.319707000" lon="-5.443954000">
        <ele>103.5</ele>
        <time>2020-10-11T16:22:00Z</time>
      </trkpt>
      <trkpt lat="37.319751000" lon="-5.443839000">
        <ele>103.6</ele>
        <time>2020-10-11T16:22:03Z</time>
      </trkpt>
      <trkpt lat="37.319797000" lon="-5.443727000">
        <ele>103.8</ele>
        <time>2020-10-11T16:22:06Z</time>
      </trkpt>
      <trkpt lat="37.319839000" lon="-5.443619000">
        <ele>104.0</ele>
        <time>2020-10-11T16:22:09Z</time>
      </trkpt>
      <trkpt lat="37.319879000" lon="-5.443508000">
        <ele>104.2</ele>
        <time>2020-10-11T16:22:12Z</time>
      </trkpt>
      <trkpt lat="37.319927000" lon="-5.443404000">
        <ele>104.4</ele>
        <time>2020-10-11T16:22:15Z</time>
      </trkpt>
      <trkpt lat="37.319975000" lon="-5.443286000">
        <ele>104.5</ele>
        <time>2020-10-11T16:22:18Z</time>
      </trkpt>
      <trkpt lat="37.320028000" lon="-5.443160000">
        <ele>104.5</ele>
        <time>2020-10-11T16:22:21Z</time>
      </trkpt>
      <trkpt lat="37.320079000" lon="-5.443048000">
        <ele>104.6</ele>
        <time>2020-10-11T16:22:24Z</time>
      </trkpt>
      <trkpt lat="37.320135000" lon="-5.442943000">
        <ele>104.7</ele>
        <time>2020-10-11T16:22:27Z</time>
      </trkpt>
      <trkpt lat="37.320194000" lon="-5.442835000">
        <ele>104.9</ele>
        <time>2020-10-11T16:22:30Z</time>
      </trkpt>
      <trkpt lat="37.320256000" lon="-5.442726000">
        <ele>105.2</ele>
        <time>2020-10-11T16:22:33Z</time>
      </trkpt>
      <trkpt lat="37.320319000" lon="-5.442619000">
        <ele>105.5</ele>
        <time>2020-10-11T16:22:36Z</time>
      </trkpt>
      <trkpt lat="37.320377000" lon="-5.442518000">
        <ele>105.9</ele>
        <time>2020-10-11T16:22:39Z</time>
      </trkpt>
      <trkpt lat="37.320432000" lon="-5.442417000">
        <ele>106.4</ele>
        <time>2020-10-11T16:22:42Z</time>
      </trkpt>
      <trkpt lat="37.320495000" lon="-5.442315000">
        <ele>106.9</ele>
        <time>2020-10-11T16:22:45Z</time>
      </trkpt>
      <trkpt lat="37.320556000" lon="-5.442205000">
        <ele>107.4</ele>
        <time>2020-10-11T16:22:48Z</time>
      </trkpt>
      <trkpt lat="37.320623000" lon="-5.442103000">
        <ele>107.7</ele>
        <time>2020-10-11T16:22:51Z</time>
      </trkpt>
      <trkpt lat="37.320685000" lon="-5.441995000">
        <ele>107.9</ele>
        <time>2020-10-11T16:22:54Z</time>
      </trkpt>
      <trkpt lat="37.320750000" lon="-5.441884000">
        <ele>108.0</ele>
        <time>2020-10-11T16:22:57Z</time>
      </trkpt>
      <trkpt lat="37.320818000" lon="-5.441777000">
        <ele>108.2</ele>
        <time>2020-10-11T16:23:00Z</time>
      </trkpt>
      <trkpt lat="37.320882000" lon="-5.441668000">
        <ele>108.3</ele>
        <time>2020-10-11T16:23:03Z</time>
      </trkpt>
      <trkpt lat="37.320949000" lon="-5.441558000">
        <ele>108.3</ele>
        <time>2020-10-11T16:23:06Z</time>
      </trkpt>
      <trkpt lat="37.321019000" lon="-5.441446000">
        <ele>108.2</ele>
        <time>2020-10-11T16:23:09Z</time>
      </trkpt>
      <trkpt lat="37.321088000" lon="-5.441332000">
        <ele>108.1</ele>
        <time>2020-10-11T16:23:12Z</time>
      </trkpt>
      <trkpt lat="37.321153000" lon="-5.441221000">
        <ele>108.0</ele>
        <time>2020-10-11T16:23:15Z</time>
      </trkpt>
      <trkpt lat="37.321220000" lon="-5.441112000">
        <ele>107.9</ele>
        <time>2020-10-11T16:23:18Z</time>
      </trkpt>
      <trkpt lat="37.321281000" lon="-5.441000000">
        <ele>107.9</ele>
        <time>2020-10-11T16:23:21Z</time>
      </trkpt>
      <trkpt lat="37.321340000" lon="-5.440887000">
        <ele>107.9</ele>
        <time>2020-10-11T16:23:24Z</time>
      </trkpt>
      <trkpt lat="37.321396000" lon="-5.440763000">
        <ele>108.0</ele>
        <time>2020-10-11T16:23:27Z</time>
      </trkpt>
      <trkpt lat="37.321451000" lon="-5.440636000">
        <ele>108.0</ele>
        <time>2020-10-11T16:23:30Z</time>
      </trkpt>
      <trkpt lat="37.321505000" lon="-5.440516000">
        <ele>107.8</ele>
        <time>2020-10-11T16:23:33Z</time>
      </trkpt>
      <trkpt lat="37.321558000" lon="-5.440395000">
        <ele>107.6</ele>
        <time>2020-10-11T16:23:36Z</time>
      </trkpt>
      <trkpt lat="37.321607000" lon="-5.440269000">
        <ele>107.5</ele>
        <time>2020-10-11T16:23:39Z</time>
      </trkpt>
      <trkpt lat="37.321653000" lon="-5.440138000">
        <ele>107.2</ele>
        <time>2020-10-11T16:23:42Z</time>
      </trkpt>
      <trkpt lat="37.321713000" lon="-5.440020000">
        <ele>106.7</ele>
        <time>2020-10-11T16:23:45Z</time>
      </trkpt>
      <trkpt lat="37.321739000" lon="-5.439901000">
        <ele>106.1</ele>
        <time>2020-10-11T16:23:49Z</time>
      </trkpt>
      <trkpt lat="37.321757000" lon="-5.439774000">
        <ele>105.4</ele>
        <time>2020-10-11T16:23:53Z</time>
      </trkpt>
      <trkpt lat="37.321743000" lon="-5.439646000">
        <ele>104.5</ele>
        <time>2020-10-11T16:25:22Z</time>
      </trkpt>
      <trkpt lat="37.321759000" lon="-5.439501000">
        <ele>103.8</ele>
        <time>2020-10-11T16:25:25Z</time>
      </trkpt>
      <trkpt lat="37.321771000" lon="-5.439380000">
        <ele>103.2</ele>
        <time>2020-10-11T16:25:27Z</time>
      </trkpt>
      <trkpt lat="37.321778000" lon="-5.439246000">
        <ele>102.8</ele>
        <time>2020-10-11T16:25:29Z</time>
      </trkpt>
      <trkpt lat="37.321791000" lon="-5.439103000">
        <ele>102.5</ele>
        <time>2020-10-11T16:25:31Z</time>
      </trkpt>
      <trkpt lat="37.321808000" lon="-5.438960000">
        <ele>102.2</ele>
        <time>2020-10-11T16:25:33Z</time>
      </trkpt>
      <trkpt lat="37.321826000" lon="-5.438806000">
        <ele>101.7</ele>
        <time>2020-10-11T16:25:35Z</time>
      </trkpt>
      <trkpt lat="37.321846000" lon="-5.438654000">
        <ele>101.3</ele>
        <time>2020-10-11T16:25:37Z</time>
      </trkpt>
      <trkpt lat="37.321866000" lon="-5.438498000">
        <ele>100.8</ele>
        <time>2020-10-11T16:25:39Z</time>
      </trkpt>
      <trkpt lat="37.321880000" lon="-5.438355000">
        <ele>100.4</ele>
        <time>2020-10-11T16:25:41Z</time>
      </trkpt>
      <trkpt lat="37.321898000" lon="-5.438208000">
        <ele>99.8</ele>
        <time>2020-10-11T16:25:43Z</time>
      </trkpt>
      <trkpt lat="37.321912000" lon="-5.438062000">
        <ele>99.5</ele>
        <time>2020-10-11T16:25:45Z</time>
      </trkpt>
      <trkpt lat="37.321925000" lon="-5.437916000">
        <ele>99.2</ele>
        <time>2020-10-11T16:25:47Z</time>
      </trkpt>
      <trkpt lat="37.321938000" lon="-5.437776000">
        <ele>98.9</ele>
        <time>2020-10-11T16:25:49Z</time>
      </trkpt>
      <trkpt lat="37.321954000" lon="-5.437641000">
        <ele>98.6</ele>
        <time>2020-10-11T16:25:51Z</time>
      </trkpt>
      <trkpt lat="37.321972000" lon="-5.437507000">
        <ele>98.4</ele>
        <time>2020-10-11T16:25:53Z</time>
      </trkpt>
      <trkpt lat="37.321985000" lon="-5.437375000">
        <ele>98.1</ele>
        <time>2020-10-11T16:25:55Z</time>
      </trkpt>
      <trkpt lat="37.322003000" lon="-5.437241000">
        <ele>97.7</ele>
        <time>2020-10-11T16:25:57Z</time>
      </trkpt>
      <trkpt lat="37.322023000" lon="-5.437113000">
        <ele>97.4</ele>
        <time>2020-10-11T16:25:59Z</time>
      </trkpt>
      <trkpt lat="37.322040000" lon="-5.436980000">
        <ele>97.0</ele>
        <time>2020-10-11T16:26:01Z</time>
      </trkpt>
      <trkpt lat="37.322073000" lon="-5.436851000">
        <ele>96.7</ele>
        <time>2020-10-11T16:26:03Z</time>
      </trkpt>
      <trkpt lat="37.322107000" lon="-5.436730000">
        <ele>96.5</ele>
        <time>2020-10-11T16:26:05Z</time>
      </trkpt>
      <trkpt lat="37.322151000" lon="-5.436610000">
        <ele>96.4</ele>
        <time>2020-10-11T16:26:07Z</time>
      </trkpt>
      <trkpt lat="37.322195000" lon="-5.436499000">
        <ele>96.1</ele>
        <time>2020-10-11T16:26:09Z</time>
      </trkpt>
      <trkpt lat="37.322244000" lon="-5.436389000">
        <ele>95.9</ele>
        <time>2020-10-11T16:26:11Z</time>
      </trkpt>
      <trkpt lat="37.322300000" lon="-5.436282000">
        <ele>95.6</ele>
        <time>2020-10-11T16:26:13Z</time>
      </trkpt>
      <trkpt lat="37.322352000" lon="-5.436179000">
        <ele>95.4</ele>
        <time>2020-10-11T16:26:15Z</time>
      </trkpt>
      <trkpt lat="37.322406000" lon="-5.436077000">
        <ele>95.1</ele>
        <time>2020-10-11T16:26:17Z</time>
      </trkpt>
      <trkpt lat="37.322461000" lon="-5.435961000">
        <ele>95.0</ele>
        <time>2020-10-11T16:26:19Z</time>
      </trkpt>
      <trkpt lat="37.322511000" lon="-5.435855000">
        <ele>95.0</ele>
        <time>2020-10-11T16:26:21Z</time>
      </trkpt>
      <trkpt lat="37.322558000" lon="-5.435746000">
        <ele>95.1</ele>
        <time>2020-10-11T16:26:23Z</time>
      </trkpt>
      <trkpt lat="37.322609000" lon="-5.435651000">
        <ele>95.3</ele>
        <time>2020-10-11T16:26:25Z</time>
      </trkpt>
      <trkpt lat="37.322652000" lon="-5.435562000">
        <ele>95.5</ele>
        <time>2020-10-11T16:26:27Z</time>
      </trkpt>
      <trkpt lat="37.322698000" lon="-5.435472000">
        <ele>95.6</ele>
        <time>2020-10-11T16:26:29Z</time>
      </trkpt>
      <trkpt lat="37.322741000" lon="-5.435383000">
        <ele>95.8</ele>
        <time>2020-10-11T16:26:31Z</time>
      </trkpt>
      <trkpt lat="37.322782000" lon="-5.435293000">
        <ele>95.9</ele>
        <time>2020-10-11T16:26:33Z</time>
      </trkpt>
      <trkpt lat="37.322842000" lon="-5.435166000">
        <ele>96.0</ele>
        <time>2020-10-11T16:26:36Z</time>
      </trkpt>
      <trkpt lat="37.322882000" lon="-5.435077000">
        <ele>96.1</ele>
        <time>2020-10-11T16:26:38Z</time>
      </trkpt>
      <trkpt lat="37.322922000" lon="-5.434984000">
        <ele>96.4</ele>
        <time>2020-10-11T16:26:40Z</time>
      </trkpt>
      <trkpt lat="37.322969000" lon="-5.434897000">
        <ele>96.6</ele>
        <time>2020-10-11T16:26:42Z</time>
      </trkpt>
      <trkpt lat="37.323009000" lon="-5.434805000">
        <ele>96.9</ele>
        <time>2020-10-11T16:26:44Z</time>
      </trkpt>
      <trkpt lat="37.323053000" lon="-5.434715000">
        <ele>97.2</ele>
        <time>2020-10-11T16:26:46Z</time>
      </trkpt>
      <trkpt lat="37.323099000" lon="-5.434627000">
        <ele>97.4</ele>
        <time>2020-10-11T16:26:48Z</time>
      </trkpt>
      <trkpt lat="37.323142000" lon="-5.434539000">
        <ele>97.5</ele>
        <time>2020-10-11T16:26:50Z</time>
      </trkpt>
      <trkpt lat="37.323183000" lon="-5.434448000">
        <ele>97.6</ele>
        <time>2020-10-11T16:26:52Z</time>
      </trkpt>
      <trkpt lat="37.323227000" lon="-5.434357000">
        <ele>97.7</ele>
        <time>2020-10-11T16:26:54Z</time>
      </trkpt>
      <trkpt lat="37.323271000" lon="-5.434266000">
        <ele>97.8</ele>
        <time>2020-10-11T16:26:56Z</time>
      </trkpt>
      <trkpt lat="37.323317000" lon="-5.434174000">
        <ele>97.9</ele>
        <time>2020-10-11T16:26:58Z</time>
      </trkpt>
      <trkpt lat="37.323362000" lon="-5.434081000">
        <ele>98.0</ele>
        <time>2020-10-11T16:27:00Z</time>
      </trkpt>
      <trkpt lat="37.323405000" lon="-5.433986000">
        <ele>98.0</ele>
        <time>2020-10-11T16:27:02Z</time>
      </trkpt>
      <trkpt lat="37.323450000" lon="-5.433891000">
        <ele>98.1</ele>
        <time>2020-10-11T16:27:04Z</time>
      </trkpt>
      <trkpt lat="37.323495000" lon="-5.433797000">
        <ele>98.2</ele>
        <time>2020-10-11T16:27:06Z</time>
      </trkpt>
      <trkpt lat="37.323540000" lon="-5.433703000">
        <ele>98.2</ele>
        <time>2020-10-11T16:27:08Z</time>
      </trkpt>
      <trkpt lat="37.323586000" lon="-5.433610000">
        <ele>98.2</ele>
        <time>2020-10-11T16:27:10Z</time>
      </trkpt>
      <trkpt lat="37.323631000" lon="-5.433517000">
        <ele>98.2</ele>
        <time>2020-10-11T16:27:12Z</time>
      </trkpt>
      <trkpt lat="37.323674000" lon="-5.433421000">
        <ele>98.2</ele>
        <time>2020-10-11T16:27:14Z</time>
      </trkpt>
      <trkpt lat="37.323719000" lon="-5.433329000">
        <ele>98.2</ele>
        <time>2020-10-11T16:27:16Z</time>
      </trkpt>
      <trkpt lat="37.323766000" lon="-5.433238000">
        <ele>98.1</ele>
        <time>2020-10-11T16:27:18Z</time>
      </trkpt>
      <trkpt lat="37.323812000" lon="-5.433149000">
        <ele>98.1</ele>
        <time>2020-10-11T16:27:20Z</time>
      </trkpt>
      <trkpt lat="37.323857000" lon="-5.433059000">
        <ele>98.1</ele>
        <time>2020-10-11T16:27:22Z</time>
      </trkpt>
      <trkpt lat="37.323899000" lon="-5.432970000">
        <ele>98.1</ele>
        <time>2020-10-11T16:27:24Z</time>
      </trkpt>
      <trkpt lat="37.323940000" lon="-5.432880000">
        <ele>98.0</ele>
        <time>2020-10-11T16:27:26Z</time>
      </trkpt>
      <trkpt lat="37.323984000" lon="-5.432790000">
        <ele>97.9</ele>
        <time>2020-10-11T16:27:28Z</time>
      </trkpt>
      <trkpt lat="37.324027000" lon="-5.432699000">
        <ele>97.9</ele>
        <time>2020-10-11T16:27:30Z</time>
      </trkpt>
      <trkpt lat="37.324070000" lon="-5.432609000">
        <ele>97.8</ele>
        <time>2020-10-11T16:27:32Z</time>
      </trkpt>
      <trkpt lat="37.324109000" lon="-5.432518000">
        <ele>97.7</ele>
        <time>2020-10-11T16:27:34Z</time>
      </trkpt>
      <trkpt lat="37.324149000" lon="-5.432428000">
        <ele>97.6</ele>
        <time>2020-10-11T16:27:36Z</time>
      </trkpt>
      <trkpt lat="37.324210000" lon="-5.432298000">
        <ele>97.5</ele>
        <time>2020-10-11T16:27:39Z</time>
      </trkpt>
      <trkpt lat="37.324267000" lon="-5.432164000">
        <ele>97.5</ele>
        <time>2020-10-11T16:27:42Z</time>
      </trkpt>
      <trkpt lat="37.324329000" lon="-5.432033000">
        <ele>97.5</ele>
        <time>2020-10-11T16:27:45Z</time>
      </trkpt>
      <trkpt lat="37.324372000" lon="-5.431945000">
        <ele>97.5</ele>
        <time>2020-10-11T16:27:47Z</time>
      </trkpt>
      <trkpt lat="37.324413000" lon="-5.431852000">
        <ele>97.6</ele>
        <time>2020-10-11T16:27:49Z</time>
      </trkpt>
      <trkpt lat="37.324456000" lon="-5.431757000">
        <ele>97.7</ele>
        <time>2020-10-11T16:27:51Z</time>
      </trkpt>
      <trkpt lat="37.324499000" lon="-5.431663000">
        <ele>97.8</ele>
        <time>2020-10-11T16:27:53Z</time>
      </trkpt>
      <trkpt lat="37.324545000" lon="-5.431568000">
        <ele>97.9</ele>
        <time>2020-10-11T16:27:55Z</time>
      </trkpt>
      <trkpt lat="37.324594000" lon="-5.431473000">
        <ele>98.2</ele>
        <time>2020-10-11T16:27:57Z</time>
      </trkpt>
      <trkpt lat="37.324636000" lon="-5.431371000">
        <ele>98.5</ele>
        <time>2020-10-11T16:27:59Z</time>
      </trkpt>
      <trkpt lat="37.324683000" lon="-5.431276000">
        <ele>98.7</ele>
        <time>2020-10-11T16:28:01Z</time>
      </trkpt>
      <trkpt lat="37.324729000" lon="-5.431173000">
        <ele>99.1</ele>
        <time>2020-10-11T16:28:03Z</time>
      </trkpt>
      <trkpt lat="37.324772000" lon="-5.431070000">
        <ele>99.5</ele>
        <time>2020-10-11T16:28:05Z</time>
      </trkpt>
      <trkpt lat="37.324818000" lon="-5.430972000">
        <ele>99.6</ele>
        <time>2020-10-11T16:28:07Z</time>
      </trkpt>
      <trkpt lat="37.324862000" lon="-5.430871000">
        <ele>99.8</ele>
        <time>2020-10-11T16:28:09Z</time>
      </trkpt>
      <trkpt lat="37.324909000" lon="-5.430774000">
        <ele>99.8</ele>
        <time>2020-10-11T16:28:11Z</time>
      </trkpt>
      <trkpt lat="37.324952000" lon="-5.430681000">
        <ele>99.7</ele>
        <time>2020-10-11T16:28:13Z</time>
      </trkpt>
      <trkpt lat="37.324999000" lon="-5.430596000">
        <ele>99.6</ele>
        <time>2020-10-11T16:28:15Z</time>
      </trkpt>
      <trkpt lat="37.325042000" lon="-5.430499000">
        <ele>99.5</ele>
        <time>2020-10-11T16:28:17Z</time>
      </trkpt>
      <trkpt lat="37.325100000" lon="-5.430366000">
        <ele>99.2</ele>
        <time>2020-10-11T16:28:20Z</time>
      </trkpt>
      <trkpt lat="37.325143000" lon="-5.430272000">
        <ele>98.9</ele>
        <time>2020-10-11T16:28:22Z</time>
      </trkpt>
      <trkpt lat="37.325186000" lon="-5.430177000">
        <ele>98.6</ele>
        <time>2020-10-11T16:28:24Z</time>
      </trkpt>
      <trkpt lat="37.325231000" lon="-5.430081000">
        <ele>98.3</ele>
        <time>2020-10-11T16:28:26Z</time>
      </trkpt>
      <trkpt lat="37.325279000" lon="-5.429981000">
        <ele>97.9</ele>
        <time>2020-10-11T16:28:28Z</time>
      </trkpt>
      <trkpt lat="37.325325000" lon="-5.429888000">
        <ele>97.6</ele>
        <time>2020-10-11T16:28:30Z</time>
      </trkpt>
      <trkpt lat="37.325370000" lon="-5.429795000">
        <ele>97.5</ele>
        <time>2020-10-11T16:28:32Z</time>
      </trkpt>
      <trkpt lat="37.325413000" lon="-5.429699000">
        <ele>97.4</ele>
        <time>2020-10-11T16:28:34Z</time>
      </trkpt>
      <trkpt lat="37.325456000" lon="-5.429604000">
        <ele>97.5</ele>
        <time>2020-10-11T16:28:36Z</time>
      </trkpt>
      <trkpt lat="37.325497000" lon="-5.429506000">
        <ele>97.6</ele>
        <time>2020-10-11T16:28:38Z</time>
      </trkpt>
      <trkpt lat="37.325538000" lon="-5.429414000">
        <ele>97.9</ele>
        <time>2020-10-11T16:28:40Z</time>
      </trkpt>
      <trkpt lat="37.325580000" lon="-5.429322000">
        <ele>98.3</ele>
        <time>2020-10-11T16:28:42Z</time>
      </trkpt>
      <trkpt lat="37.325622000" lon="-5.429230000">
        <ele>98.7</ele>
        <time>2020-10-11T16:28:44Z</time>
      </trkpt>
      <trkpt lat="37.325666000" lon="-5.429138000">
        <ele>99.2</ele>
        <time>2020-10-11T16:28:46Z</time>
      </trkpt>
      <trkpt lat="37.325708000" lon="-5.429045000">
        <ele>99.7</ele>
        <time>2020-10-11T16:28:48Z</time>
      </trkpt>
      <trkpt lat="37.325751000" lon="-5.428951000">
        <ele>100.4</ele>
        <time>2020-10-11T16:28:50Z</time>
      </trkpt>
      <trkpt lat="37.325849000" lon="-5.428780000">
        <ele>101.0</ele>
        <time>2020-10-11T16:28:54Z</time>
      </trkpt>
      <trkpt lat="37.325888000" lon="-5.428689000">
        <ele>101.6</ele>
        <time>2020-10-11T16:28:56Z</time>
      </trkpt>
      <trkpt lat="37.325926000" lon="-5.428599000">
        <ele>102.3</ele>
        <time>2020-10-11T16:28:58Z</time>
      </trkpt>
      <trkpt lat="37.325969000" lon="-5.428512000">
        <ele>102.9</ele>
        <time>2020-10-11T16:29:00Z</time>
      </trkpt>
      <trkpt lat="37.326024000" lon="-5.428377000">
        <ele>103.5</ele>
        <time>2020-10-11T16:29:03Z</time>
      </trkpt>
      <trkpt lat="37.326085000" lon="-5.428245000">
        <ele>104.0</ele>
        <time>2020-10-11T16:29:06Z</time>
      </trkpt>
      <trkpt lat="37.326122000" lon="-5.428153000">
        <ele>104.5</ele>
        <time>2020-10-11T16:29:08Z</time>
      </trkpt>
      <trkpt lat="37.326163000" lon="-5.428061000">
        <ele>104.8</ele>
        <time>2020-10-11T16:29:10Z</time>
      </trkpt>
      <trkpt lat="37.326203000" lon="-5.427968000">
        <ele>105.2</ele>
        <time>2020-10-11T16:29:12Z</time>
      </trkpt>
      <trkpt lat="37.326241000" lon="-5.427875000">
        <ele>105.4</ele>
        <time>2020-10-11T16:29:14Z</time>
      </trkpt>
      <trkpt lat="37.326285000" lon="-5.427786000">
        <ele>105.5</ele>
        <time>2020-10-11T16:29:16Z</time>
      </trkpt>
      <trkpt lat="37.326327000" lon="-5.427696000">
        <ele>105.5</ele>
        <time>2020-10-11T16:29:18Z</time>
      </trkpt>
      <trkpt lat="37.326369000" lon="-5.427606000">
        <ele>105.5</ele>
        <time>2020-10-11T16:29:20Z</time>
      </trkpt>
      <trkpt lat="37.326411000" lon="-5.427517000">
        <ele>105.5</ele>
        <time>2020-10-11T16:29:22Z</time>
      </trkpt>
      <trkpt lat="37.326472000" lon="-5.427389000">
        <ele>105.5</ele>
        <time>2020-10-11T16:29:25Z</time>
      </trkpt>
      <trkpt lat="37.326533000" lon="-5.427263000">
        <ele>105.5</ele>
        <time>2020-10-11T16:29:28Z</time>
      </trkpt>
      <trkpt lat="37.326595000" lon="-5.427133000">
        <ele>105.6</ele>
        <time>2020-10-11T16:29:31Z</time>
      </trkpt>
      <trkpt lat="37.326638000" lon="-5.427044000">
        <ele>105.7</ele>
        <time>2020-10-11T16:29:33Z</time>
      </trkpt>
      <trkpt lat="37.326682000" lon="-5.426949000">
        <ele>105.9</ele>
        <time>2020-10-11T16:29:35Z</time>
      </trkpt>
      <trkpt lat="37.326727000" lon="-5.426855000">
        <ele>106.1</ele>
        <time>2020-10-11T16:29:37Z</time>
      </trkpt>
      <trkpt lat="37.326777000" lon="-5.426763000">
        <ele>106.4</ele>
        <time>2020-10-11T16:29:39Z</time>
      </trkpt>
      <trkpt lat="37.326832000" lon="-5.426676000">
        <ele>106.5</ele>
        <time>2020-10-11T16:29:41Z</time>
      </trkpt>
      <trkpt lat="37.326891000" lon="-5.426596000">
        <ele>106.7</ele>
        <time>2020-10-11T16:29:43Z</time>
      </trkpt>
      <trkpt lat="37.326949000" lon="-5.426518000">
        <ele>106.8</ele>
        <time>2020-10-11T16:29:45Z</time>
      </trkpt>
      <trkpt lat="37.327010000" lon="-5.426444000">
        <ele>106.9</ele>
        <time>2020-10-11T16:29:47Z</time>
      </trkpt>
      <trkpt lat="37.327068000" lon="-5.426368000">
        <ele>106.9</ele>
        <time>2020-10-11T16:29:49Z</time>
      </trkpt>
      <trkpt lat="37.327129000" lon="-5.426295000">
        <ele>106.9</ele>
        <time>2020-10-11T16:29:51Z</time>
      </trkpt>
      <trkpt lat="37.327185000" lon="-5.426221000">
        <ele>106.8</ele>
        <time>2020-10-11T16:29:53Z</time>
      </trkpt>
      <trkpt lat="37.327270000" lon="-5.426115000">
        <ele>106.7</ele>
        <time>2020-10-11T16:29:56Z</time>
      </trkpt>
      <trkpt lat="37.327356000" lon="-5.426013000">
        <ele>106.6</ele>
        <time>2020-10-11T16:29:59Z</time>
      </trkpt>
      <trkpt lat="37.327451000" lon="-5.425916000">
        <ele>106.5</ele>
        <time>2020-10-11T16:30:02Z</time>
      </trkpt>
      <trkpt lat="37.327517000" lon="-5.425853000">
        <ele>106.2</ele>
        <time>2020-10-11T16:30:04Z</time>
      </trkpt>
      <trkpt lat="37.327617000" lon="-5.425769000">
        <ele>106.0</ele>
        <time>2020-10-11T16:30:07Z</time>
      </trkpt>
      <trkpt lat="37.327719000" lon="-5.425694000">
        <ele>105.8</ele>
        <time>2020-10-11T16:30:10Z</time>
      </trkpt>
      <trkpt lat="37.327820000" lon="-5.425624000">
        <ele>105.7</ele>
        <time>2020-10-11T16:30:13Z</time>
      </trkpt>
      <trkpt lat="37.327926000" lon="-5.425557000">
        <ele>105.6</ele>
        <time>2020-10-11T16:30:16Z</time>
      </trkpt>
      <trkpt lat="37.328000000" lon="-5.425512000">
        <ele>105.6</ele>
        <time>2020-10-11T16:30:18Z</time>
      </trkpt>
      <trkpt lat="37.328111000" lon="-5.425448000">
        <ele>105.8</ele>
        <time>2020-10-11T16:30:21Z</time>
      </trkpt>
      <trkpt lat="37.328185000" lon="-5.425405000">
        <ele>106.1</ele>
        <time>2020-10-11T16:30:23Z</time>
      </trkpt>
      <trkpt lat="37.328296000" lon="-5.425347000">
        <ele>106.5</ele>
        <time>2020-10-11T16:30:26Z</time>
      </trkpt>
      <trkpt lat="37.328340000" lon="-5.425260000">
        <ele>106.9</ele>
        <time>2020-10-11T16:30:28Z</time>
      </trkpt>
      <trkpt lat="37.328351000" lon="-5.425151000">
        <ele>107.5</ele>
        <time>2020-10-11T16:30:30Z</time>
      </trkpt>
      <trkpt lat="37.328360000" lon="-5.425043000">
        <ele>108.4</ele>
        <time>2020-10-11T16:30:32Z</time>
      </trkpt>
      <trkpt lat="37.328367000" lon="-5.424939000">
        <ele>109.3</ele>
        <time>2020-10-11T16:30:34Z</time>
      </trkpt>
      <trkpt lat="37.328375000" lon="-5.424797000">
        <ele>110.2</ele>
        <time>2020-10-11T16:30:37Z</time>
      </trkpt>
      <trkpt lat="37.328383000" lon="-5.424663000">
        <ele>111.1</ele>
        <time>2020-10-11T16:30:40Z</time>
      </trkpt>
      <trkpt lat="37.328391000" lon="-5.424540000">
        <ele>112.1</ele>
        <time>2020-10-11T16:30:43Z</time>
      </trkpt>
      <trkpt lat="37.328389000" lon="-5.424425000">
        <ele>113.0</ele>
        <time>2020-10-11T16:30:46Z</time>
      </trkpt>
      <trkpt lat="37.328392000" lon="-5.424319000">
        <ele>113.8</ele>
        <time>2020-10-11T16:30:49Z</time>
      </trkpt>
      <trkpt lat="37.328399000" lon="-5.424200000">
        <ele>114.5</ele>
        <time>2020-10-11T16:30:53Z</time>
      </trkpt>
      <trkpt lat="37.328414000" lon="-5.424088000">
        <ele>115.3</ele>
        <time>2020-10-11T16:30:57Z</time>
      </trkpt>
      <trkpt lat="37.328423000" lon="-5.423975000">
        <ele>115.8</ele>
        <time>2020-10-11T16:31:01Z</time>
      </trkpt>
      <trkpt lat="37.328442000" lon="-5.423847000">
        <ele>116.4</ele>
        <time>2020-10-11T16:31:05Z</time>
      </trkpt>
      <trkpt lat="37.328454000" lon="-5.423723000">
        <ele>116.8</ele>
        <time>2020-10-11T16:31:09Z</time>
      </trkpt>
      <trkpt lat="37.328467000" lon="-5.423622000">
        <ele>117.3</ele>
        <time>2020-10-11T16:31:13Z</time>
      </trkpt>
      <trkpt lat="37.328483000" lon="-5.423509000">
        <ele>117.8</ele>
        <time>2020-10-11T16:31:18Z</time>
      </trkpt>
      <trkpt lat="37.328482000" lon="-5.423389000">
        <ele>118.5</ele>
        <time>2020-10-11T16:31:24Z</time>
      </trkpt>
      <trkpt lat="37.328499000" lon="-5.423276000">
        <ele>119.3</ele>
        <time>2020-10-11T16:31:29Z</time>
      </trkpt>
      <trkpt lat="37.328530000" lon="-5.423167000">
        <ele>120.1</ele>
        <time>2020-10-11T16:31:34Z</time>
      </trkpt>
      <trkpt lat="37.328536000" lon="-5.423063000">
        <ele>120.8</ele>
        <time>2020-10-11T16:31:38Z</time>
      </trkpt>
      <trkpt lat="37.328526000" lon="-5.422956000">
        <ele>121.6</ele>
        <time>2020-10-11T16:31:42Z</time>
      </trkpt>
      <trkpt lat="37.328502000" lon="-5.422843000">
        <ele>122.4</ele>
        <time>2020-10-11T16:31:47Z</time>
      </trkpt>
      <trkpt lat="37.328506000" lon="-5.422718000">
        <ele>123.3</ele>
        <time>2020-10-11T16:31:52Z</time>
      </trkpt>
      <trkpt lat="37.328517000" lon="-5.422590000">
        <ele>124.3</ele>
        <time>2020-10-11T16:31:57Z</time>
      </trkpt>
      <trkpt lat="37.328534000" lon="-5.422490000">
        <ele>125.5</ele>
        <time>2020-10-11T16:32:01Z</time>
      </trkpt>
      <trkpt lat="37.328549000" lon="-5.422367000">
        <ele>126.5</ele>
        <time>2020-10-11T16:32:06Z</time>
      </trkpt>
      <trkpt lat="37.328570000" lon="-5.422246000">
        <ele>127.3</ele>
        <time>2020-10-11T16:32:11Z</time>
      </trkpt>
      <trkpt lat="37.328566000" lon="-5.422130000">
        <ele>127.8</ele>
        <time>2020-10-11T16:32:16Z</time>
      </trkpt>
      <trkpt lat="37.328552000" lon="-5.422016000">
        <ele>128.2</ele>
        <time>2020-10-11T16:32:21Z</time>
      </trkpt>
      <trkpt lat="37.328553000" lon="-5.421912000">
        <ele>128.5</ele>
        <time>2020-10-11T16:32:25Z</time>
      </trkpt>
      <trkpt lat="37.328644000" lon="-5.421852000">
        <ele>128.7</ele>
        <time>2020-10-11T16:32:31Z</time>
      </trkpt>
      <trkpt lat="37.328725000" lon="-5.421818000">
        <ele>128.9</ele>
        <time>2020-10-11T16:32:33Z</time>
      </trkpt>
      <trkpt lat="37.328812000" lon="-5.421779000">
        <ele>129.1</ele>
        <time>2020-10-11T16:32:34Z</time>
      </trkpt>
      <trkpt lat="37.328918000" lon="-5.421737000">
        <ele>129.2</ele>
        <time>2020-10-11T16:32:36Z</time>
      </trkpt>
      <trkpt lat="37.329024000" lon="-5.421683000">
        <ele>129.2</ele>
        <time>2020-10-11T16:32:38Z</time>
      </trkpt>
      <trkpt lat="37.329118000" lon="-5.421633000">
        <ele>129.1</ele>
        <time>2020-10-11T16:32:40Z</time>
      </trkpt>
      <trkpt lat="37.329197000" lon="-5.421602000">
        <ele>129.2</ele>
        <time>2020-10-11T16:32:42Z</time>
      </trkpt>
      <trkpt lat="37.329286000" lon="-5.421557000">
        <ele>129.4</ele>
        <time>2020-10-11T16:32:45Z</time>
      </trkpt>
      <trkpt lat="37.329368000" lon="-5.421523000">
        <ele>129.7</ele>
        <time>2020-10-11T16:32:48Z</time>
      </trkpt>
      <trkpt lat="37.329452000" lon="-5.421456000">
        <ele>130.2</ele>
        <time>2020-10-11T16:32:51Z</time>
      </trkpt>
      <trkpt lat="37.329528000" lon="-5.421380000">
        <ele>130.7</ele>
        <time>2020-10-11T16:32:54Z</time>
      </trkpt>
      <trkpt lat="37.329601000" lon="-5.421309000">
        <ele>131.3</ele>
        <time>2020-10-11T16:32:57Z</time>
      </trkpt>
      <trkpt lat="37.329683000" lon="-5.421222000">
        <ele>131.8</ele>
        <time>2020-10-11T16:33:00Z</time>
      </trkpt>
      <trkpt lat="37.329767000" lon="-5.421150000">
        <ele>132.4</ele>
        <time>2020-10-11T16:33:03Z</time>
      </trkpt>
      <trkpt lat="37.329862000" lon="-5.421076000">
        <ele>132.8</ele>
        <time>2020-10-11T16:33:06Z</time>
      </trkpt>
      <trkpt lat="37.329960000" lon="-5.420995000">
        <ele>133.3</ele>
        <time>2020-10-11T16:33:09Z</time>
      </trkpt>
      <trkpt lat="37.330064000" lon="-5.420919000">
        <ele>133.6</ele>
        <time>2020-10-11T16:33:12Z</time>
      </trkpt>
      <trkpt lat="37.330134000" lon="-5.420859000">
        <ele>133.9</ele>
        <time>2020-10-11T16:33:14Z</time>
      </trkpt>
      <trkpt lat="37.330211000" lon="-5.420799000">
        <ele>134.1</ele>
        <time>2020-10-11T16:33:16Z</time>
      </trkpt>
      <trkpt lat="37.330284000" lon="-5.420729000">
        <ele>134.1</ele>
        <time>2020-10-11T16:33:18Z</time>
      </trkpt>
      <trkpt lat="37.330351000" lon="-5.420661000">
        <ele>134.1</ele>
        <time>2020-10-11T16:33:20Z</time>
      </trkpt>
      <trkpt lat="37.330441000" lon="-5.420579000">
        <ele>133.9</ele>
        <time>2020-10-11T16:33:23Z</time>
      </trkpt>
      <trkpt lat="37.330516000" lon="-5.420460000">
        <ele>133.6</ele>
        <time>2020-10-11T16:33:26Z</time>
      </trkpt>
      <trkpt lat="37.330584000" lon="-5.420333000">
        <ele>133.3</ele>
        <time>2020-10-11T16:33:29Z</time>
      </trkpt>
      <trkpt lat="37.330646000" lon="-5.420228000">
        <ele>132.7</ele>
        <time>2020-10-11T16:33:31Z</time>
      </trkpt>
      <trkpt lat="37.330696000" lon="-5.420118000">
        <ele>132.0</ele>
        <time>2020-10-11T16:33:33Z</time>
      </trkpt>
      <trkpt lat="37.330737000" lon="-5.420005000">
        <ele>131.1</ele>
        <time>2020-10-11T16:33:35Z</time>
      </trkpt>
      <trkpt lat="37.330779000" lon="-5.419886000">
        <ele>130.1</ele>
        <time>2020-10-11T16:33:37Z</time>
      </trkpt>
      <trkpt lat="37.330814000" lon="-5.419758000">
        <ele>129.1</ele>
        <time>2020-10-11T16:33:39Z</time>
      </trkpt>
      <trkpt lat="37.330855000" lon="-5.419618000">
        <ele>128.1</ele>
        <time>2020-10-11T16:33:41Z</time>
      </trkpt>
      <trkpt lat="37.330909000" lon="-5.419464000">
        <ele>127.1</ele>
        <time>2020-10-11T16:33:43Z</time>
      </trkpt>
      <trkpt lat="37.330957000" lon="-5.419347000">
        <ele>126.0</ele>
        <time>2020-10-11T16:33:45Z</time>
      </trkpt>
      <trkpt lat="37.331008000" lon="-5.419249000">
        <ele>124.9</ele>
        <time>2020-10-11T16:33:47Z</time>
      </trkpt>
      <trkpt lat="37.331027000" lon="-5.419128000">
        <ele>123.9</ele>
        <time>2020-10-11T16:33:50Z</time>
      </trkpt>
      <trkpt lat="37.330997000" lon="-5.419006000">
        <ele>123.0</ele>
        <time>2020-10-11T16:33:52Z</time>
      </trkpt>
      <trkpt lat="37.330982000" lon="-5.418873000">
        <ele>122.3</ele>
        <time>2020-10-11T16:33:54Z</time>
      </trkpt>
      <trkpt lat="37.330973000" lon="-5.418723000">
        <ele>121.7</ele>
        <time>2020-10-11T16:33:56Z</time>
      </trkpt>
      <trkpt lat="37.330948000" lon="-5.418595000">
        <ele>121.4</ele>
        <time>2020-10-11T16:33:58Z</time>
      </trkpt>
      <trkpt lat="37.330923000" lon="-5.418470000">
        <ele>121.2</ele>
        <time>2020-10-11T16:34:00Z</time>
      </trkpt>
      <trkpt lat="37.330879000" lon="-5.418350000">
        <ele>121.1</ele>
        <time>2020-10-11T16:34:02Z</time>
      </trkpt>
      <trkpt lat="37.330823000" lon="-5.418235000">
        <ele>121.2</ele>
        <time>2020-10-11T16:34:04Z</time>
      </trkpt>
      <trkpt lat="37.330794000" lon="-5.418139000">
        <ele>121.3</ele>
        <time>2020-10-11T16:34:06Z</time>
      </trkpt>
      <trkpt lat="37.330762000" lon="-5.418044000">
        <ele>121.4</ele>
        <time>2020-10-11T16:34:08Z</time>
      </trkpt>
      <trkpt lat="37.330720000" lon="-5.417937000">
        <ele>121.5</ele>
        <time>2020-10-11T16:34:11Z</time>
      </trkpt>
      <trkpt lat="37.330677000" lon="-5.417822000">
        <ele>121.5</ele>
        <time>2020-10-11T16:34:14Z</time>
      </trkpt>
      <trkpt lat="37.330615000" lon="-5.417747000">
        <ele>121.5</ele>
        <time>2020-10-11T16:34:18Z</time>
      </trkpt>
      <trkpt lat="37.330690000" lon="-5.417686000">
        <ele>121.6</ele>
        <time>2020-10-11T16:35:01Z</time>
      </trkpt>
      <trkpt lat="37.330776000" lon="-5.417729000">
        <ele>121.7</ele>
        <time>2020-10-11T16:35:05Z</time>
      </trkpt>
      <trkpt lat="37.330873000" lon="-5.417790000">
        <ele>121.7</ele>
        <time>2020-10-11T16:35:08Z</time>
      </trkpt>
      <trkpt lat="37.330974000" lon="-5.417853000">
        <ele>121.5</ele>
        <time>2020-10-11T16:35:11Z</time>
      </trkpt>
      <trkpt lat="37.331073000" lon="-5.417917000">
        <ele>121.3</ele>
        <time>2020-10-11T16:35:14Z</time>
      </trkpt>
      <trkpt lat="37.331174000" lon="-5.417980000">
        <ele>120.9</ele>
        <time>2020-10-11T16:35:17Z</time>
      </trkpt>
      <trkpt lat="37.331277000" lon="-5.418044000">
        <ele>120.5</ele>
        <time>2020-10-11T16:35:20Z</time>
      </trkpt>
      <trkpt lat="37.331378000" lon="-5.418111000">
        <ele>120.3</ele>
        <time>2020-10-11T16:35:23Z</time>
      </trkpt>
      <trkpt lat="37.331475000" lon="-5.418169000">
        <ele>120.1</ele>
        <time>2020-10-11T16:35:26Z</time>
      </trkpt>
      <trkpt lat="37.331569000" lon="-5.418210000">
        <ele>119.9</ele>
        <time>2020-10-11T16:35:29Z</time>
      </trkpt>
      <trkpt lat="37.331656000" lon="-5.418237000">
        <ele>119.8</ele>
        <time>2020-10-11T16:35:32Z</time>
      </trkpt>
      <trkpt lat="37.331750000" lon="-5.418269000">
        <ele>119.6</ele>
        <time>2020-10-11T16:35:36Z</time>
      </trkpt>
      <trkpt lat="37.331822000" lon="-5.418315000">
        <ele>119.5</ele>
        <time>2020-10-11T16:35:40Z</time>
      </trkpt>
      <trkpt lat="37.331776000" lon="-5.418404000">
        <ele>119.4</ele>
        <time>2020-10-11T16:35:46Z</time>
      </trkpt>
      <trkpt lat="37.331697000" lon="-5.418431000">
        <ele>119.4</ele>
        <time>2020-10-11T16:35:49Z</time>
      </trkpt>
      <trkpt lat="37.331608000" lon="-5.418399000">
        <ele>119.4</ele>
        <time>2020-10-11T16:35:53Z</time>
      </trkpt>
      <trkpt lat="37.331536000" lon="-5.418339000">
        <ele>119.4</ele>
        <time>2020-10-11T16:35:57Z</time>
      </trkpt>
      <trkpt lat="37.331476000" lon="-5.418267000">
        <ele>119.5</ele>
        <time>2020-10-11T16:36:00Z</time>
      </trkpt>
      <trkpt lat="37.331412000" lon="-5.418200000">
        <ele>119.5</ele>
        <time>2020-10-11T16:36:03Z</time>
      </trkpt>
      <trkpt lat="37.331330000" lon="-5.418136000">
        <ele>119.6</ele>
        <time>2020-10-11T16:36:06Z</time>
      </trkpt>
      <trkpt lat="37.331254000" lon="-5.418082000">
        <ele>119.7</ele>
        <time>2020-10-11T16:36:09Z</time>
      </trkpt>
      <trkpt lat="37.331167000" lon="-5.418043000">
        <ele>119.8</ele>
        <time>2020-10-11T16:36:13Z</time>
      </trkpt>
      <trkpt lat="37.331075000" lon="-5.418103000">
        <ele>120.0</ele>
        <time>2020-10-11T16:36:18Z</time>
      </trkpt>
      <trkpt lat="37.331011000" lon="-5.418171000">
        <ele>120.3</ele>
        <time>2020-10-11T16:36:21Z</time>
      </trkpt>
      <trkpt lat="37.330937000" lon="-5.418234000">
        <ele>120.5</ele>
        <time>2020-10-11T16:36:25Z</time>
      </trkpt>
      <trkpt lat="37.330847000" lon="-5.418213000">
        <ele>120.9</ele>
        <time>2020-10-11T16:36:30Z</time>
      </trkpt>
      <trkpt lat="37.330799000" lon="-5.418094000">
        <ele>121.4</ele>
        <time>2020-10-11T16:36:34Z</time>
      </trkpt>
      <trkpt lat="37.330752000" lon="-5.417983000">
        <ele>121.9</ele>
        <time>2020-10-11T16:36:38Z</time>
      </trkpt>
      <trkpt lat="37.330718000" lon="-5.417890000">
        <ele>122.5</ele>
        <time>2020-10-11T16:36:41Z</time>
      </trkpt>
      <trkpt lat="37.330670000" lon="-5.417766000">
        <ele>123.2</ele>
        <time>2020-10-11T16:36:45Z</time>
      </trkpt>
      <trkpt lat="37.330632000" lon="-5.417676000">
        <ele>123.9</ele>
        <time>2020-10-11T16:36:48Z</time>
      </trkpt>
      <trkpt lat="37.330555000" lon="-5.417605000">
        <ele>124.6</ele>
        <time>2020-10-11T16:36:51Z</time>
      </trkpt>
      <trkpt lat="37.330474000" lon="-5.417538000">
        <ele>125.5</ele>
        <time>2020-10-11T16:36:54Z</time>
      </trkpt>
      <trkpt lat="37.330401000" lon="-5.417479000">
        <ele>126.2</ele>
        <time>2020-10-11T16:36:57Z</time>
      </trkpt>
      <trkpt lat="37.330310000" lon="-5.417417000">
        <ele>126.8</ele>
        <time>2020-10-11T16:37:01Z</time>
      </trkpt>
      <trkpt lat="37.330242000" lon="-5.417359000">
        <ele>127.5</ele>
        <time>2020-10-11T16:37:04Z</time>
      </trkpt>
      <trkpt lat="37.330161000" lon="-5.417279000">
        <ele>128.0</ele>
        <time>2020-10-11T16:37:08Z</time>
      </trkpt>
      <trkpt lat="37.330077000" lon="-5.417200000">
        <ele>128.5</ele>
        <time>2020-10-11T16:37:12Z</time>
      </trkpt>
      <trkpt lat="37.329995000" lon="-5.417122000">
        <ele>128.8</ele>
        <time>2020-10-11T16:37:16Z</time>
      </trkpt>
      <trkpt lat="37.329909000" lon="-5.417035000">
        <ele>129.2</ele>
        <time>2020-10-11T16:37:20Z</time>
      </trkpt>
      <trkpt lat="37.329849000" lon="-5.416967000">
        <ele>129.6</ele>
        <time>2020-10-11T16:37:23Z</time>
      </trkpt>
      <trkpt lat="37.329787000" lon="-5.416874000">
        <ele>130.0</ele>
        <time>2020-10-11T16:37:27Z</time>
      </trkpt>
      <trkpt lat="37.329730000" lon="-5.416767000">
        <ele>130.5</ele>
        <time>2020-10-11T16:37:31Z</time>
      </trkpt>
      <trkpt lat="37.329661000" lon="-5.416669000">
        <ele>130.9</ele>
        <time>2020-10-11T16:37:35Z</time>
      </trkpt>
      <trkpt lat="37.329607000" lon="-5.416558000">
        <ele>131.4</ele>
        <time>2020-10-11T16:37:39Z</time>
      </trkpt>
      <trkpt lat="37.329568000" lon="-5.416435000">
        <ele>131.9</ele>
        <time>2020-10-11T16:37:43Z</time>
      </trkpt>
      <trkpt lat="37.329526000" lon="-5.416331000">
        <ele>132.5</ele>
        <time>2020-10-11T16:37:47Z</time>
      </trkpt>
      <trkpt lat="37.329481000" lon="-5.416225000">
        <ele>133.0</ele>
        <time>2020-10-11T16:37:51Z</time>
      </trkpt>
      <trkpt lat="37.329432000" lon="-5.416144000">
        <ele>133.5</ele>
        <time>2020-10-11T16:37:55Z</time>
      </trkpt>
      <trkpt lat="37.329383000" lon="-5.416062000">
        <ele>134.1</ele>
        <time>2020-10-11T16:37:59Z</time>
      </trkpt>
      <trkpt lat="37.329330000" lon="-5.415950000">
        <ele>134.5</ele>
        <time>2020-10-11T16:38:03Z</time>
      </trkpt>
      <trkpt lat="37.329274000" lon="-5.415842000">
        <ele>134.8</ele>
        <time>2020-10-11T16:38:07Z</time>
      </trkpt>
      <trkpt lat="37.329283000" lon="-5.415726000">
        <ele>135.1</ele>
        <time>2020-10-11T16:38:12Z</time>
      </trkpt>
      <trkpt lat="37.329344000" lon="-5.415645000">
        <ele>135.2</ele>
        <time>2020-10-11T16:38:16Z</time>
      </trkpt>
      <trkpt lat="37.329429000" lon="-5.415597000">
        <ele>135.2</ele>
        <time>2020-10-11T16:38:21Z</time>
      </trkpt>
      <trkpt lat="37.329518000" lon="-5.415531000">
        <ele>135.2</ele>
        <time>2020-10-11T16:38:25Z</time>
      </trkpt>
      <trkpt lat="37.329589000" lon="-5.415468000">
        <ele>135.1</ele>
        <time>2020-10-11T16:38:28Z</time>
      </trkpt>
      <trkpt lat="37.329673000" lon="-5.415400000">
        <ele>135.0</ele>
        <time>2020-10-11T16:38:32Z</time>
      </trkpt>
      <trkpt lat="37.329768000" lon="-5.415340000">
        <ele>134.9</ele>
        <time>2020-10-11T16:38:36Z</time>
      </trkpt>
      <trkpt lat="37.329840000" lon="-5.415289000">
        <ele>134.8</ele>
        <time>2020-10-11T16:38:39Z</time>
      </trkpt>
      <trkpt lat="37.329932000" lon="-5.415226000">
        <ele>134.7</ele>
        <time>2020-10-11T16:38:43Z</time>
      </trkpt>
      <trkpt lat="37.330010000" lon="-5.415165000">
        <ele>134.6</ele>
        <time>2020-10-11T16:38:46Z</time>
      </trkpt>
      <trkpt lat="37.330100000" lon="-5.415118000">
        <ele>134.6</ele>
        <time>2020-10-11T16:38:49Z</time>
      </trkpt>
      <trkpt lat="37.330199000" lon="-5.415061000">
        <ele>134.6</ele>
        <time>2020-10-11T16:38:52Z</time>
      </trkpt>
      <trkpt lat="37.330303000" lon="-5.415002000">
        <ele>134.8</ele>
        <time>2020-10-11T16:38:55Z</time>
      </trkpt>
      <trkpt lat="37.330378000" lon="-5.414963000">
        <ele>135.0</ele>
        <time>2020-10-11T16:38:57Z</time>
      </trkpt>
      <trkpt lat="37.330483000" lon="-5.414898000">
        <ele>135.2</ele>
        <time>2020-10-11T16:39:00Z</time>
      </trkpt>
      <trkpt lat="37.330579000" lon="-5.414832000">
        <ele>135.5</ele>
        <time>2020-10-11T16:39:03Z</time>
      </trkpt>
      <trkpt lat="37.330667000" lon="-5.414768000">
        <ele>135.7</ele>
        <time>2020-10-11T16:39:06Z</time>
      </trkpt>
      <trkpt lat="37.330743000" lon="-5.414710000">
        <ele>136.0</ele>
        <time>2020-10-11T16:39:09Z</time>
      </trkpt>
      <trkpt lat="37.330820000" lon="-5.414655000">
        <ele>136.4</ele>
        <time>2020-10-11T16:39:12Z</time>
      </trkpt>
      <trkpt lat="37.330908000" lon="-5.414599000">
        <ele>136.8</ele>
        <time>2020-10-11T16:39:15Z</time>
      </trkpt>
      <trkpt lat="37.330996000" lon="-5.414542000">
        <ele>137.4</ele>
        <time>2020-10-11T16:39:18Z</time>
      </trkpt>
      <trkpt lat="37.331082000" lon="-5.414495000">
        <ele>137.8</ele>
        <time>2020-10-11T16:39:21Z</time>
      </trkpt>
      <trkpt lat="37.331170000" lon="-5.414443000">
        <ele>138.3</ele>
        <time>2020-10-11T16:39:24Z</time>
      </trkpt>
      <trkpt lat="37.331247000" lon="-5.414375000">
        <ele>138.6</ele>
        <time>2020-10-11T16:39:27Z</time>
      </trkpt>
      <trkpt lat="37.331324000" lon="-5.414307000">
        <ele>139.0</ele>
        <time>2020-10-11T16:39:30Z</time>
      </trkpt>
      <trkpt lat="37.331399000" lon="-5.414239000">
        <ele>139.4</ele>
        <time>2020-10-11T16:39:33Z</time>
      </trkpt>
      <trkpt lat="37.331494000" lon="-5.414255000">
        <ele>139.5</ele>
        <time>2020-10-11T16:39:38Z</time>
      </trkpt>
      <trkpt lat="37.331562000" lon="-5.414335000">
        <ele>139.6</ele>
        <time>2020-10-11T16:39:42Z</time>
      </trkpt>
      <trkpt lat="37.331633000" lon="-5.414402000">
        <ele>139.7</ele>
        <time>2020-10-11T16:39:46Z</time>
      </trkpt>
      <trkpt lat="37.331701000" lon="-5.414489000">
        <ele>139.7</ele>
        <time>2020-10-11T16:39:50Z</time>
      </trkpt>
      <trkpt lat="37.331780000" lon="-5.414560000">
        <ele>139.5</ele>
        <time>2020-10-11T16:39:53Z</time>
      </trkpt>
      <trkpt lat="37.331855000" lon="-5.414621000">
        <ele>139.3</ele>
        <time>2020-10-11T16:39:56Z</time>
      </trkpt>
      <trkpt lat="37.331925000" lon="-5.414684000">
        <ele>139.1</ele>
        <time>2020-10-11T16:39:59Z</time>
      </trkpt>
      <trkpt lat="37.332004000" lon="-5.414768000">
        <ele>138.8</ele>
        <time>2020-10-11T16:40:03Z</time>
      </trkpt>
      <trkpt lat="37.332079000" lon="-5.414838000">
        <ele>138.5</ele>
        <time>2020-10-11T16:40:06Z</time>
      </trkpt>
      <trkpt lat="37.332180000" lon="-5.414895000">
        <ele>138.3</ele>
        <time>2020-10-11T16:40:09Z</time>
      </trkpt>
      <trkpt lat="37.332275000" lon="-5.414946000">
        <ele>138.0</ele>
        <time>2020-10-11T16:40:12Z</time>
      </trkpt>
      <trkpt lat="37.332362000" lon="-5.414984000">
        <ele>137.9</ele>
        <time>2020-10-11T16:40:15Z</time>
      </trkpt>
      <trkpt lat="37.332446000" lon="-5.415026000">
        <ele>137.8</ele>
        <time>2020-10-11T16:40:20Z</time>
      </trkpt>
      <trkpt lat="37.332506000" lon="-5.415103000">
        <ele>137.7</ele>
        <time>2020-10-11T16:40:24Z</time>
      </trkpt>
      <trkpt lat="37.332584000" lon="-5.415182000">
        <ele>137.6</ele>
        <time>2020-10-11T16:40:28Z</time>
      </trkpt>
      <trkpt lat="37.332650000" lon="-5.415241000">
        <ele>137.6</ele>
        <time>2020-10-11T16:40:32Z</time>
      </trkpt>
      <trkpt lat="37.332624000" lon="-5.415347000">
        <ele>137.6</ele>
        <time>2020-10-11T16:40:39Z</time>
      </trkpt>
      <trkpt lat="37.332581000" lon="-5.415446000">
        <ele>137.6</ele>
        <time>2020-10-11T16:40:43Z</time>
      </trkpt>
      <trkpt lat="37.332541000" lon="-5.415564000">
        <ele>137.8</ele>
        <time>2020-10-11T16:40:47Z</time>
      </trkpt>
      <trkpt lat="37.332516000" lon="-5.415671000">
        <ele>138.0</ele>
        <time>2020-10-11T16:40:52Z</time>
      </trkpt>
      <trkpt lat="37.332432000" lon="-5.415715000">
        <ele>138.2</ele>
        <time>2020-10-11T16:41:00Z</time>
      </trkpt>
      <trkpt lat="37.332351000" lon="-5.415703000">
        <ele>138.5</ele>
        <time>2020-10-11T16:41:05Z</time>
      </trkpt>
      <trkpt lat="37.332448000" lon="-5.415686000">
        <ele>138.6</ele>
        <time>2020-10-11T16:41:11Z</time>
      </trkpt>
      <trkpt lat="37.332536000" lon="-5.415683000">
        <ele>138.8</ele>
        <time>2020-10-11T16:41:14Z</time>
      </trkpt>
      <trkpt lat="37.332621000" lon="-5.415691000">
        <ele>139.0</ele>
        <time>2020-10-11T16:41:17Z</time>
      </trkpt>
      <trkpt lat="37.332718000" lon="-5.415720000">
        <ele>139.2</ele>
        <time>2020-10-11T16:41:21Z</time>
      </trkpt>
      <trkpt lat="37.332814000" lon="-5.415718000">
        <ele>139.4</ele>
        <time>2020-10-11T16:41:26Z</time>
      </trkpt>
      <trkpt lat="37.332911000" lon="-5.415724000">
        <ele>139.6</ele>
        <time>2020-10-11T16:41:31Z</time>
      </trkpt>
      <trkpt lat="37.332993000" lon="-5.415711000">
        <ele>140.1</ele>
        <time>2020-10-11T16:41:35Z</time>
      </trkpt>
      <trkpt lat="37.333077000" lon="-5.415766000">
        <ele>140.6</ele>
        <time>2020-10-11T16:41:40Z</time>
      </trkpt>
      <trkpt lat="37.333160000" lon="-5.415830000">
        <ele>141.3</ele>
        <time>2020-10-11T16:41:44Z</time>
      </trkpt>
      <trkpt lat="37.333247000" lon="-5.415893000">
        <ele>142.0</ele>
        <time>2020-10-11T16:41:49Z</time>
      </trkpt>
      <trkpt lat="37.333341000" lon="-5.415946000">
        <ele>142.6</ele>
        <time>2020-10-11T16:41:53Z</time>
      </trkpt>
      <trkpt lat="37.333411000" lon="-5.416013000">
        <ele>143.2</ele>
        <time>2020-10-11T16:41:56Z</time>
      </trkpt>
      <trkpt lat="37.333478000" lon="-5.416102000">
        <ele>143.6</ele>
        <time>2020-10-11T16:42:00Z</time>
      </trkpt>
      <trkpt lat="37.333528000" lon="-5.416192000">
        <ele>144.3</ele>
        <time>2020-10-11T16:42:04Z</time>
      </trkpt>
      <trkpt lat="37.333583000" lon="-5.416286000">
        <ele>144.7</ele>
        <time>2020-10-11T16:42:08Z</time>
      </trkpt>
      <trkpt lat="37.333629000" lon="-5.416375000">
        <ele>145.4</ele>
        <time>2020-10-11T16:42:13Z</time>
      </trkpt>
      <trkpt lat="37.333579000" lon="-5.416458000">
        <ele>145.8</ele>
        <time>2020-10-11T16:43:35Z</time>
      </trkpt>
      <trkpt lat="37.333659000" lon="-5.416506000">
        <ele>146.0</ele>
        <time>2020-10-11T16:43:53Z</time>
      </trkpt>
      <trkpt lat="37.333604000" lon="-5.416419000">
        <ele>146.1</ele>
        <time>2020-10-11T16:44:03Z</time>
      </trkpt>
      <trkpt lat="37.333544000" lon="-5.416492000">
        <ele>146.1</ele>
        <time>2020-10-11T16:45:01Z</time>
      </trkpt>
      <trkpt lat="37.333581000" lon="-5.416397000">
        <ele>146.0</ele>
        <time>2020-10-11T16:45:31Z</time>
      </trkpt>
      <trkpt lat="37.333602000" lon="-5.416498000">
        <ele>145.9</ele>
        <time>2020-10-11T16:45:50Z</time>
      </trkpt>
      <trkpt lat="37.333626000" lon="-5.416535000">
        <ele>145.8</ele>
        <time>2020-10-11T16:45:57Z</time>
      </trkpt>
      <trkpt lat="37.333664000" lon="-5.416523000">
        <ele>146.2</ele>
        <time>2020-10-12T07:13:06Z</time>
      </trkpt>
      <trkpt lat="37.333601000" lon="-5.416459000">
        <ele>145.9</ele>
        <time>2020-10-12T07:13:08Z</time>
      </trkpt>
      <trkpt lat="37.333694000" lon="-5.416431000">
        <ele>145.4</ele>
        <time>2020-10-12T07:13:19Z</time>
      </trkpt>
      <trkpt lat="37.333660000" lon="-5.416338000">
        <ele>144.8</ele>
        <time>2020-10-12T07:13:36Z</time>
      </trkpt>
      <trkpt lat="37.333601000" lon="-5.416244000">
        <ele>144.3</ele>
        <time>2020-10-12T07:13:42Z</time>
      </trkpt>
      <trkpt lat="37.333525000" lon="-5.416165000">
        <ele>143.9</ele>
        <time>2020-10-12T07:13:46Z</time>
      </trkpt>
      <trkpt lat="37.333469000" lon="-5.416080000">
        <ele>143.5</ele>
        <time>2020-10-12T07:13:49Z</time>
      </trkpt>
      <trkpt lat="37.333392000" lon="-5.415994000">
        <ele>142.9</ele>
        <time>2020-10-12T07:13:53Z</time>
      </trkpt>
      <trkpt lat="37.333308000" lon="-5.415922000">
        <ele>142.3</ele>
        <time>2020-10-12T07:13:57Z</time>
      </trkpt>
      <trkpt lat="37.333241000" lon="-5.415861000">
        <ele>141.6</ele>
        <time>2020-10-12T07:14:01Z</time>
      </trkpt>
      <trkpt lat="37.333160000" lon="-5.415797000">
        <ele>140.9</ele>
        <time>2020-10-12T07:14:07Z</time>
      </trkpt>
      <trkpt lat="37.333088000" lon="-5.415734000">
        <ele>140.3</ele>
        <time>2020-10-12T07:14:12Z</time>
      </trkpt>
      <trkpt lat="37.332998000" lon="-5.415718000">
        <ele>139.8</ele>
        <time>2020-10-12T07:14:17Z</time>
      </trkpt>
      <trkpt lat="37.332903000" lon="-5.415690000">
        <ele>139.5</ele>
        <time>2020-10-12T07:14:22Z</time>
      </trkpt>
      <trkpt lat="37.332825000" lon="-5.415721000">
        <ele>139.3</ele>
        <time>2020-10-12T07:14:27Z</time>
      </trkpt>
      <trkpt lat="37.332742000" lon="-5.415720000">
        <ele>139.1</ele>
        <time>2020-10-12T07:14:32Z</time>
      </trkpt>
      <trkpt lat="37.332663000" lon="-5.415685000">
        <ele>138.9</ele>
        <time>2020-10-12T07:15:03Z</time>
      </trkpt>
      <trkpt lat="37.332567000" lon="-5.415665000">
        <ele>138.7</ele>
        <time>2020-10-12T07:15:07Z</time>
      </trkpt>
      <trkpt lat="37.332474000" lon="-5.415732000">
        <ele>138.5</ele>
        <time>2020-10-12T07:15:10Z</time>
      </trkpt>
      <trkpt lat="37.332423000" lon="-5.415841000">
        <ele>138.3</ele>
        <time>2020-10-12T07:15:14Z</time>
      </trkpt>
      <trkpt lat="37.332388000" lon="-5.415965000">
        <ele>137.9</ele>
        <time>2020-10-12T07:15:18Z</time>
      </trkpt>
      <trkpt lat="37.332361000" lon="-5.416082000">
        <ele>137.6</ele>
        <time>2020-10-12T07:15:21Z</time>
      </trkpt>
      <trkpt lat="37.332328000" lon="-5.416191000">
        <ele>137.4</ele>
        <time>2020-10-12T07:15:24Z</time>
      </trkpt>
      <trkpt lat="37.332278000" lon="-5.416303000">
        <ele>137.1</ele>
        <time>2020-10-12T07:15:28Z</time>
      </trkpt>
      <trkpt lat="37.332207000" lon="-5.416382000">
        <ele>136.9</ele>
        <time>2020-10-12T07:15:31Z</time>
      </trkpt>
      <trkpt lat="37.332136000" lon="-5.416470000">
        <ele>136.6</ele>
        <time>2020-10-12T07:15:34Z</time>
      </trkpt>
      <trkpt lat="37.332061000" lon="-5.416551000">
        <ele>136.3</ele>
        <time>2020-10-12T07:15:38Z</time>
      </trkpt>
      <trkpt lat="37.331994000" lon="-5.416666000">
        <ele>135.9</ele>
        <time>2020-10-12T07:15:42Z</time>
      </trkpt>
      <trkpt lat="37.331955000" lon="-5.416781000">
        <ele>135.5</ele>
        <time>2020-10-12T07:15:45Z</time>
      </trkpt>
      <trkpt lat="37.331919000" lon="-5.416918000">
        <ele>135.3</ele>
        <time>2020-10-12T07:15:48Z</time>
      </trkpt>
      <trkpt lat="37.331892000" lon="-5.417062000">
        <ele>134.9</ele>
        <time>2020-10-12T07:15:51Z</time>
      </trkpt>
      <trkpt lat="37.331855000" lon="-5.417185000">
        <ele>134.6</ele>
        <time>2020-10-12T07:15:54Z</time>
      </trkpt>
      <trkpt lat="37.331828000" lon="-5.417294000">
        <ele>134.4</ele>
        <time>2020-10-12T07:15:57Z</time>
      </trkpt>
      <trkpt lat="37.331894000" lon="-5.417359000">
        <ele>134.0</ele>
        <time>2020-10-12T07:16:01Z</time>
      </trkpt>
      <trkpt lat="37.331991000" lon="-5.417385000">
        <ele>133.5</ele>
        <time>2020-10-12T07:16:04Z</time>
      </trkpt>
      <trkpt lat="37.332088000" lon="-5.417412000">
        <ele>133.1</ele>
        <time>2020-10-12T07:16:07Z</time>
      </trkpt>
      <trkpt lat="37.332172000" lon="-5.417447000">
        <ele>132.5</ele>
        <time>2020-10-12T07:16:10Z</time>
      </trkpt>
      <trkpt lat="37.332280000" lon="-5.417489000">
        <ele>132.0</ele>
        <time>2020-10-12T07:16:13Z</time>
      </trkpt>
      <trkpt lat="37.332362000" lon="-5.417549000">
        <ele>131.3</ele>
        <time>2020-10-12T07:16:15Z</time>
      </trkpt>
      <trkpt lat="37.332443000" lon="-5.417617000">
        <ele>130.5</ele>
        <time>2020-10-12T07:16:17Z</time>
      </trkpt>
      <trkpt lat="37.332520000" lon="-5.417687000">
        <ele>129.5</ele>
        <time>2020-10-12T07:16:19Z</time>
      </trkpt>
      <trkpt lat="37.332597000" lon="-5.417754000">
        <ele>128.6</ele>
        <time>2020-10-12T07:16:21Z</time>
      </trkpt>
      <trkpt lat="37.332666000" lon="-5.417813000">
        <ele>127.6</ele>
        <time>2020-10-12T07:16:23Z</time>
      </trkpt>
      <trkpt lat="37.332726000" lon="-5.417905000">
        <ele>126.6</ele>
        <time>2020-10-12T07:16:26Z</time>
      </trkpt>
      <trkpt lat="37.332669000" lon="-5.418018000">
        <ele>125.6</ele>
        <time>2020-10-12T07:16:31Z</time>
      </trkpt>
      <trkpt lat="37.332568000" lon="-5.418068000">
        <ele>124.6</ele>
        <time>2020-10-12T07:16:34Z</time>
      </trkpt>
      <trkpt lat="37.332488000" lon="-5.418108000">
        <ele>123.6</ele>
        <time>2020-10-12T07:16:36Z</time>
      </trkpt>
      <trkpt lat="37.332407000" lon="-5.418148000">
        <ele>122.7</ele>
        <time>2020-10-12T07:16:38Z</time>
      </trkpt>
      <trkpt lat="37.332325000" lon="-5.418184000">
        <ele>121.9</ele>
        <time>2020-10-12T07:16:40Z</time>
      </trkpt>
      <trkpt lat="37.332245000" lon="-5.418208000">
        <ele>121.3</ele>
        <time>2020-10-12T07:16:42Z</time>
      </trkpt>
      <trkpt lat="37.332149000" lon="-5.418226000">
        <ele>120.7</ele>
        <time>2020-10-12T07:16:44Z</time>
      </trkpt>
      <trkpt lat="37.332065000" lon="-5.418241000">
        <ele>120.3</ele>
        <time>2020-10-12T07:16:46Z</time>
      </trkpt>
      <trkpt lat="37.331985000" lon="-5.418252000">
        <ele>119.9</ele>
        <time>2020-10-12T07:16:48Z</time>
      </trkpt>
      <trkpt lat="37.331876000" lon="-5.418296000">
        <ele>119.5</ele>
        <time>2020-10-12T07:16:51Z</time>
      </trkpt>
      <trkpt lat="37.331791000" lon="-5.418369000">
        <ele>119.2</ele>
        <time>2020-10-12T07:16:54Z</time>
      </trkpt>
      <trkpt lat="37.331723000" lon="-5.418448000">
        <ele>118.9</ele>
        <time>2020-10-12T07:16:57Z</time>
      </trkpt>
      <trkpt lat="37.331728000" lon="-5.418583000">
        <ele>118.7</ele>
        <time>2020-10-12T07:17:01Z</time>
      </trkpt>
      <trkpt lat="37.331810000" lon="-5.418655000">
        <ele>118.5</ele>
        <time>2020-10-12T07:17:04Z</time>
      </trkpt>
      <trkpt lat="37.331887000" lon="-5.418715000">
        <ele>118.5</ele>
        <time>2020-10-12T07:17:08Z</time>
      </trkpt>
      <trkpt lat="37.331939000" lon="-5.418810000">
        <ele>118.4</ele>
        <time>2020-10-12T07:17:11Z</time>
      </trkpt>
      <trkpt lat="37.331997000" lon="-5.418948000">
        <ele>118.3</ele>
        <time>2020-10-12T07:17:14Z</time>
      </trkpt>
      <trkpt lat="37.332046000" lon="-5.419085000">
        <ele>118.1</ele>
        <time>2020-10-12T07:17:17Z</time>
      </trkpt>
      <trkpt lat="37.332089000" lon="-5.419196000">
        <ele>117.8</ele>
        <time>2020-10-12T07:17:20Z</time>
      </trkpt>
      <trkpt lat="37.332152000" lon="-5.419320000">
        <ele>117.5</ele>
        <time>2020-10-12T07:17:23Z</time>
      </trkpt>
      <trkpt lat="37.332196000" lon="-5.419416000">
        <ele>117.1</ele>
        <time>2020-10-12T07:17:25Z</time>
      </trkpt>
      <trkpt lat="37.332240000" lon="-5.419505000">
        <ele>116.6</ele>
        <time>2020-10-12T07:17:27Z</time>
      </trkpt>
      <trkpt lat="37.332297000" lon="-5.419651000">
        <ele>116.1</ele>
        <time>2020-10-12T07:17:29Z</time>
      </trkpt>
      <trkpt lat="37.332350000" lon="-5.419754000">
        <ele>115.5</ele>
        <time>2020-10-12T07:17:31Z</time>
      </trkpt>
      <trkpt lat="37.332399000" lon="-5.419868000">
        <ele>114.8</ele>
        <time>2020-10-12T07:17:33Z</time>
      </trkpt>
      <trkpt lat="37.332454000" lon="-5.419983000">
        <ele>114.2</ele>
        <time>2020-10-12T07:17:35Z</time>
      </trkpt>
      <trkpt lat="37.332511000" lon="-5.420112000">
        <ele>113.5</ele>
        <time>2020-10-12T07:17:37Z</time>
      </trkpt>
      <trkpt lat="37.332570000" lon="-5.420236000">
        <ele>112.6</ele>
        <time>2020-10-12T07:17:39Z</time>
      </trkpt>
      <trkpt lat="37.332626000" lon="-5.420365000">
        <ele>111.9</ele>
        <time>2020-10-12T07:17:41Z</time>
      </trkpt>
      <trkpt lat="37.332675000" lon="-5.420476000">
        <ele>111.2</ele>
        <time>2020-10-12T07:17:43Z</time>
      </trkpt>
      <trkpt lat="37.332723000" lon="-5.420583000">
        <ele>110.5</ele>
        <time>2020-10-12T07:17:45Z</time>
      </trkpt>
      <trkpt lat="37.332778000" lon="-5.420682000">
        <ele>109.7</ele>
        <time>2020-10-12T07:17:47Z</time>
      </trkpt>
      <trkpt lat="37.332836000" lon="-5.420760000">
        <ele>109.0</ele>
        <time>2020-10-12T07:17:49Z</time>
      </trkpt>
      <trkpt lat="37.332874000" lon="-5.420853000">
        <ele>108.4</ele>
        <time>2020-10-12T07:17:51Z</time>
      </trkpt>
      <trkpt lat="37.332904000" lon="-5.420956000">
        <ele>107.8</ele>
        <time>2020-10-12T07:17:53Z</time>
      </trkpt>
      <trkpt lat="37.332945000" lon="-5.421058000">
        <ele>107.4</ele>
        <time>2020-10-12T07:17:55Z</time>
      </trkpt>
      <trkpt lat="37.332994000" lon="-5.421166000">
        <ele>106.9</ele>
        <time>2020-10-12T07:17:57Z</time>
      </trkpt>
      <trkpt lat="37.333061000" lon="-5.421273000">
        <ele>106.6</ele>
        <time>2020-10-12T07:17:59Z</time>
      </trkpt>
      <trkpt lat="37.333119000" lon="-5.421388000">
        <ele>106.5</ele>
        <time>2020-10-12T07:18:01Z</time>
      </trkpt>
      <trkpt lat="37.333179000" lon="-5.421506000">
        <ele>106.3</ele>
        <time>2020-10-12T07:18:03Z</time>
      </trkpt>
      <trkpt lat="37.333232000" lon="-5.421632000">
        <ele>106.2</ele>
        <time>2020-10-12T07:18:05Z</time>
      </trkpt>
      <trkpt lat="37.333288000" lon="-5.421749000">
        <ele>106.1</ele>
        <time>2020-10-12T07:18:07Z</time>
      </trkpt>
      <trkpt lat="37.333338000" lon="-5.421843000">
        <ele>105.9</ele>
        <time>2020-10-12T07:18:09Z</time>
      </trkpt>
      <trkpt lat="37.333380000" lon="-5.421951000">
        <ele>105.7</ele>
        <time>2020-10-12T07:18:11Z</time>
      </trkpt>
      <trkpt lat="37.333422000" lon="-5.422051000">
        <ele>105.5</ele>
        <time>2020-10-12T07:18:13Z</time>
      </trkpt>
      <trkpt lat="37.333469000" lon="-5.422155000">
        <ele>105.4</ele>
        <time>2020-10-12T07:18:15Z</time>
      </trkpt>
      <trkpt lat="37.333522000" lon="-5.422258000">
        <ele>105.0</ele>
        <time>2020-10-12T07:18:17Z</time>
      </trkpt>
      <trkpt lat="37.333570000" lon="-5.422379000">
        <ele>104.6</ele>
        <time>2020-10-12T07:18:19Z</time>
      </trkpt>
      <trkpt lat="37.333619000" lon="-5.422488000">
        <ele>104.2</ele>
        <time>2020-10-12T07:18:21Z</time>
      </trkpt>
      <trkpt lat="37.333670000" lon="-5.422605000">
        <ele>103.7</ele>
        <time>2020-10-12T07:18:23Z</time>
      </trkpt>
      <trkpt lat="37.333733000" lon="-5.422713000">
        <ele>103.3</ele>
        <time>2020-10-12T07:18:25Z</time>
      </trkpt>
      <trkpt lat="37.333784000" lon="-5.422841000">
        <ele>102.9</ele>
        <time>2020-10-12T07:18:27Z</time>
      </trkpt>
      <trkpt lat="37.333841000" lon="-5.422961000">
        <ele>102.6</ele>
        <time>2020-10-12T07:18:29Z</time>
      </trkpt>
      <trkpt lat="37.333895000" lon="-5.423074000">
        <ele>102.5</ele>
        <time>2020-10-12T07:18:31Z</time>
      </trkpt>
      <trkpt lat="37.333940000" lon="-5.423175000">
        <ele>102.4</ele>
        <time>2020-10-12T07:18:33Z</time>
      </trkpt>
      <trkpt lat="37.334000000" lon="-5.423264000">
        <ele>102.2</ele>
        <time>2020-10-12T07:18:36Z</time>
      </trkpt>
      <trkpt lat="37.334089000" lon="-5.423287000">
        <ele>102.0</ele>
        <time>2020-10-12T07:18:39Z</time>
      </trkpt>
      <trkpt lat="37.334197000" lon="-5.423244000">
        <ele>101.9</ele>
        <time>2020-10-12T07:18:42Z</time>
      </trkpt>
      <trkpt lat="37.334277000" lon="-5.423219000">
        <ele>101.8</ele>
        <time>2020-10-12T07:18:44Z</time>
      </trkpt>
      <trkpt lat="37.334359000" lon="-5.423187000">
        <ele>101.7</ele>
        <time>2020-10-12T07:18:46Z</time>
      </trkpt>
      <trkpt lat="37.334439000" lon="-5.423155000">
        <ele>101.7</ele>
        <time>2020-10-12T07:18:48Z</time>
      </trkpt>
      <trkpt lat="37.334542000" lon="-5.423108000">
        <ele>101.7</ele>
        <time>2020-10-12T07:18:51Z</time>
      </trkpt>
      <trkpt lat="37.334625000" lon="-5.423065000">
        <ele>101.7</ele>
        <time>2020-10-12T07:18:55Z</time>
      </trkpt>
      <trkpt lat="37.334708000" lon="-5.423077000">
        <ele>101.7</ele>
        <time>2020-10-12T07:18:59Z</time>
      </trkpt>
      <trkpt lat="37.334787000" lon="-5.423139000">
        <ele>101.7</ele>
        <time>2020-10-12T07:19:02Z</time>
      </trkpt>
      <trkpt lat="37.334864000" lon="-5.423211000">
        <ele>101.7</ele>
        <time>2020-10-12T07:19:05Z</time>
      </trkpt>
      <trkpt lat="37.334941000" lon="-5.423247000">
        <ele>101.7</ele>
        <time>2020-10-12T07:19:08Z</time>
      </trkpt>
      <trkpt lat="37.335024000" lon="-5.423289000">
        <ele>101.7</ele>
        <time>2020-10-12T07:19:12Z</time>
      </trkpt>
      <trkpt lat="37.335107000" lon="-5.423223000">
        <ele>101.8</ele>
        <time>2020-10-12T07:19:16Z</time>
      </trkpt>
      <trkpt lat="37.335152000" lon="-5.423117000">
        <ele>101.9</ele>
        <time>2020-10-12T07:19:19Z</time>
      </trkpt>
      <trkpt lat="37.335207000" lon="-5.422990000">
        <ele>102.1</ele>
        <time>2020-10-12T07:19:22Z</time>
      </trkpt>
      <trkpt lat="37.335258000" lon="-5.422855000">
        <ele>102.2</ele>
        <time>2020-10-12T07:19:25Z</time>
      </trkpt>
      <trkpt lat="37.335318000" lon="-5.422733000">
        <ele>102.2</ele>
        <time>2020-10-12T07:19:28Z</time>
      </trkpt>
      <trkpt lat="37.335395000" lon="-5.422627000">
        <ele>102.1</ele>
        <time>2020-10-12T07:19:31Z</time>
      </trkpt>
      <trkpt lat="37.335484000" lon="-5.422549000">
        <ele>102.1</ele>
        <time>2020-10-12T07:19:34Z</time>
      </trkpt>
      <trkpt lat="37.335569000" lon="-5.422503000">
        <ele>102.2</ele>
        <time>2020-10-12T07:19:37Z</time>
      </trkpt>
      <trkpt lat="37.335654000" lon="-5.422474000">
        <ele>102.3</ele>
        <time>2020-10-12T07:19:41Z</time>
      </trkpt>
      <trkpt lat="37.335742000" lon="-5.422461000">
        <ele>102.5</ele>
        <time>2020-10-12T07:19:45Z</time>
      </trkpt>
      <trkpt lat="37.335833000" lon="-5.422427000">
        <ele>102.7</ele>
        <time>2020-10-12T07:19:50Z</time>
      </trkpt>
      <trkpt lat="37.335727000" lon="-5.422441000">
        <ele>102.9</ele>
        <time>2020-10-12T07:19:59Z</time>
      </trkpt>
      <trkpt lat="37.335629000" lon="-5.422418000">
        <ele>103.1</ele>
        <time>2020-10-12T07:20:03Z</time>
      </trkpt>
      <trkpt lat="37.335586000" lon="-5.422317000">
        <ele>103.2</ele>
        <time>2020-10-12T07:20:08Z</time>
      </trkpt>
      <trkpt lat="37.335638000" lon="-5.422214000">
        <ele>103.2</ele>
        <time>2020-10-12T07:20:13Z</time>
      </trkpt>
      <trkpt lat="37.335705000" lon="-5.422107000">
        <ele>103.3</ele>
        <time>2020-10-12T07:20:17Z</time>
      </trkpt>
      <trkpt lat="37.335766000" lon="-5.422014000">
        <ele>103.3</ele>
        <time>2020-10-12T07:20:20Z</time>
      </trkpt>
      <trkpt lat="37.335818000" lon="-5.421903000">
        <ele>103.2</ele>
        <time>2020-10-12T07:20:23Z</time>
      </trkpt>
      <trkpt lat="37.335871000" lon="-5.421803000">
        <ele>103.3</ele>
        <time>2020-10-12T07:20:26Z</time>
      </trkpt>
      <trkpt lat="37.335929000" lon="-5.421711000">
        <ele>103.5</ele>
        <time>2020-10-12T07:20:29Z</time>
      </trkpt>
      <trkpt lat="37.335988000" lon="-5.421604000">
        <ele>103.7</ele>
        <time>2020-10-12T07:20:32Z</time>
      </trkpt>
      <trkpt lat="37.336054000" lon="-5.421483000">
        <ele>103.9</ele>
        <time>2020-10-12T07:20:35Z</time>
      </trkpt>
      <trkpt lat="37.336141000" lon="-5.421384000">
        <ele>104.0</ele>
        <time>2020-10-12T07:20:38Z</time>
      </trkpt>
      <trkpt lat="37.336238000" lon="-5.421300000">
        <ele>103.9</ele>
        <time>2020-10-12T07:20:41Z</time>
      </trkpt>
      <trkpt lat="37.336307000" lon="-5.421236000">
        <ele>103.7</ele>
        <time>2020-10-12T07:20:43Z</time>
      </trkpt>
      <trkpt lat="37.336381000" lon="-5.421170000">
        <ele>103.5</ele>
        <time>2020-10-12T07:20:45Z</time>
      </trkpt>
      <trkpt lat="37.336458000" lon="-5.421110000">
        <ele>103.3</ele>
        <time>2020-10-12T07:20:47Z</time>
      </trkpt>
      <trkpt lat="37.336541000" lon="-5.421045000">
        <ele>103.0</ele>
        <time>2020-10-12T07:20:49Z</time>
      </trkpt>
      <trkpt lat="37.336622000" lon="-5.420986000">
        <ele>102.6</ele>
        <time>2020-10-12T07:20:51Z</time>
      </trkpt>
      <trkpt lat="37.336707000" lon="-5.420938000">
        <ele>102.0</ele>
        <time>2020-10-12T07:20:53Z</time>
      </trkpt>
      <trkpt lat="37.336789000" lon="-5.420882000">
        <ele>101.3</ele>
        <time>2020-10-12T07:20:55Z</time>
      </trkpt>
      <trkpt lat="37.336873000" lon="-5.420834000">
        <ele>100.5</ele>
        <time>2020-10-12T07:20:57Z</time>
      </trkpt>
      <trkpt lat="37.336950000" lon="-5.420774000">
        <ele>99.6</ele>
        <time>2020-10-12T07:20:59Z</time>
      </trkpt>
      <trkpt lat="37.337041000" lon="-5.420727000">
        <ele>98.8</ele>
        <time>2020-10-12T07:21:01Z</time>
      </trkpt>
      <trkpt lat="37.337127000" lon="-5.420675000">
        <ele>98.3</ele>
        <time>2020-10-12T07:21:03Z</time>
      </trkpt>
      <trkpt lat="37.337213000" lon="-5.420628000">
        <ele>97.8</ele>
        <time>2020-10-12T07:21:05Z</time>
      </trkpt>
      <trkpt lat="37.337296000" lon="-5.420572000">
        <ele>97.5</ele>
        <time>2020-10-12T07:21:07Z</time>
      </trkpt>
      <trkpt lat="37.337382000" lon="-5.420517000">
        <ele>97.2</ele>
        <time>2020-10-12T07:21:09Z</time>
      </trkpt>
      <trkpt lat="37.337470000" lon="-5.420476000">
        <ele>97.1</ele>
        <time>2020-10-12T07:21:11Z</time>
      </trkpt>
      <trkpt lat="37.337556000" lon="-5.420431000">
        <ele>97.1</ele>
        <time>2020-10-12T07:21:13Z</time>
      </trkpt>
      <trkpt lat="37.337644000" lon="-5.420379000">
        <ele>97.2</ele>
        <time>2020-10-12T07:21:15Z</time>
      </trkpt>
      <trkpt lat="37.337727000" lon="-5.420330000">
        <ele>97.3</ele>
        <time>2020-10-12T07:21:17Z</time>
      </trkpt>
      <trkpt lat="37.337809000" lon="-5.420283000">
        <ele>97.3</ele>
        <time>2020-10-12T07:21:19Z</time>
      </trkpt>
      <trkpt lat="37.337895000" lon="-5.420230000">
        <ele>97.3</ele>
        <time>2020-10-12T07:21:21Z</time>
      </trkpt>
      <trkpt lat="37.337977000" lon="-5.420175000">
        <ele>97.4</ele>
        <time>2020-10-12T07:21:23Z</time>
      </trkpt>
      <trkpt lat="37.338052000" lon="-5.420132000">
        <ele>97.4</ele>
        <time>2020-10-12T07:21:25Z</time>
      </trkpt>
      <trkpt lat="37.338132000" lon="-5.420082000">
        <ele>97.4</ele>
        <time>2020-10-12T07:21:27Z</time>
      </trkpt>
      <trkpt lat="37.338209000" lon="-5.420032000">
        <ele>97.4</ele>
        <time>2020-10-12T07:21:29Z</time>
      </trkpt>
      <trkpt lat="37.338283000" lon="-5.419983000">
        <ele>97.4</ele>
        <time>2020-10-12T07:21:31Z</time>
      </trkpt>
      <trkpt lat="37.338358000" lon="-5.419941000">
        <ele>97.3</ele>
        <time>2020-10-12T07:21:33Z</time>
      </trkpt>
      <trkpt lat="37.338432000" lon="-5.419898000">
        <ele>97.2</ele>
        <time>2020-10-12T07:21:35Z</time>
      </trkpt>
      <trkpt lat="37.338538000" lon="-5.419823000">
        <ele>97.2</ele>
        <time>2020-10-12T07:21:38Z</time>
      </trkpt>
      <trkpt lat="37.338614000" lon="-5.419771000">
        <ele>97.2</ele>
        <time>2020-10-12T07:21:40Z</time>
      </trkpt>
      <trkpt lat="37.338687000" lon="-5.419713000">
        <ele>97.4</ele>
        <time>2020-10-12T07:21:42Z</time>
      </trkpt>
      <trkpt lat="37.338765000" lon="-5.419665000">
        <ele>97.5</ele>
        <time>2020-10-12T07:21:44Z</time>
      </trkpt>
      <trkpt lat="37.338845000" lon="-5.419614000">
        <ele>97.7</ele>
        <time>2020-10-12T07:21:46Z</time>
      </trkpt>
      <trkpt lat="37.338926000" lon="-5.419564000">
        <ele>97.8</ele>
        <time>2020-10-12T07:21:48Z</time>
      </trkpt>
      <trkpt lat="37.339003000" lon="-5.419508000">
        <ele>97.9</ele>
        <time>2020-10-12T07:21:50Z</time>
      </trkpt>
      <trkpt lat="37.339084000" lon="-5.419460000">
        <ele>98.0</ele>
        <time>2020-10-12T07:21:52Z</time>
      </trkpt>
      <trkpt lat="37.339160000" lon="-5.419410000">
        <ele>98.2</ele>
        <time>2020-10-12T07:21:54Z</time>
      </trkpt>
      <trkpt lat="37.339232000" lon="-5.419361000">
        <ele>98.4</ele>
        <time>2020-10-12T07:21:56Z</time>
      </trkpt>
      <trkpt lat="37.339339000" lon="-5.419296000">
        <ele>98.5</ele>
        <time>2020-10-12T07:21:59Z</time>
      </trkpt>
      <trkpt lat="37.339444000" lon="-5.419231000">
        <ele>98.7</ele>
        <time>2020-10-12T07:22:02Z</time>
      </trkpt>
      <trkpt lat="37.339520000" lon="-5.419189000">
        <ele>98.9</ele>
        <time>2020-10-12T07:22:04Z</time>
      </trkpt>
      <trkpt lat="37.339598000" lon="-5.419143000">
        <ele>99.0</ele>
        <time>2020-10-12T07:22:06Z</time>
      </trkpt>
      <trkpt lat="37.339680000" lon="-5.419096000">
        <ele>99.0</ele>
        <time>2020-10-12T07:22:08Z</time>
      </trkpt>
      <trkpt lat="37.339760000" lon="-5.419043000">
        <ele>99.0</ele>
        <time>2020-10-12T07:22:10Z</time>
      </trkpt>
      <trkpt lat="37.339844000" lon="-5.418987000">
        <ele>99.0</ele>
        <time>2020-10-12T07:22:12Z</time>
      </trkpt>
      <trkpt lat="37.339926000" lon="-5.418932000">
        <ele>99.0</ele>
        <time>2020-10-12T07:22:14Z</time>
      </trkpt>
      <trkpt lat="37.340005000" lon="-5.418878000">
        <ele>98.9</ele>
        <time>2020-10-12T07:22:16Z</time>
      </trkpt>
      <trkpt lat="37.340087000" lon="-5.418831000">
        <ele>98.7</ele>
        <time>2020-10-12T07:22:18Z</time>
      </trkpt>
      <trkpt lat="37.340167000" lon="-5.418782000">
        <ele>98.5</ele>
        <time>2020-10-12T07:22:20Z</time>
      </trkpt>
      <trkpt lat="37.340242000" lon="-5.418738000">
        <ele>98.2</ele>
        <time>2020-10-12T07:22:22Z</time>
      </trkpt>
      <trkpt lat="37.340319000" lon="-5.418686000">
        <ele>97.8</ele>
        <time>2020-10-12T07:22:24Z</time>
      </trkpt>
      <trkpt lat="37.340397000" lon="-5.418632000">
        <ele>97.5</ele>
        <time>2020-10-12T07:22:26Z</time>
      </trkpt>
      <trkpt lat="37.340477000" lon="-5.418582000">
        <ele>97.1</ele>
        <time>2020-10-12T07:22:28Z</time>
      </trkpt>
      <trkpt lat="37.340556000" lon="-5.418531000">
        <ele>96.8</ele>
        <time>2020-10-12T07:22:30Z</time>
      </trkpt>
      <trkpt lat="37.340633000" lon="-5.418483000">
        <ele>96.5</ele>
        <time>2020-10-12T07:22:32Z</time>
      </trkpt>
      <trkpt lat="37.340711000" lon="-5.418439000">
        <ele>96.4</ele>
        <time>2020-10-12T07:22:34Z</time>
      </trkpt>
      <trkpt lat="37.340789000" lon="-5.418393000">
        <ele>96.2</ele>
        <time>2020-10-12T07:22:36Z</time>
      </trkpt>
      <trkpt lat="37.340866000" lon="-5.418344000">
        <ele>96.1</ele>
        <time>2020-10-12T07:22:38Z</time>
      </trkpt>
      <trkpt lat="37.340942000" lon="-5.418295000">
        <ele>96.0</ele>
        <time>2020-10-12T07:22:40Z</time>
      </trkpt>
      <trkpt lat="37.341016000" lon="-5.418245000">
        <ele>96.0</ele>
        <time>2020-10-12T07:22:42Z</time>
      </trkpt>
      <trkpt lat="37.341090000" lon="-5.418195000">
        <ele>96.0</ele>
        <time>2020-10-12T07:22:44Z</time>
      </trkpt>
      <trkpt lat="37.341170000" lon="-5.418149000">
        <ele>96.0</ele>
        <time>2020-10-12T07:22:46Z</time>
      </trkpt>
      <trkpt lat="37.341245000" lon="-5.418097000">
        <ele>96.0</ele>
        <time>2020-10-12T07:22:48Z</time>
      </trkpt>
      <trkpt lat="37.341319000" lon="-5.418052000">
        <ele>96.0</ele>
        <time>2020-10-12T07:22:50Z</time>
      </trkpt>
      <trkpt lat="37.341392000" lon="-5.418004000">
        <ele>96.0</ele>
        <time>2020-10-12T07:22:52Z</time>
      </trkpt>
      <trkpt lat="37.341464000" lon="-5.417956000">
        <ele>96.0</ele>
        <time>2020-10-12T07:22:54Z</time>
      </trkpt>
      <trkpt lat="37.341539000" lon="-5.417911000">
        <ele>96.0</ele>
        <time>2020-10-12T07:22:56Z</time>
      </trkpt>
      <trkpt lat="37.341612000" lon="-5.417864000">
        <ele>96.1</ele>
        <time>2020-10-12T07:22:58Z</time>
      </trkpt>
      <trkpt lat="37.341686000" lon="-5.417814000">
        <ele>96.2</ele>
        <time>2020-10-12T07:23:00Z</time>
      </trkpt>
      <trkpt lat="37.341760000" lon="-5.417765000">
        <ele>96.4</ele>
        <time>2020-10-12T07:23:02Z</time>
      </trkpt>
      <trkpt lat="37.341837000" lon="-5.417713000">
        <ele>96.5</ele>
        <time>2020-10-12T07:23:04Z</time>
      </trkpt>
      <trkpt lat="37.341922000" lon="-5.417666000">
        <ele>96.7</ele>
        <time>2020-10-12T07:23:06Z</time>
      </trkpt>
      <trkpt lat="37.342001000" lon="-5.417614000">
        <ele>96.9</ele>
        <time>2020-10-12T07:23:08Z</time>
      </trkpt>
      <trkpt lat="37.342079000" lon="-5.417565000">
        <ele>97.1</ele>
        <time>2020-10-12T07:23:10Z</time>
      </trkpt>
      <trkpt lat="37.342157000" lon="-5.417510000">
        <ele>97.3</ele>
        <time>2020-10-12T07:23:12Z</time>
      </trkpt>
      <trkpt lat="37.342238000" lon="-5.417456000">
        <ele>97.5</ele>
        <time>2020-10-12T07:23:14Z</time>
      </trkpt>
      <trkpt lat="37.342314000" lon="-5.417402000">
        <ele>97.6</ele>
        <time>2020-10-12T07:23:16Z</time>
      </trkpt>
      <trkpt lat="37.342387000" lon="-5.417357000">
        <ele>97.8</ele>
        <time>2020-10-12T07:23:18Z</time>
      </trkpt>
      <trkpt lat="37.342460000" lon="-5.417307000">
        <ele>97.9</ele>
        <time>2020-10-12T07:23:20Z</time>
      </trkpt>
      <trkpt lat="37.342535000" lon="-5.417261000">
        <ele>98.1</ele>
        <time>2020-10-12T07:23:22Z</time>
      </trkpt>
      <trkpt lat="37.342607000" lon="-5.417212000">
        <ele>98.2</ele>
        <time>2020-10-12T07:23:24Z</time>
      </trkpt>
      <trkpt lat="37.342715000" lon="-5.417140000">
        <ele>98.3</ele>
        <time>2020-10-12T07:23:27Z</time>
      </trkpt>
      <trkpt lat="37.342788000" lon="-5.417094000">
        <ele>98.3</ele>
        <time>2020-10-12T07:23:29Z</time>
      </trkpt>
      <trkpt lat="37.342893000" lon="-5.417027000">
        <ele>98.3</ele>
        <time>2020-10-12T07:23:32Z</time>
      </trkpt>
      <trkpt lat="37.343000000" lon="-5.416959000">
        <ele>98.3</ele>
        <time>2020-10-12T07:23:35Z</time>
      </trkpt>
      <trkpt lat="37.343074000" lon="-5.416915000">
        <ele>98.3</ele>
        <time>2020-10-12T07:23:37Z</time>
      </trkpt>
      <trkpt lat="37.343147000" lon="-5.416866000">
        <ele>98.3</ele>
        <time>2020-10-12T07:23:39Z</time>
      </trkpt>
      <trkpt lat="37.343220000" lon="-5.416820000">
        <ele>98.3</ele>
        <time>2020-10-12T07:23:41Z</time>
      </trkpt>
      <trkpt lat="37.343296000" lon="-5.416774000">
        <ele>98.3</ele>
        <time>2020-10-12T07:23:43Z</time>
      </trkpt>
      <trkpt lat="37.343372000" lon="-5.416728000">
        <ele>98.2</ele>
        <time>2020-10-12T07:23:45Z</time>
      </trkpt>
      <trkpt lat="37.343478000" lon="-5.416660000">
        <ele>98.0</ele>
        <time>2020-10-12T07:23:48Z</time>
      </trkpt>
      <trkpt lat="37.343585000" lon="-5.416590000">
        <ele>97.7</ele>
        <time>2020-10-12T07:23:51Z</time>
      </trkpt>
      <trkpt lat="37.343659000" lon="-5.416546000">
        <ele>97.5</ele>
        <time>2020-10-12T07:23:53Z</time>
      </trkpt>
      <trkpt lat="37.343732000" lon="-5.416498000">
        <ele>97.3</ele>
        <time>2020-10-12T07:23:55Z</time>
      </trkpt>
      <trkpt lat="37.343841000" lon="-5.416429000">
        <ele>97.1</ele>
        <time>2020-10-12T07:23:58Z</time>
      </trkpt>
      <trkpt lat="37.343915000" lon="-5.416385000">
        <ele>96.9</ele>
        <time>2020-10-12T07:24:00Z</time>
      </trkpt>
      <trkpt lat="37.344017000" lon="-5.416315000">
        <ele>96.8</ele>
        <time>2020-10-12T07:24:03Z</time>
      </trkpt>
      <trkpt lat="37.344120000" lon="-5.416252000">
        <ele>96.7</ele>
        <time>2020-10-12T07:24:06Z</time>
      </trkpt>
      <trkpt lat="37.344220000" lon="-5.416188000">
        <ele>96.6</ele>
        <time>2020-10-12T07:24:09Z</time>
      </trkpt>
      <trkpt lat="37.344322000" lon="-5.416124000">
        <ele>96.5</ele>
        <time>2020-10-12T07:24:12Z</time>
      </trkpt>
      <trkpt lat="37.344425000" lon="-5.416058000">
        <ele>96.4</ele>
        <time>2020-10-12T07:24:15Z</time>
      </trkpt>
      <trkpt lat="37.344527000" lon="-5.415994000">
        <ele>96.2</ele>
        <time>2020-10-12T07:24:18Z</time>
      </trkpt>
      <trkpt lat="37.344628000" lon="-5.415922000">
        <ele>96.1</ele>
        <time>2020-10-12T07:24:21Z</time>
      </trkpt>
      <trkpt lat="37.344722000" lon="-5.415859000">
        <ele>96.0</ele>
        <time>2020-10-12T07:24:24Z</time>
      </trkpt>
      <trkpt lat="37.344814000" lon="-5.415802000">
        <ele>95.9</ele>
        <time>2020-10-12T07:24:27Z</time>
      </trkpt>
      <trkpt lat="37.344905000" lon="-5.415745000">
        <ele>95.8</ele>
        <time>2020-10-12T07:24:30Z</time>
      </trkpt>
      <trkpt lat="37.344996000" lon="-5.415691000">
        <ele>95.8</ele>
        <time>2020-10-12T07:24:33Z</time>
      </trkpt>
      <trkpt lat="37.345085000" lon="-5.415639000">
        <ele>95.8</ele>
        <time>2020-10-12T07:24:36Z</time>
      </trkpt>
      <trkpt lat="37.345173000" lon="-5.415583000">
        <ele>95.8</ele>
        <time>2020-10-12T07:24:39Z</time>
      </trkpt>
      <trkpt lat="37.345259000" lon="-5.415521000">
        <ele>95.9</ele>
        <time>2020-10-12T07:24:42Z</time>
      </trkpt>
      <trkpt lat="37.345345000" lon="-5.415462000">
        <ele>96.1</ele>
        <time>2020-10-12T07:24:45Z</time>
      </trkpt>
      <trkpt lat="37.345437000" lon="-5.415402000">
        <ele>96.4</ele>
        <time>2020-10-12T07:24:48Z</time>
      </trkpt>
      <trkpt lat="37.345534000" lon="-5.415336000">
        <ele>96.7</ele>
        <time>2020-10-12T07:24:51Z</time>
      </trkpt>
      <trkpt lat="37.345632000" lon="-5.415272000">
        <ele>97.1</ele>
        <time>2020-10-12T07:24:54Z</time>
      </trkpt>
      <trkpt lat="37.345719000" lon="-5.415213000">
        <ele>97.5</ele>
        <time>2020-10-12T07:24:57Z</time>
      </trkpt>
      <trkpt lat="37.345813000" lon="-5.415151000">
        <ele>97.8</ele>
        <time>2020-10-12T07:25:00Z</time>
      </trkpt>
      <trkpt lat="37.345910000" lon="-5.415093000">
        <ele>98.3</ele>
        <time>2020-10-12T07:25:03Z</time>
      </trkpt>
      <trkpt lat="37.346005000" lon="-5.415035000">
        <ele>98.6</ele>
        <time>2020-10-12T07:25:06Z</time>
      </trkpt>
      <trkpt lat="37.346100000" lon="-5.414980000">
        <ele>99.0</ele>
        <time>2020-10-12T07:25:09Z</time>
      </trkpt>
      <trkpt lat="37.346189000" lon="-5.414921000">
        <ele>99.4</ele>
        <time>2020-10-12T07:25:12Z</time>
      </trkpt>
      <trkpt lat="37.346281000" lon="-5.414866000">
        <ele>99.6</ele>
        <time>2020-10-12T07:25:15Z</time>
      </trkpt>
      <trkpt lat="37.346375000" lon="-5.414805000">
        <ele>99.9</ele>
        <time>2020-10-12T07:25:18Z</time>
      </trkpt>
      <trkpt lat="37.346470000" lon="-5.414745000">
        <ele>100.1</ele>
        <time>2020-10-12T07:25:21Z</time>
      </trkpt>
      <trkpt lat="37.346565000" lon="-5.414694000">
        <ele>100.3</ele>
        <time>2020-10-12T07:25:24Z</time>
      </trkpt>
      <trkpt lat="37.346663000" lon="-5.414633000">
        <ele>100.5</ele>
        <time>2020-10-12T07:25:27Z</time>
      </trkpt>
      <trkpt lat="37.346754000" lon="-5.414565000">
        <ele>100.6</ele>
        <time>2020-10-12T07:25:30Z</time>
      </trkpt>
      <trkpt lat="37.346853000" lon="-5.414499000">
        <ele>100.8</ele>
        <time>2020-10-12T07:25:33Z</time>
      </trkpt>
      <trkpt lat="37.346947000" lon="-5.414435000">
        <ele>100.9</ele>
        <time>2020-10-12T07:25:36Z</time>
      </trkpt>
      <trkpt lat="37.347043000" lon="-5.414371000">
        <ele>101.0</ele>
        <time>2020-10-12T07:25:39Z</time>
      </trkpt>
      <trkpt lat="37.347141000" lon="-5.414308000">
        <ele>101.0</ele>
        <time>2020-10-12T07:25:42Z</time>
      </trkpt>
      <trkpt lat="37.347236000" lon="-5.414251000">
        <ele>100.9</ele>
        <time>2020-10-12T07:25:45Z</time>
      </trkpt>
      <trkpt lat="37.347330000" lon="-5.414192000">
        <ele>100.8</ele>
        <time>2020-10-12T07:25:48Z</time>
      </trkpt>
      <trkpt lat="37.347426000" lon="-5.414140000">
        <ele>100.7</ele>
        <time>2020-10-12T07:25:51Z</time>
      </trkpt>
      <trkpt lat="37.347523000" lon="-5.414091000">
        <ele>100.7</ele>
        <time>2020-10-12T07:25:54Z</time>
      </trkpt>
      <trkpt lat="37.347614000" lon="-5.414042000">
        <ele>100.7</ele>
        <time>2020-10-12T07:25:57Z</time>
      </trkpt>
      <trkpt lat="37.347701000" lon="-5.413995000">
        <ele>100.7</ele>
        <time>2020-10-12T07:26:00Z</time>
      </trkpt>
      <trkpt lat="37.347795000" lon="-5.413948000">
        <ele>100.7</ele>
        <time>2020-10-12T07:26:03Z</time>
      </trkpt>
      <trkpt lat="37.347891000" lon="-5.413902000">
        <ele>100.7</ele>
        <time>2020-10-12T07:26:06Z</time>
      </trkpt>
      <trkpt lat="37.347992000" lon="-5.413857000">
        <ele>100.6</ele>
        <time>2020-10-12T07:26:09Z</time>
      </trkpt>
      <trkpt lat="37.348094000" lon="-5.413811000">
        <ele>100.5</ele>
        <time>2020-10-12T07:26:12Z</time>
      </trkpt>
      <trkpt lat="37.348196000" lon="-5.413761000">
        <ele>100.5</ele>
        <time>2020-10-12T07:26:15Z</time>
      </trkpt>
      <trkpt lat="37.348301000" lon="-5.413710000">
        <ele>100.4</ele>
        <time>2020-10-12T07:26:18Z</time>
      </trkpt>
      <trkpt lat="37.348410000" lon="-5.413668000">
        <ele>100.4</ele>
        <time>2020-10-12T07:26:21Z</time>
      </trkpt>
      <trkpt lat="37.348520000" lon="-5.413625000">
        <ele>100.4</ele>
        <time>2020-10-12T07:26:24Z</time>
      </trkpt>
      <trkpt lat="37.348631000" lon="-5.413578000">
        <ele>100.4</ele>
        <time>2020-10-12T07:26:27Z</time>
      </trkpt>
      <trkpt lat="37.348740000" lon="-5.413545000">
        <ele>100.4</ele>
        <time>2020-10-12T07:26:30Z</time>
      </trkpt>
      <trkpt lat="37.348847000" lon="-5.413505000">
        <ele>100.5</ele>
        <time>2020-10-12T07:26:33Z</time>
      </trkpt>
      <trkpt lat="37.348949000" lon="-5.413477000">
        <ele>100.6</ele>
        <time>2020-10-12T07:26:36Z</time>
      </trkpt>
      <trkpt lat="37.349047000" lon="-5.413449000">
        <ele>100.8</ele>
        <time>2020-10-12T07:26:39Z</time>
      </trkpt>
      <trkpt lat="37.349147000" lon="-5.413419000">
        <ele>101.2</ele>
        <time>2020-10-12T07:26:42Z</time>
      </trkpt>
      <trkpt lat="37.349252000" lon="-5.413386000">
        <ele>101.5</ele>
        <time>2020-10-12T07:26:45Z</time>
      </trkpt>
      <trkpt lat="37.349359000" lon="-5.413351000">
        <ele>101.8</ele>
        <time>2020-10-12T07:26:48Z</time>
      </trkpt>
      <trkpt lat="37.349463000" lon="-5.413321000">
        <ele>102.2</ele>
        <time>2020-10-12T07:26:51Z</time>
      </trkpt>
      <trkpt lat="37.349567000" lon="-5.413302000">
        <ele>102.5</ele>
        <time>2020-10-12T07:26:54Z</time>
      </trkpt>
      <trkpt lat="37.349673000" lon="-5.413271000">
        <ele>102.6</ele>
        <time>2020-10-12T07:26:57Z</time>
      </trkpt>
      <trkpt lat="37.349782000" lon="-5.413246000">
        <ele>102.6</ele>
        <time>2020-10-12T07:27:00Z</time>
      </trkpt>
      <trkpt lat="37.349886000" lon="-5.413227000">
        <ele>102.6</ele>
        <time>2020-10-12T07:27:03Z</time>
      </trkpt>
      <trkpt lat="37.349984000" lon="-5.413210000">
        <ele>102.5</ele>
        <time>2020-10-12T07:27:06Z</time>
      </trkpt>
      <trkpt lat="37.350084000" lon="-5.413195000">
        <ele>102.1</ele>
        <time>2020-10-12T07:27:09Z</time>
      </trkpt>
      <trkpt lat="37.350188000" lon="-5.413179000">
        <ele>101.6</ele>
        <time>2020-10-12T07:27:12Z</time>
      </trkpt>
      <trkpt lat="37.350298000" lon="-5.413166000">
        <ele>101.1</ele>
        <time>2020-10-12T07:27:15Z</time>
      </trkpt>
      <trkpt lat="37.350405000" lon="-5.413154000">
        <ele>100.5</ele>
        <time>2020-10-12T07:27:18Z</time>
      </trkpt>
      <trkpt lat="37.350512000" lon="-5.413146000">
        <ele>100.1</ele>
        <time>2020-10-12T07:27:21Z</time>
      </trkpt>
      <trkpt lat="37.350620000" lon="-5.413135000">
        <ele>99.6</ele>
        <time>2020-10-12T07:27:24Z</time>
      </trkpt>
      <trkpt lat="37.350724000" lon="-5.413120000">
        <ele>99.3</ele>
        <time>2020-10-12T07:27:27Z</time>
      </trkpt>
      <trkpt lat="37.350829000" lon="-5.413101000">
        <ele>99.0</ele>
        <time>2020-10-12T07:27:30Z</time>
      </trkpt>
      <trkpt lat="37.350936000" lon="-5.413082000">
        <ele>98.9</ele>
        <time>2020-10-12T07:27:33Z</time>
      </trkpt>
      <trkpt lat="37.351038000" lon="-5.413072000">
        <ele>98.8</ele>
        <time>2020-10-12T07:27:36Z</time>
      </trkpt>
      <trkpt lat="37.351144000" lon="-5.413054000">
        <ele>98.8</ele>
        <time>2020-10-12T07:27:39Z</time>
      </trkpt>
      <trkpt lat="37.351253000" lon="-5.413040000">
        <ele>99.0</ele>
        <time>2020-10-12T07:27:42Z</time>
      </trkpt>
      <trkpt lat="37.351361000" lon="-5.413028000">
        <ele>99.3</ele>
        <time>2020-10-12T07:27:45Z</time>
      </trkpt>
      <trkpt lat="37.351470000" lon="-5.413019000">
        <ele>99.5</ele>
        <time>2020-10-12T07:27:48Z</time>
      </trkpt>
      <trkpt lat="37.351576000" lon="-5.413006000">
        <ele>99.7</ele>
        <time>2020-10-12T07:27:51Z</time>
      </trkpt>
      <trkpt lat="37.351673000" lon="-5.412995000">
        <ele>99.8</ele>
        <time>2020-10-12T07:27:54Z</time>
      </trkpt>
      <trkpt lat="37.351767000" lon="-5.412983000">
        <ele>99.8</ele>
        <time>2020-10-12T07:27:57Z</time>
      </trkpt>
      <trkpt lat="37.351862000" lon="-5.412973000">
        <ele>99.7</ele>
        <time>2020-10-12T07:28:00Z</time>
      </trkpt>
      <trkpt lat="37.351959000" lon="-5.412964000">
        <ele>99.6</ele>
        <time>2020-10-12T07:28:03Z</time>
      </trkpt>
      <trkpt lat="37.352059000" lon="-5.412950000">
        <ele>99.5</ele>
        <time>2020-10-12T07:28:06Z</time>
      </trkpt>
      <trkpt lat="37.352161000" lon="-5.412940000">
        <ele>99.5</ele>
        <time>2020-10-12T07:28:09Z</time>
      </trkpt>
      <trkpt lat="37.352262000" lon="-5.412920000">
        <ele>99.5</ele>
        <time>2020-10-12T07:28:12Z</time>
      </trkpt>
      <trkpt lat="37.352366000" lon="-5.412906000">
        <ele>99.4</ele>
        <time>2020-10-12T07:28:15Z</time>
      </trkpt>
      <trkpt lat="37.352468000" lon="-5.412898000">
        <ele>99.4</ele>
        <time>2020-10-12T07:28:18Z</time>
      </trkpt>
      <trkpt lat="37.352570000" lon="-5.412887000">
        <ele>99.4</ele>
        <time>2020-10-12T07:28:21Z</time>
      </trkpt>
      <trkpt lat="37.352677000" lon="-5.412877000">
        <ele>99.4</ele>
        <time>2020-10-12T07:28:24Z</time>
      </trkpt>
      <trkpt lat="37.352786000" lon="-5.412878000">
        <ele>99.4</ele>
        <time>2020-10-12T07:28:27Z</time>
      </trkpt>
      <trkpt lat="37.352894000" lon="-5.412874000">
        <ele>99.5</ele>
        <time>2020-10-12T07:28:30Z</time>
      </trkpt>
      <trkpt lat="37.353000000" lon="-5.412864000">
        <ele>99.5</ele>
        <time>2020-10-12T07:28:33Z</time>
      </trkpt>
      <trkpt lat="37.353103000" lon="-5.412849000">
        <ele>99.4</ele>
        <time>2020-10-12T07:28:36Z</time>
      </trkpt>
      <trkpt lat="37.353206000" lon="-5.412837000">
        <ele>99.2</ele>
        <time>2020-10-12T07:28:39Z</time>
      </trkpt>
      <trkpt lat="37.353304000" lon="-5.412822000">
        <ele>99.0</ele>
        <time>2020-10-12T07:28:42Z</time>
      </trkpt>
      <trkpt lat="37.353398000" lon="-5.412811000">
        <ele>98.7</ele>
        <time>2020-10-12T07:28:45Z</time>
      </trkpt>
      <trkpt lat="37.353494000" lon="-5.412800000">
        <ele>98.5</ele>
        <time>2020-10-12T07:28:48Z</time>
      </trkpt>
      <trkpt lat="37.353592000" lon="-5.412788000">
        <ele>98.3</ele>
        <time>2020-10-12T07:28:51Z</time>
      </trkpt>
      <trkpt lat="37.353688000" lon="-5.412777000">
        <ele>98.1</ele>
        <time>2020-10-12T07:28:54Z</time>
      </trkpt>
      <trkpt lat="37.353782000" lon="-5.412766000">
        <ele>98.0</ele>
        <time>2020-10-12T07:28:57Z</time>
      </trkpt>
      <trkpt lat="37.353880000" lon="-5.412757000">
        <ele>98.1</ele>
        <time>2020-10-12T07:29:00Z</time>
      </trkpt>
      <trkpt lat="37.353977000" lon="-5.412749000">
        <ele>98.2</ele>
        <time>2020-10-12T07:29:03Z</time>
      </trkpt>
      <trkpt lat="37.354075000" lon="-5.412741000">
        <ele>98.5</ele>
        <time>2020-10-12T07:29:06Z</time>
      </trkpt>
      <trkpt lat="37.354175000" lon="-5.412730000">
        <ele>98.8</ele>
        <time>2020-10-12T07:29:09Z</time>
      </trkpt>
      <trkpt lat="37.354275000" lon="-5.412715000">
        <ele>99.2</ele>
        <time>2020-10-12T07:29:12Z</time>
      </trkpt>
      <trkpt lat="37.354378000" lon="-5.412703000">
        <ele>99.5</ele>
        <time>2020-10-12T07:29:15Z</time>
      </trkpt>
      <trkpt lat="37.354483000" lon="-5.412689000">
        <ele>99.6</ele>
        <time>2020-10-12T07:29:18Z</time>
      </trkpt>
      <trkpt lat="37.354586000" lon="-5.412682000">
        <ele>99.8</ele>
        <time>2020-10-12T07:29:21Z</time>
      </trkpt>
      <trkpt lat="37.354692000" lon="-5.412668000">
        <ele>100.0</ele>
        <time>2020-10-12T07:29:24Z</time>
      </trkpt>
      <trkpt lat="37.354798000" lon="-5.412659000">
        <ele>100.1</ele>
        <time>2020-10-12T07:29:27Z</time>
      </trkpt>
      <trkpt lat="37.354900000" lon="-5.412645000">
        <ele>100.2</ele>
        <time>2020-10-12T07:29:30Z</time>
      </trkpt>
      <trkpt lat="37.355002000" lon="-5.412632000">
        <ele>100.3</ele>
        <time>2020-10-12T07:29:33Z</time>
      </trkpt>
      <trkpt lat="37.355099000" lon="-5.412616000">
        <ele>100.4</ele>
        <time>2020-10-12T07:29:36Z</time>
      </trkpt>
      <trkpt lat="37.355188000" lon="-5.412608000">
        <ele>100.4</ele>
        <time>2020-10-12T07:29:39Z</time>
      </trkpt>
      <trkpt lat="37.355279000" lon="-5.412592000">
        <ele>100.4</ele>
        <time>2020-10-12T07:29:42Z</time>
      </trkpt>
      <trkpt lat="37.355373000" lon="-5.412578000">
        <ele>100.4</ele>
        <time>2020-10-12T07:29:45Z</time>
      </trkpt>
      <trkpt lat="37.355471000" lon="-5.412571000">
        <ele>100.5</ele>
        <time>2020-10-12T07:29:48Z</time>
      </trkpt>
      <trkpt lat="37.355568000" lon="-5.412559000">
        <ele>100.7</ele>
        <time>2020-10-12T07:29:51Z</time>
      </trkpt>
      <trkpt lat="37.355668000" lon="-5.412548000">
        <ele>100.9</ele>
        <time>2020-10-12T07:29:54Z</time>
      </trkpt>
      <trkpt lat="37.355766000" lon="-5.412536000">
        <ele>101.2</ele>
        <time>2020-10-12T07:29:57Z</time>
      </trkpt>
      <trkpt lat="37.355860000" lon="-5.412523000">
        <ele>101.5</ele>
        <time>2020-10-12T07:30:00Z</time>
      </trkpt>
      <trkpt lat="37.355954000" lon="-5.412518000">
        <ele>101.7</ele>
        <time>2020-10-12T07:30:03Z</time>
      </trkpt>
      <trkpt lat="37.356053000" lon="-5.412503000">
        <ele>102.0</ele>
        <time>2020-10-12T07:30:06Z</time>
      </trkpt>
      <trkpt lat="37.356156000" lon="-5.412495000">
        <ele>102.4</ele>
        <time>2020-10-12T07:30:09Z</time>
      </trkpt>
      <trkpt lat="37.356256000" lon="-5.412485000">
        <ele>102.7</ele>
        <time>2020-10-12T07:30:12Z</time>
      </trkpt>
      <trkpt lat="37.356353000" lon="-5.412479000">
        <ele>103.1</ele>
        <time>2020-10-12T07:30:15Z</time>
      </trkpt>
      <trkpt lat="37.356449000" lon="-5.412464000">
        <ele>103.5</ele>
        <time>2020-10-12T07:30:18Z</time>
      </trkpt>
      <trkpt lat="37.356551000" lon="-5.412456000">
        <ele>104.0</ele>
        <time>2020-10-12T07:30:21Z</time>
      </trkpt>
      <trkpt lat="37.356649000" lon="-5.412446000">
        <ele>104.4</ele>
        <time>2020-10-12T07:30:24Z</time>
      </trkpt>
      <trkpt lat="37.356742000" lon="-5.412434000">
        <ele>104.7</ele>
        <time>2020-10-12T07:30:27Z</time>
      </trkpt>
      <trkpt lat="37.356833000" lon="-5.412419000">
        <ele>105.0</ele>
        <time>2020-10-12T07:30:30Z</time>
      </trkpt>
      <trkpt lat="37.356924000" lon="-5.412407000">
        <ele>105.4</ele>
        <time>2020-10-12T07:30:33Z</time>
      </trkpt>
      <trkpt lat="37.357014000" lon="-5.412404000">
        <ele>105.7</ele>
        <time>2020-10-12T07:30:36Z</time>
      </trkpt>
      <trkpt lat="37.357109000" lon="-5.412390000">
        <ele>106.1</ele>
        <time>2020-10-12T07:30:39Z</time>
      </trkpt>
      <trkpt lat="37.357203000" lon="-5.412370000">
        <ele>106.4</ele>
        <time>2020-10-12T07:30:42Z</time>
      </trkpt>
      <trkpt lat="37.357298000" lon="-5.412361000">
        <ele>106.7</ele>
        <time>2020-10-12T07:30:45Z</time>
      </trkpt>
      <trkpt lat="37.357386000" lon="-5.412348000">
        <ele>107.1</ele>
        <time>2020-10-12T07:30:48Z</time>
      </trkpt>
      <trkpt lat="37.357478000" lon="-5.412340000">
        <ele>107.4</ele>
        <time>2020-10-12T07:30:51Z</time>
      </trkpt>
      <trkpt lat="37.357569000" lon="-5.412331000">
        <ele>107.6</ele>
        <time>2020-10-12T07:30:54Z</time>
      </trkpt>
      <trkpt lat="37.357660000" lon="-5.412324000">
        <ele>107.9</ele>
        <time>2020-10-12T07:30:57Z</time>
      </trkpt>
      <trkpt lat="37.357750000" lon="-5.412318000">
        <ele>108.2</ele>
        <time>2020-10-12T07:31:00Z</time>
      </trkpt>
      <trkpt lat="37.357842000" lon="-5.412303000">
        <ele>108.5</ele>
        <time>2020-10-12T07:31:03Z</time>
      </trkpt>
      <trkpt lat="37.357933000" lon="-5.412290000">
        <ele>108.7</ele>
        <time>2020-10-12T07:31:06Z</time>
      </trkpt>
      <trkpt lat="37.358026000" lon="-5.412275000">
        <ele>109.0</ele>
        <time>2020-10-12T07:31:09Z</time>
      </trkpt>
      <trkpt lat="37.358125000" lon="-5.412261000">
        <ele>109.3</ele>
        <time>2020-10-12T07:31:12Z</time>
      </trkpt>
      <trkpt lat="37.358222000" lon="-5.412251000">
        <ele>109.5</ele>
        <time>2020-10-12T07:31:15Z</time>
      </trkpt>
      <trkpt lat="37.358321000" lon="-5.412242000">
        <ele>109.7</ele>
        <time>2020-10-12T07:31:18Z</time>
      </trkpt>
      <trkpt lat="37.358422000" lon="-5.412232000">
        <ele>110.0</ele>
        <time>2020-10-12T07:31:21Z</time>
      </trkpt>
      <trkpt lat="37.358515000" lon="-5.412218000">
        <ele>110.3</ele>
        <time>2020-10-12T07:31:24Z</time>
      </trkpt>
      <trkpt lat="37.358607000" lon="-5.412209000">
        <ele>110.5</ele>
        <time>2020-10-12T07:31:27Z</time>
      </trkpt>
      <trkpt lat="37.358706000" lon="-5.412198000">
        <ele>110.8</ele>
        <time>2020-10-12T07:31:30Z</time>
      </trkpt>
      <trkpt lat="37.358802000" lon="-5.412186000">
        <ele>111.1</ele>
        <time>2020-10-12T07:31:33Z</time>
      </trkpt>
      <trkpt lat="37.358897000" lon="-5.412177000">
        <ele>111.4</ele>
        <time>2020-10-12T07:31:36Z</time>
      </trkpt>
      <trkpt lat="37.358993000" lon="-5.412166000">
        <ele>111.6</ele>
        <time>2020-10-12T07:31:39Z</time>
      </trkpt>
      <trkpt lat="37.359090000" lon="-5.412159000">
        <ele>111.9</ele>
        <time>2020-10-12T07:31:42Z</time>
      </trkpt>
      <trkpt lat="37.359189000" lon="-5.412144000">
        <ele>112.1</ele>
        <time>2020-10-12T07:31:45Z</time>
      </trkpt>
      <trkpt lat="37.359287000" lon="-5.412132000">
        <ele>112.3</ele>
        <time>2020-10-12T07:31:48Z</time>
      </trkpt>
      <trkpt lat="37.359386000" lon="-5.412123000">
        <ele>112.4</ele>
        <time>2020-10-12T07:31:51Z</time>
      </trkpt>
      <trkpt lat="37.359484000" lon="-5.412112000">
        <ele>112.4</ele>
        <time>2020-10-12T07:31:54Z</time>
      </trkpt>
      <trkpt lat="37.359577000" lon="-5.412104000">
        <ele>112.5</ele>
        <time>2020-10-12T07:31:57Z</time>
      </trkpt>
      <trkpt lat="37.359674000" lon="-5.412093000">
        <ele>112.5</ele>
        <time>2020-10-12T07:32:00Z</time>
      </trkpt>
      <trkpt lat="37.359770000" lon="-5.412084000">
        <ele>112.7</ele>
        <time>2020-10-12T07:32:03Z</time>
      </trkpt>
      <trkpt lat="37.359866000" lon="-5.412074000">
        <ele>112.9</ele>
        <time>2020-10-12T07:32:06Z</time>
      </trkpt>
      <trkpt lat="37.359964000" lon="-5.412065000">
        <ele>113.1</ele>
        <time>2020-10-12T07:32:09Z</time>
      </trkpt>
      <trkpt lat="37.360057000" lon="-5.412051000">
        <ele>113.2</ele>
        <time>2020-10-12T07:32:12Z</time>
      </trkpt>
      <trkpt lat="37.360154000" lon="-5.412039000">
        <ele>113.4</ele>
        <time>2020-10-12T07:32:15Z</time>
      </trkpt>
      <trkpt lat="37.360251000" lon="-5.412028000">
        <ele>113.5</ele>
        <time>2020-10-12T07:32:18Z</time>
      </trkpt>
      <trkpt lat="37.360346000" lon="-5.412019000">
        <ele>113.7</ele>
        <time>2020-10-12T07:32:21Z</time>
      </trkpt>
      <trkpt lat="37.360439000" lon="-5.412008000">
        <ele>114.0</ele>
        <time>2020-10-12T07:32:24Z</time>
      </trkpt>
      <trkpt lat="37.360528000" lon="-5.411989000">
        <ele>114.3</ele>
        <time>2020-10-12T07:32:27Z</time>
      </trkpt>
      <trkpt lat="37.360629000" lon="-5.411986000">
        <ele>114.5</ele>
        <time>2020-10-12T07:32:30Z</time>
      </trkpt>
      <trkpt lat="37.360731000" lon="-5.411974000">
        <ele>114.6</ele>
        <time>2020-10-12T07:32:33Z</time>
      </trkpt>
      <trkpt lat="37.360836000" lon="-5.411959000">
        <ele>114.7</ele>
        <time>2020-10-12T07:32:36Z</time>
      </trkpt>
      <trkpt lat="37.360947000" lon="-5.411939000">
        <ele>114.9</ele>
        <time>2020-10-12T07:32:39Z</time>
      </trkpt>
      <trkpt lat="37.361061000" lon="-5.411924000">
        <ele>115.1</ele>
        <time>2020-10-12T07:32:42Z</time>
      </trkpt>
      <trkpt lat="37.361171000" lon="-5.411901000">
        <ele>115.4</ele>
        <time>2020-10-12T07:32:45Z</time>
      </trkpt>
      <trkpt lat="37.361281000" lon="-5.411873000">
        <ele>115.6</ele>
        <time>2020-10-12T07:32:48Z</time>
      </trkpt>
      <trkpt lat="37.361399000" lon="-5.411851000">
        <ele>116.0</ele>
        <time>2020-10-12T07:32:51Z</time>
      </trkpt>
      <trkpt lat="37.361514000" lon="-5.411818000">
        <ele>116.5</ele>
        <time>2020-10-12T07:32:54Z</time>
      </trkpt>
      <trkpt lat="37.361631000" lon="-5.411786000">
        <ele>116.9</ele>
        <time>2020-10-12T07:32:57Z</time>
      </trkpt>
      <trkpt lat="37.361710000" lon="-5.411759000">
        <ele>117.5</ele>
        <time>2020-10-12T07:32:59Z</time>
      </trkpt>
      <trkpt lat="37.361823000" lon="-5.411721000">
        <ele>118.0</ele>
        <time>2020-10-12T07:33:02Z</time>
      </trkpt>
      <trkpt lat="37.361929000" lon="-5.411686000">
        <ele>118.5</ele>
        <time>2020-10-12T07:33:05Z</time>
      </trkpt>
      <trkpt lat="37.362038000" lon="-5.411636000">
        <ele>118.9</ele>
        <time>2020-10-12T07:33:08Z</time>
      </trkpt>
      <trkpt lat="37.362115000" lon="-5.411601000">
        <ele>119.2</ele>
        <time>2020-10-12T07:33:10Z</time>
      </trkpt>
      <trkpt lat="37.362191000" lon="-5.411564000">
        <ele>119.4</ele>
        <time>2020-10-12T07:33:12Z</time>
      </trkpt>
      <trkpt lat="37.362303000" lon="-5.411510000">
        <ele>119.4</ele>
        <time>2020-10-12T07:33:15Z</time>
      </trkpt>
      <trkpt lat="37.362381000" lon="-5.411476000">
        <ele>119.2</ele>
        <time>2020-10-12T07:33:17Z</time>
      </trkpt>
      <trkpt lat="37.362461000" lon="-5.411443000">
        <ele>118.9</ele>
        <time>2020-10-12T07:33:19Z</time>
      </trkpt>
      <trkpt lat="37.362539000" lon="-5.411408000">
        <ele>118.5</ele>
        <time>2020-10-12T07:33:21Z</time>
      </trkpt>
      <trkpt lat="37.362649000" lon="-5.411352000">
        <ele>118.0</ele>
        <time>2020-10-12T07:33:24Z</time>
      </trkpt>
      <trkpt lat="37.362755000" lon="-5.411298000">
        <ele>117.4</ele>
        <time>2020-10-12T07:33:27Z</time>
      </trkpt>
      <trkpt lat="37.362865000" lon="-5.411243000">
        <ele>116.7</ele>
        <time>2020-10-12T07:33:30Z</time>
      </trkpt>
      <trkpt lat="37.362976000" lon="-5.411193000">
        <ele>116.1</ele>
        <time>2020-10-12T07:33:33Z</time>
      </trkpt>
      <trkpt lat="37.363054000" lon="-5.411160000">
        <ele>115.5</ele>
        <time>2020-10-12T07:33:35Z</time>
      </trkpt>
      <trkpt lat="37.363136000" lon="-5.411124000">
        <ele>114.8</ele>
        <time>2020-10-12T07:33:37Z</time>
      </trkpt>
      <trkpt lat="37.363220000" lon="-5.411087000">
        <ele>114.2</ele>
        <time>2020-10-12T07:33:39Z</time>
      </trkpt>
      <trkpt lat="37.363301000" lon="-5.411046000">
        <ele>113.6</ele>
        <time>2020-10-12T07:33:41Z</time>
      </trkpt>
      <trkpt lat="37.363383000" lon="-5.411010000">
        <ele>113.2</ele>
        <time>2020-10-12T07:33:43Z</time>
      </trkpt>
      <trkpt lat="37.363464000" lon="-5.410975000">
        <ele>112.7</ele>
        <time>2020-10-12T07:33:45Z</time>
      </trkpt>
      <trkpt lat="37.363546000" lon="-5.410941000">
        <ele>112.3</ele>
        <time>2020-10-12T07:33:47Z</time>
      </trkpt>
      <trkpt lat="37.363630000" lon="-5.410901000">
        <ele>111.7</ele>
        <time>2020-10-12T07:33:49Z</time>
      </trkpt>
      <trkpt lat="37.363710000" lon="-5.410857000">
        <ele>111.2</ele>
        <time>2020-10-12T07:33:51Z</time>
      </trkpt>
      <trkpt lat="37.363789000" lon="-5.410808000">
        <ele>110.5</ele>
        <time>2020-10-12T07:33:53Z</time>
      </trkpt>
      <trkpt lat="37.363868000" lon="-5.410762000">
        <ele>110.0</ele>
        <time>2020-10-12T07:33:55Z</time>
      </trkpt>
      <trkpt lat="37.363944000" lon="-5.410716000">
        <ele>109.5</ele>
        <time>2020-10-12T07:33:57Z</time>
      </trkpt>
      <trkpt lat="37.364025000" lon="-5.410697000">
        <ele>108.9</ele>
        <time>2020-10-12T07:34:57Z</time>
      </trkpt>
      <trkpt lat="37.364131000" lon="-5.410659000">
        <ele>108.5</ele>
        <time>2020-10-12T07:35:01Z</time>
      </trkpt>
      <trkpt lat="37.364230000" lon="-5.410605000">
        <ele>108.0</ele>
        <time>2020-10-12T07:35:04Z</time>
      </trkpt>
      <trkpt lat="37.364340000" lon="-5.410539000">
        <ele>107.5</ele>
        <time>2020-10-12T07:35:07Z</time>
      </trkpt>
      <trkpt lat="37.364417000" lon="-5.410491000">
        <ele>106.9</ele>
        <time>2020-10-12T07:35:09Z</time>
      </trkpt>
      <trkpt lat="37.364499000" lon="-5.410443000">
        <ele>106.5</ele>
        <time>2020-10-12T07:35:11Z</time>
      </trkpt>
      <trkpt lat="37.364588000" lon="-5.410404000">
        <ele>106.1</ele>
        <time>2020-10-12T07:35:13Z</time>
      </trkpt>
      <trkpt lat="37.364677000" lon="-5.410366000">
        <ele>105.7</ele>
        <time>2020-10-12T07:35:16Z</time>
      </trkpt>
      <trkpt lat="37.364766000" lon="-5.410323000">
        <ele>105.5</ele>
        <time>2020-10-12T07:35:17Z</time>
      </trkpt>
      <trkpt lat="37.364853000" lon="-5.410282000">
        <ele>105.1</ele>
        <time>2020-10-12T07:35:19Z</time>
      </trkpt>
      <trkpt lat="37.364943000" lon="-5.410242000">
        <ele>104.7</ele>
        <time>2020-10-12T07:35:21Z</time>
      </trkpt>
      <trkpt lat="37.365028000" lon="-5.410192000">
        <ele>104.4</ele>
        <time>2020-10-12T07:35:23Z</time>
      </trkpt>
      <trkpt lat="37.365113000" lon="-5.410154000">
        <ele>104.0</ele>
        <time>2020-10-12T07:35:25Z</time>
      </trkpt>
      <trkpt lat="37.365198000" lon="-5.410114000">
        <ele>103.5</ele>
        <time>2020-10-12T07:35:27Z</time>
      </trkpt>
      <trkpt lat="37.365286000" lon="-5.410078000">
        <ele>103.2</ele>
        <time>2020-10-12T07:35:29Z</time>
      </trkpt>
      <trkpt lat="37.365371000" lon="-5.410035000">
        <ele>102.8</ele>
        <time>2020-10-12T07:35:31Z</time>
      </trkpt>
      <trkpt lat="37.365461000" lon="-5.410003000">
        <ele>102.5</ele>
        <time>2020-10-12T07:35:33Z</time>
      </trkpt>
      <trkpt lat="37.365540000" lon="-5.409958000">
        <ele>102.1</ele>
        <time>2020-10-12T07:35:35Z</time>
      </trkpt>
      <trkpt lat="37.365620000" lon="-5.409910000">
        <ele>101.8</ele>
        <time>2020-10-12T07:35:37Z</time>
      </trkpt>
      <trkpt lat="37.365696000" lon="-5.409863000">
        <ele>101.5</ele>
        <time>2020-10-12T07:35:39Z</time>
      </trkpt>
      <trkpt lat="37.365777000" lon="-5.409825000">
        <ele>101.4</ele>
        <time>2020-10-12T07:35:41Z</time>
      </trkpt>
      <trkpt lat="37.365856000" lon="-5.409785000">
        <ele>101.2</ele>
        <time>2020-10-12T07:35:43Z</time>
      </trkpt>
      <trkpt lat="37.365938000" lon="-5.409751000">
        <ele>101.1</ele>
        <time>2020-10-12T07:35:45Z</time>
      </trkpt>
      <trkpt lat="37.366021000" lon="-5.409710000">
        <ele>101.0</ele>
        <time>2020-10-12T07:35:47Z</time>
      </trkpt>
      <trkpt lat="37.366110000" lon="-5.409664000">
        <ele>101.0</ele>
        <time>2020-10-12T07:35:49Z</time>
      </trkpt>
      <trkpt lat="37.366194000" lon="-5.409624000">
        <ele>100.9</ele>
        <time>2020-10-12T07:35:51Z</time>
      </trkpt>
      <trkpt lat="37.366278000" lon="-5.409585000">
        <ele>100.8</ele>
        <time>2020-10-12T07:35:53Z</time>
      </trkpt>
      <trkpt lat="37.366363000" lon="-5.409547000">
        <ele>100.7</ele>
        <time>2020-10-12T07:35:55Z</time>
      </trkpt>
      <trkpt lat="37.366446000" lon="-5.409504000">
        <ele>100.6</ele>
        <time>2020-10-12T07:35:57Z</time>
      </trkpt>
      <trkpt lat="37.366532000" lon="-5.409461000">
        <ele>100.5</ele>
        <time>2020-10-12T07:35:59Z</time>
      </trkpt>
      <trkpt lat="37.366613000" lon="-5.409421000">
        <ele>100.5</ele>
        <time>2020-10-12T07:36:01Z</time>
      </trkpt>
      <trkpt lat="37.366698000" lon="-5.409384000">
        <ele>100.5</ele>
        <time>2020-10-12T07:36:03Z</time>
      </trkpt>
      <trkpt lat="37.366783000" lon="-5.409342000">
        <ele>100.5</ele>
        <time>2020-10-12T07:36:05Z</time>
      </trkpt>
      <trkpt lat="37.366864000" lon="-5.409299000">
        <ele>100.4</ele>
        <time>2020-10-12T07:36:07Z</time>
      </trkpt>
      <trkpt lat="37.366945000" lon="-5.409259000">
        <ele>100.3</ele>
        <time>2020-10-12T07:36:09Z</time>
      </trkpt>
      <trkpt lat="37.367026000" lon="-5.409222000">
        <ele>100.2</ele>
        <time>2020-10-12T07:36:11Z</time>
      </trkpt>
      <trkpt lat="37.367105000" lon="-5.409182000">
        <ele>100.1</ele>
        <time>2020-10-12T07:36:13Z</time>
      </trkpt>
      <trkpt lat="37.367181000" lon="-5.409140000">
        <ele>100.0</ele>
        <time>2020-10-12T07:36:15Z</time>
      </trkpt>
      <trkpt lat="37.367261000" lon="-5.409102000">
        <ele>99.9</ele>
        <time>2020-10-12T07:36:17Z</time>
      </trkpt>
      <trkpt lat="37.367344000" lon="-5.409065000">
        <ele>99.8</ele>
        <time>2020-10-12T07:36:19Z</time>
      </trkpt>
      <trkpt lat="37.367425000" lon="-5.409026000">
        <ele>99.7</ele>
        <time>2020-10-12T07:36:21Z</time>
      </trkpt>
      <trkpt lat="37.367502000" lon="-5.408984000">
        <ele>99.6</ele>
        <time>2020-10-12T07:36:23Z</time>
      </trkpt>
      <trkpt lat="37.367586000" lon="-5.408948000">
        <ele>99.5</ele>
        <time>2020-10-12T07:36:25Z</time>
      </trkpt>
      <trkpt lat="37.367676000" lon="-5.408909000">
        <ele>99.2</ele>
        <time>2020-10-12T07:36:27Z</time>
      </trkpt>
      <trkpt lat="37.367763000" lon="-5.408865000">
        <ele>99.0</ele>
        <time>2020-10-12T07:36:29Z</time>
      </trkpt>
      <trkpt lat="37.367848000" lon="-5.408826000">
        <ele>98.8</ele>
        <time>2020-10-12T07:36:31Z</time>
      </trkpt>
      <trkpt lat="37.367934000" lon="-5.408782000">
        <ele>98.6</ele>
        <time>2020-10-12T07:36:33Z</time>
      </trkpt>
      <trkpt lat="37.368028000" lon="-5.408754000">
        <ele>98.5</ele>
        <time>2020-10-12T07:36:35Z</time>
      </trkpt>
      <trkpt lat="37.368112000" lon="-5.408713000">
        <ele>98.5</ele>
        <time>2020-10-12T07:36:37Z</time>
      </trkpt>
      <trkpt lat="37.368197000" lon="-5.408673000">
        <ele>98.5</ele>
        <time>2020-10-12T07:36:39Z</time>
      </trkpt>
      <trkpt lat="37.368276000" lon="-5.408635000">
        <ele>98.5</ele>
        <time>2020-10-12T07:36:41Z</time>
      </trkpt>
      <trkpt lat="37.368356000" lon="-5.408598000">
        <ele>98.5</ele>
        <time>2020-10-12T07:36:43Z</time>
      </trkpt>
      <trkpt lat="37.368433000" lon="-5.408557000">
        <ele>98.4</ele>
        <time>2020-10-12T07:36:45Z</time>
      </trkpt>
      <trkpt lat="37.368548000" lon="-5.408510000">
        <ele>98.3</ele>
        <time>2020-10-12T07:36:48Z</time>
      </trkpt>
      <trkpt lat="37.368653000" lon="-5.408456000">
        <ele>98.4</ele>
        <time>2020-10-12T07:36:51Z</time>
      </trkpt>
      <trkpt lat="37.368757000" lon="-5.408400000">
        <ele>98.5</ele>
        <time>2020-10-12T07:36:54Z</time>
      </trkpt>
      <trkpt lat="37.368864000" lon="-5.408345000">
        <ele>98.6</ele>
        <time>2020-10-12T07:36:57Z</time>
      </trkpt>
      <trkpt lat="37.368973000" lon="-5.408293000">
        <ele>98.8</ele>
        <time>2020-10-12T07:37:00Z</time>
      </trkpt>
      <trkpt lat="37.369082000" lon="-5.408238000">
        <ele>99.0</ele>
        <time>2020-10-12T07:37:03Z</time>
      </trkpt>
      <trkpt lat="37.369192000" lon="-5.408183000">
        <ele>99.0</ele>
        <time>2020-10-12T07:37:06Z</time>
      </trkpt>
      <trkpt lat="37.369267000" lon="-5.408145000">
        <ele>99.0</ele>
        <time>2020-10-12T07:37:08Z</time>
      </trkpt>
      <trkpt lat="37.369343000" lon="-5.408107000">
        <ele>98.9</ele>
        <time>2020-10-12T07:37:10Z</time>
      </trkpt>
      <trkpt lat="37.369419000" lon="-5.408066000">
        <ele>98.8</ele>
        <time>2020-10-12T07:37:12Z</time>
      </trkpt>
      <trkpt lat="37.369495000" lon="-5.408028000">
        <ele>98.7</ele>
        <time>2020-10-12T07:37:14Z</time>
      </trkpt>
      <trkpt lat="37.369606000" lon="-5.407971000">
        <ele>98.6</ele>
        <time>2020-10-12T07:37:17Z</time>
      </trkpt>
      <trkpt lat="37.369716000" lon="-5.407913000">
        <ele>98.5</ele>
        <time>2020-10-12T07:37:20Z</time>
      </trkpt>
      <trkpt lat="37.369824000" lon="-5.407848000">
        <ele>98.3</ele>
        <time>2020-10-12T07:37:23Z</time>
      </trkpt>
      <trkpt lat="37.369899000" lon="-5.407803000">
        <ele>98.0</ele>
        <time>2020-10-12T07:37:25Z</time>
      </trkpt>
      <trkpt lat="37.369971000" lon="-5.407755000">
        <ele>97.8</ele>
        <time>2020-10-12T07:37:27Z</time>
      </trkpt>
      <trkpt lat="37.370076000" lon="-5.407683000">
        <ele>97.5</ele>
        <time>2020-10-12T07:37:30Z</time>
      </trkpt>
      <trkpt lat="37.370184000" lon="-5.407614000">
        <ele>97.4</ele>
        <time>2020-10-12T07:37:33Z</time>
      </trkpt>
      <trkpt lat="37.370256000" lon="-5.407563000">
        <ele>97.1</ele>
        <time>2020-10-12T07:37:35Z</time>
      </trkpt>
      <trkpt lat="37.370362000" lon="-5.407493000">
        <ele>96.9</ele>
        <time>2020-10-12T07:37:38Z</time>
      </trkpt>
      <trkpt lat="37.370462000" lon="-5.407421000">
        <ele>96.7</ele>
        <time>2020-10-12T07:37:41Z</time>
      </trkpt>
      <trkpt lat="37.370561000" lon="-5.407343000">
        <ele>96.5</ele>
        <time>2020-10-12T07:37:44Z</time>
      </trkpt>
      <trkpt lat="37.370662000" lon="-5.407265000">
        <ele>96.4</ele>
        <time>2020-10-12T07:37:47Z</time>
      </trkpt>
      <trkpt lat="37.370754000" lon="-5.407181000">
        <ele>96.3</ele>
        <time>2020-10-12T07:37:50Z</time>
      </trkpt>
      <trkpt lat="37.370845000" lon="-5.407104000">
        <ele>96.2</ele>
        <time>2020-10-12T07:37:53Z</time>
      </trkpt>
      <trkpt lat="37.370933000" lon="-5.407024000">
        <ele>96.2</ele>
        <time>2020-10-12T07:37:56Z</time>
      </trkpt>
      <trkpt lat="37.371025000" lon="-5.406938000">
        <ele>96.1</ele>
        <time>2020-10-12T07:37:59Z</time>
      </trkpt>
      <trkpt lat="37.371119000" lon="-5.406847000">
        <ele>96.1</ele>
        <time>2020-10-12T07:38:02Z</time>
      </trkpt>
      <trkpt lat="37.371209000" lon="-5.406749000">
        <ele>96.1</ele>
        <time>2020-10-12T07:38:05Z</time>
      </trkpt>
      <trkpt lat="37.371298000" lon="-5.406653000">
        <ele>96.3</ele>
        <time>2020-10-12T07:38:08Z</time>
      </trkpt>
      <trkpt lat="37.371383000" lon="-5.406558000">
        <ele>96.5</ele>
        <time>2020-10-12T07:38:11Z</time>
      </trkpt>
      <trkpt lat="37.371468000" lon="-5.406463000">
        <ele>96.9</ele>
        <time>2020-10-12T07:38:14Z</time>
      </trkpt>
      <trkpt lat="37.371551000" lon="-5.406370000">
        <ele>97.4</ele>
        <time>2020-10-12T07:38:17Z</time>
      </trkpt>
      <trkpt lat="37.371627000" lon="-5.406281000">
        <ele>97.8</ele>
        <time>2020-10-12T07:38:20Z</time>
      </trkpt>
      <trkpt lat="37.371701000" lon="-5.406188000">
        <ele>98.2</ele>
        <time>2020-10-12T07:38:23Z</time>
      </trkpt>
      <trkpt lat="37.371767000" lon="-5.406096000">
        <ele>98.5</ele>
        <time>2020-10-12T07:38:26Z</time>
      </trkpt>
      <trkpt lat="37.371831000" lon="-5.406013000">
        <ele>98.6</ele>
        <time>2020-10-12T07:38:29Z</time>
      </trkpt>
      <trkpt lat="37.371892000" lon="-5.405926000">
        <ele>98.8</ele>
        <time>2020-10-12T07:38:32Z</time>
      </trkpt>
      <trkpt lat="37.371959000" lon="-5.405836000">
        <ele>98.9</ele>
        <time>2020-10-12T07:38:35Z</time>
      </trkpt>
      <trkpt lat="37.372021000" lon="-5.405738000">
        <ele>98.9</ele>
        <time>2020-10-12T07:38:38Z</time>
      </trkpt>
      <trkpt lat="37.372088000" lon="-5.405640000">
        <ele>98.7</ele>
        <time>2020-10-12T07:38:41Z</time>
      </trkpt>
      <trkpt lat="37.372155000" lon="-5.405539000">
        <ele>98.5</ele>
        <time>2020-10-12T07:38:44Z</time>
      </trkpt>
      <trkpt lat="37.372226000" lon="-5.405429000">
        <ele>98.1</ele>
        <time>2020-10-12T07:38:47Z</time>
      </trkpt>
      <trkpt lat="37.372298000" lon="-5.405317000">
        <ele>97.6</ele>
        <time>2020-10-12T07:38:50Z</time>
      </trkpt>
      <trkpt lat="37.372364000" lon="-5.405206000">
        <ele>97.2</ele>
        <time>2020-10-12T07:38:53Z</time>
      </trkpt>
      <trkpt lat="37.372433000" lon="-5.405100000">
        <ele>96.7</ele>
        <time>2020-10-12T07:38:56Z</time>
      </trkpt>
      <trkpt lat="37.372510000" lon="-5.404993000">
        <ele>96.5</ele>
        <time>2020-10-12T07:38:59Z</time>
      </trkpt>
      <trkpt lat="37.372588000" lon="-5.404880000">
        <ele>96.2</ele>
        <time>2020-10-12T07:39:02Z</time>
      </trkpt>
      <trkpt lat="37.372668000" lon="-5.404770000">
        <ele>95.9</ele>
        <time>2020-10-12T07:39:05Z</time>
      </trkpt>
      <trkpt lat="37.372747000" lon="-5.404659000">
        <ele>95.7</ele>
        <time>2020-10-12T07:39:08Z</time>
      </trkpt>
      <trkpt lat="37.372823000" lon="-5.404553000">
        <ele>95.7</ele>
        <time>2020-10-12T07:39:11Z</time>
      </trkpt>
      <trkpt lat="37.372898000" lon="-5.404446000">
        <ele>95.8</ele>
        <time>2020-10-12T07:39:14Z</time>
      </trkpt>
      <trkpt lat="37.372969000" lon="-5.404336000">
        <ele>95.9</ele>
        <time>2020-10-12T07:39:17Z</time>
      </trkpt>
      <trkpt lat="37.373037000" lon="-5.404231000">
        <ele>96.1</ele>
        <time>2020-10-12T07:39:20Z</time>
      </trkpt>
      <trkpt lat="37.373107000" lon="-5.404121000">
        <ele>96.3</ele>
        <time>2020-10-12T07:39:23Z</time>
      </trkpt>
      <trkpt lat="37.373176000" lon="-5.404020000">
        <ele>96.4</ele>
        <time>2020-10-12T07:39:26Z</time>
      </trkpt>
      <trkpt lat="37.373246000" lon="-5.403925000">
        <ele>96.5</ele>
        <time>2020-10-12T07:39:29Z</time>
      </trkpt>
      <trkpt lat="37.373313000" lon="-5.403826000">
        <ele>96.4</ele>
        <time>2020-10-12T07:39:32Z</time>
      </trkpt>
      <trkpt lat="37.373379000" lon="-5.403726000">
        <ele>96.3</ele>
        <time>2020-10-12T07:39:35Z</time>
      </trkpt>
      <trkpt lat="37.373449000" lon="-5.403618000">
        <ele>96.2</ele>
        <time>2020-10-12T07:39:38Z</time>
      </trkpt>
      <trkpt lat="37.373516000" lon="-5.403514000">
        <ele>96.2</ele>
        <time>2020-10-12T07:39:41Z</time>
      </trkpt>
      <trkpt lat="37.373580000" lon="-5.403419000">
        <ele>96.1</ele>
        <time>2020-10-12T07:39:44Z</time>
      </trkpt>
      <trkpt lat="37.373645000" lon="-5.403328000">
        <ele>96.0</ele>
        <time>2020-10-12T07:39:47Z</time>
      </trkpt>
      <trkpt lat="37.373711000" lon="-5.403241000">
        <ele>95.9</ele>
        <time>2020-10-12T07:39:50Z</time>
      </trkpt>
      <trkpt lat="37.373773000" lon="-5.403151000">
        <ele>95.9</ele>
        <time>2020-10-12T07:39:53Z</time>
      </trkpt>
      <trkpt lat="37.373833000" lon="-5.403063000">
        <ele>95.9</ele>
        <time>2020-10-12T07:39:56Z</time>
      </trkpt>
      <trkpt lat="37.373895000" lon="-5.402972000">
        <ele>96.0</ele>
        <time>2020-10-12T07:39:59Z</time>
      </trkpt>
      <trkpt lat="37.373961000" lon="-5.402880000">
        <ele>96.1</ele>
        <time>2020-10-12T07:40:02Z</time>
      </trkpt>
      <trkpt lat="37.374026000" lon="-5.402781000">
        <ele>96.3</ele>
        <time>2020-10-12T07:40:05Z</time>
      </trkpt>
      <trkpt lat="37.374097000" lon="-5.402688000">
        <ele>96.5</ele>
        <time>2020-10-12T07:40:08Z</time>
      </trkpt>
      <trkpt lat="37.374163000" lon="-5.402593000">
        <ele>96.6</ele>
        <time>2020-10-12T07:40:11Z</time>
      </trkpt>
      <trkpt lat="37.374232000" lon="-5.402502000">
        <ele>96.6</ele>
        <time>2020-10-12T07:40:14Z</time>
      </trkpt>
      <trkpt lat="37.374305000" lon="-5.402405000">
        <ele>96.5</ele>
        <time>2020-10-12T07:40:17Z</time>
      </trkpt>
      <trkpt lat="37.374381000" lon="-5.402309000">
        <ele>96.5</ele>
        <time>2020-10-12T07:40:20Z</time>
      </trkpt>
      <trkpt lat="37.374458000" lon="-5.402208000">
        <ele>96.3</ele>
        <time>2020-10-12T07:40:23Z</time>
      </trkpt>
      <trkpt lat="37.374540000" lon="-5.402110000">
        <ele>96.0</ele>
        <time>2020-10-12T07:40:26Z</time>
      </trkpt>
      <trkpt lat="37.374626000" lon="-5.402011000">
        <ele>95.7</ele>
        <time>2020-10-12T07:40:29Z</time>
      </trkpt>
      <trkpt lat="37.374702000" lon="-5.401917000">
        <ele>95.5</ele>
        <time>2020-10-12T07:40:32Z</time>
      </trkpt>
      <trkpt lat="37.374785000" lon="-5.401824000">
        <ele>95.4</ele>
        <time>2020-10-12T07:40:35Z</time>
      </trkpt>
      <trkpt lat="37.374871000" lon="-5.401725000">
        <ele>95.2</ele>
        <time>2020-10-12T07:40:38Z</time>
      </trkpt>
      <trkpt lat="37.374955000" lon="-5.401631000">
        <ele>95.0</ele>
        <time>2020-10-12T07:40:41Z</time>
      </trkpt>
      <trkpt lat="37.375041000" lon="-5.401538000">
        <ele>94.8</ele>
        <time>2020-10-12T07:40:44Z</time>
      </trkpt>
      <trkpt lat="37.375128000" lon="-5.401444000">
        <ele>94.7</ele>
        <time>2020-10-12T07:40:47Z</time>
      </trkpt>
      <trkpt lat="37.375191000" lon="-5.401379000">
        <ele>94.7</ele>
        <time>2020-10-12T07:40:49Z</time>
      </trkpt>
      <trkpt lat="37.375255000" lon="-5.401310000">
        <ele>94.7</ele>
        <time>2020-10-12T07:40:51Z</time>
      </trkpt>
      <trkpt lat="37.375323000" lon="-5.401244000">
        <ele>94.8</ele>
        <time>2020-10-12T07:40:53Z</time>
      </trkpt>
      <trkpt lat="37.375393000" lon="-5.401178000">
        <ele>94.9</ele>
        <time>2020-10-12T07:40:55Z</time>
      </trkpt>
      <trkpt lat="37.375465000" lon="-5.401111000">
        <ele>95.0</ele>
        <time>2020-10-12T07:40:57Z</time>
      </trkpt>
      <trkpt lat="37.375536000" lon="-5.401043000">
        <ele>95.0</ele>
        <time>2020-10-12T07:40:59Z</time>
      </trkpt>
      <trkpt lat="37.375606000" lon="-5.400978000">
        <ele>95.0</ele>
        <time>2020-10-12T07:41:01Z</time>
      </trkpt>
      <trkpt lat="37.375677000" lon="-5.400916000">
        <ele>95.0</ele>
        <time>2020-10-12T07:41:03Z</time>
      </trkpt>
      <trkpt lat="37.375749000" lon="-5.400857000">
        <ele>95.0</ele>
        <time>2020-10-12T07:41:05Z</time>
      </trkpt>
      <trkpt lat="37.375820000" lon="-5.400799000">
        <ele>95.0</ele>
        <time>2020-10-12T07:41:07Z</time>
      </trkpt>
      <trkpt lat="37.375921000" lon="-5.400717000">
        <ele>94.9</ele>
        <time>2020-10-12T07:41:10Z</time>
      </trkpt>
      <trkpt lat="37.376022000" lon="-5.400636000">
        <ele>94.8</ele>
        <time>2020-10-12T07:41:13Z</time>
      </trkpt>
      <trkpt lat="37.376089000" lon="-5.400575000">
        <ele>94.6</ele>
        <time>2020-10-12T07:41:15Z</time>
      </trkpt>
      <trkpt lat="37.376158000" lon="-5.400513000">
        <ele>94.5</ele>
        <time>2020-10-12T07:41:17Z</time>
      </trkpt>
      <trkpt lat="37.376229000" lon="-5.400452000">
        <ele>94.2</ele>
        <time>2020-10-12T07:41:19Z</time>
      </trkpt>
      <trkpt lat="37.376300000" lon="-5.400391000">
        <ele>93.8</ele>
        <time>2020-10-12T07:41:21Z</time>
      </trkpt>
      <trkpt lat="37.376372000" lon="-5.400327000">
        <ele>93.4</ele>
        <time>2020-10-12T07:41:23Z</time>
      </trkpt>
      <trkpt lat="37.376443000" lon="-5.400257000">
        <ele>92.9</ele>
        <time>2020-10-12T07:41:25Z</time>
      </trkpt>
      <trkpt lat="37.376517000" lon="-5.400194000">
        <ele>92.4</ele>
        <time>2020-10-12T07:41:27Z</time>
      </trkpt>
      <trkpt lat="37.376590000" lon="-5.400135000">
        <ele>91.8</ele>
        <time>2020-10-12T07:41:29Z</time>
      </trkpt>
      <trkpt lat="37.376662000" lon="-5.400073000">
        <ele>91.3</ele>
        <time>2020-10-12T07:41:31Z</time>
      </trkpt>
      <trkpt lat="37.376737000" lon="-5.400006000">
        <ele>90.7</ele>
        <time>2020-10-12T07:41:33Z</time>
      </trkpt>
      <trkpt lat="37.376811000" lon="-5.399944000">
        <ele>90.1</ele>
        <time>2020-10-12T07:41:35Z</time>
      </trkpt>
      <trkpt lat="37.376892000" lon="-5.399876000">
        <ele>89.6</ele>
        <time>2020-10-12T07:41:37Z</time>
      </trkpt>
      <trkpt lat="37.376971000" lon="-5.399812000">
        <ele>89.2</ele>
        <time>2020-10-12T07:41:39Z</time>
      </trkpt>
      <trkpt lat="37.377055000" lon="-5.399743000">
        <ele>88.8</ele>
        <time>2020-10-12T07:41:41Z</time>
      </trkpt>
      <trkpt lat="37.377136000" lon="-5.399676000">
        <ele>88.5</ele>
        <time>2020-10-12T07:41:43Z</time>
      </trkpt>
      <trkpt lat="37.377218000" lon="-5.399615000">
        <ele>88.3</ele>
        <time>2020-10-12T07:41:45Z</time>
      </trkpt>
      <trkpt lat="37.377295000" lon="-5.399546000">
        <ele>88.0</ele>
        <time>2020-10-12T07:41:47Z</time>
      </trkpt>
      <trkpt lat="37.377370000" lon="-5.399485000">
        <ele>87.8</ele>
        <time>2020-10-12T07:41:49Z</time>
      </trkpt>
      <trkpt lat="37.377442000" lon="-5.399423000">
        <ele>87.6</ele>
        <time>2020-10-12T07:41:51Z</time>
      </trkpt>
      <trkpt lat="37.377510000" lon="-5.399356000">
        <ele>87.4</ele>
        <time>2020-10-12T07:41:53Z</time>
      </trkpt>
      <trkpt lat="37.377580000" lon="-5.399295000">
        <ele>87.2</ele>
        <time>2020-10-12T07:41:55Z</time>
      </trkpt>
      <trkpt lat="37.377680000" lon="-5.399212000">
        <ele>87.1</ele>
        <time>2020-10-12T07:41:58Z</time>
      </trkpt>
      <trkpt lat="37.377771000" lon="-5.399150000">
        <ele>86.9</ele>
        <time>2020-10-12T07:42:01Z</time>
      </trkpt>
      <trkpt lat="37.377854000" lon="-5.399080000">
        <ele>86.7</ele>
        <time>2020-10-12T07:42:04Z</time>
      </trkpt>
      <trkpt lat="37.377940000" lon="-5.399013000">
        <ele>86.5</ele>
        <time>2020-10-12T07:42:07Z</time>
      </trkpt>
      <trkpt lat="37.378024000" lon="-5.398940000">
        <ele>86.4</ele>
        <time>2020-10-12T07:42:10Z</time>
      </trkpt>
      <trkpt lat="37.378110000" lon="-5.398865000">
        <ele>86.3</ele>
        <time>2020-10-12T07:42:13Z</time>
      </trkpt>
      <trkpt lat="37.378199000" lon="-5.398779000">
        <ele>86.2</ele>
        <time>2020-10-12T07:42:16Z</time>
      </trkpt>
      <trkpt lat="37.378290000" lon="-5.398687000">
        <ele>86.1</ele>
        <time>2020-10-12T07:42:19Z</time>
      </trkpt>
      <trkpt lat="37.378357000" lon="-5.398629000">
        <ele>86.0</ele>
        <time>2020-10-12T07:42:21Z</time>
      </trkpt>
      <trkpt lat="37.378456000" lon="-5.398545000">
        <ele>86.0</ele>
        <time>2020-10-12T07:42:24Z</time>
      </trkpt>
      <trkpt lat="37.378550000" lon="-5.398464000">
        <ele>86.0</ele>
        <time>2020-10-12T07:42:27Z</time>
      </trkpt>
      <trkpt lat="37.378646000" lon="-5.398386000">
        <ele>86.0</ele>
        <time>2020-10-12T07:42:30Z</time>
      </trkpt>
      <trkpt lat="37.378714000" lon="-5.398331000">
        <ele>86.1</ele>
        <time>2020-10-12T07:42:32Z</time>
      </trkpt>
      <trkpt lat="37.378781000" lon="-5.398265000">
        <ele>86.2</ele>
        <time>2020-10-12T07:42:34Z</time>
      </trkpt>
      <trkpt lat="37.378851000" lon="-5.398202000">
        <ele>86.3</ele>
        <time>2020-10-12T07:42:36Z</time>
      </trkpt>
      <trkpt lat="37.378923000" lon="-5.398147000">
        <ele>86.4</ele>
        <time>2020-10-12T07:42:38Z</time>
      </trkpt>
      <trkpt lat="37.378991000" lon="-5.398088000">
        <ele>86.5</ele>
        <time>2020-10-12T07:42:40Z</time>
      </trkpt>
      <trkpt lat="37.379059000" lon="-5.398027000">
        <ele>86.7</ele>
        <time>2020-10-12T07:42:42Z</time>
      </trkpt>
      <trkpt lat="37.379136000" lon="-5.397966000">
        <ele>86.9</ele>
        <time>2020-10-12T07:42:44Z</time>
      </trkpt>
      <trkpt lat="37.379213000" lon="-5.397894000">
        <ele>87.1</ele>
        <time>2020-10-12T07:42:46Z</time>
      </trkpt>
      <trkpt lat="37.379283000" lon="-5.397830000">
        <ele>87.4</ele>
        <time>2020-10-12T07:42:48Z</time>
      </trkpt>
      <trkpt lat="37.379363000" lon="-5.397763000">
        <ele>87.5</ele>
        <time>2020-10-12T07:42:50Z</time>
      </trkpt>
      <trkpt lat="37.379435000" lon="-5.397704000">
        <ele>87.7</ele>
        <time>2020-10-12T07:42:52Z</time>
      </trkpt>
      <trkpt lat="37.379504000" lon="-5.397644000">
        <ele>87.7</ele>
        <time>2020-10-12T07:42:54Z</time>
      </trkpt>
      <trkpt lat="37.379571000" lon="-5.397586000">
        <ele>87.7</ele>
        <time>2020-10-12T07:42:56Z</time>
      </trkpt>
      <trkpt lat="37.379653000" lon="-5.397506000">
        <ele>87.7</ele>
        <time>2020-10-12T07:42:59Z</time>
      </trkpt>
      <trkpt lat="37.379737000" lon="-5.397430000">
        <ele>87.8</ele>
        <time>2020-10-12T07:43:02Z</time>
      </trkpt>
      <trkpt lat="37.379822000" lon="-5.397350000">
        <ele>87.8</ele>
        <time>2020-10-12T07:43:05Z</time>
      </trkpt>
      <trkpt lat="37.379919000" lon="-5.397273000">
        <ele>87.8</ele>
        <time>2020-10-12T07:43:08Z</time>
      </trkpt>
      <trkpt lat="37.380014000" lon="-5.397189000">
        <ele>87.8</ele>
        <time>2020-10-12T07:43:11Z</time>
      </trkpt>
      <trkpt lat="37.380113000" lon="-5.397109000">
        <ele>87.9</ele>
        <time>2020-10-12T07:43:14Z</time>
      </trkpt>
      <trkpt lat="37.380210000" lon="-5.397029000">
        <ele>87.9</ele>
        <time>2020-10-12T07:43:17Z</time>
      </trkpt>
      <trkpt lat="37.380299000" lon="-5.396957000">
        <ele>88.0</ele>
        <time>2020-10-12T07:43:20Z</time>
      </trkpt>
      <trkpt lat="37.380385000" lon="-5.396887000">
        <ele>88.1</ele>
        <time>2020-10-12T07:43:23Z</time>
      </trkpt>
      <trkpt lat="37.380475000" lon="-5.396811000">
        <ele>88.3</ele>
        <time>2020-10-12T07:43:26Z</time>
      </trkpt>
      <trkpt lat="37.380564000" lon="-5.396729000">
        <ele>88.5</ele>
        <time>2020-10-12T07:43:29Z</time>
      </trkpt>
      <trkpt lat="37.380648000" lon="-5.396652000">
        <ele>88.6</ele>
        <time>2020-10-12T07:43:32Z</time>
      </trkpt>
      <trkpt lat="37.380733000" lon="-5.396578000">
        <ele>88.6</ele>
        <time>2020-10-12T07:43:35Z</time>
      </trkpt>
      <trkpt lat="37.380817000" lon="-5.396502000">
        <ele>88.6</ele>
        <time>2020-10-12T07:43:38Z</time>
      </trkpt>
      <trkpt lat="37.380902000" lon="-5.396429000">
        <ele>88.6</ele>
        <time>2020-10-12T07:43:41Z</time>
      </trkpt>
      <trkpt lat="37.380985000" lon="-5.396359000">
        <ele>88.6</ele>
        <time>2020-10-12T07:43:44Z</time>
      </trkpt>
      <trkpt lat="37.381071000" lon="-5.396290000">
        <ele>88.5</ele>
        <time>2020-10-12T07:43:47Z</time>
      </trkpt>
      <trkpt lat="37.381154000" lon="-5.396212000">
        <ele>88.5</ele>
        <time>2020-10-12T07:43:50Z</time>
      </trkpt>
      <trkpt lat="37.381239000" lon="-5.396141000">
        <ele>88.4</ele>
        <time>2020-10-12T07:43:53Z</time>
      </trkpt>
      <trkpt lat="37.381320000" lon="-5.396068000">
        <ele>88.3</ele>
        <time>2020-10-12T07:43:56Z</time>
      </trkpt>
      <trkpt lat="37.381401000" lon="-5.395994000">
        <ele>88.2</ele>
        <time>2020-10-12T07:43:59Z</time>
      </trkpt>
      <trkpt lat="37.381485000" lon="-5.395925000">
        <ele>88.1</ele>
        <time>2020-10-12T07:44:02Z</time>
      </trkpt>
      <trkpt lat="37.381573000" lon="-5.395855000">
        <ele>88.0</ele>
        <time>2020-10-12T07:44:05Z</time>
      </trkpt>
      <trkpt lat="37.381656000" lon="-5.395787000">
        <ele>88.0</ele>
        <time>2020-10-12T07:44:08Z</time>
      </trkpt>
      <trkpt lat="37.381736000" lon="-5.395718000">
        <ele>88.0</ele>
        <time>2020-10-12T07:44:11Z</time>
      </trkpt>
      <trkpt lat="37.381812000" lon="-5.395646000">
        <ele>87.9</ele>
        <time>2020-10-12T07:44:14Z</time>
      </trkpt>
      <trkpt lat="37.381888000" lon="-5.395577000">
        <ele>87.8</ele>
        <time>2020-10-12T07:44:17Z</time>
      </trkpt>
      <trkpt lat="37.381970000" lon="-5.395508000">
        <ele>87.7</ele>
        <time>2020-10-12T07:44:20Z</time>
      </trkpt>
      <trkpt lat="37.382050000" lon="-5.395439000">
        <ele>87.7</ele>
        <time>2020-10-12T07:44:23Z</time>
      </trkpt>
      <trkpt lat="37.382136000" lon="-5.395365000">
        <ele>87.8</ele>
        <time>2020-10-12T07:44:26Z</time>
      </trkpt>
      <trkpt lat="37.382230000" lon="-5.395287000">
        <ele>87.9</ele>
        <time>2020-10-12T07:44:29Z</time>
      </trkpt>
      <trkpt lat="37.382325000" lon="-5.395206000">
        <ele>88.1</ele>
        <time>2020-10-12T07:44:32Z</time>
      </trkpt>
      <trkpt lat="37.382418000" lon="-5.395130000">
        <ele>88.3</ele>
        <time>2020-10-12T07:44:35Z</time>
      </trkpt>
      <trkpt lat="37.382510000" lon="-5.395052000">
        <ele>88.4</ele>
        <time>2020-10-12T07:44:38Z</time>
      </trkpt>
      <trkpt lat="37.382599000" lon="-5.394976000">
        <ele>88.4</ele>
        <time>2020-10-12T07:44:41Z</time>
      </trkpt>
      <trkpt lat="37.382688000" lon="-5.394900000">
        <ele>88.3</ele>
        <time>2020-10-12T07:44:44Z</time>
      </trkpt>
      <trkpt lat="37.382776000" lon="-5.394822000">
        <ele>88.3</ele>
        <time>2020-10-12T07:44:47Z</time>
      </trkpt>
      <trkpt lat="37.382865000" lon="-5.394750000">
        <ele>88.2</ele>
        <time>2020-10-12T07:44:50Z</time>
      </trkpt>
      <trkpt lat="37.382945000" lon="-5.394680000">
        <ele>88.1</ele>
        <time>2020-10-12T07:44:53Z</time>
      </trkpt>
      <trkpt lat="37.383024000" lon="-5.394615000">
        <ele>88.0</ele>
        <time>2020-10-12T07:44:56Z</time>
      </trkpt>
      <trkpt lat="37.383109000" lon="-5.394548000">
        <ele>87.8</ele>
        <time>2020-10-12T07:44:59Z</time>
      </trkpt>
      <trkpt lat="37.383193000" lon="-5.394478000">
        <ele>87.6</ele>
        <time>2020-10-12T07:45:02Z</time>
      </trkpt>
      <trkpt lat="37.383267000" lon="-5.394413000">
        <ele>87.5</ele>
        <time>2020-10-12T07:45:05Z</time>
      </trkpt>
      <trkpt lat="37.383337000" lon="-5.394356000">
        <ele>87.4</ele>
        <time>2020-10-12T07:45:08Z</time>
      </trkpt>
      <trkpt lat="37.383412000" lon="-5.394291000">
        <ele>87.5</ele>
        <time>2020-10-12T07:45:11Z</time>
      </trkpt>
      <trkpt lat="37.383495000" lon="-5.394228000">
        <ele>87.6</ele>
        <time>2020-10-12T07:45:14Z</time>
      </trkpt>
      <trkpt lat="37.383585000" lon="-5.394152000">
        <ele>87.8</ele>
        <time>2020-10-12T07:45:17Z</time>
      </trkpt>
      <trkpt lat="37.383681000" lon="-5.394068000">
        <ele>88.0</ele>
        <time>2020-10-12T07:45:20Z</time>
      </trkpt>
      <trkpt lat="37.383773000" lon="-5.393991000">
        <ele>88.3</ele>
        <time>2020-10-12T07:45:23Z</time>
      </trkpt>
      <trkpt lat="37.383862000" lon="-5.393913000">
        <ele>88.5</ele>
        <time>2020-10-12T07:45:26Z</time>
      </trkpt>
      <trkpt lat="37.383959000" lon="-5.393836000">
        <ele>88.7</ele>
        <time>2020-10-12T07:45:29Z</time>
      </trkpt>
      <trkpt lat="37.384051000" lon="-5.393759000">
        <ele>88.9</ele>
        <time>2020-10-12T07:45:32Z</time>
      </trkpt>
      <trkpt lat="37.384147000" lon="-5.393678000">
        <ele>89.2</ele>
        <time>2020-10-12T07:45:35Z</time>
      </trkpt>
      <trkpt lat="37.384238000" lon="-5.393590000">
        <ele>89.4</ele>
        <time>2020-10-12T07:45:38Z</time>
      </trkpt>
      <trkpt lat="37.384334000" lon="-5.393507000">
        <ele>89.5</ele>
        <time>2020-10-12T07:45:41Z</time>
      </trkpt>
      <trkpt lat="37.384427000" lon="-5.393433000">
        <ele>89.5</ele>
        <time>2020-10-12T07:45:44Z</time>
      </trkpt>
      <trkpt lat="37.384516000" lon="-5.393360000">
        <ele>89.4</ele>
        <time>2020-10-12T07:45:47Z</time>
      </trkpt>
      <trkpt lat="37.384609000" lon="-5.393283000">
        <ele>89.4</ele>
        <time>2020-10-12T07:45:50Z</time>
      </trkpt>
      <trkpt lat="37.384707000" lon="-5.393204000">
        <ele>89.3</ele>
        <time>2020-10-12T07:45:53Z</time>
      </trkpt>
      <trkpt lat="37.384803000" lon="-5.393127000">
        <ele>89.2</ele>
        <time>2020-10-12T07:45:56Z</time>
      </trkpt>
      <trkpt lat="37.384903000" lon="-5.393053000">
        <ele>89.2</ele>
        <time>2020-10-12T07:45:59Z</time>
      </trkpt>
      <trkpt lat="37.384998000" lon="-5.392984000">
        <ele>89.2</ele>
        <time>2020-10-12T07:46:02Z</time>
      </trkpt>
      <trkpt lat="37.385090000" lon="-5.392906000">
        <ele>89.3</ele>
        <time>2020-10-12T07:46:05Z</time>
      </trkpt>
      <trkpt lat="37.385194000" lon="-5.392831000">
        <ele>89.3</ele>
        <time>2020-10-12T07:46:08Z</time>
      </trkpt>
      <trkpt lat="37.385297000" lon="-5.392754000">
        <ele>89.4</ele>
        <time>2020-10-12T07:46:11Z</time>
      </trkpt>
      <trkpt lat="37.385369000" lon="-5.392705000">
        <ele>89.5</ele>
        <time>2020-10-12T07:46:13Z</time>
      </trkpt>
      <trkpt lat="37.385442000" lon="-5.392653000">
        <ele>89.5</ele>
        <time>2020-10-12T07:46:15Z</time>
      </trkpt>
      <trkpt lat="37.385514000" lon="-5.392600000">
        <ele>89.7</ele>
        <time>2020-10-12T07:46:17Z</time>
      </trkpt>
      <trkpt lat="37.385618000" lon="-5.392527000">
        <ele>89.8</ele>
        <time>2020-10-12T07:46:20Z</time>
      </trkpt>
      <trkpt lat="37.385721000" lon="-5.392457000">
        <ele>90.0</ele>
        <time>2020-10-12T07:46:23Z</time>
      </trkpt>
      <trkpt lat="37.385828000" lon="-5.392385000">
        <ele>90.2</ele>
        <time>2020-10-12T07:46:26Z</time>
      </trkpt>
      <trkpt lat="37.385934000" lon="-5.392309000">
        <ele>90.3</ele>
        <time>2020-10-12T07:46:29Z</time>
      </trkpt>
      <trkpt lat="37.386038000" lon="-5.392235000">
        <ele>90.4</ele>
        <time>2020-10-12T07:46:32Z</time>
      </trkpt>
      <trkpt lat="37.386140000" lon="-5.392165000">
        <ele>90.5</ele>
        <time>2020-10-12T07:46:35Z</time>
      </trkpt>
      <trkpt lat="37.386235000" lon="-5.392088000">
        <ele>90.5</ele>
        <time>2020-10-12T07:46:38Z</time>
      </trkpt>
      <trkpt lat="37.386330000" lon="-5.392014000">
        <ele>90.6</ele>
        <time>2020-10-12T07:46:41Z</time>
      </trkpt>
      <trkpt lat="37.386433000" lon="-5.391941000">
        <ele>90.8</ele>
        <time>2020-10-12T07:46:44Z</time>
      </trkpt>
      <trkpt lat="37.386520000" lon="-5.391881000">
        <ele>91.0</ele>
        <time>2020-10-12T07:46:47Z</time>
      </trkpt>
      <trkpt lat="37.386593000" lon="-5.391829000">
        <ele>91.2</ele>
        <time>2020-10-12T07:46:50Z</time>
      </trkpt>
      <trkpt lat="37.386673000" lon="-5.391775000">
        <ele>91.5</ele>
        <time>2020-10-12T07:46:53Z</time>
      </trkpt>
      <trkpt lat="37.386752000" lon="-5.391719000">
        <ele>91.7</ele>
        <time>2020-10-12T07:46:56Z</time>
      </trkpt>
      <trkpt lat="37.386824000" lon="-5.391664000">
        <ele>92.0</ele>
        <time>2020-10-12T07:46:59Z</time>
      </trkpt>
      <trkpt lat="37.386897000" lon="-5.391608000">
        <ele>92.3</ele>
        <time>2020-10-12T07:47:02Z</time>
      </trkpt>
      <trkpt lat="37.386967000" lon="-5.391551000">
        <ele>92.5</ele>
        <time>2020-10-12T07:47:05Z</time>
      </trkpt>
      <trkpt lat="37.387044000" lon="-5.391499000">
        <ele>92.5</ele>
        <time>2020-10-12T07:47:08Z</time>
      </trkpt>
      <trkpt lat="37.387120000" lon="-5.391450000">
        <ele>92.5</ele>
        <time>2020-10-12T07:47:11Z</time>
      </trkpt>
      <trkpt lat="37.387192000" lon="-5.391391000">
        <ele>92.4</ele>
        <time>2020-10-12T07:47:14Z</time>
      </trkpt>
      <trkpt lat="37.387265000" lon="-5.391333000">
        <ele>92.1</ele>
        <time>2020-10-12T07:47:17Z</time>
      </trkpt>
      <trkpt lat="37.387339000" lon="-5.391283000">
        <ele>91.8</ele>
        <time>2020-10-12T07:47:20Z</time>
      </trkpt>
      <trkpt lat="37.387433000" lon="-5.391220000">
        <ele>91.5</ele>
        <time>2020-10-12T07:47:24Z</time>
      </trkpt>
      <trkpt lat="37.387514000" lon="-5.391163000">
        <ele>91.3</ele>
        <time>2020-10-12T07:47:27Z</time>
      </trkpt>
      <trkpt lat="37.387593000" lon="-5.391101000">
        <ele>91.0</ele>
        <time>2020-10-12T07:47:30Z</time>
      </trkpt>
      <trkpt lat="37.387680000" lon="-5.391042000">
        <ele>90.8</ele>
        <time>2020-10-12T07:47:33Z</time>
      </trkpt>
      <trkpt lat="37.387769000" lon="-5.390975000">
        <ele>90.6</ele>
        <time>2020-10-12T07:47:36Z</time>
      </trkpt>
      <trkpt lat="37.387864000" lon="-5.390908000">
        <ele>90.6</ele>
        <time>2020-10-12T07:47:39Z</time>
      </trkpt>
      <trkpt lat="37.387955000" lon="-5.390847000">
        <ele>90.7</ele>
        <time>2020-10-12T07:47:42Z</time>
      </trkpt>
      <trkpt lat="37.388045000" lon="-5.390781000">
        <ele>90.8</ele>
        <time>2020-10-12T07:47:45Z</time>
      </trkpt>
      <trkpt lat="37.388133000" lon="-5.390717000">
        <ele>90.8</ele>
        <time>2020-10-12T07:47:48Z</time>
      </trkpt>
      <trkpt lat="37.388211000" lon="-5.390664000">
        <ele>90.9</ele>
        <time>2020-10-12T07:47:51Z</time>
      </trkpt>
      <trkpt lat="37.388294000" lon="-5.390609000">
        <ele>90.9</ele>
        <time>2020-10-12T07:47:54Z</time>
      </trkpt>
      <trkpt lat="37.388371000" lon="-5.390546000">
        <ele>90.8</ele>
        <time>2020-10-12T07:47:57Z</time>
      </trkpt>
      <trkpt lat="37.388456000" lon="-5.390498000">
        <ele>90.7</ele>
        <time>2020-10-12T07:48:00Z</time>
      </trkpt>
      <trkpt lat="37.388548000" lon="-5.390432000">
        <ele>90.6</ele>
        <time>2020-10-12T07:48:03Z</time>
      </trkpt>
      <trkpt lat="37.388641000" lon="-5.390368000">
        <ele>90.5</ele>
        <time>2020-10-12T07:48:06Z</time>
      </trkpt>
      <trkpt lat="37.388731000" lon="-5.390302000">
        <ele>90.3</ele>
        <time>2020-10-12T07:48:09Z</time>
      </trkpt>
      <trkpt lat="37.388823000" lon="-5.390232000">
        <ele>90.0</ele>
        <time>2020-10-12T07:48:12Z</time>
      </trkpt>
      <trkpt lat="37.388915000" lon="-5.390173000">
        <ele>89.8</ele>
        <time>2020-10-12T07:48:15Z</time>
      </trkpt>
      <trkpt lat="37.389003000" lon="-5.390109000">
        <ele>89.6</ele>
        <time>2020-10-12T07:48:18Z</time>
      </trkpt>
      <trkpt lat="37.389089000" lon="-5.390056000">
        <ele>89.6</ele>
        <time>2020-10-12T07:48:21Z</time>
      </trkpt>
      <trkpt lat="37.389168000" lon="-5.389994000">
        <ele>89.6</ele>
        <time>2020-10-12T07:48:24Z</time>
      </trkpt>
      <trkpt lat="37.389251000" lon="-5.389934000">
        <ele>89.8</ele>
        <time>2020-10-12T07:48:27Z</time>
      </trkpt>
      <trkpt lat="37.389335000" lon="-5.389881000">
        <ele>90.1</ele>
        <time>2020-10-12T07:48:30Z</time>
      </trkpt>
      <trkpt lat="37.389412000" lon="-5.389826000">
        <ele>90.4</ele>
        <time>2020-10-12T07:48:33Z</time>
      </trkpt>
      <trkpt lat="37.389487000" lon="-5.389772000">
        <ele>90.6</ele>
        <time>2020-10-12T07:48:36Z</time>
      </trkpt>
      <trkpt lat="37.389560000" lon="-5.389711000">
        <ele>90.9</ele>
        <time>2020-10-12T07:48:39Z</time>
      </trkpt>
      <trkpt lat="37.389642000" lon="-5.389651000">
        <ele>91.1</ele>
        <time>2020-10-12T07:48:42Z</time>
      </trkpt>
      <trkpt lat="37.389727000" lon="-5.389586000">
        <ele>91.3</ele>
        <time>2020-10-12T07:48:45Z</time>
      </trkpt>
      <trkpt lat="37.389810000" lon="-5.389521000">
        <ele>91.3</ele>
        <time>2020-10-12T07:48:48Z</time>
      </trkpt>
      <trkpt lat="37.389894000" lon="-5.389459000">
        <ele>91.4</ele>
        <time>2020-10-12T07:48:51Z</time>
      </trkpt>
      <trkpt lat="37.389984000" lon="-5.389397000">
        <ele>91.4</ele>
        <time>2020-10-12T07:48:54Z</time>
      </trkpt>
      <trkpt lat="37.390070000" lon="-5.389333000">
        <ele>91.5</ele>
        <time>2020-10-12T07:48:57Z</time>
      </trkpt>
      <trkpt lat="37.390156000" lon="-5.389269000">
        <ele>91.5</ele>
        <time>2020-10-12T07:49:00Z</time>
      </trkpt>
      <trkpt lat="37.390248000" lon="-5.389210000">
        <ele>91.6</ele>
        <time>2020-10-12T07:49:03Z</time>
      </trkpt>
      <trkpt lat="37.390346000" lon="-5.389148000">
        <ele>91.7</ele>
        <time>2020-10-12T07:49:06Z</time>
      </trkpt>
      <trkpt lat="37.390448000" lon="-5.389099000">
        <ele>91.8</ele>
        <time>2020-10-12T07:49:09Z</time>
      </trkpt>
      <trkpt lat="37.390547000" lon="-5.389034000">
        <ele>91.8</ele>
        <time>2020-10-12T07:49:12Z</time>
      </trkpt>
      <trkpt lat="37.390640000" lon="-5.388960000">
        <ele>91.9</ele>
        <time>2020-10-12T07:49:15Z</time>
      </trkpt>
      <trkpt lat="37.390736000" lon="-5.388890000">
        <ele>91.9</ele>
        <time>2020-10-12T07:49:18Z</time>
      </trkpt>
      <trkpt lat="37.390835000" lon="-5.388825000">
        <ele>92.0</ele>
        <time>2020-10-12T07:49:21Z</time>
      </trkpt>
      <trkpt lat="37.390933000" lon="-5.388759000">
        <ele>91.9</ele>
        <time>2020-10-12T07:49:24Z</time>
      </trkpt>
      <trkpt lat="37.391035000" lon="-5.388701000">
        <ele>91.7</ele>
        <time>2020-10-12T07:49:27Z</time>
      </trkpt>
      <trkpt lat="37.391137000" lon="-5.388648000">
        <ele>91.5</ele>
        <time>2020-10-12T07:49:30Z</time>
      </trkpt>
      <trkpt lat="37.391239000" lon="-5.388592000">
        <ele>91.0</ele>
        <time>2020-10-12T07:49:33Z</time>
      </trkpt>
      <trkpt lat="37.391339000" lon="-5.388534000">
        <ele>90.5</ele>
        <time>2020-10-12T07:49:36Z</time>
      </trkpt>
      <trkpt lat="37.391445000" lon="-5.388488000">
        <ele>90.1</ele>
        <time>2020-10-12T07:49:39Z</time>
      </trkpt>
      <trkpt lat="37.391549000" lon="-5.388449000">
        <ele>89.5</ele>
        <time>2020-10-12T07:49:42Z</time>
      </trkpt>
      <trkpt lat="37.391650000" lon="-5.388409000">
        <ele>89.1</ele>
        <time>2020-10-12T07:49:45Z</time>
      </trkpt>
      <trkpt lat="37.391753000" lon="-5.388372000">
        <ele>88.6</ele>
        <time>2020-10-12T07:49:48Z</time>
      </trkpt>
      <trkpt lat="37.391857000" lon="-5.388328000">
        <ele>88.3</ele>
        <time>2020-10-12T07:49:51Z</time>
      </trkpt>
      <trkpt lat="37.391960000" lon="-5.388288000">
        <ele>87.9</ele>
        <time>2020-10-12T07:49:54Z</time>
      </trkpt>
      <trkpt lat="37.392068000" lon="-5.388255000">
        <ele>87.6</ele>
        <time>2020-10-12T07:49:57Z</time>
      </trkpt>
      <trkpt lat="37.392177000" lon="-5.388212000">
        <ele>87.4</ele>
        <time>2020-10-12T07:50:00Z</time>
      </trkpt>
      <trkpt lat="37.392280000" lon="-5.388172000">
        <ele>87.1</ele>
        <time>2020-10-12T07:50:03Z</time>
      </trkpt>
      <trkpt lat="37.392379000" lon="-5.388134000">
        <ele>86.9</ele>
        <time>2020-10-12T07:50:06Z</time>
      </trkpt>
      <trkpt lat="37.392471000" lon="-5.388096000">
        <ele>86.7</ele>
        <time>2020-10-12T07:50:09Z</time>
      </trkpt>
      <trkpt lat="37.392567000" lon="-5.388062000">
        <ele>86.5</ele>
        <time>2020-10-12T07:50:12Z</time>
      </trkpt>
      <trkpt lat="37.392673000" lon="-5.388034000">
        <ele>86.5</ele>
        <time>2020-10-12T07:50:15Z</time>
      </trkpt>
      <trkpt lat="37.392784000" lon="-5.387993000">
        <ele>86.5</ele>
        <time>2020-10-12T07:50:18Z</time>
      </trkpt>
      <trkpt lat="37.392892000" lon="-5.387951000">
        <ele>86.5</ele>
        <time>2020-10-12T07:50:21Z</time>
      </trkpt>
      <trkpt lat="37.392995000" lon="-5.387913000">
        <ele>86.5</ele>
        <time>2020-10-12T07:50:24Z</time>
      </trkpt>
      <trkpt lat="37.393089000" lon="-5.387881000">
        <ele>86.5</ele>
        <time>2020-10-12T07:50:27Z</time>
      </trkpt>
      <trkpt lat="37.393181000" lon="-5.387846000">
        <ele>86.5</ele>
        <time>2020-10-12T07:50:30Z</time>
      </trkpt>
      <trkpt lat="37.393282000" lon="-5.387804000">
        <ele>86.5</ele>
        <time>2020-10-12T07:50:33Z</time>
      </trkpt>
      <trkpt lat="37.393396000" lon="-5.387760000">
        <ele>86.6</ele>
        <time>2020-10-12T07:50:36Z</time>
      </trkpt>
      <trkpt lat="37.393474000" lon="-5.387730000">
        <ele>86.7</ele>
        <time>2020-10-12T07:50:38Z</time>
      </trkpt>
      <trkpt lat="37.393554000" lon="-5.387698000">
        <ele>86.8</ele>
        <time>2020-10-12T07:50:40Z</time>
      </trkpt>
      <trkpt lat="37.393634000" lon="-5.387664000">
        <ele>86.8</ele>
        <time>2020-10-12T07:50:42Z</time>
      </trkpt>
      <trkpt lat="37.393713000" lon="-5.387629000">
        <ele>86.8</ele>
        <time>2020-10-12T07:50:44Z</time>
      </trkpt>
      <trkpt lat="37.393791000" lon="-5.387602000">
        <ele>86.7</ele>
        <time>2020-10-12T07:50:46Z</time>
      </trkpt>
      <trkpt lat="37.393903000" lon="-5.387551000">
        <ele>86.5</ele>
        <time>2020-10-12T07:50:49Z</time>
      </trkpt>
      <trkpt lat="37.394007000" lon="-5.387506000">
        <ele>86.4</ele>
        <time>2020-10-12T07:50:52Z</time>
      </trkpt>
      <trkpt lat="37.394107000" lon="-5.387471000">
        <ele>86.3</ele>
        <time>2020-10-12T07:50:55Z</time>
      </trkpt>
      <trkpt lat="37.394200000" lon="-5.387433000">
        <ele>86.3</ele>
        <time>2020-10-12T07:50:58Z</time>
      </trkpt>
      <trkpt lat="37.394300000" lon="-5.387401000">
        <ele>86.3</ele>
        <time>2020-10-12T07:51:01Z</time>
      </trkpt>
      <trkpt lat="37.394402000" lon="-5.387363000">
        <ele>86.4</ele>
        <time>2020-10-12T07:51:04Z</time>
      </trkpt>
      <trkpt lat="37.394500000" lon="-5.387327000">
        <ele>86.5</ele>
        <time>2020-10-12T07:51:07Z</time>
      </trkpt>
      <trkpt lat="37.394593000" lon="-5.387288000">
        <ele>86.7</ele>
        <time>2020-10-12T07:51:10Z</time>
      </trkpt>
      <trkpt lat="37.394686000" lon="-5.387254000">
        <ele>87.0</ele>
        <time>2020-10-12T07:51:13Z</time>
      </trkpt>
      <trkpt lat="37.394776000" lon="-5.387229000">
        <ele>87.4</ele>
        <time>2020-10-12T07:51:16Z</time>
      </trkpt>
      <trkpt lat="37.394864000" lon="-5.387204000">
        <ele>87.7</ele>
        <time>2020-10-12T07:51:19Z</time>
      </trkpt>
      <trkpt lat="37.394953000" lon="-5.387170000">
        <ele>88.2</ele>
        <time>2020-10-12T07:51:22Z</time>
      </trkpt>
      <trkpt lat="37.395040000" lon="-5.387134000">
        <ele>88.7</ele>
        <time>2020-10-12T07:51:25Z</time>
      </trkpt>
      <trkpt lat="37.395125000" lon="-5.387097000">
        <ele>89.2</ele>
        <time>2020-10-12T07:51:28Z</time>
      </trkpt>
      <trkpt lat="37.395214000" lon="-5.387066000">
        <ele>89.5</ele>
        <time>2020-10-12T07:51:31Z</time>
      </trkpt>
      <trkpt lat="37.395303000" lon="-5.387031000">
        <ele>89.6</ele>
        <time>2020-10-12T07:51:34Z</time>
      </trkpt>
      <trkpt lat="37.395388000" lon="-5.386996000">
        <ele>89.7</ele>
        <time>2020-10-12T07:51:37Z</time>
      </trkpt>
      <trkpt lat="37.395468000" lon="-5.386956000">
        <ele>89.6</ele>
        <time>2020-10-12T07:51:40Z</time>
      </trkpt>
      <trkpt lat="37.395555000" lon="-5.386925000">
        <ele>89.5</ele>
        <time>2020-10-12T07:51:43Z</time>
      </trkpt>
      <trkpt lat="37.395648000" lon="-5.386891000">
        <ele>89.5</ele>
        <time>2020-10-12T07:51:46Z</time>
      </trkpt>
      <trkpt lat="37.395740000" lon="-5.386856000">
        <ele>89.3</ele>
        <time>2020-10-12T07:51:49Z</time>
      </trkpt>
      <trkpt lat="37.395831000" lon="-5.386823000">
        <ele>89.2</ele>
        <time>2020-10-12T07:51:52Z</time>
      </trkpt>
      <trkpt lat="37.395924000" lon="-5.386790000">
        <ele>89.1</ele>
        <time>2020-10-12T07:51:55Z</time>
      </trkpt>
      <trkpt lat="37.396016000" lon="-5.386751000">
        <ele>88.8</ele>
        <time>2020-10-12T07:51:58Z</time>
      </trkpt>
      <trkpt lat="37.396112000" lon="-5.386723000">
        <ele>88.5</ele>
        <time>2020-10-12T07:52:01Z</time>
      </trkpt>
      <trkpt lat="37.396205000" lon="-5.386700000">
        <ele>88.3</ele>
        <time>2020-10-12T07:52:04Z</time>
      </trkpt>
      <trkpt lat="37.396294000" lon="-5.386671000">
        <ele>88.1</ele>
        <time>2020-10-12T07:52:07Z</time>
      </trkpt>
      <trkpt lat="37.396379000" lon="-5.386639000">
        <ele>87.8</ele>
        <time>2020-10-12T07:52:10Z</time>
      </trkpt>
      <trkpt lat="37.396458000" lon="-5.386595000">
        <ele>87.6</ele>
        <time>2020-10-12T07:52:13Z</time>
      </trkpt>
      <trkpt lat="37.396543000" lon="-5.386560000">
        <ele>87.5</ele>
        <time>2020-10-12T07:52:16Z</time>
      </trkpt>
      <trkpt lat="37.396630000" lon="-5.386524000">
        <ele>87.3</ele>
        <time>2020-10-12T07:52:19Z</time>
      </trkpt>
      <trkpt lat="37.396712000" lon="-5.386490000">
        <ele>87.2</ele>
        <time>2020-10-12T07:52:22Z</time>
      </trkpt>
      <trkpt lat="37.396793000" lon="-5.386460000">
        <ele>87.0</ele>
        <time>2020-10-12T07:52:25Z</time>
      </trkpt>
      <trkpt lat="37.396899000" lon="-5.386430000">
        <ele>86.8</ele>
        <time>2020-10-12T07:52:29Z</time>
      </trkpt>
      <trkpt lat="37.396983000" lon="-5.386401000">
        <ele>86.6</ele>
        <time>2020-10-12T07:52:32Z</time>
      </trkpt>
      <trkpt lat="37.397061000" lon="-5.386368000">
        <ele>86.5</ele>
        <time>2020-10-12T07:52:35Z</time>
      </trkpt>
      <trkpt lat="37.397158000" lon="-5.386331000">
        <ele>86.5</ele>
        <time>2020-10-12T07:52:39Z</time>
      </trkpt>
      <trkpt lat="37.397261000" lon="-5.386293000">
        <ele>86.5</ele>
        <time>2020-10-12T07:52:43Z</time>
      </trkpt>
      <trkpt lat="37.397339000" lon="-5.386261000">
        <ele>86.6</ele>
        <time>2020-10-12T07:52:46Z</time>
      </trkpt>
      <trkpt lat="37.397424000" lon="-5.386232000">
        <ele>86.9</ele>
        <time>2020-10-12T07:52:49Z</time>
      </trkpt>
      <trkpt lat="37.397510000" lon="-5.386200000">
        <ele>87.2</ele>
        <time>2020-10-12T07:52:52Z</time>
      </trkpt>
      <trkpt lat="37.397598000" lon="-5.386168000">
        <ele>87.5</ele>
        <time>2020-10-12T07:52:55Z</time>
      </trkpt>
      <trkpt lat="37.397686000" lon="-5.386131000">
        <ele>87.8</ele>
        <time>2020-10-12T07:52:58Z</time>
      </trkpt>
      <trkpt lat="37.397772000" lon="-5.386088000">
        <ele>88.1</ele>
        <time>2020-10-12T07:53:01Z</time>
      </trkpt>
      <trkpt lat="37.397860000" lon="-5.386054000">
        <ele>88.4</ele>
        <time>2020-10-12T07:53:04Z</time>
      </trkpt>
      <trkpt lat="37.397946000" lon="-5.386020000">
        <ele>88.7</ele>
        <time>2020-10-12T07:53:07Z</time>
      </trkpt>
      <trkpt lat="37.398033000" lon="-5.385986000">
        <ele>89.1</ele>
        <time>2020-10-12T07:53:10Z</time>
      </trkpt>
      <trkpt lat="37.398121000" lon="-5.385957000">
        <ele>89.4</ele>
        <time>2020-10-12T07:53:13Z</time>
      </trkpt>
      <trkpt lat="37.398213000" lon="-5.385925000">
        <ele>89.6</ele>
        <time>2020-10-12T07:53:16Z</time>
      </trkpt>
      <trkpt lat="37.398303000" lon="-5.385894000">
        <ele>89.8</ele>
        <time>2020-10-12T07:53:19Z</time>
      </trkpt>
      <trkpt lat="37.398390000" lon="-5.385864000">
        <ele>89.9</ele>
        <time>2020-10-12T07:53:22Z</time>
      </trkpt>
      <trkpt lat="37.398480000" lon="-5.385832000">
        <ele>90.0</ele>
        <time>2020-10-12T07:53:25Z</time>
      </trkpt>
      <trkpt lat="37.398568000" lon="-5.385797000">
        <ele>89.9</ele>
        <time>2020-10-12T07:53:28Z</time>
      </trkpt>
      <trkpt lat="37.398652000" lon="-5.385765000">
        <ele>89.8</ele>
        <time>2020-10-12T07:53:31Z</time>
      </trkpt>
      <trkpt lat="37.398731000" lon="-5.385737000">
        <ele>89.7</ele>
        <time>2020-10-12T07:53:34Z</time>
      </trkpt>
      <trkpt lat="37.398811000" lon="-5.385704000">
        <ele>89.6</ele>
        <time>2020-10-12T07:53:37Z</time>
      </trkpt>
      <trkpt lat="37.398895000" lon="-5.385673000">
        <ele>89.5</ele>
        <time>2020-10-12T07:53:40Z</time>
      </trkpt>
      <trkpt lat="37.398981000" lon="-5.385653000">
        <ele>89.5</ele>
        <time>2020-10-12T07:53:43Z</time>
      </trkpt>
      <trkpt lat="37.399063000" lon="-5.385621000">
        <ele>89.4</ele>
        <time>2020-10-12T07:53:46Z</time>
      </trkpt>
      <trkpt lat="37.399146000" lon="-5.385597000">
        <ele>89.3</ele>
        <time>2020-10-12T07:53:49Z</time>
      </trkpt>
      <trkpt lat="37.399247000" lon="-5.385556000">
        <ele>89.2</ele>
        <time>2020-10-12T07:53:53Z</time>
      </trkpt>
      <trkpt lat="37.399328000" lon="-5.385531000">
        <ele>89.1</ele>
        <time>2020-10-12T07:53:56Z</time>
      </trkpt>
      <trkpt lat="37.399410000" lon="-5.385502000">
        <ele>89.1</ele>
        <time>2020-10-12T07:53:59Z</time>
      </trkpt>
      <trkpt lat="37.399496000" lon="-5.385463000">
        <ele>89.2</ele>
        <time>2020-10-12T07:54:02Z</time>
      </trkpt>
      <trkpt lat="37.399590000" lon="-5.385431000">
        <ele>89.3</ele>
        <time>2020-10-12T07:54:05Z</time>
      </trkpt>
      <trkpt lat="37.399679000" lon="-5.385391000">
        <ele>89.4</ele>
        <time>2020-10-12T07:54:08Z</time>
      </trkpt>
      <trkpt lat="37.399766000" lon="-5.385353000">
        <ele>89.4</ele>
        <time>2020-10-12T07:54:11Z</time>
      </trkpt>
      <trkpt lat="37.399855000" lon="-5.385312000">
        <ele>89.4</ele>
        <time>2020-10-12T07:54:14Z</time>
      </trkpt>
      <trkpt lat="37.399950000" lon="-5.385278000">
        <ele>89.4</ele>
        <time>2020-10-12T07:54:17Z</time>
      </trkpt>
      <trkpt lat="37.400045000" lon="-5.385242000">
        <ele>89.4</ele>
        <time>2020-10-12T07:54:20Z</time>
      </trkpt>
      <trkpt lat="37.400136000" lon="-5.385203000">
        <ele>89.4</ele>
        <time>2020-10-12T07:54:23Z</time>
      </trkpt>
      <trkpt lat="37.400224000" lon="-5.385174000">
        <ele>89.4</ele>
        <time>2020-10-12T07:54:26Z</time>
      </trkpt>
      <trkpt lat="37.400315000" lon="-5.385143000">
        <ele>89.5</ele>
        <time>2020-10-12T07:54:29Z</time>
      </trkpt>
      <trkpt lat="37.400407000" lon="-5.385115000">
        <ele>89.5</ele>
        <time>2020-10-12T07:54:32Z</time>
      </trkpt>
      <trkpt lat="37.400498000" lon="-5.385082000">
        <ele>89.5</ele>
        <time>2020-10-12T07:54:35Z</time>
      </trkpt>
      <trkpt lat="37.400590000" lon="-5.385050000">
        <ele>89.5</ele>
        <time>2020-10-12T07:54:38Z</time>
      </trkpt>
      <trkpt lat="37.400682000" lon="-5.385019000">
        <ele>89.5</ele>
        <time>2020-10-12T07:54:41Z</time>
      </trkpt>
      <trkpt lat="37.400773000" lon="-5.384992000">
        <ele>89.6</ele>
        <time>2020-10-12T07:54:44Z</time>
      </trkpt>
      <trkpt lat="37.400858000" lon="-5.384956000">
        <ele>89.8</ele>
        <time>2020-10-12T07:54:47Z</time>
      </trkpt>
      <trkpt lat="37.400937000" lon="-5.384922000">
        <ele>90.0</ele>
        <time>2020-10-12T07:54:50Z</time>
      </trkpt>
      <trkpt lat="37.401037000" lon="-5.384885000">
        <ele>90.2</ele>
        <time>2020-10-12T07:54:54Z</time>
      </trkpt>
      <trkpt lat="37.401117000" lon="-5.384857000">
        <ele>90.4</ele>
        <time>2020-10-12T07:54:57Z</time>
      </trkpt>
      <trkpt lat="37.401198000" lon="-5.384825000">
        <ele>90.5</ele>
        <time>2020-10-12T07:55:00Z</time>
      </trkpt>
      <trkpt lat="37.401281000" lon="-5.384794000">
        <ele>90.6</ele>
        <time>2020-10-12T07:55:03Z</time>
      </trkpt>
      <trkpt lat="37.401368000" lon="-5.384761000">
        <ele>90.6</ele>
        <time>2020-10-12T07:55:06Z</time>
      </trkpt>
      <trkpt lat="37.401454000" lon="-5.384729000">
        <ele>90.5</ele>
        <time>2020-10-12T07:55:09Z</time>
      </trkpt>
      <trkpt lat="37.401546000" lon="-5.384685000">
        <ele>90.5</ele>
        <time>2020-10-12T07:55:12Z</time>
      </trkpt>
      <trkpt lat="37.401638000" lon="-5.384642000">
        <ele>90.5</ele>
        <time>2020-10-12T07:55:15Z</time>
      </trkpt>
      <trkpt lat="37.401732000" lon="-5.384605000">
        <ele>90.4</ele>
        <time>2020-10-12T07:55:18Z</time>
      </trkpt>
      <trkpt lat="37.401827000" lon="-5.384569000">
        <ele>90.3</ele>
        <time>2020-10-12T07:55:21Z</time>
      </trkpt>
      <trkpt lat="37.401923000" lon="-5.384528000">
        <ele>90.2</ele>
        <time>2020-10-12T07:55:24Z</time>
      </trkpt>
      <trkpt lat="37.402024000" lon="-5.384498000">
        <ele>90.0</ele>
        <time>2020-10-12T07:55:27Z</time>
      </trkpt>
      <trkpt lat="37.402121000" lon="-5.384461000">
        <ele>89.8</ele>
        <time>2020-10-12T07:55:30Z</time>
      </trkpt>
      <trkpt lat="37.402222000" lon="-5.384420000">
        <ele>89.5</ele>
        <time>2020-10-12T07:55:33Z</time>
      </trkpt>
      <trkpt lat="37.402323000" lon="-5.384378000">
        <ele>89.3</ele>
        <time>2020-10-12T07:55:36Z</time>
      </trkpt>
      <trkpt lat="37.402422000" lon="-5.384342000">
        <ele>89.1</ele>
        <time>2020-10-12T07:55:39Z</time>
      </trkpt>
      <trkpt lat="37.402520000" lon="-5.384305000">
        <ele>89.1</ele>
        <time>2020-10-12T07:55:42Z</time>
      </trkpt>
      <trkpt lat="37.402616000" lon="-5.384264000">
        <ele>89.2</ele>
        <time>2020-10-12T07:55:45Z</time>
      </trkpt>
      <trkpt lat="37.402707000" lon="-5.384225000">
        <ele>89.2</ele>
        <time>2020-10-12T07:55:48Z</time>
      </trkpt>
      <trkpt lat="37.402802000" lon="-5.384193000">
        <ele>89.3</ele>
        <time>2020-10-12T07:55:51Z</time>
      </trkpt>
      <trkpt lat="37.402898000" lon="-5.384158000">
        <ele>89.5</ele>
        <time>2020-10-12T07:55:54Z</time>
      </trkpt>
      <trkpt lat="37.402993000" lon="-5.384116000">
        <ele>89.6</ele>
        <time>2020-10-12T07:55:57Z</time>
      </trkpt>
      <trkpt lat="37.403085000" lon="-5.384081000">
        <ele>89.9</ele>
        <time>2020-10-12T07:56:00Z</time>
      </trkpt>
      <trkpt lat="37.403172000" lon="-5.384049000">
        <ele>90.2</ele>
        <time>2020-10-12T07:56:03Z</time>
      </trkpt>
      <trkpt lat="37.403258000" lon="-5.384010000">
        <ele>90.5</ele>
        <time>2020-10-12T07:56:06Z</time>
      </trkpt>
      <trkpt lat="37.403340000" lon="-5.383978000">
        <ele>90.8</ele>
        <time>2020-10-12T07:56:09Z</time>
      </trkpt>
      <trkpt lat="37.403425000" lon="-5.383949000">
        <ele>91.0</ele>
        <time>2020-10-12T07:56:12Z</time>
      </trkpt>
      <trkpt lat="37.403513000" lon="-5.383922000">
        <ele>91.0</ele>
        <time>2020-10-12T07:56:15Z</time>
      </trkpt>
      <trkpt lat="37.403608000" lon="-5.383889000">
        <ele>90.8</ele>
        <time>2020-10-12T07:56:18Z</time>
      </trkpt>
      <trkpt lat="37.403705000" lon="-5.383850000">
        <ele>90.5</ele>
        <time>2020-10-12T07:56:21Z</time>
      </trkpt>
      <trkpt lat="37.403804000" lon="-5.383813000">
        <ele>90.2</ele>
        <time>2020-10-12T07:56:24Z</time>
      </trkpt>
      <trkpt lat="37.403902000" lon="-5.383776000">
        <ele>89.7</ele>
        <time>2020-10-12T07:56:27Z</time>
      </trkpt>
      <trkpt lat="37.404004000" lon="-5.383737000">
        <ele>89.4</ele>
        <time>2020-10-12T07:56:30Z</time>
      </trkpt>
      <trkpt lat="37.404107000" lon="-5.383696000">
        <ele>89.0</ele>
        <time>2020-10-12T07:56:33Z</time>
      </trkpt>
      <trkpt lat="37.404213000" lon="-5.383652000">
        <ele>88.7</ele>
        <time>2020-10-12T07:56:36Z</time>
      </trkpt>
      <trkpt lat="37.404324000" lon="-5.383609000">
        <ele>88.5</ele>
        <time>2020-10-12T07:56:39Z</time>
      </trkpt>
      <trkpt lat="37.404440000" lon="-5.383570000">
        <ele>88.5</ele>
        <time>2020-10-12T07:56:42Z</time>
      </trkpt>
      <trkpt lat="37.404517000" lon="-5.383536000">
        <ele>88.5</ele>
        <time>2020-10-12T07:56:44Z</time>
      </trkpt>
      <trkpt lat="37.404596000" lon="-5.383505000">
        <ele>88.6</ele>
        <time>2020-10-12T07:56:46Z</time>
      </trkpt>
      <trkpt lat="37.404675000" lon="-5.383477000">
        <ele>88.9</ele>
        <time>2020-10-12T07:56:48Z</time>
      </trkpt>
      <trkpt lat="37.404790000" lon="-5.383438000">
        <ele>89.4</ele>
        <time>2020-10-12T07:56:51Z</time>
      </trkpt>
      <trkpt lat="37.404904000" lon="-5.383394000">
        <ele>89.8</ele>
        <time>2020-10-12T07:56:54Z</time>
      </trkpt>
      <trkpt lat="37.405016000" lon="-5.383349000">
        <ele>90.4</ele>
        <time>2020-10-12T07:56:57Z</time>
      </trkpt>
      <trkpt lat="37.405127000" lon="-5.383307000">
        <ele>90.7</ele>
        <time>2020-10-12T07:57:00Z</time>
      </trkpt>
      <trkpt lat="37.405239000" lon="-5.383261000">
        <ele>91.1</ele>
        <time>2020-10-12T07:57:03Z</time>
      </trkpt>
      <trkpt lat="37.405349000" lon="-5.383212000">
        <ele>91.4</ele>
        <time>2020-10-12T07:57:06Z</time>
      </trkpt>
      <trkpt lat="37.405457000" lon="-5.383165000">
        <ele>91.5</ele>
        <time>2020-10-12T07:57:09Z</time>
      </trkpt>
      <trkpt lat="37.405561000" lon="-5.383111000">
        <ele>91.7</ele>
        <time>2020-10-12T07:57:12Z</time>
      </trkpt>
      <trkpt lat="37.405666000" lon="-5.383064000">
        <ele>92.0</ele>
        <time>2020-10-12T07:57:15Z</time>
      </trkpt>
      <trkpt lat="37.405763000" lon="-5.383008000">
        <ele>92.1</ele>
        <time>2020-10-12T07:57:18Z</time>
      </trkpt>
      <trkpt lat="37.405863000" lon="-5.382952000">
        <ele>92.2</ele>
        <time>2020-10-12T07:57:21Z</time>
      </trkpt>
      <trkpt lat="37.405960000" lon="-5.382894000">
        <ele>92.1</ele>
        <time>2020-10-12T07:57:24Z</time>
      </trkpt>
      <trkpt lat="37.406058000" lon="-5.382846000">
        <ele>92.0</ele>
        <time>2020-10-12T07:57:27Z</time>
      </trkpt>
      <trkpt lat="37.406154000" lon="-5.382796000">
        <ele>91.8</ele>
        <time>2020-10-12T07:57:30Z</time>
      </trkpt>
      <trkpt lat="37.406251000" lon="-5.382736000">
        <ele>91.7</ele>
        <time>2020-10-12T07:57:33Z</time>
      </trkpt>
      <trkpt lat="37.406344000" lon="-5.382678000">
        <ele>91.7</ele>
        <time>2020-10-12T07:57:36Z</time>
      </trkpt>
      <trkpt lat="37.406437000" lon="-5.382618000">
        <ele>91.7</ele>
        <time>2020-10-12T07:57:39Z</time>
      </trkpt>
      <trkpt lat="37.406523000" lon="-5.382556000">
        <ele>91.8</ele>
        <time>2020-10-12T07:57:42Z</time>
      </trkpt>
      <trkpt lat="37.406609000" lon="-5.382495000">
        <ele>91.9</ele>
        <time>2020-10-12T07:57:45Z</time>
      </trkpt>
      <trkpt lat="37.406691000" lon="-5.382430000">
        <ele>91.9</ele>
        <time>2020-10-12T07:57:48Z</time>
      </trkpt>
      <trkpt lat="37.406778000" lon="-5.382368000">
        <ele>92.0</ele>
        <time>2020-10-12T07:57:51Z</time>
      </trkpt>
      <trkpt lat="37.406864000" lon="-5.382303000">
        <ele>92.1</ele>
        <time>2020-10-12T07:57:54Z</time>
      </trkpt>
      <trkpt lat="37.406948000" lon="-5.382238000">
        <ele>92.2</ele>
        <time>2020-10-12T07:57:57Z</time>
      </trkpt>
      <trkpt lat="37.407037000" lon="-5.382168000">
        <ele>92.3</ele>
        <time>2020-10-12T07:58:00Z</time>
      </trkpt>
      <trkpt lat="37.407120000" lon="-5.382102000">
        <ele>92.3</ele>
        <time>2020-10-12T07:58:03Z</time>
      </trkpt>
      <trkpt lat="37.407194000" lon="-5.382039000">
        <ele>92.3</ele>
        <time>2020-10-12T07:58:06Z</time>
      </trkpt>
      <trkpt lat="37.407274000" lon="-5.381976000">
        <ele>92.2</ele>
        <time>2020-10-12T07:58:09Z</time>
      </trkpt>
      <trkpt lat="37.407343000" lon="-5.381910000">
        <ele>92.1</ele>
        <time>2020-10-12T07:58:12Z</time>
      </trkpt>
      <trkpt lat="37.407409000" lon="-5.381842000">
        <ele>91.8</ele>
        <time>2020-10-12T07:58:15Z</time>
      </trkpt>
      <trkpt lat="37.407487000" lon="-5.381760000">
        <ele>91.5</ele>
        <time>2020-10-12T07:58:18Z</time>
      </trkpt>
      <trkpt lat="37.407573000" lon="-5.381684000">
        <ele>91.4</ele>
        <time>2020-10-12T07:58:21Z</time>
      </trkpt>
      <trkpt lat="37.407654000" lon="-5.381605000">
        <ele>91.2</ele>
        <time>2020-10-12T07:58:24Z</time>
      </trkpt>
      <trkpt lat="37.407732000" lon="-5.381522000">
        <ele>91.0</ele>
        <time>2020-10-12T07:58:27Z</time>
      </trkpt>
      <trkpt lat="37.407812000" lon="-5.381441000">
        <ele>91.0</ele>
        <time>2020-10-12T07:58:30Z</time>
      </trkpt>
      <trkpt lat="37.407892000" lon="-5.381357000">
        <ele>91.0</ele>
        <time>2020-10-12T07:58:33Z</time>
      </trkpt>
      <trkpt lat="37.407970000" lon="-5.381272000">
        <ele>91.1</ele>
        <time>2020-10-12T07:58:36Z</time>
      </trkpt>
      <trkpt lat="37.408048000" lon="-5.381185000">
        <ele>91.2</ele>
        <time>2020-10-12T07:58:39Z</time>
      </trkpt>
      <trkpt lat="37.408119000" lon="-5.381107000">
        <ele>91.4</ele>
        <time>2020-10-12T07:58:42Z</time>
      </trkpt>
      <trkpt lat="37.408186000" lon="-5.381023000">
        <ele>91.5</ele>
        <time>2020-10-12T07:58:45Z</time>
      </trkpt>
      <trkpt lat="37.408248000" lon="-5.380943000">
        <ele>91.9</ele>
        <time>2020-10-12T07:58:48Z</time>
      </trkpt>
      <trkpt lat="37.408306000" lon="-5.380868000">
        <ele>92.3</ele>
        <time>2020-10-12T07:58:51Z</time>
      </trkpt>
      <trkpt lat="37.408384000" lon="-5.380772000">
        <ele>92.6</ele>
        <time>2020-10-12T07:58:55Z</time>
      </trkpt>
      <trkpt lat="37.408451000" lon="-5.380684000">
        <ele>93.0</ele>
        <time>2020-10-12T07:58:58Z</time>
      </trkpt>
      <trkpt lat="37.408518000" lon="-5.380603000">
        <ele>93.5</ele>
        <time>2020-10-12T07:59:01Z</time>
      </trkpt>
      <trkpt lat="37.408586000" lon="-5.380520000">
        <ele>93.8</ele>
        <time>2020-10-12T07:59:04Z</time>
      </trkpt>
      <trkpt lat="37.408653000" lon="-5.380441000">
        <ele>94.2</ele>
        <time>2020-10-12T07:59:07Z</time>
      </trkpt>
      <trkpt lat="37.408718000" lon="-5.380360000">
        <ele>94.5</ele>
        <time>2020-10-12T07:59:10Z</time>
      </trkpt>
      <trkpt lat="37.408787000" lon="-5.380279000">
        <ele>94.7</ele>
        <time>2020-10-12T07:59:13Z</time>
      </trkpt>
      <trkpt lat="37.408861000" lon="-5.380186000">
        <ele>94.9</ele>
        <time>2020-10-12T07:59:17Z</time>
      </trkpt>
      <trkpt lat="37.408928000" lon="-5.380097000">
        <ele>95.1</ele>
        <time>2020-10-12T07:59:21Z</time>
      </trkpt>
      <trkpt lat="37.408996000" lon="-5.380014000">
        <ele>95.1</ele>
        <time>2020-10-12T07:59:25Z</time>
      </trkpt>
      <trkpt lat="37.409070000" lon="-5.379916000">
        <ele>95.1</ele>
        <time>2020-10-12T07:59:29Z</time>
      </trkpt>
      <trkpt lat="37.409129000" lon="-5.379840000">
        <ele>95.0</ele>
        <time>2020-10-12T07:59:32Z</time>
      </trkpt>
      <trkpt lat="37.409200000" lon="-5.379758000">
        <ele>94.9</ele>
        <time>2020-10-12T07:59:35Z</time>
      </trkpt>
      <trkpt lat="37.409266000" lon="-5.379676000">
        <ele>94.8</ele>
        <time>2020-10-12T07:59:38Z</time>
      </trkpt>
      <trkpt lat="37.409335000" lon="-5.379600000">
        <ele>94.7</ele>
        <time>2020-10-12T07:59:41Z</time>
      </trkpt>
      <trkpt lat="37.409402000" lon="-5.379525000">
        <ele>94.6</ele>
        <time>2020-10-12T07:59:44Z</time>
      </trkpt>
      <trkpt lat="37.409467000" lon="-5.379445000">
        <ele>94.6</ele>
        <time>2020-10-12T07:59:47Z</time>
      </trkpt>
      <trkpt lat="37.409532000" lon="-5.379366000">
        <ele>94.6</ele>
        <time>2020-10-12T07:59:50Z</time>
      </trkpt>
      <trkpt lat="37.409597000" lon="-5.379286000">
        <ele>94.6</ele>
        <time>2020-10-12T07:59:53Z</time>
      </trkpt>
      <trkpt lat="37.409658000" lon="-5.379205000">
        <ele>94.6</ele>
        <time>2020-10-12T07:59:56Z</time>
      </trkpt>
      <trkpt lat="37.409722000" lon="-5.379124000">
        <ele>94.5</ele>
        <time>2020-10-12T07:59:59Z</time>
      </trkpt>
      <trkpt lat="37.409792000" lon="-5.379040000">
        <ele>94.5</ele>
        <time>2020-10-12T08:00:02Z</time>
      </trkpt>
      <trkpt lat="37.409866000" lon="-5.378958000">
        <ele>94.3</ele>
        <time>2020-10-12T08:00:05Z</time>
      </trkpt>
      <trkpt lat="37.409940000" lon="-5.378876000">
        <ele>94.1</ele>
        <time>2020-10-12T08:00:08Z</time>
      </trkpt>
      <trkpt lat="37.410002000" lon="-5.378790000">
        <ele>93.8</ele>
        <time>2020-10-12T08:00:11Z</time>
      </trkpt>
      <trkpt lat="37.410067000" lon="-5.378701000">
        <ele>93.5</ele>
        <time>2020-10-12T08:00:14Z</time>
      </trkpt>
      <trkpt lat="37.410139000" lon="-5.378611000">
        <ele>93.3</ele>
        <time>2020-10-12T08:00:17Z</time>
      </trkpt>
      <trkpt lat="37.410212000" lon="-5.378519000">
        <ele>93.1</ele>
        <time>2020-10-12T08:00:20Z</time>
      </trkpt>
      <trkpt lat="37.410281000" lon="-5.378434000">
        <ele>92.9</ele>
        <time>2020-10-12T08:00:23Z</time>
      </trkpt>
      <trkpt lat="37.410344000" lon="-5.378358000">
        <ele>92.8</ele>
        <time>2020-10-12T08:00:26Z</time>
      </trkpt>
      <trkpt lat="37.410407000" lon="-5.378282000">
        <ele>92.8</ele>
        <time>2020-10-12T08:00:29Z</time>
      </trkpt>
      <trkpt lat="37.410476000" lon="-5.378195000">
        <ele>93.1</ele>
        <time>2020-10-12T08:00:32Z</time>
      </trkpt>
      <trkpt lat="37.410549000" lon="-5.378111000">
        <ele>93.4</ele>
        <time>2020-10-12T08:00:35Z</time>
      </trkpt>
      <trkpt lat="37.410624000" lon="-5.378013000">
        <ele>93.8</ele>
        <time>2020-10-12T08:00:38Z</time>
      </trkpt>
      <trkpt lat="37.410699000" lon="-5.377921000">
        <ele>94.3</ele>
        <time>2020-10-12T08:00:41Z</time>
      </trkpt>
      <trkpt lat="37.410769000" lon="-5.377834000">
        <ele>94.6</ele>
        <time>2020-10-12T08:00:44Z</time>
      </trkpt>
      <trkpt lat="37.410837000" lon="-5.377757000">
        <ele>95.0</ele>
        <time>2020-10-12T08:00:47Z</time>
      </trkpt>
      <trkpt lat="37.410906000" lon="-5.377677000">
        <ele>95.3</ele>
        <time>2020-10-12T08:00:50Z</time>
      </trkpt>
      <trkpt lat="37.410971000" lon="-5.377599000">
        <ele>95.5</ele>
        <time>2020-10-12T08:00:53Z</time>
      </trkpt>
      <trkpt lat="37.411038000" lon="-5.377510000">
        <ele>95.6</ele>
        <time>2020-10-12T08:00:56Z</time>
      </trkpt>
      <trkpt lat="37.411111000" lon="-5.377420000">
        <ele>95.6</ele>
        <time>2020-10-12T08:00:59Z</time>
      </trkpt>
      <trkpt lat="37.411188000" lon="-5.377325000">
        <ele>95.5</ele>
        <time>2020-10-12T08:01:02Z</time>
      </trkpt>
      <trkpt lat="37.411256000" lon="-5.377241000">
        <ele>95.4</ele>
        <time>2020-10-12T08:01:05Z</time>
      </trkpt>
      <trkpt lat="37.411319000" lon="-5.377171000">
        <ele>95.1</ele>
        <time>2020-10-12T08:01:08Z</time>
      </trkpt>
      <trkpt lat="37.411384000" lon="-5.377092000">
        <ele>94.7</ele>
        <time>2020-10-12T08:01:11Z</time>
      </trkpt>
      <trkpt lat="37.411449000" lon="-5.377013000">
        <ele>94.4</ele>
        <time>2020-10-12T08:01:14Z</time>
      </trkpt>
      <trkpt lat="37.411510000" lon="-5.376940000">
        <ele>94.1</ele>
        <time>2020-10-12T08:01:17Z</time>
      </trkpt>
      <trkpt lat="37.411571000" lon="-5.376867000">
        <ele>93.9</ele>
        <time>2020-10-12T08:01:20Z</time>
      </trkpt>
      <trkpt lat="37.411633000" lon="-5.376789000">
        <ele>93.8</ele>
        <time>2020-10-12T08:01:23Z</time>
      </trkpt>
      <trkpt lat="37.411696000" lon="-5.376710000">
        <ele>93.7</ele>
        <time>2020-10-12T08:01:26Z</time>
      </trkpt>
      <trkpt lat="37.411756000" lon="-5.376638000">
        <ele>93.7</ele>
        <time>2020-10-12T08:01:29Z</time>
      </trkpt>
      <trkpt lat="37.411820000" lon="-5.376560000">
        <ele>93.8</ele>
        <time>2020-10-12T08:01:32Z</time>
      </trkpt>
      <trkpt lat="37.411887000" lon="-5.376480000">
        <ele>94.0</ele>
        <time>2020-10-12T08:01:35Z</time>
      </trkpt>
      <trkpt lat="37.411951000" lon="-5.376407000">
        <ele>94.3</ele>
        <time>2020-10-12T08:01:38Z</time>
      </trkpt>
      <trkpt lat="37.412008000" lon="-5.376330000">
        <ele>94.6</ele>
        <time>2020-10-12T08:01:41Z</time>
      </trkpt>
      <trkpt lat="37.412081000" lon="-5.376236000">
        <ele>95.1</ele>
        <time>2020-10-12T08:01:45Z</time>
      </trkpt>
      <trkpt lat="37.412143000" lon="-5.376162000">
        <ele>95.5</ele>
        <time>2020-10-12T08:01:48Z</time>
      </trkpt>
      <trkpt lat="37.412208000" lon="-5.376080000">
        <ele>96.0</ele>
        <time>2020-10-12T08:01:51Z</time>
      </trkpt>
      <trkpt lat="37.412275000" lon="-5.375992000">
        <ele>96.4</ele>
        <time>2020-10-12T08:01:54Z</time>
      </trkpt>
      <trkpt lat="37.412347000" lon="-5.375911000">
        <ele>96.7</ele>
        <time>2020-10-12T08:01:57Z</time>
      </trkpt>
      <trkpt lat="37.412421000" lon="-5.375822000">
        <ele>97.1</ele>
        <time>2020-10-12T08:02:00Z</time>
      </trkpt>
      <trkpt lat="37.412496000" lon="-5.375735000">
        <ele>97.4</ele>
        <time>2020-10-12T08:02:03Z</time>
      </trkpt>
      <trkpt lat="37.412565000" lon="-5.375648000">
        <ele>97.6</ele>
        <time>2020-10-12T08:02:06Z</time>
      </trkpt>
      <trkpt lat="37.412632000" lon="-5.375560000">
        <ele>97.8</ele>
        <time>2020-10-12T08:02:09Z</time>
      </trkpt>
      <trkpt lat="37.412700000" lon="-5.375471000">
        <ele>97.9</ele>
        <time>2020-10-12T08:02:12Z</time>
      </trkpt>
      <trkpt lat="37.412772000" lon="-5.375376000">
        <ele>98.0</ele>
        <time>2020-10-12T08:02:15Z</time>
      </trkpt>
      <trkpt lat="37.412838000" lon="-5.375281000">
        <ele>97.9</ele>
        <time>2020-10-12T08:02:18Z</time>
      </trkpt>
      <trkpt lat="37.412905000" lon="-5.375190000">
        <ele>97.8</ele>
        <time>2020-10-12T08:02:21Z</time>
      </trkpt>
      <trkpt lat="37.412971000" lon="-5.375106000">
        <ele>97.7</ele>
        <time>2020-10-12T08:02:24Z</time>
      </trkpt>
      <trkpt lat="37.413041000" lon="-5.375022000">
        <ele>97.6</ele>
        <time>2020-10-12T08:02:27Z</time>
      </trkpt>
      <trkpt lat="37.413111000" lon="-5.374935000">
        <ele>97.5</ele>
        <time>2020-10-12T08:02:30Z</time>
      </trkpt>
      <trkpt lat="37.413177000" lon="-5.374851000">
        <ele>97.4</ele>
        <time>2020-10-12T08:02:33Z</time>
      </trkpt>
      <trkpt lat="37.413242000" lon="-5.374765000">
        <ele>97.2</ele>
        <time>2020-10-12T08:02:36Z</time>
      </trkpt>
      <trkpt lat="37.413314000" lon="-5.374686000">
        <ele>97.0</ele>
        <time>2020-10-12T08:02:39Z</time>
      </trkpt>
      <trkpt lat="37.413382000" lon="-5.374601000">
        <ele>96.7</ele>
        <time>2020-10-12T08:02:42Z</time>
      </trkpt>
      <trkpt lat="37.413442000" lon="-5.374525000">
        <ele>96.5</ele>
        <time>2020-10-12T08:02:45Z</time>
      </trkpt>
      <trkpt lat="37.413495000" lon="-5.374430000">
        <ele>96.4</ele>
        <time>2020-10-12T08:02:48Z</time>
      </trkpt>
      <trkpt lat="37.413567000" lon="-5.374351000">
        <ele>96.3</ele>
        <time>2020-10-12T08:02:51Z</time>
      </trkpt>
      <trkpt lat="37.413645000" lon="-5.374272000">
        <ele>96.3</ele>
        <time>2020-10-12T08:02:54Z</time>
      </trkpt>
      <trkpt lat="37.413719000" lon="-5.374179000">
        <ele>96.3</ele>
        <time>2020-10-12T08:02:57Z</time>
      </trkpt>
      <trkpt lat="37.413790000" lon="-5.374089000">
        <ele>96.3</ele>
        <time>2020-10-12T08:03:00Z</time>
      </trkpt>
      <trkpt lat="37.413858000" lon="-5.374011000">
        <ele>96.3</ele>
        <time>2020-10-12T08:03:03Z</time>
      </trkpt>
      <trkpt lat="37.413918000" lon="-5.373933000">
        <ele>96.4</ele>
        <time>2020-10-12T08:03:06Z</time>
      </trkpt>
      <trkpt lat="37.413980000" lon="-5.373853000">
        <ele>96.5</ele>
        <time>2020-10-12T08:03:09Z</time>
      </trkpt>
      <trkpt lat="37.414043000" lon="-5.373774000">
        <ele>96.5</ele>
        <time>2020-10-12T08:03:12Z</time>
      </trkpt>
      <trkpt lat="37.414107000" lon="-5.373693000">
        <ele>96.5</ele>
        <time>2020-10-12T08:03:15Z</time>
      </trkpt>
      <trkpt lat="37.414170000" lon="-5.373620000">
        <ele>96.5</ele>
        <time>2020-10-12T08:03:18Z</time>
      </trkpt>
      <trkpt lat="37.414235000" lon="-5.373544000">
        <ele>96.4</ele>
        <time>2020-10-12T08:03:21Z</time>
      </trkpt>
      <trkpt lat="37.414307000" lon="-5.373459000">
        <ele>96.2</ele>
        <time>2020-10-12T08:03:24Z</time>
      </trkpt>
      <trkpt lat="37.414377000" lon="-5.373376000">
        <ele>96.0</ele>
        <time>2020-10-12T08:03:27Z</time>
      </trkpt>
      <trkpt lat="37.414443000" lon="-5.373290000">
        <ele>95.8</ele>
        <time>2020-10-12T08:03:30Z</time>
      </trkpt>
      <trkpt lat="37.414508000" lon="-5.373206000">
        <ele>95.6</ele>
        <time>2020-10-12T08:03:33Z</time>
      </trkpt>
      <trkpt lat="37.414577000" lon="-5.373125000">
        <ele>95.5</ele>
        <time>2020-10-12T08:03:36Z</time>
      </trkpt>
      <trkpt lat="37.414647000" lon="-5.373042000">
        <ele>95.5</ele>
        <time>2020-10-12T08:03:39Z</time>
      </trkpt>
      <trkpt lat="37.414715000" lon="-5.372960000">
        <ele>95.4</ele>
        <time>2020-10-12T08:03:42Z</time>
      </trkpt>
      <trkpt lat="37.414780000" lon="-5.372874000">
        <ele>95.4</ele>
        <time>2020-10-12T08:03:45Z</time>
      </trkpt>
      <trkpt lat="37.414853000" lon="-5.372798000">
        <ele>95.4</ele>
        <time>2020-10-12T08:03:48Z</time>
      </trkpt>
      <trkpt lat="37.414921000" lon="-5.372718000">
        <ele>95.5</ele>
        <time>2020-10-12T08:03:51Z</time>
      </trkpt>
      <trkpt lat="37.414987000" lon="-5.372648000">
        <ele>95.5</ele>
        <time>2020-10-12T08:03:54Z</time>
      </trkpt>
      <trkpt lat="37.415047000" lon="-5.372579000">
        <ele>95.7</ele>
        <time>2020-10-12T08:03:57Z</time>
      </trkpt>
      <trkpt lat="37.415105000" lon="-5.372506000">
        <ele>95.7</ele>
        <time>2020-10-12T08:04:00Z</time>
      </trkpt>
      <trkpt lat="37.415165000" lon="-5.372431000">
        <ele>95.7</ele>
        <time>2020-10-12T08:04:03Z</time>
      </trkpt>
      <trkpt lat="37.415223000" lon="-5.372355000">
        <ele>95.7</ele>
        <time>2020-10-12T08:04:06Z</time>
      </trkpt>
      <trkpt lat="37.415285000" lon="-5.372274000">
        <ele>95.6</ele>
        <time>2020-10-12T08:04:09Z</time>
      </trkpt>
      <trkpt lat="37.415355000" lon="-5.372189000">
        <ele>95.5</ele>
        <time>2020-10-12T08:04:12Z</time>
      </trkpt>
      <trkpt lat="37.415421000" lon="-5.372112000">
        <ele>95.5</ele>
        <time>2020-10-12T08:04:15Z</time>
      </trkpt>
      <trkpt lat="37.415483000" lon="-5.372041000">
        <ele>95.5</ele>
        <time>2020-10-12T08:04:18Z</time>
      </trkpt>
      <trkpt lat="37.415546000" lon="-5.371966000">
        <ele>95.5</ele>
        <time>2020-10-12T08:04:21Z</time>
      </trkpt>
      <trkpt lat="37.415606000" lon="-5.371891000">
        <ele>95.5</ele>
        <time>2020-10-12T08:04:24Z</time>
      </trkpt>
      <trkpt lat="37.415668000" lon="-5.371817000">
        <ele>95.5</ele>
        <time>2020-10-12T08:04:27Z</time>
      </trkpt>
      <trkpt lat="37.415733000" lon="-5.371735000">
        <ele>95.6</ele>
        <time>2020-10-12T08:04:30Z</time>
      </trkpt>
      <trkpt lat="37.415793000" lon="-5.371658000">
        <ele>95.7</ele>
        <time>2020-10-12T08:04:33Z</time>
      </trkpt>
      <trkpt lat="37.415866000" lon="-5.371560000">
        <ele>95.8</ele>
        <time>2020-10-12T08:04:37Z</time>
      </trkpt>
      <trkpt lat="37.415939000" lon="-5.371464000">
        <ele>95.9</ele>
        <time>2020-10-12T08:04:41Z</time>
      </trkpt>
      <trkpt lat="37.416003000" lon="-5.371391000">
        <ele>96.0</ele>
        <time>2020-10-12T08:04:44Z</time>
      </trkpt>
      <trkpt lat="37.416065000" lon="-5.371310000">
        <ele>96.1</ele>
        <time>2020-10-12T08:04:47Z</time>
      </trkpt>
      <trkpt lat="37.416126000" lon="-5.371240000">
        <ele>96.2</ele>
        <time>2020-10-12T08:04:50Z</time>
      </trkpt>
      <trkpt lat="37.416193000" lon="-5.371152000">
        <ele>96.3</ele>
        <time>2020-10-12T08:04:54Z</time>
      </trkpt>
      <trkpt lat="37.416267000" lon="-5.371052000">
        <ele>96.4</ele>
        <time>2020-10-12T08:04:58Z</time>
      </trkpt>
      <trkpt lat="37.416335000" lon="-5.370966000">
        <ele>96.5</ele>
        <time>2020-10-12T08:05:01Z</time>
      </trkpt>
      <trkpt lat="37.416394000" lon="-5.370886000">
        <ele>96.5</ele>
        <time>2020-10-12T08:05:04Z</time>
      </trkpt>
      <trkpt lat="37.416453000" lon="-5.370815000">
        <ele>96.4</ele>
        <time>2020-10-12T08:05:07Z</time>
      </trkpt>
      <trkpt lat="37.416518000" lon="-5.370744000">
        <ele>96.4</ele>
        <time>2020-10-12T08:05:10Z</time>
      </trkpt>
      <trkpt lat="37.416580000" lon="-5.370669000">
        <ele>96.3</ele>
        <time>2020-10-12T08:05:13Z</time>
      </trkpt>
      <trkpt lat="37.416642000" lon="-5.370590000">
        <ele>96.2</ele>
        <time>2020-10-12T08:05:16Z</time>
      </trkpt>
      <trkpt lat="37.416706000" lon="-5.370515000">
        <ele>96.1</ele>
        <time>2020-10-12T08:05:19Z</time>
      </trkpt>
      <trkpt lat="37.416778000" lon="-5.370421000">
        <ele>96.1</ele>
        <time>2020-10-12T08:05:23Z</time>
      </trkpt>
      <trkpt lat="37.416854000" lon="-5.370331000">
        <ele>96.1</ele>
        <time>2020-10-12T08:05:27Z</time>
      </trkpt>
      <trkpt lat="37.416927000" lon="-5.370237000">
        <ele>96.0</ele>
        <time>2020-10-12T08:05:31Z</time>
      </trkpt>
      <trkpt lat="37.416985000" lon="-5.370166000">
        <ele>95.9</ele>
        <time>2020-10-12T08:05:34Z</time>
      </trkpt>
      <trkpt lat="37.417061000" lon="-5.370072000">
        <ele>95.9</ele>
        <time>2020-10-12T08:05:38Z</time>
      </trkpt>
      <trkpt lat="37.417123000" lon="-5.369996000">
        <ele>95.9</ele>
        <time>2020-10-12T08:05:41Z</time>
      </trkpt>
      <trkpt lat="37.417184000" lon="-5.369920000">
        <ele>96.0</ele>
        <time>2020-10-12T08:05:44Z</time>
      </trkpt>
      <trkpt lat="37.417243000" lon="-5.369844000">
        <ele>96.1</ele>
        <time>2020-10-12T08:05:47Z</time>
      </trkpt>
      <trkpt lat="37.417303000" lon="-5.369766000">
        <ele>96.3</ele>
        <time>2020-10-12T08:05:50Z</time>
      </trkpt>
      <trkpt lat="37.417360000" lon="-5.369689000">
        <ele>96.5</ele>
        <time>2020-10-12T08:05:53Z</time>
      </trkpt>
      <trkpt lat="37.417439000" lon="-5.369602000">
        <ele>96.6</ele>
        <time>2020-10-12T08:05:57Z</time>
      </trkpt>
      <trkpt lat="37.417517000" lon="-5.369513000">
        <ele>96.7</ele>
        <time>2020-10-12T08:06:01Z</time>
      </trkpt>
      <trkpt lat="37.417574000" lon="-5.369434000">
        <ele>96.8</ele>
        <time>2020-10-12T08:06:04Z</time>
      </trkpt>
      <trkpt lat="37.417638000" lon="-5.369351000">
        <ele>96.8</ele>
        <time>2020-10-12T08:06:07Z</time>
      </trkpt>
      <trkpt lat="37.417702000" lon="-5.369271000">
        <ele>96.8</ele>
        <time>2020-10-12T08:06:10Z</time>
      </trkpt>
      <trkpt lat="37.417767000" lon="-5.369199000">
        <ele>96.8</ele>
        <time>2020-10-12T08:06:13Z</time>
      </trkpt>
      <trkpt lat="37.417824000" lon="-5.369125000">
        <ele>96.8</ele>
        <time>2020-10-12T08:06:16Z</time>
      </trkpt>
      <trkpt lat="37.417899000" lon="-5.369030000">
        <ele>96.9</ele>
        <time>2020-10-12T08:06:20Z</time>
      </trkpt>
      <trkpt lat="37.417974000" lon="-5.368933000">
        <ele>97.0</ele>
        <time>2020-10-12T08:06:24Z</time>
      </trkpt>
      <trkpt lat="37.418030000" lon="-5.368859000">
        <ele>97.1</ele>
        <time>2020-10-12T08:06:27Z</time>
      </trkpt>
      <trkpt lat="37.418092000" lon="-5.368788000">
        <ele>97.3</ele>
        <time>2020-10-12T08:06:30Z</time>
      </trkpt>
      <trkpt lat="37.418151000" lon="-5.368711000">
        <ele>97.5</ele>
        <time>2020-10-12T08:06:33Z</time>
      </trkpt>
      <trkpt lat="37.418213000" lon="-5.368634000">
        <ele>97.6</ele>
        <time>2020-10-12T08:06:36Z</time>
      </trkpt>
      <trkpt lat="37.418272000" lon="-5.368554000">
        <ele>97.9</ele>
        <time>2020-10-12T08:06:39Z</time>
      </trkpt>
      <trkpt lat="37.418338000" lon="-5.368476000">
        <ele>98.3</ele>
        <time>2020-10-12T08:06:42Z</time>
      </trkpt>
      <trkpt lat="37.418403000" lon="-5.368394000">
        <ele>98.6</ele>
        <time>2020-10-12T08:06:45Z</time>
      </trkpt>
      <trkpt lat="37.418464000" lon="-5.368311000">
        <ele>98.9</ele>
        <time>2020-10-12T08:06:48Z</time>
      </trkpt>
      <trkpt lat="37.418533000" lon="-5.368229000">
        <ele>99.3</ele>
        <time>2020-10-12T08:06:51Z</time>
      </trkpt>
      <trkpt lat="37.418591000" lon="-5.368156000">
        <ele>99.5</ele>
        <time>2020-10-12T08:06:54Z</time>
      </trkpt>
      <trkpt lat="37.418650000" lon="-5.368079000">
        <ele>99.8</ele>
        <time>2020-10-12T08:06:57Z</time>
      </trkpt>
      <trkpt lat="37.418712000" lon="-5.368000000">
        <ele>100.1</ele>
        <time>2020-10-12T08:07:00Z</time>
      </trkpt>
      <trkpt lat="37.418771000" lon="-5.367925000">
        <ele>100.3</ele>
        <time>2020-10-12T08:07:03Z</time>
      </trkpt>
      <trkpt lat="37.418848000" lon="-5.367831000">
        <ele>100.5</ele>
        <time>2020-10-12T08:07:07Z</time>
      </trkpt>
      <trkpt lat="37.418925000" lon="-5.367734000">
        <ele>100.6</ele>
        <time>2020-10-12T08:07:11Z</time>
      </trkpt>
      <trkpt lat="37.418988000" lon="-5.367659000">
        <ele>100.7</ele>
        <time>2020-10-12T08:07:14Z</time>
      </trkpt>
      <trkpt lat="37.419046000" lon="-5.367584000">
        <ele>100.8</ele>
        <time>2020-10-12T08:07:17Z</time>
      </trkpt>
      <trkpt lat="37.419122000" lon="-5.367493000">
        <ele>100.9</ele>
        <time>2020-10-12T08:07:21Z</time>
      </trkpt>
      <trkpt lat="37.419197000" lon="-5.367406000">
        <ele>101.0</ele>
        <time>2020-10-12T08:07:25Z</time>
      </trkpt>
      <trkpt lat="37.419257000" lon="-5.367336000">
        <ele>100.9</ele>
        <time>2020-10-12T08:07:28Z</time>
      </trkpt>
      <trkpt lat="37.419315000" lon="-5.367262000">
        <ele>100.8</ele>
        <time>2020-10-12T08:07:31Z</time>
      </trkpt>
      <trkpt lat="37.419376000" lon="-5.367188000">
        <ele>100.7</ele>
        <time>2020-10-12T08:07:34Z</time>
      </trkpt>
      <trkpt lat="37.419436000" lon="-5.367115000">
        <ele>100.6</ele>
        <time>2020-10-12T08:07:37Z</time>
      </trkpt>
      <trkpt lat="37.419500000" lon="-5.367044000">
        <ele>100.5</ele>
        <time>2020-10-12T08:07:40Z</time>
      </trkpt>
      <trkpt lat="37.419559000" lon="-5.366960000">
        <ele>100.5</ele>
        <time>2020-10-12T08:07:43Z</time>
      </trkpt>
      <trkpt lat="37.419623000" lon="-5.366880000">
        <ele>100.4</ele>
        <time>2020-10-12T08:07:46Z</time>
      </trkpt>
      <trkpt lat="37.419692000" lon="-5.366806000">
        <ele>100.3</ele>
        <time>2020-10-12T08:07:49Z</time>
      </trkpt>
      <trkpt lat="37.419754000" lon="-5.366731000">
        <ele>100.2</ele>
        <time>2020-10-12T08:07:52Z</time>
      </trkpt>
      <trkpt lat="37.419812000" lon="-5.366659000">
        <ele>100.1</ele>
        <time>2020-10-12T08:07:55Z</time>
      </trkpt>
      <trkpt lat="37.419869000" lon="-5.366585000">
        <ele>100.0</ele>
        <time>2020-10-12T08:07:58Z</time>
      </trkpt>
      <trkpt lat="37.419927000" lon="-5.366510000">
        <ele>100.0</ele>
        <time>2020-10-12T08:08:01Z</time>
      </trkpt>
      <trkpt lat="37.419986000" lon="-5.366438000">
        <ele>100.0</ele>
        <time>2020-10-12T08:08:04Z</time>
      </trkpt>
      <trkpt lat="37.420061000" lon="-5.366355000">
        <ele>100.0</ele>
        <time>2020-10-12T08:08:08Z</time>
      </trkpt>
      <trkpt lat="37.420121000" lon="-5.366284000">
        <ele>100.0</ele>
        <time>2020-10-12T08:08:11Z</time>
      </trkpt>
      <trkpt lat="37.420184000" lon="-5.366209000">
        <ele>99.9</ele>
        <time>2020-10-12T08:08:14Z</time>
      </trkpt>
      <trkpt lat="37.420249000" lon="-5.366129000">
        <ele>99.8</ele>
        <time>2020-10-12T08:08:17Z</time>
      </trkpt>
      <trkpt lat="37.420317000" lon="-5.366051000">
        <ele>99.6</ele>
        <time>2020-10-12T08:08:20Z</time>
      </trkpt>
      <trkpt lat="37.420385000" lon="-5.365980000">
        <ele>99.4</ele>
        <time>2020-10-12T08:08:23Z</time>
      </trkpt>
      <trkpt lat="37.420446000" lon="-5.365910000">
        <ele>99.1</ele>
        <time>2020-10-12T08:08:26Z</time>
      </trkpt>
      <trkpt lat="37.420524000" lon="-5.365828000">
        <ele>98.8</ele>
        <time>2020-10-12T08:08:30Z</time>
      </trkpt>
      <trkpt lat="37.420588000" lon="-5.365739000">
        <ele>98.5</ele>
        <time>2020-10-12T08:08:34Z</time>
      </trkpt>
      <trkpt lat="37.420664000" lon="-5.365651000">
        <ele>98.3</ele>
        <time>2020-10-12T08:08:38Z</time>
      </trkpt>
      <trkpt lat="37.420732000" lon="-5.365579000">
        <ele>98.0</ele>
        <time>2020-10-12T08:08:41Z</time>
      </trkpt>
      <trkpt lat="37.420801000" lon="-5.365513000">
        <ele>97.7</ele>
        <time>2020-10-12T08:08:44Z</time>
      </trkpt>
      <trkpt lat="37.420869000" lon="-5.365450000">
        <ele>97.5</ele>
        <time>2020-10-12T08:08:47Z</time>
      </trkpt>
      <trkpt lat="37.420944000" lon="-5.365386000">
        <ele>97.5</ele>
        <time>2020-10-12T08:08:50Z</time>
      </trkpt>
      <trkpt lat="37.421017000" lon="-5.365317000">
        <ele>97.4</ele>
        <time>2020-10-12T08:08:53Z</time>
      </trkpt>
      <trkpt lat="37.421094000" lon="-5.365257000">
        <ele>97.4</ele>
        <time>2020-10-12T08:08:56Z</time>
      </trkpt>
      <trkpt lat="37.421164000" lon="-5.365186000">
        <ele>97.5</ele>
        <time>2020-10-12T08:08:59Z</time>
      </trkpt>
      <trkpt lat="37.421239000" lon="-5.365116000">
        <ele>97.6</ele>
        <time>2020-10-12T08:09:02Z</time>
      </trkpt>
      <trkpt lat="37.421314000" lon="-5.365048000">
        <ele>97.8</ele>
        <time>2020-10-12T08:09:05Z</time>
      </trkpt>
      <trkpt lat="37.421384000" lon="-5.364988000">
        <ele>98.0</ele>
        <time>2020-10-12T08:09:08Z</time>
      </trkpt>
      <trkpt lat="37.421456000" lon="-5.364926000">
        <ele>98.3</ele>
        <time>2020-10-12T08:09:11Z</time>
      </trkpt>
      <trkpt lat="37.421532000" lon="-5.364867000">
        <ele>98.6</ele>
        <time>2020-10-12T08:09:14Z</time>
      </trkpt>
      <trkpt lat="37.421605000" lon="-5.364812000">
        <ele>99.0</ele>
        <time>2020-10-12T08:09:17Z</time>
      </trkpt>
      <trkpt lat="37.421680000" lon="-5.364759000">
        <ele>99.3</ele>
        <time>2020-10-12T08:09:20Z</time>
      </trkpt>
      <trkpt lat="37.421756000" lon="-5.364710000">
        <ele>99.5</ele>
        <time>2020-10-12T08:09:23Z</time>
      </trkpt>
      <trkpt lat="37.421828000" lon="-5.364660000">
        <ele>99.8</ele>
        <time>2020-10-12T08:09:26Z</time>
      </trkpt>
      <trkpt lat="37.421924000" lon="-5.364595000">
        <ele>100.0</ele>
        <time>2020-10-12T08:09:30Z</time>
      </trkpt>
      <trkpt lat="37.422007000" lon="-5.364514000">
        <ele>100.2</ele>
        <time>2020-10-12T08:09:34Z</time>
      </trkpt>
      <trkpt lat="37.422102000" lon="-5.364445000">
        <ele>100.2</ele>
        <time>2020-10-12T08:09:38Z</time>
      </trkpt>
      <trkpt lat="37.422182000" lon="-5.364393000">
        <ele>100.2</ele>
        <time>2020-10-12T08:09:41Z</time>
      </trkpt>
      <trkpt lat="37.422262000" lon="-5.364342000">
        <ele>100.2</ele>
        <time>2020-10-12T08:09:44Z</time>
      </trkpt>
      <trkpt lat="37.422343000" lon="-5.364299000">
        <ele>100.1</ele>
        <time>2020-10-12T08:09:47Z</time>
      </trkpt>
      <trkpt lat="37.422418000" lon="-5.364245000">
        <ele>99.9</ele>
        <time>2020-10-12T08:09:50Z</time>
      </trkpt>
      <trkpt lat="37.422492000" lon="-5.364201000">
        <ele>99.8</ele>
        <time>2020-10-12T08:09:53Z</time>
      </trkpt>
      <trkpt lat="37.422567000" lon="-5.364156000">
        <ele>99.7</ele>
        <time>2020-10-12T08:09:56Z</time>
      </trkpt>
      <trkpt lat="37.422645000" lon="-5.364109000">
        <ele>99.6</ele>
        <time>2020-10-12T08:09:59Z</time>
      </trkpt>
      <trkpt lat="37.422731000" lon="-5.364060000">
        <ele>99.5</ele>
        <time>2020-10-12T08:10:02Z</time>
      </trkpt>
      <trkpt lat="37.422820000" lon="-5.364010000">
        <ele>99.5</ele>
        <time>2020-10-12T08:10:05Z</time>
      </trkpt>
      <trkpt lat="37.422908000" lon="-5.363964000">
        <ele>99.5</ele>
        <time>2020-10-12T08:10:08Z</time>
      </trkpt>
      <trkpt lat="37.422991000" lon="-5.363917000">
        <ele>99.6</ele>
        <time>2020-10-12T08:10:11Z</time>
      </trkpt>
      <trkpt lat="37.423075000" lon="-5.363868000">
        <ele>99.8</ele>
        <time>2020-10-12T08:10:14Z</time>
      </trkpt>
      <trkpt lat="37.423163000" lon="-5.363814000">
        <ele>100.0</ele>
        <time>2020-10-12T08:10:17Z</time>
      </trkpt>
      <trkpt lat="37.423247000" lon="-5.363770000">
        <ele>100.2</ele>
        <time>2020-10-12T08:10:20Z</time>
      </trkpt>
      <trkpt lat="37.423328000" lon="-5.363738000">
        <ele>100.4</ele>
        <time>2020-10-12T08:10:23Z</time>
      </trkpt>
      <trkpt lat="37.423406000" lon="-5.363706000">
        <ele>100.5</ele>
        <time>2020-10-12T08:10:26Z</time>
      </trkpt>
      <trkpt lat="37.423488000" lon="-5.363669000">
        <ele>100.5</ele>
        <time>2020-10-12T08:10:29Z</time>
      </trkpt>
      <trkpt lat="37.423566000" lon="-5.363633000">
        <ele>100.6</ele>
        <time>2020-10-12T08:10:32Z</time>
      </trkpt>
      <trkpt lat="37.423665000" lon="-5.363599000">
        <ele>100.6</ele>
        <time>2020-10-12T08:10:36Z</time>
      </trkpt>
      <trkpt lat="37.423766000" lon="-5.363565000">
        <ele>100.6</ele>
        <time>2020-10-12T08:10:40Z</time>
      </trkpt>
      <trkpt lat="37.423873000" lon="-5.363531000">
        <ele>100.7</ele>
        <time>2020-10-12T08:10:44Z</time>
      </trkpt>
      <trkpt lat="37.423959000" lon="-5.363493000">
        <ele>100.8</ele>
        <time>2020-10-12T08:10:47Z</time>
      </trkpt>
      <trkpt lat="37.424046000" lon="-5.363462000">
        <ele>100.8</ele>
        <time>2020-10-12T08:10:50Z</time>
      </trkpt>
      <trkpt lat="37.424131000" lon="-5.363424000">
        <ele>100.8</ele>
        <time>2020-10-12T08:10:53Z</time>
      </trkpt>
      <trkpt lat="37.424220000" lon="-5.363406000">
        <ele>100.8</ele>
        <time>2020-10-12T08:10:56Z</time>
      </trkpt>
      <trkpt lat="37.424302000" lon="-5.363375000">
        <ele>100.9</ele>
        <time>2020-10-12T08:10:59Z</time>
      </trkpt>
      <trkpt lat="37.424403000" lon="-5.363337000">
        <ele>101.0</ele>
        <time>2020-10-12T08:11:03Z</time>
      </trkpt>
      <trkpt lat="37.424482000" lon="-5.363311000">
        <ele>101.1</ele>
        <time>2020-10-12T08:11:06Z</time>
      </trkpt>
      <trkpt lat="37.424567000" lon="-5.363286000">
        <ele>101.1</ele>
        <time>2020-10-12T08:11:09Z</time>
      </trkpt>
      <trkpt lat="37.424650000" lon="-5.363262000">
        <ele>101.2</ele>
        <time>2020-10-12T08:11:12Z</time>
      </trkpt>
      <trkpt lat="37.424732000" lon="-5.363237000">
        <ele>101.3</ele>
        <time>2020-10-12T08:11:15Z</time>
      </trkpt>
      <trkpt lat="37.424830000" lon="-5.363214000">
        <ele>101.3</ele>
        <time>2020-10-12T08:11:19Z</time>
      </trkpt>
      <trkpt lat="37.424924000" lon="-5.363211000">
        <ele>101.2</ele>
        <time>2020-10-12T08:12:28Z</time>
      </trkpt>
      <trkpt lat="37.425011000" lon="-5.363185000">
        <ele>101.0</ele>
        <time>2020-10-12T08:12:31Z</time>
      </trkpt>
      <trkpt lat="37.425103000" lon="-5.363162000">
        <ele>100.7</ele>
        <time>2020-10-12T08:12:34Z</time>
      </trkpt>
      <trkpt lat="37.425195000" lon="-5.363135000">
        <ele>100.5</ele>
        <time>2020-10-12T08:12:37Z</time>
      </trkpt>
      <trkpt lat="37.425284000" lon="-5.363098000">
        <ele>100.1</ele>
        <time>2020-10-12T08:12:40Z</time>
      </trkpt>
      <trkpt lat="37.425369000" lon="-5.363079000">
        <ele>99.7</ele>
        <time>2020-10-12T08:12:43Z</time>
      </trkpt>
      <trkpt lat="37.425470000" lon="-5.363052000">
        <ele>99.4</ele>
        <time>2020-10-12T08:12:47Z</time>
      </trkpt>
      <trkpt lat="37.425565000" lon="-5.363029000">
        <ele>99.2</ele>
        <time>2020-10-12T08:12:51Z</time>
      </trkpt>
      <trkpt lat="37.425641000" lon="-5.362995000">
        <ele>99.0</ele>
        <time>2020-10-12T08:12:54Z</time>
      </trkpt>
      <trkpt lat="37.425721000" lon="-5.362966000">
        <ele>98.8</ele>
        <time>2020-10-12T08:12:57Z</time>
      </trkpt>
      <trkpt lat="37.425807000" lon="-5.362935000">
        <ele>98.7</ele>
        <time>2020-10-12T08:13:00Z</time>
      </trkpt>
      <trkpt lat="37.425891000" lon="-5.362907000">
        <ele>98.7</ele>
        <time>2020-10-12T08:13:03Z</time>
      </trkpt>
      <trkpt lat="37.425987000" lon="-5.362883000">
        <ele>98.8</ele>
        <time>2020-10-12T08:13:07Z</time>
      </trkpt>
      <trkpt lat="37.426066000" lon="-5.362853000">
        <ele>99.0</ele>
        <time>2020-10-12T08:13:10Z</time>
      </trkpt>
      <trkpt lat="37.426151000" lon="-5.362828000">
        <ele>99.2</ele>
        <time>2020-10-12T08:13:13Z</time>
      </trkpt>
      <trkpt lat="37.426237000" lon="-5.362804000">
        <ele>99.4</ele>
        <time>2020-10-12T08:13:16Z</time>
      </trkpt>
      <trkpt lat="37.426324000" lon="-5.362780000">
        <ele>99.5</ele>
        <time>2020-10-12T08:13:19Z</time>
      </trkpt>
      <trkpt lat="37.426428000" lon="-5.362756000">
        <ele>99.8</ele>
        <time>2020-10-12T08:13:23Z</time>
      </trkpt>
      <trkpt lat="37.426510000" lon="-5.362727000">
        <ele>100.0</ele>
        <time>2020-10-12T08:13:26Z</time>
      </trkpt>
      <trkpt lat="37.426594000" lon="-5.362701000">
        <ele>100.2</ele>
        <time>2020-10-12T08:13:29Z</time>
      </trkpt>
      <trkpt lat="37.426676000" lon="-5.362677000">
        <ele>100.5</ele>
        <time>2020-10-12T08:13:32Z</time>
      </trkpt>
      <trkpt lat="37.426755000" lon="-5.362646000">
        <ele>100.7</ele>
        <time>2020-10-12T08:13:35Z</time>
      </trkpt>
      <trkpt lat="37.426857000" lon="-5.362613000">
        <ele>101.0</ele>
        <time>2020-10-12T08:13:39Z</time>
      </trkpt>
      <trkpt lat="37.426939000" lon="-5.362588000">
        <ele>101.3</ele>
        <time>2020-10-12T08:13:42Z</time>
      </trkpt>
      <trkpt lat="37.427024000" lon="-5.362557000">
        <ele>101.5</ele>
        <time>2020-10-12T08:13:45Z</time>
      </trkpt>
      <trkpt lat="37.427107000" lon="-5.362526000">
        <ele>101.9</ele>
        <time>2020-10-12T08:13:48Z</time>
      </trkpt>
      <trkpt lat="37.427194000" lon="-5.362492000">
        <ele>102.3</ele>
        <time>2020-10-12T08:13:51Z</time>
      </trkpt>
      <trkpt lat="37.427281000" lon="-5.362467000">
        <ele>102.7</ele>
        <time>2020-10-12T08:13:54Z</time>
      </trkpt>
      <trkpt lat="37.427365000" lon="-5.362444000">
        <ele>103.1</ele>
        <time>2020-10-12T08:13:57Z</time>
      </trkpt>
      <trkpt lat="37.427451000" lon="-5.362421000">
        <ele>103.5</ele>
        <time>2020-10-12T08:14:00Z</time>
      </trkpt>
      <trkpt lat="37.427536000" lon="-5.362395000">
        <ele>103.8</ele>
        <time>2020-10-12T08:14:03Z</time>
      </trkpt>
      <trkpt lat="37.427620000" lon="-5.362375000">
        <ele>104.1</ele>
        <time>2020-10-12T08:14:06Z</time>
      </trkpt>
      <trkpt lat="37.427701000" lon="-5.362349000">
        <ele>104.3</ele>
        <time>2020-10-12T08:14:09Z</time>
      </trkpt>
      <trkpt lat="37.427803000" lon="-5.362323000">
        <ele>104.4</ele>
        <time>2020-10-12T08:14:13Z</time>
      </trkpt>
      <trkpt lat="37.427885000" lon="-5.362297000">
        <ele>104.5</ele>
        <time>2020-10-12T08:14:16Z</time>
      </trkpt>
      <trkpt lat="37.427966000" lon="-5.362263000">
        <ele>104.5</ele>
        <time>2020-10-12T08:14:19Z</time>
      </trkpt>
      <trkpt lat="37.428048000" lon="-5.362233000">
        <ele>104.3</ele>
        <time>2020-10-12T08:14:22Z</time>
      </trkpt>
      <trkpt lat="37.428153000" lon="-5.362219000">
        <ele>104.0</ele>
        <time>2020-10-12T08:14:26Z</time>
      </trkpt>
      <trkpt lat="37.428236000" lon="-5.362199000">
        <ele>103.7</ele>
        <time>2020-10-12T08:14:29Z</time>
      </trkpt>
      <trkpt lat="37.428325000" lon="-5.362173000">
        <ele>103.5</ele>
        <time>2020-10-12T08:14:32Z</time>
      </trkpt>
      <trkpt lat="37.428414000" lon="-5.362146000">
        <ele>103.5</ele>
        <time>2020-10-12T08:14:35Z</time>
      </trkpt>
      <trkpt lat="37.428507000" lon="-5.362115000">
        <ele>103.5</ele>
        <time>2020-10-12T08:14:38Z</time>
      </trkpt>
      <trkpt lat="37.428599000" lon="-5.362079000">
        <ele>103.5</ele>
        <time>2020-10-12T08:14:41Z</time>
      </trkpt>
      <trkpt lat="37.428690000" lon="-5.362047000">
        <ele>103.5</ele>
        <time>2020-10-12T08:14:44Z</time>
      </trkpt>
      <trkpt lat="37.428775000" lon="-5.362016000">
        <ele>103.8</ele>
        <time>2020-10-12T08:14:47Z</time>
      </trkpt>
      <trkpt lat="37.428855000" lon="-5.361989000">
        <ele>104.0</ele>
        <time>2020-10-12T08:14:50Z</time>
      </trkpt>
      <trkpt lat="37.428943000" lon="-5.361961000">
        <ele>104.2</ele>
        <time>2020-10-12T08:14:53Z</time>
      </trkpt>
      <trkpt lat="37.429027000" lon="-5.361938000">
        <ele>104.5</ele>
        <time>2020-10-12T08:14:56Z</time>
      </trkpt>
      <trkpt lat="37.429114000" lon="-5.361924000">
        <ele>104.7</ele>
        <time>2020-10-12T08:14:59Z</time>
      </trkpt>
      <trkpt lat="37.429197000" lon="-5.361899000">
        <ele>104.8</ele>
        <time>2020-10-12T08:15:02Z</time>
      </trkpt>
      <trkpt lat="37.429285000" lon="-5.361873000">
        <ele>104.8</ele>
        <time>2020-10-12T08:15:05Z</time>
      </trkpt>
      <trkpt lat="37.429375000" lon="-5.361839000">
        <ele>104.7</ele>
        <time>2020-10-12T08:15:08Z</time>
      </trkpt>
      <trkpt lat="37.429466000" lon="-5.361810000">
        <ele>104.5</ele>
        <time>2020-10-12T08:15:11Z</time>
      </trkpt>
      <trkpt lat="37.429555000" lon="-5.361783000">
        <ele>104.4</ele>
        <time>2020-10-12T08:15:14Z</time>
      </trkpt>
      <trkpt lat="37.429650000" lon="-5.361758000">
        <ele>104.1</ele>
        <time>2020-10-12T08:15:17Z</time>
      </trkpt>
      <trkpt lat="37.429747000" lon="-5.361731000">
        <ele>103.7</ele>
        <time>2020-10-12T08:15:20Z</time>
      </trkpt>
      <trkpt lat="37.429843000" lon="-5.361702000">
        <ele>103.5</ele>
        <time>2020-10-12T08:15:23Z</time>
      </trkpt>
      <trkpt lat="37.429941000" lon="-5.361668000">
        <ele>103.4</ele>
        <time>2020-10-12T08:15:26Z</time>
      </trkpt>
      <trkpt lat="37.430038000" lon="-5.361638000">
        <ele>103.3</ele>
        <time>2020-10-12T08:15:29Z</time>
      </trkpt>
      <trkpt lat="37.430132000" lon="-5.361609000">
        <ele>103.4</ele>
        <time>2020-10-12T08:15:32Z</time>
      </trkpt>
      <trkpt lat="37.430228000" lon="-5.361585000">
        <ele>103.5</ele>
        <time>2020-10-12T08:15:35Z</time>
      </trkpt>
      <trkpt lat="37.430321000" lon="-5.361561000">
        <ele>103.7</ele>
        <time>2020-10-12T08:15:38Z</time>
      </trkpt>
      <trkpt lat="37.430409000" lon="-5.361537000">
        <ele>103.9</ele>
        <time>2020-10-12T08:15:41Z</time>
      </trkpt>
      <trkpt lat="37.430493000" lon="-5.361514000">
        <ele>104.1</ele>
        <time>2020-10-12T08:15:44Z</time>
      </trkpt>
      <trkpt lat="37.430574000" lon="-5.361490000">
        <ele>104.4</ele>
        <time>2020-10-12T08:15:47Z</time>
      </trkpt>
      <trkpt lat="37.430660000" lon="-5.361466000">
        <ele>104.6</ele>
        <time>2020-10-12T08:15:50Z</time>
      </trkpt>
      <trkpt lat="37.430743000" lon="-5.361448000">
        <ele>104.8</ele>
        <time>2020-10-12T08:15:53Z</time>
      </trkpt>
      <trkpt lat="37.430850000" lon="-5.361424000">
        <ele>105.0</ele>
        <time>2020-10-12T08:15:57Z</time>
      </trkpt>
      <trkpt lat="37.430937000" lon="-5.361404000">
        <ele>105.1</ele>
        <time>2020-10-12T08:16:00Z</time>
      </trkpt>
      <trkpt lat="37.431024000" lon="-5.361376000">
        <ele>105.1</ele>
        <time>2020-10-12T08:16:03Z</time>
      </trkpt>
      <trkpt lat="37.431108000" lon="-5.361348000">
        <ele>105.0</ele>
        <time>2020-10-12T08:16:06Z</time>
      </trkpt>
      <trkpt lat="37.431189000" lon="-5.361325000">
        <ele>104.9</ele>
        <time>2020-10-12T08:16:09Z</time>
      </trkpt>
      <trkpt lat="37.431286000" lon="-5.361296000">
        <ele>104.8</ele>
        <time>2020-10-12T08:16:13Z</time>
      </trkpt>
      <trkpt lat="37.431366000" lon="-5.361273000">
        <ele>104.8</ele>
        <time>2020-10-12T08:16:16Z</time>
      </trkpt>
      <trkpt lat="37.431448000" lon="-5.361252000">
        <ele>104.8</ele>
        <time>2020-10-12T08:16:19Z</time>
      </trkpt>
      <trkpt lat="37.431536000" lon="-5.361229000">
        <ele>104.7</ele>
        <time>2020-10-12T08:16:22Z</time>
      </trkpt>
      <trkpt lat="37.431616000" lon="-5.361200000">
        <ele>104.7</ele>
        <time>2020-10-12T08:16:25Z</time>
      </trkpt>
      <trkpt lat="37.431719000" lon="-5.361167000">
        <ele>104.8</ele>
        <time>2020-10-12T08:16:29Z</time>
      </trkpt>
      <trkpt lat="37.431815000" lon="-5.361133000">
        <ele>104.9</ele>
        <time>2020-10-12T08:16:33Z</time>
      </trkpt>
      <trkpt lat="37.431914000" lon="-5.361087000">
        <ele>105.0</ele>
        <time>2020-10-12T08:16:38Z</time>
      </trkpt>
      <trkpt lat="37.432004000" lon="-5.361079000">
        <ele>105.1</ele>
        <time>2020-10-12T08:16:41Z</time>
      </trkpt>
      <trkpt lat="37.432095000" lon="-5.361039000">
        <ele>105.2</ele>
        <time>2020-10-12T08:16:44Z</time>
      </trkpt>
      <trkpt lat="37.432185000" lon="-5.361012000">
        <ele>105.3</ele>
        <time>2020-10-12T08:16:47Z</time>
      </trkpt>
      <trkpt lat="37.432267000" lon="-5.360981000">
        <ele>105.4</ele>
        <time>2020-10-12T08:16:50Z</time>
      </trkpt>
      <trkpt lat="37.432351000" lon="-5.360953000">
        <ele>105.4</ele>
        <time>2020-10-12T08:16:53Z</time>
      </trkpt>
      <trkpt lat="37.432437000" lon="-5.360926000">
        <ele>105.4</ele>
        <time>2020-10-12T08:16:56Z</time>
      </trkpt>
      <trkpt lat="37.432524000" lon="-5.360902000">
        <ele>105.4</ele>
        <time>2020-10-12T08:16:59Z</time>
      </trkpt>
      <trkpt lat="37.432606000" lon="-5.360876000">
        <ele>105.3</ele>
        <time>2020-10-12T08:17:02Z</time>
      </trkpt>
      <trkpt lat="37.432689000" lon="-5.360849000">
        <ele>105.2</ele>
        <time>2020-10-12T08:17:05Z</time>
      </trkpt>
      <trkpt lat="37.432773000" lon="-5.360827000">
        <ele>105.2</ele>
        <time>2020-10-12T08:17:08Z</time>
      </trkpt>
      <trkpt lat="37.432862000" lon="-5.360801000">
        <ele>105.2</ele>
        <time>2020-10-12T08:17:11Z</time>
      </trkpt>
      <trkpt lat="37.432948000" lon="-5.360771000">
        <ele>105.3</ele>
        <time>2020-10-12T08:17:14Z</time>
      </trkpt>
      <trkpt lat="37.433033000" lon="-5.360746000">
        <ele>105.4</ele>
        <time>2020-10-12T08:17:17Z</time>
      </trkpt>
      <trkpt lat="37.433117000" lon="-5.360717000">
        <ele>105.5</ele>
        <time>2020-10-12T08:17:20Z</time>
      </trkpt>
      <trkpt lat="37.433200000" lon="-5.360689000">
        <ele>105.5</ele>
        <time>2020-10-12T08:17:23Z</time>
      </trkpt>
      <trkpt lat="37.433284000" lon="-5.360659000">
        <ele>105.6</ele>
        <time>2020-10-12T08:17:26Z</time>
      </trkpt>
      <trkpt lat="37.433367000" lon="-5.360632000">
        <ele>105.6</ele>
        <time>2020-10-12T08:17:29Z</time>
      </trkpt>
      <trkpt lat="37.433450000" lon="-5.360602000">
        <ele>105.6</ele>
        <time>2020-10-12T08:17:32Z</time>
      </trkpt>
      <trkpt lat="37.433537000" lon="-5.360575000">
        <ele>105.6</ele>
        <time>2020-10-12T08:17:35Z</time>
      </trkpt>
      <trkpt lat="37.433623000" lon="-5.360552000">
        <ele>105.6</ele>
        <time>2020-10-12T08:17:38Z</time>
      </trkpt>
      <trkpt lat="37.433707000" lon="-5.360531000">
        <ele>105.5</ele>
        <time>2020-10-12T08:17:41Z</time>
      </trkpt>
      <trkpt lat="37.433789000" lon="-5.360506000">
        <ele>105.5</ele>
        <time>2020-10-12T08:17:44Z</time>
      </trkpt>
      <trkpt lat="37.433873000" lon="-5.360482000">
        <ele>105.4</ele>
        <time>2020-10-12T08:17:47Z</time>
      </trkpt>
      <trkpt lat="37.433965000" lon="-5.360451000">
        <ele>105.4</ele>
        <time>2020-10-12T08:17:50Z</time>
      </trkpt>
      <trkpt lat="37.434066000" lon="-5.360420000">
        <ele>105.5</ele>
        <time>2020-10-12T08:17:54Z</time>
      </trkpt>
      <trkpt lat="37.434163000" lon="-5.360395000">
        <ele>105.5</ele>
        <time>2020-10-12T08:17:58Z</time>
      </trkpt>
      <trkpt lat="37.434271000" lon="-5.360374000">
        <ele>105.7</ele>
        <time>2020-10-12T08:18:02Z</time>
      </trkpt>
      <trkpt lat="37.434356000" lon="-5.360345000">
        <ele>106.1</ele>
        <time>2020-10-12T08:18:05Z</time>
      </trkpt>
      <trkpt lat="37.434441000" lon="-5.360319000">
        <ele>106.5</ele>
        <time>2020-10-12T08:18:08Z</time>
      </trkpt>
      <trkpt lat="37.434534000" lon="-5.360289000">
        <ele>106.9</ele>
        <time>2020-10-12T08:18:12Z</time>
      </trkpt>
      <trkpt lat="37.434626000" lon="-5.360269000">
        <ele>107.3</ele>
        <time>2020-10-12T08:18:16Z</time>
      </trkpt>
      <trkpt lat="37.434724000" lon="-5.360233000">
        <ele>107.6</ele>
        <time>2020-10-12T08:18:20Z</time>
      </trkpt>
      <trkpt lat="37.434825000" lon="-5.360206000">
        <ele>108.0</ele>
        <time>2020-10-12T08:18:24Z</time>
      </trkpt>
      <trkpt lat="37.434929000" lon="-5.360177000">
        <ele>108.4</ele>
        <time>2020-10-12T08:18:28Z</time>
      </trkpt>
      <trkpt lat="37.435013000" lon="-5.360146000">
        <ele>108.6</ele>
        <time>2020-10-12T08:18:31Z</time>
      </trkpt>
      <trkpt lat="37.435094000" lon="-5.360122000">
        <ele>108.8</ele>
        <time>2020-10-12T08:18:34Z</time>
      </trkpt>
      <trkpt lat="37.435176000" lon="-5.360108000">
        <ele>109.1</ele>
        <time>2020-10-12T08:18:37Z</time>
      </trkpt>
      <trkpt lat="37.435258000" lon="-5.360085000">
        <ele>109.4</ele>
        <time>2020-10-12T08:18:40Z</time>
      </trkpt>
      <trkpt lat="37.435341000" lon="-5.360057000">
        <ele>109.6</ele>
        <time>2020-10-12T08:18:43Z</time>
      </trkpt>
      <trkpt lat="37.435427000" lon="-5.360033000">
        <ele>109.9</ele>
        <time>2020-10-12T08:18:46Z</time>
      </trkpt>
      <trkpt lat="37.435515000" lon="-5.360015000">
        <ele>110.1</ele>
        <time>2020-10-12T08:18:49Z</time>
      </trkpt>
      <trkpt lat="37.435600000" lon="-5.359985000">
        <ele>110.5</ele>
        <time>2020-10-12T08:18:52Z</time>
      </trkpt>
      <trkpt lat="37.435688000" lon="-5.359954000">
        <ele>110.8</ele>
        <time>2020-10-12T08:18:55Z</time>
      </trkpt>
      <trkpt lat="37.435774000" lon="-5.359923000">
        <ele>111.1</ele>
        <time>2020-10-12T08:18:58Z</time>
      </trkpt>
      <trkpt lat="37.435857000" lon="-5.359902000">
        <ele>111.4</ele>
        <time>2020-10-12T08:19:01Z</time>
      </trkpt>
      <trkpt lat="37.435941000" lon="-5.359874000">
        <ele>111.6</ele>
        <time>2020-10-12T08:19:04Z</time>
      </trkpt>
      <trkpt lat="37.436021000" lon="-5.359847000">
        <ele>112.0</ele>
        <time>2020-10-12T08:19:07Z</time>
      </trkpt>
      <trkpt lat="37.436121000" lon="-5.359812000">
        <ele>112.3</ele>
        <time>2020-10-12T08:19:11Z</time>
      </trkpt>
      <trkpt lat="37.436199000" lon="-5.359784000">
        <ele>112.5</ele>
        <time>2020-10-12T08:19:14Z</time>
      </trkpt>
      <trkpt lat="37.436281000" lon="-5.359751000">
        <ele>112.7</ele>
        <time>2020-10-12T08:19:17Z</time>
      </trkpt>
      <trkpt lat="37.436359000" lon="-5.359714000">
        <ele>112.9</ele>
        <time>2020-10-12T08:19:20Z</time>
      </trkpt>
      <trkpt lat="37.436440000" lon="-5.359678000">
        <ele>113.1</ele>
        <time>2020-10-12T08:19:23Z</time>
      </trkpt>
      <trkpt lat="37.436520000" lon="-5.359636000">
        <ele>113.1</ele>
        <time>2020-10-12T08:19:26Z</time>
      </trkpt>
      <trkpt lat="37.436603000" lon="-5.359601000">
        <ele>113.2</ele>
        <time>2020-10-12T08:19:29Z</time>
      </trkpt>
      <trkpt lat="37.436684000" lon="-5.359558000">
        <ele>113.4</ele>
        <time>2020-10-12T08:19:32Z</time>
      </trkpt>
      <trkpt lat="37.436769000" lon="-5.359518000">
        <ele>113.6</ele>
        <time>2020-10-12T08:19:35Z</time>
      </trkpt>
      <trkpt lat="37.436845000" lon="-5.359477000">
        <ele>113.9</ele>
        <time>2020-10-12T08:19:38Z</time>
      </trkpt>
      <trkpt lat="37.436939000" lon="-5.359421000">
        <ele>114.0</ele>
        <time>2020-10-12T08:19:42Z</time>
      </trkpt>
      <trkpt lat="37.437034000" lon="-5.359371000">
        <ele>114.1</ele>
        <time>2020-10-12T08:19:46Z</time>
      </trkpt>
      <trkpt lat="37.437114000" lon="-5.359326000">
        <ele>114.1</ele>
        <time>2020-10-12T08:19:49Z</time>
      </trkpt>
      <trkpt lat="37.437207000" lon="-5.359280000">
        <ele>114.1</ele>
        <time>2020-10-12T08:19:53Z</time>
      </trkpt>
      <trkpt lat="37.437290000" lon="-5.359236000">
        <ele>114.1</ele>
        <time>2020-10-12T08:19:57Z</time>
      </trkpt>
      <trkpt lat="37.437380000" lon="-5.359174000">
        <ele>114.1</ele>
        <time>2020-10-12T08:20:01Z</time>
      </trkpt>
      <trkpt lat="37.437456000" lon="-5.359127000">
        <ele>114.1</ele>
        <time>2020-10-12T08:20:04Z</time>
      </trkpt>
      <trkpt lat="37.437546000" lon="-5.359077000">
        <ele>114.0</ele>
        <time>2020-10-12T08:20:08Z</time>
      </trkpt>
      <trkpt lat="37.437641000" lon="-5.359019000">
        <ele>113.9</ele>
        <time>2020-10-12T08:20:12Z</time>
      </trkpt>
      <trkpt lat="37.437720000" lon="-5.358978000">
        <ele>113.7</ele>
        <time>2020-10-12T08:20:15Z</time>
      </trkpt>
      <trkpt lat="37.437796000" lon="-5.358931000">
        <ele>113.5</ele>
        <time>2020-10-12T08:20:18Z</time>
      </trkpt>
      <trkpt lat="37.437893000" lon="-5.358878000">
        <ele>113.5</ele>
        <time>2020-10-12T08:20:22Z</time>
      </trkpt>
      <trkpt lat="37.437971000" lon="-5.358841000">
        <ele>113.5</ele>
        <time>2020-10-12T08:20:25Z</time>
      </trkpt>
      <trkpt lat="37.438065000" lon="-5.358784000">
        <ele>113.5</ele>
        <time>2020-10-12T08:20:29Z</time>
      </trkpt>
      <trkpt lat="37.438160000" lon="-5.358734000">
        <ele>113.5</ele>
        <time>2020-10-12T08:20:33Z</time>
      </trkpt>
      <trkpt lat="37.438250000" lon="-5.358683000">
        <ele>113.6</ele>
        <time>2020-10-12T08:20:37Z</time>
      </trkpt>
      <trkpt lat="37.438337000" lon="-5.358624000">
        <ele>113.8</ele>
        <time>2020-10-12T08:20:41Z</time>
      </trkpt>
      <trkpt lat="37.438415000" lon="-5.358588000">
        <ele>114.2</ele>
        <time>2020-10-12T08:20:44Z</time>
      </trkpt>
      <trkpt lat="37.438494000" lon="-5.358545000">
        <ele>114.5</ele>
        <time>2020-10-12T08:20:47Z</time>
      </trkpt>
      <trkpt lat="37.438573000" lon="-5.358505000">
        <ele>114.9</ele>
        <time>2020-10-12T08:20:50Z</time>
      </trkpt>
      <trkpt lat="37.438654000" lon="-5.358459000">
        <ele>115.3</ele>
        <time>2020-10-12T08:20:53Z</time>
      </trkpt>
      <trkpt lat="37.438752000" lon="-5.358404000">
        <ele>115.6</ele>
        <time>2020-10-12T08:20:57Z</time>
      </trkpt>
      <trkpt lat="37.438840000" lon="-5.358352000">
        <ele>115.9</ele>
        <time>2020-10-12T08:21:01Z</time>
      </trkpt>
      <trkpt lat="37.438932000" lon="-5.358292000">
        <ele>116.3</ele>
        <time>2020-10-12T08:21:05Z</time>
      </trkpt>
      <trkpt lat="37.439006000" lon="-5.358246000">
        <ele>116.6</ele>
        <time>2020-10-12T08:21:08Z</time>
      </trkpt>
      <trkpt lat="37.439088000" lon="-5.358204000">
        <ele>117.1</ele>
        <time>2020-10-12T08:21:11Z</time>
      </trkpt>
      <trkpt lat="37.439173000" lon="-5.358151000">
        <ele>117.5</ele>
        <time>2020-10-12T08:21:14Z</time>
      </trkpt>
      <trkpt lat="37.439253000" lon="-5.358095000">
        <ele>117.9</ele>
        <time>2020-10-12T08:21:17Z</time>
      </trkpt>
      <trkpt lat="37.439330000" lon="-5.358044000">
        <ele>118.2</ele>
        <time>2020-10-12T08:21:20Z</time>
      </trkpt>
      <trkpt lat="37.439407000" lon="-5.357997000">
        <ele>118.5</ele>
        <time>2020-10-12T08:21:23Z</time>
      </trkpt>
      <trkpt lat="37.439482000" lon="-5.357937000">
        <ele>118.7</ele>
        <time>2020-10-12T08:21:26Z</time>
      </trkpt>
      <trkpt lat="37.439554000" lon="-5.357883000">
        <ele>119.0</ele>
        <time>2020-10-12T08:21:29Z</time>
      </trkpt>
      <trkpt lat="37.439626000" lon="-5.357834000">
        <ele>119.3</ele>
        <time>2020-10-12T08:21:32Z</time>
      </trkpt>
      <trkpt lat="37.439712000" lon="-5.357775000">
        <ele>119.5</ele>
        <time>2020-10-12T08:21:36Z</time>
      </trkpt>
      <trkpt lat="37.439800000" lon="-5.357704000">
        <ele>119.5</ele>
        <time>2020-10-12T08:21:40Z</time>
      </trkpt>
      <trkpt lat="37.439869000" lon="-5.357646000">
        <ele>119.6</ele>
        <time>2020-10-12T08:21:43Z</time>
      </trkpt>
      <trkpt lat="37.439939000" lon="-5.357590000">
        <ele>119.6</ele>
        <time>2020-10-12T08:21:46Z</time>
      </trkpt>
      <trkpt lat="37.440017000" lon="-5.357509000">
        <ele>119.5</ele>
        <time>2020-10-12T08:21:50Z</time>
      </trkpt>
      <trkpt lat="37.440077000" lon="-5.357437000">
        <ele>119.4</ele>
        <time>2020-10-12T08:21:53Z</time>
      </trkpt>
      <trkpt lat="37.440135000" lon="-5.357362000">
        <ele>119.2</ele>
        <time>2020-10-12T08:21:56Z</time>
      </trkpt>
      <trkpt lat="37.440215000" lon="-5.357274000">
        <ele>119.1</ele>
        <time>2020-10-12T08:22:00Z</time>
      </trkpt>
      <trkpt lat="37.440290000" lon="-5.357190000">
        <ele>119.1</ele>
        <time>2020-10-12T08:22:04Z</time>
      </trkpt>
      <trkpt lat="37.440362000" lon="-5.357116000">
        <ele>119.1</ele>
        <time>2020-10-12T08:23:11Z</time>
      </trkpt>
      <trkpt lat="37.440423000" lon="-5.357037000">
        <ele>119.1</ele>
        <time>2020-10-12T08:23:15Z</time>
      </trkpt>
      <trkpt lat="37.440490000" lon="-5.356948000">
        <ele>119.3</ele>
        <time>2020-10-12T08:23:19Z</time>
      </trkpt>
      <trkpt lat="37.440545000" lon="-5.356857000">
        <ele>119.5</ele>
        <time>2020-10-12T08:23:23Z</time>
      </trkpt>
      <trkpt lat="37.440601000" lon="-5.356764000">
        <ele>119.6</ele>
        <time>2020-10-12T08:23:27Z</time>
      </trkpt>
      <trkpt lat="37.440667000" lon="-5.356679000">
        <ele>119.9</ele>
        <time>2020-10-12T08:23:31Z</time>
      </trkpt>
      <trkpt lat="37.440735000" lon="-5.356586000">
        <ele>120.2</ele>
        <time>2020-10-12T08:23:35Z</time>
      </trkpt>
      <trkpt lat="37.440796000" lon="-5.356490000">
        <ele>120.5</ele>
        <time>2020-10-12T08:23:39Z</time>
      </trkpt>
      <trkpt lat="37.440848000" lon="-5.356399000">
        <ele>121.0</ele>
        <time>2020-10-12T08:23:43Z</time>
      </trkpt>
      <trkpt lat="37.440897000" lon="-5.356300000">
        <ele>121.4</ele>
        <time>2020-10-12T08:23:47Z</time>
      </trkpt>
      <trkpt lat="37.440954000" lon="-5.356191000">
        <ele>121.7</ele>
        <time>2020-10-12T08:23:51Z</time>
      </trkpt>
      <trkpt lat="37.441009000" lon="-5.356082000">
        <ele>122.1</ele>
        <time>2020-10-12T08:23:55Z</time>
      </trkpt>
      <trkpt lat="37.441063000" lon="-5.355968000">
        <ele>122.5</ele>
        <time>2020-10-12T08:23:59Z</time>
      </trkpt>
      <trkpt lat="37.441115000" lon="-5.355861000">
        <ele>122.7</ele>
        <time>2020-10-12T08:24:03Z</time>
      </trkpt>
      <trkpt lat="37.441172000" lon="-5.355745000">
        <ele>123.0</ele>
        <time>2020-10-12T08:24:07Z</time>
      </trkpt>
      <trkpt lat="37.441220000" lon="-5.355626000">
        <ele>123.3</ele>
        <time>2020-10-12T08:24:11Z</time>
      </trkpt>
      <trkpt lat="37.441253000" lon="-5.355533000">
        <ele>123.5</ele>
        <time>2020-10-12T08:24:14Z</time>
      </trkpt>
      <trkpt lat="37.441289000" lon="-5.355439000">
        <ele>123.5</ele>
        <time>2020-10-12T08:24:17Z</time>
      </trkpt>
      <trkpt lat="37.441329000" lon="-5.355338000">
        <ele>123.6</ele>
        <time>2020-10-12T08:24:21Z</time>
      </trkpt>
      <trkpt lat="37.441367000" lon="-5.355236000">
        <ele>123.5</ele>
        <time>2020-10-12T08:24:25Z</time>
      </trkpt>
      <trkpt lat="37.441399000" lon="-5.355122000">
        <ele>123.4</ele>
        <time>2020-10-12T08:24:29Z</time>
      </trkpt>
      <trkpt lat="37.441433000" lon="-5.354993000">
        <ele>122.9</ele>
        <time>2020-10-12T08:24:33Z</time>
      </trkpt>
      <trkpt lat="37.441460000" lon="-5.354891000">
        <ele>122.5</ele>
        <time>2020-10-12T08:24:36Z</time>
      </trkpt>
      <trkpt lat="37.441485000" lon="-5.354788000">
        <ele>121.9</ele>
        <time>2020-10-12T08:24:39Z</time>
      </trkpt>
      <trkpt lat="37.441511000" lon="-5.354686000">
        <ele>121.3</ele>
        <time>2020-10-12T08:24:42Z</time>
      </trkpt>
      <trkpt lat="37.441538000" lon="-5.354577000">
        <ele>120.6</ele>
        <time>2020-10-12T08:24:45Z</time>
      </trkpt>
      <trkpt lat="37.441564000" lon="-5.354459000">
        <ele>120.0</ele>
        <time>2020-10-12T08:24:48Z</time>
      </trkpt>
      <trkpt lat="37.441583000" lon="-5.354344000">
        <ele>119.5</ele>
        <time>2020-10-12T08:24:51Z</time>
      </trkpt>
      <trkpt lat="37.441610000" lon="-5.354239000">
        <ele>119.1</ele>
        <time>2020-10-12T08:24:54Z</time>
      </trkpt>
      <trkpt lat="37.441634000" lon="-5.354127000">
        <ele>118.8</ele>
        <time>2020-10-12T08:24:57Z</time>
      </trkpt>
      <trkpt lat="37.441652000" lon="-5.354008000">
        <ele>118.7</ele>
        <time>2020-10-12T08:25:00Z</time>
      </trkpt>
      <trkpt lat="37.441676000" lon="-5.353887000">
        <ele>118.9</ele>
        <time>2020-10-12T08:25:03Z</time>
      </trkpt>
      <trkpt lat="37.441698000" lon="-5.353767000">
        <ele>119.4</ele>
        <time>2020-10-12T08:25:06Z</time>
      </trkpt>
      <trkpt lat="37.441712000" lon="-5.353655000">
        <ele>119.8</ele>
        <time>2020-10-12T08:25:09Z</time>
      </trkpt>
      <trkpt lat="37.441724000" lon="-5.353542000">
        <ele>120.5</ele>
        <time>2020-10-12T08:25:12Z</time>
      </trkpt>
      <trkpt lat="37.441734000" lon="-5.353428000">
        <ele>121.5</ele>
        <time>2020-10-12T08:25:15Z</time>
      </trkpt>
      <trkpt lat="37.441745000" lon="-5.353296000">
        <ele>122.5</ele>
        <time>2020-10-12T08:25:19Z</time>
      </trkpt>
      <trkpt lat="37.441764000" lon="-5.353172000">
        <ele>123.5</ele>
        <time>2020-10-12T08:25:23Z</time>
      </trkpt>
      <trkpt lat="37.441782000" lon="-5.353052000">
        <ele>124.4</ele>
        <time>2020-10-12T08:25:27Z</time>
      </trkpt>
      <trkpt lat="37.441807000" lon="-5.352927000">
        <ele>125.1</ele>
        <time>2020-10-12T08:25:31Z</time>
      </trkpt>
      <trkpt lat="37.441836000" lon="-5.352796000">
        <ele>125.7</ele>
        <time>2020-10-12T08:25:35Z</time>
      </trkpt>
      <trkpt lat="37.441866000" lon="-5.352668000">
        <ele>126.2</ele>
        <time>2020-10-12T08:25:39Z</time>
      </trkpt>
      <trkpt lat="37.441896000" lon="-5.352539000">
        <ele>126.5</ele>
        <time>2020-10-12T08:25:43Z</time>
      </trkpt>
      <trkpt lat="37.441928000" lon="-5.352412000">
        <ele>126.5</ele>
        <time>2020-10-12T08:25:47Z</time>
      </trkpt>
      <trkpt lat="37.441948000" lon="-5.352310000">
        <ele>126.6</ele>
        <time>2020-10-12T08:25:50Z</time>
      </trkpt>
      <trkpt lat="37.441978000" lon="-5.352181000">
        <ele>126.5</ele>
        <time>2020-10-12T08:25:54Z</time>
      </trkpt>
      <trkpt lat="37.442013000" lon="-5.352057000">
        <ele>126.4</ele>
        <time>2020-10-12T08:25:58Z</time>
      </trkpt>
      <trkpt lat="37.442036000" lon="-5.351959000">
        <ele>126.0</ele>
        <time>2020-10-12T08:26:01Z</time>
      </trkpt>
      <trkpt lat="37.442068000" lon="-5.351838000">
        <ele>125.6</ele>
        <time>2020-10-12T08:26:05Z</time>
      </trkpt>
      <trkpt lat="37.442098000" lon="-5.351725000">
        <ele>125.4</ele>
        <time>2020-10-12T08:26:09Z</time>
      </trkpt>
      <trkpt lat="37.442130000" lon="-5.351606000">
        <ele>125.2</ele>
        <time>2020-10-12T08:26:13Z</time>
      </trkpt>
      <trkpt lat="37.442160000" lon="-5.351493000">
        <ele>125.1</ele>
        <time>2020-10-12T08:26:17Z</time>
      </trkpt>
      <trkpt lat="37.442200000" lon="-5.351382000">
        <ele>125.2</ele>
        <time>2020-10-12T08:26:21Z</time>
      </trkpt>
      <trkpt lat="37.442238000" lon="-5.351268000">
        <ele>125.3</ele>
        <time>2020-10-12T08:26:25Z</time>
      </trkpt>
      <trkpt lat="37.442277000" lon="-5.351149000">
        <ele>125.5</ele>
        <time>2020-10-12T08:26:29Z</time>
      </trkpt>
      <trkpt lat="37.442318000" lon="-5.351039000">
        <ele>125.6</ele>
        <time>2020-10-12T08:26:33Z</time>
      </trkpt>
      <trkpt lat="37.442354000" lon="-5.350935000">
        <ele>125.9</ele>
        <time>2020-10-12T08:26:37Z</time>
      </trkpt>
      <trkpt lat="37.442399000" lon="-5.350823000">
        <ele>126.2</ele>
        <time>2020-10-12T08:26:41Z</time>
      </trkpt>
      <trkpt lat="37.442446000" lon="-5.350714000">
        <ele>126.5</ele>
        <time>2020-10-12T08:26:45Z</time>
      </trkpt>
      <trkpt lat="37.442479000" lon="-5.350614000">
        <ele>127.0</ele>
        <time>2020-10-12T08:26:49Z</time>
      </trkpt>
      <trkpt lat="37.442514000" lon="-5.350512000">
        <ele>127.4</ele>
        <time>2020-10-12T08:26:53Z</time>
      </trkpt>
      <trkpt lat="37.442552000" lon="-5.350401000">
        <ele>127.8</ele>
        <time>2020-10-12T08:26:57Z</time>
      </trkpt>
      <trkpt lat="37.442593000" lon="-5.350280000">
        <ele>128.3</ele>
        <time>2020-10-12T08:27:01Z</time>
      </trkpt>
      <trkpt lat="37.442637000" lon="-5.350159000">
        <ele>128.6</ele>
        <time>2020-10-12T08:27:05Z</time>
      </trkpt>
      <trkpt lat="37.442676000" lon="-5.350038000">
        <ele>129.1</ele>
        <time>2020-10-12T08:27:09Z</time>
      </trkpt>
      <trkpt lat="37.442717000" lon="-5.349928000">
        <ele>129.5</ele>
        <time>2020-10-12T08:27:13Z</time>
      </trkpt>
      <trkpt lat="37.442753000" lon="-5.349822000">
        <ele>130.0</ele>
        <time>2020-10-12T08:27:17Z</time>
      </trkpt>
      <trkpt lat="37.442791000" lon="-5.349717000">
        <ele>130.4</ele>
        <time>2020-10-12T08:27:21Z</time>
      </trkpt>
      <trkpt lat="37.442826000" lon="-5.349618000">
        <ele>130.7</ele>
        <time>2020-10-12T08:27:25Z</time>
      </trkpt>
      <trkpt lat="37.442866000" lon="-5.349514000">
        <ele>131.1</ele>
        <time>2020-10-12T08:27:29Z</time>
      </trkpt>
      <trkpt lat="37.442897000" lon="-5.349403000">
        <ele>131.5</ele>
        <time>2020-10-12T08:27:33Z</time>
      </trkpt>
      <trkpt lat="37.442939000" lon="-5.349292000">
        <ele>131.9</ele>
        <time>2020-10-12T08:27:37Z</time>
      </trkpt>
      <trkpt lat="37.442982000" lon="-5.349184000">
        <ele>132.4</ele>
        <time>2020-10-12T08:27:41Z</time>
      </trkpt>
      <trkpt lat="37.443029000" lon="-5.349081000">
        <ele>132.8</ele>
        <time>2020-10-12T08:27:45Z</time>
      </trkpt>
      <trkpt lat="37.443075000" lon="-5.348982000">
        <ele>133.3</ele>
        <time>2020-10-12T08:27:49Z</time>
      </trkpt>
      <trkpt lat="37.443123000" lon="-5.348878000">
        <ele>133.7</ele>
        <time>2020-10-12T08:27:53Z</time>
      </trkpt>
      <trkpt lat="37.443181000" lon="-5.348776000">
        <ele>134.2</ele>
        <time>2020-10-12T08:27:57Z</time>
      </trkpt>
      <trkpt lat="37.443236000" lon="-5.348675000">
        <ele>134.6</ele>
        <time>2020-10-12T08:28:01Z</time>
      </trkpt>
      <trkpt lat="37.443288000" lon="-5.348584000">
        <ele>135.1</ele>
        <time>2020-10-12T08:28:05Z</time>
      </trkpt>
      <trkpt lat="37.443354000" lon="-5.348493000">
        <ele>135.5</ele>
        <time>2020-10-12T08:28:09Z</time>
      </trkpt>
      <trkpt lat="37.443421000" lon="-5.348391000">
        <ele>135.9</ele>
        <time>2020-10-12T08:28:13Z</time>
      </trkpt>
      <trkpt lat="37.443487000" lon="-5.348283000">
        <ele>136.2</ele>
        <time>2020-10-12T08:28:17Z</time>
      </trkpt>
      <trkpt lat="37.443555000" lon="-5.348184000">
        <ele>136.4</ele>
        <time>2020-10-12T08:28:21Z</time>
      </trkpt>
      <trkpt lat="37.443622000" lon="-5.348092000">
        <ele>136.5</ele>
        <time>2020-10-12T08:28:25Z</time>
      </trkpt>
      <trkpt lat="37.443687000" lon="-5.347996000">
        <ele>136.7</ele>
        <time>2020-10-12T08:28:29Z</time>
      </trkpt>
      <trkpt lat="37.443756000" lon="-5.347905000">
        <ele>137.0</ele>
        <time>2020-10-12T08:28:33Z</time>
      </trkpt>
      <trkpt lat="37.443827000" lon="-5.347819000">
        <ele>137.2</ele>
        <time>2020-10-12T08:28:37Z</time>
      </trkpt>
      <trkpt lat="37.443900000" lon="-5.347738000">
        <ele>137.4</ele>
        <time>2020-10-12T08:28:41Z</time>
      </trkpt>
      <trkpt lat="37.443960000" lon="-5.347663000">
        <ele>137.5</ele>
        <time>2020-10-12T08:28:45Z</time>
      </trkpt>
      <trkpt lat="37.444032000" lon="-5.347590000">
        <ele>137.5</ele>
        <time>2020-10-12T08:28:49Z</time>
      </trkpt>
      <trkpt lat="37.444107000" lon="-5.347520000">
        <ele>137.6</ele>
        <time>2020-10-12T08:28:53Z</time>
      </trkpt>
      <trkpt lat="37.444188000" lon="-5.347446000">
        <ele>137.8</ele>
        <time>2020-10-12T08:28:57Z</time>
      </trkpt>
      <trkpt lat="37.444266000" lon="-5.347382000">
        <ele>138.0</ele>
        <time>2020-10-12T08:29:01Z</time>
      </trkpt>
      <trkpt lat="37.444345000" lon="-5.347314000">
        <ele>138.2</ele>
        <time>2020-10-12T08:29:05Z</time>
      </trkpt>
      <trkpt lat="37.444429000" lon="-5.347251000">
        <ele>138.4</ele>
        <time>2020-10-12T08:29:09Z</time>
      </trkpt>
      <trkpt lat="37.444513000" lon="-5.347187000">
        <ele>138.5</ele>
        <time>2020-10-12T08:29:13Z</time>
      </trkpt>
      <trkpt lat="37.444594000" lon="-5.347126000">
        <ele>138.6</ele>
        <time>2020-10-12T08:29:17Z</time>
      </trkpt>
      <trkpt lat="37.444668000" lon="-5.347057000">
        <ele>138.8</ele>
        <time>2020-10-12T08:29:21Z</time>
      </trkpt>
      <trkpt lat="37.444739000" lon="-5.346992000">
        <ele>139.0</ele>
        <time>2020-10-12T08:29:25Z</time>
      </trkpt>
      <trkpt lat="37.444822000" lon="-5.346939000">
        <ele>139.3</ele>
        <time>2020-10-12T08:29:29Z</time>
      </trkpt>
      <trkpt lat="37.444905000" lon="-5.346887000">
        <ele>139.5</ele>
        <time>2020-10-12T08:29:33Z</time>
      </trkpt>
      <trkpt lat="37.444985000" lon="-5.346824000">
        <ele>139.7</ele>
        <time>2020-10-12T08:29:37Z</time>
      </trkpt>
      <trkpt lat="37.445075000" lon="-5.346776000">
        <ele>139.9</ele>
        <time>2020-10-12T08:29:41Z</time>
      </trkpt>
      <trkpt lat="37.445174000" lon="-5.346719000">
        <ele>140.1</ele>
        <time>2020-10-12T08:29:45Z</time>
      </trkpt>
      <trkpt lat="37.445248000" lon="-5.346673000">
        <ele>140.2</ele>
        <time>2020-10-12T08:29:48Z</time>
      </trkpt>
      <trkpt lat="37.445344000" lon="-5.346618000">
        <ele>140.2</ele>
        <time>2020-10-12T08:29:52Z</time>
      </trkpt>
      <trkpt lat="37.445421000" lon="-5.346583000">
        <ele>140.1</ele>
        <time>2020-10-12T08:29:55Z</time>
      </trkpt>
      <trkpt lat="37.445498000" lon="-5.346549000">
        <ele>140.0</ele>
        <time>2020-10-12T08:29:58Z</time>
      </trkpt>
      <trkpt lat="37.445600000" lon="-5.346506000">
        <ele>139.7</ele>
        <time>2020-10-12T08:30:02Z</time>
      </trkpt>
      <trkpt lat="37.445679000" lon="-5.346478000">
        <ele>139.5</ele>
        <time>2020-10-12T08:30:05Z</time>
      </trkpt>
      <trkpt lat="37.445761000" lon="-5.346454000">
        <ele>139.2</ele>
        <time>2020-10-12T08:30:08Z</time>
      </trkpt>
      <trkpt lat="37.445842000" lon="-5.346432000">
        <ele>138.9</ele>
        <time>2020-10-12T08:30:11Z</time>
      </trkpt>
      <trkpt lat="37.445946000" lon="-5.346408000">
        <ele>138.7</ele>
        <time>2020-10-12T08:30:15Z</time>
      </trkpt>
      <trkpt lat="37.446028000" lon="-5.346387000">
        <ele>138.6</ele>
        <time>2020-10-12T08:30:18Z</time>
      </trkpt>
      <trkpt lat="37.446110000" lon="-5.346369000">
        <ele>138.5</ele>
        <time>2020-10-12T08:30:21Z</time>
      </trkpt>
      <trkpt lat="37.446216000" lon="-5.346350000">
        <ele>138.6</ele>
        <time>2020-10-12T08:30:25Z</time>
      </trkpt>
      <trkpt lat="37.446297000" lon="-5.346334000">
        <ele>138.7</ele>
        <time>2020-10-12T08:30:28Z</time>
      </trkpt>
      <trkpt lat="37.446399000" lon="-5.346314000">
        <ele>138.8</ele>
        <time>2020-10-12T08:30:32Z</time>
      </trkpt>
      <trkpt lat="37.446501000" lon="-5.346295000">
        <ele>138.9</ele>
        <time>2020-10-12T08:30:36Z</time>
      </trkpt>
      <trkpt lat="37.446594000" lon="-5.346281000">
        <ele>139.1</ele>
        <time>2020-10-12T08:30:40Z</time>
      </trkpt>
      <trkpt lat="37.446692000" lon="-5.346279000">
        <ele>139.2</ele>
        <time>2020-10-12T08:30:44Z</time>
      </trkpt>
      <trkpt lat="37.446786000" lon="-5.346270000">
        <ele>139.3</ele>
        <time>2020-10-12T08:30:48Z</time>
      </trkpt>
      <trkpt lat="37.446879000" lon="-5.346262000">
        <ele>139.4</ele>
        <time>2020-10-12T08:30:52Z</time>
      </trkpt>
      <trkpt lat="37.446961000" lon="-5.346238000">
        <ele>139.5</ele>
        <time>2020-10-12T08:30:56Z</time>
      </trkpt>
      <trkpt lat="37.447048000" lon="-5.346215000">
        <ele>139.5</ele>
        <time>2020-10-12T08:31:00Z</time>
      </trkpt>
      <trkpt lat="37.447145000" lon="-5.346198000">
        <ele>139.5</ele>
        <time>2020-10-12T08:31:04Z</time>
      </trkpt>
      <trkpt lat="37.447243000" lon="-5.346184000">
        <ele>139.5</ele>
        <time>2020-10-12T08:31:07Z</time>
      </trkpt>
      <trkpt lat="37.447338000" lon="-5.346170000">
        <ele>139.5</ele>
        <time>2020-10-12T08:31:10Z</time>
      </trkpt>
      <trkpt lat="37.447436000" lon="-5.346166000">
        <ele>139.5</ele>
        <time>2020-10-12T08:31:13Z</time>
      </trkpt>
      <trkpt lat="37.447535000" lon="-5.346152000">
        <ele>139.5</ele>
        <time>2020-10-12T08:31:16Z</time>
      </trkpt>
      <trkpt lat="37.447632000" lon="-5.346138000">
        <ele>139.5</ele>
        <time>2020-10-12T08:31:19Z</time>
      </trkpt>
      <trkpt lat="37.447722000" lon="-5.346122000">
        <ele>139.6</ele>
        <time>2020-10-12T08:31:22Z</time>
      </trkpt>
      <trkpt lat="37.447809000" lon="-5.346112000">
        <ele>139.7</ele>
        <time>2020-10-12T08:31:25Z</time>
      </trkpt>
      <trkpt lat="37.447891000" lon="-5.346101000">
        <ele>139.8</ele>
        <time>2020-10-12T08:31:28Z</time>
      </trkpt>
      <trkpt lat="37.447994000" lon="-5.346095000">
        <ele>139.9</ele>
        <time>2020-10-12T08:31:32Z</time>
      </trkpt>
      <trkpt lat="37.448093000" lon="-5.346099000">
        <ele>140.0</ele>
        <time>2020-10-12T08:31:36Z</time>
      </trkpt>
      <trkpt lat="37.448193000" lon="-5.346082000">
        <ele>140.0</ele>
        <time>2020-10-12T08:31:40Z</time>
      </trkpt>
      <trkpt lat="37.448289000" lon="-5.346058000">
        <ele>140.0</ele>
        <time>2020-10-12T08:31:44Z</time>
      </trkpt>
      <trkpt lat="37.448391000" lon="-5.346044000">
        <ele>140.0</ele>
        <time>2020-10-12T08:31:48Z</time>
      </trkpt>
      <trkpt lat="37.448472000" lon="-5.346033000">
        <ele>140.0</ele>
        <time>2020-10-12T08:31:51Z</time>
      </trkpt>
      <trkpt lat="37.448556000" lon="-5.346020000">
        <ele>140.0</ele>
        <time>2020-10-12T08:31:54Z</time>
      </trkpt>
      <trkpt lat="37.448641000" lon="-5.346003000">
        <ele>140.0</ele>
        <time>2020-10-12T08:31:57Z</time>
      </trkpt>
      <trkpt lat="37.448743000" lon="-5.345981000">
        <ele>140.0</ele>
        <time>2020-10-12T08:32:01Z</time>
      </trkpt>
      <trkpt lat="37.448842000" lon="-5.345953000">
        <ele>140.1</ele>
        <time>2020-10-12T08:32:05Z</time>
      </trkpt>
      <trkpt lat="37.448947000" lon="-5.345946000">
        <ele>140.2</ele>
        <time>2020-10-12T08:32:09Z</time>
      </trkpt>
      <trkpt lat="37.449050000" lon="-5.345928000">
        <ele>140.3</ele>
        <time>2020-10-12T08:32:13Z</time>
      </trkpt>
      <trkpt lat="37.449133000" lon="-5.345918000">
        <ele>140.3</ele>
        <time>2020-10-12T08:32:16Z</time>
      </trkpt>
      <trkpt lat="37.449217000" lon="-5.345908000">
        <ele>140.3</ele>
        <time>2020-10-12T08:32:19Z</time>
      </trkpt>
      <trkpt lat="37.449299000" lon="-5.345897000">
        <ele>140.3</ele>
        <time>2020-10-12T08:32:22Z</time>
      </trkpt>
      <trkpt lat="37.449405000" lon="-5.345880000">
        <ele>140.4</ele>
        <time>2020-10-12T08:32:26Z</time>
      </trkpt>
      <trkpt lat="37.449510000" lon="-5.345865000">
        <ele>140.5</ele>
        <time>2020-10-12T08:32:30Z</time>
      </trkpt>
      <trkpt lat="37.449607000" lon="-5.345847000">
        <ele>140.5</ele>
        <time>2020-10-12T08:32:34Z</time>
      </trkpt>
      <trkpt lat="37.449703000" lon="-5.345823000">
        <ele>140.7</ele>
        <time>2020-10-12T08:32:38Z</time>
      </trkpt>
      <trkpt lat="37.449807000" lon="-5.345810000">
        <ele>140.9</ele>
        <time>2020-10-12T08:32:42Z</time>
      </trkpt>
      <trkpt lat="37.449904000" lon="-5.345796000">
        <ele>141.0</ele>
        <time>2020-10-12T08:32:46Z</time>
      </trkpt>
      <trkpt lat="37.450004000" lon="-5.345784000">
        <ele>141.1</ele>
        <time>2020-10-12T08:32:50Z</time>
      </trkpt>
      <trkpt lat="37.450096000" lon="-5.345769000">
        <ele>141.2</ele>
        <time>2020-10-12T08:32:54Z</time>
      </trkpt>
      <trkpt lat="37.450182000" lon="-5.345766000">
        <ele>141.3</ele>
        <time>2020-10-12T08:32:58Z</time>
      </trkpt>
      <trkpt lat="37.450268000" lon="-5.345742000">
        <ele>141.4</ele>
        <time>2020-10-12T08:33:02Z</time>
      </trkpt>
      <trkpt lat="37.450356000" lon="-5.345723000">
        <ele>141.5</ele>
        <time>2020-10-12T08:33:06Z</time>
      </trkpt>
      <trkpt lat="37.450442000" lon="-5.345705000">
        <ele>141.5</ele>
        <time>2020-10-12T08:33:10Z</time>
      </trkpt>
      <trkpt lat="37.450523000" lon="-5.345693000">
        <ele>141.5</ele>
        <time>2020-10-12T08:33:14Z</time>
      </trkpt>
      <trkpt lat="37.450616000" lon="-5.345691000">
        <ele>141.5</ele>
        <time>2020-10-12T08:33:18Z</time>
      </trkpt>
      <trkpt lat="37.450698000" lon="-5.345674000">
        <ele>141.4</ele>
        <time>2020-10-12T08:33:22Z</time>
      </trkpt>
      <trkpt lat="37.450792000" lon="-5.345653000">
        <ele>141.3</ele>
        <time>2020-10-12T08:33:26Z</time>
      </trkpt>
      <trkpt lat="37.450899000" lon="-5.345635000">
        <ele>141.2</ele>
        <time>2020-10-12T08:33:30Z</time>
      </trkpt>
      <trkpt lat="37.450997000" lon="-5.345621000">
        <ele>141.1</ele>
        <time>2020-10-12T08:33:34Z</time>
      </trkpt>
      <trkpt lat="37.451099000" lon="-5.345616000">
        <ele>141.0</ele>
        <time>2020-10-12T08:33:38Z</time>
      </trkpt>
      <trkpt lat="37.451203000" lon="-5.345606000">
        <ele>141.0</ele>
        <time>2020-10-12T08:33:42Z</time>
      </trkpt>
      <trkpt lat="37.451286000" lon="-5.345598000">
        <ele>141.0</ele>
        <time>2020-10-12T08:33:45Z</time>
      </trkpt>
      <trkpt lat="37.451387000" lon="-5.345581000">
        <ele>141.1</ele>
        <time>2020-10-12T08:33:49Z</time>
      </trkpt>
      <trkpt lat="37.451490000" lon="-5.345568000">
        <ele>141.2</ele>
        <time>2020-10-12T08:33:53Z</time>
      </trkpt>
      <trkpt lat="37.451590000" lon="-5.345544000">
        <ele>141.4</ele>
        <time>2020-10-12T08:33:57Z</time>
      </trkpt>
      <trkpt lat="37.451694000" lon="-5.345525000">
        <ele>141.6</ele>
        <time>2020-10-12T08:34:01Z</time>
      </trkpt>
      <trkpt lat="37.451789000" lon="-5.345512000">
        <ele>142.0</ele>
        <time>2020-10-12T08:34:05Z</time>
      </trkpt>
      <trkpt lat="37.451886000" lon="-5.345505000">
        <ele>142.4</ele>
        <time>2020-10-12T08:34:09Z</time>
      </trkpt>
      <trkpt lat="37.451970000" lon="-5.345498000">
        <ele>142.7</ele>
        <time>2020-10-12T08:34:12Z</time>
      </trkpt>
      <trkpt lat="37.452053000" lon="-5.345479000">
        <ele>143.1</ele>
        <time>2020-10-12T08:34:15Z</time>
      </trkpt>
      <trkpt lat="37.452149000" lon="-5.345464000">
        <ele>143.5</ele>
        <time>2020-10-12T08:34:19Z</time>
      </trkpt>
      <trkpt lat="37.452230000" lon="-5.345449000">
        <ele>143.8</ele>
        <time>2020-10-12T08:34:22Z</time>
      </trkpt>
      <trkpt lat="37.452327000" lon="-5.345436000">
        <ele>144.2</ele>
        <time>2020-10-12T08:34:26Z</time>
      </trkpt>
      <trkpt lat="37.452417000" lon="-5.345416000">
        <ele>144.5</ele>
        <time>2020-10-12T08:34:30Z</time>
      </trkpt>
      <trkpt lat="37.452500000" lon="-5.345402000">
        <ele>144.7</ele>
        <time>2020-10-12T08:34:34Z</time>
      </trkpt>
      <trkpt lat="37.452589000" lon="-5.345392000">
        <ele>144.8</ele>
        <time>2020-10-12T08:34:38Z</time>
      </trkpt>
      <trkpt lat="37.452689000" lon="-5.345373000">
        <ele>144.8</ele>
        <time>2020-10-12T08:34:43Z</time>
      </trkpt>
      <trkpt lat="37.452786000" lon="-5.345360000">
        <ele>144.6</ele>
        <time>2020-10-12T08:34:48Z</time>
      </trkpt>
      <trkpt lat="37.452883000" lon="-5.345363000">
        <ele>144.5</ele>
        <time>2020-10-12T08:34:53Z</time>
      </trkpt>
      <trkpt lat="37.452980000" lon="-5.345349000">
        <ele>144.3</ele>
        <time>2020-10-12T08:34:58Z</time>
      </trkpt>
      <trkpt lat="37.453063000" lon="-5.345333000">
        <ele>144.1</ele>
        <time>2020-10-12T08:35:02Z</time>
      </trkpt>
      <trkpt lat="37.453149000" lon="-5.345315000">
        <ele>143.9</ele>
        <time>2020-10-12T08:35:06Z</time>
      </trkpt>
      <trkpt lat="37.453235000" lon="-5.345302000">
        <ele>143.7</ele>
        <time>2020-10-12T08:35:10Z</time>
      </trkpt>
      <trkpt lat="37.453329000" lon="-5.345295000">
        <ele>143.6</ele>
        <time>2020-10-12T08:35:14Z</time>
      </trkpt>
      <trkpt lat="37.453426000" lon="-5.345278000">
        <ele>143.5</ele>
        <time>2020-10-12T08:35:18Z</time>
      </trkpt>
      <trkpt lat="37.453514000" lon="-5.345263000">
        <ele>143.5</ele>
        <time>2020-10-12T08:35:22Z</time>
      </trkpt>
      <trkpt lat="37.453601000" lon="-5.345257000">
        <ele>143.5</ele>
        <time>2020-10-12T08:35:26Z</time>
      </trkpt>
      <trkpt lat="37.453686000" lon="-5.345240000">
        <ele>143.5</ele>
        <time>2020-10-12T08:35:30Z</time>
      </trkpt>
      <trkpt lat="37.453792000" lon="-5.345228000">
        <ele>143.5</ele>
        <time>2020-10-12T08:35:34Z</time>
      </trkpt>
      <trkpt lat="37.453891000" lon="-5.345217000">
        <ele>143.6</ele>
        <time>2020-10-12T08:35:38Z</time>
      </trkpt>
      <trkpt lat="37.453972000" lon="-5.345203000">
        <ele>143.8</ele>
        <time>2020-10-12T08:35:42Z</time>
      </trkpt>
      <trkpt lat="37.454054000" lon="-5.345188000">
        <ele>144.0</ele>
        <time>2020-10-12T08:35:46Z</time>
      </trkpt>
      <trkpt lat="37.454149000" lon="-5.345172000">
        <ele>144.3</ele>
        <time>2020-10-12T08:35:50Z</time>
      </trkpt>
      <trkpt lat="37.454247000" lon="-5.345153000">
        <ele>144.5</ele>
        <time>2020-10-12T08:35:54Z</time>
      </trkpt>
      <trkpt lat="37.454331000" lon="-5.345142000">
        <ele>144.8</ele>
        <time>2020-10-12T08:35:57Z</time>
      </trkpt>
      <trkpt lat="37.454437000" lon="-5.345123000">
        <ele>145.1</ele>
        <time>2020-10-12T08:36:01Z</time>
      </trkpt>
      <trkpt lat="37.454539000" lon="-5.345102000">
        <ele>145.5</ele>
        <time>2020-10-12T08:36:05Z</time>
      </trkpt>
      <trkpt lat="37.454632000" lon="-5.345085000">
        <ele>145.8</ele>
        <time>2020-10-12T08:36:09Z</time>
      </trkpt>
      <trkpt lat="37.454717000" lon="-5.345096000">
        <ele>146.2</ele>
        <time>2020-10-12T08:36:13Z</time>
      </trkpt>
      <trkpt lat="37.454800000" lon="-5.345058000">
        <ele>146.5</ele>
        <time>2020-10-12T08:36:17Z</time>
      </trkpt>
      <trkpt lat="37.454899000" lon="-5.345044000">
        <ele>147.0</ele>
        <time>2020-10-12T08:36:21Z</time>
      </trkpt>
      <trkpt lat="37.454999000" lon="-5.345031000">
        <ele>147.4</ele>
        <time>2020-10-12T08:36:25Z</time>
      </trkpt>
      <trkpt lat="37.455082000" lon="-5.345024000">
        <ele>147.8</ele>
        <time>2020-10-12T08:36:29Z</time>
      </trkpt>
      <trkpt lat="37.455174000" lon="-5.345006000">
        <ele>148.3</ele>
        <time>2020-10-12T08:36:34Z</time>
      </trkpt>
      <trkpt lat="37.455270000" lon="-5.345000000">
        <ele>148.7</ele>
        <time>2020-10-12T08:36:40Z</time>
      </trkpt>
      <trkpt lat="37.455356000" lon="-5.344983000">
        <ele>149.2</ele>
        <time>2020-10-12T08:36:44Z</time>
      </trkpt>
      <trkpt lat="37.455439000" lon="-5.344960000">
        <ele>149.6</ele>
        <time>2020-10-12T08:36:48Z</time>
      </trkpt>
      <trkpt lat="37.455538000" lon="-5.344935000">
        <ele>150.0</ele>
        <time>2020-10-12T08:36:52Z</time>
      </trkpt>
      <trkpt lat="37.455634000" lon="-5.344928000">
        <ele>150.4</ele>
        <time>2020-10-12T08:36:56Z</time>
      </trkpt>
      <trkpt lat="37.455728000" lon="-5.344917000">
        <ele>150.7</ele>
        <time>2020-10-12T08:37:00Z</time>
      </trkpt>
      <trkpt lat="37.455828000" lon="-5.344898000">
        <ele>151.2</ele>
        <time>2020-10-12T08:37:05Z</time>
      </trkpt>
      <trkpt lat="37.455922000" lon="-5.344883000">
        <ele>151.6</ele>
        <time>2020-10-12T08:37:09Z</time>
      </trkpt>
      <trkpt lat="37.456012000" lon="-5.344866000">
        <ele>152.2</ele>
        <time>2020-10-12T08:37:13Z</time>
      </trkpt>
      <trkpt lat="37.456102000" lon="-5.344854000">
        <ele>152.7</ele>
        <time>2020-10-12T08:37:17Z</time>
      </trkpt>
      <trkpt lat="37.456190000" lon="-5.344846000">
        <ele>153.3</ele>
        <time>2020-10-12T08:37:21Z</time>
      </trkpt>
      <trkpt lat="37.456274000" lon="-5.344830000">
        <ele>153.8</ele>
        <time>2020-10-12T08:37:25Z</time>
      </trkpt>
      <trkpt lat="37.456373000" lon="-5.344817000">
        <ele>154.3</ele>
        <time>2020-10-12T08:37:29Z</time>
      </trkpt>
      <trkpt lat="37.456469000" lon="-5.344802000">
        <ele>154.7</ele>
        <time>2020-10-12T08:37:33Z</time>
      </trkpt>
      <trkpt lat="37.456560000" lon="-5.344788000">
        <ele>155.2</ele>
        <time>2020-10-12T08:37:37Z</time>
      </trkpt>
      <trkpt lat="37.456664000" lon="-5.344782000">
        <ele>155.7</ele>
        <time>2020-10-12T08:37:41Z</time>
      </trkpt>
      <trkpt lat="37.456745000" lon="-5.344777000">
        <ele>156.3</ele>
        <time>2020-10-12T08:37:45Z</time>
      </trkpt>
      <trkpt lat="37.456838000" lon="-5.344773000">
        <ele>156.7</ele>
        <time>2020-10-12T08:37:48Z</time>
      </trkpt>
      <trkpt lat="37.456928000" lon="-5.344773000">
        <ele>157.1</ele>
        <time>2020-10-12T08:37:52Z</time>
      </trkpt>
      <trkpt lat="37.457009000" lon="-5.344763000">
        <ele>157.4</ele>
        <time>2020-10-12T08:37:56Z</time>
      </trkpt>
      <trkpt lat="37.457104000" lon="-5.344742000">
        <ele>157.5</ele>
        <time>2020-10-12T08:38:01Z</time>
      </trkpt>
      <trkpt lat="37.457210000" lon="-5.344715000">
        <ele>157.6</ele>
        <time>2020-10-12T08:38:06Z</time>
      </trkpt>
      <trkpt lat="37.457293000" lon="-5.344694000">
        <ele>157.7</ele>
        <time>2020-10-12T08:38:10Z</time>
      </trkpt>
      <trkpt lat="37.457379000" lon="-5.344683000">
        <ele>157.8</ele>
        <time>2020-10-12T08:38:14Z</time>
      </trkpt>
      <trkpt lat="37.457466000" lon="-5.344671000">
        <ele>157.9</ele>
        <time>2020-10-12T08:38:18Z</time>
      </trkpt>
      <trkpt lat="37.457563000" lon="-5.344665000">
        <ele>158.0</ele>
        <time>2020-10-12T08:38:23Z</time>
      </trkpt>
      <trkpt lat="37.457656000" lon="-5.344658000">
        <ele>158.0</ele>
        <time>2020-10-12T08:38:27Z</time>
      </trkpt>
      <trkpt lat="37.457752000" lon="-5.344646000">
        <ele>158.0</ele>
        <time>2020-10-12T08:38:31Z</time>
      </trkpt>
      <trkpt lat="37.457841000" lon="-5.344624000">
        <ele>158.1</ele>
        <time>2020-10-12T08:38:35Z</time>
      </trkpt>
      <trkpt lat="37.457922000" lon="-5.344618000">
        <ele>158.2</ele>
        <time>2020-10-12T08:38:39Z</time>
      </trkpt>
      <trkpt lat="37.458015000" lon="-5.344593000">
        <ele>158.3</ele>
        <time>2020-10-12T08:38:45Z</time>
      </trkpt>
      <trkpt lat="37.458079000" lon="-5.344661000">
        <ele>158.5</ele>
        <time>2020-10-12T08:38:52Z</time>
      </trkpt>
      <trkpt lat="37.458112000" lon="-5.344780000">
        <ele>158.6</ele>
        <time>2020-10-12T08:38:56Z</time>
      </trkpt>
      <trkpt lat="37.458154000" lon="-5.344900000">
        <ele>158.9</ele>
        <time>2020-10-12T08:39:00Z</time>
      </trkpt>
      <trkpt lat="37.458213000" lon="-5.345011000">
        <ele>159.2</ele>
        <time>2020-10-12T08:39:04Z</time>
      </trkpt>
      <trkpt lat="37.458268000" lon="-5.345113000">
        <ele>159.5</ele>
        <time>2020-10-12T08:39:08Z</time>
      </trkpt>
      <trkpt lat="37.458323000" lon="-5.345218000">
        <ele>159.7</ele>
        <time>2020-10-12T08:39:12Z</time>
      </trkpt>
      <trkpt lat="37.458393000" lon="-5.345305000">
        <ele>160.0</ele>
        <time>2020-10-12T08:39:16Z</time>
      </trkpt>
      <trkpt lat="37.458467000" lon="-5.345381000">
        <ele>160.3</ele>
        <time>2020-10-12T08:39:20Z</time>
      </trkpt>
      <trkpt lat="37.458554000" lon="-5.345457000">
        <ele>160.5</ele>
        <time>2020-10-12T08:39:24Z</time>
      </trkpt>
      <trkpt lat="37.458619000" lon="-5.345521000">
        <ele>160.6</ele>
        <time>2020-10-12T08:39:27Z</time>
      </trkpt>
      <trkpt lat="37.458690000" lon="-5.345618000">
        <ele>160.8</ele>
        <time>2020-10-12T08:39:31Z</time>
      </trkpt>
      <trkpt lat="37.458751000" lon="-5.345721000">
        <ele>160.9</ele>
        <time>2020-10-12T08:39:35Z</time>
      </trkpt>
      <trkpt lat="37.458796000" lon="-5.345822000">
        <ele>161.0</ele>
        <time>2020-10-12T08:39:39Z</time>
      </trkpt>
      <trkpt lat="37.458837000" lon="-5.345928000">
        <ele>161.0</ele>
        <time>2020-10-12T08:39:44Z</time>
      </trkpt>
      <trkpt lat="37.458882000" lon="-5.346041000">
        <ele>161.0</ele>
        <time>2020-10-12T08:39:49Z</time>
      </trkpt>
      <trkpt lat="37.458932000" lon="-5.346137000">
        <ele>161.1</ele>
        <time>2020-10-12T08:39:53Z</time>
      </trkpt>
      <trkpt lat="37.458979000" lon="-5.346230000">
        <ele>161.4</ele>
        <time>2020-10-12T08:39:57Z</time>
      </trkpt>
      <trkpt lat="37.459033000" lon="-5.346319000">
        <ele>161.9</ele>
        <time>2020-10-12T08:40:01Z</time>
      </trkpt>
      <trkpt lat="37.459077000" lon="-5.346406000">
        <ele>162.6</ele>
        <time>2020-10-12T08:40:05Z</time>
      </trkpt>
      <trkpt lat="37.459136000" lon="-5.346487000">
        <ele>163.5</ele>
        <time>2020-10-12T08:40:09Z</time>
      </trkpt>
      <trkpt lat="37.459199000" lon="-5.346567000">
        <ele>164.4</ele>
        <time>2020-10-12T08:40:13Z</time>
      </trkpt>
      <trkpt lat="37.459271000" lon="-5.346650000">
        <ele>165.3</ele>
        <time>2020-10-12T08:40:18Z</time>
      </trkpt>
      <trkpt lat="37.459353000" lon="-5.346701000">
        <ele>166.3</ele>
        <time>2020-10-12T08:40:23Z</time>
      </trkpt>
      <trkpt lat="37.459443000" lon="-5.346744000">
        <ele>167.3</ele>
        <time>2020-10-12T08:40:28Z</time>
      </trkpt>
      <trkpt lat="37.459527000" lon="-5.346736000">
        <ele>168.2</ele>
        <time>2020-10-12T08:40:35Z</time>
      </trkpt>
      <trkpt lat="37.459550000" lon="-5.346628000">
        <ele>169.1</ele>
        <time>2020-10-12T08:40:39Z</time>
      </trkpt>
      <trkpt lat="37.459573000" lon="-5.346510000">
        <ele>169.7</ele>
        <time>2020-10-12T08:40:43Z</time>
      </trkpt>
      <trkpt lat="37.459609000" lon="-5.346387000">
        <ele>170.1</ele>
        <time>2020-10-12T08:40:47Z</time>
      </trkpt>
      <trkpt lat="37.459643000" lon="-5.346286000">
        <ele>170.2</ele>
        <time>2020-10-12T08:40:50Z</time>
      </trkpt>
      <trkpt lat="37.459683000" lon="-5.346184000">
        <ele>170.0</ele>
        <time>2020-10-12T08:40:53Z</time>
      </trkpt>
      <trkpt lat="37.459733000" lon="-5.346081000">
        <ele>169.8</ele>
        <time>2020-10-12T08:40:56Z</time>
      </trkpt>
      <trkpt lat="37.459791000" lon="-5.345982000">
        <ele>169.5</ele>
        <time>2020-10-12T08:40:59Z</time>
      </trkpt>
      <trkpt lat="37.459859000" lon="-5.345879000">
        <ele>169.3</ele>
        <time>2020-10-12T08:41:02Z</time>
      </trkpt>
      <trkpt lat="37.459930000" lon="-5.345777000">
        <ele>168.9</ele>
        <time>2020-10-12T08:41:05Z</time>
      </trkpt>
      <trkpt lat="37.459998000" lon="-5.345682000">
        <ele>168.5</ele>
        <time>2020-10-12T08:41:08Z</time>
      </trkpt>
      <trkpt lat="37.460067000" lon="-5.345584000">
        <ele>168.1</ele>
        <time>2020-10-12T08:41:11Z</time>
      </trkpt>
      <trkpt lat="37.460145000" lon="-5.345481000">
        <ele>167.6</ele>
        <time>2020-10-12T08:41:14Z</time>
      </trkpt>
      <trkpt lat="37.460200000" lon="-5.345406000">
        <ele>167.3</ele>
        <time>2020-10-12T08:41:16Z</time>
      </trkpt>
      <trkpt lat="37.460282000" lon="-5.345297000">
        <ele>166.9</ele>
        <time>2020-10-12T08:41:19Z</time>
      </trkpt>
      <trkpt lat="37.460337000" lon="-5.345221000">
        <ele>166.5</ele>
        <time>2020-10-12T08:41:21Z</time>
      </trkpt>
      <trkpt lat="37.460400000" lon="-5.345143000">
        <ele>166.1</ele>
        <time>2020-10-12T08:41:23Z</time>
      </trkpt>
      <trkpt lat="37.460467000" lon="-5.345060000">
        <ele>165.6</ele>
        <time>2020-10-12T08:41:25Z</time>
      </trkpt>
      <trkpt lat="37.460534000" lon="-5.344981000">
        <ele>165.2</ele>
        <time>2020-10-12T08:41:27Z</time>
      </trkpt>
      <trkpt lat="37.460600000" lon="-5.344900000">
        <ele>164.7</ele>
        <time>2020-10-12T08:41:29Z</time>
      </trkpt>
      <trkpt lat="37.460658000" lon="-5.344829000">
        <ele>164.4</ele>
        <time>2020-10-12T08:41:31Z</time>
      </trkpt>
      <trkpt lat="37.460749000" lon="-5.344728000">
        <ele>164.1</ele>
        <time>2020-10-12T08:41:34Z</time>
      </trkpt>
      <trkpt lat="37.460820000" lon="-5.344665000">
        <ele>163.8</ele>
        <time>2020-10-12T08:41:36Z</time>
      </trkpt>
      <trkpt lat="37.460894000" lon="-5.344602000">
        <ele>163.7</ele>
        <time>2020-10-12T08:41:38Z</time>
      </trkpt>
      <trkpt lat="37.460973000" lon="-5.344552000">
        <ele>163.7</ele>
        <time>2020-10-12T08:41:40Z</time>
      </trkpt>
      <trkpt lat="37.461049000" lon="-5.344509000">
        <ele>163.8</ele>
        <time>2020-10-12T08:41:42Z</time>
      </trkpt>
      <trkpt lat="37.461154000" lon="-5.344443000">
        <ele>164.0</ele>
        <time>2020-10-12T08:41:45Z</time>
      </trkpt>
      <trkpt lat="37.461256000" lon="-5.344382000">
        <ele>164.2</ele>
        <time>2020-10-12T08:41:48Z</time>
      </trkpt>
      <trkpt lat="37.461357000" lon="-5.344326000">
        <ele>164.4</ele>
        <time>2020-10-12T08:41:51Z</time>
      </trkpt>
      <trkpt lat="37.461455000" lon="-5.344278000">
        <ele>164.5</ele>
        <time>2020-10-12T08:41:54Z</time>
      </trkpt>
      <trkpt lat="37.461549000" lon="-5.344233000">
        <ele>164.8</ele>
        <time>2020-10-12T08:41:57Z</time>
      </trkpt>
      <trkpt lat="37.461639000" lon="-5.344181000">
        <ele>165.1</ele>
        <time>2020-10-12T08:42:00Z</time>
      </trkpt>
      <trkpt lat="37.461735000" lon="-5.344136000">
        <ele>165.5</ele>
        <time>2020-10-12T08:42:03Z</time>
      </trkpt>
      <trkpt lat="37.461834000" lon="-5.344075000">
        <ele>165.8</ele>
        <time>2020-10-12T08:42:06Z</time>
      </trkpt>
      <trkpt lat="37.461930000" lon="-5.344018000">
        <ele>166.1</ele>
        <time>2020-10-12T08:42:09Z</time>
      </trkpt>
      <trkpt lat="37.462017000" lon="-5.343958000">
        <ele>166.4</ele>
        <time>2020-10-12T08:42:12Z</time>
      </trkpt>
      <trkpt lat="37.462111000" lon="-5.343897000">
        <ele>166.6</ele>
        <time>2020-10-12T08:42:15Z</time>
      </trkpt>
      <trkpt lat="37.462202000" lon="-5.343829000">
        <ele>166.8</ele>
        <time>2020-10-12T08:42:18Z</time>
      </trkpt>
      <trkpt lat="37.462289000" lon="-5.343753000">
        <ele>167.0</ele>
        <time>2020-10-12T08:42:21Z</time>
      </trkpt>
      <trkpt lat="37.462374000" lon="-5.343686000">
        <ele>167.1</ele>
        <time>2020-10-12T08:42:24Z</time>
      </trkpt>
      <trkpt lat="37.462466000" lon="-5.343616000">
        <ele>167.2</ele>
        <time>2020-10-12T08:42:27Z</time>
      </trkpt>
      <trkpt lat="37.462554000" lon="-5.343553000">
        <ele>167.2</ele>
        <time>2020-10-12T08:42:30Z</time>
      </trkpt>
      <trkpt lat="37.462634000" lon="-5.343498000">
        <ele>167.0</ele>
        <time>2020-10-12T08:42:33Z</time>
      </trkpt>
      <trkpt lat="37.462713000" lon="-5.343441000">
        <ele>166.7</ele>
        <time>2020-10-12T08:42:36Z</time>
      </trkpt>
      <trkpt lat="37.462785000" lon="-5.343383000">
        <ele>166.5</ele>
        <time>2020-10-12T08:42:39Z</time>
      </trkpt>
      <trkpt lat="37.462865000" lon="-5.343322000">
        <ele>166.5</ele>
        <time>2020-10-12T08:42:43Z</time>
      </trkpt>
      <trkpt lat="37.462932000" lon="-5.343255000">
        <ele>166.4</ele>
        <time>2020-10-12T08:42:51Z</time>
      </trkpt>
      <trkpt lat="37.462996000" lon="-5.343189000">
        <ele>166.3</ele>
        <time>2020-10-12T08:42:55Z</time>
      </trkpt>
      <trkpt lat="37.463084000" lon="-5.343123000">
        <ele>166.4</ele>
        <time>2020-10-12T08:42:59Z</time>
      </trkpt>
      <trkpt lat="37.463170000" lon="-5.343050000">
        <ele>166.5</ele>
        <time>2020-10-12T08:43:03Z</time>
      </trkpt>
      <trkpt lat="37.463255000" lon="-5.342981000">
        <ele>166.6</ele>
        <time>2020-10-12T08:43:07Z</time>
      </trkpt>
      <trkpt lat="37.463334000" lon="-5.342917000">
        <ele>166.8</ele>
        <time>2020-10-12T08:43:13Z</time>
      </trkpt>
      <trkpt lat="37.463403000" lon="-5.342854000">
        <ele>167.1</ele>
        <time>2020-10-12T08:43:19Z</time>
      </trkpt>
      <trkpt lat="37.463475000" lon="-5.342802000">
        <ele>167.5</ele>
        <time>2020-10-12T08:43:25Z</time>
      </trkpt>
      <trkpt lat="37.463552000" lon="-5.342763000">
        <ele>167.8</ele>
        <time>2020-10-12T08:43:29Z</time>
      </trkpt>
      <trkpt lat="37.463627000" lon="-5.342710000">
        <ele>168.2</ele>
        <time>2020-10-12T08:43:35Z</time>
      </trkpt>
      <trkpt lat="37.463658000" lon="-5.342822000">
        <ele>168.5</ele>
        <time>2020-10-12T08:43:41Z</time>
      </trkpt>
      <trkpt lat="37.463632000" lon="-5.342950000">
        <ele>168.6</ele>
        <time>2020-10-12T08:43:44Z</time>
      </trkpt>
      <trkpt lat="37.463607000" lon="-5.343076000">
        <ele>168.8</ele>
        <time>2020-10-12T08:43:47Z</time>
      </trkpt>
      <trkpt lat="37.463578000" lon="-5.343188000">
        <ele>168.9</ele>
        <time>2020-10-12T08:43:50Z</time>
      </trkpt>
      <trkpt lat="37.463560000" lon="-5.343295000">
        <ele>169.0</ele>
        <time>2020-10-12T08:43:53Z</time>
      </trkpt>
      <trkpt lat="37.463550000" lon="-5.343403000">
        <ele>169.2</ele>
        <time>2020-10-12T08:43:56Z</time>
      </trkpt>
      <trkpt lat="37.463539000" lon="-5.343506000">
        <ele>169.4</ele>
        <time>2020-10-12T08:43:59Z</time>
      </trkpt>
      <trkpt lat="37.463525000" lon="-5.343608000">
        <ele>169.5</ele>
        <time>2020-10-12T08:44:03Z</time>
      </trkpt>
      <trkpt lat="37.463496000" lon="-5.343741000">
        <ele>169.7</ele>
        <time>2020-10-12T08:44:07Z</time>
      </trkpt>
      <trkpt lat="37.463487000" lon="-5.343855000">
        <ele>170.0</ele>
        <time>2020-10-12T08:44:10Z</time>
      </trkpt>
      <trkpt lat="37.463484000" lon="-5.343968000">
        <ele>170.2</ele>
        <time>2020-10-12T08:44:13Z</time>
      </trkpt>
      <trkpt lat="37.463476000" lon="-5.344079000">
        <ele>170.5</ele>
        <time>2020-10-12T08:44:16Z</time>
      </trkpt>
      <trkpt lat="37.463469000" lon="-5.344185000">
        <ele>170.8</ele>
        <time>2020-10-12T08:44:19Z</time>
      </trkpt>
      <trkpt lat="37.463436000" lon="-5.344311000">
        <ele>171.2</ele>
        <time>2020-10-12T08:44:23Z</time>
      </trkpt>
      <trkpt lat="37.463411000" lon="-5.344424000">
        <ele>171.6</ele>
        <time>2020-10-12T08:44:27Z</time>
      </trkpt>
      <trkpt lat="37.463375000" lon="-5.344528000">
        <ele>172.1</ele>
        <time>2020-10-12T08:44:31Z</time>
      </trkpt>
      <trkpt lat="37.463347000" lon="-5.344641000">
        <ele>172.5</ele>
        <time>2020-10-12T08:44:35Z</time>
      </trkpt>
      <trkpt lat="37.463325000" lon="-5.344752000">
        <ele>173.1</ele>
        <time>2020-10-12T08:44:39Z</time>
      </trkpt>
      <trkpt lat="37.463284000" lon="-5.344843000">
        <ele>173.5</ele>
        <time>2020-10-12T08:44:42Z</time>
      </trkpt>
      <trkpt lat="37.463247000" lon="-5.344939000">
        <ele>174.1</ele>
        <time>2020-10-12T08:44:45Z</time>
      </trkpt>
      <trkpt lat="37.463202000" lon="-5.345054000">
        <ele>174.6</ele>
        <time>2020-10-12T08:44:49Z</time>
      </trkpt>
      <trkpt lat="37.463167000" lon="-5.345165000">
        <ele>175.3</ele>
        <time>2020-10-12T08:44:53Z</time>
      </trkpt>
      <trkpt lat="37.463131000" lon="-5.345261000">
        <ele>175.9</ele>
        <time>2020-10-12T08:44:56Z</time>
      </trkpt>
      <trkpt lat="37.463095000" lon="-5.345353000">
        <ele>176.5</ele>
        <time>2020-10-12T08:44:59Z</time>
      </trkpt>
      <trkpt lat="37.463053000" lon="-5.345462000">
        <ele>177.3</ele>
        <time>2020-10-12T08:45:03Z</time>
      </trkpt>
      <trkpt lat="37.463010000" lon="-5.345581000">
        <ele>177.9</ele>
        <time>2020-10-12T08:45:07Z</time>
      </trkpt>
      <trkpt lat="37.462960000" lon="-5.345690000">
        <ele>178.5</ele>
        <time>2020-10-12T08:45:11Z</time>
      </trkpt>
      <trkpt lat="37.462898000" lon="-5.345794000">
        <ele>179.1</ele>
        <time>2020-10-12T08:45:15Z</time>
      </trkpt>
      <trkpt lat="37.462837000" lon="-5.345905000">
        <ele>179.5</ele>
        <time>2020-10-12T08:45:19Z</time>
      </trkpt>
      <trkpt lat="37.462785000" lon="-5.346001000">
        <ele>180.0</ele>
        <time>2020-10-12T08:45:23Z</time>
      </trkpt>
      <trkpt lat="37.462741000" lon="-5.346088000">
        <ele>180.5</ele>
        <time>2020-10-12T08:45:28Z</time>
      </trkpt>
      <trkpt lat="37.462676000" lon="-5.346195000">
        <ele>180.8</ele>
        <time>2020-10-12T08:45:32Z</time>
      </trkpt>
      <trkpt lat="37.462620000" lon="-5.346304000">
        <ele>181.1</ele>
        <time>2020-10-12T08:45:36Z</time>
      </trkpt>
      <trkpt lat="37.462565000" lon="-5.346405000">
        <ele>181.3</ele>
        <time>2020-10-12T08:45:40Z</time>
      </trkpt>
      <trkpt lat="37.462525000" lon="-5.346501000">
        <ele>181.5</ele>
        <time>2020-10-12T08:45:43Z</time>
      </trkpt>
      <trkpt lat="37.462487000" lon="-5.346608000">
        <ele>181.6</ele>
        <time>2020-10-12T08:45:46Z</time>
      </trkpt>
      <trkpt lat="37.462450000" lon="-5.346709000">
        <ele>181.8</ele>
        <time>2020-10-12T08:45:49Z</time>
      </trkpt>
      <trkpt lat="37.462424000" lon="-5.346815000">
        <ele>182.0</ele>
        <time>2020-10-12T08:45:52Z</time>
      </trkpt>
      <trkpt lat="37.462399000" lon="-5.346936000">
        <ele>182.3</ele>
        <time>2020-10-12T08:45:56Z</time>
      </trkpt>
      <trkpt lat="37.462377000" lon="-5.347050000">
        <ele>182.5</ele>
        <time>2020-10-12T08:46:00Z</time>
      </trkpt>
      <trkpt lat="37.462369000" lon="-5.347157000">
        <ele>182.8</ele>
        <time>2020-10-12T08:46:04Z</time>
      </trkpt>
      <trkpt lat="37.462354000" lon="-5.347286000">
        <ele>183.0</ele>
        <time>2020-10-12T08:46:08Z</time>
      </trkpt>
      <trkpt lat="37.462325000" lon="-5.347410000">
        <ele>183.2</ele>
        <time>2020-10-12T08:46:12Z</time>
      </trkpt>
      <trkpt lat="37.462297000" lon="-5.347533000">
        <ele>183.3</ele>
        <time>2020-10-12T08:46:16Z</time>
      </trkpt>
      <trkpt lat="37.462275000" lon="-5.347651000">
        <ele>183.4</ele>
        <time>2020-10-12T08:46:20Z</time>
      </trkpt>
      <trkpt lat="37.462248000" lon="-5.347758000">
        <ele>183.4</ele>
        <time>2020-10-12T08:46:23Z</time>
      </trkpt>
      <trkpt lat="37.462217000" lon="-5.347863000">
        <ele>183.3</ele>
        <time>2020-10-12T08:46:26Z</time>
      </trkpt>
      <trkpt lat="37.462176000" lon="-5.347955000">
        <ele>183.1</ele>
        <time>2020-10-12T08:46:30Z</time>
      </trkpt>
      <trkpt lat="37.462146000" lon="-5.348062000">
        <ele>182.8</ele>
        <time>2020-10-12T08:46:38Z</time>
      </trkpt>
      <trkpt lat="37.462138000" lon="-5.348177000">
        <ele>182.5</ele>
        <time>2020-10-12T08:46:56Z</time>
      </trkpt>
      <trkpt lat="37.462106000" lon="-5.348280000">
        <ele>182.1</ele>
        <time>2020-10-12T08:47:01Z</time>
      </trkpt>
      <trkpt lat="37.462097000" lon="-5.348407000">
        <ele>181.7</ele>
        <time>2020-10-12T08:47:05Z</time>
      </trkpt>
      <trkpt lat="37.462090000" lon="-5.348514000">
        <ele>181.4</ele>
        <time>2020-10-12T08:47:08Z</time>
      </trkpt>
      <trkpt lat="37.462090000" lon="-5.348648000">
        <ele>180.9</ele>
        <time>2020-10-12T08:47:12Z</time>
      </trkpt>
      <trkpt lat="37.462107000" lon="-5.348762000">
        <ele>180.6</ele>
        <time>2020-10-12T08:47:17Z</time>
      </trkpt>
      <trkpt lat="37.462193000" lon="-5.348800000">
        <ele>180.4</ele>
        <time>2020-10-12T08:47:23Z</time>
      </trkpt>
      <trkpt lat="37.462275000" lon="-5.348799000">
        <ele>180.3</ele>
        <time>2020-10-12T08:47:27Z</time>
      </trkpt>
      <trkpt lat="37.462375000" lon="-5.348837000">
        <ele>180.2</ele>
        <time>2020-10-12T08:47:31Z</time>
      </trkpt>
      <trkpt lat="37.462477000" lon="-5.348866000">
        <ele>180.3</ele>
        <time>2020-10-12T08:47:35Z</time>
      </trkpt>
      <trkpt lat="37.462561000" lon="-5.348898000">
        <ele>180.5</ele>
        <time>2020-10-12T08:47:39Z</time>
      </trkpt>
      <trkpt lat="37.462655000" lon="-5.348924000">
        <ele>180.8</ele>
        <time>2020-10-12T08:47:43Z</time>
      </trkpt>
      <trkpt lat="37.462750000" lon="-5.348942000">
        <ele>181.4</ele>
        <time>2020-10-12T08:47:47Z</time>
      </trkpt>
      <trkpt lat="37.462837000" lon="-5.348954000">
        <ele>182.1</ele>
        <time>2020-10-12T08:47:53Z</time>
      </trkpt>
      <trkpt lat="37.462933000" lon="-5.348960000">
        <ele>182.8</ele>
        <time>2020-10-12T08:47:58Z</time>
      </trkpt>
      <trkpt lat="37.463019000" lon="-5.348944000">
        <ele>183.7</ele>
        <time>2020-10-12T08:48:04Z</time>
      </trkpt>
      <trkpt lat="37.463046000" lon="-5.348842000">
        <ele>184.5</ele>
        <time>2020-10-12T08:48:09Z</time>
      </trkpt>
      <trkpt lat="37.463057000" lon="-5.348738000">
        <ele>185.4</ele>
        <time>2020-10-12T08:48:17Z</time>
      </trkpt>
      <trkpt lat="37.463073000" lon="-5.348619000">
        <ele>186.1</ele>
        <time>2020-10-12T08:48:22Z</time>
      </trkpt>
      <trkpt lat="37.463055000" lon="-5.348497000">
        <ele>186.8</ele>
        <time>2020-10-12T08:48:27Z</time>
      </trkpt>
      <trkpt lat="37.463052000" lon="-5.348387000">
        <ele>187.5</ele>
        <time>2020-10-12T08:48:31Z</time>
      </trkpt>
      <trkpt lat="37.463056000" lon="-5.348271000">
        <ele>188.1</ele>
        <time>2020-10-12T08:48:35Z</time>
      </trkpt>
      <trkpt lat="37.463052000" lon="-5.348156000">
        <ele>188.5</ele>
        <time>2020-10-12T08:48:39Z</time>
      </trkpt>
      <trkpt lat="37.463048000" lon="-5.348049000">
        <ele>188.6</ele>
        <time>2020-10-12T08:48:46Z</time>
      </trkpt>
      <trkpt lat="37.463021000" lon="-5.347942000">
        <ele>188.7</ele>
        <time>2020-10-12T08:48:52Z</time>
      </trkpt>
      <trkpt lat="37.463039000" lon="-5.347830000">
        <ele>188.8</ele>
        <time>2020-10-12T08:49:04Z</time>
      </trkpt>
      <trkpt lat="37.463060000" lon="-5.347729000">
        <ele>188.8</ele>
        <time>2020-10-12T08:49:08Z</time>
      </trkpt>
      <trkpt lat="37.463091000" lon="-5.347632000">
        <ele>188.7</ele>
        <time>2020-10-12T08:49:16Z</time>
      </trkpt>
      <trkpt lat="37.463056000" lon="-5.347589000">
        <ele>188.7</ele>
        <time>2020-10-12T08:50:42Z</time>
      </trkpt>
      <trkpt lat="37.463095000" lon="-5.347540000">
        <ele>186.3</ele>
        <time>2020-10-12T09:01:01Z</time>
      </trkpt>
      <trkpt lat="37.463135000" lon="-5.347452000">
        <ele>186.0</ele>
        <time>2020-10-12T09:01:32Z</time>
      </trkpt>
      <trkpt lat="37.463151000" lon="-5.347329000">
        <ele>185.6</ele>
        <time>2020-10-12T09:01:36Z</time>
      </trkpt>
      <trkpt lat="37.463174000" lon="-5.347230000">
        <ele>185.2</ele>
        <time>2020-10-12T09:01:39Z</time>
      </trkpt>
      <trkpt lat="37.463203000" lon="-5.347127000">
        <ele>184.8</ele>
        <time>2020-10-12T09:01:44Z</time>
      </trkpt>
      <trkpt lat="37.463232000" lon="-5.347027000">
        <ele>184.4</ele>
        <time>2020-10-12T09:01:49Z</time>
      </trkpt>
      <trkpt lat="37.463269000" lon="-5.346931000">
        <ele>183.6</ele>
        <time>2020-10-12T09:02:29Z</time>
      </trkpt>
      <trkpt lat="37.463305000" lon="-5.346840000">
        <ele>183.0</ele>
        <time>2020-10-12T09:02:33Z</time>
      </trkpt>
      <trkpt lat="37.463336000" lon="-5.346740000">
        <ele>182.4</ele>
        <time>2020-10-12T09:02:36Z</time>
      </trkpt>
      <trkpt lat="37.463390000" lon="-5.346620000">
        <ele>181.8</ele>
        <time>2020-10-12T09:02:39Z</time>
      </trkpt>
      <trkpt lat="37.463440000" lon="-5.346520000">
        <ele>181.5</ele>
        <time>2020-10-12T09:02:42Z</time>
      </trkpt>
      <trkpt lat="37.463471000" lon="-5.346394000">
        <ele>181.1</ele>
        <time>2020-10-12T09:02:45Z</time>
      </trkpt>
      <trkpt lat="37.463521000" lon="-5.346286000">
        <ele>180.8</ele>
        <time>2020-10-12T09:02:48Z</time>
      </trkpt>
      <trkpt lat="37.463554000" lon="-5.346161000">
        <ele>180.5</ele>
        <time>2020-10-12T09:02:51Z</time>
      </trkpt>
      <trkpt lat="37.463578000" lon="-5.346061000">
        <ele>180.5</ele>
        <time>2020-10-12T09:02:54Z</time>
      </trkpt>
      <trkpt lat="37.463608000" lon="-5.345959000">
        <ele>180.5</ele>
        <time>2020-10-12T09:02:58Z</time>
      </trkpt>
      <trkpt lat="37.463691000" lon="-5.345921000">
        <ele>180.5</ele>
        <time>2020-10-12T09:03:06Z</time>
      </trkpt>
      <trkpt lat="37.463787000" lon="-5.345956000">
        <ele>180.6</ele>
        <time>2020-10-12T09:03:10Z</time>
      </trkpt>
      <trkpt lat="37.463882000" lon="-5.345995000">
        <ele>180.7</ele>
        <time>2020-10-12T09:03:14Z</time>
      </trkpt>
      <trkpt lat="37.463981000" lon="-5.346037000">
        <ele>180.7</ele>
        <time>2020-10-12T09:03:18Z</time>
      </trkpt>
      <trkpt lat="37.464068000" lon="-5.346038000">
        <ele>180.7</ele>
        <time>2020-10-12T09:03:23Z</time>
      </trkpt>
      <trkpt lat="37.464114000" lon="-5.345921000">
        <ele>180.6</ele>
        <time>2020-10-12T09:03:28Z</time>
      </trkpt>
      <trkpt lat="37.464138000" lon="-5.345815000">
        <ele>180.5</ele>
        <time>2020-10-12T09:03:32Z</time>
      </trkpt>
      <trkpt lat="37.464172000" lon="-5.345703000">
        <ele>180.3</ele>
        <time>2020-10-12T09:03:36Z</time>
      </trkpt>
      <trkpt lat="37.464203000" lon="-5.345580000">
        <ele>180.2</ele>
        <time>2020-10-12T09:03:40Z</time>
      </trkpt>
      <trkpt lat="37.464231000" lon="-5.345458000">
        <ele>179.9</ele>
        <time>2020-10-12T09:03:44Z</time>
      </trkpt>
      <trkpt lat="37.464258000" lon="-5.345348000">
        <ele>179.5</ele>
        <time>2020-10-12T09:03:48Z</time>
      </trkpt>
      <trkpt lat="37.464278000" lon="-5.345246000">
        <ele>179.2</ele>
        <time>2020-10-12T09:03:51Z</time>
      </trkpt>
      <trkpt lat="37.464311000" lon="-5.345127000">
        <ele>178.7</ele>
        <time>2020-10-12T09:03:54Z</time>
      </trkpt>
      <trkpt lat="37.464345000" lon="-5.345004000">
        <ele>178.3</ele>
        <time>2020-10-12T09:03:57Z</time>
      </trkpt>
      <trkpt lat="37.464371000" lon="-5.344878000">
        <ele>177.9</ele>
        <time>2020-10-12T09:04:00Z</time>
      </trkpt>
      <trkpt lat="37.464397000" lon="-5.344754000">
        <ele>177.5</ele>
        <time>2020-10-12T09:04:03Z</time>
      </trkpt>
      <trkpt lat="37.464423000" lon="-5.344643000">
        <ele>177.0</ele>
        <time>2020-10-12T09:04:06Z</time>
      </trkpt>
      <trkpt lat="37.464444000" lon="-5.344526000">
        <ele>176.6</ele>
        <time>2020-10-12T09:04:09Z</time>
      </trkpt>
      <trkpt lat="37.464472000" lon="-5.344391000">
        <ele>176.3</ele>
        <time>2020-10-12T09:04:12Z</time>
      </trkpt>
      <trkpt lat="37.464497000" lon="-5.344254000">
        <ele>176.0</ele>
        <time>2020-10-12T09:04:15Z</time>
      </trkpt>
      <trkpt lat="37.464527000" lon="-5.344125000">
        <ele>175.8</ele>
        <time>2020-10-12T09:04:18Z</time>
      </trkpt>
      <trkpt lat="37.464559000" lon="-5.344007000">
        <ele>175.7</ele>
        <time>2020-10-12T09:04:21Z</time>
      </trkpt>
      <trkpt lat="37.464579000" lon="-5.343893000">
        <ele>175.5</ele>
        <time>2020-10-12T09:04:24Z</time>
      </trkpt>
      <trkpt lat="37.464579000" lon="-5.343772000">
        <ele>175.5</ele>
        <time>2020-10-12T09:04:27Z</time>
      </trkpt>
      <trkpt lat="37.464590000" lon="-5.343648000">
        <ele>175.3</ele>
        <time>2020-10-12T09:04:30Z</time>
      </trkpt>
      <trkpt lat="37.464599000" lon="-5.343513000">
        <ele>175.0</ele>
        <time>2020-10-12T09:04:33Z</time>
      </trkpt>
      <trkpt lat="37.464610000" lon="-5.343370000">
        <ele>174.8</ele>
        <time>2020-10-12T09:04:36Z</time>
      </trkpt>
      <trkpt lat="37.464625000" lon="-5.343233000">
        <ele>174.5</ele>
        <time>2020-10-12T09:04:39Z</time>
      </trkpt>
      <trkpt lat="37.464649000" lon="-5.343107000">
        <ele>174.2</ele>
        <time>2020-10-12T09:04:42Z</time>
      </trkpt>
      <trkpt lat="37.464671000" lon="-5.342988000">
        <ele>173.8</ele>
        <time>2020-10-12T09:04:45Z</time>
      </trkpt>
      <trkpt lat="37.464690000" lon="-5.342882000">
        <ele>173.4</ele>
        <time>2020-10-12T09:04:48Z</time>
      </trkpt>
      <trkpt lat="37.464706000" lon="-5.342758000">
        <ele>172.9</ele>
        <time>2020-10-12T09:04:52Z</time>
      </trkpt>
      <trkpt lat="37.464705000" lon="-5.342639000">
        <ele>172.5</ele>
        <time>2020-10-12T09:04:57Z</time>
      </trkpt>
      <trkpt lat="37.464684000" lon="-5.342537000">
        <ele>172.4</ele>
        <time>2020-10-12T09:05:05Z</time>
      </trkpt>
      <trkpt lat="37.464737000" lon="-5.342429000">
        <ele>172.2</ele>
        <time>2020-10-12T09:05:09Z</time>
      </trkpt>
      <trkpt lat="37.464765000" lon="-5.342309000">
        <ele>172.2</ele>
        <time>2020-10-12T09:05:14Z</time>
      </trkpt>
      <trkpt lat="37.464803000" lon="-5.342419000">
        <ele>172.4</ele>
        <time>2020-10-12T09:05:24Z</time>
      </trkpt>
      <trkpt lat="37.464872000" lon="-5.342489000">
        <ele>172.5</ele>
        <time>2020-10-12T09:05:29Z</time>
      </trkpt>
      <trkpt lat="37.464957000" lon="-5.342472000">
        <ele>172.8</ele>
        <time>2020-10-12T09:05:32Z</time>
      </trkpt>
      <trkpt lat="37.465059000" lon="-5.342471000">
        <ele>173.3</ele>
        <time>2020-10-12T09:05:35Z</time>
      </trkpt>
      <trkpt lat="37.465148000" lon="-5.342463000">
        <ele>173.7</ele>
        <time>2020-10-12T09:05:38Z</time>
      </trkpt>
      <trkpt lat="37.465243000" lon="-5.342448000">
        <ele>174.2</ele>
        <time>2020-10-12T09:05:41Z</time>
      </trkpt>
      <trkpt lat="37.465348000" lon="-5.342449000">
        <ele>174.6</ele>
        <time>2020-10-12T09:05:44Z</time>
      </trkpt>
      <trkpt lat="37.465452000" lon="-5.342454000">
        <ele>175.0</ele>
        <time>2020-10-12T09:05:47Z</time>
      </trkpt>
      <trkpt lat="37.465552000" lon="-5.342463000">
        <ele>175.3</ele>
        <time>2020-10-12T09:05:50Z</time>
      </trkpt>
      <trkpt lat="37.465656000" lon="-5.342470000">
        <ele>175.5</ele>
        <time>2020-10-12T09:05:53Z</time>
      </trkpt>
      <trkpt lat="37.465764000" lon="-5.342465000">
        <ele>175.6</ele>
        <time>2020-10-12T09:05:56Z</time>
      </trkpt>
      <trkpt lat="37.465868000" lon="-5.342463000">
        <ele>175.6</ele>
        <time>2020-10-12T09:05:59Z</time>
      </trkpt>
      <trkpt lat="37.465960000" lon="-5.342471000">
        <ele>175.6</ele>
        <time>2020-10-12T09:06:02Z</time>
      </trkpt>
      <trkpt lat="37.466048000" lon="-5.342471000">
        <ele>175.6</ele>
        <time>2020-10-12T09:06:05Z</time>
      </trkpt>
      <trkpt lat="37.466141000" lon="-5.342472000">
        <ele>175.5</ele>
        <time>2020-10-12T09:06:08Z</time>
      </trkpt>
      <trkpt lat="37.466246000" lon="-5.342493000">
        <ele>175.5</ele>
        <time>2020-10-12T09:06:11Z</time>
      </trkpt>
      <trkpt lat="37.466340000" lon="-5.342519000">
        <ele>175.5</ele>
        <time>2020-10-12T09:06:14Z</time>
      </trkpt>
      <trkpt lat="37.466431000" lon="-5.342539000">
        <ele>175.5</ele>
        <time>2020-10-12T09:06:17Z</time>
      </trkpt>
      <trkpt lat="37.466518000" lon="-5.342574000">
        <ele>175.5</ele>
        <time>2020-10-12T09:06:20Z</time>
      </trkpt>
      <trkpt lat="37.466618000" lon="-5.342623000">
        <ele>175.6</ele>
        <time>2020-10-12T09:06:24Z</time>
      </trkpt>
      <trkpt lat="37.466700000" lon="-5.342665000">
        <ele>175.7</ele>
        <time>2020-10-12T09:06:27Z</time>
      </trkpt>
      <trkpt lat="37.466779000" lon="-5.342708000">
        <ele>176.0</ele>
        <time>2020-10-12T09:06:30Z</time>
      </trkpt>
      <trkpt lat="37.466855000" lon="-5.342751000">
        <ele>176.3</ele>
        <time>2020-10-12T09:06:33Z</time>
      </trkpt>
      <trkpt lat="37.466952000" lon="-5.342792000">
        <ele>176.5</ele>
        <time>2020-10-12T09:06:37Z</time>
      </trkpt>
      <trkpt lat="37.467046000" lon="-5.342811000">
        <ele>176.8</ele>
        <time>2020-10-12T09:06:42Z</time>
      </trkpt>
      <trkpt lat="37.467140000" lon="-5.342848000">
        <ele>177.0</ele>
        <time>2020-10-12T09:06:47Z</time>
      </trkpt>
      <trkpt lat="37.467234000" lon="-5.342883000">
        <ele>177.1</ele>
        <time>2020-10-12T09:06:51Z</time>
      </trkpt>
      <trkpt lat="37.467332000" lon="-5.342887000">
        <ele>177.3</ele>
        <time>2020-10-12T09:06:55Z</time>
      </trkpt>
      <trkpt lat="37.467407000" lon="-5.342830000">
        <ele>177.5</ele>
        <time>2020-10-12T09:06:59Z</time>
      </trkpt>
      <trkpt lat="37.467440000" lon="-5.342720000">
        <ele>177.6</ele>
        <time>2020-10-12T09:07:03Z</time>
      </trkpt>
      <trkpt lat="37.467429000" lon="-5.342599000">
        <ele>177.7</ele>
        <time>2020-10-12T09:07:07Z</time>
      </trkpt>
      <trkpt lat="37.467393000" lon="-5.342468000">
        <ele>177.9</ele>
        <time>2020-10-12T09:07:11Z</time>
      </trkpt>
      <trkpt lat="37.467363000" lon="-5.342360000">
        <ele>178.1</ele>
        <time>2020-10-12T09:07:14Z</time>
      </trkpt>
      <trkpt lat="37.467331000" lon="-5.342250000">
        <ele>178.3</ele>
        <time>2020-10-12T09:07:17Z</time>
      </trkpt>
      <trkpt lat="37.467300000" lon="-5.342146000">
        <ele>178.5</ele>
        <time>2020-10-12T09:07:20Z</time>
      </trkpt>
      <trkpt lat="37.467265000" lon="-5.342043000">
        <ele>178.7</ele>
        <time>2020-10-12T09:07:23Z</time>
      </trkpt>
      <trkpt lat="37.467249000" lon="-5.341938000">
        <ele>179.0</ele>
        <time>2020-10-12T09:07:26Z</time>
      </trkpt>
      <trkpt lat="37.467301000" lon="-5.341847000">
        <ele>179.2</ele>
        <time>2020-10-12T09:07:29Z</time>
      </trkpt>
      <trkpt lat="37.467395000" lon="-5.341786000">
        <ele>179.3</ele>
        <time>2020-10-12T09:07:33Z</time>
      </trkpt>
      <trkpt lat="37.467494000" lon="-5.341741000">
        <ele>179.5</ele>
        <time>2020-10-12T09:07:37Z</time>
      </trkpt>
      <trkpt lat="37.467590000" lon="-5.341696000">
        <ele>179.6</ele>
        <time>2020-10-12T09:07:42Z</time>
      </trkpt>
      <trkpt lat="37.467685000" lon="-5.341639000">
        <ele>179.9</ele>
        <time>2020-10-12T09:07:46Z</time>
      </trkpt>
      <trkpt lat="37.467769000" lon="-5.341588000">
        <ele>180.1</ele>
        <time>2020-10-12T09:07:49Z</time>
      </trkpt>
      <trkpt lat="37.467857000" lon="-5.341551000">
        <ele>180.3</ele>
        <time>2020-10-12T09:07:52Z</time>
      </trkpt>
      <trkpt lat="37.467945000" lon="-5.341505000">
        <ele>180.5</ele>
        <time>2020-10-12T09:07:55Z</time>
      </trkpt>
      <trkpt lat="37.468035000" lon="-5.341457000">
        <ele>180.5</ele>
        <time>2020-10-12T09:07:58Z</time>
      </trkpt>
      <trkpt lat="37.468115000" lon="-5.341405000">
        <ele>180.6</ele>
        <time>2020-10-12T09:08:01Z</time>
      </trkpt>
      <trkpt lat="37.468181000" lon="-5.341344000">
        <ele>180.7</ele>
        <time>2020-10-12T09:08:04Z</time>
      </trkpt>
      <trkpt lat="37.468249000" lon="-5.341287000">
        <ele>180.9</ele>
        <time>2020-10-12T09:08:07Z</time>
      </trkpt>
      <trkpt lat="37.468327000" lon="-5.341228000">
        <ele>181.0</ele>
        <time>2020-10-12T09:08:10Z</time>
      </trkpt>
      <trkpt lat="37.468400000" lon="-5.341163000">
        <ele>181.0</ele>
        <time>2020-10-12T09:08:13Z</time>
      </trkpt>
      <trkpt lat="37.468468000" lon="-5.341083000">
        <ele>180.9</ele>
        <time>2020-10-12T09:08:16Z</time>
      </trkpt>
      <trkpt lat="37.468538000" lon="-5.341011000">
        <ele>180.7</ele>
        <time>2020-10-12T09:08:19Z</time>
      </trkpt>
      <trkpt lat="37.468624000" lon="-5.340957000">
        <ele>180.5</ele>
        <time>2020-10-12T09:08:22Z</time>
      </trkpt>
      <trkpt lat="37.468713000" lon="-5.340890000">
        <ele>180.3</ele>
        <time>2020-10-12T09:08:25Z</time>
      </trkpt>
      <trkpt lat="37.468797000" lon="-5.340824000">
        <ele>180.0</ele>
        <time>2020-10-12T09:08:28Z</time>
      </trkpt>
      <trkpt lat="37.468878000" lon="-5.340752000">
        <ele>179.8</ele>
        <time>2020-10-12T09:08:31Z</time>
      </trkpt>
      <trkpt lat="37.468972000" lon="-5.340694000">
        <ele>179.7</ele>
        <time>2020-10-12T09:08:34Z</time>
      </trkpt>
      <trkpt lat="37.469072000" lon="-5.340635000">
        <ele>179.6</ele>
        <time>2020-10-12T09:08:37Z</time>
      </trkpt>
      <trkpt lat="37.469172000" lon="-5.340585000">
        <ele>179.5</ele>
        <time>2020-10-12T09:08:40Z</time>
      </trkpt>
      <trkpt lat="37.469269000" lon="-5.340538000">
        <ele>179.5</ele>
        <time>2020-10-12T09:08:43Z</time>
      </trkpt>
      <trkpt lat="37.469366000" lon="-5.340499000">
        <ele>179.4</ele>
        <time>2020-10-12T09:08:46Z</time>
      </trkpt>
      <trkpt lat="37.469462000" lon="-5.340476000">
        <ele>179.3</ele>
        <time>2020-10-12T09:08:49Z</time>
      </trkpt>
      <trkpt lat="37.469533000" lon="-5.340399000">
        <ele>179.1</ele>
        <time>2020-10-12T09:08:53Z</time>
      </trkpt>
      <trkpt lat="37.469548000" lon="-5.340289000">
        <ele>178.9</ele>
        <time>2020-10-12T09:08:56Z</time>
      </trkpt>
      <trkpt lat="37.469560000" lon="-5.340149000">
        <ele>178.6</ele>
        <time>2020-10-12T09:08:59Z</time>
      </trkpt>
      <trkpt lat="37.469576000" lon="-5.340047000">
        <ele>178.4</ele>
        <time>2020-10-12T09:09:01Z</time>
      </trkpt>
      <trkpt lat="37.469593000" lon="-5.339945000">
        <ele>178.0</ele>
        <time>2020-10-12T09:09:03Z</time>
      </trkpt>
      <trkpt lat="37.469609000" lon="-5.339844000">
        <ele>177.5</ele>
        <time>2020-10-12T09:09:05Z</time>
      </trkpt>
      <trkpt lat="37.469622000" lon="-5.339744000">
        <ele>177.0</ele>
        <time>2020-10-12T09:09:07Z</time>
      </trkpt>
      <trkpt lat="37.469638000" lon="-5.339638000">
        <ele>176.5</ele>
        <time>2020-10-12T09:09:09Z</time>
      </trkpt>
      <trkpt lat="37.469651000" lon="-5.339529000">
        <ele>176.0</ele>
        <time>2020-10-12T09:09:11Z</time>
      </trkpt>
      <trkpt lat="37.469660000" lon="-5.339423000">
        <ele>175.5</ele>
        <time>2020-10-12T09:09:13Z</time>
      </trkpt>
      <trkpt lat="37.469674000" lon="-5.339319000">
        <ele>175.2</ele>
        <time>2020-10-12T09:09:15Z</time>
      </trkpt>
      <trkpt lat="37.469687000" lon="-5.339216000">
        <ele>174.8</ele>
        <time>2020-10-12T09:09:17Z</time>
      </trkpt>
      <trkpt lat="37.469699000" lon="-5.339106000">
        <ele>174.4</ele>
        <time>2020-10-12T09:09:19Z</time>
      </trkpt>
      <trkpt lat="37.469710000" lon="-5.338997000">
        <ele>173.8</ele>
        <time>2020-10-12T09:09:21Z</time>
      </trkpt>
      <trkpt lat="37.469717000" lon="-5.338887000">
        <ele>173.3</ele>
        <time>2020-10-12T09:09:23Z</time>
      </trkpt>
      <trkpt lat="37.469721000" lon="-5.338782000">
        <ele>172.6</ele>
        <time>2020-10-12T09:09:25Z</time>
      </trkpt>
      <trkpt lat="37.469726000" lon="-5.338635000">
        <ele>172.1</ele>
        <time>2020-10-12T09:09:28Z</time>
      </trkpt>
      <trkpt lat="37.469742000" lon="-5.338484000">
        <ele>171.6</ele>
        <time>2020-10-12T09:09:31Z</time>
      </trkpt>
      <trkpt lat="37.469750000" lon="-5.338379000">
        <ele>171.1</ele>
        <time>2020-10-12T09:09:33Z</time>
      </trkpt>
      <trkpt lat="37.469764000" lon="-5.338267000">
        <ele>170.5</ele>
        <time>2020-10-12T09:09:35Z</time>
      </trkpt>
      <trkpt lat="37.469779000" lon="-5.338155000">
        <ele>170.0</ele>
        <time>2020-10-12T09:09:37Z</time>
      </trkpt>
      <trkpt lat="37.469794000" lon="-5.338038000">
        <ele>169.4</ele>
        <time>2020-10-12T09:09:39Z</time>
      </trkpt>
      <trkpt lat="37.469811000" lon="-5.337926000">
        <ele>168.8</ele>
        <time>2020-10-12T09:09:41Z</time>
      </trkpt>
      <trkpt lat="37.469824000" lon="-5.337816000">
        <ele>168.3</ele>
        <time>2020-10-12T09:09:43Z</time>
      </trkpt>
      <trkpt lat="37.469840000" lon="-5.337704000">
        <ele>167.8</ele>
        <time>2020-10-12T09:09:45Z</time>
      </trkpt>
      <trkpt lat="37.469856000" lon="-5.337593000">
        <ele>167.4</ele>
        <time>2020-10-12T09:09:47Z</time>
      </trkpt>
      <trkpt lat="37.469870000" lon="-5.337476000">
        <ele>167.0</ele>
        <time>2020-10-12T09:09:49Z</time>
      </trkpt>
      <trkpt lat="37.469881000" lon="-5.337362000">
        <ele>166.6</ele>
        <time>2020-10-12T09:09:51Z</time>
      </trkpt>
      <trkpt lat="37.469890000" lon="-5.337250000">
        <ele>166.3</ele>
        <time>2020-10-12T09:09:53Z</time>
      </trkpt>
      <trkpt lat="37.469895000" lon="-5.337137000">
        <ele>165.9</ele>
        <time>2020-10-12T09:09:55Z</time>
      </trkpt>
      <trkpt lat="37.469903000" lon="-5.337020000">
        <ele>165.5</ele>
        <time>2020-10-12T09:09:57Z</time>
      </trkpt>
      <trkpt lat="37.469914000" lon="-5.336905000">
        <ele>165.2</ele>
        <time>2020-10-12T09:09:59Z</time>
      </trkpt>
      <trkpt lat="37.469934000" lon="-5.336801000">
        <ele>164.8</ele>
        <time>2020-10-12T09:10:01Z</time>
      </trkpt>
      <trkpt lat="37.469949000" lon="-5.336701000">
        <ele>164.5</ele>
        <time>2020-10-12T09:10:03Z</time>
      </trkpt>
      <trkpt lat="37.469972000" lon="-5.336550000">
        <ele>164.2</ele>
        <time>2020-10-12T09:10:06Z</time>
      </trkpt>
      <trkpt lat="37.469986000" lon="-5.336447000">
        <ele>164.0</ele>
        <time>2020-10-12T09:10:08Z</time>
      </trkpt>
      <trkpt lat="37.470007000" lon="-5.336300000">
        <ele>163.8</ele>
        <time>2020-10-12T09:10:11Z</time>
      </trkpt>
      <trkpt lat="37.470024000" lon="-5.336155000">
        <ele>163.6</ele>
        <time>2020-10-12T09:10:14Z</time>
      </trkpt>
      <trkpt lat="37.470028000" lon="-5.336009000">
        <ele>163.5</ele>
        <time>2020-10-12T09:10:17Z</time>
      </trkpt>
      <trkpt lat="37.470027000" lon="-5.335867000">
        <ele>163.3</ele>
        <time>2020-10-12T09:10:20Z</time>
      </trkpt>
      <trkpt lat="37.470031000" lon="-5.335733000">
        <ele>163.2</ele>
        <time>2020-10-12T09:10:23Z</time>
      </trkpt>
      <trkpt lat="37.470042000" lon="-5.335597000">
        <ele>163.0</ele>
        <time>2020-10-12T09:10:26Z</time>
      </trkpt>
      <trkpt lat="37.470060000" lon="-5.335449000">
        <ele>162.8</ele>
        <time>2020-10-12T09:10:29Z</time>
      </trkpt>
      <trkpt lat="37.470083000" lon="-5.335311000">
        <ele>162.6</ele>
        <time>2020-10-12T09:10:32Z</time>
      </trkpt>
      <trkpt lat="37.470101000" lon="-5.335187000">
        <ele>162.5</ele>
        <time>2020-10-12T09:10:35Z</time>
      </trkpt>
      <trkpt lat="37.470121000" lon="-5.335054000">
        <ele>162.3</ele>
        <time>2020-10-12T09:10:38Z</time>
      </trkpt>
      <trkpt lat="37.470132000" lon="-5.334936000">
        <ele>162.1</ele>
        <time>2020-10-12T09:10:41Z</time>
      </trkpt>
      <trkpt lat="37.470147000" lon="-5.334816000">
        <ele>161.8</ele>
        <time>2020-10-12T09:10:44Z</time>
      </trkpt>
      <trkpt lat="37.470164000" lon="-5.334696000">
        <ele>161.5</ele>
        <time>2020-10-12T09:10:47Z</time>
      </trkpt>
      <trkpt lat="37.470178000" lon="-5.334574000">
        <ele>161.2</ele>
        <time>2020-10-12T09:10:50Z</time>
      </trkpt>
      <trkpt lat="37.470198000" lon="-5.334455000">
        <ele>160.8</ele>
        <time>2020-10-12T09:10:53Z</time>
      </trkpt>
      <trkpt lat="37.470220000" lon="-5.334346000">
        <ele>160.4</ele>
        <time>2020-10-12T09:10:56Z</time>
      </trkpt>
      <trkpt lat="37.470239000" lon="-5.334219000">
        <ele>160.0</ele>
        <time>2020-10-12T09:11:00Z</time>
      </trkpt>
      <trkpt lat="37.470256000" lon="-5.334094000">
        <ele>159.5</ele>
        <time>2020-10-12T09:11:04Z</time>
      </trkpt>
      <trkpt lat="37.470288000" lon="-5.333978000">
        <ele>159.2</ele>
        <time>2020-10-12T09:11:08Z</time>
      </trkpt>
      <trkpt lat="37.470334000" lon="-5.333891000">
        <ele>158.8</ele>
        <time>2020-10-12T09:11:11Z</time>
      </trkpt>
      <trkpt lat="37.470355000" lon="-5.333784000">
        <ele>158.5</ele>
        <time>2020-10-12T09:11:14Z</time>
      </trkpt>
      <trkpt lat="37.470373000" lon="-5.333675000">
        <ele>158.1</ele>
        <time>2020-10-12T09:11:17Z</time>
      </trkpt>
      <trkpt lat="37.470390000" lon="-5.333567000">
        <ele>157.8</ele>
        <time>2020-10-12T09:11:20Z</time>
      </trkpt>
      <trkpt lat="37.470409000" lon="-5.333461000">
        <ele>157.5</ele>
        <time>2020-10-12T09:11:23Z</time>
      </trkpt>
      <trkpt lat="37.470424000" lon="-5.333345000">
        <ele>157.2</ele>
        <time>2020-10-12T09:11:26Z</time>
      </trkpt>
      <trkpt lat="37.470442000" lon="-5.333226000">
        <ele>156.9</ele>
        <time>2020-10-12T09:11:29Z</time>
      </trkpt>
      <trkpt lat="37.470455000" lon="-5.333107000">
        <ele>156.7</ele>
        <time>2020-10-12T09:11:32Z</time>
      </trkpt>
      <trkpt lat="37.470461000" lon="-5.332991000">
        <ele>156.5</ele>
        <time>2020-10-12T09:11:35Z</time>
      </trkpt>
      <trkpt lat="37.470481000" lon="-5.332875000">
        <ele>156.5</ele>
        <time>2020-10-12T09:11:38Z</time>
      </trkpt>
      <trkpt lat="37.470500000" lon="-5.332758000">
        <ele>156.4</ele>
        <time>2020-10-12T09:11:41Z</time>
      </trkpt>
      <trkpt lat="37.470515000" lon="-5.332631000">
        <ele>156.3</ele>
        <time>2020-10-12T09:11:44Z</time>
      </trkpt>
      <trkpt lat="37.470533000" lon="-5.332502000">
        <ele>156.1</ele>
        <time>2020-10-12T09:11:47Z</time>
      </trkpt>
      <trkpt lat="37.470551000" lon="-5.332391000">
        <ele>155.9</ele>
        <time>2020-10-12T09:11:50Z</time>
      </trkpt>
      <trkpt lat="37.470567000" lon="-5.332272000">
        <ele>155.7</ele>
        <time>2020-10-12T09:11:53Z</time>
      </trkpt>
      <trkpt lat="37.470583000" lon="-5.332146000">
        <ele>155.5</ele>
        <time>2020-10-12T09:11:56Z</time>
      </trkpt>
      <trkpt lat="37.470605000" lon="-5.332016000">
        <ele>155.3</ele>
        <time>2020-10-12T09:11:59Z</time>
      </trkpt>
      <trkpt lat="37.470624000" lon="-5.331892000">
        <ele>155.0</ele>
        <time>2020-10-12T09:12:02Z</time>
      </trkpt>
      <trkpt lat="37.470639000" lon="-5.331766000">
        <ele>154.6</ele>
        <time>2020-10-12T09:12:05Z</time>
      </trkpt>
      <trkpt lat="37.470658000" lon="-5.331635000">
        <ele>154.3</ele>
        <time>2020-10-12T09:12:08Z</time>
      </trkpt>
      <trkpt lat="37.470672000" lon="-5.331505000">
        <ele>153.9</ele>
        <time>2020-10-12T09:12:11Z</time>
      </trkpt>
      <trkpt lat="37.470695000" lon="-5.331376000">
        <ele>153.5</ele>
        <time>2020-10-12T09:12:14Z</time>
      </trkpt>
      <trkpt lat="37.470712000" lon="-5.331240000">
        <ele>153.2</ele>
        <time>2020-10-12T09:12:17Z</time>
      </trkpt>
      <trkpt lat="37.470741000" lon="-5.331104000">
        <ele>152.9</ele>
        <time>2020-10-12T09:12:20Z</time>
      </trkpt>
      <trkpt lat="37.470764000" lon="-5.330969000">
        <ele>152.7</ele>
        <time>2020-10-12T09:12:23Z</time>
      </trkpt>
      <trkpt lat="37.470807000" lon="-5.330854000">
        <ele>152.5</ele>
        <time>2020-10-12T09:12:26Z</time>
      </trkpt>
      <trkpt lat="37.470858000" lon="-5.330749000">
        <ele>152.5</ele>
        <time>2020-10-12T09:12:29Z</time>
      </trkpt>
      <trkpt lat="37.470879000" lon="-5.330622000">
        <ele>152.5</ele>
        <time>2020-10-12T09:12:32Z</time>
      </trkpt>
      <trkpt lat="37.470894000" lon="-5.330502000">
        <ele>152.5</ele>
        <time>2020-10-12T09:12:35Z</time>
      </trkpt>
      <trkpt lat="37.470897000" lon="-5.330393000">
        <ele>152.5</ele>
        <time>2020-10-12T09:12:38Z</time>
      </trkpt>
      <trkpt lat="37.470910000" lon="-5.330290000">
        <ele>152.7</ele>
        <time>2020-10-12T09:12:41Z</time>
      </trkpt>
      <trkpt lat="37.470927000" lon="-5.330164000">
        <ele>152.9</ele>
        <time>2020-10-12T09:12:45Z</time>
      </trkpt>
      <trkpt lat="37.470944000" lon="-5.330046000">
        <ele>153.1</ele>
        <time>2020-10-12T09:12:48Z</time>
      </trkpt>
      <trkpt lat="37.470958000" lon="-5.329927000">
        <ele>153.3</ele>
        <time>2020-10-12T09:12:51Z</time>
      </trkpt>
      <trkpt lat="37.470976000" lon="-5.329819000">
        <ele>153.4</ele>
        <time>2020-10-12T09:12:54Z</time>
      </trkpt>
      <trkpt lat="37.470989000" lon="-5.329712000">
        <ele>153.4</ele>
        <time>2020-10-12T09:12:57Z</time>
      </trkpt>
      <trkpt lat="37.471002000" lon="-5.329611000">
        <ele>153.4</ele>
        <time>2020-10-12T09:13:00Z</time>
      </trkpt>
      <trkpt lat="37.471018000" lon="-5.329493000">
        <ele>153.4</ele>
        <time>2020-10-12T09:13:04Z</time>
      </trkpt>
      <trkpt lat="37.471032000" lon="-5.329389000">
        <ele>153.4</ele>
        <time>2020-10-12T09:13:08Z</time>
      </trkpt>
      <trkpt lat="37.471049000" lon="-5.329263000">
        <ele>153.3</ele>
        <time>2020-10-12T09:14:40Z</time>
      </trkpt>
      <trkpt lat="37.471067000" lon="-5.329148000">
        <ele>153.1</ele>
        <time>2020-10-12T09:14:43Z</time>
      </trkpt>
      <trkpt lat="37.471085000" lon="-5.329017000">
        <ele>152.7</ele>
        <time>2020-10-12T09:14:46Z</time>
      </trkpt>
      <trkpt lat="37.471109000" lon="-5.328885000">
        <ele>152.4</ele>
        <time>2020-10-12T09:14:49Z</time>
      </trkpt>
      <trkpt lat="37.471133000" lon="-5.328746000">
        <ele>151.9</ele>
        <time>2020-10-12T09:14:52Z</time>
      </trkpt>
      <trkpt lat="37.471154000" lon="-5.328611000">
        <ele>151.5</ele>
        <time>2020-10-12T09:14:55Z</time>
      </trkpt>
      <trkpt lat="37.471176000" lon="-5.328472000">
        <ele>151.2</ele>
        <time>2020-10-12T09:14:58Z</time>
      </trkpt>
      <trkpt lat="37.471201000" lon="-5.328333000">
        <ele>150.9</ele>
        <time>2020-10-12T09:15:01Z</time>
      </trkpt>
      <trkpt lat="37.471222000" lon="-5.328190000">
        <ele>150.6</ele>
        <time>2020-10-12T09:15:04Z</time>
      </trkpt>
      <trkpt lat="37.471245000" lon="-5.328059000">
        <ele>150.4</ele>
        <time>2020-10-12T09:15:07Z</time>
      </trkpt>
      <trkpt lat="37.471267000" lon="-5.327921000">
        <ele>150.1</ele>
        <time>2020-10-12T09:15:10Z</time>
      </trkpt>
      <trkpt lat="37.471293000" lon="-5.327781000">
        <ele>150.0</ele>
        <time>2020-10-12T09:15:13Z</time>
      </trkpt>
      <trkpt lat="37.471314000" lon="-5.327639000">
        <ele>150.0</ele>
        <time>2020-10-12T09:15:16Z</time>
      </trkpt>
      <trkpt lat="37.471328000" lon="-5.327537000">
        <ele>150.1</ele>
        <time>2020-10-12T09:15:18Z</time>
      </trkpt>
      <trkpt lat="37.471338000" lon="-5.327431000">
        <ele>150.1</ele>
        <time>2020-10-12T09:15:20Z</time>
      </trkpt>
      <trkpt lat="37.471352000" lon="-5.327323000">
        <ele>150.1</ele>
        <time>2020-10-12T09:15:22Z</time>
      </trkpt>
      <trkpt lat="37.471373000" lon="-5.327173000">
        <ele>150.1</ele>
        <time>2020-10-12T09:15:25Z</time>
      </trkpt>
      <trkpt lat="37.471385000" lon="-5.327069000">
        <ele>149.9</ele>
        <time>2020-10-12T09:15:27Z</time>
      </trkpt>
      <trkpt lat="37.471400000" lon="-5.326966000">
        <ele>149.6</ele>
        <time>2020-10-12T09:15:29Z</time>
      </trkpt>
      <trkpt lat="37.471415000" lon="-5.326863000">
        <ele>149.4</ele>
        <time>2020-10-12T09:15:31Z</time>
      </trkpt>
      <trkpt lat="37.471430000" lon="-5.326758000">
        <ele>149.2</ele>
        <time>2020-10-12T09:15:33Z</time>
      </trkpt>
      <trkpt lat="37.471441000" lon="-5.326643000">
        <ele>149.0</ele>
        <time>2020-10-12T09:15:35Z</time>
      </trkpt>
      <trkpt lat="37.471455000" lon="-5.326530000">
        <ele>148.7</ele>
        <time>2020-10-12T09:15:37Z</time>
      </trkpt>
      <trkpt lat="37.471469000" lon="-5.326408000">
        <ele>148.4</ele>
        <time>2020-10-12T09:15:39Z</time>
      </trkpt>
      <trkpt lat="37.471480000" lon="-5.326285000">
        <ele>148.0</ele>
        <time>2020-10-12T09:15:41Z</time>
      </trkpt>
      <trkpt lat="37.471499000" lon="-5.326161000">
        <ele>147.7</ele>
        <time>2020-10-12T09:15:43Z</time>
      </trkpt>
      <trkpt lat="37.471513000" lon="-5.326034000">
        <ele>147.5</ele>
        <time>2020-10-12T09:15:45Z</time>
      </trkpt>
      <trkpt lat="37.471528000" lon="-5.325910000">
        <ele>147.4</ele>
        <time>2020-10-12T09:15:47Z</time>
      </trkpt>
      <trkpt lat="37.471545000" lon="-5.325787000">
        <ele>147.3</ele>
        <time>2020-10-12T09:15:49Z</time>
      </trkpt>
      <trkpt lat="37.471553000" lon="-5.325659000">
        <ele>147.2</ele>
        <time>2020-10-12T09:15:51Z</time>
      </trkpt>
      <trkpt lat="37.471559000" lon="-5.325537000">
        <ele>147.1</ele>
        <time>2020-10-12T09:15:53Z</time>
      </trkpt>
      <trkpt lat="37.471566000" lon="-5.325415000">
        <ele>146.8</ele>
        <time>2020-10-12T09:15:55Z</time>
      </trkpt>
      <trkpt lat="37.471577000" lon="-5.325299000">
        <ele>146.5</ele>
        <time>2020-10-12T09:15:57Z</time>
      </trkpt>
      <trkpt lat="37.471589000" lon="-5.325183000">
        <ele>146.2</ele>
        <time>2020-10-12T09:15:59Z</time>
      </trkpt>
      <trkpt lat="37.471598000" lon="-5.325078000">
        <ele>145.8</ele>
        <time>2020-10-12T09:16:01Z</time>
      </trkpt>
      <trkpt lat="37.471607000" lon="-5.324929000">
        <ele>145.4</ele>
        <time>2020-10-12T09:16:04Z</time>
      </trkpt>
      <trkpt lat="37.471602000" lon="-5.324805000">
        <ele>144.8</ele>
        <time>2020-10-12T09:16:07Z</time>
      </trkpt>
      <trkpt lat="37.471623000" lon="-5.324679000">
        <ele>144.3</ele>
        <time>2020-10-12T09:16:10Z</time>
      </trkpt>
      <trkpt lat="37.471656000" lon="-5.324561000">
        <ele>143.7</ele>
        <time>2020-10-12T09:16:13Z</time>
      </trkpt>
      <trkpt lat="37.471678000" lon="-5.324452000">
        <ele>143.2</ele>
        <time>2020-10-12T09:16:16Z</time>
      </trkpt>
      <trkpt lat="37.471705000" lon="-5.324344000">
        <ele>142.7</ele>
        <time>2020-10-12T09:16:19Z</time>
      </trkpt>
      <trkpt lat="37.471737000" lon="-5.324234000">
        <ele>142.4</ele>
        <time>2020-10-12T09:16:22Z</time>
      </trkpt>
      <trkpt lat="37.471777000" lon="-5.324136000">
        <ele>142.1</ele>
        <time>2020-10-12T09:16:25Z</time>
      </trkpt>
      <trkpt lat="37.471809000" lon="-5.324031000">
        <ele>141.9</ele>
        <time>2020-10-12T09:16:28Z</time>
      </trkpt>
      <trkpt lat="37.471839000" lon="-5.323916000">
        <ele>141.8</ele>
        <time>2020-10-12T09:16:31Z</time>
      </trkpt>
      <trkpt lat="37.471868000" lon="-5.323804000">
        <ele>141.8</ele>
        <time>2020-10-12T09:16:34Z</time>
      </trkpt>
      <trkpt lat="37.471896000" lon="-5.323692000">
        <ele>141.9</ele>
        <time>2020-10-12T09:16:37Z</time>
      </trkpt>
      <trkpt lat="37.471920000" lon="-5.323581000">
        <ele>142.1</ele>
        <time>2020-10-12T09:16:40Z</time>
      </trkpt>
      <trkpt lat="37.471945000" lon="-5.323461000">
        <ele>142.3</ele>
        <time>2020-10-12T09:16:43Z</time>
      </trkpt>
      <trkpt lat="37.471964000" lon="-5.323347000">
        <ele>142.5</ele>
        <time>2020-10-12T09:16:46Z</time>
      </trkpt>
      <trkpt lat="37.471977000" lon="-5.323231000">
        <ele>142.7</ele>
        <time>2020-10-12T09:16:49Z</time>
      </trkpt>
      <trkpt lat="37.471985000" lon="-5.323121000">
        <ele>143.0</ele>
        <time>2020-10-12T09:16:52Z</time>
      </trkpt>
      <trkpt lat="37.471999000" lon="-5.323005000">
        <ele>143.2</ele>
        <time>2020-10-12T09:16:55Z</time>
      </trkpt>
      <trkpt lat="37.472013000" lon="-5.322879000">
        <ele>143.4</ele>
        <time>2020-10-12T09:16:58Z</time>
      </trkpt>
      <trkpt lat="37.472028000" lon="-5.322753000">
        <ele>143.5</ele>
        <time>2020-10-12T09:17:01Z</time>
      </trkpt>
      <trkpt lat="37.472034000" lon="-5.322644000">
        <ele>143.5</ele>
        <time>2020-10-12T09:17:04Z</time>
      </trkpt>
      <trkpt lat="37.472047000" lon="-5.322536000">
        <ele>143.6</ele>
        <time>2020-10-12T09:17:07Z</time>
      </trkpt>
      <trkpt lat="37.472053000" lon="-5.322415000">
        <ele>143.7</ele>
        <time>2020-10-12T09:17:10Z</time>
      </trkpt>
      <trkpt lat="37.472062000" lon="-5.322295000">
        <ele>143.8</ele>
        <time>2020-10-12T09:17:13Z</time>
      </trkpt>
      <trkpt lat="37.472076000" lon="-5.322184000">
        <ele>143.9</ele>
        <time>2020-10-12T09:17:16Z</time>
      </trkpt>
      <trkpt lat="37.472087000" lon="-5.322068000">
        <ele>144.1</ele>
        <time>2020-10-12T09:17:19Z</time>
      </trkpt>
      <trkpt lat="37.472098000" lon="-5.321946000">
        <ele>144.2</ele>
        <time>2020-10-12T09:17:22Z</time>
      </trkpt>
      <trkpt lat="37.472113000" lon="-5.321828000">
        <ele>144.3</ele>
        <time>2020-10-12T09:17:25Z</time>
      </trkpt>
      <trkpt lat="37.472127000" lon="-5.321700000">
        <ele>144.4</ele>
        <time>2020-10-12T09:17:28Z</time>
      </trkpt>
      <trkpt lat="37.472139000" lon="-5.321576000">
        <ele>144.5</ele>
        <time>2020-10-12T09:17:31Z</time>
      </trkpt>
      <trkpt lat="37.472146000" lon="-5.321449000">
        <ele>144.5</ele>
        <time>2020-10-12T09:17:34Z</time>
      </trkpt>
      <trkpt lat="37.472154000" lon="-5.321335000">
        <ele>144.5</ele>
        <time>2020-10-12T09:17:37Z</time>
      </trkpt>
      <trkpt lat="37.472163000" lon="-5.321230000">
        <ele>144.4</ele>
        <time>2020-10-12T09:17:40Z</time>
      </trkpt>
      <trkpt lat="37.472170000" lon="-5.321120000">
        <ele>144.3</ele>
        <time>2020-10-12T09:17:43Z</time>
      </trkpt>
      <trkpt lat="37.472188000" lon="-5.321014000">
        <ele>144.2</ele>
        <time>2020-10-12T09:17:46Z</time>
      </trkpt>
      <trkpt lat="37.472195000" lon="-5.320907000">
        <ele>144.1</ele>
        <time>2020-10-12T09:17:49Z</time>
      </trkpt>
      <trkpt lat="37.472204000" lon="-5.320791000">
        <ele>143.9</ele>
        <time>2020-10-12T09:17:52Z</time>
      </trkpt>
      <trkpt lat="37.472221000" lon="-5.320663000">
        <ele>143.7</ele>
        <time>2020-10-12T09:17:55Z</time>
      </trkpt>
      <trkpt lat="37.472235000" lon="-5.320535000">
        <ele>143.5</ele>
        <time>2020-10-12T09:17:58Z</time>
      </trkpt>
      <trkpt lat="37.472251000" lon="-5.320415000">
        <ele>143.4</ele>
        <time>2020-10-12T09:18:01Z</time>
      </trkpt>
      <trkpt lat="37.472275000" lon="-5.320291000">
        <ele>143.2</ele>
        <time>2020-10-12T09:18:04Z</time>
      </trkpt>
      <trkpt lat="37.472293000" lon="-5.320171000">
        <ele>143.1</ele>
        <time>2020-10-12T09:18:07Z</time>
      </trkpt>
      <trkpt lat="37.472313000" lon="-5.320057000">
        <ele>143.0</ele>
        <time>2020-10-12T09:18:10Z</time>
      </trkpt>
      <trkpt lat="37.472339000" lon="-5.319948000">
        <ele>143.0</ele>
        <time>2020-10-12T09:18:13Z</time>
      </trkpt>
      <trkpt lat="37.472364000" lon="-5.319839000">
        <ele>143.0</ele>
        <time>2020-10-12T09:18:16Z</time>
      </trkpt>
      <trkpt lat="37.472385000" lon="-5.319726000">
        <ele>143.0</ele>
        <time>2020-10-12T09:18:19Z</time>
      </trkpt>
      <trkpt lat="37.472414000" lon="-5.319612000">
        <ele>143.0</ele>
        <time>2020-10-12T09:18:22Z</time>
      </trkpt>
      <trkpt lat="37.472434000" lon="-5.319499000">
        <ele>143.0</ele>
        <time>2020-10-12T09:18:25Z</time>
      </trkpt>
      <trkpt lat="37.472458000" lon="-5.319371000">
        <ele>143.0</ele>
        <time>2020-10-12T09:18:28Z</time>
      </trkpt>
      <trkpt lat="37.472481000" lon="-5.319247000">
        <ele>143.0</ele>
        <time>2020-10-12T09:18:31Z</time>
      </trkpt>
      <trkpt lat="37.472508000" lon="-5.319127000">
        <ele>143.0</ele>
        <time>2020-10-12T09:18:34Z</time>
      </trkpt>
      <trkpt lat="37.472530000" lon="-5.319003000">
        <ele>142.9</ele>
        <time>2020-10-12T09:18:37Z</time>
      </trkpt>
      <trkpt lat="37.472553000" lon="-5.318887000">
        <ele>142.8</ele>
        <time>2020-10-12T09:18:40Z</time>
      </trkpt>
      <trkpt lat="37.472576000" lon="-5.318776000">
        <ele>142.6</ele>
        <time>2020-10-12T09:18:43Z</time>
      </trkpt>
      <trkpt lat="37.472603000" lon="-5.318663000">
        <ele>142.5</ele>
        <time>2020-10-12T09:18:46Z</time>
      </trkpt>
      <trkpt lat="37.472624000" lon="-5.318547000">
        <ele>142.3</ele>
        <time>2020-10-12T09:18:49Z</time>
      </trkpt>
      <trkpt lat="37.472646000" lon="-5.318428000">
        <ele>142.1</ele>
        <time>2020-10-12T09:18:52Z</time>
      </trkpt>
      <trkpt lat="37.472673000" lon="-5.318320000">
        <ele>141.9</ele>
        <time>2020-10-12T09:18:55Z</time>
      </trkpt>
      <trkpt lat="37.472702000" lon="-5.318202000">
        <ele>141.8</ele>
        <time>2020-10-12T09:18:58Z</time>
      </trkpt>
      <trkpt lat="37.472720000" lon="-5.318085000">
        <ele>141.7</ele>
        <time>2020-10-12T09:19:01Z</time>
      </trkpt>
      <trkpt lat="37.472736000" lon="-5.317978000">
        <ele>141.7</ele>
        <time>2020-10-12T09:19:04Z</time>
      </trkpt>
      <trkpt lat="37.472755000" lon="-5.317869000">
        <ele>141.7</ele>
        <time>2020-10-12T09:19:07Z</time>
      </trkpt>
      <trkpt lat="37.472780000" lon="-5.317747000">
        <ele>141.8</ele>
        <time>2020-10-12T09:19:10Z</time>
      </trkpt>
      <trkpt lat="37.472806000" lon="-5.317626000">
        <ele>141.9</ele>
        <time>2020-10-12T09:19:13Z</time>
      </trkpt>
      <trkpt lat="37.472833000" lon="-5.317508000">
        <ele>142.0</ele>
        <time>2020-10-12T09:19:16Z</time>
      </trkpt>
      <trkpt lat="37.472863000" lon="-5.317387000">
        <ele>142.1</ele>
        <time>2020-10-12T09:19:19Z</time>
      </trkpt>
      <trkpt lat="37.472885000" lon="-5.317262000">
        <ele>142.2</ele>
        <time>2020-10-12T09:19:22Z</time>
      </trkpt>
      <trkpt lat="37.472910000" lon="-5.317130000">
        <ele>142.2</ele>
        <time>2020-10-12T09:19:25Z</time>
      </trkpt>
      <trkpt lat="37.472934000" lon="-5.316994000">
        <ele>142.2</ele>
        <time>2020-10-12T09:19:28Z</time>
      </trkpt>
      <trkpt lat="37.472954000" lon="-5.316867000">
        <ele>142.1</ele>
        <time>2020-10-12T09:19:31Z</time>
      </trkpt>
      <trkpt lat="37.472976000" lon="-5.316746000">
        <ele>141.9</ele>
        <time>2020-10-12T09:19:34Z</time>
      </trkpt>
      <trkpt lat="37.472998000" lon="-5.316628000">
        <ele>141.6</ele>
        <time>2020-10-12T09:19:37Z</time>
      </trkpt>
      <trkpt lat="37.473025000" lon="-5.316509000">
        <ele>141.5</ele>
        <time>2020-10-12T09:19:40Z</time>
      </trkpt>
      <trkpt lat="37.473054000" lon="-5.316387000">
        <ele>141.3</ele>
        <time>2020-10-12T09:19:43Z</time>
      </trkpt>
      <trkpt lat="37.473082000" lon="-5.316267000">
        <ele>141.1</ele>
        <time>2020-10-12T09:19:46Z</time>
      </trkpt>
      <trkpt lat="37.473102000" lon="-5.316139000">
        <ele>141.0</ele>
        <time>2020-10-12T09:19:49Z</time>
      </trkpt>
      <trkpt lat="37.473128000" lon="-5.316010000">
        <ele>140.9</ele>
        <time>2020-10-12T09:19:52Z</time>
      </trkpt>
      <trkpt lat="37.473149000" lon="-5.315876000">
        <ele>140.9</ele>
        <time>2020-10-12T09:19:55Z</time>
      </trkpt>
      <trkpt lat="37.473171000" lon="-5.315753000">
        <ele>141.0</ele>
        <time>2020-10-12T09:19:58Z</time>
      </trkpt>
      <trkpt lat="37.473192000" lon="-5.315635000">
        <ele>141.2</ele>
        <time>2020-10-12T09:20:01Z</time>
      </trkpt>
      <trkpt lat="37.473215000" lon="-5.315521000">
        <ele>141.3</ele>
        <time>2020-10-12T09:20:04Z</time>
      </trkpt>
      <trkpt lat="37.473238000" lon="-5.315406000">
        <ele>141.4</ele>
        <time>2020-10-12T09:20:07Z</time>
      </trkpt>
      <trkpt lat="37.473256000" lon="-5.315285000">
        <ele>141.5</ele>
        <time>2020-10-12T09:20:10Z</time>
      </trkpt>
      <trkpt lat="37.473283000" lon="-5.315161000">
        <ele>141.4</ele>
        <time>2020-10-12T09:20:13Z</time>
      </trkpt>
      <trkpt lat="37.473310000" lon="-5.315027000">
        <ele>141.2</ele>
        <time>2020-10-12T09:20:16Z</time>
      </trkpt>
      <trkpt lat="37.473333000" lon="-5.314898000">
        <ele>140.9</ele>
        <time>2020-10-12T09:20:19Z</time>
      </trkpt>
      <trkpt lat="37.473363000" lon="-5.314774000">
        <ele>140.5</ele>
        <time>2020-10-12T09:20:22Z</time>
      </trkpt>
      <trkpt lat="37.473388000" lon="-5.314650000">
        <ele>140.1</ele>
        <time>2020-10-12T09:20:25Z</time>
      </trkpt>
      <trkpt lat="37.473412000" lon="-5.314534000">
        <ele>139.5</ele>
        <time>2020-10-12T09:20:28Z</time>
      </trkpt>
      <trkpt lat="37.473438000" lon="-5.314420000">
        <ele>138.7</ele>
        <time>2020-10-12T09:20:31Z</time>
      </trkpt>
      <trkpt lat="37.473461000" lon="-5.314306000">
        <ele>137.9</ele>
        <time>2020-10-12T09:20:34Z</time>
      </trkpt>
      <trkpt lat="37.473484000" lon="-5.314206000">
        <ele>137.2</ele>
        <time>2020-10-12T09:20:37Z</time>
      </trkpt>
      <trkpt lat="37.473510000" lon="-5.314087000">
        <ele>136.5</ele>
        <time>2020-10-12T09:20:41Z</time>
      </trkpt>
      <trkpt lat="37.473536000" lon="-5.313961000">
        <ele>136.0</ele>
        <time>2020-10-12T09:20:45Z</time>
      </trkpt>
      <trkpt lat="37.473554000" lon="-5.313844000">
        <ele>135.6</ele>
        <time>2020-10-12T09:20:48Z</time>
      </trkpt>
      <trkpt lat="37.473577000" lon="-5.313736000">
        <ele>135.4</ele>
        <time>2020-10-12T09:20:51Z</time>
      </trkpt>
      <trkpt lat="37.473599000" lon="-5.313633000">
        <ele>135.3</ele>
        <time>2020-10-12T09:20:54Z</time>
      </trkpt>
      <trkpt lat="37.473621000" lon="-5.313520000">
        <ele>135.3</ele>
        <time>2020-10-12T09:20:57Z</time>
      </trkpt>
      <trkpt lat="37.473647000" lon="-5.313413000">
        <ele>135.4</ele>
        <time>2020-10-12T09:21:00Z</time>
      </trkpt>
      <trkpt lat="37.473669000" lon="-5.313300000">
        <ele>135.5</ele>
        <time>2020-10-12T09:21:03Z</time>
      </trkpt>
      <trkpt lat="37.473694000" lon="-5.313192000">
        <ele>135.8</ele>
        <time>2020-10-12T09:21:06Z</time>
      </trkpt>
      <trkpt lat="37.473721000" lon="-5.313091000">
        <ele>136.0</ele>
        <time>2020-10-12T09:21:09Z</time>
      </trkpt>
      <trkpt lat="37.473739000" lon="-5.312978000">
        <ele>136.2</ele>
        <time>2020-10-12T09:21:12Z</time>
      </trkpt>
      <trkpt lat="37.473756000" lon="-5.312868000">
        <ele>136.3</ele>
        <time>2020-10-12T09:21:15Z</time>
      </trkpt>
      <trkpt lat="37.473782000" lon="-5.312764000">
        <ele>136.2</ele>
        <time>2020-10-12T09:21:18Z</time>
      </trkpt>
      <trkpt lat="37.473805000" lon="-5.312655000">
        <ele>136.0</ele>
        <time>2020-10-12T09:21:21Z</time>
      </trkpt>
      <trkpt lat="37.473832000" lon="-5.312547000">
        <ele>135.8</ele>
        <time>2020-10-12T09:21:24Z</time>
      </trkpt>
      <trkpt lat="37.473856000" lon="-5.312433000">
        <ele>135.5</ele>
        <time>2020-10-12T09:21:27Z</time>
      </trkpt>
      <trkpt lat="37.473882000" lon="-5.312322000">
        <ele>135.3</ele>
        <time>2020-10-12T09:21:30Z</time>
      </trkpt>
      <trkpt lat="37.473907000" lon="-5.312219000">
        <ele>135.1</ele>
        <time>2020-10-12T09:21:33Z</time>
      </trkpt>
      <trkpt lat="37.473931000" lon="-5.312112000">
        <ele>134.8</ele>
        <time>2020-10-12T09:21:36Z</time>
      </trkpt>
      <trkpt lat="37.473962000" lon="-5.311983000">
        <ele>134.5</ele>
        <time>2020-10-12T09:21:39Z</time>
      </trkpt>
      <trkpt lat="37.473992000" lon="-5.311856000">
        <ele>134.5</ele>
        <time>2020-10-12T09:21:42Z</time>
      </trkpt>
      <trkpt lat="37.474025000" lon="-5.311737000">
        <ele>134.4</ele>
        <time>2020-10-12T09:21:45Z</time>
      </trkpt>
      <trkpt lat="37.474052000" lon="-5.311622000">
        <ele>134.4</ele>
        <time>2020-10-12T09:21:48Z</time>
      </trkpt>
      <trkpt lat="37.474075000" lon="-5.311511000">
        <ele>134.5</ele>
        <time>2020-10-12T09:21:51Z</time>
      </trkpt>
      <trkpt lat="37.474108000" lon="-5.311405000">
        <ele>134.5</ele>
        <time>2020-10-12T09:21:54Z</time>
      </trkpt>
      <trkpt lat="37.474131000" lon="-5.311288000">
        <ele>134.6</ele>
        <time>2020-10-12T09:21:57Z</time>
      </trkpt>
      <trkpt lat="37.474155000" lon="-5.311165000">
        <ele>134.7</ele>
        <time>2020-10-12T09:22:00Z</time>
      </trkpt>
      <trkpt lat="37.474184000" lon="-5.311049000">
        <ele>134.8</ele>
        <time>2020-10-12T09:22:03Z</time>
      </trkpt>
      <trkpt lat="37.474220000" lon="-5.310935000">
        <ele>134.7</ele>
        <time>2020-10-12T09:22:06Z</time>
      </trkpt>
      <trkpt lat="37.474248000" lon="-5.310805000">
        <ele>134.7</ele>
        <time>2020-10-12T09:22:09Z</time>
      </trkpt>
      <trkpt lat="37.474273000" lon="-5.310699000">
        <ele>134.7</ele>
        <time>2020-10-12T09:22:12Z</time>
      </trkpt>
      <trkpt lat="37.474299000" lon="-5.310586000">
        <ele>134.5</ele>
        <time>2020-10-12T09:22:15Z</time>
      </trkpt>
      <trkpt lat="37.474326000" lon="-5.310479000">
        <ele>134.4</ele>
        <time>2020-10-12T09:22:18Z</time>
      </trkpt>
      <trkpt lat="37.474351000" lon="-5.310371000">
        <ele>134.3</ele>
        <time>2020-10-12T09:22:21Z</time>
      </trkpt>
      <trkpt lat="37.474376000" lon="-5.310264000">
        <ele>134.3</ele>
        <time>2020-10-12T09:22:24Z</time>
      </trkpt>
      <trkpt lat="37.474398000" lon="-5.310157000">
        <ele>134.3</ele>
        <time>2020-10-12T09:22:27Z</time>
      </trkpt>
      <trkpt lat="37.474424000" lon="-5.310040000">
        <ele>134.3</ele>
        <time>2020-10-12T09:22:30Z</time>
      </trkpt>
      <trkpt lat="37.474453000" lon="-5.309923000">
        <ele>134.4</ele>
        <time>2020-10-12T09:22:33Z</time>
      </trkpt>
      <trkpt lat="37.474483000" lon="-5.309799000">
        <ele>134.5</ele>
        <time>2020-10-12T09:22:36Z</time>
      </trkpt>
      <trkpt lat="37.474513000" lon="-5.309670000">
        <ele>134.6</ele>
        <time>2020-10-12T09:22:39Z</time>
      </trkpt>
      <trkpt lat="37.474549000" lon="-5.309545000">
        <ele>134.7</ele>
        <time>2020-10-12T09:22:42Z</time>
      </trkpt>
      <trkpt lat="37.474578000" lon="-5.309424000">
        <ele>134.7</ele>
        <time>2020-10-12T09:22:45Z</time>
      </trkpt>
      <trkpt lat="37.474607000" lon="-5.309293000">
        <ele>134.7</ele>
        <time>2020-10-12T09:22:48Z</time>
      </trkpt>
      <trkpt lat="37.474639000" lon="-5.309155000">
        <ele>134.7</ele>
        <time>2020-10-12T09:22:51Z</time>
      </trkpt>
      <trkpt lat="37.474674000" lon="-5.309027000">
        <ele>134.5</ele>
        <time>2020-10-12T09:22:54Z</time>
      </trkpt>
      <trkpt lat="37.474713000" lon="-5.308886000">
        <ele>134.3</ele>
        <time>2020-10-12T09:22:57Z</time>
      </trkpt>
      <trkpt lat="37.474747000" lon="-5.308744000">
        <ele>134.1</ele>
        <time>2020-10-12T09:23:00Z</time>
      </trkpt>
      <trkpt lat="37.474777000" lon="-5.308612000">
        <ele>134.0</ele>
        <time>2020-10-12T09:23:03Z</time>
      </trkpt>
      <trkpt lat="37.474807000" lon="-5.308498000">
        <ele>133.8</ele>
        <time>2020-10-12T09:23:06Z</time>
      </trkpt>
      <trkpt lat="37.474839000" lon="-5.308387000">
        <ele>133.6</ele>
        <time>2020-10-12T09:23:09Z</time>
      </trkpt>
      <trkpt lat="37.474867000" lon="-5.308283000">
        <ele>133.5</ele>
        <time>2020-10-12T09:23:12Z</time>
      </trkpt>
      <trkpt lat="37.474891000" lon="-5.308167000">
        <ele>133.4</ele>
        <time>2020-10-12T09:23:15Z</time>
      </trkpt>
      <trkpt lat="37.474917000" lon="-5.308059000">
        <ele>133.3</ele>
        <time>2020-10-12T09:23:19Z</time>
      </trkpt>
      <trkpt lat="37.474956000" lon="-5.307948000">
        <ele>133.3</ele>
        <time>2020-10-12T09:23:23Z</time>
      </trkpt>
      <trkpt lat="37.474988000" lon="-5.307842000">
        <ele>133.4</ele>
        <time>2020-10-12T09:23:27Z</time>
      </trkpt>
      <trkpt lat="37.475026000" lon="-5.307724000">
        <ele>133.5</ele>
        <time>2020-10-12T09:23:31Z</time>
      </trkpt>
      <trkpt lat="37.475059000" lon="-5.307631000">
        <ele>133.8</ele>
        <time>2020-10-12T09:23:34Z</time>
      </trkpt>
      <trkpt lat="37.475091000" lon="-5.307536000">
        <ele>134.0</ele>
        <time>2020-10-12T09:23:37Z</time>
      </trkpt>
      <trkpt lat="37.475136000" lon="-5.307413000">
        <ele>134.1</ele>
        <time>2020-10-12T09:23:41Z</time>
      </trkpt>
      <trkpt lat="37.475172000" lon="-5.307292000">
        <ele>134.2</ele>
        <time>2020-10-12T09:23:45Z</time>
      </trkpt>
      <trkpt lat="37.475226000" lon="-5.307177000">
        <ele>134.2</ele>
        <time>2020-10-12T09:23:49Z</time>
      </trkpt>
      <trkpt lat="37.475266000" lon="-5.307080000">
        <ele>134.2</ele>
        <time>2020-10-12T09:23:52Z</time>
      </trkpt>
      <trkpt lat="37.475309000" lon="-5.306985000">
        <ele>134.1</ele>
        <time>2020-10-12T09:23:55Z</time>
      </trkpt>
      <trkpt lat="37.475361000" lon="-5.306868000">
        <ele>134.1</ele>
        <time>2020-10-12T09:23:59Z</time>
      </trkpt>
      <trkpt lat="37.475409000" lon="-5.306770000">
        <ele>134.1</ele>
        <time>2020-10-12T09:24:03Z</time>
      </trkpt>
      <trkpt lat="37.475468000" lon="-5.306670000">
        <ele>133.9</ele>
        <time>2020-10-12T09:24:07Z</time>
      </trkpt>
      <trkpt lat="37.475513000" lon="-5.306582000">
        <ele>133.7</ele>
        <time>2020-10-12T09:24:10Z</time>
      </trkpt>
      <trkpt lat="37.475568000" lon="-5.306501000">
        <ele>133.5</ele>
        <time>2020-10-12T09:24:13Z</time>
      </trkpt>
      <trkpt lat="37.475625000" lon="-5.306414000">
        <ele>133.1</ele>
        <time>2020-10-12T09:24:16Z</time>
      </trkpt>
      <trkpt lat="37.475677000" lon="-5.306328000">
        <ele>132.7</ele>
        <time>2020-10-12T09:24:19Z</time>
      </trkpt>
      <trkpt lat="37.475729000" lon="-5.306247000">
        <ele>132.4</ele>
        <time>2020-10-12T09:24:22Z</time>
      </trkpt>
      <trkpt lat="37.475778000" lon="-5.306159000">
        <ele>132.0</ele>
        <time>2020-10-12T09:24:25Z</time>
      </trkpt>
      <trkpt lat="37.475842000" lon="-5.306064000">
        <ele>131.6</ele>
        <time>2020-10-12T09:24:29Z</time>
      </trkpt>
      <trkpt lat="37.475917000" lon="-5.305969000">
        <ele>131.4</ele>
        <time>2020-10-12T09:24:33Z</time>
      </trkpt>
      <trkpt lat="37.475968000" lon="-5.305884000">
        <ele>131.2</ele>
        <time>2020-10-12T09:24:36Z</time>
      </trkpt>
      <trkpt lat="37.476029000" lon="-5.305805000">
        <ele>131.1</ele>
        <time>2020-10-12T09:24:39Z</time>
      </trkpt>
      <trkpt lat="37.476096000" lon="-5.305719000">
        <ele>131.1</ele>
        <time>2020-10-12T09:24:42Z</time>
      </trkpt>
      <trkpt lat="37.476158000" lon="-5.305642000">
        <ele>131.2</ele>
        <time>2020-10-12T09:24:45Z</time>
      </trkpt>
      <trkpt lat="37.476223000" lon="-5.305572000">
        <ele>131.3</ele>
        <time>2020-10-12T09:24:48Z</time>
      </trkpt>
      <trkpt lat="37.476287000" lon="-5.305500000">
        <ele>131.5</ele>
        <time>2020-10-12T09:24:51Z</time>
      </trkpt>
      <trkpt lat="37.476349000" lon="-5.305423000">
        <ele>131.5</ele>
        <time>2020-10-12T09:24:54Z</time>
      </trkpt>
      <trkpt lat="37.476413000" lon="-5.305356000">
        <ele>131.6</ele>
        <time>2020-10-12T09:24:57Z</time>
      </trkpt>
      <trkpt lat="37.476479000" lon="-5.305282000">
        <ele>131.8</ele>
        <time>2020-10-12T09:25:00Z</time>
      </trkpt>
      <trkpt lat="37.476545000" lon="-5.305210000">
        <ele>132.1</ele>
        <time>2020-10-12T09:25:03Z</time>
      </trkpt>
      <trkpt lat="37.476621000" lon="-5.305132000">
        <ele>132.4</ele>
        <time>2020-10-12T09:25:07Z</time>
      </trkpt>
      <trkpt lat="37.476696000" lon="-5.305051000">
        <ele>132.5</ele>
        <time>2020-10-12T09:25:11Z</time>
      </trkpt>
      <trkpt lat="37.476766000" lon="-5.304990000">
        <ele>132.7</ele>
        <time>2020-10-12T09:25:14Z</time>
      </trkpt>
      <trkpt lat="37.476829000" lon="-5.304920000">
        <ele>132.9</ele>
        <time>2020-10-12T09:25:17Z</time>
      </trkpt>
      <trkpt lat="37.476891000" lon="-5.304844000">
        <ele>133.0</ele>
        <time>2020-10-12T09:25:20Z</time>
      </trkpt>
      <trkpt lat="37.476955000" lon="-5.304768000">
        <ele>133.1</ele>
        <time>2020-10-12T09:25:23Z</time>
      </trkpt>
      <trkpt lat="37.477016000" lon="-5.304689000">
        <ele>133.2</ele>
        <time>2020-10-12T09:25:26Z</time>
      </trkpt>
      <trkpt lat="37.477081000" lon="-5.304619000">
        <ele>133.3</ele>
        <time>2020-10-12T09:25:29Z</time>
      </trkpt>
      <trkpt lat="37.477149000" lon="-5.304554000">
        <ele>133.4</ele>
        <time>2020-10-12T09:25:32Z</time>
      </trkpt>
      <trkpt lat="37.477221000" lon="-5.304479000">
        <ele>133.5</ele>
        <time>2020-10-12T09:25:35Z</time>
      </trkpt>
      <trkpt lat="37.477291000" lon="-5.304408000">
        <ele>133.5</ele>
        <time>2020-10-12T09:25:38Z</time>
      </trkpt>
      <trkpt lat="37.477358000" lon="-5.304337000">
        <ele>133.6</ele>
        <time>2020-10-12T09:25:41Z</time>
      </trkpt>
      <trkpt lat="37.477422000" lon="-5.304267000">
        <ele>133.7</ele>
        <time>2020-10-12T09:25:44Z</time>
      </trkpt>
      <trkpt lat="37.477494000" lon="-5.304178000">
        <ele>133.7</ele>
        <time>2020-10-12T09:25:48Z</time>
      </trkpt>
      <trkpt lat="37.477567000" lon="-5.304090000">
        <ele>133.7</ele>
        <time>2020-10-12T09:25:52Z</time>
      </trkpt>
      <trkpt lat="37.477643000" lon="-5.304003000">
        <ele>133.7</ele>
        <time>2020-10-12T09:25:56Z</time>
      </trkpt>
      <trkpt lat="37.477728000" lon="-5.303923000">
        <ele>133.7</ele>
        <time>2020-10-12T09:26:00Z</time>
      </trkpt>
      <trkpt lat="37.477809000" lon="-5.303837000">
        <ele>133.6</ele>
        <time>2020-10-12T09:26:04Z</time>
      </trkpt>
      <trkpt lat="37.477873000" lon="-5.303769000">
        <ele>133.6</ele>
        <time>2020-10-12T09:26:07Z</time>
      </trkpt>
      <trkpt lat="37.477939000" lon="-5.303696000">
        <ele>133.5</ele>
        <time>2020-10-12T09:26:10Z</time>
      </trkpt>
      <trkpt lat="37.478005000" lon="-5.303624000">
        <ele>133.5</ele>
        <time>2020-10-12T09:26:13Z</time>
      </trkpt>
      <trkpt lat="37.478073000" lon="-5.303550000">
        <ele>133.3</ele>
        <time>2020-10-12T09:26:16Z</time>
      </trkpt>
      <trkpt lat="37.478144000" lon="-5.303475000">
        <ele>133.0</ele>
        <time>2020-10-12T09:26:19Z</time>
      </trkpt>
      <trkpt lat="37.478214000" lon="-5.303405000">
        <ele>132.7</ele>
        <time>2020-10-12T09:26:22Z</time>
      </trkpt>
      <trkpt lat="37.478280000" lon="-5.303342000">
        <ele>132.5</ele>
        <time>2020-10-12T09:26:25Z</time>
      </trkpt>
      <trkpt lat="37.478349000" lon="-5.303273000">
        <ele>132.2</ele>
        <time>2020-10-12T09:26:28Z</time>
      </trkpt>
      <trkpt lat="37.478421000" lon="-5.303195000">
        <ele>131.9</ele>
        <time>2020-10-12T09:26:31Z</time>
      </trkpt>
      <trkpt lat="37.478485000" lon="-5.303127000">
        <ele>131.6</ele>
        <time>2020-10-12T09:26:34Z</time>
      </trkpt>
      <trkpt lat="37.478554000" lon="-5.303051000">
        <ele>131.5</ele>
        <time>2020-10-12T09:26:38Z</time>
      </trkpt>
      <trkpt lat="37.478626000" lon="-5.302966000">
        <ele>131.4</ele>
        <time>2020-10-12T09:26:42Z</time>
      </trkpt>
      <trkpt lat="37.478709000" lon="-5.302886000">
        <ele>131.4</ele>
        <time>2020-10-12T09:26:46Z</time>
      </trkpt>
      <trkpt lat="37.478773000" lon="-5.302819000">
        <ele>131.4</ele>
        <time>2020-10-12T09:26:49Z</time>
      </trkpt>
      <trkpt lat="37.478837000" lon="-5.302750000">
        <ele>131.4</ele>
        <time>2020-10-12T09:26:52Z</time>
      </trkpt>
      <trkpt lat="37.478914000" lon="-5.302686000">
        <ele>131.5</ele>
        <time>2020-10-12T09:26:56Z</time>
      </trkpt>
      <trkpt lat="37.478996000" lon="-5.302632000">
        <ele>131.5</ele>
        <time>2020-10-12T09:27:00Z</time>
      </trkpt>
      <trkpt lat="37.479065000" lon="-5.302533000">
        <ele>131.5</ele>
        <time>2020-10-12T09:27:04Z</time>
      </trkpt>
      <trkpt lat="37.479137000" lon="-5.302442000">
        <ele>131.5</ele>
        <time>2020-10-12T09:27:08Z</time>
      </trkpt>
      <trkpt lat="37.479219000" lon="-5.302361000">
        <ele>131.4</ele>
        <time>2020-10-12T09:27:12Z</time>
      </trkpt>
      <trkpt lat="37.479286000" lon="-5.302272000">
        <ele>131.2</ele>
        <time>2020-10-12T09:27:16Z</time>
      </trkpt>
      <trkpt lat="37.479364000" lon="-5.302184000">
        <ele>131.0</ele>
        <time>2020-10-12T09:27:20Z</time>
      </trkpt>
      <trkpt lat="37.479437000" lon="-5.302100000">
        <ele>130.7</ele>
        <time>2020-10-12T09:27:24Z</time>
      </trkpt>
      <trkpt lat="37.479512000" lon="-5.302029000">
        <ele>130.5</ele>
        <time>2020-10-12T09:27:28Z</time>
      </trkpt>
      <trkpt lat="37.479588000" lon="-5.301944000">
        <ele>130.1</ele>
        <time>2020-10-12T09:27:32Z</time>
      </trkpt>
      <trkpt lat="37.479657000" lon="-5.301882000">
        <ele>129.7</ele>
        <time>2020-10-12T09:27:35Z</time>
      </trkpt>
      <trkpt lat="37.479720000" lon="-5.301809000">
        <ele>129.4</ele>
        <time>2020-10-12T09:27:38Z</time>
      </trkpt>
      <trkpt lat="37.479788000" lon="-5.301736000">
        <ele>129.2</ele>
        <time>2020-10-12T09:27:41Z</time>
      </trkpt>
      <trkpt lat="37.479856000" lon="-5.301650000">
        <ele>129.0</ele>
        <time>2020-10-12T09:27:44Z</time>
      </trkpt>
      <trkpt lat="37.479919000" lon="-5.301571000">
        <ele>128.9</ele>
        <time>2020-10-12T09:27:47Z</time>
      </trkpt>
      <trkpt lat="37.480001000" lon="-5.301480000">
        <ele>128.9</ele>
        <time>2020-10-12T09:27:51Z</time>
      </trkpt>
      <trkpt lat="37.480068000" lon="-5.301394000">
        <ele>129.0</ele>
        <time>2020-10-12T09:27:54Z</time>
      </trkpt>
      <trkpt lat="37.480143000" lon="-5.301309000">
        <ele>129.1</ele>
        <time>2020-10-12T09:27:57Z</time>
      </trkpt>
      <trkpt lat="37.480227000" lon="-5.301226000">
        <ele>129.2</ele>
        <time>2020-10-12T09:28:00Z</time>
      </trkpt>
      <trkpt lat="37.480313000" lon="-5.301141000">
        <ele>129.2</ele>
        <time>2020-10-12T09:28:03Z</time>
      </trkpt>
      <trkpt lat="37.480392000" lon="-5.301055000">
        <ele>129.2</ele>
        <time>2020-10-12T09:28:06Z</time>
      </trkpt>
      <trkpt lat="37.480469000" lon="-5.300977000">
        <ele>129.1</ele>
        <time>2020-10-12T09:28:09Z</time>
      </trkpt>
      <trkpt lat="37.480538000" lon="-5.300898000">
        <ele>129.0</ele>
        <time>2020-10-12T09:28:12Z</time>
      </trkpt>
      <trkpt lat="37.480611000" lon="-5.300818000">
        <ele>128.8</ele>
        <time>2020-10-12T09:28:15Z</time>
      </trkpt>
      <trkpt lat="37.480677000" lon="-5.300738000">
        <ele>128.5</ele>
        <time>2020-10-12T09:28:18Z</time>
      </trkpt>
      <trkpt lat="37.480743000" lon="-5.300664000">
        <ele>128.2</ele>
        <time>2020-10-12T09:28:21Z</time>
      </trkpt>
      <trkpt lat="37.480818000" lon="-5.300589000">
        <ele>127.9</ele>
        <time>2020-10-12T09:28:24Z</time>
      </trkpt>
      <trkpt lat="37.480891000" lon="-5.300512000">
        <ele>127.6</ele>
        <time>2020-10-12T09:28:27Z</time>
      </trkpt>
      <trkpt lat="37.480964000" lon="-5.300428000">
        <ele>127.5</ele>
        <time>2020-10-12T09:28:30Z</time>
      </trkpt>
      <trkpt lat="37.481036000" lon="-5.300346000">
        <ele>127.3</ele>
        <time>2020-10-12T09:28:33Z</time>
      </trkpt>
      <trkpt lat="37.481112000" lon="-5.300270000">
        <ele>127.2</ele>
        <time>2020-10-12T09:28:36Z</time>
      </trkpt>
      <trkpt lat="37.481194000" lon="-5.300190000">
        <ele>127.3</ele>
        <time>2020-10-12T09:28:39Z</time>
      </trkpt>
      <trkpt lat="37.481268000" lon="-5.300111000">
        <ele>127.5</ele>
        <time>2020-10-12T09:28:42Z</time>
      </trkpt>
      <trkpt lat="37.481341000" lon="-5.300035000">
        <ele>127.6</ele>
        <time>2020-10-12T09:28:45Z</time>
      </trkpt>
      <trkpt lat="37.481412000" lon="-5.299961000">
        <ele>127.9</ele>
        <time>2020-10-12T09:28:48Z</time>
      </trkpt>
      <trkpt lat="37.481495000" lon="-5.299876000">
        <ele>128.3</ele>
        <time>2020-10-12T09:28:52Z</time>
      </trkpt>
      <trkpt lat="37.481560000" lon="-5.299806000">
        <ele>128.6</ele>
        <time>2020-10-12T09:28:55Z</time>
      </trkpt>
      <trkpt lat="37.481640000" lon="-5.299716000">
        <ele>128.9</ele>
        <time>2020-10-12T09:28:59Z</time>
      </trkpt>
      <trkpt lat="37.481710000" lon="-5.299638000">
        <ele>129.2</ele>
        <time>2020-10-12T09:29:02Z</time>
      </trkpt>
      <trkpt lat="37.481775000" lon="-5.299577000">
        <ele>129.3</ele>
        <time>2020-10-12T09:29:05Z</time>
      </trkpt>
      <trkpt lat="37.481838000" lon="-5.299510000">
        <ele>129.4</ele>
        <time>2020-10-12T09:29:08Z</time>
      </trkpt>
      <trkpt lat="37.481905000" lon="-5.299442000">
        <ele>129.5</ele>
        <time>2020-10-12T09:29:11Z</time>
      </trkpt>
      <trkpt lat="37.481972000" lon="-5.299369000">
        <ele>129.5</ele>
        <time>2020-10-12T09:29:14Z</time>
      </trkpt>
      <trkpt lat="37.482042000" lon="-5.299295000">
        <ele>129.5</ele>
        <time>2020-10-12T09:29:17Z</time>
      </trkpt>
      <trkpt lat="37.482113000" lon="-5.299224000">
        <ele>129.5</ele>
        <time>2020-10-12T09:29:20Z</time>
      </trkpt>
      <trkpt lat="37.482179000" lon="-5.299154000">
        <ele>129.4</ele>
        <time>2020-10-12T09:29:23Z</time>
      </trkpt>
      <trkpt lat="37.482248000" lon="-5.299078000">
        <ele>129.3</ele>
        <time>2020-10-12T09:29:26Z</time>
      </trkpt>
      <trkpt lat="37.482325000" lon="-5.299000000">
        <ele>129.2</ele>
        <time>2020-10-12T09:29:29Z</time>
      </trkpt>
      <trkpt lat="37.482403000" lon="-5.298921000">
        <ele>129.2</ele>
        <time>2020-10-12T09:29:32Z</time>
      </trkpt>
      <trkpt lat="37.482482000" lon="-5.298837000">
        <ele>129.2</ele>
        <time>2020-10-12T09:29:35Z</time>
      </trkpt>
      <trkpt lat="37.482559000" lon="-5.298757000">
        <ele>129.3</ele>
        <time>2020-10-12T09:29:38Z</time>
      </trkpt>
      <trkpt lat="37.482631000" lon="-5.298681000">
        <ele>129.4</ele>
        <time>2020-10-12T09:29:41Z</time>
      </trkpt>
      <trkpt lat="37.482706000" lon="-5.298608000">
        <ele>129.5</ele>
        <time>2020-10-12T09:29:44Z</time>
      </trkpt>
      <trkpt lat="37.482787000" lon="-5.298543000">
        <ele>129.5</ele>
        <time>2020-10-12T09:29:47Z</time>
      </trkpt>
      <trkpt lat="37.482863000" lon="-5.298483000">
        <ele>129.4</ele>
        <time>2020-10-12T09:29:50Z</time>
      </trkpt>
      <trkpt lat="37.482935000" lon="-5.298428000">
        <ele>129.2</ele>
        <time>2020-10-12T09:29:53Z</time>
      </trkpt>
      <trkpt lat="37.483000000" lon="-5.298366000">
        <ele>128.9</ele>
        <time>2020-10-12T09:29:56Z</time>
      </trkpt>
      <trkpt lat="37.483072000" lon="-5.298303000">
        <ele>128.6</ele>
        <time>2020-10-12T09:29:59Z</time>
      </trkpt>
      <trkpt lat="37.483144000" lon="-5.298240000">
        <ele>128.4</ele>
        <time>2020-10-12T09:30:02Z</time>
      </trkpt>
      <trkpt lat="37.483215000" lon="-5.298177000">
        <ele>128.0</ele>
        <time>2020-10-12T09:30:05Z</time>
      </trkpt>
      <trkpt lat="37.483290000" lon="-5.298112000">
        <ele>127.6</ele>
        <time>2020-10-12T09:30:08Z</time>
      </trkpt>
      <trkpt lat="37.483370000" lon="-5.298061000">
        <ele>127.2</ele>
        <time>2020-10-12T09:30:11Z</time>
      </trkpt>
      <trkpt lat="37.483448000" lon="-5.298006000">
        <ele>126.7</ele>
        <time>2020-10-12T09:30:14Z</time>
      </trkpt>
      <trkpt lat="37.483524000" lon="-5.297945000">
        <ele>126.3</ele>
        <time>2020-10-12T09:30:17Z</time>
      </trkpt>
      <trkpt lat="37.483605000" lon="-5.297889000">
        <ele>126.0</ele>
        <time>2020-10-12T09:30:20Z</time>
      </trkpt>
      <trkpt lat="37.483703000" lon="-5.297833000">
        <ele>125.8</ele>
        <time>2020-10-12T09:30:23Z</time>
      </trkpt>
      <trkpt lat="37.483798000" lon="-5.297771000">
        <ele>125.8</ele>
        <time>2020-10-12T09:30:26Z</time>
      </trkpt>
      <trkpt lat="37.483889000" lon="-5.297709000">
        <ele>125.9</ele>
        <time>2020-10-12T09:30:29Z</time>
      </trkpt>
      <trkpt lat="37.483984000" lon="-5.297657000">
        <ele>126.0</ele>
        <time>2020-10-12T09:30:32Z</time>
      </trkpt>
      <trkpt lat="37.484079000" lon="-5.297600000">
        <ele>126.0</ele>
        <time>2020-10-12T09:30:35Z</time>
      </trkpt>
      <trkpt lat="37.484173000" lon="-5.297544000">
        <ele>126.0</ele>
        <time>2020-10-12T09:30:38Z</time>
      </trkpt>
      <trkpt lat="37.484266000" lon="-5.297491000">
        <ele>126.0</ele>
        <time>2020-10-12T09:30:41Z</time>
      </trkpt>
      <trkpt lat="37.484346000" lon="-5.297445000">
        <ele>126.0</ele>
        <time>2020-10-12T09:30:44Z</time>
      </trkpt>
      <trkpt lat="37.484424000" lon="-5.297406000">
        <ele>126.0</ele>
        <time>2020-10-12T09:30:47Z</time>
      </trkpt>
      <trkpt lat="37.484515000" lon="-5.297358000">
        <ele>126.0</ele>
        <time>2020-10-12T09:30:51Z</time>
      </trkpt>
      <trkpt lat="37.484596000" lon="-5.297321000">
        <ele>125.9</ele>
        <time>2020-10-12T09:30:54Z</time>
      </trkpt>
      <trkpt lat="37.484677000" lon="-5.297276000">
        <ele>125.8</ele>
        <time>2020-10-12T09:30:57Z</time>
      </trkpt>
      <trkpt lat="37.484756000" lon="-5.297247000">
        <ele>125.7</ele>
        <time>2020-10-12T09:31:00Z</time>
      </trkpt>
      <trkpt lat="37.484857000" lon="-5.297204000">
        <ele>125.6</ele>
        <time>2020-10-12T09:31:04Z</time>
      </trkpt>
      <trkpt lat="37.484936000" lon="-5.297165000">
        <ele>125.5</ele>
        <time>2020-10-12T09:31:07Z</time>
      </trkpt>
      <trkpt lat="37.485025000" lon="-5.297127000">
        <ele>125.5</ele>
        <time>2020-10-12T09:31:10Z</time>
      </trkpt>
      <trkpt lat="37.485111000" lon="-5.297084000">
        <ele>125.6</ele>
        <time>2020-10-12T09:31:13Z</time>
      </trkpt>
      <trkpt lat="37.485194000" lon="-5.297048000">
        <ele>125.7</ele>
        <time>2020-10-12T09:31:16Z</time>
      </trkpt>
      <trkpt lat="37.485270000" lon="-5.297005000">
        <ele>125.9</ele>
        <time>2020-10-12T09:31:19Z</time>
      </trkpt>
      <trkpt lat="37.485364000" lon="-5.296955000">
        <ele>126.1</ele>
        <time>2020-10-12T09:31:23Z</time>
      </trkpt>
      <trkpt lat="37.485444000" lon="-5.296925000">
        <ele>126.3</ele>
        <time>2020-10-12T09:31:26Z</time>
      </trkpt>
      <trkpt lat="37.485524000" lon="-5.296900000">
        <ele>126.5</ele>
        <time>2020-10-12T09:31:29Z</time>
      </trkpt>
      <trkpt lat="37.485600000" lon="-5.296861000">
        <ele>126.7</ele>
        <time>2020-10-12T09:31:32Z</time>
      </trkpt>
      <trkpt lat="37.485691000" lon="-5.296821000">
        <ele>126.9</ele>
        <time>2020-10-12T09:31:36Z</time>
      </trkpt>
      <trkpt lat="37.485781000" lon="-5.296774000">
        <ele>127.2</ele>
        <time>2020-10-12T09:31:40Z</time>
      </trkpt>
      <trkpt lat="37.485878000" lon="-5.296747000">
        <ele>127.5</ele>
        <time>2020-10-12T09:31:44Z</time>
      </trkpt>
      <trkpt lat="37.485976000" lon="-5.296699000">
        <ele>127.8</ele>
        <time>2020-10-12T09:31:48Z</time>
      </trkpt>
      <trkpt lat="37.486054000" lon="-5.296665000">
        <ele>128.1</ele>
        <time>2020-10-12T09:31:51Z</time>
      </trkpt>
      <trkpt lat="37.486138000" lon="-5.296632000">
        <ele>128.3</ele>
        <time>2020-10-12T09:31:54Z</time>
      </trkpt>
      <trkpt lat="37.486224000" lon="-5.296599000">
        <ele>128.5</ele>
        <time>2020-10-12T09:31:57Z</time>
      </trkpt>
      <trkpt lat="37.486307000" lon="-5.296556000">
        <ele>128.6</ele>
        <time>2020-10-12T09:32:00Z</time>
      </trkpt>
      <trkpt lat="37.486378000" lon="-5.296495000">
        <ele>128.8</ele>
        <time>2020-10-12T09:32:03Z</time>
      </trkpt>
      <trkpt lat="37.486479000" lon="-5.296446000">
        <ele>128.9</ele>
        <time>2020-10-12T09:32:07Z</time>
      </trkpt>
      <trkpt lat="37.486566000" lon="-5.296405000">
        <ele>128.8</ele>
        <time>2020-10-12T09:32:10Z</time>
      </trkpt>
      <trkpt lat="37.486646000" lon="-5.296361000">
        <ele>128.6</ele>
        <time>2020-10-12T09:32:13Z</time>
      </trkpt>
      <trkpt lat="37.486727000" lon="-5.296329000">
        <ele>128.3</ele>
        <time>2020-10-12T09:32:16Z</time>
      </trkpt>
      <trkpt lat="37.486807000" lon="-5.296293000">
        <ele>127.8</ele>
        <time>2020-10-12T09:32:19Z</time>
      </trkpt>
      <trkpt lat="37.486883000" lon="-5.296256000">
        <ele>127.1</ele>
        <time>2020-10-12T09:32:22Z</time>
      </trkpt>
      <trkpt lat="37.486983000" lon="-5.296210000">
        <ele>126.3</ele>
        <time>2020-10-12T09:32:26Z</time>
      </trkpt>
      <trkpt lat="37.487068000" lon="-5.296181000">
        <ele>125.5</ele>
        <time>2020-10-12T09:32:29Z</time>
      </trkpt>
      <trkpt lat="37.487150000" lon="-5.296145000">
        <ele>124.6</ele>
        <time>2020-10-12T09:32:33Z</time>
      </trkpt>
      <trkpt lat="37.487246000" lon="-5.296095000">
        <ele>123.7</ele>
        <time>2020-10-12T09:32:37Z</time>
      </trkpt>
      <trkpt lat="37.487321000" lon="-5.296050000">
        <ele>122.8</ele>
        <time>2020-10-12T09:32:40Z</time>
      </trkpt>
      <trkpt lat="37.487401000" lon="-5.296014000">
        <ele>122.0</ele>
        <time>2020-10-12T09:32:43Z</time>
      </trkpt>
      <trkpt lat="37.487479000" lon="-5.295984000">
        <ele>121.3</ele>
        <time>2020-10-12T09:32:46Z</time>
      </trkpt>
      <trkpt lat="37.487576000" lon="-5.295936000">
        <ele>120.6</ele>
        <time>2020-10-12T09:32:50Z</time>
      </trkpt>
      <trkpt lat="37.487657000" lon="-5.295909000">
        <ele>120.1</ele>
        <time>2020-10-12T09:32:53Z</time>
      </trkpt>
      <trkpt lat="37.487739000" lon="-5.295878000">
        <ele>119.7</ele>
        <time>2020-10-12T09:32:56Z</time>
      </trkpt>
      <trkpt lat="37.487818000" lon="-5.295838000">
        <ele>119.6</ele>
        <time>2020-10-12T09:32:59Z</time>
      </trkpt>
      <trkpt lat="37.487896000" lon="-5.295795000">
        <ele>119.7</ele>
        <time>2020-10-12T09:33:02Z</time>
      </trkpt>
      <trkpt lat="37.487997000" lon="-5.295748000">
        <ele>120.1</ele>
        <time>2020-10-12T09:33:06Z</time>
      </trkpt>
      <trkpt lat="37.488073000" lon="-5.295706000">
        <ele>120.6</ele>
        <time>2020-10-12T09:33:09Z</time>
      </trkpt>
      <trkpt lat="37.488148000" lon="-5.295664000">
        <ele>121.4</ele>
        <time>2020-10-12T09:33:12Z</time>
      </trkpt>
      <trkpt lat="37.488241000" lon="-5.295621000">
        <ele>122.2</ele>
        <time>2020-10-12T09:33:16Z</time>
      </trkpt>
      <trkpt lat="37.488334000" lon="-5.295575000">
        <ele>123.0</ele>
        <time>2020-10-12T09:33:20Z</time>
      </trkpt>
      <trkpt lat="37.488421000" lon="-5.295533000">
        <ele>123.8</ele>
        <time>2020-10-12T09:33:24Z</time>
      </trkpt>
      <trkpt lat="37.488517000" lon="-5.295481000">
        <ele>124.5</ele>
        <time>2020-10-12T09:33:28Z</time>
      </trkpt>
      <trkpt lat="37.488595000" lon="-5.295446000">
        <ele>125.3</ele>
        <time>2020-10-12T09:33:31Z</time>
      </trkpt>
      <trkpt lat="37.488673000" lon="-5.295407000">
        <ele>125.9</ele>
        <time>2020-10-12T09:33:34Z</time>
      </trkpt>
      <trkpt lat="37.488756000" lon="-5.295381000">
        <ele>126.4</ele>
        <time>2020-10-12T09:33:37Z</time>
      </trkpt>
      <trkpt lat="37.488854000" lon="-5.295347000">
        <ele>126.7</ele>
        <time>2020-10-12T09:33:41Z</time>
      </trkpt>
      <trkpt lat="37.488951000" lon="-5.295305000">
        <ele>126.8</ele>
        <time>2020-10-12T09:33:45Z</time>
      </trkpt>
      <trkpt lat="37.489027000" lon="-5.295267000">
        <ele>126.6</ele>
        <time>2020-10-12T09:33:48Z</time>
      </trkpt>
      <trkpt lat="37.489104000" lon="-5.295231000">
        <ele>126.4</ele>
        <time>2020-10-12T09:33:51Z</time>
      </trkpt>
      <trkpt lat="37.489203000" lon="-5.295188000">
        <ele>126.1</ele>
        <time>2020-10-12T09:33:55Z</time>
      </trkpt>
      <trkpt lat="37.489299000" lon="-5.295147000">
        <ele>125.8</ele>
        <time>2020-10-12T09:33:59Z</time>
      </trkpt>
      <trkpt lat="37.489375000" lon="-5.295105000">
        <ele>125.6</ele>
        <time>2020-10-12T09:34:02Z</time>
      </trkpt>
      <trkpt lat="37.489458000" lon="-5.295061000">
        <ele>125.5</ele>
        <time>2020-10-12T09:34:05Z</time>
      </trkpt>
      <trkpt lat="37.489559000" lon="-5.295018000">
        <ele>125.5</ele>
        <time>2020-10-12T09:34:08Z</time>
      </trkpt>
      <trkpt lat="37.489664000" lon="-5.294972000">
        <ele>125.5</ele>
        <time>2020-10-12T09:34:11Z</time>
      </trkpt>
      <trkpt lat="37.489763000" lon="-5.294931000">
        <ele>125.6</ele>
        <time>2020-10-12T09:34:14Z</time>
      </trkpt>
      <trkpt lat="37.489843000" lon="-5.294894000">
        <ele>125.8</ele>
        <time>2020-10-12T09:34:17Z</time>
      </trkpt>
      <trkpt lat="37.489926000" lon="-5.294860000">
        <ele>126.0</ele>
        <time>2020-10-12T09:34:20Z</time>
      </trkpt>
      <trkpt lat="37.490012000" lon="-5.294814000">
        <ele>126.2</ele>
        <time>2020-10-12T09:34:23Z</time>
      </trkpt>
      <trkpt lat="37.490089000" lon="-5.294765000">
        <ele>126.4</ele>
        <time>2020-10-12T09:34:26Z</time>
      </trkpt>
      <trkpt lat="37.490185000" lon="-5.294724000">
        <ele>126.4</ele>
        <time>2020-10-12T09:34:30Z</time>
      </trkpt>
      <trkpt lat="37.490280000" lon="-5.294681000">
        <ele>126.4</ele>
        <time>2020-10-12T09:34:34Z</time>
      </trkpt>
      <trkpt lat="37.490379000" lon="-5.294632000">
        <ele>126.3</ele>
        <time>2020-10-12T09:34:38Z</time>
      </trkpt>
      <trkpt lat="37.490457000" lon="-5.294599000">
        <ele>126.3</ele>
        <time>2020-10-12T09:34:41Z</time>
      </trkpt>
      <trkpt lat="37.490558000" lon="-5.294558000">
        <ele>126.3</ele>
        <time>2020-10-12T09:34:45Z</time>
      </trkpt>
      <trkpt lat="37.490657000" lon="-5.294515000">
        <ele>126.4</ele>
        <time>2020-10-12T09:34:49Z</time>
      </trkpt>
      <trkpt lat="37.490745000" lon="-5.294474000">
        <ele>126.5</ele>
        <time>2020-10-12T09:34:53Z</time>
      </trkpt>
      <trkpt lat="37.490827000" lon="-5.294430000">
        <ele>126.5</ele>
        <time>2020-10-12T09:34:57Z</time>
      </trkpt>
      <trkpt lat="37.490915000" lon="-5.294397000">
        <ele>126.5</ele>
        <time>2020-10-12T09:35:01Z</time>
      </trkpt>
      <trkpt lat="37.491008000" lon="-5.294356000">
        <ele>126.7</ele>
        <time>2020-10-12T09:35:05Z</time>
      </trkpt>
      <trkpt lat="37.491110000" lon="-5.294325000">
        <ele>126.9</ele>
        <time>2020-10-12T09:35:09Z</time>
      </trkpt>
      <trkpt lat="37.491188000" lon="-5.294289000">
        <ele>127.1</ele>
        <time>2020-10-12T09:35:12Z</time>
      </trkpt>
      <trkpt lat="37.491269000" lon="-5.294265000">
        <ele>127.3</ele>
        <time>2020-10-12T09:35:15Z</time>
      </trkpt>
      <trkpt lat="37.491356000" lon="-5.294223000">
        <ele>127.4</ele>
        <time>2020-10-12T09:35:18Z</time>
      </trkpt>
      <trkpt lat="37.491441000" lon="-5.294177000">
        <ele>127.3</ele>
        <time>2020-10-12T09:35:21Z</time>
      </trkpt>
      <trkpt lat="37.491522000" lon="-5.294137000">
        <ele>127.0</ele>
        <time>2020-10-12T09:35:24Z</time>
      </trkpt>
      <trkpt lat="37.491604000" lon="-5.294097000">
        <ele>126.6</ele>
        <time>2020-10-12T09:35:27Z</time>
      </trkpt>
      <trkpt lat="37.491690000" lon="-5.294066000">
        <ele>126.3</ele>
        <time>2020-10-12T09:35:30Z</time>
      </trkpt>
      <trkpt lat="37.491781000" lon="-5.294025000">
        <ele>125.9</ele>
        <time>2020-10-12T09:35:33Z</time>
      </trkpt>
      <trkpt lat="37.491871000" lon="-5.293984000">
        <ele>125.5</ele>
        <time>2020-10-12T09:35:36Z</time>
      </trkpt>
      <trkpt lat="37.491960000" lon="-5.293939000">
        <ele>125.3</ele>
        <time>2020-10-12T09:35:39Z</time>
      </trkpt>
      <trkpt lat="37.492045000" lon="-5.293897000">
        <ele>125.0</ele>
        <time>2020-10-12T09:35:42Z</time>
      </trkpt>
      <trkpt lat="37.492129000" lon="-5.293859000">
        <ele>124.9</ele>
        <time>2020-10-12T09:35:45Z</time>
      </trkpt>
      <trkpt lat="37.492215000" lon="-5.293822000">
        <ele>124.8</ele>
        <time>2020-10-12T09:35:48Z</time>
      </trkpt>
      <trkpt lat="37.492304000" lon="-5.293787000">
        <ele>124.9</ele>
        <time>2020-10-12T09:35:51Z</time>
      </trkpt>
      <trkpt lat="37.492389000" lon="-5.293745000">
        <ele>125.1</ele>
        <time>2020-10-12T09:35:54Z</time>
      </trkpt>
      <trkpt lat="37.492468000" lon="-5.293703000">
        <ele>125.3</ele>
        <time>2020-10-12T09:35:57Z</time>
      </trkpt>
      <trkpt lat="37.492549000" lon="-5.293665000">
        <ele>125.5</ele>
        <time>2020-10-12T09:36:00Z</time>
      </trkpt>
      <trkpt lat="37.492633000" lon="-5.293626000">
        <ele>125.5</ele>
        <time>2020-10-12T09:36:03Z</time>
      </trkpt>
      <trkpt lat="37.492717000" lon="-5.293584000">
        <ele>125.5</ele>
        <time>2020-10-12T09:36:06Z</time>
      </trkpt>
      <trkpt lat="37.492802000" lon="-5.293545000">
        <ele>125.5</ele>
        <time>2020-10-12T09:36:09Z</time>
      </trkpt>
      <trkpt lat="37.492880000" lon="-5.293494000">
        <ele>125.5</ele>
        <time>2020-10-12T09:36:12Z</time>
      </trkpt>
      <trkpt lat="37.492968000" lon="-5.293446000">
        <ele>125.4</ele>
        <time>2020-10-12T09:36:15Z</time>
      </trkpt>
      <trkpt lat="37.493067000" lon="-5.293393000">
        <ele>125.2</ele>
        <time>2020-10-12T09:36:18Z</time>
      </trkpt>
      <trkpt lat="37.493171000" lon="-5.293339000">
        <ele>125.1</ele>
        <time>2020-10-12T09:36:21Z</time>
      </trkpt>
      <trkpt lat="37.493282000" lon="-5.293291000">
        <ele>125.0</ele>
        <time>2020-10-12T09:36:24Z</time>
      </trkpt>
      <trkpt lat="37.493392000" lon="-5.293242000">
        <ele>124.9</ele>
        <time>2020-10-12T09:36:27Z</time>
      </trkpt>
      <trkpt lat="37.493502000" lon="-5.293194000">
        <ele>124.9</ele>
        <time>2020-10-12T09:36:30Z</time>
      </trkpt>
      <trkpt lat="37.493611000" lon="-5.293146000">
        <ele>124.9</ele>
        <time>2020-10-12T09:36:33Z</time>
      </trkpt>
      <trkpt lat="37.493721000" lon="-5.293103000">
        <ele>124.9</ele>
        <time>2020-10-12T09:36:36Z</time>
      </trkpt>
      <trkpt lat="37.493828000" lon="-5.293053000">
        <ele>125.0</ele>
        <time>2020-10-12T09:36:39Z</time>
      </trkpt>
      <trkpt lat="37.493937000" lon="-5.293000000">
        <ele>125.0</ele>
        <time>2020-10-12T09:36:42Z</time>
      </trkpt>
      <trkpt lat="37.494037000" lon="-5.292944000">
        <ele>125.0</ele>
        <time>2020-10-12T09:36:45Z</time>
      </trkpt>
      <trkpt lat="37.494133000" lon="-5.292908000">
        <ele>125.1</ele>
        <time>2020-10-12T09:36:48Z</time>
      </trkpt>
      <trkpt lat="37.494228000" lon="-5.292861000">
        <ele>125.2</ele>
        <time>2020-10-12T09:36:51Z</time>
      </trkpt>
      <trkpt lat="37.494328000" lon="-5.292810000">
        <ele>125.2</ele>
        <time>2020-10-12T09:36:54Z</time>
      </trkpt>
      <trkpt lat="37.494424000" lon="-5.292759000">
        <ele>125.0</ele>
        <time>2020-10-12T09:36:57Z</time>
      </trkpt>
      <trkpt lat="37.494514000" lon="-5.292717000">
        <ele>124.8</ele>
        <time>2020-10-12T09:37:00Z</time>
      </trkpt>
      <trkpt lat="37.494616000" lon="-5.292663000">
        <ele>124.5</ele>
        <time>2020-10-12T09:37:04Z</time>
      </trkpt>
      <trkpt lat="37.494710000" lon="-5.292626000">
        <ele>124.2</ele>
        <time>2020-10-12T09:37:07Z</time>
      </trkpt>
      <trkpt lat="37.494802000" lon="-5.292583000">
        <ele>123.9</ele>
        <time>2020-10-12T09:37:10Z</time>
      </trkpt>
      <trkpt lat="37.494885000" lon="-5.292537000">
        <ele>123.5</ele>
        <time>2020-10-12T09:37:13Z</time>
      </trkpt>
      <trkpt lat="37.494960000" lon="-5.292499000">
        <ele>123.3</ele>
        <time>2020-10-12T09:37:16Z</time>
      </trkpt>
      <trkpt lat="37.495040000" lon="-5.292457000">
        <ele>123.0</ele>
        <time>2020-10-12T09:37:19Z</time>
      </trkpt>
      <trkpt lat="37.495127000" lon="-5.292405000">
        <ele>122.6</ele>
        <time>2020-10-12T09:37:22Z</time>
      </trkpt>
      <trkpt lat="37.495221000" lon="-5.292372000">
        <ele>122.3</ele>
        <time>2020-10-12T09:37:25Z</time>
      </trkpt>
      <trkpt lat="37.495312000" lon="-5.292342000">
        <ele>121.9</ele>
        <time>2020-10-12T09:37:28Z</time>
      </trkpt>
      <trkpt lat="37.495400000" lon="-5.292305000">
        <ele>121.6</ele>
        <time>2020-10-12T09:37:31Z</time>
      </trkpt>
      <trkpt lat="37.495487000" lon="-5.292268000">
        <ele>121.4</ele>
        <time>2020-10-12T09:37:34Z</time>
      </trkpt>
      <trkpt lat="37.495577000" lon="-5.292218000">
        <ele>121.2</ele>
        <time>2020-10-12T09:37:37Z</time>
      </trkpt>
      <trkpt lat="37.495675000" lon="-5.292178000">
        <ele>121.1</ele>
        <time>2020-10-12T09:37:40Z</time>
      </trkpt>
      <trkpt lat="37.495772000" lon="-5.292126000">
        <ele>121.0</ele>
        <time>2020-10-12T09:37:43Z</time>
      </trkpt>
      <trkpt lat="37.495868000" lon="-5.292080000">
        <ele>121.0</ele>
        <time>2020-10-12T09:37:46Z</time>
      </trkpt>
      <trkpt lat="37.495962000" lon="-5.292031000">
        <ele>121.0</ele>
        <time>2020-10-12T09:37:49Z</time>
      </trkpt>
      <trkpt lat="37.496054000" lon="-5.291991000">
        <ele>121.0</ele>
        <time>2020-10-12T09:37:52Z</time>
      </trkpt>
      <trkpt lat="37.496140000" lon="-5.291959000">
        <ele>121.0</ele>
        <time>2020-10-12T09:37:55Z</time>
      </trkpt>
      <trkpt lat="37.496217000" lon="-5.291924000">
        <ele>121.1</ele>
        <time>2020-10-12T09:37:58Z</time>
      </trkpt>
      <trkpt lat="37.496318000" lon="-5.291880000">
        <ele>121.2</ele>
        <time>2020-10-12T09:38:02Z</time>
      </trkpt>
      <trkpt lat="37.496398000" lon="-5.291854000">
        <ele>121.3</ele>
        <time>2020-10-12T09:38:05Z</time>
      </trkpt>
      <trkpt lat="37.496487000" lon="-5.291831000">
        <ele>121.4</ele>
        <time>2020-10-12T09:38:08Z</time>
      </trkpt>
      <trkpt lat="37.496572000" lon="-5.291814000">
        <ele>121.5</ele>
        <time>2020-10-12T09:38:11Z</time>
      </trkpt>
      <trkpt lat="37.496657000" lon="-5.291799000">
        <ele>121.8</ele>
        <time>2020-10-12T09:38:14Z</time>
      </trkpt>
      <trkpt lat="37.496746000" lon="-5.291774000">
        <ele>122.1</ele>
        <time>2020-10-12T09:38:17Z</time>
      </trkpt>
      <trkpt lat="37.496830000" lon="-5.291735000">
        <ele>122.5</ele>
        <time>2020-10-12T09:38:20Z</time>
      </trkpt>
      <trkpt lat="37.496915000" lon="-5.291682000">
        <ele>122.8</ele>
        <time>2020-10-12T09:38:23Z</time>
      </trkpt>
      <trkpt lat="37.497008000" lon="-5.291647000">
        <ele>123.3</ele>
        <time>2020-10-12T09:38:26Z</time>
      </trkpt>
      <trkpt lat="37.497101000" lon="-5.291601000">
        <ele>123.7</ele>
        <time>2020-10-12T09:38:30Z</time>
      </trkpt>
      <trkpt lat="37.497180000" lon="-5.291566000">
        <ele>124.0</ele>
        <time>2020-10-12T09:38:33Z</time>
      </trkpt>
      <trkpt lat="37.497269000" lon="-5.291528000">
        <ele>124.2</ele>
        <time>2020-10-12T09:38:36Z</time>
      </trkpt>
      <trkpt lat="37.497357000" lon="-5.291488000">
        <ele>124.4</ele>
        <time>2020-10-12T09:38:39Z</time>
      </trkpt>
      <trkpt lat="37.497445000" lon="-5.291453000">
        <ele>124.5</ele>
        <time>2020-10-12T09:38:42Z</time>
      </trkpt>
      <trkpt lat="37.497537000" lon="-5.291416000">
        <ele>124.5</ele>
        <time>2020-10-12T09:38:45Z</time>
      </trkpt>
      <trkpt lat="37.497626000" lon="-5.291373000">
        <ele>124.5</ele>
        <time>2020-10-12T09:38:48Z</time>
      </trkpt>
      <trkpt lat="37.497718000" lon="-5.291345000">
        <ele>124.4</ele>
        <time>2020-10-12T09:38:51Z</time>
      </trkpt>
      <trkpt lat="37.497806000" lon="-5.291309000">
        <ele>124.3</ele>
        <time>2020-10-12T09:38:54Z</time>
      </trkpt>
      <trkpt lat="37.497889000" lon="-5.291265000">
        <ele>124.2</ele>
        <time>2020-10-12T09:38:57Z</time>
      </trkpt>
      <trkpt lat="37.497974000" lon="-5.291235000">
        <ele>124.0</ele>
        <time>2020-10-12T09:39:00Z</time>
      </trkpt>
      <trkpt lat="37.498054000" lon="-5.291200000">
        <ele>123.8</ele>
        <time>2020-10-12T09:39:03Z</time>
      </trkpt>
      <trkpt lat="37.498154000" lon="-5.291149000">
        <ele>123.8</ele>
        <time>2020-10-12T09:39:07Z</time>
      </trkpt>
      <trkpt lat="37.498230000" lon="-5.291110000">
        <ele>123.9</ele>
        <time>2020-10-12T09:39:10Z</time>
      </trkpt>
      <trkpt lat="37.498327000" lon="-5.291056000">
        <ele>124.0</ele>
        <time>2020-10-12T09:39:14Z</time>
      </trkpt>
      <trkpt lat="37.498421000" lon="-5.291006000">
        <ele>124.1</ele>
        <time>2020-10-12T09:39:18Z</time>
      </trkpt>
      <trkpt lat="37.498513000" lon="-5.290941000">
        <ele>124.3</ele>
        <time>2020-10-12T09:39:22Z</time>
      </trkpt>
      <trkpt lat="37.498608000" lon="-5.290883000">
        <ele>124.5</ele>
        <time>2020-10-12T09:39:26Z</time>
      </trkpt>
      <trkpt lat="37.498683000" lon="-5.290837000">
        <ele>124.6</ele>
        <time>2020-10-12T09:39:29Z</time>
      </trkpt>
      <trkpt lat="37.498759000" lon="-5.290791000">
        <ele>124.6</ele>
        <time>2020-10-12T09:39:32Z</time>
      </trkpt>
      <trkpt lat="37.498839000" lon="-5.290746000">
        <ele>124.6</ele>
        <time>2020-10-12T09:39:35Z</time>
      </trkpt>
      <trkpt lat="37.498915000" lon="-5.290692000">
        <ele>124.6</ele>
        <time>2020-10-12T09:39:38Z</time>
      </trkpt>
      <trkpt lat="37.498995000" lon="-5.290622000">
        <ele>124.7</ele>
        <time>2020-10-12T09:41:53Z</time>
      </trkpt>
      <trkpt lat="37.499074000" lon="-5.290558000">
        <ele>124.7</ele>
        <time>2020-10-12T09:41:57Z</time>
      </trkpt>
      <trkpt lat="37.499167000" lon="-5.290494000">
        <ele>124.7</ele>
        <time>2020-10-12T09:42:01Z</time>
      </trkpt>
      <trkpt lat="37.499243000" lon="-5.290444000">
        <ele>124.7</ele>
        <time>2020-10-12T09:42:04Z</time>
      </trkpt>
      <trkpt lat="37.499317000" lon="-5.290400000">
        <ele>124.7</ele>
        <time>2020-10-12T09:42:07Z</time>
      </trkpt>
      <trkpt lat="37.499391000" lon="-5.290352000">
        <ele>124.7</ele>
        <time>2020-10-12T09:42:10Z</time>
      </trkpt>
      <trkpt lat="37.499471000" lon="-5.290299000">
        <ele>124.7</ele>
        <time>2020-10-12T09:42:13Z</time>
      </trkpt>
      <trkpt lat="37.499552000" lon="-5.290222000">
        <ele>124.8</ele>
        <time>2020-10-12T09:42:16Z</time>
      </trkpt>
      <trkpt lat="37.499624000" lon="-5.290134000">
        <ele>125.0</ele>
        <time>2020-10-12T09:42:19Z</time>
      </trkpt>
      <trkpt lat="37.499697000" lon="-5.290049000">
        <ele>125.2</ele>
        <time>2020-10-12T09:42:22Z</time>
      </trkpt>
      <trkpt lat="37.499777000" lon="-5.289973000">
        <ele>125.3</ele>
        <time>2020-10-12T09:42:25Z</time>
      </trkpt>
      <trkpt lat="37.499854000" lon="-5.289895000">
        <ele>125.3</ele>
        <time>2020-10-12T09:42:28Z</time>
      </trkpt>
      <trkpt lat="37.499929000" lon="-5.289821000">
        <ele>125.2</ele>
        <time>2020-10-12T09:42:31Z</time>
      </trkpt>
      <trkpt lat="37.500013000" lon="-5.289747000">
        <ele>125.0</ele>
        <time>2020-10-12T09:42:34Z</time>
      </trkpt>
      <trkpt lat="37.500093000" lon="-5.289665000">
        <ele>124.8</ele>
        <time>2020-10-12T09:42:37Z</time>
      </trkpt>
      <trkpt lat="37.500176000" lon="-5.289588000">
        <ele>124.5</ele>
        <time>2020-10-12T09:42:40Z</time>
      </trkpt>
      <trkpt lat="37.500253000" lon="-5.289506000">
        <ele>124.3</ele>
        <time>2020-10-12T09:42:43Z</time>
      </trkpt>
      <trkpt lat="37.500330000" lon="-5.289429000">
        <ele>124.0</ele>
        <time>2020-10-12T09:42:46Z</time>
      </trkpt>
      <trkpt lat="37.500409000" lon="-5.289351000">
        <ele>123.6</ele>
        <time>2020-10-12T09:42:49Z</time>
      </trkpt>
      <trkpt lat="37.500486000" lon="-5.289270000">
        <ele>123.3</ele>
        <time>2020-10-12T09:42:52Z</time>
      </trkpt>
      <trkpt lat="37.500559000" lon="-5.289189000">
        <ele>122.9</ele>
        <time>2020-10-12T09:42:55Z</time>
      </trkpt>
      <trkpt lat="37.500636000" lon="-5.289111000">
        <ele>122.6</ele>
        <time>2020-10-12T09:42:58Z</time>
      </trkpt>
      <trkpt lat="37.500715000" lon="-5.289028000">
        <ele>122.4</ele>
        <time>2020-10-12T09:43:01Z</time>
      </trkpt>
      <trkpt lat="37.500800000" lon="-5.288950000">
        <ele>122.2</ele>
        <time>2020-10-12T09:43:04Z</time>
      </trkpt>
      <trkpt lat="37.500884000" lon="-5.288869000">
        <ele>122.1</ele>
        <time>2020-10-12T09:43:07Z</time>
      </trkpt>
      <trkpt lat="37.500971000" lon="-5.288788000">
        <ele>122.1</ele>
        <time>2020-10-12T09:43:10Z</time>
      </trkpt>
      <trkpt lat="37.501055000" lon="-5.288711000">
        <ele>122.2</ele>
        <time>2020-10-12T09:43:13Z</time>
      </trkpt>
      <trkpt lat="37.501135000" lon="-5.288634000">
        <ele>122.4</ele>
        <time>2020-10-12T09:43:16Z</time>
      </trkpt>
      <trkpt lat="37.501216000" lon="-5.288558000">
        <ele>122.5</ele>
        <time>2020-10-12T09:43:19Z</time>
      </trkpt>
      <trkpt lat="37.501301000" lon="-5.288477000">
        <ele>122.7</ele>
        <time>2020-10-12T09:43:22Z</time>
      </trkpt>
      <trkpt lat="37.501389000" lon="-5.288395000">
        <ele>123.0</ele>
        <time>2020-10-12T09:43:25Z</time>
      </trkpt>
      <trkpt lat="37.501472000" lon="-5.288309000">
        <ele>123.3</ele>
        <time>2020-10-12T09:43:28Z</time>
      </trkpt>
      <trkpt lat="37.501560000" lon="-5.288229000">
        <ele>123.5</ele>
        <time>2020-10-12T09:43:31Z</time>
      </trkpt>
      <trkpt lat="37.501648000" lon="-5.288144000">
        <ele>123.8</ele>
        <time>2020-10-12T09:43:34Z</time>
      </trkpt>
      <trkpt lat="37.501735000" lon="-5.288060000">
        <ele>124.1</ele>
        <time>2020-10-12T09:43:37Z</time>
      </trkpt>
      <trkpt lat="37.501819000" lon="-5.287972000">
        <ele>124.5</ele>
        <time>2020-10-12T09:43:40Z</time>
      </trkpt>
      <trkpt lat="37.501902000" lon="-5.287889000">
        <ele>124.7</ele>
        <time>2020-10-12T09:43:43Z</time>
      </trkpt>
      <trkpt lat="37.501987000" lon="-5.287805000">
        <ele>125.0</ele>
        <time>2020-10-12T09:43:46Z</time>
      </trkpt>
      <trkpt lat="37.502077000" lon="-5.287731000">
        <ele>125.2</ele>
        <time>2020-10-12T09:43:49Z</time>
      </trkpt>
      <trkpt lat="37.502154000" lon="-5.287658000">
        <ele>125.4</ele>
        <time>2020-10-12T09:43:52Z</time>
      </trkpt>
      <trkpt lat="37.502235000" lon="-5.287581000">
        <ele>125.5</ele>
        <time>2020-10-12T09:43:55Z</time>
      </trkpt>
      <trkpt lat="37.502315000" lon="-5.287505000">
        <ele>125.5</ele>
        <time>2020-10-12T09:43:58Z</time>
      </trkpt>
      <trkpt lat="37.502398000" lon="-5.287428000">
        <ele>125.6</ele>
        <time>2020-10-12T09:44:01Z</time>
      </trkpt>
      <trkpt lat="37.502483000" lon="-5.287349000">
        <ele>125.7</ele>
        <time>2020-10-12T09:44:04Z</time>
      </trkpt>
      <trkpt lat="37.502559000" lon="-5.287268000">
        <ele>125.8</ele>
        <time>2020-10-12T09:44:07Z</time>
      </trkpt>
      <trkpt lat="37.502643000" lon="-5.287192000">
        <ele>126.0</ele>
        <time>2020-10-12T09:44:10Z</time>
      </trkpt>
      <trkpt lat="37.502733000" lon="-5.287120000">
        <ele>126.1</ele>
        <time>2020-10-12T09:44:13Z</time>
      </trkpt>
      <trkpt lat="37.502822000" lon="-5.287045000">
        <ele>126.2</ele>
        <time>2020-10-12T09:44:16Z</time>
      </trkpt>
      <trkpt lat="37.502907000" lon="-5.286969000">
        <ele>126.3</ele>
        <time>2020-10-12T09:44:19Z</time>
      </trkpt>
      <trkpt lat="37.502983000" lon="-5.286883000">
        <ele>126.4</ele>
        <time>2020-10-12T09:44:22Z</time>
      </trkpt>
      <trkpt lat="37.503053000" lon="-5.286800000">
        <ele>126.5</ele>
        <time>2020-10-12T09:44:25Z</time>
      </trkpt>
      <trkpt lat="37.503129000" lon="-5.286728000">
        <ele>126.5</ele>
        <time>2020-10-12T09:44:28Z</time>
      </trkpt>
      <trkpt lat="37.503205000" lon="-5.286649000">
        <ele>126.5</ele>
        <time>2020-10-12T09:44:31Z</time>
      </trkpt>
      <trkpt lat="37.503285000" lon="-5.286567000">
        <ele>126.5</ele>
        <time>2020-10-12T09:44:34Z</time>
      </trkpt>
      <trkpt lat="37.503365000" lon="-5.286483000">
        <ele>126.5</ele>
        <time>2020-10-12T09:44:37Z</time>
      </trkpt>
      <trkpt lat="37.503445000" lon="-5.286402000">
        <ele>126.5</ele>
        <time>2020-10-12T09:44:40Z</time>
      </trkpt>
      <trkpt lat="37.503524000" lon="-5.286324000">
        <ele>126.4</ele>
        <time>2020-10-12T09:44:43Z</time>
      </trkpt>
      <trkpt lat="37.503603000" lon="-5.286245000">
        <ele>126.3</ele>
        <time>2020-10-12T09:44:46Z</time>
      </trkpt>
      <trkpt lat="37.503680000" lon="-5.286161000">
        <ele>126.2</ele>
        <time>2020-10-12T09:44:49Z</time>
      </trkpt>
      <trkpt lat="37.503767000" lon="-5.286078000">
        <ele>126.1</ele>
        <time>2020-10-12T09:44:52Z</time>
      </trkpt>
      <trkpt lat="37.503865000" lon="-5.286004000">
        <ele>126.0</ele>
        <time>2020-10-12T09:44:55Z</time>
      </trkpt>
      <trkpt lat="37.503957000" lon="-5.285964000">
        <ele>125.9</ele>
        <time>2020-10-12T09:44:57Z</time>
      </trkpt>
      <trkpt lat="37.504040000" lon="-5.285893000">
        <ele>125.9</ele>
        <time>2020-10-12T09:45:00Z</time>
      </trkpt>
      <trkpt lat="37.504136000" lon="-5.285822000">
        <ele>125.8</ele>
        <time>2020-10-12T09:45:03Z</time>
      </trkpt>
      <trkpt lat="37.504232000" lon="-5.285750000">
        <ele>125.6</ele>
        <time>2020-10-12T09:45:06Z</time>
      </trkpt>
      <trkpt lat="37.504320000" lon="-5.285675000">
        <ele>125.4</ele>
        <time>2020-10-12T09:45:09Z</time>
      </trkpt>
      <trkpt lat="37.504412000" lon="-5.285602000">
        <ele>125.3</ele>
        <time>2020-10-12T09:45:12Z</time>
      </trkpt>
      <trkpt lat="37.504503000" lon="-5.285526000">
        <ele>125.1</ele>
        <time>2020-10-12T09:45:15Z</time>
      </trkpt>
      <trkpt lat="37.504596000" lon="-5.285453000">
        <ele>124.9</ele>
        <time>2020-10-12T09:45:18Z</time>
      </trkpt>
      <trkpt lat="37.504689000" lon="-5.285380000">
        <ele>124.7</ele>
        <time>2020-10-12T09:45:21Z</time>
      </trkpt>
      <trkpt lat="37.504783000" lon="-5.285311000">
        <ele>124.5</ele>
        <time>2020-10-12T09:45:24Z</time>
      </trkpt>
      <trkpt lat="37.504871000" lon="-5.285244000">
        <ele>124.4</ele>
        <time>2020-10-12T09:45:27Z</time>
      </trkpt>
      <trkpt lat="37.504953000" lon="-5.285181000">
        <ele>124.2</ele>
        <time>2020-10-12T09:45:30Z</time>
      </trkpt>
      <trkpt lat="37.505037000" lon="-5.285116000">
        <ele>124.0</ele>
        <time>2020-10-12T09:45:33Z</time>
      </trkpt>
      <trkpt lat="37.505122000" lon="-5.285052000">
        <ele>123.8</ele>
        <time>2020-10-12T09:45:37Z</time>
      </trkpt>
      <trkpt lat="37.505199000" lon="-5.284996000">
        <ele>123.7</ele>
        <time>2020-10-12T09:45:40Z</time>
      </trkpt>
      <trkpt lat="37.505280000" lon="-5.284931000">
        <ele>123.8</ele>
        <time>2020-10-12T09:45:43Z</time>
      </trkpt>
      <trkpt lat="37.505372000" lon="-5.284866000">
        <ele>123.8</ele>
        <time>2020-10-12T09:45:47Z</time>
      </trkpt>
      <trkpt lat="37.505465000" lon="-5.284799000">
        <ele>123.8</ele>
        <time>2020-10-12T09:45:51Z</time>
      </trkpt>
      <trkpt lat="37.505543000" lon="-5.284750000">
        <ele>123.9</ele>
        <time>2020-10-12T09:45:54Z</time>
      </trkpt>
      <trkpt lat="37.505622000" lon="-5.284691000">
        <ele>124.0</ele>
        <time>2020-10-12T09:45:57Z</time>
      </trkpt>
      <trkpt lat="37.505698000" lon="-5.284640000">
        <ele>124.1</ele>
        <time>2020-10-12T09:46:00Z</time>
      </trkpt>
      <trkpt lat="37.505773000" lon="-5.284584000">
        <ele>124.2</ele>
        <time>2020-10-12T09:46:03Z</time>
      </trkpt>
      <trkpt lat="37.505864000" lon="-5.284521000">
        <ele>124.4</ele>
        <time>2020-10-12T09:46:07Z</time>
      </trkpt>
      <trkpt lat="37.505961000" lon="-5.284459000">
        <ele>124.5</ele>
        <time>2020-10-12T09:46:11Z</time>
      </trkpt>
      <trkpt lat="37.506041000" lon="-5.284408000">
        <ele>124.8</ele>
        <time>2020-10-12T09:46:14Z</time>
      </trkpt>
      <trkpt lat="37.506126000" lon="-5.284358000">
        <ele>125.0</ele>
        <time>2020-10-12T09:46:17Z</time>
      </trkpt>
      <trkpt lat="37.506213000" lon="-5.284315000">
        <ele>125.1</ele>
        <time>2020-10-12T09:46:20Z</time>
      </trkpt>
      <trkpt lat="37.506304000" lon="-5.284277000">
        <ele>125.2</ele>
        <time>2020-10-12T09:46:23Z</time>
      </trkpt>
      <trkpt lat="37.506396000" lon="-5.284234000">
        <ele>125.3</ele>
        <time>2020-10-12T09:46:26Z</time>
      </trkpt>
      <trkpt lat="37.506490000" lon="-5.284200000">
        <ele>125.3</ele>
        <time>2020-10-12T09:46:29Z</time>
      </trkpt>
      <trkpt lat="37.506590000" lon="-5.284166000">
        <ele>125.3</ele>
        <time>2020-10-12T09:46:32Z</time>
      </trkpt>
      <trkpt lat="37.506693000" lon="-5.284131000">
        <ele>125.2</ele>
        <time>2020-10-12T09:46:35Z</time>
      </trkpt>
      <trkpt lat="37.506795000" lon="-5.284101000">
        <ele>125.2</ele>
        <time>2020-10-12T09:46:38Z</time>
      </trkpt>
      <trkpt lat="37.506902000" lon="-5.284068000">
        <ele>125.1</ele>
        <time>2020-10-12T09:46:41Z</time>
      </trkpt>
      <trkpt lat="37.507013000" lon="-5.284037000">
        <ele>125.0</ele>
        <time>2020-10-12T09:46:44Z</time>
      </trkpt>
      <trkpt lat="37.507126000" lon="-5.284008000">
        <ele>125.0</ele>
        <time>2020-10-12T09:46:47Z</time>
      </trkpt>
      <trkpt lat="37.507235000" lon="-5.283980000">
        <ele>125.1</ele>
        <time>2020-10-12T09:46:50Z</time>
      </trkpt>
      <trkpt lat="37.507342000" lon="-5.283945000">
        <ele>125.2</ele>
        <time>2020-10-12T09:46:53Z</time>
      </trkpt>
      <trkpt lat="37.507454000" lon="-5.283920000">
        <ele>125.3</ele>
        <time>2020-10-12T09:46:56Z</time>
      </trkpt>
      <trkpt lat="37.507565000" lon="-5.283889000">
        <ele>125.4</ele>
        <time>2020-10-12T09:46:59Z</time>
      </trkpt>
      <trkpt lat="37.507678000" lon="-5.283858000">
        <ele>125.4</ele>
        <time>2020-10-12T09:47:02Z</time>
      </trkpt>
      <trkpt lat="37.507760000" lon="-5.283838000">
        <ele>125.3</ele>
        <time>2020-10-12T09:47:04Z</time>
      </trkpt>
      <trkpt lat="37.507846000" lon="-5.283816000">
        <ele>125.2</ele>
        <time>2020-10-12T09:47:06Z</time>
      </trkpt>
      <trkpt lat="37.507935000" lon="-5.283793000">
        <ele>125.0</ele>
        <time>2020-10-12T09:47:08Z</time>
      </trkpt>
      <trkpt lat="37.508026000" lon="-5.283772000">
        <ele>124.7</ele>
        <time>2020-10-12T09:47:10Z</time>
      </trkpt>
      <trkpt lat="37.508113000" lon="-5.283747000">
        <ele>124.5</ele>
        <time>2020-10-12T09:47:12Z</time>
      </trkpt>
      <trkpt lat="37.508200000" lon="-5.283719000">
        <ele>124.1</ele>
        <time>2020-10-12T09:47:14Z</time>
      </trkpt>
      <trkpt lat="37.508286000" lon="-5.283691000">
        <ele>123.6</ele>
        <time>2020-10-12T09:47:16Z</time>
      </trkpt>
      <trkpt lat="37.508369000" lon="-5.283672000">
        <ele>123.2</ele>
        <time>2020-10-12T09:47:18Z</time>
      </trkpt>
      <trkpt lat="37.508453000" lon="-5.283654000">
        <ele>122.8</ele>
        <time>2020-10-12T09:47:20Z</time>
      </trkpt>
      <trkpt lat="37.508569000" lon="-5.283630000">
        <ele>122.5</ele>
        <time>2020-10-12T09:47:23Z</time>
      </trkpt>
      <trkpt lat="37.508686000" lon="-5.283608000">
        <ele>122.5</ele>
        <time>2020-10-12T09:47:26Z</time>
      </trkpt>
      <trkpt lat="37.508805000" lon="-5.283597000">
        <ele>122.5</ele>
        <time>2020-10-12T09:47:29Z</time>
      </trkpt>
      <trkpt lat="37.508924000" lon="-5.283585000">
        <ele>122.8</ele>
        <time>2020-10-12T09:47:32Z</time>
      </trkpt>
      <trkpt lat="37.509035000" lon="-5.283555000">
        <ele>123.2</ele>
        <time>2020-10-12T09:47:35Z</time>
      </trkpt>
      <trkpt lat="37.509144000" lon="-5.283529000">
        <ele>123.7</ele>
        <time>2020-10-12T09:47:38Z</time>
      </trkpt>
      <trkpt lat="37.509244000" lon="-5.283504000">
        <ele>124.3</ele>
        <time>2020-10-12T09:47:41Z</time>
      </trkpt>
      <trkpt lat="37.509335000" lon="-5.283483000">
        <ele>124.8</ele>
        <time>2020-10-12T09:47:44Z</time>
      </trkpt>
      <trkpt lat="37.509424000" lon="-5.283458000">
        <ele>125.5</ele>
        <time>2020-10-12T09:47:47Z</time>
      </trkpt>
      <trkpt lat="37.509510000" lon="-5.283431000">
        <ele>126.0</ele>
        <time>2020-10-12T09:47:50Z</time>
      </trkpt>
      <trkpt lat="37.509596000" lon="-5.283398000">
        <ele>126.5</ele>
        <time>2020-10-12T09:47:53Z</time>
      </trkpt>
      <trkpt lat="37.509677000" lon="-5.283370000">
        <ele>126.7</ele>
        <time>2020-10-12T09:47:56Z</time>
      </trkpt>
      <trkpt lat="37.509762000" lon="-5.283342000">
        <ele>126.8</ele>
        <time>2020-10-12T09:47:59Z</time>
      </trkpt>
      <trkpt lat="37.509849000" lon="-5.283310000">
        <ele>126.8</ele>
        <time>2020-10-12T09:48:02Z</time>
      </trkpt>
      <trkpt lat="37.509943000" lon="-5.283278000">
        <ele>126.8</ele>
        <time>2020-10-12T09:48:05Z</time>
      </trkpt>
      <trkpt lat="37.510045000" lon="-5.283255000">
        <ele>126.7</ele>
        <time>2020-10-12T09:48:08Z</time>
      </trkpt>
      <trkpt lat="37.510147000" lon="-5.283229000">
        <ele>126.5</ele>
        <time>2020-10-12T09:48:11Z</time>
      </trkpt>
      <trkpt lat="37.510250000" lon="-5.283202000">
        <ele>126.2</ele>
        <time>2020-10-12T09:48:14Z</time>
      </trkpt>
      <trkpt lat="37.510352000" lon="-5.283169000">
        <ele>125.9</ele>
        <time>2020-10-12T09:48:17Z</time>
      </trkpt>
      <trkpt lat="37.510456000" lon="-5.283135000">
        <ele>125.5</ele>
        <time>2020-10-12T09:48:20Z</time>
      </trkpt>
      <trkpt lat="37.510565000" lon="-5.283106000">
        <ele>125.3</ele>
        <time>2020-10-12T09:48:23Z</time>
      </trkpt>
      <trkpt lat="37.510677000" lon="-5.283080000">
        <ele>125.0</ele>
        <time>2020-10-12T09:48:26Z</time>
      </trkpt>
      <trkpt lat="37.510779000" lon="-5.283051000">
        <ele>124.9</ele>
        <time>2020-10-12T09:48:29Z</time>
      </trkpt>
      <trkpt lat="37.510861000" lon="-5.282994000">
        <ele>124.9</ele>
        <time>2020-10-12T09:48:32Z</time>
      </trkpt>
      <trkpt lat="37.510958000" lon="-5.282941000">
        <ele>125.0</ele>
        <time>2020-10-12T09:48:36Z</time>
      </trkpt>
      <trkpt lat="37.511036000" lon="-5.282900000">
        <ele>125.1</ele>
        <time>2020-10-12T09:48:39Z</time>
      </trkpt>
      <trkpt lat="37.511139000" lon="-5.282870000">
        <ele>125.3</ele>
        <time>2020-10-12T09:48:42Z</time>
      </trkpt>
      <trkpt lat="37.511230000" lon="-5.282845000">
        <ele>125.5</ele>
        <time>2020-10-12T09:48:45Z</time>
      </trkpt>
      <trkpt lat="37.511322000" lon="-5.282809000">
        <ele>125.8</ele>
        <time>2020-10-12T09:48:48Z</time>
      </trkpt>
      <trkpt lat="37.511418000" lon="-5.282778000">
        <ele>126.0</ele>
        <time>2020-10-12T09:48:51Z</time>
      </trkpt>
      <trkpt lat="37.511525000" lon="-5.282750000">
        <ele>126.2</ele>
        <time>2020-10-12T09:48:54Z</time>
      </trkpt>
      <trkpt lat="37.511632000" lon="-5.282714000">
        <ele>126.3</ele>
        <time>2020-10-12T09:48:57Z</time>
      </trkpt>
      <trkpt lat="37.511731000" lon="-5.282672000">
        <ele>126.2</ele>
        <time>2020-10-12T09:49:00Z</time>
      </trkpt>
      <trkpt lat="37.511826000" lon="-5.282640000">
        <ele>125.9</ele>
        <time>2020-10-12T09:49:03Z</time>
      </trkpt>
      <trkpt lat="37.511918000" lon="-5.282613000">
        <ele>125.6</ele>
        <time>2020-10-12T09:49:06Z</time>
      </trkpt>
      <trkpt lat="37.512003000" lon="-5.282566000">
        <ele>125.4</ele>
        <time>2020-10-12T09:49:09Z</time>
      </trkpt>
      <trkpt lat="37.512086000" lon="-5.282513000">
        <ele>125.0</ele>
        <time>2020-10-12T09:49:12Z</time>
      </trkpt>
      <trkpt lat="37.512169000" lon="-5.282459000">
        <ele>124.6</ele>
        <time>2020-10-12T09:49:15Z</time>
      </trkpt>
      <trkpt lat="37.512251000" lon="-5.282410000">
        <ele>124.3</ele>
        <time>2020-10-12T09:49:18Z</time>
      </trkpt>
      <trkpt lat="37.512327000" lon="-5.282362000">
        <ele>124.0</ele>
        <time>2020-10-12T09:49:21Z</time>
      </trkpt>
      <trkpt lat="37.512404000" lon="-5.282313000">
        <ele>123.8</ele>
        <time>2020-10-12T09:49:24Z</time>
      </trkpt>
      <trkpt lat="37.512487000" lon="-5.282256000">
        <ele>123.6</ele>
        <time>2020-10-12T09:49:27Z</time>
      </trkpt>
      <trkpt lat="37.512572000" lon="-5.282193000">
        <ele>123.5</ele>
        <time>2020-10-12T09:49:30Z</time>
      </trkpt>
      <trkpt lat="37.512647000" lon="-5.282127000">
        <ele>123.4</ele>
        <time>2020-10-12T09:49:33Z</time>
      </trkpt>
      <trkpt lat="37.512726000" lon="-5.282055000">
        <ele>123.4</ele>
        <time>2020-10-12T09:49:36Z</time>
      </trkpt>
      <trkpt lat="37.512808000" lon="-5.281984000">
        <ele>123.4</ele>
        <time>2020-10-12T09:49:39Z</time>
      </trkpt>
      <trkpt lat="37.512885000" lon="-5.281914000">
        <ele>123.4</ele>
        <time>2020-10-12T09:49:42Z</time>
      </trkpt>
      <trkpt lat="37.512956000" lon="-5.281845000">
        <ele>123.5</ele>
        <time>2020-10-12T09:49:45Z</time>
      </trkpt>
      <trkpt lat="37.513031000" lon="-5.281776000">
        <ele>123.5</ele>
        <time>2020-10-12T09:49:48Z</time>
      </trkpt>
      <trkpt lat="37.513106000" lon="-5.281693000">
        <ele>123.5</ele>
        <time>2020-10-12T09:49:51Z</time>
      </trkpt>
      <trkpt lat="37.513183000" lon="-5.281602000">
        <ele>123.4</ele>
        <time>2020-10-12T09:49:54Z</time>
      </trkpt>
      <trkpt lat="37.513259000" lon="-5.281503000">
        <ele>123.3</ele>
        <time>2020-10-12T09:49:57Z</time>
      </trkpt>
      <trkpt lat="37.513335000" lon="-5.281409000">
        <ele>123.3</ele>
        <time>2020-10-12T09:50:00Z</time>
      </trkpt>
      <trkpt lat="37.513408000" lon="-5.281311000">
        <ele>123.4</ele>
        <time>2020-10-12T09:50:03Z</time>
      </trkpt>
      <trkpt lat="37.513475000" lon="-5.281225000">
        <ele>123.5</ele>
        <time>2020-10-12T09:50:06Z</time>
      </trkpt>
      <trkpt lat="37.513546000" lon="-5.281143000">
        <ele>123.6</ele>
        <time>2020-10-12T09:50:09Z</time>
      </trkpt>
      <trkpt lat="37.513618000" lon="-5.281056000">
        <ele>123.8</ele>
        <time>2020-10-12T09:50:12Z</time>
      </trkpt>
      <trkpt lat="37.513686000" lon="-5.280959000">
        <ele>123.8</ele>
        <time>2020-10-12T09:50:15Z</time>
      </trkpt>
      <trkpt lat="37.513748000" lon="-5.280864000">
        <ele>123.7</ele>
        <time>2020-10-12T09:50:18Z</time>
      </trkpt>
      <trkpt lat="37.513809000" lon="-5.280757000">
        <ele>123.6</ele>
        <time>2020-10-12T09:50:21Z</time>
      </trkpt>
      <trkpt lat="37.513871000" lon="-5.280655000">
        <ele>123.6</ele>
        <time>2020-10-12T09:50:24Z</time>
      </trkpt>
      <trkpt lat="37.513935000" lon="-5.280550000">
        <ele>123.6</ele>
        <time>2020-10-12T09:50:27Z</time>
      </trkpt>
      <trkpt lat="37.513998000" lon="-5.280445000">
        <ele>123.6</ele>
        <time>2020-10-12T09:50:30Z</time>
      </trkpt>
      <trkpt lat="37.514059000" lon="-5.280347000">
        <ele>123.6</ele>
        <time>2020-10-12T09:50:33Z</time>
      </trkpt>
      <trkpt lat="37.514111000" lon="-5.280259000">
        <ele>123.7</ele>
        <time>2020-10-12T09:50:36Z</time>
      </trkpt>
      <trkpt lat="37.514153000" lon="-5.280166000">
        <ele>123.9</ele>
        <time>2020-10-12T09:50:39Z</time>
      </trkpt>
      <trkpt lat="37.514196000" lon="-5.280072000">
        <ele>124.1</ele>
        <time>2020-10-12T09:50:42Z</time>
      </trkpt>
      <trkpt lat="37.514256000" lon="-5.279963000">
        <ele>124.4</ele>
        <time>2020-10-12T09:50:46Z</time>
      </trkpt>
      <trkpt lat="37.514300000" lon="-5.279877000">
        <ele>124.7</ele>
        <time>2020-10-12T09:50:49Z</time>
      </trkpt>
      <trkpt lat="37.514345000" lon="-5.279791000">
        <ele>125.2</ele>
        <time>2020-10-12T09:50:52Z</time>
      </trkpt>
      <trkpt lat="37.514396000" lon="-5.279683000">
        <ele>125.6</ele>
        <time>2020-10-12T09:50:56Z</time>
      </trkpt>
      <trkpt lat="37.514442000" lon="-5.279593000">
        <ele>126.0</ele>
        <time>2020-10-12T09:51:01Z</time>
      </trkpt>
      <trkpt lat="37.514487000" lon="-5.279480000">
        <ele>126.4</ele>
        <time>2020-10-12T09:53:18Z</time>
      </trkpt>
      <trkpt lat="37.514528000" lon="-5.279376000">
        <ele>126.7</ele>
        <time>2020-10-12T09:53:21Z</time>
      </trkpt>
      <trkpt lat="37.514580000" lon="-5.279256000">
        <ele>127.1</ele>
        <time>2020-10-12T09:53:24Z</time>
      </trkpt>
      <trkpt lat="37.514624000" lon="-5.279130000">
        <ele>127.3</ele>
        <time>2020-10-12T09:53:27Z</time>
      </trkpt>
      <trkpt lat="37.514669000" lon="-5.279010000">
        <ele>127.5</ele>
        <time>2020-10-12T09:53:30Z</time>
      </trkpt>
      <trkpt lat="37.514711000" lon="-5.278888000">
        <ele>127.6</ele>
        <time>2020-10-12T09:53:33Z</time>
      </trkpt>
      <trkpt lat="37.514747000" lon="-5.278762000">
        <ele>127.6</ele>
        <time>2020-10-12T09:53:36Z</time>
      </trkpt>
      <trkpt lat="37.514779000" lon="-5.278639000">
        <ele>127.6</ele>
        <time>2020-10-12T09:53:39Z</time>
      </trkpt>
      <trkpt lat="37.514810000" lon="-5.278522000">
        <ele>127.5</ele>
        <time>2020-10-12T09:53:42Z</time>
      </trkpt>
      <trkpt lat="37.514832000" lon="-5.278401000">
        <ele>127.5</ele>
        <time>2020-10-12T09:53:45Z</time>
      </trkpt>
      <trkpt lat="37.514860000" lon="-5.278282000">
        <ele>127.4</ele>
        <time>2020-10-12T09:53:48Z</time>
      </trkpt>
      <trkpt lat="37.514894000" lon="-5.278158000">
        <ele>127.4</ele>
        <time>2020-10-12T09:53:51Z</time>
      </trkpt>
      <trkpt lat="37.514922000" lon="-5.278025000">
        <ele>127.4</ele>
        <time>2020-10-12T09:53:54Z</time>
      </trkpt>
      <trkpt lat="37.514941000" lon="-5.277883000">
        <ele>127.5</ele>
        <time>2020-10-12T09:53:57Z</time>
      </trkpt>
      <trkpt lat="37.514954000" lon="-5.277738000">
        <ele>127.7</ele>
        <time>2020-10-12T09:54:00Z</time>
      </trkpt>
      <trkpt lat="37.514963000" lon="-5.277590000">
        <ele>128.0</ele>
        <time>2020-10-12T09:54:03Z</time>
      </trkpt>
      <trkpt lat="37.514967000" lon="-5.277439000">
        <ele>128.5</ele>
        <time>2020-10-12T09:54:06Z</time>
      </trkpt>
      <trkpt lat="37.514968000" lon="-5.277298000">
        <ele>128.9</ele>
        <time>2020-10-12T09:54:09Z</time>
      </trkpt>
      <trkpt lat="37.514967000" lon="-5.277169000">
        <ele>129.5</ele>
        <time>2020-10-12T09:54:12Z</time>
      </trkpt>
      <trkpt lat="37.514967000" lon="-5.277036000">
        <ele>130.1</ele>
        <time>2020-10-12T09:54:15Z</time>
      </trkpt>
      <trkpt lat="37.514971000" lon="-5.276896000">
        <ele>130.8</ele>
        <time>2020-10-12T09:54:18Z</time>
      </trkpt>
      <trkpt lat="37.514972000" lon="-5.276756000">
        <ele>131.6</ele>
        <time>2020-10-12T09:54:21Z</time>
      </trkpt>
      <trkpt lat="37.514970000" lon="-5.276612000">
        <ele>132.4</ele>
        <time>2020-10-12T09:54:24Z</time>
      </trkpt>
      <trkpt lat="37.514968000" lon="-5.276474000">
        <ele>133.1</ele>
        <time>2020-10-12T09:54:27Z</time>
      </trkpt>
      <trkpt lat="37.514969000" lon="-5.276347000">
        <ele>133.8</ele>
        <time>2020-10-12T09:54:30Z</time>
      </trkpt>
      <trkpt lat="37.514962000" lon="-5.276233000">
        <ele>134.5</ele>
        <time>2020-10-12T09:54:33Z</time>
      </trkpt>
      <trkpt lat="37.514959000" lon="-5.276128000">
        <ele>135.0</ele>
        <time>2020-10-12T09:54:36Z</time>
      </trkpt>
      <trkpt lat="37.514955000" lon="-5.276024000">
        <ele>135.5</ele>
        <time>2020-10-12T09:54:39Z</time>
      </trkpt>
      <trkpt lat="37.514951000" lon="-5.275918000">
        <ele>135.9</ele>
        <time>2020-10-12T09:54:42Z</time>
      </trkpt>
      <trkpt lat="37.514948000" lon="-5.275811000">
        <ele>136.3</ele>
        <time>2020-10-12T09:54:45Z</time>
      </trkpt>
      <trkpt lat="37.514942000" lon="-5.275695000">
        <ele>136.5</ele>
        <time>2020-10-12T09:54:48Z</time>
      </trkpt>
      <trkpt lat="37.514934000" lon="-5.275590000">
        <ele>136.5</ele>
        <time>2020-10-12T09:54:51Z</time>
      </trkpt>
      <trkpt lat="37.514927000" lon="-5.275481000">
        <ele>136.5</ele>
        <time>2020-10-12T09:54:54Z</time>
      </trkpt>
      <trkpt lat="37.514924000" lon="-5.275377000">
        <ele>136.4</ele>
        <time>2020-10-12T09:54:57Z</time>
      </trkpt>
      <trkpt lat="37.514920000" lon="-5.275263000">
        <ele>136.2</ele>
        <time>2020-10-12T09:55:00Z</time>
      </trkpt>
      <trkpt lat="37.514916000" lon="-5.275150000">
        <ele>135.9</ele>
        <time>2020-10-12T09:55:03Z</time>
      </trkpt>
      <trkpt lat="37.514911000" lon="-5.275042000">
        <ele>135.6</ele>
        <time>2020-10-12T09:55:06Z</time>
      </trkpt>
      <trkpt lat="37.514902000" lon="-5.274913000">
        <ele>135.4</ele>
        <time>2020-10-12T09:55:10Z</time>
      </trkpt>
      <trkpt lat="37.514892000" lon="-5.274783000">
        <ele>135.1</ele>
        <time>2020-10-12T09:55:14Z</time>
      </trkpt>
      <trkpt lat="37.514889000" lon="-5.274650000">
        <ele>134.8</ele>
        <time>2020-10-12T09:55:18Z</time>
      </trkpt>
      <trkpt lat="37.514884000" lon="-5.274532000">
        <ele>134.5</ele>
        <time>2020-10-12T09:55:21Z</time>
      </trkpt>
      <trkpt lat="37.514874000" lon="-5.274408000">
        <ele>134.4</ele>
        <time>2020-10-12T09:55:24Z</time>
      </trkpt>
      <trkpt lat="37.514868000" lon="-5.274277000">
        <ele>134.2</ele>
        <time>2020-10-12T09:55:27Z</time>
      </trkpt>
      <trkpt lat="37.514862000" lon="-5.274147000">
        <ele>134.1</ele>
        <time>2020-10-12T09:55:30Z</time>
      </trkpt>
      <trkpt lat="37.514849000" lon="-5.274037000">
        <ele>134.1</ele>
        <time>2020-10-12T09:55:33Z</time>
      </trkpt>
      <trkpt lat="37.514844000" lon="-5.273906000">
        <ele>134.2</ele>
        <time>2020-10-12T09:55:37Z</time>
      </trkpt>
      <trkpt lat="37.514841000" lon="-5.273782000">
        <ele>134.3</ele>
        <time>2020-10-12T09:55:41Z</time>
      </trkpt>
      <trkpt lat="37.514837000" lon="-5.273677000">
        <ele>134.5</ele>
        <time>2020-10-12T09:55:44Z</time>
      </trkpt>
      <trkpt lat="37.514828000" lon="-5.273538000">
        <ele>134.6</ele>
        <time>2020-10-12T09:55:48Z</time>
      </trkpt>
      <trkpt lat="37.514812000" lon="-5.273426000">
        <ele>134.9</ele>
        <time>2020-10-12T09:55:51Z</time>
      </trkpt>
      <trkpt lat="37.514796000" lon="-5.273326000">
        <ele>135.3</ele>
        <time>2020-10-12T09:55:54Z</time>
      </trkpt>
      <trkpt lat="37.514782000" lon="-5.273209000">
        <ele>135.6</ele>
        <time>2020-10-12T09:55:57Z</time>
      </trkpt>
      <trkpt lat="37.514774000" lon="-5.273075000">
        <ele>136.0</ele>
        <time>2020-10-12T09:56:00Z</time>
      </trkpt>
      <trkpt lat="37.514766000" lon="-5.272941000">
        <ele>136.5</ele>
        <time>2020-10-12T09:56:03Z</time>
      </trkpt>
      <trkpt lat="37.514763000" lon="-5.272801000">
        <ele>136.9</ele>
        <time>2020-10-12T09:56:06Z</time>
      </trkpt>
      <trkpt lat="37.514757000" lon="-5.272660000">
        <ele>137.4</ele>
        <time>2020-10-12T09:56:09Z</time>
      </trkpt>
      <trkpt lat="37.514747000" lon="-5.272511000">
        <ele>137.8</ele>
        <time>2020-10-12T09:56:12Z</time>
      </trkpt>
      <trkpt lat="37.514738000" lon="-5.272405000">
        <ele>138.3</ele>
        <time>2020-10-12T09:56:14Z</time>
      </trkpt>
      <trkpt lat="37.514726000" lon="-5.272259000">
        <ele>138.6</ele>
        <time>2020-10-12T09:56:17Z</time>
      </trkpt>
      <trkpt lat="37.514713000" lon="-5.272114000">
        <ele>139.0</ele>
        <time>2020-10-12T09:56:20Z</time>
      </trkpt>
      <trkpt lat="37.514698000" lon="-5.271966000">
        <ele>139.3</ele>
        <time>2020-10-12T09:56:23Z</time>
      </trkpt>
      <trkpt lat="37.514683000" lon="-5.271823000">
        <ele>139.5</ele>
        <time>2020-10-12T09:56:26Z</time>
      </trkpt>
      <trkpt lat="37.514677000" lon="-5.271703000">
        <ele>139.7</ele>
        <time>2020-10-12T09:56:29Z</time>
      </trkpt>
      <trkpt lat="37.514686000" lon="-5.271593000">
        <ele>140.0</ele>
        <time>2020-10-12T09:56:32Z</time>
      </trkpt>
      <trkpt lat="37.514687000" lon="-5.271487000">
        <ele>140.2</ele>
        <time>2020-10-12T09:56:35Z</time>
      </trkpt>
      <trkpt lat="37.514682000" lon="-5.271382000">
        <ele>140.4</ele>
        <time>2020-10-12T09:56:38Z</time>
      </trkpt>
      <trkpt lat="37.514675000" lon="-5.271277000">
        <ele>140.5</ele>
        <time>2020-10-12T09:56:41Z</time>
      </trkpt>
      <trkpt lat="37.514664000" lon="-5.271168000">
        <ele>140.6</ele>
        <time>2020-10-12T09:56:44Z</time>
      </trkpt>
      <trkpt lat="37.514670000" lon="-5.271059000">
        <ele>140.8</ele>
        <time>2020-10-12T09:56:47Z</time>
      </trkpt>
      <trkpt lat="37.514678000" lon="-5.270942000">
        <ele>141.1</ele>
        <time>2020-10-12T09:56:50Z</time>
      </trkpt>
      <trkpt lat="37.514678000" lon="-5.270830000">
        <ele>141.4</ele>
        <time>2020-10-12T09:56:53Z</time>
      </trkpt>
      <trkpt lat="37.514688000" lon="-5.270711000">
        <ele>141.5</ele>
        <time>2020-10-12T09:56:56Z</time>
      </trkpt>
      <trkpt lat="37.514700000" lon="-5.270588000">
        <ele>141.7</ele>
        <time>2020-10-12T09:56:59Z</time>
      </trkpt>
      <trkpt lat="37.514708000" lon="-5.270485000">
        <ele>141.8</ele>
        <time>2020-10-12T09:57:02Z</time>
      </trkpt>
      <trkpt lat="37.514721000" lon="-5.270360000">
        <ele>141.9</ele>
        <time>2020-10-12T09:57:06Z</time>
      </trkpt>
      <trkpt lat="37.514742000" lon="-5.270234000">
        <ele>142.0</ele>
        <time>2020-10-12T09:57:10Z</time>
      </trkpt>
      <trkpt lat="37.514765000" lon="-5.270126000">
        <ele>142.2</ele>
        <time>2020-10-12T09:57:13Z</time>
      </trkpt>
      <trkpt lat="37.514790000" lon="-5.270014000">
        <ele>142.3</ele>
        <time>2020-10-12T09:57:16Z</time>
      </trkpt>
      <trkpt lat="37.514813000" lon="-5.269892000">
        <ele>142.4</ele>
        <time>2020-10-12T09:57:19Z</time>
      </trkpt>
      <trkpt lat="37.514840000" lon="-5.269778000">
        <ele>142.5</ele>
        <time>2020-10-12T09:57:22Z</time>
      </trkpt>
      <trkpt lat="37.514866000" lon="-5.269674000">
        <ele>142.5</ele>
        <time>2020-10-12T09:57:25Z</time>
      </trkpt>
      <trkpt lat="37.514893000" lon="-5.269574000">
        <ele>142.5</ele>
        <time>2020-10-12T09:57:28Z</time>
      </trkpt>
      <trkpt lat="37.514921000" lon="-5.269471000">
        <ele>142.5</ele>
        <time>2020-10-12T09:57:31Z</time>
      </trkpt>
      <trkpt lat="37.514961000" lon="-5.269350000">
        <ele>142.6</ele>
        <time>2020-10-12T09:57:35Z</time>
      </trkpt>
      <trkpt lat="37.515003000" lon="-5.269244000">
        <ele>142.8</ele>
        <time>2020-10-12T09:57:39Z</time>
      </trkpt>
      <trkpt lat="37.515023000" lon="-5.269126000">
        <ele>143.0</ele>
        <time>2020-10-12T09:57:43Z</time>
      </trkpt>
      <trkpt lat="37.515055000" lon="-5.269006000">
        <ele>143.3</ele>
        <time>2020-10-12T09:57:47Z</time>
      </trkpt>
      <trkpt lat="37.515086000" lon="-5.268876000">
        <ele>143.5</ele>
        <time>2020-10-12T09:57:51Z</time>
      </trkpt>
      <trkpt lat="37.515077000" lon="-5.268743000">
        <ele>144.0</ele>
        <time>2020-10-12T09:57:55Z</time>
      </trkpt>
      <trkpt lat="37.515093000" lon="-5.268640000">
        <ele>144.5</ele>
        <time>2020-10-12T09:57:58Z</time>
      </trkpt>
      <trkpt lat="37.515123000" lon="-5.268539000">
        <ele>144.9</ele>
        <time>2020-10-12T09:58:01Z</time>
      </trkpt>
      <trkpt lat="37.515160000" lon="-5.268442000">
        <ele>145.4</ele>
        <time>2020-10-12T09:58:04Z</time>
      </trkpt>
      <trkpt lat="37.515194000" lon="-5.268328000">
        <ele>145.7</ele>
        <time>2020-10-12T09:58:07Z</time>
      </trkpt>
      <trkpt lat="37.515233000" lon="-5.268218000">
        <ele>146.0</ele>
        <time>2020-10-12T09:58:10Z</time>
      </trkpt>
      <trkpt lat="37.515273000" lon="-5.268115000">
        <ele>146.3</ele>
        <time>2020-10-12T09:58:13Z</time>
      </trkpt>
      <trkpt lat="37.515315000" lon="-5.268013000">
        <ele>146.4</ele>
        <time>2020-10-12T09:58:16Z</time>
      </trkpt>
      <trkpt lat="37.515359000" lon="-5.267907000">
        <ele>146.5</ele>
        <time>2020-10-12T09:58:19Z</time>
      </trkpt>
      <trkpt lat="37.515404000" lon="-5.267801000">
        <ele>146.5</ele>
        <time>2020-10-12T09:58:22Z</time>
      </trkpt>
      <trkpt lat="37.515444000" lon="-5.267689000">
        <ele>146.4</ele>
        <time>2020-10-12T09:58:25Z</time>
      </trkpt>
      <trkpt lat="37.515487000" lon="-5.267577000">
        <ele>146.2</ele>
        <time>2020-10-12T09:58:28Z</time>
      </trkpt>
      <trkpt lat="37.515525000" lon="-5.267464000">
        <ele>145.9</ele>
        <time>2020-10-12T09:58:31Z</time>
      </trkpt>
      <trkpt lat="37.515566000" lon="-5.267364000">
        <ele>145.6</ele>
        <time>2020-10-12T09:58:34Z</time>
      </trkpt>
      <trkpt lat="37.515604000" lon="-5.267263000">
        <ele>145.4</ele>
        <time>2020-10-12T09:58:37Z</time>
      </trkpt>
      <trkpt lat="37.515649000" lon="-5.267164000">
        <ele>145.2</ele>
        <time>2020-10-12T09:58:40Z</time>
      </trkpt>
      <trkpt lat="37.515676000" lon="-5.267066000">
        <ele>145.0</ele>
        <time>2020-10-12T09:58:43Z</time>
      </trkpt>
      <trkpt lat="37.515717000" lon="-5.266954000">
        <ele>144.8</ele>
        <time>2020-10-12T09:58:47Z</time>
      </trkpt>
      <trkpt lat="37.515749000" lon="-5.266858000">
        <ele>144.7</ele>
        <time>2020-10-12T09:58:50Z</time>
      </trkpt>
      <trkpt lat="37.515786000" lon="-5.266742000">
        <ele>144.6</ele>
        <time>2020-10-12T09:58:54Z</time>
      </trkpt>
      <trkpt lat="37.515821000" lon="-5.266629000">
        <ele>144.5</ele>
        <time>2020-10-12T09:58:58Z</time>
      </trkpt>
      <trkpt lat="37.515863000" lon="-5.266514000">
        <ele>144.5</ele>
        <time>2020-10-12T09:59:02Z</time>
      </trkpt>
      <trkpt lat="37.515902000" lon="-5.266391000">
        <ele>144.4</ele>
        <time>2020-10-12T09:59:06Z</time>
      </trkpt>
      <trkpt lat="37.515929000" lon="-5.266293000">
        <ele>144.4</ele>
        <time>2020-10-12T09:59:09Z</time>
      </trkpt>
      <trkpt lat="37.515963000" lon="-5.266169000">
        <ele>144.5</ele>
        <time>2020-10-12T09:59:13Z</time>
      </trkpt>
      <trkpt lat="37.515992000" lon="-5.266042000">
        <ele>144.5</ele>
        <time>2020-10-12T09:59:17Z</time>
      </trkpt>
      <trkpt lat="37.516023000" lon="-5.265941000">
        <ele>144.7</ele>
        <time>2020-10-12T09:59:20Z</time>
      </trkpt>
      <trkpt lat="37.516054000" lon="-5.265841000">
        <ele>145.0</ele>
        <time>2020-10-12T09:59:23Z</time>
      </trkpt>
      <trkpt lat="37.516090000" lon="-5.265717000">
        <ele>145.3</ele>
        <time>2020-10-12T09:59:27Z</time>
      </trkpt>
      <trkpt lat="37.516118000" lon="-5.265618000">
        <ele>145.6</ele>
        <time>2020-10-12T09:59:30Z</time>
      </trkpt>
      <trkpt lat="37.516147000" lon="-5.265513000">
        <ele>146.0</ele>
        <time>2020-10-12T09:59:33Z</time>
      </trkpt>
      <trkpt lat="37.516175000" lon="-5.265413000">
        <ele>146.4</ele>
        <time>2020-10-12T09:59:36Z</time>
      </trkpt>
      <trkpt lat="37.516221000" lon="-5.265300000">
        <ele>146.8</ele>
        <time>2020-10-12T09:59:40Z</time>
      </trkpt>
      <trkpt lat="37.516265000" lon="-5.265176000">
        <ele>147.2</ele>
        <time>2020-10-12T09:59:44Z</time>
      </trkpt>
      <trkpt lat="37.516292000" lon="-5.265066000">
        <ele>147.5</ele>
        <time>2020-10-12T09:59:47Z</time>
      </trkpt>
      <trkpt lat="37.516323000" lon="-5.264951000">
        <ele>147.6</ele>
        <time>2020-10-12T09:59:50Z</time>
      </trkpt>
      <trkpt lat="37.516354000" lon="-5.264841000">
        <ele>147.7</ele>
        <time>2020-10-12T09:59:53Z</time>
      </trkpt>
      <trkpt lat="37.516386000" lon="-5.264734000">
        <ele>147.7</ele>
        <time>2020-10-12T09:59:56Z</time>
      </trkpt>
      <trkpt lat="37.516418000" lon="-5.264621000">
        <ele>147.8</ele>
        <time>2020-10-12T09:59:59Z</time>
      </trkpt>
      <trkpt lat="37.516455000" lon="-5.264502000">
        <ele>147.9</ele>
        <time>2020-10-12T10:00:02Z</time>
      </trkpt>
      <trkpt lat="37.516489000" lon="-5.264384000">
        <ele>148.0</ele>
        <time>2020-10-12T10:00:05Z</time>
      </trkpt>
      <trkpt lat="37.516524000" lon="-5.264265000">
        <ele>148.1</ele>
        <time>2020-10-12T10:00:08Z</time>
      </trkpt>
      <trkpt lat="37.516558000" lon="-5.264158000">
        <ele>148.2</ele>
        <time>2020-10-12T10:00:11Z</time>
      </trkpt>
      <trkpt lat="37.516592000" lon="-5.264061000">
        <ele>148.2</ele>
        <time>2020-10-12T10:00:14Z</time>
      </trkpt>
      <trkpt lat="37.516625000" lon="-5.263957000">
        <ele>148.4</ele>
        <time>2020-10-12T10:00:17Z</time>
      </trkpt>
      <trkpt lat="37.516664000" lon="-5.263852000">
        <ele>148.5</ele>
        <time>2020-10-12T10:00:20Z</time>
      </trkpt>
      <trkpt lat="37.516704000" lon="-5.263755000">
        <ele>148.7</ele>
        <time>2020-10-12T10:00:23Z</time>
      </trkpt>
      <trkpt lat="37.516739000" lon="-5.263650000">
        <ele>149.0</ele>
        <time>2020-10-12T10:00:26Z</time>
      </trkpt>
      <trkpt lat="37.516771000" lon="-5.263546000">
        <ele>149.4</ele>
        <time>2020-10-12T10:00:29Z</time>
      </trkpt>
      <trkpt lat="37.516802000" lon="-5.263444000">
        <ele>149.6</ele>
        <time>2020-10-12T10:00:32Z</time>
      </trkpt>
      <trkpt lat="37.516833000" lon="-5.263347000">
        <ele>149.9</ele>
        <time>2020-10-12T10:00:35Z</time>
      </trkpt>
      <trkpt lat="37.516854000" lon="-5.263221000">
        <ele>150.1</ele>
        <time>2020-10-12T10:00:39Z</time>
      </trkpt>
      <trkpt lat="37.516884000" lon="-5.263125000">
        <ele>150.3</ele>
        <time>2020-10-12T10:00:42Z</time>
      </trkpt>
      <trkpt lat="37.516909000" lon="-5.263016000">
        <ele>150.4</ele>
        <time>2020-10-12T10:00:45Z</time>
      </trkpt>
      <trkpt lat="37.516937000" lon="-5.262915000">
        <ele>150.5</ele>
        <time>2020-10-12T10:00:48Z</time>
      </trkpt>
      <trkpt lat="37.516968000" lon="-5.262813000">
        <ele>150.4</ele>
        <time>2020-10-12T10:00:51Z</time>
      </trkpt>
      <trkpt lat="37.516999000" lon="-5.262710000">
        <ele>150.3</ele>
        <time>2020-10-12T10:00:54Z</time>
      </trkpt>
      <trkpt lat="37.517034000" lon="-5.262605000">
        <ele>150.2</ele>
        <time>2020-10-12T10:00:57Z</time>
      </trkpt>
      <trkpt lat="37.517065000" lon="-5.262491000">
        <ele>150.2</ele>
        <time>2020-10-12T10:01:00Z</time>
      </trkpt>
      <trkpt lat="37.517096000" lon="-5.262384000">
        <ele>150.2</ele>
        <time>2020-10-12T10:01:03Z</time>
      </trkpt>
      <trkpt lat="37.517132000" lon="-5.262257000">
        <ele>150.2</ele>
        <time>2020-10-12T10:01:07Z</time>
      </trkpt>
      <trkpt lat="37.517168000" lon="-5.262158000">
        <ele>150.3</ele>
        <time>2020-10-12T10:01:10Z</time>
      </trkpt>
      <trkpt lat="37.517204000" lon="-5.262043000">
        <ele>150.4</ele>
        <time>2020-10-12T10:01:13Z</time>
      </trkpt>
      <trkpt lat="37.517240000" lon="-5.261934000">
        <ele>150.5</ele>
        <time>2020-10-12T10:01:16Z</time>
      </trkpt>
      <trkpt lat="37.517269000" lon="-5.261831000">
        <ele>150.6</ele>
        <time>2020-10-12T10:01:19Z</time>
      </trkpt>
      <trkpt lat="37.517298000" lon="-5.261733000">
        <ele>150.7</ele>
        <time>2020-10-12T10:01:22Z</time>
      </trkpt>
      <trkpt lat="37.517326000" lon="-5.261635000">
        <ele>150.8</ele>
        <time>2020-10-12T10:01:25Z</time>
      </trkpt>
      <trkpt lat="37.517345000" lon="-5.261534000">
        <ele>151.0</ele>
        <time>2020-10-12T10:01:28Z</time>
      </trkpt>
      <trkpt lat="37.517375000" lon="-5.261429000">
        <ele>151.2</ele>
        <time>2020-10-12T10:01:31Z</time>
      </trkpt>
      <trkpt lat="37.517404000" lon="-5.261319000">
        <ele>151.3</ele>
        <time>2020-10-12T10:01:34Z</time>
      </trkpt>
      <trkpt lat="37.517431000" lon="-5.261205000">
        <ele>151.4</ele>
        <time>2020-10-12T10:01:37Z</time>
      </trkpt>
      <trkpt lat="37.517461000" lon="-5.261089000">
        <ele>151.5</ele>
        <time>2020-10-12T10:01:40Z</time>
      </trkpt>
      <trkpt lat="37.517492000" lon="-5.260968000">
        <ele>151.6</ele>
        <time>2020-10-12T10:01:43Z</time>
      </trkpt>
      <trkpt lat="37.517521000" lon="-5.260852000">
        <ele>151.8</ele>
        <time>2020-10-12T10:01:46Z</time>
      </trkpt>
      <trkpt lat="37.517545000" lon="-5.260734000">
        <ele>152.0</ele>
        <time>2020-10-12T10:01:49Z</time>
      </trkpt>
      <trkpt lat="37.517573000" lon="-5.260611000">
        <ele>152.3</ele>
        <time>2020-10-12T10:01:52Z</time>
      </trkpt>
      <trkpt lat="37.517601000" lon="-5.260487000">
        <ele>152.5</ele>
        <time>2020-10-12T10:01:55Z</time>
      </trkpt>
      <trkpt lat="37.517628000" lon="-5.260368000">
        <ele>152.9</ele>
        <time>2020-10-12T10:01:58Z</time>
      </trkpt>
      <trkpt lat="37.517652000" lon="-5.260254000">
        <ele>153.2</ele>
        <time>2020-10-12T10:02:01Z</time>
      </trkpt>
      <trkpt lat="37.517667000" lon="-5.260144000">
        <ele>153.5</ele>
        <time>2020-10-12T10:02:04Z</time>
      </trkpt>
      <trkpt lat="37.517684000" lon="-5.260032000">
        <ele>153.7</ele>
        <time>2020-10-12T10:02:07Z</time>
      </trkpt>
      <trkpt lat="37.517702000" lon="-5.259914000">
        <ele>153.8</ele>
        <time>2020-10-12T10:02:10Z</time>
      </trkpt>
      <trkpt lat="37.517724000" lon="-5.259799000">
        <ele>153.8</ele>
        <time>2020-10-12T10:02:13Z</time>
      </trkpt>
      <trkpt lat="37.517744000" lon="-5.259677000">
        <ele>153.7</ele>
        <time>2020-10-12T10:02:16Z</time>
      </trkpt>
      <trkpt lat="37.517773000" lon="-5.259551000">
        <ele>153.5</ele>
        <time>2020-10-12T10:02:19Z</time>
      </trkpt>
      <trkpt lat="37.517804000" lon="-5.259422000">
        <ele>153.4</ele>
        <time>2020-10-12T10:02:22Z</time>
      </trkpt>
      <trkpt lat="37.517828000" lon="-5.259288000">
        <ele>153.1</ele>
        <time>2020-10-12T10:02:25Z</time>
      </trkpt>
      <trkpt lat="37.517858000" lon="-5.259158000">
        <ele>153.0</ele>
        <time>2020-10-12T10:02:28Z</time>
      </trkpt>
      <trkpt lat="37.517885000" lon="-5.259026000">
        <ele>153.0</ele>
        <time>2020-10-12T10:02:31Z</time>
      </trkpt>
      <trkpt lat="37.517907000" lon="-5.258887000">
        <ele>153.1</ele>
        <time>2020-10-12T10:02:34Z</time>
      </trkpt>
      <trkpt lat="37.517928000" lon="-5.258744000">
        <ele>153.2</ele>
        <time>2020-10-12T10:02:37Z</time>
      </trkpt>
      <trkpt lat="37.517955000" lon="-5.258602000">
        <ele>153.3</ele>
        <time>2020-10-12T10:02:40Z</time>
      </trkpt>
      <trkpt lat="37.517975000" lon="-5.258468000">
        <ele>153.5</ele>
        <time>2020-10-12T10:02:43Z</time>
      </trkpt>
      <trkpt lat="37.517994000" lon="-5.258348000">
        <ele>153.6</ele>
        <time>2020-10-12T10:02:46Z</time>
      </trkpt>
      <trkpt lat="37.518016000" lon="-5.258216000">
        <ele>153.8</ele>
        <time>2020-10-12T10:02:49Z</time>
      </trkpt>
      <trkpt lat="37.518035000" lon="-5.258076000">
        <ele>154.0</ele>
        <time>2020-10-12T10:02:52Z</time>
      </trkpt>
      <trkpt lat="37.518048000" lon="-5.257955000">
        <ele>154.1</ele>
        <time>2020-10-12T10:02:55Z</time>
      </trkpt>
      <trkpt lat="37.518051000" lon="-5.257848000">
        <ele>154.2</ele>
        <time>2020-10-12T10:02:58Z</time>
      </trkpt>
      <trkpt lat="37.518063000" lon="-5.257744000">
        <ele>154.2</ele>
        <time>2020-10-12T10:03:01Z</time>
      </trkpt>
      <trkpt lat="37.518080000" lon="-5.257635000">
        <ele>154.1</ele>
        <time>2020-10-12T10:03:04Z</time>
      </trkpt>
      <trkpt lat="37.518096000" lon="-5.257502000">
        <ele>154.0</ele>
        <time>2020-10-12T10:03:08Z</time>
      </trkpt>
      <trkpt lat="37.518105000" lon="-5.257397000">
        <ele>153.9</ele>
        <time>2020-10-12T10:03:11Z</time>
      </trkpt>
      <trkpt lat="37.518120000" lon="-5.257290000">
        <ele>153.8</ele>
        <time>2020-10-12T10:03:14Z</time>
      </trkpt>
      <trkpt lat="37.518132000" lon="-5.257183000">
        <ele>153.8</ele>
        <time>2020-10-12T10:03:17Z</time>
      </trkpt>
      <trkpt lat="37.518147000" lon="-5.257072000">
        <ele>153.8</ele>
        <time>2020-10-12T10:03:20Z</time>
      </trkpt>
      <trkpt lat="37.518160000" lon="-5.256959000">
        <ele>153.9</ele>
        <time>2020-10-12T10:03:23Z</time>
      </trkpt>
      <trkpt lat="37.518167000" lon="-5.256842000">
        <ele>154.1</ele>
        <time>2020-10-12T10:03:26Z</time>
      </trkpt>
      <trkpt lat="37.518180000" lon="-5.256717000">
        <ele>154.4</ele>
        <time>2020-10-12T10:03:29Z</time>
      </trkpt>
      <trkpt lat="37.518189000" lon="-5.256586000">
        <ele>154.6</ele>
        <time>2020-10-12T10:03:32Z</time>
      </trkpt>
      <trkpt lat="37.518206000" lon="-5.256458000">
        <ele>155.0</ele>
        <time>2020-10-12T10:03:35Z</time>
      </trkpt>
      <trkpt lat="37.518207000" lon="-5.256331000">
        <ele>155.3</ele>
        <time>2020-10-12T10:03:38Z</time>
      </trkpt>
      <trkpt lat="37.518213000" lon="-5.256204000">
        <ele>155.4</ele>
        <time>2020-10-12T10:03:41Z</time>
      </trkpt>
      <trkpt lat="37.518218000" lon="-5.256085000">
        <ele>155.4</ele>
        <time>2020-10-12T10:03:44Z</time>
      </trkpt>
      <trkpt lat="37.518222000" lon="-5.255960000">
        <ele>155.2</ele>
        <time>2020-10-12T10:03:47Z</time>
      </trkpt>
      <trkpt lat="37.518229000" lon="-5.255828000">
        <ele>154.8</ele>
        <time>2020-10-12T10:03:50Z</time>
      </trkpt>
      <trkpt lat="37.518233000" lon="-5.255701000">
        <ele>154.3</ele>
        <time>2020-10-12T10:03:53Z</time>
      </trkpt>
      <trkpt lat="37.518238000" lon="-5.255581000">
        <ele>153.9</ele>
        <time>2020-10-12T10:03:56Z</time>
      </trkpt>
      <trkpt lat="37.518247000" lon="-5.255469000">
        <ele>153.5</ele>
        <time>2020-10-12T10:04:00Z</time>
      </trkpt>
      <trkpt lat="37.518288000" lon="-5.255368000">
        <ele>152.9</ele>
        <time>2020-10-12T10:04:05Z</time>
      </trkpt>
      <trkpt lat="37.518323000" lon="-5.255270000">
        <ele>152.4</ele>
        <time>2020-10-12T10:04:10Z</time>
      </trkpt>
      <trkpt lat="37.518335000" lon="-5.255162000">
        <ele>151.7</ele>
        <time>2020-10-12T10:04:14Z</time>
      </trkpt>
      <trkpt lat="37.518358000" lon="-5.255270000">
        <ele>151.1</ele>
        <time>2020-10-12T10:04:29Z</time>
      </trkpt>
      <trkpt lat="37.518454000" lon="-5.255318000">
        <ele>150.5</ele>
        <time>2020-10-12T10:04:34Z</time>
      </trkpt>
      <trkpt lat="37.518577000" lon="-5.255297000">
        <ele>150.0</ele>
        <time>2020-10-12T10:04:37Z</time>
      </trkpt>
      <trkpt lat="37.518679000" lon="-5.255269000">
        <ele>149.5</ele>
        <time>2020-10-12T10:04:39Z</time>
      </trkpt>
      <trkpt lat="37.518774000" lon="-5.255203000">
        <ele>149.1</ele>
        <time>2020-10-12T10:04:41Z</time>
      </trkpt>
      <trkpt lat="37.518873000" lon="-5.255117000">
        <ele>148.7</ele>
        <time>2020-10-12T10:04:43Z</time>
      </trkpt>
      <trkpt lat="37.518975000" lon="-5.255026000">
        <ele>148.1</ele>
        <time>2020-10-12T10:04:45Z</time>
      </trkpt>
      <trkpt lat="37.519075000" lon="-5.254929000">
        <ele>147.4</ele>
        <time>2020-10-12T10:04:47Z</time>
      </trkpt>
      <trkpt lat="37.519178000" lon="-5.254828000">
        <ele>146.6</ele>
        <time>2020-10-12T10:04:49Z</time>
      </trkpt>
      <trkpt lat="37.519289000" lon="-5.254719000">
        <ele>145.9</ele>
        <time>2020-10-12T10:04:51Z</time>
      </trkpt>
      <trkpt lat="37.519388000" lon="-5.254612000">
        <ele>145.2</ele>
        <time>2020-10-12T10:04:53Z</time>
      </trkpt>
      <trkpt lat="37.519501000" lon="-5.254501000">
        <ele>144.5</ele>
        <time>2020-10-12T10:04:55Z</time>
      </trkpt>
      <trkpt lat="37.519619000" lon="-5.254388000">
        <ele>143.8</ele>
        <time>2020-10-12T10:04:57Z</time>
      </trkpt>
      <trkpt lat="37.519708000" lon="-5.254268000">
        <ele>143.3</ele>
        <time>2020-10-12T10:04:59Z</time>
      </trkpt>
      <trkpt lat="37.519838000" lon="-5.254171000">
        <ele>142.7</ele>
        <time>2020-10-12T10:05:01Z</time>
      </trkpt>
      <trkpt lat="37.519986000" lon="-5.254102000">
        <ele>142.4</ele>
        <time>2020-10-12T10:05:03Z</time>
      </trkpt>
      <trkpt lat="37.520131000" lon="-5.254059000">
        <ele>142.1</ele>
        <time>2020-10-12T10:05:05Z</time>
      </trkpt>
      <trkpt lat="37.520270000" lon="-5.254038000">
        <ele>141.9</ele>
        <time>2020-10-12T10:05:07Z</time>
      </trkpt>
      <trkpt lat="37.520406000" lon="-5.254025000">
        <ele>141.9</ele>
        <time>2020-10-12T10:05:09Z</time>
      </trkpt>
      <trkpt lat="37.520530000" lon="-5.254007000">
        <ele>142.0</ele>
        <time>2020-10-12T10:05:11Z</time>
      </trkpt>
      <trkpt lat="37.520645000" lon="-5.253994000">
        <ele>142.2</ele>
        <time>2020-10-12T10:05:13Z</time>
      </trkpt>
      <trkpt lat="37.520753000" lon="-5.253982000">
        <ele>142.4</ele>
        <time>2020-10-12T10:05:15Z</time>
      </trkpt>
      <trkpt lat="37.520854000" lon="-5.253973000">
        <ele>142.5</ele>
        <time>2020-10-12T10:05:17Z</time>
      </trkpt>
      <trkpt lat="37.520941000" lon="-5.253964000">
        <ele>142.9</ele>
        <time>2020-10-12T10:05:19Z</time>
      </trkpt>
      <trkpt lat="37.521059000" lon="-5.253956000">
        <ele>143.2</ele>
        <time>2020-10-12T10:05:22Z</time>
      </trkpt>
      <trkpt lat="37.521175000" lon="-5.253942000">
        <ele>143.6</ele>
        <time>2020-10-12T10:05:25Z</time>
      </trkpt>
      <trkpt lat="37.521274000" lon="-5.253921000">
        <ele>144.1</ele>
        <time>2020-10-12T10:05:28Z</time>
      </trkpt>
      <trkpt lat="37.521369000" lon="-5.253913000">
        <ele>144.7</ele>
        <time>2020-10-12T10:05:31Z</time>
      </trkpt>
      <trkpt lat="37.521461000" lon="-5.253899000">
        <ele>145.5</ele>
        <time>2020-10-12T10:05:34Z</time>
      </trkpt>
      <trkpt lat="37.521544000" lon="-5.253884000">
        <ele>146.3</ele>
        <time>2020-10-12T10:05:37Z</time>
      </trkpt>
      <trkpt lat="37.521625000" lon="-5.253882000">
        <ele>147.6</ele>
        <time>2020-10-12T10:05:41Z</time>
      </trkpt>
      <trkpt lat="37.521715000" lon="-5.253868000">
        <ele>149.1</ele>
        <time>2020-10-12T10:05:45Z</time>
      </trkpt>
      <trkpt lat="37.521803000" lon="-5.253861000">
        <ele>150.5</ele>
        <time>2020-10-12T10:05:49Z</time>
      </trkpt>
      <trkpt lat="37.521891000" lon="-5.253871000">
        <ele>151.9</ele>
        <time>2020-10-12T10:05:55Z</time>
      </trkpt>
      <trkpt lat="37.521974000" lon="-5.253858000">
        <ele>153.2</ele>
        <time>2020-10-12T10:06:02Z</time>
      </trkpt>
      <trkpt lat="37.522157000" lon="-5.253738000">
        <ele>154.5</ele>
        <time>2020-10-12T10:06:03Z</time>
      </trkpt>
      <trkpt lat="37.522236000" lon="-5.253780000">
        <ele>155.5</ele>
        <time>2020-10-12T10:06:09Z</time>
      </trkpt>
      <trkpt lat="37.522323000" lon="-5.253788000">
        <ele>156.5</ele>
        <time>2020-10-12T10:06:13Z</time>
      </trkpt>
      <trkpt lat="37.522412000" lon="-5.253777000">
        <ele>157.4</ele>
        <time>2020-10-12T10:06:17Z</time>
      </trkpt>
      <trkpt lat="37.522505000" lon="-5.253783000">
        <ele>158.1</ele>
        <time>2020-10-12T10:06:21Z</time>
      </trkpt>
      <trkpt lat="37.522593000" lon="-5.253770000">
        <ele>158.6</ele>
        <time>2020-10-12T10:06:26Z</time>
      </trkpt>
      <trkpt lat="37.522680000" lon="-5.253763000">
        <ele>158.7</ele>
        <time>2020-10-12T10:06:31Z</time>
      </trkpt>
      <trkpt lat="37.522773000" lon="-5.253753000">
        <ele>158.7</ele>
        <time>2020-10-12T10:06:36Z</time>
      </trkpt>
      <trkpt lat="37.522854000" lon="-5.253743000">
        <ele>158.8</ele>
        <time>2020-10-12T10:06:40Z</time>
      </trkpt>
      <trkpt lat="37.522936000" lon="-5.253718000">
        <ele>159.1</ele>
        <time>2020-10-12T10:06:45Z</time>
      </trkpt>
      <trkpt lat="37.523018000" lon="-5.253712000">
        <ele>159.5</ele>
        <time>2020-10-12T10:06:50Z</time>
      </trkpt>
      <trkpt lat="37.523112000" lon="-5.253708000">
        <ele>159.8</ele>
        <time>2020-10-12T10:06:55Z</time>
      </trkpt>
      <trkpt lat="37.523210000" lon="-5.253687000">
        <ele>160.4</ele>
        <time>2020-10-12T10:07:00Z</time>
      </trkpt>
      <trkpt lat="37.523301000" lon="-5.253643000">
        <ele>160.9</ele>
        <time>2020-10-12T10:07:05Z</time>
      </trkpt>
      <trkpt lat="37.523387000" lon="-5.253656000">
        <ele>161.5</ele>
        <time>2020-10-12T10:07:09Z</time>
      </trkpt>
      <trkpt lat="37.523485000" lon="-5.253656000">
        <ele>162.2</ele>
        <time>2020-10-12T10:07:14Z</time>
      </trkpt>
      <trkpt lat="37.523570000" lon="-5.253647000">
        <ele>162.9</ele>
        <time>2020-10-12T10:07:18Z</time>
      </trkpt>
      <trkpt lat="37.523661000" lon="-5.253641000">
        <ele>163.6</ele>
        <time>2020-10-12T10:07:22Z</time>
      </trkpt>
      <trkpt lat="37.523743000" lon="-5.253637000">
        <ele>164.4</ele>
        <time>2020-10-12T10:07:26Z</time>
      </trkpt>
      <trkpt lat="37.523826000" lon="-5.253636000">
        <ele>165.0</ele>
        <time>2020-10-12T10:07:30Z</time>
      </trkpt>
      <trkpt lat="37.523920000" lon="-5.253630000">
        <ele>165.6</ele>
        <time>2020-10-12T10:07:34Z</time>
      </trkpt>
      <trkpt lat="37.524008000" lon="-5.253627000">
        <ele>166.2</ele>
        <time>2020-10-12T10:07:38Z</time>
      </trkpt>
      <trkpt lat="37.524098000" lon="-5.253616000">
        <ele>166.7</ele>
        <time>2020-10-12T10:07:42Z</time>
      </trkpt>
      <trkpt lat="37.524192000" lon="-5.253614000">
        <ele>167.1</ele>
        <time>2020-10-12T10:07:46Z</time>
      </trkpt>
      <trkpt lat="37.524295000" lon="-5.253611000">
        <ele>167.5</ele>
        <time>2020-10-12T10:07:50Z</time>
      </trkpt>
      <trkpt lat="37.524402000" lon="-5.253599000">
        <ele>167.7</ele>
        <time>2020-10-12T10:07:54Z</time>
      </trkpt>
      <trkpt lat="37.524483000" lon="-5.253606000">
        <ele>168.1</ele>
        <time>2020-10-12T10:07:57Z</time>
      </trkpt>
      <trkpt lat="37.524565000" lon="-5.253606000">
        <ele>168.4</ele>
        <time>2020-10-12T10:08:00Z</time>
      </trkpt>
      <trkpt lat="37.524658000" lon="-5.253574000">
        <ele>168.5</ele>
        <time>2020-10-12T10:08:04Z</time>
      </trkpt>
      <trkpt lat="37.524731000" lon="-5.253499000">
        <ele>168.5</ele>
        <time>2020-10-12T10:08:08Z</time>
      </trkpt>
      <trkpt lat="37.524807000" lon="-5.253405000">
        <ele>168.5</ele>
        <time>2020-10-12T10:08:12Z</time>
      </trkpt>
      <trkpt lat="37.524840000" lon="-5.253278000">
        <ele>168.5</ele>
        <time>2020-10-12T10:08:16Z</time>
      </trkpt>
      <trkpt lat="37.524847000" lon="-5.253173000">
        <ele>168.4</ele>
        <time>2020-10-12T10:08:19Z</time>
      </trkpt>
      <trkpt lat="37.524852000" lon="-5.253065000">
        <ele>168.3</ele>
        <time>2020-10-12T10:08:22Z</time>
      </trkpt>
      <trkpt lat="37.524866000" lon="-5.252946000">
        <ele>168.4</ele>
        <time>2020-10-12T10:08:25Z</time>
      </trkpt>
      <trkpt lat="37.524874000" lon="-5.252818000">
        <ele>168.5</ele>
        <time>2020-10-12T10:08:28Z</time>
      </trkpt>
      <trkpt lat="37.524889000" lon="-5.252680000">
        <ele>168.5</ele>
        <time>2020-10-12T10:08:31Z</time>
      </trkpt>
      <trkpt lat="37.524906000" lon="-5.252540000">
        <ele>168.5</ele>
        <time>2020-10-12T10:08:34Z</time>
      </trkpt>
      <trkpt lat="37.524920000" lon="-5.252396000">
        <ele>168.5</ele>
        <time>2020-10-12T10:08:37Z</time>
      </trkpt>
      <trkpt lat="37.524932000" lon="-5.252257000">
        <ele>168.5</ele>
        <time>2020-10-12T10:08:40Z</time>
      </trkpt>
      <trkpt lat="37.524946000" lon="-5.252123000">
        <ele>168.5</ele>
        <time>2020-10-12T10:08:43Z</time>
      </trkpt>
      <trkpt lat="37.524955000" lon="-5.251996000">
        <ele>168.5</ele>
        <time>2020-10-12T10:08:46Z</time>
      </trkpt>
      <trkpt lat="37.524969000" lon="-5.251871000">
        <ele>168.5</ele>
        <time>2020-10-12T10:08:49Z</time>
      </trkpt>
      <trkpt lat="37.524994000" lon="-5.251742000">
        <ele>168.5</ele>
        <time>2020-10-12T10:08:52Z</time>
      </trkpt>
      <trkpt lat="37.525002000" lon="-5.251607000">
        <ele>168.5</ele>
        <time>2020-10-12T10:08:55Z</time>
      </trkpt>
      <trkpt lat="37.525007000" lon="-5.251477000">
        <ele>168.5</ele>
        <time>2020-10-12T10:08:58Z</time>
      </trkpt>
      <trkpt lat="37.525024000" lon="-5.251348000">
        <ele>168.4</ele>
        <time>2020-10-12T10:09:01Z</time>
      </trkpt>
      <trkpt lat="37.525034000" lon="-5.251213000">
        <ele>168.3</ele>
        <time>2020-10-12T10:09:04Z</time>
      </trkpt>
      <trkpt lat="37.525047000" lon="-5.251080000">
        <ele>168.2</ele>
        <time>2020-10-12T10:09:07Z</time>
      </trkpt>
      <trkpt lat="37.525071000" lon="-5.250949000">
        <ele>168.1</ele>
        <time>2020-10-12T10:09:10Z</time>
      </trkpt>
      <trkpt lat="37.525095000" lon="-5.250840000">
        <ele>168.0</ele>
        <time>2020-10-12T10:09:13Z</time>
      </trkpt>
      <trkpt lat="37.525174000" lon="-5.250866000">
        <ele>168.0</ele>
        <time>2020-10-12T10:09:21Z</time>
      </trkpt>
      <trkpt lat="37.525172000" lon="-5.250931000">
        <ele>168.0</ele>
        <time>2020-10-12T10:10:56Z</time>
      </trkpt>
      <trkpt lat="37.525310000" lon="-5.250572000">
        <ele>169.7</ele>
        <time>2020-10-12T10:19:48Z</time>
      </trkpt>
      <trkpt lat="37.525356000" lon="-5.250460000">
        <ele>169.9</ele>
        <time>2020-10-12T10:19:52Z</time>
      </trkpt>
      <trkpt lat="37.525392000" lon="-5.250357000">
        <ele>170.0</ele>
        <time>2020-10-12T10:19:55Z</time>
      </trkpt>
      <trkpt lat="37.525431000" lon="-5.250239000">
        <ele>170.1</ele>
        <time>2020-10-12T10:19:58Z</time>
      </trkpt>
      <trkpt lat="37.525473000" lon="-5.250122000">
        <ele>170.1</ele>
        <time>2020-10-12T10:20:01Z</time>
      </trkpt>
      <trkpt lat="37.525506000" lon="-5.250007000">
        <ele>170.1</ele>
        <time>2020-10-12T10:20:04Z</time>
      </trkpt>
      <trkpt lat="37.525538000" lon="-5.249893000">
        <ele>170.2</ele>
        <time>2020-10-12T10:20:07Z</time>
      </trkpt>
      <trkpt lat="37.525576000" lon="-5.249780000">
        <ele>170.3</ele>
        <time>2020-10-12T10:20:10Z</time>
      </trkpt>
      <trkpt lat="37.525549000" lon="-5.249664000">
        <ele>170.4</ele>
        <time>2020-10-12T10:20:14Z</time>
      </trkpt>
      <trkpt lat="37.525529000" lon="-5.249548000">
        <ele>170.5</ele>
        <time>2020-10-12T10:20:19Z</time>
      </trkpt>
      <trkpt lat="37.525553000" lon="-5.249448000">
        <ele>170.5</ele>
        <time>2020-10-12T10:20:22Z</time>
      </trkpt>
      <trkpt lat="37.525582000" lon="-5.249343000">
        <ele>170.5</ele>
        <time>2020-10-12T10:20:25Z</time>
      </trkpt>
      <trkpt lat="37.525609000" lon="-5.249230000">
        <ele>170.5</ele>
        <time>2020-10-12T10:20:28Z</time>
      </trkpt>
      <trkpt lat="37.525647000" lon="-5.249116000">
        <ele>170.5</ele>
        <time>2020-10-12T10:20:31Z</time>
      </trkpt>
      <trkpt lat="37.525690000" lon="-5.248992000">
        <ele>170.4</ele>
        <time>2020-10-12T10:20:34Z</time>
      </trkpt>
      <trkpt lat="37.525737000" lon="-5.248852000">
        <ele>170.4</ele>
        <time>2020-10-12T10:20:37Z</time>
      </trkpt>
      <trkpt lat="37.525771000" lon="-5.248759000">
        <ele>170.3</ele>
        <time>2020-10-12T10:20:39Z</time>
      </trkpt>
      <trkpt lat="37.525812000" lon="-5.248629000">
        <ele>170.1</ele>
        <time>2020-10-12T10:20:42Z</time>
      </trkpt>
      <trkpt lat="37.525863000" lon="-5.248492000">
        <ele>169.9</ele>
        <time>2020-10-12T10:20:45Z</time>
      </trkpt>
      <trkpt lat="37.525897000" lon="-5.248395000">
        <ele>169.6</ele>
        <time>2020-10-12T10:20:47Z</time>
      </trkpt>
      <trkpt lat="37.525933000" lon="-5.248299000">
        <ele>169.3</ele>
        <time>2020-10-12T10:20:49Z</time>
      </trkpt>
      <trkpt lat="37.525968000" lon="-5.248206000">
        <ele>168.9</ele>
        <time>2020-10-12T10:20:51Z</time>
      </trkpt>
      <trkpt lat="37.526022000" lon="-5.248069000">
        <ele>168.5</ele>
        <time>2020-10-12T10:20:54Z</time>
      </trkpt>
      <trkpt lat="37.526061000" lon="-5.247978000">
        <ele>168.2</ele>
        <time>2020-10-12T10:20:56Z</time>
      </trkpt>
      <trkpt lat="37.526102000" lon="-5.247888000">
        <ele>167.9</ele>
        <time>2020-10-12T10:20:58Z</time>
      </trkpt>
      <trkpt lat="37.526145000" lon="-5.247799000">
        <ele>167.5</ele>
        <time>2020-10-12T10:21:00Z</time>
      </trkpt>
      <trkpt lat="37.526207000" lon="-5.247667000">
        <ele>167.2</ele>
        <time>2020-10-12T10:21:03Z</time>
      </trkpt>
      <trkpt lat="37.526247000" lon="-5.247572000">
        <ele>166.9</ele>
        <time>2020-10-12T10:21:05Z</time>
      </trkpt>
      <trkpt lat="37.526288000" lon="-5.247474000">
        <ele>166.7</ele>
        <time>2020-10-12T10:21:07Z</time>
      </trkpt>
      <trkpt lat="37.526331000" lon="-5.247377000">
        <ele>166.6</ele>
        <time>2020-10-12T10:21:09Z</time>
      </trkpt>
      <trkpt lat="37.526372000" lon="-5.247280000">
        <ele>166.6</ele>
        <time>2020-10-12T10:21:11Z</time>
      </trkpt>
      <trkpt lat="37.526415000" lon="-5.247183000">
        <ele>166.6</ele>
        <time>2020-10-12T10:21:13Z</time>
      </trkpt>
      <trkpt lat="37.526459000" lon="-5.247087000">
        <ele>166.6</ele>
        <time>2020-10-12T10:21:15Z</time>
      </trkpt>
      <trkpt lat="37.526506000" lon="-5.246989000">
        <ele>166.6</ele>
        <time>2020-10-12T10:21:17Z</time>
      </trkpt>
      <trkpt lat="37.526556000" lon="-5.246893000">
        <ele>166.7</ele>
        <time>2020-10-12T10:21:19Z</time>
      </trkpt>
      <trkpt lat="37.526600000" lon="-5.246798000">
        <ele>166.8</ele>
        <time>2020-10-12T10:21:21Z</time>
      </trkpt>
      <trkpt lat="37.526644000" lon="-5.246705000">
        <ele>167.0</ele>
        <time>2020-10-12T10:21:23Z</time>
      </trkpt>
      <trkpt lat="37.526705000" lon="-5.246573000">
        <ele>167.2</ele>
        <time>2020-10-12T10:21:26Z</time>
      </trkpt>
      <trkpt lat="37.526765000" lon="-5.246458000">
        <ele>167.5</ele>
        <time>2020-10-12T10:21:29Z</time>
      </trkpt>
      <trkpt lat="37.526821000" lon="-5.246347000">
        <ele>167.7</ele>
        <time>2020-10-12T10:21:32Z</time>
      </trkpt>
      <trkpt lat="37.526878000" lon="-5.246236000">
        <ele>167.9</ele>
        <time>2020-10-12T10:21:35Z</time>
      </trkpt>
      <trkpt lat="37.526939000" lon="-5.246120000">
        <ele>168.1</ele>
        <time>2020-10-12T10:21:38Z</time>
      </trkpt>
      <trkpt lat="37.526996000" lon="-5.246006000">
        <ele>168.3</ele>
        <time>2020-10-12T10:21:41Z</time>
      </trkpt>
      <trkpt lat="37.527044000" lon="-5.245894000">
        <ele>168.5</ele>
        <time>2020-10-12T10:21:44Z</time>
      </trkpt>
      <trkpt lat="37.527098000" lon="-5.245767000">
        <ele>168.8</ele>
        <time>2020-10-12T10:21:47Z</time>
      </trkpt>
      <trkpt lat="37.527154000" lon="-5.245659000">
        <ele>169.0</ele>
        <time>2020-10-12T10:21:50Z</time>
      </trkpt>
      <trkpt lat="37.527208000" lon="-5.245546000">
        <ele>169.1</ele>
        <time>2020-10-12T10:21:53Z</time>
      </trkpt>
      <trkpt lat="37.527250000" lon="-5.245415000">
        <ele>169.1</ele>
        <time>2020-10-12T10:21:56Z</time>
      </trkpt>
      <trkpt lat="37.527259000" lon="-5.245271000">
        <ele>169.0</ele>
        <time>2020-10-12T10:21:59Z</time>
      </trkpt>
      <trkpt lat="37.527237000" lon="-5.245124000">
        <ele>168.7</ele>
        <time>2020-10-12T10:22:02Z</time>
      </trkpt>
      <trkpt lat="37.527239000" lon="-5.244971000">
        <ele>168.5</ele>
        <time>2020-10-12T10:22:05Z</time>
      </trkpt>
      <trkpt lat="37.527240000" lon="-5.244868000">
        <ele>168.2</ele>
        <time>2020-10-12T10:22:07Z</time>
      </trkpt>
      <trkpt lat="37.527238000" lon="-5.244716000">
        <ele>167.9</ele>
        <time>2020-10-12T10:22:10Z</time>
      </trkpt>
      <trkpt lat="37.527221000" lon="-5.244567000">
        <ele>167.6</ele>
        <time>2020-10-12T10:22:13Z</time>
      </trkpt>
      <trkpt lat="37.527196000" lon="-5.244426000">
        <ele>167.4</ele>
        <time>2020-10-12T10:22:16Z</time>
      </trkpt>
      <trkpt lat="37.527173000" lon="-5.244288000">
        <ele>167.2</ele>
        <time>2020-10-12T10:22:19Z</time>
      </trkpt>
      <trkpt lat="37.527153000" lon="-5.244154000">
        <ele>167.1</ele>
        <time>2020-10-12T10:22:22Z</time>
      </trkpt>
      <trkpt lat="37.527144000" lon="-5.244022000">
        <ele>167.1</ele>
        <time>2020-10-12T10:22:25Z</time>
      </trkpt>
      <trkpt lat="37.527139000" lon="-5.243893000">
        <ele>167.3</ele>
        <time>2020-10-12T10:22:28Z</time>
      </trkpt>
      <trkpt lat="37.527146000" lon="-5.243765000">
        <ele>167.5</ele>
        <time>2020-10-12T10:22:31Z</time>
      </trkpt>
      <trkpt lat="37.527154000" lon="-5.243643000">
        <ele>167.9</ele>
        <time>2020-10-12T10:22:34Z</time>
      </trkpt>
      <trkpt lat="37.527162000" lon="-5.243520000">
        <ele>168.3</ele>
        <time>2020-10-12T10:22:37Z</time>
      </trkpt>
      <trkpt lat="37.527174000" lon="-5.243387000">
        <ele>168.5</ele>
        <time>2020-10-12T10:22:40Z</time>
      </trkpt>
      <trkpt lat="37.527196000" lon="-5.243254000">
        <ele>168.8</ele>
        <time>2020-10-12T10:22:43Z</time>
      </trkpt>
      <trkpt lat="37.527214000" lon="-5.243128000">
        <ele>169.2</ele>
        <time>2020-10-12T10:22:46Z</time>
      </trkpt>
      <trkpt lat="37.527230000" lon="-5.243011000">
        <ele>169.5</ele>
        <time>2020-10-12T10:22:49Z</time>
      </trkpt>
      <trkpt lat="37.527255000" lon="-5.242900000">
        <ele>169.6</ele>
        <time>2020-10-12T10:22:52Z</time>
      </trkpt>
      <trkpt lat="37.527277000" lon="-5.242797000">
        <ele>169.6</ele>
        <time>2020-10-12T10:22:55Z</time>
      </trkpt>
      <trkpt lat="37.527292000" lon="-5.242691000">
        <ele>169.6</ele>
        <time>2020-10-12T10:22:58Z</time>
      </trkpt>
      <trkpt lat="37.527313000" lon="-5.242588000">
        <ele>169.5</ele>
        <time>2020-10-12T10:23:01Z</time>
      </trkpt>
      <trkpt lat="37.527332000" lon="-5.242487000">
        <ele>169.5</ele>
        <time>2020-10-12T10:23:04Z</time>
      </trkpt>
      <trkpt lat="37.527357000" lon="-5.242386000">
        <ele>169.3</ele>
        <time>2020-10-12T10:23:07Z</time>
      </trkpt>
      <trkpt lat="37.527374000" lon="-5.242286000">
        <ele>169.1</ele>
        <time>2020-10-12T10:23:10Z</time>
      </trkpt>
      <trkpt lat="37.527396000" lon="-5.242178000">
        <ele>169.0</ele>
        <time>2020-10-12T10:23:13Z</time>
      </trkpt>
      <trkpt lat="37.527413000" lon="-5.242060000">
        <ele>168.9</ele>
        <time>2020-10-12T10:23:16Z</time>
      </trkpt>
      <trkpt lat="37.527436000" lon="-5.241939000">
        <ele>168.7</ele>
        <time>2020-10-12T10:23:19Z</time>
      </trkpt>
      <trkpt lat="37.527463000" lon="-5.241818000">
        <ele>168.5</ele>
        <time>2020-10-12T10:23:22Z</time>
      </trkpt>
      <trkpt lat="37.527488000" lon="-5.241697000">
        <ele>168.2</ele>
        <time>2020-10-12T10:23:25Z</time>
      </trkpt>
      <trkpt lat="37.527512000" lon="-5.241573000">
        <ele>168.0</ele>
        <time>2020-10-12T10:23:28Z</time>
      </trkpt>
      <trkpt lat="37.527533000" lon="-5.241453000">
        <ele>167.7</ele>
        <time>2020-10-12T10:23:31Z</time>
      </trkpt>
      <trkpt lat="37.527546000" lon="-5.241334000">
        <ele>167.5</ele>
        <time>2020-10-12T10:23:34Z</time>
      </trkpt>
      <trkpt lat="37.527572000" lon="-5.241218000">
        <ele>167.2</ele>
        <time>2020-10-12T10:23:37Z</time>
      </trkpt>
      <trkpt lat="37.527590000" lon="-5.241100000">
        <ele>167.1</ele>
        <time>2020-10-12T10:23:40Z</time>
      </trkpt>
      <trkpt lat="37.527595000" lon="-5.240973000">
        <ele>167.0</ele>
        <time>2020-10-12T10:23:43Z</time>
      </trkpt>
      <trkpt lat="37.527575000" lon="-5.240851000">
        <ele>167.0</ele>
        <time>2020-10-12T10:23:46Z</time>
      </trkpt>
      <trkpt lat="37.527573000" lon="-5.240723000">
        <ele>167.0</ele>
        <time>2020-10-12T10:23:49Z</time>
      </trkpt>
      <trkpt lat="37.527629000" lon="-5.240621000">
        <ele>167.0</ele>
        <time>2020-10-12T10:23:52Z</time>
      </trkpt>
      <trkpt lat="37.527719000" lon="-5.240602000">
        <ele>167.1</ele>
        <time>2020-10-12T10:23:55Z</time>
      </trkpt>
      <trkpt lat="37.527818000" lon="-5.240618000">
        <ele>167.2</ele>
        <time>2020-10-12T10:23:59Z</time>
      </trkpt>
      <trkpt lat="37.527881000" lon="-5.240524000">
        <ele>167.3</ele>
        <time>2020-10-12T10:24:03Z</time>
      </trkpt>
      <trkpt lat="37.527884000" lon="-5.240387000">
        <ele>167.5</ele>
        <time>2020-10-12T10:24:07Z</time>
      </trkpt>
      <trkpt lat="37.527887000" lon="-5.240257000">
        <ele>167.6</ele>
        <time>2020-10-12T10:24:10Z</time>
      </trkpt>
      <trkpt lat="37.527893000" lon="-5.240124000">
        <ele>167.7</ele>
        <time>2020-10-12T10:24:13Z</time>
      </trkpt>
      <trkpt lat="37.527893000" lon="-5.239996000">
        <ele>167.7</ele>
        <time>2020-10-12T10:24:16Z</time>
      </trkpt>
      <trkpt lat="37.527884000" lon="-5.239874000">
        <ele>167.7</ele>
        <time>2020-10-12T10:24:19Z</time>
      </trkpt>
      <trkpt lat="37.527871000" lon="-5.239761000">
        <ele>167.6</ele>
        <time>2020-10-12T10:24:22Z</time>
      </trkpt>
      <trkpt lat="37.527840000" lon="-5.239657000">
        <ele>167.5</ele>
        <time>2020-10-12T10:24:25Z</time>
      </trkpt>
      <trkpt lat="37.527812000" lon="-5.239534000">
        <ele>167.5</ele>
        <time>2020-10-12T10:24:28Z</time>
      </trkpt>
      <trkpt lat="37.527770000" lon="-5.239403000">
        <ele>167.4</ele>
        <time>2020-10-12T10:24:31Z</time>
      </trkpt>
      <trkpt lat="37.527719000" lon="-5.239269000">
        <ele>167.3</ele>
        <time>2020-10-12T10:24:34Z</time>
      </trkpt>
      <trkpt lat="37.527660000" lon="-5.239134000">
        <ele>167.2</ele>
        <time>2020-10-12T10:24:37Z</time>
      </trkpt>
      <trkpt lat="37.527618000" lon="-5.239044000">
        <ele>167.1</ele>
        <time>2020-10-12T10:24:39Z</time>
      </trkpt>
      <trkpt lat="37.527577000" lon="-5.238952000">
        <ele>167.1</ele>
        <time>2020-10-12T10:24:41Z</time>
      </trkpt>
      <trkpt lat="37.527526000" lon="-5.238867000">
        <ele>167.2</ele>
        <time>2020-10-12T10:24:43Z</time>
      </trkpt>
      <trkpt lat="37.527472000" lon="-5.238782000">
        <ele>167.3</ele>
        <time>2020-10-12T10:24:45Z</time>
      </trkpt>
      <trkpt lat="37.527418000" lon="-5.238696000">
        <ele>167.5</ele>
        <time>2020-10-12T10:24:47Z</time>
      </trkpt>
      <trkpt lat="37.527367000" lon="-5.238611000">
        <ele>167.6</ele>
        <time>2020-10-12T10:24:49Z</time>
      </trkpt>
      <trkpt lat="37.527317000" lon="-5.238530000">
        <ele>167.7</ele>
        <time>2020-10-12T10:24:51Z</time>
      </trkpt>
      <trkpt lat="37.527249000" lon="-5.238413000">
        <ele>167.8</ele>
        <time>2020-10-12T10:24:54Z</time>
      </trkpt>
      <trkpt lat="37.527183000" lon="-5.238298000">
        <ele>167.9</ele>
        <time>2020-10-12T10:24:57Z</time>
      </trkpt>
      <trkpt lat="37.527121000" lon="-5.238191000">
        <ele>167.9</ele>
        <time>2020-10-12T10:25:00Z</time>
      </trkpt>
      <trkpt lat="37.527064000" lon="-5.238079000">
        <ele>167.8</ele>
        <time>2020-10-12T10:25:03Z</time>
      </trkpt>
      <trkpt lat="37.527005000" lon="-5.237973000">
        <ele>167.7</ele>
        <time>2020-10-12T10:25:06Z</time>
      </trkpt>
      <trkpt lat="37.526944000" lon="-5.237872000">
        <ele>167.5</ele>
        <time>2020-10-12T10:25:09Z</time>
      </trkpt>
      <trkpt lat="37.526877000" lon="-5.237756000">
        <ele>167.4</ele>
        <time>2020-10-12T10:25:12Z</time>
      </trkpt>
      <trkpt lat="37.526815000" lon="-5.237648000">
        <ele>167.2</ele>
        <time>2020-10-12T10:25:15Z</time>
      </trkpt>
      <trkpt lat="37.526761000" lon="-5.237523000">
        <ele>166.9</ele>
        <time>2020-10-12T10:25:18Z</time>
      </trkpt>
      <trkpt lat="37.526731000" lon="-5.237412000">
        <ele>166.7</ele>
        <time>2020-10-12T10:25:21Z</time>
      </trkpt>
      <trkpt lat="37.526701000" lon="-5.237301000">
        <ele>166.6</ele>
        <time>2020-10-12T10:25:24Z</time>
      </trkpt>
      <trkpt lat="37.526669000" lon="-5.237174000">
        <ele>166.5</ele>
        <time>2020-10-12T10:25:28Z</time>
      </trkpt>
      <trkpt lat="37.526644000" lon="-5.237070000">
        <ele>166.5</ele>
        <time>2020-10-12T10:25:31Z</time>
      </trkpt>
      <trkpt lat="37.526630000" lon="-5.236961000">
        <ele>166.5</ele>
        <time>2020-10-12T10:25:34Z</time>
      </trkpt>
      <trkpt lat="37.526619000" lon="-5.236851000">
        <ele>166.6</ele>
        <time>2020-10-12T10:25:37Z</time>
      </trkpt>
      <trkpt lat="37.526617000" lon="-5.236748000">
        <ele>166.8</ele>
        <time>2020-10-12T10:25:40Z</time>
      </trkpt>
      <trkpt lat="37.526616000" lon="-5.236639000">
        <ele>167.0</ele>
        <time>2020-10-12T10:25:43Z</time>
      </trkpt>
      <trkpt lat="37.526601000" lon="-5.236525000">
        <ele>167.2</ele>
        <time>2020-10-12T10:25:46Z</time>
      </trkpt>
      <trkpt lat="37.526600000" lon="-5.236405000">
        <ele>167.5</ele>
        <time>2020-10-12T10:25:49Z</time>
      </trkpt>
      <trkpt lat="37.526595000" lon="-5.236281000">
        <ele>167.7</ele>
        <time>2020-10-12T10:25:52Z</time>
      </trkpt>
      <trkpt lat="37.526589000" lon="-5.236168000">
        <ele>168.0</ele>
        <time>2020-10-12T10:25:55Z</time>
      </trkpt>
      <trkpt lat="37.526600000" lon="-5.236057000">
        <ele>168.3</ele>
        <time>2020-10-12T10:25:58Z</time>
      </trkpt>
      <trkpt lat="37.526579000" lon="-5.235939000">
        <ele>168.5</ele>
        <time>2020-10-12T10:26:01Z</time>
      </trkpt>
      <trkpt lat="37.526571000" lon="-5.235820000">
        <ele>168.9</ele>
        <time>2020-10-12T10:26:04Z</time>
      </trkpt>
      <trkpt lat="37.526567000" lon="-5.235698000">
        <ele>169.2</ele>
        <time>2020-10-12T10:26:07Z</time>
      </trkpt>
      <trkpt lat="37.526548000" lon="-5.235575000">
        <ele>169.4</ele>
        <time>2020-10-12T10:26:10Z</time>
      </trkpt>
      <trkpt lat="37.526527000" lon="-5.235454000">
        <ele>169.5</ele>
        <time>2020-10-12T10:26:13Z</time>
      </trkpt>
      <trkpt lat="37.526512000" lon="-5.235326000">
        <ele>169.5</ele>
        <time>2020-10-12T10:26:16Z</time>
      </trkpt>
      <trkpt lat="37.526503000" lon="-5.235193000">
        <ele>169.5</ele>
        <time>2020-10-12T10:26:19Z</time>
      </trkpt>
      <trkpt lat="37.526496000" lon="-5.235061000">
        <ele>169.4</ele>
        <time>2020-10-12T10:26:22Z</time>
      </trkpt>
      <trkpt lat="37.526486000" lon="-5.234941000">
        <ele>169.3</ele>
        <time>2020-10-12T10:26:25Z</time>
      </trkpt>
      <trkpt lat="37.526469000" lon="-5.234832000">
        <ele>169.1</ele>
        <time>2020-10-12T10:26:28Z</time>
      </trkpt>
      <trkpt lat="37.526459000" lon="-5.234723000">
        <ele>168.9</ele>
        <time>2020-10-12T10:26:31Z</time>
      </trkpt>
      <trkpt lat="37.526443000" lon="-5.234602000">
        <ele>168.8</ele>
        <time>2020-10-12T10:26:34Z</time>
      </trkpt>
      <trkpt lat="37.526424000" lon="-5.234485000">
        <ele>168.6</ele>
        <time>2020-10-12T10:26:37Z</time>
      </trkpt>
      <trkpt lat="37.526418000" lon="-5.234360000">
        <ele>168.5</ele>
        <time>2020-10-12T10:26:40Z</time>
      </trkpt>
      <trkpt lat="37.526416000" lon="-5.234227000">
        <ele>168.5</ele>
        <time>2020-10-12T10:26:43Z</time>
      </trkpt>
      <trkpt lat="37.526419000" lon="-5.234095000">
        <ele>168.5</ele>
        <time>2020-10-12T10:26:46Z</time>
      </trkpt>
      <trkpt lat="37.526424000" lon="-5.233954000">
        <ele>168.6</ele>
        <time>2020-10-12T10:26:49Z</time>
      </trkpt>
      <trkpt lat="37.526420000" lon="-5.233811000">
        <ele>168.9</ele>
        <time>2020-10-12T10:26:52Z</time>
      </trkpt>
      <trkpt lat="37.526423000" lon="-5.233672000">
        <ele>169.3</ele>
        <time>2020-10-12T10:26:55Z</time>
      </trkpt>
      <trkpt lat="37.526422000" lon="-5.233528000">
        <ele>169.6</ele>
        <time>2020-10-12T10:26:58Z</time>
      </trkpt>
      <trkpt lat="37.526423000" lon="-5.233377000">
        <ele>170.1</ele>
        <time>2020-10-12T10:27:01Z</time>
      </trkpt>
      <trkpt lat="37.526423000" lon="-5.233237000">
        <ele>170.6</ele>
        <time>2020-10-12T10:27:04Z</time>
      </trkpt>
      <trkpt lat="37.526423000" lon="-5.233105000">
        <ele>171.1</ele>
        <time>2020-10-12T10:27:07Z</time>
      </trkpt>
      <trkpt lat="37.526410000" lon="-5.232981000">
        <ele>171.5</ele>
        <time>2020-10-12T10:27:10Z</time>
      </trkpt>
      <trkpt lat="37.526403000" lon="-5.232863000">
        <ele>172.0</ele>
        <time>2020-10-12T10:27:13Z</time>
      </trkpt>
      <trkpt lat="37.526395000" lon="-5.232742000">
        <ele>172.5</ele>
        <time>2020-10-12T10:27:16Z</time>
      </trkpt>
      <trkpt lat="37.526387000" lon="-5.232626000">
        <ele>172.9</ele>
        <time>2020-10-12T10:27:19Z</time>
      </trkpt>
      <trkpt lat="37.526379000" lon="-5.232504000">
        <ele>173.3</ele>
        <time>2020-10-12T10:27:22Z</time>
      </trkpt>
      <trkpt lat="37.526370000" lon="-5.232387000">
        <ele>173.5</ele>
        <time>2020-10-12T10:27:25Z</time>
      </trkpt>
      <trkpt lat="37.526355000" lon="-5.232271000">
        <ele>173.6</ele>
        <time>2020-10-12T10:27:28Z</time>
      </trkpt>
      <trkpt lat="37.526336000" lon="-5.232154000">
        <ele>173.7</ele>
        <time>2020-10-12T10:27:31Z</time>
      </trkpt>
      <trkpt lat="37.526323000" lon="-5.232033000">
        <ele>173.7</ele>
        <time>2020-10-12T10:27:34Z</time>
      </trkpt>
      <trkpt lat="37.526305000" lon="-5.231916000">
        <ele>173.6</ele>
        <time>2020-10-12T10:27:37Z</time>
      </trkpt>
      <trkpt lat="37.526296000" lon="-5.231798000">
        <ele>173.5</ele>
        <time>2020-10-12T10:27:40Z</time>
      </trkpt>
      <trkpt lat="37.526278000" lon="-5.231673000">
        <ele>173.5</ele>
        <time>2020-10-12T10:27:43Z</time>
      </trkpt>
      <trkpt lat="37.526262000" lon="-5.231555000">
        <ele>173.3</ele>
        <time>2020-10-12T10:27:46Z</time>
      </trkpt>
      <trkpt lat="37.526245000" lon="-5.231421000">
        <ele>173.1</ele>
        <time>2020-10-12T10:27:49Z</time>
      </trkpt>
      <trkpt lat="37.526225000" lon="-5.231290000">
        <ele>172.8</ele>
        <time>2020-10-12T10:27:52Z</time>
      </trkpt>
      <trkpt lat="37.526206000" lon="-5.231159000">
        <ele>172.5</ele>
        <time>2020-10-12T10:27:55Z</time>
      </trkpt>
      <trkpt lat="37.526188000" lon="-5.231027000">
        <ele>172.4</ele>
        <time>2020-10-12T10:27:58Z</time>
      </trkpt>
      <trkpt lat="37.526174000" lon="-5.230891000">
        <ele>172.3</ele>
        <time>2020-10-12T10:28:01Z</time>
      </trkpt>
      <trkpt lat="37.526157000" lon="-5.230759000">
        <ele>172.2</ele>
        <time>2020-10-12T10:28:04Z</time>
      </trkpt>
      <trkpt lat="37.526144000" lon="-5.230627000">
        <ele>172.0</ele>
        <time>2020-10-12T10:28:07Z</time>
      </trkpt>
      <trkpt lat="37.526129000" lon="-5.230490000">
        <ele>171.7</ele>
        <time>2020-10-12T10:28:10Z</time>
      </trkpt>
      <trkpt lat="37.526116000" lon="-5.230351000">
        <ele>171.4</ele>
        <time>2020-10-12T10:28:13Z</time>
      </trkpt>
      <trkpt lat="37.526099000" lon="-5.230213000">
        <ele>171.0</ele>
        <time>2020-10-12T10:28:16Z</time>
      </trkpt>
      <trkpt lat="37.526085000" lon="-5.230074000">
        <ele>170.7</ele>
        <time>2020-10-12T10:28:19Z</time>
      </trkpt>
      <trkpt lat="37.526071000" lon="-5.229932000">
        <ele>170.5</ele>
        <time>2020-10-12T10:28:22Z</time>
      </trkpt>
      <trkpt lat="37.526059000" lon="-5.229790000">
        <ele>170.3</ele>
        <time>2020-10-12T10:28:25Z</time>
      </trkpt>
      <trkpt lat="37.526041000" lon="-5.229660000">
        <ele>170.2</ele>
        <time>2020-10-12T10:28:28Z</time>
      </trkpt>
      <trkpt lat="37.526033000" lon="-5.229526000">
        <ele>170.0</ele>
        <time>2020-10-12T10:28:31Z</time>
      </trkpt>
      <trkpt lat="37.526028000" lon="-5.229393000">
        <ele>169.8</ele>
        <time>2020-10-12T10:28:34Z</time>
      </trkpt>
      <trkpt lat="37.526020000" lon="-5.229261000">
        <ele>169.5</ele>
        <time>2020-10-12T10:28:37Z</time>
      </trkpt>
      <trkpt lat="37.526011000" lon="-5.229119000">
        <ele>169.4</ele>
        <time>2020-10-12T10:28:40Z</time>
      </trkpt>
      <trkpt lat="37.526003000" lon="-5.228979000">
        <ele>169.3</ele>
        <time>2020-10-12T10:28:43Z</time>
      </trkpt>
      <trkpt lat="37.525996000" lon="-5.228843000">
        <ele>169.3</ele>
        <time>2020-10-12T10:28:46Z</time>
      </trkpt>
      <trkpt lat="37.525980000" lon="-5.228702000">
        <ele>169.3</ele>
        <time>2020-10-12T10:28:49Z</time>
      </trkpt>
      <trkpt lat="37.525965000" lon="-5.228554000">
        <ele>169.4</ele>
        <time>2020-10-12T10:28:52Z</time>
      </trkpt>
      <trkpt lat="37.525946000" lon="-5.228411000">
        <ele>169.5</ele>
        <time>2020-10-12T10:28:55Z</time>
      </trkpt>
      <trkpt lat="37.525929000" lon="-5.228271000">
        <ele>169.8</ele>
        <time>2020-10-12T10:28:58Z</time>
      </trkpt>
      <trkpt lat="37.525922000" lon="-5.228126000">
        <ele>170.2</ele>
        <time>2020-10-12T10:29:01Z</time>
      </trkpt>
      <trkpt lat="37.525913000" lon="-5.227984000">
        <ele>170.6</ele>
        <time>2020-10-12T10:29:04Z</time>
      </trkpt>
      <trkpt lat="37.525904000" lon="-5.227843000">
        <ele>171.2</ele>
        <time>2020-10-12T10:29:07Z</time>
      </trkpt>
      <trkpt lat="37.525892000" lon="-5.227699000">
        <ele>171.9</ele>
        <time>2020-10-12T10:29:10Z</time>
      </trkpt>
      <trkpt lat="37.525879000" lon="-5.227556000">
        <ele>172.5</ele>
        <time>2020-10-12T10:29:13Z</time>
      </trkpt>
      <trkpt lat="37.525862000" lon="-5.227411000">
        <ele>173.1</ele>
        <time>2020-10-12T10:29:16Z</time>
      </trkpt>
      <trkpt lat="37.525849000" lon="-5.227263000">
        <ele>173.5</ele>
        <time>2020-10-12T10:29:19Z</time>
      </trkpt>
      <trkpt lat="37.525833000" lon="-5.227131000">
        <ele>174.0</ele>
        <time>2020-10-12T10:29:22Z</time>
      </trkpt>
      <trkpt lat="37.525823000" lon="-5.227010000">
        <ele>174.4</ele>
        <time>2020-10-12T10:29:25Z</time>
      </trkpt>
      <trkpt lat="37.525824000" lon="-5.226880000">
        <ele>174.6</ele>
        <time>2020-10-12T10:29:28Z</time>
      </trkpt>
      <trkpt lat="37.525816000" lon="-5.226738000">
        <ele>174.8</ele>
        <time>2020-10-12T10:29:31Z</time>
      </trkpt>
      <trkpt lat="37.525793000" lon="-5.226588000">
        <ele>174.7</ele>
        <time>2020-10-12T10:29:34Z</time>
      </trkpt>
      <trkpt lat="37.525781000" lon="-5.226439000">
        <ele>174.5</ele>
        <time>2020-10-12T10:29:37Z</time>
      </trkpt>
      <trkpt lat="37.525773000" lon="-5.226337000">
        <ele>174.3</ele>
        <time>2020-10-12T10:29:39Z</time>
      </trkpt>
      <trkpt lat="37.525773000" lon="-5.226231000">
        <ele>173.9</ele>
        <time>2020-10-12T10:29:41Z</time>
      </trkpt>
      <trkpt lat="37.525763000" lon="-5.226127000">
        <ele>173.6</ele>
        <time>2020-10-12T10:29:43Z</time>
      </trkpt>
      <trkpt lat="37.525750000" lon="-5.226023000">
        <ele>173.4</ele>
        <time>2020-10-12T10:29:45Z</time>
      </trkpt>
      <trkpt lat="37.525739000" lon="-5.225920000">
        <ele>173.2</ele>
        <time>2020-10-12T10:29:47Z</time>
      </trkpt>
      <trkpt lat="37.525729000" lon="-5.225818000">
        <ele>173.0</ele>
        <time>2020-10-12T10:29:49Z</time>
      </trkpt>
      <trkpt lat="37.525716000" lon="-5.225671000">
        <ele>172.9</ele>
        <time>2020-10-12T10:29:52Z</time>
      </trkpt>
      <trkpt lat="37.525706000" lon="-5.225528000">
        <ele>172.8</ele>
        <time>2020-10-12T10:29:55Z</time>
      </trkpt>
      <trkpt lat="37.525692000" lon="-5.225386000">
        <ele>172.8</ele>
        <time>2020-10-12T10:29:58Z</time>
      </trkpt>
      <trkpt lat="37.525687000" lon="-5.225247000">
        <ele>172.9</ele>
        <time>2020-10-12T10:30:01Z</time>
      </trkpt>
      <trkpt lat="37.525673000" lon="-5.225109000">
        <ele>173.0</ele>
        <time>2020-10-12T10:30:04Z</time>
      </trkpt>
      <trkpt lat="37.525660000" lon="-5.224965000">
        <ele>173.1</ele>
        <time>2020-10-12T10:30:07Z</time>
      </trkpt>
      <trkpt lat="37.525649000" lon="-5.224819000">
        <ele>173.2</ele>
        <time>2020-10-12T10:30:10Z</time>
      </trkpt>
      <trkpt lat="37.525639000" lon="-5.224677000">
        <ele>173.3</ele>
        <time>2020-10-12T10:30:13Z</time>
      </trkpt>
      <trkpt lat="37.525630000" lon="-5.224535000">
        <ele>173.5</ele>
        <time>2020-10-12T10:30:16Z</time>
      </trkpt>
      <trkpt lat="37.525618000" lon="-5.224399000">
        <ele>173.6</ele>
        <time>2020-10-12T10:30:19Z</time>
      </trkpt>
      <trkpt lat="37.525604000" lon="-5.224272000">
        <ele>173.9</ele>
        <time>2020-10-12T10:30:22Z</time>
      </trkpt>
      <trkpt lat="37.525603000" lon="-5.224155000">
        <ele>174.1</ele>
        <time>2020-10-12T10:30:25Z</time>
      </trkpt>
      <trkpt lat="37.525596000" lon="-5.224029000">
        <ele>174.4</ele>
        <time>2020-10-12T10:30:28Z</time>
      </trkpt>
      <trkpt lat="37.525578000" lon="-5.223904000">
        <ele>174.6</ele>
        <time>2020-10-12T10:30:31Z</time>
      </trkpt>
      <trkpt lat="37.525550000" lon="-5.223771000">
        <ele>174.9</ele>
        <time>2020-10-12T10:30:34Z</time>
      </trkpt>
      <trkpt lat="37.525537000" lon="-5.223634000">
        <ele>175.3</ele>
        <time>2020-10-12T10:30:37Z</time>
      </trkpt>
      <trkpt lat="37.525528000" lon="-5.223500000">
        <ele>175.6</ele>
        <time>2020-10-12T10:30:40Z</time>
      </trkpt>
      <trkpt lat="37.525519000" lon="-5.223376000">
        <ele>175.9</ele>
        <time>2020-10-12T10:30:43Z</time>
      </trkpt>
      <trkpt lat="37.525509000" lon="-5.223245000">
        <ele>176.2</ele>
        <time>2020-10-12T10:30:46Z</time>
      </trkpt>
      <trkpt lat="37.525488000" lon="-5.223118000">
        <ele>176.5</ele>
        <time>2020-10-12T10:30:49Z</time>
      </trkpt>
      <trkpt lat="37.525465000" lon="-5.222991000">
        <ele>176.6</ele>
        <time>2020-10-12T10:30:52Z</time>
      </trkpt>
      <trkpt lat="37.525470000" lon="-5.222851000">
        <ele>176.7</ele>
        <time>2020-10-12T10:30:55Z</time>
      </trkpt>
      <trkpt lat="37.525470000" lon="-5.222705000">
        <ele>176.9</ele>
        <time>2020-10-12T10:30:58Z</time>
      </trkpt>
      <trkpt lat="37.525467000" lon="-5.222602000">
        <ele>177.0</ele>
        <time>2020-10-12T10:31:00Z</time>
      </trkpt>
      <trkpt lat="37.525457000" lon="-5.222453000">
        <ele>177.0</ele>
        <time>2020-10-12T10:31:03Z</time>
      </trkpt>
      <trkpt lat="37.525445000" lon="-5.222311000">
        <ele>176.9</ele>
        <time>2020-10-12T10:31:06Z</time>
      </trkpt>
      <trkpt lat="37.525433000" lon="-5.222177000">
        <ele>176.7</ele>
        <time>2020-10-12T10:31:09Z</time>
      </trkpt>
      <trkpt lat="37.525421000" lon="-5.222062000">
        <ele>176.5</ele>
        <time>2020-10-12T10:31:12Z</time>
      </trkpt>
      <trkpt lat="37.525406000" lon="-5.221930000">
        <ele>176.3</ele>
        <time>2020-10-12T10:31:16Z</time>
      </trkpt>
      <trkpt lat="37.525399000" lon="-5.221827000">
        <ele>176.1</ele>
        <time>2020-10-12T10:31:19Z</time>
      </trkpt>
      <trkpt lat="37.525388000" lon="-5.221717000">
        <ele>175.9</ele>
        <time>2020-10-12T10:31:22Z</time>
      </trkpt>
      <trkpt lat="37.525376000" lon="-5.221582000">
        <ele>175.8</ele>
        <time>2020-10-12T10:31:26Z</time>
      </trkpt>
      <trkpt lat="37.525367000" lon="-5.221450000">
        <ele>175.8</ele>
        <time>2020-10-12T10:31:30Z</time>
      </trkpt>
      <trkpt lat="37.525356000" lon="-5.221317000">
        <ele>175.7</ele>
        <time>2020-10-12T10:31:34Z</time>
      </trkpt>
      <trkpt lat="37.525347000" lon="-5.221202000">
        <ele>175.7</ele>
        <time>2020-10-12T10:31:37Z</time>
      </trkpt>
      <trkpt lat="37.525341000" lon="-5.221076000">
        <ele>175.7</ele>
        <time>2020-10-12T10:31:40Z</time>
      </trkpt>
      <trkpt lat="37.525329000" lon="-5.220957000">
        <ele>175.8</ele>
        <time>2020-10-12T10:31:43Z</time>
      </trkpt>
      <trkpt lat="37.525318000" lon="-5.220839000">
        <ele>175.9</ele>
        <time>2020-10-12T10:31:46Z</time>
      </trkpt>
      <trkpt lat="37.525308000" lon="-5.220720000">
        <ele>176.0</ele>
        <time>2020-10-12T10:31:49Z</time>
      </trkpt>
      <trkpt lat="37.525298000" lon="-5.220605000">
        <ele>176.1</ele>
        <time>2020-10-12T10:31:52Z</time>
      </trkpt>
      <trkpt lat="37.525288000" lon="-5.220487000">
        <ele>176.1</ele>
        <time>2020-10-12T10:31:55Z</time>
      </trkpt>
      <trkpt lat="37.525279000" lon="-5.220364000">
        <ele>176.1</ele>
        <time>2020-10-12T10:31:58Z</time>
      </trkpt>
      <trkpt lat="37.525269000" lon="-5.220229000">
        <ele>176.1</ele>
        <time>2020-10-12T10:32:01Z</time>
      </trkpt>
      <trkpt lat="37.525258000" lon="-5.220087000">
        <ele>176.0</ele>
        <time>2020-10-12T10:32:04Z</time>
      </trkpt>
      <trkpt lat="37.525241000" lon="-5.219939000">
        <ele>175.9</ele>
        <time>2020-10-12T10:32:07Z</time>
      </trkpt>
      <trkpt lat="37.525226000" lon="-5.219791000">
        <ele>175.8</ele>
        <time>2020-10-12T10:32:10Z</time>
      </trkpt>
      <trkpt lat="37.525215000" lon="-5.219647000">
        <ele>175.7</ele>
        <time>2020-10-12T10:32:13Z</time>
      </trkpt>
      <trkpt lat="37.525201000" lon="-5.219503000">
        <ele>175.7</ele>
        <time>2020-10-12T10:32:16Z</time>
      </trkpt>
      <trkpt lat="37.525192000" lon="-5.219355000">
        <ele>175.7</ele>
        <time>2020-10-12T10:32:19Z</time>
      </trkpt>
      <trkpt lat="37.525189000" lon="-5.219252000">
        <ele>175.8</ele>
        <time>2020-10-12T10:32:21Z</time>
      </trkpt>
      <trkpt lat="37.525182000" lon="-5.219148000">
        <ele>175.9</ele>
        <time>2020-10-12T10:32:23Z</time>
      </trkpt>
      <trkpt lat="37.525173000" lon="-5.218997000">
        <ele>176.2</ele>
        <time>2020-10-12T10:32:26Z</time>
      </trkpt>
      <trkpt lat="37.525160000" lon="-5.218846000">
        <ele>176.4</ele>
        <time>2020-10-12T10:32:29Z</time>
      </trkpt>
      <trkpt lat="37.525150000" lon="-5.218744000">
        <ele>176.5</ele>
        <time>2020-10-12T10:32:31Z</time>
      </trkpt>
      <trkpt lat="37.525136000" lon="-5.218595000">
        <ele>176.6</ele>
        <time>2020-10-12T10:32:34Z</time>
      </trkpt>
      <trkpt lat="37.525121000" lon="-5.218448000">
        <ele>176.7</ele>
        <time>2020-10-12T10:32:37Z</time>
      </trkpt>
      <trkpt lat="37.525110000" lon="-5.218344000">
        <ele>176.6</ele>
        <time>2020-10-12T10:32:39Z</time>
      </trkpt>
      <trkpt lat="37.525101000" lon="-5.218240000">
        <ele>176.5</ele>
        <time>2020-10-12T10:32:41Z</time>
      </trkpt>
      <trkpt lat="37.525088000" lon="-5.218088000">
        <ele>176.3</ele>
        <time>2020-10-12T10:32:44Z</time>
      </trkpt>
      <trkpt lat="37.525078000" lon="-5.217985000">
        <ele>176.0</ele>
        <time>2020-10-12T10:32:46Z</time>
      </trkpt>
      <trkpt lat="37.525066000" lon="-5.217881000">
        <ele>175.7</ele>
        <time>2020-10-12T10:32:48Z</time>
      </trkpt>
      <trkpt lat="37.525055000" lon="-5.217778000">
        <ele>175.5</ele>
        <time>2020-10-12T10:32:50Z</time>
      </trkpt>
      <trkpt lat="37.525039000" lon="-5.217628000">
        <ele>175.1</ele>
        <time>2020-10-12T10:32:53Z</time>
      </trkpt>
      <trkpt lat="37.525023000" lon="-5.217480000">
        <ele>174.9</ele>
        <time>2020-10-12T10:32:56Z</time>
      </trkpt>
      <trkpt lat="37.525009000" lon="-5.217341000">
        <ele>174.7</ele>
        <time>2020-10-12T10:32:59Z</time>
      </trkpt>
      <trkpt lat="37.524996000" lon="-5.217206000">
        <ele>174.7</ele>
        <time>2020-10-12T10:33:02Z</time>
      </trkpt>
      <trkpt lat="37.524991000" lon="-5.217073000">
        <ele>174.7</ele>
        <time>2020-10-12T10:33:05Z</time>
      </trkpt>
      <trkpt lat="37.524982000" lon="-5.216935000">
        <ele>174.8</ele>
        <time>2020-10-12T10:33:08Z</time>
      </trkpt>
      <trkpt lat="37.524973000" lon="-5.216799000">
        <ele>175.0</ele>
        <time>2020-10-12T10:33:11Z</time>
      </trkpt>
      <trkpt lat="37.524964000" lon="-5.216653000">
        <ele>175.4</ele>
        <time>2020-10-12T10:33:14Z</time>
      </trkpt>
      <trkpt lat="37.524955000" lon="-5.216501000">
        <ele>175.7</ele>
        <time>2020-10-12T10:33:17Z</time>
      </trkpt>
      <trkpt lat="37.524936000" lon="-5.216356000">
        <ele>176.2</ele>
        <time>2020-10-12T10:33:20Z</time>
      </trkpt>
      <trkpt lat="37.524922000" lon="-5.216208000">
        <ele>176.6</ele>
        <time>2020-10-12T10:33:23Z</time>
      </trkpt>
      <trkpt lat="37.524914000" lon="-5.216061000">
        <ele>177.1</ele>
        <time>2020-10-12T10:33:26Z</time>
      </trkpt>
      <trkpt lat="37.524902000" lon="-5.215914000">
        <ele>177.5</ele>
        <time>2020-10-12T10:33:29Z</time>
      </trkpt>
      <trkpt lat="37.524892000" lon="-5.215765000">
        <ele>177.7</ele>
        <time>2020-10-12T10:33:32Z</time>
      </trkpt>
      <trkpt lat="37.524884000" lon="-5.215662000">
        <ele>177.8</ele>
        <time>2020-10-12T10:33:34Z</time>
      </trkpt>
      <trkpt lat="37.524857000" lon="-5.215520000">
        <ele>177.7</ele>
        <time>2020-10-12T10:33:37Z</time>
      </trkpt>
      <trkpt lat="37.524851000" lon="-5.215377000">
        <ele>177.6</ele>
        <time>2020-10-12T10:33:40Z</time>
      </trkpt>
      <trkpt lat="37.524845000" lon="-5.215230000">
        <ele>177.5</ele>
        <time>2020-10-12T10:33:43Z</time>
      </trkpt>
      <trkpt lat="37.524833000" lon="-5.215085000">
        <ele>177.2</ele>
        <time>2020-10-12T10:33:46Z</time>
      </trkpt>
      <trkpt lat="37.524821000" lon="-5.214946000">
        <ele>177.0</ele>
        <time>2020-10-12T10:33:49Z</time>
      </trkpt>
      <trkpt lat="37.524813000" lon="-5.214813000">
        <ele>176.7</ele>
        <time>2020-10-12T10:33:52Z</time>
      </trkpt>
      <trkpt lat="37.524801000" lon="-5.214676000">
        <ele>176.5</ele>
        <time>2020-10-12T10:33:55Z</time>
      </trkpt>
      <trkpt lat="37.524791000" lon="-5.214529000">
        <ele>176.4</ele>
        <time>2020-10-12T10:33:58Z</time>
      </trkpt>
      <trkpt lat="37.524784000" lon="-5.214383000">
        <ele>176.2</ele>
        <time>2020-10-12T10:34:01Z</time>
      </trkpt>
      <trkpt lat="37.524772000" lon="-5.214243000">
        <ele>176.1</ele>
        <time>2020-10-12T10:34:04Z</time>
      </trkpt>
      <trkpt lat="37.524761000" lon="-5.214107000">
        <ele>176.1</ele>
        <time>2020-10-12T10:34:07Z</time>
      </trkpt>
      <trkpt lat="37.524755000" lon="-5.213967000">
        <ele>176.3</ele>
        <time>2020-10-12T10:34:10Z</time>
      </trkpt>
      <trkpt lat="37.524736000" lon="-5.213819000">
        <ele>176.5</ele>
        <time>2020-10-12T10:34:13Z</time>
      </trkpt>
      <trkpt lat="37.524730000" lon="-5.213716000">
        <ele>176.6</ele>
        <time>2020-10-12T10:34:15Z</time>
      </trkpt>
      <trkpt lat="37.524722000" lon="-5.213613000">
        <ele>176.9</ele>
        <time>2020-10-12T10:34:17Z</time>
      </trkpt>
      <trkpt lat="37.524712000" lon="-5.213509000">
        <ele>177.1</ele>
        <time>2020-10-12T10:34:19Z</time>
      </trkpt>
      <trkpt lat="37.524701000" lon="-5.213405000">
        <ele>177.2</ele>
        <time>2020-10-12T10:34:21Z</time>
      </trkpt>
      <trkpt lat="37.524692000" lon="-5.213303000">
        <ele>177.2</ele>
        <time>2020-10-12T10:34:23Z</time>
      </trkpt>
      <trkpt lat="37.524682000" lon="-5.213199000">
        <ele>177.2</ele>
        <time>2020-10-12T10:34:25Z</time>
      </trkpt>
      <trkpt lat="37.524672000" lon="-5.213096000">
        <ele>177.2</ele>
        <time>2020-10-12T10:34:27Z</time>
      </trkpt>
      <trkpt lat="37.524660000" lon="-5.212993000">
        <ele>177.2</ele>
        <time>2020-10-12T10:34:29Z</time>
      </trkpt>
      <trkpt lat="37.524651000" lon="-5.212891000">
        <ele>177.2</ele>
        <time>2020-10-12T10:34:31Z</time>
      </trkpt>
      <trkpt lat="37.524645000" lon="-5.212783000">
        <ele>177.2</ele>
        <time>2020-10-12T10:34:33Z</time>
      </trkpt>
      <trkpt lat="37.524634000" lon="-5.212674000">
        <ele>177.2</ele>
        <time>2020-10-12T10:34:35Z</time>
      </trkpt>
      <trkpt lat="37.524624000" lon="-5.212571000">
        <ele>177.2</ele>
        <time>2020-10-12T10:34:37Z</time>
      </trkpt>
      <trkpt lat="37.524607000" lon="-5.212423000">
        <ele>177.1</ele>
        <time>2020-10-12T10:34:40Z</time>
      </trkpt>
      <trkpt lat="37.524596000" lon="-5.212279000">
        <ele>177.0</ele>
        <time>2020-10-12T10:34:43Z</time>
      </trkpt>
      <trkpt lat="37.524582000" lon="-5.212143000">
        <ele>177.0</ele>
        <time>2020-10-12T10:34:46Z</time>
      </trkpt>
      <trkpt lat="37.524565000" lon="-5.212002000">
        <ele>177.0</ele>
        <time>2020-10-12T10:34:49Z</time>
      </trkpt>
      <trkpt lat="37.524555000" lon="-5.211862000">
        <ele>176.9</ele>
        <time>2020-10-12T10:34:52Z</time>
      </trkpt>
      <trkpt lat="37.524549000" lon="-5.211726000">
        <ele>176.8</ele>
        <time>2020-10-12T10:34:55Z</time>
      </trkpt>
      <trkpt lat="37.524536000" lon="-5.211592000">
        <ele>176.8</ele>
        <time>2020-10-12T10:34:58Z</time>
      </trkpt>
      <trkpt lat="37.524527000" lon="-5.211460000">
        <ele>176.8</ele>
        <time>2020-10-12T10:35:01Z</time>
      </trkpt>
      <trkpt lat="37.524514000" lon="-5.211325000">
        <ele>176.9</ele>
        <time>2020-10-12T10:35:04Z</time>
      </trkpt>
      <trkpt lat="37.524499000" lon="-5.211183000">
        <ele>177.0</ele>
        <time>2020-10-12T10:35:07Z</time>
      </trkpt>
      <trkpt lat="37.524487000" lon="-5.211052000">
        <ele>177.2</ele>
        <time>2020-10-12T10:35:10Z</time>
      </trkpt>
      <trkpt lat="37.524478000" lon="-5.210923000">
        <ele>177.4</ele>
        <time>2020-10-12T10:35:13Z</time>
      </trkpt>
      <trkpt lat="37.524462000" lon="-5.210780000">
        <ele>177.5</ele>
        <time>2020-10-12T10:35:16Z</time>
      </trkpt>
      <trkpt lat="37.524446000" lon="-5.210660000">
        <ele>177.7</ele>
        <time>2020-10-12T10:35:19Z</time>
      </trkpt>
      <trkpt lat="37.524442000" lon="-5.210520000">
        <ele>177.9</ele>
        <time>2020-10-12T10:35:22Z</time>
      </trkpt>
      <trkpt lat="37.524428000" lon="-5.210383000">
        <ele>178.2</ele>
        <time>2020-10-12T10:35:25Z</time>
      </trkpt>
      <trkpt lat="37.524418000" lon="-5.210273000">
        <ele>178.5</ele>
        <time>2020-10-12T10:35:28Z</time>
      </trkpt>
      <trkpt lat="37.524407000" lon="-5.210136000">
        <ele>178.9</ele>
        <time>2020-10-12T10:35:31Z</time>
      </trkpt>
      <trkpt lat="37.524392000" lon="-5.209999000">
        <ele>179.3</ele>
        <time>2020-10-12T10:35:34Z</time>
      </trkpt>
      <trkpt lat="37.524375000" lon="-5.209868000">
        <ele>179.5</ele>
        <time>2020-10-12T10:35:37Z</time>
      </trkpt>
      <trkpt lat="37.524368000" lon="-5.209737000">
        <ele>179.6</ele>
        <time>2020-10-12T10:35:40Z</time>
      </trkpt>
      <trkpt lat="37.524354000" lon="-5.209594000">
        <ele>179.6</ele>
        <time>2020-10-12T10:35:43Z</time>
      </trkpt>
      <trkpt lat="37.524334000" lon="-5.209446000">
        <ele>179.5</ele>
        <time>2020-10-12T10:35:46Z</time>
      </trkpt>
      <trkpt lat="37.524320000" lon="-5.209296000">
        <ele>179.5</ele>
        <time>2020-10-12T10:35:49Z</time>
      </trkpt>
      <trkpt lat="37.524329000" lon="-5.209149000">
        <ele>179.4</ele>
        <time>2020-10-12T10:35:52Z</time>
      </trkpt>
      <trkpt lat="37.524319000" lon="-5.209005000">
        <ele>179.3</ele>
        <time>2020-10-12T10:35:55Z</time>
      </trkpt>
      <trkpt lat="37.524303000" lon="-5.208870000">
        <ele>179.2</ele>
        <time>2020-10-12T10:35:58Z</time>
      </trkpt>
      <trkpt lat="37.524292000" lon="-5.208724000">
        <ele>179.0</ele>
        <time>2020-10-12T10:36:01Z</time>
      </trkpt>
      <trkpt lat="37.524269000" lon="-5.208575000">
        <ele>178.7</ele>
        <time>2020-10-12T10:36:04Z</time>
      </trkpt>
      <trkpt lat="37.524252000" lon="-5.208429000">
        <ele>178.5</ele>
        <time>2020-10-12T10:36:07Z</time>
      </trkpt>
      <trkpt lat="37.524244000" lon="-5.208279000">
        <ele>178.4</ele>
        <time>2020-10-12T10:36:10Z</time>
      </trkpt>
      <trkpt lat="37.524228000" lon="-5.208129000">
        <ele>178.3</ele>
        <time>2020-10-12T10:36:13Z</time>
      </trkpt>
      <trkpt lat="37.524211000" lon="-5.207979000">
        <ele>178.3</ele>
        <time>2020-10-12T10:36:16Z</time>
      </trkpt>
      <trkpt lat="37.524199000" lon="-5.207831000">
        <ele>178.4</ele>
        <time>2020-10-12T10:36:19Z</time>
      </trkpt>
      <trkpt lat="37.524201000" lon="-5.207685000">
        <ele>178.5</ele>
        <time>2020-10-12T10:36:22Z</time>
      </trkpt>
      <trkpt lat="37.524195000" lon="-5.207540000">
        <ele>178.6</ele>
        <time>2020-10-12T10:36:25Z</time>
      </trkpt>
      <trkpt lat="37.524181000" lon="-5.207394000">
        <ele>178.8</ele>
        <time>2020-10-12T10:36:28Z</time>
      </trkpt>
      <trkpt lat="37.524160000" lon="-5.207246000">
        <ele>179.0</ele>
        <time>2020-10-12T10:36:31Z</time>
      </trkpt>
      <trkpt lat="37.524141000" lon="-5.207102000">
        <ele>179.1</ele>
        <time>2020-10-12T10:36:34Z</time>
      </trkpt>
      <trkpt lat="37.524123000" lon="-5.206961000">
        <ele>179.1</ele>
        <time>2020-10-12T10:36:37Z</time>
      </trkpt>
      <trkpt lat="37.524106000" lon="-5.206821000">
        <ele>179.0</ele>
        <time>2020-10-12T10:36:40Z</time>
      </trkpt>
      <trkpt lat="37.524091000" lon="-5.206676000">
        <ele>178.8</ele>
        <time>2020-10-12T10:36:43Z</time>
      </trkpt>
      <trkpt lat="37.524082000" lon="-5.206526000">
        <ele>178.5</ele>
        <time>2020-10-12T10:36:46Z</time>
      </trkpt>
      <trkpt lat="37.524075000" lon="-5.206376000">
        <ele>178.3</ele>
        <time>2020-10-12T10:36:49Z</time>
      </trkpt>
      <trkpt lat="37.524063000" lon="-5.206225000">
        <ele>178.0</ele>
        <time>2020-10-12T10:36:52Z</time>
      </trkpt>
      <trkpt lat="37.524052000" lon="-5.206073000">
        <ele>177.7</ele>
        <time>2020-10-12T10:36:55Z</time>
      </trkpt>
      <trkpt lat="37.524044000" lon="-5.205970000">
        <ele>177.5</ele>
        <time>2020-10-12T10:36:57Z</time>
      </trkpt>
      <trkpt lat="37.524033000" lon="-5.205867000">
        <ele>177.3</ele>
        <time>2020-10-12T10:36:59Z</time>
      </trkpt>
      <trkpt lat="37.524024000" lon="-5.205715000">
        <ele>177.2</ele>
        <time>2020-10-12T10:37:02Z</time>
      </trkpt>
      <trkpt lat="37.524018000" lon="-5.205565000">
        <ele>177.2</ele>
        <time>2020-10-12T10:37:05Z</time>
      </trkpt>
      <trkpt lat="37.524009000" lon="-5.205460000">
        <ele>177.3</ele>
        <time>2020-10-12T10:37:07Z</time>
      </trkpt>
      <trkpt lat="37.523997000" lon="-5.205348000">
        <ele>177.5</ele>
        <time>2020-10-12T10:37:09Z</time>
      </trkpt>
      <trkpt lat="37.523989000" lon="-5.205237000">
        <ele>177.7</ele>
        <time>2020-10-12T10:37:11Z</time>
      </trkpt>
      <trkpt lat="37.523979000" lon="-5.205130000">
        <ele>178.0</ele>
        <time>2020-10-12T10:37:13Z</time>
      </trkpt>
      <trkpt lat="37.523973000" lon="-5.205027000">
        <ele>178.3</ele>
        <time>2020-10-12T10:37:15Z</time>
      </trkpt>
      <trkpt lat="37.523961000" lon="-5.204876000">
        <ele>178.5</ele>
        <time>2020-10-12T10:37:18Z</time>
      </trkpt>
      <trkpt lat="37.523950000" lon="-5.204773000">
        <ele>178.8</ele>
        <time>2020-10-12T10:37:20Z</time>
      </trkpt>
      <trkpt lat="37.523942000" lon="-5.204669000">
        <ele>179.0</ele>
        <time>2020-10-12T10:37:22Z</time>
      </trkpt>
      <trkpt lat="37.523934000" lon="-5.204563000">
        <ele>179.1</ele>
        <time>2020-10-12T10:37:24Z</time>
      </trkpt>
      <trkpt lat="37.523924000" lon="-5.204458000">
        <ele>179.1</ele>
        <time>2020-10-12T10:37:26Z</time>
      </trkpt>
      <trkpt lat="37.523913000" lon="-5.204350000">
        <ele>179.1</ele>
        <time>2020-10-12T10:37:28Z</time>
      </trkpt>
      <trkpt lat="37.523903000" lon="-5.204242000">
        <ele>179.2</ele>
        <time>2020-10-12T10:37:30Z</time>
      </trkpt>
      <trkpt lat="37.523895000" lon="-5.204137000">
        <ele>179.2</ele>
        <time>2020-10-12T10:37:32Z</time>
      </trkpt>
      <trkpt lat="37.523886000" lon="-5.204033000">
        <ele>179.4</ele>
        <time>2020-10-12T10:37:34Z</time>
      </trkpt>
      <trkpt lat="37.523878000" lon="-5.203926000">
        <ele>179.5</ele>
        <time>2020-10-12T10:37:36Z</time>
      </trkpt>
      <trkpt lat="37.523872000" lon="-5.203818000">
        <ele>179.7</ele>
        <time>2020-10-12T10:37:38Z</time>
      </trkpt>
      <trkpt lat="37.523861000" lon="-5.203709000">
        <ele>180.0</ele>
        <time>2020-10-12T10:37:40Z</time>
      </trkpt>
      <trkpt lat="37.523847000" lon="-5.203602000">
        <ele>180.3</ele>
        <time>2020-10-12T10:37:42Z</time>
      </trkpt>
      <trkpt lat="37.523837000" lon="-5.203498000">
        <ele>180.5</ele>
        <time>2020-10-12T10:37:44Z</time>
      </trkpt>
      <trkpt lat="37.523824000" lon="-5.203353000">
        <ele>180.6</ele>
        <time>2020-10-12T10:37:47Z</time>
      </trkpt>
      <trkpt lat="37.523814000" lon="-5.203227000">
        <ele>180.8</ele>
        <time>2020-10-12T10:37:50Z</time>
      </trkpt>
      <trkpt lat="37.523805000" lon="-5.203109000">
        <ele>180.9</ele>
        <time>2020-10-12T10:37:53Z</time>
      </trkpt>
      <trkpt lat="37.523794000" lon="-5.202992000">
        <ele>180.9</ele>
        <time>2020-10-12T10:37:56Z</time>
      </trkpt>
      <trkpt lat="37.523786000" lon="-5.202867000">
        <ele>180.9</ele>
        <time>2020-10-12T10:37:59Z</time>
      </trkpt>
      <trkpt lat="37.523772000" lon="-5.202742000">
        <ele>180.8</ele>
        <time>2020-10-12T10:38:02Z</time>
      </trkpt>
      <trkpt lat="37.523777000" lon="-5.202623000">
        <ele>180.6</ele>
        <time>2020-10-12T10:38:05Z</time>
      </trkpt>
      <trkpt lat="37.523776000" lon="-5.202495000">
        <ele>180.5</ele>
        <time>2020-10-12T10:38:08Z</time>
      </trkpt>
      <trkpt lat="37.523759000" lon="-5.202363000">
        <ele>180.3</ele>
        <time>2020-10-12T10:38:11Z</time>
      </trkpt>
      <trkpt lat="37.523750000" lon="-5.202232000">
        <ele>180.1</ele>
        <time>2020-10-12T10:38:14Z</time>
      </trkpt>
      <trkpt lat="37.523732000" lon="-5.202101000">
        <ele>180.1</ele>
        <time>2020-10-12T10:38:17Z</time>
      </trkpt>
      <trkpt lat="37.523722000" lon="-5.201970000">
        <ele>180.1</ele>
        <time>2020-10-12T10:38:20Z</time>
      </trkpt>
      <trkpt lat="37.523710000" lon="-5.201845000">
        <ele>180.1</ele>
        <time>2020-10-12T10:38:23Z</time>
      </trkpt>
      <trkpt lat="37.523688000" lon="-5.201721000">
        <ele>180.2</ele>
        <time>2020-10-12T10:38:26Z</time>
      </trkpt>
      <trkpt lat="37.523677000" lon="-5.201593000">
        <ele>180.3</ele>
        <time>2020-10-12T10:38:29Z</time>
      </trkpt>
      <trkpt lat="37.523676000" lon="-5.201463000">
        <ele>180.4</ele>
        <time>2020-10-12T10:38:32Z</time>
      </trkpt>
      <trkpt lat="37.523673000" lon="-5.201346000">
        <ele>180.5</ele>
        <time>2020-10-12T10:38:35Z</time>
      </trkpt>
      <trkpt lat="37.523663000" lon="-5.201226000">
        <ele>180.6</ele>
        <time>2020-10-12T10:38:38Z</time>
      </trkpt>
      <trkpt lat="37.523656000" lon="-5.201105000">
        <ele>180.8</ele>
        <time>2020-10-12T10:38:41Z</time>
      </trkpt>
      <trkpt lat="37.523645000" lon="-5.200973000">
        <ele>180.9</ele>
        <time>2020-10-12T10:38:44Z</time>
      </trkpt>
      <trkpt lat="37.523629000" lon="-5.200842000">
        <ele>181.0</ele>
        <time>2020-10-12T10:38:47Z</time>
      </trkpt>
      <trkpt lat="37.523621000" lon="-5.200716000">
        <ele>181.0</ele>
        <time>2020-10-12T10:38:50Z</time>
      </trkpt>
      <trkpt lat="37.523608000" lon="-5.200597000">
        <ele>181.0</ele>
        <time>2020-10-12T10:38:53Z</time>
      </trkpt>
      <trkpt lat="37.523598000" lon="-5.200473000">
        <ele>181.0</ele>
        <time>2020-10-12T10:38:56Z</time>
      </trkpt>
      <trkpt lat="37.523585000" lon="-5.200350000">
        <ele>181.1</ele>
        <time>2020-10-12T10:38:59Z</time>
      </trkpt>
      <trkpt lat="37.523577000" lon="-5.200229000">
        <ele>181.2</ele>
        <time>2020-10-12T10:39:02Z</time>
      </trkpt>
      <trkpt lat="37.523565000" lon="-5.200104000">
        <ele>181.3</ele>
        <time>2020-10-12T10:39:05Z</time>
      </trkpt>
      <trkpt lat="37.523563000" lon="-5.199979000">
        <ele>181.3</ele>
        <time>2020-10-12T10:39:08Z</time>
      </trkpt>
      <trkpt lat="37.523556000" lon="-5.199856000">
        <ele>181.3</ele>
        <time>2020-10-12T10:39:11Z</time>
      </trkpt>
      <trkpt lat="37.523548000" lon="-5.199722000">
        <ele>181.2</ele>
        <time>2020-10-12T10:39:15Z</time>
      </trkpt>
      <trkpt lat="37.523541000" lon="-5.199614000">
        <ele>181.1</ele>
        <time>2020-10-12T10:39:18Z</time>
      </trkpt>
      <trkpt lat="37.523529000" lon="-5.199495000">
        <ele>180.9</ele>
        <time>2020-10-12T10:39:21Z</time>
      </trkpt>
      <trkpt lat="37.523523000" lon="-5.199392000">
        <ele>180.7</ele>
        <time>2020-10-12T10:39:24Z</time>
      </trkpt>
      <trkpt lat="37.523515000" lon="-5.199282000">
        <ele>180.6</ele>
        <time>2020-10-12T10:39:27Z</time>
      </trkpt>
      <trkpt lat="37.523504000" lon="-5.199152000">
        <ele>180.6</ele>
        <time>2020-10-12T10:39:31Z</time>
      </trkpt>
      <trkpt lat="37.523489000" lon="-5.199044000">
        <ele>180.6</ele>
        <time>2020-10-12T10:39:34Z</time>
      </trkpt>
      <trkpt lat="37.523479000" lon="-5.198932000">
        <ele>180.6</ele>
        <time>2020-10-12T10:39:37Z</time>
      </trkpt>
      <trkpt lat="37.523465000" lon="-5.198821000">
        <ele>180.6</ele>
        <time>2020-10-12T10:39:40Z</time>
      </trkpt>
      <trkpt lat="37.523451000" lon="-5.198720000">
        <ele>180.7</ele>
        <time>2020-10-12T10:39:43Z</time>
      </trkpt>
      <trkpt lat="37.523443000" lon="-5.198590000">
        <ele>180.8</ele>
        <time>2020-10-12T10:39:47Z</time>
      </trkpt>
      <trkpt lat="37.523429000" lon="-5.198470000">
        <ele>181.0</ele>
        <time>2020-10-12T10:39:51Z</time>
      </trkpt>
      <trkpt lat="37.523425000" lon="-5.198367000">
        <ele>181.2</ele>
        <time>2020-10-12T10:39:54Z</time>
      </trkpt>
      <trkpt lat="37.523421000" lon="-5.198255000">
        <ele>181.4</ele>
        <time>2020-10-12T10:39:57Z</time>
      </trkpt>
      <trkpt lat="37.523423000" lon="-5.198126000">
        <ele>181.5</ele>
        <time>2020-10-12T10:40:00Z</time>
      </trkpt>
      <trkpt lat="37.523419000" lon="-5.198003000">
        <ele>181.5</ele>
        <time>2020-10-12T10:40:03Z</time>
      </trkpt>
      <trkpt lat="37.523415000" lon="-5.197886000">
        <ele>181.3</ele>
        <time>2020-10-12T10:40:06Z</time>
      </trkpt>
      <trkpt lat="37.523410000" lon="-5.197772000">
        <ele>181.0</ele>
        <time>2020-10-12T10:40:09Z</time>
      </trkpt>
      <trkpt lat="37.523399000" lon="-5.197667000">
        <ele>180.6</ele>
        <time>2020-10-12T10:40:12Z</time>
      </trkpt>
      <trkpt lat="37.523394000" lon="-5.197558000">
        <ele>180.3</ele>
        <time>2020-10-12T10:40:15Z</time>
      </trkpt>
      <trkpt lat="37.523383000" lon="-5.197447000">
        <ele>179.9</ele>
        <time>2020-10-12T10:40:18Z</time>
      </trkpt>
      <trkpt lat="37.523374000" lon="-5.197343000">
        <ele>179.6</ele>
        <time>2020-10-12T10:40:21Z</time>
      </trkpt>
      <trkpt lat="37.523367000" lon="-5.197222000">
        <ele>179.4</ele>
        <time>2020-10-12T10:40:25Z</time>
      </trkpt>
      <trkpt lat="37.523363000" lon="-5.197092000">
        <ele>179.1</ele>
        <time>2020-10-12T10:40:29Z</time>
      </trkpt>
      <trkpt lat="37.523359000" lon="-5.196958000">
        <ele>179.0</ele>
        <time>2020-10-12T10:40:33Z</time>
      </trkpt>
      <trkpt lat="37.523365000" lon="-5.196826000">
        <ele>179.0</ele>
        <time>2020-10-12T10:40:37Z</time>
      </trkpt>
      <trkpt lat="37.523407000" lon="-5.196710000">
        <ele>178.9</ele>
        <time>2020-10-12T10:40:41Z</time>
      </trkpt>
      <trkpt lat="37.523467000" lon="-5.196617000">
        <ele>179.0</ele>
        <time>2020-10-12T10:40:45Z</time>
      </trkpt>
      <trkpt lat="37.523493000" lon="-5.196494000">
        <ele>179.1</ele>
        <time>2020-10-12T10:40:49Z</time>
      </trkpt>
      <trkpt lat="37.523503000" lon="-5.196384000">
        <ele>179.4</ele>
        <time>2020-10-12T10:40:52Z</time>
      </trkpt>
      <trkpt lat="37.523517000" lon="-5.196275000">
        <ele>179.7</ele>
        <time>2020-10-12T10:40:55Z</time>
      </trkpt>
      <trkpt lat="37.523527000" lon="-5.196159000">
        <ele>180.1</ele>
        <time>2020-10-12T10:40:58Z</time>
      </trkpt>
      <trkpt lat="37.523550000" lon="-5.196043000">
        <ele>180.4</ele>
        <time>2020-10-12T10:41:01Z</time>
      </trkpt>
      <trkpt lat="37.523569000" lon="-5.195927000">
        <ele>180.7</ele>
        <time>2020-10-12T10:41:04Z</time>
      </trkpt>
      <trkpt lat="37.523600000" lon="-5.195814000">
        <ele>181.1</ele>
        <time>2020-10-12T10:41:07Z</time>
      </trkpt>
      <trkpt lat="37.523637000" lon="-5.195707000">
        <ele>181.3</ele>
        <time>2020-10-12T10:41:10Z</time>
      </trkpt>
      <trkpt lat="37.523672000" lon="-5.195599000">
        <ele>181.5</ele>
        <time>2020-10-12T10:41:13Z</time>
      </trkpt>
      <trkpt lat="37.523712000" lon="-5.195497000">
        <ele>181.7</ele>
        <time>2020-10-12T10:41:16Z</time>
      </trkpt>
      <trkpt lat="37.523752000" lon="-5.195400000">
        <ele>181.9</ele>
        <time>2020-10-12T10:41:19Z</time>
      </trkpt>
      <trkpt lat="37.523796000" lon="-5.195295000">
        <ele>182.1</ele>
        <time>2020-10-12T10:41:22Z</time>
      </trkpt>
      <trkpt lat="37.523845000" lon="-5.195193000">
        <ele>182.2</ele>
        <time>2020-10-12T10:41:25Z</time>
      </trkpt>
      <trkpt lat="37.523885000" lon="-5.195091000">
        <ele>182.2</ele>
        <time>2020-10-12T10:41:28Z</time>
      </trkpt>
      <trkpt lat="37.523923000" lon="-5.194994000">
        <ele>182.2</ele>
        <time>2020-10-12T10:41:31Z</time>
      </trkpt>
      <trkpt lat="37.523949000" lon="-5.194897000">
        <ele>182.1</ele>
        <time>2020-10-12T10:41:34Z</time>
      </trkpt>
      <trkpt lat="37.523997000" lon="-5.194793000">
        <ele>182.0</ele>
        <time>2020-10-12T10:41:38Z</time>
      </trkpt>
      <trkpt lat="37.524027000" lon="-5.194688000">
        <ele>181.9</ele>
        <time>2020-10-12T10:41:42Z</time>
      </trkpt>
      <trkpt lat="37.524016000" lon="-5.194564000">
        <ele>182.0</ele>
        <time>2020-10-12T10:41:46Z</time>
      </trkpt>
      <trkpt lat="37.523958000" lon="-5.194473000">
        <ele>182.1</ele>
        <time>2020-10-12T10:41:49Z</time>
      </trkpt>
      <trkpt lat="37.523857000" lon="-5.194411000">
        <ele>182.2</ele>
        <time>2020-10-12T10:41:52Z</time>
      </trkpt>
      <trkpt lat="37.523781000" lon="-5.194372000">
        <ele>182.2</ele>
        <time>2020-10-12T10:41:54Z</time>
      </trkpt>
      <trkpt lat="37.523695000" lon="-5.194297000">
        <ele>182.1</ele>
        <time>2020-10-12T10:41:57Z</time>
      </trkpt>
      <trkpt lat="37.523641000" lon="-5.194218000">
        <ele>181.9</ele>
        <time>2020-10-12T10:41:59Z</time>
      </trkpt>
      <trkpt lat="37.523577000" lon="-5.194126000">
        <ele>181.6</ele>
        <time>2020-10-12T10:42:01Z</time>
      </trkpt>
      <trkpt lat="37.523517000" lon="-5.194034000">
        <ele>181.3</ele>
        <time>2020-10-12T10:42:03Z</time>
      </trkpt>
      <trkpt lat="37.523458000" lon="-5.193947000">
        <ele>181.0</ele>
        <time>2020-10-12T10:42:05Z</time>
      </trkpt>
      <trkpt lat="37.523413000" lon="-5.193850000">
        <ele>180.6</ele>
        <time>2020-10-12T10:42:07Z</time>
      </trkpt>
      <trkpt lat="37.523362000" lon="-5.193752000">
        <ele>180.4</ele>
        <time>2020-10-12T10:42:09Z</time>
      </trkpt>
      <trkpt lat="37.523308000" lon="-5.193660000">
        <ele>180.0</ele>
        <time>2020-10-12T10:42:11Z</time>
      </trkpt>
      <trkpt lat="37.523256000" lon="-5.193565000">
        <ele>179.6</ele>
        <time>2020-10-12T10:42:13Z</time>
      </trkpt>
      <trkpt lat="37.523205000" lon="-5.193480000">
        <ele>179.3</ele>
        <time>2020-10-12T10:42:15Z</time>
      </trkpt>
      <trkpt lat="37.523158000" lon="-5.193389000">
        <ele>179.0</ele>
        <time>2020-10-12T10:42:17Z</time>
      </trkpt>
      <trkpt lat="37.523099000" lon="-5.193255000">
        <ele>178.7</ele>
        <time>2020-10-12T10:42:20Z</time>
      </trkpt>
      <trkpt lat="37.523072000" lon="-5.193108000">
        <ele>178.6</ele>
        <time>2020-10-12T10:42:23Z</time>
      </trkpt>
      <trkpt lat="37.523076000" lon="-5.192968000">
        <ele>178.6</ele>
        <time>2020-10-12T10:42:26Z</time>
      </trkpt>
      <trkpt lat="37.523067000" lon="-5.192830000">
        <ele>178.8</ele>
        <time>2020-10-12T10:42:29Z</time>
      </trkpt>
      <trkpt lat="37.523048000" lon="-5.192697000">
        <ele>179.0</ele>
        <time>2020-10-12T10:42:32Z</time>
      </trkpt>
      <trkpt lat="37.523027000" lon="-5.192557000">
        <ele>179.2</ele>
        <time>2020-10-12T10:42:35Z</time>
      </trkpt>
      <trkpt lat="37.523007000" lon="-5.192411000">
        <ele>179.2</ele>
        <time>2020-10-12T10:42:38Z</time>
      </trkpt>
      <trkpt lat="37.522995000" lon="-5.192265000">
        <ele>179.3</ele>
        <time>2020-10-12T10:42:41Z</time>
      </trkpt>
      <trkpt lat="37.522979000" lon="-5.192124000">
        <ele>179.4</ele>
        <time>2020-10-12T10:42:44Z</time>
      </trkpt>
      <trkpt lat="37.522966000" lon="-5.191981000">
        <ele>179.5</ele>
        <time>2020-10-12T10:42:47Z</time>
      </trkpt>
      <trkpt lat="37.522953000" lon="-5.191831000">
        <ele>179.5</ele>
        <time>2020-10-12T10:42:50Z</time>
      </trkpt>
      <trkpt lat="37.522947000" lon="-5.191728000">
        <ele>179.8</ele>
        <time>2020-10-12T10:42:52Z</time>
      </trkpt>
      <trkpt lat="37.522936000" lon="-5.191587000">
        <ele>180.0</ele>
        <time>2020-10-12T10:42:55Z</time>
      </trkpt>
      <trkpt lat="37.522923000" lon="-5.191453000">
        <ele>180.2</ele>
        <time>2020-10-12T10:42:58Z</time>
      </trkpt>
      <trkpt lat="37.522908000" lon="-5.191313000">
        <ele>180.3</ele>
        <time>2020-10-12T10:43:01Z</time>
      </trkpt>
      <trkpt lat="37.522899000" lon="-5.191157000">
        <ele>180.3</ele>
        <time>2020-10-12T10:43:04Z</time>
      </trkpt>
      <trkpt lat="37.522898000" lon="-5.191047000">
        <ele>180.3</ele>
        <time>2020-10-12T10:43:06Z</time>
      </trkpt>
      <trkpt lat="37.522893000" lon="-5.190933000">
        <ele>180.4</ele>
        <time>2020-10-12T10:43:08Z</time>
      </trkpt>
      <trkpt lat="37.522885000" lon="-5.190815000">
        <ele>180.4</ele>
        <time>2020-10-12T10:43:10Z</time>
      </trkpt>
      <trkpt lat="37.522882000" lon="-5.190698000">
        <ele>180.4</ele>
        <time>2020-10-12T10:43:12Z</time>
      </trkpt>
      <trkpt lat="37.522881000" lon="-5.190582000">
        <ele>180.4</ele>
        <time>2020-10-12T10:43:14Z</time>
      </trkpt>
      <trkpt lat="37.522874000" lon="-5.190469000">
        <ele>180.4</ele>
        <time>2020-10-12T10:43:16Z</time>
      </trkpt>
      <trkpt lat="37.522873000" lon="-5.190351000">
        <ele>180.3</ele>
        <time>2020-10-12T10:43:18Z</time>
      </trkpt>
      <trkpt lat="37.522868000" lon="-5.190240000">
        <ele>180.2</ele>
        <time>2020-10-12T10:43:20Z</time>
      </trkpt>
      <trkpt lat="37.522862000" lon="-5.190132000">
        <ele>180.2</ele>
        <time>2020-10-12T10:43:22Z</time>
      </trkpt>
      <trkpt lat="37.522857000" lon="-5.190019000">
        <ele>180.2</ele>
        <time>2020-10-12T10:43:24Z</time>
      </trkpt>
      <trkpt lat="37.522854000" lon="-5.189906000">
        <ele>180.3</ele>
        <time>2020-10-12T10:43:26Z</time>
      </trkpt>
      <trkpt lat="37.522851000" lon="-5.189800000">
        <ele>180.4</ele>
        <time>2020-10-12T10:43:28Z</time>
      </trkpt>
      <trkpt lat="37.522849000" lon="-5.189692000">
        <ele>180.5</ele>
        <time>2020-10-12T10:43:30Z</time>
      </trkpt>
      <trkpt lat="37.522844000" lon="-5.189580000">
        <ele>180.7</ele>
        <time>2020-10-12T10:43:32Z</time>
      </trkpt>
      <trkpt lat="37.522839000" lon="-5.189474000">
        <ele>180.9</ele>
        <time>2020-10-12T10:43:34Z</time>
      </trkpt>
      <trkpt lat="37.522835000" lon="-5.189371000">
        <ele>181.0</ele>
        <time>2020-10-12T10:43:36Z</time>
      </trkpt>
      <trkpt lat="37.522834000" lon="-5.189238000">
        <ele>181.1</ele>
        <time>2020-10-12T10:43:39Z</time>
      </trkpt>
      <trkpt lat="37.522824000" lon="-5.189101000">
        <ele>181.2</ele>
        <time>2020-10-12T10:43:42Z</time>
      </trkpt>
      <trkpt lat="37.522812000" lon="-5.188961000">
        <ele>181.3</ele>
        <time>2020-10-12T10:43:45Z</time>
      </trkpt>
      <trkpt lat="37.522806000" lon="-5.188840000">
        <ele>181.3</ele>
        <time>2020-10-12T10:43:48Z</time>
      </trkpt>
      <trkpt lat="37.522798000" lon="-5.188715000">
        <ele>181.3</ele>
        <time>2020-10-12T10:43:51Z</time>
      </trkpt>
      <trkpt lat="37.522795000" lon="-5.188585000">
        <ele>181.2</ele>
        <time>2020-10-12T10:43:54Z</time>
      </trkpt>
      <trkpt lat="37.522790000" lon="-5.188452000">
        <ele>181.1</ele>
        <time>2020-10-12T10:43:57Z</time>
      </trkpt>
      <trkpt lat="37.522787000" lon="-5.188307000">
        <ele>180.9</ele>
        <time>2020-10-12T10:44:00Z</time>
      </trkpt>
      <trkpt lat="37.522781000" lon="-5.188160000">
        <ele>180.7</ele>
        <time>2020-10-12T10:44:03Z</time>
      </trkpt>
      <trkpt lat="37.522778000" lon="-5.188015000">
        <ele>180.5</ele>
        <time>2020-10-12T10:44:06Z</time>
      </trkpt>
      <trkpt lat="37.522776000" lon="-5.187875000">
        <ele>180.5</ele>
        <time>2020-10-12T10:44:09Z</time>
      </trkpt>
      <trkpt lat="37.522760000" lon="-5.187738000">
        <ele>180.5</ele>
        <time>2020-10-12T10:44:12Z</time>
      </trkpt>
      <trkpt lat="37.522747000" lon="-5.187592000">
        <ele>180.5</ele>
        <time>2020-10-12T10:44:15Z</time>
      </trkpt>
      <trkpt lat="37.522740000" lon="-5.187446000">
        <ele>180.5</ele>
        <time>2020-10-12T10:44:18Z</time>
      </trkpt>
      <trkpt lat="37.522738000" lon="-5.187304000">
        <ele>180.5</ele>
        <time>2020-10-12T10:44:21Z</time>
      </trkpt>
      <trkpt lat="37.522725000" lon="-5.187162000">
        <ele>180.5</ele>
        <time>2020-10-12T10:44:24Z</time>
      </trkpt>
      <trkpt lat="37.522712000" lon="-5.187015000">
        <ele>180.5</ele>
        <time>2020-10-12T10:44:27Z</time>
      </trkpt>
      <trkpt lat="37.522706000" lon="-5.186867000">
        <ele>180.6</ele>
        <time>2020-10-12T10:44:30Z</time>
      </trkpt>
      <trkpt lat="37.522698000" lon="-5.186718000">
        <ele>180.6</ele>
        <time>2020-10-12T10:44:33Z</time>
      </trkpt>
      <trkpt lat="37.522691000" lon="-5.186579000">
        <ele>180.6</ele>
        <time>2020-10-12T10:44:36Z</time>
      </trkpt>
      <trkpt lat="37.522688000" lon="-5.186447000">
        <ele>180.6</ele>
        <time>2020-10-12T10:44:39Z</time>
      </trkpt>
      <trkpt lat="37.522690000" lon="-5.186307000">
        <ele>180.6</ele>
        <time>2020-10-12T10:44:42Z</time>
      </trkpt>
      <trkpt lat="37.522684000" lon="-5.186159000">
        <ele>180.5</ele>
        <time>2020-10-12T10:44:45Z</time>
      </trkpt>
      <trkpt lat="37.522683000" lon="-5.186007000">
        <ele>180.3</ele>
        <time>2020-10-12T10:44:48Z</time>
      </trkpt>
      <trkpt lat="37.522680000" lon="-5.185858000">
        <ele>180.1</ele>
        <time>2020-10-12T10:44:51Z</time>
      </trkpt>
      <trkpt lat="37.522669000" lon="-5.185724000">
        <ele>179.9</ele>
        <time>2020-10-12T10:44:54Z</time>
      </trkpt>
      <trkpt lat="37.522644000" lon="-5.185579000">
        <ele>179.7</ele>
        <time>2020-10-12T10:44:57Z</time>
      </trkpt>
      <trkpt lat="37.522644000" lon="-5.185474000">
        <ele>179.7</ele>
        <time>2020-10-12T10:44:59Z</time>
      </trkpt>
      <trkpt lat="37.522645000" lon="-5.185331000">
        <ele>179.8</ele>
        <time>2020-10-12T10:45:02Z</time>
      </trkpt>
      <trkpt lat="37.522646000" lon="-5.185188000">
        <ele>180.1</ele>
        <time>2020-10-12T10:45:05Z</time>
      </trkpt>
      <trkpt lat="37.522637000" lon="-5.185078000">
        <ele>180.5</ele>
        <time>2020-10-12T10:45:07Z</time>
      </trkpt>
      <trkpt lat="37.522629000" lon="-5.184973000">
        <ele>180.7</ele>
        <time>2020-10-12T10:45:09Z</time>
      </trkpt>
      <trkpt lat="37.522619000" lon="-5.184832000">
        <ele>181.0</ele>
        <time>2020-10-12T10:45:12Z</time>
      </trkpt>
      <trkpt lat="37.522617000" lon="-5.184683000">
        <ele>181.4</ele>
        <time>2020-10-12T10:45:15Z</time>
      </trkpt>
      <trkpt lat="37.522611000" lon="-5.184556000">
        <ele>181.6</ele>
        <time>2020-10-12T10:45:17Z</time>
      </trkpt>
      <trkpt lat="37.522616000" lon="-5.184450000">
        <ele>181.8</ele>
        <time>2020-10-12T10:45:19Z</time>
      </trkpt>
      <trkpt lat="37.522617000" lon="-5.184344000">
        <ele>181.9</ele>
        <time>2020-10-12T10:45:21Z</time>
      </trkpt>
      <trkpt lat="37.522618000" lon="-5.184239000">
        <ele>182.0</ele>
        <time>2020-10-12T10:45:23Z</time>
      </trkpt>
      <trkpt lat="37.522614000" lon="-5.184130000">
        <ele>181.9</ele>
        <time>2020-10-12T10:45:25Z</time>
      </trkpt>
      <trkpt lat="37.522604000" lon="-5.184019000">
        <ele>181.7</ele>
        <time>2020-10-12T10:45:27Z</time>
      </trkpt>
      <trkpt lat="37.522596000" lon="-5.183908000">
        <ele>181.5</ele>
        <time>2020-10-12T10:45:29Z</time>
      </trkpt>
      <trkpt lat="37.522590000" lon="-5.183794000">
        <ele>181.0</ele>
        <time>2020-10-12T10:45:31Z</time>
      </trkpt>
      <trkpt lat="37.522584000" lon="-5.183678000">
        <ele>180.6</ele>
        <time>2020-10-12T10:45:33Z</time>
      </trkpt>
      <trkpt lat="37.522583000" lon="-5.183559000">
        <ele>180.3</ele>
        <time>2020-10-12T10:45:35Z</time>
      </trkpt>
      <trkpt lat="37.522586000" lon="-5.183454000">
        <ele>179.9</ele>
        <time>2020-10-12T10:45:37Z</time>
      </trkpt>
      <trkpt lat="37.522584000" lon="-5.183351000">
        <ele>179.6</ele>
        <time>2020-10-12T10:45:39Z</time>
      </trkpt>
      <trkpt lat="37.522577000" lon="-5.183247000">
        <ele>179.5</ele>
        <time>2020-10-12T10:45:41Z</time>
      </trkpt>
      <trkpt lat="37.522553000" lon="-5.183139000">
        <ele>179.4</ele>
        <time>2020-10-12T10:45:43Z</time>
      </trkpt>
      <trkpt lat="37.522546000" lon="-5.183024000">
        <ele>179.4</ele>
        <time>2020-10-12T10:45:45Z</time>
      </trkpt>
      <trkpt lat="37.522547000" lon="-5.182903000">
        <ele>179.4</ele>
        <time>2020-10-12T10:45:47Z</time>
      </trkpt>
      <trkpt lat="37.522555000" lon="-5.182786000">
        <ele>179.4</ele>
        <time>2020-10-12T10:45:49Z</time>
      </trkpt>
      <trkpt lat="37.522551000" lon="-5.182673000">
        <ele>179.4</ele>
        <time>2020-10-12T10:45:51Z</time>
      </trkpt>
      <trkpt lat="37.522545000" lon="-5.182558000">
        <ele>179.5</ele>
        <time>2020-10-12T10:45:53Z</time>
      </trkpt>
      <trkpt lat="37.522543000" lon="-5.182446000">
        <ele>179.5</ele>
        <time>2020-10-12T10:45:55Z</time>
      </trkpt>
      <trkpt lat="37.522540000" lon="-5.182337000">
        <ele>179.5</ele>
        <time>2020-10-12T10:45:57Z</time>
      </trkpt>
      <trkpt lat="37.522533000" lon="-5.182225000">
        <ele>179.5</ele>
        <time>2020-10-12T10:45:59Z</time>
      </trkpt>
      <trkpt lat="37.522526000" lon="-5.182109000">
        <ele>179.3</ele>
        <time>2020-10-12T10:46:01Z</time>
      </trkpt>
      <trkpt lat="37.522522000" lon="-5.181998000">
        <ele>179.0</ele>
        <time>2020-10-12T10:46:03Z</time>
      </trkpt>
      <trkpt lat="37.522507000" lon="-5.181888000">
        <ele>178.7</ele>
        <time>2020-10-12T10:46:05Z</time>
      </trkpt>
      <trkpt lat="37.522505000" lon="-5.181774000">
        <ele>178.5</ele>
        <time>2020-10-12T10:46:07Z</time>
      </trkpt>
      <trkpt lat="37.522504000" lon="-5.181662000">
        <ele>178.2</ele>
        <time>2020-10-12T10:46:09Z</time>
      </trkpt>
      <trkpt lat="37.522501000" lon="-5.181553000">
        <ele>177.9</ele>
        <time>2020-10-12T10:46:11Z</time>
      </trkpt>
      <trkpt lat="37.522499000" lon="-5.181446000">
        <ele>177.6</ele>
        <time>2020-10-12T10:46:13Z</time>
      </trkpt>
      <trkpt lat="37.522495000" lon="-5.181336000">
        <ele>177.4</ele>
        <time>2020-10-12T10:46:15Z</time>
      </trkpt>
      <trkpt lat="37.522489000" lon="-5.181219000">
        <ele>177.2</ele>
        <time>2020-10-12T10:46:17Z</time>
      </trkpt>
      <trkpt lat="37.522485000" lon="-5.181107000">
        <ele>177.1</ele>
        <time>2020-10-12T10:46:19Z</time>
      </trkpt>
      <trkpt lat="37.522479000" lon="-5.180993000">
        <ele>177.0</ele>
        <time>2020-10-12T10:46:21Z</time>
      </trkpt>
      <trkpt lat="37.522478000" lon="-5.180877000">
        <ele>177.0</ele>
        <time>2020-10-12T10:46:23Z</time>
      </trkpt>
      <trkpt lat="37.522472000" lon="-5.180760000">
        <ele>177.1</ele>
        <time>2020-10-12T10:46:25Z</time>
      </trkpt>
      <trkpt lat="37.522468000" lon="-5.180642000">
        <ele>177.1</ele>
        <time>2020-10-12T10:46:27Z</time>
      </trkpt>
      <trkpt lat="37.522468000" lon="-5.180530000">
        <ele>177.0</ele>
        <time>2020-10-12T10:46:29Z</time>
      </trkpt>
      <trkpt lat="37.522465000" lon="-5.180418000">
        <ele>176.9</ele>
        <time>2020-10-12T10:46:31Z</time>
      </trkpt>
      <trkpt lat="37.522459000" lon="-5.180307000">
        <ele>176.8</ele>
        <time>2020-10-12T10:46:33Z</time>
      </trkpt>
      <trkpt lat="37.522455000" lon="-5.180200000">
        <ele>176.8</ele>
        <time>2020-10-12T10:46:35Z</time>
      </trkpt>
      <trkpt lat="37.522448000" lon="-5.180055000">
        <ele>176.8</ele>
        <time>2020-10-12T10:46:38Z</time>
      </trkpt>
      <trkpt lat="37.522446000" lon="-5.179951000">
        <ele>176.8</ele>
        <time>2020-10-12T10:46:40Z</time>
      </trkpt>
      <trkpt lat="37.522440000" lon="-5.179799000">
        <ele>176.8</ele>
        <time>2020-10-12T10:46:43Z</time>
      </trkpt>
      <trkpt lat="37.522437000" lon="-5.179691000">
        <ele>176.9</ele>
        <time>2020-10-12T10:46:45Z</time>
      </trkpt>
      <trkpt lat="37.522432000" lon="-5.179586000">
        <ele>177.0</ele>
        <time>2020-10-12T10:46:47Z</time>
      </trkpt>
      <trkpt lat="37.522427000" lon="-5.179438000">
        <ele>177.1</ele>
        <time>2020-10-12T10:46:50Z</time>
      </trkpt>
      <trkpt lat="37.522428000" lon="-5.179284000">
        <ele>177.2</ele>
        <time>2020-10-12T10:46:53Z</time>
      </trkpt>
      <trkpt lat="37.522423000" lon="-5.179179000">
        <ele>177.3</ele>
        <time>2020-10-12T10:46:55Z</time>
      </trkpt>
      <trkpt lat="37.522414000" lon="-5.179073000">
        <ele>177.3</ele>
        <time>2020-10-12T10:46:57Z</time>
      </trkpt>
      <trkpt lat="37.522408000" lon="-5.178965000">
        <ele>177.3</ele>
        <time>2020-10-12T10:46:59Z</time>
      </trkpt>
      <trkpt lat="37.522401000" lon="-5.178861000">
        <ele>177.2</ele>
        <time>2020-10-12T10:47:01Z</time>
      </trkpt>
      <trkpt lat="37.522396000" lon="-5.178754000">
        <ele>177.2</ele>
        <time>2020-10-12T10:47:03Z</time>
      </trkpt>
      <trkpt lat="37.522391000" lon="-5.178645000">
        <ele>177.2</ele>
        <time>2020-10-12T10:47:05Z</time>
      </trkpt>
      <trkpt lat="37.522387000" lon="-5.178538000">
        <ele>177.2</ele>
        <time>2020-10-12T10:47:07Z</time>
      </trkpt>
      <trkpt lat="37.522378000" lon="-5.178436000">
        <ele>177.2</ele>
        <time>2020-10-12T10:47:09Z</time>
      </trkpt>
      <trkpt lat="37.522371000" lon="-5.178285000">
        <ele>177.2</ele>
        <time>2020-10-12T10:47:12Z</time>
      </trkpt>
      <trkpt lat="37.522366000" lon="-5.178137000">
        <ele>177.2</ele>
        <time>2020-10-12T10:47:15Z</time>
      </trkpt>
      <trkpt lat="37.522365000" lon="-5.177999000">
        <ele>177.3</ele>
        <time>2020-10-12T10:47:18Z</time>
      </trkpt>
      <trkpt lat="37.522358000" lon="-5.177876000">
        <ele>177.4</ele>
        <time>2020-10-12T10:47:21Z</time>
      </trkpt>
      <trkpt lat="37.522350000" lon="-5.177754000">
        <ele>177.5</ele>
        <time>2020-10-12T10:47:24Z</time>
      </trkpt>
      <trkpt lat="37.522346000" lon="-5.177625000">
        <ele>177.7</ele>
        <time>2020-10-12T10:47:27Z</time>
      </trkpt>
      <trkpt lat="37.522341000" lon="-5.177494000">
        <ele>177.8</ele>
        <time>2020-10-12T10:47:30Z</time>
      </trkpt>
      <trkpt lat="37.522332000" lon="-5.177372000">
        <ele>177.8</ele>
        <time>2020-10-12T10:47:33Z</time>
      </trkpt>
      <trkpt lat="37.522325000" lon="-5.177245000">
        <ele>177.7</ele>
        <time>2020-10-12T10:47:36Z</time>
      </trkpt>
      <trkpt lat="37.522314000" lon="-5.177121000">
        <ele>177.6</ele>
        <time>2020-10-12T10:47:39Z</time>
      </trkpt>
      <trkpt lat="37.522309000" lon="-5.176993000">
        <ele>177.5</ele>
        <time>2020-10-12T10:47:42Z</time>
      </trkpt>
      <trkpt lat="37.522306000" lon="-5.176867000">
        <ele>177.3</ele>
        <time>2020-10-12T10:47:45Z</time>
      </trkpt>
      <trkpt lat="37.522297000" lon="-5.176740000">
        <ele>177.1</ele>
        <time>2020-10-12T10:47:48Z</time>
      </trkpt>
      <trkpt lat="37.522290000" lon="-5.176611000">
        <ele>176.9</ele>
        <time>2020-10-12T10:47:51Z</time>
      </trkpt>
      <trkpt lat="37.522304000" lon="-5.176484000">
        <ele>176.7</ele>
        <time>2020-10-12T10:47:54Z</time>
      </trkpt>
      <trkpt lat="37.522300000" lon="-5.176355000">
        <ele>176.5</ele>
        <time>2020-10-12T10:47:57Z</time>
      </trkpt>
      <trkpt lat="37.522296000" lon="-5.176225000">
        <ele>176.4</ele>
        <time>2020-10-12T10:48:00Z</time>
      </trkpt>
      <trkpt lat="37.522289000" lon="-5.176091000">
        <ele>176.3</ele>
        <time>2020-10-12T10:48:03Z</time>
      </trkpt>
      <trkpt lat="37.522285000" lon="-5.175953000">
        <ele>176.2</ele>
        <time>2020-10-12T10:48:06Z</time>
      </trkpt>
      <trkpt lat="37.522275000" lon="-5.175803000">
        <ele>176.2</ele>
        <time>2020-10-12T10:48:09Z</time>
      </trkpt>
      <trkpt lat="37.522267000" lon="-5.175696000">
        <ele>176.3</ele>
        <time>2020-10-12T10:48:11Z</time>
      </trkpt>
      <trkpt lat="37.522262000" lon="-5.175593000">
        <ele>176.5</ele>
        <time>2020-10-12T10:48:13Z</time>
      </trkpt>
      <trkpt lat="37.522257000" lon="-5.175445000">
        <ele>176.6</ele>
        <time>2020-10-12T10:48:16Z</time>
      </trkpt>
      <trkpt lat="37.522252000" lon="-5.175300000">
        <ele>176.8</ele>
        <time>2020-10-12T10:48:19Z</time>
      </trkpt>
      <trkpt lat="37.522251000" lon="-5.175164000">
        <ele>177.0</ele>
        <time>2020-10-12T10:48:22Z</time>
      </trkpt>
      <trkpt lat="37.522243000" lon="-5.175034000">
        <ele>177.2</ele>
        <time>2020-10-12T10:48:25Z</time>
      </trkpt>
      <trkpt lat="37.522238000" lon="-5.174906000">
        <ele>177.5</ele>
        <time>2020-10-12T10:48:28Z</time>
      </trkpt>
      <trkpt lat="37.522237000" lon="-5.174787000">
        <ele>177.8</ele>
        <time>2020-10-12T10:48:31Z</time>
      </trkpt>
      <trkpt lat="37.522236000" lon="-5.174666000">
        <ele>178.2</ele>
        <time>2020-10-12T10:48:34Z</time>
      </trkpt>
      <trkpt lat="37.522231000" lon="-5.174563000">
        <ele>178.5</ele>
        <time>2020-10-12T10:48:37Z</time>
      </trkpt>
      <trkpt lat="37.522220000" lon="-5.174419000">
        <ele>178.8</ele>
        <time>2020-10-12T10:48:41Z</time>
      </trkpt>
      <trkpt lat="37.522211000" lon="-5.174275000">
        <ele>179.1</ele>
        <time>2020-10-12T10:48:44Z</time>
      </trkpt>
      <trkpt lat="37.522202000" lon="-5.174143000">
        <ele>179.4</ele>
        <time>2020-10-12T10:48:47Z</time>
      </trkpt>
      <trkpt lat="37.522199000" lon="-5.174015000">
        <ele>179.6</ele>
        <time>2020-10-12T10:48:50Z</time>
      </trkpt>
      <trkpt lat="37.522195000" lon="-5.173902000">
        <ele>179.9</ele>
        <time>2020-10-12T10:48:53Z</time>
      </trkpt>
      <trkpt lat="37.522194000" lon="-5.173795000">
        <ele>180.2</ele>
        <time>2020-10-12T10:48:56Z</time>
      </trkpt>
      <trkpt lat="37.522187000" lon="-5.173690000">
        <ele>180.5</ele>
        <time>2020-10-12T10:48:59Z</time>
      </trkpt>
      <trkpt lat="37.522179000" lon="-5.173579000">
        <ele>180.6</ele>
        <time>2020-10-12T10:49:02Z</time>
      </trkpt>
      <trkpt lat="37.522176000" lon="-5.173466000">
        <ele>180.7</ele>
        <time>2020-10-12T10:49:05Z</time>
      </trkpt>
      <trkpt lat="37.522172000" lon="-5.173348000">
        <ele>180.8</ele>
        <time>2020-10-12T10:49:08Z</time>
      </trkpt>
      <trkpt lat="37.522163000" lon="-5.173223000">
        <ele>180.9</ele>
        <time>2020-10-12T10:49:11Z</time>
      </trkpt>
      <trkpt lat="37.522155000" lon="-5.173107000">
        <ele>180.9</ele>
        <time>2020-10-12T10:49:14Z</time>
      </trkpt>
      <trkpt lat="37.522156000" lon="-5.172988000">
        <ele>180.8</ele>
        <time>2020-10-12T10:49:17Z</time>
      </trkpt>
      <trkpt lat="37.522150000" lon="-5.172868000">
        <ele>180.8</ele>
        <time>2020-10-12T10:49:20Z</time>
      </trkpt>
      <trkpt lat="37.522146000" lon="-5.172753000">
        <ele>180.8</ele>
        <time>2020-10-12T10:49:23Z</time>
      </trkpt>
      <trkpt lat="37.522145000" lon="-5.172631000">
        <ele>180.8</ele>
        <time>2020-10-12T10:49:26Z</time>
      </trkpt>
      <trkpt lat="37.522146000" lon="-5.172506000">
        <ele>180.9</ele>
        <time>2020-10-12T10:49:29Z</time>
      </trkpt>
      <trkpt lat="37.522137000" lon="-5.172389000">
        <ele>181.0</ele>
        <time>2020-10-12T10:49:32Z</time>
      </trkpt>
      <trkpt lat="37.522127000" lon="-5.172275000">
        <ele>181.2</ele>
        <time>2020-10-12T10:49:35Z</time>
      </trkpt>
      <trkpt lat="37.522124000" lon="-5.172165000">
        <ele>181.4</ele>
        <time>2020-10-12T10:49:38Z</time>
      </trkpt>
      <trkpt lat="37.522121000" lon="-5.172063000">
        <ele>181.6</ele>
        <time>2020-10-12T10:49:41Z</time>
      </trkpt>
      <trkpt lat="37.522116000" lon="-5.171959000">
        <ele>181.9</ele>
        <time>2020-10-12T10:49:44Z</time>
      </trkpt>
      <trkpt lat="37.522116000" lon="-5.171848000">
        <ele>182.3</ele>
        <time>2020-10-12T10:49:47Z</time>
      </trkpt>
      <trkpt lat="37.522113000" lon="-5.171725000">
        <ele>182.7</ele>
        <time>2020-10-12T10:49:50Z</time>
      </trkpt>
      <trkpt lat="37.522106000" lon="-5.171590000">
        <ele>183.1</ele>
        <time>2020-10-12T10:49:53Z</time>
      </trkpt>
      <trkpt lat="37.522103000" lon="-5.171455000">
        <ele>183.5</ele>
        <time>2020-10-12T10:49:56Z</time>
      </trkpt>
      <trkpt lat="37.522093000" lon="-5.171324000">
        <ele>183.8</ele>
        <time>2020-10-12T10:49:59Z</time>
      </trkpt>
      <trkpt lat="37.522090000" lon="-5.171189000">
        <ele>184.2</ele>
        <time>2020-10-12T10:50:02Z</time>
      </trkpt>
      <trkpt lat="37.522081000" lon="-5.171054000">
        <ele>184.5</ele>
        <time>2020-10-12T10:50:05Z</time>
      </trkpt>
      <trkpt lat="37.522071000" lon="-5.170919000">
        <ele>184.9</ele>
        <time>2020-10-12T10:50:08Z</time>
      </trkpt>
      <trkpt lat="37.522063000" lon="-5.170787000">
        <ele>185.3</ele>
        <time>2020-10-12T10:50:11Z</time>
      </trkpt>
      <trkpt lat="37.522052000" lon="-5.170662000">
        <ele>185.5</ele>
        <time>2020-10-12T10:50:14Z</time>
      </trkpt>
      <trkpt lat="37.522050000" lon="-5.170540000">
        <ele>185.8</ele>
        <time>2020-10-12T10:50:17Z</time>
      </trkpt>
      <trkpt lat="37.522046000" lon="-5.170411000">
        <ele>186.1</ele>
        <time>2020-10-12T10:50:20Z</time>
      </trkpt>
      <trkpt lat="37.522041000" lon="-5.170280000">
        <ele>186.3</ele>
        <time>2020-10-12T10:50:23Z</time>
      </trkpt>
      <trkpt lat="37.522040000" lon="-5.170157000">
        <ele>186.4</ele>
        <time>2020-10-12T10:50:26Z</time>
      </trkpt>
      <trkpt lat="37.522029000" lon="-5.170037000">
        <ele>186.5</ele>
        <time>2020-10-12T10:50:29Z</time>
      </trkpt>
      <trkpt lat="37.522025000" lon="-5.169908000">
        <ele>186.5</ele>
        <time>2020-10-12T10:50:32Z</time>
      </trkpt>
      <trkpt lat="37.522018000" lon="-5.169797000">
        <ele>186.5</ele>
        <time>2020-10-12T10:50:35Z</time>
      </trkpt>
      <trkpt lat="37.522012000" lon="-5.169688000">
        <ele>186.4</ele>
        <time>2020-10-12T10:50:38Z</time>
      </trkpt>
      <trkpt lat="37.522012000" lon="-5.169575000">
        <ele>186.1</ele>
        <time>2020-10-12T10:50:41Z</time>
      </trkpt>
      <trkpt lat="37.522005000" lon="-5.169473000">
        <ele>185.8</ele>
        <time>2020-10-12T10:50:44Z</time>
      </trkpt>
      <trkpt lat="37.521995000" lon="-5.169367000">
        <ele>185.6</ele>
        <time>2020-10-12T10:50:47Z</time>
      </trkpt>
      <trkpt lat="37.521991000" lon="-5.169259000">
        <ele>185.5</ele>
        <time>2020-10-12T10:50:50Z</time>
      </trkpt>
      <trkpt lat="37.521989000" lon="-5.169123000">
        <ele>185.3</ele>
        <time>2020-10-12T10:50:54Z</time>
      </trkpt>
      <trkpt lat="37.521980000" lon="-5.169004000">
        <ele>185.2</ele>
        <time>2020-10-12T10:50:57Z</time>
      </trkpt>
      <trkpt lat="37.521968000" lon="-5.168872000">
        <ele>185.2</ele>
        <time>2020-10-12T10:51:00Z</time>
      </trkpt>
      <trkpt lat="37.521965000" lon="-5.168749000">
        <ele>185.1</ele>
        <time>2020-10-12T10:51:03Z</time>
      </trkpt>
      <trkpt lat="37.521960000" lon="-5.168626000">
        <ele>185.0</ele>
        <time>2020-10-12T10:51:06Z</time>
      </trkpt>
      <trkpt lat="37.521970000" lon="-5.168518000">
        <ele>184.9</ele>
        <time>2020-10-12T10:51:09Z</time>
      </trkpt>
      <trkpt lat="37.521938000" lon="-5.168384000">
        <ele>184.8</ele>
        <time>2020-10-12T10:51:13Z</time>
      </trkpt>
      <trkpt lat="37.521935000" lon="-5.168249000">
        <ele>184.8</ele>
        <time>2020-10-12T10:51:16Z</time>
      </trkpt>
      <trkpt lat="37.521930000" lon="-5.168113000">
        <ele>184.8</ele>
        <time>2020-10-12T10:51:19Z</time>
      </trkpt>
      <trkpt lat="37.521919000" lon="-5.167985000">
        <ele>184.8</ele>
        <time>2020-10-12T10:51:22Z</time>
      </trkpt>
      <trkpt lat="37.521915000" lon="-5.167859000">
        <ele>184.8</ele>
        <time>2020-10-12T10:51:25Z</time>
      </trkpt>
      <trkpt lat="37.521918000" lon="-5.167734000">
        <ele>184.9</ele>
        <time>2020-10-12T10:51:28Z</time>
      </trkpt>
      <trkpt lat="37.521913000" lon="-5.167608000">
        <ele>185.0</ele>
        <time>2020-10-12T10:51:31Z</time>
      </trkpt>
      <trkpt lat="37.521907000" lon="-5.167484000">
        <ele>185.2</ele>
        <time>2020-10-12T10:51:34Z</time>
      </trkpt>
      <trkpt lat="37.521907000" lon="-5.167355000">
        <ele>185.5</ele>
        <time>2020-10-12T10:51:37Z</time>
      </trkpt>
      <trkpt lat="37.521901000" lon="-5.167219000">
        <ele>185.6</ele>
        <time>2020-10-12T10:51:40Z</time>
      </trkpt>
      <trkpt lat="37.521894000" lon="-5.167080000">
        <ele>185.9</ele>
        <time>2020-10-12T10:51:43Z</time>
      </trkpt>
      <trkpt lat="37.521884000" lon="-5.166941000">
        <ele>186.1</ele>
        <time>2020-10-12T10:51:46Z</time>
      </trkpt>
      <trkpt lat="37.521870000" lon="-5.166803000">
        <ele>186.3</ele>
        <time>2020-10-12T10:51:49Z</time>
      </trkpt>
      <trkpt lat="37.521866000" lon="-5.166664000">
        <ele>186.5</ele>
        <time>2020-10-12T10:51:52Z</time>
      </trkpt>
      <trkpt lat="37.521856000" lon="-5.166526000">
        <ele>186.6</ele>
        <time>2020-10-12T10:51:55Z</time>
      </trkpt>
      <trkpt lat="37.521852000" lon="-5.166390000">
        <ele>186.8</ele>
        <time>2020-10-12T10:51:58Z</time>
      </trkpt>
      <trkpt lat="37.521848000" lon="-5.166256000">
        <ele>186.9</ele>
        <time>2020-10-12T10:52:01Z</time>
      </trkpt>
      <trkpt lat="37.521852000" lon="-5.166118000">
        <ele>186.9</ele>
        <time>2020-10-12T10:52:04Z</time>
      </trkpt>
      <trkpt lat="37.521846000" lon="-5.165978000">
        <ele>186.8</ele>
        <time>2020-10-12T10:52:07Z</time>
      </trkpt>
      <trkpt lat="37.521837000" lon="-5.165833000">
        <ele>186.8</ele>
        <time>2020-10-12T10:52:10Z</time>
      </trkpt>
      <trkpt lat="37.521836000" lon="-5.165687000">
        <ele>186.9</ele>
        <time>2020-10-12T10:52:13Z</time>
      </trkpt>
      <trkpt lat="37.521837000" lon="-5.165544000">
        <ele>187.0</ele>
        <time>2020-10-12T10:52:16Z</time>
      </trkpt>
      <trkpt lat="37.521823000" lon="-5.165412000">
        <ele>187.1</ele>
        <time>2020-10-12T10:52:19Z</time>
      </trkpt>
      <trkpt lat="37.521819000" lon="-5.165279000">
        <ele>187.2</ele>
        <time>2020-10-12T10:52:22Z</time>
      </trkpt>
      <trkpt lat="37.521821000" lon="-5.165145000">
        <ele>187.3</ele>
        <time>2020-10-12T10:52:25Z</time>
      </trkpt>
      <trkpt lat="37.521812000" lon="-5.165018000">
        <ele>187.3</ele>
        <time>2020-10-12T10:52:28Z</time>
      </trkpt>
      <trkpt lat="37.521802000" lon="-5.164892000">
        <ele>187.3</ele>
        <time>2020-10-12T10:52:31Z</time>
      </trkpt>
      <trkpt lat="37.521803000" lon="-5.164761000">
        <ele>187.3</ele>
        <time>2020-10-12T10:52:34Z</time>
      </trkpt>
      <trkpt lat="37.521802000" lon="-5.164635000">
        <ele>187.3</ele>
        <time>2020-10-12T10:52:37Z</time>
      </trkpt>
      <trkpt lat="37.521810000" lon="-5.164508000">
        <ele>187.4</ele>
        <time>2020-10-12T10:52:40Z</time>
      </trkpt>
      <trkpt lat="37.521817000" lon="-5.164380000">
        <ele>187.4</ele>
        <time>2020-10-12T10:52:43Z</time>
      </trkpt>
      <trkpt lat="37.521838000" lon="-5.164264000">
        <ele>187.3</ele>
        <time>2020-10-12T10:52:46Z</time>
      </trkpt>
      <trkpt lat="37.521860000" lon="-5.164137000">
        <ele>187.1</ele>
        <time>2020-10-12T10:52:49Z</time>
      </trkpt>
      <trkpt lat="37.521875000" lon="-5.164017000">
        <ele>186.9</ele>
        <time>2020-10-12T10:52:52Z</time>
      </trkpt>
      <trkpt lat="37.521896000" lon="-5.163892000">
        <ele>186.6</ele>
        <time>2020-10-12T10:52:55Z</time>
      </trkpt>
      <trkpt lat="37.521922000" lon="-5.163777000">
        <ele>186.4</ele>
        <time>2020-10-12T10:52:58Z</time>
      </trkpt>
      <trkpt lat="37.521949000" lon="-5.163657000">
        <ele>186.1</ele>
        <time>2020-10-12T10:53:01Z</time>
      </trkpt>
      <trkpt lat="37.521971000" lon="-5.163533000">
        <ele>185.9</ele>
        <time>2020-10-12T10:53:04Z</time>
      </trkpt>
      <trkpt lat="37.521993000" lon="-5.163411000">
        <ele>185.8</ele>
        <time>2020-10-12T10:53:07Z</time>
      </trkpt>
      <trkpt lat="37.522013000" lon="-5.163287000">
        <ele>185.8</ele>
        <time>2020-10-12T10:53:10Z</time>
      </trkpt>
      <trkpt lat="37.522035000" lon="-5.163156000">
        <ele>185.8</ele>
        <time>2020-10-12T10:53:13Z</time>
      </trkpt>
      <trkpt lat="37.522050000" lon="-5.163024000">
        <ele>185.8</ele>
        <time>2020-10-12T10:53:16Z</time>
      </trkpt>
      <trkpt lat="37.522070000" lon="-5.162888000">
        <ele>185.8</ele>
        <time>2020-10-12T10:53:19Z</time>
      </trkpt>
      <trkpt lat="37.522110000" lon="-5.162742000">
        <ele>185.9</ele>
        <time>2020-10-12T10:53:22Z</time>
      </trkpt>
      <trkpt lat="37.522138000" lon="-5.162642000">
        <ele>186.0</ele>
        <time>2020-10-12T10:53:24Z</time>
      </trkpt>
      <trkpt lat="37.522180000" lon="-5.162505000">
        <ele>186.2</ele>
        <time>2020-10-12T10:53:27Z</time>
      </trkpt>
      <trkpt lat="37.522213000" lon="-5.162378000">
        <ele>186.3</ele>
        <time>2020-10-12T10:53:30Z</time>
      </trkpt>
      <trkpt lat="37.522240000" lon="-5.162250000">
        <ele>186.4</ele>
        <time>2020-10-12T10:53:33Z</time>
      </trkpt>
      <trkpt lat="37.522269000" lon="-5.162129000">
        <ele>186.5</ele>
        <time>2020-10-12T10:53:36Z</time>
      </trkpt>
      <trkpt lat="37.522306000" lon="-5.162025000">
        <ele>186.5</ele>
        <time>2020-10-12T10:53:39Z</time>
      </trkpt>
      <trkpt lat="37.522343000" lon="-5.161898000">
        <ele>186.5</ele>
        <time>2020-10-12T10:53:42Z</time>
      </trkpt>
      <trkpt lat="37.522385000" lon="-5.161765000">
        <ele>186.5</ele>
        <time>2020-10-12T10:53:45Z</time>
      </trkpt>
      <trkpt lat="37.522420000" lon="-5.161648000">
        <ele>186.5</ele>
        <time>2020-10-12T10:53:48Z</time>
      </trkpt>
      <trkpt lat="37.522460000" lon="-5.161536000">
        <ele>186.8</ele>
        <time>2020-10-12T10:53:51Z</time>
      </trkpt>
      <trkpt lat="37.522500000" lon="-5.161430000">
        <ele>187.2</ele>
        <time>2020-10-12T10:53:54Z</time>
      </trkpt>
      <trkpt lat="37.522533000" lon="-5.161328000">
        <ele>187.7</ele>
        <time>2020-10-12T10:53:57Z</time>
      </trkpt>
      <trkpt lat="37.522580000" lon="-5.161218000">
        <ele>188.3</ele>
        <time>2020-10-12T10:54:00Z</time>
      </trkpt>
      <trkpt lat="37.522623000" lon="-5.161106000">
        <ele>188.9</ele>
        <time>2020-10-12T10:54:03Z</time>
      </trkpt>
      <trkpt lat="37.522669000" lon="-5.160997000">
        <ele>189.5</ele>
        <time>2020-10-12T10:54:07Z</time>
      </trkpt>
      <trkpt lat="37.522717000" lon="-5.160878000">
        <ele>190.0</ele>
        <time>2020-10-12T10:54:11Z</time>
      </trkpt>
      <trkpt lat="37.522765000" lon="-5.160772000">
        <ele>190.5</ele>
        <time>2020-10-12T10:54:14Z</time>
      </trkpt>
      <trkpt lat="37.522811000" lon="-5.160680000">
        <ele>190.7</ele>
        <time>2020-10-12T10:54:17Z</time>
      </trkpt>
      <trkpt lat="37.522853000" lon="-5.160563000">
        <ele>190.9</ele>
        <time>2020-10-12T10:54:21Z</time>
      </trkpt>
      <trkpt lat="37.522891000" lon="-5.160472000">
        <ele>191.0</ele>
        <time>2020-10-12T10:54:24Z</time>
      </trkpt>
      <trkpt lat="37.522929000" lon="-5.160380000">
        <ele>190.9</ele>
        <time>2020-10-12T10:54:27Z</time>
      </trkpt>
      <trkpt lat="37.522972000" lon="-5.160283000">
        <ele>190.7</ele>
        <time>2020-10-12T10:54:30Z</time>
      </trkpt>
      <trkpt lat="37.523020000" lon="-5.160173000">
        <ele>190.4</ele>
        <time>2020-10-12T10:54:33Z</time>
      </trkpt>
      <trkpt lat="37.523059000" lon="-5.160068000">
        <ele>190.0</ele>
        <time>2020-10-12T10:54:36Z</time>
      </trkpt>
      <trkpt lat="37.523100000" lon="-5.159969000">
        <ele>189.5</ele>
        <time>2020-10-12T10:54:39Z</time>
      </trkpt>
      <trkpt lat="37.523143000" lon="-5.159867000">
        <ele>189.1</ele>
        <time>2020-10-12T10:54:42Z</time>
      </trkpt>
      <trkpt lat="37.523187000" lon="-5.159771000">
        <ele>188.6</ele>
        <time>2020-10-12T10:54:45Z</time>
      </trkpt>
      <trkpt lat="37.523236000" lon="-5.159676000">
        <ele>188.2</ele>
        <time>2020-10-12T10:54:48Z</time>
      </trkpt>
      <trkpt lat="37.523278000" lon="-5.159568000">
        <ele>187.8</ele>
        <time>2020-10-12T10:54:51Z</time>
      </trkpt>
      <trkpt lat="37.523327000" lon="-5.159472000">
        <ele>187.5</ele>
        <time>2020-10-12T10:54:54Z</time>
      </trkpt>
      <trkpt lat="37.523364000" lon="-5.159371000">
        <ele>187.3</ele>
        <time>2020-10-12T10:54:57Z</time>
      </trkpt>
      <trkpt lat="37.523400000" lon="-5.159270000">
        <ele>187.1</ele>
        <time>2020-10-12T10:55:00Z</time>
      </trkpt>
      <trkpt lat="37.523439000" lon="-5.159164000">
        <ele>187.0</ele>
        <time>2020-10-12T10:55:03Z</time>
      </trkpt>
      <trkpt lat="37.523478000" lon="-5.159063000">
        <ele>187.0</ele>
        <time>2020-10-12T10:55:06Z</time>
      </trkpt>
      <trkpt lat="37.523518000" lon="-5.158962000">
        <ele>186.9</ele>
        <time>2020-10-12T10:55:09Z</time>
      </trkpt>
      <trkpt lat="37.523564000" lon="-5.158869000">
        <ele>186.9</ele>
        <time>2020-10-12T10:55:12Z</time>
      </trkpt>
      <trkpt lat="37.523603000" lon="-5.158776000">
        <ele>186.9</ele>
        <time>2020-10-12T10:55:15Z</time>
      </trkpt>
      <trkpt lat="37.523645000" lon="-5.158685000">
        <ele>187.0</ele>
        <time>2020-10-12T10:55:18Z</time>
      </trkpt>
      <trkpt lat="37.523702000" lon="-5.158572000">
        <ele>187.0</ele>
        <time>2020-10-12T10:55:22Z</time>
      </trkpt>
      <trkpt lat="37.523751000" lon="-5.158463000">
        <ele>187.0</ele>
        <time>2020-10-12T10:55:26Z</time>
      </trkpt>
      <trkpt lat="37.523781000" lon="-5.158352000">
        <ele>187.0</ele>
        <time>2020-10-12T10:55:31Z</time>
      </trkpt>
      <trkpt lat="37.523754000" lon="-5.158238000">
        <ele>187.0</ele>
        <time>2020-10-12T10:55:36Z</time>
      </trkpt>
      <trkpt lat="37.523815000" lon="-5.158146000">
        <ele>187.0</ele>
        <time>2020-10-12T10:55:40Z</time>
      </trkpt>
      <trkpt lat="37.523898000" lon="-5.158089000">
        <ele>186.9</ele>
        <time>2020-10-12T10:55:44Z</time>
      </trkpt>
      <trkpt lat="37.523940000" lon="-5.158076000">
        <ele>186.7</ele>
        <time>2020-10-12T10:56:11Z</time>
      </trkpt>
      <trkpt lat="37.524023000" lon="-5.157727000">
        <ele>188.5</ele>
        <time>2020-10-12T11:02:38Z</time>
      </trkpt>
      <trkpt lat="37.524068000" lon="-5.157647000">
        <ele>188.7</ele>
        <time>2020-10-12T11:02:41Z</time>
      </trkpt>
      <trkpt lat="37.524115000" lon="-5.157528000">
        <ele>188.9</ele>
        <time>2020-10-12T11:02:45Z</time>
      </trkpt>
      <trkpt lat="37.524156000" lon="-5.157427000">
        <ele>189.0</ele>
        <time>2020-10-12T11:02:48Z</time>
      </trkpt>
      <trkpt lat="37.524204000" lon="-5.157323000">
        <ele>189.1</ele>
        <time>2020-10-12T11:02:51Z</time>
      </trkpt>
      <trkpt lat="37.524252000" lon="-5.157212000">
        <ele>189.1</ele>
        <time>2020-10-12T11:02:54Z</time>
      </trkpt>
      <trkpt lat="37.524307000" lon="-5.157099000">
        <ele>189.2</ele>
        <time>2020-10-12T11:02:57Z</time>
      </trkpt>
      <trkpt lat="37.524359000" lon="-5.156982000">
        <ele>189.1</ele>
        <time>2020-10-12T11:03:00Z</time>
      </trkpt>
      <trkpt lat="37.524408000" lon="-5.156859000">
        <ele>188.8</ele>
        <time>2020-10-12T11:03:03Z</time>
      </trkpt>
      <trkpt lat="37.524461000" lon="-5.156736000">
        <ele>188.5</ele>
        <time>2020-10-12T11:03:06Z</time>
      </trkpt>
      <trkpt lat="37.524511000" lon="-5.156612000">
        <ele>188.3</ele>
        <time>2020-10-12T11:03:09Z</time>
      </trkpt>
      <trkpt lat="37.524556000" lon="-5.156492000">
        <ele>188.0</ele>
        <time>2020-10-12T11:03:12Z</time>
      </trkpt>
      <trkpt lat="37.524604000" lon="-5.156368000">
        <ele>187.7</ele>
        <time>2020-10-12T11:03:15Z</time>
      </trkpt>
      <trkpt lat="37.524660000" lon="-5.156246000">
        <ele>187.5</ele>
        <time>2020-10-12T11:03:18Z</time>
      </trkpt>
      <trkpt lat="37.524708000" lon="-5.156123000">
        <ele>187.2</ele>
        <time>2020-10-12T11:03:21Z</time>
      </trkpt>
      <trkpt lat="37.524761000" lon="-5.156003000">
        <ele>186.9</ele>
        <time>2020-10-12T11:03:24Z</time>
      </trkpt>
      <trkpt lat="37.524818000" lon="-5.155882000">
        <ele>186.7</ele>
        <time>2020-10-12T11:03:27Z</time>
      </trkpt>
      <trkpt lat="37.524873000" lon="-5.155756000">
        <ele>186.6</ele>
        <time>2020-10-12T11:03:30Z</time>
      </trkpt>
      <trkpt lat="37.524928000" lon="-5.155631000">
        <ele>186.7</ele>
        <time>2020-10-12T11:03:33Z</time>
      </trkpt>
      <trkpt lat="37.524985000" lon="-5.155500000">
        <ele>186.9</ele>
        <time>2020-10-12T11:03:36Z</time>
      </trkpt>
      <trkpt lat="37.525043000" lon="-5.155370000">
        <ele>187.1</ele>
        <time>2020-10-12T11:03:39Z</time>
      </trkpt>
      <trkpt lat="37.525096000" lon="-5.155236000">
        <ele>187.3</ele>
        <time>2020-10-12T11:03:42Z</time>
      </trkpt>
      <trkpt lat="37.525137000" lon="-5.155145000">
        <ele>187.5</ele>
        <time>2020-10-12T11:03:44Z</time>
      </trkpt>
      <trkpt lat="37.525179000" lon="-5.155055000">
        <ele>187.5</ele>
        <time>2020-10-12T11:03:46Z</time>
      </trkpt>
      <trkpt lat="37.525218000" lon="-5.154963000">
        <ele>187.6</ele>
        <time>2020-10-12T11:03:48Z</time>
      </trkpt>
      <trkpt lat="37.525257000" lon="-5.154870000">
        <ele>187.7</ele>
        <time>2020-10-12T11:03:50Z</time>
      </trkpt>
      <trkpt lat="37.525300000" lon="-5.154778000">
        <ele>187.7</ele>
        <time>2020-10-12T11:03:52Z</time>
      </trkpt>
      <trkpt lat="37.525344000" lon="-5.154689000">
        <ele>187.7</ele>
        <time>2020-10-12T11:03:54Z</time>
      </trkpt>
      <trkpt lat="37.525400000" lon="-5.154556000">
        <ele>187.7</ele>
        <time>2020-10-12T11:03:57Z</time>
      </trkpt>
      <trkpt lat="37.525438000" lon="-5.154458000">
        <ele>187.5</ele>
        <time>2020-10-12T11:03:59Z</time>
      </trkpt>
      <trkpt lat="37.525478000" lon="-5.154352000">
        <ele>187.4</ele>
        <time>2020-10-12T11:04:01Z</time>
      </trkpt>
      <trkpt lat="37.525521000" lon="-5.154252000">
        <ele>187.2</ele>
        <time>2020-10-12T11:04:03Z</time>
      </trkpt>
      <trkpt lat="37.525564000" lon="-5.154156000">
        <ele>186.9</ele>
        <time>2020-10-12T11:04:05Z</time>
      </trkpt>
      <trkpt lat="37.525604000" lon="-5.154056000">
        <ele>186.6</ele>
        <time>2020-10-12T11:04:07Z</time>
      </trkpt>
      <trkpt lat="37.525645000" lon="-5.153949000">
        <ele>186.3</ele>
        <time>2020-10-12T11:04:09Z</time>
      </trkpt>
      <trkpt lat="37.525691000" lon="-5.153851000">
        <ele>185.9</ele>
        <time>2020-10-12T11:04:11Z</time>
      </trkpt>
      <trkpt lat="37.525731000" lon="-5.153758000">
        <ele>185.5</ele>
        <time>2020-10-12T11:04:13Z</time>
      </trkpt>
      <trkpt lat="37.525776000" lon="-5.153667000">
        <ele>185.1</ele>
        <time>2020-10-12T11:04:15Z</time>
      </trkpt>
      <trkpt lat="37.525813000" lon="-5.153572000">
        <ele>184.8</ele>
        <time>2020-10-12T11:04:17Z</time>
      </trkpt>
      <trkpt lat="37.525856000" lon="-5.153479000">
        <ele>184.5</ele>
        <time>2020-10-12T11:04:19Z</time>
      </trkpt>
      <trkpt lat="37.525898000" lon="-5.153385000">
        <ele>184.4</ele>
        <time>2020-10-12T11:04:21Z</time>
      </trkpt>
      <trkpt lat="37.525950000" lon="-5.153253000">
        <ele>184.2</ele>
        <time>2020-10-12T11:04:24Z</time>
      </trkpt>
      <trkpt lat="37.526007000" lon="-5.153117000">
        <ele>184.1</ele>
        <time>2020-10-12T11:04:27Z</time>
      </trkpt>
      <trkpt lat="37.526046000" lon="-5.153024000">
        <ele>184.1</ele>
        <time>2020-10-12T11:04:29Z</time>
      </trkpt>
      <trkpt lat="37.526088000" lon="-5.152927000">
        <ele>184.1</ele>
        <time>2020-10-12T11:04:31Z</time>
      </trkpt>
      <trkpt lat="37.526129000" lon="-5.152828000">
        <ele>184.2</ele>
        <time>2020-10-12T11:04:33Z</time>
      </trkpt>
      <trkpt lat="37.526175000" lon="-5.152724000">
        <ele>184.3</ele>
        <time>2020-10-12T11:04:35Z</time>
      </trkpt>
      <trkpt lat="37.526221000" lon="-5.152622000">
        <ele>184.5</ele>
        <time>2020-10-12T11:04:37Z</time>
      </trkpt>
      <trkpt lat="37.526263000" lon="-5.152522000">
        <ele>184.6</ele>
        <time>2020-10-12T11:04:39Z</time>
      </trkpt>
      <trkpt lat="37.526302000" lon="-5.152426000">
        <ele>184.6</ele>
        <time>2020-10-12T11:04:41Z</time>
      </trkpt>
      <trkpt lat="37.526342000" lon="-5.152330000">
        <ele>184.7</ele>
        <time>2020-10-12T11:04:43Z</time>
      </trkpt>
      <trkpt lat="37.526383000" lon="-5.152237000">
        <ele>184.8</ele>
        <time>2020-10-12T11:04:45Z</time>
      </trkpt>
      <trkpt lat="37.526421000" lon="-5.152141000">
        <ele>184.9</ele>
        <time>2020-10-12T11:04:47Z</time>
      </trkpt>
      <trkpt lat="37.526463000" lon="-5.152043000">
        <ele>184.9</ele>
        <time>2020-10-12T11:04:49Z</time>
      </trkpt>
      <trkpt lat="37.526506000" lon="-5.151946000">
        <ele>184.9</ele>
        <time>2020-10-12T11:04:51Z</time>
      </trkpt>
      <trkpt lat="37.526542000" lon="-5.151843000">
        <ele>184.9</ele>
        <time>2020-10-12T11:04:53Z</time>
      </trkpt>
      <trkpt lat="37.526584000" lon="-5.151746000">
        <ele>185.0</ele>
        <time>2020-10-12T11:04:55Z</time>
      </trkpt>
      <trkpt lat="37.526628000" lon="-5.151647000">
        <ele>185.1</ele>
        <time>2020-10-12T11:04:57Z</time>
      </trkpt>
      <trkpt lat="37.526671000" lon="-5.151541000">
        <ele>185.2</ele>
        <time>2020-10-12T11:04:59Z</time>
      </trkpt>
      <trkpt lat="37.526717000" lon="-5.151438000">
        <ele>185.3</ele>
        <time>2020-10-12T11:05:01Z</time>
      </trkpt>
      <trkpt lat="37.526764000" lon="-5.151336000">
        <ele>185.5</ele>
        <time>2020-10-12T11:05:03Z</time>
      </trkpt>
      <trkpt lat="37.526821000" lon="-5.151205000">
        <ele>185.5</ele>
        <time>2020-10-12T11:05:06Z</time>
      </trkpt>
      <trkpt lat="37.526869000" lon="-5.151073000">
        <ele>185.5</ele>
        <time>2020-10-12T11:05:09Z</time>
      </trkpt>
      <trkpt lat="37.526915000" lon="-5.150984000">
        <ele>185.5</ele>
        <time>2020-10-12T11:05:11Z</time>
      </trkpt>
      <trkpt lat="37.526965000" lon="-5.150847000">
        <ele>185.5</ele>
        <time>2020-10-12T11:05:14Z</time>
      </trkpt>
      <trkpt lat="37.527007000" lon="-5.150753000">
        <ele>185.5</ele>
        <time>2020-10-12T11:05:16Z</time>
      </trkpt>
      <trkpt lat="37.527046000" lon="-5.150649000">
        <ele>185.5</ele>
        <time>2020-10-12T11:05:18Z</time>
      </trkpt>
      <trkpt lat="37.527090000" lon="-5.150541000">
        <ele>185.3</ele>
        <time>2020-10-12T11:05:20Z</time>
      </trkpt>
      <trkpt lat="37.527133000" lon="-5.150435000">
        <ele>185.1</ele>
        <time>2020-10-12T11:05:22Z</time>
      </trkpt>
      <trkpt lat="37.527178000" lon="-5.150334000">
        <ele>184.9</ele>
        <time>2020-10-12T11:05:24Z</time>
      </trkpt>
      <trkpt lat="37.527221000" lon="-5.150236000">
        <ele>184.8</ele>
        <time>2020-10-12T11:05:26Z</time>
      </trkpt>
      <trkpt lat="37.527264000" lon="-5.150107000">
        <ele>184.8</ele>
        <time>2020-10-12T11:05:29Z</time>
      </trkpt>
      <trkpt lat="37.527322000" lon="-5.149993000">
        <ele>184.8</ele>
        <time>2020-10-12T11:05:32Z</time>
      </trkpt>
      <trkpt lat="37.527377000" lon="-5.149860000">
        <ele>184.8</ele>
        <time>2020-10-12T11:05:35Z</time>
      </trkpt>
      <trkpt lat="37.527432000" lon="-5.149729000">
        <ele>184.8</ele>
        <time>2020-10-12T11:05:38Z</time>
      </trkpt>
      <trkpt lat="37.527485000" lon="-5.149602000">
        <ele>184.7</ele>
        <time>2020-10-12T11:05:41Z</time>
      </trkpt>
      <trkpt lat="37.527537000" lon="-5.149481000">
        <ele>184.6</ele>
        <time>2020-10-12T11:05:44Z</time>
      </trkpt>
      <trkpt lat="37.527586000" lon="-5.149358000">
        <ele>184.6</ele>
        <time>2020-10-12T11:05:47Z</time>
      </trkpt>
      <trkpt lat="37.527643000" lon="-5.149231000">
        <ele>184.6</ele>
        <time>2020-10-12T11:05:50Z</time>
      </trkpt>
      <trkpt lat="37.527697000" lon="-5.149102000">
        <ele>184.6</ele>
        <time>2020-10-12T11:05:53Z</time>
      </trkpt>
      <trkpt lat="37.527755000" lon="-5.148976000">
        <ele>184.6</ele>
        <time>2020-10-12T11:05:56Z</time>
      </trkpt>
      <trkpt lat="37.527810000" lon="-5.148845000">
        <ele>184.5</ele>
        <time>2020-10-12T11:05:59Z</time>
      </trkpt>
      <trkpt lat="37.527854000" lon="-5.148758000">
        <ele>184.4</ele>
        <time>2020-10-12T11:06:01Z</time>
      </trkpt>
      <trkpt lat="37.527893000" lon="-5.148665000">
        <ele>184.2</ele>
        <time>2020-10-12T11:06:03Z</time>
      </trkpt>
      <trkpt lat="37.527943000" lon="-5.148531000">
        <ele>184.1</ele>
        <time>2020-10-12T11:06:06Z</time>
      </trkpt>
      <trkpt lat="37.527991000" lon="-5.148403000">
        <ele>184.0</ele>
        <time>2020-10-12T11:06:09Z</time>
      </trkpt>
      <trkpt lat="37.528042000" lon="-5.148280000">
        <ele>184.1</ele>
        <time>2020-10-12T11:06:12Z</time>
      </trkpt>
      <trkpt lat="37.528102000" lon="-5.148149000">
        <ele>184.1</ele>
        <time>2020-10-12T11:06:15Z</time>
      </trkpt>
      <trkpt lat="37.528146000" lon="-5.148055000">
        <ele>184.1</ele>
        <time>2020-10-12T11:06:17Z</time>
      </trkpt>
      <trkpt lat="37.528188000" lon="-5.147960000">
        <ele>184.1</ele>
        <time>2020-10-12T11:06:19Z</time>
      </trkpt>
      <trkpt lat="37.528229000" lon="-5.147864000">
        <ele>184.1</ele>
        <time>2020-10-12T11:06:21Z</time>
      </trkpt>
      <trkpt lat="37.528270000" lon="-5.147765000">
        <ele>184.1</ele>
        <time>2020-10-12T11:06:23Z</time>
      </trkpt>
      <trkpt lat="37.528313000" lon="-5.147667000">
        <ele>184.0</ele>
        <time>2020-10-12T11:06:25Z</time>
      </trkpt>
      <trkpt lat="37.528352000" lon="-5.147565000">
        <ele>183.9</ele>
        <time>2020-10-12T11:06:27Z</time>
      </trkpt>
      <trkpt lat="37.528395000" lon="-5.147469000">
        <ele>183.8</ele>
        <time>2020-10-12T11:06:29Z</time>
      </trkpt>
      <trkpt lat="37.528435000" lon="-5.147371000">
        <ele>183.7</ele>
        <time>2020-10-12T11:06:31Z</time>
      </trkpt>
      <trkpt lat="37.528472000" lon="-5.147273000">
        <ele>183.6</ele>
        <time>2020-10-12T11:06:33Z</time>
      </trkpt>
      <trkpt lat="37.528508000" lon="-5.147175000">
        <ele>183.5</ele>
        <time>2020-10-12T11:06:35Z</time>
      </trkpt>
      <trkpt lat="37.528545000" lon="-5.147084000">
        <ele>183.6</ele>
        <time>2020-10-12T11:06:37Z</time>
      </trkpt>
      <trkpt lat="37.528602000" lon="-5.146952000">
        <ele>183.8</ele>
        <time>2020-10-12T11:06:40Z</time>
      </trkpt>
      <trkpt lat="37.528656000" lon="-5.146822000">
        <ele>184.1</ele>
        <time>2020-10-12T11:06:43Z</time>
      </trkpt>
      <trkpt lat="37.528707000" lon="-5.146693000">
        <ele>184.4</ele>
        <time>2020-10-12T11:06:46Z</time>
      </trkpt>
      <trkpt lat="37.528763000" lon="-5.146573000">
        <ele>184.6</ele>
        <time>2020-10-12T11:06:49Z</time>
      </trkpt>
      <trkpt lat="37.528814000" lon="-5.146456000">
        <ele>185.0</ele>
        <time>2020-10-12T11:06:52Z</time>
      </trkpt>
      <trkpt lat="37.528860000" lon="-5.146340000">
        <ele>185.3</ele>
        <time>2020-10-12T11:06:55Z</time>
      </trkpt>
      <trkpt lat="37.528913000" lon="-5.146217000">
        <ele>185.5</ele>
        <time>2020-10-12T11:06:58Z</time>
      </trkpt>
      <trkpt lat="37.528963000" lon="-5.146091000">
        <ele>185.8</ele>
        <time>2020-10-12T11:07:01Z</time>
      </trkpt>
      <trkpt lat="37.529017000" lon="-5.145965000">
        <ele>186.1</ele>
        <time>2020-10-12T11:07:04Z</time>
      </trkpt>
      <trkpt lat="37.529070000" lon="-5.145842000">
        <ele>186.3</ele>
        <time>2020-10-12T11:07:07Z</time>
      </trkpt>
      <trkpt lat="37.529119000" lon="-5.145717000">
        <ele>186.3</ele>
        <time>2020-10-12T11:07:10Z</time>
      </trkpt>
      <trkpt lat="37.529172000" lon="-5.145596000">
        <ele>186.2</ele>
        <time>2020-10-12T11:07:13Z</time>
      </trkpt>
      <trkpt lat="37.529225000" lon="-5.145478000">
        <ele>186.0</ele>
        <time>2020-10-12T11:07:16Z</time>
      </trkpt>
      <trkpt lat="37.529278000" lon="-5.145354000">
        <ele>185.7</ele>
        <time>2020-10-12T11:07:19Z</time>
      </trkpt>
      <trkpt lat="37.529329000" lon="-5.145225000">
        <ele>185.5</ele>
        <time>2020-10-12T11:07:22Z</time>
      </trkpt>
      <trkpt lat="37.529387000" lon="-5.145107000">
        <ele>185.2</ele>
        <time>2020-10-12T11:07:25Z</time>
      </trkpt>
      <trkpt lat="37.529435000" lon="-5.144995000">
        <ele>185.0</ele>
        <time>2020-10-12T11:07:28Z</time>
      </trkpt>
      <trkpt lat="37.529482000" lon="-5.144889000">
        <ele>184.8</ele>
        <time>2020-10-12T11:07:31Z</time>
      </trkpt>
      <trkpt lat="37.529514000" lon="-5.144793000">
        <ele>184.6</ele>
        <time>2020-10-12T11:07:34Z</time>
      </trkpt>
      <trkpt lat="37.529568000" lon="-5.144680000">
        <ele>184.4</ele>
        <time>2020-10-12T11:07:37Z</time>
      </trkpt>
      <trkpt lat="37.529622000" lon="-5.144564000">
        <ele>184.1</ele>
        <time>2020-10-12T11:07:40Z</time>
      </trkpt>
      <trkpt lat="37.529671000" lon="-5.144446000">
        <ele>183.8</ele>
        <time>2020-10-12T11:07:43Z</time>
      </trkpt>
      <trkpt lat="37.529722000" lon="-5.144327000">
        <ele>183.5</ele>
        <time>2020-10-12T11:07:46Z</time>
      </trkpt>
      <trkpt lat="37.529774000" lon="-5.144205000">
        <ele>183.2</ele>
        <time>2020-10-12T11:07:49Z</time>
      </trkpt>
      <trkpt lat="37.529826000" lon="-5.144086000">
        <ele>183.0</ele>
        <time>2020-10-12T11:07:52Z</time>
      </trkpt>
      <trkpt lat="37.529874000" lon="-5.143979000">
        <ele>182.8</ele>
        <time>2020-10-12T11:07:55Z</time>
      </trkpt>
      <trkpt lat="37.529919000" lon="-5.143858000">
        <ele>182.6</ele>
        <time>2020-10-12T11:07:58Z</time>
      </trkpt>
      <trkpt lat="37.529967000" lon="-5.143740000">
        <ele>182.5</ele>
        <time>2020-10-12T11:08:01Z</time>
      </trkpt>
      <trkpt lat="37.530018000" lon="-5.143626000">
        <ele>182.5</ele>
        <time>2020-10-12T11:08:04Z</time>
      </trkpt>
      <trkpt lat="37.530074000" lon="-5.143508000">
        <ele>182.4</ele>
        <time>2020-10-12T11:08:07Z</time>
      </trkpt>
      <trkpt lat="37.530120000" lon="-5.143391000">
        <ele>182.4</ele>
        <time>2020-10-12T11:08:10Z</time>
      </trkpt>
      <trkpt lat="37.530170000" lon="-5.143279000">
        <ele>182.4</ele>
        <time>2020-10-12T11:08:13Z</time>
      </trkpt>
      <trkpt lat="37.530227000" lon="-5.143173000">
        <ele>182.4</ele>
        <time>2020-10-12T11:08:16Z</time>
      </trkpt>
      <trkpt lat="37.530279000" lon="-5.143056000">
        <ele>182.4</ele>
        <time>2020-10-12T11:08:19Z</time>
      </trkpt>
      <trkpt lat="37.530333000" lon="-5.142935000">
        <ele>182.5</ele>
        <time>2020-10-12T11:08:22Z</time>
      </trkpt>
      <trkpt lat="37.530383000" lon="-5.142807000">
        <ele>182.5</ele>
        <time>2020-10-12T11:08:25Z</time>
      </trkpt>
      <trkpt lat="37.530440000" lon="-5.142673000">
        <ele>182.5</ele>
        <time>2020-10-12T11:08:28Z</time>
      </trkpt>
      <trkpt lat="37.530481000" lon="-5.142583000">
        <ele>182.5</ele>
        <time>2020-10-12T11:08:30Z</time>
      </trkpt>
      <trkpt lat="37.530529000" lon="-5.142457000">
        <ele>182.3</ele>
        <time>2020-10-12T11:08:33Z</time>
      </trkpt>
      <trkpt lat="37.530574000" lon="-5.142337000">
        <ele>182.2</ele>
        <time>2020-10-12T11:08:36Z</time>
      </trkpt>
      <trkpt lat="37.530622000" lon="-5.142215000">
        <ele>182.1</ele>
        <time>2020-10-12T11:08:39Z</time>
      </trkpt>
      <trkpt lat="37.530678000" lon="-5.142084000">
        <ele>181.9</ele>
        <time>2020-10-12T11:08:42Z</time>
      </trkpt>
      <trkpt lat="37.530721000" lon="-5.141991000">
        <ele>181.8</ele>
        <time>2020-10-12T11:08:44Z</time>
      </trkpt>
      <trkpt lat="37.530760000" lon="-5.141901000">
        <ele>181.8</ele>
        <time>2020-10-12T11:08:46Z</time>
      </trkpt>
      <trkpt lat="37.530809000" lon="-5.141771000">
        <ele>181.8</ele>
        <time>2020-10-12T11:08:49Z</time>
      </trkpt>
      <trkpt lat="37.530860000" lon="-5.141642000">
        <ele>181.8</ele>
        <time>2020-10-12T11:08:52Z</time>
      </trkpt>
      <trkpt lat="37.530913000" lon="-5.141516000">
        <ele>181.8</ele>
        <time>2020-10-12T11:08:55Z</time>
      </trkpt>
      <trkpt lat="37.530961000" lon="-5.141393000">
        <ele>181.9</ele>
        <time>2020-10-12T11:08:58Z</time>
      </trkpt>
      <trkpt lat="37.531009000" lon="-5.141273000">
        <ele>182.0</ele>
        <time>2020-10-12T11:09:01Z</time>
      </trkpt>
      <trkpt lat="37.531061000" lon="-5.141163000">
        <ele>182.1</ele>
        <time>2020-10-12T11:09:04Z</time>
      </trkpt>
      <trkpt lat="37.531107000" lon="-5.141053000">
        <ele>182.2</ele>
        <time>2020-10-12T11:09:07Z</time>
      </trkpt>
      <trkpt lat="37.531156000" lon="-5.140947000">
        <ele>182.3</ele>
        <time>2020-10-12T11:09:10Z</time>
      </trkpt>
      <trkpt lat="37.531202000" lon="-5.140830000">
        <ele>182.5</ele>
        <time>2020-10-12T11:09:13Z</time>
      </trkpt>
      <trkpt lat="37.531246000" lon="-5.140716000">
        <ele>182.7</ele>
        <time>2020-10-12T11:09:16Z</time>
      </trkpt>
      <trkpt lat="37.531289000" lon="-5.140599000">
        <ele>182.9</ele>
        <time>2020-10-12T11:09:19Z</time>
      </trkpt>
      <trkpt lat="37.531335000" lon="-5.140485000">
        <ele>183.0</ele>
        <time>2020-10-12T11:09:22Z</time>
      </trkpt>
      <trkpt lat="37.531382000" lon="-5.140373000">
        <ele>183.1</ele>
        <time>2020-10-12T11:09:25Z</time>
      </trkpt>
      <trkpt lat="37.531430000" lon="-5.140265000">
        <ele>183.2</ele>
        <time>2020-10-12T11:09:28Z</time>
      </trkpt>
      <trkpt lat="37.531478000" lon="-5.140148000">
        <ele>183.2</ele>
        <time>2020-10-12T11:09:31Z</time>
      </trkpt>
      <trkpt lat="37.531518000" lon="-5.140047000">
        <ele>183.2</ele>
        <time>2020-10-12T11:09:34Z</time>
      </trkpt>
      <trkpt lat="37.531571000" lon="-5.139930000">
        <ele>183.3</ele>
        <time>2020-10-12T11:09:37Z</time>
      </trkpt>
      <trkpt lat="37.531621000" lon="-5.139825000">
        <ele>183.3</ele>
        <time>2020-10-12T11:09:40Z</time>
      </trkpt>
      <trkpt lat="37.531664000" lon="-5.139723000">
        <ele>183.3</ele>
        <time>2020-10-12T11:09:43Z</time>
      </trkpt>
      <trkpt lat="37.531713000" lon="-5.139608000">
        <ele>183.2</ele>
        <time>2020-10-12T11:09:46Z</time>
      </trkpt>
      <trkpt lat="37.531752000" lon="-5.139504000">
        <ele>183.1</ele>
        <time>2020-10-12T11:09:49Z</time>
      </trkpt>
      <trkpt lat="37.531792000" lon="-5.139410000">
        <ele>183.0</ele>
        <time>2020-10-12T11:09:52Z</time>
      </trkpt>
      <trkpt lat="37.531840000" lon="-5.139294000">
        <ele>183.0</ele>
        <time>2020-10-12T11:09:56Z</time>
      </trkpt>
      <trkpt lat="37.531878000" lon="-5.139197000">
        <ele>183.0</ele>
        <time>2020-10-12T11:09:59Z</time>
      </trkpt>
      <trkpt lat="37.531915000" lon="-5.139101000">
        <ele>183.0</ele>
        <time>2020-10-12T11:10:02Z</time>
      </trkpt>
      <trkpt lat="37.531956000" lon="-5.139009000">
        <ele>183.0</ele>
        <time>2020-10-12T11:10:05Z</time>
      </trkpt>
      <trkpt lat="37.531998000" lon="-5.138915000">
        <ele>183.0</ele>
        <time>2020-10-12T11:10:08Z</time>
      </trkpt>
      <trkpt lat="37.532039000" lon="-5.138816000">
        <ele>183.0</ele>
        <time>2020-10-12T11:10:11Z</time>
      </trkpt>
      <trkpt lat="37.532084000" lon="-5.138709000">
        <ele>183.0</ele>
        <time>2020-10-12T11:10:14Z</time>
      </trkpt>
      <trkpt lat="37.532129000" lon="-5.138606000">
        <ele>183.0</ele>
        <time>2020-10-12T11:10:17Z</time>
      </trkpt>
      <trkpt lat="37.532176000" lon="-5.138503000">
        <ele>183.0</ele>
        <time>2020-10-12T11:10:20Z</time>
      </trkpt>
      <trkpt lat="37.532221000" lon="-5.138400000">
        <ele>183.0</ele>
        <time>2020-10-12T11:10:23Z</time>
      </trkpt>
      <trkpt lat="37.532262000" lon="-5.138297000">
        <ele>183.0</ele>
        <time>2020-10-12T11:10:26Z</time>
      </trkpt>
      <trkpt lat="37.532308000" lon="-5.138190000">
        <ele>183.0</ele>
        <time>2020-10-12T11:10:29Z</time>
      </trkpt>
      <trkpt lat="37.532356000" lon="-5.138083000">
        <ele>183.0</ele>
        <time>2020-10-12T11:10:32Z</time>
      </trkpt>
      <trkpt lat="37.532394000" lon="-5.137973000">
        <ele>182.9</ele>
        <time>2020-10-12T11:10:35Z</time>
      </trkpt>
      <trkpt lat="37.532436000" lon="-5.137862000">
        <ele>182.8</ele>
        <time>2020-10-12T11:10:38Z</time>
      </trkpt>
      <trkpt lat="37.532482000" lon="-5.137752000">
        <ele>182.7</ele>
        <time>2020-10-12T11:10:41Z</time>
      </trkpt>
      <trkpt lat="37.532530000" lon="-5.137656000">
        <ele>182.6</ele>
        <time>2020-10-12T11:10:44Z</time>
      </trkpt>
      <trkpt lat="37.532571000" lon="-5.137546000">
        <ele>182.6</ele>
        <time>2020-10-12T11:10:47Z</time>
      </trkpt>
      <trkpt lat="37.532617000" lon="-5.137436000">
        <ele>182.6</ele>
        <time>2020-10-12T11:10:50Z</time>
      </trkpt>
      <trkpt lat="37.532666000" lon="-5.137328000">
        <ele>182.7</ele>
        <time>2020-10-12T11:10:53Z</time>
      </trkpt>
      <trkpt lat="37.532715000" lon="-5.137217000">
        <ele>182.8</ele>
        <time>2020-10-12T11:10:56Z</time>
      </trkpt>
      <trkpt lat="37.532758000" lon="-5.137107000">
        <ele>182.9</ele>
        <time>2020-10-12T11:10:59Z</time>
      </trkpt>
      <trkpt lat="37.532801000" lon="-5.136999000">
        <ele>183.1</ele>
        <time>2020-10-12T11:11:02Z</time>
      </trkpt>
      <trkpt lat="37.532848000" lon="-5.136894000">
        <ele>183.3</ele>
        <time>2020-10-12T11:11:05Z</time>
      </trkpt>
      <trkpt lat="37.532901000" lon="-5.136784000">
        <ele>183.5</ele>
        <time>2020-10-12T11:11:08Z</time>
      </trkpt>
      <trkpt lat="37.532943000" lon="-5.136672000">
        <ele>183.8</ele>
        <time>2020-10-12T11:11:11Z</time>
      </trkpt>
      <trkpt lat="37.532982000" lon="-5.136561000">
        <ele>184.0</ele>
        <time>2020-10-12T11:11:14Z</time>
      </trkpt>
      <trkpt lat="37.533025000" lon="-5.136453000">
        <ele>184.2</ele>
        <time>2020-10-12T11:11:17Z</time>
      </trkpt>
      <trkpt lat="37.533075000" lon="-5.136340000">
        <ele>184.3</ele>
        <time>2020-10-12T11:11:20Z</time>
      </trkpt>
      <trkpt lat="37.533129000" lon="-5.136224000">
        <ele>184.3</ele>
        <time>2020-10-12T11:11:23Z</time>
      </trkpt>
      <trkpt lat="37.533182000" lon="-5.136105000">
        <ele>184.2</ele>
        <time>2020-10-12T11:11:26Z</time>
      </trkpt>
      <trkpt lat="37.533230000" lon="-5.135988000">
        <ele>184.1</ele>
        <time>2020-10-12T11:11:29Z</time>
      </trkpt>
      <trkpt lat="37.533280000" lon="-5.135875000">
        <ele>184.0</ele>
        <time>2020-10-12T11:11:32Z</time>
      </trkpt>
      <trkpt lat="37.533329000" lon="-5.135764000">
        <ele>183.8</ele>
        <time>2020-10-12T11:11:35Z</time>
      </trkpt>
      <trkpt lat="37.533381000" lon="-5.135655000">
        <ele>183.5</ele>
        <time>2020-10-12T11:11:38Z</time>
      </trkpt>
      <trkpt lat="37.533428000" lon="-5.135544000">
        <ele>183.3</ele>
        <time>2020-10-12T11:11:41Z</time>
      </trkpt>
      <trkpt lat="37.533469000" lon="-5.135434000">
        <ele>183.0</ele>
        <time>2020-10-12T11:11:44Z</time>
      </trkpt>
      <trkpt lat="37.533513000" lon="-5.135323000">
        <ele>182.8</ele>
        <time>2020-10-12T11:11:47Z</time>
      </trkpt>
      <trkpt lat="37.533556000" lon="-5.135208000">
        <ele>182.6</ele>
        <time>2020-10-12T11:11:50Z</time>
      </trkpt>
      <trkpt lat="37.533599000" lon="-5.135094000">
        <ele>182.5</ele>
        <time>2020-10-12T11:11:53Z</time>
      </trkpt>
      <trkpt lat="37.533644000" lon="-5.134982000">
        <ele>182.4</ele>
        <time>2020-10-12T11:11:56Z</time>
      </trkpt>
      <trkpt lat="37.533688000" lon="-5.134870000">
        <ele>182.3</ele>
        <time>2020-10-12T11:11:59Z</time>
      </trkpt>
      <trkpt lat="37.533735000" lon="-5.134764000">
        <ele>182.2</ele>
        <time>2020-10-12T11:12:02Z</time>
      </trkpt>
      <trkpt lat="37.533772000" lon="-5.134662000">
        <ele>182.1</ele>
        <time>2020-10-12T11:12:05Z</time>
      </trkpt>
      <trkpt lat="37.533813000" lon="-5.134551000">
        <ele>182.0</ele>
        <time>2020-10-12T11:12:09Z</time>
      </trkpt>
      <trkpt lat="37.533859000" lon="-5.134447000">
        <ele>181.9</ele>
        <time>2020-10-12T11:12:13Z</time>
      </trkpt>
      <trkpt lat="37.533906000" lon="-5.134350000">
        <ele>181.8</ele>
        <time>2020-10-12T11:12:16Z</time>
      </trkpt>
      <trkpt lat="37.533950000" lon="-5.134238000">
        <ele>181.7</ele>
        <time>2020-10-12T11:12:19Z</time>
      </trkpt>
      <trkpt lat="37.534003000" lon="-5.134121000">
        <ele>181.6</ele>
        <time>2020-10-12T11:12:22Z</time>
      </trkpt>
      <trkpt lat="37.534050000" lon="-5.134000000">
        <ele>181.6</ele>
        <time>2020-10-12T11:12:25Z</time>
      </trkpt>
      <trkpt lat="37.534099000" lon="-5.133887000">
        <ele>181.6</ele>
        <time>2020-10-12T11:12:28Z</time>
      </trkpt>
      <trkpt lat="37.534150000" lon="-5.133770000">
        <ele>181.6</ele>
        <time>2020-10-12T11:12:31Z</time>
      </trkpt>
      <trkpt lat="37.534195000" lon="-5.133643000">
        <ele>181.7</ele>
        <time>2020-10-12T11:12:34Z</time>
      </trkpt>
      <trkpt lat="37.534243000" lon="-5.133531000">
        <ele>181.8</ele>
        <time>2020-10-12T11:12:37Z</time>
      </trkpt>
      <trkpt lat="37.534286000" lon="-5.133422000">
        <ele>181.9</ele>
        <time>2020-10-12T11:12:40Z</time>
      </trkpt>
      <trkpt lat="37.534331000" lon="-5.133312000">
        <ele>182.0</ele>
        <time>2020-10-12T11:12:43Z</time>
      </trkpt>
      <trkpt lat="37.534381000" lon="-5.133201000">
        <ele>182.1</ele>
        <time>2020-10-12T11:12:46Z</time>
      </trkpt>
      <trkpt lat="37.534435000" lon="-5.133079000">
        <ele>182.2</ele>
        <time>2020-10-12T11:12:49Z</time>
      </trkpt>
      <trkpt lat="37.534488000" lon="-5.132944000">
        <ele>182.3</ele>
        <time>2020-10-12T11:12:52Z</time>
      </trkpt>
      <trkpt lat="37.534527000" lon="-5.132851000">
        <ele>182.4</ele>
        <time>2020-10-12T11:12:54Z</time>
      </trkpt>
      <trkpt lat="37.534568000" lon="-5.132755000">
        <ele>182.4</ele>
        <time>2020-10-12T11:12:56Z</time>
      </trkpt>
      <trkpt lat="37.534609000" lon="-5.132660000">
        <ele>182.4</ele>
        <time>2020-10-12T11:12:58Z</time>
      </trkpt>
      <trkpt lat="37.534644000" lon="-5.132567000">
        <ele>182.3</ele>
        <time>2020-10-12T11:13:00Z</time>
      </trkpt>
      <trkpt lat="37.534681000" lon="-5.132474000">
        <ele>182.1</ele>
        <time>2020-10-12T11:13:02Z</time>
      </trkpt>
      <trkpt lat="37.534733000" lon="-5.132343000">
        <ele>181.9</ele>
        <time>2020-10-12T11:13:05Z</time>
      </trkpt>
      <trkpt lat="37.534792000" lon="-5.132209000">
        <ele>181.7</ele>
        <time>2020-10-12T11:13:08Z</time>
      </trkpt>
      <trkpt lat="37.534839000" lon="-5.132080000">
        <ele>181.5</ele>
        <time>2020-10-12T11:13:11Z</time>
      </trkpt>
      <trkpt lat="37.534897000" lon="-5.131954000">
        <ele>181.4</ele>
        <time>2020-10-12T11:13:14Z</time>
      </trkpt>
      <trkpt lat="37.534941000" lon="-5.131858000">
        <ele>181.2</ele>
        <time>2020-10-12T11:13:16Z</time>
      </trkpt>
      <trkpt lat="37.534994000" lon="-5.131731000">
        <ele>181.0</ele>
        <time>2020-10-12T11:13:19Z</time>
      </trkpt>
      <trkpt lat="37.535054000" lon="-5.131596000">
        <ele>180.8</ele>
        <time>2020-10-12T11:13:22Z</time>
      </trkpt>
      <trkpt lat="37.535093000" lon="-5.131500000">
        <ele>180.6</ele>
        <time>2020-10-12T11:13:24Z</time>
      </trkpt>
      <trkpt lat="37.535141000" lon="-5.131378000">
        <ele>180.5</ele>
        <time>2020-10-12T11:13:27Z</time>
      </trkpt>
      <trkpt lat="37.535182000" lon="-5.131289000">
        <ele>180.4</ele>
        <time>2020-10-12T11:13:29Z</time>
      </trkpt>
      <trkpt lat="37.535222000" lon="-5.131185000">
        <ele>180.3</ele>
        <time>2020-10-12T11:13:31Z</time>
      </trkpt>
      <trkpt lat="37.535280000" lon="-5.131063000">
        <ele>180.2</ele>
        <time>2020-10-12T11:13:34Z</time>
      </trkpt>
      <trkpt lat="37.535317000" lon="-5.130946000">
        <ele>180.2</ele>
        <time>2020-10-12T11:13:37Z</time>
      </trkpt>
      <trkpt lat="37.535362000" lon="-5.130842000">
        <ele>180.2</ele>
        <time>2020-10-12T11:13:40Z</time>
      </trkpt>
      <trkpt lat="37.535401000" lon="-5.130730000">
        <ele>180.3</ele>
        <time>2020-10-12T11:13:43Z</time>
      </trkpt>
      <trkpt lat="37.535448000" lon="-5.130611000">
        <ele>180.4</ele>
        <time>2020-10-12T11:13:46Z</time>
      </trkpt>
      <trkpt lat="37.535500000" lon="-5.130486000">
        <ele>180.5</ele>
        <time>2020-10-12T11:13:49Z</time>
      </trkpt>
      <trkpt lat="37.535559000" lon="-5.130352000">
        <ele>180.5</ele>
        <time>2020-10-12T11:13:52Z</time>
      </trkpt>
      <trkpt lat="37.535598000" lon="-5.130255000">
        <ele>180.6</ele>
        <time>2020-10-12T11:13:54Z</time>
      </trkpt>
      <trkpt lat="37.535641000" lon="-5.130155000">
        <ele>180.7</ele>
        <time>2020-10-12T11:13:56Z</time>
      </trkpt>
      <trkpt lat="37.535684000" lon="-5.130053000">
        <ele>180.7</ele>
        <time>2020-10-12T11:13:58Z</time>
      </trkpt>
      <trkpt lat="37.535729000" lon="-5.129950000">
        <ele>180.7</ele>
        <time>2020-10-12T11:14:00Z</time>
      </trkpt>
      <trkpt lat="37.535774000" lon="-5.129848000">
        <ele>180.7</ele>
        <time>2020-10-12T11:14:02Z</time>
      </trkpt>
      <trkpt lat="37.535815000" lon="-5.129740000">
        <ele>180.5</ele>
        <time>2020-10-12T11:14:04Z</time>
      </trkpt>
      <trkpt lat="37.535859000" lon="-5.129635000">
        <ele>180.4</ele>
        <time>2020-10-12T11:14:06Z</time>
      </trkpt>
      <trkpt lat="37.535907000" lon="-5.129535000">
        <ele>180.3</ele>
        <time>2020-10-12T11:14:08Z</time>
      </trkpt>
      <trkpt lat="37.535943000" lon="-5.129435000">
        <ele>180.2</ele>
        <time>2020-10-12T11:14:10Z</time>
      </trkpt>
      <trkpt lat="37.535981000" lon="-5.129337000">
        <ele>180.0</ele>
        <time>2020-10-12T11:14:12Z</time>
      </trkpt>
      <trkpt lat="37.536022000" lon="-5.129236000">
        <ele>179.8</ele>
        <time>2020-10-12T11:14:14Z</time>
      </trkpt>
      <trkpt lat="37.536066000" lon="-5.129137000">
        <ele>179.5</ele>
        <time>2020-10-12T11:14:16Z</time>
      </trkpt>
      <trkpt lat="37.536121000" lon="-5.129001000">
        <ele>179.3</ele>
        <time>2020-10-12T11:14:19Z</time>
      </trkpt>
      <trkpt lat="37.536161000" lon="-5.128908000">
        <ele>179.0</ele>
        <time>2020-10-12T11:14:21Z</time>
      </trkpt>
      <trkpt lat="37.536214000" lon="-5.128778000">
        <ele>178.7</ele>
        <time>2020-10-12T11:14:24Z</time>
      </trkpt>
      <trkpt lat="37.536266000" lon="-5.128655000">
        <ele>178.4</ele>
        <time>2020-10-12T11:14:27Z</time>
      </trkpt>
      <trkpt lat="37.536307000" lon="-5.128553000">
        <ele>178.1</ele>
        <time>2020-10-12T11:14:30Z</time>
      </trkpt>
      <trkpt lat="37.536357000" lon="-5.128455000">
        <ele>177.8</ele>
        <time>2020-10-12T11:15:25Z</time>
      </trkpt>
      <trkpt lat="37.536400000" lon="-5.128359000">
        <ele>177.5</ele>
        <time>2020-10-12T11:15:28Z</time>
      </trkpt>
      <trkpt lat="37.536460000" lon="-5.128230000">
        <ele>177.1</ele>
        <time>2020-10-12T11:15:31Z</time>
      </trkpt>
      <trkpt lat="37.536518000" lon="-5.128096000">
        <ele>176.9</ele>
        <time>2020-10-12T11:15:34Z</time>
      </trkpt>
      <trkpt lat="37.536555000" lon="-5.128002000">
        <ele>176.7</ele>
        <time>2020-10-12T11:15:36Z</time>
      </trkpt>
      <trkpt lat="37.536593000" lon="-5.127905000">
        <ele>176.7</ele>
        <time>2020-10-12T11:15:38Z</time>
      </trkpt>
      <trkpt lat="37.536631000" lon="-5.127809000">
        <ele>176.7</ele>
        <time>2020-10-12T11:15:40Z</time>
      </trkpt>
      <trkpt lat="37.536669000" lon="-5.127713000">
        <ele>176.8</ele>
        <time>2020-10-12T11:15:42Z</time>
      </trkpt>
      <trkpt lat="37.536705000" lon="-5.127616000">
        <ele>176.9</ele>
        <time>2020-10-12T11:15:44Z</time>
      </trkpt>
      <trkpt lat="37.536742000" lon="-5.127516000">
        <ele>177.1</ele>
        <time>2020-10-12T11:15:46Z</time>
      </trkpt>
      <trkpt lat="37.536781000" lon="-5.127415000">
        <ele>177.3</ele>
        <time>2020-10-12T11:15:48Z</time>
      </trkpt>
      <trkpt lat="37.536826000" lon="-5.127318000">
        <ele>177.5</ele>
        <time>2020-10-12T11:15:50Z</time>
      </trkpt>
      <trkpt lat="37.536868000" lon="-5.127216000">
        <ele>177.6</ele>
        <time>2020-10-12T11:15:52Z</time>
      </trkpt>
      <trkpt lat="37.536914000" lon="-5.127112000">
        <ele>177.7</ele>
        <time>2020-10-12T11:15:54Z</time>
      </trkpt>
      <trkpt lat="37.536955000" lon="-5.127015000">
        <ele>177.7</ele>
        <time>2020-10-12T11:15:56Z</time>
      </trkpt>
      <trkpt lat="37.536994000" lon="-5.126920000">
        <ele>177.6</ele>
        <time>2020-10-12T11:15:58Z</time>
      </trkpt>
      <trkpt lat="37.537033000" lon="-5.126822000">
        <ele>177.5</ele>
        <time>2020-10-12T11:16:00Z</time>
      </trkpt>
      <trkpt lat="37.537071000" lon="-5.126724000">
        <ele>177.2</ele>
        <time>2020-10-12T11:16:02Z</time>
      </trkpt>
      <trkpt lat="37.537105000" lon="-5.126617000">
        <ele>176.9</ele>
        <time>2020-10-12T11:16:04Z</time>
      </trkpt>
      <trkpt lat="37.537139000" lon="-5.126508000">
        <ele>176.5</ele>
        <time>2020-10-12T11:16:06Z</time>
      </trkpt>
      <trkpt lat="37.537181000" lon="-5.126390000">
        <ele>176.1</ele>
        <time>2020-10-12T11:16:08Z</time>
      </trkpt>
      <trkpt lat="37.537217000" lon="-5.126271000">
        <ele>175.6</ele>
        <time>2020-10-12T11:16:10Z</time>
      </trkpt>
      <trkpt lat="37.537255000" lon="-5.126143000">
        <ele>175.1</ele>
        <time>2020-10-12T11:16:12Z</time>
      </trkpt>
      <trkpt lat="37.537291000" lon="-5.126015000">
        <ele>174.6</ele>
        <time>2020-10-12T11:16:14Z</time>
      </trkpt>
      <trkpt lat="37.537323000" lon="-5.125883000">
        <ele>174.3</ele>
        <time>2020-10-12T11:16:16Z</time>
      </trkpt>
      <trkpt lat="37.537345000" lon="-5.125750000">
        <ele>173.9</ele>
        <time>2020-10-12T11:16:18Z</time>
      </trkpt>
      <trkpt lat="37.537381000" lon="-5.125623000">
        <ele>173.7</ele>
        <time>2020-10-12T11:16:20Z</time>
      </trkpt>
      <trkpt lat="37.537406000" lon="-5.125492000">
        <ele>173.5</ele>
        <time>2020-10-12T11:16:22Z</time>
      </trkpt>
      <trkpt lat="37.537423000" lon="-5.125367000">
        <ele>173.5</ele>
        <time>2020-10-12T11:16:24Z</time>
      </trkpt>
      <trkpt lat="37.537446000" lon="-5.125246000">
        <ele>173.5</ele>
        <time>2020-10-12T11:16:26Z</time>
      </trkpt>
      <trkpt lat="37.537462000" lon="-5.125127000">
        <ele>173.6</ele>
        <time>2020-10-12T11:16:28Z</time>
      </trkpt>
      <trkpt lat="37.537479000" lon="-5.125023000">
        <ele>173.8</ele>
        <time>2020-10-12T11:16:30Z</time>
      </trkpt>
      <trkpt lat="37.537500000" lon="-5.124907000">
        <ele>173.9</ele>
        <time>2020-10-12T11:16:32Z</time>
      </trkpt>
      <trkpt lat="37.537522000" lon="-5.124793000">
        <ele>174.0</ele>
        <time>2020-10-12T11:16:34Z</time>
      </trkpt>
      <trkpt lat="37.537536000" lon="-5.124676000">
        <ele>174.0</ele>
        <time>2020-10-12T11:16:36Z</time>
      </trkpt>
      <trkpt lat="37.537552000" lon="-5.124561000">
        <ele>173.9</ele>
        <time>2020-10-12T11:16:38Z</time>
      </trkpt>
      <trkpt lat="37.537563000" lon="-5.124449000">
        <ele>173.8</ele>
        <time>2020-10-12T11:16:40Z</time>
      </trkpt>
      <trkpt lat="37.537568000" lon="-5.124328000">
        <ele>173.6</ele>
        <time>2020-10-12T11:16:42Z</time>
      </trkpt>
      <trkpt lat="37.537568000" lon="-5.124213000">
        <ele>173.5</ele>
        <time>2020-10-12T11:16:44Z</time>
      </trkpt>
      <trkpt lat="37.537566000" lon="-5.124087000">
        <ele>173.2</ele>
        <time>2020-10-12T11:16:46Z</time>
      </trkpt>
      <trkpt lat="37.537573000" lon="-5.123967000">
        <ele>172.8</ele>
        <time>2020-10-12T11:16:48Z</time>
      </trkpt>
      <trkpt lat="37.537569000" lon="-5.123854000">
        <ele>172.4</ele>
        <time>2020-10-12T11:16:50Z</time>
      </trkpt>
      <trkpt lat="37.537566000" lon="-5.123733000">
        <ele>171.9</ele>
        <time>2020-10-12T11:16:52Z</time>
      </trkpt>
      <trkpt lat="37.537564000" lon="-5.123617000">
        <ele>171.5</ele>
        <time>2020-10-12T11:16:54Z</time>
      </trkpt>
      <trkpt lat="37.537563000" lon="-5.123490000">
        <ele>171.3</ele>
        <time>2020-10-12T11:16:56Z</time>
      </trkpt>
      <trkpt lat="37.537560000" lon="-5.123361000">
        <ele>171.1</ele>
        <time>2020-10-12T11:16:58Z</time>
      </trkpt>
      <trkpt lat="37.537557000" lon="-5.123238000">
        <ele>171.0</ele>
        <time>2020-10-12T11:17:00Z</time>
      </trkpt>
      <trkpt lat="37.537555000" lon="-5.123118000">
        <ele>170.9</ele>
        <time>2020-10-12T11:17:02Z</time>
      </trkpt>
      <trkpt lat="37.537552000" lon="-5.123004000">
        <ele>170.8</ele>
        <time>2020-10-12T11:17:04Z</time>
      </trkpt>
      <trkpt lat="37.537551000" lon="-5.122883000">
        <ele>170.7</ele>
        <time>2020-10-12T11:17:06Z</time>
      </trkpt>
      <trkpt lat="37.537551000" lon="-5.122758000">
        <ele>170.6</ele>
        <time>2020-10-12T11:17:08Z</time>
      </trkpt>
      <trkpt lat="37.537557000" lon="-5.122640000">
        <ele>170.5</ele>
        <time>2020-10-12T11:17:10Z</time>
      </trkpt>
      <trkpt lat="37.537559000" lon="-5.122516000">
        <ele>170.5</ele>
        <time>2020-10-12T11:17:12Z</time>
      </trkpt>
      <trkpt lat="37.537562000" lon="-5.122378000">
        <ele>170.5</ele>
        <time>2020-10-12T11:17:14Z</time>
      </trkpt>
      <trkpt lat="37.537555000" lon="-5.122259000">
        <ele>170.5</ele>
        <time>2020-10-12T11:17:16Z</time>
      </trkpt>
      <trkpt lat="37.537549000" lon="-5.122132000">
        <ele>170.6</ele>
        <time>2020-10-12T11:17:18Z</time>
      </trkpt>
      <trkpt lat="37.537548000" lon="-5.121999000">
        <ele>170.7</ele>
        <time>2020-10-12T11:17:20Z</time>
      </trkpt>
      <trkpt lat="37.537548000" lon="-5.121860000">
        <ele>170.8</ele>
        <time>2020-10-12T11:17:22Z</time>
      </trkpt>
      <trkpt lat="37.537546000" lon="-5.121724000">
        <ele>170.8</ele>
        <time>2020-10-12T11:17:24Z</time>
      </trkpt>
      <trkpt lat="37.537549000" lon="-5.121596000">
        <ele>170.8</ele>
        <time>2020-10-12T11:17:26Z</time>
      </trkpt>
      <trkpt lat="37.537541000" lon="-5.121463000">
        <ele>170.8</ele>
        <time>2020-10-12T11:17:28Z</time>
      </trkpt>
      <trkpt lat="37.537537000" lon="-5.121325000">
        <ele>170.7</ele>
        <time>2020-10-12T11:17:30Z</time>
      </trkpt>
      <trkpt lat="37.537531000" lon="-5.121188000">
        <ele>170.7</ele>
        <time>2020-10-12T11:17:32Z</time>
      </trkpt>
      <trkpt lat="37.537522000" lon="-5.121049000">
        <ele>170.7</ele>
        <time>2020-10-12T11:17:34Z</time>
      </trkpt>
      <trkpt lat="37.537508000" lon="-5.120906000">
        <ele>170.8</ele>
        <time>2020-10-12T11:17:36Z</time>
      </trkpt>
      <trkpt lat="37.537506000" lon="-5.120768000">
        <ele>170.9</ele>
        <time>2020-10-12T11:17:38Z</time>
      </trkpt>
      <trkpt lat="37.537498000" lon="-5.120628000">
        <ele>170.9</ele>
        <time>2020-10-12T11:17:40Z</time>
      </trkpt>
      <trkpt lat="37.537492000" lon="-5.120494000">
        <ele>170.7</ele>
        <time>2020-10-12T11:17:42Z</time>
      </trkpt>
      <trkpt lat="37.537485000" lon="-5.120366000">
        <ele>170.5</ele>
        <time>2020-10-12T11:17:44Z</time>
      </trkpt>
      <trkpt lat="37.537484000" lon="-5.120236000">
        <ele>170.4</ele>
        <time>2020-10-12T11:17:46Z</time>
      </trkpt>
      <trkpt lat="37.537476000" lon="-5.120109000">
        <ele>170.1</ele>
        <time>2020-10-12T11:17:48Z</time>
      </trkpt>
      <trkpt lat="37.537474000" lon="-5.119983000">
        <ele>169.7</ele>
        <time>2020-10-12T11:17:50Z</time>
      </trkpt>
      <trkpt lat="37.537470000" lon="-5.119863000">
        <ele>169.5</ele>
        <time>2020-10-12T11:17:52Z</time>
      </trkpt>
      <trkpt lat="37.537466000" lon="-5.119738000">
        <ele>169.1</ele>
        <time>2020-10-12T11:17:54Z</time>
      </trkpt>
      <trkpt lat="37.537455000" lon="-5.119610000">
        <ele>168.7</ele>
        <time>2020-10-12T11:17:56Z</time>
      </trkpt>
      <trkpt lat="37.537446000" lon="-5.119481000">
        <ele>168.3</ele>
        <time>2020-10-12T11:17:58Z</time>
      </trkpt>
      <trkpt lat="37.537434000" lon="-5.119353000">
        <ele>167.8</ele>
        <time>2020-10-12T11:18:00Z</time>
      </trkpt>
      <trkpt lat="37.537422000" lon="-5.119230000">
        <ele>167.3</ele>
        <time>2020-10-12T11:18:02Z</time>
      </trkpt>
      <trkpt lat="37.537401000" lon="-5.119110000">
        <ele>166.7</ele>
        <time>2020-10-12T11:18:04Z</time>
      </trkpt>
      <trkpt lat="37.537386000" lon="-5.118997000">
        <ele>166.2</ele>
        <time>2020-10-12T11:18:06Z</time>
      </trkpt>
      <trkpt lat="37.537370000" lon="-5.118881000">
        <ele>165.6</ele>
        <time>2020-10-12T11:18:08Z</time>
      </trkpt>
      <trkpt lat="37.537350000" lon="-5.118761000">
        <ele>165.2</ele>
        <time>2020-10-12T11:18:10Z</time>
      </trkpt>
      <trkpt lat="37.537325000" lon="-5.118640000">
        <ele>164.8</ele>
        <time>2020-10-12T11:18:12Z</time>
      </trkpt>
      <trkpt lat="37.537287000" lon="-5.118522000">
        <ele>164.5</ele>
        <time>2020-10-12T11:18:14Z</time>
      </trkpt>
      <trkpt lat="37.537256000" lon="-5.118405000">
        <ele>164.1</ele>
        <time>2020-10-12T11:18:16Z</time>
      </trkpt>
      <trkpt lat="37.537226000" lon="-5.118294000">
        <ele>163.8</ele>
        <time>2020-10-12T11:18:18Z</time>
      </trkpt>
      <trkpt lat="37.537194000" lon="-5.118179000">
        <ele>163.5</ele>
        <time>2020-10-12T11:18:20Z</time>
      </trkpt>
      <trkpt lat="37.537156000" lon="-5.118065000">
        <ele>163.2</ele>
        <time>2020-10-12T11:18:22Z</time>
      </trkpt>
      <trkpt lat="37.537126000" lon="-5.117940000">
        <ele>163.0</ele>
        <time>2020-10-12T11:18:24Z</time>
      </trkpt>
      <trkpt lat="37.537083000" lon="-5.117824000">
        <ele>162.9</ele>
        <time>2020-10-12T11:18:26Z</time>
      </trkpt>
      <trkpt lat="37.537041000" lon="-5.117704000">
        <ele>162.8</ele>
        <time>2020-10-12T11:18:28Z</time>
      </trkpt>
      <trkpt lat="37.536996000" lon="-5.117587000">
        <ele>162.7</ele>
        <time>2020-10-12T11:18:30Z</time>
      </trkpt>
      <trkpt lat="37.536951000" lon="-5.117480000">
        <ele>162.6</ele>
        <time>2020-10-12T11:18:32Z</time>
      </trkpt>
      <trkpt lat="37.536891000" lon="-5.117376000">
        <ele>162.5</ele>
        <time>2020-10-12T11:18:34Z</time>
      </trkpt>
      <trkpt lat="37.536833000" lon="-5.117277000">
        <ele>162.3</ele>
        <time>2020-10-12T11:18:36Z</time>
      </trkpt>
      <trkpt lat="37.536772000" lon="-5.117177000">
        <ele>162.1</ele>
        <time>2020-10-12T11:18:38Z</time>
      </trkpt>
      <trkpt lat="37.536706000" lon="-5.117071000">
        <ele>161.8</ele>
        <time>2020-10-12T11:18:40Z</time>
      </trkpt>
      <trkpt lat="37.536645000" lon="-5.116975000">
        <ele>161.5</ele>
        <time>2020-10-12T11:18:42Z</time>
      </trkpt>
      <trkpt lat="37.536588000" lon="-5.116863000">
        <ele>161.4</ele>
        <time>2020-10-12T11:18:44Z</time>
      </trkpt>
      <trkpt lat="37.536533000" lon="-5.116755000">
        <ele>161.2</ele>
        <time>2020-10-12T11:18:46Z</time>
      </trkpt>
      <trkpt lat="37.536472000" lon="-5.116662000">
        <ele>161.0</ele>
        <time>2020-10-12T11:18:48Z</time>
      </trkpt>
      <trkpt lat="37.536412000" lon="-5.116552000">
        <ele>160.8</ele>
        <time>2020-10-12T11:18:50Z</time>
      </trkpt>
      <trkpt lat="37.536364000" lon="-5.116443000">
        <ele>160.7</ele>
        <time>2020-10-12T11:18:52Z</time>
      </trkpt>
      <trkpt lat="37.536322000" lon="-5.116325000">
        <ele>160.7</ele>
        <time>2020-10-12T11:18:54Z</time>
      </trkpt>
      <trkpt lat="37.536276000" lon="-5.116218000">
        <ele>160.8</ele>
        <time>2020-10-12T11:18:56Z</time>
      </trkpt>
      <trkpt lat="37.536225000" lon="-5.116123000">
        <ele>160.9</ele>
        <time>2020-10-12T11:18:58Z</time>
      </trkpt>
      <trkpt lat="37.536177000" lon="-5.116017000">
        <ele>161.1</ele>
        <time>2020-10-12T11:19:00Z</time>
      </trkpt>
      <trkpt lat="37.536134000" lon="-5.115917000">
        <ele>161.2</ele>
        <time>2020-10-12T11:19:02Z</time>
      </trkpt>
      <trkpt lat="37.536087000" lon="-5.115816000">
        <ele>161.3</ele>
        <time>2020-10-12T11:19:04Z</time>
      </trkpt>
      <trkpt lat="37.536042000" lon="-5.115714000">
        <ele>161.3</ele>
        <time>2020-10-12T11:19:06Z</time>
      </trkpt>
      <trkpt lat="37.535992000" lon="-5.115614000">
        <ele>161.1</ele>
        <time>2020-10-12T11:19:08Z</time>
      </trkpt>
      <trkpt lat="37.535945000" lon="-5.115515000">
        <ele>160.9</ele>
        <time>2020-10-12T11:19:10Z</time>
      </trkpt>
      <trkpt lat="37.535885000" lon="-5.115408000">
        <ele>160.7</ele>
        <time>2020-10-12T11:19:12Z</time>
      </trkpt>
      <trkpt lat="37.535834000" lon="-5.115310000">
        <ele>160.6</ele>
        <time>2020-10-12T11:19:14Z</time>
      </trkpt>
      <trkpt lat="37.535784000" lon="-5.115206000">
        <ele>160.5</ele>
        <time>2020-10-12T11:19:16Z</time>
      </trkpt>
      <trkpt lat="37.535734000" lon="-5.115107000">
        <ele>160.5</ele>
        <time>2020-10-12T11:19:18Z</time>
      </trkpt>
      <trkpt lat="37.535674000" lon="-5.114997000">
        <ele>160.5</ele>
        <time>2020-10-12T11:19:20Z</time>
      </trkpt>
      <trkpt lat="37.535614000" lon="-5.114895000">
        <ele>160.4</ele>
        <time>2020-10-12T11:19:22Z</time>
      </trkpt>
      <trkpt lat="37.535555000" lon="-5.114788000">
        <ele>160.4</ele>
        <time>2020-10-12T11:19:24Z</time>
      </trkpt>
      <trkpt lat="37.535502000" lon="-5.114675000">
        <ele>160.3</ele>
        <time>2020-10-12T11:19:26Z</time>
      </trkpt>
      <trkpt lat="37.535443000" lon="-5.114573000">
        <ele>160.2</ele>
        <time>2020-10-12T11:19:28Z</time>
      </trkpt>
      <trkpt lat="37.535390000" lon="-5.114479000">
        <ele>160.1</ele>
        <time>2020-10-12T11:19:30Z</time>
      </trkpt>
      <trkpt lat="37.535330000" lon="-5.114375000">
        <ele>160.0</ele>
        <time>2020-10-12T11:19:32Z</time>
      </trkpt>
      <trkpt lat="37.535274000" lon="-5.114275000">
        <ele>159.9</ele>
        <time>2020-10-12T11:19:34Z</time>
      </trkpt>
      <trkpt lat="37.535222000" lon="-5.114175000">
        <ele>159.6</ele>
        <time>2020-10-12T11:19:36Z</time>
      </trkpt>
      <trkpt lat="37.535172000" lon="-5.114071000">
        <ele>159.3</ele>
        <time>2020-10-12T11:19:38Z</time>
      </trkpt>
      <trkpt lat="37.535120000" lon="-5.113968000">
        <ele>158.9</ele>
        <time>2020-10-12T11:19:40Z</time>
      </trkpt>
      <trkpt lat="37.535071000" lon="-5.113860000">
        <ele>158.5</ele>
        <time>2020-10-12T11:19:42Z</time>
      </trkpt>
      <trkpt lat="37.535016000" lon="-5.113764000">
        <ele>158.1</ele>
        <time>2020-10-12T11:19:44Z</time>
      </trkpt>
      <trkpt lat="37.534962000" lon="-5.113663000">
        <ele>157.7</ele>
        <time>2020-10-12T11:19:46Z</time>
      </trkpt>
      <trkpt lat="37.534916000" lon="-5.113574000">
        <ele>157.5</ele>
        <time>2020-10-12T11:19:48Z</time>
      </trkpt>
      <trkpt lat="37.534852000" lon="-5.113492000">
        <ele>157.2</ele>
        <time>2020-10-12T11:19:51Z</time>
      </trkpt>
      <trkpt lat="37.534790000" lon="-5.113422000">
        <ele>157.0</ele>
        <time>2020-10-12T11:19:57Z</time>
      </trkpt>
      <trkpt lat="37.534709000" lon="-5.113363000">
        <ele>156.8</ele>
        <time>2020-10-12T11:20:02Z</time>
      </trkpt>
      <trkpt lat="37.534637000" lon="-5.113272000">
        <ele>156.6</ele>
        <time>2020-10-12T11:20:05Z</time>
      </trkpt>
      <trkpt lat="37.534565000" lon="-5.113147000">
        <ele>156.5</ele>
        <time>2020-10-12T11:20:08Z</time>
      </trkpt>
      <trkpt lat="37.534516000" lon="-5.113056000">
        <ele>156.5</ele>
        <time>2020-10-12T11:20:10Z</time>
      </trkpt>
      <trkpt lat="37.534466000" lon="-5.112948000">
        <ele>156.3</ele>
        <time>2020-10-12T11:20:12Z</time>
      </trkpt>
      <trkpt lat="37.534409000" lon="-5.112845000">
        <ele>156.0</ele>
        <time>2020-10-12T11:20:14Z</time>
      </trkpt>
      <trkpt lat="37.534357000" lon="-5.112745000">
        <ele>155.7</ele>
        <time>2020-10-12T11:20:16Z</time>
      </trkpt>
      <trkpt lat="37.534294000" lon="-5.112643000">
        <ele>155.4</ele>
        <time>2020-10-12T11:20:18Z</time>
      </trkpt>
      <trkpt lat="37.534245000" lon="-5.112534000">
        <ele>155.0</ele>
        <time>2020-10-12T11:20:20Z</time>
      </trkpt>
      <trkpt lat="37.534184000" lon="-5.112433000">
        <ele>154.6</ele>
        <time>2020-10-12T11:20:22Z</time>
      </trkpt>
      <trkpt lat="37.534126000" lon="-5.112316000">
        <ele>154.4</ele>
        <time>2020-10-12T11:20:24Z</time>
      </trkpt>
      <trkpt lat="37.534065000" lon="-5.112203000">
        <ele>154.1</ele>
        <time>2020-10-12T11:20:26Z</time>
      </trkpt>
      <trkpt lat="37.534005000" lon="-5.112096000">
        <ele>153.8</ele>
        <time>2020-10-12T11:20:28Z</time>
      </trkpt>
      <trkpt lat="37.533938000" lon="-5.111984000">
        <ele>153.5</ele>
        <time>2020-10-12T11:20:30Z</time>
      </trkpt>
      <trkpt lat="37.533874000" lon="-5.111868000">
        <ele>153.0</ele>
        <time>2020-10-12T11:20:32Z</time>
      </trkpt>
      <trkpt lat="37.533819000" lon="-5.111749000">
        <ele>152.5</ele>
        <time>2020-10-12T11:20:34Z</time>
      </trkpt>
      <trkpt lat="37.533755000" lon="-5.111627000">
        <ele>152.2</ele>
        <time>2020-10-12T11:20:36Z</time>
      </trkpt>
      <trkpt lat="37.533697000" lon="-5.111514000">
        <ele>151.8</ele>
        <time>2020-10-12T11:20:38Z</time>
      </trkpt>
      <trkpt lat="37.533629000" lon="-5.111398000">
        <ele>151.6</ele>
        <time>2020-10-12T11:20:40Z</time>
      </trkpt>
      <trkpt lat="37.533564000" lon="-5.111276000">
        <ele>151.5</ele>
        <time>2020-10-12T11:20:42Z</time>
      </trkpt>
      <trkpt lat="37.533501000" lon="-5.111150000">
        <ele>151.5</ele>
        <time>2020-10-12T11:20:44Z</time>
      </trkpt>
      <trkpt lat="37.533442000" lon="-5.111010000">
        <ele>151.3</ele>
        <time>2020-10-12T11:20:46Z</time>
      </trkpt>
      <trkpt lat="37.533384000" lon="-5.110867000">
        <ele>151.1</ele>
        <time>2020-10-12T11:20:48Z</time>
      </trkpt>
      <trkpt lat="37.533330000" lon="-5.110723000">
        <ele>150.9</ele>
        <time>2020-10-12T11:20:50Z</time>
      </trkpt>
      <trkpt lat="37.533277000" lon="-5.110578000">
        <ele>150.8</ele>
        <time>2020-10-12T11:20:52Z</time>
      </trkpt>
      <trkpt lat="37.533220000" lon="-5.110431000">
        <ele>150.8</ele>
        <time>2020-10-12T11:20:54Z</time>
      </trkpt>
      <trkpt lat="37.533170000" lon="-5.110292000">
        <ele>150.9</ele>
        <time>2020-10-12T11:20:56Z</time>
      </trkpt>
      <trkpt lat="37.533117000" lon="-5.110151000">
        <ele>150.9</ele>
        <time>2020-10-12T11:20:58Z</time>
      </trkpt>
      <trkpt lat="37.533063000" lon="-5.110006000">
        <ele>150.8</ele>
        <time>2020-10-12T11:21:00Z</time>
      </trkpt>
      <trkpt lat="37.533011000" lon="-5.109862000">
        <ele>150.6</ele>
        <time>2020-10-12T11:21:02Z</time>
      </trkpt>
      <trkpt lat="37.532965000" lon="-5.109719000">
        <ele>150.4</ele>
        <time>2020-10-12T11:21:04Z</time>
      </trkpt>
      <trkpt lat="37.532931000" lon="-5.109574000">
        <ele>150.3</ele>
        <time>2020-10-12T11:21:06Z</time>
      </trkpt>
      <trkpt lat="37.532892000" lon="-5.109425000">
        <ele>150.2</ele>
        <time>2020-10-12T11:21:08Z</time>
      </trkpt>
      <trkpt lat="37.532860000" lon="-5.109277000">
        <ele>150.0</ele>
        <time>2020-10-12T11:21:10Z</time>
      </trkpt>
      <trkpt lat="37.532837000" lon="-5.109129000">
        <ele>149.7</ele>
        <time>2020-10-12T11:21:12Z</time>
      </trkpt>
      <trkpt lat="37.532816000" lon="-5.108975000">
        <ele>149.4</ele>
        <time>2020-10-12T11:21:14Z</time>
      </trkpt>
      <trkpt lat="37.532804000" lon="-5.108817000">
        <ele>149.0</ele>
        <time>2020-10-12T11:21:16Z</time>
      </trkpt>
      <trkpt lat="37.532792000" lon="-5.108661000">
        <ele>148.5</ele>
        <time>2020-10-12T11:21:18Z</time>
      </trkpt>
      <trkpt lat="37.532791000" lon="-5.108498000">
        <ele>148.1</ele>
        <time>2020-10-12T11:21:20Z</time>
      </trkpt>
      <trkpt lat="37.532794000" lon="-5.108335000">
        <ele>147.6</ele>
        <time>2020-10-12T11:21:22Z</time>
      </trkpt>
      <trkpt lat="37.532802000" lon="-5.108180000">
        <ele>147.1</ele>
        <time>2020-10-12T11:21:24Z</time>
      </trkpt>
      <trkpt lat="37.532813000" lon="-5.108029000">
        <ele>146.5</ele>
        <time>2020-10-12T11:21:26Z</time>
      </trkpt>
      <trkpt lat="37.532817000" lon="-5.107882000">
        <ele>145.9</ele>
        <time>2020-10-12T11:21:28Z</time>
      </trkpt>
      <trkpt lat="37.532829000" lon="-5.107739000">
        <ele>145.3</ele>
        <time>2020-10-12T11:21:30Z</time>
      </trkpt>
      <trkpt lat="37.532839000" lon="-5.107589000">
        <ele>144.7</ele>
        <time>2020-10-12T11:21:32Z</time>
      </trkpt>
      <trkpt lat="37.532853000" lon="-5.107441000">
        <ele>144.4</ele>
        <time>2020-10-12T11:21:34Z</time>
      </trkpt>
      <trkpt lat="37.532869000" lon="-5.107293000">
        <ele>144.1</ele>
        <time>2020-10-12T11:21:36Z</time>
      </trkpt>
      <trkpt lat="37.532887000" lon="-5.107139000">
        <ele>143.8</ele>
        <time>2020-10-12T11:21:38Z</time>
      </trkpt>
      <trkpt lat="37.532910000" lon="-5.106995000">
        <ele>143.6</ele>
        <time>2020-10-12T11:21:40Z</time>
      </trkpt>
      <trkpt lat="37.532925000" lon="-5.106846000">
        <ele>143.5</ele>
        <time>2020-10-12T11:21:42Z</time>
      </trkpt>
      <trkpt lat="37.532952000" lon="-5.106701000">
        <ele>143.5</ele>
        <time>2020-10-12T11:21:44Z</time>
      </trkpt>
      <trkpt lat="37.532971000" lon="-5.106555000">
        <ele>143.6</ele>
        <time>2020-10-12T11:21:46Z</time>
      </trkpt>
      <trkpt lat="37.532999000" lon="-5.106402000">
        <ele>143.6</ele>
        <time>2020-10-12T11:21:48Z</time>
      </trkpt>
      <trkpt lat="37.533025000" lon="-5.106256000">
        <ele>143.6</ele>
        <time>2020-10-12T11:21:50Z</time>
      </trkpt>
      <trkpt lat="37.533044000" lon="-5.106111000">
        <ele>143.5</ele>
        <time>2020-10-12T11:21:52Z</time>
      </trkpt>
      <trkpt lat="37.533070000" lon="-5.105974000">
        <ele>143.3</ele>
        <time>2020-10-12T11:21:54Z</time>
      </trkpt>
      <trkpt lat="37.533091000" lon="-5.105840000">
        <ele>142.8</ele>
        <time>2020-10-12T11:21:56Z</time>
      </trkpt>
      <trkpt lat="37.533107000" lon="-5.105707000">
        <ele>142.3</ele>
        <time>2020-10-12T11:21:58Z</time>
      </trkpt>
      <trkpt lat="37.533127000" lon="-5.105570000">
        <ele>141.6</ele>
        <time>2020-10-12T11:22:00Z</time>
      </trkpt>
      <trkpt lat="37.533150000" lon="-5.105433000">
        <ele>140.9</ele>
        <time>2020-10-12T11:22:02Z</time>
      </trkpt>
      <trkpt lat="37.533173000" lon="-5.105296000">
        <ele>140.1</ele>
        <time>2020-10-12T11:22:04Z</time>
      </trkpt>
      <trkpt lat="37.533186000" lon="-5.105155000">
        <ele>139.2</ele>
        <time>2020-10-12T11:22:06Z</time>
      </trkpt>
      <trkpt lat="37.533206000" lon="-5.105019000">
        <ele>138.3</ele>
        <time>2020-10-12T11:22:08Z</time>
      </trkpt>
      <trkpt lat="37.533229000" lon="-5.104889000">
        <ele>137.5</ele>
        <time>2020-10-12T11:22:10Z</time>
      </trkpt>
      <trkpt lat="37.533251000" lon="-5.104754000">
        <ele>136.9</ele>
        <time>2020-10-12T11:22:12Z</time>
      </trkpt>
      <trkpt lat="37.533270000" lon="-5.104625000">
        <ele>136.5</ele>
        <time>2020-10-12T11:22:14Z</time>
      </trkpt>
      <trkpt lat="37.533290000" lon="-5.104495000">
        <ele>136.5</ele>
        <time>2020-10-12T11:22:16Z</time>
      </trkpt>
      <trkpt lat="37.533301000" lon="-5.104361000">
        <ele>136.5</ele>
        <time>2020-10-12T11:22:18Z</time>
      </trkpt>
      <trkpt lat="37.533327000" lon="-5.104224000">
        <ele>136.6</ele>
        <time>2020-10-12T11:22:20Z</time>
      </trkpt>
      <trkpt lat="37.533352000" lon="-5.104087000">
        <ele>137.0</ele>
        <time>2020-10-12T11:22:22Z</time>
      </trkpt>
      <trkpt lat="37.533376000" lon="-5.103941000">
        <ele>137.5</ele>
        <time>2020-10-12T11:22:24Z</time>
      </trkpt>
      <trkpt lat="37.533401000" lon="-5.103790000">
        <ele>138.0</ele>
        <time>2020-10-12T11:22:26Z</time>
      </trkpt>
      <trkpt lat="37.533425000" lon="-5.103635000">
        <ele>138.6</ele>
        <time>2020-10-12T11:22:28Z</time>
      </trkpt>
      <trkpt lat="37.533457000" lon="-5.103481000">
        <ele>139.2</ele>
        <time>2020-10-12T11:22:30Z</time>
      </trkpt>
      <trkpt lat="37.533478000" lon="-5.103326000">
        <ele>139.6</ele>
        <time>2020-10-12T11:22:32Z</time>
      </trkpt>
      <trkpt lat="37.533506000" lon="-5.103168000">
        <ele>139.9</ele>
        <time>2020-10-12T11:22:34Z</time>
      </trkpt>
      <trkpt lat="37.533543000" lon="-5.103017000">
        <ele>139.9</ele>
        <time>2020-10-12T11:22:36Z</time>
      </trkpt>
      <trkpt lat="37.533575000" lon="-5.102862000">
        <ele>139.8</ele>
        <time>2020-10-12T11:22:38Z</time>
      </trkpt>
      <trkpt lat="37.533604000" lon="-5.102714000">
        <ele>139.7</ele>
        <time>2020-10-12T11:22:40Z</time>
      </trkpt>
      <trkpt lat="37.533624000" lon="-5.102579000">
        <ele>139.5</ele>
        <time>2020-10-12T11:22:42Z</time>
      </trkpt>
      <trkpt lat="37.533650000" lon="-5.102447000">
        <ele>139.1</ele>
        <time>2020-10-12T11:22:44Z</time>
      </trkpt>
      <trkpt lat="37.533683000" lon="-5.102316000">
        <ele>138.8</ele>
        <time>2020-10-12T11:22:46Z</time>
      </trkpt>
      <trkpt lat="37.533713000" lon="-5.102185000">
        <ele>138.5</ele>
        <time>2020-10-12T11:22:48Z</time>
      </trkpt>
      <trkpt lat="37.533740000" lon="-5.102056000">
        <ele>138.1</ele>
        <time>2020-10-12T11:22:50Z</time>
      </trkpt>
      <trkpt lat="37.533771000" lon="-5.101920000">
        <ele>137.7</ele>
        <time>2020-10-12T11:22:52Z</time>
      </trkpt>
      <trkpt lat="37.533801000" lon="-5.101784000">
        <ele>137.4</ele>
        <time>2020-10-12T11:22:54Z</time>
      </trkpt>
      <trkpt lat="37.533839000" lon="-5.101638000">
        <ele>137.1</ele>
        <time>2020-10-12T11:22:56Z</time>
      </trkpt>
      <trkpt lat="37.533873000" lon="-5.101495000">
        <ele>136.8</ele>
        <time>2020-10-12T11:22:58Z</time>
      </trkpt>
      <trkpt lat="37.533907000" lon="-5.101353000">
        <ele>136.5</ele>
        <time>2020-10-12T11:23:00Z</time>
      </trkpt>
      <trkpt lat="37.533946000" lon="-5.101211000">
        <ele>136.1</ele>
        <time>2020-10-12T11:23:02Z</time>
      </trkpt>
      <trkpt lat="37.533981000" lon="-5.101064000">
        <ele>135.8</ele>
        <time>2020-10-12T11:23:04Z</time>
      </trkpt>
      <trkpt lat="37.534013000" lon="-5.100919000">
        <ele>135.5</ele>
        <time>2020-10-12T11:23:06Z</time>
      </trkpt>
      <trkpt lat="37.534044000" lon="-5.100769000">
        <ele>135.2</ele>
        <time>2020-10-12T11:23:08Z</time>
      </trkpt>
      <trkpt lat="37.534077000" lon="-5.100622000">
        <ele>134.9</ele>
        <time>2020-10-12T11:23:10Z</time>
      </trkpt>
      <trkpt lat="37.534108000" lon="-5.100476000">
        <ele>134.6</ele>
        <time>2020-10-12T11:23:12Z</time>
      </trkpt>
      <trkpt lat="37.534145000" lon="-5.100325000">
        <ele>134.4</ele>
        <time>2020-10-12T11:23:14Z</time>
      </trkpt>
      <trkpt lat="37.534183000" lon="-5.100165000">
        <ele>134.1</ele>
        <time>2020-10-12T11:23:16Z</time>
      </trkpt>
      <trkpt lat="37.534224000" lon="-5.100008000">
        <ele>133.7</ele>
        <time>2020-10-12T11:23:18Z</time>
      </trkpt>
      <trkpt lat="37.534262000" lon="-5.099853000">
        <ele>133.5</ele>
        <time>2020-10-12T11:23:20Z</time>
      </trkpt>
      <trkpt lat="37.534295000" lon="-5.099703000">
        <ele>133.3</ele>
        <time>2020-10-12T11:23:22Z</time>
      </trkpt>
      <trkpt lat="37.534329000" lon="-5.099564000">
        <ele>133.0</ele>
        <time>2020-10-12T11:23:24Z</time>
      </trkpt>
      <trkpt lat="37.534366000" lon="-5.099427000">
        <ele>132.7</ele>
        <time>2020-10-12T11:23:26Z</time>
      </trkpt>
      <trkpt lat="37.534405000" lon="-5.099288000">
        <ele>132.5</ele>
        <time>2020-10-12T11:23:28Z</time>
      </trkpt>
      <trkpt lat="37.534444000" lon="-5.099162000">
        <ele>132.2</ele>
        <time>2020-10-12T11:23:30Z</time>
      </trkpt>
      <trkpt lat="37.534485000" lon="-5.099038000">
        <ele>131.9</ele>
        <time>2020-10-12T11:23:32Z</time>
      </trkpt>
      <trkpt lat="37.534527000" lon="-5.098914000">
        <ele>131.6</ele>
        <time>2020-10-12T11:23:34Z</time>
      </trkpt>
      <trkpt lat="37.534572000" lon="-5.098786000">
        <ele>131.5</ele>
        <time>2020-10-12T11:23:36Z</time>
      </trkpt>
      <trkpt lat="37.534621000" lon="-5.098646000">
        <ele>131.2</ele>
        <time>2020-10-12T11:23:38Z</time>
      </trkpt>
      <trkpt lat="37.534666000" lon="-5.098505000">
        <ele>131.0</ele>
        <time>2020-10-12T11:23:40Z</time>
      </trkpt>
      <trkpt lat="37.534708000" lon="-5.098371000">
        <ele>130.7</ele>
        <time>2020-10-12T11:23:42Z</time>
      </trkpt>
      <trkpt lat="37.534753000" lon="-5.098242000">
        <ele>130.5</ele>
        <time>2020-10-12T11:23:44Z</time>
      </trkpt>
      <trkpt lat="37.534806000" lon="-5.098121000">
        <ele>130.2</ele>
        <time>2020-10-12T11:23:46Z</time>
      </trkpt>
      <trkpt lat="37.534851000" lon="-5.098002000">
        <ele>129.9</ele>
        <time>2020-10-12T11:23:48Z</time>
      </trkpt>
      <trkpt lat="37.534910000" lon="-5.097885000">
        <ele>129.6</ele>
        <time>2020-10-12T11:23:50Z</time>
      </trkpt>
      <trkpt lat="37.534969000" lon="-5.097768000">
        <ele>129.3</ele>
        <time>2020-10-12T11:23:52Z</time>
      </trkpt>
      <trkpt lat="37.535034000" lon="-5.097647000">
        <ele>128.9</ele>
        <time>2020-10-12T11:23:54Z</time>
      </trkpt>
      <trkpt lat="37.535096000" lon="-5.097533000">
        <ele>128.5</ele>
        <time>2020-10-12T11:23:56Z</time>
      </trkpt>
      <trkpt lat="37.535161000" lon="-5.097427000">
        <ele>128.2</ele>
        <time>2020-10-12T11:23:58Z</time>
      </trkpt>
      <trkpt lat="37.535230000" lon="-5.097320000">
        <ele>127.8</ele>
        <time>2020-10-12T11:24:00Z</time>
      </trkpt>
      <trkpt lat="37.535306000" lon="-5.097209000">
        <ele>127.4</ele>
        <time>2020-10-12T11:24:02Z</time>
      </trkpt>
      <trkpt lat="37.535382000" lon="-5.097097000">
        <ele>127.0</ele>
        <time>2020-10-12T11:24:04Z</time>
      </trkpt>
      <trkpt lat="37.535455000" lon="-5.096986000">
        <ele>126.6</ele>
        <time>2020-10-12T11:24:06Z</time>
      </trkpt>
      <trkpt lat="37.535537000" lon="-5.096870000">
        <ele>126.4</ele>
        <time>2020-10-12T11:24:08Z</time>
      </trkpt>
      <trkpt lat="37.535610000" lon="-5.096747000">
        <ele>126.1</ele>
        <time>2020-10-12T11:24:10Z</time>
      </trkpt>
      <trkpt lat="37.535686000" lon="-5.096629000">
        <ele>125.7</ele>
        <time>2020-10-12T11:24:12Z</time>
      </trkpt>
      <trkpt lat="37.535764000" lon="-5.096510000">
        <ele>125.4</ele>
        <time>2020-10-12T11:24:14Z</time>
      </trkpt>
      <trkpt lat="37.535840000" lon="-5.096393000">
        <ele>124.9</ele>
        <time>2020-10-12T11:24:16Z</time>
      </trkpt>
      <trkpt lat="37.535914000" lon="-5.096273000">
        <ele>124.4</ele>
        <time>2020-10-12T11:24:18Z</time>
      </trkpt>
      <trkpt lat="37.535999000" lon="-5.096159000">
        <ele>123.6</ele>
        <time>2020-10-12T11:24:20Z</time>
      </trkpt>
      <trkpt lat="37.536076000" lon="-5.096046000">
        <ele>123.0</ele>
        <time>2020-10-12T11:24:22Z</time>
      </trkpt>
      <trkpt lat="37.536155000" lon="-5.095927000">
        <ele>122.5</ele>
        <time>2020-10-12T11:24:24Z</time>
      </trkpt>
      <trkpt lat="37.536235000" lon="-5.095805000">
        <ele>122.2</ele>
        <time>2020-10-12T11:24:26Z</time>
      </trkpt>
      <trkpt lat="37.536314000" lon="-5.095685000">
        <ele>122.0</ele>
        <time>2020-10-12T11:24:28Z</time>
      </trkpt>
      <trkpt lat="37.536397000" lon="-5.095568000">
        <ele>121.9</ele>
        <time>2020-10-12T11:24:30Z</time>
      </trkpt>
      <trkpt lat="37.536481000" lon="-5.095439000">
        <ele>121.8</ele>
        <time>2020-10-12T11:24:32Z</time>
      </trkpt>
      <trkpt lat="37.536572000" lon="-5.095310000">
        <ele>121.8</ele>
        <time>2020-10-12T11:24:34Z</time>
      </trkpt>
      <trkpt lat="37.536654000" lon="-5.095183000">
        <ele>121.9</ele>
        <time>2020-10-12T11:24:36Z</time>
      </trkpt>
      <trkpt lat="37.536736000" lon="-5.095054000">
        <ele>122.0</ele>
        <time>2020-10-12T11:24:38Z</time>
      </trkpt>
      <trkpt lat="37.536812000" lon="-5.094928000">
        <ele>122.2</ele>
        <time>2020-10-12T11:24:40Z</time>
      </trkpt>
      <trkpt lat="37.536877000" lon="-5.094793000">
        <ele>122.5</ele>
        <time>2020-10-12T11:24:42Z</time>
      </trkpt>
      <trkpt lat="37.536944000" lon="-5.094659000">
        <ele>122.8</ele>
        <time>2020-10-12T11:24:44Z</time>
      </trkpt>
      <trkpt lat="37.537001000" lon="-5.094532000">
        <ele>123.1</ele>
        <time>2020-10-12T11:24:46Z</time>
      </trkpt>
      <trkpt lat="37.537056000" lon="-5.094406000">
        <ele>123.3</ele>
        <time>2020-10-12T11:24:48Z</time>
      </trkpt>
      <trkpt lat="37.537113000" lon="-5.094280000">
        <ele>123.3</ele>
        <time>2020-10-12T11:24:50Z</time>
      </trkpt>
      <trkpt lat="37.537168000" lon="-5.094154000">
        <ele>123.2</ele>
        <time>2020-10-12T11:24:52Z</time>
      </trkpt>
      <trkpt lat="37.537214000" lon="-5.094031000">
        <ele>123.1</ele>
        <time>2020-10-12T11:24:54Z</time>
      </trkpt>
      <trkpt lat="37.537262000" lon="-5.093910000">
        <ele>123.0</ele>
        <time>2020-10-12T11:24:56Z</time>
      </trkpt>
      <trkpt lat="37.537296000" lon="-5.093792000">
        <ele>122.8</ele>
        <time>2020-10-12T11:24:58Z</time>
      </trkpt>
      <trkpt lat="37.537344000" lon="-5.093672000">
        <ele>122.8</ele>
        <time>2020-10-12T11:25:00Z</time>
      </trkpt>
      <trkpt lat="37.537384000" lon="-5.093567000">
        <ele>122.7</ele>
        <time>2020-10-12T11:25:02Z</time>
      </trkpt>
      <trkpt lat="37.537418000" lon="-5.093462000">
        <ele>122.5</ele>
        <time>2020-10-12T11:25:04Z</time>
      </trkpt>
      <trkpt lat="37.537452000" lon="-5.093319000">
        <ele>122.5</ele>
        <time>2020-10-12T11:25:07Z</time>
      </trkpt>
      <trkpt lat="37.537497000" lon="-5.093190000">
        <ele>122.2</ele>
        <time>2020-10-12T11:25:10Z</time>
      </trkpt>
      <trkpt lat="37.537550000" lon="-5.093065000">
        <ele>121.7</ele>
        <time>2020-10-12T11:25:13Z</time>
      </trkpt>
      <trkpt lat="37.537585000" lon="-5.092969000">
        <ele>121.2</ele>
        <time>2020-10-12T11:25:15Z</time>
      </trkpt>
      <trkpt lat="37.537619000" lon="-5.092854000">
        <ele>120.5</ele>
        <time>2020-10-12T11:25:17Z</time>
      </trkpt>
      <trkpt lat="37.537646000" lon="-5.092739000">
        <ele>119.9</ele>
        <time>2020-10-12T11:25:19Z</time>
      </trkpt>
      <trkpt lat="37.537664000" lon="-5.092612000">
        <ele>119.3</ele>
        <time>2020-10-12T11:25:21Z</time>
      </trkpt>
      <trkpt lat="37.537650000" lon="-5.092478000">
        <ele>118.7</ele>
        <time>2020-10-12T11:25:23Z</time>
      </trkpt>
      <trkpt lat="37.537615000" lon="-5.092346000">
        <ele>118.0</ele>
        <time>2020-10-12T11:25:25Z</time>
      </trkpt>
      <trkpt lat="37.537606000" lon="-5.092204000">
        <ele>117.4</ele>
        <time>2020-10-12T11:25:27Z</time>
      </trkpt>
      <trkpt lat="37.537625000" lon="-5.092070000">
        <ele>116.7</ele>
        <time>2020-10-12T11:25:29Z</time>
      </trkpt>
      <trkpt lat="37.537655000" lon="-5.091955000">
        <ele>116.1</ele>
        <time>2020-10-12T11:25:31Z</time>
      </trkpt>
      <trkpt lat="37.537662000" lon="-5.091848000">
        <ele>115.5</ele>
        <time>2020-10-12T11:25:33Z</time>
      </trkpt>
      <trkpt lat="37.537657000" lon="-5.091741000">
        <ele>115.2</ele>
        <time>2020-10-12T11:25:35Z</time>
      </trkpt>
      <trkpt lat="37.537662000" lon="-5.091628000">
        <ele>114.8</ele>
        <time>2020-10-12T11:25:37Z</time>
      </trkpt>
      <trkpt lat="37.537674000" lon="-5.091515000">
        <ele>114.5</ele>
        <time>2020-10-12T11:25:39Z</time>
      </trkpt>
      <trkpt lat="37.537698000" lon="-5.091406000">
        <ele>114.2</ele>
        <time>2020-10-12T11:25:41Z</time>
      </trkpt>
      <trkpt lat="37.537719000" lon="-5.091295000">
        <ele>113.8</ele>
        <time>2020-10-12T11:25:43Z</time>
      </trkpt>
      <trkpt lat="37.537730000" lon="-5.091177000">
        <ele>113.5</ele>
        <time>2020-10-12T11:25:45Z</time>
      </trkpt>
      <trkpt lat="37.537733000" lon="-5.091056000">
        <ele>113.2</ele>
        <time>2020-10-12T11:25:47Z</time>
      </trkpt>
      <trkpt lat="37.537715000" lon="-5.090935000">
        <ele>113.0</ele>
        <time>2020-10-12T11:25:49Z</time>
      </trkpt>
      <trkpt lat="37.537709000" lon="-5.090815000">
        <ele>113.0</ele>
        <time>2020-10-12T11:25:51Z</time>
      </trkpt>
      <trkpt lat="37.537692000" lon="-5.090698000">
        <ele>113.0</ele>
        <time>2020-10-12T11:25:53Z</time>
      </trkpt>
      <trkpt lat="37.537683000" lon="-5.090580000">
        <ele>113.1</ele>
        <time>2020-10-12T11:25:55Z</time>
      </trkpt>
      <trkpt lat="37.537681000" lon="-5.090469000">
        <ele>113.2</ele>
        <time>2020-10-12T11:25:57Z</time>
      </trkpt>
      <trkpt lat="37.537703000" lon="-5.090368000">
        <ele>113.3</ele>
        <time>2020-10-12T11:25:59Z</time>
      </trkpt>
      <trkpt lat="37.537745000" lon="-5.090271000">
        <ele>113.4</ele>
        <time>2020-10-12T11:26:01Z</time>
      </trkpt>
      <trkpt lat="37.537792000" lon="-5.090167000">
        <ele>113.5</ele>
        <time>2020-10-12T11:26:03Z</time>
      </trkpt>
      <trkpt lat="37.537833000" lon="-5.090052000">
        <ele>113.6</ele>
        <time>2020-10-12T11:26:05Z</time>
      </trkpt>
      <trkpt lat="37.537869000" lon="-5.089933000">
        <ele>113.7</ele>
        <time>2020-10-12T11:26:07Z</time>
      </trkpt>
      <trkpt lat="37.537908000" lon="-5.089809000">
        <ele>113.8</ele>
        <time>2020-10-12T11:26:09Z</time>
      </trkpt>
      <trkpt lat="37.537945000" lon="-5.089708000">
        <ele>113.8</ele>
        <time>2020-10-12T11:26:11Z</time>
      </trkpt>
      <trkpt lat="37.537979000" lon="-5.089599000">
        <ele>113.7</ele>
        <time>2020-10-12T11:26:13Z</time>
      </trkpt>
      <trkpt lat="37.538002000" lon="-5.089480000">
        <ele>113.6</ele>
        <time>2020-10-12T11:26:15Z</time>
      </trkpt>
      <trkpt lat="37.538021000" lon="-5.089358000">
        <ele>113.5</ele>
        <time>2020-10-12T11:26:17Z</time>
      </trkpt>
      <trkpt lat="37.538038000" lon="-5.089245000">
        <ele>113.3</ele>
        <time>2020-10-12T11:26:19Z</time>
      </trkpt>
      <trkpt lat="37.538063000" lon="-5.089126000">
        <ele>113.2</ele>
        <time>2020-10-12T11:26:21Z</time>
      </trkpt>
      <trkpt lat="37.538092000" lon="-5.089007000">
        <ele>113.1</ele>
        <time>2020-10-12T11:26:23Z</time>
      </trkpt>
      <trkpt lat="37.538114000" lon="-5.088899000">
        <ele>112.9</ele>
        <time>2020-10-12T11:26:25Z</time>
      </trkpt>
      <trkpt lat="37.538141000" lon="-5.088796000">
        <ele>112.8</ele>
        <time>2020-10-12T11:26:27Z</time>
      </trkpt>
      <trkpt lat="37.538166000" lon="-5.088693000">
        <ele>112.7</ele>
        <time>2020-10-12T11:26:29Z</time>
      </trkpt>
      <trkpt lat="37.538181000" lon="-5.088589000">
        <ele>112.7</ele>
        <time>2020-10-12T11:26:31Z</time>
      </trkpt>
      <trkpt lat="37.538218000" lon="-5.088452000">
        <ele>112.6</ele>
        <time>2020-10-12T11:26:34Z</time>
      </trkpt>
      <trkpt lat="37.538198000" lon="-5.088314000">
        <ele>112.5</ele>
        <time>2020-10-12T11:26:37Z</time>
      </trkpt>
      <trkpt lat="37.538108000" lon="-5.088224000">
        <ele>112.5</ele>
        <time>2020-10-12T11:26:40Z</time>
      </trkpt>
      <trkpt lat="37.538023000" lon="-5.088154000">
        <ele>112.4</ele>
        <time>2020-10-12T11:26:43Z</time>
      </trkpt>
      <trkpt lat="37.537939000" lon="-5.088076000">
        <ele>112.2</ele>
        <time>2020-10-12T11:26:46Z</time>
      </trkpt>
      <trkpt lat="37.537848000" lon="-5.087985000">
        <ele>112.0</ele>
        <time>2020-10-12T11:26:49Z</time>
      </trkpt>
      <trkpt lat="37.537757000" lon="-5.087900000">
        <ele>111.7</ele>
        <time>2020-10-12T11:26:52Z</time>
      </trkpt>
      <trkpt lat="37.537671000" lon="-5.087824000">
        <ele>111.5</ele>
        <time>2020-10-12T11:26:55Z</time>
      </trkpt>
      <trkpt lat="37.537586000" lon="-5.087763000">
        <ele>111.4</ele>
        <time>2020-10-12T11:26:58Z</time>
      </trkpt>
      <trkpt lat="37.537518000" lon="-5.087684000">
        <ele>111.1</ele>
        <time>2020-10-12T11:27:01Z</time>
      </trkpt>
      <trkpt lat="37.537486000" lon="-5.087586000">
        <ele>110.7</ele>
        <time>2020-10-12T11:27:07Z</time>
      </trkpt>
      <trkpt lat="37.537560000" lon="-5.087498000">
        <ele>110.5</ele>
        <time>2020-10-12T11:27:10Z</time>
      </trkpt>
      <trkpt lat="37.537626000" lon="-5.087438000">
        <ele>110.5</ele>
        <time>2020-10-12T11:27:12Z</time>
      </trkpt>
      <trkpt lat="37.537732000" lon="-5.087367000">
        <ele>110.4</ele>
        <time>2020-10-12T11:27:14Z</time>
      </trkpt>
      <trkpt lat="37.537812000" lon="-5.087299000">
        <ele>110.3</ele>
        <time>2020-10-12T11:27:16Z</time>
      </trkpt>
      <trkpt lat="37.537894000" lon="-5.087228000">
        <ele>110.3</ele>
        <time>2020-10-12T11:27:18Z</time>
      </trkpt>
      <trkpt lat="37.537978000" lon="-5.087155000">
        <ele>110.3</ele>
        <time>2020-10-12T11:27:20Z</time>
      </trkpt>
      <trkpt lat="37.538060000" lon="-5.087082000">
        <ele>110.5</ele>
        <time>2020-10-12T11:27:22Z</time>
      </trkpt>
      <trkpt lat="37.538136000" lon="-5.087010000">
        <ele>110.6</ele>
        <time>2020-10-12T11:27:24Z</time>
      </trkpt>
      <trkpt lat="37.538204000" lon="-5.086939000">
        <ele>110.8</ele>
        <time>2020-10-12T11:27:26Z</time>
      </trkpt>
      <trkpt lat="37.538277000" lon="-5.086869000">
        <ele>111.0</ele>
        <time>2020-10-12T11:27:28Z</time>
      </trkpt>
      <trkpt lat="37.538347000" lon="-5.086814000">
        <ele>111.2</ele>
        <time>2020-10-12T11:27:30Z</time>
      </trkpt>
      <trkpt lat="37.538431000" lon="-5.086776000">
        <ele>111.2</ele>
        <time>2020-10-12T11:27:32Z</time>
      </trkpt>
      <trkpt lat="37.538505000" lon="-5.086726000">
        <ele>111.1</ele>
        <time>2020-10-12T11:27:34Z</time>
      </trkpt>
      <trkpt lat="37.538588000" lon="-5.086641000">
        <ele>111.0</ele>
        <time>2020-10-12T11:27:37Z</time>
      </trkpt>
      <trkpt lat="37.538645000" lon="-5.086565000">
        <ele>110.9</ele>
        <time>2020-10-12T11:27:40Z</time>
      </trkpt>
      <trkpt lat="37.538719000" lon="-5.086487000">
        <ele>110.8</ele>
        <time>2020-10-12T11:27:43Z</time>
      </trkpt>
      <trkpt lat="37.538796000" lon="-5.086408000">
        <ele>110.7</ele>
        <time>2020-10-12T11:27:46Z</time>
      </trkpt>
      <trkpt lat="37.538871000" lon="-5.086343000">
        <ele>110.5</ele>
        <time>2020-10-12T11:27:49Z</time>
      </trkpt>
      <trkpt lat="37.538961000" lon="-5.086299000">
        <ele>110.4</ele>
        <time>2020-10-12T11:27:53Z</time>
      </trkpt>
      <trkpt lat="37.539028000" lon="-5.086236000">
        <ele>110.2</ele>
        <time>2020-10-12T11:27:58Z</time>
      </trkpt>
      <trkpt lat="37.539100000" lon="-5.086170000">
        <ele>110.1</ele>
        <time>2020-10-12T11:28:33Z</time>
      </trkpt>
      <trkpt lat="37.539205000" lon="-5.086121000">
        <ele>110.0</ele>
        <time>2020-10-12T11:28:37Z</time>
      </trkpt>
      <trkpt lat="37.539297000" lon="-5.086089000">
        <ele>110.0</ele>
        <time>2020-10-12T11:28:40Z</time>
      </trkpt>
      <trkpt lat="37.539387000" lon="-5.086038000">
        <ele>109.9</ele>
        <time>2020-10-12T11:28:43Z</time>
      </trkpt>
      <trkpt lat="37.539483000" lon="-5.085988000">
        <ele>109.8</ele>
        <time>2020-10-12T11:28:46Z</time>
      </trkpt>
      <trkpt lat="37.539586000" lon="-5.085939000">
        <ele>109.7</ele>
        <time>2020-10-12T11:28:49Z</time>
      </trkpt>
      <trkpt lat="37.539685000" lon="-5.085900000">
        <ele>109.6</ele>
        <time>2020-10-12T11:28:52Z</time>
      </trkpt>
      <trkpt lat="37.539785000" lon="-5.085869000">
        <ele>109.6</ele>
        <time>2020-10-12T11:28:55Z</time>
      </trkpt>
      <trkpt lat="37.539881000" lon="-5.085824000">
        <ele>109.6</ele>
        <time>2020-10-12T11:28:58Z</time>
      </trkpt>
      <trkpt lat="37.539971000" lon="-5.085792000">
        <ele>109.6</ele>
        <time>2020-10-12T11:29:01Z</time>
      </trkpt>
      <trkpt lat="37.540058000" lon="-5.085754000">
        <ele>109.6</ele>
        <time>2020-10-12T11:29:04Z</time>
      </trkpt>
      <trkpt lat="37.540143000" lon="-5.085705000">
        <ele>109.6</ele>
        <time>2020-10-12T11:29:08Z</time>
      </trkpt>
      <trkpt lat="37.540216000" lon="-5.085647000">
        <ele>109.5</ele>
        <time>2020-10-12T11:29:13Z</time>
      </trkpt>
      <trkpt lat="37.540302000" lon="-5.085593000">
        <ele>109.5</ele>
        <time>2020-10-12T11:29:17Z</time>
      </trkpt>
      <trkpt lat="37.540377000" lon="-5.085538000">
        <ele>109.5</ele>
        <time>2020-10-12T11:29:20Z</time>
      </trkpt>
      <trkpt lat="37.540454000" lon="-5.085485000">
        <ele>109.5</ele>
        <time>2020-10-12T11:29:23Z</time>
      </trkpt>
      <trkpt lat="37.540535000" lon="-5.085431000">
        <ele>109.4</ele>
        <time>2020-10-12T11:29:26Z</time>
      </trkpt>
      <trkpt lat="37.540612000" lon="-5.085391000">
        <ele>109.3</ele>
        <time>2020-10-12T11:29:29Z</time>
      </trkpt>
      <trkpt lat="37.540694000" lon="-5.085377000">
        <ele>109.0</ele>
        <time>2020-10-12T11:29:32Z</time>
      </trkpt>
      <trkpt lat="37.540790000" lon="-5.085390000">
        <ele>108.7</ele>
        <time>2020-10-12T11:29:35Z</time>
      </trkpt>
      <trkpt lat="37.540881000" lon="-5.085443000">
        <ele>108.4</ele>
        <time>2020-10-12T11:29:39Z</time>
      </trkpt>
      <trkpt lat="37.540958000" lon="-5.085483000">
        <ele>108.0</ele>
        <time>2020-10-12T11:29:42Z</time>
      </trkpt>
      <trkpt lat="37.541032000" lon="-5.085538000">
        <ele>107.5</ele>
        <time>2020-10-12T11:29:45Z</time>
      </trkpt>
      <trkpt lat="37.541118000" lon="-5.085576000">
        <ele>107.3</ele>
        <time>2020-10-12T11:29:48Z</time>
      </trkpt>
      <trkpt lat="37.541201000" lon="-5.085617000">
        <ele>107.0</ele>
        <time>2020-10-12T11:29:51Z</time>
      </trkpt>
      <trkpt lat="37.541282000" lon="-5.085657000">
        <ele>106.7</ele>
        <time>2020-10-12T11:29:54Z</time>
      </trkpt>
      <trkpt lat="37.541362000" lon="-5.085704000">
        <ele>106.5</ele>
        <time>2020-10-12T11:29:57Z</time>
      </trkpt>
      <trkpt lat="37.541436000" lon="-5.085748000">
        <ele>106.5</ele>
        <time>2020-10-12T11:30:00Z</time>
      </trkpt>
      <trkpt lat="37.541536000" lon="-5.085778000">
        <ele>106.6</ele>
        <time>2020-10-12T11:30:04Z</time>
      </trkpt>
      <trkpt lat="37.541619000" lon="-5.085822000">
        <ele>106.8</ele>
        <time>2020-10-12T11:30:07Z</time>
      </trkpt>
      <trkpt lat="37.541708000" lon="-5.085856000">
        <ele>107.1</ele>
        <time>2020-10-12T11:30:10Z</time>
      </trkpt>
      <trkpt lat="37.541799000" lon="-5.085898000">
        <ele>107.5</ele>
        <time>2020-10-12T11:30:14Z</time>
      </trkpt>
      <trkpt lat="37.541899000" lon="-5.085939000">
        <ele>107.7</ele>
        <time>2020-10-12T11:30:18Z</time>
      </trkpt>
      <trkpt lat="37.541985000" lon="-5.085979000">
        <ele>108.0</ele>
        <time>2020-10-12T11:30:21Z</time>
      </trkpt>
      <trkpt lat="37.542070000" lon="-5.086019000">
        <ele>108.1</ele>
        <time>2020-10-12T11:30:24Z</time>
      </trkpt>
      <trkpt lat="37.542147000" lon="-5.086055000">
        <ele>108.1</ele>
        <time>2020-10-12T11:30:27Z</time>
      </trkpt>
      <trkpt lat="37.542220000" lon="-5.086005000">
        <ele>108.0</ele>
        <time>2020-10-12T11:30:48Z</time>
      </trkpt>
      <trkpt lat="37.542255000" lon="-5.085882000">
        <ele>107.8</ele>
        <time>2020-10-12T11:30:53Z</time>
      </trkpt>
      <trkpt lat="37.542276000" lon="-5.085746000">
        <ele>107.5</ele>
        <time>2020-10-12T11:30:57Z</time>
      </trkpt>
      <trkpt lat="37.542291000" lon="-5.085614000">
        <ele>107.0</ele>
        <time>2020-10-12T11:31:00Z</time>
      </trkpt>
      <trkpt lat="37.542306000" lon="-5.085513000">
        <ele>106.6</ele>
        <time>2020-10-12T11:31:02Z</time>
      </trkpt>
      <trkpt lat="37.542332000" lon="-5.085371000">
        <ele>106.2</ele>
        <time>2020-10-12T11:31:05Z</time>
      </trkpt>
      <trkpt lat="37.542354000" lon="-5.085239000">
        <ele>105.7</ele>
        <time>2020-10-12T11:31:08Z</time>
      </trkpt>
      <trkpt lat="37.542369000" lon="-5.085125000">
        <ele>105.4</ele>
        <time>2020-10-12T11:31:11Z</time>
      </trkpt>
      <trkpt lat="37.542389000" lon="-5.085014000">
        <ele>105.1</ele>
        <time>2020-10-12T11:31:14Z</time>
      </trkpt>
      <trkpt lat="37.542421000" lon="-5.084904000">
        <ele>104.9</ele>
        <time>2020-10-12T11:31:18Z</time>
      </trkpt>
      <trkpt lat="37.542441000" lon="-5.084774000">
        <ele>104.8</ele>
        <time>2020-10-12T11:31:22Z</time>
      </trkpt>
      <trkpt lat="37.542461000" lon="-5.084666000">
        <ele>104.8</ele>
        <time>2020-10-12T11:31:25Z</time>
      </trkpt>
      <trkpt lat="37.542477000" lon="-5.084549000">
        <ele>104.8</ele>
        <time>2020-10-12T11:31:28Z</time>
      </trkpt>
      <trkpt lat="37.542484000" lon="-5.084431000">
        <ele>104.9</ele>
        <time>2020-10-12T11:31:31Z</time>
      </trkpt>
      <trkpt lat="37.542476000" lon="-5.084329000">
        <ele>105.0</ele>
        <time>2020-10-12T11:31:48Z</time>
      </trkpt>
      <trkpt lat="37.542394000" lon="-5.084361000">
        <ele>105.0</ele>
        <time>2020-10-12T11:32:06Z</time>
      </trkpt>
      <trkpt lat="37.542311000" lon="-5.084399000">
        <ele>105.1</ele>
        <time>2020-10-12T11:32:09Z</time>
      </trkpt>
      <trkpt lat="37.542224000" lon="-5.084442000">
        <ele>105.2</ele>
        <time>2020-10-12T11:32:12Z</time>
      </trkpt>
      <trkpt lat="37.542132000" lon="-5.084492000">
        <ele>105.4</ele>
        <time>2020-10-12T11:32:15Z</time>
      </trkpt>
      <trkpt lat="37.542053000" lon="-5.084521000">
        <ele>105.5</ele>
        <time>2020-10-12T11:32:18Z</time>
      </trkpt>
      <trkpt lat="37.541969000" lon="-5.084563000">
        <ele>105.7</ele>
        <time>2020-10-12T11:32:22Z</time>
      </trkpt>
      <trkpt lat="37.541892000" lon="-5.084617000">
        <ele>105.9</ele>
        <time>2020-10-12T11:32:26Z</time>
      </trkpt>
      <trkpt lat="37.541799000" lon="-5.084668000">
        <ele>106.1</ele>
        <time>2020-10-12T11:32:29Z</time>
      </trkpt>
      <trkpt lat="37.541705000" lon="-5.084722000">
        <ele>106.2</ele>
        <time>2020-10-12T11:32:32Z</time>
      </trkpt>
      <trkpt lat="37.541629000" lon="-5.084768000">
        <ele>106.3</ele>
        <time>2020-10-12T11:32:35Z</time>
      </trkpt>
      <trkpt lat="37.541534000" lon="-5.084816000">
        <ele>106.4</ele>
        <time>2020-10-12T11:32:39Z</time>
      </trkpt>
      <trkpt lat="37.541530000" lon="-5.084684000">
        <ele>106.5</ele>
        <time>2020-10-12T11:32:46Z</time>
      </trkpt>
      <trkpt lat="37.541535000" lon="-5.084571000">
        <ele>106.6</ele>
        <time>2020-10-12T11:32:49Z</time>
      </trkpt>
      <trkpt lat="37.541554000" lon="-5.084452000">
        <ele>106.7</ele>
        <time>2020-10-12T11:32:52Z</time>
      </trkpt>
      <trkpt lat="37.541572000" lon="-5.084328000">
        <ele>106.7</ele>
        <time>2020-10-12T11:32:55Z</time>
      </trkpt>
      <trkpt lat="37.541597000" lon="-5.084187000">
        <ele>106.6</ele>
        <time>2020-10-12T11:32:59Z</time>
      </trkpt>
      <trkpt lat="37.541620000" lon="-5.084039000">
        <ele>106.5</ele>
        <time>2020-10-12T11:33:02Z</time>
      </trkpt>
      <trkpt lat="37.541651000" lon="-5.083900000">
        <ele>106.5</ele>
        <time>2020-10-12T11:33:05Z</time>
      </trkpt>
      <trkpt lat="37.541687000" lon="-5.083776000">
        <ele>106.3</ele>
        <time>2020-10-12T11:33:08Z</time>
      </trkpt>
      <trkpt lat="37.541716000" lon="-5.083651000">
        <ele>106.1</ele>
        <time>2020-10-12T11:33:11Z</time>
      </trkpt>
      <trkpt lat="37.541749000" lon="-5.083525000">
        <ele>105.8</ele>
        <time>2020-10-12T11:33:14Z</time>
      </trkpt>
      <trkpt lat="37.541785000" lon="-5.083432000">
        <ele>105.5</ele>
        <time>2020-10-12T11:33:20Z</time>
      </trkpt>
      <trkpt lat="37.541882000" lon="-5.083413000">
        <ele>105.2</ele>
        <time>2020-10-12T11:33:26Z</time>
      </trkpt>
      <trkpt lat="37.541972000" lon="-5.083448000">
        <ele>104.7</ele>
        <time>2020-10-12T11:33:33Z</time>
      </trkpt>
      <trkpt lat="37.542057000" lon="-5.083437000">
        <ele>104.4</ele>
        <time>2020-10-12T11:33:45Z</time>
      </trkpt>
      <trkpt lat="37.542157000" lon="-5.083448000">
        <ele>104.0</ele>
        <time>2020-10-12T11:33:48Z</time>
      </trkpt>
      <trkpt lat="37.542267000" lon="-5.083464000">
        <ele>103.7</ele>
        <time>2020-10-12T11:33:51Z</time>
      </trkpt>
      <trkpt lat="37.542373000" lon="-5.083477000">
        <ele>103.5</ele>
        <time>2020-10-12T11:33:54Z</time>
      </trkpt>
      <trkpt lat="37.542474000" lon="-5.083489000">
        <ele>103.3</ele>
        <time>2020-10-12T11:33:57Z</time>
      </trkpt>
      <trkpt lat="37.542589000" lon="-5.083504000">
        <ele>103.2</ele>
        <time>2020-10-12T11:34:00Z</time>
      </trkpt>
      <trkpt lat="37.542707000" lon="-5.083517000">
        <ele>103.1</ele>
        <time>2020-10-12T11:34:03Z</time>
      </trkpt>
      <trkpt lat="37.542789000" lon="-5.083529000">
        <ele>103.0</ele>
        <time>2020-10-12T11:34:05Z</time>
      </trkpt>
      <trkpt lat="37.542869000" lon="-5.083542000">
        <ele>102.8</ele>
        <time>2020-10-12T11:34:07Z</time>
      </trkpt>
      <trkpt lat="37.542991000" lon="-5.083557000">
        <ele>102.6</ele>
        <time>2020-10-12T11:34:10Z</time>
      </trkpt>
      <trkpt lat="37.543108000" lon="-5.083576000">
        <ele>102.5</ele>
        <time>2020-10-12T11:34:13Z</time>
      </trkpt>
      <trkpt lat="37.543215000" lon="-5.083593000">
        <ele>102.2</ele>
        <time>2020-10-12T11:34:16Z</time>
      </trkpt>
      <trkpt lat="37.543320000" lon="-5.083603000">
        <ele>101.9</ele>
        <time>2020-10-12T11:34:19Z</time>
      </trkpt>
      <trkpt lat="37.543411000" lon="-5.083613000">
        <ele>101.6</ele>
        <time>2020-10-12T11:34:22Z</time>
      </trkpt>
      <trkpt lat="37.543515000" lon="-5.083611000">
        <ele>101.5</ele>
        <time>2020-10-12T11:34:26Z</time>
      </trkpt>
      <trkpt lat="37.543616000" lon="-5.083620000">
        <ele>101.3</ele>
        <time>2020-10-12T11:34:30Z</time>
      </trkpt>
      <trkpt lat="37.543698000" lon="-5.083639000">
        <ele>101.2</ele>
        <time>2020-10-12T11:34:33Z</time>
      </trkpt>
      <trkpt lat="37.543793000" lon="-5.083661000">
        <ele>101.2</ele>
        <time>2020-10-12T11:34:37Z</time>
      </trkpt>
      <trkpt lat="37.543877000" lon="-5.083668000">
        <ele>101.3</ele>
        <time>2020-10-12T11:34:40Z</time>
      </trkpt>
      <trkpt lat="37.543970000" lon="-5.083687000">
        <ele>101.5</ele>
        <time>2020-10-12T11:34:43Z</time>
      </trkpt>
      <trkpt lat="37.544062000" lon="-5.083673000">
        <ele>101.5</ele>
        <time>2020-10-12T11:34:46Z</time>
      </trkpt>
      <trkpt lat="37.544153000" lon="-5.083615000">
        <ele>101.7</ele>
        <time>2020-10-12T11:34:49Z</time>
      </trkpt>
      <trkpt lat="37.544220000" lon="-5.083523000">
        <ele>101.9</ele>
        <time>2020-10-12T11:34:52Z</time>
      </trkpt>
      <trkpt lat="37.544282000" lon="-5.083414000">
        <ele>102.0</ele>
        <time>2020-10-12T11:34:55Z</time>
      </trkpt>
      <trkpt lat="37.544351000" lon="-5.083290000">
        <ele>102.1</ele>
        <time>2020-10-12T11:34:58Z</time>
      </trkpt>
      <trkpt lat="37.544422000" lon="-5.083168000">
        <ele>102.2</ele>
        <time>2020-10-12T11:35:01Z</time>
      </trkpt>
      <trkpt lat="37.544489000" lon="-5.083040000">
        <ele>102.3</ele>
        <time>2020-10-12T11:35:04Z</time>
      </trkpt>
      <trkpt lat="37.544532000" lon="-5.082952000">
        <ele>102.4</ele>
        <time>2020-10-12T11:35:06Z</time>
      </trkpt>
      <trkpt lat="37.544602000" lon="-5.082827000">
        <ele>102.5</ele>
        <time>2020-10-12T11:35:09Z</time>
      </trkpt>
      <trkpt lat="37.544651000" lon="-5.082741000">
        <ele>102.7</ele>
        <time>2020-10-12T11:35:11Z</time>
      </trkpt>
      <trkpt lat="37.544681000" lon="-5.082646000">
        <ele>102.9</ele>
        <time>2020-10-12T11:35:13Z</time>
      </trkpt>
      <trkpt lat="37.544719000" lon="-5.082508000">
        <ele>103.3</ele>
        <time>2020-10-12T11:35:16Z</time>
      </trkpt>
      <trkpt lat="37.544743000" lon="-5.082376000">
        <ele>103.5</ele>
        <time>2020-10-12T11:35:19Z</time>
      </trkpt>
      <trkpt lat="37.544761000" lon="-5.082248000">
        <ele>103.8</ele>
        <time>2020-10-12T11:35:22Z</time>
      </trkpt>
      <trkpt lat="37.544778000" lon="-5.082131000">
        <ele>104.3</ele>
        <time>2020-10-12T11:35:25Z</time>
      </trkpt>
      <trkpt lat="37.544792000" lon="-5.082015000">
        <ele>104.7</ele>
        <time>2020-10-12T11:35:28Z</time>
      </trkpt>
      <trkpt lat="37.544803000" lon="-5.081905000">
        <ele>105.1</ele>
        <time>2020-10-12T11:35:31Z</time>
      </trkpt>
      <trkpt lat="37.544800000" lon="-5.081787000">
        <ele>105.4</ele>
        <time>2020-10-12T11:35:34Z</time>
      </trkpt>
      <trkpt lat="37.544818000" lon="-5.081652000">
        <ele>105.6</ele>
        <time>2020-10-12T11:35:38Z</time>
      </trkpt>
      <trkpt lat="37.544907000" lon="-5.081600000">
        <ele>105.7</ele>
        <time>2020-10-12T11:35:42Z</time>
      </trkpt>
      <trkpt lat="37.544988000" lon="-5.081581000">
        <ele>105.8</ele>
        <time>2020-10-12T11:35:45Z</time>
      </trkpt>
      <trkpt lat="37.545086000" lon="-5.081548000">
        <ele>105.8</ele>
        <time>2020-10-12T11:35:49Z</time>
      </trkpt>
      <trkpt lat="37.545170000" lon="-5.081523000">
        <ele>105.7</ele>
        <time>2020-10-12T11:35:52Z</time>
      </trkpt>
      <trkpt lat="37.545261000" lon="-5.081506000">
        <ele>105.7</ele>
        <time>2020-10-12T11:35:55Z</time>
      </trkpt>
      <trkpt lat="37.545346000" lon="-5.081482000">
        <ele>105.7</ele>
        <time>2020-10-12T11:35:58Z</time>
      </trkpt>
      <trkpt lat="37.545426000" lon="-5.081454000">
        <ele>105.6</ele>
        <time>2020-10-12T11:36:01Z</time>
      </trkpt>
      <trkpt lat="37.545496000" lon="-5.081402000">
        <ele>105.5</ele>
        <time>2020-10-12T11:36:05Z</time>
      </trkpt>
      <trkpt lat="37.545491000" lon="-5.081293000">
        <ele>105.5</ele>
        <time>2020-10-12T11:36:10Z</time>
      </trkpt>
      <trkpt lat="37.545493000" lon="-5.081177000">
        <ele>105.4</ele>
        <time>2020-10-12T11:36:16Z</time>
      </trkpt>
      <trkpt lat="37.545537000" lon="-5.081088000">
        <ele>105.3</ele>
        <time>2020-10-12T11:36:21Z</time>
      </trkpt>
      <trkpt lat="37.545606000" lon="-5.081155000">
        <ele>105.2</ele>
        <time>2020-10-12T11:37:17Z</time>
      </trkpt>
      <trkpt lat="37.545597000" lon="-5.081272000">
        <ele>105.1</ele>
        <time>2020-10-12T11:37:24Z</time>
      </trkpt>
      <trkpt lat="37.545577000" lon="-5.081386000">
        <ele>105.1</ele>
        <time>2020-10-12T11:37:32Z</time>
      </trkpt>
      <trkpt lat="37.545492000" lon="-5.081430000">
        <ele>105.1</ele>
        <time>2020-10-12T11:37:40Z</time>
      </trkpt>
      <trkpt lat="37.545478000" lon="-5.081367000">
        <ele>105.2</ele>
        <time>2020-10-12T11:38:22Z</time>
      </trkpt>
      <trkpt lat="37.545932000" lon="-5.081380000">
        <ele>102.2</ele>
        <time>2020-10-12T11:48:23Z</time>
      </trkpt>
      <trkpt lat="37.545966000" lon="-5.081387000">
        <ele>102.0</ele>
        <time>2020-10-12T11:48:24Z</time>
      </trkpt>
      <trkpt lat="37.546075000" lon="-5.081415000">
        <ele>101.9</ele>
        <time>2020-10-12T11:48:27Z</time>
      </trkpt>
      <trkpt lat="37.546190000" lon="-5.081438000">
        <ele>101.8</ele>
        <time>2020-10-12T11:48:30Z</time>
      </trkpt>
      <trkpt lat="37.546310000" lon="-5.081449000">
        <ele>101.6</ele>
        <time>2020-10-12T11:48:33Z</time>
      </trkpt>
      <trkpt lat="37.546393000" lon="-5.081465000">
        <ele>101.5</ele>
        <time>2020-10-12T11:48:35Z</time>
      </trkpt>
      <trkpt lat="37.546476000" lon="-5.081486000">
        <ele>101.2</ele>
        <time>2020-10-12T11:48:37Z</time>
      </trkpt>
      <trkpt lat="37.546570000" lon="-5.081508000">
        <ele>100.9</ele>
        <time>2020-10-12T11:48:39Z</time>
      </trkpt>
      <trkpt lat="37.546663000" lon="-5.081521000">
        <ele>100.7</ele>
        <time>2020-10-12T11:48:41Z</time>
      </trkpt>
      <trkpt lat="37.546750000" lon="-5.081536000">
        <ele>100.5</ele>
        <time>2020-10-12T11:48:43Z</time>
      </trkpt>
      <trkpt lat="37.546833000" lon="-5.081550000">
        <ele>100.2</ele>
        <time>2020-10-12T11:48:45Z</time>
      </trkpt>
      <trkpt lat="37.546948000" lon="-5.081562000">
        <ele>100.0</ele>
        <time>2020-10-12T11:48:48Z</time>
      </trkpt>
      <trkpt lat="37.547032000" lon="-5.081567000">
        <ele>99.8</ele>
        <time>2020-10-12T11:48:50Z</time>
      </trkpt>
      <trkpt lat="37.547118000" lon="-5.081600000">
        <ele>99.6</ele>
        <time>2020-10-12T11:48:52Z</time>
      </trkpt>
      <trkpt lat="37.547199000" lon="-5.081615000">
        <ele>99.5</ele>
        <time>2020-10-12T11:48:54Z</time>
      </trkpt>
      <trkpt lat="37.547282000" lon="-5.081626000">
        <ele>99.4</ele>
        <time>2020-10-12T11:48:56Z</time>
      </trkpt>
      <trkpt lat="37.547401000" lon="-5.081636000">
        <ele>99.3</ele>
        <time>2020-10-12T11:48:59Z</time>
      </trkpt>
      <trkpt lat="37.547518000" lon="-5.081664000">
        <ele>99.2</ele>
        <time>2020-10-12T11:49:02Z</time>
      </trkpt>
      <trkpt lat="37.547601000" lon="-5.081687000">
        <ele>99.1</ele>
        <time>2020-10-12T11:49:04Z</time>
      </trkpt>
      <trkpt lat="37.547682000" lon="-5.081710000">
        <ele>98.9</ele>
        <time>2020-10-12T11:49:06Z</time>
      </trkpt>
      <trkpt lat="37.547765000" lon="-5.081731000">
        <ele>98.8</ele>
        <time>2020-10-12T11:49:08Z</time>
      </trkpt>
      <trkpt lat="37.547851000" lon="-5.081756000">
        <ele>98.6</ele>
        <time>2020-10-12T11:49:10Z</time>
      </trkpt>
      <trkpt lat="37.547941000" lon="-5.081769000">
        <ele>98.4</ele>
        <time>2020-10-12T11:49:12Z</time>
      </trkpt>
      <trkpt lat="37.548026000" lon="-5.081782000">
        <ele>98.2</ele>
        <time>2020-10-12T11:49:14Z</time>
      </trkpt>
      <trkpt lat="37.548114000" lon="-5.081806000">
        <ele>98.0</ele>
        <time>2020-10-12T11:49:16Z</time>
      </trkpt>
      <trkpt lat="37.548197000" lon="-5.081845000">
        <ele>97.8</ele>
        <time>2020-10-12T11:49:18Z</time>
      </trkpt>
      <trkpt lat="37.548282000" lon="-5.081879000">
        <ele>97.7</ele>
        <time>2020-10-12T11:49:20Z</time>
      </trkpt>
      <trkpt lat="37.548375000" lon="-5.081900000">
        <ele>97.7</ele>
        <time>2020-10-12T11:49:22Z</time>
      </trkpt>
      <trkpt lat="37.548469000" lon="-5.081930000">
        <ele>97.7</ele>
        <time>2020-10-12T11:49:24Z</time>
      </trkpt>
      <trkpt lat="37.548568000" lon="-5.081950000">
        <ele>97.7</ele>
        <time>2020-10-12T11:49:26Z</time>
      </trkpt>
      <trkpt lat="37.548667000" lon="-5.081978000">
        <ele>97.8</ele>
        <time>2020-10-12T11:49:28Z</time>
      </trkpt>
      <trkpt lat="37.548766000" lon="-5.082001000">
        <ele>97.8</ele>
        <time>2020-10-12T11:49:30Z</time>
      </trkpt>
      <trkpt lat="37.548869000" lon="-5.082024000">
        <ele>97.9</ele>
        <time>2020-10-12T11:49:32Z</time>
      </trkpt>
      <trkpt lat="37.548966000" lon="-5.082054000">
        <ele>98.0</ele>
        <time>2020-10-12T11:49:34Z</time>
      </trkpt>
      <trkpt lat="37.549059000" lon="-5.082072000">
        <ele>97.9</ele>
        <time>2020-10-12T11:49:36Z</time>
      </trkpt>
      <trkpt lat="37.549156000" lon="-5.082089000">
        <ele>97.8</ele>
        <time>2020-10-12T11:49:38Z</time>
      </trkpt>
      <trkpt lat="37.549254000" lon="-5.082109000">
        <ele>97.6</ele>
        <time>2020-10-12T11:49:40Z</time>
      </trkpt>
      <trkpt lat="37.549344000" lon="-5.082134000">
        <ele>97.4</ele>
        <time>2020-10-12T11:49:42Z</time>
      </trkpt>
      <trkpt lat="37.549424000" lon="-5.082157000">
        <ele>97.1</ele>
        <time>2020-10-12T11:49:44Z</time>
      </trkpt>
      <trkpt lat="37.549542000" lon="-5.082187000">
        <ele>96.8</ele>
        <time>2020-10-12T11:49:47Z</time>
      </trkpt>
      <trkpt lat="37.549623000" lon="-5.082203000">
        <ele>96.6</ele>
        <time>2020-10-12T11:49:49Z</time>
      </trkpt>
      <trkpt lat="37.549706000" lon="-5.082220000">
        <ele>96.5</ele>
        <time>2020-10-12T11:49:51Z</time>
      </trkpt>
      <trkpt lat="37.549817000" lon="-5.082226000">
        <ele>96.5</ele>
        <time>2020-10-12T11:49:54Z</time>
      </trkpt>
      <trkpt lat="37.549905000" lon="-5.082212000">
        <ele>96.5</ele>
        <time>2020-10-12T11:49:57Z</time>
      </trkpt>
      <trkpt lat="37.549987000" lon="-5.082163000">
        <ele>96.6</ele>
        <time>2020-10-12T11:50:01Z</time>
      </trkpt>
      <trkpt lat="37.550042000" lon="-5.082087000">
        <ele>96.9</ele>
        <time>2020-10-12T11:50:06Z</time>
      </trkpt>
      <trkpt lat="37.550120000" lon="-5.082013000">
        <ele>97.2</ele>
        <time>2020-10-12T11:50:10Z</time>
      </trkpt>
      <trkpt lat="37.550225000" lon="-5.082002000">
        <ele>97.6</ele>
        <time>2020-10-12T11:50:14Z</time>
      </trkpt>
      <trkpt lat="37.550311000" lon="-5.082063000">
        <ele>98.1</ele>
        <time>2020-10-12T11:50:18Z</time>
      </trkpt>
      <trkpt lat="37.550394000" lon="-5.082130000">
        <ele>98.5</ele>
        <time>2020-10-12T11:50:22Z</time>
      </trkpt>
      <trkpt lat="37.550476000" lon="-5.082126000">
        <ele>98.8</ele>
        <time>2020-10-12T11:50:25Z</time>
      </trkpt>
      <trkpt lat="37.550565000" lon="-5.082106000">
        <ele>99.1</ele>
        <time>2020-10-12T11:50:28Z</time>
      </trkpt>
      <trkpt lat="37.550666000" lon="-5.082084000">
        <ele>99.3</ele>
        <time>2020-10-12T11:50:31Z</time>
      </trkpt>
      <trkpt lat="37.550778000" lon="-5.082076000">
        <ele>99.5</ele>
        <time>2020-10-12T11:50:34Z</time>
      </trkpt>
      <trkpt lat="37.550891000" lon="-5.082064000">
        <ele>99.6</ele>
        <time>2020-10-12T11:50:37Z</time>
      </trkpt>
      <trkpt lat="37.550974000" lon="-5.082060000">
        <ele>99.8</ele>
        <time>2020-10-12T11:50:39Z</time>
      </trkpt>
      <trkpt lat="37.551061000" lon="-5.082055000">
        <ele>99.9</ele>
        <time>2020-10-12T11:50:41Z</time>
      </trkpt>
      <trkpt lat="37.551144000" lon="-5.082041000">
        <ele>100.0</ele>
        <time>2020-10-12T11:50:43Z</time>
      </trkpt>
      <trkpt lat="37.551225000" lon="-5.082024000">
        <ele>100.0</ele>
        <time>2020-10-12T11:50:45Z</time>
      </trkpt>
      <trkpt lat="37.551309000" lon="-5.082010000">
        <ele>99.9</ele>
        <time>2020-10-12T11:50:47Z</time>
      </trkpt>
      <trkpt lat="37.551396000" lon="-5.081995000">
        <ele>99.8</ele>
        <time>2020-10-12T11:50:49Z</time>
      </trkpt>
      <trkpt lat="37.551476000" lon="-5.081977000">
        <ele>99.7</ele>
        <time>2020-10-12T11:50:51Z</time>
      </trkpt>
      <trkpt lat="37.551590000" lon="-5.081939000">
        <ele>99.6</ele>
        <time>2020-10-12T11:50:54Z</time>
      </trkpt>
      <trkpt lat="37.551695000" lon="-5.081899000">
        <ele>99.5</ele>
        <time>2020-10-12T11:50:57Z</time>
      </trkpt>
      <trkpt lat="37.551802000" lon="-5.081864000">
        <ele>99.5</ele>
        <time>2020-10-12T11:51:00Z</time>
      </trkpt>
      <trkpt lat="37.551881000" lon="-5.081833000">
        <ele>99.4</ele>
        <time>2020-10-12T11:51:02Z</time>
      </trkpt>
      <trkpt lat="37.551967000" lon="-5.081804000">
        <ele>99.3</ele>
        <time>2020-10-12T11:51:04Z</time>
      </trkpt>
      <trkpt lat="37.552060000" lon="-5.081777000">
        <ele>99.2</ele>
        <time>2020-10-12T11:51:06Z</time>
      </trkpt>
      <trkpt lat="37.552142000" lon="-5.081749000">
        <ele>99.0</ele>
        <time>2020-10-12T11:51:08Z</time>
      </trkpt>
      <trkpt lat="37.552231000" lon="-5.081715000">
        <ele>98.7</ele>
        <time>2020-10-12T11:51:10Z</time>
      </trkpt>
      <trkpt lat="37.552321000" lon="-5.081683000">
        <ele>98.5</ele>
        <time>2020-10-12T11:51:12Z</time>
      </trkpt>
      <trkpt lat="37.552405000" lon="-5.081644000">
        <ele>98.4</ele>
        <time>2020-10-12T11:51:14Z</time>
      </trkpt>
      <trkpt lat="37.552487000" lon="-5.081606000">
        <ele>98.2</ele>
        <time>2020-10-12T11:51:16Z</time>
      </trkpt>
      <trkpt lat="37.552574000" lon="-5.081567000">
        <ele>98.0</ele>
        <time>2020-10-12T11:51:18Z</time>
      </trkpt>
      <trkpt lat="37.552664000" lon="-5.081523000">
        <ele>97.8</ele>
        <time>2020-10-12T11:51:20Z</time>
      </trkpt>
      <trkpt lat="37.552746000" lon="-5.081479000">
        <ele>97.6</ele>
        <time>2020-10-12T11:51:22Z</time>
      </trkpt>
      <trkpt lat="37.552826000" lon="-5.081444000">
        <ele>97.5</ele>
        <time>2020-10-12T11:51:24Z</time>
      </trkpt>
      <trkpt lat="37.552903000" lon="-5.081403000">
        <ele>97.3</ele>
        <time>2020-10-12T11:51:26Z</time>
      </trkpt>
      <trkpt lat="37.553017000" lon="-5.081366000">
        <ele>97.1</ele>
        <time>2020-10-12T11:51:29Z</time>
      </trkpt>
      <trkpt lat="37.553133000" lon="-5.081336000">
        <ele>97.0</ele>
        <time>2020-10-12T11:51:32Z</time>
      </trkpt>
      <trkpt lat="37.553249000" lon="-5.081312000">
        <ele>97.0</ele>
        <time>2020-10-12T11:51:35Z</time>
      </trkpt>
      <trkpt lat="37.553364000" lon="-5.081298000">
        <ele>97.1</ele>
        <time>2020-10-12T11:51:38Z</time>
      </trkpt>
      <trkpt lat="37.553477000" lon="-5.081289000">
        <ele>97.2</ele>
        <time>2020-10-12T11:51:41Z</time>
      </trkpt>
      <trkpt lat="37.553593000" lon="-5.081284000">
        <ele>97.3</ele>
        <time>2020-10-12T11:51:44Z</time>
      </trkpt>
      <trkpt lat="37.553674000" lon="-5.081279000">
        <ele>97.4</ele>
        <time>2020-10-12T11:51:46Z</time>
      </trkpt>
      <trkpt lat="37.553760000" lon="-5.081280000">
        <ele>97.4</ele>
        <time>2020-10-12T11:51:48Z</time>
      </trkpt>
      <trkpt lat="37.553846000" lon="-5.081279000">
        <ele>97.4</ele>
        <time>2020-10-12T11:51:50Z</time>
      </trkpt>
      <trkpt lat="37.553934000" lon="-5.081278000">
        <ele>97.3</ele>
        <time>2020-10-12T11:51:52Z</time>
      </trkpt>
      <trkpt lat="37.554018000" lon="-5.081272000">
        <ele>97.2</ele>
        <time>2020-10-12T11:51:54Z</time>
      </trkpt>
      <trkpt lat="37.554104000" lon="-5.081261000">
        <ele>97.1</ele>
        <time>2020-10-12T11:51:56Z</time>
      </trkpt>
      <trkpt lat="37.554191000" lon="-5.081257000">
        <ele>97.0</ele>
        <time>2020-10-12T11:51:58Z</time>
      </trkpt>
      <trkpt lat="37.554278000" lon="-5.081251000">
        <ele>97.0</ele>
        <time>2020-10-12T11:52:00Z</time>
      </trkpt>
      <trkpt lat="37.554368000" lon="-5.081251000">
        <ele>96.9</ele>
        <time>2020-10-12T11:52:02Z</time>
      </trkpt>
      <trkpt lat="37.554468000" lon="-5.081252000">
        <ele>96.8</ele>
        <time>2020-10-12T11:52:04Z</time>
      </trkpt>
      <trkpt lat="37.554563000" lon="-5.081254000">
        <ele>96.8</ele>
        <time>2020-10-12T11:52:06Z</time>
      </trkpt>
      <trkpt lat="37.554667000" lon="-5.081256000">
        <ele>96.8</ele>
        <time>2020-10-12T11:52:08Z</time>
      </trkpt>
      <trkpt lat="37.554764000" lon="-5.081261000">
        <ele>97.0</ele>
        <time>2020-10-12T11:52:10Z</time>
      </trkpt>
      <trkpt lat="37.554872000" lon="-5.081264000">
        <ele>97.2</ele>
        <time>2020-10-12T11:52:12Z</time>
      </trkpt>
      <trkpt lat="37.554980000" lon="-5.081267000">
        <ele>97.5</ele>
        <time>2020-10-12T11:52:14Z</time>
      </trkpt>
      <trkpt lat="37.555081000" lon="-5.081272000">
        <ele>97.7</ele>
        <time>2020-10-12T11:52:16Z</time>
      </trkpt>
      <trkpt lat="37.555187000" lon="-5.081278000">
        <ele>98.0</ele>
        <time>2020-10-12T11:52:18Z</time>
      </trkpt>
      <trkpt lat="37.555295000" lon="-5.081272000">
        <ele>98.4</ele>
        <time>2020-10-12T11:52:20Z</time>
      </trkpt>
      <trkpt lat="37.555395000" lon="-5.081266000">
        <ele>98.6</ele>
        <time>2020-10-12T11:52:22Z</time>
      </trkpt>
      <trkpt lat="37.555494000" lon="-5.081270000">
        <ele>98.9</ele>
        <time>2020-10-12T11:52:24Z</time>
      </trkpt>
      <trkpt lat="37.555594000" lon="-5.081270000">
        <ele>99.2</ele>
        <time>2020-10-12T11:52:26Z</time>
      </trkpt>
      <trkpt lat="37.555691000" lon="-5.081266000">
        <ele>99.4</ele>
        <time>2020-10-12T11:52:28Z</time>
      </trkpt>
      <trkpt lat="37.555790000" lon="-5.081271000">
        <ele>99.6</ele>
        <time>2020-10-12T11:52:30Z</time>
      </trkpt>
      <trkpt lat="37.555890000" lon="-5.081265000">
        <ele>99.9</ele>
        <time>2020-10-12T11:52:32Z</time>
      </trkpt>
      <trkpt lat="37.555991000" lon="-5.081259000">
        <ele>100.1</ele>
        <time>2020-10-12T11:52:34Z</time>
      </trkpt>
      <trkpt lat="37.556087000" lon="-5.081259000">
        <ele>100.2</ele>
        <time>2020-10-12T11:52:36Z</time>
      </trkpt>
      <trkpt lat="37.556182000" lon="-5.081256000">
        <ele>100.2</ele>
        <time>2020-10-12T11:52:38Z</time>
      </trkpt>
      <trkpt lat="37.556278000" lon="-5.081264000">
        <ele>100.1</ele>
        <time>2020-10-12T11:52:40Z</time>
      </trkpt>
      <trkpt lat="37.556376000" lon="-5.081280000">
        <ele>99.8</ele>
        <time>2020-10-12T11:52:42Z</time>
      </trkpt>
      <trkpt lat="37.556475000" lon="-5.081286000">
        <ele>99.5</ele>
        <time>2020-10-12T11:52:44Z</time>
      </trkpt>
      <trkpt lat="37.556571000" lon="-5.081301000">
        <ele>99.1</ele>
        <time>2020-10-12T11:52:46Z</time>
      </trkpt>
      <trkpt lat="37.556664000" lon="-5.081327000">
        <ele>98.7</ele>
        <time>2020-10-12T11:52:48Z</time>
      </trkpt>
      <trkpt lat="37.556761000" lon="-5.081366000">
        <ele>98.4</ele>
        <time>2020-10-12T11:52:50Z</time>
      </trkpt>
      <trkpt lat="37.556861000" lon="-5.081400000">
        <ele>97.9</ele>
        <time>2020-10-12T11:52:52Z</time>
      </trkpt>
      <trkpt lat="37.556956000" lon="-5.081437000">
        <ele>97.4</ele>
        <time>2020-10-12T11:52:54Z</time>
      </trkpt>
      <trkpt lat="37.557046000" lon="-5.081478000">
        <ele>96.9</ele>
        <time>2020-10-12T11:52:56Z</time>
      </trkpt>
      <trkpt lat="37.557137000" lon="-5.081512000">
        <ele>96.5</ele>
        <time>2020-10-12T11:52:58Z</time>
      </trkpt>
      <trkpt lat="37.557220000" lon="-5.081550000">
        <ele>96.3</ele>
        <time>2020-10-12T11:53:00Z</time>
      </trkpt>
      <trkpt lat="37.557296000" lon="-5.081590000">
        <ele>96.1</ele>
        <time>2020-10-12T11:53:02Z</time>
      </trkpt>
      <trkpt lat="37.557392000" lon="-5.081654000">
        <ele>96.0</ele>
        <time>2020-10-12T11:53:05Z</time>
      </trkpt>
      <trkpt lat="37.557472000" lon="-5.081698000">
        <ele>95.9</ele>
        <time>2020-10-12T11:53:08Z</time>
      </trkpt>
      <trkpt lat="37.557554000" lon="-5.081717000">
        <ele>95.8</ele>
        <time>2020-10-12T11:53:12Z</time>
      </trkpt>
      <trkpt lat="37.557635000" lon="-5.081677000">
        <ele>95.6</ele>
        <time>2020-10-12T11:53:19Z</time>
      </trkpt>
      <trkpt lat="37.557640000" lon="-5.081556000">
        <ele>95.5</ele>
        <time>2020-10-12T11:53:25Z</time>
      </trkpt>
      <trkpt lat="37.557673000" lon="-5.081446000">
        <ele>95.2</ele>
        <time>2020-10-12T11:53:29Z</time>
      </trkpt>
      <trkpt lat="37.557719000" lon="-5.081318000">
        <ele>94.9</ele>
        <time>2020-10-12T11:53:32Z</time>
      </trkpt>
      <trkpt lat="37.557746000" lon="-5.081213000">
        <ele>94.7</ele>
        <time>2020-10-12T11:53:34Z</time>
      </trkpt>
      <trkpt lat="37.557765000" lon="-5.081106000">
        <ele>94.6</ele>
        <time>2020-10-12T11:53:36Z</time>
      </trkpt>
      <trkpt lat="37.557784000" lon="-5.081001000">
        <ele>94.5</ele>
        <time>2020-10-12T11:53:38Z</time>
      </trkpt>
      <trkpt lat="37.557801000" lon="-5.080901000">
        <ele>94.5</ele>
        <time>2020-10-12T11:53:40Z</time>
      </trkpt>
      <trkpt lat="37.557817000" lon="-5.080800000">
        <ele>94.5</ele>
        <time>2020-10-12T11:53:42Z</time>
      </trkpt>
      <trkpt lat="37.557830000" lon="-5.080698000">
        <ele>94.5</ele>
        <time>2020-10-12T11:53:44Z</time>
      </trkpt>
      <trkpt lat="37.557840000" lon="-5.080593000">
        <ele>94.7</ele>
        <time>2020-10-12T11:53:46Z</time>
      </trkpt>
      <trkpt lat="37.557850000" lon="-5.080490000">
        <ele>95.0</ele>
        <time>2020-10-12T11:53:48Z</time>
      </trkpt>
      <trkpt lat="37.557860000" lon="-5.080387000">
        <ele>95.2</ele>
        <time>2020-10-12T11:53:50Z</time>
      </trkpt>
      <trkpt lat="37.557868000" lon="-5.080245000">
        <ele>95.5</ele>
        <time>2020-10-12T11:53:53Z</time>
      </trkpt>
      <trkpt lat="37.557886000" lon="-5.080098000">
        <ele>95.7</ele>
        <time>2020-10-12T11:53:56Z</time>
      </trkpt>
      <trkpt lat="37.557902000" lon="-5.079996000">
        <ele>95.9</ele>
        <time>2020-10-12T11:53:58Z</time>
      </trkpt>
      <trkpt lat="37.557913000" lon="-5.079887000">
        <ele>96.0</ele>
        <time>2020-10-12T11:54:00Z</time>
      </trkpt>
      <trkpt lat="37.557919000" lon="-5.079777000">
        <ele>96.1</ele>
        <time>2020-10-12T11:54:02Z</time>
      </trkpt>
      <trkpt lat="37.557926000" lon="-5.079671000">
        <ele>96.2</ele>
        <time>2020-10-12T11:54:04Z</time>
      </trkpt>
      <trkpt lat="37.557933000" lon="-5.079532000">
        <ele>96.1</ele>
        <time>2020-10-12T11:54:07Z</time>
      </trkpt>
      <trkpt lat="37.557936000" lon="-5.079419000">
        <ele>96.0</ele>
        <time>2020-10-12T11:54:10Z</time>
      </trkpt>
      <trkpt lat="37.557952000" lon="-5.079315000">
        <ele>95.7</ele>
        <time>2020-10-12T11:54:15Z</time>
      </trkpt>
      <trkpt lat="37.558007000" lon="-5.079233000">
        <ele>95.4</ele>
        <time>2020-10-12T11:54:24Z</time>
      </trkpt>
      <trkpt lat="37.557974000" lon="-5.079103000">
        <ele>95.0</ele>
        <time>2020-10-12T11:54:28Z</time>
      </trkpt>
      <trkpt lat="37.557967000" lon="-5.078994000">
        <ele>94.5</ele>
        <time>2020-10-12T11:54:31Z</time>
      </trkpt>
      <trkpt lat="37.557962000" lon="-5.078880000">
        <ele>94.1</ele>
        <time>2020-10-12T11:54:34Z</time>
      </trkpt>
      <trkpt lat="37.557959000" lon="-5.078753000">
        <ele>93.6</ele>
        <time>2020-10-12T11:54:37Z</time>
      </trkpt>
      <trkpt lat="37.557952000" lon="-5.078614000">
        <ele>93.2</ele>
        <time>2020-10-12T11:54:40Z</time>
      </trkpt>
      <trkpt lat="37.557940000" lon="-5.078487000">
        <ele>92.7</ele>
        <time>2020-10-12T11:54:43Z</time>
      </trkpt>
      <trkpt lat="37.557943000" lon="-5.078350000">
        <ele>92.3</ele>
        <time>2020-10-12T11:54:46Z</time>
      </trkpt>
      <trkpt lat="37.557939000" lon="-5.078219000">
        <ele>92.0</ele>
        <time>2020-10-12T11:54:49Z</time>
      </trkpt>
      <trkpt lat="37.557937000" lon="-5.078114000">
        <ele>91.7</ele>
        <time>2020-10-12T11:54:51Z</time>
      </trkpt>
      <trkpt lat="37.557930000" lon="-5.077974000">
        <ele>91.5</ele>
        <time>2020-10-12T11:54:54Z</time>
      </trkpt>
      <trkpt lat="37.557914000" lon="-5.077855000">
        <ele>91.5</ele>
        <time>2020-10-12T11:54:57Z</time>
      </trkpt>
      <trkpt lat="37.557899000" lon="-5.077731000">
        <ele>91.6</ele>
        <time>2020-10-12T11:55:00Z</time>
      </trkpt>
      <trkpt lat="37.557883000" lon="-5.077623000">
        <ele>91.9</ele>
        <time>2020-10-12T11:55:03Z</time>
      </trkpt>
      <trkpt lat="37.557871000" lon="-5.077496000">
        <ele>92.4</ele>
        <time>2020-10-12T11:55:06Z</time>
      </trkpt>
      <trkpt lat="37.557862000" lon="-5.077365000">
        <ele>93.0</ele>
        <time>2020-10-12T11:55:09Z</time>
      </trkpt>
      <trkpt lat="37.557849000" lon="-5.077220000">
        <ele>93.7</ele>
        <time>2020-10-12T11:55:12Z</time>
      </trkpt>
      <trkpt lat="37.557840000" lon="-5.077073000">
        <ele>94.5</ele>
        <time>2020-10-12T11:55:15Z</time>
      </trkpt>
      <trkpt lat="37.557832000" lon="-5.076928000">
        <ele>95.4</ele>
        <time>2020-10-12T11:55:18Z</time>
      </trkpt>
      <trkpt lat="37.557819000" lon="-5.076790000">
        <ele>96.1</ele>
        <time>2020-10-12T11:55:21Z</time>
      </trkpt>
      <trkpt lat="37.557817000" lon="-5.076660000">
        <ele>96.8</ele>
        <time>2020-10-12T11:55:24Z</time>
      </trkpt>
      <trkpt lat="37.557808000" lon="-5.076524000">
        <ele>97.5</ele>
        <time>2020-10-12T11:55:27Z</time>
      </trkpt>
      <trkpt lat="37.557803000" lon="-5.076388000">
        <ele>98.0</ele>
        <time>2020-10-12T11:55:30Z</time>
      </trkpt>
      <trkpt lat="37.557801000" lon="-5.076253000">
        <ele>98.5</ele>
        <time>2020-10-12T11:55:33Z</time>
      </trkpt>
      <trkpt lat="37.557795000" lon="-5.076115000">
        <ele>98.8</ele>
        <time>2020-10-12T11:55:36Z</time>
      </trkpt>
      <trkpt lat="37.557798000" lon="-5.075987000">
        <ele>99.0</ele>
        <time>2020-10-12T11:55:39Z</time>
      </trkpt>
      <trkpt lat="37.557814000" lon="-5.075861000">
        <ele>99.1</ele>
        <time>2020-10-12T11:55:42Z</time>
      </trkpt>
      <trkpt lat="37.557832000" lon="-5.075733000">
        <ele>99.2</ele>
        <time>2020-10-12T11:55:45Z</time>
      </trkpt>
      <trkpt lat="37.557845000" lon="-5.075606000">
        <ele>99.2</ele>
        <time>2020-10-12T11:55:48Z</time>
      </trkpt>
      <trkpt lat="37.557868000" lon="-5.075484000">
        <ele>99.2</ele>
        <time>2020-10-12T11:55:51Z</time>
      </trkpt>
      <trkpt lat="37.557889000" lon="-5.075361000">
        <ele>99.2</ele>
        <time>2020-10-12T11:55:54Z</time>
      </trkpt>
      <trkpt lat="37.557920000" lon="-5.075237000">
        <ele>99.3</ele>
        <time>2020-10-12T11:55:57Z</time>
      </trkpt>
      <trkpt lat="37.557955000" lon="-5.075118000">
        <ele>99.5</ele>
        <time>2020-10-12T11:56:00Z</time>
      </trkpt>
      <trkpt lat="37.558015000" lon="-5.075024000">
        <ele>99.6</ele>
        <time>2020-10-12T11:56:03Z</time>
      </trkpt>
      <trkpt lat="37.558081000" lon="-5.074951000">
        <ele>99.9</ele>
        <time>2020-10-12T11:56:06Z</time>
      </trkpt>
      <trkpt lat="37.558128000" lon="-5.074858000">
        <ele>100.2</ele>
        <time>2020-10-12T11:56:09Z</time>
      </trkpt>
      <trkpt lat="37.558165000" lon="-5.074741000">
        <ele>100.5</ele>
        <time>2020-10-12T11:56:12Z</time>
      </trkpt>
      <trkpt lat="37.558205000" lon="-5.074619000">
        <ele>100.6</ele>
        <time>2020-10-12T11:56:15Z</time>
      </trkpt>
      <trkpt lat="37.558245000" lon="-5.074501000">
        <ele>100.7</ele>
        <time>2020-10-12T11:56:18Z</time>
      </trkpt>
      <trkpt lat="37.558290000" lon="-5.074397000">
        <ele>100.8</ele>
        <time>2020-10-12T11:56:21Z</time>
      </trkpt>
      <trkpt lat="37.558330000" lon="-5.074308000">
        <ele>100.9</ele>
        <time>2020-10-12T11:56:24Z</time>
      </trkpt>
      <trkpt lat="37.558377000" lon="-5.074202000">
        <ele>101.0</ele>
        <time>2020-10-12T11:56:28Z</time>
      </trkpt>
      <trkpt lat="37.558432000" lon="-5.074096000">
        <ele>101.0</ele>
        <time>2020-10-12T11:56:32Z</time>
      </trkpt>
      <trkpt lat="37.558476000" lon="-5.073988000">
        <ele>101.1</ele>
        <time>2020-10-12T11:56:36Z</time>
      </trkpt>
      <trkpt lat="37.558541000" lon="-5.073905000">
        <ele>101.2</ele>
        <time>2020-10-12T11:56:43Z</time>
      </trkpt>
      <trkpt lat="37.558610000" lon="-5.073811000">
        <ele>101.3</ele>
        <time>2020-10-12T11:56:47Z</time>
      </trkpt>
      <trkpt lat="37.558679000" lon="-5.073728000">
        <ele>101.4</ele>
        <time>2020-10-12T11:56:52Z</time>
      </trkpt>
      <trkpt lat="37.558726000" lon="-5.073629000">
        <ele>101.5</ele>
        <time>2020-10-12T11:56:56Z</time>
      </trkpt>
      <trkpt lat="37.558764000" lon="-5.073520000">
        <ele>101.5</ele>
        <time>2020-10-12T11:56:59Z</time>
      </trkpt>
      <trkpt lat="37.558807000" lon="-5.073426000">
        <ele>101.5</ele>
        <time>2020-10-12T11:57:02Z</time>
      </trkpt>
      <trkpt lat="37.558855000" lon="-5.073333000">
        <ele>101.4</ele>
        <time>2020-10-12T11:57:05Z</time>
      </trkpt>
      <trkpt lat="37.558921000" lon="-5.073244000">
        <ele>101.3</ele>
        <time>2020-10-12T11:57:08Z</time>
      </trkpt>
      <trkpt lat="37.558979000" lon="-5.073167000">
        <ele>101.1</ele>
        <time>2020-10-12T11:57:11Z</time>
      </trkpt>
      <trkpt lat="37.559052000" lon="-5.073087000">
        <ele>101.0</ele>
        <time>2020-10-12T11:57:14Z</time>
      </trkpt>
      <trkpt lat="37.559138000" lon="-5.072986000">
        <ele>100.8</ele>
        <time>2020-10-12T11:57:17Z</time>
      </trkpt>
      <trkpt lat="37.559212000" lon="-5.072890000">
        <ele>100.7</ele>
        <time>2020-10-12T11:57:21Z</time>
      </trkpt>
      <trkpt lat="37.559298000" lon="-5.072796000">
        <ele>100.6</ele>
        <time>2020-10-12T11:57:24Z</time>
      </trkpt>
      <trkpt lat="37.559386000" lon="-5.072701000">
        <ele>100.6</ele>
        <time>2020-10-12T11:57:27Z</time>
      </trkpt>
      <trkpt lat="37.559477000" lon="-5.072600000">
        <ele>100.6</ele>
        <time>2020-10-12T11:57:30Z</time>
      </trkpt>
      <trkpt lat="37.559549000" lon="-5.072533000">
        <ele>100.8</ele>
        <time>2020-10-12T11:57:32Z</time>
      </trkpt>
      <trkpt lat="37.559624000" lon="-5.072476000">
        <ele>101.0</ele>
        <time>2020-10-12T11:57:34Z</time>
      </trkpt>
      <trkpt lat="37.559698000" lon="-5.072425000">
        <ele>101.4</ele>
        <time>2020-10-12T11:57:36Z</time>
      </trkpt>
      <trkpt lat="37.559805000" lon="-5.072355000">
        <ele>101.7</ele>
        <time>2020-10-12T11:57:39Z</time>
      </trkpt>
      <trkpt lat="37.559909000" lon="-5.072294000">
        <ele>102.2</ele>
        <time>2020-10-12T11:57:42Z</time>
      </trkpt>
      <trkpt lat="37.560005000" lon="-5.072238000">
        <ele>102.6</ele>
        <time>2020-10-12T11:57:45Z</time>
      </trkpt>
      <trkpt lat="37.560100000" lon="-5.072184000">
        <ele>103.1</ele>
        <time>2020-10-12T11:57:48Z</time>
      </trkpt>
      <trkpt lat="37.560195000" lon="-5.072136000">
        <ele>103.5</ele>
        <time>2020-10-12T11:57:51Z</time>
      </trkpt>
      <trkpt lat="37.560288000" lon="-5.072095000">
        <ele>104.0</ele>
        <time>2020-10-12T11:57:54Z</time>
      </trkpt>
      <trkpt lat="37.560392000" lon="-5.072050000">
        <ele>104.4</ele>
        <time>2020-10-12T11:57:57Z</time>
      </trkpt>
      <trkpt lat="37.560493000" lon="-5.072004000">
        <ele>104.8</ele>
        <time>2020-10-12T11:58:00Z</time>
      </trkpt>
      <trkpt lat="37.560602000" lon="-5.071961000">
        <ele>105.2</ele>
        <time>2020-10-12T11:58:03Z</time>
      </trkpt>
      <trkpt lat="37.560710000" lon="-5.071930000">
        <ele>105.5</ele>
        <time>2020-10-12T11:58:06Z</time>
      </trkpt>
      <trkpt lat="37.560820000" lon="-5.071908000">
        <ele>105.9</ele>
        <time>2020-10-12T11:58:09Z</time>
      </trkpt>
      <trkpt lat="37.560934000" lon="-5.071891000">
        <ele>106.3</ele>
        <time>2020-10-12T11:58:12Z</time>
      </trkpt>
      <trkpt lat="37.561048000" lon="-5.071878000">
        <ele>106.6</ele>
        <time>2020-10-12T11:58:15Z</time>
      </trkpt>
      <trkpt lat="37.561161000" lon="-5.071880000">
        <ele>106.8</ele>
        <time>2020-10-12T11:58:18Z</time>
      </trkpt>
      <trkpt lat="37.561269000" lon="-5.071867000">
        <ele>107.0</ele>
        <time>2020-10-12T11:58:21Z</time>
      </trkpt>
      <trkpt lat="37.561379000" lon="-5.071854000">
        <ele>107.1</ele>
        <time>2020-10-12T11:58:24Z</time>
      </trkpt>
      <trkpt lat="37.561495000" lon="-5.071825000">
        <ele>107.2</ele>
        <time>2020-10-12T11:58:27Z</time>
      </trkpt>
      <trkpt lat="37.561607000" lon="-5.071805000">
        <ele>107.2</ele>
        <time>2020-10-12T11:58:30Z</time>
      </trkpt>
      <trkpt lat="37.561723000" lon="-5.071791000">
        <ele>107.1</ele>
        <time>2020-10-12T11:58:33Z</time>
      </trkpt>
      <trkpt lat="37.561839000" lon="-5.071775000">
        <ele>107.0</ele>
        <time>2020-10-12T11:58:36Z</time>
      </trkpt>
      <trkpt lat="37.561948000" lon="-5.071758000">
        <ele>106.9</ele>
        <time>2020-10-12T11:58:39Z</time>
      </trkpt>
      <trkpt lat="37.562048000" lon="-5.071742000">
        <ele>106.7</ele>
        <time>2020-10-12T11:58:42Z</time>
      </trkpt>
      <trkpt lat="37.562163000" lon="-5.071729000">
        <ele>106.5</ele>
        <time>2020-10-12T11:58:45Z</time>
      </trkpt>
      <trkpt lat="37.562245000" lon="-5.071716000">
        <ele>106.5</ele>
        <time>2020-10-12T11:58:47Z</time>
      </trkpt>
      <trkpt lat="37.562328000" lon="-5.071707000">
        <ele>106.5</ele>
        <time>2020-10-12T11:58:49Z</time>
      </trkpt>
      <trkpt lat="37.562414000" lon="-5.071696000">
        <ele>106.5</ele>
        <time>2020-10-12T11:58:51Z</time>
      </trkpt>
      <trkpt lat="37.562500000" lon="-5.071685000">
        <ele>106.4</ele>
        <time>2020-10-12T11:58:53Z</time>
      </trkpt>
      <trkpt lat="37.562583000" lon="-5.071675000">
        <ele>106.3</ele>
        <time>2020-10-12T11:58:55Z</time>
      </trkpt>
      <trkpt lat="37.562699000" lon="-5.071661000">
        <ele>106.3</ele>
        <time>2020-10-12T11:58:58Z</time>
      </trkpt>
      <trkpt lat="37.562782000" lon="-5.071649000">
        <ele>106.4</ele>
        <time>2020-10-12T11:59:00Z</time>
      </trkpt>
      <trkpt lat="37.562866000" lon="-5.071640000">
        <ele>106.5</ele>
        <time>2020-10-12T11:59:02Z</time>
      </trkpt>
      <trkpt lat="37.562949000" lon="-5.071632000">
        <ele>106.5</ele>
        <time>2020-10-12T11:59:04Z</time>
      </trkpt>
      <trkpt lat="37.563063000" lon="-5.071611000">
        <ele>106.7</ele>
        <time>2020-10-12T11:59:07Z</time>
      </trkpt>
      <trkpt lat="37.563171000" lon="-5.071597000">
        <ele>107.1</ele>
        <time>2020-10-12T11:59:10Z</time>
      </trkpt>
      <trkpt lat="37.563275000" lon="-5.071576000">
        <ele>107.5</ele>
        <time>2020-10-12T11:59:13Z</time>
      </trkpt>
      <trkpt lat="37.563383000" lon="-5.071559000">
        <ele>107.9</ele>
        <time>2020-10-12T11:59:16Z</time>
      </trkpt>
      <trkpt lat="37.563493000" lon="-5.071542000">
        <ele>108.5</ele>
        <time>2020-10-12T11:59:19Z</time>
      </trkpt>
      <trkpt lat="37.563610000" lon="-5.071521000">
        <ele>109.2</ele>
        <time>2020-10-12T11:59:22Z</time>
      </trkpt>
      <trkpt lat="37.563727000" lon="-5.071513000">
        <ele>109.8</ele>
        <time>2020-10-12T11:59:25Z</time>
      </trkpt>
      <trkpt lat="37.563845000" lon="-5.071493000">
        <ele>110.4</ele>
        <time>2020-10-12T11:59:28Z</time>
      </trkpt>
      <trkpt lat="37.563952000" lon="-5.071474000">
        <ele>110.8</ele>
        <time>2020-10-12T11:59:31Z</time>
      </trkpt>
      <trkpt lat="37.564062000" lon="-5.071457000">
        <ele>111.3</ele>
        <time>2020-10-12T11:59:34Z</time>
      </trkpt>
      <trkpt lat="37.564169000" lon="-5.071444000">
        <ele>111.6</ele>
        <time>2020-10-12T11:59:37Z</time>
      </trkpt>
      <trkpt lat="37.564280000" lon="-5.071449000">
        <ele>111.9</ele>
        <time>2020-10-12T11:59:40Z</time>
      </trkpt>
      <trkpt lat="37.564400000" lon="-5.071422000">
        <ele>112.0</ele>
        <time>2020-10-12T11:59:43Z</time>
      </trkpt>
      <trkpt lat="37.564484000" lon="-5.071402000">
        <ele>111.9</ele>
        <time>2020-10-12T11:59:45Z</time>
      </trkpt>
      <trkpt lat="37.564565000" lon="-5.071389000">
        <ele>111.8</ele>
        <time>2020-10-12T11:59:47Z</time>
      </trkpt>
      <trkpt lat="37.564677000" lon="-5.071375000">
        <ele>111.7</ele>
        <time>2020-10-12T11:59:50Z</time>
      </trkpt>
      <trkpt lat="37.564789000" lon="-5.071365000">
        <ele>111.6</ele>
        <time>2020-10-12T11:59:53Z</time>
      </trkpt>
      <trkpt lat="37.564901000" lon="-5.071352000">
        <ele>111.6</ele>
        <time>2020-10-12T11:59:56Z</time>
      </trkpt>
      <trkpt lat="37.565019000" lon="-5.071338000">
        <ele>111.8</ele>
        <time>2020-10-12T11:59:59Z</time>
      </trkpt>
      <trkpt lat="37.565134000" lon="-5.071320000">
        <ele>112.0</ele>
        <time>2020-10-12T12:00:02Z</time>
      </trkpt>
      <trkpt lat="37.565247000" lon="-5.071291000">
        <ele>112.2</ele>
        <time>2020-10-12T12:00:05Z</time>
      </trkpt>
      <trkpt lat="37.565357000" lon="-5.071256000">
        <ele>112.5</ele>
        <time>2020-10-12T12:00:08Z</time>
      </trkpt>
      <trkpt lat="37.565473000" lon="-5.071226000">
        <ele>112.6</ele>
        <time>2020-10-12T12:00:11Z</time>
      </trkpt>
      <trkpt lat="37.565587000" lon="-5.071191000">
        <ele>112.8</ele>
        <time>2020-10-12T12:00:14Z</time>
      </trkpt>
      <trkpt lat="37.565696000" lon="-5.071148000">
        <ele>113.1</ele>
        <time>2020-10-12T12:00:17Z</time>
      </trkpt>
      <trkpt lat="37.565807000" lon="-5.071101000">
        <ele>113.4</ele>
        <time>2020-10-12T12:00:20Z</time>
      </trkpt>
      <trkpt lat="37.565807000" lon="-5.071101000">
        <ele>113.7</ele>
        <time>2020-10-12T12:00:20Z</time>
      </trkpt>
      <trkpt lat="37.607666000" lon="-5.026518000">
        <ele>197.7</ele>
        <time>2020-10-12T12:40:06Z</time>
      </trkpt>
      <trkpt lat="37.607768000" lon="-5.026477000">
        <ele>198.0</ele>
        <time>2020-10-12T12:40:20Z</time>
      </trkpt>
      <trkpt lat="37.607850000" lon="-5.026425000">
        <ele>198.4</ele>
        <time>2020-10-12T12:40:23Z</time>
      </trkpt>
      <trkpt lat="37.607939000" lon="-5.026377000">
        <ele>198.7</ele>
        <time>2020-10-12T12:40:26Z</time>
      </trkpt>
      <trkpt lat="37.608026000" lon="-5.026325000">
        <ele>199.0</ele>
        <time>2020-10-12T12:40:29Z</time>
      </trkpt>
      <trkpt lat="37.608110000" lon="-5.026253000">
        <ele>199.3</ele>
        <time>2020-10-12T12:40:32Z</time>
      </trkpt>
      <trkpt lat="37.608207000" lon="-5.026197000">
        <ele>199.8</ele>
        <time>2020-10-12T12:40:35Z</time>
      </trkpt>
      <trkpt lat="37.608310000" lon="-5.026143000">
        <ele>200.4</ele>
        <time>2020-10-12T12:40:38Z</time>
      </trkpt>
      <trkpt lat="37.608416000" lon="-5.026087000">
        <ele>200.9</ele>
        <time>2020-10-12T12:40:41Z</time>
      </trkpt>
      <trkpt lat="37.608516000" lon="-5.026019000">
        <ele>201.4</ele>
        <time>2020-10-12T12:40:44Z</time>
      </trkpt>
      <trkpt lat="37.608620000" lon="-5.025963000">
        <ele>201.6</ele>
        <time>2020-10-12T12:40:47Z</time>
      </trkpt>
      <trkpt lat="37.608722000" lon="-5.025901000">
        <ele>201.9</ele>
        <time>2020-10-12T12:40:50Z</time>
      </trkpt>
      <trkpt lat="37.608827000" lon="-5.025836000">
        <ele>202.0</ele>
        <time>2020-10-12T12:40:53Z</time>
      </trkpt>
      <trkpt lat="37.608934000" lon="-5.025772000">
        <ele>201.8</ele>
        <time>2020-10-12T12:40:56Z</time>
      </trkpt>
      <trkpt lat="37.609039000" lon="-5.025703000">
        <ele>201.5</ele>
        <time>2020-10-12T12:40:59Z</time>
      </trkpt>
      <trkpt lat="37.609139000" lon="-5.025637000">
        <ele>201.2</ele>
        <time>2020-10-12T12:41:02Z</time>
      </trkpt>
      <trkpt lat="37.609232000" lon="-5.025573000">
        <ele>200.7</ele>
        <time>2020-10-12T12:41:05Z</time>
      </trkpt>
      <trkpt lat="37.609322000" lon="-5.025509000">
        <ele>200.3</ele>
        <time>2020-10-12T12:41:08Z</time>
      </trkpt>
      <trkpt lat="37.609409000" lon="-5.025444000">
        <ele>199.7</ele>
        <time>2020-10-12T12:41:11Z</time>
      </trkpt>
      <trkpt lat="37.609465000" lon="-5.025359000">
        <ele>199.2</ele>
        <time>2020-10-12T12:41:14Z</time>
      </trkpt>
      <trkpt lat="37.609545000" lon="-5.025298000">
        <ele>198.6</ele>
        <time>2020-10-12T12:41:17Z</time>
      </trkpt>
      <trkpt lat="37.609635000" lon="-5.025245000">
        <ele>198.2</ele>
        <time>2020-10-12T12:41:20Z</time>
      </trkpt>
      <trkpt lat="37.609732000" lon="-5.025192000">
        <ele>197.7</ele>
        <time>2020-10-12T12:41:23Z</time>
      </trkpt>
      <trkpt lat="37.609821000" lon="-5.025130000">
        <ele>197.4</ele>
        <time>2020-10-12T12:41:26Z</time>
      </trkpt>
      <trkpt lat="37.609910000" lon="-5.025077000">
        <ele>197.2</ele>
        <time>2020-10-12T12:41:29Z</time>
      </trkpt>
      <trkpt lat="37.609999000" lon="-5.025017000">
        <ele>197.0</ele>
        <time>2020-10-12T12:41:32Z</time>
      </trkpt>
      <trkpt lat="37.610089000" lon="-5.024954000">
        <ele>196.8</ele>
        <time>2020-10-12T12:41:35Z</time>
      </trkpt>
      <trkpt lat="37.610175000" lon="-5.024894000">
        <ele>196.7</ele>
        <time>2020-10-12T12:41:38Z</time>
      </trkpt>
      <trkpt lat="37.610260000" lon="-5.024835000">
        <ele>196.6</ele>
        <time>2020-10-12T12:41:41Z</time>
      </trkpt>
      <trkpt lat="37.610347000" lon="-5.024780000">
        <ele>196.5</ele>
        <time>2020-10-12T12:41:44Z</time>
      </trkpt>
      <trkpt lat="37.610436000" lon="-5.024727000">
        <ele>196.5</ele>
        <time>2020-10-12T12:41:47Z</time>
      </trkpt>
      <trkpt lat="37.610534000" lon="-5.024667000">
        <ele>196.6</ele>
        <time>2020-10-12T12:41:50Z</time>
      </trkpt>
      <trkpt lat="37.610635000" lon="-5.024600000">
        <ele>196.7</ele>
        <time>2020-10-12T12:41:53Z</time>
      </trkpt>
      <trkpt lat="37.610735000" lon="-5.024530000">
        <ele>196.8</ele>
        <time>2020-10-12T12:41:56Z</time>
      </trkpt>
      <trkpt lat="37.610838000" lon="-5.024459000">
        <ele>196.9</ele>
        <time>2020-10-12T12:41:59Z</time>
      </trkpt>
      <trkpt lat="37.610941000" lon="-5.024386000">
        <ele>197.0</ele>
        <time>2020-10-12T12:42:02Z</time>
      </trkpt>
      <trkpt lat="37.611042000" lon="-5.024317000">
        <ele>197.2</ele>
        <time>2020-10-12T12:42:05Z</time>
      </trkpt>
      <trkpt lat="37.611148000" lon="-5.024257000">
        <ele>197.4</ele>
        <time>2020-10-12T12:42:08Z</time>
      </trkpt>
      <trkpt lat="37.611260000" lon="-5.024228000">
        <ele>197.5</ele>
        <time>2020-10-12T12:42:11Z</time>
      </trkpt>
      <trkpt lat="37.611367000" lon="-5.024163000">
        <ele>197.7</ele>
        <time>2020-10-12T12:42:14Z</time>
      </trkpt>
      <trkpt lat="37.611438000" lon="-5.024112000">
        <ele>197.9</ele>
        <time>2020-10-12T12:42:16Z</time>
      </trkpt>
      <trkpt lat="37.611511000" lon="-5.024059000">
        <ele>198.0</ele>
        <time>2020-10-12T12:42:18Z</time>
      </trkpt>
      <trkpt lat="37.611587000" lon="-5.024011000">
        <ele>198.0</ele>
        <time>2020-10-12T12:42:20Z</time>
      </trkpt>
      <trkpt lat="37.611663000" lon="-5.023960000">
        <ele>198.0</ele>
        <time>2020-10-12T12:42:22Z</time>
      </trkpt>
      <trkpt lat="37.611736000" lon="-5.023907000">
        <ele>198.0</ele>
        <time>2020-10-12T12:42:24Z</time>
      </trkpt>
      <trkpt lat="37.611809000" lon="-5.023860000">
        <ele>198.1</ele>
        <time>2020-10-12T12:42:26Z</time>
      </trkpt>
      <trkpt lat="37.611879000" lon="-5.023809000">
        <ele>198.2</ele>
        <time>2020-10-12T12:42:28Z</time>
      </trkpt>
      <trkpt lat="37.611983000" lon="-5.023740000">
        <ele>198.3</ele>
        <time>2020-10-12T12:42:31Z</time>
      </trkpt>
      <trkpt lat="37.612089000" lon="-5.023682000">
        <ele>198.4</ele>
        <time>2020-10-12T12:42:34Z</time>
      </trkpt>
      <trkpt lat="37.612196000" lon="-5.023624000">
        <ele>198.5</ele>
        <time>2020-10-12T12:42:37Z</time>
      </trkpt>
      <trkpt lat="37.612302000" lon="-5.023553000">
        <ele>198.5</ele>
        <time>2020-10-12T12:42:40Z</time>
      </trkpt>
      <trkpt lat="37.612408000" lon="-5.023487000">
        <ele>198.5</ele>
        <time>2020-10-12T12:42:43Z</time>
      </trkpt>
      <trkpt lat="37.612513000" lon="-5.023412000">
        <ele>198.5</ele>
        <time>2020-10-12T12:42:46Z</time>
      </trkpt>
      <trkpt lat="37.612584000" lon="-5.023361000">
        <ele>198.4</ele>
        <time>2020-10-12T12:42:48Z</time>
      </trkpt>
      <trkpt lat="37.612657000" lon="-5.023314000">
        <ele>198.2</ele>
        <time>2020-10-12T12:42:50Z</time>
      </trkpt>
      <trkpt lat="37.612734000" lon="-5.023273000">
        <ele>198.0</ele>
        <time>2020-10-12T12:42:52Z</time>
      </trkpt>
      <trkpt lat="37.612812000" lon="-5.023223000">
        <ele>197.7</ele>
        <time>2020-10-12T12:42:54Z</time>
      </trkpt>
      <trkpt lat="37.612888000" lon="-5.023173000">
        <ele>197.5</ele>
        <time>2020-10-12T12:42:56Z</time>
      </trkpt>
      <trkpt lat="37.612966000" lon="-5.023124000">
        <ele>197.4</ele>
        <time>2020-10-12T12:42:58Z</time>
      </trkpt>
      <trkpt lat="37.613042000" lon="-5.023069000">
        <ele>197.2</ele>
        <time>2020-10-12T12:43:00Z</time>
      </trkpt>
      <trkpt lat="37.613118000" lon="-5.023016000">
        <ele>197.0</ele>
        <time>2020-10-12T12:43:02Z</time>
      </trkpt>
      <trkpt lat="37.613194000" lon="-5.022966000">
        <ele>196.8</ele>
        <time>2020-10-12T12:43:04Z</time>
      </trkpt>
      <trkpt lat="37.613273000" lon="-5.022922000">
        <ele>196.7</ele>
        <time>2020-10-12T12:43:06Z</time>
      </trkpt>
      <trkpt lat="37.613350000" lon="-5.022874000">
        <ele>196.7</ele>
        <time>2020-10-12T12:43:08Z</time>
      </trkpt>
      <trkpt lat="37.613429000" lon="-5.022824000">
        <ele>196.6</ele>
        <time>2020-10-12T12:43:10Z</time>
      </trkpt>
      <trkpt lat="37.613502000" lon="-5.022773000">
        <ele>196.6</ele>
        <time>2020-10-12T12:43:12Z</time>
      </trkpt>
      <trkpt lat="37.613573000" lon="-5.022723000">
        <ele>196.7</ele>
        <time>2020-10-12T12:43:14Z</time>
      </trkpt>
      <trkpt lat="37.613645000" lon="-5.022672000">
        <ele>196.8</ele>
        <time>2020-10-12T12:43:16Z</time>
      </trkpt>
      <trkpt lat="37.613743000" lon="-5.022603000">
        <ele>196.9</ele>
        <time>2020-10-12T12:43:19Z</time>
      </trkpt>
      <trkpt lat="37.613839000" lon="-5.022535000">
        <ele>197.1</ele>
        <time>2020-10-12T12:43:22Z</time>
      </trkpt>
      <trkpt lat="37.613935000" lon="-5.022473000">
        <ele>197.3</ele>
        <time>2020-10-12T12:43:25Z</time>
      </trkpt>
      <trkpt lat="37.614027000" lon="-5.022408000">
        <ele>197.5</ele>
        <time>2020-10-12T12:43:28Z</time>
      </trkpt>
      <trkpt lat="37.614121000" lon="-5.022346000">
        <ele>197.6</ele>
        <time>2020-10-12T12:43:31Z</time>
      </trkpt>
      <trkpt lat="37.614219000" lon="-5.022285000">
        <ele>197.8</ele>
        <time>2020-10-12T12:43:34Z</time>
      </trkpt>
      <trkpt lat="37.614318000" lon="-5.022222000">
        <ele>198.0</ele>
        <time>2020-10-12T12:43:37Z</time>
      </trkpt>
      <trkpt lat="37.614426000" lon="-5.022156000">
        <ele>198.3</ele>
        <time>2020-10-12T12:43:40Z</time>
      </trkpt>
      <trkpt lat="37.614507000" lon="-5.022109000">
        <ele>198.5</ele>
        <time>2020-10-12T12:43:42Z</time>
      </trkpt>
      <trkpt lat="37.614584000" lon="-5.022059000">
        <ele>198.7</ele>
        <time>2020-10-12T12:43:44Z</time>
      </trkpt>
      <trkpt lat="37.614665000" lon="-5.022004000">
        <ele>198.9</ele>
        <time>2020-10-12T12:43:46Z</time>
      </trkpt>
      <trkpt lat="37.614741000" lon="-5.021944000">
        <ele>198.9</ele>
        <time>2020-10-12T12:43:48Z</time>
      </trkpt>
      <trkpt lat="37.614841000" lon="-5.021868000">
        <ele>198.8</ele>
        <time>2020-10-12T12:43:51Z</time>
      </trkpt>
      <trkpt lat="37.614933000" lon="-5.021806000">
        <ele>198.7</ele>
        <time>2020-10-12T12:43:54Z</time>
      </trkpt>
      <trkpt lat="37.615030000" lon="-5.021742000">
        <ele>198.6</ele>
        <time>2020-10-12T12:43:57Z</time>
      </trkpt>
      <trkpt lat="37.615131000" lon="-5.021677000">
        <ele>198.5</ele>
        <time>2020-10-12T12:44:00Z</time>
      </trkpt>
      <trkpt lat="37.615238000" lon="-5.021605000">
        <ele>198.4</ele>
        <time>2020-10-12T12:44:03Z</time>
      </trkpt>
      <trkpt lat="37.615346000" lon="-5.021544000">
        <ele>198.1</ele>
        <time>2020-10-12T12:44:06Z</time>
      </trkpt>
      <trkpt lat="37.615455000" lon="-5.021486000">
        <ele>197.8</ele>
        <time>2020-10-12T12:44:09Z</time>
      </trkpt>
      <trkpt lat="37.615529000" lon="-5.021440000">
        <ele>197.5</ele>
        <time>2020-10-12T12:44:11Z</time>
      </trkpt>
      <trkpt lat="37.615610000" lon="-5.021389000">
        <ele>197.4</ele>
        <time>2020-10-12T12:44:13Z</time>
      </trkpt>
      <trkpt lat="37.615686000" lon="-5.021342000">
        <ele>197.2</ele>
        <time>2020-10-12T12:44:15Z</time>
      </trkpt>
      <trkpt lat="37.615756000" lon="-5.021291000">
        <ele>197.2</ele>
        <time>2020-10-12T12:44:17Z</time>
      </trkpt>
      <trkpt lat="37.615866000" lon="-5.021223000">
        <ele>197.2</ele>
        <time>2020-10-12T12:44:20Z</time>
      </trkpt>
      <trkpt lat="37.615952000" lon="-5.021171000">
        <ele>197.3</ele>
        <time>2020-10-12T12:44:22Z</time>
      </trkpt>
      <trkpt lat="37.616032000" lon="-5.021118000">
        <ele>197.4</ele>
        <time>2020-10-12T12:44:24Z</time>
      </trkpt>
      <trkpt lat="37.616112000" lon="-5.021067000">
        <ele>197.5</ele>
        <time>2020-10-12T12:44:26Z</time>
      </trkpt>
      <trkpt lat="37.616217000" lon="-5.020998000">
        <ele>197.6</ele>
        <time>2020-10-12T12:44:29Z</time>
      </trkpt>
      <trkpt lat="37.616324000" lon="-5.020935000">
        <ele>197.9</ele>
        <time>2020-10-12T12:44:32Z</time>
      </trkpt>
      <trkpt lat="37.616401000" lon="-5.020888000">
        <ele>198.2</ele>
        <time>2020-10-12T12:44:34Z</time>
      </trkpt>
      <trkpt lat="37.616478000" lon="-5.020836000">
        <ele>198.4</ele>
        <time>2020-10-12T12:44:36Z</time>
      </trkpt>
      <trkpt lat="37.616551000" lon="-5.020784000">
        <ele>198.4</ele>
        <time>2020-10-12T12:44:38Z</time>
      </trkpt>
      <trkpt lat="37.616652000" lon="-5.020720000">
        <ele>198.4</ele>
        <time>2020-10-12T12:44:41Z</time>
      </trkpt>
      <trkpt lat="37.616759000" lon="-5.020646000">
        <ele>198.2</ele>
        <time>2020-10-12T12:44:44Z</time>
      </trkpt>
      <trkpt lat="37.616842000" lon="-5.020596000">
        <ele>198.0</ele>
        <time>2020-10-12T12:44:46Z</time>
      </trkpt>
      <trkpt lat="37.616951000" lon="-5.020529000">
        <ele>197.7</ele>
        <time>2020-10-12T12:44:49Z</time>
      </trkpt>
      <trkpt lat="37.617038000" lon="-5.020450000">
        <ele>197.5</ele>
        <time>2020-10-12T12:44:52Z</time>
      </trkpt>
      <trkpt lat="37.617111000" lon="-5.020404000">
        <ele>197.2</ele>
        <time>2020-10-12T12:44:54Z</time>
      </trkpt>
      <trkpt lat="37.617207000" lon="-5.020344000">
        <ele>196.9</ele>
        <time>2020-10-12T12:44:57Z</time>
      </trkpt>
      <trkpt lat="37.617300000" lon="-5.020282000">
        <ele>196.6</ele>
        <time>2020-10-12T12:45:00Z</time>
      </trkpt>
      <trkpt lat="37.617396000" lon="-5.020222000">
        <ele>196.4</ele>
        <time>2020-10-12T12:45:03Z</time>
      </trkpt>
      <trkpt lat="37.617492000" lon="-5.020152000">
        <ele>196.2</ele>
        <time>2020-10-12T12:45:06Z</time>
      </trkpt>
      <trkpt lat="37.617591000" lon="-5.020081000">
        <ele>196.1</ele>
        <time>2020-10-12T12:45:09Z</time>
      </trkpt>
      <trkpt lat="37.617700000" lon="-5.020021000">
        <ele>196.0</ele>
        <time>2020-10-12T12:45:12Z</time>
      </trkpt>
      <trkpt lat="37.617810000" lon="-5.019959000">
        <ele>195.9</ele>
        <time>2020-10-12T12:45:15Z</time>
      </trkpt>
      <trkpt lat="37.617918000" lon="-5.019885000">
        <ele>195.9</ele>
        <time>2020-10-12T12:45:18Z</time>
      </trkpt>
      <trkpt lat="37.618000000" lon="-5.019837000">
        <ele>195.9</ele>
        <time>2020-10-12T12:45:20Z</time>
      </trkpt>
      <trkpt lat="37.618072000" lon="-5.019791000">
        <ele>195.9</ele>
        <time>2020-10-12T12:45:22Z</time>
      </trkpt>
      <trkpt lat="37.618179000" lon="-5.019733000">
        <ele>195.9</ele>
        <time>2020-10-12T12:45:25Z</time>
      </trkpt>
      <trkpt lat="37.618253000" lon="-5.019686000">
        <ele>195.9</ele>
        <time>2020-10-12T12:45:27Z</time>
      </trkpt>
      <trkpt lat="37.618321000" lon="-5.019628000">
        <ele>196.0</ele>
        <time>2020-10-12T12:45:29Z</time>
      </trkpt>
      <trkpt lat="37.618426000" lon="-5.019556000">
        <ele>196.1</ele>
        <time>2020-10-12T12:45:32Z</time>
      </trkpt>
      <trkpt lat="37.618497000" lon="-5.019504000">
        <ele>196.2</ele>
        <time>2020-10-12T12:45:34Z</time>
      </trkpt>
      <trkpt lat="37.618570000" lon="-5.019460000">
        <ele>196.3</ele>
        <time>2020-10-12T12:45:36Z</time>
      </trkpt>
      <trkpt lat="37.618645000" lon="-5.019408000">
        <ele>196.4</ele>
        <time>2020-10-12T12:45:38Z</time>
      </trkpt>
      <trkpt lat="37.618715000" lon="-5.019302000">
        <ele>196.6</ele>
        <time>2020-10-12T12:45:41Z</time>
      </trkpt>
      <trkpt lat="37.618791000" lon="-5.019236000">
        <ele>196.8</ele>
        <time>2020-10-12T12:45:44Z</time>
      </trkpt>
      <trkpt lat="37.618884000" lon="-5.019176000">
        <ele>196.9</ele>
        <time>2020-10-12T12:45:47Z</time>
      </trkpt>
      <trkpt lat="37.618978000" lon="-5.019116000">
        <ele>197.0</ele>
        <time>2020-10-12T12:45:50Z</time>
      </trkpt>
      <trkpt lat="37.619070000" lon="-5.019057000">
        <ele>197.1</ele>
        <time>2020-10-12T12:45:53Z</time>
      </trkpt>
      <trkpt lat="37.619169000" lon="-5.018991000">
        <ele>197.2</ele>
        <time>2020-10-12T12:45:56Z</time>
      </trkpt>
      <trkpt lat="37.619267000" lon="-5.018930000">
        <ele>197.1</ele>
        <time>2020-10-12T12:45:59Z</time>
      </trkpt>
      <trkpt lat="37.619365000" lon="-5.018880000">
        <ele>197.0</ele>
        <time>2020-10-12T12:46:02Z</time>
      </trkpt>
      <trkpt lat="37.619456000" lon="-5.018821000">
        <ele>196.9</ele>
        <time>2020-10-12T12:46:05Z</time>
      </trkpt>
      <trkpt lat="37.619548000" lon="-5.018764000">
        <ele>196.9</ele>
        <time>2020-10-12T12:46:08Z</time>
      </trkpt>
      <trkpt lat="37.619638000" lon="-5.018697000">
        <ele>196.9</ele>
        <time>2020-10-12T12:46:11Z</time>
      </trkpt>
      <trkpt lat="37.619732000" lon="-5.018632000">
        <ele>196.9</ele>
        <time>2020-10-12T12:46:14Z</time>
      </trkpt>
      <trkpt lat="37.619830000" lon="-5.018572000">
        <ele>196.9</ele>
        <time>2020-10-12T12:46:17Z</time>
      </trkpt>
      <trkpt lat="37.619921000" lon="-5.018506000">
        <ele>196.9</ele>
        <time>2020-10-12T12:46:20Z</time>
      </trkpt>
      <trkpt lat="37.620013000" lon="-5.018451000">
        <ele>196.9</ele>
        <time>2020-10-12T12:46:23Z</time>
      </trkpt>
      <trkpt lat="37.620102000" lon="-5.018388000">
        <ele>196.9</ele>
        <time>2020-10-12T12:46:26Z</time>
      </trkpt>
      <trkpt lat="37.620194000" lon="-5.018334000">
        <ele>196.9</ele>
        <time>2020-10-12T12:46:29Z</time>
      </trkpt>
      <trkpt lat="37.620281000" lon="-5.018275000">
        <ele>197.1</ele>
        <time>2020-10-12T12:46:32Z</time>
      </trkpt>
      <trkpt lat="37.620373000" lon="-5.018215000">
        <ele>197.3</ele>
        <time>2020-10-12T12:46:35Z</time>
      </trkpt>
      <trkpt lat="37.620446000" lon="-5.018169000">
        <ele>197.5</ele>
        <time>2020-10-12T12:46:37Z</time>
      </trkpt>
      <trkpt lat="37.620545000" lon="-5.018112000">
        <ele>197.5</ele>
        <time>2020-10-12T12:46:40Z</time>
      </trkpt>
      <trkpt lat="37.620639000" lon="-5.018055000">
        <ele>197.6</ele>
        <time>2020-10-12T12:46:43Z</time>
      </trkpt>
      <trkpt lat="37.620733000" lon="-5.017992000">
        <ele>197.6</ele>
        <time>2020-10-12T12:46:46Z</time>
      </trkpt>
      <trkpt lat="37.620828000" lon="-5.017930000">
        <ele>197.6</ele>
        <time>2020-10-12T12:46:49Z</time>
      </trkpt>
      <trkpt lat="37.620923000" lon="-5.017872000">
        <ele>197.6</ele>
        <time>2020-10-12T12:46:52Z</time>
      </trkpt>
      <trkpt lat="37.621024000" lon="-5.017807000">
        <ele>197.6</ele>
        <time>2020-10-12T12:46:55Z</time>
      </trkpt>
      <trkpt lat="37.621110000" lon="-5.017752000">
        <ele>197.6</ele>
        <time>2020-10-12T12:46:58Z</time>
      </trkpt>
      <trkpt lat="37.621202000" lon="-5.017719000">
        <ele>197.5</ele>
        <time>2020-10-12T12:47:01Z</time>
      </trkpt>
      <trkpt lat="37.621295000" lon="-5.017673000">
        <ele>197.4</ele>
        <time>2020-10-12T12:47:04Z</time>
      </trkpt>
      <trkpt lat="37.621389000" lon="-5.017615000">
        <ele>197.2</ele>
        <time>2020-10-12T12:47:07Z</time>
      </trkpt>
      <trkpt lat="37.621484000" lon="-5.017557000">
        <ele>196.9</ele>
        <time>2020-10-12T12:47:10Z</time>
      </trkpt>
      <trkpt lat="37.621583000" lon="-5.017493000">
        <ele>196.6</ele>
        <time>2020-10-12T12:47:13Z</time>
      </trkpt>
      <trkpt lat="37.621688000" lon="-5.017425000">
        <ele>196.5</ele>
        <time>2020-10-12T12:47:16Z</time>
      </trkpt>
      <trkpt lat="37.621760000" lon="-5.017375000">
        <ele>196.3</ele>
        <time>2020-10-12T12:47:18Z</time>
      </trkpt>
      <trkpt lat="37.621828000" lon="-5.017317000">
        <ele>196.2</ele>
        <time>2020-10-12T12:47:20Z</time>
      </trkpt>
      <trkpt lat="37.621932000" lon="-5.017252000">
        <ele>196.3</ele>
        <time>2020-10-12T12:47:23Z</time>
      </trkpt>
      <trkpt lat="37.622035000" lon="-5.017187000">
        <ele>196.4</ele>
        <time>2020-10-12T12:47:26Z</time>
      </trkpt>
      <trkpt lat="37.622142000" lon="-5.017124000">
        <ele>196.5</ele>
        <time>2020-10-12T12:47:29Z</time>
      </trkpt>
      <trkpt lat="37.622216000" lon="-5.017082000">
        <ele>196.6</ele>
        <time>2020-10-12T12:47:31Z</time>
      </trkpt>
      <trkpt lat="37.622286000" lon="-5.017029000">
        <ele>196.7</ele>
        <time>2020-10-12T12:47:33Z</time>
      </trkpt>
      <trkpt lat="37.622389000" lon="-5.016962000">
        <ele>196.8</ele>
        <time>2020-10-12T12:47:36Z</time>
      </trkpt>
      <trkpt lat="37.622489000" lon="-5.016897000">
        <ele>196.9</ele>
        <time>2020-10-12T12:47:39Z</time>
      </trkpt>
      <trkpt lat="37.622582000" lon="-5.016825000">
        <ele>197.0</ele>
        <time>2020-10-12T12:47:42Z</time>
      </trkpt>
      <trkpt lat="37.622678000" lon="-5.016769000">
        <ele>196.9</ele>
        <time>2020-10-12T12:47:45Z</time>
      </trkpt>
      <trkpt lat="37.622765000" lon="-5.016702000">
        <ele>196.9</ele>
        <time>2020-10-12T12:47:48Z</time>
      </trkpt>
      <trkpt lat="37.622855000" lon="-5.016642000">
        <ele>196.8</ele>
        <time>2020-10-12T12:47:51Z</time>
      </trkpt>
      <trkpt lat="37.622946000" lon="-5.016585000">
        <ele>196.6</ele>
        <time>2020-10-12T12:47:54Z</time>
      </trkpt>
      <trkpt lat="37.623035000" lon="-5.016514000">
        <ele>196.5</ele>
        <time>2020-10-12T12:47:57Z</time>
      </trkpt>
      <trkpt lat="37.623133000" lon="-5.016453000">
        <ele>196.4</ele>
        <time>2020-10-12T12:48:00Z</time>
      </trkpt>
      <trkpt lat="37.623242000" lon="-5.016394000">
        <ele>196.3</ele>
        <time>2020-10-12T12:48:03Z</time>
      </trkpt>
      <trkpt lat="37.623315000" lon="-5.016346000">
        <ele>196.3</ele>
        <time>2020-10-12T12:48:05Z</time>
      </trkpt>
      <trkpt lat="37.623390000" lon="-5.016294000">
        <ele>196.3</ele>
        <time>2020-10-12T12:48:07Z</time>
      </trkpt>
      <trkpt lat="37.623464000" lon="-5.016247000">
        <ele>196.4</ele>
        <time>2020-10-12T12:48:09Z</time>
      </trkpt>
      <trkpt lat="37.623566000" lon="-5.016187000">
        <ele>196.5</ele>
        <time>2020-10-12T12:48:12Z</time>
      </trkpt>
      <trkpt lat="37.623668000" lon="-5.016124000">
        <ele>196.6</ele>
        <time>2020-10-12T12:48:15Z</time>
      </trkpt>
      <trkpt lat="37.623771000" lon="-5.016059000">
        <ele>196.7</ele>
        <time>2020-10-12T12:48:18Z</time>
      </trkpt>
      <trkpt lat="37.623871000" lon="-5.015985000">
        <ele>196.8</ele>
        <time>2020-10-12T12:48:21Z</time>
      </trkpt>
      <trkpt lat="37.623973000" lon="-5.015920000">
        <ele>196.9</ele>
        <time>2020-10-12T12:48:24Z</time>
      </trkpt>
      <trkpt lat="37.624072000" lon="-5.015857000">
        <ele>197.0</ele>
        <time>2020-10-12T12:48:27Z</time>
      </trkpt>
      <trkpt lat="37.624174000" lon="-5.015795000">
        <ele>197.0</ele>
        <time>2020-10-12T12:48:30Z</time>
      </trkpt>
      <trkpt lat="37.624281000" lon="-5.015728000">
        <ele>197.0</ele>
        <time>2020-10-12T12:48:33Z</time>
      </trkpt>
      <trkpt lat="37.624386000" lon="-5.015658000">
        <ele>197.0</ele>
        <time>2020-10-12T12:48:36Z</time>
      </trkpt>
      <trkpt lat="37.624493000" lon="-5.015588000">
        <ele>196.9</ele>
        <time>2020-10-12T12:48:39Z</time>
      </trkpt>
      <trkpt lat="37.624565000" lon="-5.015539000">
        <ele>196.8</ele>
        <time>2020-10-12T12:48:41Z</time>
      </trkpt>
      <trkpt lat="37.624671000" lon="-5.015468000">
        <ele>196.6</ele>
        <time>2020-10-12T12:48:44Z</time>
      </trkpt>
      <trkpt lat="37.624773000" lon="-5.015395000">
        <ele>196.4</ele>
        <time>2020-10-12T12:48:47Z</time>
      </trkpt>
      <trkpt lat="37.624877000" lon="-5.015328000">
        <ele>196.2</ele>
        <time>2020-10-12T12:48:50Z</time>
      </trkpt>
      <trkpt lat="37.624983000" lon="-5.015258000">
        <ele>196.0</ele>
        <time>2020-10-12T12:48:53Z</time>
      </trkpt>
      <trkpt lat="37.625055000" lon="-5.015210000">
        <ele>195.9</ele>
        <time>2020-10-12T12:48:55Z</time>
      </trkpt>
      <trkpt lat="37.625163000" lon="-5.015145000">
        <ele>195.8</ele>
        <time>2020-10-12T12:48:58Z</time>
      </trkpt>
      <trkpt lat="37.625269000" lon="-5.015075000">
        <ele>195.7</ele>
        <time>2020-10-12T12:49:01Z</time>
      </trkpt>
      <trkpt lat="37.625380000" lon="-5.015009000">
        <ele>195.6</ele>
        <time>2020-10-12T12:49:04Z</time>
      </trkpt>
      <trkpt lat="37.625453000" lon="-5.014964000">
        <ele>195.5</ele>
        <time>2020-10-12T12:49:06Z</time>
      </trkpt>
      <trkpt lat="37.625547000" lon="-5.014908000">
        <ele>195.5</ele>
        <time>2020-10-12T12:49:09Z</time>
      </trkpt>
      <trkpt lat="37.625636000" lon="-5.014840000">
        <ele>195.5</ele>
        <time>2020-10-12T12:49:12Z</time>
      </trkpt>
      <trkpt lat="37.625713000" lon="-5.014776000">
        <ele>195.6</ele>
        <time>2020-10-12T12:49:15Z</time>
      </trkpt>
      <trkpt lat="37.625794000" lon="-5.014712000">
        <ele>195.8</ele>
        <time>2020-10-12T12:49:18Z</time>
      </trkpt>
      <trkpt lat="37.625868000" lon="-5.014651000">
        <ele>195.9</ele>
        <time>2020-10-12T12:49:21Z</time>
      </trkpt>
      <trkpt lat="37.625943000" lon="-5.014578000">
        <ele>195.9</ele>
        <time>2020-10-12T12:49:24Z</time>
      </trkpt>
      <trkpt lat="37.626032000" lon="-5.014531000">
        <ele>195.8</ele>
        <time>2020-10-12T12:49:27Z</time>
      </trkpt>
      <trkpt lat="37.626129000" lon="-5.014462000">
        <ele>195.7</ele>
        <time>2020-10-12T12:49:30Z</time>
      </trkpt>
      <trkpt lat="37.626234000" lon="-5.014390000">
        <ele>195.6</ele>
        <time>2020-10-12T12:49:33Z</time>
      </trkpt>
      <trkpt lat="37.626337000" lon="-5.014310000">
        <ele>195.5</ele>
        <time>2020-10-12T12:49:36Z</time>
      </trkpt>
      <trkpt lat="37.626442000" lon="-5.014238000">
        <ele>195.5</ele>
        <time>2020-10-12T12:49:39Z</time>
      </trkpt>
      <trkpt lat="37.626549000" lon="-5.014173000">
        <ele>195.4</ele>
        <time>2020-10-12T12:49:42Z</time>
      </trkpt>
      <trkpt lat="37.626624000" lon="-5.014134000">
        <ele>195.3</ele>
        <time>2020-10-12T12:49:44Z</time>
      </trkpt>
      <trkpt lat="37.626730000" lon="-5.014067000">
        <ele>195.3</ele>
        <time>2020-10-12T12:49:47Z</time>
      </trkpt>
      <trkpt lat="37.626837000" lon="-5.014008000">
        <ele>195.2</ele>
        <time>2020-10-12T12:49:50Z</time>
      </trkpt>
      <trkpt lat="37.626937000" lon="-5.013936000">
        <ele>195.2</ele>
        <time>2020-10-12T12:49:53Z</time>
      </trkpt>
      <trkpt lat="37.627044000" lon="-5.013871000">
        <ele>195.3</ele>
        <time>2020-10-12T12:49:56Z</time>
      </trkpt>
      <trkpt lat="37.627114000" lon="-5.013816000">
        <ele>195.4</ele>
        <time>2020-10-12T12:49:58Z</time>
      </trkpt>
      <trkpt lat="37.627190000" lon="-5.013771000">
        <ele>195.5</ele>
        <time>2020-10-12T12:50:00Z</time>
      </trkpt>
      <trkpt lat="37.627262000" lon="-5.013722000">
        <ele>195.5</ele>
        <time>2020-10-12T12:50:02Z</time>
      </trkpt>
      <trkpt lat="37.627334000" lon="-5.013672000">
        <ele>195.6</ele>
        <time>2020-10-12T12:50:04Z</time>
      </trkpt>
      <trkpt lat="37.627430000" lon="-5.013601000">
        <ele>195.7</ele>
        <time>2020-10-12T12:50:07Z</time>
      </trkpt>
      <trkpt lat="37.627523000" lon="-5.013537000">
        <ele>195.8</ele>
        <time>2020-10-12T12:50:10Z</time>
      </trkpt>
      <trkpt lat="37.627617000" lon="-5.013482000">
        <ele>196.0</ele>
        <time>2020-10-12T12:50:13Z</time>
      </trkpt>
      <trkpt lat="37.627710000" lon="-5.013415000">
        <ele>196.1</ele>
        <time>2020-10-12T12:50:16Z</time>
      </trkpt>
      <trkpt lat="37.627819000" lon="-5.013341000">
        <ele>196.3</ele>
        <time>2020-10-12T12:50:19Z</time>
      </trkpt>
      <trkpt lat="37.627899000" lon="-5.013289000">
        <ele>196.4</ele>
        <time>2020-10-12T12:50:21Z</time>
      </trkpt>
      <trkpt lat="37.627979000" lon="-5.013240000">
        <ele>196.5</ele>
        <time>2020-10-12T12:50:23Z</time>
      </trkpt>
      <trkpt lat="37.628056000" lon="-5.013193000">
        <ele>196.5</ele>
        <time>2020-10-12T12:50:25Z</time>
      </trkpt>
      <trkpt lat="37.628163000" lon="-5.013126000">
        <ele>196.6</ele>
        <time>2020-10-12T12:50:28Z</time>
      </trkpt>
      <trkpt lat="37.628270000" lon="-5.013053000">
        <ele>196.7</ele>
        <time>2020-10-12T12:50:31Z</time>
      </trkpt>
      <trkpt lat="37.628344000" lon="-5.013008000">
        <ele>196.8</ele>
        <time>2020-10-12T12:50:33Z</time>
      </trkpt>
      <trkpt lat="37.628420000" lon="-5.012962000">
        <ele>196.9</ele>
        <time>2020-10-12T12:50:35Z</time>
      </trkpt>
      <trkpt lat="37.628493000" lon="-5.012911000">
        <ele>196.9</ele>
        <time>2020-10-12T12:50:37Z</time>
      </trkpt>
      <trkpt lat="37.628567000" lon="-5.012862000">
        <ele>196.9</ele>
        <time>2020-10-12T12:50:39Z</time>
      </trkpt>
      <trkpt lat="37.628641000" lon="-5.012811000">
        <ele>196.9</ele>
        <time>2020-10-12T12:50:41Z</time>
      </trkpt>
      <trkpt lat="37.628714000" lon="-5.012754000">
        <ele>196.9</ele>
        <time>2020-10-12T12:50:43Z</time>
      </trkpt>
      <trkpt lat="37.628790000" lon="-5.012704000">
        <ele>196.9</ele>
        <time>2020-10-12T12:50:45Z</time>
      </trkpt>
      <trkpt lat="37.628866000" lon="-5.012656000">
        <ele>196.9</ele>
        <time>2020-10-12T12:50:47Z</time>
      </trkpt>
      <trkpt lat="37.628940000" lon="-5.012607000">
        <ele>196.9</ele>
        <time>2020-10-12T12:50:49Z</time>
      </trkpt>
      <trkpt lat="37.629016000" lon="-5.012564000">
        <ele>196.9</ele>
        <time>2020-10-12T12:50:51Z</time>
      </trkpt>
      <trkpt lat="37.629089000" lon="-5.012519000">
        <ele>196.9</ele>
        <time>2020-10-12T12:50:53Z</time>
      </trkpt>
      <trkpt lat="37.629161000" lon="-5.012470000">
        <ele>196.9</ele>
        <time>2020-10-12T12:50:55Z</time>
      </trkpt>
      <trkpt lat="37.629231000" lon="-5.012417000">
        <ele>196.9</ele>
        <time>2020-10-12T12:50:57Z</time>
      </trkpt>
      <trkpt lat="37.629332000" lon="-5.012350000">
        <ele>197.0</ele>
        <time>2020-10-12T12:51:00Z</time>
      </trkpt>
      <trkpt lat="37.629426000" lon="-5.012291000">
        <ele>197.0</ele>
        <time>2020-10-12T12:51:03Z</time>
      </trkpt>
      <trkpt lat="37.629521000" lon="-5.012238000">
        <ele>197.0</ele>
        <time>2020-10-12T12:51:06Z</time>
      </trkpt>
      <trkpt lat="37.629615000" lon="-5.012171000">
        <ele>197.0</ele>
        <time>2020-10-12T12:51:09Z</time>
      </trkpt>
      <trkpt lat="37.629688000" lon="-5.012116000">
        <ele>197.0</ele>
        <time>2020-10-12T12:51:11Z</time>
      </trkpt>
      <trkpt lat="37.629791000" lon="-5.012055000">
        <ele>197.0</ele>
        <time>2020-10-12T12:51:14Z</time>
      </trkpt>
      <trkpt lat="37.629893000" lon="-5.011991000">
        <ele>196.9</ele>
        <time>2020-10-12T12:51:17Z</time>
      </trkpt>
      <trkpt lat="37.629969000" lon="-5.011940000">
        <ele>196.8</ele>
        <time>2020-10-12T12:51:19Z</time>
      </trkpt>
      <trkpt lat="37.630042000" lon="-5.011893000">
        <ele>196.7</ele>
        <time>2020-10-12T12:51:21Z</time>
      </trkpt>
      <trkpt lat="37.630140000" lon="-5.011823000">
        <ele>196.5</ele>
        <time>2020-10-12T12:51:24Z</time>
      </trkpt>
      <trkpt lat="37.630229000" lon="-5.011829000">
        <ele>196.4</ele>
        <time>2020-10-12T12:51:28Z</time>
      </trkpt>
      <trkpt lat="37.630315000" lon="-5.011806000">
        <ele>196.1</ele>
        <time>2020-10-12T12:52:19Z</time>
      </trkpt>
      <trkpt lat="37.630388000" lon="-5.011750000">
        <ele>195.8</ele>
        <time>2020-10-12T12:52:53Z</time>
      </trkpt>
      <trkpt lat="37.630459000" lon="-5.011698000">
        <ele>195.5</ele>
        <time>2020-10-12T12:52:56Z</time>
      </trkpt>
      <trkpt lat="37.630546000" lon="-5.011665000">
        <ele>195.3</ele>
        <time>2020-10-12T12:52:59Z</time>
      </trkpt>
      <trkpt lat="37.630636000" lon="-5.011628000">
        <ele>195.0</ele>
        <time>2020-10-12T12:53:02Z</time>
      </trkpt>
      <trkpt lat="37.630711000" lon="-5.011540000">
        <ele>194.7</ele>
        <time>2020-10-12T12:53:05Z</time>
      </trkpt>
      <trkpt lat="37.630778000" lon="-5.011442000">
        <ele>194.5</ele>
        <time>2020-10-12T12:53:08Z</time>
      </trkpt>
      <trkpt lat="37.630871000" lon="-5.011369000">
        <ele>194.4</ele>
        <time>2020-10-12T12:53:11Z</time>
      </trkpt>
      <trkpt lat="37.630969000" lon="-5.011292000">
        <ele>194.2</ele>
        <time>2020-10-12T12:53:14Z</time>
      </trkpt>
      <trkpt lat="37.631066000" lon="-5.011217000">
        <ele>194.1</ele>
        <time>2020-10-12T12:53:17Z</time>
      </trkpt>
      <trkpt lat="37.631163000" lon="-5.011146000">
        <ele>194.0</ele>
        <time>2020-10-12T12:53:20Z</time>
      </trkpt>
      <trkpt lat="37.631263000" lon="-5.011082000">
        <ele>194.0</ele>
        <time>2020-10-12T12:53:23Z</time>
      </trkpt>
      <trkpt lat="37.631363000" lon="-5.011011000">
        <ele>194.0</ele>
        <time>2020-10-12T12:53:26Z</time>
      </trkpt>
      <trkpt lat="37.631465000" lon="-5.010939000">
        <ele>194.0</ele>
        <time>2020-10-12T12:53:29Z</time>
      </trkpt>
      <trkpt lat="37.631568000" lon="-5.010870000">
        <ele>193.9</ele>
        <time>2020-10-12T12:53:32Z</time>
      </trkpt>
      <trkpt lat="37.631673000" lon="-5.010798000">
        <ele>193.8</ele>
        <time>2020-10-12T12:53:35Z</time>
      </trkpt>
      <trkpt lat="37.631780000" lon="-5.010729000">
        <ele>193.6</ele>
        <time>2020-10-12T12:53:38Z</time>
      </trkpt>
      <trkpt lat="37.631882000" lon="-5.010660000">
        <ele>193.5</ele>
        <time>2020-10-12T12:53:41Z</time>
      </trkpt>
      <trkpt lat="37.631983000" lon="-5.010602000">
        <ele>193.3</ele>
        <time>2020-10-12T12:53:44Z</time>
      </trkpt>
      <trkpt lat="37.632077000" lon="-5.010537000">
        <ele>193.1</ele>
        <time>2020-10-12T12:53:47Z</time>
      </trkpt>
      <trkpt lat="37.632169000" lon="-5.010475000">
        <ele>192.9</ele>
        <time>2020-10-12T12:53:50Z</time>
      </trkpt>
      <trkpt lat="37.632260000" lon="-5.010414000">
        <ele>192.8</ele>
        <time>2020-10-12T12:53:53Z</time>
      </trkpt>
      <trkpt lat="37.632353000" lon="-5.010348000">
        <ele>192.7</ele>
        <time>2020-10-12T12:53:56Z</time>
      </trkpt>
      <trkpt lat="37.632454000" lon="-5.010284000">
        <ele>192.6</ele>
        <time>2020-10-12T12:53:59Z</time>
      </trkpt>
      <trkpt lat="37.632555000" lon="-5.010222000">
        <ele>192.5</ele>
        <time>2020-10-12T12:54:02Z</time>
      </trkpt>
      <trkpt lat="37.632656000" lon="-5.010157000">
        <ele>192.5</ele>
        <time>2020-10-12T12:54:05Z</time>
      </trkpt>
      <trkpt lat="37.632756000" lon="-5.010098000">
        <ele>192.5</ele>
        <time>2020-10-12T12:54:08Z</time>
      </trkpt>
      <trkpt lat="37.632863000" lon="-5.010082000">
        <ele>192.6</ele>
        <time>2020-10-12T12:54:11Z</time>
      </trkpt>
      <trkpt lat="37.632967000" lon="-5.010033000">
        <ele>192.6</ele>
        <time>2020-10-12T12:54:14Z</time>
      </trkpt>
      <trkpt lat="37.633075000" lon="-5.009965000">
        <ele>192.6</ele>
        <time>2020-10-12T12:54:17Z</time>
      </trkpt>
      <trkpt lat="37.633143000" lon="-5.009908000">
        <ele>192.5</ele>
        <time>2020-10-12T12:54:19Z</time>
      </trkpt>
      <trkpt lat="37.633250000" lon="-5.009840000">
        <ele>192.5</ele>
        <time>2020-10-12T12:54:22Z</time>
      </trkpt>
      <trkpt lat="37.633354000" lon="-5.009771000">
        <ele>192.2</ele>
        <time>2020-10-12T12:54:25Z</time>
      </trkpt>
      <trkpt lat="37.633461000" lon="-5.009707000">
        <ele>191.9</ele>
        <time>2020-10-12T12:54:28Z</time>
      </trkpt>
      <trkpt lat="37.633568000" lon="-5.009643000">
        <ele>191.6</ele>
        <time>2020-10-12T12:54:31Z</time>
      </trkpt>
      <trkpt lat="37.633672000" lon="-5.009572000">
        <ele>191.4</ele>
        <time>2020-10-12T12:54:34Z</time>
      </trkpt>
      <trkpt lat="37.633745000" lon="-5.009526000">
        <ele>191.1</ele>
        <time>2020-10-12T12:54:36Z</time>
      </trkpt>
      <trkpt lat="37.633819000" lon="-5.009474000">
        <ele>190.8</ele>
        <time>2020-10-12T12:54:38Z</time>
      </trkpt>
      <trkpt lat="37.633894000" lon="-5.009423000">
        <ele>190.5</ele>
        <time>2020-10-12T12:54:40Z</time>
      </trkpt>
      <trkpt lat="37.633965000" lon="-5.009373000">
        <ele>190.4</ele>
        <time>2020-10-12T12:54:42Z</time>
      </trkpt>
      <trkpt lat="37.634069000" lon="-5.009306000">
        <ele>190.2</ele>
        <time>2020-10-12T12:54:45Z</time>
      </trkpt>
      <trkpt lat="37.634170000" lon="-5.009243000">
        <ele>190.0</ele>
        <time>2020-10-12T12:54:48Z</time>
      </trkpt>
      <trkpt lat="37.634278000" lon="-5.009170000">
        <ele>189.8</ele>
        <time>2020-10-12T12:54:51Z</time>
      </trkpt>
      <trkpt lat="37.634355000" lon="-5.009120000">
        <ele>189.7</ele>
        <time>2020-10-12T12:54:53Z</time>
      </trkpt>
      <trkpt lat="37.634432000" lon="-5.009070000">
        <ele>189.6</ele>
        <time>2020-10-12T12:54:55Z</time>
      </trkpt>
      <trkpt lat="37.634509000" lon="-5.009017000">
        <ele>189.5</ele>
        <time>2020-10-12T12:54:57Z</time>
      </trkpt>
      <trkpt lat="37.634591000" lon="-5.008964000">
        <ele>189.4</ele>
        <time>2020-10-12T12:54:59Z</time>
      </trkpt>
      <trkpt lat="37.634669000" lon="-5.008915000">
        <ele>189.2</ele>
        <time>2020-10-12T12:55:01Z</time>
      </trkpt>
      <trkpt lat="37.634745000" lon="-5.008866000">
        <ele>188.9</ele>
        <time>2020-10-12T12:55:03Z</time>
      </trkpt>
      <trkpt lat="37.634818000" lon="-5.008819000">
        <ele>188.6</ele>
        <time>2020-10-12T12:55:05Z</time>
      </trkpt>
      <trkpt lat="37.634921000" lon="-5.008746000">
        <ele>188.4</ele>
        <time>2020-10-12T12:55:08Z</time>
      </trkpt>
      <trkpt lat="37.635010000" lon="-5.008654000">
        <ele>188.2</ele>
        <time>2020-10-12T12:55:11Z</time>
      </trkpt>
      <trkpt lat="37.635112000" lon="-5.008583000">
        <ele>188.1</ele>
        <time>2020-10-12T12:55:14Z</time>
      </trkpt>
      <trkpt lat="37.635226000" lon="-5.008541000">
        <ele>188.0</ele>
        <time>2020-10-12T12:55:17Z</time>
      </trkpt>
      <trkpt lat="37.635327000" lon="-5.008474000">
        <ele>188.0</ele>
        <time>2020-10-12T12:55:20Z</time>
      </trkpt>
      <trkpt lat="37.635423000" lon="-5.008401000">
        <ele>188.0</ele>
        <time>2020-10-12T12:55:23Z</time>
      </trkpt>
      <trkpt lat="37.635510000" lon="-5.008330000">
        <ele>188.0</ele>
        <time>2020-10-12T12:55:26Z</time>
      </trkpt>
      <trkpt lat="37.635601000" lon="-5.008268000">
        <ele>188.1</ele>
        <time>2020-10-12T12:55:29Z</time>
      </trkpt>
      <trkpt lat="37.635698000" lon="-5.008206000">
        <ele>188.2</ele>
        <time>2020-10-12T12:55:32Z</time>
      </trkpt>
      <trkpt lat="37.635796000" lon="-5.008133000">
        <ele>188.5</ele>
        <time>2020-10-12T12:55:35Z</time>
      </trkpt>
      <trkpt lat="37.635898000" lon="-5.008057000">
        <ele>188.7</ele>
        <time>2020-10-12T12:55:38Z</time>
      </trkpt>
      <trkpt lat="37.635968000" lon="-5.008005000">
        <ele>189.0</ele>
        <time>2020-10-12T12:55:40Z</time>
      </trkpt>
      <trkpt lat="37.636041000" lon="-5.007955000">
        <ele>189.2</ele>
        <time>2020-10-12T12:55:42Z</time>
      </trkpt>
      <trkpt lat="37.636119000" lon="-5.007902000">
        <ele>189.4</ele>
        <time>2020-10-12T12:55:44Z</time>
      </trkpt>
      <trkpt lat="37.636198000" lon="-5.007851000">
        <ele>189.5</ele>
        <time>2020-10-12T12:55:46Z</time>
      </trkpt>
      <trkpt lat="37.636273000" lon="-5.007802000">
        <ele>189.6</ele>
        <time>2020-10-12T12:55:48Z</time>
      </trkpt>
      <trkpt lat="37.636347000" lon="-5.007756000">
        <ele>189.7</ele>
        <time>2020-10-12T12:55:50Z</time>
      </trkpt>
      <trkpt lat="37.636458000" lon="-5.007700000">
        <ele>189.8</ele>
        <time>2020-10-12T12:55:53Z</time>
      </trkpt>
      <trkpt lat="37.636565000" lon="-5.007628000">
        <ele>190.0</ele>
        <time>2020-10-12T12:55:56Z</time>
      </trkpt>
      <trkpt lat="37.636636000" lon="-5.007578000">
        <ele>190.2</ele>
        <time>2020-10-12T12:55:58Z</time>
      </trkpt>
      <trkpt lat="37.636735000" lon="-5.007509000">
        <ele>190.3</ele>
        <time>2020-10-12T12:56:01Z</time>
      </trkpt>
      <trkpt lat="37.636838000" lon="-5.007450000">
        <ele>190.4</ele>
        <time>2020-10-12T12:56:04Z</time>
      </trkpt>
      <trkpt lat="37.636938000" lon="-5.007378000">
        <ele>190.5</ele>
        <time>2020-10-12T12:56:07Z</time>
      </trkpt>
      <trkpt lat="37.637040000" lon="-5.007308000">
        <ele>190.7</ele>
        <time>2020-10-12T12:56:10Z</time>
      </trkpt>
      <trkpt lat="37.637141000" lon="-5.007246000">
        <ele>190.9</ele>
        <time>2020-10-12T12:56:13Z</time>
      </trkpt>
      <trkpt lat="37.637232000" lon="-5.007191000">
        <ele>191.1</ele>
        <time>2020-10-12T12:56:16Z</time>
      </trkpt>
      <trkpt lat="37.637323000" lon="-5.007135000">
        <ele>191.3</ele>
        <time>2020-10-12T12:56:19Z</time>
      </trkpt>
      <trkpt lat="37.637421000" lon="-5.007062000">
        <ele>191.5</ele>
        <time>2020-10-12T12:56:22Z</time>
      </trkpt>
      <trkpt lat="37.637511000" lon="-5.007005000">
        <ele>191.6</ele>
        <time>2020-10-12T12:56:25Z</time>
      </trkpt>
      <trkpt lat="37.637598000" lon="-5.006950000">
        <ele>191.7</ele>
        <time>2020-10-12T12:56:28Z</time>
      </trkpt>
      <trkpt lat="37.637697000" lon="-5.006883000">
        <ele>191.8</ele>
        <time>2020-10-12T12:56:31Z</time>
      </trkpt>
      <trkpt lat="37.637792000" lon="-5.006821000">
        <ele>191.9</ele>
        <time>2020-10-12T12:56:34Z</time>
      </trkpt>
      <trkpt lat="37.637885000" lon="-5.006762000">
        <ele>192.0</ele>
        <time>2020-10-12T12:56:37Z</time>
      </trkpt>
      <trkpt lat="37.637980000" lon="-5.006705000">
        <ele>192.0</ele>
        <time>2020-10-12T12:56:40Z</time>
      </trkpt>
      <trkpt lat="37.638069000" lon="-5.006640000">
        <ele>192.1</ele>
        <time>2020-10-12T12:56:43Z</time>
      </trkpt>
      <trkpt lat="37.638156000" lon="-5.006581000">
        <ele>192.2</ele>
        <time>2020-10-12T12:56:46Z</time>
      </trkpt>
      <trkpt lat="37.638245000" lon="-5.006527000">
        <ele>192.2</ele>
        <time>2020-10-12T12:56:49Z</time>
      </trkpt>
      <trkpt lat="37.638331000" lon="-5.006466000">
        <ele>192.2</ele>
        <time>2020-10-12T12:56:52Z</time>
      </trkpt>
      <trkpt lat="37.638422000" lon="-5.006405000">
        <ele>192.2</ele>
        <time>2020-10-12T12:56:55Z</time>
      </trkpt>
      <trkpt lat="37.638517000" lon="-5.006348000">
        <ele>192.2</ele>
        <time>2020-10-12T12:56:58Z</time>
      </trkpt>
      <trkpt lat="37.638608000" lon="-5.006284000">
        <ele>192.2</ele>
        <time>2020-10-12T12:57:01Z</time>
      </trkpt>
      <trkpt lat="37.638699000" lon="-5.006224000">
        <ele>192.2</ele>
        <time>2020-10-12T12:57:04Z</time>
      </trkpt>
      <trkpt lat="37.638792000" lon="-5.006167000">
        <ele>192.2</ele>
        <time>2020-10-12T12:57:07Z</time>
      </trkpt>
      <trkpt lat="37.638887000" lon="-5.006108000">
        <ele>192.2</ele>
        <time>2020-10-12T12:57:10Z</time>
      </trkpt>
      <trkpt lat="37.638981000" lon="-5.006039000">
        <ele>192.2</ele>
        <time>2020-10-12T12:57:13Z</time>
      </trkpt>
      <trkpt lat="37.639079000" lon="-5.005981000">
        <ele>192.0</ele>
        <time>2020-10-12T12:57:16Z</time>
      </trkpt>
      <trkpt lat="37.639174000" lon="-5.005922000">
        <ele>191.8</ele>
        <time>2020-10-12T12:57:19Z</time>
      </trkpt>
      <trkpt lat="37.639270000" lon="-5.005859000">
        <ele>191.7</ele>
        <time>2020-10-12T12:57:22Z</time>
      </trkpt>
      <trkpt lat="37.639385000" lon="-5.005785000">
        <ele>191.6</ele>
        <time>2020-10-12T12:57:25Z</time>
      </trkpt>
      <trkpt lat="37.639459000" lon="-5.005731000">
        <ele>191.6</ele>
        <time>2020-10-12T12:57:27Z</time>
      </trkpt>
      <trkpt lat="37.639561000" lon="-5.005660000">
        <ele>191.6</ele>
        <time>2020-10-12T12:57:30Z</time>
      </trkpt>
      <trkpt lat="37.639655000" lon="-5.005591000">
        <ele>191.6</ele>
        <time>2020-10-12T12:57:33Z</time>
      </trkpt>
      <trkpt lat="37.639739000" lon="-5.005529000">
        <ele>191.6</ele>
        <time>2020-10-12T12:57:36Z</time>
      </trkpt>
      <trkpt lat="37.639840000" lon="-5.005465000">
        <ele>191.6</ele>
        <time>2020-10-12T12:57:39Z</time>
      </trkpt>
      <trkpt lat="37.639924000" lon="-5.005402000">
        <ele>191.5</ele>
        <time>2020-10-12T12:57:41Z</time>
      </trkpt>
      <trkpt lat="37.640002000" lon="-5.005351000">
        <ele>191.5</ele>
        <time>2020-10-12T12:57:43Z</time>
      </trkpt>
      <trkpt lat="37.640102000" lon="-5.005289000">
        <ele>191.5</ele>
        <time>2020-10-12T12:57:46Z</time>
      </trkpt>
      <trkpt lat="37.640205000" lon="-5.005220000">
        <ele>191.5</ele>
        <time>2020-10-12T12:57:49Z</time>
      </trkpt>
      <trkpt lat="37.640283000" lon="-5.005169000">
        <ele>191.5</ele>
        <time>2020-10-12T12:57:51Z</time>
      </trkpt>
      <trkpt lat="37.640363000" lon="-5.005120000">
        <ele>191.5</ele>
        <time>2020-10-12T12:57:53Z</time>
      </trkpt>
      <trkpt lat="37.640471000" lon="-5.005054000">
        <ele>191.4</ele>
        <time>2020-10-12T12:57:56Z</time>
      </trkpt>
      <trkpt lat="37.640553000" lon="-5.004999000">
        <ele>191.3</ele>
        <time>2020-10-12T12:57:58Z</time>
      </trkpt>
      <trkpt lat="37.640635000" lon="-5.004937000">
        <ele>191.1</ele>
        <time>2020-10-12T12:58:00Z</time>
      </trkpt>
      <trkpt lat="37.640713000" lon="-5.004900000">
        <ele>191.0</ele>
        <time>2020-10-12T12:58:02Z</time>
      </trkpt>
      <trkpt lat="37.640820000" lon="-5.004832000">
        <ele>190.9</ele>
        <time>2020-10-12T12:58:05Z</time>
      </trkpt>
      <trkpt lat="37.640891000" lon="-5.004780000">
        <ele>190.9</ele>
        <time>2020-10-12T12:58:07Z</time>
      </trkpt>
      <trkpt lat="37.640966000" lon="-5.004735000">
        <ele>191.0</ele>
        <time>2020-10-12T12:58:09Z</time>
      </trkpt>
      <trkpt lat="37.641040000" lon="-5.004684000">
        <ele>191.2</ele>
        <time>2020-10-12T12:58:11Z</time>
      </trkpt>
      <trkpt lat="37.641115000" lon="-5.004635000">
        <ele>191.4</ele>
        <time>2020-10-12T12:58:13Z</time>
      </trkpt>
      <trkpt lat="37.641189000" lon="-5.004589000">
        <ele>191.6</ele>
        <time>2020-10-12T12:58:15Z</time>
      </trkpt>
      <trkpt lat="37.641262000" lon="-5.004542000">
        <ele>191.9</ele>
        <time>2020-10-12T12:58:17Z</time>
      </trkpt>
      <trkpt lat="37.641367000" lon="-5.004469000">
        <ele>192.3</ele>
        <time>2020-10-12T12:58:20Z</time>
      </trkpt>
      <trkpt lat="37.641469000" lon="-5.004398000">
        <ele>192.6</ele>
        <time>2020-10-12T12:58:23Z</time>
      </trkpt>
      <trkpt lat="37.641572000" lon="-5.004329000">
        <ele>193.1</ele>
        <time>2020-10-12T12:58:26Z</time>
      </trkpt>
      <trkpt lat="37.641673000" lon="-5.004266000">
        <ele>193.4</ele>
        <time>2020-10-12T12:58:29Z</time>
      </trkpt>
      <trkpt lat="37.641777000" lon="-5.004199000">
        <ele>193.6</ele>
        <time>2020-10-12T12:58:32Z</time>
      </trkpt>
      <trkpt lat="37.641882000" lon="-5.004130000">
        <ele>193.8</ele>
        <time>2020-10-12T12:58:35Z</time>
      </trkpt>
      <trkpt lat="37.641983000" lon="-5.004059000">
        <ele>193.9</ele>
        <time>2020-10-12T12:58:38Z</time>
      </trkpt>
      <trkpt lat="37.642083000" lon="-5.003987000">
        <ele>193.8</ele>
        <time>2020-10-12T12:58:41Z</time>
      </trkpt>
      <trkpt lat="37.642186000" lon="-5.003915000">
        <ele>193.7</ele>
        <time>2020-10-12T12:58:44Z</time>
      </trkpt>
      <trkpt lat="37.642259000" lon="-5.003867000">
        <ele>193.5</ele>
        <time>2020-10-12T12:58:46Z</time>
      </trkpt>
      <trkpt lat="37.642334000" lon="-5.003818000">
        <ele>193.4</ele>
        <time>2020-10-12T12:58:48Z</time>
      </trkpt>
      <trkpt lat="37.642407000" lon="-5.003772000">
        <ele>193.0</ele>
        <time>2020-10-12T12:58:50Z</time>
      </trkpt>
      <trkpt lat="37.642507000" lon="-5.003709000">
        <ele>192.6</ele>
        <time>2020-10-12T12:58:53Z</time>
      </trkpt>
      <trkpt lat="37.642609000" lon="-5.003646000">
        <ele>192.3</ele>
        <time>2020-10-12T12:58:56Z</time>
      </trkpt>
      <trkpt lat="37.642705000" lon="-5.003583000">
        <ele>192.0</ele>
        <time>2020-10-12T12:58:59Z</time>
      </trkpt>
      <trkpt lat="37.642804000" lon="-5.003522000">
        <ele>191.7</ele>
        <time>2020-10-12T12:59:02Z</time>
      </trkpt>
      <trkpt lat="37.642907000" lon="-5.003463000">
        <ele>191.5</ele>
        <time>2020-10-12T12:59:05Z</time>
      </trkpt>
      <trkpt lat="37.642998000" lon="-5.003402000">
        <ele>191.2</ele>
        <time>2020-10-12T12:59:08Z</time>
      </trkpt>
      <trkpt lat="37.643093000" lon="-5.003318000">
        <ele>191.0</ele>
        <time>2020-10-12T12:59:11Z</time>
      </trkpt>
      <trkpt lat="37.643165000" lon="-5.003268000">
        <ele>190.8</ele>
        <time>2020-10-12T12:59:13Z</time>
      </trkpt>
      <trkpt lat="37.643239000" lon="-5.003217000">
        <ele>190.6</ele>
        <time>2020-10-12T12:59:15Z</time>
      </trkpt>
      <trkpt lat="37.643316000" lon="-5.003171000">
        <ele>190.5</ele>
        <time>2020-10-12T12:59:17Z</time>
      </trkpt>
      <trkpt lat="37.643394000" lon="-5.003124000">
        <ele>190.4</ele>
        <time>2020-10-12T12:59:19Z</time>
      </trkpt>
      <trkpt lat="37.643471000" lon="-5.003070000">
        <ele>190.3</ele>
        <time>2020-10-12T12:59:21Z</time>
      </trkpt>
      <trkpt lat="37.643546000" lon="-5.003018000">
        <ele>190.2</ele>
        <time>2020-10-12T12:59:23Z</time>
      </trkpt>
      <trkpt lat="37.643620000" lon="-5.002966000">
        <ele>190.1</ele>
        <time>2020-10-12T12:59:25Z</time>
      </trkpt>
      <trkpt lat="37.643693000" lon="-5.002921000">
        <ele>190.0</ele>
        <time>2020-10-12T12:59:27Z</time>
      </trkpt>
      <trkpt lat="37.643799000" lon="-5.002854000">
        <ele>190.0</ele>
        <time>2020-10-12T12:59:30Z</time>
      </trkpt>
      <trkpt lat="37.643872000" lon="-5.002807000">
        <ele>190.0</ele>
        <time>2020-10-12T12:59:32Z</time>
      </trkpt>
      <trkpt lat="37.643949000" lon="-5.002759000">
        <ele>189.9</ele>
        <time>2020-10-12T12:59:34Z</time>
      </trkpt>
      <trkpt lat="37.644027000" lon="-5.002709000">
        <ele>189.8</ele>
        <time>2020-10-12T12:59:36Z</time>
      </trkpt>
      <trkpt lat="37.644104000" lon="-5.002662000">
        <ele>189.7</ele>
        <time>2020-10-12T12:59:38Z</time>
      </trkpt>
      <trkpt lat="37.644179000" lon="-5.002615000">
        <ele>189.7</ele>
        <time>2020-10-12T12:59:40Z</time>
      </trkpt>
      <trkpt lat="37.644253000" lon="-5.002573000">
        <ele>189.7</ele>
        <time>2020-10-12T12:59:42Z</time>
      </trkpt>
      <trkpt lat="37.644332000" lon="-5.002542000">
        <ele>189.8</ele>
        <time>2020-10-12T12:59:44Z</time>
      </trkpt>
      <trkpt lat="37.644409000" lon="-5.002502000">
        <ele>189.9</ele>
        <time>2020-10-12T12:59:46Z</time>
      </trkpt>
      <trkpt lat="37.644480000" lon="-5.002447000">
        <ele>190.0</ele>
        <time>2020-10-12T12:59:48Z</time>
      </trkpt>
      <trkpt lat="37.644556000" lon="-5.002396000">
        <ele>190.1</ele>
        <time>2020-10-12T12:59:50Z</time>
      </trkpt>
      <trkpt lat="37.644630000" lon="-5.002343000">
        <ele>190.2</ele>
        <time>2020-10-12T12:59:52Z</time>
      </trkpt>
      <trkpt lat="37.644703000" lon="-5.002294000">
        <ele>190.4</ele>
        <time>2020-10-12T12:59:54Z</time>
      </trkpt>
      <trkpt lat="37.644778000" lon="-5.002249000">
        <ele>190.5</ele>
        <time>2020-10-12T12:59:56Z</time>
      </trkpt>
      <trkpt lat="37.644849000" lon="-5.002196000">
        <ele>190.7</ele>
        <time>2020-10-12T12:59:58Z</time>
      </trkpt>
      <trkpt lat="37.644917000" lon="-5.002136000">
        <ele>190.9</ele>
        <time>2020-10-12T13:00:00Z</time>
      </trkpt>
      <trkpt lat="37.644989000" lon="-5.002082000">
        <ele>191.0</ele>
        <time>2020-10-12T13:00:02Z</time>
      </trkpt>
      <trkpt lat="37.645092000" lon="-5.002008000">
        <ele>191.1</ele>
        <time>2020-10-12T13:00:05Z</time>
      </trkpt>
      <trkpt lat="37.645186000" lon="-5.001941000">
        <ele>191.1</ele>
        <time>2020-10-12T13:00:08Z</time>
      </trkpt>
      <trkpt lat="37.645275000" lon="-5.001881000">
        <ele>191.2</ele>
        <time>2020-10-12T13:00:11Z</time>
      </trkpt>
      <trkpt lat="37.645358000" lon="-5.001822000">
        <ele>191.3</ele>
        <time>2020-10-12T13:00:14Z</time>
      </trkpt>
      <trkpt lat="37.645447000" lon="-5.001767000">
        <ele>191.5</ele>
        <time>2020-10-12T13:00:17Z</time>
      </trkpt>
      <trkpt lat="37.645552000" lon="-5.001699000">
        <ele>191.7</ele>
        <time>2020-10-12T13:00:20Z</time>
      </trkpt>
      <trkpt lat="37.645645000" lon="-5.001640000">
        <ele>192.0</ele>
        <time>2020-10-12T13:00:23Z</time>
      </trkpt>
      <trkpt lat="37.645723000" lon="-5.001592000">
        <ele>192.4</ele>
        <time>2020-10-12T13:00:26Z</time>
      </trkpt>
      <trkpt lat="37.645819000" lon="-5.001531000">
        <ele>192.7</ele>
        <time>2020-10-12T13:00:29Z</time>
      </trkpt>
      <trkpt lat="37.645923000" lon="-5.001467000">
        <ele>193.1</ele>
        <time>2020-10-12T13:00:32Z</time>
      </trkpt>
      <trkpt lat="37.646002000" lon="-5.001414000">
        <ele>193.5</ele>
        <time>2020-10-12T13:00:35Z</time>
      </trkpt>
      <trkpt lat="37.646090000" lon="-5.001356000">
        <ele>193.8</ele>
        <time>2020-10-12T13:00:38Z</time>
      </trkpt>
      <trkpt lat="37.646188000" lon="-5.001288000">
        <ele>194.2</ele>
        <time>2020-10-12T13:00:41Z</time>
      </trkpt>
      <trkpt lat="37.646289000" lon="-5.001226000">
        <ele>194.5</ele>
        <time>2020-10-12T13:00:44Z</time>
      </trkpt>
      <trkpt lat="37.646365000" lon="-5.001169000">
        <ele>194.8</ele>
        <time>2020-10-12T13:00:47Z</time>
      </trkpt>
      <trkpt lat="37.646455000" lon="-5.001114000">
        <ele>195.1</ele>
        <time>2020-10-12T13:00:50Z</time>
      </trkpt>
      <trkpt lat="37.646554000" lon="-5.001054000">
        <ele>195.3</ele>
        <time>2020-10-12T13:00:53Z</time>
      </trkpt>
      <trkpt lat="37.646647000" lon="-5.000989000">
        <ele>195.5</ele>
        <time>2020-10-12T13:00:56Z</time>
      </trkpt>
      <trkpt lat="37.646733000" lon="-5.000927000">
        <ele>195.6</ele>
        <time>2020-10-12T13:00:59Z</time>
      </trkpt>
      <trkpt lat="37.646822000" lon="-5.000867000">
        <ele>195.7</ele>
        <time>2020-10-12T13:01:02Z</time>
      </trkpt>
      <trkpt lat="37.646915000" lon="-5.000805000">
        <ele>195.8</ele>
        <time>2020-10-12T13:01:05Z</time>
      </trkpt>
      <trkpt lat="37.647010000" lon="-5.000740000">
        <ele>195.8</ele>
        <time>2020-10-12T13:01:08Z</time>
      </trkpt>
      <trkpt lat="37.647108000" lon="-5.000679000">
        <ele>195.8</ele>
        <time>2020-10-12T13:01:11Z</time>
      </trkpt>
      <trkpt lat="37.647207000" lon="-5.000618000">
        <ele>195.8</ele>
        <time>2020-10-12T13:01:14Z</time>
      </trkpt>
      <trkpt lat="37.647305000" lon="-5.000555000">
        <ele>195.8</ele>
        <time>2020-10-12T13:01:17Z</time>
      </trkpt>
      <trkpt lat="37.647401000" lon="-5.000496000">
        <ele>195.7</ele>
        <time>2020-10-12T13:01:20Z</time>
      </trkpt>
      <trkpt lat="37.647494000" lon="-5.000440000">
        <ele>195.6</ele>
        <time>2020-10-12T13:01:23Z</time>
      </trkpt>
      <trkpt lat="37.647585000" lon="-5.000379000">
        <ele>195.5</ele>
        <time>2020-10-12T13:01:26Z</time>
      </trkpt>
      <trkpt lat="37.647684000" lon="-5.000318000">
        <ele>195.4</ele>
        <time>2020-10-12T13:01:29Z</time>
      </trkpt>
      <trkpt lat="37.647791000" lon="-5.000252000">
        <ele>195.2</ele>
        <time>2020-10-12T13:01:32Z</time>
      </trkpt>
      <trkpt lat="37.647862000" lon="-5.000202000">
        <ele>195.1</ele>
        <time>2020-10-12T13:01:34Z</time>
      </trkpt>
      <trkpt lat="37.647936000" lon="-5.000148000">
        <ele>195.1</ele>
        <time>2020-10-12T13:01:36Z</time>
      </trkpt>
      <trkpt lat="37.648012000" lon="-5.000099000">
        <ele>195.3</ele>
        <time>2020-10-12T13:01:38Z</time>
      </trkpt>
      <trkpt lat="37.648087000" lon="-5.000047000">
        <ele>195.5</ele>
        <time>2020-10-12T13:01:40Z</time>
      </trkpt>
      <trkpt lat="37.648158000" lon="-4.999996000">
        <ele>195.8</ele>
        <time>2020-10-12T13:01:42Z</time>
      </trkpt>
      <trkpt lat="37.648266000" lon="-4.999924000">
        <ele>196.2</ele>
        <time>2020-10-12T13:01:45Z</time>
      </trkpt>
      <trkpt lat="37.648369000" lon="-4.999850000">
        <ele>196.5</ele>
        <time>2020-10-12T13:01:48Z</time>
      </trkpt>
      <trkpt lat="37.648468000" lon="-4.999784000">
        <ele>196.9</ele>
        <time>2020-10-12T13:01:51Z</time>
      </trkpt>
      <trkpt lat="37.648566000" lon="-4.999720000">
        <ele>197.2</ele>
        <time>2020-10-12T13:01:54Z</time>
      </trkpt>
      <trkpt lat="37.648667000" lon="-4.999658000">
        <ele>197.5</ele>
        <time>2020-10-12T13:01:57Z</time>
      </trkpt>
      <trkpt lat="37.648768000" lon="-4.999585000">
        <ele>197.6</ele>
        <time>2020-10-12T13:02:00Z</time>
      </trkpt>
      <trkpt lat="37.648872000" lon="-4.999518000">
        <ele>197.8</ele>
        <time>2020-10-12T13:02:03Z</time>
      </trkpt>
      <trkpt lat="37.648976000" lon="-4.999451000">
        <ele>197.8</ele>
        <time>2020-10-12T13:02:06Z</time>
      </trkpt>
      <trkpt lat="37.649080000" lon="-4.999380000">
        <ele>197.7</ele>
        <time>2020-10-12T13:02:09Z</time>
      </trkpt>
      <trkpt lat="37.649151000" lon="-4.999330000">
        <ele>197.5</ele>
        <time>2020-10-12T13:02:11Z</time>
      </trkpt>
      <trkpt lat="37.649226000" lon="-4.999278000">
        <ele>197.3</ele>
        <time>2020-10-12T13:02:13Z</time>
      </trkpt>
      <trkpt lat="37.649306000" lon="-4.999226000">
        <ele>196.9</ele>
        <time>2020-10-12T13:02:15Z</time>
      </trkpt>
      <trkpt lat="37.649385000" lon="-4.999172000">
        <ele>196.5</ele>
        <time>2020-10-12T13:02:17Z</time>
      </trkpt>
      <trkpt lat="37.649465000" lon="-4.999121000">
        <ele>196.0</ele>
        <time>2020-10-12T13:02:19Z</time>
      </trkpt>
      <trkpt lat="37.649543000" lon="-4.999067000">
        <ele>195.7</ele>
        <time>2020-10-12T13:02:21Z</time>
      </trkpt>
      <trkpt lat="37.649621000" lon="-4.999014000">
        <ele>195.5</ele>
        <time>2020-10-12T13:02:23Z</time>
      </trkpt>
      <trkpt lat="37.649697000" lon="-4.998960000">
        <ele>195.2</ele>
        <time>2020-10-12T13:02:25Z</time>
      </trkpt>
      <trkpt lat="37.649773000" lon="-4.998908000">
        <ele>195.0</ele>
        <time>2020-10-12T13:02:27Z</time>
      </trkpt>
      <trkpt lat="37.649848000" lon="-4.998861000">
        <ele>194.9</ele>
        <time>2020-10-12T13:02:29Z</time>
      </trkpt>
      <trkpt lat="37.649919000" lon="-4.998812000">
        <ele>194.8</ele>
        <time>2020-10-12T13:02:31Z</time>
      </trkpt>
      <trkpt lat="37.649994000" lon="-4.998760000">
        <ele>194.8</ele>
        <time>2020-10-12T13:02:33Z</time>
      </trkpt>
      <trkpt lat="37.650067000" lon="-4.998706000">
        <ele>194.9</ele>
        <time>2020-10-12T13:02:35Z</time>
      </trkpt>
      <trkpt lat="37.650141000" lon="-4.998650000">
        <ele>195.1</ele>
        <time>2020-10-12T13:02:37Z</time>
      </trkpt>
      <trkpt lat="37.650217000" lon="-4.998600000">
        <ele>195.4</ele>
        <time>2020-10-12T13:02:39Z</time>
      </trkpt>
      <trkpt lat="37.650297000" lon="-4.998552000">
        <ele>195.6</ele>
        <time>2020-10-12T13:02:41Z</time>
      </trkpt>
      <trkpt lat="37.650379000" lon="-4.998497000">
        <ele>195.8</ele>
        <time>2020-10-12T13:02:43Z</time>
      </trkpt>
      <trkpt lat="37.650461000" lon="-4.998445000">
        <ele>195.9</ele>
        <time>2020-10-12T13:02:45Z</time>
      </trkpt>
      <trkpt lat="37.650538000" lon="-4.998393000">
        <ele>196.1</ele>
        <time>2020-10-12T13:02:47Z</time>
      </trkpt>
      <trkpt lat="37.650621000" lon="-4.998340000">
        <ele>196.2</ele>
        <time>2020-10-12T13:02:49Z</time>
      </trkpt>
      <trkpt lat="37.650700000" lon="-4.998286000">
        <ele>196.3</ele>
        <time>2020-10-12T13:02:51Z</time>
      </trkpt>
      <trkpt lat="37.650774000" lon="-4.998241000">
        <ele>196.4</ele>
        <time>2020-10-12T13:02:53Z</time>
      </trkpt>
      <trkpt lat="37.650848000" lon="-4.998194000">
        <ele>196.3</ele>
        <time>2020-10-12T13:02:55Z</time>
      </trkpt>
      <trkpt lat="37.650927000" lon="-4.998148000">
        <ele>196.2</ele>
        <time>2020-10-12T13:02:57Z</time>
      </trkpt>
      <trkpt lat="37.651001000" lon="-4.998096000">
        <ele>195.9</ele>
        <time>2020-10-12T13:02:59Z</time>
      </trkpt>
      <trkpt lat="37.651079000" lon="-4.998040000">
        <ele>195.6</ele>
        <time>2020-10-12T13:03:01Z</time>
      </trkpt>
      <trkpt lat="37.651162000" lon="-4.997983000">
        <ele>195.4</ele>
        <time>2020-10-12T13:03:03Z</time>
      </trkpt>
      <trkpt lat="37.651248000" lon="-4.997926000">
        <ele>195.1</ele>
        <time>2020-10-12T13:03:05Z</time>
      </trkpt>
      <trkpt lat="37.651327000" lon="-4.997875000">
        <ele>194.9</ele>
        <time>2020-10-12T13:03:07Z</time>
      </trkpt>
      <trkpt lat="37.651408000" lon="-4.997820000">
        <ele>194.7</ele>
        <time>2020-10-12T13:03:09Z</time>
      </trkpt>
      <trkpt lat="37.651489000" lon="-4.997765000">
        <ele>194.5</ele>
        <time>2020-10-12T13:03:11Z</time>
      </trkpt>
      <trkpt lat="37.651573000" lon="-4.997715000">
        <ele>194.4</ele>
        <time>2020-10-12T13:03:13Z</time>
      </trkpt>
      <trkpt lat="37.651659000" lon="-4.997657000">
        <ele>194.2</ele>
        <time>2020-10-12T13:03:15Z</time>
      </trkpt>
      <trkpt lat="37.651742000" lon="-4.997608000">
        <ele>194.0</ele>
        <time>2020-10-12T13:03:17Z</time>
      </trkpt>
      <trkpt lat="37.651827000" lon="-4.997552000">
        <ele>193.8</ele>
        <time>2020-10-12T13:03:19Z</time>
      </trkpt>
      <trkpt lat="37.651906000" lon="-4.997500000">
        <ele>193.7</ele>
        <time>2020-10-12T13:03:21Z</time>
      </trkpt>
      <trkpt lat="37.651994000" lon="-4.997436000">
        <ele>193.6</ele>
        <time>2020-10-12T13:03:23Z</time>
      </trkpt>
      <trkpt lat="37.652074000" lon="-4.997377000">
        <ele>193.5</ele>
        <time>2020-10-12T13:03:25Z</time>
      </trkpt>
      <trkpt lat="37.652151000" lon="-4.997325000">
        <ele>193.5</ele>
        <time>2020-10-12T13:03:27Z</time>
      </trkpt>
      <trkpt lat="37.652223000" lon="-4.997277000">
        <ele>193.4</ele>
        <time>2020-10-12T13:03:29Z</time>
      </trkpt>
      <trkpt lat="37.652295000" lon="-4.997230000">
        <ele>193.2</ele>
        <time>2020-10-12T13:03:31Z</time>
      </trkpt>
      <trkpt lat="37.652367000" lon="-4.997181000">
        <ele>193.0</ele>
        <time>2020-10-12T13:03:33Z</time>
      </trkpt>
      <trkpt lat="37.652440000" lon="-4.997127000">
        <ele>192.8</ele>
        <time>2020-10-12T13:03:35Z</time>
      </trkpt>
      <trkpt lat="37.652526000" lon="-4.997071000">
        <ele>192.6</ele>
        <time>2020-10-12T13:03:37Z</time>
      </trkpt>
      <trkpt lat="37.652619000" lon="-4.997012000">
        <ele>192.5</ele>
        <time>2020-10-12T13:03:39Z</time>
      </trkpt>
      <trkpt lat="37.652708000" lon="-4.996953000">
        <ele>192.5</ele>
        <time>2020-10-12T13:03:41Z</time>
      </trkpt>
      <trkpt lat="37.652791000" lon="-4.996905000">
        <ele>192.5</ele>
        <time>2020-10-12T13:03:43Z</time>
      </trkpt>
      <trkpt lat="37.652870000" lon="-4.996854000">
        <ele>192.5</ele>
        <time>2020-10-12T13:03:45Z</time>
      </trkpt>
      <trkpt lat="37.652953000" lon="-4.996802000">
        <ele>192.5</ele>
        <time>2020-10-12T13:03:47Z</time>
      </trkpt>
      <trkpt lat="37.653051000" lon="-4.996736000">
        <ele>192.7</ele>
        <time>2020-10-12T13:03:49Z</time>
      </trkpt>
      <trkpt lat="37.653137000" lon="-4.996669000">
        <ele>193.0</ele>
        <time>2020-10-12T13:03:51Z</time>
      </trkpt>
      <trkpt lat="37.653223000" lon="-4.996609000">
        <ele>193.3</ele>
        <time>2020-10-12T13:03:53Z</time>
      </trkpt>
      <trkpt lat="37.653300000" lon="-4.996560000">
        <ele>193.5</ele>
        <time>2020-10-12T13:03:55Z</time>
      </trkpt>
      <trkpt lat="37.653405000" lon="-4.996492000">
        <ele>193.7</ele>
        <time>2020-10-12T13:03:58Z</time>
      </trkpt>
      <trkpt lat="37.653505000" lon="-4.996423000">
        <ele>193.8</ele>
        <time>2020-10-12T13:04:01Z</time>
      </trkpt>
      <trkpt lat="37.653583000" lon="-4.996378000">
        <ele>193.9</ele>
        <time>2020-10-12T13:04:03Z</time>
      </trkpt>
      <trkpt lat="37.653675000" lon="-4.996324000">
        <ele>194.0</ele>
        <time>2020-10-12T13:04:05Z</time>
      </trkpt>
      <trkpt lat="37.653761000" lon="-4.996267000">
        <ele>193.9</ele>
        <time>2020-10-12T13:04:07Z</time>
      </trkpt>
      <trkpt lat="37.653847000" lon="-4.996212000">
        <ele>193.8</ele>
        <time>2020-10-12T13:04:09Z</time>
      </trkpt>
      <trkpt lat="37.653936000" lon="-4.996148000">
        <ele>193.5</ele>
        <time>2020-10-12T13:04:11Z</time>
      </trkpt>
      <trkpt lat="37.654027000" lon="-4.996086000">
        <ele>193.2</ele>
        <time>2020-10-12T13:04:13Z</time>
      </trkpt>
      <trkpt lat="37.654116000" lon="-4.996016000">
        <ele>192.7</ele>
        <time>2020-10-12T13:04:15Z</time>
      </trkpt>
      <trkpt lat="37.654205000" lon="-4.995955000">
        <ele>192.4</ele>
        <time>2020-10-12T13:04:17Z</time>
      </trkpt>
      <trkpt lat="37.654298000" lon="-4.995898000">
        <ele>192.0</ele>
        <time>2020-10-12T13:04:19Z</time>
      </trkpt>
      <trkpt lat="37.654393000" lon="-4.995834000">
        <ele>191.7</ele>
        <time>2020-10-12T13:04:21Z</time>
      </trkpt>
      <trkpt lat="37.654488000" lon="-4.995777000">
        <ele>191.6</ele>
        <time>2020-10-12T13:04:23Z</time>
      </trkpt>
      <trkpt lat="37.654581000" lon="-4.995715000">
        <ele>191.5</ele>
        <time>2020-10-12T13:04:25Z</time>
      </trkpt>
      <trkpt lat="37.654673000" lon="-4.995655000">
        <ele>191.5</ele>
        <time>2020-10-12T13:04:27Z</time>
      </trkpt>
      <trkpt lat="37.654766000" lon="-4.995594000">
        <ele>191.5</ele>
        <time>2020-10-12T13:04:29Z</time>
      </trkpt>
      <trkpt lat="37.654865000" lon="-4.995531000">
        <ele>191.5</ele>
        <time>2020-10-12T13:04:31Z</time>
      </trkpt>
      <trkpt lat="37.654960000" lon="-4.995468000">
        <ele>191.5</ele>
        <time>2020-10-12T13:04:33Z</time>
      </trkpt>
      <trkpt lat="37.655059000" lon="-4.995412000">
        <ele>191.6</ele>
        <time>2020-10-12T13:04:35Z</time>
      </trkpt>
      <trkpt lat="37.655150000" lon="-4.995348000">
        <ele>191.7</ele>
        <time>2020-10-12T13:04:37Z</time>
      </trkpt>
      <trkpt lat="37.655236000" lon="-4.995293000">
        <ele>191.8</ele>
        <time>2020-10-12T13:04:39Z</time>
      </trkpt>
      <trkpt lat="37.655322000" lon="-4.995245000">
        <ele>191.9</ele>
        <time>2020-10-12T13:04:41Z</time>
      </trkpt>
      <trkpt lat="37.655402000" lon="-4.995185000">
        <ele>192.1</ele>
        <time>2020-10-12T13:04:43Z</time>
      </trkpt>
      <trkpt lat="37.655487000" lon="-4.995133000">
        <ele>192.3</ele>
        <time>2020-10-12T13:04:45Z</time>
      </trkpt>
      <trkpt lat="37.655561000" lon="-4.995084000">
        <ele>192.5</ele>
        <time>2020-10-12T13:04:47Z</time>
      </trkpt>
      <trkpt lat="37.655662000" lon="-4.995012000">
        <ele>192.7</ele>
        <time>2020-10-12T13:04:50Z</time>
      </trkpt>
      <trkpt lat="37.655764000" lon="-4.994948000">
        <ele>193.0</ele>
        <time>2020-10-12T13:04:53Z</time>
      </trkpt>
      <trkpt lat="37.655857000" lon="-4.994888000">
        <ele>193.3</ele>
        <time>2020-10-12T13:04:56Z</time>
      </trkpt>
      <trkpt lat="37.655951000" lon="-4.994849000">
        <ele>193.5</ele>
        <time>2020-10-12T13:04:59Z</time>
      </trkpt>
      <trkpt lat="37.656046000" lon="-4.994795000">
        <ele>193.8</ele>
        <time>2020-10-12T13:05:02Z</time>
      </trkpt>
      <trkpt lat="37.656145000" lon="-4.994726000">
        <ele>194.1</ele>
        <time>2020-10-12T13:05:05Z</time>
      </trkpt>
      <trkpt lat="37.656248000" lon="-4.994660000">
        <ele>194.4</ele>
        <time>2020-10-12T13:05:08Z</time>
      </trkpt>
      <trkpt lat="37.656348000" lon="-4.994590000">
        <ele>194.6</ele>
        <time>2020-10-12T13:05:11Z</time>
      </trkpt>
      <trkpt lat="37.656449000" lon="-4.994522000">
        <ele>194.8</ele>
        <time>2020-10-12T13:05:14Z</time>
      </trkpt>
      <trkpt lat="37.656552000" lon="-4.994456000">
        <ele>194.9</ele>
        <time>2020-10-12T13:05:17Z</time>
      </trkpt>
      <trkpt lat="37.656653000" lon="-4.994386000">
        <ele>195.0</ele>
        <time>2020-10-12T13:05:20Z</time>
      </trkpt>
      <trkpt lat="37.656759000" lon="-4.994320000">
        <ele>195.0</ele>
        <time>2020-10-12T13:05:23Z</time>
      </trkpt>
      <trkpt lat="37.656833000" lon="-4.994273000">
        <ele>195.0</ele>
        <time>2020-10-12T13:05:25Z</time>
      </trkpt>
      <trkpt lat="37.656909000" lon="-4.994223000">
        <ele>195.0</ele>
        <time>2020-10-12T13:05:27Z</time>
      </trkpt>
      <trkpt lat="37.656982000" lon="-4.994173000">
        <ele>195.0</ele>
        <time>2020-10-12T13:05:29Z</time>
      </trkpt>
      <trkpt lat="37.657056000" lon="-4.994125000">
        <ele>195.0</ele>
        <time>2020-10-12T13:05:31Z</time>
      </trkpt>
      <trkpt lat="37.657135000" lon="-4.994076000">
        <ele>195.0</ele>
        <time>2020-10-12T13:05:33Z</time>
      </trkpt>
      <trkpt lat="37.657213000" lon="-4.994022000">
        <ele>195.0</ele>
        <time>2020-10-12T13:05:35Z</time>
      </trkpt>
      <trkpt lat="37.657291000" lon="-4.993967000">
        <ele>195.1</ele>
        <time>2020-10-12T13:05:37Z</time>
      </trkpt>
      <trkpt lat="37.657368000" lon="-4.993917000">
        <ele>195.2</ele>
        <time>2020-10-12T13:05:39Z</time>
      </trkpt>
      <trkpt lat="37.657445000" lon="-4.993865000">
        <ele>195.3</ele>
        <time>2020-10-12T13:05:41Z</time>
      </trkpt>
      <trkpt lat="37.657520000" lon="-4.993814000">
        <ele>195.5</ele>
        <time>2020-10-12T13:05:43Z</time>
      </trkpt>
      <trkpt lat="37.657598000" lon="-4.993763000">
        <ele>195.6</ele>
        <time>2020-10-12T13:05:45Z</time>
      </trkpt>
      <trkpt lat="37.657677000" lon="-4.993714000">
        <ele>195.8</ele>
        <time>2020-10-12T13:05:47Z</time>
      </trkpt>
      <trkpt lat="37.657752000" lon="-4.993664000">
        <ele>196.0</ele>
        <time>2020-10-12T13:05:49Z</time>
      </trkpt>
      <trkpt lat="37.657826000" lon="-4.993615000">
        <ele>196.1</ele>
        <time>2020-10-12T13:05:51Z</time>
      </trkpt>
      <trkpt lat="37.657899000" lon="-4.993565000">
        <ele>196.2</ele>
        <time>2020-10-12T13:05:53Z</time>
      </trkpt>
      <trkpt lat="37.657971000" lon="-4.993516000">
        <ele>196.3</ele>
        <time>2020-10-12T13:05:55Z</time>
      </trkpt>
      <trkpt lat="37.658049000" lon="-4.993470000">
        <ele>196.4</ele>
        <time>2020-10-12T13:05:57Z</time>
      </trkpt>
      <trkpt lat="37.658135000" lon="-4.993427000">
        <ele>196.3</ele>
        <time>2020-10-12T13:05:59Z</time>
      </trkpt>
      <trkpt lat="37.658217000" lon="-4.993375000">
        <ele>196.2</ele>
        <time>2020-10-12T13:06:01Z</time>
      </trkpt>
      <trkpt lat="37.658297000" lon="-4.993321000">
        <ele>196.1</ele>
        <time>2020-10-12T13:06:03Z</time>
      </trkpt>
      <trkpt lat="37.658382000" lon="-4.993265000">
        <ele>195.9</ele>
        <time>2020-10-12T13:06:05Z</time>
      </trkpt>
      <trkpt lat="37.658465000" lon="-4.993206000">
        <ele>195.7</ele>
        <time>2020-10-12T13:06:07Z</time>
      </trkpt>
      <trkpt lat="37.658551000" lon="-4.993148000">
        <ele>195.5</ele>
        <time>2020-10-12T13:06:09Z</time>
      </trkpt>
      <trkpt lat="37.658639000" lon="-4.993090000">
        <ele>195.4</ele>
        <time>2020-10-12T13:06:11Z</time>
      </trkpt>
      <trkpt lat="37.658729000" lon="-4.993032000">
        <ele>195.3</ele>
        <time>2020-10-12T13:06:13Z</time>
      </trkpt>
      <trkpt lat="37.658817000" lon="-4.992979000">
        <ele>195.2</ele>
        <time>2020-10-12T13:06:15Z</time>
      </trkpt>
      <trkpt lat="37.658908000" lon="-4.992914000">
        <ele>195.1</ele>
        <time>2020-10-12T13:06:17Z</time>
      </trkpt>
      <trkpt lat="37.659000000" lon="-4.992850000">
        <ele>195.0</ele>
        <time>2020-10-12T13:06:19Z</time>
      </trkpt>
      <trkpt lat="37.659098000" lon="-4.992780000">
        <ele>194.9</ele>
        <time>2020-10-12T13:06:21Z</time>
      </trkpt>
      <trkpt lat="37.659199000" lon="-4.992715000">
        <ele>194.8</ele>
        <time>2020-10-12T13:06:23Z</time>
      </trkpt>
      <trkpt lat="37.659300000" lon="-4.992647000">
        <ele>194.7</ele>
        <time>2020-10-12T13:06:25Z</time>
      </trkpt>
      <trkpt lat="37.659400000" lon="-4.992576000">
        <ele>194.5</ele>
        <time>2020-10-12T13:06:27Z</time>
      </trkpt>
      <trkpt lat="37.659504000" lon="-4.992511000">
        <ele>194.4</ele>
        <time>2020-10-12T13:06:29Z</time>
      </trkpt>
      <trkpt lat="37.659607000" lon="-4.992443000">
        <ele>194.2</ele>
        <time>2020-10-12T13:06:31Z</time>
      </trkpt>
      <trkpt lat="37.659705000" lon="-4.992373000">
        <ele>193.9</ele>
        <time>2020-10-12T13:06:33Z</time>
      </trkpt>
      <trkpt lat="37.659803000" lon="-4.992310000">
        <ele>193.6</ele>
        <time>2020-10-12T13:06:35Z</time>
      </trkpt>
      <trkpt lat="37.659902000" lon="-4.992243000">
        <ele>193.4</ele>
        <time>2020-10-12T13:06:37Z</time>
      </trkpt>
      <trkpt lat="37.660000000" lon="-4.992176000">
        <ele>193.1</ele>
        <time>2020-10-12T13:06:39Z</time>
      </trkpt>
      <trkpt lat="37.660101000" lon="-4.992114000">
        <ele>192.7</ele>
        <time>2020-10-12T13:06:41Z</time>
      </trkpt>
      <trkpt lat="37.660204000" lon="-4.992048000">
        <ele>192.4</ele>
        <time>2020-10-12T13:06:43Z</time>
      </trkpt>
      <trkpt lat="37.660309000" lon="-4.991981000">
        <ele>192.0</ele>
        <time>2020-10-12T13:06:45Z</time>
      </trkpt>
      <trkpt lat="37.660409000" lon="-4.991903000">
        <ele>191.6</ele>
        <time>2020-10-12T13:06:47Z</time>
      </trkpt>
      <trkpt lat="37.660519000" lon="-4.991837000">
        <ele>191.4</ele>
        <time>2020-10-12T13:06:49Z</time>
      </trkpt>
      <trkpt lat="37.660626000" lon="-4.991767000">
        <ele>191.1</ele>
        <time>2020-10-12T13:06:51Z</time>
      </trkpt>
      <trkpt lat="37.660734000" lon="-4.991702000">
        <ele>190.9</ele>
        <time>2020-10-12T13:06:53Z</time>
      </trkpt>
      <trkpt lat="37.660842000" lon="-4.991635000">
        <ele>190.8</ele>
        <time>2020-10-12T13:06:55Z</time>
      </trkpt>
      <trkpt lat="37.660958000" lon="-4.991565000">
        <ele>190.7</ele>
        <time>2020-10-12T13:06:57Z</time>
      </trkpt>
      <trkpt lat="37.661064000" lon="-4.991488000">
        <ele>190.6</ele>
        <time>2020-10-12T13:06:59Z</time>
      </trkpt>
      <trkpt lat="37.661173000" lon="-4.991421000">
        <ele>190.5</ele>
        <time>2020-10-12T13:07:01Z</time>
      </trkpt>
      <trkpt lat="37.661280000" lon="-4.991356000">
        <ele>190.5</ele>
        <time>2020-10-12T13:07:03Z</time>
      </trkpt>
      <trkpt lat="37.661386000" lon="-4.991277000">
        <ele>190.5</ele>
        <time>2020-10-12T13:07:05Z</time>
      </trkpt>
      <trkpt lat="37.661495000" lon="-4.991203000">
        <ele>190.5</ele>
        <time>2020-10-12T13:07:07Z</time>
      </trkpt>
      <trkpt lat="37.661604000" lon="-4.991127000">
        <ele>190.5</ele>
        <time>2020-10-12T13:07:09Z</time>
      </trkpt>
      <trkpt lat="37.661708000" lon="-4.991060000">
        <ele>190.5</ele>
        <time>2020-10-12T13:07:11Z</time>
      </trkpt>
      <trkpt lat="37.661812000" lon="-4.990991000">
        <ele>190.5</ele>
        <time>2020-10-12T13:07:13Z</time>
      </trkpt>
      <trkpt lat="37.661911000" lon="-4.990931000">
        <ele>190.4</ele>
        <time>2020-10-12T13:07:15Z</time>
      </trkpt>
      <trkpt lat="37.662008000" lon="-4.990869000">
        <ele>190.4</ele>
        <time>2020-10-12T13:07:17Z</time>
      </trkpt>
      <trkpt lat="37.662105000" lon="-4.990803000">
        <ele>190.4</ele>
        <time>2020-10-12T13:07:19Z</time>
      </trkpt>
      <trkpt lat="37.662196000" lon="-4.990746000">
        <ele>190.4</ele>
        <time>2020-10-12T13:07:21Z</time>
      </trkpt>
      <trkpt lat="37.662276000" lon="-4.990692000">
        <ele>190.3</ele>
        <time>2020-10-12T13:07:23Z</time>
      </trkpt>
      <trkpt lat="37.662350000" lon="-4.990637000">
        <ele>190.3</ele>
        <time>2020-10-12T13:07:25Z</time>
      </trkpt>
      <trkpt lat="37.662427000" lon="-4.990581000">
        <ele>190.3</ele>
        <time>2020-10-12T13:07:27Z</time>
      </trkpt>
      <trkpt lat="37.662507000" lon="-4.990535000">
        <ele>190.2</ele>
        <time>2020-10-12T13:07:29Z</time>
      </trkpt>
      <trkpt lat="37.662586000" lon="-4.990490000">
        <ele>190.1</ele>
        <time>2020-10-12T13:07:31Z</time>
      </trkpt>
      <trkpt lat="37.662689000" lon="-4.990436000">
        <ele>190.0</ele>
        <time>2020-10-12T13:07:34Z</time>
      </trkpt>
      <trkpt lat="37.662772000" lon="-4.990367000">
        <ele>190.0</ele>
        <time>2020-10-12T13:07:37Z</time>
      </trkpt>
      <trkpt lat="37.662875000" lon="-4.990293000">
        <ele>190.0</ele>
        <time>2020-10-12T13:07:40Z</time>
      </trkpt>
      <trkpt lat="37.662957000" lon="-4.990237000">
        <ele>189.9</ele>
        <time>2020-10-12T13:07:42Z</time>
      </trkpt>
      <trkpt lat="37.663034000" lon="-4.990180000">
        <ele>189.8</ele>
        <time>2020-10-12T13:07:44Z</time>
      </trkpt>
      <trkpt lat="37.663109000" lon="-4.990128000">
        <ele>189.7</ele>
        <time>2020-10-12T13:07:46Z</time>
      </trkpt>
      <trkpt lat="37.663219000" lon="-4.990061000">
        <ele>189.7</ele>
        <time>2020-10-12T13:07:49Z</time>
      </trkpt>
      <trkpt lat="37.663291000" lon="-4.990011000">
        <ele>189.7</ele>
        <time>2020-10-12T13:07:51Z</time>
      </trkpt>
      <trkpt lat="37.663375000" lon="-4.989957000">
        <ele>189.6</ele>
        <time>2020-10-12T13:07:53Z</time>
      </trkpt>
      <trkpt lat="37.663454000" lon="-4.989909000">
        <ele>189.6</ele>
        <time>2020-10-12T13:07:55Z</time>
      </trkpt>
      <trkpt lat="37.663541000" lon="-4.989865000">
        <ele>189.6</ele>
        <time>2020-10-12T13:07:57Z</time>
      </trkpt>
      <trkpt lat="37.663625000" lon="-4.989813000">
        <ele>189.6</ele>
        <time>2020-10-12T13:07:59Z</time>
      </trkpt>
      <trkpt lat="37.663711000" lon="-4.989764000">
        <ele>189.5</ele>
        <time>2020-10-12T13:08:01Z</time>
      </trkpt>
      <trkpt lat="37.663794000" lon="-4.989712000">
        <ele>189.5</ele>
        <time>2020-10-12T13:08:03Z</time>
      </trkpt>
      <trkpt lat="37.663881000" lon="-4.989669000">
        <ele>189.4</ele>
        <time>2020-10-12T13:08:05Z</time>
      </trkpt>
      <trkpt lat="37.663967000" lon="-4.989620000">
        <ele>189.4</ele>
        <time>2020-10-12T13:08:07Z</time>
      </trkpt>
      <trkpt lat="37.664052000" lon="-4.989581000">
        <ele>189.4</ele>
        <time>2020-10-12T13:08:09Z</time>
      </trkpt>
      <trkpt lat="37.664142000" lon="-4.989550000">
        <ele>189.4</ele>
        <time>2020-10-12T13:08:11Z</time>
      </trkpt>
      <trkpt lat="37.664222000" lon="-4.989518000">
        <ele>189.4</ele>
        <time>2020-10-12T13:08:13Z</time>
      </trkpt>
      <trkpt lat="37.664307000" lon="-4.989481000">
        <ele>189.5</ele>
        <time>2020-10-12T13:08:15Z</time>
      </trkpt>
      <trkpt lat="37.664394000" lon="-4.989446000">
        <ele>189.7</ele>
        <time>2020-10-12T13:08:17Z</time>
      </trkpt>
      <trkpt lat="37.664479000" lon="-4.989411000">
        <ele>189.9</ele>
        <time>2020-10-12T13:08:19Z</time>
      </trkpt>
      <trkpt lat="37.664571000" lon="-4.989373000">
        <ele>190.1</ele>
        <time>2020-10-12T13:08:21Z</time>
      </trkpt>
      <trkpt lat="37.664661000" lon="-4.989337000">
        <ele>190.3</ele>
        <time>2020-10-12T13:08:23Z</time>
      </trkpt>
      <trkpt lat="37.664743000" lon="-4.989298000">
        <ele>190.4</ele>
        <time>2020-10-12T13:08:25Z</time>
      </trkpt>
      <trkpt lat="37.664827000" lon="-4.989256000">
        <ele>190.5</ele>
        <time>2020-10-12T13:08:27Z</time>
      </trkpt>
      <trkpt lat="37.664908000" lon="-4.989226000">
        <ele>190.4</ele>
        <time>2020-10-12T13:08:29Z</time>
      </trkpt>
      <trkpt lat="37.664990000" lon="-4.989193000">
        <ele>190.3</ele>
        <time>2020-10-12T13:08:31Z</time>
      </trkpt>
      <trkpt lat="37.665073000" lon="-4.989159000">
        <ele>190.1</ele>
        <time>2020-10-12T13:08:33Z</time>
      </trkpt>
      <trkpt lat="37.665154000" lon="-4.989126000">
        <ele>189.9</ele>
        <time>2020-10-12T13:08:35Z</time>
      </trkpt>
      <trkpt lat="37.665236000" lon="-4.989089000">
        <ele>189.6</ele>
        <time>2020-10-12T13:08:37Z</time>
      </trkpt>
      <trkpt lat="37.665321000" lon="-4.989050000">
        <ele>189.5</ele>
        <time>2020-10-12T13:08:39Z</time>
      </trkpt>
      <trkpt lat="37.665409000" lon="-4.989013000">
        <ele>189.4</ele>
        <time>2020-10-12T13:08:41Z</time>
      </trkpt>
      <trkpt lat="37.665501000" lon="-4.988977000">
        <ele>189.3</ele>
        <time>2020-10-12T13:08:43Z</time>
      </trkpt>
      <trkpt lat="37.665585000" lon="-4.988934000">
        <ele>189.3</ele>
        <time>2020-10-12T13:08:45Z</time>
      </trkpt>
      <trkpt lat="37.665677000" lon="-4.988896000">
        <ele>189.4</ele>
        <time>2020-10-12T13:08:47Z</time>
      </trkpt>
      <trkpt lat="37.665773000" lon="-4.988855000">
        <ele>189.5</ele>
        <time>2020-10-12T13:08:49Z</time>
      </trkpt>
      <trkpt lat="37.665864000" lon="-4.988815000">
        <ele>189.5</ele>
        <time>2020-10-12T13:08:51Z</time>
      </trkpt>
      <trkpt lat="37.665955000" lon="-4.988782000">
        <ele>189.6</ele>
        <time>2020-10-12T13:08:53Z</time>
      </trkpt>
      <trkpt lat="37.666048000" lon="-4.988739000">
        <ele>189.8</ele>
        <time>2020-10-12T13:08:55Z</time>
      </trkpt>
      <trkpt lat="37.666141000" lon="-4.988702000">
        <ele>189.9</ele>
        <time>2020-10-12T13:08:57Z</time>
      </trkpt>
      <trkpt lat="37.666239000" lon="-4.988654000">
        <ele>190.0</ele>
        <time>2020-10-12T13:08:59Z</time>
      </trkpt>
      <trkpt lat="37.666338000" lon="-4.988621000">
        <ele>189.9</ele>
        <time>2020-10-12T13:09:01Z</time>
      </trkpt>
      <trkpt lat="37.666433000" lon="-4.988579000">
        <ele>189.7</ele>
        <time>2020-10-12T13:09:03Z</time>
      </trkpt>
      <trkpt lat="37.666535000" lon="-4.988543000">
        <ele>189.5</ele>
        <time>2020-10-12T13:09:05Z</time>
      </trkpt>
      <trkpt lat="37.666633000" lon="-4.988504000">
        <ele>189.3</ele>
        <time>2020-10-12T13:09:07Z</time>
      </trkpt>
      <trkpt lat="37.666732000" lon="-4.988462000">
        <ele>189.0</ele>
        <time>2020-10-12T13:09:09Z</time>
      </trkpt>
      <trkpt lat="37.666829000" lon="-4.988421000">
        <ele>188.7</ele>
        <time>2020-10-12T13:09:11Z</time>
      </trkpt>
      <trkpt lat="37.666925000" lon="-4.988384000">
        <ele>188.6</ele>
        <time>2020-10-12T13:09:13Z</time>
      </trkpt>
      <trkpt lat="37.667023000" lon="-4.988340000">
        <ele>188.5</ele>
        <time>2020-10-12T13:09:15Z</time>
      </trkpt>
      <trkpt lat="37.667120000" lon="-4.988298000">
        <ele>188.5</ele>
        <time>2020-10-12T13:09:17Z</time>
      </trkpt>
      <trkpt lat="37.667219000" lon="-4.988256000">
        <ele>188.5</ele>
        <time>2020-10-12T13:09:19Z</time>
      </trkpt>
      <trkpt lat="37.667315000" lon="-4.988218000">
        <ele>188.5</ele>
        <time>2020-10-12T13:09:21Z</time>
      </trkpt>
      <trkpt lat="37.667407000" lon="-4.988181000">
        <ele>188.5</ele>
        <time>2020-10-12T13:09:23Z</time>
      </trkpt>
      <trkpt lat="37.667507000" lon="-4.988138000">
        <ele>188.5</ele>
        <time>2020-10-12T13:09:25Z</time>
      </trkpt>
      <trkpt lat="37.667605000" lon="-4.988101000">
        <ele>188.5</ele>
        <time>2020-10-12T13:09:27Z</time>
      </trkpt>
      <trkpt lat="37.667706000" lon="-4.988063000">
        <ele>188.5</ele>
        <time>2020-10-12T13:09:29Z</time>
      </trkpt>
      <trkpt lat="37.667802000" lon="-4.988006000">
        <ele>188.6</ele>
        <time>2020-10-12T13:09:31Z</time>
      </trkpt>
      <trkpt lat="37.667898000" lon="-4.987966000">
        <ele>188.7</ele>
        <time>2020-10-12T13:09:33Z</time>
      </trkpt>
      <trkpt lat="37.667991000" lon="-4.987930000">
        <ele>188.7</ele>
        <time>2020-10-12T13:09:35Z</time>
      </trkpt>
      <trkpt lat="37.668086000" lon="-4.987899000">
        <ele>188.6</ele>
        <time>2020-10-12T13:09:37Z</time>
      </trkpt>
      <trkpt lat="37.668175000" lon="-4.987865000">
        <ele>188.5</ele>
        <time>2020-10-12T13:09:39Z</time>
      </trkpt>
      <trkpt lat="37.668248000" lon="-4.987817000">
        <ele>188.5</ele>
        <time>2020-10-12T13:09:41Z</time>
      </trkpt>
      <trkpt lat="37.668332000" lon="-4.987777000">
        <ele>188.4</ele>
        <time>2020-10-12T13:09:43Z</time>
      </trkpt>
      <trkpt lat="37.668416000" lon="-4.987736000">
        <ele>188.2</ele>
        <time>2020-10-12T13:09:45Z</time>
      </trkpt>
      <trkpt lat="37.668499000" lon="-4.987699000">
        <ele>188.1</ele>
        <time>2020-10-12T13:09:47Z</time>
      </trkpt>
      <trkpt lat="37.668579000" lon="-4.987662000">
        <ele>188.0</ele>
        <time>2020-10-12T13:09:49Z</time>
      </trkpt>
      <trkpt lat="37.668661000" lon="-4.987636000">
        <ele>187.8</ele>
        <time>2020-10-12T13:09:51Z</time>
      </trkpt>
      <trkpt lat="37.668739000" lon="-4.987603000">
        <ele>187.5</ele>
        <time>2020-10-12T13:09:53Z</time>
      </trkpt>
      <trkpt lat="37.668849000" lon="-4.987556000">
        <ele>187.3</ele>
        <time>2020-10-12T13:09:56Z</time>
      </trkpt>
      <trkpt lat="37.668930000" lon="-4.987520000">
        <ele>186.9</ele>
        <time>2020-10-12T13:09:58Z</time>
      </trkpt>
      <trkpt lat="37.669017000" lon="-4.987487000">
        <ele>186.6</ele>
        <time>2020-10-12T13:10:00Z</time>
      </trkpt>
      <trkpt lat="37.669105000" lon="-4.987447000">
        <ele>186.4</ele>
        <time>2020-10-12T13:10:02Z</time>
      </trkpt>
      <trkpt lat="37.669200000" lon="-4.987405000">
        <ele>186.1</ele>
        <time>2020-10-12T13:10:04Z</time>
      </trkpt>
      <trkpt lat="37.669297000" lon="-4.987366000">
        <ele>185.8</ele>
        <time>2020-10-12T13:10:06Z</time>
      </trkpt>
      <trkpt lat="37.669397000" lon="-4.987328000">
        <ele>185.7</ele>
        <time>2020-10-12T13:10:08Z</time>
      </trkpt>
      <trkpt lat="37.669495000" lon="-4.987286000">
        <ele>185.6</ele>
        <time>2020-10-12T13:10:10Z</time>
      </trkpt>
      <trkpt lat="37.669593000" lon="-4.987243000">
        <ele>185.6</ele>
        <time>2020-10-12T13:10:12Z</time>
      </trkpt>
      <trkpt lat="37.669695000" lon="-4.987198000">
        <ele>185.7</ele>
        <time>2020-10-12T13:10:14Z</time>
      </trkpt>
      <trkpt lat="37.669798000" lon="-4.987158000">
        <ele>185.8</ele>
        <time>2020-10-12T13:10:16Z</time>
      </trkpt>
      <trkpt lat="37.669897000" lon="-4.987116000">
        <ele>185.8</ele>
        <time>2020-10-12T13:10:18Z</time>
      </trkpt>
      <trkpt lat="37.669993000" lon="-4.987072000">
        <ele>185.9</ele>
        <time>2020-10-12T13:10:20Z</time>
      </trkpt>
      <trkpt lat="37.670093000" lon="-4.987037000">
        <ele>186.0</ele>
        <time>2020-10-12T13:10:22Z</time>
      </trkpt>
      <trkpt lat="37.670189000" lon="-4.986993000">
        <ele>186.0</ele>
        <time>2020-10-12T13:10:24Z</time>
      </trkpt>
      <trkpt lat="37.670287000" lon="-4.986951000">
        <ele>186.0</ele>
        <time>2020-10-12T13:10:26Z</time>
      </trkpt>
      <trkpt lat="37.670378000" lon="-4.986911000">
        <ele>185.9</ele>
        <time>2020-10-12T13:10:28Z</time>
      </trkpt>
      <trkpt lat="37.670468000" lon="-4.986874000">
        <ele>185.7</ele>
        <time>2020-10-12T13:10:30Z</time>
      </trkpt>
      <trkpt lat="37.670563000" lon="-4.986833000">
        <ele>185.6</ele>
        <time>2020-10-12T13:10:32Z</time>
      </trkpt>
      <trkpt lat="37.670664000" lon="-4.986787000">
        <ele>185.5</ele>
        <time>2020-10-12T13:10:34Z</time>
      </trkpt>
      <trkpt lat="37.670754000" lon="-4.986740000">
        <ele>185.4</ele>
        <time>2020-10-12T13:10:36Z</time>
      </trkpt>
      <trkpt lat="37.670845000" lon="-4.986707000">
        <ele>185.3</ele>
        <time>2020-10-12T13:10:38Z</time>
      </trkpt>
      <trkpt lat="37.670941000" lon="-4.986661000">
        <ele>185.4</ele>
        <time>2020-10-12T13:10:40Z</time>
      </trkpt>
      <trkpt lat="37.671039000" lon="-4.986620000">
        <ele>185.5</ele>
        <time>2020-10-12T13:10:42Z</time>
      </trkpt>
      <trkpt lat="37.671131000" lon="-4.986581000">
        <ele>185.5</ele>
        <time>2020-10-12T13:10:44Z</time>
      </trkpt>
      <trkpt lat="37.671224000" lon="-4.986542000">
        <ele>185.7</ele>
        <time>2020-10-12T13:10:46Z</time>
      </trkpt>
      <trkpt lat="37.671314000" lon="-4.986500000">
        <ele>185.9</ele>
        <time>2020-10-12T13:10:48Z</time>
      </trkpt>
      <trkpt lat="37.671409000" lon="-4.986459000">
        <ele>186.2</ele>
        <time>2020-10-12T13:10:50Z</time>
      </trkpt>
      <trkpt lat="37.671506000" lon="-4.986420000">
        <ele>186.5</ele>
        <time>2020-10-12T13:10:52Z</time>
      </trkpt>
      <trkpt lat="37.671600000" lon="-4.986383000">
        <ele>186.6</ele>
        <time>2020-10-12T13:10:54Z</time>
      </trkpt>
      <trkpt lat="37.671695000" lon="-4.986346000">
        <ele>186.7</ele>
        <time>2020-10-12T13:10:56Z</time>
      </trkpt>
      <trkpt lat="37.671791000" lon="-4.986310000">
        <ele>186.7</ele>
        <time>2020-10-12T13:10:58Z</time>
      </trkpt>
      <trkpt lat="37.671882000" lon="-4.986270000">
        <ele>186.6</ele>
        <time>2020-10-12T13:11:00Z</time>
      </trkpt>
      <trkpt lat="37.671973000" lon="-4.986235000">
        <ele>186.5</ele>
        <time>2020-10-12T13:11:02Z</time>
      </trkpt>
      <trkpt lat="37.672060000" lon="-4.986207000">
        <ele>186.3</ele>
        <time>2020-10-12T13:11:04Z</time>
      </trkpt>
      <trkpt lat="37.672155000" lon="-4.986170000">
        <ele>186.0</ele>
        <time>2020-10-12T13:11:06Z</time>
      </trkpt>
      <trkpt lat="37.672243000" lon="-4.986128000">
        <ele>185.7</ele>
        <time>2020-10-12T13:11:08Z</time>
      </trkpt>
      <trkpt lat="37.672331000" lon="-4.986080000">
        <ele>185.5</ele>
        <time>2020-10-12T13:11:10Z</time>
      </trkpt>
      <trkpt lat="37.672409000" lon="-4.986046000">
        <ele>185.1</ele>
        <time>2020-10-12T13:11:12Z</time>
      </trkpt>
      <trkpt lat="37.672497000" lon="-4.985991000">
        <ele>184.7</ele>
        <time>2020-10-12T13:11:15Z</time>
      </trkpt>
      <trkpt lat="37.672582000" lon="-4.985923000">
        <ele>184.4</ele>
        <time>2020-10-12T13:11:19Z</time>
      </trkpt>
      <trkpt lat="37.672643000" lon="-4.985852000">
        <ele>184.0</ele>
        <time>2020-10-12T13:11:21Z</time>
      </trkpt>
      <trkpt lat="37.672714000" lon="-4.985754000">
        <ele>183.6</ele>
        <time>2020-10-12T13:11:23Z</time>
      </trkpt>
      <trkpt lat="37.672793000" lon="-4.985642000">
        <ele>183.4</ele>
        <time>2020-10-12T13:11:25Z</time>
      </trkpt>
      <trkpt lat="37.672856000" lon="-4.985531000">
        <ele>183.1</ele>
        <time>2020-10-12T13:11:27Z</time>
      </trkpt>
      <trkpt lat="37.672920000" lon="-4.985408000">
        <ele>182.8</ele>
        <time>2020-10-12T13:11:29Z</time>
      </trkpt>
      <trkpt lat="37.672986000" lon="-4.985330000">
        <ele>182.6</ele>
        <time>2020-10-12T13:11:31Z</time>
      </trkpt>
      <trkpt lat="37.673077000" lon="-4.985272000">
        <ele>182.4</ele>
        <time>2020-10-12T13:11:33Z</time>
      </trkpt>
      <trkpt lat="37.673184000" lon="-4.985261000">
        <ele>182.1</ele>
        <time>2020-10-12T13:11:35Z</time>
      </trkpt>
      <trkpt lat="37.673286000" lon="-4.985298000">
        <ele>181.8</ele>
        <time>2020-10-12T13:11:37Z</time>
      </trkpt>
      <trkpt lat="37.673381000" lon="-4.985345000">
        <ele>181.5</ele>
        <time>2020-10-12T13:11:39Z</time>
      </trkpt>
      <trkpt lat="37.673462000" lon="-4.985398000">
        <ele>181.2</ele>
        <time>2020-10-12T13:11:41Z</time>
      </trkpt>
      <trkpt lat="37.673544000" lon="-4.985450000">
        <ele>180.9</ele>
        <time>2020-10-12T13:11:43Z</time>
      </trkpt>
      <trkpt lat="37.673620000" lon="-4.985495000">
        <ele>180.6</ele>
        <time>2020-10-12T13:11:45Z</time>
      </trkpt>
      <trkpt lat="37.673731000" lon="-4.985547000">
        <ele>180.4</ele>
        <time>2020-10-12T13:11:48Z</time>
      </trkpt>
      <trkpt lat="37.673831000" lon="-4.985610000">
        <ele>180.2</ele>
        <time>2020-10-12T13:11:51Z</time>
      </trkpt>
      <trkpt lat="37.673933000" lon="-4.985662000">
        <ele>180.0</ele>
        <time>2020-10-12T13:11:54Z</time>
      </trkpt>
      <trkpt lat="37.674021000" lon="-4.985715000">
        <ele>179.8</ele>
        <time>2020-10-12T13:11:57Z</time>
      </trkpt>
      <trkpt lat="37.674105000" lon="-4.985756000">
        <ele>179.7</ele>
        <time>2020-10-12T13:12:00Z</time>
      </trkpt>
      <trkpt lat="37.674185000" lon="-4.985803000">
        <ele>179.6</ele>
        <time>2020-10-12T13:12:03Z</time>
      </trkpt>
      <trkpt lat="37.674285000" lon="-4.985852000">
        <ele>179.6</ele>
        <time>2020-10-12T13:12:07Z</time>
      </trkpt>
      <trkpt lat="37.674369000" lon="-4.985898000">
        <ele>179.6</ele>
        <time>2020-10-12T13:12:10Z</time>
      </trkpt>
      <trkpt lat="37.674453000" lon="-4.985945000">
        <ele>179.7</ele>
        <time>2020-10-12T13:12:13Z</time>
      </trkpt>
      <trkpt lat="37.674550000" lon="-4.985998000">
        <ele>179.8</ele>
        <time>2020-10-12T13:12:16Z</time>
      </trkpt>
      <trkpt lat="37.674660000" lon="-4.986053000">
        <ele>179.8</ele>
        <time>2020-10-12T13:12:19Z</time>
      </trkpt>
      <trkpt lat="37.674738000" lon="-4.986082000">
        <ele>179.8</ele>
        <time>2020-10-12T13:12:21Z</time>
      </trkpt>
      <trkpt lat="37.674851000" lon="-4.986129000">
        <ele>179.6</ele>
        <time>2020-10-12T13:12:24Z</time>
      </trkpt>
      <trkpt lat="37.674967000" lon="-4.986164000">
        <ele>179.5</ele>
        <time>2020-10-12T13:12:27Z</time>
      </trkpt>
      <trkpt lat="37.675049000" lon="-4.986196000">
        <ele>179.3</ele>
        <time>2020-10-12T13:12:29Z</time>
      </trkpt>
      <trkpt lat="37.675129000" lon="-4.986225000">
        <ele>179.0</ele>
        <time>2020-10-12T13:12:31Z</time>
      </trkpt>
      <trkpt lat="37.675209000" lon="-4.986249000">
        <ele>178.7</ele>
        <time>2020-10-12T13:12:33Z</time>
      </trkpt>
      <trkpt lat="37.675293000" lon="-4.986280000">
        <ele>178.5</ele>
        <time>2020-10-12T13:12:35Z</time>
      </trkpt>
      <trkpt lat="37.675377000" lon="-4.986309000">
        <ele>178.4</ele>
        <time>2020-10-12T13:12:37Z</time>
      </trkpt>
      <trkpt lat="37.675458000" lon="-4.986335000">
        <ele>178.2</ele>
        <time>2020-10-12T13:12:39Z</time>
      </trkpt>
      <trkpt lat="37.675537000" lon="-4.986357000">
        <ele>178.0</ele>
        <time>2020-10-12T13:12:41Z</time>
      </trkpt>
      <trkpt lat="37.675649000" lon="-4.986394000">
        <ele>177.9</ele>
        <time>2020-10-12T13:12:44Z</time>
      </trkpt>
      <trkpt lat="37.675758000" lon="-4.986435000">
        <ele>177.9</ele>
        <time>2020-10-12T13:12:47Z</time>
      </trkpt>
      <trkpt lat="37.675839000" lon="-4.986462000">
        <ele>178.0</ele>
        <time>2020-10-12T13:12:49Z</time>
      </trkpt>
      <trkpt lat="37.675921000" lon="-4.986489000">
        <ele>178.1</ele>
        <time>2020-10-12T13:12:51Z</time>
      </trkpt>
      <trkpt lat="37.676006000" lon="-4.986516000">
        <ele>178.2</ele>
        <time>2020-10-12T13:12:53Z</time>
      </trkpt>
      <trkpt lat="37.676100000" lon="-4.986552000">
        <ele>178.5</ele>
        <time>2020-10-12T13:12:55Z</time>
      </trkpt>
      <trkpt lat="37.676195000" lon="-4.986580000">
        <ele>178.7</ele>
        <time>2020-10-12T13:12:57Z</time>
      </trkpt>
      <trkpt lat="37.676295000" lon="-4.986614000">
        <ele>178.9</ele>
        <time>2020-10-12T13:12:59Z</time>
      </trkpt>
      <trkpt lat="37.676400000" lon="-4.986651000">
        <ele>179.1</ele>
        <time>2020-10-12T13:13:01Z</time>
      </trkpt>
      <trkpt lat="37.676501000" lon="-4.986684000">
        <ele>179.3</ele>
        <time>2020-10-12T13:13:03Z</time>
      </trkpt>
      <trkpt lat="37.676604000" lon="-4.986719000">
        <ele>179.4</ele>
        <time>2020-10-12T13:13:05Z</time>
      </trkpt>
      <trkpt lat="37.676714000" lon="-4.986759000">
        <ele>179.5</ele>
        <time>2020-10-12T13:13:07Z</time>
      </trkpt>
      <trkpt lat="37.676826000" lon="-4.986790000">
        <ele>179.4</ele>
        <time>2020-10-12T13:13:09Z</time>
      </trkpt>
      <trkpt lat="37.676937000" lon="-4.986828000">
        <ele>179.3</ele>
        <time>2020-10-12T13:13:11Z</time>
      </trkpt>
      <trkpt lat="37.677044000" lon="-4.986858000">
        <ele>179.1</ele>
        <time>2020-10-12T13:13:13Z</time>
      </trkpt>
      <trkpt lat="37.677159000" lon="-4.986895000">
        <ele>178.9</ele>
        <time>2020-10-12T13:13:15Z</time>
      </trkpt>
      <trkpt lat="37.677273000" lon="-4.986934000">
        <ele>178.6</ele>
        <time>2020-10-12T13:13:17Z</time>
      </trkpt>
      <trkpt lat="37.677387000" lon="-4.986974000">
        <ele>178.3</ele>
        <time>2020-10-12T13:13:19Z</time>
      </trkpt>
      <trkpt lat="37.677506000" lon="-4.987013000">
        <ele>177.9</ele>
        <time>2020-10-12T13:13:21Z</time>
      </trkpt>
      <trkpt lat="37.677629000" lon="-4.987047000">
        <ele>177.5</ele>
        <time>2020-10-12T13:13:23Z</time>
      </trkpt>
      <trkpt lat="37.677741000" lon="-4.987080000">
        <ele>177.2</ele>
        <time>2020-10-12T13:13:25Z</time>
      </trkpt>
      <trkpt lat="37.677859000" lon="-4.987122000">
        <ele>176.9</ele>
        <time>2020-10-12T13:13:27Z</time>
      </trkpt>
      <trkpt lat="37.677978000" lon="-4.987151000">
        <ele>176.6</ele>
        <time>2020-10-12T13:13:29Z</time>
      </trkpt>
      <trkpt lat="37.678101000" lon="-4.987180000">
        <ele>176.4</ele>
        <time>2020-10-12T13:13:31Z</time>
      </trkpt>
      <trkpt lat="37.678227000" lon="-4.987216000">
        <ele>176.1</ele>
        <time>2020-10-12T13:13:33Z</time>
      </trkpt>
      <trkpt lat="37.678355000" lon="-4.987238000">
        <ele>175.8</ele>
        <time>2020-10-12T13:13:36Z</time>
      </trkpt>
      <trkpt lat="37.678481000" lon="-4.987258000">
        <ele>175.5</ele>
        <time>2020-10-12T13:13:37Z</time>
      </trkpt>
      <trkpt lat="37.678607000" lon="-4.987272000">
        <ele>175.1</ele>
        <time>2020-10-12T13:13:39Z</time>
      </trkpt>
      <trkpt lat="37.678735000" lon="-4.987287000">
        <ele>174.8</ele>
        <time>2020-10-12T13:13:41Z</time>
      </trkpt>
      <trkpt lat="37.678861000" lon="-4.987277000">
        <ele>174.5</ele>
        <time>2020-10-12T13:13:43Z</time>
      </trkpt>
      <trkpt lat="37.678983000" lon="-4.987259000">
        <ele>174.3</ele>
        <time>2020-10-12T13:13:45Z</time>
      </trkpt>
      <trkpt lat="37.679103000" lon="-4.987242000">
        <ele>174.0</ele>
        <time>2020-10-12T13:13:47Z</time>
      </trkpt>
      <trkpt lat="37.679228000" lon="-4.987222000">
        <ele>173.7</ele>
        <time>2020-10-12T13:13:49Z</time>
      </trkpt>
      <trkpt lat="37.679346000" lon="-4.987198000">
        <ele>173.5</ele>
        <time>2020-10-12T13:13:51Z</time>
      </trkpt>
      <trkpt lat="37.679466000" lon="-4.987170000">
        <ele>173.2</ele>
        <time>2020-10-12T13:13:53Z</time>
      </trkpt>
      <trkpt lat="37.679594000" lon="-4.987144000">
        <ele>172.8</ele>
        <time>2020-10-12T13:13:55Z</time>
      </trkpt>
      <trkpt lat="37.679715000" lon="-4.987105000">
        <ele>172.5</ele>
        <time>2020-10-12T13:13:57Z</time>
      </trkpt>
      <trkpt lat="37.679833000" lon="-4.987060000">
        <ele>172.3</ele>
        <time>2020-10-12T13:13:59Z</time>
      </trkpt>
      <trkpt lat="37.679949000" lon="-4.987015000">
        <ele>171.9</ele>
        <time>2020-10-12T13:14:01Z</time>
      </trkpt>
      <trkpt lat="37.680064000" lon="-4.986963000">
        <ele>171.5</ele>
        <time>2020-10-12T13:14:03Z</time>
      </trkpt>
      <trkpt lat="37.680173000" lon="-4.986904000">
        <ele>171.1</ele>
        <time>2020-10-12T13:14:05Z</time>
      </trkpt>
      <trkpt lat="37.680276000" lon="-4.986850000">
        <ele>170.6</ele>
        <time>2020-10-12T13:14:07Z</time>
      </trkpt>
      <trkpt lat="37.680380000" lon="-4.986800000">
        <ele>170.1</ele>
        <time>2020-10-12T13:14:09Z</time>
      </trkpt>
      <trkpt lat="37.680483000" lon="-4.986751000">
        <ele>169.5</ele>
        <time>2020-10-12T13:14:11Z</time>
      </trkpt>
      <trkpt lat="37.680589000" lon="-4.986697000">
        <ele>169.0</ele>
        <time>2020-10-12T13:14:13Z</time>
      </trkpt>
      <trkpt lat="37.680697000" lon="-4.986649000">
        <ele>168.5</ele>
        <time>2020-10-12T13:14:15Z</time>
      </trkpt>
      <trkpt lat="37.680791000" lon="-4.986599000">
        <ele>168.2</ele>
        <time>2020-10-12T13:14:17Z</time>
      </trkpt>
      <trkpt lat="37.680890000" lon="-4.986553000">
        <ele>167.8</ele>
        <time>2020-10-12T13:14:19Z</time>
      </trkpt>
      <trkpt lat="37.680989000" lon="-4.986504000">
        <ele>167.5</ele>
        <time>2020-10-12T13:14:21Z</time>
      </trkpt>
      <trkpt lat="37.681088000" lon="-4.986452000">
        <ele>167.3</ele>
        <time>2020-10-12T13:14:23Z</time>
      </trkpt>
      <trkpt lat="37.681184000" lon="-4.986399000">
        <ele>167.1</ele>
        <time>2020-10-12T13:14:25Z</time>
      </trkpt>
      <trkpt lat="37.681271000" lon="-4.986359000">
        <ele>167.0</ele>
        <time>2020-10-12T13:14:27Z</time>
      </trkpt>
      <trkpt lat="37.681349000" lon="-4.986318000">
        <ele>167.0</ele>
        <time>2020-10-12T13:14:29Z</time>
      </trkpt>
      <trkpt lat="37.681428000" lon="-4.986279000">
        <ele>167.1</ele>
        <time>2020-10-12T13:14:31Z</time>
      </trkpt>
      <trkpt lat="37.681515000" lon="-4.986229000">
        <ele>167.3</ele>
        <time>2020-10-12T13:14:33Z</time>
      </trkpt>
      <trkpt lat="37.681598000" lon="-4.986187000">
        <ele>167.5</ele>
        <time>2020-10-12T13:14:35Z</time>
      </trkpt>
      <trkpt lat="37.681676000" lon="-4.986157000">
        <ele>167.6</ele>
        <time>2020-10-12T13:14:37Z</time>
      </trkpt>
      <trkpt lat="37.681780000" lon="-4.986113000">
        <ele>167.9</ele>
        <time>2020-10-12T13:14:40Z</time>
      </trkpt>
      <trkpt lat="37.681867000" lon="-4.986051000">
        <ele>168.2</ele>
        <time>2020-10-12T13:14:43Z</time>
      </trkpt>
      <trkpt lat="37.681968000" lon="-4.985998000">
        <ele>168.5</ele>
        <time>2020-10-12T13:14:46Z</time>
      </trkpt>
      <trkpt lat="37.682075000" lon="-4.985939000">
        <ele>168.8</ele>
        <time>2020-10-12T13:14:49Z</time>
      </trkpt>
      <trkpt lat="37.682153000" lon="-4.985904000">
        <ele>169.2</ele>
        <time>2020-10-12T13:14:51Z</time>
      </trkpt>
      <trkpt lat="37.682235000" lon="-4.985863000">
        <ele>169.5</ele>
        <time>2020-10-12T13:14:53Z</time>
      </trkpt>
      <trkpt lat="37.682325000" lon="-4.985821000">
        <ele>169.8</ele>
        <time>2020-10-12T13:14:55Z</time>
      </trkpt>
      <trkpt lat="37.682412000" lon="-4.985786000">
        <ele>170.1</ele>
        <time>2020-10-12T13:14:57Z</time>
      </trkpt>
      <trkpt lat="37.682521000" lon="-4.985746000">
        <ele>170.3</ele>
        <time>2020-10-12T13:15:00Z</time>
      </trkpt>
      <trkpt lat="37.682631000" lon="-4.985707000">
        <ele>170.5</ele>
        <time>2020-10-12T13:15:03Z</time>
      </trkpt>
      <trkpt lat="37.682711000" lon="-4.985685000">
        <ele>170.8</ele>
        <time>2020-10-12T13:15:05Z</time>
      </trkpt>
      <trkpt lat="37.682790000" lon="-4.985660000">
        <ele>171.0</ele>
        <time>2020-10-12T13:15:07Z</time>
      </trkpt>
      <trkpt lat="37.682907000" lon="-4.985635000">
        <ele>171.2</ele>
        <time>2020-10-12T13:15:10Z</time>
      </trkpt>
      <trkpt lat="37.683024000" lon="-4.985623000">
        <ele>171.4</ele>
        <time>2020-10-12T13:15:13Z</time>
      </trkpt>
      <trkpt lat="37.683108000" lon="-4.985615000">
        <ele>171.5</ele>
        <time>2020-10-12T13:15:15Z</time>
      </trkpt>
      <trkpt lat="37.683218000" lon="-4.985605000">
        <ele>171.4</ele>
        <time>2020-10-12T13:15:18Z</time>
      </trkpt>
      <trkpt lat="37.683335000" lon="-4.985595000">
        <ele>171.3</ele>
        <time>2020-10-12T13:15:21Z</time>
      </trkpt>
      <trkpt lat="37.683419000" lon="-4.985590000">
        <ele>171.1</ele>
        <time>2020-10-12T13:15:23Z</time>
      </trkpt>
      <trkpt lat="37.683507000" lon="-4.985596000">
        <ele>170.9</ele>
        <time>2020-10-12T13:15:25Z</time>
      </trkpt>
      <trkpt lat="37.683600000" lon="-4.985605000">
        <ele>170.6</ele>
        <time>2020-10-12T13:15:27Z</time>
      </trkpt>
      <trkpt lat="37.683689000" lon="-4.985614000">
        <ele>170.3</ele>
        <time>2020-10-12T13:15:29Z</time>
      </trkpt>
      <trkpt lat="37.683775000" lon="-4.985626000">
        <ele>169.8</ele>
        <time>2020-10-12T13:15:31Z</time>
      </trkpt>
      <trkpt lat="37.683863000" lon="-4.985642000">
        <ele>169.4</ele>
        <time>2020-10-12T13:15:33Z</time>
      </trkpt>
      <trkpt lat="37.683948000" lon="-4.985652000">
        <ele>168.9</ele>
        <time>2020-10-12T13:15:35Z</time>
      </trkpt>
      <trkpt lat="37.684062000" lon="-4.985675000">
        <ele>168.5</ele>
        <time>2020-10-12T13:15:38Z</time>
      </trkpt>
      <trkpt lat="37.684181000" lon="-4.985698000">
        <ele>168.1</ele>
        <time>2020-10-12T13:15:41Z</time>
      </trkpt>
      <trkpt lat="37.684296000" lon="-4.985720000">
        <ele>167.7</ele>
        <time>2020-10-12T13:15:44Z</time>
      </trkpt>
      <trkpt lat="37.684391000" lon="-4.985726000">
        <ele>167.4</ele>
        <time>2020-10-12T13:15:47Z</time>
      </trkpt>
      <trkpt lat="37.684488000" lon="-4.985753000">
        <ele>167.2</ele>
        <time>2020-10-12T13:15:53Z</time>
      </trkpt>
      <trkpt lat="37.684567000" lon="-4.985795000">
        <ele>166.9</ele>
        <time>2020-10-12T13:15:56Z</time>
      </trkpt>
      <trkpt lat="37.684670000" lon="-4.985848000">
        <ele>166.7</ele>
        <time>2020-10-12T13:15:59Z</time>
      </trkpt>
      <trkpt lat="37.684775000" lon="-4.985892000">
        <ele>166.6</ele>
        <time>2020-10-12T13:16:02Z</time>
      </trkpt>
      <trkpt lat="37.684870000" lon="-4.985934000">
        <ele>166.6</ele>
        <time>2020-10-12T13:16:05Z</time>
      </trkpt>
      <trkpt lat="37.684944000" lon="-4.986002000">
        <ele>166.6</ele>
        <time>2020-10-12T13:16:09Z</time>
      </trkpt>
      <trkpt lat="37.685033000" lon="-4.986022000">
        <ele>166.7</ele>
        <time>2020-10-12T13:17:05Z</time>
      </trkpt>
      <trkpt lat="37.685131000" lon="-4.986071000">
        <ele>166.8</ele>
        <time>2020-10-12T13:17:08Z</time>
      </trkpt>
      <trkpt lat="37.685212000" lon="-4.986113000">
        <ele>166.9</ele>
        <time>2020-10-12T13:17:10Z</time>
      </trkpt>
      <trkpt lat="37.685294000" lon="-4.986151000">
        <ele>167.1</ele>
        <time>2020-10-12T13:17:12Z</time>
      </trkpt>
      <trkpt lat="37.685377000" lon="-4.986194000">
        <ele>167.3</ele>
        <time>2020-10-12T13:17:14Z</time>
      </trkpt>
      <trkpt lat="37.685466000" lon="-4.986233000">
        <ele>167.4</ele>
        <time>2020-10-12T13:17:16Z</time>
      </trkpt>
      <trkpt lat="37.685556000" lon="-4.986280000">
        <ele>167.5</ele>
        <time>2020-10-12T13:17:18Z</time>
      </trkpt>
      <trkpt lat="37.685644000" lon="-4.986325000">
        <ele>167.5</ele>
        <time>2020-10-12T13:17:20Z</time>
      </trkpt>
      <trkpt lat="37.685734000" lon="-4.986375000">
        <ele>167.3</ele>
        <time>2020-10-12T13:17:22Z</time>
      </trkpt>
      <trkpt lat="37.685817000" lon="-4.986421000">
        <ele>167.0</ele>
        <time>2020-10-12T13:17:24Z</time>
      </trkpt>
      <trkpt lat="37.685906000" lon="-4.986473000">
        <ele>166.6</ele>
        <time>2020-10-12T13:17:26Z</time>
      </trkpt>
      <trkpt lat="37.685992000" lon="-4.986523000">
        <ele>166.2</ele>
        <time>2020-10-12T13:17:28Z</time>
      </trkpt>
      <trkpt lat="37.686087000" lon="-4.986564000">
        <ele>165.7</ele>
        <time>2020-10-12T13:17:30Z</time>
      </trkpt>
      <trkpt lat="37.686177000" lon="-4.986617000">
        <ele>165.2</ele>
        <time>2020-10-12T13:17:32Z</time>
      </trkpt>
      <trkpt lat="37.686265000" lon="-4.986661000">
        <ele>164.7</ele>
        <time>2020-10-12T13:17:34Z</time>
      </trkpt>
      <trkpt lat="37.686343000" lon="-4.986718000">
        <ele>164.3</ele>
        <time>2020-10-12T13:17:36Z</time>
      </trkpt>
      <trkpt lat="37.686429000" lon="-4.986764000">
        <ele>163.8</ele>
        <time>2020-10-12T13:17:38Z</time>
      </trkpt>
      <trkpt lat="37.686517000" lon="-4.986805000">
        <ele>163.5</ele>
        <time>2020-10-12T13:17:40Z</time>
      </trkpt>
      <trkpt lat="37.686606000" lon="-4.986838000">
        <ele>163.2</ele>
        <time>2020-10-12T13:17:42Z</time>
      </trkpt>
      <trkpt lat="37.686694000" lon="-4.986871000">
        <ele>163.1</ele>
        <time>2020-10-12T13:17:44Z</time>
      </trkpt>
      <trkpt lat="37.686786000" lon="-4.986907000">
        <ele>163.0</ele>
        <time>2020-10-12T13:17:46Z</time>
      </trkpt>
      <trkpt lat="37.686881000" lon="-4.986938000">
        <ele>163.0</ele>
        <time>2020-10-12T13:17:48Z</time>
      </trkpt>
      <trkpt lat="37.686986000" lon="-4.986969000">
        <ele>162.9</ele>
        <time>2020-10-12T13:17:50Z</time>
      </trkpt>
      <trkpt lat="37.687089000" lon="-4.987002000">
        <ele>162.8</ele>
        <time>2020-10-12T13:17:52Z</time>
      </trkpt>
      <trkpt lat="37.687196000" lon="-4.987026000">
        <ele>162.8</ele>
        <time>2020-10-12T13:17:54Z</time>
      </trkpt>
      <trkpt lat="37.687300000" lon="-4.987043000">
        <ele>162.7</ele>
        <time>2020-10-12T13:17:56Z</time>
      </trkpt>
      <trkpt lat="37.687407000" lon="-4.987052000">
        <ele>162.7</ele>
        <time>2020-10-12T13:17:58Z</time>
      </trkpt>
      <trkpt lat="37.687502000" lon="-4.987062000">
        <ele>162.7</ele>
        <time>2020-10-12T13:18:00Z</time>
      </trkpt>
      <trkpt lat="37.687604000" lon="-4.987070000">
        <ele>162.8</ele>
        <time>2020-10-12T13:18:02Z</time>
      </trkpt>
      <trkpt lat="37.687702000" lon="-4.987076000">
        <ele>162.8</ele>
        <time>2020-10-12T13:18:04Z</time>
      </trkpt>
      <trkpt lat="37.687806000" lon="-4.987077000">
        <ele>162.7</ele>
        <time>2020-10-12T13:18:06Z</time>
      </trkpt>
      <trkpt lat="37.687903000" lon="-4.987076000">
        <ele>162.6</ele>
        <time>2020-10-12T13:18:08Z</time>
      </trkpt>
      <trkpt lat="37.688002000" lon="-4.987067000">
        <ele>162.5</ele>
        <time>2020-10-12T13:18:10Z</time>
      </trkpt>
      <trkpt lat="37.688106000" lon="-4.987051000">
        <ele>162.3</ele>
        <time>2020-10-12T13:18:12Z</time>
      </trkpt>
      <trkpt lat="37.688213000" lon="-4.987035000">
        <ele>162.0</ele>
        <time>2020-10-12T13:18:14Z</time>
      </trkpt>
      <trkpt lat="37.688323000" lon="-4.987015000">
        <ele>161.6</ele>
        <time>2020-10-12T13:18:16Z</time>
      </trkpt>
      <trkpt lat="37.688434000" lon="-4.986991000">
        <ele>161.3</ele>
        <time>2020-10-12T13:18:18Z</time>
      </trkpt>
      <trkpt lat="37.688546000" lon="-4.986968000">
        <ele>160.8</ele>
        <time>2020-10-12T13:18:20Z</time>
      </trkpt>
      <trkpt lat="37.688652000" lon="-4.986949000">
        <ele>160.3</ele>
        <time>2020-10-12T13:18:22Z</time>
      </trkpt>
      <trkpt lat="37.688760000" lon="-4.986923000">
        <ele>159.7</ele>
        <time>2020-10-12T13:18:24Z</time>
      </trkpt>
      <trkpt lat="37.688877000" lon="-4.986891000">
        <ele>159.3</ele>
        <time>2020-10-12T13:18:26Z</time>
      </trkpt>
      <trkpt lat="37.688985000" lon="-4.986854000">
        <ele>158.7</ele>
        <time>2020-10-12T13:18:28Z</time>
      </trkpt>
      <trkpt lat="37.689094000" lon="-4.986811000">
        <ele>158.3</ele>
        <time>2020-10-12T13:18:30Z</time>
      </trkpt>
      <trkpt lat="37.689202000" lon="-4.986763000">
        <ele>157.9</ele>
        <time>2020-10-12T13:18:32Z</time>
      </trkpt>
      <trkpt lat="37.689311000" lon="-4.986729000">
        <ele>157.5</ele>
        <time>2020-10-12T13:18:34Z</time>
      </trkpt>
      <trkpt lat="37.689426000" lon="-4.986704000">
        <ele>157.3</ele>
        <time>2020-10-12T13:18:36Z</time>
      </trkpt>
      <trkpt lat="37.689537000" lon="-4.986672000">
        <ele>157.0</ele>
        <time>2020-10-12T13:18:38Z</time>
      </trkpt>
      <trkpt lat="37.689644000" lon="-4.986643000">
        <ele>156.7</ele>
        <time>2020-10-12T13:18:40Z</time>
      </trkpt>
      <trkpt lat="37.689750000" lon="-4.986606000">
        <ele>156.4</ele>
        <time>2020-10-12T13:18:42Z</time>
      </trkpt>
      <trkpt lat="37.689852000" lon="-4.986572000">
        <ele>156.1</ele>
        <time>2020-10-12T13:18:44Z</time>
      </trkpt>
      <trkpt lat="37.689965000" lon="-4.986542000">
        <ele>155.6</ele>
        <time>2020-10-12T13:18:46Z</time>
      </trkpt>
      <trkpt lat="37.690075000" lon="-4.986505000">
        <ele>155.2</ele>
        <time>2020-10-12T13:18:48Z</time>
      </trkpt>
      <trkpt lat="37.690185000" lon="-4.986474000">
        <ele>154.8</ele>
        <time>2020-10-12T13:18:50Z</time>
      </trkpt>
      <trkpt lat="37.690290000" lon="-4.986437000">
        <ele>154.5</ele>
        <time>2020-10-12T13:18:52Z</time>
      </trkpt>
      <trkpt lat="37.690396000" lon="-4.986408000">
        <ele>154.1</ele>
        <time>2020-10-12T13:18:54Z</time>
      </trkpt>
      <trkpt lat="37.690500000" lon="-4.986387000">
        <ele>153.8</ele>
        <time>2020-10-12T13:18:56Z</time>
      </trkpt>
      <trkpt lat="37.690596000" lon="-4.986384000">
        <ele>153.5</ele>
        <time>2020-10-12T13:18:58Z</time>
      </trkpt>
      <trkpt lat="37.690688000" lon="-4.986374000">
        <ele>153.4</ele>
        <time>2020-10-12T13:19:00Z</time>
      </trkpt>
      <trkpt lat="37.690785000" lon="-4.986363000">
        <ele>153.2</ele>
        <time>2020-10-12T13:19:02Z</time>
      </trkpt>
      <trkpt lat="37.690881000" lon="-4.986346000">
        <ele>153.1</ele>
        <time>2020-10-12T13:19:04Z</time>
      </trkpt>
      <trkpt lat="37.690979000" lon="-4.986331000">
        <ele>153.0</ele>
        <time>2020-10-12T13:19:06Z</time>
      </trkpt>
      <trkpt lat="37.691079000" lon="-4.986318000">
        <ele>152.9</ele>
        <time>2020-10-12T13:19:08Z</time>
      </trkpt>
      <trkpt lat="37.691170000" lon="-4.986316000">
        <ele>152.8</ele>
        <time>2020-10-12T13:19:10Z</time>
      </trkpt>
      <trkpt lat="37.691272000" lon="-4.986322000">
        <ele>152.7</ele>
        <time>2020-10-12T13:19:12Z</time>
      </trkpt>
      <trkpt lat="37.691368000" lon="-4.986329000">
        <ele>152.6</ele>
        <time>2020-10-12T13:19:14Z</time>
      </trkpt>
      <trkpt lat="37.691468000" lon="-4.986349000">
        <ele>152.5</ele>
        <time>2020-10-12T13:19:16Z</time>
      </trkpt>
      <trkpt lat="37.691571000" lon="-4.986373000">
        <ele>152.5</ele>
        <time>2020-10-12T13:19:18Z</time>
      </trkpt>
      <trkpt lat="37.691673000" lon="-4.986391000">
        <ele>152.4</ele>
        <time>2020-10-12T13:19:20Z</time>
      </trkpt>
      <trkpt lat="37.691781000" lon="-4.986416000">
        <ele>152.4</ele>
        <time>2020-10-12T13:19:22Z</time>
      </trkpt>
      <trkpt lat="37.691892000" lon="-4.986432000">
        <ele>152.4</ele>
        <time>2020-10-12T13:19:24Z</time>
      </trkpt>
      <trkpt lat="37.692003000" lon="-4.986455000">
        <ele>152.4</ele>
        <time>2020-10-12T13:19:26Z</time>
      </trkpt>
      <trkpt lat="37.692115000" lon="-4.986477000">
        <ele>152.4</ele>
        <time>2020-10-12T13:19:28Z</time>
      </trkpt>
      <trkpt lat="37.692223000" lon="-4.986502000">
        <ele>152.5</ele>
        <time>2020-10-12T13:19:30Z</time>
      </trkpt>
      <trkpt lat="37.692333000" lon="-4.986526000">
        <ele>152.7</ele>
        <time>2020-10-12T13:19:32Z</time>
      </trkpt>
      <trkpt lat="37.692438000" lon="-4.986550000">
        <ele>152.9</ele>
        <time>2020-10-12T13:19:34Z</time>
      </trkpt>
      <trkpt lat="37.692542000" lon="-4.986572000">
        <ele>153.1</ele>
        <time>2020-10-12T13:19:36Z</time>
      </trkpt>
      <trkpt lat="37.692644000" lon="-4.986586000">
        <ele>153.4</ele>
        <time>2020-10-12T13:19:38Z</time>
      </trkpt>
      <trkpt lat="37.692747000" lon="-4.986606000">
        <ele>153.6</ele>
        <time>2020-10-12T13:19:40Z</time>
      </trkpt>
      <trkpt lat="37.692851000" lon="-4.986622000">
        <ele>153.9</ele>
        <time>2020-10-12T13:19:42Z</time>
      </trkpt>
      <trkpt lat="37.692957000" lon="-4.986642000">
        <ele>154.1</ele>
        <time>2020-10-12T13:19:44Z</time>
      </trkpt>
      <trkpt lat="37.693058000" lon="-4.986662000">
        <ele>154.2</ele>
        <time>2020-10-12T13:19:46Z</time>
      </trkpt>
      <trkpt lat="37.693167000" lon="-4.986682000">
        <ele>154.2</ele>
        <time>2020-10-12T13:19:48Z</time>
      </trkpt>
      <trkpt lat="37.693271000" lon="-4.986704000">
        <ele>154.1</ele>
        <time>2020-10-12T13:19:50Z</time>
      </trkpt>
      <trkpt lat="37.693380000" lon="-4.986729000">
        <ele>153.8</ele>
        <time>2020-10-12T13:19:52Z</time>
      </trkpt>
      <trkpt lat="37.693488000" lon="-4.986744000">
        <ele>153.5</ele>
        <time>2020-10-12T13:19:54Z</time>
      </trkpt>
      <trkpt lat="37.693603000" lon="-4.986766000">
        <ele>153.2</ele>
        <time>2020-10-12T13:19:56Z</time>
      </trkpt>
      <trkpt lat="37.693715000" lon="-4.986790000">
        <ele>152.8</ele>
        <time>2020-10-12T13:19:58Z</time>
      </trkpt>
      <trkpt lat="37.693822000" lon="-4.986812000">
        <ele>152.4</ele>
        <time>2020-10-12T13:20:00Z</time>
      </trkpt>
      <trkpt lat="37.693937000" lon="-4.986834000">
        <ele>151.9</ele>
        <time>2020-10-12T13:20:02Z</time>
      </trkpt>
      <trkpt lat="37.694058000" lon="-4.986858000">
        <ele>151.5</ele>
        <time>2020-10-12T13:20:04Z</time>
      </trkpt>
      <trkpt lat="37.694168000" lon="-4.986869000">
        <ele>151.0</ele>
        <time>2020-10-12T13:20:06Z</time>
      </trkpt>
      <trkpt lat="37.694287000" lon="-4.986882000">
        <ele>150.6</ele>
        <time>2020-10-12T13:20:08Z</time>
      </trkpt>
      <trkpt lat="37.694406000" lon="-4.986885000">
        <ele>150.4</ele>
        <time>2020-10-12T13:20:10Z</time>
      </trkpt>
      <trkpt lat="37.694527000" lon="-4.986888000">
        <ele>150.1</ele>
        <time>2020-10-12T13:20:12Z</time>
      </trkpt>
      <trkpt lat="37.694638000" lon="-4.986885000">
        <ele>149.9</ele>
        <time>2020-10-12T13:20:14Z</time>
      </trkpt>
      <trkpt lat="37.694753000" lon="-4.986885000">
        <ele>149.7</ele>
        <time>2020-10-12T13:20:16Z</time>
      </trkpt>
      <trkpt lat="37.694870000" lon="-4.986871000">
        <ele>149.7</ele>
        <time>2020-10-12T13:20:18Z</time>
      </trkpt>
      <trkpt lat="37.694993000" lon="-4.986858000">
        <ele>149.7</ele>
        <time>2020-10-12T13:20:20Z</time>
      </trkpt>
      <trkpt lat="37.695110000" lon="-4.986832000">
        <ele>149.8</ele>
        <time>2020-10-12T13:20:22Z</time>
      </trkpt>
      <trkpt lat="37.695220000" lon="-4.986801000">
        <ele>149.9</ele>
        <time>2020-10-12T13:20:24Z</time>
      </trkpt>
      <trkpt lat="37.695331000" lon="-4.986774000">
        <ele>150.1</ele>
        <time>2020-10-12T13:20:26Z</time>
      </trkpt>
      <trkpt lat="37.695437000" lon="-4.986741000">
        <ele>150.2</ele>
        <time>2020-10-12T13:20:28Z</time>
      </trkpt>
      <trkpt lat="37.695536000" lon="-4.986711000">
        <ele>150.3</ele>
        <time>2020-10-12T13:20:30Z</time>
      </trkpt>
      <trkpt lat="37.695634000" lon="-4.986676000">
        <ele>150.3</ele>
        <time>2020-10-12T13:20:32Z</time>
      </trkpt>
      <trkpt lat="37.695728000" lon="-4.986639000">
        <ele>150.4</ele>
        <time>2020-10-12T13:20:34Z</time>
      </trkpt>
      <trkpt lat="37.695818000" lon="-4.986615000">
        <ele>150.4</ele>
        <time>2020-10-12T13:20:36Z</time>
      </trkpt>
      <trkpt lat="37.695936000" lon="-4.986573000">
        <ele>150.4</ele>
        <time>2020-10-12T13:20:39Z</time>
      </trkpt>
      <trkpt lat="37.696020000" lon="-4.986548000">
        <ele>150.2</ele>
        <time>2020-10-12T13:20:41Z</time>
      </trkpt>
      <trkpt lat="37.696105000" lon="-4.986516000">
        <ele>150.0</ele>
        <time>2020-10-12T13:20:43Z</time>
      </trkpt>
      <trkpt lat="37.696190000" lon="-4.986490000">
        <ele>149.7</ele>
        <time>2020-10-12T13:20:45Z</time>
      </trkpt>
      <trkpt lat="37.696273000" lon="-4.986462000">
        <ele>149.4</ele>
        <time>2020-10-12T13:20:47Z</time>
      </trkpt>
      <trkpt lat="37.696363000" lon="-4.986429000">
        <ele>148.9</ele>
        <time>2020-10-12T13:20:49Z</time>
      </trkpt>
      <trkpt lat="37.696449000" lon="-4.986398000">
        <ele>148.5</ele>
        <time>2020-10-12T13:20:51Z</time>
      </trkpt>
      <trkpt lat="37.696533000" lon="-4.986370000">
        <ele>148.2</ele>
        <time>2020-10-12T13:20:53Z</time>
      </trkpt>
      <trkpt lat="37.696613000" lon="-4.986340000">
        <ele>148.0</ele>
        <time>2020-10-12T13:20:55Z</time>
      </trkpt>
      <trkpt lat="37.696695000" lon="-4.986312000">
        <ele>147.8</ele>
        <time>2020-10-12T13:20:57Z</time>
      </trkpt>
      <trkpt lat="37.696780000" lon="-4.986287000">
        <ele>147.7</ele>
        <time>2020-10-12T13:20:59Z</time>
      </trkpt>
      <trkpt lat="37.696861000" lon="-4.986255000">
        <ele>147.7</ele>
        <time>2020-10-12T13:21:01Z</time>
      </trkpt>
      <trkpt lat="37.696945000" lon="-4.986226000">
        <ele>147.8</ele>
        <time>2020-10-12T13:21:03Z</time>
      </trkpt>
      <trkpt lat="37.697029000" lon="-4.986197000">
        <ele>148.0</ele>
        <time>2020-10-12T13:21:05Z</time>
      </trkpt>
      <trkpt lat="37.697113000" lon="-4.986177000">
        <ele>148.2</ele>
        <time>2020-10-12T13:21:07Z</time>
      </trkpt>
      <trkpt lat="37.697199000" lon="-4.986141000">
        <ele>148.5</ele>
        <time>2020-10-12T13:21:09Z</time>
      </trkpt>
      <trkpt lat="37.697287000" lon="-4.986111000">
        <ele>148.7</ele>
        <time>2020-10-12T13:21:11Z</time>
      </trkpt>
      <trkpt lat="37.697379000" lon="-4.986084000">
        <ele>149.0</ele>
        <time>2020-10-12T13:21:13Z</time>
      </trkpt>
      <trkpt lat="37.697472000" lon="-4.986052000">
        <ele>149.2</ele>
        <time>2020-10-12T13:21:15Z</time>
      </trkpt>
      <trkpt lat="37.697569000" lon="-4.986018000">
        <ele>149.2</ele>
        <time>2020-10-12T13:21:17Z</time>
      </trkpt>
      <trkpt lat="37.697665000" lon="-4.985986000">
        <ele>149.1</ele>
        <time>2020-10-12T13:21:19Z</time>
      </trkpt>
      <trkpt lat="37.697764000" lon="-4.985955000">
        <ele>148.9</ele>
        <time>2020-10-12T13:21:21Z</time>
      </trkpt>
      <trkpt lat="37.697864000" lon="-4.985924000">
        <ele>148.6</ele>
        <time>2020-10-12T13:21:23Z</time>
      </trkpt>
      <trkpt lat="37.697965000" lon="-4.985898000">
        <ele>148.4</ele>
        <time>2020-10-12T13:21:25Z</time>
      </trkpt>
      <trkpt lat="37.698068000" lon="-4.985879000">
        <ele>147.9</ele>
        <time>2020-10-12T13:21:27Z</time>
      </trkpt>
      <trkpt lat="37.698168000" lon="-4.985849000">
        <ele>147.5</ele>
        <time>2020-10-12T13:21:29Z</time>
      </trkpt>
      <trkpt lat="37.698268000" lon="-4.985837000">
        <ele>147.0</ele>
        <time>2020-10-12T13:21:31Z</time>
      </trkpt>
      <trkpt lat="37.698367000" lon="-4.985810000">
        <ele>146.5</ele>
        <time>2020-10-12T13:21:33Z</time>
      </trkpt>
      <trkpt lat="37.698471000" lon="-4.985790000">
        <ele>145.9</ele>
        <time>2020-10-12T13:21:35Z</time>
      </trkpt>
      <trkpt lat="37.698567000" lon="-4.985762000">
        <ele>145.4</ele>
        <time>2020-10-12T13:21:37Z</time>
      </trkpt>
      <trkpt lat="37.698668000" lon="-4.985733000">
        <ele>144.9</ele>
        <time>2020-10-12T13:21:39Z</time>
      </trkpt>
      <trkpt lat="37.698767000" lon="-4.985710000">
        <ele>144.5</ele>
        <time>2020-10-12T13:21:41Z</time>
      </trkpt>
      <trkpt lat="37.698870000" lon="-4.985679000">
        <ele>144.4</ele>
        <time>2020-10-12T13:21:43Z</time>
      </trkpt>
      <trkpt lat="37.698977000" lon="-4.985664000">
        <ele>144.2</ele>
        <time>2020-10-12T13:21:45Z</time>
      </trkpt>
      <trkpt lat="37.699077000" lon="-4.985641000">
        <ele>144.0</ele>
        <time>2020-10-12T13:21:47Z</time>
      </trkpt>
      <trkpt lat="37.699179000" lon="-4.985621000">
        <ele>143.9</ele>
        <time>2020-10-12T13:21:49Z</time>
      </trkpt>
      <trkpt lat="37.699285000" lon="-4.985599000">
        <ele>143.8</ele>
        <time>2020-10-12T13:21:51Z</time>
      </trkpt>
      <trkpt lat="37.699399000" lon="-4.985584000">
        <ele>143.7</ele>
        <time>2020-10-12T13:21:53Z</time>
      </trkpt>
      <trkpt lat="37.699506000" lon="-4.985559000">
        <ele>143.7</ele>
        <time>2020-10-12T13:21:55Z</time>
      </trkpt>
      <trkpt lat="37.699615000" lon="-4.985543000">
        <ele>143.7</ele>
        <time>2020-10-12T13:21:57Z</time>
      </trkpt>
      <trkpt lat="37.699712000" lon="-4.985520000">
        <ele>143.8</ele>
        <time>2020-10-12T13:21:59Z</time>
      </trkpt>
      <trkpt lat="37.699812000" lon="-4.985499000">
        <ele>143.9</ele>
        <time>2020-10-12T13:22:01Z</time>
      </trkpt>
      <trkpt lat="37.699907000" lon="-4.985478000">
        <ele>143.9</ele>
        <time>2020-10-12T13:22:03Z</time>
      </trkpt>
      <trkpt lat="37.699989000" lon="-4.985463000">
        <ele>143.8</ele>
        <time>2020-10-12T13:22:05Z</time>
      </trkpt>
      <trkpt lat="37.700073000" lon="-4.985449000">
        <ele>143.7</ele>
        <time>2020-10-12T13:22:07Z</time>
      </trkpt>
      <trkpt lat="37.700156000" lon="-4.985437000">
        <ele>143.6</ele>
        <time>2020-10-12T13:22:09Z</time>
      </trkpt>
      <trkpt lat="37.700247000" lon="-4.985427000">
        <ele>143.5</ele>
        <time>2020-10-12T13:22:11Z</time>
      </trkpt>
      <trkpt lat="37.700342000" lon="-4.985409000">
        <ele>143.5</ele>
        <time>2020-10-12T13:22:13Z</time>
      </trkpt>
      <trkpt lat="37.700435000" lon="-4.985390000">
        <ele>143.4</ele>
        <time>2020-10-12T13:22:15Z</time>
      </trkpt>
      <trkpt lat="37.700535000" lon="-4.985379000">
        <ele>143.3</ele>
        <time>2020-10-12T13:22:17Z</time>
      </trkpt>
      <trkpt lat="37.700629000" lon="-4.985359000">
        <ele>143.2</ele>
        <time>2020-10-12T13:22:19Z</time>
      </trkpt>
      <trkpt lat="37.700721000" lon="-4.985343000">
        <ele>143.1</ele>
        <time>2020-10-12T13:22:21Z</time>
      </trkpt>
      <trkpt lat="37.700818000" lon="-4.985320000">
        <ele>143.1</ele>
        <time>2020-10-12T13:22:23Z</time>
      </trkpt>
      <trkpt lat="37.700927000" lon="-4.985296000">
        <ele>143.2</ele>
        <time>2020-10-12T13:22:25Z</time>
      </trkpt>
      <trkpt lat="37.701029000" lon="-4.985282000">
        <ele>143.3</ele>
        <time>2020-10-12T13:22:27Z</time>
      </trkpt>
      <trkpt lat="37.701126000" lon="-4.985266000">
        <ele>143.5</ele>
        <time>2020-10-12T13:22:29Z</time>
      </trkpt>
      <trkpt lat="37.701219000" lon="-4.985253000">
        <ele>143.6</ele>
        <time>2020-10-12T13:22:31Z</time>
      </trkpt>
      <trkpt lat="37.701318000" lon="-4.985235000">
        <ele>143.8</ele>
        <time>2020-10-12T13:22:33Z</time>
      </trkpt>
      <trkpt lat="37.701419000" lon="-4.985219000">
        <ele>144.0</ele>
        <time>2020-10-12T13:22:35Z</time>
      </trkpt>
      <trkpt lat="37.701510000" lon="-4.985201000">
        <ele>144.1</ele>
        <time>2020-10-12T13:22:37Z</time>
      </trkpt>
      <trkpt lat="37.701597000" lon="-4.985188000">
        <ele>144.1</ele>
        <time>2020-10-12T13:22:39Z</time>
      </trkpt>
      <trkpt lat="37.701690000" lon="-4.985171000">
        <ele>144.1</ele>
        <time>2020-10-12T13:22:41Z</time>
      </trkpt>
      <trkpt lat="37.701795000" lon="-4.985153000">
        <ele>144.1</ele>
        <time>2020-10-12T13:22:43Z</time>
      </trkpt>
      <trkpt lat="37.701903000" lon="-4.985142000">
        <ele>144.0</ele>
        <time>2020-10-12T13:22:45Z</time>
      </trkpt>
      <trkpt lat="37.702010000" lon="-4.985132000">
        <ele>143.8</ele>
        <time>2020-10-12T13:22:47Z</time>
      </trkpt>
      <trkpt lat="37.702113000" lon="-4.985116000">
        <ele>143.6</ele>
        <time>2020-10-12T13:22:49Z</time>
      </trkpt>
      <trkpt lat="37.702219000" lon="-4.985102000">
        <ele>143.4</ele>
        <time>2020-10-12T13:22:51Z</time>
      </trkpt>
      <trkpt lat="37.702323000" lon="-4.985089000">
        <ele>143.1</ele>
        <time>2020-10-12T13:22:53Z</time>
      </trkpt>
      <trkpt lat="37.702427000" lon="-4.985075000">
        <ele>142.8</ele>
        <time>2020-10-12T13:22:55Z</time>
      </trkpt>
      <trkpt lat="37.702527000" lon="-4.985062000">
        <ele>142.5</ele>
        <time>2020-10-12T13:22:57Z</time>
      </trkpt>
      <trkpt lat="37.702626000" lon="-4.985040000">
        <ele>142.4</ele>
        <time>2020-10-12T13:22:59Z</time>
      </trkpt>
      <trkpt lat="37.702722000" lon="-4.985027000">
        <ele>142.3</ele>
        <time>2020-10-12T13:23:01Z</time>
      </trkpt>
      <trkpt lat="37.702813000" lon="-4.985008000">
        <ele>142.3</ele>
        <time>2020-10-12T13:23:03Z</time>
      </trkpt>
      <trkpt lat="37.702898000" lon="-4.985007000">
        <ele>142.3</ele>
        <time>2020-10-12T13:23:05Z</time>
      </trkpt>
      <trkpt lat="37.702996000" lon="-4.985000000">
        <ele>142.3</ele>
        <time>2020-10-12T13:23:07Z</time>
      </trkpt>
      <trkpt lat="37.703088000" lon="-4.984988000">
        <ele>142.4</ele>
        <time>2020-10-12T13:23:09Z</time>
      </trkpt>
      <trkpt lat="37.703180000" lon="-4.984975000">
        <ele>142.5</ele>
        <time>2020-10-12T13:23:11Z</time>
      </trkpt>
      <trkpt lat="37.703272000" lon="-4.984961000">
        <ele>142.5</ele>
        <time>2020-10-12T13:23:13Z</time>
      </trkpt>
      <trkpt lat="37.703363000" lon="-4.984943000">
        <ele>142.6</ele>
        <time>2020-10-12T13:23:15Z</time>
      </trkpt>
      <trkpt lat="37.703452000" lon="-4.984926000">
        <ele>142.7</ele>
        <time>2020-10-12T13:23:17Z</time>
      </trkpt>
      <trkpt lat="37.703549000" lon="-4.984911000">
        <ele>142.8</ele>
        <time>2020-10-12T13:23:19Z</time>
      </trkpt>
      <trkpt lat="37.703644000" lon="-4.984893000">
        <ele>142.9</ele>
        <time>2020-10-12T13:23:21Z</time>
      </trkpt>
      <trkpt lat="37.703732000" lon="-4.984877000">
        <ele>143.0</ele>
        <time>2020-10-12T13:23:23Z</time>
      </trkpt>
      <trkpt lat="37.703819000" lon="-4.984862000">
        <ele>143.1</ele>
        <time>2020-10-12T13:23:25Z</time>
      </trkpt>
      <trkpt lat="37.703910000" lon="-4.984841000">
        <ele>143.2</ele>
        <time>2020-10-12T13:23:27Z</time>
      </trkpt>
      <trkpt lat="37.703999000" lon="-4.984820000">
        <ele>143.3</ele>
        <time>2020-10-12T13:23:29Z</time>
      </trkpt>
      <trkpt lat="37.704090000" lon="-4.984799000">
        <ele>143.4</ele>
        <time>2020-10-12T13:23:31Z</time>
      </trkpt>
      <trkpt lat="37.704187000" lon="-4.984780000">
        <ele>143.5</ele>
        <time>2020-10-12T13:23:33Z</time>
      </trkpt>
      <trkpt lat="37.704284000" lon="-4.984760000">
        <ele>143.6</ele>
        <time>2020-10-12T13:23:35Z</time>
      </trkpt>
      <trkpt lat="37.704380000" lon="-4.984741000">
        <ele>143.7</ele>
        <time>2020-10-12T13:23:37Z</time>
      </trkpt>
      <trkpt lat="37.704475000" lon="-4.984714000">
        <ele>143.8</ele>
        <time>2020-10-12T13:23:39Z</time>
      </trkpt>
      <trkpt lat="37.704561000" lon="-4.984696000">
        <ele>143.9</ele>
        <time>2020-10-12T13:23:41Z</time>
      </trkpt>
      <trkpt lat="37.704648000" lon="-4.984677000">
        <ele>143.9</ele>
        <time>2020-10-12T13:23:43Z</time>
      </trkpt>
      <trkpt lat="37.704735000" lon="-4.984661000">
        <ele>143.9</ele>
        <time>2020-10-12T13:23:45Z</time>
      </trkpt>
      <trkpt lat="37.704816000" lon="-4.984648000">
        <ele>143.9</ele>
        <time>2020-10-12T13:23:47Z</time>
      </trkpt>
      <trkpt lat="37.704925000" lon="-4.984639000">
        <ele>143.9</ele>
        <time>2020-10-12T13:23:50Z</time>
      </trkpt>
      <trkpt lat="37.705027000" lon="-4.984626000">
        <ele>143.9</ele>
        <time>2020-10-12T13:23:53Z</time>
      </trkpt>
      <trkpt lat="37.705119000" lon="-4.984616000">
        <ele>143.9</ele>
        <time>2020-10-12T13:23:56Z</time>
      </trkpt>
      <trkpt lat="37.705199000" lon="-4.984632000">
        <ele>143.9</ele>
        <time>2020-10-12T13:24:12Z</time>
      </trkpt>
      <trkpt lat="37.705192000" lon="-4.984677000">
        <ele>143.7</ele>
        <time>2020-10-12T13:24:32Z</time>
      </trkpt>
      <trkpt lat="37.706912000" lon="-4.984054000">
        <ele>141.0</ele>
        <time>2020-10-12T13:35:31Z</time>
      </trkpt>
      <trkpt lat="37.706971000" lon="-4.984025000">
        <ele>140.4</ele>
        <time>2020-10-12T13:35:33Z</time>
      </trkpt>
      <trkpt lat="37.707044000" lon="-4.983977000">
        <ele>140.0</ele>
        <time>2020-10-12T13:35:36Z</time>
      </trkpt>
      <trkpt lat="37.707141000" lon="-4.983931000">
        <ele>139.6</ele>
        <time>2020-10-12T13:35:39Z</time>
      </trkpt>
      <trkpt lat="37.707241000" lon="-4.983869000">
        <ele>139.2</ele>
        <time>2020-10-12T13:35:42Z</time>
      </trkpt>
      <trkpt lat="37.707348000" lon="-4.983792000">
        <ele>138.9</ele>
        <time>2020-10-12T13:35:45Z</time>
      </trkpt>
      <trkpt lat="37.707424000" lon="-4.983739000">
        <ele>138.3</ele>
        <time>2020-10-12T13:35:47Z</time>
      </trkpt>
      <trkpt lat="37.707497000" lon="-4.983689000">
        <ele>137.7</ele>
        <time>2020-10-12T13:35:49Z</time>
      </trkpt>
      <trkpt lat="37.707576000" lon="-4.983625000">
        <ele>137.1</ele>
        <time>2020-10-12T13:35:52Z</time>
      </trkpt>
      <trkpt lat="37.707672000" lon="-4.983542000">
        <ele>136.5</ele>
        <time>2020-10-12T13:35:55Z</time>
      </trkpt>
      <trkpt lat="37.707752000" lon="-4.983480000">
        <ele>136.1</ele>
        <time>2020-10-12T13:35:57Z</time>
      </trkpt>
      <trkpt lat="37.707834000" lon="-4.983413000">
        <ele>135.9</ele>
        <time>2020-10-12T13:35:59Z</time>
      </trkpt>
      <trkpt lat="37.707916000" lon="-4.983337000">
        <ele>135.8</ele>
        <time>2020-10-12T13:36:01Z</time>
      </trkpt>
      <trkpt lat="37.708001000" lon="-4.983269000">
        <ele>135.7</ele>
        <time>2020-10-12T13:36:03Z</time>
      </trkpt>
      <trkpt lat="37.708081000" lon="-4.983200000">
        <ele>135.7</ele>
        <time>2020-10-12T13:36:05Z</time>
      </trkpt>
      <trkpt lat="37.708163000" lon="-4.983116000">
        <ele>135.7</ele>
        <time>2020-10-12T13:36:07Z</time>
      </trkpt>
      <trkpt lat="37.708242000" lon="-4.983032000">
        <ele>135.6</ele>
        <time>2020-10-12T13:36:09Z</time>
      </trkpt>
      <trkpt lat="37.708318000" lon="-4.982954000">
        <ele>135.5</ele>
        <time>2020-10-12T13:36:11Z</time>
      </trkpt>
      <trkpt lat="37.708392000" lon="-4.982877000">
        <ele>135.4</ele>
        <time>2020-10-12T13:36:13Z</time>
      </trkpt>
      <trkpt lat="37.708465000" lon="-4.982792000">
        <ele>135.3</ele>
        <time>2020-10-12T13:36:15Z</time>
      </trkpt>
      <trkpt lat="37.708536000" lon="-4.982704000">
        <ele>135.1</ele>
        <time>2020-10-12T13:36:17Z</time>
      </trkpt>
      <trkpt lat="37.708599000" lon="-4.982627000">
        <ele>134.9</ele>
        <time>2020-10-12T13:36:19Z</time>
      </trkpt>
      <trkpt lat="37.708664000" lon="-4.982544000">
        <ele>134.6</ele>
        <time>2020-10-12T13:36:21Z</time>
      </trkpt>
      <trkpt lat="37.708725000" lon="-4.982465000">
        <ele>134.4</ele>
        <time>2020-10-12T13:36:23Z</time>
      </trkpt>
      <trkpt lat="37.708788000" lon="-4.982381000">
        <ele>134.0</ele>
        <time>2020-10-12T13:36:25Z</time>
      </trkpt>
      <trkpt lat="37.708849000" lon="-4.982299000">
        <ele>133.6</ele>
        <time>2020-10-12T13:36:27Z</time>
      </trkpt>
      <trkpt lat="37.708904000" lon="-4.982214000">
        <ele>133.3</ele>
        <time>2020-10-12T13:36:29Z</time>
      </trkpt>
      <trkpt lat="37.708960000" lon="-4.982132000">
        <ele>133.0</ele>
        <time>2020-10-12T13:36:31Z</time>
      </trkpt>
      <trkpt lat="37.709017000" lon="-4.982053000">
        <ele>132.7</ele>
        <time>2020-10-12T13:36:33Z</time>
      </trkpt>
      <trkpt lat="37.709103000" lon="-4.981945000">
        <ele>132.5</ele>
        <time>2020-10-12T13:36:36Z</time>
      </trkpt>
      <trkpt lat="37.709183000" lon="-4.981834000">
        <ele>132.4</ele>
        <time>2020-10-12T13:36:39Z</time>
      </trkpt>
      <trkpt lat="37.709267000" lon="-4.981723000">
        <ele>132.3</ele>
        <time>2020-10-12T13:36:42Z</time>
      </trkpt>
      <trkpt lat="37.709328000" lon="-4.981648000">
        <ele>132.2</ele>
        <time>2020-10-12T13:36:44Z</time>
      </trkpt>
      <trkpt lat="37.709389000" lon="-4.981572000">
        <ele>132.1</ele>
        <time>2020-10-12T13:36:46Z</time>
      </trkpt>
      <trkpt lat="37.709445000" lon="-4.981491000">
        <ele>132.0</ele>
        <time>2020-10-12T13:36:48Z</time>
      </trkpt>
      <trkpt lat="37.709503000" lon="-4.981411000">
        <ele>131.9</ele>
        <time>2020-10-12T13:36:50Z</time>
      </trkpt>
      <trkpt lat="37.709563000" lon="-4.981337000">
        <ele>131.8</ele>
        <time>2020-10-12T13:36:52Z</time>
      </trkpt>
      <trkpt lat="37.709644000" lon="-4.981229000">
        <ele>131.6</ele>
        <time>2020-10-12T13:36:55Z</time>
      </trkpt>
      <trkpt lat="37.709727000" lon="-4.981129000">
        <ele>131.5</ele>
        <time>2020-10-12T13:36:58Z</time>
      </trkpt>
      <trkpt lat="37.709806000" lon="-4.981023000">
        <ele>131.2</ele>
        <time>2020-10-12T13:37:01Z</time>
      </trkpt>
      <trkpt lat="37.709880000" lon="-4.980919000">
        <ele>130.9</ele>
        <time>2020-10-12T13:37:04Z</time>
      </trkpt>
      <trkpt lat="37.709961000" lon="-4.980819000">
        <ele>130.5</ele>
        <time>2020-10-12T13:37:07Z</time>
      </trkpt>
      <trkpt lat="37.710041000" lon="-4.980711000">
        <ele>130.2</ele>
        <time>2020-10-12T13:37:10Z</time>
      </trkpt>
      <trkpt lat="37.710097000" lon="-4.980637000">
        <ele>129.8</ele>
        <time>2020-10-12T13:37:12Z</time>
      </trkpt>
      <trkpt lat="37.710153000" lon="-4.980562000">
        <ele>129.5</ele>
        <time>2020-10-12T13:37:14Z</time>
      </trkpt>
      <trkpt lat="37.710235000" lon="-4.980459000">
        <ele>129.1</ele>
        <time>2020-10-12T13:37:17Z</time>
      </trkpt>
      <trkpt lat="37.710317000" lon="-4.980351000">
        <ele>128.7</ele>
        <time>2020-10-12T13:37:20Z</time>
      </trkpt>
      <trkpt lat="37.710399000" lon="-4.980239000">
        <ele>128.4</ele>
        <time>2020-10-12T13:37:23Z</time>
      </trkpt>
      <trkpt lat="37.710480000" lon="-4.980130000">
        <ele>128.1</ele>
        <time>2020-10-12T13:37:26Z</time>
      </trkpt>
      <trkpt lat="37.710553000" lon="-4.980026000">
        <ele>127.8</ele>
        <time>2020-10-12T13:37:29Z</time>
      </trkpt>
      <trkpt lat="37.710630000" lon="-4.979929000">
        <ele>127.6</ele>
        <time>2020-10-12T13:37:32Z</time>
      </trkpt>
      <trkpt lat="37.710711000" lon="-4.979838000">
        <ele>127.5</ele>
        <time>2020-10-12T13:37:35Z</time>
      </trkpt>
      <trkpt lat="37.710779000" lon="-4.979734000">
        <ele>127.4</ele>
        <time>2020-10-12T13:37:38Z</time>
      </trkpt>
      <trkpt lat="37.710845000" lon="-4.979637000">
        <ele>127.3</ele>
        <time>2020-10-12T13:37:41Z</time>
      </trkpt>
      <trkpt lat="37.710918000" lon="-4.979546000">
        <ele>127.3</ele>
        <time>2020-10-12T13:37:44Z</time>
      </trkpt>
      <trkpt lat="37.710992000" lon="-4.979450000">
        <ele>127.3</ele>
        <time>2020-10-12T13:37:47Z</time>
      </trkpt>
      <trkpt lat="37.711061000" lon="-4.979338000">
        <ele>127.3</ele>
        <time>2020-10-12T13:37:50Z</time>
      </trkpt>
      <trkpt lat="37.711146000" lon="-4.979237000">
        <ele>127.3</ele>
        <time>2020-10-12T13:37:53Z</time>
      </trkpt>
      <trkpt lat="37.711233000" lon="-4.979136000">
        <ele>127.3</ele>
        <time>2020-10-12T13:37:56Z</time>
      </trkpt>
      <trkpt lat="37.711316000" lon="-4.979030000">
        <ele>127.3</ele>
        <time>2020-10-12T13:37:59Z</time>
      </trkpt>
      <trkpt lat="37.711400000" lon="-4.978924000">
        <ele>127.3</ele>
        <time>2020-10-12T13:38:02Z</time>
      </trkpt>
      <trkpt lat="37.711457000" lon="-4.978828000">
        <ele>127.2</ele>
        <time>2020-10-12T13:38:32Z</time>
      </trkpt>
      <trkpt lat="37.711522000" lon="-4.978746000">
        <ele>127.1</ele>
        <time>2020-10-12T13:38:36Z</time>
      </trkpt>
      <trkpt lat="37.711580000" lon="-4.978665000">
        <ele>127.1</ele>
        <time>2020-10-12T13:38:39Z</time>
      </trkpt>
      <trkpt lat="37.711655000" lon="-4.978563000">
        <ele>127.1</ele>
        <time>2020-10-12T13:38:42Z</time>
      </trkpt>
      <trkpt lat="37.711737000" lon="-4.978459000">
        <ele>127.0</ele>
        <time>2020-10-12T13:38:45Z</time>
      </trkpt>
      <trkpt lat="37.711819000" lon="-4.978345000">
        <ele>126.9</ele>
        <time>2020-10-12T13:38:48Z</time>
      </trkpt>
      <trkpt lat="37.711879000" lon="-4.978272000">
        <ele>126.9</ele>
        <time>2020-10-12T13:38:50Z</time>
      </trkpt>
      <trkpt lat="37.711939000" lon="-4.978195000">
        <ele>127.0</ele>
        <time>2020-10-12T13:38:52Z</time>
      </trkpt>
      <trkpt lat="37.711995000" lon="-4.978116000">
        <ele>127.1</ele>
        <time>2020-10-12T13:38:54Z</time>
      </trkpt>
      <trkpt lat="37.712048000" lon="-4.978031000">
        <ele>127.2</ele>
        <time>2020-10-12T13:38:56Z</time>
      </trkpt>
      <trkpt lat="37.712111000" lon="-4.977950000">
        <ele>127.3</ele>
        <time>2020-10-12T13:38:58Z</time>
      </trkpt>
      <trkpt lat="37.712174000" lon="-4.977871000">
        <ele>127.5</ele>
        <time>2020-10-12T13:39:00Z</time>
      </trkpt>
      <trkpt lat="37.712232000" lon="-4.977789000">
        <ele>127.6</ele>
        <time>2020-10-12T13:39:02Z</time>
      </trkpt>
      <trkpt lat="37.712291000" lon="-4.977699000">
        <ele>127.7</ele>
        <time>2020-10-12T13:39:04Z</time>
      </trkpt>
      <trkpt lat="37.712343000" lon="-4.977611000">
        <ele>127.8</ele>
        <time>2020-10-12T13:39:06Z</time>
      </trkpt>
      <trkpt lat="37.712395000" lon="-4.977524000">
        <ele>127.9</ele>
        <time>2020-10-12T13:39:08Z</time>
      </trkpt>
      <trkpt lat="37.712446000" lon="-4.977440000">
        <ele>128.1</ele>
        <time>2020-10-12T13:39:10Z</time>
      </trkpt>
      <trkpt lat="37.712492000" lon="-4.977354000">
        <ele>128.2</ele>
        <time>2020-10-12T13:39:12Z</time>
      </trkpt>
      <trkpt lat="37.712539000" lon="-4.977267000">
        <ele>128.4</ele>
        <time>2020-10-12T13:39:14Z</time>
      </trkpt>
      <trkpt lat="37.712582000" lon="-4.977179000">
        <ele>128.6</ele>
        <time>2020-10-12T13:39:16Z</time>
      </trkpt>
      <trkpt lat="37.712638000" lon="-4.977046000">
        <ele>128.9</ele>
        <time>2020-10-12T13:39:19Z</time>
      </trkpt>
      <trkpt lat="37.712676000" lon="-4.976909000">
        <ele>129.3</ele>
        <time>2020-10-12T13:39:22Z</time>
      </trkpt>
      <trkpt lat="37.712727000" lon="-4.976773000">
        <ele>129.7</ele>
        <time>2020-10-12T13:39:25Z</time>
      </trkpt>
      <trkpt lat="37.712775000" lon="-4.976639000">
        <ele>130.2</ele>
        <time>2020-10-12T13:39:28Z</time>
      </trkpt>
      <trkpt lat="37.712813000" lon="-4.976523000">
        <ele>130.7</ele>
        <time>2020-10-12T13:39:31Z</time>
      </trkpt>
      <trkpt lat="37.712843000" lon="-4.976410000">
        <ele>131.3</ele>
        <time>2020-10-12T13:39:34Z</time>
      </trkpt>
      <trkpt lat="37.712876000" lon="-4.976304000">
        <ele>131.8</ele>
        <time>2020-10-12T13:39:37Z</time>
      </trkpt>
      <trkpt lat="37.712903000" lon="-4.976192000">
        <ele>132.3</ele>
        <time>2020-10-12T13:39:40Z</time>
      </trkpt>
      <trkpt lat="37.712928000" lon="-4.976076000">
        <ele>132.8</ele>
        <time>2020-10-12T13:39:43Z</time>
      </trkpt>
      <trkpt lat="37.712948000" lon="-4.975955000">
        <ele>133.3</ele>
        <time>2020-10-12T13:39:46Z</time>
      </trkpt>
      <trkpt lat="37.712971000" lon="-4.975833000">
        <ele>133.7</ele>
        <time>2020-10-12T13:39:49Z</time>
      </trkpt>
      <trkpt lat="37.712987000" lon="-4.975718000">
        <ele>134.2</ele>
        <time>2020-10-12T13:39:52Z</time>
      </trkpt>
      <trkpt lat="37.713003000" lon="-4.975610000">
        <ele>134.6</ele>
        <time>2020-10-12T13:39:56Z</time>
      </trkpt>
      <trkpt lat="37.713026000" lon="-4.975511000">
        <ele>135.1</ele>
        <time>2020-10-12T13:40:13Z</time>
      </trkpt>
      <trkpt lat="37.713036000" lon="-4.975374000">
        <ele>135.6</ele>
        <time>2020-10-12T13:40:17Z</time>
      </trkpt>
      <trkpt lat="37.713040000" lon="-4.975261000">
        <ele>136.1</ele>
        <time>2020-10-12T13:40:20Z</time>
      </trkpt>
      <trkpt lat="37.713050000" lon="-4.975136000">
        <ele>136.5</ele>
        <time>2020-10-12T13:40:23Z</time>
      </trkpt>
      <trkpt lat="37.713047000" lon="-4.975002000">
        <ele>137.1</ele>
        <time>2020-10-12T13:40:26Z</time>
      </trkpt>
      <trkpt lat="37.713038000" lon="-4.974878000">
        <ele>137.5</ele>
        <time>2020-10-12T13:40:29Z</time>
      </trkpt>
      <trkpt lat="37.713033000" lon="-4.974759000">
        <ele>137.9</ele>
        <time>2020-10-12T13:40:32Z</time>
      </trkpt>
      <trkpt lat="37.713025000" lon="-4.974638000">
        <ele>138.3</ele>
        <time>2020-10-12T13:40:35Z</time>
      </trkpt>
      <trkpt lat="37.713020000" lon="-4.974524000">
        <ele>138.5</ele>
        <time>2020-10-12T13:40:38Z</time>
      </trkpt>
      <trkpt lat="37.713010000" lon="-4.974416000">
        <ele>138.9</ele>
        <time>2020-10-12T13:40:41Z</time>
      </trkpt>
      <trkpt lat="37.712993000" lon="-4.974305000">
        <ele>139.2</ele>
        <time>2020-10-12T13:40:44Z</time>
      </trkpt>
      <trkpt lat="37.712978000" lon="-4.974184000">
        <ele>139.5</ele>
        <time>2020-10-12T13:40:47Z</time>
      </trkpt>
      <trkpt lat="37.712961000" lon="-4.974066000">
        <ele>139.7</ele>
        <time>2020-10-12T13:40:50Z</time>
      </trkpt>
      <trkpt lat="37.712946000" lon="-4.973945000">
        <ele>140.0</ele>
        <time>2020-10-12T13:40:53Z</time>
      </trkpt>
      <trkpt lat="37.712926000" lon="-4.973823000">
        <ele>140.4</ele>
        <time>2020-10-12T13:40:56Z</time>
      </trkpt>
      <trkpt lat="37.712904000" lon="-4.973696000">
        <ele>140.6</ele>
        <time>2020-10-12T13:40:59Z</time>
      </trkpt>
      <trkpt lat="37.712877000" lon="-4.973567000">
        <ele>141.0</ele>
        <time>2020-10-12T13:41:02Z</time>
      </trkpt>
      <trkpt lat="37.712849000" lon="-4.973441000">
        <ele>141.4</ele>
        <time>2020-10-12T13:41:05Z</time>
      </trkpt>
      <trkpt lat="37.712820000" lon="-4.973308000">
        <ele>141.7</ele>
        <time>2020-10-12T13:41:08Z</time>
      </trkpt>
      <trkpt lat="37.712791000" lon="-4.973169000">
        <ele>142.2</ele>
        <time>2020-10-12T13:41:11Z</time>
      </trkpt>
      <trkpt lat="37.712761000" lon="-4.973031000">
        <ele>142.5</ele>
        <time>2020-10-12T13:41:14Z</time>
      </trkpt>
      <trkpt lat="37.712728000" lon="-4.972893000">
        <ele>142.9</ele>
        <time>2020-10-12T13:41:17Z</time>
      </trkpt>
      <trkpt lat="37.712697000" lon="-4.972759000">
        <ele>143.3</ele>
        <time>2020-10-12T13:41:20Z</time>
      </trkpt>
      <trkpt lat="37.712669000" lon="-4.972623000">
        <ele>143.5</ele>
        <time>2020-10-12T13:41:23Z</time>
      </trkpt>
      <trkpt lat="37.712636000" lon="-4.972488000">
        <ele>143.8</ele>
        <time>2020-10-12T13:41:26Z</time>
      </trkpt>
      <trkpt lat="37.712609000" lon="-4.972355000">
        <ele>144.0</ele>
        <time>2020-10-12T13:41:29Z</time>
      </trkpt>
      <trkpt lat="37.712579000" lon="-4.972228000">
        <ele>144.2</ele>
        <time>2020-10-12T13:41:32Z</time>
      </trkpt>
      <trkpt lat="37.712548000" lon="-4.972099000">
        <ele>144.4</ele>
        <time>2020-10-12T13:41:35Z</time>
      </trkpt>
      <trkpt lat="37.712515000" lon="-4.971971000">
        <ele>144.5</ele>
        <time>2020-10-12T13:41:38Z</time>
      </trkpt>
      <trkpt lat="37.712478000" lon="-4.971838000">
        <ele>144.6</ele>
        <time>2020-10-12T13:41:41Z</time>
      </trkpt>
      <trkpt lat="37.712448000" lon="-4.971701000">
        <ele>144.6</ele>
        <time>2020-10-12T13:41:44Z</time>
      </trkpt>
      <trkpt lat="37.712416000" lon="-4.971565000">
        <ele>144.6</ele>
        <time>2020-10-12T13:41:47Z</time>
      </trkpt>
      <trkpt lat="37.712386000" lon="-4.971430000">
        <ele>144.6</ele>
        <time>2020-10-12T13:41:50Z</time>
      </trkpt>
      <trkpt lat="37.712352000" lon="-4.971297000">
        <ele>144.5</ele>
        <time>2020-10-12T13:41:53Z</time>
      </trkpt>
      <trkpt lat="37.712321000" lon="-4.971166000">
        <ele>144.3</ele>
        <time>2020-10-12T13:41:56Z</time>
      </trkpt>
      <trkpt lat="37.712298000" lon="-4.971041000">
        <ele>144.2</ele>
        <time>2020-10-12T13:41:59Z</time>
      </trkpt>
      <trkpt lat="37.712268000" lon="-4.970910000">
        <ele>144.1</ele>
        <time>2020-10-12T13:42:02Z</time>
      </trkpt>
      <trkpt lat="37.712246000" lon="-4.970795000">
        <ele>144.0</ele>
        <time>2020-10-12T13:42:05Z</time>
      </trkpt>
      <trkpt lat="37.712221000" lon="-4.970673000">
        <ele>143.9</ele>
        <time>2020-10-12T13:42:08Z</time>
      </trkpt>
      <trkpt lat="37.712191000" lon="-4.970548000">
        <ele>143.8</ele>
        <time>2020-10-12T13:42:11Z</time>
      </trkpt>
      <trkpt lat="37.712161000" lon="-4.970428000">
        <ele>143.9</ele>
        <time>2020-10-12T13:42:14Z</time>
      </trkpt>
      <trkpt lat="37.712135000" lon="-4.970307000">
        <ele>144.0</ele>
        <time>2020-10-12T13:42:17Z</time>
      </trkpt>
      <trkpt lat="37.712106000" lon="-4.970189000">
        <ele>144.1</ele>
        <time>2020-10-12T13:42:20Z</time>
      </trkpt>
      <trkpt lat="37.712085000" lon="-4.970076000">
        <ele>144.2</ele>
        <time>2020-10-12T13:42:23Z</time>
      </trkpt>
      <trkpt lat="37.712059000" lon="-4.969963000">
        <ele>144.4</ele>
        <time>2020-10-12T13:42:26Z</time>
      </trkpt>
      <trkpt lat="37.712030000" lon="-4.969851000">
        <ele>144.5</ele>
        <time>2020-10-12T13:42:29Z</time>
      </trkpt>
      <trkpt lat="37.712000000" lon="-4.969735000">
        <ele>144.7</ele>
        <time>2020-10-12T13:42:32Z</time>
      </trkpt>
      <trkpt lat="37.711972000" lon="-4.969613000">
        <ele>144.9</ele>
        <time>2020-10-12T13:42:35Z</time>
      </trkpt>
      <trkpt lat="37.711947000" lon="-4.969496000">
        <ele>145.1</ele>
        <time>2020-10-12T13:42:38Z</time>
      </trkpt>
      <trkpt lat="37.711919000" lon="-4.969384000">
        <ele>145.4</ele>
        <time>2020-10-12T13:42:41Z</time>
      </trkpt>
      <trkpt lat="37.711889000" lon="-4.969280000">
        <ele>145.6</ele>
        <time>2020-10-12T13:42:44Z</time>
      </trkpt>
      <trkpt lat="37.711869000" lon="-4.969175000">
        <ele>145.8</ele>
        <time>2020-10-12T13:42:47Z</time>
      </trkpt>
      <trkpt lat="37.711846000" lon="-4.969068000">
        <ele>146.1</ele>
        <time>2020-10-12T13:42:50Z</time>
      </trkpt>
      <trkpt lat="37.711824000" lon="-4.968961000">
        <ele>146.4</ele>
        <time>2020-10-12T13:42:53Z</time>
      </trkpt>
      <trkpt lat="37.711800000" lon="-4.968861000">
        <ele>146.6</ele>
        <time>2020-10-12T13:42:56Z</time>
      </trkpt>
      <trkpt lat="37.711769000" lon="-4.968724000">
        <ele>146.9</ele>
        <time>2020-10-12T13:43:00Z</time>
      </trkpt>
      <trkpt lat="37.711741000" lon="-4.968621000">
        <ele>147.3</ele>
        <time>2020-10-12T13:43:03Z</time>
      </trkpt>
      <trkpt lat="37.711716000" lon="-4.968520000">
        <ele>147.5</ele>
        <time>2020-10-12T13:43:06Z</time>
      </trkpt>
      <trkpt lat="37.711686000" lon="-4.968394000">
        <ele>147.8</ele>
        <time>2020-10-12T13:43:10Z</time>
      </trkpt>
      <trkpt lat="37.711652000" lon="-4.968273000">
        <ele>148.2</ele>
        <time>2020-10-12T13:43:14Z</time>
      </trkpt>
      <trkpt lat="37.711623000" lon="-4.968141000">
        <ele>148.5</ele>
        <time>2020-10-12T13:43:18Z</time>
      </trkpt>
      <trkpt lat="37.711596000" lon="-4.968038000">
        <ele>148.7</ele>
        <time>2020-10-12T13:43:21Z</time>
      </trkpt>
      <trkpt lat="37.711578000" lon="-4.967930000">
        <ele>149.0</ele>
        <time>2020-10-12T13:43:24Z</time>
      </trkpt>
      <trkpt lat="37.711556000" lon="-4.967828000">
        <ele>149.2</ele>
        <time>2020-10-12T13:43:27Z</time>
      </trkpt>
      <trkpt lat="37.711529000" lon="-4.967721000">
        <ele>149.4</ele>
        <time>2020-10-12T13:43:30Z</time>
      </trkpt>
      <trkpt lat="37.711499000" lon="-4.967608000">
        <ele>149.5</ele>
        <time>2020-10-12T13:43:33Z</time>
      </trkpt>
      <trkpt lat="37.711474000" lon="-4.967490000">
        <ele>149.7</ele>
        <time>2020-10-12T13:43:36Z</time>
      </trkpt>
      <trkpt lat="37.711446000" lon="-4.967372000">
        <ele>149.7</ele>
        <time>2020-10-12T13:43:39Z</time>
      </trkpt>
      <trkpt lat="37.711424000" lon="-4.967257000">
        <ele>149.7</ele>
        <time>2020-10-12T13:43:42Z</time>
      </trkpt>
      <trkpt lat="37.711398000" lon="-4.967148000">
        <ele>149.7</ele>
        <time>2020-10-12T13:43:45Z</time>
      </trkpt>
      <trkpt lat="37.711373000" lon="-4.967037000">
        <ele>149.6</ele>
        <time>2020-10-12T13:43:48Z</time>
      </trkpt>
      <trkpt lat="37.711346000" lon="-4.966934000">
        <ele>149.5</ele>
        <time>2020-10-12T13:43:51Z</time>
      </trkpt>
      <trkpt lat="37.711326000" lon="-4.966824000">
        <ele>149.5</ele>
        <time>2020-10-12T13:43:54Z</time>
      </trkpt>
      <trkpt lat="37.711304000" lon="-4.966723000">
        <ele>149.5</ele>
        <time>2020-10-12T13:43:57Z</time>
      </trkpt>
      <trkpt lat="37.711278000" lon="-4.966607000">
        <ele>149.5</ele>
        <time>2020-10-12T13:44:00Z</time>
      </trkpt>
      <trkpt lat="37.711253000" lon="-4.966502000">
        <ele>149.5</ele>
        <time>2020-10-12T13:44:03Z</time>
      </trkpt>
      <trkpt lat="37.711224000" lon="-4.966395000">
        <ele>149.5</ele>
        <time>2020-10-12T13:44:06Z</time>
      </trkpt>
      <trkpt lat="37.711196000" lon="-4.966278000">
        <ele>149.5</ele>
        <time>2020-10-12T13:44:09Z</time>
      </trkpt>
      <trkpt lat="37.711166000" lon="-4.966174000">
        <ele>149.5</ele>
        <time>2020-10-12T13:44:12Z</time>
      </trkpt>
      <trkpt lat="37.711146000" lon="-4.966072000">
        <ele>149.7</ele>
        <time>2020-10-12T13:44:15Z</time>
      </trkpt>
      <trkpt lat="37.711114000" lon="-4.965971000">
        <ele>149.9</ele>
        <time>2020-10-12T13:44:18Z</time>
      </trkpt>
      <trkpt lat="37.711094000" lon="-4.965862000">
        <ele>150.1</ele>
        <time>2020-10-12T13:44:21Z</time>
      </trkpt>
      <trkpt lat="37.711067000" lon="-4.965762000">
        <ele>150.2</ele>
        <time>2020-10-12T13:44:24Z</time>
      </trkpt>
      <trkpt lat="37.711039000" lon="-4.965650000">
        <ele>150.3</ele>
        <time>2020-10-12T13:44:27Z</time>
      </trkpt>
      <trkpt lat="37.711016000" lon="-4.965535000">
        <ele>150.3</ele>
        <time>2020-10-12T13:44:30Z</time>
      </trkpt>
      <trkpt lat="37.710985000" lon="-4.965417000">
        <ele>150.3</ele>
        <time>2020-10-12T13:44:33Z</time>
      </trkpt>
      <trkpt lat="37.710953000" lon="-4.965290000">
        <ele>150.4</ele>
        <time>2020-10-12T13:44:36Z</time>
      </trkpt>
      <trkpt lat="37.710923000" lon="-4.965166000">
        <ele>150.5</ele>
        <time>2020-10-12T13:44:39Z</time>
      </trkpt>
      <trkpt lat="37.710890000" lon="-4.965048000">
        <ele>150.5</ele>
        <time>2020-10-12T13:44:42Z</time>
      </trkpt>
      <trkpt lat="37.710867000" lon="-4.964938000">
        <ele>150.7</ele>
        <time>2020-10-12T13:44:45Z</time>
      </trkpt>
      <trkpt lat="37.710849000" lon="-4.964824000">
        <ele>150.8</ele>
        <time>2020-10-12T13:44:48Z</time>
      </trkpt>
      <trkpt lat="37.710826000" lon="-4.964711000">
        <ele>151.0</ele>
        <time>2020-10-12T13:44:51Z</time>
      </trkpt>
      <trkpt lat="37.710800000" lon="-4.964594000">
        <ele>151.1</ele>
        <time>2020-10-12T13:44:54Z</time>
      </trkpt>
      <trkpt lat="37.710778000" lon="-4.964475000">
        <ele>151.3</ele>
        <time>2020-10-12T13:44:57Z</time>
      </trkpt>
      <trkpt lat="37.710748000" lon="-4.964355000">
        <ele>151.5</ele>
        <time>2020-10-12T13:45:00Z</time>
      </trkpt>
      <trkpt lat="37.710726000" lon="-4.964247000">
        <ele>151.5</ele>
        <time>2020-10-12T13:45:03Z</time>
      </trkpt>
      <trkpt lat="37.710700000" lon="-4.964146000">
        <ele>151.6</ele>
        <time>2020-10-12T13:45:06Z</time>
      </trkpt>
      <trkpt lat="37.710675000" lon="-4.964043000">
        <ele>151.6</ele>
        <time>2020-10-12T13:45:09Z</time>
      </trkpt>
      <trkpt lat="37.710649000" lon="-4.963932000">
        <ele>151.6</ele>
        <time>2020-10-12T13:45:12Z</time>
      </trkpt>
      <trkpt lat="37.710616000" lon="-4.963814000">
        <ele>151.6</ele>
        <time>2020-10-12T13:45:15Z</time>
      </trkpt>
      <trkpt lat="37.710590000" lon="-4.963692000">
        <ele>151.5</ele>
        <time>2020-10-12T13:45:18Z</time>
      </trkpt>
      <trkpt lat="37.710560000" lon="-4.963571000">
        <ele>151.5</ele>
        <time>2020-10-12T13:45:21Z</time>
      </trkpt>
      <trkpt lat="37.710536000" lon="-4.963447000">
        <ele>151.4</ele>
        <time>2020-10-12T13:45:24Z</time>
      </trkpt>
      <trkpt lat="37.710506000" lon="-4.963326000">
        <ele>151.4</ele>
        <time>2020-10-12T13:45:27Z</time>
      </trkpt>
      <trkpt lat="37.710477000" lon="-4.963211000">
        <ele>151.5</ele>
        <time>2020-10-12T13:45:30Z</time>
      </trkpt>
      <trkpt lat="37.710454000" lon="-4.963103000">
        <ele>151.7</ele>
        <time>2020-10-12T13:45:33Z</time>
      </trkpt>
      <trkpt lat="37.710426000" lon="-4.962969000">
        <ele>152.2</ele>
        <time>2020-10-12T13:45:37Z</time>
      </trkpt>
      <trkpt lat="37.710401000" lon="-4.962858000">
        <ele>152.7</ele>
        <time>2020-10-12T13:45:40Z</time>
      </trkpt>
      <trkpt lat="37.710374000" lon="-4.962751000">
        <ele>153.3</ele>
        <time>2020-10-12T13:45:43Z</time>
      </trkpt>
      <trkpt lat="37.710344000" lon="-4.962639000">
        <ele>153.8</ele>
        <time>2020-10-12T13:45:46Z</time>
      </trkpt>
      <trkpt lat="37.710315000" lon="-4.962517000">
        <ele>154.5</ele>
        <time>2020-10-12T13:45:49Z</time>
      </trkpt>
      <trkpt lat="37.710286000" lon="-4.962403000">
        <ele>155.1</ele>
        <time>2020-10-12T13:45:52Z</time>
      </trkpt>
      <trkpt lat="37.710258000" lon="-4.962283000">
        <ele>155.7</ele>
        <time>2020-10-12T13:45:55Z</time>
      </trkpt>
      <trkpt lat="37.710237000" lon="-4.962169000">
        <ele>156.2</ele>
        <time>2020-10-12T13:45:58Z</time>
      </trkpt>
      <trkpt lat="37.710213000" lon="-4.962063000">
        <ele>156.6</ele>
        <time>2020-10-12T13:46:01Z</time>
      </trkpt>
      <trkpt lat="37.710191000" lon="-4.961937000">
        <ele>157.0</ele>
        <time>2020-10-12T13:46:05Z</time>
      </trkpt>
      <trkpt lat="37.710164000" lon="-4.961828000">
        <ele>157.3</ele>
        <time>2020-10-12T13:46:09Z</time>
      </trkpt>
      <trkpt lat="37.710141000" lon="-4.961719000">
        <ele>157.5</ele>
        <time>2020-10-12T13:46:12Z</time>
      </trkpt>
      <trkpt lat="37.710113000" lon="-4.961622000">
        <ele>157.5</ele>
        <time>2020-10-12T13:46:15Z</time>
      </trkpt>
      <trkpt lat="37.710082000" lon="-4.961496000">
        <ele>157.6</ele>
        <time>2020-10-12T13:46:19Z</time>
      </trkpt>
      <trkpt lat="37.710054000" lon="-4.961374000">
        <ele>157.7</ele>
        <time>2020-10-12T13:46:22Z</time>
      </trkpt>
      <trkpt lat="37.710024000" lon="-4.961264000">
        <ele>157.7</ele>
        <time>2020-10-12T13:46:25Z</time>
      </trkpt>
      <trkpt lat="37.709991000" lon="-4.961155000">
        <ele>157.6</ele>
        <time>2020-10-12T13:46:28Z</time>
      </trkpt>
      <trkpt lat="37.709962000" lon="-4.961041000">
        <ele>157.5</ele>
        <time>2020-10-12T13:46:31Z</time>
      </trkpt>
      <trkpt lat="37.709925000" lon="-4.960930000">
        <ele>157.5</ele>
        <time>2020-10-12T13:46:34Z</time>
      </trkpt>
      <trkpt lat="37.709886000" lon="-4.960819000">
        <ele>157.3</ele>
        <time>2020-10-12T13:46:37Z</time>
      </trkpt>
      <trkpt lat="37.709857000" lon="-4.960713000">
        <ele>157.1</ele>
        <time>2020-10-12T13:46:40Z</time>
      </trkpt>
      <trkpt lat="37.709828000" lon="-4.960602000">
        <ele>156.7</ele>
        <time>2020-10-12T13:46:43Z</time>
      </trkpt>
      <trkpt lat="37.709799000" lon="-4.960493000">
        <ele>156.4</ele>
        <time>2020-10-12T13:46:46Z</time>
      </trkpt>
      <trkpt lat="37.709757000" lon="-4.960381000">
        <ele>156.0</ele>
        <time>2020-10-12T13:46:49Z</time>
      </trkpt>
      <trkpt lat="37.709718000" lon="-4.960266000">
        <ele>155.7</ele>
        <time>2020-10-12T13:46:52Z</time>
      </trkpt>
      <trkpt lat="37.709676000" lon="-4.960147000">
        <ele>155.5</ele>
        <time>2020-10-12T13:46:55Z</time>
      </trkpt>
      <trkpt lat="37.709631000" lon="-4.960030000">
        <ele>155.2</ele>
        <time>2020-10-12T13:46:58Z</time>
      </trkpt>
      <trkpt lat="37.709587000" lon="-4.959920000">
        <ele>155.0</ele>
        <time>2020-10-12T13:47:01Z</time>
      </trkpt>
      <trkpt lat="37.709540000" lon="-4.959807000">
        <ele>154.8</ele>
        <time>2020-10-12T13:47:04Z</time>
      </trkpt>
      <trkpt lat="37.709496000" lon="-4.959696000">
        <ele>154.8</ele>
        <time>2020-10-12T13:47:07Z</time>
      </trkpt>
      <trkpt lat="37.709450000" lon="-4.959584000">
        <ele>154.9</ele>
        <time>2020-10-12T13:47:10Z</time>
      </trkpt>
      <trkpt lat="37.709400000" lon="-4.959463000">
        <ele>155.1</ele>
        <time>2020-10-12T13:47:13Z</time>
      </trkpt>
      <trkpt lat="37.709350000" lon="-4.959355000">
        <ele>155.5</ele>
        <time>2020-10-12T13:47:16Z</time>
      </trkpt>
      <trkpt lat="37.709304000" lon="-4.959240000">
        <ele>155.8</ele>
        <time>2020-10-12T13:47:19Z</time>
      </trkpt>
      <trkpt lat="37.709259000" lon="-4.959117000">
        <ele>156.2</ele>
        <time>2020-10-12T13:47:22Z</time>
      </trkpt>
      <trkpt lat="37.709210000" lon="-4.958991000">
        <ele>156.5</ele>
        <time>2020-10-12T13:47:25Z</time>
      </trkpt>
      <trkpt lat="37.709160000" lon="-4.958859000">
        <ele>156.8</ele>
        <time>2020-10-12T13:47:28Z</time>
      </trkpt>
      <trkpt lat="37.709102000" lon="-4.958733000">
        <ele>157.1</ele>
        <time>2020-10-12T13:47:31Z</time>
      </trkpt>
      <trkpt lat="37.709045000" lon="-4.958606000">
        <ele>157.4</ele>
        <time>2020-10-12T13:47:34Z</time>
      </trkpt>
      <trkpt lat="37.708995000" lon="-4.958476000">
        <ele>157.8</ele>
        <time>2020-10-12T13:47:37Z</time>
      </trkpt>
      <trkpt lat="37.708948000" lon="-4.958349000">
        <ele>158.3</ele>
        <time>2020-10-12T13:47:40Z</time>
      </trkpt>
      <trkpt lat="37.708901000" lon="-4.958227000">
        <ele>158.8</ele>
        <time>2020-10-12T13:47:43Z</time>
      </trkpt>
      <trkpt lat="37.708863000" lon="-4.958104000">
        <ele>159.4</ele>
        <time>2020-10-12T13:47:46Z</time>
      </trkpt>
      <trkpt lat="37.708832000" lon="-4.957979000">
        <ele>159.8</ele>
        <time>2020-10-12T13:47:49Z</time>
      </trkpt>
      <trkpt lat="37.708800000" lon="-4.957856000">
        <ele>160.3</ele>
        <time>2020-10-12T13:47:52Z</time>
      </trkpt>
      <trkpt lat="37.708779000" lon="-4.957740000">
        <ele>160.7</ele>
        <time>2020-10-12T13:47:55Z</time>
      </trkpt>
      <trkpt lat="37.708753000" lon="-4.957622000">
        <ele>161.1</ele>
        <time>2020-10-12T13:47:58Z</time>
      </trkpt>
      <trkpt lat="37.708722000" lon="-4.957498000">
        <ele>161.6</ele>
        <time>2020-10-12T13:48:01Z</time>
      </trkpt>
      <trkpt lat="37.708696000" lon="-4.957372000">
        <ele>162.2</ele>
        <time>2020-10-12T13:48:04Z</time>
      </trkpt>
      <trkpt lat="37.708672000" lon="-4.957243000">
        <ele>162.8</ele>
        <time>2020-10-12T13:48:07Z</time>
      </trkpt>
      <trkpt lat="37.708650000" lon="-4.957115000">
        <ele>163.4</ele>
        <time>2020-10-12T13:48:10Z</time>
      </trkpt>
      <trkpt lat="37.708631000" lon="-4.956991000">
        <ele>163.8</ele>
        <time>2020-10-12T13:48:13Z</time>
      </trkpt>
      <trkpt lat="37.708624000" lon="-4.956866000">
        <ele>164.3</ele>
        <time>2020-10-12T13:48:16Z</time>
      </trkpt>
      <trkpt lat="37.708614000" lon="-4.956741000">
        <ele>164.7</ele>
        <time>2020-10-12T13:48:19Z</time>
      </trkpt>
      <trkpt lat="37.708611000" lon="-4.956616000">
        <ele>165.2</ele>
        <time>2020-10-12T13:48:22Z</time>
      </trkpt>
      <trkpt lat="37.708603000" lon="-4.956493000">
        <ele>165.5</ele>
        <time>2020-10-12T13:48:25Z</time>
      </trkpt>
      <trkpt lat="37.708608000" lon="-4.956371000">
        <ele>165.9</ele>
        <time>2020-10-12T13:48:28Z</time>
      </trkpt>
      <trkpt lat="37.708607000" lon="-4.956252000">
        <ele>166.3</ele>
        <time>2020-10-12T13:48:31Z</time>
      </trkpt>
      <trkpt lat="37.708612000" lon="-4.956138000">
        <ele>166.5</ele>
        <time>2020-10-12T13:48:34Z</time>
      </trkpt>
      <trkpt lat="37.708617000" lon="-4.956023000">
        <ele>166.6</ele>
        <time>2020-10-12T13:48:37Z</time>
      </trkpt>
      <trkpt lat="37.708623000" lon="-4.955914000">
        <ele>166.6</ele>
        <time>2020-10-12T13:48:40Z</time>
      </trkpt>
      <trkpt lat="37.708634000" lon="-4.955804000">
        <ele>166.5</ele>
        <time>2020-10-12T13:48:43Z</time>
      </trkpt>
      <trkpt lat="37.708641000" lon="-4.955695000">
        <ele>166.5</ele>
        <time>2020-10-12T13:48:46Z</time>
      </trkpt>
      <trkpt lat="37.708649000" lon="-4.955592000">
        <ele>166.3</ele>
        <time>2020-10-12T13:48:49Z</time>
      </trkpt>
      <trkpt lat="37.708669000" lon="-4.955461000">
        <ele>166.0</ele>
        <time>2020-10-12T13:48:53Z</time>
      </trkpt>
      <trkpt lat="37.708686000" lon="-4.955361000">
        <ele>165.7</ele>
        <time>2020-10-12T13:48:56Z</time>
      </trkpt>
      <trkpt lat="37.708731000" lon="-4.955237000">
        <ele>165.5</ele>
        <time>2020-10-12T13:49:00Z</time>
      </trkpt>
      <trkpt lat="37.708765000" lon="-4.955122000">
        <ele>165.4</ele>
        <time>2020-10-12T13:49:03Z</time>
      </trkpt>
      <trkpt lat="37.708794000" lon="-4.955011000">
        <ele>165.1</ele>
        <time>2020-10-12T13:49:06Z</time>
      </trkpt>
      <trkpt lat="37.708825000" lon="-4.954895000">
        <ele>164.9</ele>
        <time>2020-10-12T13:49:09Z</time>
      </trkpt>
      <trkpt lat="37.708859000" lon="-4.954780000">
        <ele>164.7</ele>
        <time>2020-10-12T13:49:12Z</time>
      </trkpt>
      <trkpt lat="37.708892000" lon="-4.954680000">
        <ele>164.6</ele>
        <time>2020-10-12T13:49:15Z</time>
      </trkpt>
      <trkpt lat="37.708928000" lon="-4.954579000">
        <ele>164.6</ele>
        <time>2020-10-12T13:49:18Z</time>
      </trkpt>
      <trkpt lat="37.708963000" lon="-4.954485000">
        <ele>164.6</ele>
        <time>2020-10-12T13:49:21Z</time>
      </trkpt>
      <trkpt lat="37.708999000" lon="-4.954389000">
        <ele>164.7</ele>
        <time>2020-10-12T13:49:24Z</time>
      </trkpt>
      <trkpt lat="37.709040000" lon="-4.954294000">
        <ele>164.8</ele>
        <time>2020-10-12T13:49:27Z</time>
      </trkpt>
      <trkpt lat="37.709089000" lon="-4.954181000">
        <ele>164.9</ele>
        <time>2020-10-12T13:49:30Z</time>
      </trkpt>
      <trkpt lat="37.709141000" lon="-4.954069000">
        <ele>165.0</ele>
        <time>2020-10-12T13:49:33Z</time>
      </trkpt>
      <trkpt lat="37.709194000" lon="-4.953950000">
        <ele>165.1</ele>
        <time>2020-10-12T13:49:36Z</time>
      </trkpt>
      <trkpt lat="37.709255000" lon="-4.953841000">
        <ele>165.3</ele>
        <time>2020-10-12T13:49:39Z</time>
      </trkpt>
      <trkpt lat="37.709311000" lon="-4.953738000">
        <ele>165.5</ele>
        <time>2020-10-12T13:49:42Z</time>
      </trkpt>
      <trkpt lat="37.709367000" lon="-4.953634000">
        <ele>165.5</ele>
        <time>2020-10-12T13:49:45Z</time>
      </trkpt>
      <trkpt lat="37.709428000" lon="-4.953533000">
        <ele>165.6</ele>
        <time>2020-10-12T13:49:48Z</time>
      </trkpt>
      <trkpt lat="37.709489000" lon="-4.953432000">
        <ele>165.5</ele>
        <time>2020-10-12T13:49:51Z</time>
      </trkpt>
      <trkpt lat="37.709552000" lon="-4.953329000">
        <ele>165.5</ele>
        <time>2020-10-12T13:49:54Z</time>
      </trkpt>
      <trkpt lat="37.709621000" lon="-4.953230000">
        <ele>165.2</ele>
        <time>2020-10-12T13:49:57Z</time>
      </trkpt>
      <trkpt lat="37.709678000" lon="-4.953131000">
        <ele>164.9</ele>
        <time>2020-10-12T13:50:00Z</time>
      </trkpt>
      <trkpt lat="37.709744000" lon="-4.953033000">
        <ele>164.7</ele>
        <time>2020-10-12T13:50:03Z</time>
      </trkpt>
      <trkpt lat="37.709813000" lon="-4.952929000">
        <ele>164.6</ele>
        <time>2020-10-12T13:50:06Z</time>
      </trkpt>
      <trkpt lat="37.709882000" lon="-4.952824000">
        <ele>164.5</ele>
        <time>2020-10-12T13:50:09Z</time>
      </trkpt>
      <trkpt lat="37.709952000" lon="-4.952713000">
        <ele>164.5</ele>
        <time>2020-10-12T13:50:12Z</time>
      </trkpt>
      <trkpt lat="37.710028000" lon="-4.952603000">
        <ele>164.4</ele>
        <time>2020-10-12T13:50:15Z</time>
      </trkpt>
      <trkpt lat="37.710093000" lon="-4.952495000">
        <ele>164.5</ele>
        <time>2020-10-12T13:50:18Z</time>
      </trkpt>
      <trkpt lat="37.710159000" lon="-4.952395000">
        <ele>164.5</ele>
        <time>2020-10-12T13:50:21Z</time>
      </trkpt>
      <trkpt lat="37.710220000" lon="-4.952302000">
        <ele>164.7</ele>
        <time>2020-10-12T13:50:24Z</time>
      </trkpt>
      <trkpt lat="37.710273000" lon="-4.952214000">
        <ele>165.0</ele>
        <time>2020-10-12T13:50:27Z</time>
      </trkpt>
      <trkpt lat="37.710332000" lon="-4.952122000">
        <ele>165.4</ele>
        <time>2020-10-12T13:50:30Z</time>
      </trkpt>
      <trkpt lat="37.710385000" lon="-4.952041000">
        <ele>165.8</ele>
        <time>2020-10-12T13:50:33Z</time>
      </trkpt>
      <trkpt lat="37.710448000" lon="-4.951953000">
        <ele>166.2</ele>
        <time>2020-10-12T13:50:36Z</time>
      </trkpt>
      <trkpt lat="37.710503000" lon="-4.951860000">
        <ele>166.5</ele>
        <time>2020-10-12T13:50:39Z</time>
      </trkpt>
      <trkpt lat="37.710578000" lon="-4.951753000">
        <ele>166.7</ele>
        <time>2020-10-12T13:50:43Z</time>
      </trkpt>
      <trkpt lat="37.710641000" lon="-4.951649000">
        <ele>166.9</ele>
        <time>2020-10-12T13:50:46Z</time>
      </trkpt>
      <trkpt lat="37.710709000" lon="-4.951545000">
        <ele>167.1</ele>
        <time>2020-10-12T13:50:50Z</time>
      </trkpt>
      <trkpt lat="37.710762000" lon="-4.951452000">
        <ele>167.2</ele>
        <time>2020-10-12T13:50:53Z</time>
      </trkpt>
      <trkpt lat="37.710805000" lon="-4.951350000">
        <ele>167.3</ele>
        <time>2020-10-12T13:50:56Z</time>
      </trkpt>
      <trkpt lat="37.710859000" lon="-4.951256000">
        <ele>167.4</ele>
        <time>2020-10-12T13:50:59Z</time>
      </trkpt>
      <trkpt lat="37.710916000" lon="-4.951162000">
        <ele>167.4</ele>
        <time>2020-10-12T13:51:02Z</time>
      </trkpt>
      <trkpt lat="37.710971000" lon="-4.951062000">
        <ele>167.4</ele>
        <time>2020-10-12T13:51:05Z</time>
      </trkpt>
      <trkpt lat="37.711028000" lon="-4.950972000">
        <ele>167.3</ele>
        <time>2020-10-12T13:51:08Z</time>
      </trkpt>
      <trkpt lat="37.711086000" lon="-4.950883000">
        <ele>167.2</ele>
        <time>2020-10-12T13:51:11Z</time>
      </trkpt>
      <trkpt lat="37.711140000" lon="-4.950791000">
        <ele>167.1</ele>
        <time>2020-10-12T13:51:14Z</time>
      </trkpt>
      <trkpt lat="37.711184000" lon="-4.950700000">
        <ele>167.1</ele>
        <time>2020-10-12T13:51:17Z</time>
      </trkpt>
      <trkpt lat="37.711241000" lon="-4.950600000">
        <ele>167.2</ele>
        <time>2020-10-12T13:51:20Z</time>
      </trkpt>
      <trkpt lat="37.711300000" lon="-4.950501000">
        <ele>167.4</ele>
        <time>2020-10-12T13:51:23Z</time>
      </trkpt>
      <trkpt lat="37.711362000" lon="-4.950400000">
        <ele>167.5</ele>
        <time>2020-10-12T13:51:26Z</time>
      </trkpt>
      <trkpt lat="37.711421000" lon="-4.950307000">
        <ele>167.8</ele>
        <time>2020-10-12T13:51:29Z</time>
      </trkpt>
      <trkpt lat="37.711479000" lon="-4.950226000">
        <ele>168.1</ele>
        <time>2020-10-12T13:51:32Z</time>
      </trkpt>
      <trkpt lat="37.711537000" lon="-4.950152000">
        <ele>168.4</ele>
        <time>2020-10-12T13:51:36Z</time>
      </trkpt>
      <trkpt lat="37.711605000" lon="-4.950065000">
        <ele>168.6</ele>
        <time>2020-10-12T13:51:41Z</time>
      </trkpt>
      <trkpt lat="37.711674000" lon="-4.949972000">
        <ele>169.0</ele>
        <time>2020-10-12T13:51:45Z</time>
      </trkpt>
      <trkpt lat="37.711739000" lon="-4.949894000">
        <ele>169.5</ele>
        <time>2020-10-12T13:51:48Z</time>
      </trkpt>
      <trkpt lat="37.711809000" lon="-4.949816000">
        <ele>170.0</ele>
        <time>2020-10-12T13:51:51Z</time>
      </trkpt>
      <trkpt lat="37.711885000" lon="-4.949749000">
        <ele>170.5</ele>
        <time>2020-10-12T13:51:54Z</time>
      </trkpt>
      <trkpt lat="37.711962000" lon="-4.949681000">
        <ele>170.9</ele>
        <time>2020-10-12T13:51:57Z</time>
      </trkpt>
      <trkpt lat="37.712041000" lon="-4.949613000">
        <ele>171.4</ele>
        <time>2020-10-12T13:52:00Z</time>
      </trkpt>
      <trkpt lat="37.712116000" lon="-4.949545000">
        <ele>171.8</ele>
        <time>2020-10-12T13:52:03Z</time>
      </trkpt>
      <trkpt lat="37.712190000" lon="-4.949481000">
        <ele>172.2</ele>
        <time>2020-10-12T13:52:06Z</time>
      </trkpt>
      <trkpt lat="37.712265000" lon="-4.949420000">
        <ele>172.6</ele>
        <time>2020-10-12T13:52:09Z</time>
      </trkpt>
      <trkpt lat="37.712348000" lon="-4.949365000">
        <ele>173.1</ele>
        <time>2020-10-12T13:52:12Z</time>
      </trkpt>
      <trkpt lat="37.712438000" lon="-4.949312000">
        <ele>173.6</ele>
        <time>2020-10-12T13:52:15Z</time>
      </trkpt>
      <trkpt lat="37.712526000" lon="-4.949256000">
        <ele>174.1</ele>
        <time>2020-10-12T13:52:18Z</time>
      </trkpt>
      <trkpt lat="37.712621000" lon="-4.949209000">
        <ele>174.5</ele>
        <time>2020-10-12T13:52:21Z</time>
      </trkpt>
      <trkpt lat="37.712719000" lon="-4.949167000">
        <ele>174.9</ele>
        <time>2020-10-12T13:52:24Z</time>
      </trkpt>
      <trkpt lat="37.712813000" lon="-4.949129000">
        <ele>175.3</ele>
        <time>2020-10-12T13:52:27Z</time>
      </trkpt>
      <trkpt lat="37.712911000" lon="-4.949097000">
        <ele>175.6</ele>
        <time>2020-10-12T13:52:30Z</time>
      </trkpt>
      <trkpt lat="37.713005000" lon="-4.949061000">
        <ele>175.9</ele>
        <time>2020-10-12T13:52:33Z</time>
      </trkpt>
      <trkpt lat="37.713098000" lon="-4.949035000">
        <ele>176.1</ele>
        <time>2020-10-12T13:52:36Z</time>
      </trkpt>
      <trkpt lat="37.713191000" lon="-4.949010000">
        <ele>176.3</ele>
        <time>2020-10-12T13:52:39Z</time>
      </trkpt>
      <trkpt lat="37.713283000" lon="-4.948977000">
        <ele>176.5</ele>
        <time>2020-10-12T13:52:42Z</time>
      </trkpt>
      <trkpt lat="37.713374000" lon="-4.948952000">
        <ele>176.6</ele>
        <time>2020-10-12T13:52:45Z</time>
      </trkpt>
      <trkpt lat="37.713467000" lon="-4.948936000">
        <ele>176.8</ele>
        <time>2020-10-12T13:52:48Z</time>
      </trkpt>
      <trkpt lat="37.713555000" lon="-4.948897000">
        <ele>177.0</ele>
        <time>2020-10-12T13:52:51Z</time>
      </trkpt>
      <trkpt lat="37.713635000" lon="-4.948851000">
        <ele>177.1</ele>
        <time>2020-10-12T13:52:54Z</time>
      </trkpt>
      <trkpt lat="37.713739000" lon="-4.948823000">
        <ele>177.3</ele>
        <time>2020-10-12T13:52:58Z</time>
      </trkpt>
      <trkpt lat="37.713840000" lon="-4.948809000">
        <ele>177.5</ele>
        <time>2020-10-12T13:53:02Z</time>
      </trkpt>
      <trkpt lat="37.713927000" lon="-4.948812000">
        <ele>177.9</ele>
        <time>2020-10-12T13:53:05Z</time>
      </trkpt>
      <trkpt lat="37.714023000" lon="-4.948819000">
        <ele>178.3</ele>
        <time>2020-10-12T13:53:08Z</time>
      </trkpt>
      <trkpt lat="37.714116000" lon="-4.948818000">
        <ele>178.8</ele>
        <time>2020-10-12T13:53:11Z</time>
      </trkpt>
      <trkpt lat="37.714220000" lon="-4.948822000">
        <ele>179.4</ele>
        <time>2020-10-12T13:53:14Z</time>
      </trkpt>
      <trkpt lat="37.714308000" lon="-4.948831000">
        <ele>179.8</ele>
        <time>2020-10-12T13:53:17Z</time>
      </trkpt>
      <trkpt lat="37.714394000" lon="-4.948835000">
        <ele>180.4</ele>
        <time>2020-10-12T13:53:20Z</time>
      </trkpt>
      <trkpt lat="37.714480000" lon="-4.948831000">
        <ele>180.9</ele>
        <time>2020-10-12T13:53:23Z</time>
      </trkpt>
      <trkpt lat="37.714575000" lon="-4.948835000">
        <ele>181.5</ele>
        <time>2020-10-12T13:53:26Z</time>
      </trkpt>
      <trkpt lat="37.714670000" lon="-4.948834000">
        <ele>182.0</ele>
        <time>2020-10-12T13:53:29Z</time>
      </trkpt>
      <trkpt lat="37.714765000" lon="-4.948828000">
        <ele>182.5</ele>
        <time>2020-10-12T13:53:32Z</time>
      </trkpt>
      <trkpt lat="37.714854000" lon="-4.948832000">
        <ele>183.0</ele>
        <time>2020-10-12T13:53:35Z</time>
      </trkpt>
      <trkpt lat="37.714938000" lon="-4.948822000">
        <ele>183.4</ele>
        <time>2020-10-12T13:53:38Z</time>
      </trkpt>
      <trkpt lat="37.715024000" lon="-4.948812000">
        <ele>183.7</ele>
        <time>2020-10-12T13:53:41Z</time>
      </trkpt>
      <trkpt lat="37.715122000" lon="-4.948793000">
        <ele>184.0</ele>
        <time>2020-10-12T13:53:45Z</time>
      </trkpt>
      <trkpt lat="37.715221000" lon="-4.948786000">
        <ele>184.2</ele>
        <time>2020-10-12T13:53:49Z</time>
      </trkpt>
      <trkpt lat="37.715324000" lon="-4.948762000">
        <ele>184.4</ele>
        <time>2020-10-12T13:53:53Z</time>
      </trkpt>
      <trkpt lat="37.715404000" lon="-4.948738000">
        <ele>184.5</ele>
        <time>2020-10-12T13:53:56Z</time>
      </trkpt>
      <trkpt lat="37.715484000" lon="-4.948712000">
        <ele>184.5</ele>
        <time>2020-10-12T13:53:59Z</time>
      </trkpt>
      <trkpt lat="37.715568000" lon="-4.948689000">
        <ele>184.4</ele>
        <time>2020-10-12T13:54:02Z</time>
      </trkpt>
      <trkpt lat="37.715654000" lon="-4.948662000">
        <ele>184.3</ele>
        <time>2020-10-12T13:54:05Z</time>
      </trkpt>
      <trkpt lat="37.715742000" lon="-4.948625000">
        <ele>184.1</ele>
        <time>2020-10-12T13:54:08Z</time>
      </trkpt>
      <trkpt lat="37.715832000" lon="-4.948586000">
        <ele>183.9</ele>
        <time>2020-10-12T13:54:11Z</time>
      </trkpt>
      <trkpt lat="37.715923000" lon="-4.948549000">
        <ele>183.8</ele>
        <time>2020-10-12T13:54:14Z</time>
      </trkpt>
      <trkpt lat="37.716016000" lon="-4.948511000">
        <ele>183.7</ele>
        <time>2020-10-12T13:54:17Z</time>
      </trkpt>
      <trkpt lat="37.716110000" lon="-4.948472000">
        <ele>183.7</ele>
        <time>2020-10-12T13:54:20Z</time>
      </trkpt>
      <trkpt lat="37.716211000" lon="-4.948451000">
        <ele>183.8</ele>
        <time>2020-10-12T13:54:23Z</time>
      </trkpt>
      <trkpt lat="37.716314000" lon="-4.948433000">
        <ele>183.9</ele>
        <time>2020-10-12T13:54:26Z</time>
      </trkpt>
      <trkpt lat="37.716426000" lon="-4.948405000">
        <ele>184.0</ele>
        <time>2020-10-12T13:54:29Z</time>
      </trkpt>
      <trkpt lat="37.716509000" lon="-4.948392000">
        <ele>184.1</ele>
        <time>2020-10-12T13:54:31Z</time>
      </trkpt>
      <trkpt lat="37.716594000" lon="-4.948377000">
        <ele>184.3</ele>
        <time>2020-10-12T13:54:33Z</time>
      </trkpt>
      <trkpt lat="37.716683000" lon="-4.948370000">
        <ele>184.5</ele>
        <time>2020-10-12T13:54:35Z</time>
      </trkpt>
      <trkpt lat="37.716774000" lon="-4.948354000">
        <ele>184.6</ele>
        <time>2020-10-12T13:54:37Z</time>
      </trkpt>
      <trkpt lat="37.716866000" lon="-4.948335000">
        <ele>184.8</ele>
        <time>2020-10-12T13:54:39Z</time>
      </trkpt>
      <trkpt lat="37.716957000" lon="-4.948316000">
        <ele>184.9</ele>
        <time>2020-10-12T13:54:41Z</time>
      </trkpt>
      <trkpt lat="37.717049000" lon="-4.948287000">
        <ele>185.0</ele>
        <time>2020-10-12T13:54:43Z</time>
      </trkpt>
      <trkpt lat="37.717140000" lon="-4.948254000">
        <ele>185.0</ele>
        <time>2020-10-12T13:54:45Z</time>
      </trkpt>
      <trkpt lat="37.717231000" lon="-4.948218000">
        <ele>185.0</ele>
        <time>2020-10-12T13:54:47Z</time>
      </trkpt>
      <trkpt lat="37.717329000" lon="-4.948171000">
        <ele>185.1</ele>
        <time>2020-10-12T13:54:49Z</time>
      </trkpt>
      <trkpt lat="37.717415000" lon="-4.948140000">
        <ele>185.2</ele>
        <time>2020-10-12T13:54:51Z</time>
      </trkpt>
      <trkpt lat="37.717499000" lon="-4.948119000">
        <ele>185.3</ele>
        <time>2020-10-12T13:54:53Z</time>
      </trkpt>
      <trkpt lat="37.717586000" lon="-4.948101000">
        <ele>185.4</ele>
        <time>2020-10-12T13:54:55Z</time>
      </trkpt>
      <trkpt lat="37.717675000" lon="-4.948080000">
        <ele>185.5</ele>
        <time>2020-10-12T13:54:57Z</time>
      </trkpt>
      <trkpt lat="37.717770000" lon="-4.948056000">
        <ele>185.5</ele>
        <time>2020-10-12T13:54:59Z</time>
      </trkpt>
      <trkpt lat="37.717864000" lon="-4.948037000">
        <ele>185.6</ele>
        <time>2020-10-12T13:55:01Z</time>
      </trkpt>
      <trkpt lat="37.717955000" lon="-4.948008000">
        <ele>185.7</ele>
        <time>2020-10-12T13:55:03Z</time>
      </trkpt>
      <trkpt lat="37.718042000" lon="-4.947982000">
        <ele>185.7</ele>
        <time>2020-10-12T13:55:05Z</time>
      </trkpt>
      <trkpt lat="37.718132000" lon="-4.947947000">
        <ele>185.7</ele>
        <time>2020-10-12T13:55:07Z</time>
      </trkpt>
      <trkpt lat="37.718214000" lon="-4.947921000">
        <ele>185.7</ele>
        <time>2020-10-12T13:55:09Z</time>
      </trkpt>
      <trkpt lat="37.718293000" lon="-4.947902000">
        <ele>185.5</ele>
        <time>2020-10-12T13:55:11Z</time>
      </trkpt>
      <trkpt lat="37.718409000" lon="-4.947866000">
        <ele>185.4</ele>
        <time>2020-10-12T13:55:14Z</time>
      </trkpt>
      <trkpt lat="37.718524000" lon="-4.947826000">
        <ele>185.2</ele>
        <time>2020-10-12T13:55:17Z</time>
      </trkpt>
      <trkpt lat="37.718634000" lon="-4.947760000">
        <ele>185.0</ele>
        <time>2020-10-12T13:55:20Z</time>
      </trkpt>
      <trkpt lat="37.718738000" lon="-4.947693000">
        <ele>184.8</ele>
        <time>2020-10-12T13:55:23Z</time>
      </trkpt>
      <trkpt lat="37.718834000" lon="-4.947617000">
        <ele>184.6</ele>
        <time>2020-10-12T13:55:26Z</time>
      </trkpt>
      <trkpt lat="37.718938000" lon="-4.947537000">
        <ele>184.5</ele>
        <time>2020-10-12T13:55:29Z</time>
      </trkpt>
      <trkpt lat="37.719008000" lon="-4.947480000">
        <ele>184.3</ele>
        <time>2020-10-12T13:55:31Z</time>
      </trkpt>
      <trkpt lat="37.719077000" lon="-4.947423000">
        <ele>184.2</ele>
        <time>2020-10-12T13:55:33Z</time>
      </trkpt>
      <trkpt lat="37.719175000" lon="-4.947340000">
        <ele>184.2</ele>
        <time>2020-10-12T13:55:36Z</time>
      </trkpt>
      <trkpt lat="37.719265000" lon="-4.947248000">
        <ele>184.3</ele>
        <time>2020-10-12T13:55:39Z</time>
      </trkpt>
      <trkpt lat="37.719352000" lon="-4.947157000">
        <ele>184.5</ele>
        <time>2020-10-12T13:55:42Z</time>
      </trkpt>
      <trkpt lat="37.719434000" lon="-4.947068000">
        <ele>184.6</ele>
        <time>2020-10-12T13:55:45Z</time>
      </trkpt>
      <trkpt lat="37.719512000" lon="-4.946979000">
        <ele>184.8</ele>
        <time>2020-10-12T13:55:48Z</time>
      </trkpt>
      <trkpt lat="37.719597000" lon="-4.946890000">
        <ele>184.9</ele>
        <time>2020-10-12T13:55:51Z</time>
      </trkpt>
      <trkpt lat="37.719688000" lon="-4.946802000">
        <ele>184.9</ele>
        <time>2020-10-12T13:55:54Z</time>
      </trkpt>
      <trkpt lat="37.719774000" lon="-4.946720000">
        <ele>184.8</ele>
        <time>2020-10-12T13:55:57Z</time>
      </trkpt>
      <trkpt lat="37.719853000" lon="-4.946635000">
        <ele>184.6</ele>
        <time>2020-10-12T13:56:00Z</time>
      </trkpt>
      <trkpt lat="37.719934000" lon="-4.946567000">
        <ele>184.5</ele>
        <time>2020-10-12T13:56:03Z</time>
      </trkpt>
      <trkpt lat="37.720005000" lon="-4.946491000">
        <ele>184.2</ele>
        <time>2020-10-12T13:56:06Z</time>
      </trkpt>
      <trkpt lat="37.720073000" lon="-4.946431000">
        <ele>183.7</ele>
        <time>2020-10-12T13:56:08Z</time>
      </trkpt>
      <trkpt lat="37.720159000" lon="-4.946379000">
        <ele>183.2</ele>
        <time>2020-10-12T13:56:11Z</time>
      </trkpt>
      <trkpt lat="37.720245000" lon="-4.946312000">
        <ele>182.6</ele>
        <time>2020-10-12T13:56:16Z</time>
      </trkpt>
      <trkpt lat="37.720322000" lon="-4.946269000">
        <ele>182.1</ele>
        <time>2020-10-12T13:56:19Z</time>
      </trkpt>
      <trkpt lat="37.720409000" lon="-4.946195000">
        <ele>181.6</ele>
        <time>2020-10-12T13:56:23Z</time>
      </trkpt>
      <trkpt lat="37.720505000" lon="-4.946139000">
        <ele>181.3</ele>
        <time>2020-10-12T13:56:27Z</time>
      </trkpt>
      <trkpt lat="37.720576000" lon="-4.946088000">
        <ele>181.0</ele>
        <time>2020-10-12T13:56:30Z</time>
      </trkpt>
      <trkpt lat="37.720654000" lon="-4.946037000">
        <ele>180.8</ele>
        <time>2020-10-12T13:56:33Z</time>
      </trkpt>
      <trkpt lat="37.720739000" lon="-4.945992000">
        <ele>180.7</ele>
        <time>2020-10-12T13:56:36Z</time>
      </trkpt>
      <trkpt lat="37.720816000" lon="-4.945935000">
        <ele>180.5</ele>
        <time>2020-10-12T13:56:39Z</time>
      </trkpt>
      <trkpt lat="37.720896000" lon="-4.945885000">
        <ele>180.5</ele>
        <time>2020-10-12T13:56:42Z</time>
      </trkpt>
      <trkpt lat="37.720987000" lon="-4.945833000">
        <ele>180.5</ele>
        <time>2020-10-12T13:56:45Z</time>
      </trkpt>
      <trkpt lat="37.721079000" lon="-4.945774000">
        <ele>180.6</ele>
        <time>2020-10-12T13:56:48Z</time>
      </trkpt>
      <trkpt lat="37.721170000" lon="-4.945701000">
        <ele>180.8</ele>
        <time>2020-10-12T13:56:51Z</time>
      </trkpt>
      <trkpt lat="37.721273000" lon="-4.945645000">
        <ele>181.1</ele>
        <time>2020-10-12T13:56:54Z</time>
      </trkpt>
      <trkpt lat="37.721368000" lon="-4.945583000">
        <ele>181.4</ele>
        <time>2020-10-12T13:56:57Z</time>
      </trkpt>
      <trkpt lat="37.721460000" lon="-4.945523000">
        <ele>181.7</ele>
        <time>2020-10-12T13:57:00Z</time>
      </trkpt>
      <trkpt lat="37.721560000" lon="-4.945477000">
        <ele>182.2</ele>
        <time>2020-10-12T13:57:03Z</time>
      </trkpt>
      <trkpt lat="37.721657000" lon="-4.945419000">
        <ele>182.6</ele>
        <time>2020-10-12T13:57:06Z</time>
      </trkpt>
      <trkpt lat="37.721757000" lon="-4.945372000">
        <ele>183.1</ele>
        <time>2020-10-12T13:57:09Z</time>
      </trkpt>
      <trkpt lat="37.721855000" lon="-4.945312000">
        <ele>183.6</ele>
        <time>2020-10-12T13:57:12Z</time>
      </trkpt>
      <trkpt lat="37.721953000" lon="-4.945248000">
        <ele>184.3</ele>
        <time>2020-10-12T13:57:15Z</time>
      </trkpt>
      <trkpt lat="37.722044000" lon="-4.945203000">
        <ele>184.8</ele>
        <time>2020-10-12T13:57:18Z</time>
      </trkpt>
      <trkpt lat="37.722142000" lon="-4.945137000">
        <ele>185.4</ele>
        <time>2020-10-12T13:57:21Z</time>
      </trkpt>
      <trkpt lat="37.722218000" lon="-4.945090000">
        <ele>185.8</ele>
        <time>2020-10-12T13:57:23Z</time>
      </trkpt>
      <trkpt lat="37.722324000" lon="-4.945034000">
        <ele>186.2</ele>
        <time>2020-10-12T13:57:26Z</time>
      </trkpt>
      <trkpt lat="37.722430000" lon="-4.944968000">
        <ele>186.4</ele>
        <time>2020-10-12T13:57:29Z</time>
      </trkpt>
      <trkpt lat="37.722537000" lon="-4.944902000">
        <ele>186.5</ele>
        <time>2020-10-12T13:57:32Z</time>
      </trkpt>
      <trkpt lat="37.722612000" lon="-4.944861000">
        <ele>186.4</ele>
        <time>2020-10-12T13:57:34Z</time>
      </trkpt>
      <trkpt lat="37.722717000" lon="-4.944795000">
        <ele>186.3</ele>
        <time>2020-10-12T13:57:37Z</time>
      </trkpt>
      <trkpt lat="37.722819000" lon="-4.944730000">
        <ele>186.2</ele>
        <time>2020-10-12T13:57:40Z</time>
      </trkpt>
      <trkpt lat="37.722926000" lon="-4.944667000">
        <ele>186.1</ele>
        <time>2020-10-12T13:57:43Z</time>
      </trkpt>
      <trkpt lat="37.723034000" lon="-4.944599000">
        <ele>185.9</ele>
        <time>2020-10-12T13:57:46Z</time>
      </trkpt>
      <trkpt lat="37.723137000" lon="-4.944539000">
        <ele>185.7</ele>
        <time>2020-10-12T13:57:49Z</time>
      </trkpt>
      <trkpt lat="37.723241000" lon="-4.944477000">
        <ele>185.5</ele>
        <time>2020-10-12T13:57:52Z</time>
      </trkpt>
      <trkpt lat="37.723347000" lon="-4.944416000">
        <ele>185.4</ele>
        <time>2020-10-12T13:57:55Z</time>
      </trkpt>
      <trkpt lat="37.723453000" lon="-4.944344000">
        <ele>185.2</ele>
        <time>2020-10-12T13:57:58Z</time>
      </trkpt>
      <trkpt lat="37.723529000" lon="-4.944299000">
        <ele>185.1</ele>
        <time>2020-10-12T13:58:00Z</time>
      </trkpt>
      <trkpt lat="37.723603000" lon="-4.944249000">
        <ele>185.0</ele>
        <time>2020-10-12T13:58:02Z</time>
      </trkpt>
      <trkpt lat="37.723709000" lon="-4.944188000">
        <ele>185.1</ele>
        <time>2020-10-12T13:58:05Z</time>
      </trkpt>
      <trkpt lat="37.723813000" lon="-4.944121000">
        <ele>185.2</ele>
        <time>2020-10-12T13:58:08Z</time>
      </trkpt>
      <trkpt lat="37.723918000" lon="-4.944054000">
        <ele>185.3</ele>
        <time>2020-10-12T13:58:11Z</time>
      </trkpt>
      <trkpt lat="37.723991000" lon="-4.944010000">
        <ele>185.4</ele>
        <time>2020-10-12T13:58:13Z</time>
      </trkpt>
      <trkpt lat="37.724064000" lon="-4.943960000">
        <ele>185.5</ele>
        <time>2020-10-12T13:58:15Z</time>
      </trkpt>
      <trkpt lat="37.724167000" lon="-4.943883000">
        <ele>185.5</ele>
        <time>2020-10-12T13:58:18Z</time>
      </trkpt>
      <trkpt lat="37.724276000" lon="-4.943827000">
        <ele>185.6</ele>
        <time>2020-10-12T13:58:21Z</time>
      </trkpt>
      <trkpt lat="37.724348000" lon="-4.943778000">
        <ele>185.7</ele>
        <time>2020-10-12T13:58:23Z</time>
      </trkpt>
      <trkpt lat="37.724427000" lon="-4.943743000">
        <ele>185.7</ele>
        <time>2020-10-12T13:58:25Z</time>
      </trkpt>
      <trkpt lat="37.724507000" lon="-4.943707000">
        <ele>185.7</ele>
        <time>2020-10-12T13:58:27Z</time>
      </trkpt>
      <trkpt lat="37.724584000" lon="-4.943664000">
        <ele>185.6</ele>
        <time>2020-10-12T13:58:29Z</time>
      </trkpt>
      <trkpt lat="37.724664000" lon="-4.943626000">
        <ele>185.5</ele>
        <time>2020-10-12T13:58:31Z</time>
      </trkpt>
      <trkpt lat="37.724748000" lon="-4.943591000">
        <ele>185.3</ele>
        <time>2020-10-12T13:58:33Z</time>
      </trkpt>
      <trkpt lat="37.724840000" lon="-4.943554000">
        <ele>185.0</ele>
        <time>2020-10-12T13:58:35Z</time>
      </trkpt>
      <trkpt lat="37.724929000" lon="-4.943527000">
        <ele>184.7</ele>
        <time>2020-10-12T13:58:37Z</time>
      </trkpt>
      <trkpt lat="37.725020000" lon="-4.943492000">
        <ele>184.5</ele>
        <time>2020-10-12T13:58:39Z</time>
      </trkpt>
      <trkpt lat="37.725104000" lon="-4.943472000">
        <ele>184.2</ele>
        <time>2020-10-12T13:58:41Z</time>
      </trkpt>
      <trkpt lat="37.725191000" lon="-4.943445000">
        <ele>184.0</ele>
        <time>2020-10-12T13:58:43Z</time>
      </trkpt>
      <trkpt lat="37.725275000" lon="-4.943427000">
        <ele>183.9</ele>
        <time>2020-10-12T13:58:45Z</time>
      </trkpt>
      <trkpt lat="37.725361000" lon="-4.943406000">
        <ele>183.9</ele>
        <time>2020-10-12T13:58:47Z</time>
      </trkpt>
      <trkpt lat="37.725443000" lon="-4.943385000">
        <ele>183.9</ele>
        <time>2020-10-12T13:58:49Z</time>
      </trkpt>
      <trkpt lat="37.725561000" lon="-4.943355000">
        <ele>184.0</ele>
        <time>2020-10-12T13:58:52Z</time>
      </trkpt>
      <trkpt lat="37.725678000" lon="-4.943327000">
        <ele>184.1</ele>
        <time>2020-10-12T13:58:55Z</time>
      </trkpt>
      <trkpt lat="37.725798000" lon="-4.943302000">
        <ele>184.2</ele>
        <time>2020-10-12T13:58:58Z</time>
      </trkpt>
      <trkpt lat="37.725880000" lon="-4.943283000">
        <ele>184.4</ele>
        <time>2020-10-12T13:59:00Z</time>
      </trkpt>
      <trkpt lat="37.725961000" lon="-4.943262000">
        <ele>184.5</ele>
        <time>2020-10-12T13:59:02Z</time>
      </trkpt>
      <trkpt lat="37.726046000" lon="-4.943241000">
        <ele>184.7</ele>
        <time>2020-10-12T13:59:04Z</time>
      </trkpt>
      <trkpt lat="37.726134000" lon="-4.943221000">
        <ele>184.9</ele>
        <time>2020-10-12T13:59:06Z</time>
      </trkpt>
      <trkpt lat="37.726223000" lon="-4.943209000">
        <ele>185.0</ele>
        <time>2020-10-12T13:59:08Z</time>
      </trkpt>
      <trkpt lat="37.726314000" lon="-4.943185000">
        <ele>185.0</ele>
        <time>2020-10-12T13:59:10Z</time>
      </trkpt>
      <trkpt lat="37.726408000" lon="-4.943162000">
        <ele>185.1</ele>
        <time>2020-10-12T13:59:12Z</time>
      </trkpt>
      <trkpt lat="37.726503000" lon="-4.943146000">
        <ele>185.2</ele>
        <time>2020-10-12T13:59:14Z</time>
      </trkpt>
      <trkpt lat="37.726596000" lon="-4.943127000">
        <ele>185.3</ele>
        <time>2020-10-12T13:59:16Z</time>
      </trkpt>
      <trkpt lat="37.726690000" lon="-4.943103000">
        <ele>185.5</ele>
        <time>2020-10-12T13:59:18Z</time>
      </trkpt>
      <trkpt lat="37.726784000" lon="-4.943075000">
        <ele>185.5</ele>
        <time>2020-10-12T13:59:20Z</time>
      </trkpt>
      <trkpt lat="37.726879000" lon="-4.943052000">
        <ele>185.6</ele>
        <time>2020-10-12T13:59:22Z</time>
      </trkpt>
      <trkpt lat="37.726975000" lon="-4.943025000">
        <ele>185.7</ele>
        <time>2020-10-12T13:59:24Z</time>
      </trkpt>
      <trkpt lat="37.727078000" lon="-4.943003000">
        <ele>185.8</ele>
        <time>2020-10-12T13:59:26Z</time>
      </trkpt>
      <trkpt lat="37.727180000" lon="-4.942975000">
        <ele>185.9</ele>
        <time>2020-10-12T13:59:28Z</time>
      </trkpt>
      <trkpt lat="37.727280000" lon="-4.942952000">
        <ele>186.0</ele>
        <time>2020-10-12T13:59:30Z</time>
      </trkpt>
      <trkpt lat="37.727387000" lon="-4.942927000">
        <ele>186.1</ele>
        <time>2020-10-12T13:59:32Z</time>
      </trkpt>
      <trkpt lat="37.727492000" lon="-4.942903000">
        <ele>186.0</ele>
        <time>2020-10-12T13:59:34Z</time>
      </trkpt>
      <trkpt lat="37.727587000" lon="-4.942879000">
        <ele>185.9</ele>
        <time>2020-10-12T13:59:36Z</time>
      </trkpt>
      <trkpt lat="37.727684000" lon="-4.942858000">
        <ele>185.7</ele>
        <time>2020-10-12T13:59:38Z</time>
      </trkpt>
      <trkpt lat="37.727777000" lon="-4.942833000">
        <ele>185.4</ele>
        <time>2020-10-12T13:59:40Z</time>
      </trkpt>
      <trkpt lat="37.727864000" lon="-4.942794000">
        <ele>185.0</ele>
        <time>2020-10-12T13:59:42Z</time>
      </trkpt>
      <trkpt lat="37.727956000" lon="-4.942774000">
        <ele>184.5</ele>
        <time>2020-10-12T13:59:44Z</time>
      </trkpt>
      <trkpt lat="37.728047000" lon="-4.942752000">
        <ele>184.0</ele>
        <time>2020-10-12T13:59:46Z</time>
      </trkpt>
      <trkpt lat="37.728136000" lon="-4.942733000">
        <ele>183.4</ele>
        <time>2020-10-12T13:59:48Z</time>
      </trkpt>
      <trkpt lat="37.728225000" lon="-4.942718000">
        <ele>182.6</ele>
        <time>2020-10-12T13:59:50Z</time>
      </trkpt>
      <trkpt lat="37.728316000" lon="-4.942694000">
        <ele>181.9</ele>
        <time>2020-10-12T13:59:52Z</time>
      </trkpt>
      <trkpt lat="37.728412000" lon="-4.942679000">
        <ele>181.2</ele>
        <time>2020-10-12T13:59:54Z</time>
      </trkpt>
      <trkpt lat="37.728511000" lon="-4.942654000">
        <ele>180.5</ele>
        <time>2020-10-12T13:59:56Z</time>
      </trkpt>
      <trkpt lat="37.728601000" lon="-4.942629000">
        <ele>179.9</ele>
        <time>2020-10-12T13:59:58Z</time>
      </trkpt>
      <trkpt lat="37.728686000" lon="-4.942602000">
        <ele>179.4</ele>
        <time>2020-10-12T14:00:00Z</time>
      </trkpt>
      <trkpt lat="37.728769000" lon="-4.942578000">
        <ele>178.9</ele>
        <time>2020-10-12T14:00:02Z</time>
      </trkpt>
      <trkpt lat="37.728883000" lon="-4.942551000">
        <ele>178.6</ele>
        <time>2020-10-12T14:00:05Z</time>
      </trkpt>
      <trkpt lat="37.728988000" lon="-4.942523000">
        <ele>178.5</ele>
        <time>2020-10-12T14:00:08Z</time>
      </trkpt>
      <trkpt lat="37.729079000" lon="-4.942483000">
        <ele>178.6</ele>
        <time>2020-10-12T14:00:11Z</time>
      </trkpt>
      <trkpt lat="37.729184000" lon="-4.942460000">
        <ele>178.8</ele>
        <time>2020-10-12T14:00:14Z</time>
      </trkpt>
      <trkpt lat="37.729304000" lon="-4.942433000">
        <ele>179.2</ele>
        <time>2020-10-12T14:00:17Z</time>
      </trkpt>
      <trkpt lat="37.729419000" lon="-4.942407000">
        <ele>179.6</ele>
        <time>2020-10-12T14:00:20Z</time>
      </trkpt>
      <trkpt lat="37.729539000" lon="-4.942388000">
        <ele>180.2</ele>
        <time>2020-10-12T14:00:23Z</time>
      </trkpt>
      <trkpt lat="37.729624000" lon="-4.942374000">
        <ele>180.7</ele>
        <time>2020-10-12T14:00:25Z</time>
      </trkpt>
      <trkpt lat="37.729711000" lon="-4.942359000">
        <ele>181.3</ele>
        <time>2020-10-12T14:00:27Z</time>
      </trkpt>
      <trkpt lat="37.729794000" lon="-4.942346000">
        <ele>181.8</ele>
        <time>2020-10-12T14:00:29Z</time>
      </trkpt>
      <trkpt lat="37.729909000" lon="-4.942330000">
        <ele>182.3</ele>
        <time>2020-10-12T14:00:32Z</time>
      </trkpt>
      <trkpt lat="37.730023000" lon="-4.942314000">
        <ele>182.5</ele>
        <time>2020-10-12T14:00:35Z</time>
      </trkpt>
      <trkpt lat="37.730122000" lon="-4.942278000">
        <ele>182.7</ele>
        <time>2020-10-12T14:00:38Z</time>
      </trkpt>
      <trkpt lat="37.730216000" lon="-4.942246000">
        <ele>182.8</ele>
        <time>2020-10-12T14:00:41Z</time>
      </trkpt>
      <trkpt lat="37.730328000" lon="-4.942234000">
        <ele>182.9</ele>
        <time>2020-10-12T14:00:44Z</time>
      </trkpt>
      <trkpt lat="37.730432000" lon="-4.942225000">
        <ele>183.0</ele>
        <time>2020-10-12T14:00:47Z</time>
      </trkpt>
      <trkpt lat="37.730520000" lon="-4.942195000">
        <ele>183.1</ele>
        <time>2020-10-12T14:00:50Z</time>
      </trkpt>
      <trkpt lat="37.730615000" lon="-4.942161000">
        <ele>183.2</ele>
        <time>2020-10-12T14:00:53Z</time>
      </trkpt>
      <trkpt lat="37.730696000" lon="-4.942139000">
        <ele>183.3</ele>
        <time>2020-10-12T14:00:55Z</time>
      </trkpt>
      <trkpt lat="37.730810000" lon="-4.942116000">
        <ele>183.5</ele>
        <time>2020-10-12T14:00:58Z</time>
      </trkpt>
      <trkpt lat="37.730905000" lon="-4.942091000">
        <ele>183.6</ele>
        <time>2020-10-12T14:01:01Z</time>
      </trkpt>
      <trkpt lat="37.731011000" lon="-4.942071000">
        <ele>183.9</ele>
        <time>2020-10-12T14:01:04Z</time>
      </trkpt>
      <trkpt lat="37.731115000" lon="-4.942034000">
        <ele>184.4</ele>
        <time>2020-10-12T14:01:07Z</time>
      </trkpt>
      <trkpt lat="37.731209000" lon="-4.942005000">
        <ele>184.8</ele>
        <time>2020-10-12T14:01:10Z</time>
      </trkpt>
      <trkpt lat="37.731289000" lon="-4.941980000">
        <ele>185.3</ele>
        <time>2020-10-12T14:01:13Z</time>
      </trkpt>
      <trkpt lat="37.731379000" lon="-4.941951000">
        <ele>185.8</ele>
        <time>2020-10-12T14:01:16Z</time>
      </trkpt>
      <trkpt lat="37.731465000" lon="-4.941947000">
        <ele>186.3</ele>
        <time>2020-10-12T14:01:19Z</time>
      </trkpt>
      <trkpt lat="37.731549000" lon="-4.941918000">
        <ele>186.6</ele>
        <time>2020-10-12T14:01:22Z</time>
      </trkpt>
      <trkpt lat="37.731643000" lon="-4.941884000">
        <ele>186.9</ele>
        <time>2020-10-12T14:01:25Z</time>
      </trkpt>
      <trkpt lat="37.731753000" lon="-4.941839000">
        <ele>187.1</ele>
        <time>2020-10-12T14:01:28Z</time>
      </trkpt>
      <trkpt lat="37.731835000" lon="-4.941802000">
        <ele>187.2</ele>
        <time>2020-10-12T14:01:30Z</time>
      </trkpt>
      <trkpt lat="37.731912000" lon="-4.941766000">
        <ele>187.2</ele>
        <time>2020-10-12T14:01:32Z</time>
      </trkpt>
      <trkpt lat="37.731988000" lon="-4.941720000">
        <ele>187.2</ele>
        <time>2020-10-12T14:01:34Z</time>
      </trkpt>
      <trkpt lat="37.732068000" lon="-4.941671000">
        <ele>187.0</ele>
        <time>2020-10-12T14:01:36Z</time>
      </trkpt>
      <trkpt lat="37.732151000" lon="-4.941613000">
        <ele>186.8</ele>
        <time>2020-10-12T14:01:38Z</time>
      </trkpt>
      <trkpt lat="37.732229000" lon="-4.941543000">
        <ele>186.6</ele>
        <time>2020-10-12T14:01:40Z</time>
      </trkpt>
      <trkpt lat="37.732302000" lon="-4.941481000">
        <ele>186.4</ele>
        <time>2020-10-12T14:01:42Z</time>
      </trkpt>
      <trkpt lat="37.732375000" lon="-4.941419000">
        <ele>186.1</ele>
        <time>2020-10-12T14:01:44Z</time>
      </trkpt>
      <trkpt lat="37.732447000" lon="-4.941354000">
        <ele>185.8</ele>
        <time>2020-10-12T14:01:46Z</time>
      </trkpt>
      <trkpt lat="37.732514000" lon="-4.941288000">
        <ele>185.6</ele>
        <time>2020-10-12T14:01:48Z</time>
      </trkpt>
      <trkpt lat="37.732579000" lon="-4.941226000">
        <ele>185.5</ele>
        <time>2020-10-12T14:01:50Z</time>
      </trkpt>
      <trkpt lat="37.732670000" lon="-4.941126000">
        <ele>185.5</ele>
        <time>2020-10-12T14:01:53Z</time>
      </trkpt>
      <trkpt lat="37.732731000" lon="-4.941058000">
        <ele>185.5</ele>
        <time>2020-10-12T14:01:55Z</time>
      </trkpt>
      <trkpt lat="37.732791000" lon="-4.940989000">
        <ele>185.5</ele>
        <time>2020-10-12T14:01:57Z</time>
      </trkpt>
      <trkpt lat="37.732847000" lon="-4.940914000">
        <ele>185.5</ele>
        <time>2020-10-12T14:01:59Z</time>
      </trkpt>
      <trkpt lat="37.732902000" lon="-4.940836000">
        <ele>185.5</ele>
        <time>2020-10-12T14:02:01Z</time>
      </trkpt>
      <trkpt lat="37.732960000" lon="-4.940759000">
        <ele>185.5</ele>
        <time>2020-10-12T14:02:03Z</time>
      </trkpt>
      <trkpt lat="37.733015000" lon="-4.940684000">
        <ele>185.5</ele>
        <time>2020-10-12T14:02:05Z</time>
      </trkpt>
      <trkpt lat="37.733087000" lon="-4.940564000">
        <ele>185.5</ele>
        <time>2020-10-12T14:02:08Z</time>
      </trkpt>
      <trkpt lat="37.733155000" lon="-4.940443000">
        <ele>185.5</ele>
        <time>2020-10-12T14:02:11Z</time>
      </trkpt>
      <trkpt lat="37.733221000" lon="-4.940323000">
        <ele>185.4</ele>
        <time>2020-10-12T14:02:14Z</time>
      </trkpt>
      <trkpt lat="37.733280000" lon="-4.940204000">
        <ele>185.2</ele>
        <time>2020-10-12T14:02:17Z</time>
      </trkpt>
      <trkpt lat="37.733323000" lon="-4.940098000">
        <ele>184.9</ele>
        <time>2020-10-12T14:02:20Z</time>
      </trkpt>
      <trkpt lat="37.733356000" lon="-4.939994000">
        <ele>184.5</ele>
        <time>2020-10-12T14:02:23Z</time>
      </trkpt>
      <trkpt lat="37.733391000" lon="-4.939891000">
        <ele>184.1</ele>
        <time>2020-10-12T14:02:26Z</time>
      </trkpt>
      <trkpt lat="37.733419000" lon="-4.939778000">
        <ele>183.5</ele>
        <time>2020-10-12T14:02:30Z</time>
      </trkpt>
      <trkpt lat="37.733442000" lon="-4.939675000">
        <ele>183.1</ele>
        <time>2020-10-12T14:02:35Z</time>
      </trkpt>
      <trkpt lat="37.733457000" lon="-4.939562000">
        <ele>182.5</ele>
        <time>2020-10-12T14:02:40Z</time>
      </trkpt>
      <trkpt lat="37.733452000" lon="-4.939436000">
        <ele>181.9</ele>
        <time>2020-10-12T14:03:07Z</time>
      </trkpt>
      <trkpt lat="37.733469000" lon="-4.939332000">
        <ele>181.2</ele>
        <time>2020-10-12T14:03:12Z</time>
      </trkpt>
      <trkpt lat="37.733490000" lon="-4.939198000">
        <ele>180.5</ele>
        <time>2020-10-12T14:03:13Z</time>
      </trkpt>
      <trkpt lat="37.733502000" lon="-4.939085000">
        <ele>179.9</ele>
        <time>2020-10-12T14:03:15Z</time>
      </trkpt>
      <trkpt lat="37.733515000" lon="-4.938957000">
        <ele>179.4</ele>
        <time>2020-10-12T14:03:17Z</time>
      </trkpt>
      <trkpt lat="37.733529000" lon="-4.938827000">
        <ele>179.0</ele>
        <time>2020-10-12T14:03:19Z</time>
      </trkpt>
      <trkpt lat="37.733541000" lon="-4.938695000">
        <ele>178.8</ele>
        <time>2020-10-12T14:03:21Z</time>
      </trkpt>
      <trkpt lat="37.733555000" lon="-4.938560000">
        <ele>178.7</ele>
        <time>2020-10-12T14:03:23Z</time>
      </trkpt>
      <trkpt lat="37.733562000" lon="-4.938431000">
        <ele>178.8</ele>
        <time>2020-10-12T14:03:25Z</time>
      </trkpt>
      <trkpt lat="37.733568000" lon="-4.938305000">
        <ele>178.9</ele>
        <time>2020-10-12T14:03:27Z</time>
      </trkpt>
      <trkpt lat="37.733573000" lon="-4.938190000">
        <ele>179.0</ele>
        <time>2020-10-12T14:03:29Z</time>
      </trkpt>
      <trkpt lat="37.733570000" lon="-4.938076000">
        <ele>179.2</ele>
        <time>2020-10-12T14:03:31Z</time>
      </trkpt>
      <trkpt lat="37.733572000" lon="-4.937962000">
        <ele>179.4</ele>
        <time>2020-10-12T14:03:33Z</time>
      </trkpt>
      <trkpt lat="37.733566000" lon="-4.937853000">
        <ele>179.5</ele>
        <time>2020-10-12T14:03:35Z</time>
      </trkpt>
      <trkpt lat="37.733557000" lon="-4.937746000">
        <ele>179.5</ele>
        <time>2020-10-12T14:03:37Z</time>
      </trkpt>
      <trkpt lat="37.733543000" lon="-4.937632000">
        <ele>179.5</ele>
        <time>2020-10-12T14:03:39Z</time>
      </trkpt>
      <trkpt lat="37.733526000" lon="-4.937514000">
        <ele>179.4</ele>
        <time>2020-10-12T14:03:41Z</time>
      </trkpt>
      <trkpt lat="37.733508000" lon="-4.937398000">
        <ele>179.0</ele>
        <time>2020-10-12T14:03:43Z</time>
      </trkpt>
      <trkpt lat="37.733487000" lon="-4.937288000">
        <ele>178.5</ele>
        <time>2020-10-12T14:03:45Z</time>
      </trkpt>
      <trkpt lat="37.733460000" lon="-4.937174000">
        <ele>178.0</ele>
        <time>2020-10-12T14:03:47Z</time>
      </trkpt>
      <trkpt lat="37.733436000" lon="-4.937067000">
        <ele>177.5</ele>
        <time>2020-10-12T14:03:49Z</time>
      </trkpt>
      <trkpt lat="37.733405000" lon="-4.936963000">
        <ele>177.0</ele>
        <time>2020-10-12T14:03:51Z</time>
      </trkpt>
      <trkpt lat="37.733378000" lon="-4.936864000">
        <ele>176.5</ele>
        <time>2020-10-12T14:03:53Z</time>
      </trkpt>
      <trkpt lat="37.733342000" lon="-4.936768000">
        <ele>176.2</ele>
        <time>2020-10-12T14:03:55Z</time>
      </trkpt>
      <trkpt lat="37.733305000" lon="-4.936668000">
        <ele>175.9</ele>
        <time>2020-10-12T14:03:57Z</time>
      </trkpt>
      <trkpt lat="37.733267000" lon="-4.936570000">
        <ele>175.7</ele>
        <time>2020-10-12T14:03:59Z</time>
      </trkpt>
      <trkpt lat="37.733225000" lon="-4.936477000">
        <ele>175.5</ele>
        <time>2020-10-12T14:04:01Z</time>
      </trkpt>
      <trkpt lat="37.733185000" lon="-4.936362000">
        <ele>175.4</ele>
        <time>2020-10-12T14:04:04Z</time>
      </trkpt>
      <trkpt lat="37.733141000" lon="-4.936263000">
        <ele>175.3</ele>
        <time>2020-10-12T14:04:49Z</time>
      </trkpt>
      <trkpt lat="37.733086000" lon="-4.936140000">
        <ele>175.2</ele>
        <time>2020-10-12T14:04:52Z</time>
      </trkpt>
      <trkpt lat="37.733043000" lon="-4.936045000">
        <ele>175.0</ele>
        <time>2020-10-12T14:04:54Z</time>
      </trkpt>
      <trkpt lat="37.733005000" lon="-4.935949000">
        <ele>174.7</ele>
        <time>2020-10-12T14:04:56Z</time>
      </trkpt>
      <trkpt lat="37.732965000" lon="-4.935857000">
        <ele>174.5</ele>
        <time>2020-10-12T14:04:58Z</time>
      </trkpt>
      <trkpt lat="37.732926000" lon="-4.935765000">
        <ele>174.1</ele>
        <time>2020-10-12T14:05:00Z</time>
      </trkpt>
      <trkpt lat="37.732884000" lon="-4.935678000">
        <ele>173.6</ele>
        <time>2020-10-12T14:05:02Z</time>
      </trkpt>
      <trkpt lat="37.732824000" lon="-4.935548000">
        <ele>173.1</ele>
        <time>2020-10-12T14:05:05Z</time>
      </trkpt>
      <trkpt lat="37.732763000" lon="-4.935421000">
        <ele>172.5</ele>
        <time>2020-10-12T14:05:08Z</time>
      </trkpt>
      <trkpt lat="37.732725000" lon="-4.935327000">
        <ele>171.8</ele>
        <time>2020-10-12T14:05:10Z</time>
      </trkpt>
      <trkpt lat="37.732682000" lon="-4.935229000">
        <ele>171.2</ele>
        <time>2020-10-12T14:05:12Z</time>
      </trkpt>
      <trkpt lat="37.732633000" lon="-4.935127000">
        <ele>170.6</ele>
        <time>2020-10-12T14:05:14Z</time>
      </trkpt>
      <trkpt lat="37.732582000" lon="-4.935029000">
        <ele>170.2</ele>
        <time>2020-10-12T14:05:16Z</time>
      </trkpt>
      <trkpt lat="37.732533000" lon="-4.934927000">
        <ele>169.8</ele>
        <time>2020-10-12T14:05:18Z</time>
      </trkpt>
      <trkpt lat="37.732480000" lon="-4.934812000">
        <ele>169.6</ele>
        <time>2020-10-12T14:05:20Z</time>
      </trkpt>
      <trkpt lat="37.732432000" lon="-4.934700000">
        <ele>169.5</ele>
        <time>2020-10-12T14:05:22Z</time>
      </trkpt>
      <trkpt lat="37.732375000" lon="-4.934582000">
        <ele>169.5</ele>
        <time>2020-10-12T14:05:24Z</time>
      </trkpt>
      <trkpt lat="37.732329000" lon="-4.934480000">
        <ele>169.6</ele>
        <time>2020-10-12T14:05:26Z</time>
      </trkpt>
      <trkpt lat="37.732280000" lon="-4.934382000">
        <ele>169.7</ele>
        <time>2020-10-12T14:05:28Z</time>
      </trkpt>
      <trkpt lat="37.732234000" lon="-4.934281000">
        <ele>169.8</ele>
        <time>2020-10-12T14:05:30Z</time>
      </trkpt>
      <trkpt lat="37.732188000" lon="-4.934172000">
        <ele>169.8</ele>
        <time>2020-10-12T14:05:32Z</time>
      </trkpt>
      <trkpt lat="37.732147000" lon="-4.934056000">
        <ele>169.9</ele>
        <time>2020-10-12T14:05:34Z</time>
      </trkpt>
      <trkpt lat="37.732103000" lon="-4.933943000">
        <ele>169.9</ele>
        <time>2020-10-12T14:05:36Z</time>
      </trkpt>
      <trkpt lat="37.732063000" lon="-4.933819000">
        <ele>169.9</ele>
        <time>2020-10-12T14:05:38Z</time>
      </trkpt>
      <trkpt lat="37.732015000" lon="-4.933698000">
        <ele>169.9</ele>
        <time>2020-10-12T14:05:40Z</time>
      </trkpt>
      <trkpt lat="37.731974000" lon="-4.933580000">
        <ele>169.8</ele>
        <time>2020-10-12T14:05:42Z</time>
      </trkpt>
      <trkpt lat="37.731930000" lon="-4.933457000">
        <ele>169.6</ele>
        <time>2020-10-12T14:05:44Z</time>
      </trkpt>
      <trkpt lat="37.731893000" lon="-4.933333000">
        <ele>169.5</ele>
        <time>2020-10-12T14:05:46Z</time>
      </trkpt>
      <trkpt lat="37.731851000" lon="-4.933214000">
        <ele>169.4</ele>
        <time>2020-10-12T14:05:48Z</time>
      </trkpt>
      <trkpt lat="37.731817000" lon="-4.933090000">
        <ele>169.3</ele>
        <time>2020-10-12T14:05:50Z</time>
      </trkpt>
      <trkpt lat="37.731788000" lon="-4.932959000">
        <ele>169.2</ele>
        <time>2020-10-12T14:05:52Z</time>
      </trkpt>
      <trkpt lat="37.731767000" lon="-4.932843000">
        <ele>169.1</ele>
        <time>2020-10-12T14:05:54Z</time>
      </trkpt>
      <trkpt lat="37.731727000" lon="-4.932715000">
        <ele>168.9</ele>
        <time>2020-10-12T14:05:56Z</time>
      </trkpt>
      <trkpt lat="37.731690000" lon="-4.932594000">
        <ele>168.6</ele>
        <time>2020-10-12T14:05:58Z</time>
      </trkpt>
      <trkpt lat="37.731671000" lon="-4.932460000">
        <ele>168.3</ele>
        <time>2020-10-12T14:06:00Z</time>
      </trkpt>
      <trkpt lat="37.731648000" lon="-4.932329000">
        <ele>167.9</ele>
        <time>2020-10-12T14:06:02Z</time>
      </trkpt>
      <trkpt lat="37.731632000" lon="-4.932198000">
        <ele>167.5</ele>
        <time>2020-10-12T14:06:04Z</time>
      </trkpt>
      <trkpt lat="37.731614000" lon="-4.932066000">
        <ele>167.1</ele>
        <time>2020-10-12T14:06:06Z</time>
      </trkpt>
      <trkpt lat="37.731604000" lon="-4.931935000">
        <ele>166.6</ele>
        <time>2020-10-12T14:06:08Z</time>
      </trkpt>
      <trkpt lat="37.731593000" lon="-4.931812000">
        <ele>166.1</ele>
        <time>2020-10-12T14:06:10Z</time>
      </trkpt>
      <trkpt lat="37.731587000" lon="-4.931680000">
        <ele>165.5</ele>
        <time>2020-10-12T14:06:12Z</time>
      </trkpt>
      <trkpt lat="37.731573000" lon="-4.931551000">
        <ele>165.1</ele>
        <time>2020-10-12T14:06:14Z</time>
      </trkpt>
      <trkpt lat="37.731556000" lon="-4.931428000">
        <ele>164.8</ele>
        <time>2020-10-12T14:06:16Z</time>
      </trkpt>
      <trkpt lat="37.731542000" lon="-4.931307000">
        <ele>164.7</ele>
        <time>2020-10-12T14:06:18Z</time>
      </trkpt>
      <trkpt lat="37.731525000" lon="-4.931178000">
        <ele>164.8</ele>
        <time>2020-10-12T14:06:20Z</time>
      </trkpt>
      <trkpt lat="37.731513000" lon="-4.931060000">
        <ele>165.1</ele>
        <time>2020-10-12T14:06:22Z</time>
      </trkpt>
      <trkpt lat="37.731494000" lon="-4.930940000">
        <ele>165.5</ele>
        <time>2020-10-12T14:06:24Z</time>
      </trkpt>
      <trkpt lat="37.731476000" lon="-4.930828000">
        <ele>165.9</ele>
        <time>2020-10-12T14:06:26Z</time>
      </trkpt>
      <trkpt lat="37.731451000" lon="-4.930727000">
        <ele>166.5</ele>
        <time>2020-10-12T14:06:28Z</time>
      </trkpt>
      <trkpt lat="37.731444000" lon="-4.930587000">
        <ele>167.2</ele>
        <time>2020-10-12T14:06:31Z</time>
      </trkpt>
      <trkpt lat="37.731450000" lon="-4.930441000">
        <ele>167.8</ele>
        <time>2020-10-12T14:06:34Z</time>
      </trkpt>
      <trkpt lat="37.731462000" lon="-4.930304000">
        <ele>168.5</ele>
        <time>2020-10-12T14:06:37Z</time>
      </trkpt>
      <trkpt lat="37.731459000" lon="-4.930172000">
        <ele>169.1</ele>
        <time>2020-10-12T14:06:40Z</time>
      </trkpt>
      <trkpt lat="37.731443000" lon="-4.930047000">
        <ele>169.6</ele>
        <time>2020-10-12T14:06:43Z</time>
      </trkpt>
      <trkpt lat="37.731437000" lon="-4.929942000">
        <ele>170.1</ele>
        <time>2020-10-12T14:06:46Z</time>
      </trkpt>
      <trkpt lat="37.731436000" lon="-4.929806000">
        <ele>170.5</ele>
        <time>2020-10-12T14:06:49Z</time>
      </trkpt>
      <trkpt lat="37.731427000" lon="-4.929649000">
        <ele>170.8</ele>
        <time>2020-10-12T14:06:52Z</time>
      </trkpt>
      <trkpt lat="37.731416000" lon="-4.929530000">
        <ele>171.1</ele>
        <time>2020-10-12T14:06:54Z</time>
      </trkpt>
      <trkpt lat="37.731405000" lon="-4.929402000">
        <ele>171.2</ele>
        <time>2020-10-12T14:06:56Z</time>
      </trkpt>
      <trkpt lat="37.731395000" lon="-4.929269000">
        <ele>171.2</ele>
        <time>2020-10-12T14:06:58Z</time>
      </trkpt>
      <trkpt lat="37.731374000" lon="-4.929134000">
        <ele>171.2</ele>
        <time>2020-10-12T14:07:00Z</time>
      </trkpt>
      <trkpt lat="37.731352000" lon="-4.929001000">
        <ele>171.1</ele>
        <time>2020-10-12T14:07:02Z</time>
      </trkpt>
      <trkpt lat="37.731331000" lon="-4.928864000">
        <ele>171.0</ele>
        <time>2020-10-12T14:07:04Z</time>
      </trkpt>
      <trkpt lat="37.731320000" lon="-4.928729000">
        <ele>170.8</ele>
        <time>2020-10-12T14:07:06Z</time>
      </trkpt>
      <trkpt lat="37.731310000" lon="-4.928589000">
        <ele>170.5</ele>
        <time>2020-10-12T14:07:08Z</time>
      </trkpt>
      <trkpt lat="37.731301000" lon="-4.928452000">
        <ele>170.3</ele>
        <time>2020-10-12T14:07:10Z</time>
      </trkpt>
      <trkpt lat="37.731284000" lon="-4.928311000">
        <ele>169.9</ele>
        <time>2020-10-12T14:07:12Z</time>
      </trkpt>
      <trkpt lat="37.731269000" lon="-4.928174000">
        <ele>169.5</ele>
        <time>2020-10-12T14:07:14Z</time>
      </trkpt>
      <trkpt lat="37.731241000" lon="-4.928050000">
        <ele>168.9</ele>
        <time>2020-10-12T14:07:16Z</time>
      </trkpt>
      <trkpt lat="37.731223000" lon="-4.927918000">
        <ele>168.3</ele>
        <time>2020-10-12T14:07:18Z</time>
      </trkpt>
      <trkpt lat="37.731205000" lon="-4.927785000">
        <ele>167.5</ele>
        <time>2020-10-12T14:07:20Z</time>
      </trkpt>
      <trkpt lat="37.731186000" lon="-4.927658000">
        <ele>166.7</ele>
        <time>2020-10-12T14:07:22Z</time>
      </trkpt>
      <trkpt lat="37.731176000" lon="-4.927531000">
        <ele>165.9</ele>
        <time>2020-10-12T14:07:24Z</time>
      </trkpt>
      <trkpt lat="37.731165000" lon="-4.927401000">
        <ele>164.9</ele>
        <time>2020-10-12T14:07:26Z</time>
      </trkpt>
      <trkpt lat="37.731153000" lon="-4.927258000">
        <ele>163.9</ele>
        <time>2020-10-12T14:07:28Z</time>
      </trkpt>
      <trkpt lat="37.731148000" lon="-4.927114000">
        <ele>163.0</ele>
        <time>2020-10-12T14:07:30Z</time>
      </trkpt>
      <trkpt lat="37.731138000" lon="-4.926978000">
        <ele>162.1</ele>
        <time>2020-10-12T14:07:32Z</time>
      </trkpt>
      <trkpt lat="37.731137000" lon="-4.926841000">
        <ele>161.3</ele>
        <time>2020-10-12T14:07:34Z</time>
      </trkpt>
      <trkpt lat="37.731140000" lon="-4.926699000">
        <ele>160.4</ele>
        <time>2020-10-12T14:07:36Z</time>
      </trkpt>
      <trkpt lat="37.731156000" lon="-4.926555000">
        <ele>159.5</ele>
        <time>2020-10-12T14:07:38Z</time>
      </trkpt>
      <trkpt lat="37.731173000" lon="-4.926417000">
        <ele>158.8</ele>
        <time>2020-10-12T14:07:40Z</time>
      </trkpt>
      <trkpt lat="37.731190000" lon="-4.926273000">
        <ele>158.1</ele>
        <time>2020-10-12T14:07:42Z</time>
      </trkpt>
      <trkpt lat="37.731218000" lon="-4.926129000">
        <ele>157.5</ele>
        <time>2020-10-12T14:07:44Z</time>
      </trkpt>
      <trkpt lat="37.731246000" lon="-4.925988000">
        <ele>156.9</ele>
        <time>2020-10-12T14:07:46Z</time>
      </trkpt>
      <trkpt lat="37.731280000" lon="-4.925846000">
        <ele>156.5</ele>
        <time>2020-10-12T14:07:48Z</time>
      </trkpt>
      <trkpt lat="37.731320000" lon="-4.925701000">
        <ele>156.1</ele>
        <time>2020-10-12T14:07:50Z</time>
      </trkpt>
      <trkpt lat="37.731362000" lon="-4.925557000">
        <ele>155.7</ele>
        <time>2020-10-12T14:07:52Z</time>
      </trkpt>
      <trkpt lat="37.731410000" lon="-4.925418000">
        <ele>155.3</ele>
        <time>2020-10-12T14:07:54Z</time>
      </trkpt>
      <trkpt lat="37.731460000" lon="-4.925281000">
        <ele>154.8</ele>
        <time>2020-10-12T14:07:56Z</time>
      </trkpt>
      <trkpt lat="37.731512000" lon="-4.925142000">
        <ele>154.5</ele>
        <time>2020-10-12T14:07:58Z</time>
      </trkpt>
      <trkpt lat="37.731574000" lon="-4.925007000">
        <ele>154.1</ele>
        <time>2020-10-12T14:08:00Z</time>
      </trkpt>
      <trkpt lat="37.731641000" lon="-4.924873000">
        <ele>153.8</ele>
        <time>2020-10-12T14:08:02Z</time>
      </trkpt>
      <trkpt lat="37.731707000" lon="-4.924750000">
        <ele>153.6</ele>
        <time>2020-10-12T14:08:04Z</time>
      </trkpt>
      <trkpt lat="37.731771000" lon="-4.924634000">
        <ele>153.5</ele>
        <time>2020-10-12T14:08:06Z</time>
      </trkpt>
      <trkpt lat="37.731837000" lon="-4.924520000">
        <ele>153.5</ele>
        <time>2020-10-12T14:08:08Z</time>
      </trkpt>
      <trkpt lat="37.731907000" lon="-4.924411000">
        <ele>153.5</ele>
        <time>2020-10-12T14:08:10Z</time>
      </trkpt>
      <trkpt lat="37.731979000" lon="-4.924310000">
        <ele>153.5</ele>
        <time>2020-10-12T14:08:12Z</time>
      </trkpt>
      <trkpt lat="37.732054000" lon="-4.924204000">
        <ele>153.5</ele>
        <time>2020-10-12T14:08:14Z</time>
      </trkpt>
      <trkpt lat="37.732132000" lon="-4.924105000">
        <ele>153.6</ele>
        <time>2020-10-12T14:08:16Z</time>
      </trkpt>
      <trkpt lat="37.732205000" lon="-4.924013000">
        <ele>153.7</ele>
        <time>2020-10-12T14:08:18Z</time>
      </trkpt>
      <trkpt lat="37.732277000" lon="-4.923933000">
        <ele>153.7</ele>
        <time>2020-10-12T14:08:20Z</time>
      </trkpt>
      <trkpt lat="37.732353000" lon="-4.923857000">
        <ele>153.7</ele>
        <time>2020-10-12T14:08:22Z</time>
      </trkpt>
      <trkpt lat="37.732429000" lon="-4.923771000">
        <ele>153.6</ele>
        <time>2020-10-12T14:08:24Z</time>
      </trkpt>
      <trkpt lat="37.732515000" lon="-4.923696000">
        <ele>153.5</ele>
        <time>2020-10-12T14:08:26Z</time>
      </trkpt>
      <trkpt lat="37.732596000" lon="-4.923631000">
        <ele>153.4</ele>
        <time>2020-10-12T14:08:28Z</time>
      </trkpt>
      <trkpt lat="37.732681000" lon="-4.923568000">
        <ele>153.2</ele>
        <time>2020-10-12T14:08:30Z</time>
      </trkpt>
      <trkpt lat="37.732759000" lon="-4.923516000">
        <ele>153.1</ele>
        <time>2020-10-12T14:08:32Z</time>
      </trkpt>
      <trkpt lat="37.732831000" lon="-4.923462000">
        <ele>152.9</ele>
        <time>2020-10-12T14:08:34Z</time>
      </trkpt>
      <trkpt lat="37.732939000" lon="-4.923400000">
        <ele>152.9</ele>
        <time>2020-10-12T14:08:37Z</time>
      </trkpt>
      <trkpt lat="37.733040000" lon="-4.923348000">
        <ele>152.9</ele>
        <time>2020-10-12T14:08:40Z</time>
      </trkpt>
      <trkpt lat="37.733143000" lon="-4.923301000">
        <ele>153.0</ele>
        <time>2020-10-12T14:08:43Z</time>
      </trkpt>
      <trkpt lat="37.733226000" lon="-4.923266000">
        <ele>153.2</ele>
        <time>2020-10-12T14:08:46Z</time>
      </trkpt>
      <trkpt lat="37.733325000" lon="-4.923214000">
        <ele>153.5</ele>
        <time>2020-10-12T14:08:50Z</time>
      </trkpt>
      <trkpt lat="37.733423000" lon="-4.923172000">
        <ele>153.8</ele>
        <time>2020-10-12T14:08:53Z</time>
      </trkpt>
      <trkpt lat="37.733536000" lon="-4.923141000">
        <ele>154.2</ele>
        <time>2020-10-12T14:08:56Z</time>
      </trkpt>
      <trkpt lat="37.733617000" lon="-4.923113000">
        <ele>154.6</ele>
        <time>2020-10-12T14:08:58Z</time>
      </trkpt>
      <trkpt lat="37.733703000" lon="-4.923091000">
        <ele>155.1</ele>
        <time>2020-10-12T14:09:00Z</time>
      </trkpt>
      <trkpt lat="37.733794000" lon="-4.923069000">
        <ele>155.5</ele>
        <time>2020-10-12T14:09:02Z</time>
      </trkpt>
      <trkpt lat="37.733876000" lon="-4.923051000">
        <ele>156.1</ele>
        <time>2020-10-12T14:09:04Z</time>
      </trkpt>
      <trkpt lat="37.733989000" lon="-4.923027000">
        <ele>156.5</ele>
        <time>2020-10-12T14:09:07Z</time>
      </trkpt>
      <trkpt lat="37.734093000" lon="-4.923014000">
        <ele>157.1</ele>
        <time>2020-10-12T14:09:10Z</time>
      </trkpt>
      <trkpt lat="37.734195000" lon="-4.923006000">
        <ele>157.5</ele>
        <time>2020-10-12T14:09:13Z</time>
      </trkpt>
      <trkpt lat="37.734287000" lon="-4.923004000">
        <ele>158.0</ele>
        <time>2020-10-12T14:09:16Z</time>
      </trkpt>
      <trkpt lat="37.734391000" lon="-4.923001000">
        <ele>158.4</ele>
        <time>2020-10-12T14:09:19Z</time>
      </trkpt>
      <trkpt lat="37.734505000" lon="-4.923005000">
        <ele>158.7</ele>
        <time>2020-10-12T14:09:22Z</time>
      </trkpt>
      <trkpt lat="37.734627000" lon="-4.923029000">
        <ele>159.1</ele>
        <time>2020-10-12T14:09:25Z</time>
      </trkpt>
      <trkpt lat="37.734718000" lon="-4.923051000">
        <ele>159.5</ele>
        <time>2020-10-12T14:09:27Z</time>
      </trkpt>
      <trkpt lat="37.734809000" lon="-4.923071000">
        <ele>160.0</ele>
        <time>2020-10-12T14:09:29Z</time>
      </trkpt>
      <trkpt lat="37.734897000" lon="-4.923086000">
        <ele>160.5</ele>
        <time>2020-10-12T14:09:31Z</time>
      </trkpt>
      <trkpt lat="37.734979000" lon="-4.923105000">
        <ele>161.1</ele>
        <time>2020-10-12T14:09:33Z</time>
      </trkpt>
      <trkpt lat="37.735059000" lon="-4.923126000">
        <ele>161.6</ele>
        <time>2020-10-12T14:09:35Z</time>
      </trkpt>
      <trkpt lat="37.735173000" lon="-4.923167000">
        <ele>162.1</ele>
        <time>2020-10-12T14:09:38Z</time>
      </trkpt>
      <trkpt lat="37.735286000" lon="-4.923212000">
        <ele>162.5</ele>
        <time>2020-10-12T14:09:41Z</time>
      </trkpt>
      <trkpt lat="37.735398000" lon="-4.923258000">
        <ele>163.1</ele>
        <time>2020-10-12T14:09:44Z</time>
      </trkpt>
      <trkpt lat="37.735508000" lon="-4.923307000">
        <ele>163.6</ele>
        <time>2020-10-12T14:09:47Z</time>
      </trkpt>
      <trkpt lat="37.735610000" lon="-4.923358000">
        <ele>164.2</ele>
        <time>2020-10-12T14:09:50Z</time>
      </trkpt>
      <trkpt lat="37.735712000" lon="-4.923415000">
        <ele>164.7</ele>
        <time>2020-10-12T14:09:53Z</time>
      </trkpt>
      <trkpt lat="37.735814000" lon="-4.923476000">
        <ele>165.2</ele>
        <time>2020-10-12T14:09:56Z</time>
      </trkpt>
      <trkpt lat="37.735912000" lon="-4.923552000">
        <ele>165.5</ele>
        <time>2020-10-12T14:09:59Z</time>
      </trkpt>
      <trkpt lat="37.736004000" lon="-4.923643000">
        <ele>165.6</ele>
        <time>2020-10-12T14:10:02Z</time>
      </trkpt>
      <trkpt lat="37.736096000" lon="-4.923727000">
        <ele>165.7</ele>
        <time>2020-10-12T14:10:05Z</time>
      </trkpt>
      <trkpt lat="37.736194000" lon="-4.923807000">
        <ele>165.8</ele>
        <time>2020-10-12T14:10:08Z</time>
      </trkpt>
      <trkpt lat="37.736290000" lon="-4.923892000">
        <ele>166.0</ele>
        <time>2020-10-12T14:10:11Z</time>
      </trkpt>
      <trkpt lat="37.736359000" lon="-4.923948000">
        <ele>166.2</ele>
        <time>2020-10-12T14:10:13Z</time>
      </trkpt>
      <trkpt lat="37.736429000" lon="-4.924002000">
        <ele>166.3</ele>
        <time>2020-10-12T14:10:15Z</time>
      </trkpt>
      <trkpt lat="37.736498000" lon="-4.924062000">
        <ele>166.5</ele>
        <time>2020-10-12T14:10:17Z</time>
      </trkpt>
      <trkpt lat="37.736565000" lon="-4.924119000">
        <ele>166.6</ele>
        <time>2020-10-12T14:10:19Z</time>
      </trkpt>
      <trkpt lat="37.736665000" lon="-4.924203000">
        <ele>166.8</ele>
        <time>2020-10-12T14:10:22Z</time>
      </trkpt>
      <trkpt lat="37.736735000" lon="-4.924259000">
        <ele>166.9</ele>
        <time>2020-10-12T14:10:24Z</time>
      </trkpt>
      <trkpt lat="37.736803000" lon="-4.924321000">
        <ele>167.0</ele>
        <time>2020-10-12T14:10:26Z</time>
      </trkpt>
      <trkpt lat="37.736870000" lon="-4.924383000">
        <ele>167.1</ele>
        <time>2020-10-12T14:10:28Z</time>
      </trkpt>
      <trkpt lat="37.736937000" lon="-4.924440000">
        <ele>167.1</ele>
        <time>2020-10-12T14:10:30Z</time>
      </trkpt>
      <trkpt lat="37.737038000" lon="-4.924525000">
        <ele>167.1</ele>
        <time>2020-10-12T14:10:33Z</time>
      </trkpt>
      <trkpt lat="37.737107000" lon="-4.924585000">
        <ele>166.9</ele>
        <time>2020-10-12T14:10:35Z</time>
      </trkpt>
      <trkpt lat="37.737175000" lon="-4.924645000">
        <ele>166.7</ele>
        <time>2020-10-12T14:10:37Z</time>
      </trkpt>
      <trkpt lat="37.737247000" lon="-4.924704000">
        <ele>166.5</ele>
        <time>2020-10-12T14:10:39Z</time>
      </trkpt>
      <trkpt lat="37.737316000" lon="-4.924779000">
        <ele>166.4</ele>
        <time>2020-10-12T14:10:41Z</time>
      </trkpt>
      <trkpt lat="37.737403000" lon="-4.924847000">
        <ele>166.2</ele>
        <time>2020-10-12T14:10:43Z</time>
      </trkpt>
      <trkpt lat="37.737484000" lon="-4.924919000">
        <ele>166.0</ele>
        <time>2020-10-12T14:10:45Z</time>
      </trkpt>
      <trkpt lat="37.737556000" lon="-4.924987000">
        <ele>165.9</ele>
        <time>2020-10-12T14:10:47Z</time>
      </trkpt>
      <trkpt lat="37.737631000" lon="-4.925045000">
        <ele>165.8</ele>
        <time>2020-10-12T14:10:49Z</time>
      </trkpt>
      <trkpt lat="37.737703000" lon="-4.925116000">
        <ele>165.7</ele>
        <time>2020-10-12T14:10:51Z</time>
      </trkpt>
      <trkpt lat="37.737779000" lon="-4.925177000">
        <ele>165.6</ele>
        <time>2020-10-12T14:10:53Z</time>
      </trkpt>
      <trkpt lat="37.737852000" lon="-4.925243000">
        <ele>165.5</ele>
        <time>2020-10-12T14:10:55Z</time>
      </trkpt>
      <trkpt lat="37.737950000" lon="-4.925334000">
        <ele>165.5</ele>
        <time>2020-10-12T14:10:58Z</time>
      </trkpt>
      <trkpt lat="37.738015000" lon="-4.925398000">
        <ele>165.5</ele>
        <time>2020-10-12T14:11:00Z</time>
      </trkpt>
      <trkpt lat="37.738084000" lon="-4.925458000">
        <ele>165.5</ele>
        <time>2020-10-12T14:11:02Z</time>
      </trkpt>
      <trkpt lat="37.738153000" lon="-4.925512000">
        <ele>165.5</ele>
        <time>2020-10-12T14:11:04Z</time>
      </trkpt>
      <trkpt lat="37.738226000" lon="-4.925572000">
        <ele>165.4</ele>
        <time>2020-10-12T14:11:06Z</time>
      </trkpt>
      <trkpt lat="37.738299000" lon="-4.925635000">
        <ele>165.3</ele>
        <time>2020-10-12T14:11:08Z</time>
      </trkpt>
      <trkpt lat="37.738378000" lon="-4.925693000">
        <ele>165.3</ele>
        <time>2020-10-12T14:11:10Z</time>
      </trkpt>
      <trkpt lat="37.738448000" lon="-4.925755000">
        <ele>165.3</ele>
        <time>2020-10-12T14:11:12Z</time>
      </trkpt>
      <trkpt lat="37.738517000" lon="-4.925813000">
        <ele>165.3</ele>
        <time>2020-10-12T14:11:14Z</time>
      </trkpt>
      <trkpt lat="37.738588000" lon="-4.925871000">
        <ele>165.5</ele>
        <time>2020-10-12T14:11:16Z</time>
      </trkpt>
      <trkpt lat="37.738659000" lon="-4.925925000">
        <ele>165.6</ele>
        <time>2020-10-12T14:11:18Z</time>
      </trkpt>
      <trkpt lat="37.738757000" lon="-4.926012000">
        <ele>165.8</ele>
        <time>2020-10-12T14:11:21Z</time>
      </trkpt>
      <trkpt lat="37.738854000" lon="-4.926094000">
        <ele>166.1</ele>
        <time>2020-10-12T14:11:24Z</time>
      </trkpt>
      <trkpt lat="37.738945000" lon="-4.926176000">
        <ele>166.5</ele>
        <time>2020-10-12T14:11:27Z</time>
      </trkpt>
      <trkpt lat="37.739039000" lon="-4.926256000">
        <ele>166.8</ele>
        <time>2020-10-12T14:11:30Z</time>
      </trkpt>
      <trkpt lat="37.739129000" lon="-4.926340000">
        <ele>167.3</ele>
        <time>2020-10-12T14:11:33Z</time>
      </trkpt>
      <trkpt lat="37.739202000" lon="-4.926405000">
        <ele>167.7</ele>
        <time>2020-10-12T14:11:35Z</time>
      </trkpt>
      <trkpt lat="37.739292000" lon="-4.926487000">
        <ele>168.2</ele>
        <time>2020-10-12T14:11:38Z</time>
      </trkpt>
      <trkpt lat="37.739375000" lon="-4.926551000">
        <ele>168.6</ele>
        <time>2020-10-12T14:11:41Z</time>
      </trkpt>
      <trkpt lat="37.739462000" lon="-4.926626000">
        <ele>169.1</ele>
        <time>2020-10-12T14:11:44Z</time>
      </trkpt>
      <trkpt lat="37.739526000" lon="-4.926695000">
        <ele>169.5</ele>
        <time>2020-10-12T14:11:46Z</time>
      </trkpt>
      <trkpt lat="37.739599000" lon="-4.926751000">
        <ele>169.8</ele>
        <time>2020-10-12T14:11:48Z</time>
      </trkpt>
      <trkpt lat="37.739691000" lon="-4.926830000">
        <ele>170.1</ele>
        <time>2020-10-12T14:11:51Z</time>
      </trkpt>
      <trkpt lat="37.739773000" lon="-4.926896000">
        <ele>170.3</ele>
        <time>2020-10-12T14:11:54Z</time>
      </trkpt>
      <trkpt lat="37.739870000" lon="-4.926973000">
        <ele>170.4</ele>
        <time>2020-10-12T14:11:57Z</time>
      </trkpt>
      <trkpt lat="37.739946000" lon="-4.927027000">
        <ele>170.5</ele>
        <time>2020-10-12T14:11:59Z</time>
      </trkpt>
      <trkpt lat="37.740022000" lon="-4.927075000">
        <ele>170.6</ele>
        <time>2020-10-12T14:12:01Z</time>
      </trkpt>
      <trkpt lat="37.740127000" lon="-4.927138000">
        <ele>170.8</ele>
        <time>2020-10-12T14:12:04Z</time>
      </trkpt>
      <trkpt lat="37.740230000" lon="-4.927197000">
        <ele>171.0</ele>
        <time>2020-10-12T14:12:07Z</time>
      </trkpt>
      <trkpt lat="37.740332000" lon="-4.927249000">
        <ele>171.2</ele>
        <time>2020-10-12T14:12:10Z</time>
      </trkpt>
      <trkpt lat="37.740428000" lon="-4.927299000">
        <ele>171.5</ele>
        <time>2020-10-12T14:12:13Z</time>
      </trkpt>
      <trkpt lat="37.740525000" lon="-4.927345000">
        <ele>171.8</ele>
        <time>2020-10-12T14:12:16Z</time>
      </trkpt>
      <trkpt lat="37.740626000" lon="-4.927385000">
        <ele>172.2</ele>
        <time>2020-10-12T14:12:19Z</time>
      </trkpt>
      <trkpt lat="37.740729000" lon="-4.927433000">
        <ele>172.6</ele>
        <time>2020-10-12T14:12:22Z</time>
      </trkpt>
      <trkpt lat="37.740836000" lon="-4.927474000">
        <ele>173.1</ele>
        <time>2020-10-12T14:12:25Z</time>
      </trkpt>
      <trkpt lat="37.740944000" lon="-4.927512000">
        <ele>173.5</ele>
        <time>2020-10-12T14:12:28Z</time>
      </trkpt>
      <trkpt lat="37.741051000" lon="-4.927543000">
        <ele>173.9</ele>
        <time>2020-10-12T14:12:31Z</time>
      </trkpt>
      <trkpt lat="37.741153000" lon="-4.927573000">
        <ele>174.3</ele>
        <time>2020-10-12T14:12:34Z</time>
      </trkpt>
      <trkpt lat="37.741253000" lon="-4.927604000">
        <ele>174.5</ele>
        <time>2020-10-12T14:12:37Z</time>
      </trkpt>
      <trkpt lat="37.741357000" lon="-4.927632000">
        <ele>174.6</ele>
        <time>2020-10-12T14:12:40Z</time>
      </trkpt>
      <trkpt lat="37.741459000" lon="-4.927656000">
        <ele>174.7</ele>
        <time>2020-10-12T14:12:43Z</time>
      </trkpt>
      <trkpt lat="37.741564000" lon="-4.927667000">
        <ele>174.7</ele>
        <time>2020-10-12T14:12:46Z</time>
      </trkpt>
      <trkpt lat="37.741676000" lon="-4.927683000">
        <ele>174.6</ele>
        <time>2020-10-12T14:12:49Z</time>
      </trkpt>
      <trkpt lat="37.741788000" lon="-4.927700000">
        <ele>174.5</ele>
        <time>2020-10-12T14:12:52Z</time>
      </trkpt>
      <trkpt lat="37.741897000" lon="-4.927713000">
        <ele>174.5</ele>
        <time>2020-10-12T14:12:55Z</time>
      </trkpt>
      <trkpt lat="37.742006000" lon="-4.927723000">
        <ele>174.3</ele>
        <time>2020-10-12T14:12:58Z</time>
      </trkpt>
      <trkpt lat="37.742112000" lon="-4.927724000">
        <ele>174.1</ele>
        <time>2020-10-12T14:13:01Z</time>
      </trkpt>
      <trkpt lat="37.742214000" lon="-4.927725000">
        <ele>173.9</ele>
        <time>2020-10-12T14:13:04Z</time>
      </trkpt>
      <trkpt lat="37.742322000" lon="-4.927717000">
        <ele>173.6</ele>
        <time>2020-10-12T14:13:07Z</time>
      </trkpt>
      <trkpt lat="37.742435000" lon="-4.927706000">
        <ele>173.4</ele>
        <time>2020-10-12T14:13:10Z</time>
      </trkpt>
      <trkpt lat="37.742541000" lon="-4.927695000">
        <ele>173.1</ele>
        <time>2020-10-12T14:13:13Z</time>
      </trkpt>
      <trkpt lat="37.742647000" lon="-4.927683000">
        <ele>172.8</ele>
        <time>2020-10-12T14:13:16Z</time>
      </trkpt>
      <trkpt lat="37.742768000" lon="-4.927678000">
        <ele>172.5</ele>
        <time>2020-10-12T14:13:19Z</time>
      </trkpt>
      <trkpt lat="37.742863000" lon="-4.927698000">
        <ele>172.4</ele>
        <time>2020-10-12T14:13:21Z</time>
      </trkpt>
      <trkpt lat="37.742958000" lon="-4.927701000">
        <ele>172.2</ele>
        <time>2020-10-12T14:13:23Z</time>
      </trkpt>
      <trkpt lat="37.743042000" lon="-4.927700000">
        <ele>172.1</ele>
        <time>2020-10-12T14:13:25Z</time>
      </trkpt>
      <trkpt lat="37.743125000" lon="-4.927692000">
        <ele>172.2</ele>
        <time>2020-10-12T14:13:27Z</time>
      </trkpt>
      <trkpt lat="37.743206000" lon="-4.927691000">
        <ele>172.4</ele>
        <time>2020-10-12T14:13:29Z</time>
      </trkpt>
      <trkpt lat="37.743292000" lon="-4.927685000">
        <ele>172.7</ele>
        <time>2020-10-12T14:13:31Z</time>
      </trkpt>
      <trkpt lat="37.743374000" lon="-4.927678000">
        <ele>173.3</ele>
        <time>2020-10-12T14:13:33Z</time>
      </trkpt>
      <trkpt lat="37.743457000" lon="-4.927672000">
        <ele>173.9</ele>
        <time>2020-10-12T14:13:35Z</time>
      </trkpt>
      <trkpt lat="37.743575000" lon="-4.927671000">
        <ele>174.7</ele>
        <time>2020-10-12T14:13:38Z</time>
      </trkpt>
      <trkpt lat="37.743683000" lon="-4.927668000">
        <ele>175.5</ele>
        <time>2020-10-12T14:13:41Z</time>
      </trkpt>
      <trkpt lat="37.743782000" lon="-4.927666000">
        <ele>176.4</ele>
        <time>2020-10-12T14:13:44Z</time>
      </trkpt>
      <trkpt lat="37.743878000" lon="-4.927658000">
        <ele>177.2</ele>
        <time>2020-10-12T14:13:47Z</time>
      </trkpt>
      <trkpt lat="37.743978000" lon="-4.927654000">
        <ele>178.0</ele>
        <time>2020-10-12T14:13:50Z</time>
      </trkpt>
      <trkpt lat="37.744081000" lon="-4.927659000">
        <ele>178.7</ele>
        <time>2020-10-12T14:13:53Z</time>
      </trkpt>
      <trkpt lat="37.744185000" lon="-4.927656000">
        <ele>179.4</ele>
        <time>2020-10-12T14:13:56Z</time>
      </trkpt>
      <trkpt lat="37.744275000" lon="-4.927663000">
        <ele>179.9</ele>
        <time>2020-10-12T14:13:59Z</time>
      </trkpt>
      <trkpt lat="37.744358000" lon="-4.927651000">
        <ele>180.3</ele>
        <time>2020-10-12T14:14:02Z</time>
      </trkpt>
      <trkpt lat="37.744449000" lon="-4.927642000">
        <ele>180.5</ele>
        <time>2020-10-12T14:14:05Z</time>
      </trkpt>
      <trkpt lat="37.744547000" lon="-4.927639000">
        <ele>180.8</ele>
        <time>2020-10-12T14:14:08Z</time>
      </trkpt>
      <trkpt lat="37.744664000" lon="-4.927627000">
        <ele>181.0</ele>
        <time>2020-10-12T14:14:11Z</time>
      </trkpt>
      <trkpt lat="37.744750000" lon="-4.927619000">
        <ele>181.2</ele>
        <time>2020-10-12T14:14:13Z</time>
      </trkpt>
      <trkpt lat="37.744859000" lon="-4.927618000">
        <ele>181.5</ele>
        <time>2020-10-12T14:14:16Z</time>
      </trkpt>
      <trkpt lat="37.744967000" lon="-4.927617000">
        <ele>181.6</ele>
        <time>2020-10-12T14:14:19Z</time>
      </trkpt>
      <trkpt lat="37.745049000" lon="-4.927614000">
        <ele>181.8</ele>
        <time>2020-10-12T14:14:21Z</time>
      </trkpt>
      <trkpt lat="37.745137000" lon="-4.927618000">
        <ele>182.0</ele>
        <time>2020-10-12T14:14:23Z</time>
      </trkpt>
      <trkpt lat="37.745252000" lon="-4.927603000">
        <ele>182.2</ele>
        <time>2020-10-12T14:14:26Z</time>
      </trkpt>
      <trkpt lat="37.745346000" lon="-4.927598000">
        <ele>182.4</ele>
        <time>2020-10-12T14:14:29Z</time>
      </trkpt>
      <trkpt lat="37.745449000" lon="-4.927601000">
        <ele>182.5</ele>
        <time>2020-10-12T14:14:32Z</time>
      </trkpt>
      <trkpt lat="37.745531000" lon="-4.927598000">
        <ele>182.7</ele>
        <time>2020-10-12T14:14:34Z</time>
      </trkpt>
      <trkpt lat="37.745612000" lon="-4.927605000">
        <ele>182.7</ele>
        <time>2020-10-12T14:14:36Z</time>
      </trkpt>
      <trkpt lat="37.745712000" lon="-4.927597000">
        <ele>182.8</ele>
        <time>2020-10-12T14:14:39Z</time>
      </trkpt>
      <trkpt lat="37.745808000" lon="-4.927592000">
        <ele>182.9</ele>
        <time>2020-10-12T14:14:42Z</time>
      </trkpt>
      <trkpt lat="37.745928000" lon="-4.927594000">
        <ele>182.9</ele>
        <time>2020-10-12T14:14:45Z</time>
      </trkpt>
      <trkpt lat="37.746015000" lon="-4.927588000">
        <ele>182.9</ele>
        <time>2020-10-12T14:14:47Z</time>
      </trkpt>
      <trkpt lat="37.746104000" lon="-4.927580000">
        <ele>182.9</ele>
        <time>2020-10-12T14:14:49Z</time>
      </trkpt>
      <trkpt lat="37.746218000" lon="-4.927573000">
        <ele>182.8</ele>
        <time>2020-10-12T14:14:52Z</time>
      </trkpt>
      <trkpt lat="37.746328000" lon="-4.927572000">
        <ele>182.7</ele>
        <time>2020-10-12T14:14:55Z</time>
      </trkpt>
      <trkpt lat="37.746440000" lon="-4.927570000">
        <ele>182.6</ele>
        <time>2020-10-12T14:14:58Z</time>
      </trkpt>
      <trkpt lat="37.746553000" lon="-4.927562000">
        <ele>182.5</ele>
        <time>2020-10-12T14:15:01Z</time>
      </trkpt>
      <trkpt lat="37.746664000" lon="-4.927549000">
        <ele>182.3</ele>
        <time>2020-10-12T14:15:04Z</time>
      </trkpt>
      <trkpt lat="37.746775000" lon="-4.927541000">
        <ele>182.1</ele>
        <time>2020-10-12T14:15:07Z</time>
      </trkpt>
      <trkpt lat="37.746884000" lon="-4.927525000">
        <ele>181.8</ele>
        <time>2020-10-12T14:15:10Z</time>
      </trkpt>
      <trkpt lat="37.746992000" lon="-4.927510000">
        <ele>181.5</ele>
        <time>2020-10-12T14:15:13Z</time>
      </trkpt>
      <trkpt lat="37.747100000" lon="-4.927485000">
        <ele>181.2</ele>
        <time>2020-10-12T14:15:16Z</time>
      </trkpt>
      <trkpt lat="37.747207000" lon="-4.927461000">
        <ele>180.8</ele>
        <time>2020-10-12T14:15:19Z</time>
      </trkpt>
      <trkpt lat="37.747314000" lon="-4.927427000">
        <ele>180.5</ele>
        <time>2020-10-12T14:15:22Z</time>
      </trkpt>
      <trkpt lat="37.747423000" lon="-4.927391000">
        <ele>180.2</ele>
        <time>2020-10-12T14:15:25Z</time>
      </trkpt>
      <trkpt lat="37.747525000" lon="-4.927356000">
        <ele>180.0</ele>
        <time>2020-10-12T14:15:28Z</time>
      </trkpt>
      <trkpt lat="37.747626000" lon="-4.927320000">
        <ele>179.8</ele>
        <time>2020-10-12T14:15:31Z</time>
      </trkpt>
      <trkpt lat="37.747722000" lon="-4.927282000">
        <ele>179.7</ele>
        <time>2020-10-12T14:15:34Z</time>
      </trkpt>
      <trkpt lat="37.747824000" lon="-4.927236000">
        <ele>179.7</ele>
        <time>2020-10-12T14:15:37Z</time>
      </trkpt>
      <trkpt lat="37.747922000" lon="-4.927183000">
        <ele>179.8</ele>
        <time>2020-10-12T14:15:40Z</time>
      </trkpt>
      <trkpt lat="37.748021000" lon="-4.927133000">
        <ele>179.9</ele>
        <time>2020-10-12T14:15:43Z</time>
      </trkpt>
      <trkpt lat="37.748123000" lon="-4.927088000">
        <ele>180.0</ele>
        <time>2020-10-12T14:15:46Z</time>
      </trkpt>
      <trkpt lat="37.748228000" lon="-4.927026000">
        <ele>180.3</ele>
        <time>2020-10-12T14:15:49Z</time>
      </trkpt>
      <trkpt lat="37.748305000" lon="-4.926981000">
        <ele>180.5</ele>
        <time>2020-10-12T14:15:51Z</time>
      </trkpt>
      <trkpt lat="37.748380000" lon="-4.926935000">
        <ele>180.9</ele>
        <time>2020-10-12T14:15:53Z</time>
      </trkpt>
      <trkpt lat="37.748452000" lon="-4.926884000">
        <ele>181.4</ele>
        <time>2020-10-12T14:15:55Z</time>
      </trkpt>
      <trkpt lat="37.748559000" lon="-4.926820000">
        <ele>181.7</ele>
        <time>2020-10-12T14:15:58Z</time>
      </trkpt>
      <trkpt lat="37.748658000" lon="-4.926763000">
        <ele>182.2</ele>
        <time>2020-10-12T14:16:01Z</time>
      </trkpt>
      <trkpt lat="37.748749000" lon="-4.926706000">
        <ele>182.6</ele>
        <time>2020-10-12T14:16:04Z</time>
      </trkpt>
      <trkpt lat="37.748838000" lon="-4.926653000">
        <ele>183.1</ele>
        <time>2020-10-12T14:16:07Z</time>
      </trkpt>
      <trkpt lat="37.748927000" lon="-4.926599000">
        <ele>183.5</ele>
        <time>2020-10-12T14:16:10Z</time>
      </trkpt>
      <trkpt lat="37.749022000" lon="-4.926541000">
        <ele>184.1</ele>
        <time>2020-10-12T14:16:13Z</time>
      </trkpt>
      <trkpt lat="37.749120000" lon="-4.926492000">
        <ele>184.6</ele>
        <time>2020-10-12T14:16:16Z</time>
      </trkpt>
      <trkpt lat="37.749222000" lon="-4.926428000">
        <ele>185.1</ele>
        <time>2020-10-12T14:16:19Z</time>
      </trkpt>
      <trkpt lat="37.749328000" lon="-4.926366000">
        <ele>185.5</ele>
        <time>2020-10-12T14:16:22Z</time>
      </trkpt>
      <trkpt lat="37.749432000" lon="-4.926300000">
        <ele>186.0</ele>
        <time>2020-10-12T14:16:25Z</time>
      </trkpt>
      <trkpt lat="37.749531000" lon="-4.926260000">
        <ele>186.4</ele>
        <time>2020-10-12T14:16:28Z</time>
      </trkpt>
      <trkpt lat="37.749630000" lon="-4.926235000">
        <ele>186.7</ele>
        <time>2020-10-12T14:16:33Z</time>
      </trkpt>
      <trkpt lat="37.749728000" lon="-4.926201000">
        <ele>187.0</ele>
        <time>2020-10-12T14:16:37Z</time>
      </trkpt>
      <trkpt lat="37.749812000" lon="-4.926156000">
        <ele>187.3</ele>
        <time>2020-10-12T14:16:40Z</time>
      </trkpt>
      <trkpt lat="37.749906000" lon="-4.926095000">
        <ele>187.5</ele>
        <time>2020-10-12T14:16:43Z</time>
      </trkpt>
      <trkpt lat="37.749991000" lon="-4.926032000">
        <ele>187.5</ele>
        <time>2020-10-12T14:16:46Z</time>
      </trkpt>
      <trkpt lat="37.750068000" lon="-4.925975000">
        <ele>187.5</ele>
        <time>2020-10-12T14:16:49Z</time>
      </trkpt>
      <trkpt lat="37.750159000" lon="-4.925913000">
        <ele>187.5</ele>
        <time>2020-10-12T14:16:52Z</time>
      </trkpt>
      <trkpt lat="37.750258000" lon="-4.925845000">
        <ele>187.4</ele>
        <time>2020-10-12T14:16:55Z</time>
      </trkpt>
      <trkpt lat="37.750368000" lon="-4.925782000">
        <ele>187.2</ele>
        <time>2020-10-12T14:16:58Z</time>
      </trkpt>
      <trkpt lat="37.750479000" lon="-4.925720000">
        <ele>186.9</ele>
        <time>2020-10-12T14:17:01Z</time>
      </trkpt>
      <trkpt lat="37.750556000" lon="-4.925669000">
        <ele>186.6</ele>
        <time>2020-10-12T14:17:03Z</time>
      </trkpt>
      <trkpt lat="37.750657000" lon="-4.925607000">
        <ele>186.4</ele>
        <time>2020-10-12T14:17:06Z</time>
      </trkpt>
      <trkpt lat="37.750755000" lon="-4.925551000">
        <ele>186.1</ele>
        <time>2020-10-12T14:17:09Z</time>
      </trkpt>
      <trkpt lat="37.750855000" lon="-4.925492000">
        <ele>185.8</ele>
        <time>2020-10-12T14:17:12Z</time>
      </trkpt>
      <trkpt lat="37.750959000" lon="-4.925432000">
        <ele>185.5</ele>
        <time>2020-10-12T14:17:15Z</time>
      </trkpt>
      <trkpt lat="37.751034000" lon="-4.925390000">
        <ele>185.3</ele>
        <time>2020-10-12T14:17:17Z</time>
      </trkpt>
      <trkpt lat="37.751112000" lon="-4.925347000">
        <ele>184.9</ele>
        <time>2020-10-12T14:17:19Z</time>
      </trkpt>
      <trkpt lat="37.751193000" lon="-4.925305000">
        <ele>184.6</ele>
        <time>2020-10-12T14:17:21Z</time>
      </trkpt>
      <trkpt lat="37.751269000" lon="-4.925266000">
        <ele>184.3</ele>
        <time>2020-10-12T14:17:23Z</time>
      </trkpt>
      <trkpt lat="37.751380000" lon="-4.925207000">
        <ele>183.8</ele>
        <time>2020-10-12T14:17:26Z</time>
      </trkpt>
      <trkpt lat="37.751471000" lon="-4.925152000">
        <ele>183.3</ele>
        <time>2020-10-12T14:17:28Z</time>
      </trkpt>
      <trkpt lat="37.751556000" lon="-4.925103000">
        <ele>182.6</ele>
        <time>2020-10-12T14:17:30Z</time>
      </trkpt>
      <trkpt lat="37.751644000" lon="-4.925052000">
        <ele>182.0</ele>
        <time>2020-10-12T14:17:32Z</time>
      </trkpt>
      <trkpt lat="37.751736000" lon="-4.925010000">
        <ele>181.3</ele>
        <time>2020-10-12T14:17:34Z</time>
      </trkpt>
      <trkpt lat="37.751827000" lon="-4.924959000">
        <ele>180.5</ele>
        <time>2020-10-12T14:17:36Z</time>
      </trkpt>
      <trkpt lat="37.751912000" lon="-4.924917000">
        <ele>179.7</ele>
        <time>2020-10-12T14:17:38Z</time>
      </trkpt>
      <trkpt lat="37.751999000" lon="-4.924861000">
        <ele>179.0</ele>
        <time>2020-10-12T14:17:40Z</time>
      </trkpt>
      <trkpt lat="37.752074000" lon="-4.924815000">
        <ele>178.3</ele>
        <time>2020-10-12T14:17:42Z</time>
      </trkpt>
      <trkpt lat="37.752156000" lon="-4.924769000">
        <ele>177.5</ele>
        <time>2020-10-12T14:17:44Z</time>
      </trkpt>
      <trkpt lat="37.752233000" lon="-4.924715000">
        <ele>176.9</ele>
        <time>2020-10-12T14:17:46Z</time>
      </trkpt>
      <trkpt lat="37.752310000" lon="-4.924658000">
        <ele>176.5</ele>
        <time>2020-10-12T14:17:48Z</time>
      </trkpt>
      <trkpt lat="37.752392000" lon="-4.924601000">
        <ele>176.1</ele>
        <time>2020-10-12T14:17:50Z</time>
      </trkpt>
      <trkpt lat="37.752469000" lon="-4.924539000">
        <ele>175.9</ele>
        <time>2020-10-12T14:17:52Z</time>
      </trkpt>
      <trkpt lat="37.752547000" lon="-4.924479000">
        <ele>175.9</ele>
        <time>2020-10-12T14:17:54Z</time>
      </trkpt>
      <trkpt lat="37.752627000" lon="-4.924414000">
        <ele>176.1</ele>
        <time>2020-10-12T14:17:56Z</time>
      </trkpt>
      <trkpt lat="37.752697000" lon="-4.924349000">
        <ele>176.4</ele>
        <time>2020-10-12T14:17:58Z</time>
      </trkpt>
      <trkpt lat="37.752761000" lon="-4.924286000">
        <ele>176.8</ele>
        <time>2020-10-12T14:18:00Z</time>
      </trkpt>
      <trkpt lat="37.752857000" lon="-4.924187000">
        <ele>177.3</ele>
        <time>2020-10-12T14:18:03Z</time>
      </trkpt>
      <trkpt lat="37.752926000" lon="-4.924117000">
        <ele>177.9</ele>
        <time>2020-10-12T14:18:05Z</time>
      </trkpt>
      <trkpt lat="37.753003000" lon="-4.924040000">
        <ele>178.6</ele>
        <time>2020-10-12T14:18:07Z</time>
      </trkpt>
      <trkpt lat="37.753074000" lon="-4.923953000">
        <ele>179.4</ele>
        <time>2020-10-12T14:18:09Z</time>
      </trkpt>
      <trkpt lat="37.753143000" lon="-4.923867000">
        <ele>180.2</ele>
        <time>2020-10-12T14:18:11Z</time>
      </trkpt>
      <trkpt lat="37.753206000" lon="-4.923791000">
        <ele>181.0</ele>
        <time>2020-10-12T14:18:13Z</time>
      </trkpt>
      <trkpt lat="37.753261000" lon="-4.923710000">
        <ele>181.7</ele>
        <time>2020-10-12T14:18:15Z</time>
      </trkpt>
      <trkpt lat="37.753314000" lon="-4.923626000">
        <ele>182.2</ele>
        <time>2020-10-12T14:18:17Z</time>
      </trkpt>
      <trkpt lat="37.753374000" lon="-4.923531000">
        <ele>182.5</ele>
        <time>2020-10-12T14:18:19Z</time>
      </trkpt>
      <trkpt lat="37.753439000" lon="-4.923434000">
        <ele>182.5</ele>
        <time>2020-10-12T14:18:21Z</time>
      </trkpt>
      <trkpt lat="37.753497000" lon="-4.923336000">
        <ele>182.5</ele>
        <time>2020-10-12T14:18:23Z</time>
      </trkpt>
      <trkpt lat="37.753554000" lon="-4.923233000">
        <ele>182.3</ele>
        <time>2020-10-12T14:18:25Z</time>
      </trkpt>
      <trkpt lat="37.753610000" lon="-4.923132000">
        <ele>182.0</ele>
        <time>2020-10-12T14:18:27Z</time>
      </trkpt>
      <trkpt lat="37.753666000" lon="-4.923027000">
        <ele>181.6</ele>
        <time>2020-10-12T14:18:29Z</time>
      </trkpt>
      <trkpt lat="37.753725000" lon="-4.922918000">
        <ele>181.2</ele>
        <time>2020-10-12T14:18:31Z</time>
      </trkpt>
      <trkpt lat="37.753775000" lon="-4.922808000">
        <ele>180.6</ele>
        <time>2020-10-12T14:18:33Z</time>
      </trkpt>
      <trkpt lat="37.753829000" lon="-4.922696000">
        <ele>180.1</ele>
        <time>2020-10-12T14:18:35Z</time>
      </trkpt>
      <trkpt lat="37.753877000" lon="-4.922575000">
        <ele>179.5</ele>
        <time>2020-10-12T14:18:37Z</time>
      </trkpt>
      <trkpt lat="37.753919000" lon="-4.922452000">
        <ele>179.0</ele>
        <time>2020-10-12T14:18:39Z</time>
      </trkpt>
      <trkpt lat="37.753955000" lon="-4.922328000">
        <ele>178.5</ele>
        <time>2020-10-12T14:18:41Z</time>
      </trkpt>
      <trkpt lat="37.753993000" lon="-4.922190000">
        <ele>178.2</ele>
        <time>2020-10-12T14:18:43Z</time>
      </trkpt>
      <trkpt lat="37.754027000" lon="-4.922066000">
        <ele>177.9</ele>
        <time>2020-10-12T14:18:45Z</time>
      </trkpt>
      <trkpt lat="37.754060000" lon="-4.921931000">
        <ele>177.7</ele>
        <time>2020-10-12T14:18:47Z</time>
      </trkpt>
      <trkpt lat="37.754090000" lon="-4.921798000">
        <ele>177.5</ele>
        <time>2020-10-12T14:18:49Z</time>
      </trkpt>
      <trkpt lat="37.754117000" lon="-4.921657000">
        <ele>177.2</ele>
        <time>2020-10-12T14:18:51Z</time>
      </trkpt>
      <trkpt lat="37.754142000" lon="-4.921517000">
        <ele>177.0</ele>
        <time>2020-10-12T14:18:53Z</time>
      </trkpt>
      <trkpt lat="37.754158000" lon="-4.921384000">
        <ele>176.8</ele>
        <time>2020-10-12T14:18:55Z</time>
      </trkpt>
      <trkpt lat="37.754165000" lon="-4.921256000">
        <ele>176.6</ele>
        <time>2020-10-12T14:18:57Z</time>
      </trkpt>
      <trkpt lat="37.754174000" lon="-4.921118000">
        <ele>176.5</ele>
        <time>2020-10-12T14:18:59Z</time>
      </trkpt>
      <trkpt lat="37.754186000" lon="-4.920978000">
        <ele>176.5</ele>
        <time>2020-10-12T14:19:01Z</time>
      </trkpt>
      <trkpt lat="37.754186000" lon="-4.920858000">
        <ele>176.5</ele>
        <time>2020-10-12T14:19:03Z</time>
      </trkpt>
      <trkpt lat="37.754194000" lon="-4.920735000">
        <ele>176.5</ele>
        <time>2020-10-12T14:19:05Z</time>
      </trkpt>
      <trkpt lat="37.754203000" lon="-4.920609000">
        <ele>176.5</ele>
        <time>2020-10-12T14:19:07Z</time>
      </trkpt>
      <trkpt lat="37.754210000" lon="-4.920482000">
        <ele>176.5</ele>
        <time>2020-10-12T14:19:09Z</time>
      </trkpt>
      <trkpt lat="37.754215000" lon="-4.920346000">
        <ele>176.5</ele>
        <time>2020-10-12T14:19:11Z</time>
      </trkpt>
      <trkpt lat="37.754219000" lon="-4.920212000">
        <ele>176.5</ele>
        <time>2020-10-12T14:19:13Z</time>
      </trkpt>
      <trkpt lat="37.754226000" lon="-4.920069000">
        <ele>176.5</ele>
        <time>2020-10-12T14:19:15Z</time>
      </trkpt>
      <trkpt lat="37.754228000" lon="-4.919927000">
        <ele>176.6</ele>
        <time>2020-10-12T14:19:17Z</time>
      </trkpt>
      <trkpt lat="37.754234000" lon="-4.919786000">
        <ele>176.8</ele>
        <time>2020-10-12T14:19:19Z</time>
      </trkpt>
      <trkpt lat="37.754237000" lon="-4.919637000">
        <ele>176.9</ele>
        <time>2020-10-12T14:19:21Z</time>
      </trkpt>
      <trkpt lat="37.754247000" lon="-4.919489000">
        <ele>177.0</ele>
        <time>2020-10-12T14:19:23Z</time>
      </trkpt>
      <trkpt lat="37.754255000" lon="-4.919341000">
        <ele>177.1</ele>
        <time>2020-10-12T14:19:25Z</time>
      </trkpt>
      <trkpt lat="37.754266000" lon="-4.919190000">
        <ele>177.2</ele>
        <time>2020-10-12T14:19:27Z</time>
      </trkpt>
      <trkpt lat="37.754279000" lon="-4.919045000">
        <ele>177.2</ele>
        <time>2020-10-12T14:19:29Z</time>
      </trkpt>
      <trkpt lat="37.754293000" lon="-4.918902000">
        <ele>177.2</ele>
        <time>2020-10-12T14:19:31Z</time>
      </trkpt>
      <trkpt lat="37.754312000" lon="-4.918757000">
        <ele>177.3</ele>
        <time>2020-10-12T14:19:33Z</time>
      </trkpt>
      <trkpt lat="37.754334000" lon="-4.918612000">
        <ele>177.3</ele>
        <time>2020-10-12T14:19:35Z</time>
      </trkpt>
      <trkpt lat="37.754367000" lon="-4.918474000">
        <ele>177.2</ele>
        <time>2020-10-12T14:19:37Z</time>
      </trkpt>
      <trkpt lat="37.754400000" lon="-4.918331000">
        <ele>176.9</ele>
        <time>2020-10-12T14:19:39Z</time>
      </trkpt>
      <trkpt lat="37.754432000" lon="-4.918198000">
        <ele>176.5</ele>
        <time>2020-10-12T14:19:41Z</time>
      </trkpt>
      <trkpt lat="37.754474000" lon="-4.918065000">
        <ele>176.0</ele>
        <time>2020-10-12T14:19:43Z</time>
      </trkpt>
      <trkpt lat="37.754520000" lon="-4.917933000">
        <ele>175.5</ele>
        <time>2020-10-12T14:19:45Z</time>
      </trkpt>
      <trkpt lat="37.754574000" lon="-4.917807000">
        <ele>174.9</ele>
        <time>2020-10-12T14:19:47Z</time>
      </trkpt>
      <trkpt lat="37.754627000" lon="-4.917686000">
        <ele>174.3</ele>
        <time>2020-10-12T14:19:49Z</time>
      </trkpt>
      <trkpt lat="37.754690000" lon="-4.917564000">
        <ele>173.6</ele>
        <time>2020-10-12T14:19:51Z</time>
      </trkpt>
      <trkpt lat="37.754756000" lon="-4.917447000">
        <ele>172.8</ele>
        <time>2020-10-12T14:19:53Z</time>
      </trkpt>
      <trkpt lat="37.754828000" lon="-4.917331000">
        <ele>171.8</ele>
        <time>2020-10-12T14:19:55Z</time>
      </trkpt>
      <trkpt lat="37.754900000" lon="-4.917209000">
        <ele>170.8</ele>
        <time>2020-10-12T14:19:57Z</time>
      </trkpt>
      <trkpt lat="37.754981000" lon="-4.917090000">
        <ele>169.8</ele>
        <time>2020-10-12T14:19:59Z</time>
      </trkpt>
      <trkpt lat="37.755066000" lon="-4.916989000">
        <ele>168.9</ele>
        <time>2020-10-12T14:20:01Z</time>
      </trkpt>
      <trkpt lat="37.755157000" lon="-4.916879000">
        <ele>168.1</ele>
        <time>2020-10-12T14:20:03Z</time>
      </trkpt>
      <trkpt lat="37.755250000" lon="-4.916776000">
        <ele>167.2</ele>
        <time>2020-10-12T14:20:05Z</time>
      </trkpt>
      <trkpt lat="37.755349000" lon="-4.916678000">
        <ele>166.3</ele>
        <time>2020-10-12T14:20:07Z</time>
      </trkpt>
      <trkpt lat="37.755452000" lon="-4.916594000">
        <ele>165.3</ele>
        <time>2020-10-12T14:20:09Z</time>
      </trkpt>
      <trkpt lat="37.755556000" lon="-4.916510000">
        <ele>164.4</ele>
        <time>2020-10-12T14:20:11Z</time>
      </trkpt>
      <trkpt lat="37.755658000" lon="-4.916429000">
        <ele>163.5</ele>
        <time>2020-10-12T14:20:13Z</time>
      </trkpt>
      <trkpt lat="37.755768000" lon="-4.916358000">
        <ele>162.9</ele>
        <time>2020-10-12T14:20:15Z</time>
      </trkpt>
      <trkpt lat="37.755878000" lon="-4.916298000">
        <ele>162.5</ele>
        <time>2020-10-12T14:20:17Z</time>
      </trkpt>
      <trkpt lat="37.755986000" lon="-4.916241000">
        <ele>162.2</ele>
        <time>2020-10-12T14:20:19Z</time>
      </trkpt>
      <trkpt lat="37.756084000" lon="-4.916190000">
        <ele>162.0</ele>
        <time>2020-10-12T14:20:21Z</time>
      </trkpt>
      <trkpt lat="37.756185000" lon="-4.916156000">
        <ele>161.9</ele>
        <time>2020-10-12T14:20:23Z</time>
      </trkpt>
      <trkpt lat="37.756291000" lon="-4.916117000">
        <ele>161.8</ele>
        <time>2020-10-12T14:20:25Z</time>
      </trkpt>
      <trkpt lat="37.756391000" lon="-4.916089000">
        <ele>161.9</ele>
        <time>2020-10-12T14:20:27Z</time>
      </trkpt>
      <trkpt lat="37.756487000" lon="-4.916067000">
        <ele>162.1</ele>
        <time>2020-10-12T14:20:29Z</time>
      </trkpt>
      <trkpt lat="37.756581000" lon="-4.916048000">
        <ele>162.5</ele>
        <time>2020-10-12T14:20:31Z</time>
      </trkpt>
      <trkpt lat="37.756679000" lon="-4.916025000">
        <ele>162.8</ele>
        <time>2020-10-12T14:20:33Z</time>
      </trkpt>
      <trkpt lat="37.756774000" lon="-4.916012000">
        <ele>163.3</ele>
        <time>2020-10-12T14:20:35Z</time>
      </trkpt>
      <trkpt lat="37.756864000" lon="-4.916003000">
        <ele>163.7</ele>
        <time>2020-10-12T14:20:37Z</time>
      </trkpt>
      <trkpt lat="37.756957000" lon="-4.915996000">
        <ele>164.3</ele>
        <time>2020-10-12T14:20:39Z</time>
      </trkpt>
      <trkpt lat="37.757047000" lon="-4.915996000">
        <ele>164.7</ele>
        <time>2020-10-12T14:20:41Z</time>
      </trkpt>
      <trkpt lat="37.757129000" lon="-4.915997000">
        <ele>165.3</ele>
        <time>2020-10-12T14:20:43Z</time>
      </trkpt>
      <trkpt lat="37.757212000" lon="-4.916005000">
        <ele>165.8</ele>
        <time>2020-10-12T14:20:45Z</time>
      </trkpt>
      <trkpt lat="37.757324000" lon="-4.916020000">
        <ele>166.5</ele>
        <time>2020-10-12T14:20:48Z</time>
      </trkpt>
      <trkpt lat="37.757447000" lon="-4.916048000">
        <ele>167.1</ele>
        <time>2020-10-12T14:20:51Z</time>
      </trkpt>
      <trkpt lat="37.757546000" lon="-4.916076000">
        <ele>167.8</ele>
        <time>2020-10-12T14:20:53Z</time>
      </trkpt>
      <trkpt lat="37.757634000" lon="-4.916095000">
        <ele>168.5</ele>
        <time>2020-10-12T14:20:55Z</time>
      </trkpt>
      <trkpt lat="37.757740000" lon="-4.916122000">
        <ele>169.3</ele>
        <time>2020-10-12T14:20:58Z</time>
      </trkpt>
      <trkpt lat="37.757850000" lon="-4.916156000">
        <ele>170.1</ele>
        <time>2020-10-12T14:21:01Z</time>
      </trkpt>
      <trkpt lat="37.757924000" lon="-4.916198000">
        <ele>171.0</ele>
        <time>2020-10-12T14:21:03Z</time>
      </trkpt>
      <trkpt lat="37.758004000" lon="-4.916239000">
        <ele>171.8</ele>
        <time>2020-10-12T14:21:05Z</time>
      </trkpt>
      <trkpt lat="37.758086000" lon="-4.916299000">
        <ele>172.6</ele>
        <time>2020-10-12T14:21:07Z</time>
      </trkpt>
      <trkpt lat="37.758168000" lon="-4.916353000">
        <ele>173.5</ele>
        <time>2020-10-12T14:21:09Z</time>
      </trkpt>
      <trkpt lat="37.758243000" lon="-4.916405000">
        <ele>174.2</ele>
        <time>2020-10-12T14:21:11Z</time>
      </trkpt>
      <trkpt lat="37.758341000" lon="-4.916465000">
        <ele>174.9</ele>
        <time>2020-10-12T14:21:14Z</time>
      </trkpt>
      <trkpt lat="37.758437000" lon="-4.916535000">
        <ele>175.5</ele>
        <time>2020-10-12T14:21:17Z</time>
      </trkpt>
      <trkpt lat="37.758510000" lon="-4.916592000">
        <ele>176.2</ele>
        <time>2020-10-12T14:21:19Z</time>
      </trkpt>
      <trkpt lat="37.758605000" lon="-4.916669000">
        <ele>176.8</ele>
        <time>2020-10-12T14:21:22Z</time>
      </trkpt>
      <trkpt lat="37.758685000" lon="-4.916740000">
        <ele>177.3</ele>
        <time>2020-10-12T14:21:25Z</time>
      </trkpt>
      <trkpt lat="37.758759000" lon="-4.916791000">
        <ele>177.6</ele>
        <time>2020-10-12T14:21:28Z</time>
      </trkpt>
      <trkpt lat="37.758822000" lon="-4.916861000">
        <ele>177.9</ele>
        <time>2020-10-12T14:21:31Z</time>
      </trkpt>
      <trkpt lat="37.758895000" lon="-4.916940000">
        <ele>178.1</ele>
        <time>2020-10-12T14:21:34Z</time>
      </trkpt>
      <trkpt lat="37.758972000" lon="-4.917039000">
        <ele>178.3</ele>
        <time>2020-10-12T14:21:37Z</time>
      </trkpt>
      <trkpt lat="37.759031000" lon="-4.917117000">
        <ele>178.4</ele>
        <time>2020-10-12T14:21:39Z</time>
      </trkpt>
      <trkpt lat="37.759115000" lon="-4.917213000">
        <ele>178.4</ele>
        <time>2020-10-12T14:21:42Z</time>
      </trkpt>
      <trkpt lat="37.759180000" lon="-4.917299000">
        <ele>178.3</ele>
        <time>2020-10-12T14:21:45Z</time>
      </trkpt>
      <trkpt lat="37.759258000" lon="-4.917405000">
        <ele>178.2</ele>
        <time>2020-10-12T14:21:48Z</time>
      </trkpt>
      <trkpt lat="37.759318000" lon="-4.917485000">
        <ele>178.0</ele>
        <time>2020-10-12T14:21:50Z</time>
      </trkpt>
      <trkpt lat="37.759371000" lon="-4.917563000">
        <ele>177.7</ele>
        <time>2020-10-12T14:21:52Z</time>
      </trkpt>
      <trkpt lat="37.759447000" lon="-4.917674000">
        <ele>177.5</ele>
        <time>2020-10-12T14:21:55Z</time>
      </trkpt>
      <trkpt lat="37.759503000" lon="-4.917751000">
        <ele>177.2</ele>
        <time>2020-10-12T14:21:57Z</time>
      </trkpt>
      <trkpt lat="37.759560000" lon="-4.917833000">
        <ele>177.0</ele>
        <time>2020-10-12T14:21:59Z</time>
      </trkpt>
      <trkpt lat="37.759619000" lon="-4.917913000">
        <ele>176.9</ele>
        <time>2020-10-12T14:22:01Z</time>
      </trkpt>
      <trkpt lat="37.759679000" lon="-4.917992000">
        <ele>176.8</ele>
        <time>2020-10-12T14:22:03Z</time>
      </trkpt>
      <trkpt lat="37.759739000" lon="-4.918070000">
        <ele>176.7</ele>
        <time>2020-10-12T14:22:05Z</time>
      </trkpt>
      <trkpt lat="37.759800000" lon="-4.918156000">
        <ele>176.7</ele>
        <time>2020-10-12T14:22:07Z</time>
      </trkpt>
      <trkpt lat="37.759864000" lon="-4.918233000">
        <ele>176.7</ele>
        <time>2020-10-12T14:22:09Z</time>
      </trkpt>
      <trkpt lat="37.759929000" lon="-4.918308000">
        <ele>176.6</ele>
        <time>2020-10-12T14:22:11Z</time>
      </trkpt>
      <trkpt lat="37.759995000" lon="-4.918387000">
        <ele>176.5</ele>
        <time>2020-10-12T14:22:13Z</time>
      </trkpt>
      <trkpt lat="37.760062000" lon="-4.918460000">
        <ele>176.6</ele>
        <time>2020-10-12T14:22:15Z</time>
      </trkpt>
      <trkpt lat="37.760131000" lon="-4.918533000">
        <ele>176.7</ele>
        <time>2020-10-12T14:22:17Z</time>
      </trkpt>
      <trkpt lat="37.760208000" lon="-4.918602000">
        <ele>176.8</ele>
        <time>2020-10-12T14:22:19Z</time>
      </trkpt>
      <trkpt lat="37.760287000" lon="-4.918666000">
        <ele>176.8</ele>
        <time>2020-10-12T14:22:21Z</time>
      </trkpt>
      <trkpt lat="37.760361000" lon="-4.918736000">
        <ele>176.8</ele>
        <time>2020-10-12T14:22:23Z</time>
      </trkpt>
      <trkpt lat="37.760444000" lon="-4.918795000">
        <ele>176.8</ele>
        <time>2020-10-12T14:22:25Z</time>
      </trkpt>
      <trkpt lat="37.760526000" lon="-4.918850000">
        <ele>176.8</ele>
        <time>2020-10-12T14:22:27Z</time>
      </trkpt>
      <trkpt lat="37.760611000" lon="-4.918901000">
        <ele>176.8</ele>
        <time>2020-10-12T14:22:29Z</time>
      </trkpt>
      <trkpt lat="37.760700000" lon="-4.918940000">
        <ele>176.7</ele>
        <time>2020-10-12T14:22:31Z</time>
      </trkpt>
      <trkpt lat="37.760792000" lon="-4.918981000">
        <ele>176.7</ele>
        <time>2020-10-12T14:22:33Z</time>
      </trkpt>
      <trkpt lat="37.760883000" lon="-4.919023000">
        <ele>176.6</ele>
        <time>2020-10-12T14:22:35Z</time>
      </trkpt>
      <trkpt lat="37.760977000" lon="-4.919055000">
        <ele>176.5</ele>
        <time>2020-10-12T14:22:37Z</time>
      </trkpt>
      <trkpt lat="37.761071000" lon="-4.919090000">
        <ele>176.2</ele>
        <time>2020-10-12T14:22:39Z</time>
      </trkpt>
      <trkpt lat="37.761163000" lon="-4.919117000">
        <ele>175.9</ele>
        <time>2020-10-12T14:22:41Z</time>
      </trkpt>
      <trkpt lat="37.761263000" lon="-4.919141000">
        <ele>175.6</ele>
        <time>2020-10-12T14:22:43Z</time>
      </trkpt>
      <trkpt lat="37.761360000" lon="-4.919160000">
        <ele>175.4</ele>
        <time>2020-10-12T14:22:45Z</time>
      </trkpt>
      <trkpt lat="37.761465000" lon="-4.919174000">
        <ele>175.1</ele>
        <time>2020-10-12T14:22:47Z</time>
      </trkpt>
      <trkpt lat="37.761563000" lon="-4.919184000">
        <ele>174.8</ele>
        <time>2020-10-12T14:22:49Z</time>
      </trkpt>
      <trkpt lat="37.761669000" lon="-4.919188000">
        <ele>174.5</ele>
        <time>2020-10-12T14:22:51Z</time>
      </trkpt>
      <trkpt lat="37.761774000" lon="-4.919184000">
        <ele>174.2</ele>
        <time>2020-10-12T14:22:53Z</time>
      </trkpt>
      <trkpt lat="37.761879000" lon="-4.919178000">
        <ele>173.8</ele>
        <time>2020-10-12T14:22:55Z</time>
      </trkpt>
      <trkpt lat="37.761976000" lon="-4.919176000">
        <ele>173.5</ele>
        <time>2020-10-12T14:22:57Z</time>
      </trkpt>
      <trkpt lat="37.762068000" lon="-4.919166000">
        <ele>173.2</ele>
        <time>2020-10-12T14:22:59Z</time>
      </trkpt>
      <trkpt lat="37.762150000" lon="-4.919155000">
        <ele>172.8</ele>
        <time>2020-10-12T14:23:01Z</time>
      </trkpt>
      <trkpt lat="37.762241000" lon="-4.919135000">
        <ele>172.4</ele>
        <time>2020-10-12T14:23:03Z</time>
      </trkpt>
      <trkpt lat="37.762325000" lon="-4.919111000">
        <ele>171.9</ele>
        <time>2020-10-12T14:23:05Z</time>
      </trkpt>
      <trkpt lat="37.762415000" lon="-4.919080000">
        <ele>171.4</ele>
        <time>2020-10-12T14:23:07Z</time>
      </trkpt>
      <trkpt lat="37.762502000" lon="-4.919054000">
        <ele>170.8</ele>
        <time>2020-10-12T14:23:09Z</time>
      </trkpt>
      <trkpt lat="37.762619000" lon="-4.919008000">
        <ele>170.3</ele>
        <time>2020-10-12T14:23:12Z</time>
      </trkpt>
      <trkpt lat="37.762731000" lon="-4.918943000">
        <ele>169.7</ele>
        <time>2020-10-12T14:23:15Z</time>
      </trkpt>
      <trkpt lat="37.762813000" lon="-4.918909000">
        <ele>169.1</ele>
        <time>2020-10-12T14:23:17Z</time>
      </trkpt>
      <trkpt lat="37.762919000" lon="-4.918841000">
        <ele>168.5</ele>
        <time>2020-10-12T14:23:20Z</time>
      </trkpt>
      <trkpt lat="37.763023000" lon="-4.918774000">
        <ele>167.8</ele>
        <time>2020-10-12T14:23:23Z</time>
      </trkpt>
      <trkpt lat="37.763117000" lon="-4.918699000">
        <ele>167.3</ele>
        <time>2020-10-12T14:23:26Z</time>
      </trkpt>
      <trkpt lat="37.763205000" lon="-4.918620000">
        <ele>166.8</ele>
        <time>2020-10-12T14:23:29Z</time>
      </trkpt>
      <trkpt lat="37.763312000" lon="-4.918530000">
        <ele>166.5</ele>
        <time>2020-10-12T14:23:32Z</time>
      </trkpt>
      <trkpt lat="37.763391000" lon="-4.918448000">
        <ele>166.3</ele>
        <time>2020-10-12T14:23:34Z</time>
      </trkpt>
      <trkpt lat="37.763472000" lon="-4.918370000">
        <ele>166.1</ele>
        <time>2020-10-12T14:23:36Z</time>
      </trkpt>
      <trkpt lat="37.763542000" lon="-4.918293000">
        <ele>165.9</ele>
        <time>2020-10-12T14:23:38Z</time>
      </trkpt>
      <trkpt lat="37.763608000" lon="-4.918227000">
        <ele>165.8</ele>
        <time>2020-10-12T14:23:40Z</time>
      </trkpt>
      <trkpt lat="37.763697000" lon="-4.918134000">
        <ele>165.8</ele>
        <time>2020-10-12T14:23:43Z</time>
      </trkpt>
      <trkpt lat="37.763772000" lon="-4.918056000">
        <ele>165.8</ele>
        <time>2020-10-12T14:23:46Z</time>
      </trkpt>
      <trkpt lat="37.763835000" lon="-4.917991000">
        <ele>166.0</ele>
        <time>2020-10-12T14:24:56Z</time>
      </trkpt>
      <trkpt lat="37.763896000" lon="-4.917916000">
        <ele>166.2</ele>
        <time>2020-10-12T14:25:01Z</time>
      </trkpt>
      <trkpt lat="37.763968000" lon="-4.917833000">
        <ele>166.5</ele>
        <time>2020-10-12T14:25:04Z</time>
      </trkpt>
      <trkpt lat="37.764035000" lon="-4.917765000">
        <ele>166.6</ele>
        <time>2020-10-12T14:25:06Z</time>
      </trkpt>
      <trkpt lat="37.764118000" lon="-4.917688000">
        <ele>166.7</ele>
        <time>2020-10-12T14:25:08Z</time>
      </trkpt>
      <trkpt lat="37.764191000" lon="-4.917617000">
        <ele>166.7</ele>
        <time>2020-10-12T14:25:10Z</time>
      </trkpt>
      <trkpt lat="37.764261000" lon="-4.917551000">
        <ele>166.5</ele>
        <time>2020-10-12T14:25:12Z</time>
      </trkpt>
      <trkpt lat="37.764353000" lon="-4.917458000">
        <ele>166.4</ele>
        <time>2020-10-12T14:25:15Z</time>
      </trkpt>
      <trkpt lat="37.764418000" lon="-4.917398000">
        <ele>166.0</ele>
        <time>2020-10-12T14:25:17Z</time>
      </trkpt>
      <trkpt lat="37.764511000" lon="-4.917319000">
        <ele>165.5</ele>
        <time>2020-10-12T14:25:20Z</time>
      </trkpt>
      <trkpt lat="37.764604000" lon="-4.917235000">
        <ele>165.2</ele>
        <time>2020-10-12T14:25:23Z</time>
      </trkpt>
      <trkpt lat="37.764703000" lon="-4.917168000">
        <ele>164.7</ele>
        <time>2020-10-12T14:25:26Z</time>
      </trkpt>
      <trkpt lat="37.764774000" lon="-4.917115000">
        <ele>164.3</ele>
        <time>2020-10-12T14:25:28Z</time>
      </trkpt>
      <trkpt lat="37.764853000" lon="-4.917060000">
        <ele>163.7</ele>
        <time>2020-10-12T14:25:30Z</time>
      </trkpt>
      <trkpt lat="37.764937000" lon="-4.917008000">
        <ele>163.3</ele>
        <time>2020-10-12T14:25:32Z</time>
      </trkpt>
      <trkpt lat="37.765016000" lon="-4.916954000">
        <ele>162.7</ele>
        <time>2020-10-12T14:25:34Z</time>
      </trkpt>
      <trkpt lat="37.765108000" lon="-4.916903000">
        <ele>162.2</ele>
        <time>2020-10-12T14:25:36Z</time>
      </trkpt>
      <trkpt lat="37.765202000" lon="-4.916866000">
        <ele>161.8</ele>
        <time>2020-10-12T14:25:38Z</time>
      </trkpt>
      <trkpt lat="37.765301000" lon="-4.916826000">
        <ele>161.4</ele>
        <time>2020-10-12T14:25:40Z</time>
      </trkpt>
      <trkpt lat="37.765396000" lon="-4.916789000">
        <ele>161.0</ele>
        <time>2020-10-12T14:25:42Z</time>
      </trkpt>
      <trkpt lat="37.765490000" lon="-4.916760000">
        <ele>160.7</ele>
        <time>2020-10-12T14:25:44Z</time>
      </trkpt>
      <trkpt lat="37.765582000" lon="-4.916734000">
        <ele>160.5</ele>
        <time>2020-10-12T14:25:46Z</time>
      </trkpt>
      <trkpt lat="37.765676000" lon="-4.916713000">
        <ele>160.4</ele>
        <time>2020-10-12T14:25:48Z</time>
      </trkpt>
      <trkpt lat="37.765770000" lon="-4.916687000">
        <ele>160.2</ele>
        <time>2020-10-12T14:25:50Z</time>
      </trkpt>
      <trkpt lat="37.765866000" lon="-4.916676000">
        <ele>160.0</ele>
        <time>2020-10-12T14:25:52Z</time>
      </trkpt>
      <trkpt lat="37.765966000" lon="-4.916664000">
        <ele>159.8</ele>
        <time>2020-10-12T14:25:54Z</time>
      </trkpt>
      <trkpt lat="37.766060000" lon="-4.916649000">
        <ele>159.7</ele>
        <time>2020-10-12T14:25:56Z</time>
      </trkpt>
      <trkpt lat="37.766154000" lon="-4.916641000">
        <ele>159.7</ele>
        <time>2020-10-12T14:25:58Z</time>
      </trkpt>
      <trkpt lat="37.766240000" lon="-4.916644000">
        <ele>159.7</ele>
        <time>2020-10-12T14:26:00Z</time>
      </trkpt>
      <trkpt lat="37.766334000" lon="-4.916642000">
        <ele>159.8</ele>
        <time>2020-10-12T14:26:02Z</time>
      </trkpt>
      <trkpt lat="37.766426000" lon="-4.916643000">
        <ele>159.8</ele>
        <time>2020-10-12T14:26:04Z</time>
      </trkpt>
      <trkpt lat="37.766515000" lon="-4.916649000">
        <ele>159.8</ele>
        <time>2020-10-12T14:26:06Z</time>
      </trkpt>
      <trkpt lat="37.766601000" lon="-4.916661000">
        <ele>159.7</ele>
        <time>2020-10-12T14:26:08Z</time>
      </trkpt>
      <trkpt lat="37.766681000" lon="-4.916678000">
        <ele>159.6</ele>
        <time>2020-10-12T14:26:10Z</time>
      </trkpt>
      <trkpt lat="37.766794000" lon="-4.916699000">
        <ele>159.5</ele>
        <time>2020-10-12T14:26:13Z</time>
      </trkpt>
      <trkpt lat="37.766896000" lon="-4.916725000">
        <ele>159.5</ele>
        <time>2020-10-12T14:26:16Z</time>
      </trkpt>
      <trkpt lat="37.767001000" lon="-4.916754000">
        <ele>159.5</ele>
        <time>2020-10-12T14:26:19Z</time>
      </trkpt>
      <trkpt lat="37.767110000" lon="-4.916790000">
        <ele>159.6</ele>
        <time>2020-10-12T14:26:22Z</time>
      </trkpt>
      <trkpt lat="37.767218000" lon="-4.916827000">
        <ele>159.7</ele>
        <time>2020-10-12T14:26:25Z</time>
      </trkpt>
      <trkpt lat="37.767326000" lon="-4.916867000">
        <ele>159.9</ele>
        <time>2020-10-12T14:26:28Z</time>
      </trkpt>
      <trkpt lat="37.767439000" lon="-4.916926000">
        <ele>160.2</ele>
        <time>2020-10-12T14:26:31Z</time>
      </trkpt>
      <trkpt lat="37.767517000" lon="-4.916969000">
        <ele>160.5</ele>
        <time>2020-10-12T14:26:33Z</time>
      </trkpt>
      <trkpt lat="37.767596000" lon="-4.917014000">
        <ele>161.0</ele>
        <time>2020-10-12T14:26:35Z</time>
      </trkpt>
      <trkpt lat="37.767674000" lon="-4.917063000">
        <ele>161.5</ele>
        <time>2020-10-12T14:26:37Z</time>
      </trkpt>
      <trkpt lat="37.767749000" lon="-4.917114000">
        <ele>162.0</ele>
        <time>2020-10-12T14:26:39Z</time>
      </trkpt>
      <trkpt lat="37.767823000" lon="-4.917164000">
        <ele>162.6</ele>
        <time>2020-10-12T14:26:41Z</time>
      </trkpt>
      <trkpt lat="37.767899000" lon="-4.917216000">
        <ele>163.3</ele>
        <time>2020-10-12T14:26:43Z</time>
      </trkpt>
      <trkpt lat="37.767977000" lon="-4.917274000">
        <ele>164.0</ele>
        <time>2020-10-12T14:26:45Z</time>
      </trkpt>
      <trkpt lat="37.768045000" lon="-4.917338000">
        <ele>164.7</ele>
        <time>2020-10-12T14:26:47Z</time>
      </trkpt>
      <trkpt lat="37.768113000" lon="-4.917402000">
        <ele>165.5</ele>
        <time>2020-10-12T14:26:49Z</time>
      </trkpt>
      <trkpt lat="37.768208000" lon="-4.917492000">
        <ele>166.5</ele>
        <time>2020-10-12T14:26:52Z</time>
      </trkpt>
      <trkpt lat="37.768292000" lon="-4.917578000">
        <ele>167.4</ele>
        <time>2020-10-12T14:26:55Z</time>
      </trkpt>
      <trkpt lat="37.768366000" lon="-4.917669000">
        <ele>168.4</ele>
        <time>2020-10-12T14:26:58Z</time>
      </trkpt>
      <trkpt lat="37.768442000" lon="-4.917748000">
        <ele>169.4</ele>
        <time>2020-10-12T14:27:01Z</time>
      </trkpt>
      <trkpt lat="37.768509000" lon="-4.917846000">
        <ele>170.4</ele>
        <time>2020-10-12T14:27:05Z</time>
      </trkpt>
      <trkpt lat="37.768577000" lon="-4.917931000">
        <ele>171.4</ele>
        <time>2020-10-12T14:27:09Z</time>
      </trkpt>
      <trkpt lat="37.768653000" lon="-4.918029000">
        <ele>172.4</ele>
        <time>2020-10-12T14:27:13Z</time>
      </trkpt>
      <trkpt lat="37.768718000" lon="-4.918120000">
        <ele>173.3</ele>
        <time>2020-10-12T14:27:16Z</time>
      </trkpt>
      <trkpt lat="37.768780000" lon="-4.918210000">
        <ele>174.1</ele>
        <time>2020-10-12T14:27:19Z</time>
      </trkpt>
      <trkpt lat="37.768829000" lon="-4.918307000">
        <ele>174.8</ele>
        <time>2020-10-12T14:27:22Z</time>
      </trkpt>
      <trkpt lat="37.768878000" lon="-4.918412000">
        <ele>175.5</ele>
        <time>2020-10-12T14:27:25Z</time>
      </trkpt>
      <trkpt lat="37.768922000" lon="-4.918507000">
        <ele>175.9</ele>
        <time>2020-10-12T14:27:28Z</time>
      </trkpt>
      <trkpt lat="37.768983000" lon="-4.918609000">
        <ele>176.3</ele>
        <time>2020-10-12T14:27:31Z</time>
      </trkpt>
      <trkpt lat="37.769040000" lon="-4.918707000">
        <ele>176.5</ele>
        <time>2020-10-12T14:27:34Z</time>
      </trkpt>
      <trkpt lat="37.769111000" lon="-4.918822000">
        <ele>176.4</ele>
        <time>2020-10-12T14:27:37Z</time>
      </trkpt>
      <trkpt lat="37.769170000" lon="-4.918901000">
        <ele>176.2</ele>
        <time>2020-10-12T14:27:39Z</time>
      </trkpt>
      <trkpt lat="37.769253000" lon="-4.918999000">
        <ele>175.9</ele>
        <time>2020-10-12T14:27:40Z</time>
      </trkpt>
      <trkpt lat="37.769320000" lon="-4.919106000">
        <ele>175.5</ele>
        <time>2020-10-12T14:27:43Z</time>
      </trkpt>
      <trkpt lat="37.769390000" lon="-4.919221000">
        <ele>175.2</ele>
        <time>2020-10-12T14:27:46Z</time>
      </trkpt>
      <trkpt lat="37.769454000" lon="-4.919331000">
        <ele>174.8</ele>
        <time>2020-10-12T14:27:49Z</time>
      </trkpt>
      <trkpt lat="37.769514000" lon="-4.919438000">
        <ele>174.5</ele>
        <time>2020-10-12T14:27:52Z</time>
      </trkpt>
      <trkpt lat="37.769568000" lon="-4.919515000">
        <ele>174.1</ele>
        <time>2020-10-12T14:27:54Z</time>
      </trkpt>
      <trkpt lat="37.769643000" lon="-4.919622000">
        <ele>173.8</ele>
        <time>2020-10-12T14:27:57Z</time>
      </trkpt>
      <trkpt lat="37.769708000" lon="-4.919716000">
        <ele>173.5</ele>
        <time>2020-10-12T14:28:00Z</time>
      </trkpt>
      <trkpt lat="37.769795000" lon="-4.919827000">
        <ele>173.3</ele>
        <time>2020-10-12T14:28:03Z</time>
      </trkpt>
      <trkpt lat="37.769851000" lon="-4.919910000">
        <ele>173.3</ele>
        <time>2020-10-12T14:28:05Z</time>
      </trkpt>
      <trkpt lat="37.769922000" lon="-4.920009000">
        <ele>173.4</ele>
        <time>2020-10-12T14:28:08Z</time>
      </trkpt>
      <trkpt lat="37.769986000" lon="-4.920095000">
        <ele>173.5</ele>
        <time>2020-10-12T14:28:11Z</time>
      </trkpt>
      <trkpt lat="37.770071000" lon="-4.920185000">
        <ele>173.5</ele>
        <time>2020-10-12T14:28:14Z</time>
      </trkpt>
      <trkpt lat="37.770157000" lon="-4.920276000">
        <ele>173.6</ele>
        <time>2020-10-12T14:28:17Z</time>
      </trkpt>
      <trkpt lat="37.770238000" lon="-4.920363000">
        <ele>173.7</ele>
        <time>2020-10-12T14:28:20Z</time>
      </trkpt>
      <trkpt lat="37.770322000" lon="-4.920435000">
        <ele>173.9</ele>
        <time>2020-10-12T14:28:23Z</time>
      </trkpt>
      <trkpt lat="37.770414000" lon="-4.920512000">
        <ele>174.2</ele>
        <time>2020-10-12T14:28:26Z</time>
      </trkpt>
      <trkpt lat="37.770485000" lon="-4.920571000">
        <ele>174.5</ele>
        <time>2020-10-12T14:28:28Z</time>
      </trkpt>
      <trkpt lat="37.770554000" lon="-4.920633000">
        <ele>174.9</ele>
        <time>2020-10-12T14:28:30Z</time>
      </trkpt>
      <trkpt lat="37.770642000" lon="-4.920704000">
        <ele>175.4</ele>
        <time>2020-10-12T14:28:33Z</time>
      </trkpt>
      <trkpt lat="37.770726000" lon="-4.920759000">
        <ele>175.9</ele>
        <time>2020-10-12T14:28:36Z</time>
      </trkpt>
      <trkpt lat="37.770827000" lon="-4.920814000">
        <ele>176.5</ele>
        <time>2020-10-12T14:28:39Z</time>
      </trkpt>
      <trkpt lat="37.770903000" lon="-4.920854000">
        <ele>177.4</ele>
        <time>2020-10-12T14:28:41Z</time>
      </trkpt>
      <trkpt lat="37.770987000" lon="-4.920898000">
        <ele>178.2</ele>
        <time>2020-10-12T14:28:43Z</time>
      </trkpt>
      <trkpt lat="37.771096000" lon="-4.920947000">
        <ele>179.0</ele>
        <time>2020-10-12T14:28:46Z</time>
      </trkpt>
      <trkpt lat="37.771191000" lon="-4.920991000">
        <ele>179.8</ele>
        <time>2020-10-12T14:28:49Z</time>
      </trkpt>
      <trkpt lat="37.771289000" lon="-4.921026000">
        <ele>180.6</ele>
        <time>2020-10-12T14:28:52Z</time>
      </trkpt>
      <trkpt lat="37.771401000" lon="-4.921059000">
        <ele>181.4</ele>
        <time>2020-10-12T14:28:55Z</time>
      </trkpt>
      <trkpt lat="37.771486000" lon="-4.921086000">
        <ele>182.0</ele>
        <time>2020-10-12T14:28:57Z</time>
      </trkpt>
      <trkpt lat="37.771597000" lon="-4.921113000">
        <ele>182.5</ele>
        <time>2020-10-12T14:29:00Z</time>
      </trkpt>
      <trkpt lat="37.771689000" lon="-4.921130000">
        <ele>183.0</ele>
        <time>2020-10-12T14:29:03Z</time>
      </trkpt>
      <trkpt lat="37.771811000" lon="-4.921147000">
        <ele>183.4</ele>
        <time>2020-10-12T14:29:06Z</time>
      </trkpt>
      <trkpt lat="37.771894000" lon="-4.921161000">
        <ele>183.5</ele>
        <time>2020-10-12T14:29:08Z</time>
      </trkpt>
      <trkpt lat="37.771983000" lon="-4.921165000">
        <ele>183.5</ele>
        <time>2020-10-12T14:29:11Z</time>
      </trkpt>
      <trkpt lat="37.772072000" lon="-4.921174000">
        <ele>183.4</ele>
        <time>2020-10-12T14:29:14Z</time>
      </trkpt>
      <trkpt lat="37.772166000" lon="-4.921170000">
        <ele>183.3</ele>
        <time>2020-10-12T14:29:17Z</time>
      </trkpt>
      <trkpt lat="37.772266000" lon="-4.921164000">
        <ele>183.1</ele>
        <time>2020-10-12T14:29:20Z</time>
      </trkpt>
      <trkpt lat="37.772366000" lon="-4.921148000">
        <ele>182.8</ele>
        <time>2020-10-12T14:29:24Z</time>
      </trkpt>
      <trkpt lat="37.772465000" lon="-4.921129000">
        <ele>182.6</ele>
        <time>2020-10-12T14:29:26Z</time>
      </trkpt>
      <trkpt lat="37.772562000" lon="-4.921107000">
        <ele>182.4</ele>
        <time>2020-10-12T14:29:29Z</time>
      </trkpt>
      <trkpt lat="37.772663000" lon="-4.921083000">
        <ele>182.1</ele>
        <time>2020-10-12T14:29:32Z</time>
      </trkpt>
      <trkpt lat="37.772762000" lon="-4.921052000">
        <ele>181.8</ele>
        <time>2020-10-12T14:29:35Z</time>
      </trkpt>
      <trkpt lat="37.772862000" lon="-4.921022000">
        <ele>181.5</ele>
        <time>2020-10-12T14:29:38Z</time>
      </trkpt>
      <trkpt lat="37.772964000" lon="-4.920997000">
        <ele>181.2</ele>
        <time>2020-10-12T14:29:41Z</time>
      </trkpt>
      <trkpt lat="37.773059000" lon="-4.920968000">
        <ele>181.0</ele>
        <time>2020-10-12T14:29:44Z</time>
      </trkpt>
      <trkpt lat="37.773142000" lon="-4.920933000">
        <ele>180.8</ele>
        <time>2020-10-12T14:29:47Z</time>
      </trkpt>
      <trkpt lat="37.773223000" lon="-4.920901000">
        <ele>180.6</ele>
        <time>2020-10-12T14:29:50Z</time>
      </trkpt>
      <trkpt lat="37.773317000" lon="-4.920850000">
        <ele>180.5</ele>
        <time>2020-10-12T14:29:53Z</time>
      </trkpt>
      <trkpt lat="37.773427000" lon="-4.920789000">
        <ele>180.5</ele>
        <time>2020-10-12T14:29:56Z</time>
      </trkpt>
      <trkpt lat="37.773505000" lon="-4.920747000">
        <ele>180.4</ele>
        <time>2020-10-12T14:29:58Z</time>
      </trkpt>
      <trkpt lat="37.773578000" lon="-4.920701000">
        <ele>180.4</ele>
        <time>2020-10-12T14:30:00Z</time>
      </trkpt>
      <trkpt lat="37.773651000" lon="-4.920654000">
        <ele>180.4</ele>
        <time>2020-10-12T14:30:02Z</time>
      </trkpt>
      <trkpt lat="37.773723000" lon="-4.920608000">
        <ele>180.4</ele>
        <time>2020-10-12T14:30:04Z</time>
      </trkpt>
      <trkpt lat="37.773825000" lon="-4.920534000">
        <ele>180.5</ele>
        <time>2020-10-12T14:30:07Z</time>
      </trkpt>
      <trkpt lat="37.773915000" lon="-4.920458000">
        <ele>180.5</ele>
        <time>2020-10-12T14:30:10Z</time>
      </trkpt>
      <trkpt lat="37.774007000" lon="-4.920369000">
        <ele>180.6</ele>
        <time>2020-10-12T14:30:13Z</time>
      </trkpt>
      <trkpt lat="37.774074000" lon="-4.920305000">
        <ele>180.7</ele>
        <time>2020-10-12T14:30:15Z</time>
      </trkpt>
      <trkpt lat="37.774145000" lon="-4.920237000">
        <ele>180.8</ele>
        <time>2020-10-12T14:30:17Z</time>
      </trkpt>
      <trkpt lat="37.774216000" lon="-4.920168000">
        <ele>180.9</ele>
        <time>2020-10-12T14:30:19Z</time>
      </trkpt>
      <trkpt lat="37.774286000" lon="-4.920102000">
        <ele>180.9</ele>
        <time>2020-10-12T14:30:21Z</time>
      </trkpt>
      <trkpt lat="37.774352000" lon="-4.920034000">
        <ele>180.7</ele>
        <time>2020-10-12T14:30:23Z</time>
      </trkpt>
      <trkpt lat="37.774420000" lon="-4.919963000">
        <ele>180.5</ele>
        <time>2020-10-12T14:30:25Z</time>
      </trkpt>
      <trkpt lat="37.774490000" lon="-4.919895000">
        <ele>180.3</ele>
        <time>2020-10-12T14:30:27Z</time>
      </trkpt>
      <trkpt lat="37.774572000" lon="-4.919831000">
        <ele>179.9</ele>
        <time>2020-10-12T14:30:29Z</time>
      </trkpt>
      <trkpt lat="37.774635000" lon="-4.919761000">
        <ele>179.5</ele>
        <time>2020-10-12T14:30:31Z</time>
      </trkpt>
      <trkpt lat="37.774707000" lon="-4.919698000">
        <ele>179.0</ele>
        <time>2020-10-12T14:30:33Z</time>
      </trkpt>
      <trkpt lat="37.774776000" lon="-4.919631000">
        <ele>178.5</ele>
        <time>2020-10-12T14:30:35Z</time>
      </trkpt>
      <trkpt lat="37.774844000" lon="-4.919564000">
        <ele>178.1</ele>
        <time>2020-10-12T14:30:37Z</time>
      </trkpt>
      <trkpt lat="37.774914000" lon="-4.919497000">
        <ele>177.6</ele>
        <time>2020-10-12T14:30:39Z</time>
      </trkpt>
      <trkpt lat="37.774983000" lon="-4.919425000">
        <ele>177.2</ele>
        <time>2020-10-12T14:30:41Z</time>
      </trkpt>
      <trkpt lat="37.775057000" lon="-4.919351000">
        <ele>176.8</ele>
        <time>2020-10-12T14:30:43Z</time>
      </trkpt>
      <trkpt lat="37.775131000" lon="-4.919280000">
        <ele>176.5</ele>
        <time>2020-10-12T14:30:45Z</time>
      </trkpt>
      <trkpt lat="37.775200000" lon="-4.919206000">
        <ele>176.3</ele>
        <time>2020-10-12T14:30:47Z</time>
      </trkpt>
      <trkpt lat="37.775271000" lon="-4.919144000">
        <ele>176.1</ele>
        <time>2020-10-12T14:30:49Z</time>
      </trkpt>
      <trkpt lat="37.775342000" lon="-4.919070000">
        <ele>175.9</ele>
        <time>2020-10-12T14:30:51Z</time>
      </trkpt>
      <trkpt lat="37.775406000" lon="-4.919003000">
        <ele>175.8</ele>
        <time>2020-10-12T14:30:53Z</time>
      </trkpt>
      <trkpt lat="37.775493000" lon="-4.918938000">
        <ele>175.7</ele>
        <time>2020-10-12T14:30:57Z</time>
      </trkpt>
      <trkpt lat="37.775560000" lon="-4.918857000">
        <ele>175.7</ele>
        <time>2020-10-12T14:31:23Z</time>
      </trkpt>
      <trkpt lat="37.775631000" lon="-4.918782000">
        <ele>175.7</ele>
        <time>2020-10-12T14:31:28Z</time>
      </trkpt>
      <trkpt lat="37.775704000" lon="-4.918708000">
        <ele>175.6</ele>
        <time>2020-10-12T14:31:33Z</time>
      </trkpt>
      <trkpt lat="37.775734000" lon="-4.918607000">
        <ele>175.6</ele>
        <time>2020-10-12T14:32:24Z</time>
      </trkpt>
      <trkpt lat="37.775750000" lon="-4.918616000">
        <ele>175.5</ele>
        <time>2020-10-12T14:35:07Z</time>
      </trkpt>
      <trkpt lat="37.776194000" lon="-4.918221000">
        <ele>168.5</ele>
        <time>2020-10-12T14:42:04Z</time>
      </trkpt>
      <trkpt lat="37.776216000" lon="-4.918199000">
        <ele>168.4</ele>
        <time>2020-10-12T14:42:04Z</time>
      </trkpt>
      <trkpt lat="37.776283000" lon="-4.918122000">
        <ele>168.4</ele>
        <time>2020-10-12T14:42:07Z</time>
      </trkpt>
      <trkpt lat="37.776370000" lon="-4.918045000">
        <ele>168.4</ele>
        <time>2020-10-12T14:42:10Z</time>
      </trkpt>
      <trkpt lat="37.776468000" lon="-4.917955000">
        <ele>168.6</ele>
        <time>2020-10-12T14:42:13Z</time>
      </trkpt>
      <trkpt lat="37.776534000" lon="-4.917887000">
        <ele>168.8</ele>
        <time>2020-10-12T14:42:15Z</time>
      </trkpt>
      <trkpt lat="37.776600000" lon="-4.917818000">
        <ele>169.0</ele>
        <time>2020-10-12T14:42:17Z</time>
      </trkpt>
      <trkpt lat="37.776662000" lon="-4.917753000">
        <ele>169.3</ele>
        <time>2020-10-12T14:42:19Z</time>
      </trkpt>
      <trkpt lat="37.776758000" lon="-4.917659000">
        <ele>169.5</ele>
        <time>2020-10-12T14:42:22Z</time>
      </trkpt>
      <trkpt lat="37.776824000" lon="-4.917590000">
        <ele>170.0</ele>
        <time>2020-10-12T14:42:24Z</time>
      </trkpt>
      <trkpt lat="37.776890000" lon="-4.917522000">
        <ele>170.5</ele>
        <time>2020-10-12T14:42:26Z</time>
      </trkpt>
      <trkpt lat="37.776956000" lon="-4.917454000">
        <ele>170.9</ele>
        <time>2020-10-12T14:42:28Z</time>
      </trkpt>
      <trkpt lat="37.777026000" lon="-4.917389000">
        <ele>171.5</ele>
        <time>2020-10-12T14:42:30Z</time>
      </trkpt>
      <trkpt lat="37.777101000" lon="-4.917326000">
        <ele>172.0</ele>
        <time>2020-10-12T14:42:32Z</time>
      </trkpt>
      <trkpt lat="37.777179000" lon="-4.917252000">
        <ele>172.5</ele>
        <time>2020-10-12T14:42:34Z</time>
      </trkpt>
      <trkpt lat="37.777256000" lon="-4.917173000">
        <ele>172.8</ele>
        <time>2020-10-12T14:42:36Z</time>
      </trkpt>
      <trkpt lat="37.777336000" lon="-4.917089000">
        <ele>173.1</ele>
        <time>2020-10-12T14:42:38Z</time>
      </trkpt>
      <trkpt lat="37.777415000" lon="-4.917010000">
        <ele>173.4</ele>
        <time>2020-10-12T14:42:40Z</time>
      </trkpt>
      <trkpt lat="37.777493000" lon="-4.916932000">
        <ele>173.5</ele>
        <time>2020-10-12T14:42:42Z</time>
      </trkpt>
      <trkpt lat="37.777571000" lon="-4.916855000">
        <ele>173.8</ele>
        <time>2020-10-12T14:42:44Z</time>
      </trkpt>
      <trkpt lat="37.777642000" lon="-4.916788000">
        <ele>174.1</ele>
        <time>2020-10-12T14:42:46Z</time>
      </trkpt>
      <trkpt lat="37.777707000" lon="-4.916724000">
        <ele>174.4</ele>
        <time>2020-10-12T14:42:48Z</time>
      </trkpt>
      <trkpt lat="37.777804000" lon="-4.916630000">
        <ele>174.6</ele>
        <time>2020-10-12T14:42:51Z</time>
      </trkpt>
      <trkpt lat="37.777869000" lon="-4.916560000">
        <ele>174.7</ele>
        <time>2020-10-12T14:42:53Z</time>
      </trkpt>
      <trkpt lat="37.777937000" lon="-4.916492000">
        <ele>174.7</ele>
        <time>2020-10-12T14:42:55Z</time>
      </trkpt>
      <trkpt lat="37.778006000" lon="-4.916424000">
        <ele>174.7</ele>
        <time>2020-10-12T14:42:57Z</time>
      </trkpt>
      <trkpt lat="37.778077000" lon="-4.916356000">
        <ele>174.6</ele>
        <time>2020-10-12T14:42:59Z</time>
      </trkpt>
      <trkpt lat="37.778138000" lon="-4.916286000">
        <ele>174.5</ele>
        <time>2020-10-12T14:43:01Z</time>
      </trkpt>
      <trkpt lat="37.778211000" lon="-4.916220000">
        <ele>174.5</ele>
        <time>2020-10-12T14:43:03Z</time>
      </trkpt>
      <trkpt lat="37.778284000" lon="-4.916144000">
        <ele>174.4</ele>
        <time>2020-10-12T14:43:05Z</time>
      </trkpt>
      <trkpt lat="37.778353000" lon="-4.916071000">
        <ele>174.2</ele>
        <time>2020-10-12T14:43:07Z</time>
      </trkpt>
      <trkpt lat="37.778430000" lon="-4.915997000">
        <ele>174.0</ele>
        <time>2020-10-12T14:43:09Z</time>
      </trkpt>
      <trkpt lat="37.778507000" lon="-4.915918000">
        <ele>173.8</ele>
        <time>2020-10-12T14:43:11Z</time>
      </trkpt>
      <trkpt lat="37.778591000" lon="-4.915837000">
        <ele>173.6</ele>
        <time>2020-10-12T14:43:13Z</time>
      </trkpt>
      <trkpt lat="37.778673000" lon="-4.915755000">
        <ele>173.5</ele>
        <time>2020-10-12T14:43:15Z</time>
      </trkpt>
      <trkpt lat="37.778750000" lon="-4.915676000">
        <ele>173.5</ele>
        <time>2020-10-12T14:43:17Z</time>
      </trkpt>
      <trkpt lat="37.778824000" lon="-4.915597000">
        <ele>173.4</ele>
        <time>2020-10-12T14:43:19Z</time>
      </trkpt>
      <trkpt lat="37.778902000" lon="-4.915509000">
        <ele>173.4</ele>
        <time>2020-10-12T14:43:21Z</time>
      </trkpt>
      <trkpt lat="37.778975000" lon="-4.915423000">
        <ele>173.4</ele>
        <time>2020-10-12T14:43:23Z</time>
      </trkpt>
      <trkpt lat="37.779052000" lon="-4.915333000">
        <ele>173.4</ele>
        <time>2020-10-12T14:43:25Z</time>
      </trkpt>
      <trkpt lat="37.779125000" lon="-4.915250000">
        <ele>173.4</ele>
        <time>2020-10-12T14:43:27Z</time>
      </trkpt>
      <trkpt lat="37.779197000" lon="-4.915164000">
        <ele>173.4</ele>
        <time>2020-10-12T14:43:29Z</time>
      </trkpt>
      <trkpt lat="37.779269000" lon="-4.915077000">
        <ele>173.2</ele>
        <time>2020-10-12T14:43:31Z</time>
      </trkpt>
      <trkpt lat="37.779340000" lon="-4.914989000">
        <ele>173.0</ele>
        <time>2020-10-12T14:43:33Z</time>
      </trkpt>
      <trkpt lat="37.779411000" lon="-4.914900000">
        <ele>172.8</ele>
        <time>2020-10-12T14:43:35Z</time>
      </trkpt>
      <trkpt lat="37.779480000" lon="-4.914807000">
        <ele>172.6</ele>
        <time>2020-10-12T14:43:37Z</time>
      </trkpt>
      <trkpt lat="37.779549000" lon="-4.914720000">
        <ele>172.5</ele>
        <time>2020-10-12T14:43:39Z</time>
      </trkpt>
      <trkpt lat="37.779617000" lon="-4.914634000">
        <ele>172.4</ele>
        <time>2020-10-12T14:43:41Z</time>
      </trkpt>
      <trkpt lat="37.779686000" lon="-4.914552000">
        <ele>172.1</ele>
        <time>2020-10-12T14:43:43Z</time>
      </trkpt>
      <trkpt lat="37.779754000" lon="-4.914462000">
        <ele>171.8</ele>
        <time>2020-10-12T14:43:45Z</time>
      </trkpt>
      <trkpt lat="37.779824000" lon="-4.914374000">
        <ele>171.5</ele>
        <time>2020-10-12T14:43:47Z</time>
      </trkpt>
      <trkpt lat="37.779896000" lon="-4.914286000">
        <ele>171.1</ele>
        <time>2020-10-12T14:43:49Z</time>
      </trkpt>
      <trkpt lat="37.779971000" lon="-4.914200000">
        <ele>170.7</ele>
        <time>2020-10-12T14:43:51Z</time>
      </trkpt>
      <trkpt lat="37.780042000" lon="-4.914099000">
        <ele>170.4</ele>
        <time>2020-10-12T14:43:53Z</time>
      </trkpt>
      <trkpt lat="37.780111000" lon="-4.913994000">
        <ele>170.0</ele>
        <time>2020-10-12T14:43:55Z</time>
      </trkpt>
      <trkpt lat="37.780193000" lon="-4.913888000">
        <ele>169.6</ele>
        <time>2020-10-12T14:43:57Z</time>
      </trkpt>
      <trkpt lat="37.780270000" lon="-4.913786000">
        <ele>169.2</ele>
        <time>2020-10-12T14:43:59Z</time>
      </trkpt>
      <trkpt lat="37.780346000" lon="-4.913686000">
        <ele>168.7</ele>
        <time>2020-10-12T14:44:01Z</time>
      </trkpt>
      <trkpt lat="37.780427000" lon="-4.913585000">
        <ele>168.3</ele>
        <time>2020-10-12T14:44:03Z</time>
      </trkpt>
      <trkpt lat="37.780509000" lon="-4.913481000">
        <ele>167.8</ele>
        <time>2020-10-12T14:44:05Z</time>
      </trkpt>
      <trkpt lat="37.780590000" lon="-4.913384000">
        <ele>167.4</ele>
        <time>2020-10-12T14:44:07Z</time>
      </trkpt>
      <trkpt lat="37.780673000" lon="-4.913283000">
        <ele>166.9</ele>
        <time>2020-10-12T14:44:09Z</time>
      </trkpt>
      <trkpt lat="37.780747000" lon="-4.913179000">
        <ele>166.5</ele>
        <time>2020-10-12T14:44:11Z</time>
      </trkpt>
      <trkpt lat="37.780827000" lon="-4.913080000">
        <ele>166.3</ele>
        <time>2020-10-12T14:44:13Z</time>
      </trkpt>
      <trkpt lat="37.780916000" lon="-4.912974000">
        <ele>166.0</ele>
        <time>2020-10-12T14:44:15Z</time>
      </trkpt>
      <trkpt lat="37.781008000" lon="-4.912861000">
        <ele>165.6</ele>
        <time>2020-10-12T14:44:17Z</time>
      </trkpt>
      <trkpt lat="37.781095000" lon="-4.912753000">
        <ele>165.2</ele>
        <time>2020-10-12T14:44:19Z</time>
      </trkpt>
      <trkpt lat="37.781183000" lon="-4.912646000">
        <ele>164.7</ele>
        <time>2020-10-12T14:44:21Z</time>
      </trkpt>
      <trkpt lat="37.781263000" lon="-4.912532000">
        <ele>164.3</ele>
        <time>2020-10-12T14:44:23Z</time>
      </trkpt>
      <trkpt lat="37.781356000" lon="-4.912423000">
        <ele>163.9</ele>
        <time>2020-10-12T14:44:25Z</time>
      </trkpt>
      <trkpt lat="37.781449000" lon="-4.912314000">
        <ele>163.7</ele>
        <time>2020-10-12T14:44:27Z</time>
      </trkpt>
      <trkpt lat="37.781539000" lon="-4.912205000">
        <ele>163.6</ele>
        <time>2020-10-12T14:44:29Z</time>
      </trkpt>
      <trkpt lat="37.781631000" lon="-4.912093000">
        <ele>163.6</ele>
        <time>2020-10-12T14:44:31Z</time>
      </trkpt>
      <trkpt lat="37.781712000" lon="-4.911987000">
        <ele>163.6</ele>
        <time>2020-10-12T14:44:33Z</time>
      </trkpt>
      <trkpt lat="37.781792000" lon="-4.911879000">
        <ele>163.5</ele>
        <time>2020-10-12T14:44:35Z</time>
      </trkpt>
      <trkpt lat="37.781880000" lon="-4.911773000">
        <ele>163.5</ele>
        <time>2020-10-12T14:44:37Z</time>
      </trkpt>
      <trkpt lat="37.781954000" lon="-4.911676000">
        <ele>163.6</ele>
        <time>2020-10-12T14:44:39Z</time>
      </trkpt>
      <trkpt lat="37.782035000" lon="-4.911573000">
        <ele>163.7</ele>
        <time>2020-10-12T14:44:41Z</time>
      </trkpt>
      <trkpt lat="37.782105000" lon="-4.911479000">
        <ele>163.9</ele>
        <time>2020-10-12T14:44:43Z</time>
      </trkpt>
      <trkpt lat="37.782178000" lon="-4.911385000">
        <ele>164.1</ele>
        <time>2020-10-12T14:44:45Z</time>
      </trkpt>
      <trkpt lat="37.782244000" lon="-4.911296000">
        <ele>164.3</ele>
        <time>2020-10-12T14:44:47Z</time>
      </trkpt>
      <trkpt lat="37.782314000" lon="-4.911209000">
        <ele>164.4</ele>
        <time>2020-10-12T14:44:49Z</time>
      </trkpt>
      <trkpt lat="37.782386000" lon="-4.911130000">
        <ele>164.5</ele>
        <time>2020-10-12T14:44:51Z</time>
      </trkpt>
      <trkpt lat="37.782460000" lon="-4.911041000">
        <ele>164.6</ele>
        <time>2020-10-12T14:44:53Z</time>
      </trkpt>
      <trkpt lat="37.782532000" lon="-4.910956000">
        <ele>164.7</ele>
        <time>2020-10-12T14:44:55Z</time>
      </trkpt>
      <trkpt lat="37.782598000" lon="-4.910872000">
        <ele>164.9</ele>
        <time>2020-10-12T14:44:57Z</time>
      </trkpt>
      <trkpt lat="37.782659000" lon="-4.910797000">
        <ele>165.1</ele>
        <time>2020-10-12T14:44:59Z</time>
      </trkpt>
      <trkpt lat="37.782721000" lon="-4.910717000">
        <ele>165.2</ele>
        <time>2020-10-12T14:45:01Z</time>
      </trkpt>
      <trkpt lat="37.782781000" lon="-4.910642000">
        <ele>165.4</ele>
        <time>2020-10-12T14:45:03Z</time>
      </trkpt>
      <trkpt lat="37.782840000" lon="-4.910564000">
        <ele>165.5</ele>
        <time>2020-10-12T14:45:05Z</time>
      </trkpt>
      <trkpt lat="37.782897000" lon="-4.910490000">
        <ele>165.7</ele>
        <time>2020-10-12T14:45:07Z</time>
      </trkpt>
      <trkpt lat="37.782956000" lon="-4.910418000">
        <ele>165.9</ele>
        <time>2020-10-12T14:45:09Z</time>
      </trkpt>
      <trkpt lat="37.783016000" lon="-4.910341000">
        <ele>166.1</ele>
        <time>2020-10-12T14:45:11Z</time>
      </trkpt>
      <trkpt lat="37.783075000" lon="-4.910259000">
        <ele>166.3</ele>
        <time>2020-10-12T14:45:13Z</time>
      </trkpt>
      <trkpt lat="37.783135000" lon="-4.910171000">
        <ele>166.4</ele>
        <time>2020-10-12T14:45:15Z</time>
      </trkpt>
      <trkpt lat="37.783193000" lon="-4.910069000">
        <ele>166.5</ele>
        <time>2020-10-12T14:45:17Z</time>
      </trkpt>
      <trkpt lat="37.783245000" lon="-4.909985000">
        <ele>166.6</ele>
        <time>2020-10-12T14:45:19Z</time>
      </trkpt>
      <trkpt lat="37.783312000" lon="-4.909862000">
        <ele>166.7</ele>
        <time>2020-10-12T14:45:22Z</time>
      </trkpt>
      <trkpt lat="37.783388000" lon="-4.909736000">
        <ele>166.9</ele>
        <time>2020-10-12T14:45:25Z</time>
      </trkpt>
      <trkpt lat="37.783437000" lon="-4.909640000">
        <ele>167.0</ele>
        <time>2020-10-12T14:45:27Z</time>
      </trkpt>
      <trkpt lat="37.783482000" lon="-4.909539000">
        <ele>167.1</ele>
        <time>2020-10-12T14:45:29Z</time>
      </trkpt>
      <trkpt lat="37.783533000" lon="-4.909440000">
        <ele>167.1</ele>
        <time>2020-10-12T14:45:31Z</time>
      </trkpt>
      <trkpt lat="37.783579000" lon="-4.909334000">
        <ele>166.9</ele>
        <time>2020-10-12T14:45:33Z</time>
      </trkpt>
      <trkpt lat="37.783624000" lon="-4.909229000">
        <ele>166.6</ele>
        <time>2020-10-12T14:45:35Z</time>
      </trkpt>
      <trkpt lat="37.783666000" lon="-4.909123000">
        <ele>166.2</ele>
        <time>2020-10-12T14:45:37Z</time>
      </trkpt>
      <trkpt lat="37.783705000" lon="-4.909017000">
        <ele>165.7</ele>
        <time>2020-10-12T14:45:39Z</time>
      </trkpt>
      <trkpt lat="37.783746000" lon="-4.908917000">
        <ele>165.2</ele>
        <time>2020-10-12T14:45:41Z</time>
      </trkpt>
      <trkpt lat="37.783780000" lon="-4.908811000">
        <ele>164.7</ele>
        <time>2020-10-12T14:45:43Z</time>
      </trkpt>
      <trkpt lat="37.783818000" lon="-4.908709000">
        <ele>164.2</ele>
        <time>2020-10-12T14:45:45Z</time>
      </trkpt>
      <trkpt lat="37.783856000" lon="-4.908602000">
        <ele>163.6</ele>
        <time>2020-10-12T14:45:47Z</time>
      </trkpt>
      <trkpt lat="37.783895000" lon="-4.908492000">
        <ele>163.2</ele>
        <time>2020-10-12T14:45:49Z</time>
      </trkpt>
      <trkpt lat="37.783929000" lon="-4.908378000">
        <ele>162.7</ele>
        <time>2020-10-12T14:45:51Z</time>
      </trkpt>
      <trkpt lat="37.783952000" lon="-4.908264000">
        <ele>162.4</ele>
        <time>2020-10-12T14:45:53Z</time>
      </trkpt>
      <trkpt lat="37.783974000" lon="-4.908158000">
        <ele>162.2</ele>
        <time>2020-10-12T14:45:55Z</time>
      </trkpt>
      <trkpt lat="37.783993000" lon="-4.908042000">
        <ele>162.1</ele>
        <time>2020-10-12T14:45:57Z</time>
      </trkpt>
      <trkpt lat="37.784021000" lon="-4.907922000">
        <ele>162.1</ele>
        <time>2020-10-12T14:45:59Z</time>
      </trkpt>
      <trkpt lat="37.784047000" lon="-4.907797000">
        <ele>162.1</ele>
        <time>2020-10-12T14:46:01Z</time>
      </trkpt>
      <trkpt lat="37.784075000" lon="-4.907679000">
        <ele>162.1</ele>
        <time>2020-10-12T14:46:03Z</time>
      </trkpt>
      <trkpt lat="37.784103000" lon="-4.907564000">
        <ele>162.1</ele>
        <time>2020-10-12T14:46:05Z</time>
      </trkpt>
      <trkpt lat="37.784121000" lon="-4.907451000">
        <ele>162.2</ele>
        <time>2020-10-12T14:46:07Z</time>
      </trkpt>
      <trkpt lat="37.784144000" lon="-4.907339000">
        <ele>162.3</ele>
        <time>2020-10-12T14:46:09Z</time>
      </trkpt>
      <trkpt lat="37.784162000" lon="-4.907222000">
        <ele>162.4</ele>
        <time>2020-10-12T14:46:11Z</time>
      </trkpt>
      <trkpt lat="37.784184000" lon="-4.907102000">
        <ele>162.4</ele>
        <time>2020-10-12T14:46:13Z</time>
      </trkpt>
      <trkpt lat="37.784208000" lon="-4.906984000">
        <ele>162.3</ele>
        <time>2020-10-12T14:46:15Z</time>
      </trkpt>
      <trkpt lat="37.784230000" lon="-4.906875000">
        <ele>162.1</ele>
        <time>2020-10-12T14:46:17Z</time>
      </trkpt>
      <trkpt lat="37.784253000" lon="-4.906765000">
        <ele>161.8</ele>
        <time>2020-10-12T14:46:19Z</time>
      </trkpt>
      <trkpt lat="37.784270000" lon="-4.906661000">
        <ele>161.4</ele>
        <time>2020-10-12T14:46:21Z</time>
      </trkpt>
      <trkpt lat="37.784291000" lon="-4.906557000">
        <ele>160.8</ele>
        <time>2020-10-12T14:46:23Z</time>
      </trkpt>
      <trkpt lat="37.784314000" lon="-4.906455000">
        <ele>160.3</ele>
        <time>2020-10-12T14:46:25Z</time>
      </trkpt>
      <trkpt lat="37.784343000" lon="-4.906346000">
        <ele>159.5</ele>
        <time>2020-10-12T14:46:27Z</time>
      </trkpt>
      <trkpt lat="37.784380000" lon="-4.906233000">
        <ele>158.7</ele>
        <time>2020-10-12T14:46:29Z</time>
      </trkpt>
      <trkpt lat="37.784418000" lon="-4.906117000">
        <ele>157.8</ele>
        <time>2020-10-12T14:46:31Z</time>
      </trkpt>
      <trkpt lat="37.784456000" lon="-4.905993000">
        <ele>156.9</ele>
        <time>2020-10-12T14:46:33Z</time>
      </trkpt>
      <trkpt lat="37.784499000" lon="-4.905864000">
        <ele>156.1</ele>
        <time>2020-10-12T14:46:35Z</time>
      </trkpt>
      <trkpt lat="37.784544000" lon="-4.905738000">
        <ele>155.4</ele>
        <time>2020-10-12T14:46:37Z</time>
      </trkpt>
      <trkpt lat="37.784591000" lon="-4.905612000">
        <ele>154.7</ele>
        <time>2020-10-12T14:46:39Z</time>
      </trkpt>
      <trkpt lat="37.784642000" lon="-4.905483000">
        <ele>154.2</ele>
        <time>2020-10-12T14:46:41Z</time>
      </trkpt>
      <trkpt lat="37.784693000" lon="-4.905358000">
        <ele>153.8</ele>
        <time>2020-10-12T14:46:43Z</time>
      </trkpt>
      <trkpt lat="37.784754000" lon="-4.905230000">
        <ele>153.5</ele>
        <time>2020-10-12T14:46:45Z</time>
      </trkpt>
      <trkpt lat="37.784806000" lon="-4.905106000">
        <ele>153.3</ele>
        <time>2020-10-12T14:46:47Z</time>
      </trkpt>
      <trkpt lat="37.784868000" lon="-4.904989000">
        <ele>153.0</ele>
        <time>2020-10-12T14:46:49Z</time>
      </trkpt>
      <trkpt lat="37.784930000" lon="-4.904875000">
        <ele>152.8</ele>
        <time>2020-10-12T14:46:51Z</time>
      </trkpt>
      <trkpt lat="37.785001000" lon="-4.904757000">
        <ele>152.8</ele>
        <time>2020-10-12T14:46:53Z</time>
      </trkpt>
      <trkpt lat="37.785071000" lon="-4.904646000">
        <ele>152.8</ele>
        <time>2020-10-12T14:46:55Z</time>
      </trkpt>
      <trkpt lat="37.785136000" lon="-4.904535000">
        <ele>152.9</ele>
        <time>2020-10-12T14:46:57Z</time>
      </trkpt>
      <trkpt lat="37.785211000" lon="-4.904436000">
        <ele>153.1</ele>
        <time>2020-10-12T14:46:59Z</time>
      </trkpt>
      <trkpt lat="37.785278000" lon="-4.904341000">
        <ele>153.4</ele>
        <time>2020-10-12T14:47:01Z</time>
      </trkpt>
      <trkpt lat="37.785345000" lon="-4.904253000">
        <ele>153.8</ele>
        <time>2020-10-12T14:47:03Z</time>
      </trkpt>
      <trkpt lat="37.785401000" lon="-4.904166000">
        <ele>154.5</ele>
        <time>2020-10-12T14:47:05Z</time>
      </trkpt>
      <trkpt lat="37.785455000" lon="-4.904089000">
        <ele>155.2</ele>
        <time>2020-10-12T14:47:07Z</time>
      </trkpt>
      <trkpt lat="37.785510000" lon="-4.904013000">
        <ele>156.0</ele>
        <time>2020-10-12T14:47:09Z</time>
      </trkpt>
      <trkpt lat="37.785570000" lon="-4.903930000">
        <ele>157.0</ele>
        <time>2020-10-12T14:47:11Z</time>
      </trkpt>
      <trkpt lat="37.785634000" lon="-4.903842000">
        <ele>158.0</ele>
        <time>2020-10-12T14:47:13Z</time>
      </trkpt>
      <trkpt lat="37.785699000" lon="-4.903760000">
        <ele>158.9</ele>
        <time>2020-10-12T14:47:15Z</time>
      </trkpt>
      <trkpt lat="37.785761000" lon="-4.903665000">
        <ele>159.8</ele>
        <time>2020-10-12T14:47:17Z</time>
      </trkpt>
      <trkpt lat="37.785823000" lon="-4.903573000">
        <ele>160.6</ele>
        <time>2020-10-12T14:47:19Z</time>
      </trkpt>
      <trkpt lat="37.785888000" lon="-4.903483000">
        <ele>161.3</ele>
        <time>2020-10-12T14:47:21Z</time>
      </trkpt>
      <trkpt lat="37.785944000" lon="-4.903404000">
        <ele>161.8</ele>
        <time>2020-10-12T14:47:23Z</time>
      </trkpt>
      <trkpt lat="37.786026000" lon="-4.903299000">
        <ele>162.2</ele>
        <time>2020-10-12T14:47:26Z</time>
      </trkpt>
      <trkpt lat="37.786098000" lon="-4.903200000">
        <ele>162.4</ele>
        <time>2020-10-12T14:47:29Z</time>
      </trkpt>
      <trkpt lat="37.786170000" lon="-4.903106000">
        <ele>162.5</ele>
        <time>2020-10-12T14:47:32Z</time>
      </trkpt>
      <trkpt lat="37.786236000" lon="-4.903021000">
        <ele>162.6</ele>
        <time>2020-10-12T14:47:35Z</time>
      </trkpt>
      <trkpt lat="37.786295000" lon="-4.902936000">
        <ele>162.6</ele>
        <time>2020-10-12T14:47:38Z</time>
      </trkpt>
      <trkpt lat="37.786355000" lon="-4.902849000">
        <ele>162.7</ele>
        <time>2020-10-12T14:47:41Z</time>
      </trkpt>
      <trkpt lat="37.786418000" lon="-4.902767000">
        <ele>162.8</ele>
        <time>2020-10-12T14:47:44Z</time>
      </trkpt>
      <trkpt lat="37.786479000" lon="-4.902687000">
        <ele>162.9</ele>
        <time>2020-10-12T14:47:47Z</time>
      </trkpt>
      <trkpt lat="37.786538000" lon="-4.902611000">
        <ele>163.0</ele>
        <time>2020-10-12T14:47:50Z</time>
      </trkpt>
      <trkpt lat="37.786592000" lon="-4.902528000">
        <ele>163.2</ele>
        <time>2020-10-12T14:47:53Z</time>
      </trkpt>
      <trkpt lat="37.786646000" lon="-4.902447000">
        <ele>163.4</ele>
        <time>2020-10-12T14:47:56Z</time>
      </trkpt>
      <trkpt lat="37.786704000" lon="-4.902360000">
        <ele>163.5</ele>
        <time>2020-10-12T14:47:59Z</time>
      </trkpt>
      <trkpt lat="37.786767000" lon="-4.902272000">
        <ele>163.8</ele>
        <time>2020-10-12T14:48:02Z</time>
      </trkpt>
      <trkpt lat="37.786835000" lon="-4.902182000">
        <ele>164.0</ele>
        <time>2020-10-12T14:48:05Z</time>
      </trkpt>
      <trkpt lat="37.786902000" lon="-4.902092000">
        <ele>164.2</ele>
        <time>2020-10-12T14:48:08Z</time>
      </trkpt>
      <trkpt lat="37.786972000" lon="-4.902003000">
        <ele>164.4</ele>
        <time>2020-10-12T14:48:11Z</time>
      </trkpt>
      <trkpt lat="37.787040000" lon="-4.901918000">
        <ele>164.5</ele>
        <time>2020-10-12T14:48:14Z</time>
      </trkpt>
      <trkpt lat="37.787099000" lon="-4.901837000">
        <ele>164.6</ele>
        <time>2020-10-12T14:48:17Z</time>
      </trkpt>
      <trkpt lat="37.787160000" lon="-4.901754000">
        <ele>164.7</ele>
        <time>2020-10-12T14:48:20Z</time>
      </trkpt>
      <trkpt lat="37.787224000" lon="-4.901665000">
        <ele>164.7</ele>
        <time>2020-10-12T14:48:23Z</time>
      </trkpt>
      <trkpt lat="37.787291000" lon="-4.901564000">
        <ele>164.6</ele>
        <time>2020-10-12T14:48:26Z</time>
      </trkpt>
      <trkpt lat="37.787359000" lon="-4.901465000">
        <ele>164.5</ele>
        <time>2020-10-12T14:48:29Z</time>
      </trkpt>
      <trkpt lat="37.787433000" lon="-4.901369000">
        <ele>164.1</ele>
        <time>2020-10-12T14:48:32Z</time>
      </trkpt>
      <trkpt lat="37.787510000" lon="-4.901275000">
        <ele>163.6</ele>
        <time>2020-10-12T14:48:35Z</time>
      </trkpt>
      <trkpt lat="37.787590000" lon="-4.901164000">
        <ele>163.1</ele>
        <time>2020-10-12T14:48:38Z</time>
      </trkpt>
      <trkpt lat="37.787649000" lon="-4.901088000">
        <ele>162.5</ele>
        <time>2020-10-12T14:48:40Z</time>
      </trkpt>
      <trkpt lat="37.787732000" lon="-4.900989000">
        <ele>162.0</ele>
        <time>2020-10-12T14:48:43Z</time>
      </trkpt>
      <trkpt lat="37.787822000" lon="-4.900885000">
        <ele>161.5</ele>
        <time>2020-10-12T14:48:46Z</time>
      </trkpt>
      <trkpt lat="37.787888000" lon="-4.900816000">
        <ele>160.8</ele>
        <time>2020-10-12T14:48:48Z</time>
      </trkpt>
      <trkpt lat="37.787957000" lon="-4.900751000">
        <ele>160.3</ele>
        <time>2020-10-12T14:48:50Z</time>
      </trkpt>
      <trkpt lat="37.788038000" lon="-4.900688000">
        <ele>159.8</ele>
        <time>2020-10-12T14:48:52Z</time>
      </trkpt>
      <trkpt lat="37.788122000" lon="-4.900624000">
        <ele>159.5</ele>
        <time>2020-10-12T14:48:54Z</time>
      </trkpt>
      <trkpt lat="37.788207000" lon="-4.900562000">
        <ele>159.4</ele>
        <time>2020-10-12T14:48:56Z</time>
      </trkpt>
      <trkpt lat="37.788286000" lon="-4.900507000">
        <ele>159.3</ele>
        <time>2020-10-12T14:48:58Z</time>
      </trkpt>
      <trkpt lat="37.788371000" lon="-4.900459000">
        <ele>159.2</ele>
        <time>2020-10-12T14:49:00Z</time>
      </trkpt>
      <trkpt lat="37.788454000" lon="-4.900411000">
        <ele>159.1</ele>
        <time>2020-10-12T14:49:02Z</time>
      </trkpt>
      <trkpt lat="37.788539000" lon="-4.900363000">
        <ele>159.0</ele>
        <time>2020-10-12T14:49:04Z</time>
      </trkpt>
      <trkpt lat="37.788621000" lon="-4.900307000">
        <ele>158.8</ele>
        <time>2020-10-12T14:49:06Z</time>
      </trkpt>
      <trkpt lat="37.788707000" lon="-4.900268000">
        <ele>158.5</ele>
        <time>2020-10-12T14:49:08Z</time>
      </trkpt>
      <trkpt lat="37.788791000" lon="-4.900225000">
        <ele>158.2</ele>
        <time>2020-10-12T14:49:10Z</time>
      </trkpt>
      <trkpt lat="37.788882000" lon="-4.900190000">
        <ele>157.7</ele>
        <time>2020-10-12T14:49:12Z</time>
      </trkpt>
      <trkpt lat="37.788981000" lon="-4.900169000">
        <ele>157.3</ele>
        <time>2020-10-12T14:49:14Z</time>
      </trkpt>
      <trkpt lat="37.789081000" lon="-4.900152000">
        <ele>156.6</ele>
        <time>2020-10-12T14:49:16Z</time>
      </trkpt>
      <trkpt lat="37.789172000" lon="-4.900136000">
        <ele>155.9</ele>
        <time>2020-10-12T14:49:18Z</time>
      </trkpt>
      <trkpt lat="37.789264000" lon="-4.900119000">
        <ele>155.3</ele>
        <time>2020-10-12T14:49:20Z</time>
      </trkpt>
      <trkpt lat="37.789353000" lon="-4.900102000">
        <ele>154.6</ele>
        <time>2020-10-12T14:49:22Z</time>
      </trkpt>
      <trkpt lat="37.789437000" lon="-4.900104000">
        <ele>154.1</ele>
        <time>2020-10-12T14:49:24Z</time>
      </trkpt>
      <trkpt lat="37.789557000" lon="-4.900110000">
        <ele>153.5</ele>
        <time>2020-10-12T14:49:27Z</time>
      </trkpt>
      <trkpt lat="37.789677000" lon="-4.900123000">
        <ele>153.1</ele>
        <time>2020-10-12T14:49:30Z</time>
      </trkpt>
      <trkpt lat="37.789794000" lon="-4.900136000">
        <ele>152.7</ele>
        <time>2020-10-12T14:49:33Z</time>
      </trkpt>
      <trkpt lat="37.789908000" lon="-4.900148000">
        <ele>152.5</ele>
        <time>2020-10-12T14:49:36Z</time>
      </trkpt>
      <trkpt lat="37.790013000" lon="-4.900154000">
        <ele>152.3</ele>
        <time>2020-10-12T14:49:39Z</time>
      </trkpt>
      <trkpt lat="37.790104000" lon="-4.900186000">
        <ele>152.1</ele>
        <time>2020-10-12T14:51:22Z</time>
      </trkpt>
      <trkpt lat="37.790188000" lon="-4.900198000">
        <ele>152.0</ele>
        <time>2020-10-12T14:51:25Z</time>
      </trkpt>
      <trkpt lat="37.790295000" lon="-4.900223000">
        <ele>152.1</ele>
        <time>2020-10-12T14:51:28Z</time>
      </trkpt>
      <trkpt lat="37.790410000" lon="-4.900268000">
        <ele>152.2</ele>
        <time>2020-10-12T14:51:31Z</time>
      </trkpt>
      <trkpt lat="37.790488000" lon="-4.900307000">
        <ele>152.3</ele>
        <time>2020-10-12T14:51:33Z</time>
      </trkpt>
      <trkpt lat="37.790567000" lon="-4.900350000">
        <ele>152.4</ele>
        <time>2020-10-12T14:51:35Z</time>
      </trkpt>
      <trkpt lat="37.790669000" lon="-4.900406000">
        <ele>152.5</ele>
        <time>2020-10-12T14:51:38Z</time>
      </trkpt>
      <trkpt lat="37.790762000" lon="-4.900455000">
        <ele>152.5</ele>
        <time>2020-10-12T14:51:41Z</time>
      </trkpt>
      <trkpt lat="37.790867000" lon="-4.900521000">
        <ele>152.7</ele>
        <time>2020-10-12T14:51:44Z</time>
      </trkpt>
      <trkpt lat="37.790966000" lon="-4.900596000">
        <ele>152.9</ele>
        <time>2020-10-12T14:51:47Z</time>
      </trkpt>
      <trkpt lat="37.791042000" lon="-4.900668000">
        <ele>153.2</ele>
        <time>2020-10-12T14:51:50Z</time>
      </trkpt>
      <trkpt lat="37.791126000" lon="-4.900745000">
        <ele>153.5</ele>
        <time>2020-10-12T14:51:53Z</time>
      </trkpt>
      <trkpt lat="37.791209000" lon="-4.900834000">
        <ele>153.9</ele>
        <time>2020-10-12T14:51:56Z</time>
      </trkpt>
      <trkpt lat="37.791296000" lon="-4.900931000">
        <ele>154.3</ele>
        <time>2020-10-12T14:51:59Z</time>
      </trkpt>
      <trkpt lat="37.791358000" lon="-4.900999000">
        <ele>154.7</ele>
        <time>2020-10-12T14:52:01Z</time>
      </trkpt>
      <trkpt lat="37.791439000" lon="-4.901089000">
        <ele>155.3</ele>
        <time>2020-10-12T14:52:04Z</time>
      </trkpt>
      <trkpt lat="37.791512000" lon="-4.901172000">
        <ele>155.9</ele>
        <time>2020-10-12T14:52:07Z</time>
      </trkpt>
      <trkpt lat="37.791583000" lon="-4.901253000">
        <ele>156.6</ele>
        <time>2020-10-12T14:52:10Z</time>
      </trkpt>
      <trkpt lat="37.791653000" lon="-4.901329000">
        <ele>157.5</ele>
        <time>2020-10-12T14:52:13Z</time>
      </trkpt>
      <trkpt lat="37.791720000" lon="-4.901406000">
        <ele>158.3</ele>
        <time>2020-10-12T14:52:16Z</time>
      </trkpt>
      <trkpt lat="37.791780000" lon="-4.901485000">
        <ele>159.2</ele>
        <time>2020-10-12T14:52:19Z</time>
      </trkpt>
      <trkpt lat="37.791843000" lon="-4.901558000">
        <ele>160.0</ele>
        <time>2020-10-12T14:52:22Z</time>
      </trkpt>
      <trkpt lat="37.791905000" lon="-4.901631000">
        <ele>160.7</ele>
        <time>2020-10-12T14:52:25Z</time>
      </trkpt>
      <trkpt lat="37.791963000" lon="-4.901710000">
        <ele>161.5</ele>
        <time>2020-10-12T14:52:28Z</time>
      </trkpt>
      <trkpt lat="37.792025000" lon="-4.901789000">
        <ele>162.3</ele>
        <time>2020-10-12T14:52:31Z</time>
      </trkpt>
      <trkpt lat="37.792091000" lon="-4.901868000">
        <ele>162.9</ele>
        <time>2020-10-12T14:52:34Z</time>
      </trkpt>
      <trkpt lat="37.792155000" lon="-4.901947000">
        <ele>163.5</ele>
        <time>2020-10-12T14:52:37Z</time>
      </trkpt>
      <trkpt lat="37.792221000" lon="-4.902023000">
        <ele>163.8</ele>
        <time>2020-10-12T14:52:40Z</time>
      </trkpt>
      <trkpt lat="37.792286000" lon="-4.902098000">
        <ele>164.1</ele>
        <time>2020-10-12T14:52:43Z</time>
      </trkpt>
      <trkpt lat="37.792356000" lon="-4.902186000">
        <ele>164.2</ele>
        <time>2020-10-12T14:52:46Z</time>
      </trkpt>
      <trkpt lat="37.792423000" lon="-4.902280000">
        <ele>164.2</ele>
        <time>2020-10-12T14:52:49Z</time>
      </trkpt>
      <trkpt lat="37.792505000" lon="-4.902361000">
        <ele>164.1</ele>
        <time>2020-10-12T14:52:52Z</time>
      </trkpt>
      <trkpt lat="37.792585000" lon="-4.902438000">
        <ele>164.0</ele>
        <time>2020-10-12T14:52:55Z</time>
      </trkpt>
      <trkpt lat="37.792664000" lon="-4.902514000">
        <ele>164.0</ele>
        <time>2020-10-12T14:52:58Z</time>
      </trkpt>
      <trkpt lat="37.792742000" lon="-4.902587000">
        <ele>164.0</ele>
        <time>2020-10-12T14:53:01Z</time>
      </trkpt>
      <trkpt lat="37.792824000" lon="-4.902667000">
        <ele>164.1</ele>
        <time>2020-10-12T14:53:04Z</time>
      </trkpt>
      <trkpt lat="37.792917000" lon="-4.902728000">
        <ele>164.3</ele>
        <time>2020-10-12T14:53:07Z</time>
      </trkpt>
      <trkpt lat="37.793008000" lon="-4.902779000">
        <ele>164.5</ele>
        <time>2020-10-12T14:53:10Z</time>
      </trkpt>
      <trkpt lat="37.793108000" lon="-4.902827000">
        <ele>165.0</ele>
        <time>2020-10-12T14:53:13Z</time>
      </trkpt>
      <trkpt lat="37.793216000" lon="-4.902875000">
        <ele>165.5</ele>
        <time>2020-10-12T14:53:16Z</time>
      </trkpt>
      <trkpt lat="37.793319000" lon="-4.902922000">
        <ele>166.2</ele>
        <time>2020-10-12T14:53:19Z</time>
      </trkpt>
      <trkpt lat="37.793418000" lon="-4.902957000">
        <ele>166.9</ele>
        <time>2020-10-12T14:53:22Z</time>
      </trkpt>
      <trkpt lat="37.793508000" lon="-4.902990000">
        <ele>167.6</ele>
        <time>2020-10-12T14:53:25Z</time>
      </trkpt>
      <trkpt lat="37.793596000" lon="-4.903026000">
        <ele>168.4</ele>
        <time>2020-10-12T14:53:28Z</time>
      </trkpt>
      <trkpt lat="37.793686000" lon="-4.903044000">
        <ele>168.9</ele>
        <time>2020-10-12T14:53:31Z</time>
      </trkpt>
      <trkpt lat="37.793779000" lon="-4.903060000">
        <ele>169.4</ele>
        <time>2020-10-12T14:53:34Z</time>
      </trkpt>
      <trkpt lat="37.793874000" lon="-4.903081000">
        <ele>169.7</ele>
        <time>2020-10-12T14:53:37Z</time>
      </trkpt>
      <trkpt lat="37.793968000" lon="-4.903094000">
        <ele>170.0</ele>
        <time>2020-10-12T14:53:40Z</time>
      </trkpt>
      <trkpt lat="37.794069000" lon="-4.903102000">
        <ele>170.3</ele>
        <time>2020-10-12T14:53:43Z</time>
      </trkpt>
      <trkpt lat="37.794172000" lon="-4.903109000">
        <ele>170.5</ele>
        <time>2020-10-12T14:53:46Z</time>
      </trkpt>
      <trkpt lat="37.794275000" lon="-4.903117000">
        <ele>170.7</ele>
        <time>2020-10-12T14:53:49Z</time>
      </trkpt>
      <trkpt lat="37.794376000" lon="-4.903111000">
        <ele>171.0</ele>
        <time>2020-10-12T14:53:52Z</time>
      </trkpt>
      <trkpt lat="37.794478000" lon="-4.903105000">
        <ele>171.3</ele>
        <time>2020-10-12T14:53:55Z</time>
      </trkpt>
      <trkpt lat="37.794579000" lon="-4.903093000">
        <ele>171.6</ele>
        <time>2020-10-12T14:53:58Z</time>
      </trkpt>
      <trkpt lat="37.794671000" lon="-4.903073000">
        <ele>172.0</ele>
        <time>2020-10-12T14:54:01Z</time>
      </trkpt>
      <trkpt lat="37.794758000" lon="-4.903058000">
        <ele>172.5</ele>
        <time>2020-10-12T14:54:04Z</time>
      </trkpt>
      <trkpt lat="37.794841000" lon="-4.903033000">
        <ele>173.2</ele>
        <time>2020-10-12T14:54:07Z</time>
      </trkpt>
      <trkpt lat="37.794927000" lon="-4.903005000">
        <ele>173.8</ele>
        <time>2020-10-12T14:54:10Z</time>
      </trkpt>
      <trkpt lat="37.795009000" lon="-4.902975000">
        <ele>174.5</ele>
        <time>2020-10-12T14:54:13Z</time>
      </trkpt>
      <trkpt lat="37.795093000" lon="-4.902945000">
        <ele>175.0</ele>
        <time>2020-10-12T14:54:16Z</time>
      </trkpt>
      <trkpt lat="37.795179000" lon="-4.902907000">
        <ele>175.5</ele>
        <time>2020-10-12T14:54:19Z</time>
      </trkpt>
      <trkpt lat="37.795266000" lon="-4.902862000">
        <ele>176.1</ele>
        <time>2020-10-12T14:54:22Z</time>
      </trkpt>
      <trkpt lat="37.795343000" lon="-4.902815000">
        <ele>176.5</ele>
        <time>2020-10-12T14:54:25Z</time>
      </trkpt>
      <trkpt lat="37.795424000" lon="-4.902754000">
        <ele>176.9</ele>
        <time>2020-10-12T14:54:28Z</time>
      </trkpt>
      <trkpt lat="37.795520000" lon="-4.902699000">
        <ele>177.1</ele>
        <time>2020-10-12T14:54:31Z</time>
      </trkpt>
      <trkpt lat="37.795608000" lon="-4.902636000">
        <ele>177.2</ele>
        <time>2020-10-12T14:54:34Z</time>
      </trkpt>
      <trkpt lat="37.795701000" lon="-4.902567000">
        <ele>177.2</ele>
        <time>2020-10-12T14:54:37Z</time>
      </trkpt>
      <trkpt lat="37.795789000" lon="-4.902493000">
        <ele>177.1</ele>
        <time>2020-10-12T14:54:40Z</time>
      </trkpt>
      <trkpt lat="37.795876000" lon="-4.902418000">
        <ele>177.1</ele>
        <time>2020-10-12T14:54:43Z</time>
      </trkpt>
      <trkpt lat="37.795955000" lon="-4.902339000">
        <ele>177.2</ele>
        <time>2020-10-12T14:54:46Z</time>
      </trkpt>
      <trkpt lat="37.796030000" lon="-4.902247000">
        <ele>177.3</ele>
        <time>2020-10-12T14:54:49Z</time>
      </trkpt>
      <trkpt lat="37.796105000" lon="-4.902148000">
        <ele>177.4</ele>
        <time>2020-10-12T14:54:52Z</time>
      </trkpt>
      <trkpt lat="37.796180000" lon="-4.902046000">
        <ele>177.5</ele>
        <time>2020-10-12T14:54:55Z</time>
      </trkpt>
      <trkpt lat="37.796254000" lon="-4.901939000">
        <ele>177.7</ele>
        <time>2020-10-12T14:54:58Z</time>
      </trkpt>
      <trkpt lat="37.796325000" lon="-4.901828000">
        <ele>177.9</ele>
        <time>2020-10-12T14:55:01Z</time>
      </trkpt>
      <trkpt lat="37.796393000" lon="-4.901717000">
        <ele>178.2</ele>
        <time>2020-10-12T14:55:04Z</time>
      </trkpt>
      <trkpt lat="37.796457000" lon="-4.901605000">
        <ele>178.5</ele>
        <time>2020-10-12T14:55:07Z</time>
      </trkpt>
      <trkpt lat="37.796516000" lon="-4.901494000">
        <ele>178.6</ele>
        <time>2020-10-12T14:55:10Z</time>
      </trkpt>
      <trkpt lat="37.796570000" lon="-4.901373000">
        <ele>178.7</ele>
        <time>2020-10-12T14:55:13Z</time>
      </trkpt>
      <trkpt lat="37.796618000" lon="-4.901247000">
        <ele>178.6</ele>
        <time>2020-10-12T14:55:16Z</time>
      </trkpt>
      <trkpt lat="37.796668000" lon="-4.901125000">
        <ele>178.4</ele>
        <time>2020-10-12T14:55:19Z</time>
      </trkpt>
      <trkpt lat="37.796712000" lon="-4.901007000">
        <ele>178.0</ele>
        <time>2020-10-12T14:55:22Z</time>
      </trkpt>
      <trkpt lat="37.796750000" lon="-4.900884000">
        <ele>177.5</ele>
        <time>2020-10-12T14:55:25Z</time>
      </trkpt>
      <trkpt lat="37.796785000" lon="-4.900763000">
        <ele>176.6</ele>
        <time>2020-10-12T14:55:28Z</time>
      </trkpt>
      <trkpt lat="37.796821000" lon="-4.900638000">
        <ele>175.8</ele>
        <time>2020-10-12T14:55:31Z</time>
      </trkpt>
      <trkpt lat="37.796861000" lon="-4.900509000">
        <ele>174.9</ele>
        <time>2020-10-12T14:55:34Z</time>
      </trkpt>
      <trkpt lat="37.796900000" lon="-4.900372000">
        <ele>173.9</ele>
        <time>2020-10-12T14:55:37Z</time>
      </trkpt>
      <trkpt lat="37.796936000" lon="-4.900230000">
        <ele>172.9</ele>
        <time>2020-10-12T14:55:40Z</time>
      </trkpt>
      <trkpt lat="37.796974000" lon="-4.900084000">
        <ele>172.0</ele>
        <time>2020-10-12T14:55:43Z</time>
      </trkpt>
      <trkpt lat="37.797002000" lon="-4.899985000">
        <ele>171.2</ele>
        <time>2020-10-12T14:55:45Z</time>
      </trkpt>
      <trkpt lat="37.797034000" lon="-4.899873000">
        <ele>170.5</ele>
        <time>2020-10-12T14:55:47Z</time>
      </trkpt>
      <trkpt lat="37.797059000" lon="-4.899760000">
        <ele>169.7</ele>
        <time>2020-10-12T14:55:49Z</time>
      </trkpt>
      <trkpt lat="37.797086000" lon="-4.899644000">
        <ele>169.1</ele>
        <time>2020-10-12T14:55:51Z</time>
      </trkpt>
      <trkpt lat="37.797118000" lon="-4.899530000">
        <ele>168.5</ele>
        <time>2020-10-12T14:55:53Z</time>
      </trkpt>
      <trkpt lat="37.797153000" lon="-4.899413000">
        <ele>168.0</ele>
        <time>2020-10-12T14:55:55Z</time>
      </trkpt>
      <trkpt lat="37.797181000" lon="-4.899295000">
        <ele>167.5</ele>
        <time>2020-10-12T14:55:57Z</time>
      </trkpt>
      <trkpt lat="37.797209000" lon="-4.899170000">
        <ele>167.0</ele>
        <time>2020-10-12T14:55:59Z</time>
      </trkpt>
      <trkpt lat="37.797240000" lon="-4.899047000">
        <ele>166.7</ele>
        <time>2020-10-12T14:56:01Z</time>
      </trkpt>
      <trkpt lat="37.797268000" lon="-4.898927000">
        <ele>166.6</ele>
        <time>2020-10-12T14:56:03Z</time>
      </trkpt>
      <trkpt lat="37.797300000" lon="-4.898806000">
        <ele>166.5</ele>
        <time>2020-10-12T14:56:05Z</time>
      </trkpt>
      <trkpt lat="37.797324000" lon="-4.898684000">
        <ele>166.5</ele>
        <time>2020-10-12T14:56:07Z</time>
      </trkpt>
      <trkpt lat="37.797359000" lon="-4.898559000">
        <ele>166.4</ele>
        <time>2020-10-12T14:56:09Z</time>
      </trkpt>
      <trkpt lat="37.797392000" lon="-4.898435000">
        <ele>166.3</ele>
        <time>2020-10-12T14:56:11Z</time>
      </trkpt>
      <trkpt lat="37.797429000" lon="-4.898315000">
        <ele>166.2</ele>
        <time>2020-10-12T14:56:13Z</time>
      </trkpt>
      <trkpt lat="37.797462000" lon="-4.898202000">
        <ele>166.1</ele>
        <time>2020-10-12T14:56:15Z</time>
      </trkpt>
      <trkpt lat="37.797492000" lon="-4.898100000">
        <ele>166.0</ele>
        <time>2020-10-12T14:56:17Z</time>
      </trkpt>
      <trkpt lat="37.797525000" lon="-4.897992000">
        <ele>165.9</ele>
        <time>2020-10-12T14:56:19Z</time>
      </trkpt>
      <trkpt lat="37.797556000" lon="-4.897876000">
        <ele>165.9</ele>
        <time>2020-10-12T14:56:21Z</time>
      </trkpt>
      <trkpt lat="37.797589000" lon="-4.897759000">
        <ele>165.8</ele>
        <time>2020-10-12T14:56:23Z</time>
      </trkpt>
      <trkpt lat="37.797628000" lon="-4.897642000">
        <ele>165.6</ele>
        <time>2020-10-12T14:56:25Z</time>
      </trkpt>
      <trkpt lat="37.797668000" lon="-4.897530000">
        <ele>165.5</ele>
        <time>2020-10-12T14:56:27Z</time>
      </trkpt>
      <trkpt lat="37.797706000" lon="-4.897420000">
        <ele>165.4</ele>
        <time>2020-10-12T14:56:29Z</time>
      </trkpt>
      <trkpt lat="37.797743000" lon="-4.897314000">
        <ele>165.3</ele>
        <time>2020-10-12T14:56:31Z</time>
      </trkpt>
      <trkpt lat="37.797782000" lon="-4.897207000">
        <ele>165.3</ele>
        <time>2020-10-12T14:56:33Z</time>
      </trkpt>
      <trkpt lat="37.797818000" lon="-4.897113000">
        <ele>165.4</ele>
        <time>2020-10-12T14:56:35Z</time>
      </trkpt>
      <trkpt lat="37.797858000" lon="-4.897021000">
        <ele>165.6</ele>
        <time>2020-10-12T14:56:37Z</time>
      </trkpt>
      <trkpt lat="37.797909000" lon="-4.896921000">
        <ele>165.9</ele>
        <time>2020-10-12T14:56:39Z</time>
      </trkpt>
      <trkpt lat="37.797953000" lon="-4.896805000">
        <ele>166.4</ele>
        <time>2020-10-12T14:56:41Z</time>
      </trkpt>
      <trkpt lat="37.798005000" lon="-4.896691000">
        <ele>166.7</ele>
        <time>2020-10-12T14:56:43Z</time>
      </trkpt>
      <trkpt lat="37.798059000" lon="-4.896585000">
        <ele>167.1</ele>
        <time>2020-10-12T14:56:45Z</time>
      </trkpt>
      <trkpt lat="37.798098000" lon="-4.896495000">
        <ele>167.5</ele>
        <time>2020-10-12T14:56:47Z</time>
      </trkpt>
      <trkpt lat="37.798140000" lon="-4.896403000">
        <ele>167.8</ele>
        <time>2020-10-12T14:56:49Z</time>
      </trkpt>
      <trkpt lat="37.798190000" lon="-4.896316000">
        <ele>168.1</ele>
        <time>2020-10-12T14:56:51Z</time>
      </trkpt>
      <trkpt lat="37.798235000" lon="-4.896230000">
        <ele>168.5</ele>
        <time>2020-10-12T14:56:53Z</time>
      </trkpt>
      <trkpt lat="37.798294000" lon="-4.896132000">
        <ele>168.8</ele>
        <time>2020-10-12T14:56:55Z</time>
      </trkpt>
      <trkpt lat="37.798358000" lon="-4.896030000">
        <ele>169.0</ele>
        <time>2020-10-12T14:56:57Z</time>
      </trkpt>
      <trkpt lat="37.798412000" lon="-4.895935000">
        <ele>169.1</ele>
        <time>2020-10-12T14:56:59Z</time>
      </trkpt>
      <trkpt lat="37.798476000" lon="-4.895854000">
        <ele>169.1</ele>
        <time>2020-10-12T14:57:01Z</time>
      </trkpt>
      <trkpt lat="37.798552000" lon="-4.895735000">
        <ele>168.9</ele>
        <time>2020-10-12T14:57:04Z</time>
      </trkpt>
      <trkpt lat="37.798633000" lon="-4.895622000">
        <ele>168.7</ele>
        <time>2020-10-12T14:57:07Z</time>
      </trkpt>
      <trkpt lat="37.798693000" lon="-4.895539000">
        <ele>168.5</ele>
        <time>2020-10-12T14:57:09Z</time>
      </trkpt>
      <trkpt lat="37.798765000" lon="-4.895448000">
        <ele>168.1</ele>
        <time>2020-10-12T14:57:11Z</time>
      </trkpt>
      <trkpt lat="37.798831000" lon="-4.895372000">
        <ele>167.7</ele>
        <time>2020-10-12T14:57:13Z</time>
      </trkpt>
      <trkpt lat="37.798891000" lon="-4.895294000">
        <ele>167.4</ele>
        <time>2020-10-12T14:57:15Z</time>
      </trkpt>
      <trkpt lat="37.798954000" lon="-4.895223000">
        <ele>166.9</ele>
        <time>2020-10-12T14:57:17Z</time>
      </trkpt>
      <trkpt lat="37.799023000" lon="-4.895148000">
        <ele>166.4</ele>
        <time>2020-10-12T14:57:19Z</time>
      </trkpt>
      <trkpt lat="37.799098000" lon="-4.895070000">
        <ele>165.9</ele>
        <time>2020-10-12T14:57:21Z</time>
      </trkpt>
      <trkpt lat="37.799172000" lon="-4.894995000">
        <ele>165.5</ele>
        <time>2020-10-12T14:57:23Z</time>
      </trkpt>
      <trkpt lat="37.799241000" lon="-4.894920000">
        <ele>165.1</ele>
        <time>2020-10-12T14:57:25Z</time>
      </trkpt>
      <trkpt lat="37.799304000" lon="-4.894847000">
        <ele>164.8</ele>
        <time>2020-10-12T14:57:27Z</time>
      </trkpt>
      <trkpt lat="37.799374000" lon="-4.894776000">
        <ele>164.5</ele>
        <time>2020-10-12T14:57:29Z</time>
      </trkpt>
      <trkpt lat="37.799443000" lon="-4.894706000">
        <ele>164.4</ele>
        <time>2020-10-12T14:57:31Z</time>
      </trkpt>
      <trkpt lat="37.799515000" lon="-4.894637000">
        <ele>164.2</ele>
        <time>2020-10-12T14:57:33Z</time>
      </trkpt>
      <trkpt lat="37.799587000" lon="-4.894574000">
        <ele>164.0</ele>
        <time>2020-10-12T14:57:35Z</time>
      </trkpt>
      <trkpt lat="37.799663000" lon="-4.894510000">
        <ele>163.8</ele>
        <time>2020-10-12T14:57:37Z</time>
      </trkpt>
      <trkpt lat="37.799731000" lon="-4.894449000">
        <ele>163.6</ele>
        <time>2020-10-12T14:57:39Z</time>
      </trkpt>
      <trkpt lat="37.799800000" lon="-4.894394000">
        <ele>163.5</ele>
        <time>2020-10-12T14:57:41Z</time>
      </trkpt>
      <trkpt lat="37.799874000" lon="-4.894340000">
        <ele>163.2</ele>
        <time>2020-10-12T14:57:43Z</time>
      </trkpt>
      <trkpt lat="37.799952000" lon="-4.894289000">
        <ele>162.8</ele>
        <time>2020-10-12T14:57:45Z</time>
      </trkpt>
      <trkpt lat="37.800031000" lon="-4.894240000">
        <ele>162.4</ele>
        <time>2020-10-12T14:57:47Z</time>
      </trkpt>
      <trkpt lat="37.800112000" lon="-4.894190000">
        <ele>161.8</ele>
        <time>2020-10-12T14:57:49Z</time>
      </trkpt>
      <trkpt lat="37.800191000" lon="-4.894138000">
        <ele>161.3</ele>
        <time>2020-10-12T14:57:51Z</time>
      </trkpt>
      <trkpt lat="37.800276000" lon="-4.894082000">
        <ele>160.7</ele>
        <time>2020-10-12T14:57:53Z</time>
      </trkpt>
      <trkpt lat="37.800363000" lon="-4.894030000">
        <ele>160.3</ele>
        <time>2020-10-12T14:57:55Z</time>
      </trkpt>
      <trkpt lat="37.800451000" lon="-4.893993000">
        <ele>159.9</ele>
        <time>2020-10-12T14:57:57Z</time>
      </trkpt>
      <trkpt lat="37.800528000" lon="-4.893948000">
        <ele>159.6</ele>
        <time>2020-10-12T14:57:59Z</time>
      </trkpt>
      <trkpt lat="37.800613000" lon="-4.893893000">
        <ele>159.5</ele>
        <time>2020-10-12T14:58:01Z</time>
      </trkpt>
      <trkpt lat="37.800699000" lon="-4.893843000">
        <ele>159.5</ele>
        <time>2020-10-12T14:58:03Z</time>
      </trkpt>
      <trkpt lat="37.800789000" lon="-4.893799000">
        <ele>159.6</ele>
        <time>2020-10-12T14:58:05Z</time>
      </trkpt>
      <trkpt lat="37.800873000" lon="-4.893759000">
        <ele>160.0</ele>
        <time>2020-10-12T14:58:07Z</time>
      </trkpt>
      <trkpt lat="37.800956000" lon="-4.893716000">
        <ele>160.5</ele>
        <time>2020-10-12T14:58:09Z</time>
      </trkpt>
      <trkpt lat="37.801038000" lon="-4.893676000">
        <ele>161.2</ele>
        <time>2020-10-12T14:58:11Z</time>
      </trkpt>
      <trkpt lat="37.801146000" lon="-4.893619000">
        <ele>161.9</ele>
        <time>2020-10-12T14:58:14Z</time>
      </trkpt>
      <trkpt lat="37.801224000" lon="-4.893573000">
        <ele>162.6</ele>
        <time>2020-10-12T14:58:16Z</time>
      </trkpt>
      <trkpt lat="37.801297000" lon="-4.893530000">
        <ele>163.4</ele>
        <time>2020-10-12T14:58:18Z</time>
      </trkpt>
      <trkpt lat="37.801375000" lon="-4.893485000">
        <ele>164.0</ele>
        <time>2020-10-12T14:58:20Z</time>
      </trkpt>
      <trkpt lat="37.801454000" lon="-4.893437000">
        <ele>164.6</ele>
        <time>2020-10-12T14:58:22Z</time>
      </trkpt>
      <trkpt lat="37.801533000" lon="-4.893385000">
        <ele>165.2</ele>
        <time>2020-10-12T14:58:24Z</time>
      </trkpt>
      <trkpt lat="37.801608000" lon="-4.893341000">
        <ele>165.7</ele>
        <time>2020-10-12T14:58:26Z</time>
      </trkpt>
      <trkpt lat="37.801691000" lon="-4.893292000">
        <ele>166.2</ele>
        <time>2020-10-12T14:58:28Z</time>
      </trkpt>
      <trkpt lat="37.801775000" lon="-4.893250000">
        <ele>166.6</ele>
        <time>2020-10-12T14:58:30Z</time>
      </trkpt>
      <trkpt lat="37.801860000" lon="-4.893209000">
        <ele>167.0</ele>
        <time>2020-10-12T14:58:32Z</time>
      </trkpt>
      <trkpt lat="37.801940000" lon="-4.893163000">
        <ele>167.5</ele>
        <time>2020-10-12T14:58:34Z</time>
      </trkpt>
      <trkpt lat="37.802031000" lon="-4.893122000">
        <ele>167.9</ele>
        <time>2020-10-12T14:58:36Z</time>
      </trkpt>
      <trkpt lat="37.802111000" lon="-4.893074000">
        <ele>168.4</ele>
        <time>2020-10-12T14:58:38Z</time>
      </trkpt>
      <trkpt lat="37.802200000" lon="-4.893034000">
        <ele>168.9</ele>
        <time>2020-10-12T14:58:40Z</time>
      </trkpt>
      <trkpt lat="37.802281000" lon="-4.892990000">
        <ele>169.5</ele>
        <time>2020-10-12T14:58:42Z</time>
      </trkpt>
      <trkpt lat="37.802360000" lon="-4.892944000">
        <ele>170.0</ele>
        <time>2020-10-12T14:58:44Z</time>
      </trkpt>
      <trkpt lat="37.802436000" lon="-4.892902000">
        <ele>170.6</ele>
        <time>2020-10-12T14:58:46Z</time>
      </trkpt>
      <trkpt lat="37.802519000" lon="-4.892864000">
        <ele>171.4</ele>
        <time>2020-10-12T14:58:48Z</time>
      </trkpt>
      <trkpt lat="37.802626000" lon="-4.892801000">
        <ele>172.2</ele>
        <time>2020-10-12T14:58:51Z</time>
      </trkpt>
      <trkpt lat="37.802702000" lon="-4.892762000">
        <ele>173.0</ele>
        <time>2020-10-12T14:58:53Z</time>
      </trkpt>
      <trkpt lat="37.802780000" lon="-4.892718000">
        <ele>173.9</ele>
        <time>2020-10-12T14:58:55Z</time>
      </trkpt>
      <trkpt lat="37.802864000" lon="-4.892676000">
        <ele>174.8</ele>
        <time>2020-10-12T14:58:57Z</time>
      </trkpt>
      <trkpt lat="37.802950000" lon="-4.892631000">
        <ele>175.6</ele>
        <time>2020-10-12T14:58:59Z</time>
      </trkpt>
      <trkpt lat="37.803036000" lon="-4.892588000">
        <ele>176.5</ele>
        <time>2020-10-12T14:59:01Z</time>
      </trkpt>
      <trkpt lat="37.803120000" lon="-4.892541000">
        <ele>177.1</ele>
        <time>2020-10-12T14:59:03Z</time>
      </trkpt>
      <trkpt lat="37.803204000" lon="-4.892492000">
        <ele>177.8</ele>
        <time>2020-10-12T14:59:05Z</time>
      </trkpt>
      <trkpt lat="37.803295000" lon="-4.892440000">
        <ele>178.5</ele>
        <time>2020-10-12T14:59:07Z</time>
      </trkpt>
      <trkpt lat="37.803384000" lon="-4.892394000">
        <ele>177.7</ele>
        <time>2020-10-12T14:59:09Z</time>
      </trkpt>
      <trkpt lat="37.803470000" lon="-4.892340000">
        <ele>176.6</ele>
        <time>2020-10-12T14:59:11Z</time>
      </trkpt>
      <trkpt lat="37.803557000" lon="-4.892294000">
        <ele>175.5</ele>
        <time>2020-10-12T14:59:13Z</time>
      </trkpt>
      <trkpt lat="37.803664000" lon="-4.892241000">
        <ele>174.1</ele>
        <time>2020-10-12T14:59:16Z</time>
      </trkpt>
      <trkpt lat="37.803755000" lon="-4.892175000">
        <ele>172.5</ele>
        <time>2020-10-12T14:59:19Z</time>
      </trkpt>
      <trkpt lat="37.806611000" lon="-4.890583000">
        <ele>170.6</ele>
        <time>2020-10-12T15:00:25Z</time>
      </trkpt>
      <trkpt lat="37.806700000" lon="-4.890500000">
        <ele>168.6</ele>
        <time>2020-10-12T15:00:27Z</time>
      </trkpt>
      <trkpt lat="37.806772000" lon="-4.890426000">
        <ele>166.5</ele>
        <time>2020-10-12T15:00:29Z</time>
      </trkpt>
      <trkpt lat="37.806857000" lon="-4.890338000">
        <ele>164.5</ele>
        <time>2020-10-12T15:00:31Z</time>
      </trkpt>
      <trkpt lat="37.806951000" lon="-4.890250000">
        <ele>162.4</ele>
        <time>2020-10-12T15:00:33Z</time>
      </trkpt>
      <trkpt lat="37.807049000" lon="-4.890155000">
        <ele>160.2</ele>
        <time>2020-10-12T15:00:35Z</time>
      </trkpt>
      <trkpt lat="37.807126000" lon="-4.890059000">
        <ele>159.5</ele>
        <time>2020-10-12T15:00:37Z</time>
      </trkpt>
      <trkpt lat="37.807196000" lon="-4.889966000">
        <ele>158.8</ele>
        <time>2020-10-12T15:00:39Z</time>
      </trkpt>
      <trkpt lat="37.807272000" lon="-4.889875000">
        <ele>158.3</ele>
        <time>2020-10-12T15:00:41Z</time>
      </trkpt>
      <trkpt lat="37.807330000" lon="-4.889766000">
        <ele>157.8</ele>
        <time>2020-10-12T15:00:43Z</time>
      </trkpt>
      <trkpt lat="37.807397000" lon="-4.889663000">
        <ele>157.5</ele>
        <time>2020-10-12T15:00:45Z</time>
      </trkpt>
      <trkpt lat="37.807463000" lon="-4.889567000">
        <ele>157.4</ele>
        <time>2020-10-12T15:00:47Z</time>
      </trkpt>
      <trkpt lat="37.807526000" lon="-4.889468000">
        <ele>157.4</ele>
        <time>2020-10-12T15:00:49Z</time>
      </trkpt>
      <trkpt lat="37.807580000" lon="-4.889378000">
        <ele>157.5</ele>
        <time>2020-10-12T15:00:51Z</time>
      </trkpt>
      <trkpt lat="37.807632000" lon="-4.889273000">
        <ele>157.6</ele>
        <time>2020-10-12T15:00:53Z</time>
      </trkpt>
      <trkpt lat="37.807701000" lon="-4.889144000">
        <ele>157.7</ele>
        <time>2020-10-12T15:00:55Z</time>
      </trkpt>
      <trkpt lat="37.807749000" lon="-4.889059000">
        <ele>157.9</ele>
        <time>2020-10-12T15:00:57Z</time>
      </trkpt>
      <trkpt lat="37.807797000" lon="-4.888961000">
        <ele>158.1</ele>
        <time>2020-10-12T15:01:01Z</time>
      </trkpt>
      <trkpt lat="37.807836000" lon="-4.888821000">
        <ele>158.4</ele>
        <time>2020-10-12T15:01:05Z</time>
      </trkpt>
      <trkpt lat="37.807881000" lon="-4.888715000">
        <ele>158.6</ele>
        <time>2020-10-12T15:01:08Z</time>
      </trkpt>
      <trkpt lat="37.807923000" lon="-4.888579000">
        <ele>158.9</ele>
        <time>2020-10-12T15:01:11Z</time>
      </trkpt>
      <trkpt lat="37.807952000" lon="-4.888482000">
        <ele>159.1</ele>
        <time>2020-10-12T15:01:13Z</time>
      </trkpt>
      <trkpt lat="37.807994000" lon="-4.888353000">
        <ele>159.3</ele>
        <time>2020-10-12T15:01:16Z</time>
      </trkpt>
      <trkpt lat="37.808031000" lon="-4.888216000">
        <ele>159.4</ele>
        <time>2020-10-12T15:01:19Z</time>
      </trkpt>
      <trkpt lat="37.808061000" lon="-4.888079000">
        <ele>159.5</ele>
        <time>2020-10-12T15:01:22Z</time>
      </trkpt>
      <trkpt lat="37.808083000" lon="-4.887949000">
        <ele>159.5</ele>
        <time>2020-10-12T15:01:25Z</time>
      </trkpt>
      <trkpt lat="37.808108000" lon="-4.887806000">
        <ele>159.4</ele>
        <time>2020-10-12T15:01:28Z</time>
      </trkpt>
      <trkpt lat="37.808120000" lon="-4.887703000">
        <ele>159.1</ele>
        <time>2020-10-12T15:01:30Z</time>
      </trkpt>
      <trkpt lat="37.808133000" lon="-4.887593000">
        <ele>158.7</ele>
        <time>2020-10-12T15:01:32Z</time>
      </trkpt>
      <trkpt lat="37.808152000" lon="-4.887483000">
        <ele>158.1</ele>
        <time>2020-10-12T15:01:34Z</time>
      </trkpt>
      <trkpt lat="37.808164000" lon="-4.887374000">
        <ele>157.3</ele>
        <time>2020-10-12T15:01:36Z</time>
      </trkpt>
      <trkpt lat="37.808171000" lon="-4.887266000">
        <ele>156.4</ele>
        <time>2020-10-12T15:01:38Z</time>
      </trkpt>
      <trkpt lat="37.808190000" lon="-4.887160000">
        <ele>155.5</ele>
        <time>2020-10-12T15:01:40Z</time>
      </trkpt>
      <trkpt lat="37.808196000" lon="-4.887045000">
        <ele>154.5</ele>
        <time>2020-10-12T15:01:42Z</time>
      </trkpt>
      <trkpt lat="37.808204000" lon="-4.886930000">
        <ele>153.7</ele>
        <time>2020-10-12T15:01:44Z</time>
      </trkpt>
      <trkpt lat="37.808208000" lon="-4.886803000">
        <ele>152.9</ele>
        <time>2020-10-12T15:01:46Z</time>
      </trkpt>
      <trkpt lat="37.808207000" lon="-4.886675000">
        <ele>152.2</ele>
        <time>2020-10-12T15:01:48Z</time>
      </trkpt>
      <trkpt lat="37.808197000" lon="-4.886548000">
        <ele>151.6</ele>
        <time>2020-10-12T15:01:50Z</time>
      </trkpt>
      <trkpt lat="37.808194000" lon="-4.886423000">
        <ele>151.2</ele>
        <time>2020-10-12T15:01:52Z</time>
      </trkpt>
      <trkpt lat="37.808182000" lon="-4.886295000">
        <ele>150.8</ele>
        <time>2020-10-12T15:01:54Z</time>
      </trkpt>
      <trkpt lat="37.808171000" lon="-4.886159000">
        <ele>150.6</ele>
        <time>2020-10-12T15:01:56Z</time>
      </trkpt>
      <trkpt lat="37.808158000" lon="-4.886025000">
        <ele>150.5</ele>
        <time>2020-10-12T15:01:58Z</time>
      </trkpt>
      <trkpt lat="37.808143000" lon="-4.885881000">
        <ele>150.5</ele>
        <time>2020-10-12T15:02:00Z</time>
      </trkpt>
      <trkpt lat="37.808126000" lon="-4.885740000">
        <ele>150.5</ele>
        <time>2020-10-12T15:02:02Z</time>
      </trkpt>
      <trkpt lat="37.808108000" lon="-4.885596000">
        <ele>150.6</ele>
        <time>2020-10-12T15:02:04Z</time>
      </trkpt>
      <trkpt lat="37.808092000" lon="-4.885449000">
        <ele>150.7</ele>
        <time>2020-10-12T15:02:06Z</time>
      </trkpt>
      <trkpt lat="37.808080000" lon="-4.885299000">
        <ele>150.9</ele>
        <time>2020-10-12T15:02:08Z</time>
      </trkpt>
      <trkpt lat="37.808070000" lon="-4.885155000">
        <ele>151.1</ele>
        <time>2020-10-12T15:02:10Z</time>
      </trkpt>
      <trkpt lat="37.808052000" lon="-4.885003000">
        <ele>151.2</ele>
        <time>2020-10-12T15:02:12Z</time>
      </trkpt>
      <trkpt lat="37.808031000" lon="-4.884851000">
        <ele>151.4</ele>
        <time>2020-10-12T15:02:14Z</time>
      </trkpt>
      <trkpt lat="37.808018000" lon="-4.884706000">
        <ele>151.5</ele>
        <time>2020-10-12T15:02:16Z</time>
      </trkpt>
      <trkpt lat="37.808006000" lon="-4.884570000">
        <ele>151.5</ele>
        <time>2020-10-12T15:02:18Z</time>
      </trkpt>
      <trkpt lat="37.807986000" lon="-4.884429000">
        <ele>151.5</ele>
        <time>2020-10-12T15:02:20Z</time>
      </trkpt>
      <trkpt lat="37.807975000" lon="-4.884297000">
        <ele>151.5</ele>
        <time>2020-10-12T15:02:22Z</time>
      </trkpt>
      <trkpt lat="37.807966000" lon="-4.884160000">
        <ele>151.5</ele>
        <time>2020-10-12T15:02:24Z</time>
      </trkpt>
      <trkpt lat="37.807950000" lon="-4.884012000">
        <ele>151.5</ele>
        <time>2020-10-12T15:02:26Z</time>
      </trkpt>
      <trkpt lat="37.807942000" lon="-4.883872000">
        <ele>151.4</ele>
        <time>2020-10-12T15:02:28Z</time>
      </trkpt>
      <trkpt lat="37.807934000" lon="-4.883747000">
        <ele>151.2</ele>
        <time>2020-10-12T15:02:30Z</time>
      </trkpt>
      <trkpt lat="37.807930000" lon="-4.883616000">
        <ele>151.0</ele>
        <time>2020-10-12T15:02:32Z</time>
      </trkpt>
      <trkpt lat="37.807926000" lon="-4.883488000">
        <ele>150.8</ele>
        <time>2020-10-12T15:02:34Z</time>
      </trkpt>
      <trkpt lat="37.807923000" lon="-4.883354000">
        <ele>150.5</ele>
        <time>2020-10-12T15:02:36Z</time>
      </trkpt>
      <trkpt lat="37.807928000" lon="-4.883218000">
        <ele>150.4</ele>
        <time>2020-10-12T15:02:38Z</time>
      </trkpt>
      <trkpt lat="37.807934000" lon="-4.883090000">
        <ele>150.1</ele>
        <time>2020-10-12T15:02:40Z</time>
      </trkpt>
      <trkpt lat="37.807933000" lon="-4.882960000">
        <ele>149.9</ele>
        <time>2020-10-12T15:02:42Z</time>
      </trkpt>
      <trkpt lat="37.807937000" lon="-4.882836000">
        <ele>149.6</ele>
        <time>2020-10-12T15:02:44Z</time>
      </trkpt>
      <trkpt lat="37.807949000" lon="-4.882711000">
        <ele>149.5</ele>
        <time>2020-10-12T15:02:46Z</time>
      </trkpt>
      <trkpt lat="37.807961000" lon="-4.882591000">
        <ele>149.2</ele>
        <time>2020-10-12T15:02:48Z</time>
      </trkpt>
      <trkpt lat="37.807980000" lon="-4.882471000">
        <ele>148.9</ele>
        <time>2020-10-12T15:02:50Z</time>
      </trkpt>
      <trkpt lat="37.808002000" lon="-4.882359000">
        <ele>148.7</ele>
        <time>2020-10-12T15:02:52Z</time>
      </trkpt>
      <trkpt lat="37.808029000" lon="-4.882234000">
        <ele>148.5</ele>
        <time>2020-10-12T15:02:54Z</time>
      </trkpt>
      <trkpt lat="37.808059000" lon="-4.882100000">
        <ele>148.4</ele>
        <time>2020-10-12T15:02:56Z</time>
      </trkpt>
      <trkpt lat="37.808087000" lon="-4.881972000">
        <ele>148.3</ele>
        <time>2020-10-12T15:02:58Z</time>
      </trkpt>
      <trkpt lat="37.808111000" lon="-4.881852000">
        <ele>148.2</ele>
        <time>2020-10-12T15:03:00Z</time>
      </trkpt>
      <trkpt lat="37.808138000" lon="-4.881743000">
        <ele>148.3</ele>
        <time>2020-10-12T15:03:02Z</time>
      </trkpt>
      <trkpt lat="37.808168000" lon="-4.881640000">
        <ele>148.4</ele>
        <time>2020-10-12T15:03:04Z</time>
      </trkpt>
      <trkpt lat="37.808207000" lon="-4.881530000">
        <ele>148.5</ele>
        <time>2020-10-12T15:03:06Z</time>
      </trkpt>
      <trkpt lat="37.808238000" lon="-4.881413000">
        <ele>148.6</ele>
        <time>2020-10-12T15:03:08Z</time>
      </trkpt>
      <trkpt lat="37.808281000" lon="-4.881289000">
        <ele>148.8</ele>
        <time>2020-10-12T15:03:10Z</time>
      </trkpt>
      <trkpt lat="37.808327000" lon="-4.881167000">
        <ele>148.9</ele>
        <time>2020-10-12T15:03:12Z</time>
      </trkpt>
      <trkpt lat="37.808382000" lon="-4.881031000">
        <ele>148.9</ele>
        <time>2020-10-12T15:03:14Z</time>
      </trkpt>
      <trkpt lat="37.808436000" lon="-4.880903000">
        <ele>148.9</ele>
        <time>2020-10-12T15:03:16Z</time>
      </trkpt>
      <trkpt lat="37.808488000" lon="-4.880782000">
        <ele>148.9</ele>
        <time>2020-10-12T15:03:18Z</time>
      </trkpt>
      <trkpt lat="37.808539000" lon="-4.880658000">
        <ele>148.8</ele>
        <time>2020-10-12T15:03:20Z</time>
      </trkpt>
      <trkpt lat="37.808588000" lon="-4.880545000">
        <ele>148.7</ele>
        <time>2020-10-12T15:03:22Z</time>
      </trkpt>
      <trkpt lat="37.808637000" lon="-4.880440000">
        <ele>148.5</ele>
        <time>2020-10-12T15:03:24Z</time>
      </trkpt>
      <trkpt lat="37.808686000" lon="-4.880344000">
        <ele>148.4</ele>
        <time>2020-10-12T15:03:26Z</time>
      </trkpt>
      <trkpt lat="37.808737000" lon="-4.880242000">
        <ele>148.2</ele>
        <time>2020-10-12T15:03:28Z</time>
      </trkpt>
      <trkpt lat="37.808796000" lon="-4.880146000">
        <ele>148.1</ele>
        <time>2020-10-12T15:03:30Z</time>
      </trkpt>
      <trkpt lat="37.808860000" lon="-4.880044000">
        <ele>148.0</ele>
        <time>2020-10-12T15:03:32Z</time>
      </trkpt>
      <trkpt lat="37.808927000" lon="-4.879939000">
        <ele>148.0</ele>
        <time>2020-10-12T15:03:34Z</time>
      </trkpt>
      <trkpt lat="37.808997000" lon="-4.879835000">
        <ele>148.1</ele>
        <time>2020-10-12T15:03:36Z</time>
      </trkpt>
      <trkpt lat="37.809072000" lon="-4.879731000">
        <ele>148.2</ele>
        <time>2020-10-12T15:03:38Z</time>
      </trkpt>
      <trkpt lat="37.809138000" lon="-4.879639000">
        <ele>148.4</ele>
        <time>2020-10-12T15:03:40Z</time>
      </trkpt>
      <trkpt lat="37.809202000" lon="-4.879549000">
        <ele>148.5</ele>
        <time>2020-10-12T15:03:42Z</time>
      </trkpt>
      <trkpt lat="37.809264000" lon="-4.879470000">
        <ele>148.8</ele>
        <time>2020-10-12T15:03:44Z</time>
      </trkpt>
      <trkpt lat="37.809323000" lon="-4.879386000">
        <ele>149.1</ele>
        <time>2020-10-12T15:03:46Z</time>
      </trkpt>
      <trkpt lat="37.809382000" lon="-4.879309000">
        <ele>149.5</ele>
        <time>2020-10-12T15:03:48Z</time>
      </trkpt>
      <trkpt lat="37.809451000" lon="-4.879226000">
        <ele>149.8</ele>
        <time>2020-10-12T15:03:50Z</time>
      </trkpt>
      <trkpt lat="37.809535000" lon="-4.879149000">
        <ele>150.3</ele>
        <time>2020-10-12T15:03:52Z</time>
      </trkpt>
      <trkpt lat="37.809609000" lon="-4.879078000">
        <ele>150.7</ele>
        <time>2020-10-12T15:03:54Z</time>
      </trkpt>
      <trkpt lat="37.809673000" lon="-4.879014000">
        <ele>151.2</ele>
        <time>2020-10-12T15:03:56Z</time>
      </trkpt>
      <trkpt lat="37.809749000" lon="-4.878936000">
        <ele>151.5</ele>
        <time>2020-10-12T15:03:59Z</time>
      </trkpt>
      <trkpt lat="37.809840000" lon="-4.878871000">
        <ele>151.9</ele>
        <time>2020-10-12T15:04:03Z</time>
      </trkpt>
      <trkpt lat="37.809914000" lon="-4.878790000">
        <ele>152.2</ele>
        <time>2020-10-12T15:04:07Z</time>
      </trkpt>
      <trkpt lat="37.810011000" lon="-4.878707000">
        <ele>152.5</ele>
        <time>2020-10-12T15:04:10Z</time>
      </trkpt>
      <trkpt lat="37.810112000" lon="-4.878629000">
        <ele>152.6</ele>
        <time>2020-10-12T15:04:13Z</time>
      </trkpt>
      <trkpt lat="37.810207000" lon="-4.878546000">
        <ele>152.8</ele>
        <time>2020-10-12T15:04:16Z</time>
      </trkpt>
      <trkpt lat="37.810303000" lon="-4.878471000">
        <ele>152.9</ele>
        <time>2020-10-12T15:04:19Z</time>
      </trkpt>
      <trkpt lat="37.810371000" lon="-4.878413000">
        <ele>153.0</ele>
        <time>2020-10-12T15:04:21Z</time>
      </trkpt>
      <trkpt lat="37.810444000" lon="-4.878339000">
        <ele>153.0</ele>
        <time>2020-10-12T15:04:23Z</time>
      </trkpt>
      <trkpt lat="37.810529000" lon="-4.878268000">
        <ele>152.9</ele>
        <time>2020-10-12T15:04:25Z</time>
      </trkpt>
      <trkpt lat="37.810606000" lon="-4.878197000">
        <ele>152.7</ele>
        <time>2020-10-12T15:04:27Z</time>
      </trkpt>
      <trkpt lat="37.810677000" lon="-4.878131000">
        <ele>152.5</ele>
        <time>2020-10-12T15:04:29Z</time>
      </trkpt>
      <trkpt lat="37.810745000" lon="-4.878071000">
        <ele>152.2</ele>
        <time>2020-10-12T15:04:31Z</time>
      </trkpt>
      <trkpt lat="37.810847000" lon="-4.877983000">
        <ele>151.8</ele>
        <time>2020-10-12T15:04:34Z</time>
      </trkpt>
      <trkpt lat="37.810926000" lon="-4.877908000">
        <ele>151.5</ele>
        <time>2020-10-12T15:04:36Z</time>
      </trkpt>
      <trkpt lat="37.811010000" lon="-4.877831000">
        <ele>151.0</ele>
        <time>2020-10-12T15:04:38Z</time>
      </trkpt>
      <trkpt lat="37.811086000" lon="-4.877762000">
        <ele>150.5</ele>
        <time>2020-10-12T15:04:40Z</time>
      </trkpt>
      <trkpt lat="37.811153000" lon="-4.877698000">
        <ele>149.8</ele>
        <time>2020-10-12T15:04:42Z</time>
      </trkpt>
      <trkpt lat="37.811222000" lon="-4.877635000">
        <ele>149.2</ele>
        <time>2020-10-12T15:04:44Z</time>
      </trkpt>
      <trkpt lat="37.811312000" lon="-4.877549000">
        <ele>148.5</ele>
        <time>2020-10-12T15:04:47Z</time>
      </trkpt>
      <trkpt lat="37.811392000" lon="-4.877475000">
        <ele>147.6</ele>
        <time>2020-10-12T15:04:50Z</time>
      </trkpt>
      <trkpt lat="37.811479000" lon="-4.877374000">
        <ele>146.8</ele>
        <time>2020-10-12T15:04:53Z</time>
      </trkpt>
      <trkpt lat="37.811548000" lon="-4.877296000">
        <ele>146.0</ele>
        <time>2020-10-12T15:04:55Z</time>
      </trkpt>
      <trkpt lat="37.811617000" lon="-4.877204000">
        <ele>145.1</ele>
        <time>2020-10-12T15:04:57Z</time>
      </trkpt>
      <trkpt lat="37.811685000" lon="-4.877120000">
        <ele>144.3</ele>
        <time>2020-10-12T15:04:59Z</time>
      </trkpt>
      <trkpt lat="37.811745000" lon="-4.877041000">
        <ele>143.4</ele>
        <time>2020-10-12T15:05:01Z</time>
      </trkpt>
      <trkpt lat="37.811798000" lon="-4.876963000">
        <ele>142.5</ele>
        <time>2020-10-12T15:05:03Z</time>
      </trkpt>
      <trkpt lat="37.811875000" lon="-4.876859000">
        <ele>141.8</ele>
        <time>2020-10-12T15:05:06Z</time>
      </trkpt>
      <trkpt lat="37.811941000" lon="-4.876766000">
        <ele>141.1</ele>
        <time>2020-10-12T15:05:09Z</time>
      </trkpt>
      <trkpt lat="37.812004000" lon="-4.876675000">
        <ele>140.4</ele>
        <time>2020-10-12T15:05:12Z</time>
      </trkpt>
      <trkpt lat="37.812073000" lon="-4.876577000">
        <ele>139.8</ele>
        <time>2020-10-12T15:05:15Z</time>
      </trkpt>
      <trkpt lat="37.812141000" lon="-4.876450000">
        <ele>139.5</ele>
        <time>2020-10-12T15:05:18Z</time>
      </trkpt>
      <trkpt lat="37.812198000" lon="-4.876329000">
        <ele>139.2</ele>
        <time>2020-10-12T15:05:21Z</time>
      </trkpt>
      <trkpt lat="37.812260000" lon="-4.876211000">
        <ele>139.0</ele>
        <time>2020-10-12T15:05:24Z</time>
      </trkpt>
      <trkpt lat="37.812326000" lon="-4.876078000">
        <ele>138.8</ele>
        <time>2020-10-12T15:05:27Z</time>
      </trkpt>
      <trkpt lat="37.812374000" lon="-4.875974000">
        <ele>138.6</ele>
        <time>2020-10-12T15:05:29Z</time>
      </trkpt>
      <trkpt lat="37.812423000" lon="-4.875870000">
        <ele>138.5</ele>
        <time>2020-10-12T15:05:31Z</time>
      </trkpt>
      <trkpt lat="37.812465000" lon="-4.875775000">
        <ele>138.3</ele>
        <time>2020-10-12T15:05:33Z</time>
      </trkpt>
      <trkpt lat="37.812517000" lon="-4.875635000">
        <ele>138.0</ele>
        <time>2020-10-12T15:05:36Z</time>
      </trkpt>
      <trkpt lat="37.812551000" lon="-4.875537000">
        <ele>137.7</ele>
        <time>2020-10-12T15:05:38Z</time>
      </trkpt>
      <trkpt lat="37.812585000" lon="-4.875438000">
        <ele>137.5</ele>
        <time>2020-10-12T15:05:40Z</time>
      </trkpt>
      <trkpt lat="37.812605000" lon="-4.875336000">
        <ele>137.0</ele>
        <time>2020-10-12T15:05:42Z</time>
      </trkpt>
      <trkpt lat="37.812638000" lon="-4.875235000">
        <ele>136.5</ele>
        <time>2020-10-12T15:05:44Z</time>
      </trkpt>
      <trkpt lat="37.812670000" lon="-4.875132000">
        <ele>136.1</ele>
        <time>2020-10-12T15:05:46Z</time>
      </trkpt>
      <trkpt lat="37.812704000" lon="-4.875025000">
        <ele>135.6</ele>
        <time>2020-10-12T15:05:48Z</time>
      </trkpt>
      <trkpt lat="37.812732000" lon="-4.874907000">
        <ele>135.3</ele>
        <time>2020-10-12T15:05:50Z</time>
      </trkpt>
      <trkpt lat="37.812757000" lon="-4.874786000">
        <ele>134.8</ele>
        <time>2020-10-12T15:05:52Z</time>
      </trkpt>
      <trkpt lat="37.812783000" lon="-4.874656000">
        <ele>134.5</ele>
        <time>2020-10-12T15:05:54Z</time>
      </trkpt>
      <trkpt lat="37.812808000" lon="-4.874528000">
        <ele>134.1</ele>
        <time>2020-10-12T15:05:56Z</time>
      </trkpt>
      <trkpt lat="37.812831000" lon="-4.874387000">
        <ele>133.8</ele>
        <time>2020-10-12T15:05:58Z</time>
      </trkpt>
      <trkpt lat="37.812850000" lon="-4.874255000">
        <ele>133.7</ele>
        <time>2020-10-12T15:06:00Z</time>
      </trkpt>
      <trkpt lat="37.812866000" lon="-4.874125000">
        <ele>133.6</ele>
        <time>2020-10-12T15:06:02Z</time>
      </trkpt>
      <trkpt lat="37.812880000" lon="-4.873987000">
        <ele>133.7</ele>
        <time>2020-10-12T15:06:04Z</time>
      </trkpt>
      <trkpt lat="37.812894000" lon="-4.873849000">
        <ele>133.8</ele>
        <time>2020-10-12T15:06:06Z</time>
      </trkpt>
      <trkpt lat="37.812903000" lon="-4.873719000">
        <ele>133.9</ele>
        <time>2020-10-12T15:06:08Z</time>
      </trkpt>
      <trkpt lat="37.812912000" lon="-4.873587000">
        <ele>134.1</ele>
        <time>2020-10-12T15:06:10Z</time>
      </trkpt>
      <trkpt lat="37.812923000" lon="-4.873455000">
        <ele>134.3</ele>
        <time>2020-10-12T15:06:12Z</time>
      </trkpt>
      <trkpt lat="37.812929000" lon="-4.873322000">
        <ele>134.5</ele>
        <time>2020-10-12T15:06:14Z</time>
      </trkpt>
      <trkpt lat="37.812931000" lon="-4.873183000">
        <ele>134.7</ele>
        <time>2020-10-12T15:06:16Z</time>
      </trkpt>
      <trkpt lat="37.812927000" lon="-4.873051000">
        <ele>134.9</ele>
        <time>2020-10-12T15:06:18Z</time>
      </trkpt>
      <trkpt lat="37.812922000" lon="-4.872918000">
        <ele>135.1</ele>
        <time>2020-10-12T15:06:20Z</time>
      </trkpt>
      <trkpt lat="37.812915000" lon="-4.872783000">
        <ele>135.2</ele>
        <time>2020-10-12T15:06:22Z</time>
      </trkpt>
      <trkpt lat="37.812907000" lon="-4.872650000">
        <ele>135.3</ele>
        <time>2020-10-12T15:06:24Z</time>
      </trkpt>
      <trkpt lat="37.812900000" lon="-4.872515000">
        <ele>135.3</ele>
        <time>2020-10-12T15:06:26Z</time>
      </trkpt>
      <trkpt lat="37.812884000" lon="-4.872380000">
        <ele>135.3</ele>
        <time>2020-10-12T15:06:28Z</time>
      </trkpt>
      <trkpt lat="37.812864000" lon="-4.872245000">
        <ele>135.3</ele>
        <time>2020-10-12T15:06:30Z</time>
      </trkpt>
      <trkpt lat="37.812843000" lon="-4.872110000">
        <ele>135.3</ele>
        <time>2020-10-12T15:06:32Z</time>
      </trkpt>
      <trkpt lat="37.812825000" lon="-4.871969000">
        <ele>135.3</ele>
        <time>2020-10-12T15:06:34Z</time>
      </trkpt>
      <trkpt lat="37.812800000" lon="-4.871830000">
        <ele>135.3</ele>
        <time>2020-10-12T15:06:36Z</time>
      </trkpt>
      <trkpt lat="37.812772000" lon="-4.871706000">
        <ele>135.4</ele>
        <time>2020-10-12T15:06:38Z</time>
      </trkpt>
      <trkpt lat="37.812748000" lon="-4.871583000">
        <ele>135.5</ele>
        <time>2020-10-12T15:06:40Z</time>
      </trkpt>
      <trkpt lat="37.812719000" lon="-4.871471000">
        <ele>135.6</ele>
        <time>2020-10-12T15:06:42Z</time>
      </trkpt>
      <trkpt lat="37.812684000" lon="-4.871357000">
        <ele>135.8</ele>
        <time>2020-10-12T15:06:44Z</time>
      </trkpt>
      <trkpt lat="37.812659000" lon="-4.871249000">
        <ele>136.0</ele>
        <time>2020-10-12T15:06:46Z</time>
      </trkpt>
      <trkpt lat="37.812634000" lon="-4.871144000">
        <ele>136.2</ele>
        <time>2020-10-12T15:06:48Z</time>
      </trkpt>
      <trkpt lat="37.812614000" lon="-4.871031000">
        <ele>136.4</ele>
        <time>2020-10-12T15:06:50Z</time>
      </trkpt>
      <trkpt lat="37.812594000" lon="-4.870916000">
        <ele>136.5</ele>
        <time>2020-10-12T15:06:52Z</time>
      </trkpt>
      <trkpt lat="37.812566000" lon="-4.870799000">
        <ele>136.6</ele>
        <time>2020-10-12T15:06:54Z</time>
      </trkpt>
      <trkpt lat="37.812536000" lon="-4.870681000">
        <ele>136.7</ele>
        <time>2020-10-12T15:06:56Z</time>
      </trkpt>
      <trkpt lat="37.812507000" lon="-4.870563000">
        <ele>136.8</ele>
        <time>2020-10-12T15:06:58Z</time>
      </trkpt>
      <trkpt lat="37.812474000" lon="-4.870444000">
        <ele>137.0</ele>
        <time>2020-10-12T15:07:00Z</time>
      </trkpt>
      <trkpt lat="37.812441000" lon="-4.870323000">
        <ele>137.2</ele>
        <time>2020-10-12T15:07:02Z</time>
      </trkpt>
      <trkpt lat="37.812416000" lon="-4.870200000">
        <ele>137.3</ele>
        <time>2020-10-12T15:07:04Z</time>
      </trkpt>
      <trkpt lat="37.812387000" lon="-4.870075000">
        <ele>137.4</ele>
        <time>2020-10-12T15:07:06Z</time>
      </trkpt>
      <trkpt lat="37.812370000" lon="-4.869947000">
        <ele>137.3</ele>
        <time>2020-10-12T15:07:08Z</time>
      </trkpt>
      <trkpt lat="37.812358000" lon="-4.869822000">
        <ele>137.1</ele>
        <time>2020-10-12T15:07:10Z</time>
      </trkpt>
      <trkpt lat="37.812340000" lon="-4.869696000">
        <ele>136.8</ele>
        <time>2020-10-12T15:07:12Z</time>
      </trkpt>
      <trkpt lat="37.812331000" lon="-4.869565000">
        <ele>136.5</ele>
        <time>2020-10-12T15:07:14Z</time>
      </trkpt>
      <trkpt lat="37.812318000" lon="-4.869444000">
        <ele>136.0</ele>
        <time>2020-10-12T15:07:16Z</time>
      </trkpt>
      <trkpt lat="37.812310000" lon="-4.869325000">
        <ele>135.5</ele>
        <time>2020-10-12T15:07:18Z</time>
      </trkpt>
      <trkpt lat="37.812301000" lon="-4.869201000">
        <ele>135.1</ele>
        <time>2020-10-12T15:07:20Z</time>
      </trkpt>
      <trkpt lat="37.812296000" lon="-4.869077000">
        <ele>134.5</ele>
        <time>2020-10-12T15:07:22Z</time>
      </trkpt>
      <trkpt lat="37.812300000" lon="-4.868949000">
        <ele>133.8</ele>
        <time>2020-10-12T15:07:24Z</time>
      </trkpt>
      <trkpt lat="37.812306000" lon="-4.868820000">
        <ele>133.1</ele>
        <time>2020-10-12T15:07:26Z</time>
      </trkpt>
      <trkpt lat="37.812314000" lon="-4.868689000">
        <ele>132.3</ele>
        <time>2020-10-12T15:07:28Z</time>
      </trkpt>
      <trkpt lat="37.812314000" lon="-4.868562000">
        <ele>131.6</ele>
        <time>2020-10-12T15:07:30Z</time>
      </trkpt>
      <trkpt lat="37.812322000" lon="-4.868433000">
        <ele>131.1</ele>
        <time>2020-10-12T15:07:32Z</time>
      </trkpt>
      <trkpt lat="37.812343000" lon="-4.868317000">
        <ele>130.6</ele>
        <time>2020-10-12T15:07:34Z</time>
      </trkpt>
      <trkpt lat="37.812368000" lon="-4.868205000">
        <ele>130.3</ele>
        <time>2020-10-12T15:07:36Z</time>
      </trkpt>
      <trkpt lat="37.812381000" lon="-4.868081000">
        <ele>130.0</ele>
        <time>2020-10-12T15:07:38Z</time>
      </trkpt>
      <trkpt lat="37.812403000" lon="-4.867959000">
        <ele>129.6</ele>
        <time>2020-10-12T15:07:40Z</time>
      </trkpt>
      <trkpt lat="37.812430000" lon="-4.867836000">
        <ele>129.3</ele>
        <time>2020-10-12T15:07:42Z</time>
      </trkpt>
      <trkpt lat="37.812460000" lon="-4.867718000">
        <ele>129.0</ele>
        <time>2020-10-12T15:07:44Z</time>
      </trkpt>
      <trkpt lat="37.812489000" lon="-4.867610000">
        <ele>128.6</ele>
        <time>2020-10-12T15:07:46Z</time>
      </trkpt>
      <trkpt lat="37.812524000" lon="-4.867499000">
        <ele>128.4</ele>
        <time>2020-10-12T15:07:48Z</time>
      </trkpt>
      <trkpt lat="37.812562000" lon="-4.867391000">
        <ele>128.1</ele>
        <time>2020-10-12T15:07:50Z</time>
      </trkpt>
      <trkpt lat="37.812595000" lon="-4.867292000">
        <ele>127.8</ele>
        <time>2020-10-12T15:07:52Z</time>
      </trkpt>
      <trkpt lat="37.812637000" lon="-4.867200000">
        <ele>127.6</ele>
        <time>2020-10-12T15:07:54Z</time>
      </trkpt>
      <trkpt lat="37.812678000" lon="-4.867104000">
        <ele>127.5</ele>
        <time>2020-10-12T15:07:56Z</time>
      </trkpt>
      <trkpt lat="37.812734000" lon="-4.866967000">
        <ele>127.2</ele>
        <time>2020-10-12T15:07:59Z</time>
      </trkpt>
      <trkpt lat="37.812781000" lon="-4.866875000">
        <ele>126.9</ele>
        <time>2020-10-12T15:08:01Z</time>
      </trkpt>
      <trkpt lat="37.812837000" lon="-4.866772000">
        <ele>126.6</ele>
        <time>2020-10-12T15:08:03Z</time>
      </trkpt>
      <trkpt lat="37.812893000" lon="-4.866671000">
        <ele>126.4</ele>
        <time>2020-10-12T15:08:05Z</time>
      </trkpt>
      <trkpt lat="37.812949000" lon="-4.866568000">
        <ele>126.1</ele>
        <time>2020-10-12T15:08:07Z</time>
      </trkpt>
      <trkpt lat="37.813012000" lon="-4.866464000">
        <ele>125.9</ele>
        <time>2020-10-12T15:08:09Z</time>
      </trkpt>
      <trkpt lat="37.813084000" lon="-4.866356000">
        <ele>125.7</ele>
        <time>2020-10-12T15:08:11Z</time>
      </trkpt>
      <trkpt lat="37.813153000" lon="-4.866255000">
        <ele>125.6</ele>
        <time>2020-10-12T15:08:13Z</time>
      </trkpt>
      <trkpt lat="37.813230000" lon="-4.866156000">
        <ele>125.5</ele>
        <time>2020-10-12T15:08:15Z</time>
      </trkpt>
      <trkpt lat="37.813307000" lon="-4.866062000">
        <ele>125.2</ele>
        <time>2020-10-12T15:08:17Z</time>
      </trkpt>
      <trkpt lat="37.813395000" lon="-4.865966000">
        <ele>124.9</ele>
        <time>2020-10-12T15:08:19Z</time>
      </trkpt>
      <trkpt lat="37.813482000" lon="-4.865869000">
        <ele>124.7</ele>
        <time>2020-10-12T15:08:21Z</time>
      </trkpt>
      <trkpt lat="37.813574000" lon="-4.865774000">
        <ele>124.5</ele>
        <time>2020-10-12T15:08:23Z</time>
      </trkpt>
      <trkpt lat="37.813671000" lon="-4.865692000">
        <ele>124.4</ele>
        <time>2020-10-12T15:08:25Z</time>
      </trkpt>
      <trkpt lat="37.813768000" lon="-4.865609000">
        <ele>124.3</ele>
        <time>2020-10-12T15:08:27Z</time>
      </trkpt>
      <trkpt lat="37.813870000" lon="-4.865533000">
        <ele>124.1</ele>
        <time>2020-10-12T15:08:29Z</time>
      </trkpt>
      <trkpt lat="37.813970000" lon="-4.865462000">
        <ele>123.9</ele>
        <time>2020-10-12T15:08:31Z</time>
      </trkpt>
      <trkpt lat="37.814072000" lon="-4.865390000">
        <ele>123.7</ele>
        <time>2020-10-12T15:08:33Z</time>
      </trkpt>
      <trkpt lat="37.814173000" lon="-4.865329000">
        <ele>123.5</ele>
        <time>2020-10-12T15:08:35Z</time>
      </trkpt>
      <trkpt lat="37.814279000" lon="-4.865275000">
        <ele>123.5</ele>
        <time>2020-10-12T15:08:37Z</time>
      </trkpt>
      <trkpt lat="37.814387000" lon="-4.865226000">
        <ele>123.6</ele>
        <time>2020-10-12T15:08:39Z</time>
      </trkpt>
      <trkpt lat="37.814494000" lon="-4.865182000">
        <ele>123.8</ele>
        <time>2020-10-12T15:08:41Z</time>
      </trkpt>
      <trkpt lat="37.814600000" lon="-4.865144000">
        <ele>124.1</ele>
        <time>2020-10-12T15:08:43Z</time>
      </trkpt>
      <trkpt lat="37.814714000" lon="-4.865116000">
        <ele>124.5</ele>
        <time>2020-10-12T15:08:45Z</time>
      </trkpt>
      <trkpt lat="37.814818000" lon="-4.865087000">
        <ele>125.0</ele>
        <time>2020-10-12T15:08:47Z</time>
      </trkpt>
      <trkpt lat="37.814926000" lon="-4.865062000">
        <ele>125.5</ele>
        <time>2020-10-12T15:08:49Z</time>
      </trkpt>
      <trkpt lat="37.815027000" lon="-4.865049000">
        <ele>126.0</ele>
        <time>2020-10-12T15:08:51Z</time>
      </trkpt>
      <trkpt lat="37.815121000" lon="-4.865039000">
        <ele>126.5</ele>
        <time>2020-10-12T15:08:53Z</time>
      </trkpt>
      <trkpt lat="37.815220000" lon="-4.865024000">
        <ele>127.1</ele>
        <time>2020-10-12T15:08:55Z</time>
      </trkpt>
      <trkpt lat="37.815320000" lon="-4.865022000">
        <ele>127.6</ele>
        <time>2020-10-12T15:08:57Z</time>
      </trkpt>
      <trkpt lat="37.815424000" lon="-4.865030000">
        <ele>128.1</ele>
        <time>2020-10-12T15:08:59Z</time>
      </trkpt>
      <trkpt lat="37.815524000" lon="-4.865023000">
        <ele>128.5</ele>
        <time>2020-10-12T15:09:01Z</time>
      </trkpt>
      <trkpt lat="37.815621000" lon="-4.865030000">
        <ele>128.6</ele>
        <time>2020-10-12T15:09:03Z</time>
      </trkpt>
      <trkpt lat="37.815720000" lon="-4.865045000">
        <ele>128.6</ele>
        <time>2020-10-12T15:09:05Z</time>
      </trkpt>
      <trkpt lat="37.815816000" lon="-4.865062000">
        <ele>128.5</ele>
        <time>2020-10-12T15:09:07Z</time>
      </trkpt>
      <trkpt lat="37.815911000" lon="-4.865078000">
        <ele>128.1</ele>
        <time>2020-10-12T15:09:09Z</time>
      </trkpt>
      <trkpt lat="37.816007000" lon="-4.865096000">
        <ele>127.6</ele>
        <time>2020-10-12T15:09:11Z</time>
      </trkpt>
      <trkpt lat="37.816111000" lon="-4.865120000">
        <ele>127.1</ele>
        <time>2020-10-12T15:09:13Z</time>
      </trkpt>
      <trkpt lat="37.816214000" lon="-4.865143000">
        <ele>126.5</ele>
        <time>2020-10-12T15:09:15Z</time>
      </trkpt>
      <trkpt lat="37.816311000" lon="-4.865170000">
        <ele>125.9</ele>
        <time>2020-10-12T15:09:17Z</time>
      </trkpt>
      <trkpt lat="37.816410000" lon="-4.865199000">
        <ele>125.2</ele>
        <time>2020-10-12T15:09:19Z</time>
      </trkpt>
      <trkpt lat="37.816512000" lon="-4.865224000">
        <ele>124.5</ele>
        <time>2020-10-12T15:09:21Z</time>
      </trkpt>
      <trkpt lat="37.816615000" lon="-4.865250000">
        <ele>123.6</ele>
        <time>2020-10-12T15:09:23Z</time>
      </trkpt>
      <trkpt lat="37.816715000" lon="-4.865283000">
        <ele>122.9</ele>
        <time>2020-10-12T15:09:25Z</time>
      </trkpt>
      <trkpt lat="37.816814000" lon="-4.865318000">
        <ele>122.2</ele>
        <time>2020-10-12T15:09:27Z</time>
      </trkpt>
      <trkpt lat="37.816916000" lon="-4.865348000">
        <ele>121.5</ele>
        <time>2020-10-12T15:09:29Z</time>
      </trkpt>
      <trkpt lat="37.817014000" lon="-4.865381000">
        <ele>120.9</ele>
        <time>2020-10-12T15:09:31Z</time>
      </trkpt>
      <trkpt lat="37.817110000" lon="-4.865415000">
        <ele>120.3</ele>
        <time>2020-10-12T15:09:33Z</time>
      </trkpt>
      <trkpt lat="37.817211000" lon="-4.865449000">
        <ele>119.7</ele>
        <time>2020-10-12T15:09:35Z</time>
      </trkpt>
      <trkpt lat="37.817314000" lon="-4.865489000">
        <ele>119.1</ele>
        <time>2020-10-12T15:09:37Z</time>
      </trkpt>
      <trkpt lat="37.817424000" lon="-4.865523000">
        <ele>118.5</ele>
        <time>2020-10-12T15:09:39Z</time>
      </trkpt>
      <trkpt lat="37.817532000" lon="-4.865555000">
        <ele>118.1</ele>
        <time>2020-10-12T15:09:41Z</time>
      </trkpt>
      <trkpt lat="37.817632000" lon="-4.865589000">
        <ele>117.6</ele>
        <time>2020-10-12T15:09:43Z</time>
      </trkpt>
      <trkpt lat="37.817735000" lon="-4.865617000">
        <ele>117.3</ele>
        <time>2020-10-12T15:09:45Z</time>
      </trkpt>
      <trkpt lat="37.817838000" lon="-4.865644000">
        <ele>116.9</ele>
        <time>2020-10-12T15:09:47Z</time>
      </trkpt>
      <trkpt lat="37.817950000" lon="-4.865679000">
        <ele>116.6</ele>
        <time>2020-10-12T15:09:49Z</time>
      </trkpt>
      <trkpt lat="37.818061000" lon="-4.865705000">
        <ele>116.4</ele>
        <time>2020-10-12T15:09:51Z</time>
      </trkpt>
      <trkpt lat="37.818170000" lon="-4.865737000">
        <ele>116.3</ele>
        <time>2020-10-12T15:09:53Z</time>
      </trkpt>
      <trkpt lat="37.818277000" lon="-4.865762000">
        <ele>116.3</ele>
        <time>2020-10-12T15:09:55Z</time>
      </trkpt>
      <trkpt lat="37.818389000" lon="-4.865782000">
        <ele>116.3</ele>
        <time>2020-10-12T15:09:57Z</time>
      </trkpt>
      <trkpt lat="37.818502000" lon="-4.865803000">
        <ele>116.5</ele>
        <time>2020-10-12T15:09:59Z</time>
      </trkpt>
      <trkpt lat="37.818609000" lon="-4.865814000">
        <ele>116.6</ele>
        <time>2020-10-12T15:10:01Z</time>
      </trkpt>
      <trkpt lat="37.818720000" lon="-4.865824000">
        <ele>116.9</ele>
        <time>2020-10-12T15:10:03Z</time>
      </trkpt>
      <trkpt lat="37.818825000" lon="-4.865823000">
        <ele>117.2</ele>
        <time>2020-10-12T15:10:05Z</time>
      </trkpt>
      <trkpt lat="37.818940000" lon="-4.865811000">
        <ele>117.5</ele>
        <time>2020-10-12T15:10:07Z</time>
      </trkpt>
      <trkpt lat="37.819053000" lon="-4.865794000">
        <ele>117.9</ele>
        <time>2020-10-12T15:10:09Z</time>
      </trkpt>
      <trkpt lat="37.819163000" lon="-4.865772000">
        <ele>118.3</ele>
        <time>2020-10-12T15:10:11Z</time>
      </trkpt>
      <trkpt lat="37.819273000" lon="-4.865753000">
        <ele>118.7</ele>
        <time>2020-10-12T15:10:13Z</time>
      </trkpt>
      <trkpt lat="37.819370000" lon="-4.865724000">
        <ele>119.0</ele>
        <time>2020-10-12T15:10:15Z</time>
      </trkpt>
      <trkpt lat="37.819460000" lon="-4.865698000">
        <ele>119.2</ele>
        <time>2020-10-12T15:10:17Z</time>
      </trkpt>
      <trkpt lat="37.819550000" lon="-4.865657000">
        <ele>119.4</ele>
        <time>2020-10-12T15:10:19Z</time>
      </trkpt>
      <trkpt lat="37.819638000" lon="-4.865615000">
        <ele>119.4</ele>
        <time>2020-10-12T15:10:21Z</time>
      </trkpt>
      <trkpt lat="37.819733000" lon="-4.865562000">
        <ele>119.4</ele>
        <time>2020-10-12T15:10:23Z</time>
      </trkpt>
      <trkpt lat="37.819823000" lon="-4.865518000">
        <ele>119.3</ele>
        <time>2020-10-12T15:10:25Z</time>
      </trkpt>
      <trkpt lat="37.819912000" lon="-4.865469000">
        <ele>119.2</ele>
        <time>2020-10-12T15:10:27Z</time>
      </trkpt>
      <trkpt lat="37.819998000" lon="-4.865410000">
        <ele>119.0</ele>
        <time>2020-10-12T15:10:29Z</time>
      </trkpt>
      <trkpt lat="37.820085000" lon="-4.865353000">
        <ele>118.9</ele>
        <time>2020-10-12T15:10:31Z</time>
      </trkpt>
      <trkpt lat="37.820163000" lon="-4.865288000">
        <ele>118.8</ele>
        <time>2020-10-12T15:10:33Z</time>
      </trkpt>
      <trkpt lat="37.820237000" lon="-4.865228000">
        <ele>118.6</ele>
        <time>2020-10-12T15:10:35Z</time>
      </trkpt>
      <trkpt lat="37.820311000" lon="-4.865162000">
        <ele>118.5</ele>
        <time>2020-10-12T15:10:37Z</time>
      </trkpt>
      <trkpt lat="37.820388000" lon="-4.865095000">
        <ele>118.5</ele>
        <time>2020-10-12T15:10:39Z</time>
      </trkpt>
      <trkpt lat="37.820463000" lon="-4.865019000">
        <ele>118.5</ele>
        <time>2020-10-12T15:10:41Z</time>
      </trkpt>
      <trkpt lat="37.820533000" lon="-4.864944000">
        <ele>118.7</ele>
        <time>2020-10-12T15:10:43Z</time>
      </trkpt>
      <trkpt lat="37.820601000" lon="-4.864865000">
        <ele>118.9</ele>
        <time>2020-10-12T15:10:45Z</time>
      </trkpt>
      <trkpt lat="37.820665000" lon="-4.864786000">
        <ele>119.1</ele>
        <time>2020-10-12T15:10:47Z</time>
      </trkpt>
      <trkpt lat="37.820731000" lon="-4.864711000">
        <ele>119.3</ele>
        <time>2020-10-12T15:10:49Z</time>
      </trkpt>
      <trkpt lat="37.820797000" lon="-4.864625000">
        <ele>119.4</ele>
        <time>2020-10-12T15:10:51Z</time>
      </trkpt>
      <trkpt lat="37.820864000" lon="-4.864526000">
        <ele>119.3</ele>
        <time>2020-10-12T15:10:53Z</time>
      </trkpt>
      <trkpt lat="37.820930000" lon="-4.864418000">
        <ele>119.1</ele>
        <time>2020-10-12T15:10:55Z</time>
      </trkpt>
      <trkpt lat="37.820996000" lon="-4.864306000">
        <ele>118.7</ele>
        <time>2020-10-12T15:10:57Z</time>
      </trkpt>
      <trkpt lat="37.821055000" lon="-4.864192000">
        <ele>118.2</ele>
        <time>2020-10-12T15:10:59Z</time>
      </trkpt>
      <trkpt lat="37.821104000" lon="-4.864087000">
        <ele>117.5</ele>
        <time>2020-10-12T15:11:01Z</time>
      </trkpt>
      <trkpt lat="37.821154000" lon="-4.863981000">
        <ele>116.8</ele>
        <time>2020-10-12T15:11:03Z</time>
      </trkpt>
      <trkpt lat="37.821194000" lon="-4.863870000">
        <ele>115.8</ele>
        <time>2020-10-12T15:11:05Z</time>
      </trkpt>
      <trkpt lat="37.821244000" lon="-4.863749000">
        <ele>114.8</ele>
        <time>2020-10-12T15:11:07Z</time>
      </trkpt>
      <trkpt lat="37.821281000" lon="-4.863643000">
        <ele>113.8</ele>
        <time>2020-10-12T15:11:09Z</time>
      </trkpt>
      <trkpt lat="37.821303000" lon="-4.863539000">
        <ele>112.8</ele>
        <time>2020-10-12T15:11:11Z</time>
      </trkpt>
      <trkpt lat="37.821326000" lon="-4.863436000">
        <ele>111.9</ele>
        <time>2020-10-12T15:11:13Z</time>
      </trkpt>
      <trkpt lat="37.821353000" lon="-4.863327000">
        <ele>111.0</ele>
        <time>2020-10-12T15:11:15Z</time>
      </trkpt>
      <trkpt lat="37.821373000" lon="-4.863217000">
        <ele>110.2</ele>
        <time>2020-10-12T15:11:17Z</time>
      </trkpt>
      <trkpt lat="37.821392000" lon="-4.863116000">
        <ele>109.5</ele>
        <time>2020-10-12T15:11:19Z</time>
      </trkpt>
      <trkpt lat="37.821412000" lon="-4.863010000">
        <ele>108.9</ele>
        <time>2020-10-12T15:11:21Z</time>
      </trkpt>
      <trkpt lat="37.821433000" lon="-4.862897000">
        <ele>108.5</ele>
        <time>2020-10-12T15:11:23Z</time>
      </trkpt>
      <trkpt lat="37.821446000" lon="-4.862777000">
        <ele>108.0</ele>
        <time>2020-10-12T15:11:25Z</time>
      </trkpt>
      <trkpt lat="37.821457000" lon="-4.862657000">
        <ele>107.7</ele>
        <time>2020-10-12T15:11:29Z</time>
      </trkpt>
      <trkpt lat="37.821466000" lon="-4.862536000">
        <ele>107.5</ele>
        <time>2020-10-12T15:11:29Z</time>
      </trkpt>
      <trkpt lat="37.821471000" lon="-4.862427000">
        <ele>107.4</ele>
        <time>2020-10-12T15:11:31Z</time>
      </trkpt>
      <trkpt lat="37.821469000" lon="-4.862322000">
        <ele>107.2</ele>
        <time>2020-10-12T15:11:33Z</time>
      </trkpt>
      <trkpt lat="37.821459000" lon="-4.862211000">
        <ele>107.0</ele>
        <time>2020-10-12T15:11:35Z</time>
      </trkpt>
      <trkpt lat="37.821452000" lon="-4.862090000">
        <ele>106.9</ele>
        <time>2020-10-12T15:11:37Z</time>
      </trkpt>
      <trkpt lat="37.821444000" lon="-4.861970000">
        <ele>106.7</ele>
        <time>2020-10-12T15:11:39Z</time>
      </trkpt>
      <trkpt lat="37.821437000" lon="-4.861844000">
        <ele>106.5</ele>
        <time>2020-10-12T15:11:41Z</time>
      </trkpt>
      <trkpt lat="37.821414000" lon="-4.861722000">
        <ele>106.4</ele>
        <time>2020-10-12T15:11:43Z</time>
      </trkpt>
      <trkpt lat="37.821392000" lon="-4.861595000">
        <ele>106.2</ele>
        <time>2020-10-12T15:11:45Z</time>
      </trkpt>
      <trkpt lat="37.821368000" lon="-4.861468000">
        <ele>106.1</ele>
        <time>2020-10-12T15:11:47Z</time>
      </trkpt>
      <trkpt lat="37.821336000" lon="-4.861337000">
        <ele>106.0</ele>
        <time>2020-10-12T15:11:49Z</time>
      </trkpt>
      <trkpt lat="37.821304000" lon="-4.861204000">
        <ele>105.8</ele>
        <time>2020-10-12T15:11:51Z</time>
      </trkpt>
      <trkpt lat="37.821257000" lon="-4.861076000">
        <ele>105.7</ele>
        <time>2020-10-12T15:11:53Z</time>
      </trkpt>
      <trkpt lat="37.821214000" lon="-4.860950000">
        <ele>105.6</ele>
        <time>2020-10-12T15:11:55Z</time>
      </trkpt>
      <trkpt lat="37.821171000" lon="-4.860828000">
        <ele>105.5</ele>
        <time>2020-10-12T15:11:57Z</time>
      </trkpt>
      <trkpt lat="37.821119000" lon="-4.860708000">
        <ele>105.5</ele>
        <time>2020-10-12T15:11:59Z</time>
      </trkpt>
      <trkpt lat="37.821067000" lon="-4.860582000">
        <ele>105.4</ele>
        <time>2020-10-12T15:12:01Z</time>
      </trkpt>
      <trkpt lat="37.821008000" lon="-4.860461000">
        <ele>105.4</ele>
        <time>2020-10-12T15:12:03Z</time>
      </trkpt>
      <trkpt lat="37.820961000" lon="-4.860339000">
        <ele>105.3</ele>
        <time>2020-10-12T15:12:05Z</time>
      </trkpt>
      <trkpt lat="37.820904000" lon="-4.860219000">
        <ele>105.3</ele>
        <time>2020-10-12T15:12:07Z</time>
      </trkpt>
      <trkpt lat="37.820849000" lon="-4.860097000">
        <ele>105.3</ele>
        <time>2020-10-12T15:12:09Z</time>
      </trkpt>
      <trkpt lat="37.820800000" lon="-4.859982000">
        <ele>105.3</ele>
        <time>2020-10-12T15:12:11Z</time>
      </trkpt>
      <trkpt lat="37.820748000" lon="-4.859863000">
        <ele>105.3</ele>
        <time>2020-10-12T15:12:13Z</time>
      </trkpt>
      <trkpt lat="37.820694000" lon="-4.859745000">
        <ele>105.1</ele>
        <time>2020-10-12T15:12:15Z</time>
      </trkpt>
      <trkpt lat="37.820639000" lon="-4.859624000">
        <ele>104.9</ele>
        <time>2020-10-12T15:12:17Z</time>
      </trkpt>
      <trkpt lat="37.820585000" lon="-4.859502000">
        <ele>104.7</ele>
        <time>2020-10-12T15:12:19Z</time>
      </trkpt>
      <trkpt lat="37.820529000" lon="-4.859378000">
        <ele>104.5</ele>
        <time>2020-10-12T15:12:21Z</time>
      </trkpt>
      <trkpt lat="37.820472000" lon="-4.859256000">
        <ele>104.5</ele>
        <time>2020-10-12T15:12:23Z</time>
      </trkpt>
      <trkpt lat="37.820417000" lon="-4.859130000">
        <ele>104.3</ele>
        <time>2020-10-12T15:12:25Z</time>
      </trkpt>
      <trkpt lat="37.820366000" lon="-4.858999000">
        <ele>104.2</ele>
        <time>2020-10-12T15:12:27Z</time>
      </trkpt>
      <trkpt lat="37.820317000" lon="-4.858871000">
        <ele>104.0</ele>
        <time>2020-10-12T15:12:29Z</time>
      </trkpt>
      <trkpt lat="37.820276000" lon="-4.858745000">
        <ele>103.8</ele>
        <time>2020-10-12T15:12:31Z</time>
      </trkpt>
      <trkpt lat="37.820236000" lon="-4.858616000">
        <ele>103.6</ele>
        <time>2020-10-12T15:12:33Z</time>
      </trkpt>
      <trkpt lat="37.820201000" lon="-4.858480000">
        <ele>103.5</ele>
        <time>2020-10-12T15:12:35Z</time>
      </trkpt>
      <trkpt lat="37.820165000" lon="-4.858338000">
        <ele>103.4</ele>
        <time>2020-10-12T15:12:37Z</time>
      </trkpt>
      <trkpt lat="37.820136000" lon="-4.858199000">
        <ele>103.3</ele>
        <time>2020-10-12T15:12:39Z</time>
      </trkpt>
      <trkpt lat="37.820104000" lon="-4.858048000">
        <ele>103.2</ele>
        <time>2020-10-12T15:12:41Z</time>
      </trkpt>
      <trkpt lat="37.820083000" lon="-4.857899000">
        <ele>103.1</ele>
        <time>2020-10-12T15:12:43Z</time>
      </trkpt>
      <trkpt lat="37.820071000" lon="-4.857757000">
        <ele>102.9</ele>
        <time>2020-10-12T15:12:45Z</time>
      </trkpt>
      <trkpt lat="37.820058000" lon="-4.857618000">
        <ele>102.8</ele>
        <time>2020-10-12T15:12:47Z</time>
      </trkpt>
      <trkpt lat="37.820050000" lon="-4.857482000">
        <ele>102.7</ele>
        <time>2020-10-12T15:12:49Z</time>
      </trkpt>
      <trkpt lat="37.820046000" lon="-4.857339000">
        <ele>102.7</ele>
        <time>2020-10-12T15:12:51Z</time>
      </trkpt>
      <trkpt lat="37.820050000" lon="-4.857204000">
        <ele>102.7</ele>
        <time>2020-10-12T15:12:53Z</time>
      </trkpt>
      <trkpt lat="37.820050000" lon="-4.857065000">
        <ele>102.7</ele>
        <time>2020-10-12T15:12:55Z</time>
      </trkpt>
      <trkpt lat="37.820050000" lon="-4.856931000">
        <ele>102.6</ele>
        <time>2020-10-12T15:12:57Z</time>
      </trkpt>
      <trkpt lat="37.820059000" lon="-4.856791000">
        <ele>102.5</ele>
        <time>2020-10-12T15:12:59Z</time>
      </trkpt>
      <trkpt lat="37.820076000" lon="-4.856654000">
        <ele>102.5</ele>
        <time>2020-10-12T15:13:01Z</time>
      </trkpt>
      <trkpt lat="37.820092000" lon="-4.856514000">
        <ele>102.3</ele>
        <time>2020-10-12T15:13:03Z</time>
      </trkpt>
      <trkpt lat="37.820115000" lon="-4.856381000">
        <ele>102.1</ele>
        <time>2020-10-12T15:13:05Z</time>
      </trkpt>
      <trkpt lat="37.820147000" lon="-4.856251000">
        <ele>102.0</ele>
        <time>2020-10-12T15:13:07Z</time>
      </trkpt>
      <trkpt lat="37.820175000" lon="-4.856131000">
        <ele>101.9</ele>
        <time>2020-10-12T15:13:09Z</time>
      </trkpt>
      <trkpt lat="37.820201000" lon="-4.856003000">
        <ele>101.8</ele>
        <time>2020-10-12T15:13:11Z</time>
      </trkpt>
      <trkpt lat="37.820229000" lon="-4.855885000">
        <ele>101.6</ele>
        <time>2020-10-12T15:13:13Z</time>
      </trkpt>
      <trkpt lat="37.820266000" lon="-4.855770000">
        <ele>101.5</ele>
        <time>2020-10-12T15:13:15Z</time>
      </trkpt>
      <trkpt lat="37.820303000" lon="-4.855658000">
        <ele>101.3</ele>
        <time>2020-10-12T15:13:17Z</time>
      </trkpt>
      <trkpt lat="37.820341000" lon="-4.855555000">
        <ele>101.2</ele>
        <time>2020-10-12T15:13:19Z</time>
      </trkpt>
      <trkpt lat="37.820384000" lon="-4.855451000">
        <ele>101.1</ele>
        <time>2020-10-12T15:13:21Z</time>
      </trkpt>
      <trkpt lat="37.820436000" lon="-4.855349000">
        <ele>101.0</ele>
        <time>2020-10-12T15:13:23Z</time>
      </trkpt>
      <trkpt lat="37.820487000" lon="-4.855244000">
        <ele>100.9</ele>
        <time>2020-10-12T15:13:25Z</time>
      </trkpt>
      <trkpt lat="37.820536000" lon="-4.855138000">
        <ele>100.8</ele>
        <time>2020-10-12T15:13:27Z</time>
      </trkpt>
      <trkpt lat="37.820593000" lon="-4.855029000">
        <ele>100.7</ele>
        <time>2020-10-12T15:13:29Z</time>
      </trkpt>
      <trkpt lat="37.820640000" lon="-4.854913000">
        <ele>100.6</ele>
        <time>2020-10-12T15:13:31Z</time>
      </trkpt>
      <trkpt lat="37.820690000" lon="-4.854801000">
        <ele>100.5</ele>
        <time>2020-10-12T15:13:33Z</time>
      </trkpt>
      <trkpt lat="37.820745000" lon="-4.854685000">
        <ele>100.5</ele>
        <time>2020-10-12T15:13:35Z</time>
      </trkpt>
      <trkpt lat="37.820797000" lon="-4.854571000">
        <ele>100.3</ele>
        <time>2020-10-12T15:13:37Z</time>
      </trkpt>
      <trkpt lat="37.820853000" lon="-4.854455000">
        <ele>100.1</ele>
        <time>2020-10-12T15:13:39Z</time>
      </trkpt>
      <trkpt lat="37.820912000" lon="-4.854333000">
        <ele>99.9</ele>
        <time>2020-10-12T15:13:41Z</time>
      </trkpt>
      <trkpt lat="37.820965000" lon="-4.854208000">
        <ele>99.8</ele>
        <time>2020-10-12T15:13:43Z</time>
      </trkpt>
      <trkpt lat="37.821022000" lon="-4.854081000">
        <ele>99.6</ele>
        <time>2020-10-12T15:13:45Z</time>
      </trkpt>
      <trkpt lat="37.821084000" lon="-4.853952000">
        <ele>99.5</ele>
        <time>2020-10-12T15:13:47Z</time>
      </trkpt>
      <trkpt lat="37.821151000" lon="-4.853829000">
        <ele>99.5</ele>
        <time>2020-10-12T15:13:49Z</time>
      </trkpt>
      <trkpt lat="37.821214000" lon="-4.853704000">
        <ele>99.4</ele>
        <time>2020-10-12T15:13:51Z</time>
      </trkpt>
      <trkpt lat="37.821277000" lon="-4.853583000">
        <ele>99.3</ele>
        <time>2020-10-12T15:13:53Z</time>
      </trkpt>
      <trkpt lat="37.821338000" lon="-4.853462000">
        <ele>99.2</ele>
        <time>2020-10-12T15:13:55Z</time>
      </trkpt>
      <trkpt lat="37.821395000" lon="-4.853343000">
        <ele>99.1</ele>
        <time>2020-10-12T15:13:57Z</time>
      </trkpt>
      <trkpt lat="37.821448000" lon="-4.853224000">
        <ele>99.0</ele>
        <time>2020-10-12T15:13:59Z</time>
      </trkpt>
      <trkpt lat="37.821502000" lon="-4.853100000">
        <ele>98.8</ele>
        <time>2020-10-12T15:14:01Z</time>
      </trkpt>
      <trkpt lat="37.821556000" lon="-4.852979000">
        <ele>98.5</ele>
        <time>2020-10-12T15:14:03Z</time>
      </trkpt>
      <trkpt lat="37.821609000" lon="-4.852859000">
        <ele>98.1</ele>
        <time>2020-10-12T15:14:05Z</time>
      </trkpt>
      <trkpt lat="37.821664000" lon="-4.852737000">
        <ele>97.7</ele>
        <time>2020-10-12T15:14:07Z</time>
      </trkpt>
      <trkpt lat="37.821720000" lon="-4.852621000">
        <ele>97.4</ele>
        <time>2020-10-12T15:14:09Z</time>
      </trkpt>
      <trkpt lat="37.821781000" lon="-4.852502000">
        <ele>97.0</ele>
        <time>2020-10-12T15:14:11Z</time>
      </trkpt>
      <trkpt lat="37.821838000" lon="-4.852383000">
        <ele>96.6</ele>
        <time>2020-10-12T15:14:13Z</time>
      </trkpt>
      <trkpt lat="37.821895000" lon="-4.852262000">
        <ele>96.3</ele>
        <time>2020-10-12T15:14:15Z</time>
      </trkpt>
      <trkpt lat="37.821956000" lon="-4.852139000">
        <ele>95.9</ele>
        <time>2020-10-12T15:14:17Z</time>
      </trkpt>
      <trkpt lat="37.822007000" lon="-4.852017000">
        <ele>95.5</ele>
        <time>2020-10-12T15:14:19Z</time>
      </trkpt>
      <trkpt lat="37.822060000" lon="-4.851896000">
        <ele>95.3</ele>
        <time>2020-10-12T15:14:21Z</time>
      </trkpt>
      <trkpt lat="37.822121000" lon="-4.851772000">
        <ele>95.0</ele>
        <time>2020-10-12T15:14:23Z</time>
      </trkpt>
      <trkpt lat="37.822174000" lon="-4.851650000">
        <ele>94.8</ele>
        <time>2020-10-12T15:14:25Z</time>
      </trkpt>
      <trkpt lat="37.822228000" lon="-4.851532000">
        <ele>94.6</ele>
        <time>2020-10-12T15:14:27Z</time>
      </trkpt>
      <trkpt lat="37.822282000" lon="-4.851415000">
        <ele>94.5</ele>
        <time>2020-10-12T15:14:29Z</time>
      </trkpt>
      <trkpt lat="37.822332000" lon="-4.851299000">
        <ele>94.4</ele>
        <time>2020-10-12T15:14:31Z</time>
      </trkpt>
      <trkpt lat="37.822387000" lon="-4.851186000">
        <ele>94.3</ele>
        <time>2020-10-12T15:14:33Z</time>
      </trkpt>
      <trkpt lat="37.822444000" lon="-4.851068000">
        <ele>94.2</ele>
        <time>2020-10-12T15:14:35Z</time>
      </trkpt>
      <trkpt lat="37.822495000" lon="-4.850957000">
        <ele>94.1</ele>
        <time>2020-10-12T15:14:37Z</time>
      </trkpt>
      <trkpt lat="37.822542000" lon="-4.850850000">
        <ele>94.0</ele>
        <time>2020-10-12T15:14:39Z</time>
      </trkpt>
      <trkpt lat="37.822589000" lon="-4.850746000">
        <ele>93.9</ele>
        <time>2020-10-12T15:14:41Z</time>
      </trkpt>
      <trkpt lat="37.822630000" lon="-4.850653000">
        <ele>93.8</ele>
        <time>2020-10-12T15:14:43Z</time>
      </trkpt>
      <trkpt lat="37.822684000" lon="-4.850549000">
        <ele>93.8</ele>
        <time>2020-10-12T15:14:45Z</time>
      </trkpt>
      <trkpt lat="37.822735000" lon="-4.850445000">
        <ele>93.8</ele>
        <time>2020-10-12T15:14:47Z</time>
      </trkpt>
      <trkpt lat="37.822784000" lon="-4.850351000">
        <ele>93.9</ele>
        <time>2020-10-12T15:14:49Z</time>
      </trkpt>
      <trkpt lat="37.822831000" lon="-4.850266000">
        <ele>94.0</ele>
        <time>2020-10-12T15:14:51Z</time>
      </trkpt>
      <trkpt lat="37.822869000" lon="-4.850170000">
        <ele>94.0</ele>
        <time>2020-10-12T15:14:53Z</time>
      </trkpt>
      <trkpt lat="37.822918000" lon="-4.850070000">
        <ele>94.0</ele>
        <time>2020-10-12T15:14:55Z</time>
      </trkpt>
      <trkpt lat="37.822965000" lon="-4.849968000">
        <ele>94.0</ele>
        <time>2020-10-12T15:14:57Z</time>
      </trkpt>
      <trkpt lat="37.823007000" lon="-4.849869000">
        <ele>93.9</ele>
        <time>2020-10-12T15:14:59Z</time>
      </trkpt>
      <trkpt lat="37.823061000" lon="-4.849739000">
        <ele>93.8</ele>
        <time>2020-10-12T15:15:02Z</time>
      </trkpt>
      <trkpt lat="37.823104000" lon="-4.849644000">
        <ele>93.7</ele>
        <time>2020-10-12T15:15:04Z</time>
      </trkpt>
      <trkpt lat="37.823160000" lon="-4.849552000">
        <ele>93.5</ele>
        <time>2020-10-12T15:15:06Z</time>
      </trkpt>
      <trkpt lat="37.823217000" lon="-4.849449000">
        <ele>93.3</ele>
        <time>2020-10-12T15:15:08Z</time>
      </trkpt>
      <trkpt lat="37.823272000" lon="-4.849317000">
        <ele>92.9</ele>
        <time>2020-10-12T15:15:11Z</time>
      </trkpt>
      <trkpt lat="37.823335000" lon="-4.849199000">
        <ele>92.5</ele>
        <time>2020-10-12T15:15:14Z</time>
      </trkpt>
      <trkpt lat="37.823378000" lon="-4.849109000">
        <ele>91.8</ele>
        <time>2020-10-12T15:15:16Z</time>
      </trkpt>
      <trkpt lat="37.823427000" lon="-4.849012000">
        <ele>91.1</ele>
        <time>2020-10-12T15:15:18Z</time>
      </trkpt>
      <trkpt lat="37.823490000" lon="-4.848890000">
        <ele>90.3</ele>
        <time>2020-10-12T15:15:21Z</time>
      </trkpt>
      <trkpt lat="37.823536000" lon="-4.848777000">
        <ele>89.5</ele>
        <time>2020-10-12T15:15:24Z</time>
      </trkpt>
      <trkpt lat="37.823590000" lon="-4.848652000">
        <ele>88.7</ele>
        <time>2020-10-12T15:15:27Z</time>
      </trkpt>
      <trkpt lat="37.823645000" lon="-4.848537000">
        <ele>88.0</ele>
        <time>2020-10-12T15:15:30Z</time>
      </trkpt>
      <trkpt lat="37.823710000" lon="-4.848415000">
        <ele>87.4</ele>
        <time>2020-10-12T15:15:33Z</time>
      </trkpt>
      <trkpt lat="37.823752000" lon="-4.848326000">
        <ele>86.9</ele>
        <time>2020-10-12T15:15:35Z</time>
      </trkpt>
      <trkpt lat="37.823793000" lon="-4.848234000">
        <ele>86.6</ele>
        <time>2020-10-12T15:15:37Z</time>
      </trkpt>
      <trkpt lat="37.823839000" lon="-4.848140000">
        <ele>86.5</ele>
        <time>2020-10-12T15:15:39Z</time>
      </trkpt>
      <trkpt lat="37.823883000" lon="-4.848044000">
        <ele>86.5</ele>
        <time>2020-10-12T15:15:41Z</time>
      </trkpt>
      <trkpt lat="37.823944000" lon="-4.847915000">
        <ele>86.7</ele>
        <time>2020-10-12T15:15:44Z</time>
      </trkpt>
      <trkpt lat="37.824004000" lon="-4.847794000">
        <ele>87.1</ele>
        <time>2020-10-12T15:15:47Z</time>
      </trkpt>
      <trkpt lat="37.824056000" lon="-4.847671000">
        <ele>87.5</ele>
        <time>2020-10-12T15:15:50Z</time>
      </trkpt>
      <trkpt lat="37.824110000" lon="-4.847554000">
        <ele>88.1</ele>
        <time>2020-10-12T15:15:53Z</time>
      </trkpt>
      <trkpt lat="37.824162000" lon="-4.847436000">
        <ele>88.6</ele>
        <time>2020-10-12T15:15:56Z</time>
      </trkpt>
      <trkpt lat="37.824216000" lon="-4.847314000">
        <ele>89.2</ele>
        <time>2020-10-12T15:15:59Z</time>
      </trkpt>
      <trkpt lat="37.824263000" lon="-4.847183000">
        <ele>89.6</ele>
        <time>2020-10-12T15:16:02Z</time>
      </trkpt>
      <trkpt lat="37.824323000" lon="-4.847059000">
        <ele>90.1</ele>
        <time>2020-10-12T15:16:05Z</time>
      </trkpt>
      <trkpt lat="37.824384000" lon="-4.846932000">
        <ele>90.5</ele>
        <time>2020-10-12T15:16:08Z</time>
      </trkpt>
      <trkpt lat="37.824444000" lon="-4.846809000">
        <ele>90.9</ele>
        <time>2020-10-12T15:16:11Z</time>
      </trkpt>
      <trkpt lat="37.824504000" lon="-4.846690000">
        <ele>91.3</ele>
        <time>2020-10-12T15:16:14Z</time>
      </trkpt>
      <trkpt lat="37.824563000" lon="-4.846565000">
        <ele>91.5</ele>
        <time>2020-10-12T15:16:17Z</time>
      </trkpt>
      <trkpt lat="37.824626000" lon="-4.846436000">
        <ele>91.8</ele>
        <time>2020-10-12T15:16:20Z</time>
      </trkpt>
      <trkpt lat="37.824689000" lon="-4.846309000">
        <ele>92.1</ele>
        <time>2020-10-12T15:16:23Z</time>
      </trkpt>
      <trkpt lat="37.824732000" lon="-4.846221000">
        <ele>92.3</ele>
        <time>2020-10-12T15:16:25Z</time>
      </trkpt>
      <trkpt lat="37.824795000" lon="-4.846095000">
        <ele>92.5</ele>
        <time>2020-10-12T15:16:28Z</time>
      </trkpt>
      <trkpt lat="37.824858000" lon="-4.845965000">
        <ele>92.5</ele>
        <time>2020-10-12T15:16:31Z</time>
      </trkpt>
      <trkpt lat="37.824928000" lon="-4.845843000">
        <ele>92.6</ele>
        <time>2020-10-12T15:16:34Z</time>
      </trkpt>
      <trkpt lat="37.824979000" lon="-4.845708000">
        <ele>92.7</ele>
        <time>2020-10-12T15:16:37Z</time>
      </trkpt>
      <trkpt lat="37.825042000" lon="-4.845579000">
        <ele>92.8</ele>
        <time>2020-10-12T15:16:40Z</time>
      </trkpt>
      <trkpt lat="37.825097000" lon="-4.845459000">
        <ele>92.8</ele>
        <time>2020-10-12T15:16:43Z</time>
      </trkpt>
      <trkpt lat="37.825148000" lon="-4.845338000">
        <ele>92.8</ele>
        <time>2020-10-12T15:16:46Z</time>
      </trkpt>
      <trkpt lat="37.825206000" lon="-4.845217000">
        <ele>92.9</ele>
        <time>2020-10-12T15:16:49Z</time>
      </trkpt>
      <trkpt lat="37.825254000" lon="-4.845088000">
        <ele>93.0</ele>
        <time>2020-10-12T15:16:52Z</time>
      </trkpt>
      <trkpt lat="37.825314000" lon="-4.844961000">
        <ele>93.1</ele>
        <time>2020-10-12T15:16:55Z</time>
      </trkpt>
      <trkpt lat="37.825377000" lon="-4.844831000">
        <ele>93.2</ele>
        <time>2020-10-12T15:16:58Z</time>
      </trkpt>
      <trkpt lat="37.825424000" lon="-4.844742000">
        <ele>93.3</ele>
        <time>2020-10-12T15:17:00Z</time>
      </trkpt>
      <trkpt lat="37.825469000" lon="-4.844651000">
        <ele>93.4</ele>
        <time>2020-10-12T15:17:02Z</time>
      </trkpt>
      <trkpt lat="37.825517000" lon="-4.844566000">
        <ele>93.5</ele>
        <time>2020-10-12T15:17:04Z</time>
      </trkpt>
      <trkpt lat="37.825565000" lon="-4.844481000">
        <ele>93.5</ele>
        <time>2020-10-12T15:17:06Z</time>
      </trkpt>
      <trkpt lat="37.825613000" lon="-4.844397000">
        <ele>93.5</ele>
        <time>2020-10-12T15:17:08Z</time>
      </trkpt>
      <trkpt lat="37.825660000" lon="-4.844311000">
        <ele>93.4</ele>
        <time>2020-10-12T15:17:10Z</time>
      </trkpt>
      <trkpt lat="37.825731000" lon="-4.844199000">
        <ele>93.2</ele>
        <time>2020-10-12T15:17:13Z</time>
      </trkpt>
      <trkpt lat="37.825802000" lon="-4.844088000">
        <ele>92.9</ele>
        <time>2020-10-12T15:17:16Z</time>
      </trkpt>
      <trkpt lat="37.825878000" lon="-4.843986000">
        <ele>92.5</ele>
        <time>2020-10-12T15:17:19Z</time>
      </trkpt>
      <trkpt lat="37.825956000" lon="-4.843880000">
        <ele>92.2</ele>
        <time>2020-10-12T15:17:22Z</time>
      </trkpt>
      <trkpt lat="37.826035000" lon="-4.843785000">
        <ele>91.7</ele>
        <time>2020-10-12T15:17:25Z</time>
      </trkpt>
      <trkpt lat="37.826113000" lon="-4.843694000">
        <ele>91.4</ele>
        <time>2020-10-12T15:17:28Z</time>
      </trkpt>
      <trkpt lat="37.826197000" lon="-4.843614000">
        <ele>91.1</ele>
        <time>2020-10-12T15:17:31Z</time>
      </trkpt>
      <trkpt lat="37.826270000" lon="-4.843551000">
        <ele>90.9</ele>
        <time>2020-10-12T15:17:34Z</time>
      </trkpt>
      <trkpt lat="37.826343000" lon="-4.843475000">
        <ele>90.7</ele>
        <time>2020-10-12T15:17:37Z</time>
      </trkpt>
      <trkpt lat="37.826440000" lon="-4.843382000">
        <ele>90.5</ele>
        <time>2020-10-12T15:17:40Z</time>
      </trkpt>
      <trkpt lat="37.826515000" lon="-4.843316000">
        <ele>90.5</ele>
        <time>2020-10-12T15:17:42Z</time>
      </trkpt>
      <trkpt lat="37.826604000" lon="-4.843238000">
        <ele>90.4</ele>
        <time>2020-10-12T15:17:45Z</time>
      </trkpt>
      <trkpt lat="37.826682000" lon="-4.843175000">
        <ele>90.3</ele>
        <time>2020-10-12T15:17:48Z</time>
      </trkpt>
      <trkpt lat="37.826781000" lon="-4.843104000">
        <ele>90.3</ele>
        <time>2020-10-12T15:17:51Z</time>
      </trkpt>
      <trkpt lat="37.826857000" lon="-4.843055000">
        <ele>90.3</ele>
        <time>2020-10-12T15:17:53Z</time>
      </trkpt>
      <trkpt lat="37.826937000" lon="-4.843006000">
        <ele>90.5</ele>
        <time>2020-10-12T15:17:55Z</time>
      </trkpt>
      <trkpt lat="37.827036000" lon="-4.842950000">
        <ele>90.5</ele>
        <time>2020-10-12T15:17:58Z</time>
      </trkpt>
      <trkpt lat="37.827138000" lon="-4.842899000">
        <ele>90.7</ele>
        <time>2020-10-12T15:18:02Z</time>
      </trkpt>
      <trkpt lat="37.827235000" lon="-4.842847000">
        <ele>90.8</ele>
        <time>2020-10-12T15:18:05Z</time>
      </trkpt>
      <trkpt lat="37.827350000" lon="-4.842798000">
        <ele>91.0</ele>
        <time>2020-10-12T15:18:08Z</time>
      </trkpt>
      <trkpt lat="37.827461000" lon="-4.842752000">
        <ele>91.2</ele>
        <time>2020-10-12T15:18:11Z</time>
      </trkpt>
      <trkpt lat="37.827568000" lon="-4.842711000">
        <ele>91.4</ele>
        <time>2020-10-12T15:18:14Z</time>
      </trkpt>
      <trkpt lat="37.827664000" lon="-4.842678000">
        <ele>91.6</ele>
        <time>2020-10-12T15:18:17Z</time>
      </trkpt>
      <trkpt lat="37.827763000" lon="-4.842653000">
        <ele>92.0</ele>
        <time>2020-10-12T15:18:20Z</time>
      </trkpt>
      <trkpt lat="37.827859000" lon="-4.842632000">
        <ele>92.4</ele>
        <time>2020-10-12T15:18:23Z</time>
      </trkpt>
      <trkpt lat="37.827949000" lon="-4.842596000">
        <ele>92.7</ele>
        <time>2020-10-12T15:18:26Z</time>
      </trkpt>
      <trkpt lat="37.828035000" lon="-4.842555000">
        <ele>93.0</ele>
        <time>2020-10-12T15:18:29Z</time>
      </trkpt>
      <trkpt lat="37.828121000" lon="-4.842519000">
        <ele>93.3</ele>
        <time>2020-10-12T15:18:32Z</time>
      </trkpt>
      <trkpt lat="37.828206000" lon="-4.842488000">
        <ele>93.5</ele>
        <time>2020-10-12T15:18:35Z</time>
      </trkpt>
      <trkpt lat="37.828294000" lon="-4.842455000">
        <ele>93.6</ele>
        <time>2020-10-12T15:18:38Z</time>
      </trkpt>
      <trkpt lat="37.828382000" lon="-4.842426000">
        <ele>93.8</ele>
        <time>2020-10-12T15:18:41Z</time>
      </trkpt>
      <trkpt lat="37.828476000" lon="-4.842394000">
        <ele>94.0</ele>
        <time>2020-10-12T15:18:44Z</time>
      </trkpt>
      <trkpt lat="37.828573000" lon="-4.842363000">
        <ele>94.2</ele>
        <time>2020-10-12T15:18:47Z</time>
      </trkpt>
      <trkpt lat="37.828670000" lon="-4.842328000">
        <ele>94.5</ele>
        <time>2020-10-12T15:18:50Z</time>
      </trkpt>
      <trkpt lat="37.828767000" lon="-4.842292000">
        <ele>94.6</ele>
        <time>2020-10-12T15:18:53Z</time>
      </trkpt>
      <trkpt lat="37.828863000" lon="-4.842256000">
        <ele>94.9</ele>
        <time>2020-10-12T15:18:56Z</time>
      </trkpt>
      <trkpt lat="37.828953000" lon="-4.842228000">
        <ele>95.2</ele>
        <time>2020-10-12T15:18:59Z</time>
      </trkpt>
      <trkpt lat="37.829040000" lon="-4.842198000">
        <ele>95.5</ele>
        <time>2020-10-12T15:19:02Z</time>
      </trkpt>
      <trkpt lat="37.829128000" lon="-4.842162000">
        <ele>95.7</ele>
        <time>2020-10-12T15:19:05Z</time>
      </trkpt>
      <trkpt lat="37.829223000" lon="-4.842126000">
        <ele>96.0</ele>
        <time>2020-10-12T15:19:08Z</time>
      </trkpt>
      <trkpt lat="37.829317000" lon="-4.842088000">
        <ele>96.2</ele>
        <time>2020-10-12T15:19:11Z</time>
      </trkpt>
      <trkpt lat="37.829405000" lon="-4.842041000">
        <ele>96.4</ele>
        <time>2020-10-12T15:19:14Z</time>
      </trkpt>
      <trkpt lat="37.829498000" lon="-4.841994000">
        <ele>96.5</ele>
        <time>2020-10-12T15:19:17Z</time>
      </trkpt>
      <trkpt lat="37.829591000" lon="-4.841936000">
        <ele>96.7</ele>
        <time>2020-10-12T15:19:20Z</time>
      </trkpt>
      <trkpt lat="37.829678000" lon="-4.841876000">
        <ele>96.8</ele>
        <time>2020-10-12T15:19:23Z</time>
      </trkpt>
      <trkpt lat="37.829766000" lon="-4.841824000">
        <ele>97.0</ele>
        <time>2020-10-12T15:19:26Z</time>
      </trkpt>
      <trkpt lat="37.829851000" lon="-4.841767000">
        <ele>97.1</ele>
        <time>2020-10-12T15:19:29Z</time>
      </trkpt>
      <trkpt lat="37.829933000" lon="-4.841706000">
        <ele>97.2</ele>
        <time>2020-10-12T15:19:32Z</time>
      </trkpt>
      <trkpt lat="37.830014000" lon="-4.841638000">
        <ele>97.4</ele>
        <time>2020-10-12T15:19:35Z</time>
      </trkpt>
      <trkpt lat="37.830095000" lon="-4.841575000">
        <ele>97.6</ele>
        <time>2020-10-12T15:19:38Z</time>
      </trkpt>
      <trkpt lat="37.830176000" lon="-4.841503000">
        <ele>97.9</ele>
        <time>2020-10-12T15:19:41Z</time>
      </trkpt>
      <trkpt lat="37.830259000" lon="-4.841423000">
        <ele>98.3</ele>
        <time>2020-10-12T15:19:44Z</time>
      </trkpt>
      <trkpt lat="37.830343000" lon="-4.841339000">
        <ele>98.5</ele>
        <time>2020-10-12T15:19:47Z</time>
      </trkpt>
      <trkpt lat="37.830429000" lon="-4.841252000">
        <ele>98.7</ele>
        <time>2020-10-12T15:19:50Z</time>
      </trkpt>
      <trkpt lat="37.830514000" lon="-4.841159000">
        <ele>98.9</ele>
        <time>2020-10-12T15:19:53Z</time>
      </trkpt>
      <trkpt lat="37.830603000" lon="-4.841058000">
        <ele>99.1</ele>
        <time>2020-10-12T15:19:56Z</time>
      </trkpt>
      <trkpt lat="37.830662000" lon="-4.840986000">
        <ele>99.2</ele>
        <time>2020-10-12T15:19:58Z</time>
      </trkpt>
      <trkpt lat="37.830722000" lon="-4.840907000">
        <ele>99.3</ele>
        <time>2020-10-12T15:20:00Z</time>
      </trkpt>
      <trkpt lat="37.830781000" lon="-4.840825000">
        <ele>99.4</ele>
        <time>2020-10-12T15:20:02Z</time>
      </trkpt>
      <trkpt lat="37.830839000" lon="-4.840740000">
        <ele>99.4</ele>
        <time>2020-10-12T15:20:04Z</time>
      </trkpt>
      <trkpt lat="37.830892000" lon="-4.840655000">
        <ele>99.3</ele>
        <time>2020-10-12T15:20:06Z</time>
      </trkpt>
      <trkpt lat="37.830946000" lon="-4.840574000">
        <ele>99.2</ele>
        <time>2020-10-12T15:20:08Z</time>
      </trkpt>
      <trkpt lat="37.831000000" lon="-4.840494000">
        <ele>99.1</ele>
        <time>2020-10-12T15:20:10Z</time>
      </trkpt>
      <trkpt lat="37.831050000" lon="-4.840410000">
        <ele>99.0</ele>
        <time>2020-10-12T15:20:12Z</time>
      </trkpt>
      <trkpt lat="37.831103000" lon="-4.840327000">
        <ele>99.0</ele>
        <time>2020-10-12T15:20:14Z</time>
      </trkpt>
      <trkpt lat="37.831158000" lon="-4.840247000">
        <ele>99.0</ele>
        <time>2020-10-12T15:20:16Z</time>
      </trkpt>
      <trkpt lat="37.831208000" lon="-4.840162000">
        <ele>98.9</ele>
        <time>2020-10-12T15:20:18Z</time>
      </trkpt>
      <trkpt lat="37.831264000" lon="-4.840082000">
        <ele>98.8</ele>
        <time>2020-10-12T15:20:20Z</time>
      </trkpt>
      <trkpt lat="37.831319000" lon="-4.840004000">
        <ele>98.7</ele>
        <time>2020-10-12T15:20:22Z</time>
      </trkpt>
      <trkpt lat="37.831373000" lon="-4.839922000">
        <ele>98.6</ele>
        <time>2020-10-12T15:20:24Z</time>
      </trkpt>
      <trkpt lat="37.831429000" lon="-4.839839000">
        <ele>98.5</ele>
        <time>2020-10-12T15:20:26Z</time>
      </trkpt>
      <trkpt lat="37.831484000" lon="-4.839758000">
        <ele>98.5</ele>
        <time>2020-10-12T15:20:28Z</time>
      </trkpt>
      <trkpt lat="37.831539000" lon="-4.839677000">
        <ele>98.5</ele>
        <time>2020-10-12T15:20:30Z</time>
      </trkpt>
      <trkpt lat="37.831589000" lon="-4.839595000">
        <ele>98.6</ele>
        <time>2020-10-12T15:20:32Z</time>
      </trkpt>
      <trkpt lat="37.831643000" lon="-4.839511000">
        <ele>98.7</ele>
        <time>2020-10-12T15:20:34Z</time>
      </trkpt>
      <trkpt lat="37.831696000" lon="-4.839425000">
        <ele>98.9</ele>
        <time>2020-10-12T15:20:36Z</time>
      </trkpt>
      <trkpt lat="37.831753000" lon="-4.839344000">
        <ele>99.2</ele>
        <time>2020-10-12T15:20:38Z</time>
      </trkpt>
      <trkpt lat="37.831808000" lon="-4.839260000">
        <ele>99.5</ele>
        <time>2020-10-12T15:20:40Z</time>
      </trkpt>
      <trkpt lat="37.831862000" lon="-4.839176000">
        <ele>99.6</ele>
        <time>2020-10-12T15:20:42Z</time>
      </trkpt>
      <trkpt lat="37.831917000" lon="-4.839094000">
        <ele>99.8</ele>
        <time>2020-10-12T15:20:44Z</time>
      </trkpt>
      <trkpt lat="37.831990000" lon="-4.838985000">
        <ele>99.9</ele>
        <time>2020-10-12T15:20:47Z</time>
      </trkpt>
      <trkpt lat="37.832059000" lon="-4.838891000">
        <ele>100.0</ele>
        <time>2020-10-12T15:20:50Z</time>
      </trkpt>
      <trkpt lat="37.832113000" lon="-4.838806000">
        <ele>100.0</ele>
        <time>2020-10-12T15:20:53Z</time>
      </trkpt>
      <trkpt lat="37.832182000" lon="-4.838704000">
        <ele>100.0</ele>
        <time>2020-10-12T15:20:57Z</time>
      </trkpt>
      <trkpt lat="37.832258000" lon="-4.838609000">
        <ele>99.9</ele>
        <time>2020-10-12T15:21:01Z</time>
      </trkpt>
      <trkpt lat="37.832336000" lon="-4.838561000">
        <ele>99.9</ele>
        <time>2020-10-12T15:21:04Z</time>
      </trkpt>
      <trkpt lat="37.832426000" lon="-4.838531000">
        <ele>99.9</ele>
        <time>2020-10-12T15:21:07Z</time>
      </trkpt>
      <trkpt lat="37.832511000" lon="-4.838509000">
        <ele>99.8</ele>
        <time>2020-10-12T15:21:10Z</time>
      </trkpt>
      <trkpt lat="37.832565000" lon="-4.838410000">
        <ele>99.8</ele>
        <time>2020-10-12T15:21:13Z</time>
      </trkpt>
      <trkpt lat="37.832626000" lon="-4.838295000">
        <ele>99.9</ele>
        <time>2020-10-12T15:21:16Z</time>
      </trkpt>
      <trkpt lat="37.832689000" lon="-4.838169000">
        <ele>100.0</ele>
        <time>2020-10-12T15:21:19Z</time>
      </trkpt>
      <trkpt lat="37.832737000" lon="-4.838084000">
        <ele>100.2</ele>
        <time>2020-10-12T15:21:21Z</time>
      </trkpt>
      <trkpt lat="37.832789000" lon="-4.837996000">
        <ele>100.3</ele>
        <time>2020-10-12T15:21:23Z</time>
      </trkpt>
      <trkpt lat="37.832841000" lon="-4.837907000">
        <ele>100.4</ele>
        <time>2020-10-12T15:21:25Z</time>
      </trkpt>
      <trkpt lat="37.832891000" lon="-4.837817000">
        <ele>100.5</ele>
        <time>2020-10-12T15:21:27Z</time>
      </trkpt>
      <trkpt lat="37.832943000" lon="-4.837728000">
        <ele>100.5</ele>
        <time>2020-10-12T15:21:29Z</time>
      </trkpt>
      <trkpt lat="37.832996000" lon="-4.837639000">
        <ele>100.4</ele>
        <time>2020-10-12T15:21:31Z</time>
      </trkpt>
      <trkpt lat="37.833050000" lon="-4.837554000">
        <ele>100.1</ele>
        <time>2020-10-12T15:21:33Z</time>
      </trkpt>
      <trkpt lat="37.833103000" lon="-4.837470000">
        <ele>99.8</ele>
        <time>2020-10-12T15:21:35Z</time>
      </trkpt>
      <trkpt lat="37.833155000" lon="-4.837386000">
        <ele>99.5</ele>
        <time>2020-10-12T15:21:37Z</time>
      </trkpt>
      <trkpt lat="37.833207000" lon="-4.837301000">
        <ele>99.1</ele>
        <time>2020-10-12T15:21:39Z</time>
      </trkpt>
      <trkpt lat="37.833261000" lon="-4.837219000">
        <ele>98.7</ele>
        <time>2020-10-12T15:21:41Z</time>
      </trkpt>
      <trkpt lat="37.833314000" lon="-4.837135000">
        <ele>98.4</ele>
        <time>2020-10-12T15:21:43Z</time>
      </trkpt>
      <trkpt lat="37.833365000" lon="-4.837053000">
        <ele>98.1</ele>
        <time>2020-10-12T15:21:45Z</time>
      </trkpt>
      <trkpt lat="37.833419000" lon="-4.836971000">
        <ele>97.9</ele>
        <time>2020-10-12T15:21:47Z</time>
      </trkpt>
      <trkpt lat="37.833472000" lon="-4.836890000">
        <ele>97.7</ele>
        <time>2020-10-12T15:21:49Z</time>
      </trkpt>
      <trkpt lat="37.833525000" lon="-4.836806000">
        <ele>97.6</ele>
        <time>2020-10-12T15:21:51Z</time>
      </trkpt>
      <trkpt lat="37.833579000" lon="-4.836719000">
        <ele>97.5</ele>
        <time>2020-10-12T15:21:53Z</time>
      </trkpt>
      <trkpt lat="37.833632000" lon="-4.836632000">
        <ele>97.5</ele>
        <time>2020-10-12T15:21:55Z</time>
      </trkpt>
      <trkpt lat="37.833689000" lon="-4.836545000">
        <ele>97.5</ele>
        <time>2020-10-12T15:21:57Z</time>
      </trkpt>
      <trkpt lat="37.833748000" lon="-4.836462000">
        <ele>97.6</ele>
        <time>2020-10-12T15:21:59Z</time>
      </trkpt>
      <trkpt lat="37.833816000" lon="-4.836378000">
        <ele>97.8</ele>
        <time>2020-10-12T15:22:01Z</time>
      </trkpt>
      <trkpt lat="37.833882000" lon="-4.836293000">
        <ele>98.0</ele>
        <time>2020-10-12T15:22:03Z</time>
      </trkpt>
      <trkpt lat="37.833954000" lon="-4.836208000">
        <ele>98.1</ele>
        <time>2020-10-12T15:22:05Z</time>
      </trkpt>
      <trkpt lat="37.834023000" lon="-4.836118000">
        <ele>98.2</ele>
        <time>2020-10-12T15:22:07Z</time>
      </trkpt>
      <trkpt lat="37.834096000" lon="-4.836037000">
        <ele>98.2</ele>
        <time>2020-10-12T15:22:09Z</time>
      </trkpt>
      <trkpt lat="37.834166000" lon="-4.835955000">
        <ele>98.2</ele>
        <time>2020-10-12T15:22:11Z</time>
      </trkpt>
      <trkpt lat="37.834240000" lon="-4.835869000">
        <ele>98.2</ele>
        <time>2020-10-12T15:22:13Z</time>
      </trkpt>
      <trkpt lat="37.834314000" lon="-4.835786000">
        <ele>98.2</ele>
        <time>2020-10-12T15:22:15Z</time>
      </trkpt>
      <trkpt lat="37.834387000" lon="-4.835701000">
        <ele>98.2</ele>
        <time>2020-10-12T15:22:17Z</time>
      </trkpt>
      <trkpt lat="37.834460000" lon="-4.835616000">
        <ele>98.2</ele>
        <time>2020-10-12T15:22:19Z</time>
      </trkpt>
      <trkpt lat="37.834531000" lon="-4.835534000">
        <ele>98.1</ele>
        <time>2020-10-12T15:22:21Z</time>
      </trkpt>
      <trkpt lat="37.834602000" lon="-4.835453000">
        <ele>97.9</ele>
        <time>2020-10-12T15:22:23Z</time>
      </trkpt>
      <trkpt lat="37.834673000" lon="-4.835369000">
        <ele>97.7</ele>
        <time>2020-10-12T15:22:25Z</time>
      </trkpt>
      <trkpt lat="37.834746000" lon="-4.835291000">
        <ele>97.5</ele>
        <time>2020-10-12T15:22:27Z</time>
      </trkpt>
      <trkpt lat="37.834819000" lon="-4.835205000">
        <ele>97.4</ele>
        <time>2020-10-12T15:22:29Z</time>
      </trkpt>
      <trkpt lat="37.834889000" lon="-4.835124000">
        <ele>97.2</ele>
        <time>2020-10-12T15:22:31Z</time>
      </trkpt>
      <trkpt lat="37.834961000" lon="-4.835045000">
        <ele>97.0</ele>
        <time>2020-10-12T15:22:33Z</time>
      </trkpt>
      <trkpt lat="37.835035000" lon="-4.834958000">
        <ele>96.9</ele>
        <time>2020-10-12T15:22:35Z</time>
      </trkpt>
      <trkpt lat="37.835107000" lon="-4.834879000">
        <ele>96.8</ele>
        <time>2020-10-12T15:22:37Z</time>
      </trkpt>
      <trkpt lat="37.835170000" lon="-4.834795000">
        <ele>96.7</ele>
        <time>2020-10-12T15:22:39Z</time>
      </trkpt>
      <trkpt lat="37.835241000" lon="-4.834711000">
        <ele>96.6</ele>
        <time>2020-10-12T15:22:41Z</time>
      </trkpt>
      <trkpt lat="37.835314000" lon="-4.834631000">
        <ele>96.6</ele>
        <time>2020-10-12T15:22:43Z</time>
      </trkpt>
      <trkpt lat="37.835386000" lon="-4.834551000">
        <ele>96.6</ele>
        <time>2020-10-12T15:22:45Z</time>
      </trkpt>
      <trkpt lat="37.835458000" lon="-4.834463000">
        <ele>96.6</ele>
        <time>2020-10-12T15:22:47Z</time>
      </trkpt>
      <trkpt lat="37.835530000" lon="-4.834378000">
        <ele>96.7</ele>
        <time>2020-10-12T15:22:49Z</time>
      </trkpt>
      <trkpt lat="37.835605000" lon="-4.834293000">
        <ele>96.9</ele>
        <time>2020-10-12T15:22:51Z</time>
      </trkpt>
      <trkpt lat="37.835676000" lon="-4.834210000">
        <ele>97.1</ele>
        <time>2020-10-12T15:22:53Z</time>
      </trkpt>
      <trkpt lat="37.835748000" lon="-4.834128000">
        <ele>97.3</ele>
        <time>2020-10-12T15:22:55Z</time>
      </trkpt>
      <trkpt lat="37.835818000" lon="-4.834045000">
        <ele>97.3</ele>
        <time>2020-10-12T15:22:57Z</time>
      </trkpt>
      <trkpt lat="37.835902000" lon="-4.833966000">
        <ele>97.3</ele>
        <time>2020-10-12T15:22:59Z</time>
      </trkpt>
      <trkpt lat="37.835977000" lon="-4.833882000">
        <ele>97.3</ele>
        <time>2020-10-12T15:23:01Z</time>
      </trkpt>
      <trkpt lat="37.836049000" lon="-4.833792000">
        <ele>97.3</ele>
        <time>2020-10-12T15:23:03Z</time>
      </trkpt>
      <trkpt lat="37.836120000" lon="-4.833714000">
        <ele>97.3</ele>
        <time>2020-10-12T15:23:05Z</time>
      </trkpt>
      <trkpt lat="37.836194000" lon="-4.833631000">
        <ele>97.2</ele>
        <time>2020-10-12T15:23:07Z</time>
      </trkpt>
      <trkpt lat="37.836268000" lon="-4.833552000">
        <ele>97.1</ele>
        <time>2020-10-12T15:23:09Z</time>
      </trkpt>
      <trkpt lat="37.836343000" lon="-4.833472000">
        <ele>97.0</ele>
        <time>2020-10-12T15:23:11Z</time>
      </trkpt>
      <trkpt lat="37.836414000" lon="-4.833393000">
        <ele>96.8</ele>
        <time>2020-10-12T15:23:13Z</time>
      </trkpt>
      <trkpt lat="37.836488000" lon="-4.833305000">
        <ele>96.6</ele>
        <time>2020-10-12T15:23:15Z</time>
      </trkpt>
      <trkpt lat="37.836565000" lon="-4.833222000">
        <ele>96.5</ele>
        <time>2020-10-12T15:23:17Z</time>
      </trkpt>
      <trkpt lat="37.836636000" lon="-4.833143000">
        <ele>96.4</ele>
        <time>2020-10-12T15:23:19Z</time>
      </trkpt>
      <trkpt lat="37.836708000" lon="-4.833062000">
        <ele>96.3</ele>
        <time>2020-10-12T15:23:21Z</time>
      </trkpt>
      <trkpt lat="37.836779000" lon="-4.832977000">
        <ele>96.2</ele>
        <time>2020-10-12T15:23:23Z</time>
      </trkpt>
      <trkpt lat="37.836852000" lon="-4.832894000">
        <ele>96.1</ele>
        <time>2020-10-12T15:23:25Z</time>
      </trkpt>
      <trkpt lat="37.836923000" lon="-4.832813000">
        <ele>96.0</ele>
        <time>2020-10-12T15:23:27Z</time>
      </trkpt>
      <trkpt lat="37.836992000" lon="-4.832739000">
        <ele>96.1</ele>
        <time>2020-10-12T15:23:29Z</time>
      </trkpt>
      <trkpt lat="37.837064000" lon="-4.832663000">
        <ele>96.2</ele>
        <time>2020-10-12T15:23:31Z</time>
      </trkpt>
      <trkpt lat="37.837135000" lon="-4.832574000">
        <ele>96.3</ele>
        <time>2020-10-12T15:23:33Z</time>
      </trkpt>
      <trkpt lat="37.837208000" lon="-4.832485000">
        <ele>96.4</ele>
        <time>2020-10-12T15:23:35Z</time>
      </trkpt>
      <trkpt lat="37.837274000" lon="-4.832401000">
        <ele>96.5</ele>
        <time>2020-10-12T15:23:37Z</time>
      </trkpt>
      <trkpt lat="37.837344000" lon="-4.832318000">
        <ele>96.5</ele>
        <time>2020-10-12T15:23:39Z</time>
      </trkpt>
      <trkpt lat="37.837418000" lon="-4.832239000">
        <ele>96.6</ele>
        <time>2020-10-12T15:23:41Z</time>
      </trkpt>
      <trkpt lat="37.837489000" lon="-4.832156000">
        <ele>96.7</ele>
        <time>2020-10-12T15:23:43Z</time>
      </trkpt>
      <trkpt lat="37.837564000" lon="-4.832072000">
        <ele>96.8</ele>
        <time>2020-10-12T15:23:45Z</time>
      </trkpt>
      <trkpt lat="37.837642000" lon="-4.831986000">
        <ele>96.9</ele>
        <time>2020-10-12T15:23:47Z</time>
      </trkpt>
      <trkpt lat="37.837717000" lon="-4.831901000">
        <ele>97.1</ele>
        <time>2020-10-12T15:23:49Z</time>
      </trkpt>
      <trkpt lat="37.837792000" lon="-4.831809000">
        <ele>97.2</ele>
        <time>2020-10-12T15:23:51Z</time>
      </trkpt>
      <trkpt lat="37.837869000" lon="-4.831725000">
        <ele>97.3</ele>
        <time>2020-10-12T15:23:53Z</time>
      </trkpt>
      <trkpt lat="37.837947000" lon="-4.831635000">
        <ele>97.4</ele>
        <time>2020-10-12T15:23:55Z</time>
      </trkpt>
      <trkpt lat="37.838026000" lon="-4.831550000">
        <ele>97.5</ele>
        <time>2020-10-12T15:23:57Z</time>
      </trkpt>
      <trkpt lat="37.838097000" lon="-4.831462000">
        <ele>97.5</ele>
        <time>2020-10-12T15:23:59Z</time>
      </trkpt>
      <trkpt lat="37.838169000" lon="-4.831379000">
        <ele>97.6</ele>
        <time>2020-10-12T15:24:01Z</time>
      </trkpt>
      <trkpt lat="37.838243000" lon="-4.831294000">
        <ele>97.8</ele>
        <time>2020-10-12T15:24:03Z</time>
      </trkpt>
      <trkpt lat="37.838315000" lon="-4.831211000">
        <ele>98.0</ele>
        <time>2020-10-12T15:24:05Z</time>
      </trkpt>
      <trkpt lat="37.838389000" lon="-4.831128000">
        <ele>98.1</ele>
        <time>2020-10-12T15:24:07Z</time>
      </trkpt>
      <trkpt lat="37.838467000" lon="-4.831042000">
        <ele>98.2</ele>
        <time>2020-10-12T15:24:09Z</time>
      </trkpt>
      <trkpt lat="37.838538000" lon="-4.830950000">
        <ele>98.2</ele>
        <time>2020-10-12T15:24:11Z</time>
      </trkpt>
      <trkpt lat="37.838611000" lon="-4.830864000">
        <ele>98.2</ele>
        <time>2020-10-12T15:24:13Z</time>
      </trkpt>
      <trkpt lat="37.838687000" lon="-4.830778000">
        <ele>98.2</ele>
        <time>2020-10-12T15:24:15Z</time>
      </trkpt>
      <trkpt lat="37.838759000" lon="-4.830694000">
        <ele>98.2</ele>
        <time>2020-10-12T15:24:17Z</time>
      </trkpt>
      <trkpt lat="37.838830000" lon="-4.830611000">
        <ele>98.2</ele>
        <time>2020-10-12T15:24:19Z</time>
      </trkpt>
      <trkpt lat="37.838901000" lon="-4.830526000">
        <ele>98.1</ele>
        <time>2020-10-12T15:24:21Z</time>
      </trkpt>
      <trkpt lat="37.838981000" lon="-4.830439000">
        <ele>98.0</ele>
        <time>2020-10-12T15:24:23Z</time>
      </trkpt>
      <trkpt lat="37.839056000" lon="-4.830352000">
        <ele>97.8</ele>
        <time>2020-10-12T15:24:25Z</time>
      </trkpt>
      <trkpt lat="37.839133000" lon="-4.830266000">
        <ele>97.6</ele>
        <time>2020-10-12T15:24:27Z</time>
      </trkpt>
      <trkpt lat="37.839209000" lon="-4.830176000">
        <ele>97.5</ele>
        <time>2020-10-12T15:24:29Z</time>
      </trkpt>
      <trkpt lat="37.839283000" lon="-4.830088000">
        <ele>97.3</ele>
        <time>2020-10-12T15:24:31Z</time>
      </trkpt>
      <trkpt lat="37.839358000" lon="-4.830001000">
        <ele>97.1</ele>
        <time>2020-10-12T15:24:33Z</time>
      </trkpt>
      <trkpt lat="37.839434000" lon="-4.829915000">
        <ele>96.9</ele>
        <time>2020-10-12T15:24:35Z</time>
      </trkpt>
      <trkpt lat="37.839513000" lon="-4.829830000">
        <ele>96.7</ele>
        <time>2020-10-12T15:24:37Z</time>
      </trkpt>
      <trkpt lat="37.839587000" lon="-4.829744000">
        <ele>96.5</ele>
        <time>2020-10-12T15:24:39Z</time>
      </trkpt>
      <trkpt lat="37.839663000" lon="-4.829661000">
        <ele>96.4</ele>
        <time>2020-10-12T15:24:41Z</time>
      </trkpt>
      <trkpt lat="37.839733000" lon="-4.829575000">
        <ele>96.3</ele>
        <time>2020-10-12T15:24:43Z</time>
      </trkpt>
      <trkpt lat="37.839810000" lon="-4.829488000">
        <ele>96.1</ele>
        <time>2020-10-12T15:24:45Z</time>
      </trkpt>
      <trkpt lat="37.839882000" lon="-4.829403000">
        <ele>95.9</ele>
        <time>2020-10-12T15:24:47Z</time>
      </trkpt>
      <trkpt lat="37.839961000" lon="-4.829322000">
        <ele>95.7</ele>
        <time>2020-10-12T15:24:49Z</time>
      </trkpt>
      <trkpt lat="37.840037000" lon="-4.829242000">
        <ele>95.5</ele>
        <time>2020-10-12T15:24:51Z</time>
      </trkpt>
      <trkpt lat="37.840115000" lon="-4.829162000">
        <ele>95.4</ele>
        <time>2020-10-12T15:24:53Z</time>
      </trkpt>
      <trkpt lat="37.840196000" lon="-4.829079000">
        <ele>95.2</ele>
        <time>2020-10-12T15:24:55Z</time>
      </trkpt>
      <trkpt lat="37.840276000" lon="-4.828998000">
        <ele>95.0</ele>
        <time>2020-10-12T15:24:57Z</time>
      </trkpt>
      <trkpt lat="37.840357000" lon="-4.828915000">
        <ele>94.8</ele>
        <time>2020-10-12T15:24:59Z</time>
      </trkpt>
      <trkpt lat="37.840435000" lon="-4.828835000">
        <ele>94.6</ele>
        <time>2020-10-12T15:25:01Z</time>
      </trkpt>
      <trkpt lat="37.840513000" lon="-4.828757000">
        <ele>94.4</ele>
        <time>2020-10-12T15:25:03Z</time>
      </trkpt>
      <trkpt lat="37.840594000" lon="-4.828676000">
        <ele>94.1</ele>
        <time>2020-10-12T15:25:05Z</time>
      </trkpt>
      <trkpt lat="37.840671000" lon="-4.828595000">
        <ele>93.9</ele>
        <time>2020-10-12T15:25:07Z</time>
      </trkpt>
      <trkpt lat="37.840742000" lon="-4.828520000">
        <ele>93.7</ele>
        <time>2020-10-12T15:25:09Z</time>
      </trkpt>
      <trkpt lat="37.840820000" lon="-4.828442000">
        <ele>93.5</ele>
        <time>2020-10-12T15:25:11Z</time>
      </trkpt>
      <trkpt lat="37.840899000" lon="-4.828356000">
        <ele>93.5</ele>
        <time>2020-10-12T15:25:13Z</time>
      </trkpt>
      <trkpt lat="37.840975000" lon="-4.828280000">
        <ele>93.4</ele>
        <time>2020-10-12T15:25:15Z</time>
      </trkpt>
      <trkpt lat="37.841049000" lon="-4.828206000">
        <ele>93.4</ele>
        <time>2020-10-12T15:25:17Z</time>
      </trkpt>
      <trkpt lat="37.841119000" lon="-4.828140000">
        <ele>93.4</ele>
        <time>2020-10-12T15:25:19Z</time>
      </trkpt>
      <trkpt lat="37.841187000" lon="-4.828072000">
        <ele>93.4</ele>
        <time>2020-10-12T15:25:21Z</time>
      </trkpt>
      <trkpt lat="37.841257000" lon="-4.828001000">
        <ele>93.5</ele>
        <time>2020-10-12T15:25:23Z</time>
      </trkpt>
      <trkpt lat="37.841332000" lon="-4.827918000">
        <ele>93.6</ele>
        <time>2020-10-12T15:25:25Z</time>
      </trkpt>
      <trkpt lat="37.841409000" lon="-4.827833000">
        <ele>93.8</ele>
        <time>2020-10-12T15:25:27Z</time>
      </trkpt>
      <trkpt lat="37.841490000" lon="-4.827754000">
        <ele>94.0</ele>
        <time>2020-10-12T15:25:29Z</time>
      </trkpt>
      <trkpt lat="37.841566000" lon="-4.827687000">
        <ele>94.2</ele>
        <time>2020-10-12T15:25:31Z</time>
      </trkpt>
      <trkpt lat="37.841640000" lon="-4.827624000">
        <ele>94.4</ele>
        <time>2020-10-12T15:25:33Z</time>
      </trkpt>
      <trkpt lat="37.841718000" lon="-4.827563000">
        <ele>94.5</ele>
        <time>2020-10-12T15:25:35Z</time>
      </trkpt>
      <trkpt lat="37.841799000" lon="-4.827493000">
        <ele>94.7</ele>
        <time>2020-10-12T15:25:37Z</time>
      </trkpt>
      <trkpt lat="37.841884000" lon="-4.827429000">
        <ele>94.8</ele>
        <time>2020-10-12T15:25:39Z</time>
      </trkpt>
      <trkpt lat="37.841969000" lon="-4.827361000">
        <ele>94.9</ele>
        <time>2020-10-12T15:25:41Z</time>
      </trkpt>
      <trkpt lat="37.842045000" lon="-4.827306000">
        <ele>95.0</ele>
        <time>2020-10-12T15:25:43Z</time>
      </trkpt>
      <trkpt lat="37.842154000" lon="-4.827230000">
        <ele>95.0</ele>
        <time>2020-10-12T15:25:46Z</time>
      </trkpt>
      <trkpt lat="37.842236000" lon="-4.827180000">
        <ele>94.9</ele>
        <time>2020-10-12T15:25:48Z</time>
      </trkpt>
      <trkpt lat="37.842329000" lon="-4.827128000">
        <ele>94.8</ele>
        <time>2020-10-12T15:25:50Z</time>
      </trkpt>
      <trkpt lat="37.842425000" lon="-4.827076000">
        <ele>94.7</ele>
        <time>2020-10-12T15:25:52Z</time>
      </trkpt>
      <trkpt lat="37.842503000" lon="-4.827025000">
        <ele>94.6</ele>
        <time>2020-10-12T15:25:54Z</time>
      </trkpt>
      <trkpt lat="37.842593000" lon="-4.826980000">
        <ele>94.5</ele>
        <time>2020-10-12T15:25:56Z</time>
      </trkpt>
      <trkpt lat="37.842675000" lon="-4.826944000">
        <ele>94.5</ele>
        <time>2020-10-12T15:25:58Z</time>
      </trkpt>
      <trkpt lat="37.842789000" lon="-4.826885000">
        <ele>94.4</ele>
        <time>2020-10-12T15:26:01Z</time>
      </trkpt>
      <trkpt lat="37.842868000" lon="-4.826848000">
        <ele>94.3</ele>
        <time>2020-10-12T15:26:03Z</time>
      </trkpt>
      <trkpt lat="37.842950000" lon="-4.826804000">
        <ele>94.2</ele>
        <time>2020-10-12T15:26:05Z</time>
      </trkpt>
      <trkpt lat="37.843028000" lon="-4.826764000">
        <ele>94.2</ele>
        <time>2020-10-12T15:26:07Z</time>
      </trkpt>
      <trkpt lat="37.843110000" lon="-4.826731000">
        <ele>94.2</ele>
        <time>2020-10-12T15:26:09Z</time>
      </trkpt>
      <trkpt lat="37.843188000" lon="-4.826692000">
        <ele>94.3</ele>
        <time>2020-10-12T15:26:11Z</time>
      </trkpt>
      <trkpt lat="37.843268000" lon="-4.826651000">
        <ele>94.3</ele>
        <time>2020-10-12T15:26:13Z</time>
      </trkpt>
      <trkpt lat="37.843350000" lon="-4.826613000">
        <ele>94.3</ele>
        <time>2020-10-12T15:26:15Z</time>
      </trkpt>
      <trkpt lat="37.843430000" lon="-4.826575000">
        <ele>94.3</ele>
        <time>2020-10-12T15:26:17Z</time>
      </trkpt>
      <trkpt lat="37.843507000" lon="-4.826540000">
        <ele>94.3</ele>
        <time>2020-10-12T15:26:19Z</time>
      </trkpt>
      <trkpt lat="37.843620000" lon="-4.826489000">
        <ele>94.3</ele>
        <time>2020-10-12T15:26:22Z</time>
      </trkpt>
      <trkpt lat="37.843722000" lon="-4.826434000">
        <ele>94.3</ele>
        <time>2020-10-12T15:26:25Z</time>
      </trkpt>
      <trkpt lat="37.843819000" lon="-4.826386000">
        <ele>94.3</ele>
        <time>2020-10-12T15:26:28Z</time>
      </trkpt>
      <trkpt lat="37.843900000" lon="-4.826332000">
        <ele>94.3</ele>
        <time>2020-10-12T15:26:31Z</time>
      </trkpt>
      <trkpt lat="37.843972000" lon="-4.826275000">
        <ele>94.2</ele>
        <time>2020-10-12T15:26:34Z</time>
      </trkpt>
      <trkpt lat="37.844053000" lon="-4.826193000">
        <ele>94.1</ele>
        <time>2020-10-12T15:26:38Z</time>
      </trkpt>
      <trkpt lat="37.844116000" lon="-4.826116000">
        <ele>94.0</ele>
        <time>2020-10-12T15:26:41Z</time>
      </trkpt>
      <trkpt lat="37.844174000" lon="-4.826018000">
        <ele>94.0</ele>
        <time>2020-10-12T15:26:44Z</time>
      </trkpt>
      <trkpt lat="37.844219000" lon="-4.825921000">
        <ele>94.0</ele>
        <time>2020-10-12T15:26:47Z</time>
      </trkpt>
      <trkpt lat="37.844252000" lon="-4.825798000">
        <ele>94.1</ele>
        <time>2020-10-12T15:26:51Z</time>
      </trkpt>
      <trkpt lat="37.844271000" lon="-4.825671000">
        <ele>94.2</ele>
        <time>2020-10-12T15:26:55Z</time>
      </trkpt>
      <trkpt lat="37.844280000" lon="-4.825566000">
        <ele>94.3</ele>
        <time>2020-10-12T15:26:58Z</time>
      </trkpt>
      <trkpt lat="37.844276000" lon="-4.825461000">
        <ele>94.5</ele>
        <time>2020-10-12T15:27:01Z</time>
      </trkpt>
      <trkpt lat="37.844261000" lon="-4.825356000">
        <ele>94.7</ele>
        <time>2020-10-12T15:27:04Z</time>
      </trkpt>
      <trkpt lat="37.844233000" lon="-4.825247000">
        <ele>95.1</ele>
        <time>2020-10-12T15:27:08Z</time>
      </trkpt>
      <trkpt lat="37.844199000" lon="-4.825148000">
        <ele>95.5</ele>
        <time>2020-10-12T15:27:12Z</time>
      </trkpt>
      <trkpt lat="37.844195000" lon="-4.825040000">
        <ele>96.1</ele>
        <time>2020-10-12T15:27:16Z</time>
      </trkpt>
      <trkpt lat="37.844171000" lon="-4.824917000">
        <ele>96.7</ele>
        <time>2020-10-12T15:27:20Z</time>
      </trkpt>
      <trkpt lat="37.844136000" lon="-4.824822000">
        <ele>97.5</ele>
        <time>2020-10-12T15:27:23Z</time>
      </trkpt>
      <trkpt lat="37.844088000" lon="-4.824720000">
        <ele>98.2</ele>
        <time>2020-10-12T15:27:26Z</time>
      </trkpt>
      <trkpt lat="37.844032000" lon="-4.824612000">
        <ele>98.9</ele>
        <time>2020-10-12T15:27:29Z</time>
      </trkpt>
      <trkpt lat="37.843982000" lon="-4.824507000">
        <ele>99.6</ele>
        <time>2020-10-12T15:27:32Z</time>
      </trkpt>
      <trkpt lat="37.843928000" lon="-4.824405000">
        <ele>100.4</ele>
        <time>2020-10-12T15:27:35Z</time>
      </trkpt>
      <trkpt lat="37.843873000" lon="-4.824305000">
        <ele>101.0</ele>
        <time>2020-10-12T15:27:38Z</time>
      </trkpt>
      <trkpt lat="37.843822000" lon="-4.824207000">
        <ele>101.6</ele>
        <time>2020-10-12T15:27:41Z</time>
      </trkpt>
      <trkpt lat="37.843776000" lon="-4.824108000">
        <ele>102.2</ele>
        <time>2020-10-12T15:27:44Z</time>
      </trkpt>
      <trkpt lat="37.843726000" lon="-4.824013000">
        <ele>102.6</ele>
        <time>2020-10-12T15:27:47Z</time>
      </trkpt>
      <trkpt lat="37.843686000" lon="-4.823915000">
        <ele>103.0</ele>
        <time>2020-10-12T15:27:50Z</time>
      </trkpt>
      <trkpt lat="37.843638000" lon="-4.823823000">
        <ele>103.3</ele>
        <time>2020-10-12T15:27:53Z</time>
      </trkpt>
      <trkpt lat="37.843598000" lon="-4.823730000">
        <ele>103.5</ele>
        <time>2020-10-12T15:27:56Z</time>
      </trkpt>
      <trkpt lat="37.843553000" lon="-4.823644000">
        <ele>103.9</ele>
        <time>2020-10-12T15:27:59Z</time>
      </trkpt>
      <trkpt lat="37.843498000" lon="-4.823528000">
        <ele>104.2</ele>
        <time>2020-10-12T15:28:03Z</time>
      </trkpt>
      <trkpt lat="37.843458000" lon="-4.823437000">
        <ele>104.5</ele>
        <time>2020-10-12T15:28:06Z</time>
      </trkpt>
      <trkpt lat="37.843405000" lon="-4.823328000">
        <ele>105.0</ele>
        <time>2020-10-12T15:28:10Z</time>
      </trkpt>
      <trkpt lat="37.843358000" lon="-4.823214000">
        <ele>105.5</ele>
        <time>2020-10-12T15:28:14Z</time>
      </trkpt>
      <trkpt lat="37.843323000" lon="-4.823120000">
        <ele>106.1</ele>
        <time>2020-10-12T15:28:17Z</time>
      </trkpt>
      <trkpt lat="37.843290000" lon="-4.823022000">
        <ele>106.6</ele>
        <time>2020-10-12T15:28:20Z</time>
      </trkpt>
      <trkpt lat="37.843261000" lon="-4.822917000">
        <ele>107.3</ele>
        <time>2020-10-12T15:28:23Z</time>
      </trkpt>
      <trkpt lat="37.843236000" lon="-4.822814000">
        <ele>108.0</ele>
        <time>2020-10-12T15:28:26Z</time>
      </trkpt>
      <trkpt lat="37.843214000" lon="-4.822685000">
        <ele>108.7</ele>
        <time>2020-10-12T15:28:30Z</time>
      </trkpt>
      <trkpt lat="37.843197000" lon="-4.822561000">
        <ele>109.4</ele>
        <time>2020-10-12T15:28:34Z</time>
      </trkpt>
      <trkpt lat="37.843187000" lon="-4.822427000">
        <ele>109.9</ele>
        <time>2020-10-12T15:28:38Z</time>
      </trkpt>
      <trkpt lat="37.843173000" lon="-4.822296000">
        <ele>110.5</ele>
        <time>2020-10-12T15:28:42Z</time>
      </trkpt>
      <trkpt lat="37.843163000" lon="-4.822163000">
        <ele>111.0</ele>
        <time>2020-10-12T15:28:46Z</time>
      </trkpt>
      <trkpt lat="37.843158000" lon="-4.822035000">
        <ele>111.5</ele>
        <time>2020-10-12T15:28:50Z</time>
      </trkpt>
      <trkpt lat="37.843155000" lon="-4.821909000">
        <ele>112.0</ele>
        <time>2020-10-12T15:28:54Z</time>
      </trkpt>
      <trkpt lat="37.843144000" lon="-4.821785000">
        <ele>112.5</ele>
        <time>2020-10-12T15:28:58Z</time>
      </trkpt>
      <trkpt lat="37.843141000" lon="-4.821650000">
        <ele>112.9</ele>
        <time>2020-10-12T15:29:02Z</time>
      </trkpt>
      <trkpt lat="37.843136000" lon="-4.821522000">
        <ele>113.4</ele>
        <time>2020-10-12T15:29:06Z</time>
      </trkpt>
      <trkpt lat="37.843130000" lon="-4.821388000">
        <ele>113.7</ele>
        <time>2020-10-12T15:29:10Z</time>
      </trkpt>
      <trkpt lat="37.843133000" lon="-4.821285000">
        <ele>114.1</ele>
        <time>2020-10-12T15:29:13Z</time>
      </trkpt>
      <trkpt lat="37.843125000" lon="-4.821150000">
        <ele>114.5</ele>
        <time>2020-10-12T15:29:17Z</time>
      </trkpt>
      <trkpt lat="37.843114000" lon="-4.821039000">
        <ele>115.0</ele>
        <time>2020-10-12T15:29:20Z</time>
      </trkpt>
      <trkpt lat="37.843107000" lon="-4.820933000">
        <ele>115.5</ele>
        <time>2020-10-12T15:29:23Z</time>
      </trkpt>
      <trkpt lat="37.843106000" lon="-4.820829000">
        <ele>116.0</ele>
        <time>2020-10-12T15:29:26Z</time>
      </trkpt>
      <trkpt lat="37.843101000" lon="-4.820724000">
        <ele>116.4</ele>
        <time>2020-10-12T15:29:29Z</time>
      </trkpt>
      <trkpt lat="37.843099000" lon="-4.820620000">
        <ele>116.8</ele>
        <time>2020-10-12T15:29:32Z</time>
      </trkpt>
      <trkpt lat="37.843103000" lon="-4.820495000">
        <ele>117.2</ele>
        <time>2020-10-12T15:29:36Z</time>
      </trkpt>
      <trkpt lat="37.843091000" lon="-4.820383000">
        <ele>117.5</ele>
        <time>2020-10-12T15:29:40Z</time>
      </trkpt>
      <trkpt lat="37.843084000" lon="-4.820273000">
        <ele>117.8</ele>
        <time>2020-10-12T15:29:44Z</time>
      </trkpt>
      <trkpt lat="37.843088000" lon="-4.820163000">
        <ele>118.2</ele>
        <time>2020-10-12T15:29:47Z</time>
      </trkpt>
      <trkpt lat="37.843076000" lon="-4.820053000">
        <ele>118.5</ele>
        <time>2020-10-12T15:29:50Z</time>
      </trkpt>
      <trkpt lat="37.843077000" lon="-4.819925000">
        <ele>118.8</ele>
        <time>2020-10-12T15:29:54Z</time>
      </trkpt>
      <trkpt lat="37.843077000" lon="-4.819792000">
        <ele>119.1</ele>
        <time>2020-10-12T15:29:58Z</time>
      </trkpt>
      <trkpt lat="37.843072000" lon="-4.819663000">
        <ele>119.3</ele>
        <time>2020-10-12T15:30:02Z</time>
      </trkpt>
      <trkpt lat="37.843065000" lon="-4.819534000">
        <ele>119.5</ele>
        <time>2020-10-12T15:30:06Z</time>
      </trkpt>
      <trkpt lat="37.843059000" lon="-4.819407000">
        <ele>119.6</ele>
        <time>2020-10-12T15:30:10Z</time>
      </trkpt>
      <trkpt lat="37.843053000" lon="-4.819278000">
        <ele>119.7</ele>
        <time>2020-10-12T15:30:14Z</time>
      </trkpt>
      <trkpt lat="37.843046000" lon="-4.819146000">
        <ele>119.8</ele>
        <time>2020-10-12T15:30:18Z</time>
      </trkpt>
      <trkpt lat="37.843039000" lon="-4.819010000">
        <ele>119.9</ele>
        <time>2020-10-12T15:30:22Z</time>
      </trkpt>
      <trkpt lat="37.843034000" lon="-4.818905000">
        <ele>119.9</ele>
        <time>2020-10-12T15:30:25Z</time>
      </trkpt>
      <trkpt lat="37.843033000" lon="-4.818801000">
        <ele>119.8</ele>
        <time>2020-10-12T15:30:28Z</time>
      </trkpt>
      <trkpt lat="37.843039000" lon="-4.818694000">
        <ele>119.6</ele>
        <time>2020-10-12T15:30:31Z</time>
      </trkpt>
      <trkpt lat="37.843039000" lon="-4.818588000">
        <ele>119.5</ele>
        <time>2020-10-12T15:30:34Z</time>
      </trkpt>
      <trkpt lat="37.843052000" lon="-4.818485000">
        <ele>119.3</ele>
        <time>2020-10-12T15:30:37Z</time>
      </trkpt>
      <trkpt lat="37.843068000" lon="-4.818377000">
        <ele>119.1</ele>
        <time>2020-10-12T15:30:40Z</time>
      </trkpt>
      <trkpt lat="37.843086000" lon="-4.818267000">
        <ele>118.9</ele>
        <time>2020-10-12T15:30:43Z</time>
      </trkpt>
      <trkpt lat="37.843110000" lon="-4.818154000">
        <ele>118.7</ele>
        <time>2020-10-12T15:30:46Z</time>
      </trkpt>
      <trkpt lat="37.843135000" lon="-4.818039000">
        <ele>118.6</ele>
        <time>2020-10-12T15:30:49Z</time>
      </trkpt>
      <trkpt lat="37.843161000" lon="-4.817930000">
        <ele>118.5</ele>
        <time>2020-10-12T15:30:52Z</time>
      </trkpt>
      <trkpt lat="37.843188000" lon="-4.817822000">
        <ele>118.5</ele>
        <time>2020-10-12T15:30:55Z</time>
      </trkpt>
      <trkpt lat="37.843218000" lon="-4.817717000">
        <ele>118.5</ele>
        <time>2020-10-12T15:30:58Z</time>
      </trkpt>
      <trkpt lat="37.843246000" lon="-4.817620000">
        <ele>118.5</ele>
        <time>2020-10-12T15:31:01Z</time>
      </trkpt>
      <trkpt lat="37.843286000" lon="-4.817486000">
        <ele>118.7</ele>
        <time>2020-10-12T15:31:05Z</time>
      </trkpt>
      <trkpt lat="37.843313000" lon="-4.817385000">
        <ele>119.0</ele>
        <time>2020-10-12T15:31:08Z</time>
      </trkpt>
      <trkpt lat="37.843345000" lon="-4.817275000">
        <ele>119.4</ele>
        <time>2020-10-12T15:31:11Z</time>
      </trkpt>
      <trkpt lat="37.843377000" lon="-4.817177000">
        <ele>119.8</ele>
        <time>2020-10-12T15:31:14Z</time>
      </trkpt>
      <trkpt lat="37.843413000" lon="-4.817060000">
        <ele>120.4</ele>
        <time>2020-10-12T15:31:18Z</time>
      </trkpt>
      <trkpt lat="37.843443000" lon="-4.816961000">
        <ele>121.1</ele>
        <time>2020-10-12T15:31:21Z</time>
      </trkpt>
      <trkpt lat="37.843474000" lon="-4.816849000">
        <ele>121.7</ele>
        <time>2020-10-12T15:31:24Z</time>
      </trkpt>
      <trkpt lat="37.843508000" lon="-4.816737000">
        <ele>122.5</ele>
        <time>2020-10-12T15:31:27Z</time>
      </trkpt>
      <trkpt lat="37.843540000" lon="-4.816628000">
        <ele>123.2</ele>
        <time>2020-10-12T15:31:31Z</time>
      </trkpt>
      <trkpt lat="37.843565000" lon="-4.816529000">
        <ele>124.0</ele>
        <time>2020-10-12T15:31:35Z</time>
      </trkpt>
      <trkpt lat="37.843606000" lon="-4.816419000">
        <ele>124.8</ele>
        <time>2020-10-12T15:31:39Z</time>
      </trkpt>
      <trkpt lat="37.843641000" lon="-4.816299000">
        <ele>125.6</ele>
        <time>2020-10-12T15:31:44Z</time>
      </trkpt>
      <trkpt lat="37.843669000" lon="-4.816199000">
        <ele>126.5</ele>
        <time>2020-10-12T15:31:48Z</time>
      </trkpt>
      <trkpt lat="37.843698000" lon="-4.816092000">
        <ele>127.2</ele>
        <time>2020-10-12T15:31:52Z</time>
      </trkpt>
      <trkpt lat="37.843724000" lon="-4.815990000">
        <ele>127.8</ele>
        <time>2020-10-12T15:31:56Z</time>
      </trkpt>
      <trkpt lat="37.843764000" lon="-4.815875000">
        <ele>128.4</ele>
        <time>2020-10-12T15:32:00Z</time>
      </trkpt>
      <trkpt lat="37.843799000" lon="-4.815756000">
        <ele>128.7</ele>
        <time>2020-10-12T15:32:04Z</time>
      </trkpt>
      <trkpt lat="37.843837000" lon="-4.815633000">
        <ele>129.1</ele>
        <time>2020-10-12T15:32:08Z</time>
      </trkpt>
      <trkpt lat="37.843873000" lon="-4.815511000">
        <ele>129.3</ele>
        <time>2020-10-12T15:32:12Z</time>
      </trkpt>
      <trkpt lat="37.843907000" lon="-4.815379000">
        <ele>129.5</ele>
        <time>2020-10-12T15:32:16Z</time>
      </trkpt>
      <trkpt lat="37.843939000" lon="-4.815270000">
        <ele>129.5</ele>
        <time>2020-10-12T15:32:19Z</time>
      </trkpt>
      <trkpt lat="37.843976000" lon="-4.815153000">
        <ele>129.5</ele>
        <time>2020-10-12T15:32:22Z</time>
      </trkpt>
      <trkpt lat="37.844015000" lon="-4.815025000">
        <ele>129.5</ele>
        <time>2020-10-12T15:32:25Z</time>
      </trkpt>
      <trkpt lat="37.844054000" lon="-4.814889000">
        <ele>129.5</ele>
        <time>2020-10-12T15:32:28Z</time>
      </trkpt>
      <trkpt lat="37.844092000" lon="-4.814743000">
        <ele>129.4</ele>
        <time>2020-10-12T15:32:31Z</time>
      </trkpt>
      <trkpt lat="37.844122000" lon="-4.814644000">
        <ele>129.4</ele>
        <time>2020-10-12T15:32:33Z</time>
      </trkpt>
      <trkpt lat="37.844149000" lon="-4.814546000">
        <ele>129.4</ele>
        <time>2020-10-12T15:32:35Z</time>
      </trkpt>
      <trkpt lat="37.844178000" lon="-4.814447000">
        <ele>129.4</ele>
        <time>2020-10-12T15:32:37Z</time>
      </trkpt>
      <trkpt lat="37.844206000" lon="-4.814347000">
        <ele>129.4</ele>
        <time>2020-10-12T15:32:39Z</time>
      </trkpt>
      <trkpt lat="37.844234000" lon="-4.814249000">
        <ele>129.5</ele>
        <time>2020-10-12T15:32:41Z</time>
      </trkpt>
      <trkpt lat="37.844264000" lon="-4.814151000">
        <ele>129.5</ele>
        <time>2020-10-12T15:32:43Z</time>
      </trkpt>
      <trkpt lat="37.844294000" lon="-4.814049000">
        <ele>129.6</ele>
        <time>2020-10-12T15:32:45Z</time>
      </trkpt>
      <trkpt lat="37.844324000" lon="-4.813946000">
        <ele>129.7</ele>
        <time>2020-10-12T15:32:47Z</time>
      </trkpt>
      <trkpt lat="37.844351000" lon="-4.813840000">
        <ele>129.8</ele>
        <time>2020-10-12T15:32:49Z</time>
      </trkpt>
      <trkpt lat="37.844375000" lon="-4.813733000">
        <ele>129.8</ele>
        <time>2020-10-12T15:32:51Z</time>
      </trkpt>
      <trkpt lat="37.844398000" lon="-4.813626000">
        <ele>129.7</ele>
        <time>2020-10-12T15:32:53Z</time>
      </trkpt>
      <trkpt lat="37.844419000" lon="-4.813519000">
        <ele>129.5</ele>
        <time>2020-10-12T15:32:55Z</time>
      </trkpt>
      <trkpt lat="37.844434000" lon="-4.813412000">
        <ele>129.2</ele>
        <time>2020-10-12T15:32:57Z</time>
      </trkpt>
      <trkpt lat="37.844443000" lon="-4.813302000">
        <ele>128.8</ele>
        <time>2020-10-12T15:32:59Z</time>
      </trkpt>
      <trkpt lat="37.844447000" lon="-4.813191000">
        <ele>128.5</ele>
        <time>2020-10-12T15:33:01Z</time>
      </trkpt>
      <trkpt lat="37.844448000" lon="-4.813079000">
        <ele>128.2</ele>
        <time>2020-10-12T15:33:03Z</time>
      </trkpt>
      <trkpt lat="37.844442000" lon="-4.812966000">
        <ele>127.9</ele>
        <time>2020-10-12T15:33:05Z</time>
      </trkpt>
      <trkpt lat="37.844440000" lon="-4.812852000">
        <ele>127.6</ele>
        <time>2020-10-12T15:33:07Z</time>
      </trkpt>
      <trkpt lat="37.844432000" lon="-4.812735000">
        <ele>127.5</ele>
        <time>2020-10-12T15:33:09Z</time>
      </trkpt>
      <trkpt lat="37.844420000" lon="-4.812623000">
        <ele>127.3</ele>
        <time>2020-10-12T15:33:11Z</time>
      </trkpt>
      <trkpt lat="37.844399000" lon="-4.812507000">
        <ele>127.2</ele>
        <time>2020-10-12T15:33:13Z</time>
      </trkpt>
      <trkpt lat="37.844378000" lon="-4.812394000">
        <ele>127.2</ele>
        <time>2020-10-12T15:33:16Z</time>
      </trkpt>
      <trkpt lat="37.844352000" lon="-4.812282000">
        <ele>127.3</ele>
        <time>2020-10-12T15:33:17Z</time>
      </trkpt>
      <trkpt lat="37.844318000" lon="-4.812171000">
        <ele>127.3</ele>
        <time>2020-10-12T15:33:19Z</time>
      </trkpt>
      <trkpt lat="37.844285000" lon="-4.812068000">
        <ele>127.4</ele>
        <time>2020-10-12T15:33:21Z</time>
      </trkpt>
      <trkpt lat="37.844237000" lon="-4.811966000">
        <ele>127.5</ele>
        <time>2020-10-12T15:33:23Z</time>
      </trkpt>
      <trkpt lat="37.844196000" lon="-4.811859000">
        <ele>127.5</ele>
        <time>2020-10-12T15:33:25Z</time>
      </trkpt>
      <trkpt lat="37.844160000" lon="-4.811751000">
        <ele>127.5</ele>
        <time>2020-10-12T15:33:27Z</time>
      </trkpt>
      <trkpt lat="37.844119000" lon="-4.811642000">
        <ele>127.5</ele>
        <time>2020-10-12T15:33:29Z</time>
      </trkpt>
      <trkpt lat="37.844073000" lon="-4.811533000">
        <ele>127.4</ele>
        <time>2020-10-12T15:33:31Z</time>
      </trkpt>
      <trkpt lat="37.844035000" lon="-4.811420000">
        <ele>127.3</ele>
        <time>2020-10-12T15:33:33Z</time>
      </trkpt>
      <trkpt lat="37.843986000" lon="-4.811311000">
        <ele>127.2</ele>
        <time>2020-10-12T15:33:35Z</time>
      </trkpt>
      <trkpt lat="37.843950000" lon="-4.811195000">
        <ele>127.1</ele>
        <time>2020-10-12T15:33:37Z</time>
      </trkpt>
      <trkpt lat="37.843914000" lon="-4.811085000">
        <ele>127.1</ele>
        <time>2020-10-12T15:33:39Z</time>
      </trkpt>
      <trkpt lat="37.843875000" lon="-4.810979000">
        <ele>127.2</ele>
        <time>2020-10-12T15:33:41Z</time>
      </trkpt>
      <trkpt lat="37.843836000" lon="-4.810877000">
        <ele>127.3</ele>
        <time>2020-10-12T15:33:43Z</time>
      </trkpt>
      <trkpt lat="37.843798000" lon="-4.810778000">
        <ele>127.5</ele>
        <time>2020-10-12T15:33:45Z</time>
      </trkpt>
      <trkpt lat="37.843760000" lon="-4.810684000">
        <ele>127.6</ele>
        <time>2020-10-12T15:33:47Z</time>
      </trkpt>
      <trkpt lat="37.843723000" lon="-4.810588000">
        <ele>127.8</ele>
        <time>2020-10-12T15:33:49Z</time>
      </trkpt>
      <trkpt lat="37.843685000" lon="-4.810495000">
        <ele>128.1</ele>
        <time>2020-10-12T15:33:51Z</time>
      </trkpt>
      <trkpt lat="37.843653000" lon="-4.810401000">
        <ele>128.4</ele>
        <time>2020-10-12T15:33:53Z</time>
      </trkpt>
      <trkpt lat="37.843617000" lon="-4.810306000">
        <ele>128.6</ele>
        <time>2020-10-12T15:33:55Z</time>
      </trkpt>
      <trkpt lat="37.843580000" lon="-4.810214000">
        <ele>128.9</ele>
        <time>2020-10-12T15:33:57Z</time>
      </trkpt>
      <trkpt lat="37.843548000" lon="-4.810119000">
        <ele>129.2</ele>
        <time>2020-10-12T15:33:59Z</time>
      </trkpt>
      <trkpt lat="37.843512000" lon="-4.810027000">
        <ele>129.4</ele>
        <time>2020-10-12T15:34:01Z</time>
      </trkpt>
      <trkpt lat="37.843460000" lon="-4.809889000">
        <ele>129.5</ele>
        <time>2020-10-12T15:34:04Z</time>
      </trkpt>
      <trkpt lat="37.843416000" lon="-4.809763000">
        <ele>129.7</ele>
        <time>2020-10-12T15:34:07Z</time>
      </trkpt>
      <trkpt lat="37.843377000" lon="-4.809648000">
        <ele>129.8</ele>
        <time>2020-10-12T15:34:10Z</time>
      </trkpt>
      <trkpt lat="37.843337000" lon="-4.809536000">
        <ele>130.0</ele>
        <time>2020-10-12T15:34:13Z</time>
      </trkpt>
      <trkpt lat="37.843298000" lon="-4.809428000">
        <ele>130.2</ele>
        <time>2020-10-12T15:34:16Z</time>
      </trkpt>
      <trkpt lat="37.843254000" lon="-4.809325000">
        <ele>130.3</ele>
        <time>2020-10-12T15:34:19Z</time>
      </trkpt>
      <trkpt lat="37.843220000" lon="-4.809216000">
        <ele>130.3</ele>
        <time>2020-10-12T15:34:22Z</time>
      </trkpt>
      <trkpt lat="37.843168000" lon="-4.809094000">
        <ele>130.4</ele>
        <time>2020-10-12T15:34:25Z</time>
      </trkpt>
      <trkpt lat="37.843117000" lon="-4.808960000">
        <ele>130.5</ele>
        <time>2020-10-12T15:34:28Z</time>
      </trkpt>
      <trkpt lat="37.843081000" lon="-4.808864000">
        <ele>130.6</ele>
        <time>2020-10-12T15:34:30Z</time>
      </trkpt>
      <trkpt lat="37.843048000" lon="-4.808759000">
        <ele>130.9</ele>
        <time>2020-10-12T15:34:32Z</time>
      </trkpt>
      <trkpt lat="37.843004000" lon="-4.808632000">
        <ele>131.3</ele>
        <time>2020-10-12T15:34:35Z</time>
      </trkpt>
      <trkpt lat="37.842962000" lon="-4.808513000">
        <ele>131.6</ele>
        <time>2020-10-12T15:34:38Z</time>
      </trkpt>
      <trkpt lat="37.842915000" lon="-4.808376000">
        <ele>131.9</ele>
        <time>2020-10-12T15:34:41Z</time>
      </trkpt>
      <trkpt lat="37.842881000" lon="-4.808279000">
        <ele>132.1</ele>
        <time>2020-10-12T15:34:43Z</time>
      </trkpt>
      <trkpt lat="37.842833000" lon="-4.808159000">
        <ele>132.3</ele>
        <time>2020-10-12T15:34:46Z</time>
      </trkpt>
      <trkpt lat="37.842793000" lon="-4.808043000">
        <ele>132.5</ele>
        <time>2020-10-12T15:34:49Z</time>
      </trkpt>
      <trkpt lat="37.842753000" lon="-4.807932000">
        <ele>132.7</ele>
        <time>2020-10-12T15:34:52Z</time>
      </trkpt>
      <trkpt lat="37.842710000" lon="-4.807809000">
        <ele>132.9</ele>
        <time>2020-10-12T15:34:55Z</time>
      </trkpt>
      <trkpt lat="37.842667000" lon="-4.807695000">
        <ele>133.2</ele>
        <time>2020-10-12T15:34:58Z</time>
      </trkpt>
      <trkpt lat="37.842625000" lon="-4.807578000">
        <ele>133.4</ele>
        <time>2020-10-12T15:35:01Z</time>
      </trkpt>
      <trkpt lat="37.842582000" lon="-4.807458000">
        <ele>133.5</ele>
        <time>2020-10-12T15:35:04Z</time>
      </trkpt>
      <trkpt lat="37.842542000" lon="-4.807340000">
        <ele>133.4</ele>
        <time>2020-10-12T15:35:07Z</time>
      </trkpt>
      <trkpt lat="37.842500000" lon="-4.807207000">
        <ele>133.3</ele>
        <time>2020-10-12T15:35:10Z</time>
      </trkpt>
      <trkpt lat="37.842465000" lon="-4.807067000">
        <ele>133.3</ele>
        <time>2020-10-12T15:35:13Z</time>
      </trkpt>
      <trkpt lat="37.842446000" lon="-4.806960000">
        <ele>133.2</ele>
        <time>2020-10-12T15:35:15Z</time>
      </trkpt>
      <trkpt lat="37.842422000" lon="-4.806845000">
        <ele>133.0</ele>
        <time>2020-10-12T15:35:17Z</time>
      </trkpt>
      <trkpt lat="37.842408000" lon="-4.806722000">
        <ele>132.6</ele>
        <time>2020-10-12T15:35:19Z</time>
      </trkpt>
      <trkpt lat="37.842402000" lon="-4.806583000">
        <ele>132.2</ele>
        <time>2020-10-12T15:35:21Z</time>
      </trkpt>
      <trkpt lat="37.842401000" lon="-4.806440000">
        <ele>131.6</ele>
        <time>2020-10-12T15:35:23Z</time>
      </trkpt>
      <trkpt lat="37.842408000" lon="-4.806284000">
        <ele>130.9</ele>
        <time>2020-10-12T15:35:25Z</time>
      </trkpt>
      <trkpt lat="37.842420000" lon="-4.806135000">
        <ele>130.1</ele>
        <time>2020-10-12T15:35:27Z</time>
      </trkpt>
      <trkpt lat="37.842433000" lon="-4.805991000">
        <ele>129.2</ele>
        <time>2020-10-12T15:35:29Z</time>
      </trkpt>
      <trkpt lat="37.842460000" lon="-4.805845000">
        <ele>128.1</ele>
        <time>2020-10-12T15:35:31Z</time>
      </trkpt>
      <trkpt lat="37.842492000" lon="-4.805688000">
        <ele>126.8</ele>
        <time>2020-10-12T15:35:33Z</time>
      </trkpt>
      <trkpt lat="37.842546000" lon="-4.805532000">
        <ele>125.5</ele>
        <time>2020-10-12T15:35:35Z</time>
      </trkpt>
      <trkpt lat="37.842621000" lon="-4.805379000">
        <ele>124.1</ele>
        <time>2020-10-12T15:35:37Z</time>
      </trkpt>
      <trkpt lat="37.842721000" lon="-4.805242000">
        <ele>122.7</ele>
        <time>2020-10-12T15:35:39Z</time>
      </trkpt>
      <trkpt lat="37.842835000" lon="-4.805135000">
        <ele>121.5</ele>
        <time>2020-10-12T15:35:41Z</time>
      </trkpt>
      <trkpt lat="37.842943000" lon="-4.805064000">
        <ele>120.2</ele>
        <time>2020-10-12T15:35:43Z</time>
      </trkpt>
      <trkpt lat="37.843056000" lon="-4.805012000">
        <ele>118.9</ele>
        <time>2020-10-12T15:35:45Z</time>
      </trkpt>
      <trkpt lat="37.843165000" lon="-4.804962000">
        <ele>117.5</ele>
        <time>2020-10-12T15:35:47Z</time>
      </trkpt>
      <trkpt lat="37.843261000" lon="-4.804909000">
        <ele>116.3</ele>
        <time>2020-10-12T15:35:49Z</time>
      </trkpt>
      <trkpt lat="37.843338000" lon="-4.804854000">
        <ele>115.1</ele>
        <time>2020-10-12T15:35:51Z</time>
      </trkpt>
      <trkpt lat="37.843416000" lon="-4.804812000">
        <ele>114.1</ele>
        <time>2020-10-12T15:35:53Z</time>
      </trkpt>
      <trkpt lat="37.843510000" lon="-4.804770000">
        <ele>113.3</ele>
        <time>2020-10-12T15:35:56Z</time>
      </trkpt>
      <trkpt lat="37.843530000" lon="-4.804650000">
        <ele>112.5</ele>
        <time>2020-10-12T15:36:13Z</time>
      </trkpt>
      <trkpt lat="37.843454000" lon="-4.804582000">
        <ele>111.6</ele>
        <time>2020-10-12T15:36:16Z</time>
      </trkpt>
      <trkpt lat="37.843368000" lon="-4.804476000">
        <ele>110.9</ele>
        <time>2020-10-12T15:36:19Z</time>
      </trkpt>
      <trkpt lat="37.843334000" lon="-4.804361000">
        <ele>110.2</ele>
        <time>2020-10-12T15:36:21Z</time>
      </trkpt>
      <trkpt lat="37.843332000" lon="-4.804245000">
        <ele>109.5</ele>
        <time>2020-10-12T15:36:23Z</time>
      </trkpt>
      <trkpt lat="37.843354000" lon="-4.804132000">
        <ele>108.7</ele>
        <time>2020-10-12T15:36:25Z</time>
      </trkpt>
      <trkpt lat="37.843378000" lon="-4.804026000">
        <ele>108.2</ele>
        <time>2020-10-12T15:36:27Z</time>
      </trkpt>
      <trkpt lat="37.843381000" lon="-4.803915000">
        <ele>107.5</ele>
        <time>2020-10-12T15:36:29Z</time>
      </trkpt>
      <trkpt lat="37.843363000" lon="-4.803801000">
        <ele>106.8</ele>
        <time>2020-10-12T15:36:31Z</time>
      </trkpt>
      <trkpt lat="37.843334000" lon="-4.803693000">
        <ele>106.1</ele>
        <time>2020-10-12T15:36:33Z</time>
      </trkpt>
      <trkpt lat="37.843308000" lon="-4.803574000">
        <ele>105.5</ele>
        <time>2020-10-12T15:36:35Z</time>
      </trkpt>
      <trkpt lat="37.843287000" lon="-4.803453000">
        <ele>105.0</ele>
        <time>2020-10-12T15:36:37Z</time>
      </trkpt>
      <trkpt lat="37.843260000" lon="-4.803326000">
        <ele>104.7</ele>
        <time>2020-10-12T15:36:39Z</time>
      </trkpt>
      <trkpt lat="37.843242000" lon="-4.803183000">
        <ele>104.5</ele>
        <time>2020-10-12T15:36:41Z</time>
      </trkpt>
      <trkpt lat="37.843234000" lon="-4.803036000">
        <ele>104.4</ele>
        <time>2020-10-12T15:36:43Z</time>
      </trkpt>
      <trkpt lat="37.843228000" lon="-4.802878000">
        <ele>104.4</ele>
        <time>2020-10-12T15:36:45Z</time>
      </trkpt>
      <trkpt lat="37.843241000" lon="-4.802711000">
        <ele>104.5</ele>
        <time>2020-10-12T15:36:47Z</time>
      </trkpt>
      <trkpt lat="37.843268000" lon="-4.802547000">
        <ele>104.5</ele>
        <time>2020-10-12T15:36:49Z</time>
      </trkpt>
      <trkpt lat="37.843305000" lon="-4.802383000">
        <ele>104.7</ele>
        <time>2020-10-12T15:36:51Z</time>
      </trkpt>
      <trkpt lat="37.843340000" lon="-4.802236000">
        <ele>104.9</ele>
        <time>2020-10-12T15:36:53Z</time>
      </trkpt>
      <trkpt lat="37.843379000" lon="-4.802081000">
        <ele>105.1</ele>
        <time>2020-10-12T15:36:55Z</time>
      </trkpt>
      <trkpt lat="37.843401000" lon="-4.801887000">
        <ele>105.2</ele>
        <time>2020-10-12T15:36:59Z</time>
      </trkpt>
      <trkpt lat="37.843430000" lon="-4.801746000">
        <ele>105.2</ele>
        <time>2020-10-12T15:37:00Z</time>
      </trkpt>
      <trkpt lat="37.843464000" lon="-4.801622000">
        <ele>105.2</ele>
        <time>2020-10-12T15:37:01Z</time>
      </trkpt>
      <trkpt lat="37.843499000" lon="-4.801463000">
        <ele>105.4</ele>
        <time>2020-10-12T15:37:03Z</time>
      </trkpt>
      <trkpt lat="37.843529000" lon="-4.801306000">
        <ele>105.5</ele>
        <time>2020-10-12T15:37:05Z</time>
      </trkpt>
      <trkpt lat="37.843575000" lon="-4.801165000">
        <ele>105.9</ele>
        <time>2020-10-12T15:37:07Z</time>
      </trkpt>
      <trkpt lat="37.843625000" lon="-4.801033000">
        <ele>106.2</ele>
        <time>2020-10-12T15:37:09Z</time>
      </trkpt>
      <trkpt lat="37.843682000" lon="-4.800904000">
        <ele>106.5</ele>
        <time>2020-10-12T15:37:11Z</time>
      </trkpt>
      <trkpt lat="37.843751000" lon="-4.800791000">
        <ele>106.6</ele>
        <time>2020-10-12T15:37:13Z</time>
      </trkpt>
      <trkpt lat="37.843826000" lon="-4.800680000">
        <ele>106.8</ele>
        <time>2020-10-12T15:37:15Z</time>
      </trkpt>
      <trkpt lat="37.843903000" lon="-4.800579000">
        <ele>107.0</ele>
        <time>2020-10-12T15:37:17Z</time>
      </trkpt>
      <trkpt lat="37.843993000" lon="-4.800498000">
        <ele>107.1</ele>
        <time>2020-10-12T15:37:19Z</time>
      </trkpt>
      <trkpt lat="37.844081000" lon="-4.800426000">
        <ele>107.1</ele>
        <time>2020-10-12T15:37:21Z</time>
      </trkpt>
      <trkpt lat="37.844172000" lon="-4.800358000">
        <ele>106.9</ele>
        <time>2020-10-12T15:37:23Z</time>
      </trkpt>
      <trkpt lat="37.844261000" lon="-4.800308000">
        <ele>106.5</ele>
        <time>2020-10-12T15:37:25Z</time>
      </trkpt>
      <trkpt lat="37.844360000" lon="-4.800295000">
        <ele>105.9</ele>
        <time>2020-10-12T15:37:27Z</time>
      </trkpt>
      <trkpt lat="37.844450000" lon="-4.800298000">
        <ele>105.2</ele>
        <time>2020-10-12T15:37:29Z</time>
      </trkpt>
      <trkpt lat="37.844560000" lon="-4.800291000">
        <ele>104.5</ele>
        <time>2020-10-12T15:37:32Z</time>
      </trkpt>
      <trkpt lat="37.844644000" lon="-4.800215000">
        <ele>103.9</ele>
        <time>2020-10-12T15:38:57Z</time>
      </trkpt>
      <trkpt lat="37.844722000" lon="-4.800172000">
        <ele>103.4</ele>
        <time>2020-10-12T15:39:00Z</time>
      </trkpt>
      <trkpt lat="37.844821000" lon="-4.800146000">
        <ele>102.9</ele>
        <time>2020-10-12T15:39:03Z</time>
      </trkpt>
      <trkpt lat="37.844903000" lon="-4.800065000">
        <ele>102.5</ele>
        <time>2020-10-12T15:39:06Z</time>
      </trkpt>
      <trkpt lat="37.844972000" lon="-4.799964000">
        <ele>102.3</ele>
        <time>2020-10-12T15:39:09Z</time>
      </trkpt>
      <trkpt lat="37.845054000" lon="-4.799885000">
        <ele>102.0</ele>
        <time>2020-10-12T15:39:12Z</time>
      </trkpt>
      <trkpt lat="37.845153000" lon="-4.799877000">
        <ele>101.7</ele>
        <time>2020-10-12T15:39:15Z</time>
      </trkpt>
      <trkpt lat="37.845244000" lon="-4.799948000">
        <ele>101.5</ele>
        <time>2020-10-12T15:39:18Z</time>
      </trkpt>
      <trkpt lat="37.845299000" lon="-4.800024000">
        <ele>101.4</ele>
        <time>2020-10-12T15:39:20Z</time>
      </trkpt>
      <trkpt lat="37.845360000" lon="-4.800099000">
        <ele>101.1</ele>
        <time>2020-10-12T15:39:22Z</time>
      </trkpt>
      <trkpt lat="37.845424000" lon="-4.800191000">
        <ele>100.8</ele>
        <time>2020-10-12T15:39:24Z</time>
      </trkpt>
      <trkpt lat="37.845493000" lon="-4.800287000">
        <ele>100.5</ele>
        <time>2020-10-12T15:39:26Z</time>
      </trkpt>
      <trkpt lat="37.845569000" lon="-4.800385000">
        <ele>100.3</ele>
        <time>2020-10-12T15:39:28Z</time>
      </trkpt>
      <trkpt lat="37.845643000" lon="-4.800488000">
        <ele>100.0</ele>
        <time>2020-10-12T15:39:30Z</time>
      </trkpt>
      <trkpt lat="37.845723000" lon="-4.800595000">
        <ele>99.7</ele>
        <time>2020-10-12T15:39:32Z</time>
      </trkpt>
      <trkpt lat="37.845804000" lon="-4.800694000">
        <ele>99.4</ele>
        <time>2020-10-12T15:39:34Z</time>
      </trkpt>
      <trkpt lat="37.845887000" lon="-4.800809000">
        <ele>99.0</ele>
        <time>2020-10-12T15:39:36Z</time>
      </trkpt>
      <trkpt lat="37.845967000" lon="-4.800919000">
        <ele>98.7</ele>
        <time>2020-10-12T15:39:38Z</time>
      </trkpt>
      <trkpt lat="37.846053000" lon="-4.801037000">
        <ele>98.5</ele>
        <time>2020-10-12T15:39:40Z</time>
      </trkpt>
      <trkpt lat="37.846141000" lon="-4.801156000">
        <ele>98.1</ele>
        <time>2020-10-12T15:39:42Z</time>
      </trkpt>
      <trkpt lat="37.846227000" lon="-4.801271000">
        <ele>97.8</ele>
        <time>2020-10-12T15:39:44Z</time>
      </trkpt>
      <trkpt lat="37.846313000" lon="-4.801394000">
        <ele>97.5</ele>
        <time>2020-10-12T15:39:46Z</time>
      </trkpt>
      <trkpt lat="37.846405000" lon="-4.801517000">
        <ele>97.1</ele>
        <time>2020-10-12T15:39:48Z</time>
      </trkpt>
      <trkpt lat="37.846498000" lon="-4.801637000">
        <ele>96.6</ele>
        <time>2020-10-12T15:39:50Z</time>
      </trkpt>
      <trkpt lat="37.846588000" lon="-4.801758000">
        <ele>96.1</ele>
        <time>2020-10-12T15:39:52Z</time>
      </trkpt>
      <trkpt lat="37.846694000" lon="-4.801861000">
        <ele>95.5</ele>
        <time>2020-10-12T15:39:54Z</time>
      </trkpt>
      <trkpt lat="37.846827000" lon="-4.801918000">
        <ele>94.8</ele>
        <time>2020-10-12T15:39:56Z</time>
      </trkpt>
      <trkpt lat="37.846958000" lon="-4.801903000">
        <ele>94.3</ele>
        <time>2020-10-12T15:39:58Z</time>
      </trkpt>
      <trkpt lat="37.847075000" lon="-4.801870000">
        <ele>93.8</ele>
        <time>2020-10-12T15:40:00Z</time>
      </trkpt>
      <trkpt lat="37.847194000" lon="-4.801833000">
        <ele>93.4</ele>
        <time>2020-10-12T15:40:02Z</time>
      </trkpt>
      <trkpt lat="37.847312000" lon="-4.801800000">
        <ele>93.0</ele>
        <time>2020-10-12T15:40:04Z</time>
      </trkpt>
      <trkpt lat="37.847433000" lon="-4.801764000">
        <ele>92.7</ele>
        <time>2020-10-12T15:40:06Z</time>
      </trkpt>
      <trkpt lat="37.847550000" lon="-4.801729000">
        <ele>92.5</ele>
        <time>2020-10-12T15:40:08Z</time>
      </trkpt>
      <trkpt lat="37.847668000" lon="-4.801691000">
        <ele>92.4</ele>
        <time>2020-10-12T15:40:10Z</time>
      </trkpt>
      <trkpt lat="37.847788000" lon="-4.801654000">
        <ele>92.3</ele>
        <time>2020-10-12T15:40:12Z</time>
      </trkpt>
      <trkpt lat="37.847898000" lon="-4.801610000">
        <ele>92.3</ele>
        <time>2020-10-12T15:40:14Z</time>
      </trkpt>
      <trkpt lat="37.848012000" lon="-4.801567000">
        <ele>92.4</ele>
        <time>2020-10-12T15:40:16Z</time>
      </trkpt>
      <trkpt lat="37.848117000" lon="-4.801531000">
        <ele>92.5</ele>
        <time>2020-10-12T15:40:18Z</time>
      </trkpt>
      <trkpt lat="37.848222000" lon="-4.801494000">
        <ele>92.7</ele>
        <time>2020-10-12T15:40:20Z</time>
      </trkpt>
      <trkpt lat="37.848327000" lon="-4.801457000">
        <ele>92.8</ele>
        <time>2020-10-12T15:40:22Z</time>
      </trkpt>
      <trkpt lat="37.848430000" lon="-4.801412000">
        <ele>92.9</ele>
        <time>2020-10-12T15:40:24Z</time>
      </trkpt>
      <trkpt lat="37.848522000" lon="-4.801358000">
        <ele>93.0</ele>
        <time>2020-10-12T15:40:26Z</time>
      </trkpt>
      <trkpt lat="37.848617000" lon="-4.801303000">
        <ele>92.9</ele>
        <time>2020-10-12T15:40:28Z</time>
      </trkpt>
      <trkpt lat="37.848712000" lon="-4.801247000">
        <ele>92.8</ele>
        <time>2020-10-12T15:40:30Z</time>
      </trkpt>
      <trkpt lat="37.848798000" lon="-4.801189000">
        <ele>92.7</ele>
        <time>2020-10-12T15:40:32Z</time>
      </trkpt>
      <trkpt lat="37.848880000" lon="-4.801137000">
        <ele>92.5</ele>
        <time>2020-10-12T15:40:34Z</time>
      </trkpt>
      <trkpt lat="37.848963000" lon="-4.801088000">
        <ele>92.4</ele>
        <time>2020-10-12T15:40:36Z</time>
      </trkpt>
      <trkpt lat="37.849044000" lon="-4.801031000">
        <ele>92.1</ele>
        <time>2020-10-12T15:40:38Z</time>
      </trkpt>
      <trkpt lat="37.849117000" lon="-4.800975000">
        <ele>91.8</ele>
        <time>2020-10-12T15:40:40Z</time>
      </trkpt>
      <trkpt lat="37.849194000" lon="-4.800921000">
        <ele>91.6</ele>
        <time>2020-10-12T15:40:42Z</time>
      </trkpt>
      <trkpt lat="37.849269000" lon="-4.800862000">
        <ele>91.5</ele>
        <time>2020-10-12T15:40:44Z</time>
      </trkpt>
      <trkpt lat="37.849340000" lon="-4.800797000">
        <ele>91.4</ele>
        <time>2020-10-12T15:40:46Z</time>
      </trkpt>
      <trkpt lat="37.849407000" lon="-4.800730000">
        <ele>91.4</ele>
        <time>2020-10-12T15:40:48Z</time>
      </trkpt>
      <trkpt lat="37.849474000" lon="-4.800662000">
        <ele>91.5</ele>
        <time>2020-10-12T15:40:50Z</time>
      </trkpt>
      <trkpt lat="37.849538000" lon="-4.800591000">
        <ele>91.5</ele>
        <time>2020-10-12T15:40:52Z</time>
      </trkpt>
      <trkpt lat="37.849604000" lon="-4.800524000">
        <ele>91.5</ele>
        <time>2020-10-12T15:40:54Z</time>
      </trkpt>
      <trkpt lat="37.849672000" lon="-4.800461000">
        <ele>91.6</ele>
        <time>2020-10-12T15:40:56Z</time>
      </trkpt>
      <trkpt lat="37.849737000" lon="-4.800395000">
        <ele>91.7</ele>
        <time>2020-10-12T15:40:58Z</time>
      </trkpt>
      <trkpt lat="37.849806000" lon="-4.800336000">
        <ele>92.0</ele>
        <time>2020-10-12T15:41:00Z</time>
      </trkpt>
      <trkpt lat="37.849872000" lon="-4.800274000">
        <ele>92.3</ele>
        <time>2020-10-12T15:41:02Z</time>
      </trkpt>
      <trkpt lat="37.849933000" lon="-4.800206000">
        <ele>92.5</ele>
        <time>2020-10-12T15:41:04Z</time>
      </trkpt>
      <trkpt lat="37.850025000" lon="-4.800108000">
        <ele>92.8</ele>
        <time>2020-10-12T15:41:07Z</time>
      </trkpt>
      <trkpt lat="37.850120000" lon="-4.800020000">
        <ele>93.0</ele>
        <time>2020-10-12T15:41:10Z</time>
      </trkpt>
      <trkpt lat="37.850215000" lon="-4.799928000">
        <ele>93.0</ele>
        <time>2020-10-12T15:41:13Z</time>
      </trkpt>
      <trkpt lat="37.850307000" lon="-4.799836000">
        <ele>93.0</ele>
        <time>2020-10-12T15:41:16Z</time>
      </trkpt>
      <trkpt lat="37.850371000" lon="-4.799773000">
        <ele>93.1</ele>
        <time>2020-10-12T15:41:18Z</time>
      </trkpt>
      <trkpt lat="37.850468000" lon="-4.799681000">
        <ele>93.2</ele>
        <time>2020-10-12T15:41:21Z</time>
      </trkpt>
      <trkpt lat="37.850534000" lon="-4.799612000">
        <ele>93.2</ele>
        <time>2020-10-12T15:41:23Z</time>
      </trkpt>
      <trkpt lat="37.850598000" lon="-4.799538000">
        <ele>93.3</ele>
        <time>2020-10-12T15:41:25Z</time>
      </trkpt>
      <trkpt lat="37.850667000" lon="-4.799478000">
        <ele>93.3</ele>
        <time>2020-10-12T15:41:27Z</time>
      </trkpt>
      <trkpt lat="37.850731000" lon="-4.799414000">
        <ele>93.3</ele>
        <time>2020-10-12T15:41:29Z</time>
      </trkpt>
      <trkpt lat="37.850795000" lon="-4.799346000">
        <ele>93.2</ele>
        <time>2020-10-12T15:41:31Z</time>
      </trkpt>
      <trkpt lat="37.850860000" lon="-4.799281000">
        <ele>93.1</ele>
        <time>2020-10-12T15:41:33Z</time>
      </trkpt>
      <trkpt lat="37.850924000" lon="-4.799213000">
        <ele>93.1</ele>
        <time>2020-10-12T15:41:35Z</time>
      </trkpt>
      <trkpt lat="37.850992000" lon="-4.799150000">
        <ele>93.2</ele>
        <time>2020-10-12T15:41:37Z</time>
      </trkpt>
      <trkpt lat="37.851061000" lon="-4.799089000">
        <ele>93.3</ele>
        <time>2020-10-12T15:41:39Z</time>
      </trkpt>
      <trkpt lat="37.851128000" lon="-4.799026000">
        <ele>93.4</ele>
        <time>2020-10-12T15:41:41Z</time>
      </trkpt>
      <trkpt lat="37.851194000" lon="-4.798961000">
        <ele>93.4</ele>
        <time>2020-10-12T15:41:43Z</time>
      </trkpt>
      <trkpt lat="37.851257000" lon="-4.798892000">
        <ele>93.3</ele>
        <time>2020-10-12T15:41:45Z</time>
      </trkpt>
      <trkpt lat="37.851326000" lon="-4.798825000">
        <ele>93.2</ele>
        <time>2020-10-12T15:41:47Z</time>
      </trkpt>
      <trkpt lat="37.851396000" lon="-4.798758000">
        <ele>93.1</ele>
        <time>2020-10-12T15:41:49Z</time>
      </trkpt>
      <trkpt lat="37.851462000" lon="-4.798690000">
        <ele>93.0</ele>
        <time>2020-10-12T15:41:51Z</time>
      </trkpt>
      <trkpt lat="37.851527000" lon="-4.798620000">
        <ele>92.9</ele>
        <time>2020-10-12T15:41:53Z</time>
      </trkpt>
      <trkpt lat="37.851592000" lon="-4.798552000">
        <ele>92.8</ele>
        <time>2020-10-12T15:41:55Z</time>
      </trkpt>
      <trkpt lat="37.851662000" lon="-4.798493000">
        <ele>92.7</ele>
        <time>2020-10-12T15:41:57Z</time>
      </trkpt>
      <trkpt lat="37.851734000" lon="-4.798438000">
        <ele>92.6</ele>
        <time>2020-10-12T15:41:59Z</time>
      </trkpt>
      <trkpt lat="37.851802000" lon="-4.798381000">
        <ele>92.6</ele>
        <time>2020-10-12T15:42:01Z</time>
      </trkpt>
      <trkpt lat="37.851896000" lon="-4.798286000">
        <ele>92.6</ele>
        <time>2020-10-12T15:42:04Z</time>
      </trkpt>
      <trkpt lat="37.851958000" lon="-4.798220000">
        <ele>92.7</ele>
        <time>2020-10-12T15:42:06Z</time>
      </trkpt>
      <trkpt lat="37.852022000" lon="-4.798154000">
        <ele>92.9</ele>
        <time>2020-10-12T15:42:08Z</time>
      </trkpt>
      <trkpt lat="37.852089000" lon="-4.798090000">
        <ele>93.1</ele>
        <time>2020-10-12T15:42:10Z</time>
      </trkpt>
      <trkpt lat="37.852153000" lon="-4.798022000">
        <ele>93.3</ele>
        <time>2020-10-12T15:42:12Z</time>
      </trkpt>
      <trkpt lat="37.852214000" lon="-4.797951000">
        <ele>93.5</ele>
        <time>2020-10-12T15:42:14Z</time>
      </trkpt>
      <trkpt lat="37.852303000" lon="-4.797852000">
        <ele>93.8</ele>
        <time>2020-10-12T15:42:17Z</time>
      </trkpt>
      <trkpt lat="37.852388000" lon="-4.797757000">
        <ele>94.2</ele>
        <time>2020-10-12T15:42:20Z</time>
      </trkpt>
      <trkpt lat="37.852477000" lon="-4.797668000">
        <ele>94.5</ele>
        <time>2020-10-12T15:42:23Z</time>
      </trkpt>
      <trkpt lat="37.852564000" lon="-4.797577000">
        <ele>94.7</ele>
        <time>2020-10-12T15:42:26Z</time>
      </trkpt>
      <trkpt lat="37.852652000" lon="-4.797485000">
        <ele>94.9</ele>
        <time>2020-10-12T15:42:29Z</time>
      </trkpt>
      <trkpt lat="37.852732000" lon="-4.797404000">
        <ele>95.0</ele>
        <time>2020-10-12T15:42:32Z</time>
      </trkpt>
      <trkpt lat="37.852809000" lon="-4.797331000">
        <ele>95.1</ele>
        <time>2020-10-12T15:42:35Z</time>
      </trkpt>
      <trkpt lat="37.852877000" lon="-4.797261000">
        <ele>95.2</ele>
        <time>2020-10-12T15:42:38Z</time>
      </trkpt>
      <trkpt lat="37.852974000" lon="-4.797192000">
        <ele>95.2</ele>
        <time>2020-10-12T15:42:42Z</time>
      </trkpt>
      <trkpt lat="37.853058000" lon="-4.797110000">
        <ele>95.2</ele>
        <time>2020-10-12T15:42:45Z</time>
      </trkpt>
      <trkpt lat="37.853142000" lon="-4.797024000">
        <ele>95.1</ele>
        <time>2020-10-12T15:42:48Z</time>
      </trkpt>
      <trkpt lat="37.853205000" lon="-4.796959000">
        <ele>95.0</ele>
        <time>2020-10-12T15:42:50Z</time>
      </trkpt>
      <trkpt lat="37.853271000" lon="-4.796887000">
        <ele>94.9</ele>
        <time>2020-10-12T15:42:52Z</time>
      </trkpt>
      <trkpt lat="37.853354000" lon="-4.796808000">
        <ele>94.8</ele>
        <time>2020-10-12T15:42:54Z</time>
      </trkpt>
      <trkpt lat="37.853418000" lon="-4.796736000">
        <ele>94.8</ele>
        <time>2020-10-12T15:42:56Z</time>
      </trkpt>
      <trkpt lat="37.853494000" lon="-4.796620000">
        <ele>94.9</ele>
        <time>2020-10-12T15:42:59Z</time>
      </trkpt>
      <trkpt lat="37.853555000" lon="-4.796531000">
        <ele>95.1</ele>
        <time>2020-10-12T15:43:01Z</time>
      </trkpt>
      <trkpt lat="37.853619000" lon="-4.796429000">
        <ele>95.4</ele>
        <time>2020-10-12T15:43:03Z</time>
      </trkpt>
      <trkpt lat="37.853678000" lon="-4.796336000">
        <ele>95.7</ele>
        <time>2020-10-12T15:43:05Z</time>
      </trkpt>
      <trkpt lat="37.853759000" lon="-4.796223000">
        <ele>96.1</ele>
        <time>2020-10-12T15:43:08Z</time>
      </trkpt>
      <trkpt lat="37.853814000" lon="-4.796131000">
        <ele>96.5</ele>
        <time>2020-10-12T15:43:10Z</time>
      </trkpt>
      <trkpt lat="37.853871000" lon="-4.796038000">
        <ele>96.8</ele>
        <time>2020-10-12T15:43:12Z</time>
      </trkpt>
      <trkpt lat="37.853923000" lon="-4.795955000">
        <ele>97.2</ele>
        <time>2020-10-12T15:43:14Z</time>
      </trkpt>
      <trkpt lat="37.854005000" lon="-4.795836000">
        <ele>97.5</ele>
        <time>2020-10-12T15:43:17Z</time>
      </trkpt>
      <trkpt lat="37.854069000" lon="-4.795750000">
        <ele>97.7</ele>
        <time>2020-10-12T15:43:19Z</time>
      </trkpt>
      <trkpt lat="37.854135000" lon="-4.795660000">
        <ele>97.9</ele>
        <time>2020-10-12T15:43:21Z</time>
      </trkpt>
      <trkpt lat="37.854191000" lon="-4.795574000">
        <ele>98.0</ele>
        <time>2020-10-12T15:43:23Z</time>
      </trkpt>
      <trkpt lat="37.854248000" lon="-4.795492000">
        <ele>98.0</ele>
        <time>2020-10-12T15:43:25Z</time>
      </trkpt>
      <trkpt lat="37.854308000" lon="-4.795413000">
        <ele>97.9</ele>
        <time>2020-10-12T15:43:27Z</time>
      </trkpt>
      <trkpt lat="37.854373000" lon="-4.795331000">
        <ele>97.6</ele>
        <time>2020-10-12T15:43:29Z</time>
      </trkpt>
      <trkpt lat="37.854440000" lon="-4.795253000">
        <ele>97.5</ele>
        <time>2020-10-12T15:43:31Z</time>
      </trkpt>
      <trkpt lat="37.854497000" lon="-4.795177000">
        <ele>97.2</ele>
        <time>2020-10-12T15:43:33Z</time>
      </trkpt>
      <trkpt lat="37.854556000" lon="-4.795104000">
        <ele>96.8</ele>
        <time>2020-10-12T15:43:35Z</time>
      </trkpt>
      <trkpt lat="37.854618000" lon="-4.795039000">
        <ele>96.5</ele>
        <time>2020-10-12T15:43:37Z</time>
      </trkpt>
      <trkpt lat="37.854684000" lon="-4.794975000">
        <ele>96.1</ele>
        <time>2020-10-12T15:43:39Z</time>
      </trkpt>
      <trkpt lat="37.854748000" lon="-4.794913000">
        <ele>95.7</ele>
        <time>2020-10-12T15:43:41Z</time>
      </trkpt>
      <trkpt lat="37.854844000" lon="-4.794833000">
        <ele>95.4</ele>
        <time>2020-10-12T15:43:44Z</time>
      </trkpt>
      <trkpt lat="37.854946000" lon="-4.794754000">
        <ele>95.1</ele>
        <time>2020-10-12T15:43:47Z</time>
      </trkpt>
      <trkpt lat="37.855049000" lon="-4.794680000">
        <ele>95.0</ele>
        <time>2020-10-12T15:43:50Z</time>
      </trkpt>
      <trkpt lat="37.855154000" lon="-4.794607000">
        <ele>94.9</ele>
        <time>2020-10-12T15:43:53Z</time>
      </trkpt>
      <trkpt lat="37.855259000" lon="-4.794535000">
        <ele>95.0</ele>
        <time>2020-10-12T15:43:56Z</time>
      </trkpt>
      <trkpt lat="37.855331000" lon="-4.794488000">
        <ele>95.1</ele>
        <time>2020-10-12T15:43:58Z</time>
      </trkpt>
      <trkpt lat="37.855437000" lon="-4.794416000">
        <ele>95.3</ele>
        <time>2020-10-12T15:44:01Z</time>
      </trkpt>
      <trkpt lat="37.855544000" lon="-4.794340000">
        <ele>95.6</ele>
        <time>2020-10-12T15:44:04Z</time>
      </trkpt>
      <trkpt lat="37.855615000" lon="-4.794288000">
        <ele>96.0</ele>
        <time>2020-10-12T15:44:06Z</time>
      </trkpt>
      <trkpt lat="37.855716000" lon="-4.794211000">
        <ele>96.4</ele>
        <time>2020-10-12T15:44:09Z</time>
      </trkpt>
      <trkpt lat="37.855820000" lon="-4.794133000">
        <ele>96.6</ele>
        <time>2020-10-12T15:44:12Z</time>
      </trkpt>
      <trkpt lat="37.855892000" lon="-4.794085000">
        <ele>96.9</ele>
        <time>2020-10-12T15:44:14Z</time>
      </trkpt>
      <trkpt lat="37.855994000" lon="-4.794008000">
        <ele>97.0</ele>
        <time>2020-10-12T15:44:17Z</time>
      </trkpt>
      <trkpt lat="37.856094000" lon="-4.793938000">
        <ele>97.0</ele>
        <time>2020-10-12T15:44:20Z</time>
      </trkpt>
      <trkpt lat="37.856164000" lon="-4.793884000">
        <ele>97.0</ele>
        <time>2020-10-12T15:44:22Z</time>
      </trkpt>
      <trkpt lat="37.856237000" lon="-4.793835000">
        <ele>96.9</ele>
        <time>2020-10-12T15:44:24Z</time>
      </trkpt>
      <trkpt lat="37.856307000" lon="-4.793783000">
        <ele>96.9</ele>
        <time>2020-10-12T15:44:26Z</time>
      </trkpt>
      <trkpt lat="37.856376000" lon="-4.793729000">
        <ele>96.9</ele>
        <time>2020-10-12T15:44:28Z</time>
      </trkpt>
      <trkpt lat="37.856448000" lon="-4.793676000">
        <ele>96.8</ele>
        <time>2020-10-12T15:44:30Z</time>
      </trkpt>
      <trkpt lat="37.856522000" lon="-4.793626000">
        <ele>96.7</ele>
        <time>2020-10-12T15:44:32Z</time>
      </trkpt>
      <trkpt lat="37.856595000" lon="-4.793576000">
        <ele>96.7</ele>
        <time>2020-10-12T15:44:34Z</time>
      </trkpt>
      <trkpt lat="37.856666000" lon="-4.793522000">
        <ele>96.8</ele>
        <time>2020-10-12T15:44:36Z</time>
      </trkpt>
      <trkpt lat="37.856768000" lon="-4.793440000">
        <ele>96.9</ele>
        <time>2020-10-12T15:44:39Z</time>
      </trkpt>
      <trkpt lat="37.856839000" lon="-4.793390000">
        <ele>97.1</ele>
        <time>2020-10-12T15:44:41Z</time>
      </trkpt>
      <trkpt lat="37.856933000" lon="-4.793309000">
        <ele>97.3</ele>
        <time>2020-10-12T15:44:44Z</time>
      </trkpt>
      <trkpt lat="37.857020000" lon="-4.793215000">
        <ele>97.5</ele>
        <time>2020-10-12T15:44:47Z</time>
      </trkpt>
      <trkpt lat="37.857109000" lon="-4.793115000">
        <ele>97.6</ele>
        <time>2020-10-12T15:44:50Z</time>
      </trkpt>
      <trkpt lat="37.857193000" lon="-4.793010000">
        <ele>97.7</ele>
        <time>2020-10-12T15:44:53Z</time>
      </trkpt>
      <trkpt lat="37.857269000" lon="-4.792898000">
        <ele>97.8</ele>
        <time>2020-10-12T15:44:56Z</time>
      </trkpt>
      <trkpt lat="37.857356000" lon="-4.792792000">
        <ele>97.9</ele>
        <time>2020-10-12T15:44:59Z</time>
      </trkpt>
      <trkpt lat="37.857411000" lon="-4.792717000">
        <ele>98.0</ele>
        <time>2020-10-12T15:45:01Z</time>
      </trkpt>
      <trkpt lat="37.857492000" lon="-4.792604000">
        <ele>98.1</ele>
        <time>2020-10-12T15:45:04Z</time>
      </trkpt>
      <trkpt lat="37.857546000" lon="-4.792525000">
        <ele>98.2</ele>
        <time>2020-10-12T15:45:06Z</time>
      </trkpt>
      <trkpt lat="37.857600000" lon="-4.792448000">
        <ele>98.3</ele>
        <time>2020-10-12T15:45:08Z</time>
      </trkpt>
      <trkpt lat="37.857683000" lon="-4.792339000">
        <ele>98.4</ele>
        <time>2020-10-12T15:45:11Z</time>
      </trkpt>
      <trkpt lat="37.857766000" lon="-4.792236000">
        <ele>98.5</ele>
        <time>2020-10-12T15:45:14Z</time>
      </trkpt>
      <trkpt lat="37.857856000" lon="-4.792133000">
        <ele>98.5</ele>
        <time>2020-10-12T15:45:17Z</time>
      </trkpt>
      <trkpt lat="37.857941000" lon="-4.792031000">
        <ele>98.5</ele>
        <time>2020-10-12T15:45:20Z</time>
      </trkpt>
      <trkpt lat="37.858026000" lon="-4.791930000">
        <ele>98.5</ele>
        <time>2020-10-12T15:45:23Z</time>
      </trkpt>
      <trkpt lat="37.858105000" lon="-4.791826000">
        <ele>98.5</ele>
        <time>2020-10-12T15:45:26Z</time>
      </trkpt>
      <trkpt lat="37.858158000" lon="-4.791707000">
        <ele>98.4</ele>
        <time>2020-10-12T15:45:29Z</time>
      </trkpt>
      <trkpt lat="37.858207000" lon="-4.791582000">
        <ele>98.2</ele>
        <time>2020-10-12T15:45:32Z</time>
      </trkpt>
      <trkpt lat="37.858250000" lon="-4.791453000">
        <ele>97.8</ele>
        <time>2020-10-12T15:45:35Z</time>
      </trkpt>
      <trkpt lat="37.858350000" lon="-4.791407000">
        <ele>97.4</ele>
        <time>2020-10-12T15:45:38Z</time>
      </trkpt>
      <trkpt lat="37.858431000" lon="-4.791420000">
        <ele>96.9</ele>
        <time>2020-10-12T15:45:40Z</time>
      </trkpt>
      <trkpt lat="37.858513000" lon="-4.791423000">
        <ele>96.4</ele>
        <time>2020-10-12T15:45:42Z</time>
      </trkpt>
      <trkpt lat="37.858623000" lon="-4.791354000">
        <ele>95.7</ele>
        <time>2020-10-12T15:45:45Z</time>
      </trkpt>
      <trkpt lat="37.858689000" lon="-4.791276000">
        <ele>95.1</ele>
        <time>2020-10-12T15:45:47Z</time>
      </trkpt>
      <trkpt lat="37.858761000" lon="-4.791199000">
        <ele>94.5</ele>
        <time>2020-10-12T15:45:49Z</time>
      </trkpt>
      <trkpt lat="37.858839000" lon="-4.791124000">
        <ele>93.9</ele>
        <time>2020-10-12T15:45:51Z</time>
      </trkpt>
      <trkpt lat="37.858920000" lon="-4.791041000">
        <ele>93.5</ele>
        <time>2020-10-12T15:45:53Z</time>
      </trkpt>
      <trkpt lat="37.859014000" lon="-4.790952000">
        <ele>93.3</ele>
        <time>2020-10-12T15:45:55Z</time>
      </trkpt>
      <trkpt lat="37.859105000" lon="-4.790856000">
        <ele>93.2</ele>
        <time>2020-10-12T15:45:57Z</time>
      </trkpt>
      <trkpt lat="37.859194000" lon="-4.790759000">
        <ele>93.1</ele>
        <time>2020-10-12T15:45:59Z</time>
      </trkpt>
      <trkpt lat="37.859274000" lon="-4.790639000">
        <ele>93.1</ele>
        <time>2020-10-12T15:46:01Z</time>
      </trkpt>
      <trkpt lat="37.859347000" lon="-4.790509000">
        <ele>93.1</ele>
        <time>2020-10-12T15:46:03Z</time>
      </trkpt>
      <trkpt lat="37.859411000" lon="-4.790386000">
        <ele>93.1</ele>
        <time>2020-10-12T15:46:05Z</time>
      </trkpt>
      <trkpt lat="37.859471000" lon="-4.790289000">
        <ele>93.2</ele>
        <time>2020-10-12T15:46:07Z</time>
      </trkpt>
      <trkpt lat="37.859531000" lon="-4.790198000">
        <ele>93.2</ele>
        <time>2020-10-12T15:46:09Z</time>
      </trkpt>
      <trkpt lat="37.859578000" lon="-4.790114000">
        <ele>93.3</ele>
        <time>2020-10-12T15:46:11Z</time>
      </trkpt>
      <trkpt lat="37.859634000" lon="-4.790004000">
        <ele>93.3</ele>
        <time>2020-10-12T15:46:14Z</time>
      </trkpt>
      <trkpt lat="37.859698000" lon="-4.789899000">
        <ele>93.3</ele>
        <time>2020-10-12T15:46:17Z</time>
      </trkpt>
      <trkpt lat="37.859764000" lon="-4.789780000">
        <ele>93.2</ele>
        <time>2020-10-12T15:46:20Z</time>
      </trkpt>
      <trkpt lat="37.859833000" lon="-4.789658000">
        <ele>93.1</ele>
        <time>2020-10-12T15:46:23Z</time>
      </trkpt>
      <trkpt lat="37.859873000" lon="-4.789565000">
        <ele>93.1</ele>
        <time>2020-10-12T15:46:25Z</time>
      </trkpt>
      <trkpt lat="37.859901000" lon="-4.789462000">
        <ele>93.2</ele>
        <time>2020-10-12T15:46:27Z</time>
      </trkpt>
      <trkpt lat="37.859914000" lon="-4.789353000">
        <ele>93.3</ele>
        <time>2020-10-12T15:46:29Z</time>
      </trkpt>
      <trkpt lat="37.859911000" lon="-4.789243000">
        <ele>93.5</ele>
        <time>2020-10-12T15:46:31Z</time>
      </trkpt>
      <trkpt lat="37.859901000" lon="-4.789136000">
        <ele>93.6</ele>
        <time>2020-10-12T15:46:33Z</time>
      </trkpt>
      <trkpt lat="37.859896000" lon="-4.789030000">
        <ele>93.9</ele>
        <time>2020-10-12T15:46:35Z</time>
      </trkpt>
      <trkpt lat="37.859888000" lon="-4.788923000">
        <ele>94.3</ele>
        <time>2020-10-12T15:46:37Z</time>
      </trkpt>
      <trkpt lat="37.859886000" lon="-4.788812000">
        <ele>94.7</ele>
        <time>2020-10-12T15:46:39Z</time>
      </trkpt>
      <trkpt lat="37.859891000" lon="-4.788704000">
        <ele>95.1</ele>
        <time>2020-10-12T15:46:41Z</time>
      </trkpt>
      <trkpt lat="37.859922000" lon="-4.788557000">
        <ele>95.5</ele>
        <time>2020-10-12T15:46:44Z</time>
      </trkpt>
      <trkpt lat="37.859954000" lon="-4.788458000">
        <ele>96.0</ele>
        <time>2020-10-12T15:46:46Z</time>
      </trkpt>
      <trkpt lat="37.860007000" lon="-4.788322000">
        <ele>96.5</ele>
        <time>2020-10-12T15:46:49Z</time>
      </trkpt>
      <trkpt lat="37.860042000" lon="-4.788228000">
        <ele>97.1</ele>
        <time>2020-10-12T15:46:51Z</time>
      </trkpt>
      <trkpt lat="37.860086000" lon="-4.788121000">
        <ele>97.7</ele>
        <time>2020-10-12T15:46:53Z</time>
      </trkpt>
      <trkpt lat="37.860141000" lon="-4.788008000">
        <ele>98.4</ele>
        <time>2020-10-12T15:46:55Z</time>
      </trkpt>
      <trkpt lat="37.860188000" lon="-4.787896000">
        <ele>99.0</ele>
        <time>2020-10-12T15:46:57Z</time>
      </trkpt>
      <trkpt lat="37.860240000" lon="-4.787794000">
        <ele>99.5</ele>
        <time>2020-10-12T15:46:59Z</time>
      </trkpt>
      <trkpt lat="37.860286000" lon="-4.787700000">
        <ele>100.0</ele>
        <time>2020-10-12T15:47:01Z</time>
      </trkpt>
      <trkpt lat="37.860333000" lon="-4.787613000">
        <ele>100.3</ele>
        <time>2020-10-12T15:47:03Z</time>
      </trkpt>
      <trkpt lat="37.860396000" lon="-4.787504000">
        <ele>100.5</ele>
        <time>2020-10-12T15:47:06Z</time>
      </trkpt>
      <trkpt lat="37.860467000" lon="-4.787379000">
        <ele>100.5</ele>
        <time>2020-10-12T15:47:09Z</time>
      </trkpt>
      <trkpt lat="37.860516000" lon="-4.787293000">
        <ele>100.5</ele>
        <time>2020-10-12T15:47:11Z</time>
      </trkpt>
      <trkpt lat="37.860559000" lon="-4.787190000">
        <ele>100.5</ele>
        <time>2020-10-12T15:47:13Z</time>
      </trkpt>
      <trkpt lat="37.860602000" lon="-4.787086000">
        <ele>100.5</ele>
        <time>2020-10-12T15:47:15Z</time>
      </trkpt>
      <trkpt lat="37.860664000" lon="-4.786994000">
        <ele>100.3</ele>
        <time>2020-10-12T15:47:17Z</time>
      </trkpt>
      <trkpt lat="37.860724000" lon="-4.786875000">
        <ele>100.1</ele>
        <time>2020-10-12T15:47:20Z</time>
      </trkpt>
      <trkpt lat="37.860769000" lon="-4.786752000">
        <ele>99.9</ele>
        <time>2020-10-12T15:47:23Z</time>
      </trkpt>
      <trkpt lat="37.860838000" lon="-4.786630000">
        <ele>99.7</ele>
        <time>2020-10-12T15:47:26Z</time>
      </trkpt>
      <trkpt lat="37.860904000" lon="-4.786509000">
        <ele>99.5</ele>
        <time>2020-10-12T15:47:29Z</time>
      </trkpt>
      <trkpt lat="37.860963000" lon="-4.786408000">
        <ele>99.5</ele>
        <time>2020-10-12T15:47:32Z</time>
      </trkpt>
      <trkpt lat="37.861018000" lon="-4.786333000">
        <ele>99.5</ele>
        <time>2020-10-12T15:47:35Z</time>
      </trkpt>
      <trkpt lat="37.861076000" lon="-4.786246000">
        <ele>99.5</ele>
        <time>2020-10-12T15:47:38Z</time>
      </trkpt>
      <trkpt lat="37.861144000" lon="-4.786147000">
        <ele>99.5</ele>
        <time>2020-10-12T15:47:41Z</time>
      </trkpt>
      <trkpt lat="37.861217000" lon="-4.786062000">
        <ele>99.4</ele>
        <time>2020-10-12T15:47:44Z</time>
      </trkpt>
      <trkpt lat="37.861294000" lon="-4.785970000">
        <ele>99.3</ele>
        <time>2020-10-12T15:47:47Z</time>
      </trkpt>
      <trkpt lat="37.861354000" lon="-4.785874000">
        <ele>99.1</ele>
        <time>2020-10-12T15:47:50Z</time>
      </trkpt>
      <trkpt lat="37.861411000" lon="-4.785790000">
        <ele>98.8</ele>
        <time>2020-10-12T15:47:53Z</time>
      </trkpt>
      <trkpt lat="37.861473000" lon="-4.785714000">
        <ele>98.5</ele>
        <time>2020-10-12T15:47:56Z</time>
      </trkpt>
      <trkpt lat="37.861536000" lon="-4.785615000">
        <ele>98.2</ele>
        <time>2020-10-12T15:47:59Z</time>
      </trkpt>
      <trkpt lat="37.861607000" lon="-4.785545000">
        <ele>98.0</ele>
        <time>2020-10-12T15:48:02Z</time>
      </trkpt>
      <trkpt lat="37.861685000" lon="-4.785450000">
        <ele>97.8</ele>
        <time>2020-10-12T15:48:06Z</time>
      </trkpt>
      <trkpt lat="37.861750000" lon="-4.785348000">
        <ele>97.6</ele>
        <time>2020-10-12T15:48:10Z</time>
      </trkpt>
      <trkpt lat="37.861806000" lon="-4.785248000">
        <ele>97.5</ele>
        <time>2020-10-12T15:48:14Z</time>
      </trkpt>
      <trkpt lat="37.861865000" lon="-4.785151000">
        <ele>97.4</ele>
        <time>2020-10-12T15:48:19Z</time>
      </trkpt>
      <trkpt lat="37.861790000" lon="-4.785090000">
        <ele>97.2</ele>
        <time>2020-10-12T15:48:46Z</time>
      </trkpt>
      <trkpt lat="37.861727000" lon="-4.784995000">
        <ele>97.1</ele>
        <time>2020-10-12T15:48:50Z</time>
      </trkpt>
      <trkpt lat="37.861667000" lon="-4.784882000">
        <ele>97.1</ele>
        <time>2020-10-12T15:48:54Z</time>
      </trkpt>
      <trkpt lat="37.861668000" lon="-4.784768000">
        <ele>97.2</ele>
        <time>2020-10-12T15:48:58Z</time>
      </trkpt>
      <trkpt lat="37.861736000" lon="-4.784684000">
        <ele>97.3</ele>
        <time>2020-10-12T15:49:01Z</time>
      </trkpt>
      <trkpt lat="37.861785000" lon="-4.784568000">
        <ele>97.4</ele>
        <time>2020-10-12T15:49:04Z</time>
      </trkpt>
      <trkpt lat="37.861787000" lon="-4.784458000">
        <ele>97.4</ele>
        <time>2020-10-12T15:49:07Z</time>
      </trkpt>
      <trkpt lat="37.861755000" lon="-4.784338000">
        <ele>97.4</ele>
        <time>2020-10-12T15:49:11Z</time>
      </trkpt>
      <trkpt lat="37.861833000" lon="-4.784246000">
        <ele>97.4</ele>
        <time>2020-10-12T15:49:15Z</time>
      </trkpt>
      <trkpt lat="37.861913000" lon="-4.784215000">
        <ele>97.2</ele>
        <time>2020-10-12T15:49:18Z</time>
      </trkpt>
      <trkpt lat="37.862027000" lon="-4.784234000">
        <ele>97.1</ele>
        <time>2020-10-12T15:49:21Z</time>
      </trkpt>
      <trkpt lat="37.862145000" lon="-4.784231000">
        <ele>97.0</ele>
        <time>2020-10-12T15:49:24Z</time>
      </trkpt>
      <trkpt lat="37.862246000" lon="-4.784223000">
        <ele>96.8</ele>
        <time>2020-10-12T15:49:27Z</time>
      </trkpt>
      <trkpt lat="37.862344000" lon="-4.784228000">
        <ele>96.6</ele>
        <time>2020-10-12T15:49:30Z</time>
      </trkpt>
      <trkpt lat="37.862442000" lon="-4.784253000">
        <ele>96.5</ele>
        <time>2020-10-12T15:49:33Z</time>
      </trkpt>
      <trkpt lat="37.862541000" lon="-4.784235000">
        <ele>96.5</ele>
        <time>2020-10-12T15:49:36Z</time>
      </trkpt>
      <trkpt lat="37.862640000" lon="-4.784167000">
        <ele>96.5</ele>
        <time>2020-10-12T15:49:39Z</time>
      </trkpt>
      <trkpt lat="37.862742000" lon="-4.784095000">
        <ele>96.5</ele>
        <time>2020-10-12T15:49:42Z</time>
      </trkpt>
      <trkpt lat="37.862816000" lon="-4.784042000">
        <ele>96.5</ele>
        <time>2020-10-12T15:49:44Z</time>
      </trkpt>
      <trkpt lat="37.862893000" lon="-4.783989000">
        <ele>96.5</ele>
        <time>2020-10-12T15:49:46Z</time>
      </trkpt>
      <trkpt lat="37.862967000" lon="-4.783932000">
        <ele>96.6</ele>
        <time>2020-10-12T15:49:48Z</time>
      </trkpt>
      <trkpt lat="37.863038000" lon="-4.783875000">
        <ele>96.6</ele>
        <time>2020-10-12T15:49:50Z</time>
      </trkpt>
      <trkpt lat="37.863110000" lon="-4.783822000">
        <ele>96.5</ele>
        <time>2020-10-12T15:49:52Z</time>
      </trkpt>
      <trkpt lat="37.863181000" lon="-4.783767000">
        <ele>96.5</ele>
        <time>2020-10-12T15:49:54Z</time>
      </trkpt>
      <trkpt lat="37.863253000" lon="-4.783717000">
        <ele>96.3</ele>
        <time>2020-10-12T15:49:56Z</time>
      </trkpt>
      <trkpt lat="37.863325000" lon="-4.783669000">
        <ele>96.0</ele>
        <time>2020-10-12T15:49:58Z</time>
      </trkpt>
      <trkpt lat="37.863433000" lon="-4.783604000">
        <ele>95.7</ele>
        <time>2020-10-12T15:50:01Z</time>
      </trkpt>
      <trkpt lat="37.863538000" lon="-4.783529000">
        <ele>95.5</ele>
        <time>2020-10-12T15:50:04Z</time>
      </trkpt>
      <trkpt lat="37.863608000" lon="-4.783477000">
        <ele>95.2</ele>
        <time>2020-10-12T15:50:06Z</time>
      </trkpt>
      <trkpt lat="37.863682000" lon="-4.783423000">
        <ele>94.9</ele>
        <time>2020-10-12T15:50:08Z</time>
      </trkpt>
      <trkpt lat="37.863758000" lon="-4.783370000">
        <ele>94.7</ele>
        <time>2020-10-12T15:50:10Z</time>
      </trkpt>
      <trkpt lat="37.863830000" lon="-4.783306000">
        <ele>94.5</ele>
        <time>2020-10-12T15:50:12Z</time>
      </trkpt>
      <trkpt lat="37.863902000" lon="-4.783248000">
        <ele>94.5</ele>
        <time>2020-10-12T15:50:14Z</time>
      </trkpt>
      <trkpt lat="37.863978000" lon="-4.783198000">
        <ele>94.7</ele>
        <time>2020-10-12T15:50:16Z</time>
      </trkpt>
      <trkpt lat="37.864051000" lon="-4.783138000">
        <ele>94.9</ele>
        <time>2020-10-12T15:50:18Z</time>
      </trkpt>
      <trkpt lat="37.864123000" lon="-4.783083000">
        <ele>95.3</ele>
        <time>2020-10-12T15:50:20Z</time>
      </trkpt>
      <trkpt lat="37.864198000" lon="-4.783038000">
        <ele>95.6</ele>
        <time>2020-10-12T15:50:22Z</time>
      </trkpt>
      <trkpt lat="37.864271000" lon="-4.782986000">
        <ele>96.1</ele>
        <time>2020-10-12T15:50:24Z</time>
      </trkpt>
      <trkpt lat="37.864345000" lon="-4.782932000">
        <ele>96.5</ele>
        <time>2020-10-12T15:50:26Z</time>
      </trkpt>
      <trkpt lat="37.864444000" lon="-4.782861000">
        <ele>97.0</ele>
        <time>2020-10-12T15:50:29Z</time>
      </trkpt>
      <trkpt lat="37.864534000" lon="-4.782797000">
        <ele>97.5</ele>
        <time>2020-10-12T15:50:32Z</time>
      </trkpt>
      <trkpt lat="37.864622000" lon="-4.782726000">
        <ele>97.9</ele>
        <time>2020-10-12T15:50:35Z</time>
      </trkpt>
      <trkpt lat="37.864636000" lon="-4.782615000">
        <ele>98.3</ele>
        <time>2020-10-12T15:50:38Z</time>
      </trkpt>
      <trkpt lat="37.864665000" lon="-4.782503000">
        <ele>98.5</ele>
        <time>2020-10-12T15:50:41Z</time>
      </trkpt>
      <trkpt lat="37.864703000" lon="-4.782386000">
        <ele>98.7</ele>
        <time>2020-10-12T15:50:44Z</time>
      </trkpt>
      <trkpt lat="37.864776000" lon="-4.782271000">
        <ele>99.0</ele>
        <time>2020-10-12T15:50:47Z</time>
      </trkpt>
      <trkpt lat="37.864855000" lon="-4.782192000">
        <ele>99.2</ele>
        <time>2020-10-12T15:50:50Z</time>
      </trkpt>
      <trkpt lat="37.864938000" lon="-4.782143000">
        <ele>99.4</ele>
        <time>2020-10-12T15:50:59Z</time>
      </trkpt>
      <trkpt lat="37.865024000" lon="-4.782110000">
        <ele>99.5</ele>
        <time>2020-10-12T15:51:02Z</time>
      </trkpt>
      <trkpt lat="37.865124000" lon="-4.782091000">
        <ele>99.6</ele>
        <time>2020-10-12T15:51:05Z</time>
      </trkpt>
      <trkpt lat="37.865223000" lon="-4.782085000">
        <ele>99.8</ele>
        <time>2020-10-12T15:51:08Z</time>
      </trkpt>
      <trkpt lat="37.865324000" lon="-4.782103000">
        <ele>99.9</ele>
        <time>2020-10-12T15:51:11Z</time>
      </trkpt>
      <trkpt lat="37.865412000" lon="-4.782153000">
        <ele>100.1</ele>
        <time>2020-10-12T15:51:15Z</time>
      </trkpt>
      <trkpt lat="37.865511000" lon="-4.782153000">
        <ele>100.3</ele>
        <time>2020-10-12T15:51:19Z</time>
      </trkpt>
      <trkpt lat="37.865593000" lon="-4.782105000">
        <ele>100.4</ele>
        <time>2020-10-12T15:51:22Z</time>
      </trkpt>
      <trkpt lat="37.865682000" lon="-4.782041000">
        <ele>100.5</ele>
        <time>2020-10-12T15:51:25Z</time>
      </trkpt>
      <trkpt lat="37.865774000" lon="-4.781966000">
        <ele>100.4</ele>
        <time>2020-10-12T15:51:28Z</time>
      </trkpt>
      <trkpt lat="37.865871000" lon="-4.781896000">
        <ele>100.3</ele>
        <time>2020-10-12T15:51:31Z</time>
      </trkpt>
      <trkpt lat="37.865966000" lon="-4.781828000">
        <ele>100.1</ele>
        <time>2020-10-12T15:51:34Z</time>
      </trkpt>
      <trkpt lat="37.866063000" lon="-4.781754000">
        <ele>99.8</ele>
        <time>2020-10-12T15:51:37Z</time>
      </trkpt>
      <trkpt lat="37.866142000" lon="-4.781691000">
        <ele>99.4</ele>
        <time>2020-10-12T15:51:41Z</time>
      </trkpt>
      <trkpt lat="37.866228000" lon="-4.781624000">
        <ele>98.8</ele>
        <time>2020-10-12T15:51:45Z</time>
      </trkpt>
      <trkpt lat="37.866319000" lon="-4.781562000">
        <ele>98.4</ele>
        <time>2020-10-12T15:51:48Z</time>
      </trkpt>
      <trkpt lat="37.866392000" lon="-4.781478000">
        <ele>97.9</ele>
        <time>2020-10-12T15:51:51Z</time>
      </trkpt>
      <trkpt lat="37.866478000" lon="-4.781403000">
        <ele>97.5</ele>
        <time>2020-10-12T15:51:54Z</time>
      </trkpt>
      <trkpt lat="37.866582000" lon="-4.781334000">
        <ele>97.1</ele>
        <time>2020-10-12T15:51:57Z</time>
      </trkpt>
      <trkpt lat="37.866686000" lon="-4.781262000">
        <ele>96.8</ele>
        <time>2020-10-12T15:52:00Z</time>
      </trkpt>
      <trkpt lat="37.866761000" lon="-4.781216000">
        <ele>96.7</ele>
        <time>2020-10-12T15:52:02Z</time>
      </trkpt>
      <trkpt lat="37.866836000" lon="-4.781165000">
        <ele>96.6</ele>
        <time>2020-10-12T15:52:04Z</time>
      </trkpt>
      <trkpt lat="37.866911000" lon="-4.781115000">
        <ele>96.6</ele>
        <time>2020-10-12T15:52:06Z</time>
      </trkpt>
      <trkpt lat="37.866980000" lon="-4.781061000">
        <ele>96.7</ele>
        <time>2020-10-12T15:52:08Z</time>
      </trkpt>
      <trkpt lat="37.867081000" lon="-4.780993000">
        <ele>96.9</ele>
        <time>2020-10-12T15:52:11Z</time>
      </trkpt>
      <trkpt lat="37.867177000" lon="-4.780930000">
        <ele>97.2</ele>
        <time>2020-10-12T15:52:14Z</time>
      </trkpt>
      <trkpt lat="37.867277000" lon="-4.780860000">
        <ele>97.4</ele>
        <time>2020-10-12T15:52:17Z</time>
      </trkpt>
      <trkpt lat="37.867385000" lon="-4.780786000">
        <ele>97.5</ele>
        <time>2020-10-12T15:52:20Z</time>
      </trkpt>
      <trkpt lat="37.867463000" lon="-4.780728000">
        <ele>97.7</ele>
        <time>2020-10-12T15:52:22Z</time>
      </trkpt>
      <trkpt lat="37.867533000" lon="-4.780664000">
        <ele>97.9</ele>
        <time>2020-10-12T15:52:24Z</time>
      </trkpt>
      <trkpt lat="37.867614000" lon="-4.780608000">
        <ele>98.0</ele>
        <time>2020-10-12T15:52:26Z</time>
      </trkpt>
      <trkpt lat="37.867695000" lon="-4.780555000">
        <ele>97.9</ele>
        <time>2020-10-12T15:52:28Z</time>
      </trkpt>
      <trkpt lat="37.867775000" lon="-4.780501000">
        <ele>97.8</ele>
        <time>2020-10-12T15:52:30Z</time>
      </trkpt>
      <trkpt lat="37.867879000" lon="-4.780414000">
        <ele>97.6</ele>
        <time>2020-10-12T15:52:33Z</time>
      </trkpt>
      <trkpt lat="37.867957000" lon="-4.780364000">
        <ele>97.5</ele>
        <time>2020-10-12T15:52:35Z</time>
      </trkpt>
      <trkpt lat="37.868059000" lon="-4.780283000">
        <ele>97.3</ele>
        <time>2020-10-12T15:52:38Z</time>
      </trkpt>
      <trkpt lat="37.868159000" lon="-4.780207000">
        <ele>97.1</ele>
        <time>2020-10-12T15:52:41Z</time>
      </trkpt>
      <trkpt lat="37.868260000" lon="-4.780139000">
        <ele>97.0</ele>
        <time>2020-10-12T15:52:44Z</time>
      </trkpt>
      <trkpt lat="37.868360000" lon="-4.780076000">
        <ele>96.9</ele>
        <time>2020-10-12T15:52:47Z</time>
      </trkpt>
      <trkpt lat="37.868453000" lon="-4.780011000">
        <ele>96.8</ele>
        <time>2020-10-12T15:52:50Z</time>
      </trkpt>
      <trkpt lat="37.868553000" lon="-4.779940000">
        <ele>96.7</ele>
        <time>2020-10-12T15:52:53Z</time>
      </trkpt>
      <trkpt lat="37.868654000" lon="-4.779874000">
        <ele>96.6</ele>
        <time>2020-10-12T15:52:56Z</time>
      </trkpt>
      <trkpt lat="37.868747000" lon="-4.779804000">
        <ele>96.7</ele>
        <time>2020-10-12T15:52:59Z</time>
      </trkpt>
      <trkpt lat="37.868830000" lon="-4.779748000">
        <ele>96.8</ele>
        <time>2020-10-12T15:53:02Z</time>
      </trkpt>
      <trkpt lat="37.868910000" lon="-4.779692000">
        <ele>97.0</ele>
        <time>2020-10-12T15:53:05Z</time>
      </trkpt>
      <trkpt lat="37.868997000" lon="-4.779639000">
        <ele>97.3</ele>
        <time>2020-10-12T15:53:08Z</time>
      </trkpt>
      <trkpt lat="37.869081000" lon="-4.779586000">
        <ele>97.5</ele>
        <time>2020-10-12T15:53:11Z</time>
      </trkpt>
      <trkpt lat="37.869166000" lon="-4.779528000">
        <ele>97.5</ele>
        <time>2020-10-12T15:53:14Z</time>
      </trkpt>
      <trkpt lat="37.869245000" lon="-4.779478000">
        <ele>97.5</ele>
        <time>2020-10-12T15:53:17Z</time>
      </trkpt>
      <trkpt lat="37.869339000" lon="-4.779427000">
        <ele>97.5</ele>
        <time>2020-10-12T15:53:21Z</time>
      </trkpt>
      <trkpt lat="37.869418000" lon="-4.779363000">
        <ele>97.5</ele>
        <time>2020-10-12T15:53:26Z</time>
      </trkpt>
      <trkpt lat="37.869499000" lon="-4.779434000">
        <ele>97.5</ele>
        <time>2020-10-12T15:53:31Z</time>
      </trkpt>
      <trkpt lat="37.869543000" lon="-4.779539000">
        <ele>97.4</ele>
        <time>2020-10-12T15:53:34Z</time>
      </trkpt>
      <trkpt lat="37.869604000" lon="-4.779619000">
        <ele>97.3</ele>
        <time>2020-10-12T15:53:37Z</time>
      </trkpt>
      <trkpt lat="37.869705000" lon="-4.779570000">
        <ele>97.3</ele>
        <time>2020-10-12T15:53:41Z</time>
      </trkpt>
      <trkpt lat="37.869804000" lon="-4.779548000">
        <ele>97.3</ele>
        <time>2020-10-12T15:53:44Z</time>
      </trkpt>
      <trkpt lat="37.869915000" lon="-4.779542000">
        <ele>97.3</ele>
        <time>2020-10-12T15:53:47Z</time>
      </trkpt>
      <trkpt lat="37.870029000" lon="-4.779564000">
        <ele>97.4</ele>
        <time>2020-10-12T15:53:50Z</time>
      </trkpt>
      <trkpt lat="37.870140000" lon="-4.779610000">
        <ele>97.5</ele>
        <time>2020-10-12T15:53:53Z</time>
      </trkpt>
      <trkpt lat="37.870239000" lon="-4.779682000">
        <ele>97.8</ele>
        <time>2020-10-12T15:53:56Z</time>
      </trkpt>
      <trkpt lat="37.870328000" lon="-4.779774000">
        <ele>98.1</ele>
        <time>2020-10-12T15:53:59Z</time>
      </trkpt>
      <trkpt lat="37.870380000" lon="-4.779889000">
        <ele>98.5</ele>
        <time>2020-10-12T15:54:02Z</time>
      </trkpt>
      <trkpt lat="37.870418000" lon="-4.779998000">
        <ele>98.9</ele>
        <time>2020-10-12T15:54:05Z</time>
      </trkpt>
      <trkpt lat="37.870497000" lon="-4.780056000">
        <ele>99.5</ele>
        <time>2020-10-12T15:54:08Z</time>
      </trkpt>
      <trkpt lat="37.870564000" lon="-4.780173000">
        <ele>99.9</ele>
        <time>2020-10-12T15:54:11Z</time>
      </trkpt>
      <trkpt lat="37.870618000" lon="-4.780271000">
        <ele>100.2</ele>
        <time>2020-10-12T15:54:13Z</time>
      </trkpt>
      <trkpt lat="37.870685000" lon="-4.780392000">
        <ele>100.4</ele>
        <time>2020-10-12T15:54:16Z</time>
      </trkpt>
      <trkpt lat="37.870749000" lon="-4.780498000">
        <ele>100.3</ele>
        <time>2020-10-12T15:54:19Z</time>
      </trkpt>
      <trkpt lat="37.870798000" lon="-4.780595000">
        <ele>99.9</ele>
        <time>2020-10-12T15:54:21Z</time>
      </trkpt>
      <trkpt lat="37.870847000" lon="-4.780684000">
        <ele>99.4</ele>
        <time>2020-10-12T15:54:23Z</time>
      </trkpt>
      <trkpt lat="37.870926000" lon="-4.780802000">
        <ele>98.5</ele>
        <time>2020-10-12T15:54:26Z</time>
      </trkpt>
      <trkpt lat="37.870986000" lon="-4.780896000">
        <ele>97.9</ele>
        <time>2020-10-12T15:54:29Z</time>
      </trkpt>
      <trkpt lat="37.871033000" lon="-4.781008000">
        <ele>97.4</ele>
        <time>2020-10-12T15:54:33Z</time>
      </trkpt>
      <trkpt lat="37.871110000" lon="-4.781101000">
        <ele>97.1</ele>
        <time>2020-10-12T15:54:37Z</time>
      </trkpt>
      <trkpt lat="37.871169000" lon="-4.781183000">
        <ele>96.9</ele>
        <time>2020-10-12T15:54:41Z</time>
      </trkpt>
      <trkpt lat="37.871226000" lon="-4.781277000">
        <ele>96.7</ele>
        <time>2020-10-12T15:54:45Z</time>
      </trkpt>
      <trkpt lat="37.871158000" lon="-4.781186000">
        <ele>96.5</ele>
        <time>2020-10-12T15:54:57Z</time>
      </trkpt>
      <trkpt lat="37.871089000" lon="-4.781098000">
        <ele>96.5</ele>
        <time>2020-10-12T15:55:00Z</time>
      </trkpt>
      <trkpt lat="37.871025000" lon="-4.781010000">
        <ele>96.5</ele>
        <time>2020-10-12T15:55:03Z</time>
      </trkpt>
      <trkpt lat="37.871048000" lon="-4.780897000">
        <ele>96.8</ele>
        <time>2020-10-12T15:55:06Z</time>
      </trkpt>
      <trkpt lat="37.871152000" lon="-4.780853000">
        <ele>97.4</ele>
        <time>2020-10-12T15:55:09Z</time>
      </trkpt>
      <trkpt lat="37.871251000" lon="-4.780883000">
        <ele>98.2</ele>
        <time>2020-10-12T15:55:12Z</time>
      </trkpt>
      <trkpt lat="37.871339000" lon="-4.780872000">
        <ele>98.8</ele>
        <time>2020-10-12T15:55:15Z</time>
      </trkpt>
      <trkpt lat="37.871422000" lon="-4.780850000">
        <ele>99.3</ele>
        <time>2020-10-12T15:55:18Z</time>
      </trkpt>
      <trkpt lat="37.871498000" lon="-4.780769000">
        <ele>99.5</ele>
        <time>2020-10-12T15:55:21Z</time>
      </trkpt>
      <trkpt lat="37.871580000" lon="-4.780679000">
        <ele>99.6</ele>
        <time>2020-10-12T15:55:24Z</time>
      </trkpt>
      <trkpt lat="37.871663000" lon="-4.780582000">
        <ele>99.7</ele>
        <time>2020-10-12T15:55:27Z</time>
      </trkpt>
      <trkpt lat="37.871755000" lon="-4.780480000">
        <ele>99.9</ele>
        <time>2020-10-12T15:55:30Z</time>
      </trkpt>
      <trkpt lat="37.871816000" lon="-4.780410000">
        <ele>100.1</ele>
        <time>2020-10-12T15:55:32Z</time>
      </trkpt>
      <trkpt lat="37.871880000" lon="-4.780345000">
        <ele>100.4</ele>
        <time>2020-10-12T15:55:34Z</time>
      </trkpt>
      <trkpt lat="37.871943000" lon="-4.780277000">
        <ele>100.5</ele>
        <time>2020-10-12T15:55:36Z</time>
      </trkpt>
      <trkpt lat="37.872032000" lon="-4.780182000">
        <ele>100.7</ele>
        <time>2020-10-12T15:55:39Z</time>
      </trkpt>
      <trkpt lat="37.872120000" lon="-4.780091000">
        <ele>100.8</ele>
        <time>2020-10-12T15:55:42Z</time>
      </trkpt>
      <trkpt lat="37.872210000" lon="-4.779991000">
        <ele>100.8</ele>
        <time>2020-10-12T15:55:45Z</time>
      </trkpt>
      <trkpt lat="37.872295000" lon="-4.779900000">
        <ele>100.8</ele>
        <time>2020-10-12T15:55:48Z</time>
      </trkpt>
      <trkpt lat="37.872381000" lon="-4.779805000">
        <ele>100.8</ele>
        <time>2020-10-12T15:55:51Z</time>
      </trkpt>
      <trkpt lat="37.872469000" lon="-4.779702000">
        <ele>100.8</ele>
        <time>2020-10-12T15:55:54Z</time>
      </trkpt>
      <trkpt lat="37.872532000" lon="-4.779629000">
        <ele>100.8</ele>
        <time>2020-10-12T15:55:56Z</time>
      </trkpt>
      <trkpt lat="37.872597000" lon="-4.779557000">
        <ele>100.8</ele>
        <time>2020-10-12T15:55:58Z</time>
      </trkpt>
      <trkpt lat="37.872665000" lon="-4.779486000">
        <ele>100.8</ele>
        <time>2020-10-12T15:56:00Z</time>
      </trkpt>
      <trkpt lat="37.872731000" lon="-4.779415000">
        <ele>100.8</ele>
        <time>2020-10-12T15:56:02Z</time>
      </trkpt>
      <trkpt lat="37.872796000" lon="-4.779340000">
        <ele>100.8</ele>
        <time>2020-10-12T15:56:04Z</time>
      </trkpt>
      <trkpt lat="37.872862000" lon="-4.779265000">
        <ele>100.9</ele>
        <time>2020-10-12T15:56:06Z</time>
      </trkpt>
      <trkpt lat="37.872927000" lon="-4.779191000">
        <ele>101.0</ele>
        <time>2020-10-12T15:56:08Z</time>
      </trkpt>
      <trkpt lat="37.872994000" lon="-4.779120000">
        <ele>101.2</ele>
        <time>2020-10-12T15:56:10Z</time>
      </trkpt>
      <trkpt lat="37.873057000" lon="-4.779046000">
        <ele>101.4</ele>
        <time>2020-10-12T15:56:12Z</time>
      </trkpt>
      <trkpt lat="37.873118000" lon="-4.778974000">
        <ele>101.5</ele>
        <time>2020-10-12T15:56:14Z</time>
      </trkpt>
      <trkpt lat="37.873206000" lon="-4.778869000">
        <ele>101.5</ele>
        <time>2020-10-12T15:56:18Z</time>
      </trkpt>
      <trkpt lat="37.873266000" lon="-4.778800000">
        <ele>101.6</ele>
        <time>2020-10-12T15:56:19Z</time>
      </trkpt>
      <trkpt lat="37.873357000" lon="-4.778700000">
        <ele>101.7</ele>
        <time>2020-10-12T15:56:22Z</time>
      </trkpt>
      <trkpt lat="37.873422000" lon="-4.778635000">
        <ele>101.7</ele>
        <time>2020-10-12T15:56:24Z</time>
      </trkpt>
      <trkpt lat="37.873484000" lon="-4.778565000">
        <ele>101.5</ele>
        <time>2020-10-12T15:56:26Z</time>
      </trkpt>
      <trkpt lat="37.873546000" lon="-4.778492000">
        <ele>101.3</ele>
        <time>2020-10-12T15:56:28Z</time>
      </trkpt>
      <trkpt lat="37.873613000" lon="-4.778424000">
        <ele>100.9</ele>
        <time>2020-10-12T15:56:30Z</time>
      </trkpt>
      <trkpt lat="37.873678000" lon="-4.778354000">
        <ele>100.5</ele>
        <time>2020-10-12T15:56:32Z</time>
      </trkpt>
      <trkpt lat="37.873742000" lon="-4.778288000">
        <ele>100.0</ele>
        <time>2020-10-12T15:56:34Z</time>
      </trkpt>
      <trkpt lat="37.873831000" lon="-4.778186000">
        <ele>99.5</ele>
        <time>2020-10-12T15:56:37Z</time>
      </trkpt>
      <trkpt lat="37.873920000" lon="-4.778089000">
        <ele>99.0</ele>
        <time>2020-10-12T15:56:40Z</time>
      </trkpt>
      <trkpt lat="37.874003000" lon="-4.777994000">
        <ele>98.5</ele>
        <time>2020-10-12T15:56:43Z</time>
      </trkpt>
      <trkpt lat="37.874076000" lon="-4.777910000">
        <ele>97.9</ele>
        <time>2020-10-12T15:56:46Z</time>
      </trkpt>
      <trkpt lat="37.874153000" lon="-4.777834000">
        <ele>97.4</ele>
        <time>2020-10-12T15:56:49Z</time>
      </trkpt>
      <trkpt lat="37.874228000" lon="-4.777753000">
        <ele>96.9</ele>
        <time>2020-10-12T15:56:52Z</time>
      </trkpt>
      <trkpt lat="37.874305000" lon="-4.777671000">
        <ele>96.6</ele>
        <time>2020-10-12T15:56:55Z</time>
      </trkpt>
      <trkpt lat="37.874385000" lon="-4.777588000">
        <ele>96.5</ele>
        <time>2020-10-12T15:56:58Z</time>
      </trkpt>
      <trkpt lat="37.874466000" lon="-4.777503000">
        <ele>96.2</ele>
        <time>2020-10-12T15:57:01Z</time>
      </trkpt>
      <trkpt lat="37.874542000" lon="-4.777427000">
        <ele>96.0</ele>
        <time>2020-10-12T15:57:04Z</time>
      </trkpt>
      <trkpt lat="37.874612000" lon="-4.777344000">
        <ele>95.9</ele>
        <time>2020-10-12T15:57:07Z</time>
      </trkpt>
      <trkpt lat="37.874678000" lon="-4.777266000">
        <ele>95.8</ele>
        <time>2020-10-12T15:57:10Z</time>
      </trkpt>
      <trkpt lat="37.874761000" lon="-4.777223000">
        <ele>95.8</ele>
        <time>2020-10-12T15:57:14Z</time>
      </trkpt>
      <trkpt lat="37.874843000" lon="-4.777165000">
        <ele>95.9</ele>
        <time>2020-10-12T15:57:18Z</time>
      </trkpt>
      <trkpt lat="37.874902000" lon="-4.777096000">
        <ele>96.1</ele>
        <time>2020-10-12T15:57:25Z</time>
      </trkpt>
      <trkpt lat="37.874961000" lon="-4.777005000">
        <ele>96.4</ele>
        <time>2020-10-12T15:57:31Z</time>
      </trkpt>
      <trkpt lat="37.875044000" lon="-4.776957000">
        <ele>96.6</ele>
        <time>2020-10-12T15:57:36Z</time>
      </trkpt>
      <trkpt lat="37.875102000" lon="-4.776866000">
        <ele>97.0</ele>
        <time>2020-10-12T15:59:31Z</time>
      </trkpt>
      <trkpt lat="37.875161000" lon="-4.776755000">
        <ele>97.4</ele>
        <time>2020-10-12T15:59:35Z</time>
      </trkpt>
      <trkpt lat="37.875179000" lon="-4.776640000">
        <ele>97.8</ele>
        <time>2020-10-12T15:59:38Z</time>
      </trkpt>
      <trkpt lat="37.875240000" lon="-4.776538000">
        <ele>98.2</ele>
        <time>2020-10-12T15:59:41Z</time>
      </trkpt>
      <trkpt lat="37.875315000" lon="-4.776464000">
        <ele>98.5</ele>
        <time>2020-10-12T15:59:44Z</time>
      </trkpt>
      <trkpt lat="37.875385000" lon="-4.776402000">
        <ele>98.6</ele>
        <time>2020-10-12T15:59:47Z</time>
      </trkpt>
      <trkpt lat="37.875457000" lon="-4.776328000">
        <ele>98.8</ele>
        <time>2020-10-12T15:59:50Z</time>
      </trkpt>
      <trkpt lat="37.875536000" lon="-4.776279000">
        <ele>98.8</ele>
        <time>2020-10-12T15:59:53Z</time>
      </trkpt>
      <trkpt lat="37.875617000" lon="-4.776260000">
        <ele>98.6</ele>
        <time>2020-10-12T15:59:57Z</time>
      </trkpt>
      <trkpt lat="37.875705000" lon="-4.776297000">
        <ele>98.3</ele>
        <time>2020-10-12T16:00:01Z</time>
      </trkpt>
      <trkpt lat="37.875776000" lon="-4.776351000">
        <ele>97.8</ele>
        <time>2020-10-12T16:00:04Z</time>
      </trkpt>
      <trkpt lat="37.875834000" lon="-4.776437000">
        <ele>97.2</ele>
        <time>2020-10-12T16:00:08Z</time>
      </trkpt>
      <trkpt lat="37.875851000" lon="-4.776547000">
        <ele>96.4</ele>
        <time>2020-10-12T16:00:13Z</time>
      </trkpt>
      <trkpt lat="37.875831000" lon="-4.776655000">
        <ele>95.5</ele>
        <time>2020-10-12T16:01:33Z</time>
      </trkpt>
      <trkpt lat="37.875827000" lon="-4.776770000">
        <ele>94.5</ele>
        <time>2020-10-12T16:01:40Z</time>
      </trkpt>
      <trkpt lat="37.875852000" lon="-4.776886000">
        <ele>93.6</ele>
        <time>2020-10-12T16:01:47Z</time>
      </trkpt>
      <trkpt lat="37.875911000" lon="-4.776984000">
        <ele>92.7</ele>
        <time>2020-10-12T16:01:52Z</time>
      </trkpt>
      <trkpt lat="37.875981000" lon="-4.777070000">
        <ele>91.8</ele>
        <time>2020-10-12T16:01:56Z</time>
      </trkpt>
      <trkpt lat="37.876068000" lon="-4.777148000">
        <ele>91.0</ele>
        <time>2020-10-12T16:02:00Z</time>
      </trkpt>
      <trkpt lat="37.876135000" lon="-4.777231000">
        <ele>90.3</ele>
        <time>2020-10-12T16:02:04Z</time>
      </trkpt>
      <trkpt lat="37.876202000" lon="-4.777319000">
        <ele>89.6</ele>
        <time>2020-10-12T16:02:08Z</time>
      </trkpt>
      <trkpt lat="37.876267000" lon="-4.777412000">
        <ele>89.1</ele>
        <time>2020-10-12T16:02:12Z</time>
      </trkpt>
      <trkpt lat="37.876327000" lon="-4.777492000">
        <ele>88.6</ele>
        <time>2020-10-12T16:02:16Z</time>
      </trkpt>
      <trkpt lat="37.876389000" lon="-4.777565000">
        <ele>88.5</ele>
        <time>2020-10-12T16:02:20Z</time>
      </trkpt>
      <trkpt lat="37.876447000" lon="-4.777652000">
        <ele>88.4</ele>
        <time>2020-10-12T16:02:25Z</time>
      </trkpt>
      <trkpt lat="37.876510000" lon="-4.777743000">
        <ele>88.4</ele>
        <time>2020-10-12T16:03:10Z</time>
      </trkpt>
      <trkpt lat="37.876564000" lon="-4.777820000">
        <ele>88.3</ele>
        <time>2020-10-12T16:03:13Z</time>
      </trkpt>
      <trkpt lat="37.876626000" lon="-4.777896000">
        <ele>88.3</ele>
        <time>2020-10-12T16:03:16Z</time>
      </trkpt>
      <trkpt lat="37.876678000" lon="-4.777977000">
        <ele>88.3</ele>
        <time>2020-10-12T16:03:19Z</time>
      </trkpt>
      <trkpt lat="37.876736000" lon="-4.778048000">
        <ele>88.3</ele>
        <time>2020-10-12T16:03:22Z</time>
      </trkpt>
      <trkpt lat="37.876811000" lon="-4.778143000">
        <ele>88.2</ele>
        <time>2020-10-12T16:03:26Z</time>
      </trkpt>
      <trkpt lat="37.876885000" lon="-4.778236000">
        <ele>88.1</ele>
        <time>2020-10-12T16:03:30Z</time>
      </trkpt>
      <trkpt lat="37.876959000" lon="-4.778328000">
        <ele>88.1</ele>
        <time>2020-10-12T16:03:34Z</time>
      </trkpt>
      <trkpt lat="37.877042000" lon="-4.778406000">
        <ele>88.1</ele>
        <time>2020-10-12T16:03:38Z</time>
      </trkpt>
      <trkpt lat="37.877118000" lon="-4.778492000">
        <ele>88.0</ele>
        <time>2020-10-12T16:03:42Z</time>
      </trkpt>
      <trkpt lat="37.877175000" lon="-4.778588000">
        <ele>88.0</ele>
        <time>2020-10-12T16:03:46Z</time>
      </trkpt>
      <trkpt lat="37.877248000" lon="-4.778668000">
        <ele>88.2</ele>
        <time>2020-10-12T16:03:50Z</time>
      </trkpt>
      <trkpt lat="37.877319000" lon="-4.778732000">
        <ele>88.5</ele>
        <time>2020-10-12T16:03:54Z</time>
      </trkpt>
      <trkpt lat="37.877380000" lon="-4.778803000">
        <ele>88.8</ele>
        <time>2020-10-12T16:03:58Z</time>
      </trkpt>
      <trkpt lat="37.877463000" lon="-4.778865000">
        <ele>89.4</ele>
        <time>2020-10-12T16:04:03Z</time>
      </trkpt>
      <trkpt lat="37.877536000" lon="-4.778920000">
        <ele>90.1</ele>
        <time>2020-10-12T16:04:54Z</time>
      </trkpt>
      <trkpt lat="37.877611000" lon="-4.778983000">
        <ele>91.0</ele>
        <time>2020-10-12T16:05:06Z</time>
      </trkpt>
      <trkpt lat="37.877669000" lon="-4.778877000">
        <ele>92.0</ele>
        <time>2020-10-12T16:05:11Z</time>
      </trkpt>
      <trkpt lat="37.877716000" lon="-4.778781000">
        <ele>93.0</ele>
        <time>2020-10-12T16:05:15Z</time>
      </trkpt>
      <trkpt lat="37.877764000" lon="-4.778666000">
        <ele>94.1</ele>
        <time>2020-10-12T16:05:20Z</time>
      </trkpt>
      <trkpt lat="37.877806000" lon="-4.778575000">
        <ele>95.2</ele>
        <time>2020-10-12T16:05:23Z</time>
      </trkpt>
      <trkpt lat="37.877861000" lon="-4.778480000">
        <ele>96.3</ele>
        <time>2020-10-12T16:05:27Z</time>
      </trkpt>
      <trkpt lat="37.877914000" lon="-4.778381000">
        <ele>97.2</ele>
        <time>2020-10-12T16:05:31Z</time>
      </trkpt>
      <trkpt lat="37.877968000" lon="-4.778280000">
        <ele>98.1</ele>
        <time>2020-10-12T16:05:34Z</time>
      </trkpt>
      <trkpt lat="37.878027000" lon="-4.778192000">
        <ele>98.9</ele>
        <time>2020-10-12T16:05:37Z</time>
      </trkpt>
      <trkpt lat="37.878101000" lon="-4.778093000">
        <ele>99.5</ele>
        <time>2020-10-12T16:05:41Z</time>
      </trkpt>
      <trkpt lat="37.878161000" lon="-4.777983000">
        <ele>100.0</ele>
        <time>2020-10-12T16:05:44Z</time>
      </trkpt>
      <trkpt lat="37.878218000" lon="-4.777888000">
        <ele>100.4</ele>
        <time>2020-10-12T16:05:47Z</time>
      </trkpt>
      <trkpt lat="37.878270000" lon="-4.777776000">
        <ele>100.7</ele>
        <time>2020-10-12T16:05:51Z</time>
      </trkpt>
      <trkpt lat="37.878330000" lon="-4.777679000">
        <ele>101.0</ele>
        <time>2020-10-12T16:05:54Z</time>
      </trkpt>
      <trkpt lat="37.878390000" lon="-4.777590000">
        <ele>101.2</ele>
        <time>2020-10-12T16:05:57Z</time>
      </trkpt>
      <trkpt lat="37.878446000" lon="-4.777504000">
        <ele>101.4</ele>
        <time>2020-10-12T16:06:00Z</time>
      </trkpt>
      <trkpt lat="37.878511000" lon="-4.777395000">
        <ele>101.5</ele>
        <time>2020-10-12T16:06:03Z</time>
      </trkpt>
      <trkpt lat="37.878574000" lon="-4.777287000">
        <ele>101.6</ele>
        <time>2020-10-12T16:06:06Z</time>
      </trkpt>
      <trkpt lat="37.878631000" lon="-4.777186000">
        <ele>101.8</ele>
        <time>2020-10-12T16:06:09Z</time>
      </trkpt>
      <trkpt lat="37.878685000" lon="-4.777088000">
        <ele>102.0</ele>
        <time>2020-10-12T16:06:12Z</time>
      </trkpt>
      <trkpt lat="37.878738000" lon="-4.776987000">
        <ele>102.2</ele>
        <time>2020-10-12T16:06:15Z</time>
      </trkpt>
      <trkpt lat="37.878791000" lon="-4.776890000">
        <ele>102.3</ele>
        <time>2020-10-12T16:06:18Z</time>
      </trkpt>
      <trkpt lat="37.878852000" lon="-4.776783000">
        <ele>102.4</ele>
        <time>2020-10-12T16:06:21Z</time>
      </trkpt>
      <trkpt lat="37.878913000" lon="-4.776670000">
        <ele>102.4</ele>
        <time>2020-10-12T16:06:24Z</time>
      </trkpt>
      <trkpt lat="37.878974000" lon="-4.776558000">
        <ele>102.3</ele>
        <time>2020-10-12T16:06:27Z</time>
      </trkpt>
      <trkpt lat="37.879034000" lon="-4.776445000">
        <ele>102.2</ele>
        <time>2020-10-12T16:06:30Z</time>
      </trkpt>
      <trkpt lat="37.879100000" lon="-4.776335000">
        <ele>102.2</ele>
        <time>2020-10-12T16:06:33Z</time>
      </trkpt>
      <trkpt lat="37.879168000" lon="-4.776216000">
        <ele>102.1</ele>
        <time>2020-10-12T16:06:36Z</time>
      </trkpt>
      <trkpt lat="37.879222000" lon="-4.776134000">
        <ele>101.8</ele>
        <time>2020-10-12T16:06:38Z</time>
      </trkpt>
      <trkpt lat="37.879271000" lon="-4.776051000">
        <ele>101.5</ele>
        <time>2020-10-12T16:06:40Z</time>
      </trkpt>
      <trkpt lat="37.879339000" lon="-4.775933000">
        <ele>101.3</ele>
        <time>2020-10-12T16:06:43Z</time>
      </trkpt>
      <trkpt lat="37.879404000" lon="-4.775829000">
        <ele>101.0</ele>
        <time>2020-10-12T16:06:46Z</time>
      </trkpt>
      <trkpt lat="37.879456000" lon="-4.775740000">
        <ele>100.9</ele>
        <time>2020-10-12T16:06:49Z</time>
      </trkpt>
      <trkpt lat="37.879511000" lon="-4.775651000">
        <ele>100.9</ele>
        <time>2020-10-12T16:06:52Z</time>
      </trkpt>
      <trkpt lat="37.879570000" lon="-4.775557000">
        <ele>101.0</ele>
        <time>2020-10-12T16:06:55Z</time>
      </trkpt>
      <trkpt lat="37.879623000" lon="-4.775461000">
        <ele>101.0</ele>
        <time>2020-10-12T16:06:59Z</time>
      </trkpt>
      <trkpt lat="37.879697000" lon="-4.775413000">
        <ele>101.0</ele>
        <time>2020-10-12T16:07:03Z</time>
      </trkpt>
      <trkpt lat="37.879777000" lon="-4.775371000">
        <ele>100.9</ele>
        <time>2020-10-12T16:07:07Z</time>
      </trkpt>
      <trkpt lat="37.879855000" lon="-4.775324000">
        <ele>100.9</ele>
        <time>2020-10-12T16:07:13Z</time>
      </trkpt>
      <trkpt lat="37.879896000" lon="-4.775355000">
        <ele>101.0</ele>
        <time>2020-10-12T16:08:34Z</time>
      </trkpt>
      <trkpt lat="37.881037000" lon="-4.775492000">
        <ele>110.5</ele>
        <time>2020-10-13T08:34:27Z</time>
      </trkpt>
      <trkpt lat="37.881054000" lon="-4.775597000">
        <ele>110.6</ele>
        <time>2020-10-13T08:34:36Z</time>
      </trkpt>
      <trkpt lat="37.881042000" lon="-4.775713000">
        <ele>110.5</ele>
        <time>2020-10-13T08:34:44Z</time>
      </trkpt>
      <trkpt lat="37.881019000" lon="-4.775831000">
        <ele>110.3</ele>
        <time>2020-10-13T08:34:46Z</time>
      </trkpt>
      <trkpt lat="37.880939000" lon="-4.775885000">
        <ele>110.1</ele>
        <time>2020-10-13T08:34:50Z</time>
      </trkpt>
      <trkpt lat="37.880837000" lon="-4.775854000">
        <ele>109.8</ele>
        <time>2020-10-13T08:34:54Z</time>
      </trkpt>
      <trkpt lat="37.880727000" lon="-4.775810000">
        <ele>109.5</ele>
        <time>2020-10-13T08:34:57Z</time>
      </trkpt>
      <trkpt lat="37.880643000" lon="-4.775779000">
        <ele>109.3</ele>
        <time>2020-10-13T08:34:59Z</time>
      </trkpt>
      <trkpt lat="37.880558000" lon="-4.775752000">
        <ele>108.8</ele>
        <time>2020-10-13T08:35:01Z</time>
      </trkpt>
      <trkpt lat="37.880481000" lon="-4.775722000">
        <ele>108.2</ele>
        <time>2020-10-13T08:35:03Z</time>
      </trkpt>
      <trkpt lat="37.880402000" lon="-4.775682000">
        <ele>107.4</ele>
        <time>2020-10-13T08:35:05Z</time>
      </trkpt>
      <trkpt lat="37.880316000" lon="-4.775647000">
        <ele>106.5</ele>
        <time>2020-10-13T08:35:07Z</time>
      </trkpt>
      <trkpt lat="37.880239000" lon="-4.775606000">
        <ele>105.5</ele>
        <time>2020-10-13T08:35:09Z</time>
      </trkpt>
      <trkpt lat="37.880156000" lon="-4.775568000">
        <ele>104.6</ele>
        <time>2020-10-13T08:35:11Z</time>
      </trkpt>
      <trkpt lat="37.880051000" lon="-4.775510000">
        <ele>103.8</ele>
        <time>2020-10-13T08:35:14Z</time>
      </trkpt>
      <trkpt lat="37.879954000" lon="-4.775463000">
        <ele>103.1</ele>
        <time>2020-10-13T08:35:17Z</time>
      </trkpt>
      <trkpt lat="37.879872000" lon="-4.775424000">
        <ele>102.5</ele>
        <time>2020-10-13T08:35:20Z</time>
      </trkpt>
      <trkpt lat="37.879784000" lon="-4.775407000">
        <ele>102.0</ele>
        <time>2020-10-13T08:35:24Z</time>
      </trkpt>
      <trkpt lat="37.879691000" lon="-4.775436000">
        <ele>101.5</ele>
        <time>2020-10-13T08:35:29Z</time>
      </trkpt>
      <trkpt lat="37.879634000" lon="-4.775520000">
        <ele>101.2</ele>
        <time>2020-10-13T08:35:32Z</time>
      </trkpt>
      <trkpt lat="37.879548000" lon="-4.775540000">
        <ele>100.9</ele>
        <time>2020-10-13T08:35:35Z</time>
      </trkpt>
      <trkpt lat="37.879474000" lon="-4.775606000">
        <ele>100.7</ele>
        <time>2020-10-13T08:35:38Z</time>
      </trkpt>
      <trkpt lat="37.879418000" lon="-4.775727000">
        <ele>100.7</ele>
        <time>2020-10-13T08:35:41Z</time>
      </trkpt>
      <trkpt lat="37.879367000" lon="-4.775814000">
        <ele>100.8</ele>
        <time>2020-10-13T08:35:43Z</time>
      </trkpt>
      <trkpt lat="37.879322000" lon="-4.775905000">
        <ele>101.1</ele>
        <time>2020-10-13T08:35:45Z</time>
      </trkpt>
      <trkpt lat="37.879271000" lon="-4.776000000">
        <ele>101.4</ele>
        <time>2020-10-13T08:35:47Z</time>
      </trkpt>
      <trkpt lat="37.879227000" lon="-4.776091000">
        <ele>101.6</ele>
        <time>2020-10-13T08:35:49Z</time>
      </trkpt>
      <trkpt lat="37.879180000" lon="-4.776183000">
        <ele>101.9</ele>
        <time>2020-10-13T08:35:51Z</time>
      </trkpt>
      <trkpt lat="37.879133000" lon="-4.776279000">
        <ele>102.1</ele>
        <time>2020-10-13T08:35:53Z</time>
      </trkpt>
      <trkpt lat="37.879078000" lon="-4.776376000">
        <ele>102.2</ele>
        <time>2020-10-13T08:35:55Z</time>
      </trkpt>
      <trkpt lat="37.879023000" lon="-4.776453000">
        <ele>102.3</ele>
        <time>2020-10-13T08:35:57Z</time>
      </trkpt>
      <trkpt lat="37.878970000" lon="-4.776542000">
        <ele>102.4</ele>
        <time>2020-10-13T08:35:59Z</time>
      </trkpt>
      <trkpt lat="37.878904000" lon="-4.776658000">
        <ele>102.5</ele>
        <time>2020-10-13T08:36:02Z</time>
      </trkpt>
      <trkpt lat="37.878849000" lon="-4.776749000">
        <ele>102.5</ele>
        <time>2020-10-13T08:36:04Z</time>
      </trkpt>
      <trkpt lat="37.878803000" lon="-4.776834000">
        <ele>102.4</ele>
        <time>2020-10-13T08:36:06Z</time>
      </trkpt>
      <trkpt lat="37.878750000" lon="-4.776914000">
        <ele>102.2</ele>
        <time>2020-10-13T08:36:08Z</time>
      </trkpt>
      <trkpt lat="37.878705000" lon="-4.777004000">
        <ele>102.0</ele>
        <time>2020-10-13T08:36:10Z</time>
      </trkpt>
      <trkpt lat="37.878655000" lon="-4.777093000">
        <ele>101.8</ele>
        <time>2020-10-13T08:36:12Z</time>
      </trkpt>
      <trkpt lat="37.878603000" lon="-4.777189000">
        <ele>101.6</ele>
        <time>2020-10-13T08:36:14Z</time>
      </trkpt>
      <trkpt lat="37.878531000" lon="-4.777292000">
        <ele>101.5</ele>
        <time>2020-10-13T08:36:16Z</time>
      </trkpt>
      <trkpt lat="37.878471000" lon="-4.777375000">
        <ele>101.4</ele>
        <time>2020-10-13T08:36:18Z</time>
      </trkpt>
      <trkpt lat="37.878429000" lon="-4.777465000">
        <ele>101.2</ele>
        <time>2020-10-13T08:36:20Z</time>
      </trkpt>
      <trkpt lat="37.878381000" lon="-4.777565000">
        <ele>101.0</ele>
        <time>2020-10-13T08:36:22Z</time>
      </trkpt>
      <trkpt lat="37.878324000" lon="-4.777661000">
        <ele>100.8</ele>
        <time>2020-10-13T08:36:24Z</time>
      </trkpt>
      <trkpt lat="37.878249000" lon="-4.777775000">
        <ele>100.5</ele>
        <time>2020-10-13T08:36:27Z</time>
      </trkpt>
      <trkpt lat="37.878196000" lon="-4.777894000">
        <ele>100.3</ele>
        <time>2020-10-13T08:36:30Z</time>
      </trkpt>
      <trkpt lat="37.878133000" lon="-4.778019000">
        <ele>99.9</ele>
        <time>2020-10-13T08:36:33Z</time>
      </trkpt>
      <trkpt lat="37.878070000" lon="-4.778148000">
        <ele>99.4</ele>
        <time>2020-10-13T08:36:36Z</time>
      </trkpt>
      <trkpt lat="37.877997000" lon="-4.778269000">
        <ele>98.6</ele>
        <time>2020-10-13T08:36:39Z</time>
      </trkpt>
      <trkpt lat="37.877945000" lon="-4.778352000">
        <ele>97.8</ele>
        <time>2020-10-13T08:36:41Z</time>
      </trkpt>
      <trkpt lat="37.877894000" lon="-4.778433000">
        <ele>97.0</ele>
        <time>2020-10-13T08:36:43Z</time>
      </trkpt>
      <trkpt lat="37.877855000" lon="-4.778575000">
        <ele>96.0</ele>
        <time>2020-10-13T08:36:46Z</time>
      </trkpt>
      <trkpt lat="37.877802000" lon="-4.778708000">
        <ele>95.0</ele>
        <time>2020-10-13T08:36:49Z</time>
      </trkpt>
      <trkpt lat="37.877760000" lon="-4.778797000">
        <ele>93.9</ele>
        <time>2020-10-13T08:36:51Z</time>
      </trkpt>
      <trkpt lat="37.877717000" lon="-4.778886000">
        <ele>92.8</ele>
        <time>2020-10-13T08:36:53Z</time>
      </trkpt>
      <trkpt lat="37.877650000" lon="-4.779000000">
        <ele>91.8</ele>
        <time>2020-10-13T08:36:56Z</time>
      </trkpt>
      <trkpt lat="37.877564000" lon="-4.779003000">
        <ele>90.8</ele>
        <time>2020-10-13T08:36:59Z</time>
      </trkpt>
      <trkpt lat="37.877471000" lon="-4.778947000">
        <ele>90.0</ele>
        <time>2020-10-13T08:37:03Z</time>
      </trkpt>
      <trkpt lat="37.877394000" lon="-4.778873000">
        <ele>89.4</ele>
        <time>2020-10-13T08:37:07Z</time>
      </trkpt>
      <trkpt lat="37.877329000" lon="-4.778782000">
        <ele>88.9</ele>
        <time>2020-10-13T08:37:11Z</time>
      </trkpt>
      <trkpt lat="37.877269000" lon="-4.778705000">
        <ele>88.5</ele>
        <time>2020-10-13T08:37:14Z</time>
      </trkpt>
      <trkpt lat="37.877205000" lon="-4.778624000">
        <ele>88.3</ele>
        <time>2020-10-13T08:37:17Z</time>
      </trkpt>
      <trkpt lat="37.877135000" lon="-4.778547000">
        <ele>88.2</ele>
        <time>2020-10-13T08:37:20Z</time>
      </trkpt>
      <trkpt lat="37.877064000" lon="-4.778468000">
        <ele>88.2</ele>
        <time>2020-10-13T08:37:23Z</time>
      </trkpt>
      <trkpt lat="37.876992000" lon="-4.778383000">
        <ele>88.3</ele>
        <time>2020-10-13T08:37:26Z</time>
      </trkpt>
      <trkpt lat="37.876916000" lon="-4.778298000">
        <ele>88.3</ele>
        <time>2020-10-13T08:37:29Z</time>
      </trkpt>
      <trkpt lat="37.876839000" lon="-4.778207000">
        <ele>88.3</ele>
        <time>2020-10-13T08:37:32Z</time>
      </trkpt>
      <trkpt lat="37.876768000" lon="-4.778115000">
        <ele>88.4</ele>
        <time>2020-10-13T08:37:35Z</time>
      </trkpt>
      <trkpt lat="37.876697000" lon="-4.778025000">
        <ele>88.4</ele>
        <time>2020-10-13T08:37:38Z</time>
      </trkpt>
      <trkpt lat="37.876630000" lon="-4.777932000">
        <ele>88.4</ele>
        <time>2020-10-13T08:37:41Z</time>
      </trkpt>
      <trkpt lat="37.876561000" lon="-4.777837000">
        <ele>88.5</ele>
        <time>2020-10-13T08:37:44Z</time>
      </trkpt>
      <trkpt lat="37.876487000" lon="-4.777745000">
        <ele>88.5</ele>
        <time>2020-10-13T08:37:47Z</time>
      </trkpt>
      <trkpt lat="37.876415000" lon="-4.777652000">
        <ele>88.6</ele>
        <time>2020-10-13T08:37:50Z</time>
      </trkpt>
      <trkpt lat="37.876340000" lon="-4.777555000">
        <ele>88.8</ele>
        <time>2020-10-13T08:37:53Z</time>
      </trkpt>
      <trkpt lat="37.876270000" lon="-4.777445000">
        <ele>89.2</ele>
        <time>2020-10-13T08:37:56Z</time>
      </trkpt>
      <trkpt lat="37.876195000" lon="-4.777344000">
        <ele>89.6</ele>
        <time>2020-10-13T08:37:59Z</time>
      </trkpt>
      <trkpt lat="37.876120000" lon="-4.777250000">
        <ele>90.3</ele>
        <time>2020-10-13T08:38:02Z</time>
      </trkpt>
      <trkpt lat="37.876045000" lon="-4.777161000">
        <ele>91.0</ele>
        <time>2020-10-13T08:38:05Z</time>
      </trkpt>
      <trkpt lat="37.875977000" lon="-4.777072000">
        <ele>91.8</ele>
        <time>2020-10-13T08:38:08Z</time>
      </trkpt>
      <trkpt lat="37.875898000" lon="-4.776986000">
        <ele>92.7</ele>
        <time>2020-10-13T08:38:12Z</time>
      </trkpt>
      <trkpt lat="37.875837000" lon="-4.776900000">
        <ele>93.6</ele>
        <time>2020-10-13T08:38:17Z</time>
      </trkpt>
      <trkpt lat="37.875801000" lon="-4.776781000">
        <ele>94.5</ele>
        <time>2020-10-13T08:38:22Z</time>
      </trkpt>
      <trkpt lat="37.875802000" lon="-4.776673000">
        <ele>95.5</ele>
        <time>2020-10-13T08:38:26Z</time>
      </trkpt>
      <trkpt lat="37.875808000" lon="-4.776546000">
        <ele>96.3</ele>
        <time>2020-10-13T08:38:31Z</time>
      </trkpt>
      <trkpt lat="37.875811000" lon="-4.776438000">
        <ele>97.0</ele>
        <time>2020-10-13T08:38:35Z</time>
      </trkpt>
      <trkpt lat="37.875838000" lon="-4.776340000">
        <ele>97.5</ele>
        <time>2020-10-13T08:38:40Z</time>
      </trkpt>
      <trkpt lat="37.875796000" lon="-4.776237000">
        <ele>98.0</ele>
        <time>2020-10-13T08:39:15Z</time>
      </trkpt>
      <trkpt lat="37.875725000" lon="-4.776128000">
        <ele>98.4</ele>
        <time>2020-10-13T08:39:19Z</time>
      </trkpt>
      <trkpt lat="37.875669000" lon="-4.776004000">
        <ele>98.6</ele>
        <time>2020-10-13T08:39:22Z</time>
      </trkpt>
      <trkpt lat="37.875626000" lon="-4.775911000">
        <ele>98.8</ele>
        <time>2020-10-13T08:39:24Z</time>
      </trkpt>
      <trkpt lat="37.875584000" lon="-4.775821000">
        <ele>98.9</ele>
        <time>2020-10-13T08:39:26Z</time>
      </trkpt>
      <trkpt lat="37.875522000" lon="-4.775699000">
        <ele>99.0</ele>
        <time>2020-10-13T08:39:29Z</time>
      </trkpt>
      <trkpt lat="37.875471000" lon="-4.775583000">
        <ele>99.0</ele>
        <time>2020-10-13T08:39:32Z</time>
      </trkpt>
      <trkpt lat="37.875418000" lon="-4.775466000">
        <ele>99.1</ele>
        <time>2020-10-13T08:39:35Z</time>
      </trkpt>
      <trkpt lat="37.875370000" lon="-4.775376000">
        <ele>99.2</ele>
        <time>2020-10-13T08:39:38Z</time>
      </trkpt>
      <trkpt lat="37.875328000" lon="-4.775288000">
        <ele>99.3</ele>
        <time>2020-10-13T08:39:42Z</time>
      </trkpt>
      <trkpt lat="37.875277000" lon="-4.775195000">
        <ele>99.4</ele>
        <time>2020-10-13T08:39:45Z</time>
      </trkpt>
      <trkpt lat="37.875212000" lon="-4.775113000">
        <ele>99.5</ele>
        <time>2020-10-13T08:39:48Z</time>
      </trkpt>
      <trkpt lat="37.875172000" lon="-4.774999000">
        <ele>99.5</ele>
        <time>2020-10-13T08:39:51Z</time>
      </trkpt>
      <trkpt lat="37.875131000" lon="-4.774889000">
        <ele>99.6</ele>
        <time>2020-10-13T08:39:54Z</time>
      </trkpt>
      <trkpt lat="37.875093000" lon="-4.774782000">
        <ele>99.7</ele>
        <time>2020-10-13T08:39:57Z</time>
      </trkpt>
      <trkpt lat="37.875061000" lon="-4.774676000">
        <ele>99.8</ele>
        <time>2020-10-13T08:40:00Z</time>
      </trkpt>
      <trkpt lat="37.875031000" lon="-4.774568000">
        <ele>99.8</ele>
        <time>2020-10-13T08:40:03Z</time>
      </trkpt>
      <trkpt lat="37.875007000" lon="-4.774461000">
        <ele>99.8</ele>
        <time>2020-10-13T08:40:06Z</time>
      </trkpt>
      <trkpt lat="37.874983000" lon="-4.774330000">
        <ele>99.7</ele>
        <time>2020-10-13T08:40:10Z</time>
      </trkpt>
      <trkpt lat="37.874957000" lon="-4.774209000">
        <ele>99.6</ele>
        <time>2020-10-13T08:40:14Z</time>
      </trkpt>
      <trkpt lat="37.874930000" lon="-4.774083000">
        <ele>99.5</ele>
        <time>2020-10-13T08:40:18Z</time>
      </trkpt>
      <trkpt lat="37.874909000" lon="-4.773949000">
        <ele>99.5</ele>
        <time>2020-10-13T08:40:22Z</time>
      </trkpt>
      <trkpt lat="37.874902000" lon="-4.773817000">
        <ele>99.6</ele>
        <time>2020-10-13T08:40:25Z</time>
      </trkpt>
      <trkpt lat="37.874826000" lon="-4.773771000">
        <ele>99.7</ele>
        <time>2020-10-13T08:40:29Z</time>
      </trkpt>
      <trkpt lat="37.874736000" lon="-4.773842000">
        <ele>99.9</ele>
        <time>2020-10-13T08:40:34Z</time>
      </trkpt>
      <trkpt lat="37.874657000" lon="-4.773893000">
        <ele>100.1</ele>
        <time>2020-10-13T08:40:37Z</time>
      </trkpt>
      <trkpt lat="37.874567000" lon="-4.773906000">
        <ele>100.3</ele>
        <time>2020-10-13T08:40:44Z</time>
      </trkpt>
      <trkpt lat="37.874505000" lon="-4.773831000">
        <ele>100.5</ele>
        <time>2020-10-13T08:40:48Z</time>
      </trkpt>
      <trkpt lat="37.874443000" lon="-4.773757000">
        <ele>100.6</ele>
        <time>2020-10-13T08:40:51Z</time>
      </trkpt>
      <trkpt lat="37.874387000" lon="-4.773642000">
        <ele>100.8</ele>
        <time>2020-10-13T08:40:55Z</time>
      </trkpt>
      <trkpt lat="37.874410000" lon="-4.773525000">
        <ele>101.0</ele>
        <time>2020-10-13T08:40:59Z</time>
      </trkpt>
      <trkpt lat="37.874489000" lon="-4.773471000">
        <ele>101.1</ele>
        <time>2020-10-13T08:41:02Z</time>
      </trkpt>
      <trkpt lat="37.874577000" lon="-4.773416000">
        <ele>101.0</ele>
        <time>2020-10-13T08:41:06Z</time>
      </trkpt>
      <trkpt lat="37.874623000" lon="-4.773301000">
        <ele>100.7</ele>
        <time>2020-10-13T08:41:11Z</time>
      </trkpt>
      <trkpt lat="37.874660000" lon="-4.773204000">
        <ele>100.4</ele>
        <time>2020-10-13T08:41:15Z</time>
      </trkpt>
      <trkpt lat="37.874662000" lon="-4.773093000">
        <ele>99.8</ele>
        <time>2020-10-13T08:41:18Z</time>
      </trkpt>
      <trkpt lat="37.874652000" lon="-4.772965000">
        <ele>99.2</ele>
        <time>2020-10-13T08:41:21Z</time>
      </trkpt>
      <trkpt lat="37.874647000" lon="-4.772846000">
        <ele>98.5</ele>
        <time>2020-10-13T08:41:24Z</time>
      </trkpt>
      <trkpt lat="37.874665000" lon="-4.772744000">
        <ele>97.9</ele>
        <time>2020-10-13T08:41:27Z</time>
      </trkpt>
      <trkpt lat="37.874673000" lon="-4.772628000">
        <ele>97.3</ele>
        <time>2020-10-13T08:41:30Z</time>
      </trkpt>
      <trkpt lat="37.874663000" lon="-4.772500000">
        <ele>96.7</ele>
        <time>2020-10-13T08:41:33Z</time>
      </trkpt>
      <trkpt lat="37.874657000" lon="-4.772371000">
        <ele>96.2</ele>
        <time>2020-10-13T08:41:36Z</time>
      </trkpt>
      <trkpt lat="37.874650000" lon="-4.772243000">
        <ele>95.7</ele>
        <time>2020-10-13T08:41:39Z</time>
      </trkpt>
      <trkpt lat="37.874640000" lon="-4.772118000">
        <ele>95.4</ele>
        <time>2020-10-13T08:41:42Z</time>
      </trkpt>
      <trkpt lat="37.874625000" lon="-4.771991000">
        <ele>95.0</ele>
        <time>2020-10-13T08:41:45Z</time>
      </trkpt>
      <trkpt lat="37.874617000" lon="-4.771866000">
        <ele>94.7</ele>
        <time>2020-10-13T08:41:48Z</time>
      </trkpt>
      <trkpt lat="37.874607000" lon="-4.771743000">
        <ele>94.5</ele>
        <time>2020-10-13T08:41:51Z</time>
      </trkpt>
      <trkpt lat="37.874595000" lon="-4.771618000">
        <ele>94.4</ele>
        <time>2020-10-13T08:41:54Z</time>
      </trkpt>
      <trkpt lat="37.874584000" lon="-4.771501000">
        <ele>94.1</ele>
        <time>2020-10-13T08:41:57Z</time>
      </trkpt>
      <trkpt lat="37.874578000" lon="-4.771390000">
        <ele>93.8</ele>
        <time>2020-10-13T08:42:00Z</time>
      </trkpt>
      <trkpt lat="37.874569000" lon="-4.771277000">
        <ele>93.5</ele>
        <time>2020-10-13T08:42:03Z</time>
      </trkpt>
      <trkpt lat="37.874557000" lon="-4.771155000">
        <ele>93.2</ele>
        <time>2020-10-13T08:42:06Z</time>
      </trkpt>
      <trkpt lat="37.874546000" lon="-4.771028000">
        <ele>92.9</ele>
        <time>2020-10-13T08:42:09Z</time>
      </trkpt>
      <trkpt lat="37.874531000" lon="-4.770899000">
        <ele>92.7</ele>
        <time>2020-10-13T08:42:18Z</time>
      </trkpt>
      <trkpt lat="37.874505000" lon="-4.770625000">
        <ele>92.6</ele>
        <time>2020-10-13T08:42:19Z</time>
      </trkpt>
      <trkpt lat="37.874503000" lon="-4.770511000">
        <ele>92.7</ele>
        <time>2020-10-13T08:42:24Z</time>
      </trkpt>
      <trkpt lat="37.874494000" lon="-4.770395000">
        <ele>92.9</ele>
        <time>2020-10-13T08:42:25Z</time>
      </trkpt>
      <trkpt lat="37.874485000" lon="-4.770275000">
        <ele>93.1</ele>
        <time>2020-10-13T08:42:28Z</time>
      </trkpt>
      <trkpt lat="37.874471000" lon="-4.770150000">
        <ele>93.4</ele>
        <time>2020-10-13T08:42:31Z</time>
      </trkpt>
      <trkpt lat="37.874461000" lon="-4.770021000">
        <ele>93.7</ele>
        <time>2020-10-13T08:42:34Z</time>
      </trkpt>
      <trkpt lat="37.874444000" lon="-4.769890000">
        <ele>94.1</ele>
        <time>2020-10-13T08:42:37Z</time>
      </trkpt>
      <trkpt lat="37.874436000" lon="-4.769756000">
        <ele>94.3</ele>
        <time>2020-10-13T08:42:40Z</time>
      </trkpt>
      <trkpt lat="37.874427000" lon="-4.769622000">
        <ele>94.4</ele>
        <time>2020-10-13T08:43:04Z</time>
      </trkpt>
      <trkpt lat="37.874391000" lon="-4.769191000">
        <ele>94.4</ele>
        <time>2020-10-13T08:43:05Z</time>
      </trkpt>
      <trkpt lat="37.874381000" lon="-4.769087000">
        <ele>94.3</ele>
        <time>2020-10-13T08:43:05Z</time>
      </trkpt>
      <trkpt lat="37.874367000" lon="-4.768926000">
        <ele>94.2</ele>
        <time>2020-10-13T08:43:08Z</time>
      </trkpt>
      <trkpt lat="37.874306000" lon="-4.768256000">
        <ele>94.1</ele>
        <time>2020-10-13T08:43:10Z</time>
      </trkpt>
      <trkpt lat="37.874295000" lon="-4.768147000">
        <ele>94.0</ele>
        <time>2020-10-13T08:43:12Z</time>
      </trkpt>
      <trkpt lat="37.874286000" lon="-4.768038000">
        <ele>94.0</ele>
        <time>2020-10-13T08:43:14Z</time>
      </trkpt>
      <trkpt lat="37.874282000" lon="-4.767931000">
        <ele>94.0</ele>
        <time>2020-10-13T08:43:16Z</time>
      </trkpt>
      <trkpt lat="37.874274000" lon="-4.767825000">
        <ele>94.1</ele>
        <time>2020-10-13T08:43:18Z</time>
      </trkpt>
      <trkpt lat="37.874263000" lon="-4.767720000">
        <ele>94.3</ele>
        <time>2020-10-13T08:43:20Z</time>
      </trkpt>
      <trkpt lat="37.874252000" lon="-4.767614000">
        <ele>94.6</ele>
        <time>2020-10-13T08:43:22Z</time>
      </trkpt>
      <trkpt lat="37.874240000" lon="-4.767470000">
        <ele>95.1</ele>
        <time>2020-10-13T08:43:25Z</time>
      </trkpt>
      <trkpt lat="37.874235000" lon="-4.767344000">
        <ele>95.5</ele>
        <time>2020-10-13T08:43:29Z</time>
      </trkpt>
      <trkpt lat="37.874230000" lon="-4.767226000">
        <ele>95.9</ele>
        <time>2020-10-13T08:43:31Z</time>
      </trkpt>
      <trkpt lat="37.874209000" lon="-4.767123000">
        <ele>96.2</ele>
        <time>2020-10-13T08:43:34Z</time>
      </trkpt>
      <trkpt lat="37.874160000" lon="-4.767016000">
        <ele>96.3</ele>
        <time>2020-10-13T08:43:38Z</time>
      </trkpt>
      <trkpt lat="37.874157000" lon="-4.767120000">
        <ele>96.2</ele>
        <time>2020-10-13T08:44:40Z</time>
      </trkpt>
      <trkpt lat="37.874198000" lon="-4.767240000">
        <ele>95.9</ele>
        <time>2020-10-13T08:44:43Z</time>
      </trkpt>
      <trkpt lat="37.874229000" lon="-4.767380000">
        <ele>95.5</ele>
        <time>2020-10-13T08:44:46Z</time>
      </trkpt>
      <trkpt lat="37.874245000" lon="-4.767533000">
        <ele>95.1</ele>
        <time>2020-10-13T08:44:49Z</time>
      </trkpt>
      <trkpt lat="37.874250000" lon="-4.767638000">
        <ele>94.6</ele>
        <time>2020-10-13T08:44:51Z</time>
      </trkpt>
      <trkpt lat="37.874256000" lon="-4.767747000">
        <ele>94.3</ele>
        <time>2020-10-13T08:44:53Z</time>
      </trkpt>
      <trkpt lat="37.874262000" lon="-4.767860000">
        <ele>94.0</ele>
        <time>2020-10-13T08:44:55Z</time>
      </trkpt>
      <trkpt lat="37.874286000" lon="-4.767974000">
        <ele>93.8</ele>
        <time>2020-10-13T08:44:57Z</time>
      </trkpt>
      <trkpt lat="37.874298000" lon="-4.768089000">
        <ele>93.7</ele>
        <time>2020-10-13T08:44:59Z</time>
      </trkpt>
      <trkpt lat="37.874305000" lon="-4.768201000">
        <ele>93.6</ele>
        <time>2020-10-13T08:45:01Z</time>
      </trkpt>
      <trkpt lat="37.874315000" lon="-4.768315000">
        <ele>93.6</ele>
        <time>2020-10-13T08:45:03Z</time>
      </trkpt>
      <trkpt lat="37.874320000" lon="-4.768423000">
        <ele>93.8</ele>
        <time>2020-10-13T08:45:05Z</time>
      </trkpt>
      <trkpt lat="37.874328000" lon="-4.768574000">
        <ele>94.1</ele>
        <time>2020-10-13T08:45:08Z</time>
      </trkpt>
      <trkpt lat="37.874347000" lon="-4.768722000">
        <ele>94.5</ele>
        <time>2020-10-13T08:45:11Z</time>
      </trkpt>
      <trkpt lat="37.874365000" lon="-4.768859000">
        <ele>94.8</ele>
        <time>2020-10-13T08:45:14Z</time>
      </trkpt>
      <trkpt lat="37.874378000" lon="-4.768994000">
        <ele>95.2</ele>
        <time>2020-10-13T08:45:17Z</time>
      </trkpt>
      <trkpt lat="37.874386000" lon="-4.769135000">
        <ele>95.4</ele>
        <time>2020-10-13T08:45:20Z</time>
      </trkpt>
      <trkpt lat="37.874401000" lon="-4.769278000">
        <ele>95.4</ele>
        <time>2020-10-13T08:45:23Z</time>
      </trkpt>
      <trkpt lat="37.874416000" lon="-4.769422000">
        <ele>95.2</ele>
        <time>2020-10-13T08:45:26Z</time>
      </trkpt>
      <trkpt lat="37.874432000" lon="-4.769569000">
        <ele>94.9</ele>
        <time>2020-10-13T08:45:29Z</time>
      </trkpt>
      <trkpt lat="37.874442000" lon="-4.769721000">
        <ele>94.5</ele>
        <time>2020-10-13T08:45:32Z</time>
      </trkpt>
      <trkpt lat="37.874454000" lon="-4.769866000">
        <ele>94.2</ele>
        <time>2020-10-13T08:45:35Z</time>
      </trkpt>
      <trkpt lat="37.874468000" lon="-4.770008000">
        <ele>93.7</ele>
        <time>2020-10-13T08:45:38Z</time>
      </trkpt>
      <trkpt lat="37.874473000" lon="-4.770155000">
        <ele>93.4</ele>
        <time>2020-10-13T08:45:41Z</time>
      </trkpt>
      <trkpt lat="37.874481000" lon="-4.770298000">
        <ele>93.0</ele>
        <time>2020-10-13T08:45:44Z</time>
      </trkpt>
      <trkpt lat="37.874491000" lon="-4.770441000">
        <ele>92.7</ele>
        <time>2020-10-13T08:45:47Z</time>
      </trkpt>
      <trkpt lat="37.874504000" lon="-4.770587000">
        <ele>92.5</ele>
        <time>2020-10-13T08:45:50Z</time>
      </trkpt>
      <trkpt lat="37.874514000" lon="-4.770692000">
        <ele>92.5</ele>
        <time>2020-10-13T08:45:52Z</time>
      </trkpt>
      <trkpt lat="37.874525000" lon="-4.770801000">
        <ele>92.5</ele>
        <time>2020-10-13T08:45:54Z</time>
      </trkpt>
      <trkpt lat="37.874532000" lon="-4.770915000">
        <ele>92.6</ele>
        <time>2020-10-13T08:45:56Z</time>
      </trkpt>
      <trkpt lat="37.874542000" lon="-4.771038000">
        <ele>92.8</ele>
        <time>2020-10-13T08:45:58Z</time>
      </trkpt>
      <trkpt lat="37.874551000" lon="-4.771160000">
        <ele>93.1</ele>
        <time>2020-10-13T08:46:00Z</time>
      </trkpt>
      <trkpt lat="37.874562000" lon="-4.771275000">
        <ele>93.5</ele>
        <time>2020-10-13T08:46:02Z</time>
      </trkpt>
      <trkpt lat="37.874569000" lon="-4.771406000">
        <ele>93.9</ele>
        <time>2020-10-13T08:46:05Z</time>
      </trkpt>
      <trkpt lat="37.874495000" lon="-4.771460000">
        <ele>94.4</ele>
        <time>2020-10-13T08:46:09Z</time>
      </trkpt>
      <trkpt lat="37.874404000" lon="-4.771433000">
        <ele>94.9</ele>
        <time>2020-10-13T08:46:40Z</time>
      </trkpt>
      <trkpt lat="37.874313000" lon="-4.771453000">
        <ele>95.5</ele>
        <time>2020-10-13T08:46:43Z</time>
      </trkpt>
      <trkpt lat="37.874208000" lon="-4.771485000">
        <ele>95.9</ele>
        <time>2020-10-13T08:46:46Z</time>
      </trkpt>
      <trkpt lat="37.874130000" lon="-4.771539000">
        <ele>96.4</ele>
        <time>2020-10-13T08:46:49Z</time>
      </trkpt>
      <trkpt lat="37.874045000" lon="-4.771602000">
        <ele>96.7</ele>
        <time>2020-10-13T08:46:52Z</time>
      </trkpt>
      <trkpt lat="37.873960000" lon="-4.771664000">
        <ele>97.1</ele>
        <time>2020-10-13T08:46:55Z</time>
      </trkpt>
      <trkpt lat="37.873852000" lon="-4.771703000">
        <ele>97.5</ele>
        <time>2020-10-13T08:46:58Z</time>
      </trkpt>
      <trkpt lat="37.873747000" lon="-4.771732000">
        <ele>97.8</ele>
        <time>2020-10-13T08:47:01Z</time>
      </trkpt>
      <trkpt lat="37.873656000" lon="-4.771756000">
        <ele>98.0</ele>
        <time>2020-10-13T08:47:04Z</time>
      </trkpt>
      <trkpt lat="37.873556000" lon="-4.771775000">
        <ele>98.1</ele>
        <time>2020-10-13T08:47:07Z</time>
      </trkpt>
      <trkpt lat="37.873440000" lon="-4.771790000">
        <ele>98.1</ele>
        <time>2020-10-13T08:47:10Z</time>
      </trkpt>
      <trkpt lat="37.873355000" lon="-4.771799000">
        <ele>97.9</ele>
        <time>2020-10-13T08:47:12Z</time>
      </trkpt>
      <trkpt lat="37.873271000" lon="-4.771807000">
        <ele>97.6</ele>
        <time>2020-10-13T08:47:14Z</time>
      </trkpt>
      <trkpt lat="37.873148000" lon="-4.771824000">
        <ele>97.4</ele>
        <time>2020-10-13T08:47:17Z</time>
      </trkpt>
      <trkpt lat="37.873061000" lon="-4.771828000">
        <ele>97.0</ele>
        <time>2020-10-13T08:47:19Z</time>
      </trkpt>
      <trkpt lat="37.872973000" lon="-4.771834000">
        <ele>96.6</ele>
        <time>2020-10-13T08:47:21Z</time>
      </trkpt>
      <trkpt lat="37.872884000" lon="-4.771846000">
        <ele>96.4</ele>
        <time>2020-10-13T08:47:23Z</time>
      </trkpt>
      <trkpt lat="37.872787000" lon="-4.771836000">
        <ele>96.1</ele>
        <time>2020-10-13T08:47:25Z</time>
      </trkpt>
      <trkpt lat="37.872689000" lon="-4.771850000">
        <ele>95.8</ele>
        <time>2020-10-13T08:47:27Z</time>
      </trkpt>
      <trkpt lat="37.872595000" lon="-4.771857000">
        <ele>95.7</ele>
        <time>2020-10-13T08:47:29Z</time>
      </trkpt>
      <trkpt lat="37.872497000" lon="-4.771854000">
        <ele>95.7</ele>
        <time>2020-10-13T08:47:31Z</time>
      </trkpt>
      <trkpt lat="37.872402000" lon="-4.771852000">
        <ele>95.8</ele>
        <time>2020-10-13T08:47:33Z</time>
      </trkpt>
      <trkpt lat="37.872306000" lon="-4.771843000">
        <ele>96.1</ele>
        <time>2020-10-13T08:47:35Z</time>
      </trkpt>
      <trkpt lat="37.872205000" lon="-4.771836000">
        <ele>96.5</ele>
        <time>2020-10-13T08:47:37Z</time>
      </trkpt>
      <trkpt lat="37.872109000" lon="-4.771816000">
        <ele>96.8</ele>
        <time>2020-10-13T08:47:39Z</time>
      </trkpt>
      <trkpt lat="37.872012000" lon="-4.771796000">
        <ele>97.3</ele>
        <time>2020-10-13T08:47:41Z</time>
      </trkpt>
      <trkpt lat="37.871917000" lon="-4.771778000">
        <ele>97.6</ele>
        <time>2020-10-13T08:47:43Z</time>
      </trkpt>
      <trkpt lat="37.871822000" lon="-4.771763000">
        <ele>98.0</ele>
        <time>2020-10-13T08:47:45Z</time>
      </trkpt>
      <trkpt lat="37.871729000" lon="-4.771752000">
        <ele>98.4</ele>
        <time>2020-10-13T08:47:47Z</time>
      </trkpt>
      <trkpt lat="37.871642000" lon="-4.771733000">
        <ele>98.7</ele>
        <time>2020-10-13T08:47:49Z</time>
      </trkpt>
      <trkpt lat="37.871553000" lon="-4.771715000">
        <ele>98.9</ele>
        <time>2020-10-13T08:47:51Z</time>
      </trkpt>
      <trkpt lat="37.871462000" lon="-4.771692000">
        <ele>99.0</ele>
        <time>2020-10-13T08:47:53Z</time>
      </trkpt>
      <trkpt lat="37.871374000" lon="-4.771664000">
        <ele>99.0</ele>
        <time>2020-10-13T08:47:55Z</time>
      </trkpt>
      <trkpt lat="37.871285000" lon="-4.771634000">
        <ele>98.9</ele>
        <time>2020-10-13T08:47:57Z</time>
      </trkpt>
      <trkpt lat="37.871200000" lon="-4.771593000">
        <ele>98.7</ele>
        <time>2020-10-13T08:47:59Z</time>
      </trkpt>
      <trkpt lat="37.871115000" lon="-4.771544000">
        <ele>98.5</ele>
        <time>2020-10-13T08:48:01Z</time>
      </trkpt>
      <trkpt lat="37.871030000" lon="-4.771496000">
        <ele>98.5</ele>
        <time>2020-10-13T08:48:03Z</time>
      </trkpt>
      <trkpt lat="37.870944000" lon="-4.771451000">
        <ele>98.5</ele>
        <time>2020-10-13T08:48:05Z</time>
      </trkpt>
      <trkpt lat="37.870858000" lon="-4.771407000">
        <ele>98.5</ele>
        <time>2020-10-13T08:48:07Z</time>
      </trkpt>
      <trkpt lat="37.870776000" lon="-4.771361000">
        <ele>98.6</ele>
        <time>2020-10-13T08:48:09Z</time>
      </trkpt>
      <trkpt lat="37.870693000" lon="-4.771310000">
        <ele>98.8</ele>
        <time>2020-10-13T08:48:11Z</time>
      </trkpt>
      <trkpt lat="37.870606000" lon="-4.771264000">
        <ele>99.1</ele>
        <time>2020-10-13T08:48:13Z</time>
      </trkpt>
      <trkpt lat="37.870518000" lon="-4.771222000">
        <ele>99.4</ele>
        <time>2020-10-13T08:48:15Z</time>
      </trkpt>
      <trkpt lat="37.870434000" lon="-4.771178000">
        <ele>99.6</ele>
        <time>2020-10-13T08:48:17Z</time>
      </trkpt>
      <trkpt lat="37.870352000" lon="-4.771134000">
        <ele>99.9</ele>
        <time>2020-10-13T08:48:19Z</time>
      </trkpt>
      <trkpt lat="37.870273000" lon="-4.771087000">
        <ele>100.2</ele>
        <time>2020-10-13T08:48:21Z</time>
      </trkpt>
      <trkpt lat="37.870194000" lon="-4.771044000">
        <ele>100.5</ele>
        <time>2020-10-13T08:48:23Z</time>
      </trkpt>
      <trkpt lat="37.870117000" lon="-4.771009000">
        <ele>100.5</ele>
        <time>2020-10-13T08:48:25Z</time>
      </trkpt>
      <trkpt lat="37.870006000" lon="-4.770954000">
        <ele>100.6</ele>
        <time>2020-10-13T08:48:28Z</time>
      </trkpt>
      <trkpt lat="37.869907000" lon="-4.770897000">
        <ele>100.5</ele>
        <time>2020-10-13T08:48:31Z</time>
      </trkpt>
      <trkpt lat="37.869801000" lon="-4.770839000">
        <ele>100.5</ele>
        <time>2020-10-13T08:48:34Z</time>
      </trkpt>
      <trkpt lat="37.869723000" lon="-4.770794000">
        <ele>100.3</ele>
        <time>2020-10-13T08:48:36Z</time>
      </trkpt>
      <trkpt lat="37.869638000" lon="-4.770736000">
        <ele>100.1</ele>
        <time>2020-10-13T08:48:38Z</time>
      </trkpt>
      <trkpt lat="37.869562000" lon="-4.770675000">
        <ele>99.9</ele>
        <time>2020-10-13T08:48:40Z</time>
      </trkpt>
      <trkpt lat="37.869464000" lon="-4.770582000">
        <ele>99.7</ele>
        <time>2020-10-13T08:48:43Z</time>
      </trkpt>
      <trkpt lat="37.869372000" lon="-4.770506000">
        <ele>99.5</ele>
        <time>2020-10-13T08:48:46Z</time>
      </trkpt>
      <trkpt lat="37.869295000" lon="-4.770439000">
        <ele>99.5</ele>
        <time>2020-10-13T08:48:49Z</time>
      </trkpt>
      <trkpt lat="37.869224000" lon="-4.770381000">
        <ele>99.4</ele>
        <time>2020-10-13T08:48:52Z</time>
      </trkpt>
      <trkpt lat="37.869136000" lon="-4.770364000">
        <ele>99.4</ele>
        <time>2020-10-13T08:48:55Z</time>
      </trkpt>
      <trkpt lat="37.869053000" lon="-4.770299000">
        <ele>99.4</ele>
        <time>2020-10-13T08:48:58Z</time>
      </trkpt>
      <trkpt lat="37.868963000" lon="-4.770239000">
        <ele>99.5</ele>
        <time>2020-10-13T08:49:01Z</time>
      </trkpt>
      <trkpt lat="37.868868000" lon="-4.770205000">
        <ele>99.5</ele>
        <time>2020-10-13T08:49:04Z</time>
      </trkpt>
      <trkpt lat="37.868783000" lon="-4.770174000">
        <ele>99.6</ele>
        <time>2020-10-13T08:49:07Z</time>
      </trkpt>
      <trkpt lat="37.868703000" lon="-4.770145000">
        <ele>99.7</ele>
        <time>2020-10-13T08:49:10Z</time>
      </trkpt>
      <trkpt lat="37.868611000" lon="-4.770117000">
        <ele>99.8</ele>
        <time>2020-10-13T08:49:13Z</time>
      </trkpt>
      <trkpt lat="37.868519000" lon="-4.770080000">
        <ele>99.9</ele>
        <time>2020-10-13T08:49:16Z</time>
      </trkpt>
      <trkpt lat="37.868421000" lon="-4.770045000">
        <ele>100.0</ele>
        <time>2020-10-13T08:49:19Z</time>
      </trkpt>
      <trkpt lat="37.868312000" lon="-4.770018000">
        <ele>100.0</ele>
        <time>2020-10-13T08:49:22Z</time>
      </trkpt>
      <trkpt lat="37.868202000" lon="-4.769985000">
        <ele>100.0</ele>
        <time>2020-10-13T08:49:25Z</time>
      </trkpt>
      <trkpt lat="37.868092000" lon="-4.769958000">
        <ele>99.9</ele>
        <time>2020-10-13T08:49:28Z</time>
      </trkpt>
      <trkpt lat="37.867992000" lon="-4.769924000">
        <ele>99.8</ele>
        <time>2020-10-13T08:49:31Z</time>
      </trkpt>
      <trkpt lat="37.867920000" lon="-4.770013000">
        <ele>99.7</ele>
        <time>2020-10-13T08:49:35Z</time>
      </trkpt>
      <trkpt lat="37.867892000" lon="-4.770131000">
        <ele>99.6</ele>
        <time>2020-10-13T08:49:38Z</time>
      </trkpt>
      <trkpt lat="37.867872000" lon="-4.770256000">
        <ele>99.5</ele>
        <time>2020-10-13T08:49:41Z</time>
      </trkpt>
      <trkpt lat="37.867846000" lon="-4.770373000">
        <ele>99.5</ele>
        <time>2020-10-13T08:49:44Z</time>
      </trkpt>
      <trkpt lat="37.867822000" lon="-4.770488000">
        <ele>99.4</ele>
        <time>2020-10-13T08:49:47Z</time>
      </trkpt>
      <trkpt lat="37.867806000" lon="-4.770595000">
        <ele>99.4</ele>
        <time>2020-10-13T08:49:50Z</time>
      </trkpt>
      <trkpt lat="37.867723000" lon="-4.770637000">
        <ele>99.4</ele>
        <time>2020-10-13T08:49:57Z</time>
      </trkpt>
      <trkpt lat="37.867632000" lon="-4.770607000">
        <ele>99.4</ele>
        <time>2020-10-13T08:50:00Z</time>
      </trkpt>
      <trkpt lat="37.867526000" lon="-4.770572000">
        <ele>99.5</ele>
        <time>2020-10-13T08:50:03Z</time>
      </trkpt>
      <trkpt lat="37.867416000" lon="-4.770533000">
        <ele>99.6</ele>
        <time>2020-10-13T08:50:06Z</time>
      </trkpt>
      <trkpt lat="37.867304000" lon="-4.770498000">
        <ele>99.9</ele>
        <time>2020-10-13T08:50:09Z</time>
      </trkpt>
      <trkpt lat="37.867190000" lon="-4.770457000">
        <ele>100.2</ele>
        <time>2020-10-13T08:50:12Z</time>
      </trkpt>
      <trkpt lat="37.867111000" lon="-4.770433000">
        <ele>100.5</ele>
        <time>2020-10-13T08:50:14Z</time>
      </trkpt>
      <trkpt lat="37.867001000" lon="-4.770378000">
        <ele>100.9</ele>
        <time>2020-10-13T08:50:17Z</time>
      </trkpt>
      <trkpt lat="37.866900000" lon="-4.770306000">
        <ele>101.3</ele>
        <time>2020-10-13T08:50:20Z</time>
      </trkpt>
      <trkpt lat="37.866797000" lon="-4.770229000">
        <ele>101.6</ele>
        <time>2020-10-13T08:50:23Z</time>
      </trkpt>
      <trkpt lat="37.866692000" lon="-4.770153000">
        <ele>101.9</ele>
        <time>2020-10-13T08:50:26Z</time>
      </trkpt>
      <trkpt lat="37.866624000" lon="-4.770098000">
        <ele>102.2</ele>
        <time>2020-10-13T08:50:28Z</time>
      </trkpt>
      <trkpt lat="37.866550000" lon="-4.770047000">
        <ele>102.5</ele>
        <time>2020-10-13T08:50:30Z</time>
      </trkpt>
      <trkpt lat="37.866479000" lon="-4.769996000">
        <ele>102.7</ele>
        <time>2020-10-13T08:50:32Z</time>
      </trkpt>
      <trkpt lat="37.866378000" lon="-4.769929000">
        <ele>103.0</ele>
        <time>2020-10-13T08:50:35Z</time>
      </trkpt>
      <trkpt lat="37.866283000" lon="-4.769857000">
        <ele>103.3</ele>
        <time>2020-10-13T08:50:38Z</time>
      </trkpt>
      <trkpt lat="37.866193000" lon="-4.769786000">
        <ele>103.5</ele>
        <time>2020-10-13T08:50:41Z</time>
      </trkpt>
      <trkpt lat="37.866104000" lon="-4.769718000">
        <ele>103.8</ele>
        <time>2020-10-13T08:50:44Z</time>
      </trkpt>
      <trkpt lat="37.866012000" lon="-4.769657000">
        <ele>104.1</ele>
        <time>2020-10-13T08:50:47Z</time>
      </trkpt>
      <trkpt lat="37.865925000" lon="-4.769608000">
        <ele>104.5</ele>
        <time>2020-10-13T08:50:50Z</time>
      </trkpt>
      <trkpt lat="37.865843000" lon="-4.769550000">
        <ele>104.8</ele>
        <time>2020-10-13T08:50:53Z</time>
      </trkpt>
      <trkpt lat="37.865770000" lon="-4.769496000">
        <ele>105.3</ele>
        <time>2020-10-13T08:50:56Z</time>
      </trkpt>
      <trkpt lat="37.865696000" lon="-4.769444000">
        <ele>105.7</ele>
        <time>2020-10-13T08:50:59Z</time>
      </trkpt>
      <trkpt lat="37.865599000" lon="-4.769385000">
        <ele>106.2</ele>
        <time>2020-10-13T08:51:03Z</time>
      </trkpt>
      <trkpt lat="37.865509000" lon="-4.769326000">
        <ele>106.5</ele>
        <time>2020-10-13T08:51:07Z</time>
      </trkpt>
      <trkpt lat="37.865417000" lon="-4.769265000">
        <ele>107.0</ele>
        <time>2020-10-13T08:51:11Z</time>
      </trkpt>
      <trkpt lat="37.865330000" lon="-4.769202000">
        <ele>107.5</ele>
        <time>2020-10-13T08:51:15Z</time>
      </trkpt>
      <trkpt lat="37.865241000" lon="-4.769143000">
        <ele>108.0</ele>
        <time>2020-10-13T08:51:19Z</time>
      </trkpt>
      <trkpt lat="37.865144000" lon="-4.769078000">
        <ele>108.5</ele>
        <time>2020-10-13T08:51:23Z</time>
      </trkpt>
      <trkpt lat="37.865072000" lon="-4.769028000">
        <ele>109.2</ele>
        <time>2020-10-13T08:51:26Z</time>
      </trkpt>
      <trkpt lat="37.864980000" lon="-4.768970000">
        <ele>109.9</ele>
        <time>2020-10-13T08:51:30Z</time>
      </trkpt>
      <trkpt lat="37.864889000" lon="-4.768907000">
        <ele>110.7</ele>
        <time>2020-10-13T08:51:34Z</time>
      </trkpt>
      <trkpt lat="37.864796000" lon="-4.768838000">
        <ele>111.5</ele>
        <time>2020-10-13T08:51:38Z</time>
      </trkpt>
      <trkpt lat="37.864709000" lon="-4.768771000">
        <ele>112.2</ele>
        <time>2020-10-13T08:51:42Z</time>
      </trkpt>
      <trkpt lat="37.864624000" lon="-4.768704000">
        <ele>112.9</ele>
        <time>2020-10-13T08:51:46Z</time>
      </trkpt>
      <trkpt lat="37.864547000" lon="-4.768646000">
        <ele>113.6</ele>
        <time>2020-10-13T08:51:50Z</time>
      </trkpt>
      <trkpt lat="37.864468000" lon="-4.768591000">
        <ele>114.2</ele>
        <time>2020-10-13T08:51:54Z</time>
      </trkpt>
      <trkpt lat="37.864390000" lon="-4.768543000">
        <ele>114.5</ele>
        <time>2020-10-13T08:51:58Z</time>
      </trkpt>
      <trkpt lat="37.864311000" lon="-4.768489000">
        <ele>114.7</ele>
        <time>2020-10-13T08:52:02Z</time>
      </trkpt>
      <trkpt lat="37.864230000" lon="-4.768423000">
        <ele>114.8</ele>
        <time>2020-10-13T08:52:06Z</time>
      </trkpt>
      <trkpt lat="37.864139000" lon="-4.768376000">
        <ele>114.9</ele>
        <time>2020-10-13T08:52:10Z</time>
      </trkpt>
      <trkpt lat="37.864049000" lon="-4.768320000">
        <ele>114.8</ele>
        <time>2020-10-13T08:52:14Z</time>
      </trkpt>
      <trkpt lat="37.863968000" lon="-4.768260000">
        <ele>114.7</ele>
        <time>2020-10-13T08:52:18Z</time>
      </trkpt>
      <trkpt lat="37.863883000" lon="-4.768189000">
        <ele>114.7</ele>
        <time>2020-10-13T08:52:22Z</time>
      </trkpt>
      <trkpt lat="37.863797000" lon="-4.768121000">
        <ele>114.9</ele>
        <time>2020-10-13T08:52:26Z</time>
      </trkpt>
      <trkpt lat="37.863712000" lon="-4.768041000">
        <ele>115.2</ele>
        <time>2020-10-13T08:52:30Z</time>
      </trkpt>
      <trkpt lat="37.863626000" lon="-4.767961000">
        <ele>115.5</ele>
        <time>2020-10-13T08:52:34Z</time>
      </trkpt>
      <trkpt lat="37.863545000" lon="-4.767877000">
        <ele>116.1</ele>
        <time>2020-10-13T08:52:38Z</time>
      </trkpt>
      <trkpt lat="37.863465000" lon="-4.767800000">
        <ele>116.8</ele>
        <time>2020-10-13T08:52:42Z</time>
      </trkpt>
      <trkpt lat="37.863398000" lon="-4.767738000">
        <ele>117.6</ele>
        <time>2020-10-13T08:52:45Z</time>
      </trkpt>
      <trkpt lat="37.863316000" lon="-4.767651000">
        <ele>118.5</ele>
        <time>2020-10-13T08:52:49Z</time>
      </trkpt>
      <trkpt lat="37.863255000" lon="-4.767581000">
        <ele>119.5</ele>
        <time>2020-10-13T08:52:52Z</time>
      </trkpt>
      <trkpt lat="37.863194000" lon="-4.767512000">
        <ele>120.4</ele>
        <time>2020-10-13T08:52:55Z</time>
      </trkpt>
      <trkpt lat="37.863131000" lon="-4.767444000">
        <ele>121.3</ele>
        <time>2020-10-13T08:52:58Z</time>
      </trkpt>
      <trkpt lat="37.863067000" lon="-4.767373000">
        <ele>122.2</ele>
        <time>2020-10-13T08:53:01Z</time>
      </trkpt>
      <trkpt lat="37.863002000" lon="-4.767301000">
        <ele>122.9</ele>
        <time>2020-10-13T08:53:04Z</time>
      </trkpt>
      <trkpt lat="37.862940000" lon="-4.767234000">
        <ele>123.6</ele>
        <time>2020-10-13T08:53:07Z</time>
      </trkpt>
      <trkpt lat="37.862860000" lon="-4.767149000">
        <ele>124.3</ele>
        <time>2020-10-13T08:53:11Z</time>
      </trkpt>
      <trkpt lat="37.862779000" lon="-4.767068000">
        <ele>124.8</ele>
        <time>2020-10-13T08:53:15Z</time>
      </trkpt>
      <trkpt lat="37.862718000" lon="-4.766998000">
        <ele>125.3</ele>
        <time>2020-10-13T08:53:18Z</time>
      </trkpt>
      <trkpt lat="37.862661000" lon="-4.766922000">
        <ele>125.6</ele>
        <time>2020-10-13T08:53:21Z</time>
      </trkpt>
      <trkpt lat="37.862607000" lon="-4.766839000">
        <ele>125.9</ele>
        <time>2020-10-13T08:53:24Z</time>
      </trkpt>
      <trkpt lat="37.862560000" lon="-4.766746000">
        <ele>126.2</ele>
        <time>2020-10-13T08:53:27Z</time>
      </trkpt>
      <trkpt lat="37.862519000" lon="-4.766656000">
        <ele>126.5</ele>
        <time>2020-10-13T08:53:30Z</time>
      </trkpt>
      <trkpt lat="37.862486000" lon="-4.766554000">
        <ele>126.6</ele>
        <time>2020-10-13T08:53:33Z</time>
      </trkpt>
      <trkpt lat="37.862463000" lon="-4.766448000">
        <ele>126.8</ele>
        <time>2020-10-13T08:53:36Z</time>
      </trkpt>
      <trkpt lat="37.862445000" lon="-4.766336000">
        <ele>127.0</ele>
        <time>2020-10-13T08:53:39Z</time>
      </trkpt>
      <trkpt lat="37.862435000" lon="-4.766228000">
        <ele>127.1</ele>
        <time>2020-10-13T08:53:42Z</time>
      </trkpt>
      <trkpt lat="37.862433000" lon="-4.766122000">
        <ele>127.2</ele>
        <time>2020-10-13T08:53:45Z</time>
      </trkpt>
      <trkpt lat="37.862432000" lon="-4.766013000">
        <ele>127.4</ele>
        <time>2020-10-13T08:53:48Z</time>
      </trkpt>
      <trkpt lat="37.862438000" lon="-4.765902000">
        <ele>127.5</ele>
        <time>2020-10-13T08:53:51Z</time>
      </trkpt>
      <trkpt lat="37.862447000" lon="-4.765792000">
        <ele>127.9</ele>
        <time>2020-10-13T08:53:54Z</time>
      </trkpt>
      <trkpt lat="37.862449000" lon="-4.765678000">
        <ele>128.4</ele>
        <time>2020-10-13T08:53:57Z</time>
      </trkpt>
      <trkpt lat="37.862451000" lon="-4.765566000">
        <ele>128.8</ele>
        <time>2020-10-13T08:54:00Z</time>
      </trkpt>
      <trkpt lat="37.862453000" lon="-4.765458000">
        <ele>129.4</ele>
        <time>2020-10-13T08:54:03Z</time>
      </trkpt>
      <trkpt lat="37.862456000" lon="-4.765352000">
        <ele>129.9</ele>
        <time>2020-10-13T08:54:06Z</time>
      </trkpt>
      <trkpt lat="37.862458000" lon="-4.765244000">
        <ele>130.5</ele>
        <time>2020-10-13T08:54:09Z</time>
      </trkpt>
      <trkpt lat="37.862458000" lon="-4.765135000">
        <ele>131.0</ele>
        <time>2020-10-13T08:54:12Z</time>
      </trkpt>
      <trkpt lat="37.862463000" lon="-4.765026000">
        <ele>131.5</ele>
        <time>2020-10-13T08:54:15Z</time>
      </trkpt>
      <trkpt lat="37.862468000" lon="-4.764914000">
        <ele>132.1</ele>
        <time>2020-10-13T08:54:18Z</time>
      </trkpt>
      <trkpt lat="37.862471000" lon="-4.764803000">
        <ele>132.6</ele>
        <time>2020-10-13T08:54:21Z</time>
      </trkpt>
      <trkpt lat="37.862477000" lon="-4.764692000">
        <ele>133.2</ele>
        <time>2020-10-13T08:54:24Z</time>
      </trkpt>
      <trkpt lat="37.862484000" lon="-4.764580000">
        <ele>133.7</ele>
        <time>2020-10-13T08:54:27Z</time>
      </trkpt>
      <trkpt lat="37.862491000" lon="-4.764466000">
        <ele>134.2</ele>
        <time>2020-10-13T08:54:30Z</time>
      </trkpt>
      <trkpt lat="37.862498000" lon="-4.764351000">
        <ele>134.5</ele>
        <time>2020-10-13T08:54:33Z</time>
      </trkpt>
      <trkpt lat="37.862504000" lon="-4.764233000">
        <ele>134.8</ele>
        <time>2020-10-13T08:54:36Z</time>
      </trkpt>
      <trkpt lat="37.862505000" lon="-4.764114000">
        <ele>135.1</ele>
        <time>2020-10-13T08:54:39Z</time>
      </trkpt>
      <trkpt lat="37.862511000" lon="-4.763992000">
        <ele>135.4</ele>
        <time>2020-10-13T08:54:42Z</time>
      </trkpt>
      <trkpt lat="37.862518000" lon="-4.763874000">
        <ele>135.6</ele>
        <time>2020-10-13T08:54:45Z</time>
      </trkpt>
      <trkpt lat="37.862521000" lon="-4.763751000">
        <ele>136.0</ele>
        <time>2020-10-13T08:54:48Z</time>
      </trkpt>
      <trkpt lat="37.862524000" lon="-4.763632000">
        <ele>136.5</ele>
        <time>2020-10-13T08:54:51Z</time>
      </trkpt>
      <trkpt lat="37.862530000" lon="-4.763513000">
        <ele>136.9</ele>
        <time>2020-10-13T08:54:54Z</time>
      </trkpt>
      <trkpt lat="37.862536000" lon="-4.763397000">
        <ele>137.5</ele>
        <time>2020-10-13T08:54:57Z</time>
      </trkpt>
      <trkpt lat="37.862540000" lon="-4.763278000">
        <ele>138.0</ele>
        <time>2020-10-13T08:55:00Z</time>
      </trkpt>
      <trkpt lat="37.862547000" lon="-4.763159000">
        <ele>138.5</ele>
        <time>2020-10-13T08:55:03Z</time>
      </trkpt>
      <trkpt lat="37.862551000" lon="-4.763039000">
        <ele>139.1</ele>
        <time>2020-10-13T08:55:06Z</time>
      </trkpt>
      <trkpt lat="37.862556000" lon="-4.762919000">
        <ele>139.6</ele>
        <time>2020-10-13T08:55:09Z</time>
      </trkpt>
      <trkpt lat="37.862560000" lon="-4.762800000">
        <ele>140.2</ele>
        <time>2020-10-13T08:55:12Z</time>
      </trkpt>
      <trkpt lat="37.862565000" lon="-4.762684000">
        <ele>140.7</ele>
        <time>2020-10-13T08:55:15Z</time>
      </trkpt>
      <trkpt lat="37.862569000" lon="-4.762569000">
        <ele>141.3</ele>
        <time>2020-10-13T08:55:18Z</time>
      </trkpt>
      <trkpt lat="37.862570000" lon="-4.762455000">
        <ele>141.8</ele>
        <time>2020-10-13T08:55:21Z</time>
      </trkpt>
      <trkpt lat="37.862569000" lon="-4.762342000">
        <ele>142.4</ele>
        <time>2020-10-13T08:55:24Z</time>
      </trkpt>
      <trkpt lat="37.862572000" lon="-4.762231000">
        <ele>142.8</ele>
        <time>2020-10-13T08:55:27Z</time>
      </trkpt>
      <trkpt lat="37.862577000" lon="-4.762124000">
        <ele>143.3</ele>
        <time>2020-10-13T08:55:30Z</time>
      </trkpt>
      <trkpt lat="37.862585000" lon="-4.762013000">
        <ele>143.6</ele>
        <time>2020-10-13T08:55:33Z</time>
      </trkpt>
      <trkpt lat="37.862592000" lon="-4.761898000">
        <ele>144.1</ele>
        <time>2020-10-13T08:55:36Z</time>
      </trkpt>
      <trkpt lat="37.862595000" lon="-4.761786000">
        <ele>144.5</ele>
        <time>2020-10-13T08:55:39Z</time>
      </trkpt>
      <trkpt lat="37.862598000" lon="-4.761679000">
        <ele>145.0</ele>
        <time>2020-10-13T08:55:42Z</time>
      </trkpt>
      <trkpt lat="37.862600000" lon="-4.761575000">
        <ele>145.5</ele>
        <time>2020-10-13T08:55:45Z</time>
      </trkpt>
      <trkpt lat="37.862601000" lon="-4.761445000">
        <ele>145.8</ele>
        <time>2020-10-13T08:55:49Z</time>
      </trkpt>
      <trkpt lat="37.862601000" lon="-4.761320000">
        <ele>146.1</ele>
        <time>2020-10-13T08:55:53Z</time>
      </trkpt>
      <trkpt lat="37.862594000" lon="-4.761190000">
        <ele>146.3</ele>
        <time>2020-10-13T08:55:57Z</time>
      </trkpt>
      <trkpt lat="37.862581000" lon="-4.761089000">
        <ele>146.4</ele>
        <time>2020-10-13T08:56:00Z</time>
      </trkpt>
      <trkpt lat="37.862571000" lon="-4.760986000">
        <ele>146.5</ele>
        <time>2020-10-13T08:56:03Z</time>
      </trkpt>
      <trkpt lat="37.862560000" lon="-4.760850000">
        <ele>146.7</ele>
        <time>2020-10-13T08:56:07Z</time>
      </trkpt>
      <trkpt lat="37.862542000" lon="-4.760717000">
        <ele>147.0</ele>
        <time>2020-10-13T08:56:11Z</time>
      </trkpt>
      <trkpt lat="37.862518000" lon="-4.760586000">
        <ele>147.3</ele>
        <time>2020-10-13T08:56:15Z</time>
      </trkpt>
      <trkpt lat="37.862495000" lon="-4.760487000">
        <ele>147.5</ele>
        <time>2020-10-13T08:56:18Z</time>
      </trkpt>
      <trkpt lat="37.862467000" lon="-4.760357000">
        <ele>147.6</ele>
        <time>2020-10-13T08:56:22Z</time>
      </trkpt>
      <trkpt lat="37.862439000" lon="-4.760229000">
        <ele>147.7</ele>
        <time>2020-10-13T08:56:26Z</time>
      </trkpt>
      <trkpt lat="37.862416000" lon="-4.760109000">
        <ele>147.8</ele>
        <time>2020-10-13T08:56:30Z</time>
      </trkpt>
      <trkpt lat="37.862388000" lon="-4.759998000">
        <ele>148.0</ele>
        <time>2020-10-13T08:56:34Z</time>
      </trkpt>
      <trkpt lat="37.862360000" lon="-4.759882000">
        <ele>148.3</ele>
        <time>2020-10-13T08:56:38Z</time>
      </trkpt>
      <trkpt lat="37.862335000" lon="-4.759769000">
        <ele>148.7</ele>
        <time>2020-10-13T08:56:42Z</time>
      </trkpt>
      <trkpt lat="37.862305000" lon="-4.759653000">
        <ele>149.2</ele>
        <time>2020-10-13T08:56:46Z</time>
      </trkpt>
      <trkpt lat="37.862277000" lon="-4.759533000">
        <ele>149.7</ele>
        <time>2020-10-13T08:56:50Z</time>
      </trkpt>
      <trkpt lat="37.862242000" lon="-4.759425000">
        <ele>150.3</ele>
        <time>2020-10-13T08:56:54Z</time>
      </trkpt>
      <trkpt lat="37.862219000" lon="-4.759319000">
        <ele>150.8</ele>
        <time>2020-10-13T08:56:58Z</time>
      </trkpt>
      <trkpt lat="37.862192000" lon="-4.759209000">
        <ele>151.6</ele>
        <time>2020-10-13T08:57:02Z</time>
      </trkpt>
      <trkpt lat="37.862166000" lon="-4.759102000">
        <ele>152.5</ele>
        <time>2020-10-13T08:57:06Z</time>
      </trkpt>
      <trkpt lat="37.862144000" lon="-4.758990000">
        <ele>153.4</ele>
        <time>2020-10-13T08:57:10Z</time>
      </trkpt>
      <trkpt lat="37.862114000" lon="-4.758876000">
        <ele>154.4</ele>
        <time>2020-10-13T08:57:14Z</time>
      </trkpt>
      <trkpt lat="37.862083000" lon="-4.758752000">
        <ele>155.4</ele>
        <time>2020-10-13T08:57:18Z</time>
      </trkpt>
      <trkpt lat="37.862055000" lon="-4.758641000">
        <ele>156.2</ele>
        <time>2020-10-13T08:57:22Z</time>
      </trkpt>
      <trkpt lat="37.862025000" lon="-4.758530000">
        <ele>156.8</ele>
        <time>2020-10-13T08:57:26Z</time>
      </trkpt>
      <trkpt lat="37.861992000" lon="-4.758406000">
        <ele>157.4</ele>
        <time>2020-10-13T08:57:30Z</time>
      </trkpt>
      <trkpt lat="37.861960000" lon="-4.758287000">
        <ele>157.8</ele>
        <time>2020-10-13T08:57:34Z</time>
      </trkpt>
      <trkpt lat="37.861928000" lon="-4.758172000">
        <ele>158.3</ele>
        <time>2020-10-13T08:57:38Z</time>
      </trkpt>
      <trkpt lat="37.861896000" lon="-4.758045000">
        <ele>158.6</ele>
        <time>2020-10-13T08:57:42Z</time>
      </trkpt>
      <trkpt lat="37.861863000" lon="-4.757925000">
        <ele>158.9</ele>
        <time>2020-10-13T08:57:46Z</time>
      </trkpt>
      <trkpt lat="37.861829000" lon="-4.757803000">
        <ele>159.3</ele>
        <time>2020-10-13T08:57:50Z</time>
      </trkpt>
      <trkpt lat="37.861793000" lon="-4.757681000">
        <ele>159.6</ele>
        <time>2020-10-13T08:57:54Z</time>
      </trkpt>
      <trkpt lat="37.861751000" lon="-4.757565000">
        <ele>160.0</ele>
        <time>2020-10-13T08:57:58Z</time>
      </trkpt>
      <trkpt lat="37.861708000" lon="-4.757444000">
        <ele>160.4</ele>
        <time>2020-10-13T08:58:02Z</time>
      </trkpt>
      <trkpt lat="37.861661000" lon="-4.757329000">
        <ele>160.8</ele>
        <time>2020-10-13T08:58:06Z</time>
      </trkpt>
      <trkpt lat="37.861601000" lon="-4.757218000">
        <ele>161.3</ele>
        <time>2020-10-13T08:58:10Z</time>
      </trkpt>
      <trkpt lat="37.861552000" lon="-4.757136000">
        <ele>161.7</ele>
        <time>2020-10-13T08:58:13Z</time>
      </trkpt>
      <trkpt lat="37.861486000" lon="-4.757031000">
        <ele>162.1</ele>
        <time>2020-10-13T08:58:17Z</time>
      </trkpt>
      <trkpt lat="37.861428000" lon="-4.756955000">
        <ele>162.4</ele>
        <time>2020-10-13T08:58:20Z</time>
      </trkpt>
      <trkpt lat="37.861367000" lon="-4.756882000">
        <ele>162.6</ele>
        <time>2020-10-13T08:58:23Z</time>
      </trkpt>
      <trkpt lat="37.861306000" lon="-4.756807000">
        <ele>162.8</ele>
        <time>2020-10-13T08:58:26Z</time>
      </trkpt>
      <trkpt lat="37.861237000" lon="-4.756735000">
        <ele>162.9</ele>
        <time>2020-10-13T08:58:29Z</time>
      </trkpt>
      <trkpt lat="37.861166000" lon="-4.756664000">
        <ele>162.9</ele>
        <time>2020-10-13T08:58:32Z</time>
      </trkpt>
      <trkpt lat="37.861098000" lon="-4.756586000">
        <ele>162.8</ele>
        <time>2020-10-13T08:58:35Z</time>
      </trkpt>
      <trkpt lat="37.861029000" lon="-4.756502000">
        <ele>162.6</ele>
        <time>2020-10-13T08:58:38Z</time>
      </trkpt>
      <trkpt lat="37.860962000" lon="-4.756403000">
        <ele>162.5</ele>
        <time>2020-10-13T08:58:41Z</time>
      </trkpt>
      <trkpt lat="37.860901000" lon="-4.756291000">
        <ele>162.3</ele>
        <time>2020-10-13T08:58:44Z</time>
      </trkpt>
      <trkpt lat="37.860851000" lon="-4.756169000">
        <ele>162.0</ele>
        <time>2020-10-13T08:58:47Z</time>
      </trkpt>
      <trkpt lat="37.860814000" lon="-4.756032000">
        <ele>161.7</ele>
        <time>2020-10-13T08:58:50Z</time>
      </trkpt>
      <trkpt lat="37.860784000" lon="-4.755888000">
        <ele>161.4</ele>
        <time>2020-10-13T08:58:53Z</time>
      </trkpt>
      <trkpt lat="37.860772000" lon="-4.755738000">
        <ele>160.9</ele>
        <time>2020-10-13T08:58:56Z</time>
      </trkpt>
      <trkpt lat="37.860768000" lon="-4.755586000">
        <ele>160.5</ele>
        <time>2020-10-13T08:58:59Z</time>
      </trkpt>
      <trkpt lat="37.860774000" lon="-4.755445000">
        <ele>159.9</ele>
        <time>2020-10-13T08:59:02Z</time>
      </trkpt>
      <trkpt lat="37.860786000" lon="-4.755322000">
        <ele>159.5</ele>
        <time>2020-10-13T08:59:05Z</time>
      </trkpt>
      <trkpt lat="37.860822000" lon="-4.755222000">
        <ele>158.9</ele>
        <time>2020-10-13T08:59:10Z</time>
      </trkpt>
      <trkpt lat="37.860885000" lon="-4.755128000">
        <ele>158.4</ele>
        <time>2020-10-13T09:00:08Z</time>
      </trkpt>
      <trkpt lat="37.860939000" lon="-4.755005000">
        <ele>157.7</ele>
        <time>2020-10-13T09:00:11Z</time>
      </trkpt>
      <trkpt lat="37.861001000" lon="-4.754902000">
        <ele>157.1</ele>
        <time>2020-10-13T09:00:13Z</time>
      </trkpt>
      <trkpt lat="37.861079000" lon="-4.754798000">
        <ele>156.5</ele>
        <time>2020-10-13T09:00:15Z</time>
      </trkpt>
      <trkpt lat="37.861163000" lon="-4.754688000">
        <ele>155.5</ele>
        <time>2020-10-13T09:00:17Z</time>
      </trkpt>
      <trkpt lat="37.861259000" lon="-4.754573000">
        <ele>154.6</ele>
        <time>2020-10-13T09:00:19Z</time>
      </trkpt>
      <trkpt lat="37.861357000" lon="-4.754454000">
        <ele>153.7</ele>
        <time>2020-10-13T09:00:21Z</time>
      </trkpt>
      <trkpt lat="37.861461000" lon="-4.754326000">
        <ele>152.7</ele>
        <time>2020-10-13T09:00:23Z</time>
      </trkpt>
      <trkpt lat="37.861563000" lon="-4.754189000">
        <ele>151.6</ele>
        <time>2020-10-13T09:00:25Z</time>
      </trkpt>
      <trkpt lat="37.861665000" lon="-4.754041000">
        <ele>150.5</ele>
        <time>2020-10-13T09:00:27Z</time>
      </trkpt>
      <trkpt lat="37.861758000" lon="-4.753892000">
        <ele>149.5</ele>
        <time>2020-10-13T09:00:29Z</time>
      </trkpt>
      <trkpt lat="37.861851000" lon="-4.753739000">
        <ele>148.6</ele>
        <time>2020-10-13T09:00:31Z</time>
      </trkpt>
      <trkpt lat="37.861938000" lon="-4.753578000">
        <ele>147.9</ele>
        <time>2020-10-13T09:00:33Z</time>
      </trkpt>
      <trkpt lat="37.862022000" lon="-4.753422000">
        <ele>147.2</ele>
        <time>2020-10-13T09:00:35Z</time>
      </trkpt>
      <trkpt lat="37.862101000" lon="-4.753268000">
        <ele>146.5</ele>
        <time>2020-10-13T09:00:37Z</time>
      </trkpt>
      <trkpt lat="37.862181000" lon="-4.753111000">
        <ele>146.2</ele>
        <time>2020-10-13T09:00:39Z</time>
      </trkpt>
      <trkpt lat="37.862259000" lon="-4.752960000">
        <ele>145.9</ele>
        <time>2020-10-13T09:00:41Z</time>
      </trkpt>
      <trkpt lat="37.862335000" lon="-4.752807000">
        <ele>145.8</ele>
        <time>2020-10-13T09:00:43Z</time>
      </trkpt>
      <trkpt lat="37.862412000" lon="-4.752658000">
        <ele>145.8</ele>
        <time>2020-10-13T09:00:45Z</time>
      </trkpt>
      <trkpt lat="37.862482000" lon="-4.752512000">
        <ele>146.0</ele>
        <time>2020-10-13T09:00:47Z</time>
      </trkpt>
      <trkpt lat="37.862557000" lon="-4.752370000">
        <ele>146.2</ele>
        <time>2020-10-13T09:00:49Z</time>
      </trkpt>
      <trkpt lat="37.862627000" lon="-4.752229000">
        <ele>146.4</ele>
        <time>2020-10-13T09:00:51Z</time>
      </trkpt>
      <trkpt lat="37.862694000" lon="-4.752092000">
        <ele>146.5</ele>
        <time>2020-10-13T09:00:53Z</time>
      </trkpt>
      <trkpt lat="37.862754000" lon="-4.751965000">
        <ele>146.6</ele>
        <time>2020-10-13T09:00:55Z</time>
      </trkpt>
      <trkpt lat="37.862815000" lon="-4.751851000">
        <ele>146.7</ele>
        <time>2020-10-13T09:00:57Z</time>
      </trkpt>
      <trkpt lat="37.862870000" lon="-4.751742000">
        <ele>146.8</ele>
        <time>2020-10-13T09:00:59Z</time>
      </trkpt>
      <trkpt lat="37.862923000" lon="-4.751650000">
        <ele>146.9</ele>
        <time>2020-10-13T09:01:01Z</time>
      </trkpt>
      <trkpt lat="37.862971000" lon="-4.751562000">
        <ele>147.1</ele>
        <time>2020-10-13T09:01:03Z</time>
      </trkpt>
      <trkpt lat="37.863015000" lon="-4.751472000">
        <ele>147.3</ele>
        <time>2020-10-13T09:01:05Z</time>
      </trkpt>
      <trkpt lat="37.863078000" lon="-4.751343000">
        <ele>147.5</ele>
        <time>2020-10-13T09:01:08Z</time>
      </trkpt>
      <trkpt lat="37.863139000" lon="-4.751220000">
        <ele>147.6</ele>
        <time>2020-10-13T09:01:11Z</time>
      </trkpt>
      <trkpt lat="37.863201000" lon="-4.751103000">
        <ele>147.7</ele>
        <time>2020-10-13T09:01:14Z</time>
      </trkpt>
      <trkpt lat="37.863265000" lon="-4.750987000">
        <ele>147.8</ele>
        <time>2020-10-13T09:01:17Z</time>
      </trkpt>
      <trkpt lat="37.863327000" lon="-4.750863000">
        <ele>147.8</ele>
        <time>2020-10-13T09:01:20Z</time>
      </trkpt>
      <trkpt lat="37.863392000" lon="-4.750739000">
        <ele>147.8</ele>
        <time>2020-10-13T09:01:23Z</time>
      </trkpt>
      <trkpt lat="37.863457000" lon="-4.750615000">
        <ele>147.7</ele>
        <time>2020-10-13T09:01:26Z</time>
      </trkpt>
      <trkpt lat="37.863524000" lon="-4.750491000">
        <ele>147.6</ele>
        <time>2020-10-13T09:01:29Z</time>
      </trkpt>
      <trkpt lat="37.863583000" lon="-4.750362000">
        <ele>147.5</ele>
        <time>2020-10-13T09:01:32Z</time>
      </trkpt>
      <trkpt lat="37.863612000" lon="-4.750262000">
        <ele>147.2</ele>
        <time>2020-10-13T09:01:34Z</time>
      </trkpt>
      <trkpt lat="37.863632000" lon="-4.750155000">
        <ele>146.8</ele>
        <time>2020-10-13T09:01:36Z</time>
      </trkpt>
      <trkpt lat="37.863650000" lon="-4.750038000">
        <ele>146.4</ele>
        <time>2020-10-13T09:01:38Z</time>
      </trkpt>
      <trkpt lat="37.863646000" lon="-4.749917000">
        <ele>145.9</ele>
        <time>2020-10-13T09:01:40Z</time>
      </trkpt>
      <trkpt lat="37.863636000" lon="-4.749796000">
        <ele>145.5</ele>
        <time>2020-10-13T09:01:42Z</time>
      </trkpt>
      <trkpt lat="37.863625000" lon="-4.749670000">
        <ele>144.9</ele>
        <time>2020-10-13T09:01:44Z</time>
      </trkpt>
      <trkpt lat="37.863604000" lon="-4.749541000">
        <ele>144.4</ele>
        <time>2020-10-13T09:01:46Z</time>
      </trkpt>
      <trkpt lat="37.863590000" lon="-4.749405000">
        <ele>143.6</ele>
        <time>2020-10-13T09:01:48Z</time>
      </trkpt>
      <trkpt lat="37.863580000" lon="-4.749260000">
        <ele>142.9</ele>
        <time>2020-10-13T09:01:50Z</time>
      </trkpt>
      <trkpt lat="37.863580000" lon="-4.749101000">
        <ele>142.0</ele>
        <time>2020-10-13T09:01:52Z</time>
      </trkpt>
      <trkpt lat="37.863589000" lon="-4.748930000">
        <ele>141.1</ele>
        <time>2020-10-13T09:01:54Z</time>
      </trkpt>
      <trkpt lat="37.863615000" lon="-4.748757000">
        <ele>140.1</ele>
        <time>2020-10-13T09:01:56Z</time>
      </trkpt>
      <trkpt lat="37.863645000" lon="-4.748583000">
        <ele>139.0</ele>
        <time>2020-10-13T09:01:58Z</time>
      </trkpt>
      <trkpt lat="37.863687000" lon="-4.748410000">
        <ele>137.9</ele>
        <time>2020-10-13T09:02:00Z</time>
      </trkpt>
      <trkpt lat="37.863740000" lon="-4.748242000">
        <ele>136.8</ele>
        <time>2020-10-13T09:02:02Z</time>
      </trkpt>
      <trkpt lat="37.863814000" lon="-4.748099000">
        <ele>135.7</ele>
        <time>2020-10-13T09:02:04Z</time>
      </trkpt>
      <trkpt lat="37.863904000" lon="-4.747982000">
        <ele>134.7</ele>
        <time>2020-10-13T09:02:06Z</time>
      </trkpt>
      <trkpt lat="37.864000000" lon="-4.747887000">
        <ele>133.8</ele>
        <time>2020-10-13T09:02:08Z</time>
      </trkpt>
      <trkpt lat="37.864109000" lon="-4.747817000">
        <ele>133.1</ele>
        <time>2020-10-13T09:02:10Z</time>
      </trkpt>
      <trkpt lat="37.864223000" lon="-4.747771000">
        <ele>132.4</ele>
        <time>2020-10-13T09:02:12Z</time>
      </trkpt>
      <trkpt lat="37.864342000" lon="-4.747746000">
        <ele>131.7</ele>
        <time>2020-10-13T09:02:14Z</time>
      </trkpt>
      <trkpt lat="37.864461000" lon="-4.747740000">
        <ele>131.0</ele>
        <time>2020-10-13T09:02:16Z</time>
      </trkpt>
      <trkpt lat="37.864578000" lon="-4.747747000">
        <ele>130.3</ele>
        <time>2020-10-13T09:02:18Z</time>
      </trkpt>
      <trkpt lat="37.864689000" lon="-4.747758000">
        <ele>129.5</ele>
        <time>2020-10-13T09:02:20Z</time>
      </trkpt>
      <trkpt lat="37.864809000" lon="-4.747769000">
        <ele>128.8</ele>
        <time>2020-10-13T09:02:22Z</time>
      </trkpt>
      <trkpt lat="37.864930000" lon="-4.747776000">
        <ele>128.0</ele>
        <time>2020-10-13T09:02:24Z</time>
      </trkpt>
      <trkpt lat="37.865052000" lon="-4.747781000">
        <ele>127.2</ele>
        <time>2020-10-13T09:02:26Z</time>
      </trkpt>
      <trkpt lat="37.865165000" lon="-4.747782000">
        <ele>126.3</ele>
        <time>2020-10-13T09:02:28Z</time>
      </trkpt>
      <trkpt lat="37.865276000" lon="-4.747782000">
        <ele>125.4</ele>
        <time>2020-10-13T09:02:30Z</time>
      </trkpt>
      <trkpt lat="37.865384000" lon="-4.747781000">
        <ele>124.4</ele>
        <time>2020-10-13T09:02:32Z</time>
      </trkpt>
      <trkpt lat="37.865483000" lon="-4.747761000">
        <ele>123.5</ele>
        <time>2020-10-13T09:02:34Z</time>
      </trkpt>
      <trkpt lat="37.865575000" lon="-4.747721000">
        <ele>122.5</ele>
        <time>2020-10-13T09:02:36Z</time>
      </trkpt>
      <trkpt lat="37.865653000" lon="-4.747643000">
        <ele>121.7</ele>
        <time>2020-10-13T09:02:38Z</time>
      </trkpt>
      <trkpt lat="37.865712000" lon="-4.747517000">
        <ele>120.9</ele>
        <time>2020-10-13T09:02:40Z</time>
      </trkpt>
      <trkpt lat="37.865730000" lon="-4.747357000">
        <ele>120.1</ele>
        <time>2020-10-13T09:02:42Z</time>
      </trkpt>
      <trkpt lat="37.865706000" lon="-4.747192000">
        <ele>119.3</ele>
        <time>2020-10-13T09:02:44Z</time>
      </trkpt>
      <trkpt lat="37.865652000" lon="-4.747038000">
        <ele>118.5</ele>
        <time>2020-10-13T09:02:46Z</time>
      </trkpt>
      <trkpt lat="37.865559000" lon="-4.746918000">
        <ele>117.8</ele>
        <time>2020-10-13T09:02:48Z</time>
      </trkpt>
      <trkpt lat="37.865436000" lon="-4.746858000">
        <ele>117.1</ele>
        <time>2020-10-13T09:02:50Z</time>
      </trkpt>
      <trkpt lat="37.865290000" lon="-4.746834000">
        <ele>116.3</ele>
        <time>2020-10-13T09:02:52Z</time>
      </trkpt>
      <trkpt lat="37.865144000" lon="-4.746824000">
        <ele>115.5</ele>
        <time>2020-10-13T09:02:54Z</time>
      </trkpt>
      <trkpt lat="37.865021000" lon="-4.746815000">
        <ele>114.7</ele>
        <time>2020-10-13T09:02:56Z</time>
      </trkpt>
      <trkpt lat="37.864926000" lon="-4.746754000">
        <ele>114.0</ele>
        <time>2020-10-13T09:02:58Z</time>
      </trkpt>
      <trkpt lat="37.864897000" lon="-4.746644000">
        <ele>113.4</ele>
        <time>2020-10-13T09:03:00Z</time>
      </trkpt>
      <trkpt lat="37.864956000" lon="-4.746537000">
        <ele>112.7</ele>
        <time>2020-10-13T09:03:02Z</time>
      </trkpt>
      <trkpt lat="37.865053000" lon="-4.746482000">
        <ele>112.1</ele>
        <time>2020-10-13T09:03:04Z</time>
      </trkpt>
      <trkpt lat="37.865168000" lon="-4.746467000">
        <ele>111.4</ele>
        <time>2020-10-13T09:03:06Z</time>
      </trkpt>
      <trkpt lat="37.865297000" lon="-4.746446000">
        <ele>110.5</ele>
        <time>2020-10-13T09:03:08Z</time>
      </trkpt>
      <trkpt lat="37.865433000" lon="-4.746402000">
        <ele>109.5</ele>
        <time>2020-10-13T09:03:10Z</time>
      </trkpt>
      <trkpt lat="37.865577000" lon="-4.746340000">
        <ele>108.6</ele>
        <time>2020-10-13T09:03:12Z</time>
      </trkpt>
      <trkpt lat="37.865700000" lon="-4.746257000">
        <ele>107.7</ele>
        <time>2020-10-13T09:03:14Z</time>
      </trkpt>
      <trkpt lat="37.865807000" lon="-4.746154000">
        <ele>106.8</ele>
        <time>2020-10-13T09:03:16Z</time>
      </trkpt>
      <trkpt lat="37.865888000" lon="-4.746010000">
        <ele>105.9</ele>
        <time>2020-10-13T09:03:18Z</time>
      </trkpt>
      <trkpt lat="37.865907000" lon="-4.745830000">
        <ele>105.0</ele>
        <time>2020-10-13T09:03:20Z</time>
      </trkpt>
      <trkpt lat="37.865849000" lon="-4.745644000">
        <ele>104.1</ele>
        <time>2020-10-13T09:03:22Z</time>
      </trkpt>
      <trkpt lat="37.865810000" lon="-4.745547000">
        <ele>103.3</ele>
        <time>2020-10-13T09:03:23Z</time>
      </trkpt>
      <trkpt lat="37.865771000" lon="-4.745449000">
        <ele>102.5</ele>
        <time>2020-10-13T09:03:24Z</time>
      </trkpt>
      <trkpt lat="37.865737000" lon="-4.745343000">
        <ele>102.0</ele>
        <time>2020-10-13T09:03:25Z</time>
      </trkpt>
      <trkpt lat="37.865707000" lon="-4.745235000">
        <ele>101.6</ele>
        <time>2020-10-13T09:03:26Z</time>
      </trkpt>
      <trkpt lat="37.865688000" lon="-4.745125000">
        <ele>101.3</ele>
        <time>2020-10-13T09:03:27Z</time>
      </trkpt>
      <trkpt lat="37.865676000" lon="-4.745017000">
        <ele>101.0</ele>
        <time>2020-10-13T09:03:28Z</time>
      </trkpt>
      <trkpt lat="37.865662000" lon="-4.744911000">
        <ele>100.9</ele>
        <time>2020-10-13T09:03:29Z</time>
      </trkpt>
      <trkpt lat="37.865638000" lon="-4.744709000">
        <ele>100.8</ele>
        <time>2020-10-13T09:03:31Z</time>
      </trkpt>
      <trkpt lat="37.865676000" lon="-4.744532000">
        <ele>100.9</ele>
        <time>2020-10-13T09:03:33Z</time>
      </trkpt>
      <trkpt lat="37.865752000" lon="-4.744418000">
        <ele>101.2</ele>
        <time>2020-10-13T09:03:35Z</time>
      </trkpt>
      <trkpt lat="37.865829000" lon="-4.744340000">
        <ele>101.5</ele>
        <time>2020-10-13T09:03:37Z</time>
      </trkpt>
      <trkpt lat="37.865899000" lon="-4.744277000">
        <ele>102.0</ele>
        <time>2020-10-13T09:03:39Z</time>
      </trkpt>
      <trkpt lat="37.866003000" lon="-4.744212000">
        <ele>102.5</ele>
        <time>2020-10-13T09:03:42Z</time>
      </trkpt>
      <trkpt lat="37.866098000" lon="-4.744145000">
        <ele>103.1</ele>
        <time>2020-10-13T09:03:45Z</time>
      </trkpt>
      <trkpt lat="37.866180000" lon="-4.744085000">
        <ele>103.6</ele>
        <time>2020-10-13T09:03:48Z</time>
      </trkpt>
      <trkpt lat="37.866260000" lon="-4.744043000">
        <ele>104.2</ele>
        <time>2020-10-13T09:03:51Z</time>
      </trkpt>
      <trkpt lat="37.866346000" lon="-4.744017000">
        <ele>104.7</ele>
        <time>2020-10-13T09:03:54Z</time>
      </trkpt>
      <trkpt lat="37.866427000" lon="-4.743981000">
        <ele>105.1</ele>
        <time>2020-10-13T09:03:57Z</time>
      </trkpt>
      <trkpt lat="37.866510000" lon="-4.743957000">
        <ele>105.5</ele>
        <time>2020-10-13T09:04:00Z</time>
      </trkpt>
      <trkpt lat="37.866592000" lon="-4.743952000">
        <ele>105.8</ele>
        <time>2020-10-13T09:04:03Z</time>
      </trkpt>
      <trkpt lat="37.866687000" lon="-4.743943000">
        <ele>106.1</ele>
        <time>2020-10-13T09:04:07Z</time>
      </trkpt>
      <trkpt lat="37.866777000" lon="-4.743931000">
        <ele>106.4</ele>
        <time>2020-10-13T09:04:11Z</time>
      </trkpt>
      <trkpt lat="37.866862000" lon="-4.743911000">
        <ele>106.6</ele>
        <time>2020-10-13T09:04:15Z</time>
      </trkpt>
      <trkpt lat="37.866949000" lon="-4.743871000">
        <ele>106.9</ele>
        <time>2020-10-13T09:04:19Z</time>
      </trkpt>
      <trkpt lat="37.867013000" lon="-4.743771000">
        <ele>107.3</ele>
        <time>2020-10-13T09:04:23Z</time>
      </trkpt>
      <trkpt lat="37.867046000" lon="-4.743673000">
        <ele>107.7</ele>
        <time>2020-10-13T09:04:26Z</time>
      </trkpt>
      <trkpt lat="37.867070000" lon="-4.743542000">
        <ele>108.4</ele>
        <time>2020-10-13T09:04:30Z</time>
      </trkpt>
      <trkpt lat="37.867096000" lon="-4.743420000">
        <ele>109.0</ele>
        <time>2020-10-13T09:04:34Z</time>
      </trkpt>
      <trkpt lat="37.867130000" lon="-4.743298000">
        <ele>109.8</ele>
        <time>2020-10-13T09:04:38Z</time>
      </trkpt>
      <trkpt lat="37.867171000" lon="-4.743181000">
        <ele>110.7</ele>
        <time>2020-10-13T09:04:42Z</time>
      </trkpt>
      <trkpt lat="37.867222000" lon="-4.743069000">
        <ele>111.6</ele>
        <time>2020-10-13T09:04:46Z</time>
      </trkpt>
      <trkpt lat="37.867287000" lon="-4.742967000">
        <ele>112.5</ele>
        <time>2020-10-13T09:04:50Z</time>
      </trkpt>
      <trkpt lat="37.867357000" lon="-4.742866000">
        <ele>113.5</ele>
        <time>2020-10-13T09:04:54Z</time>
      </trkpt>
      <trkpt lat="37.867407000" lon="-4.742785000">
        <ele>114.4</ele>
        <time>2020-10-13T09:04:57Z</time>
      </trkpt>
      <trkpt lat="37.867475000" lon="-4.742686000">
        <ele>115.2</ele>
        <time>2020-10-13T09:05:01Z</time>
      </trkpt>
      <trkpt lat="37.867543000" lon="-4.742581000">
        <ele>115.9</ele>
        <time>2020-10-13T09:05:05Z</time>
      </trkpt>
      <trkpt lat="37.867601000" lon="-4.742504000">
        <ele>116.5</ele>
        <time>2020-10-13T09:05:08Z</time>
      </trkpt>
      <trkpt lat="37.867664000" lon="-4.742436000">
        <ele>117.1</ele>
        <time>2020-10-13T09:05:11Z</time>
      </trkpt>
      <trkpt lat="37.867749000" lon="-4.742356000">
        <ele>117.7</ele>
        <time>2020-10-13T09:05:15Z</time>
      </trkpt>
      <trkpt lat="37.867839000" lon="-4.742296000">
        <ele>118.3</ele>
        <time>2020-10-13T09:05:19Z</time>
      </trkpt>
      <trkpt lat="37.867931000" lon="-4.742242000">
        <ele>118.7</ele>
        <time>2020-10-13T09:05:23Z</time>
      </trkpt>
      <trkpt lat="37.868028000" lon="-4.742197000">
        <ele>119.2</ele>
        <time>2020-10-13T09:05:27Z</time>
      </trkpt>
      <trkpt lat="37.868126000" lon="-4.742162000">
        <ele>119.6</ele>
        <time>2020-10-13T09:05:31Z</time>
      </trkpt>
      <trkpt lat="37.868218000" lon="-4.742121000">
        <ele>120.1</ele>
        <time>2020-10-13T09:05:35Z</time>
      </trkpt>
      <trkpt lat="37.868312000" lon="-4.742068000">
        <ele>120.5</ele>
        <time>2020-10-13T09:05:39Z</time>
      </trkpt>
      <trkpt lat="37.868377000" lon="-4.741973000">
        <ele>121.0</ele>
        <time>2020-10-13T09:05:43Z</time>
      </trkpt>
      <trkpt lat="37.868368000" lon="-4.741853000">
        <ele>121.5</ele>
        <time>2020-10-13T09:05:47Z</time>
      </trkpt>
      <trkpt lat="37.868288000" lon="-4.741770000">
        <ele>122.0</ele>
        <time>2020-10-13T09:05:51Z</time>
      </trkpt>
      <trkpt lat="37.868209000" lon="-4.741739000">
        <ele>122.5</ele>
        <time>2020-10-13T09:05:54Z</time>
      </trkpt>
      <trkpt lat="37.868124000" lon="-4.741736000">
        <ele>123.1</ele>
        <time>2020-10-13T09:05:57Z</time>
      </trkpt>
      <trkpt lat="37.868037000" lon="-4.741752000">
        <ele>123.6</ele>
        <time>2020-10-13T09:06:00Z</time>
      </trkpt>
      <trkpt lat="37.867952000" lon="-4.741778000">
        <ele>124.2</ele>
        <time>2020-10-13T09:06:03Z</time>
      </trkpt>
      <trkpt lat="37.867868000" lon="-4.741814000">
        <ele>124.5</ele>
        <time>2020-10-13T09:06:06Z</time>
      </trkpt>
      <trkpt lat="37.867785000" lon="-4.741859000">
        <ele>124.8</ele>
        <time>2020-10-13T09:06:09Z</time>
      </trkpt>
      <trkpt lat="37.867703000" lon="-4.741912000">
        <ele>125.0</ele>
        <time>2020-10-13T09:06:12Z</time>
      </trkpt>
      <trkpt lat="37.867623000" lon="-4.741970000">
        <ele>125.1</ele>
        <time>2020-10-13T09:06:15Z</time>
      </trkpt>
      <trkpt lat="37.867549000" lon="-4.742031000">
        <ele>125.3</ele>
        <time>2020-10-13T09:06:18Z</time>
      </trkpt>
      <trkpt lat="37.867478000" lon="-4.742083000">
        <ele>125.5</ele>
        <time>2020-10-13T09:06:21Z</time>
      </trkpt>
      <trkpt lat="37.867381000" lon="-4.742145000">
        <ele>125.6</ele>
        <time>2020-10-13T09:06:25Z</time>
      </trkpt>
      <trkpt lat="37.867286000" lon="-4.742199000">
        <ele>125.9</ele>
        <time>2020-10-13T09:06:29Z</time>
      </trkpt>
      <trkpt lat="37.867187000" lon="-4.742243000">
        <ele>126.2</ele>
        <time>2020-10-13T09:06:33Z</time>
      </trkpt>
      <trkpt lat="37.867088000" lon="-4.742290000">
        <ele>126.5</ele>
        <time>2020-10-13T09:06:37Z</time>
      </trkpt>
      <trkpt lat="37.867011000" lon="-4.742327000">
        <ele>126.9</ele>
        <time>2020-10-13T09:06:40Z</time>
      </trkpt>
      <trkpt lat="37.866931000" lon="-4.742354000">
        <ele>127.5</ele>
        <time>2020-10-13T09:06:43Z</time>
      </trkpt>
      <trkpt lat="37.866827000" lon="-4.742372000">
        <ele>128.0</ele>
        <time>2020-10-13T09:06:47Z</time>
      </trkpt>
      <trkpt lat="37.866742000" lon="-4.742340000">
        <ele>128.6</ele>
        <time>2020-10-13T09:06:51Z</time>
      </trkpt>
      <trkpt lat="37.866673000" lon="-4.742265000">
        <ele>129.5</ele>
        <time>2020-10-13T09:06:55Z</time>
      </trkpt>
      <trkpt lat="37.866630000" lon="-4.742153000">
        <ele>130.3</ele>
        <time>2020-10-13T09:06:59Z</time>
      </trkpt>
      <trkpt lat="37.866613000" lon="-4.742022000">
        <ele>131.2</ele>
        <time>2020-10-13T09:07:03Z</time>
      </trkpt>
      <trkpt lat="37.866605000" lon="-4.741909000">
        <ele>132.1</ele>
        <time>2020-10-13T09:07:07Z</time>
      </trkpt>
      <trkpt lat="37.866603000" lon="-4.741791000">
        <ele>132.9</ele>
        <time>2020-10-13T09:07:11Z</time>
      </trkpt>
      <trkpt lat="37.866606000" lon="-4.741673000">
        <ele>133.7</ele>
        <time>2020-10-13T09:07:15Z</time>
      </trkpt>
      <trkpt lat="37.866606000" lon="-4.741550000">
        <ele>134.5</ele>
        <time>2020-10-13T09:07:19Z</time>
      </trkpt>
      <trkpt lat="37.866607000" lon="-4.741433000">
        <ele>135.3</ele>
        <time>2020-10-13T09:07:23Z</time>
      </trkpt>
      <trkpt lat="37.866595000" lon="-4.741323000">
        <ele>136.0</ele>
        <time>2020-10-13T09:07:27Z</time>
      </trkpt>
      <trkpt lat="37.866577000" lon="-4.741204000">
        <ele>136.8</ele>
        <time>2020-10-13T09:07:31Z</time>
      </trkpt>
      <trkpt lat="37.866540000" lon="-4.741084000">
        <ele>137.7</ele>
        <time>2020-10-13T09:07:35Z</time>
      </trkpt>
      <trkpt lat="37.866503000" lon="-4.740965000">
        <ele>138.5</ele>
        <time>2020-10-13T09:07:39Z</time>
      </trkpt>
      <trkpt lat="37.866473000" lon="-4.740862000">
        <ele>139.1</ele>
        <time>2020-10-13T09:07:43Z</time>
      </trkpt>
      <trkpt lat="37.866455000" lon="-4.740761000">
        <ele>139.6</ele>
        <time>2020-10-13T09:07:47Z</time>
      </trkpt>
      <trkpt lat="37.866480000" lon="-4.740663000">
        <ele>140.1</ele>
        <time>2020-10-13T09:07:51Z</time>
      </trkpt>
      <trkpt lat="37.866554000" lon="-4.740591000">
        <ele>140.5</ele>
        <time>2020-10-13T09:07:55Z</time>
      </trkpt>
      <trkpt lat="37.866648000" lon="-4.740612000">
        <ele>140.9</ele>
        <time>2020-10-13T09:07:59Z</time>
      </trkpt>
      <trkpt lat="37.866728000" lon="-4.740688000">
        <ele>141.3</ele>
        <time>2020-10-13T09:08:03Z</time>
      </trkpt>
      <trkpt lat="37.866794000" lon="-4.740784000">
        <ele>141.6</ele>
        <time>2020-10-13T09:08:07Z</time>
      </trkpt>
      <trkpt lat="37.866864000" lon="-4.740867000">
        <ele>142.0</ele>
        <time>2020-10-13T09:08:11Z</time>
      </trkpt>
      <trkpt lat="37.866939000" lon="-4.740929000">
        <ele>142.4</ele>
        <time>2020-10-13T09:08:15Z</time>
      </trkpt>
      <trkpt lat="37.867022000" lon="-4.740957000">
        <ele>142.5</ele>
        <time>2020-10-13T09:08:19Z</time>
      </trkpt>
      <trkpt lat="37.867116000" lon="-4.740960000">
        <ele>142.8</ele>
        <time>2020-10-13T09:08:23Z</time>
      </trkpt>
      <trkpt lat="37.867200000" lon="-4.740907000">
        <ele>143.2</ele>
        <time>2020-10-13T09:08:27Z</time>
      </trkpt>
      <trkpt lat="37.867274000" lon="-4.740837000">
        <ele>143.6</ele>
        <time>2020-10-13T09:08:31Z</time>
      </trkpt>
      <trkpt lat="37.867337000" lon="-4.740741000">
        <ele>144.2</ele>
        <time>2020-10-13T09:08:35Z</time>
      </trkpt>
      <trkpt lat="37.867397000" lon="-4.740648000">
        <ele>144.7</ele>
        <time>2020-10-13T09:08:39Z</time>
      </trkpt>
      <trkpt lat="37.867457000" lon="-4.740552000">
        <ele>145.4</ele>
        <time>2020-10-13T09:08:43Z</time>
      </trkpt>
      <trkpt lat="37.867518000" lon="-4.740454000">
        <ele>146.0</ele>
        <time>2020-10-13T09:08:47Z</time>
      </trkpt>
      <trkpt lat="37.867583000" lon="-4.740358000">
        <ele>146.5</ele>
        <time>2020-10-13T09:08:51Z</time>
      </trkpt>
      <trkpt lat="37.867647000" lon="-4.740264000">
        <ele>147.1</ele>
        <time>2020-10-13T09:08:55Z</time>
      </trkpt>
      <trkpt lat="37.867709000" lon="-4.740173000">
        <ele>147.6</ele>
        <time>2020-10-13T09:08:59Z</time>
      </trkpt>
      <trkpt lat="37.867771000" lon="-4.740092000">
        <ele>148.3</ele>
        <time>2020-10-13T09:09:03Z</time>
      </trkpt>
      <trkpt lat="37.867834000" lon="-4.740012000">
        <ele>148.9</ele>
        <time>2020-10-13T09:09:07Z</time>
      </trkpt>
      <trkpt lat="37.867904000" lon="-4.739928000">
        <ele>149.5</ele>
        <time>2020-10-13T09:09:11Z</time>
      </trkpt>
      <trkpt lat="37.867970000" lon="-4.739840000">
        <ele>150.1</ele>
        <time>2020-10-13T09:09:15Z</time>
      </trkpt>
      <trkpt lat="37.868042000" lon="-4.739753000">
        <ele>150.6</ele>
        <time>2020-10-13T09:09:19Z</time>
      </trkpt>
      <trkpt lat="37.868119000" lon="-4.739665000">
        <ele>151.3</ele>
        <time>2020-10-13T09:09:23Z</time>
      </trkpt>
      <trkpt lat="37.868194000" lon="-4.739574000">
        <ele>151.9</ele>
        <time>2020-10-13T09:09:27Z</time>
      </trkpt>
      <trkpt lat="37.868271000" lon="-4.739488000">
        <ele>152.5</ele>
        <time>2020-10-13T09:09:31Z</time>
      </trkpt>
      <trkpt lat="37.868352000" lon="-4.739402000">
        <ele>153.3</ele>
        <time>2020-10-13T09:09:35Z</time>
      </trkpt>
      <trkpt lat="37.868431000" lon="-4.739311000">
        <ele>154.0</ele>
        <time>2020-10-13T09:09:39Z</time>
      </trkpt>
      <trkpt lat="37.868503000" lon="-4.739223000">
        <ele>154.6</ele>
        <time>2020-10-13T09:09:43Z</time>
      </trkpt>
      <trkpt lat="37.868574000" lon="-4.739140000">
        <ele>155.1</ele>
        <time>2020-10-13T09:09:47Z</time>
      </trkpt>
      <trkpt lat="37.868649000" lon="-4.739059000">
        <ele>155.5</ele>
        <time>2020-10-13T09:09:51Z</time>
      </trkpt>
      <trkpt lat="37.868719000" lon="-4.738967000">
        <ele>155.8</ele>
        <time>2020-10-13T09:09:55Z</time>
      </trkpt>
      <trkpt lat="37.868790000" lon="-4.738881000">
        <ele>156.3</ele>
        <time>2020-10-13T09:09:59Z</time>
      </trkpt>
      <trkpt lat="37.868860000" lon="-4.738790000">
        <ele>156.6</ele>
        <time>2020-10-13T09:10:03Z</time>
      </trkpt>
      <trkpt lat="37.868934000" lon="-4.738699000">
        <ele>157.1</ele>
        <time>2020-10-13T09:10:07Z</time>
      </trkpt>
      <trkpt lat="37.869002000" lon="-4.738596000">
        <ele>157.5</ele>
        <time>2020-10-13T09:10:11Z</time>
      </trkpt>
      <trkpt lat="37.869073000" lon="-4.738500000">
        <ele>158.1</ele>
        <time>2020-10-13T09:10:15Z</time>
      </trkpt>
      <trkpt lat="37.869133000" lon="-4.738406000">
        <ele>158.6</ele>
        <time>2020-10-13T09:10:19Z</time>
      </trkpt>
      <trkpt lat="37.869187000" lon="-4.738305000">
        <ele>159.3</ele>
        <time>2020-10-13T09:10:23Z</time>
      </trkpt>
      <trkpt lat="37.869237000" lon="-4.738210000">
        <ele>160.0</ele>
        <time>2020-10-13T09:10:27Z</time>
      </trkpt>
      <trkpt lat="37.869278000" lon="-4.738117000">
        <ele>160.8</ele>
        <time>2020-10-13T09:10:31Z</time>
      </trkpt>
      <trkpt lat="37.869308000" lon="-4.738021000">
        <ele>161.7</ele>
        <time>2020-10-13T09:10:35Z</time>
      </trkpt>
      <trkpt lat="37.869333000" lon="-4.737919000">
        <ele>162.6</ele>
        <time>2020-10-13T09:10:39Z</time>
      </trkpt>
      <trkpt lat="37.869356000" lon="-4.737813000">
        <ele>163.5</ele>
        <time>2020-10-13T09:10:43Z</time>
      </trkpt>
      <trkpt lat="37.869379000" lon="-4.737708000">
        <ele>164.5</ele>
        <time>2020-10-13T09:10:47Z</time>
      </trkpt>
      <trkpt lat="37.869396000" lon="-4.737602000">
        <ele>165.2</ele>
        <time>2020-10-13T09:10:51Z</time>
      </trkpt>
      <trkpt lat="37.869405000" lon="-4.737493000">
        <ele>165.8</ele>
        <time>2020-10-13T09:10:55Z</time>
      </trkpt>
      <trkpt lat="37.869421000" lon="-4.737387000">
        <ele>166.3</ele>
        <time>2020-10-13T09:10:59Z</time>
      </trkpt>
      <trkpt lat="37.869437000" lon="-4.737280000">
        <ele>166.5</ele>
        <time>2020-10-13T09:11:03Z</time>
      </trkpt>
      <trkpt lat="37.869453000" lon="-4.737171000">
        <ele>166.7</ele>
        <time>2020-10-13T09:11:07Z</time>
      </trkpt>
      <trkpt lat="37.869472000" lon="-4.737055000">
        <ele>166.7</ele>
        <time>2020-10-13T09:11:11Z</time>
      </trkpt>
      <trkpt lat="37.869473000" lon="-4.736948000">
        <ele>166.7</ele>
        <time>2020-10-13T09:11:15Z</time>
      </trkpt>
      <trkpt lat="37.869484000" lon="-4.736827000">
        <ele>166.7</ele>
        <time>2020-10-13T09:11:19Z</time>
      </trkpt>
      <trkpt lat="37.869495000" lon="-4.736698000">
        <ele>166.6</ele>
        <time>2020-10-13T09:11:23Z</time>
      </trkpt>
      <trkpt lat="37.869502000" lon="-4.736585000">
        <ele>166.5</ele>
        <time>2020-10-13T09:11:26Z</time>
      </trkpt>
      <trkpt lat="37.869500000" lon="-4.736448000">
        <ele>166.5</ele>
        <time>2020-10-13T09:11:29Z</time>
      </trkpt>
      <trkpt lat="37.869489000" lon="-4.736342000">
        <ele>166.5</ele>
        <time>2020-10-13T09:11:31Z</time>
      </trkpt>
      <trkpt lat="37.869483000" lon="-4.736215000">
        <ele>166.3</ele>
        <time>2020-10-13T09:11:33Z</time>
      </trkpt>
      <trkpt lat="37.869475000" lon="-4.736086000">
        <ele>166.1</ele>
        <time>2020-10-13T09:11:35Z</time>
      </trkpt>
      <trkpt lat="37.869467000" lon="-4.735947000">
        <ele>165.8</ele>
        <time>2020-10-13T09:11:37Z</time>
      </trkpt>
      <trkpt lat="37.869463000" lon="-4.735811000">
        <ele>165.4</ele>
        <time>2020-10-13T09:11:39Z</time>
      </trkpt>
      <trkpt lat="37.869461000" lon="-4.735662000">
        <ele>164.9</ele>
        <time>2020-10-13T09:11:41Z</time>
      </trkpt>
      <trkpt lat="37.869462000" lon="-4.735508000">
        <ele>164.4</ele>
        <time>2020-10-13T09:11:43Z</time>
      </trkpt>
      <trkpt lat="37.869471000" lon="-4.735354000">
        <ele>163.6</ele>
        <time>2020-10-13T09:11:45Z</time>
      </trkpt>
      <trkpt lat="37.869481000" lon="-4.735208000">
        <ele>163.0</ele>
        <time>2020-10-13T09:11:47Z</time>
      </trkpt>
      <trkpt lat="37.869484000" lon="-4.735057000">
        <ele>162.3</ele>
        <time>2020-10-13T09:11:49Z</time>
      </trkpt>
      <trkpt lat="37.869489000" lon="-4.734909000">
        <ele>161.5</ele>
        <time>2020-10-13T09:11:51Z</time>
      </trkpt>
      <trkpt lat="37.869493000" lon="-4.734760000">
        <ele>160.9</ele>
        <time>2020-10-13T09:11:53Z</time>
      </trkpt>
      <trkpt lat="37.869498000" lon="-4.734615000">
        <ele>160.4</ele>
        <time>2020-10-13T09:11:55Z</time>
      </trkpt>
      <trkpt lat="37.869499000" lon="-4.734468000">
        <ele>159.8</ele>
        <time>2020-10-13T09:11:57Z</time>
      </trkpt>
      <trkpt lat="37.869501000" lon="-4.734320000">
        <ele>159.4</ele>
        <time>2020-10-13T09:11:59Z</time>
      </trkpt>
      <trkpt lat="37.869500000" lon="-4.734168000">
        <ele>159.0</ele>
        <time>2020-10-13T09:12:01Z</time>
      </trkpt>
      <trkpt lat="37.869489000" lon="-4.734017000">
        <ele>158.7</ele>
        <time>2020-10-13T09:12:03Z</time>
      </trkpt>
      <trkpt lat="37.869480000" lon="-4.733877000">
        <ele>158.5</ele>
        <time>2020-10-13T09:12:05Z</time>
      </trkpt>
      <trkpt lat="37.869460000" lon="-4.733737000">
        <ele>158.2</ele>
        <time>2020-10-13T09:12:07Z</time>
      </trkpt>
      <trkpt lat="37.869439000" lon="-4.733604000">
        <ele>157.8</ele>
        <time>2020-10-13T09:12:09Z</time>
      </trkpt>
      <trkpt lat="37.869418000" lon="-4.733472000">
        <ele>157.5</ele>
        <time>2020-10-13T09:12:11Z</time>
      </trkpt>
      <trkpt lat="37.869398000" lon="-4.733342000">
        <ele>157.0</ele>
        <time>2020-10-13T09:12:13Z</time>
      </trkpt>
      <trkpt lat="37.869378000" lon="-4.733222000">
        <ele>156.5</ele>
        <time>2020-10-13T09:12:15Z</time>
      </trkpt>
      <trkpt lat="37.869360000" lon="-4.733097000">
        <ele>156.1</ele>
        <time>2020-10-13T09:12:17Z</time>
      </trkpt>
      <trkpt lat="37.869334000" lon="-4.732982000">
        <ele>155.7</ele>
        <time>2020-10-13T09:12:19Z</time>
      </trkpt>
      <trkpt lat="37.869309000" lon="-4.732863000">
        <ele>155.4</ele>
        <time>2020-10-13T09:12:21Z</time>
      </trkpt>
      <trkpt lat="37.869279000" lon="-4.732743000">
        <ele>154.9</ele>
        <time>2020-10-13T09:12:23Z</time>
      </trkpt>
      <trkpt lat="37.869255000" lon="-4.732614000">
        <ele>154.5</ele>
        <time>2020-10-13T09:12:25Z</time>
      </trkpt>
      <trkpt lat="37.869237000" lon="-4.732475000">
        <ele>154.1</ele>
        <time>2020-10-13T09:12:27Z</time>
      </trkpt>
      <trkpt lat="37.869221000" lon="-4.732328000">
        <ele>153.9</ele>
        <time>2020-10-13T09:12:29Z</time>
      </trkpt>
      <trkpt lat="37.869204000" lon="-4.732167000">
        <ele>153.6</ele>
        <time>2020-10-13T09:12:31Z</time>
      </trkpt>
      <trkpt lat="37.869190000" lon="-4.731995000">
        <ele>153.3</ele>
        <time>2020-10-13T09:12:33Z</time>
      </trkpt>
      <trkpt lat="37.869171000" lon="-4.731809000">
        <ele>152.7</ele>
        <time>2020-10-13T09:12:35Z</time>
      </trkpt>
      <trkpt lat="37.869158000" lon="-4.731611000">
        <ele>152.1</ele>
        <time>2020-10-13T09:12:37Z</time>
      </trkpt>
      <trkpt lat="37.869158000" lon="-4.731416000">
        <ele>151.5</ele>
        <time>2020-10-13T09:12:39Z</time>
      </trkpt>
      <trkpt lat="37.869163000" lon="-4.731229000">
        <ele>150.8</ele>
        <time>2020-10-13T09:12:41Z</time>
      </trkpt>
      <trkpt lat="37.869170000" lon="-4.731052000">
        <ele>150.3</ele>
        <time>2020-10-13T09:12:43Z</time>
      </trkpt>
      <trkpt lat="37.869176000" lon="-4.730867000">
        <ele>149.8</ele>
        <time>2020-10-13T09:12:45Z</time>
      </trkpt>
      <trkpt lat="37.869186000" lon="-4.730687000">
        <ele>149.2</ele>
        <time>2020-10-13T09:12:47Z</time>
      </trkpt>
      <trkpt lat="37.869196000" lon="-4.730506000">
        <ele>148.5</ele>
        <time>2020-10-13T09:12:49Z</time>
      </trkpt>
      <trkpt lat="37.869207000" lon="-4.730323000">
        <ele>147.5</ele>
        <time>2020-10-13T09:12:51Z</time>
      </trkpt>
      <trkpt lat="37.869216000" lon="-4.730137000">
        <ele>146.7</ele>
        <time>2020-10-13T09:12:53Z</time>
      </trkpt>
      <trkpt lat="37.869221000" lon="-4.729948000">
        <ele>146.0</ele>
        <time>2020-10-13T09:12:55Z</time>
      </trkpt>
      <trkpt lat="37.869227000" lon="-4.729756000">
        <ele>145.5</ele>
        <time>2020-10-13T09:12:57Z</time>
      </trkpt>
      <trkpt lat="37.869236000" lon="-4.729566000">
        <ele>144.9</ele>
        <time>2020-10-13T09:12:59Z</time>
      </trkpt>
      <trkpt lat="37.869239000" lon="-4.729374000">
        <ele>144.4</ele>
        <time>2020-10-13T09:13:01Z</time>
      </trkpt>
      <trkpt lat="37.869246000" lon="-4.729180000">
        <ele>143.7</ele>
        <time>2020-10-13T09:13:03Z</time>
      </trkpt>
      <trkpt lat="37.869260000" lon="-4.728992000">
        <ele>143.0</ele>
        <time>2020-10-13T09:13:05Z</time>
      </trkpt>
      <trkpt lat="37.869283000" lon="-4.728813000">
        <ele>142.3</ele>
        <time>2020-10-13T09:13:07Z</time>
      </trkpt>
      <trkpt lat="37.869325000" lon="-4.728647000">
        <ele>141.8</ele>
        <time>2020-10-13T09:13:09Z</time>
      </trkpt>
      <trkpt lat="37.869371000" lon="-4.728490000">
        <ele>141.5</ele>
        <time>2020-10-13T09:13:11Z</time>
      </trkpt>
      <trkpt lat="37.869416000" lon="-4.728344000">
        <ele>141.4</ele>
        <time>2020-10-13T09:13:13Z</time>
      </trkpt>
      <trkpt lat="37.869465000" lon="-4.728200000">
        <ele>141.2</ele>
        <time>2020-10-13T09:13:15Z</time>
      </trkpt>
      <trkpt lat="37.869503000" lon="-4.728050000">
        <ele>141.0</ele>
        <time>2020-10-13T09:13:17Z</time>
      </trkpt>
      <trkpt lat="37.869520000" lon="-4.727896000">
        <ele>140.7</ele>
        <time>2020-10-13T09:13:19Z</time>
      </trkpt>
      <trkpt lat="37.869517000" lon="-4.727754000">
        <ele>140.4</ele>
        <time>2020-10-13T09:13:21Z</time>
      </trkpt>
      <trkpt lat="37.869497000" lon="-4.727620000">
        <ele>139.8</ele>
        <time>2020-10-13T09:13:23Z</time>
      </trkpt>
      <trkpt lat="37.869475000" lon="-4.727501000">
        <ele>139.3</ele>
        <time>2020-10-13T09:13:25Z</time>
      </trkpt>
      <trkpt lat="37.869458000" lon="-4.727398000">
        <ele>138.7</ele>
        <time>2020-10-13T09:13:27Z</time>
      </trkpt>
      <trkpt lat="37.869431000" lon="-4.727262000">
        <ele>138.2</ele>
        <time>2020-10-13T09:13:30Z</time>
      </trkpt>
      <trkpt lat="37.869446000" lon="-4.727122000">
        <ele>137.4</ele>
        <time>2020-10-13T09:13:33Z</time>
      </trkpt>
      <trkpt lat="37.869463000" lon="-4.727012000">
        <ele>136.4</ele>
        <time>2020-10-13T09:13:36Z</time>
      </trkpt>
      <trkpt lat="37.869494000" lon="-4.726910000">
        <ele>135.4</ele>
        <time>2020-10-13T09:13:39Z</time>
      </trkpt>
      <trkpt lat="37.869551000" lon="-4.726785000">
        <ele>134.2</ele>
        <time>2020-10-13T09:13:42Z</time>
      </trkpt>
      <trkpt lat="37.869614000" lon="-4.726681000">
        <ele>132.9</ele>
        <time>2020-10-13T09:13:45Z</time>
      </trkpt>
      <trkpt lat="37.869671000" lon="-4.726584000">
        <ele>131.6</ele>
        <time>2020-10-13T09:13:48Z</time>
      </trkpt>
      <trkpt lat="37.869721000" lon="-4.726486000">
        <ele>130.5</ele>
        <time>2020-10-13T09:13:51Z</time>
      </trkpt>
      <trkpt lat="37.869768000" lon="-4.726401000">
        <ele>129.4</ele>
        <time>2020-10-13T09:13:54Z</time>
      </trkpt>
      <trkpt lat="37.869808000" lon="-4.726281000">
        <ele>128.4</ele>
        <time>2020-10-13T09:15:04Z</time>
      </trkpt>
      <trkpt lat="37.869842000" lon="-4.726146000">
        <ele>127.4</ele>
        <time>2020-10-13T09:15:07Z</time>
      </trkpt>
      <trkpt lat="37.869882000" lon="-4.726029000">
        <ele>126.5</ele>
        <time>2020-10-13T09:15:09Z</time>
      </trkpt>
      <trkpt lat="37.869925000" lon="-4.725887000">
        <ele>125.6</ele>
        <time>2020-10-13T09:15:11Z</time>
      </trkpt>
      <trkpt lat="37.869969000" lon="-4.725727000">
        <ele>124.9</ele>
        <time>2020-10-13T09:15:13Z</time>
      </trkpt>
      <trkpt lat="37.870020000" lon="-4.725545000">
        <ele>124.2</ele>
        <time>2020-10-13T09:15:15Z</time>
      </trkpt>
      <trkpt lat="37.870080000" lon="-4.725365000">
        <ele>123.6</ele>
        <time>2020-10-13T09:15:17Z</time>
      </trkpt>
      <trkpt lat="37.870145000" lon="-4.725185000">
        <ele>123.2</ele>
        <time>2020-10-13T09:15:19Z</time>
      </trkpt>
      <trkpt lat="37.870210000" lon="-4.725018000">
        <ele>122.8</ele>
        <time>2020-10-13T09:15:21Z</time>
      </trkpt>
      <trkpt lat="37.870267000" lon="-4.724861000">
        <ele>122.5</ele>
        <time>2020-10-13T09:15:24Z</time>
      </trkpt>
      <trkpt lat="37.870318000" lon="-4.724709000">
        <ele>122.4</ele>
        <time>2020-10-13T09:15:25Z</time>
      </trkpt>
      <trkpt lat="37.870371000" lon="-4.724568000">
        <ele>122.2</ele>
        <time>2020-10-13T09:15:27Z</time>
      </trkpt>
      <trkpt lat="37.870425000" lon="-4.724434000">
        <ele>122.1</ele>
        <time>2020-10-13T09:15:29Z</time>
      </trkpt>
      <trkpt lat="37.870478000" lon="-4.724299000">
        <ele>122.1</ele>
        <time>2020-10-13T09:15:31Z</time>
      </trkpt>
      <trkpt lat="37.870526000" lon="-4.724177000">
        <ele>122.2</ele>
        <time>2020-10-13T09:15:33Z</time>
      </trkpt>
      <trkpt lat="37.870567000" lon="-4.724066000">
        <ele>122.4</ele>
        <time>2020-10-13T09:15:35Z</time>
      </trkpt>
      <trkpt lat="37.870603000" lon="-4.723969000">
        <ele>122.5</ele>
        <time>2020-10-13T09:15:37Z</time>
      </trkpt>
      <trkpt lat="37.870651000" lon="-4.723833000">
        <ele>122.7</ele>
        <time>2020-10-13T09:15:40Z</time>
      </trkpt>
      <trkpt lat="37.870698000" lon="-4.723711000">
        <ele>122.8</ele>
        <time>2020-10-13T09:15:43Z</time>
      </trkpt>
      <trkpt lat="37.870740000" lon="-4.723584000">
        <ele>122.9</ele>
        <time>2020-10-13T09:15:46Z</time>
      </trkpt>
      <trkpt lat="37.870789000" lon="-4.723452000">
        <ele>122.8</ele>
        <time>2020-10-13T09:15:49Z</time>
      </trkpt>
      <trkpt lat="37.870824000" lon="-4.723358000">
        <ele>122.6</ele>
        <time>2020-10-13T09:15:51Z</time>
      </trkpt>
      <trkpt lat="37.870860000" lon="-4.723258000">
        <ele>122.4</ele>
        <time>2020-10-13T09:15:53Z</time>
      </trkpt>
      <trkpt lat="37.870896000" lon="-4.723151000">
        <ele>122.0</ele>
        <time>2020-10-13T09:15:55Z</time>
      </trkpt>
      <trkpt lat="37.870930000" lon="-4.723045000">
        <ele>121.5</ele>
        <time>2020-10-13T09:15:57Z</time>
      </trkpt>
      <trkpt lat="37.870958000" lon="-4.722934000">
        <ele>121.1</ele>
        <time>2020-10-13T09:15:59Z</time>
      </trkpt>
      <trkpt lat="37.870985000" lon="-4.722814000">
        <ele>120.6</ele>
        <time>2020-10-13T09:16:01Z</time>
      </trkpt>
      <trkpt lat="37.871016000" lon="-4.722690000">
        <ele>120.2</ele>
        <time>2020-10-13T09:16:03Z</time>
      </trkpt>
      <trkpt lat="37.871040000" lon="-4.722558000">
        <ele>119.8</ele>
        <time>2020-10-13T09:16:05Z</time>
      </trkpt>
      <trkpt lat="37.871069000" lon="-4.722421000">
        <ele>119.5</ele>
        <time>2020-10-13T09:16:07Z</time>
      </trkpt>
      <trkpt lat="37.871099000" lon="-4.722276000">
        <ele>119.3</ele>
        <time>2020-10-13T09:16:09Z</time>
      </trkpt>
      <trkpt lat="37.871128000" lon="-4.722137000">
        <ele>119.3</ele>
        <time>2020-10-13T09:16:11Z</time>
      </trkpt>
      <trkpt lat="37.871156000" lon="-4.721998000">
        <ele>119.5</ele>
        <time>2020-10-13T09:16:13Z</time>
      </trkpt>
      <trkpt lat="37.871186000" lon="-4.721864000">
        <ele>119.7</ele>
        <time>2020-10-13T09:16:15Z</time>
      </trkpt>
      <trkpt lat="37.871218000" lon="-4.721739000">
        <ele>120.2</ele>
        <time>2020-10-13T09:16:17Z</time>
      </trkpt>
      <trkpt lat="37.871239000" lon="-4.721619000">
        <ele>120.7</ele>
        <time>2020-10-13T09:16:19Z</time>
      </trkpt>
      <trkpt lat="37.871265000" lon="-4.721504000">
        <ele>121.3</ele>
        <time>2020-10-13T09:16:21Z</time>
      </trkpt>
      <trkpt lat="37.871289000" lon="-4.721398000">
        <ele>121.7</ele>
        <time>2020-10-13T09:16:23Z</time>
      </trkpt>
      <trkpt lat="37.871319000" lon="-4.721258000">
        <ele>122.2</ele>
        <time>2020-10-13T09:16:26Z</time>
      </trkpt>
      <trkpt lat="37.871347000" lon="-4.721120000">
        <ele>122.5</ele>
        <time>2020-10-13T09:16:29Z</time>
      </trkpt>
      <trkpt lat="37.871374000" lon="-4.720989000">
        <ele>122.9</ele>
        <time>2020-10-13T09:16:32Z</time>
      </trkpt>
      <trkpt lat="37.871400000" lon="-4.720866000">
        <ele>123.3</ele>
        <time>2020-10-13T09:16:35Z</time>
      </trkpt>
      <trkpt lat="37.871421000" lon="-4.720743000">
        <ele>123.5</ele>
        <time>2020-10-13T09:16:38Z</time>
      </trkpt>
      <trkpt lat="37.871441000" lon="-4.720620000">
        <ele>123.6</ele>
        <time>2020-10-13T09:16:41Z</time>
      </trkpt>
      <trkpt lat="37.871464000" lon="-4.720491000">
        <ele>123.7</ele>
        <time>2020-10-13T09:16:44Z</time>
      </trkpt>
      <trkpt lat="37.871484000" lon="-4.720350000">
        <ele>123.7</ele>
        <time>2020-10-13T09:16:47Z</time>
      </trkpt>
      <trkpt lat="37.871507000" lon="-4.720201000">
        <ele>123.6</ele>
        <time>2020-10-13T09:16:50Z</time>
      </trkpt>
      <trkpt lat="37.871522000" lon="-4.720098000">
        <ele>123.5</ele>
        <time>2020-10-13T09:16:52Z</time>
      </trkpt>
      <trkpt lat="37.871540000" lon="-4.719994000">
        <ele>123.2</ele>
        <time>2020-10-13T09:16:54Z</time>
      </trkpt>
      <trkpt lat="37.871557000" lon="-4.719885000">
        <ele>122.9</ele>
        <time>2020-10-13T09:16:56Z</time>
      </trkpt>
      <trkpt lat="37.871579000" lon="-4.719768000">
        <ele>122.6</ele>
        <time>2020-10-13T09:16:58Z</time>
      </trkpt>
      <trkpt lat="37.871590000" lon="-4.719657000">
        <ele>122.3</ele>
        <time>2020-10-13T09:17:00Z</time>
      </trkpt>
      <trkpt lat="37.871614000" lon="-4.719536000">
        <ele>121.9</ele>
        <time>2020-10-13T09:17:02Z</time>
      </trkpt>
      <trkpt lat="37.871632000" lon="-4.719413000">
        <ele>121.5</ele>
        <time>2020-10-13T09:17:04Z</time>
      </trkpt>
      <trkpt lat="37.871654000" lon="-4.719287000">
        <ele>121.2</ele>
        <time>2020-10-13T09:17:06Z</time>
      </trkpt>
      <trkpt lat="37.871676000" lon="-4.719156000">
        <ele>120.9</ele>
        <time>2020-10-13T09:17:08Z</time>
      </trkpt>
      <trkpt lat="37.871695000" lon="-4.719013000">
        <ele>120.6</ele>
        <time>2020-10-13T09:17:10Z</time>
      </trkpt>
      <trkpt lat="37.871719000" lon="-4.718862000">
        <ele>120.4</ele>
        <time>2020-10-13T09:17:12Z</time>
      </trkpt>
      <trkpt lat="37.871747000" lon="-4.718717000">
        <ele>120.3</ele>
        <time>2020-10-13T09:17:14Z</time>
      </trkpt>
      <trkpt lat="37.871769000" lon="-4.718572000">
        <ele>120.4</ele>
        <time>2020-10-13T09:17:16Z</time>
      </trkpt>
      <trkpt lat="37.871791000" lon="-4.718433000">
        <ele>120.5</ele>
        <time>2020-10-13T09:17:18Z</time>
      </trkpt>
      <trkpt lat="37.871809000" lon="-4.718304000">
        <ele>120.7</ele>
        <time>2020-10-13T09:17:20Z</time>
      </trkpt>
      <trkpt lat="37.871827000" lon="-4.718189000">
        <ele>121.1</ele>
        <time>2020-10-13T09:17:22Z</time>
      </trkpt>
      <trkpt lat="37.871853000" lon="-4.718043000">
        <ele>121.5</ele>
        <time>2020-10-13T09:17:25Z</time>
      </trkpt>
      <trkpt lat="37.871871000" lon="-4.717906000">
        <ele>121.8</ele>
        <time>2020-10-13T09:17:28Z</time>
      </trkpt>
      <trkpt lat="37.871884000" lon="-4.717777000">
        <ele>122.2</ele>
        <time>2020-10-13T09:17:31Z</time>
      </trkpt>
      <trkpt lat="37.871895000" lon="-4.717648000">
        <ele>122.5</ele>
        <time>2020-10-13T09:17:34Z</time>
      </trkpt>
      <trkpt lat="37.871895000" lon="-4.717517000">
        <ele>122.7</ele>
        <time>2020-10-13T09:17:37Z</time>
      </trkpt>
      <trkpt lat="37.871888000" lon="-4.717380000">
        <ele>123.1</ele>
        <time>2020-10-13T09:17:40Z</time>
      </trkpt>
      <trkpt lat="37.871870000" lon="-4.717237000">
        <ele>123.4</ele>
        <time>2020-10-13T09:17:43Z</time>
      </trkpt>
      <trkpt lat="37.871839000" lon="-4.717100000">
        <ele>123.5</ele>
        <time>2020-10-13T09:17:46Z</time>
      </trkpt>
      <trkpt lat="37.871805000" lon="-4.716968000">
        <ele>123.6</ele>
        <time>2020-10-13T09:17:49Z</time>
      </trkpt>
      <trkpt lat="37.871766000" lon="-4.716833000">
        <ele>123.7</ele>
        <time>2020-10-13T09:17:52Z</time>
      </trkpt>
      <trkpt lat="37.871720000" lon="-4.716693000">
        <ele>123.7</ele>
        <time>2020-10-13T09:17:55Z</time>
      </trkpt>
      <trkpt lat="37.871684000" lon="-4.716598000">
        <ele>123.8</ele>
        <time>2020-10-13T09:17:57Z</time>
      </trkpt>
      <trkpt lat="37.871644000" lon="-4.716500000">
        <ele>123.9</ele>
        <time>2020-10-13T09:17:59Z</time>
      </trkpt>
      <trkpt lat="37.871601000" lon="-4.716395000">
        <ele>124.1</ele>
        <time>2020-10-13T09:18:01Z</time>
      </trkpt>
      <trkpt lat="37.871557000" lon="-4.716292000">
        <ele>124.3</ele>
        <time>2020-10-13T09:18:03Z</time>
      </trkpt>
      <trkpt lat="37.871510000" lon="-4.716189000">
        <ele>124.5</ele>
        <time>2020-10-13T09:18:05Z</time>
      </trkpt>
      <trkpt lat="37.871450000" lon="-4.716100000">
        <ele>124.5</ele>
        <time>2020-10-13T09:18:07Z</time>
      </trkpt>
      <trkpt lat="37.871396000" lon="-4.716003000">
        <ele>124.5</ele>
        <time>2020-10-13T09:18:09Z</time>
      </trkpt>
      <trkpt lat="37.871340000" lon="-4.715910000">
        <ele>124.5</ele>
        <time>2020-10-13T09:18:11Z</time>
      </trkpt>
      <trkpt lat="37.871278000" lon="-4.715814000">
        <ele>124.5</ele>
        <time>2020-10-13T09:18:13Z</time>
      </trkpt>
      <trkpt lat="37.871220000" lon="-4.715713000">
        <ele>124.4</ele>
        <time>2020-10-13T09:18:15Z</time>
      </trkpt>
      <trkpt lat="37.871165000" lon="-4.715610000">
        <ele>124.4</ele>
        <time>2020-10-13T09:18:17Z</time>
      </trkpt>
      <trkpt lat="37.871107000" lon="-4.715507000">
        <ele>124.3</ele>
        <time>2020-10-13T09:18:19Z</time>
      </trkpt>
      <trkpt lat="37.871051000" lon="-4.715407000">
        <ele>124.2</ele>
        <time>2020-10-13T09:18:21Z</time>
      </trkpt>
      <trkpt lat="37.870997000" lon="-4.715308000">
        <ele>124.1</ele>
        <time>2020-10-13T09:18:23Z</time>
      </trkpt>
      <trkpt lat="37.870941000" lon="-4.715215000">
        <ele>123.9</ele>
        <time>2020-10-13T09:18:25Z</time>
      </trkpt>
      <trkpt lat="37.870891000" lon="-4.715119000">
        <ele>123.7</ele>
        <time>2020-10-13T09:18:27Z</time>
      </trkpt>
      <trkpt lat="37.870835000" lon="-4.715024000">
        <ele>123.5</ele>
        <time>2020-10-13T09:18:29Z</time>
      </trkpt>
      <trkpt lat="37.870771000" lon="-4.714930000">
        <ele>123.3</ele>
        <time>2020-10-13T09:18:31Z</time>
      </trkpt>
      <trkpt lat="37.870713000" lon="-4.714837000">
        <ele>122.9</ele>
        <time>2020-10-13T09:18:33Z</time>
      </trkpt>
      <trkpt lat="37.870653000" lon="-4.714732000">
        <ele>122.5</ele>
        <time>2020-10-13T09:18:35Z</time>
      </trkpt>
      <trkpt lat="37.870596000" lon="-4.714626000">
        <ele>122.1</ele>
        <time>2020-10-13T09:18:37Z</time>
      </trkpt>
      <trkpt lat="37.870536000" lon="-4.714515000">
        <ele>121.5</ele>
        <time>2020-10-13T09:18:39Z</time>
      </trkpt>
      <trkpt lat="37.870473000" lon="-4.714403000">
        <ele>121.0</ele>
        <time>2020-10-13T09:18:41Z</time>
      </trkpt>
      <trkpt lat="37.870412000" lon="-4.714290000">
        <ele>120.5</ele>
        <time>2020-10-13T09:18:43Z</time>
      </trkpt>
      <trkpt lat="37.870342000" lon="-4.714180000">
        <ele>120.1</ele>
        <time>2020-10-13T09:18:45Z</time>
      </trkpt>
      <trkpt lat="37.870273000" lon="-4.714063000">
        <ele>119.7</ele>
        <time>2020-10-13T09:18:47Z</time>
      </trkpt>
      <trkpt lat="37.870207000" lon="-4.713943000">
        <ele>119.5</ele>
        <time>2020-10-13T09:18:49Z</time>
      </trkpt>
      <trkpt lat="37.870138000" lon="-4.713822000">
        <ele>119.3</ele>
        <time>2020-10-13T09:18:51Z</time>
      </trkpt>
      <trkpt lat="37.870075000" lon="-4.713704000">
        <ele>119.3</ele>
        <time>2020-10-13T09:18:53Z</time>
      </trkpt>
      <trkpt lat="37.870004000" lon="-4.713586000">
        <ele>119.4</ele>
        <time>2020-10-13T09:18:55Z</time>
      </trkpt>
      <trkpt lat="37.869942000" lon="-4.713467000">
        <ele>119.5</ele>
        <time>2020-10-13T09:18:57Z</time>
      </trkpt>
      <trkpt lat="37.869876000" lon="-4.713344000">
        <ele>119.7</ele>
        <time>2020-10-13T09:18:59Z</time>
      </trkpt>
      <trkpt lat="37.869813000" lon="-4.713222000">
        <ele>120.0</ele>
        <time>2020-10-13T09:19:01Z</time>
      </trkpt>
      <trkpt lat="37.869757000" lon="-4.713099000">
        <ele>120.2</ele>
        <time>2020-10-13T09:19:03Z</time>
      </trkpt>
      <trkpt lat="37.869699000" lon="-4.712981000">
        <ele>120.3</ele>
        <time>2020-10-13T09:19:05Z</time>
      </trkpt>
      <trkpt lat="37.869638000" lon="-4.712863000">
        <ele>120.4</ele>
        <time>2020-10-13T09:19:07Z</time>
      </trkpt>
      <trkpt lat="37.869582000" lon="-4.712746000">
        <ele>120.4</ele>
        <time>2020-10-13T09:19:09Z</time>
      </trkpt>
      <trkpt lat="37.869521000" lon="-4.712630000">
        <ele>120.3</ele>
        <time>2020-10-13T09:19:11Z</time>
      </trkpt>
      <trkpt lat="37.869458000" lon="-4.712517000">
        <ele>120.2</ele>
        <time>2020-10-13T09:19:13Z</time>
      </trkpt>
      <trkpt lat="37.869400000" lon="-4.712400000">
        <ele>120.0</ele>
        <time>2020-10-13T09:19:15Z</time>
      </trkpt>
      <trkpt lat="37.869347000" lon="-4.712287000">
        <ele>119.9</ele>
        <time>2020-10-13T09:19:17Z</time>
      </trkpt>
      <trkpt lat="37.869290000" lon="-4.712178000">
        <ele>119.8</ele>
        <time>2020-10-13T09:19:19Z</time>
      </trkpt>
      <trkpt lat="37.869237000" lon="-4.712065000">
        <ele>119.8</ele>
        <time>2020-10-13T09:19:21Z</time>
      </trkpt>
      <trkpt lat="37.869187000" lon="-4.711953000">
        <ele>119.8</ele>
        <time>2020-10-13T09:19:23Z</time>
      </trkpt>
      <trkpt lat="37.869134000" lon="-4.711840000">
        <ele>119.9</ele>
        <time>2020-10-13T09:19:25Z</time>
      </trkpt>
      <trkpt lat="37.869088000" lon="-4.711736000">
        <ele>120.0</ele>
        <time>2020-10-13T09:19:27Z</time>
      </trkpt>
      <trkpt lat="37.869046000" lon="-4.711627000">
        <ele>120.1</ele>
        <time>2020-10-13T09:19:29Z</time>
      </trkpt>
      <trkpt lat="37.869003000" lon="-4.711516000">
        <ele>120.3</ele>
        <time>2020-10-13T09:19:31Z</time>
      </trkpt>
      <trkpt lat="37.868964000" lon="-4.711409000">
        <ele>120.4</ele>
        <time>2020-10-13T09:19:33Z</time>
      </trkpt>
      <trkpt lat="37.868926000" lon="-4.711297000">
        <ele>120.5</ele>
        <time>2020-10-13T09:19:35Z</time>
      </trkpt>
      <trkpt lat="37.868884000" lon="-4.711192000">
        <ele>120.5</ele>
        <time>2020-10-13T09:19:37Z</time>
      </trkpt>
      <trkpt lat="37.868848000" lon="-4.711084000">
        <ele>120.6</ele>
        <time>2020-10-13T09:19:39Z</time>
      </trkpt>
      <trkpt lat="37.868811000" lon="-4.710976000">
        <ele>120.7</ele>
        <time>2020-10-13T09:19:41Z</time>
      </trkpt>
      <trkpt lat="37.868778000" lon="-4.710869000">
        <ele>120.7</ele>
        <time>2020-10-13T09:19:43Z</time>
      </trkpt>
      <trkpt lat="37.868744000" lon="-4.710763000">
        <ele>120.7</ele>
        <time>2020-10-13T09:19:45Z</time>
      </trkpt>
      <trkpt lat="37.868712000" lon="-4.710666000">
        <ele>120.7</ele>
        <time>2020-10-13T09:19:47Z</time>
      </trkpt>
      <trkpt lat="37.868682000" lon="-4.710567000">
        <ele>120.6</ele>
        <time>2020-10-13T09:19:49Z</time>
      </trkpt>
      <trkpt lat="37.868640000" lon="-4.710422000">
        <ele>120.5</ele>
        <time>2020-10-13T09:19:52Z</time>
      </trkpt>
      <trkpt lat="37.868610000" lon="-4.710325000">
        <ele>120.5</ele>
        <time>2020-10-13T09:19:54Z</time>
      </trkpt>
      <trkpt lat="37.868579000" lon="-4.710228000">
        <ele>120.5</ele>
        <time>2020-10-13T09:19:56Z</time>
      </trkpt>
      <trkpt lat="37.868545000" lon="-4.710129000">
        <ele>120.6</ele>
        <time>2020-10-13T09:19:58Z</time>
      </trkpt>
      <trkpt lat="37.868509000" lon="-4.710025000">
        <ele>120.7</ele>
        <time>2020-10-13T09:20:00Z</time>
      </trkpt>
      <trkpt lat="37.868472000" lon="-4.709925000">
        <ele>120.7</ele>
        <time>2020-10-13T09:20:02Z</time>
      </trkpt>
      <trkpt lat="37.868430000" lon="-4.709820000">
        <ele>120.7</ele>
        <time>2020-10-13T09:20:04Z</time>
      </trkpt>
      <trkpt lat="37.868382000" lon="-4.709720000">
        <ele>120.7</ele>
        <time>2020-10-13T09:20:06Z</time>
      </trkpt>
      <trkpt lat="37.868336000" lon="-4.709620000">
        <ele>120.7</ele>
        <time>2020-10-13T09:20:08Z</time>
      </trkpt>
      <trkpt lat="37.868283000" lon="-4.709526000">
        <ele>120.6</ele>
        <time>2020-10-13T09:20:10Z</time>
      </trkpt>
      <trkpt lat="37.868234000" lon="-4.709422000">
        <ele>120.6</ele>
        <time>2020-10-13T09:20:12Z</time>
      </trkpt>
      <trkpt lat="37.868188000" lon="-4.709318000">
        <ele>120.6</ele>
        <time>2020-10-13T09:20:14Z</time>
      </trkpt>
      <trkpt lat="37.868141000" lon="-4.709217000">
        <ele>120.6</ele>
        <time>2020-10-13T09:20:16Z</time>
      </trkpt>
      <trkpt lat="37.868093000" lon="-4.709113000">
        <ele>120.5</ele>
        <time>2020-10-13T09:20:18Z</time>
      </trkpt>
      <trkpt lat="37.868045000" lon="-4.709006000">
        <ele>120.2</ele>
        <time>2020-10-13T09:20:20Z</time>
      </trkpt>
      <trkpt lat="37.868001000" lon="-4.708895000">
        <ele>119.9</ele>
        <time>2020-10-13T09:20:22Z</time>
      </trkpt>
      <trkpt lat="37.867952000" lon="-4.708786000">
        <ele>119.6</ele>
        <time>2020-10-13T09:20:24Z</time>
      </trkpt>
      <trkpt lat="37.867897000" lon="-4.708673000">
        <ele>119.3</ele>
        <time>2020-10-13T09:20:26Z</time>
      </trkpt>
      <trkpt lat="37.867845000" lon="-4.708548000">
        <ele>118.8</ele>
        <time>2020-10-13T09:20:28Z</time>
      </trkpt>
      <trkpt lat="37.867793000" lon="-4.708419000">
        <ele>118.4</ele>
        <time>2020-10-13T09:20:30Z</time>
      </trkpt>
      <trkpt lat="37.867754000" lon="-4.708289000">
        <ele>117.9</ele>
        <time>2020-10-13T09:20:32Z</time>
      </trkpt>
      <trkpt lat="37.867759000" lon="-4.708165000">
        <ele>117.5</ele>
        <time>2020-10-13T09:20:34Z</time>
      </trkpt>
      <trkpt lat="37.867807000" lon="-4.708053000">
        <ele>116.9</ele>
        <time>2020-10-13T09:20:36Z</time>
      </trkpt>
      <trkpt lat="37.867893000" lon="-4.707974000">
        <ele>116.3</ele>
        <time>2020-10-13T09:20:38Z</time>
      </trkpt>
      <trkpt lat="37.867998000" lon="-4.707937000">
        <ele>115.7</ele>
        <time>2020-10-13T09:20:40Z</time>
      </trkpt>
      <trkpt lat="37.868102000" lon="-4.707919000">
        <ele>115.2</ele>
        <time>2020-10-13T09:20:42Z</time>
      </trkpt>
      <trkpt lat="37.868201000" lon="-4.707910000">
        <ele>114.5</ele>
        <time>2020-10-13T09:20:45Z</time>
      </trkpt>
      <trkpt lat="37.868295000" lon="-4.707904000">
        <ele>113.8</ele>
        <time>2020-10-13T09:21:30Z</time>
      </trkpt>
      <trkpt lat="37.868396000" lon="-4.707908000">
        <ele>113.1</ele>
        <time>2020-10-13T09:21:33Z</time>
      </trkpt>
      <trkpt lat="37.868490000" lon="-4.707896000">
        <ele>112.5</ele>
        <time>2020-10-13T09:21:35Z</time>
      </trkpt>
      <trkpt lat="37.868592000" lon="-4.707893000">
        <ele>111.8</ele>
        <time>2020-10-13T09:21:38Z</time>
      </trkpt>
      <trkpt lat="37.868708000" lon="-4.707895000">
        <ele>111.4</ele>
        <time>2020-10-13T09:21:39Z</time>
      </trkpt>
      <trkpt lat="37.868835000" lon="-4.707891000">
        <ele>110.9</ele>
        <time>2020-10-13T09:21:41Z</time>
      </trkpt>
      <trkpt lat="37.868971000" lon="-4.707890000">
        <ele>110.6</ele>
        <time>2020-10-13T09:21:43Z</time>
      </trkpt>
      <trkpt lat="37.869115000" lon="-4.707882000">
        <ele>110.5</ele>
        <time>2020-10-13T09:21:45Z</time>
      </trkpt>
      <trkpt lat="37.869253000" lon="-4.707874000">
        <ele>110.5</ele>
        <time>2020-10-13T09:21:47Z</time>
      </trkpt>
      <trkpt lat="37.869383000" lon="-4.707867000">
        <ele>110.6</ele>
        <time>2020-10-13T09:21:49Z</time>
      </trkpt>
      <trkpt lat="37.869497000" lon="-4.707859000">
        <ele>110.9</ele>
        <time>2020-10-13T09:21:51Z</time>
      </trkpt>
      <trkpt lat="37.869602000" lon="-4.707848000">
        <ele>111.3</ele>
        <time>2020-10-13T09:21:53Z</time>
      </trkpt>
      <trkpt lat="37.869703000" lon="-4.707849000">
        <ele>111.8</ele>
        <time>2020-10-13T09:21:55Z</time>
      </trkpt>
      <trkpt lat="37.869796000" lon="-4.707850000">
        <ele>112.5</ele>
        <time>2020-10-13T09:21:57Z</time>
      </trkpt>
      <trkpt lat="37.869885000" lon="-4.707851000">
        <ele>113.1</ele>
        <time>2020-10-13T09:21:59Z</time>
      </trkpt>
      <trkpt lat="37.869974000" lon="-4.707841000">
        <ele>113.7</ele>
        <time>2020-10-13T09:22:01Z</time>
      </trkpt>
      <trkpt lat="37.870060000" lon="-4.707845000">
        <ele>114.4</ele>
        <time>2020-10-13T09:22:03Z</time>
      </trkpt>
      <trkpt lat="37.870147000" lon="-4.707848000">
        <ele>115.0</ele>
        <time>2020-10-13T09:22:05Z</time>
      </trkpt>
      <trkpt lat="37.870234000" lon="-4.707848000">
        <ele>115.5</ele>
        <time>2020-10-13T09:22:07Z</time>
      </trkpt>
      <trkpt lat="37.870320000" lon="-4.707848000">
        <ele>116.1</ele>
        <time>2020-10-13T09:22:09Z</time>
      </trkpt>
      <trkpt lat="37.870404000" lon="-4.707850000">
        <ele>116.7</ele>
        <time>2020-10-13T09:22:11Z</time>
      </trkpt>
      <trkpt lat="37.870487000" lon="-4.707852000">
        <ele>117.3</ele>
        <time>2020-10-13T09:22:13Z</time>
      </trkpt>
      <trkpt lat="37.870569000" lon="-4.707854000">
        <ele>117.8</ele>
        <time>2020-10-13T09:22:15Z</time>
      </trkpt>
      <trkpt lat="37.870688000" lon="-4.707861000">
        <ele>118.3</ele>
        <time>2020-10-13T09:22:18Z</time>
      </trkpt>
      <trkpt lat="37.870801000" lon="-4.707857000">
        <ele>118.7</ele>
        <time>2020-10-13T09:22:21Z</time>
      </trkpt>
      <trkpt lat="37.870914000" lon="-4.707867000">
        <ele>119.2</ele>
        <time>2020-10-13T09:22:24Z</time>
      </trkpt>
      <trkpt lat="37.871024000" lon="-4.707884000">
        <ele>119.5</ele>
        <time>2020-10-13T09:22:27Z</time>
      </trkpt>
      <trkpt lat="37.871125000" lon="-4.707910000">
        <ele>119.9</ele>
        <time>2020-10-13T09:22:30Z</time>
      </trkpt>
      <trkpt lat="37.871223000" lon="-4.707945000">
        <ele>120.2</ele>
        <time>2020-10-13T09:22:33Z</time>
      </trkpt>
      <trkpt lat="37.871313000" lon="-4.707980000">
        <ele>120.5</ele>
        <time>2020-10-13T09:22:36Z</time>
      </trkpt>
      <trkpt lat="37.871399000" lon="-4.708021000">
        <ele>120.6</ele>
        <time>2020-10-13T09:22:39Z</time>
      </trkpt>
      <trkpt lat="37.871485000" lon="-4.708062000">
        <ele>120.7</ele>
        <time>2020-10-13T09:22:42Z</time>
      </trkpt>
      <trkpt lat="37.871565000" lon="-4.708102000">
        <ele>120.8</ele>
        <time>2020-10-13T09:22:45Z</time>
      </trkpt>
      <trkpt lat="37.871639000" lon="-4.708146000">
        <ele>121.0</ele>
        <time>2020-10-13T09:22:48Z</time>
      </trkpt>
      <trkpt lat="37.871717000" lon="-4.708190000">
        <ele>121.3</ele>
        <time>2020-10-13T09:22:51Z</time>
      </trkpt>
      <trkpt lat="37.871795000" lon="-4.708227000">
        <ele>121.5</ele>
        <time>2020-10-13T09:22:54Z</time>
      </trkpt>
      <trkpt lat="37.871893000" lon="-4.708284000">
        <ele>121.7</ele>
        <time>2020-10-13T09:22:58Z</time>
      </trkpt>
      <trkpt lat="37.871970000" lon="-4.708320000">
        <ele>121.9</ele>
        <time>2020-10-13T09:23:01Z</time>
      </trkpt>
      <trkpt lat="37.872067000" lon="-4.708374000">
        <ele>122.2</ele>
        <time>2020-10-13T09:23:05Z</time>
      </trkpt>
      <trkpt lat="37.872156000" lon="-4.708420000">
        <ele>122.5</ele>
        <time>2020-10-13T09:23:09Z</time>
      </trkpt>
      <trkpt lat="37.872227000" lon="-4.708469000">
        <ele>122.7</ele>
        <time>2020-10-13T09:23:12Z</time>
      </trkpt>
      <trkpt lat="37.872329000" lon="-4.708493000">
        <ele>123.0</ele>
        <time>2020-10-13T09:23:16Z</time>
      </trkpt>
      <trkpt lat="37.872438000" lon="-4.708483000">
        <ele>123.4</ele>
        <time>2020-10-13T09:23:20Z</time>
      </trkpt>
      <trkpt lat="37.872516000" lon="-4.708443000">
        <ele>123.7</ele>
        <time>2020-10-13T09:23:23Z</time>
      </trkpt>
      <trkpt lat="37.872583000" lon="-4.708382000">
        <ele>124.1</ele>
        <time>2020-10-13T09:23:26Z</time>
      </trkpt>
      <trkpt lat="37.872635000" lon="-4.708291000">
        <ele>124.5</ele>
        <time>2020-10-13T09:23:29Z</time>
      </trkpt>
      <trkpt lat="37.872683000" lon="-4.708194000">
        <ele>124.8</ele>
        <time>2020-10-13T09:23:32Z</time>
      </trkpt>
      <trkpt lat="37.872727000" lon="-4.708097000">
        <ele>125.3</ele>
        <time>2020-10-13T09:23:35Z</time>
      </trkpt>
      <trkpt lat="37.872765000" lon="-4.708002000">
        <ele>125.7</ele>
        <time>2020-10-13T09:23:38Z</time>
      </trkpt>
      <trkpt lat="37.872808000" lon="-4.707901000">
        <ele>126.0</ele>
        <time>2020-10-13T09:23:41Z</time>
      </trkpt>
      <trkpt lat="37.872851000" lon="-4.707798000">
        <ele>126.3</ele>
        <time>2020-10-13T09:23:44Z</time>
      </trkpt>
      <trkpt lat="37.872887000" lon="-4.707693000">
        <ele>126.5</ele>
        <time>2020-10-13T09:23:47Z</time>
      </trkpt>
      <trkpt lat="37.872911000" lon="-4.707580000">
        <ele>126.6</ele>
        <time>2020-10-13T09:23:50Z</time>
      </trkpt>
      <trkpt lat="37.872917000" lon="-4.707466000">
        <ele>126.7</ele>
        <time>2020-10-13T09:23:53Z</time>
      </trkpt>
      <trkpt lat="37.872911000" lon="-4.707348000">
        <ele>126.9</ele>
        <time>2020-10-13T09:23:56Z</time>
      </trkpt>
      <trkpt lat="37.872907000" lon="-4.707229000">
        <ele>127.0</ele>
        <time>2020-10-13T09:23:59Z</time>
      </trkpt>
      <trkpt lat="37.872902000" lon="-4.707112000">
        <ele>127.0</ele>
        <time>2020-10-13T09:24:02Z</time>
      </trkpt>
      <trkpt lat="37.872894000" lon="-4.707000000">
        <ele>127.0</ele>
        <time>2020-10-13T09:24:05Z</time>
      </trkpt>
      <trkpt lat="37.872878000" lon="-4.706888000">
        <ele>127.0</ele>
        <time>2020-10-13T09:24:08Z</time>
      </trkpt>
      <trkpt lat="37.872867000" lon="-4.706770000">
        <ele>127.1</ele>
        <time>2020-10-13T09:24:11Z</time>
      </trkpt>
      <trkpt lat="37.872862000" lon="-4.706643000">
        <ele>127.3</ele>
        <time>2020-10-13T09:24:14Z</time>
      </trkpt>
      <trkpt lat="37.872854000" lon="-4.706518000">
        <ele>127.5</ele>
        <time>2020-10-13T09:24:17Z</time>
      </trkpt>
      <trkpt lat="37.872837000" lon="-4.706399000">
        <ele>127.9</ele>
        <time>2020-10-13T09:24:20Z</time>
      </trkpt>
      <trkpt lat="37.872827000" lon="-4.706278000">
        <ele>128.3</ele>
        <time>2020-10-13T09:24:23Z</time>
      </trkpt>
      <trkpt lat="37.872821000" lon="-4.706166000">
        <ele>128.6</ele>
        <time>2020-10-13T09:24:26Z</time>
      </trkpt>
      <trkpt lat="37.872816000" lon="-4.706060000">
        <ele>129.0</ele>
        <time>2020-10-13T09:24:29Z</time>
      </trkpt>
      <trkpt lat="37.872809000" lon="-4.705928000">
        <ele>129.5</ele>
        <time>2020-10-13T09:24:33Z</time>
      </trkpt>
      <trkpt lat="37.872805000" lon="-4.705804000">
        <ele>130.0</ele>
        <time>2020-10-13T09:24:37Z</time>
      </trkpt>
      <trkpt lat="37.872798000" lon="-4.705682000">
        <ele>130.5</ele>
        <time>2020-10-13T09:24:41Z</time>
      </trkpt>
      <trkpt lat="37.872792000" lon="-4.705564000">
        <ele>131.1</ele>
        <time>2020-10-13T09:24:45Z</time>
      </trkpt>
      <trkpt lat="37.872781000" lon="-4.705447000">
        <ele>131.6</ele>
        <time>2020-10-13T09:24:49Z</time>
      </trkpt>
      <trkpt lat="37.872770000" lon="-4.705322000">
        <ele>132.3</ele>
        <time>2020-10-13T09:24:53Z</time>
      </trkpt>
      <trkpt lat="37.872762000" lon="-4.705204000">
        <ele>132.9</ele>
        <time>2020-10-13T09:24:57Z</time>
      </trkpt>
      <trkpt lat="37.872748000" lon="-4.705085000">
        <ele>133.6</ele>
        <time>2020-10-13T09:25:01Z</time>
      </trkpt>
      <trkpt lat="37.872746000" lon="-4.704973000">
        <ele>134.5</ele>
        <time>2020-10-13T09:25:05Z</time>
      </trkpt>
      <trkpt lat="37.872734000" lon="-4.704857000">
        <ele>135.4</ele>
        <time>2020-10-13T09:25:09Z</time>
      </trkpt>
      <trkpt lat="37.872720000" lon="-4.704746000">
        <ele>136.3</ele>
        <time>2020-10-13T09:25:13Z</time>
      </trkpt>
      <trkpt lat="37.872688000" lon="-4.704636000">
        <ele>137.1</ele>
        <time>2020-10-13T09:25:17Z</time>
      </trkpt>
      <trkpt lat="37.872661000" lon="-4.704518000">
        <ele>137.8</ele>
        <time>2020-10-13T09:25:21Z</time>
      </trkpt>
      <trkpt lat="37.872627000" lon="-4.704393000">
        <ele>138.5</ele>
        <time>2020-10-13T09:25:25Z</time>
      </trkpt>
      <trkpt lat="37.872588000" lon="-4.704268000">
        <ele>139.3</ele>
        <time>2020-10-13T09:25:29Z</time>
      </trkpt>
      <trkpt lat="37.872551000" lon="-4.704147000">
        <ele>140.0</ele>
        <time>2020-10-13T09:25:33Z</time>
      </trkpt>
      <trkpt lat="37.872508000" lon="-4.704025000">
        <ele>140.6</ele>
        <time>2020-10-13T09:25:37Z</time>
      </trkpt>
      <trkpt lat="37.872475000" lon="-4.703901000">
        <ele>141.2</ele>
        <time>2020-10-13T09:25:41Z</time>
      </trkpt>
      <trkpt lat="37.872442000" lon="-4.703774000">
        <ele>141.6</ele>
        <time>2020-10-13T09:25:45Z</time>
      </trkpt>
      <trkpt lat="37.872415000" lon="-4.703648000">
        <ele>141.9</ele>
        <time>2020-10-13T09:25:49Z</time>
      </trkpt>
      <trkpt lat="37.872392000" lon="-4.703519000">
        <ele>142.1</ele>
        <time>2020-10-13T09:25:53Z</time>
      </trkpt>
      <trkpt lat="37.872365000" lon="-4.703392000">
        <ele>142.3</ele>
        <time>2020-10-13T09:25:57Z</time>
      </trkpt>
      <trkpt lat="37.872349000" lon="-4.703291000">
        <ele>142.5</ele>
        <time>2020-10-13T09:26:00Z</time>
      </trkpt>
      <trkpt lat="37.872333000" lon="-4.703160000">
        <ele>142.9</ele>
        <time>2020-10-13T09:26:04Z</time>
      </trkpt>
      <trkpt lat="37.872313000" lon="-4.703031000">
        <ele>143.4</ele>
        <time>2020-10-13T09:26:08Z</time>
      </trkpt>
      <trkpt lat="37.872293000" lon="-4.702901000">
        <ele>143.9</ele>
        <time>2020-10-13T09:26:12Z</time>
      </trkpt>
      <trkpt lat="37.872275000" lon="-4.702773000">
        <ele>144.5</ele>
        <time>2020-10-13T09:26:16Z</time>
      </trkpt>
      <trkpt lat="37.872261000" lon="-4.702643000">
        <ele>145.1</ele>
        <time>2020-10-13T09:26:20Z</time>
      </trkpt>
      <trkpt lat="37.872254000" lon="-4.702541000">
        <ele>145.8</ele>
        <time>2020-10-13T09:26:23Z</time>
      </trkpt>
      <trkpt lat="37.872238000" lon="-4.702412000">
        <ele>146.5</ele>
        <time>2020-10-13T09:26:27Z</time>
      </trkpt>
      <trkpt lat="37.872222000" lon="-4.702311000">
        <ele>147.5</ele>
        <time>2020-10-13T09:26:30Z</time>
      </trkpt>
      <trkpt lat="37.872210000" lon="-4.702205000">
        <ele>148.4</ele>
        <time>2020-10-13T09:26:33Z</time>
      </trkpt>
      <trkpt lat="37.872194000" lon="-4.702070000">
        <ele>149.2</ele>
        <time>2020-10-13T09:26:37Z</time>
      </trkpt>
      <trkpt lat="37.872180000" lon="-4.701969000">
        <ele>149.9</ele>
        <time>2020-10-13T09:26:40Z</time>
      </trkpt>
      <trkpt lat="37.872164000" lon="-4.701835000">
        <ele>150.5</ele>
        <time>2020-10-13T09:26:44Z</time>
      </trkpt>
      <trkpt lat="37.872148000" lon="-4.701729000">
        <ele>151.0</ele>
        <time>2020-10-13T09:26:47Z</time>
      </trkpt>
      <trkpt lat="37.872136000" lon="-4.701622000">
        <ele>151.4</ele>
        <time>2020-10-13T09:26:50Z</time>
      </trkpt>
      <trkpt lat="37.872124000" lon="-4.701518000">
        <ele>151.6</ele>
        <time>2020-10-13T09:26:53Z</time>
      </trkpt>
      <trkpt lat="37.872111000" lon="-4.701414000">
        <ele>151.7</ele>
        <time>2020-10-13T09:26:56Z</time>
      </trkpt>
      <trkpt lat="37.872097000" lon="-4.701309000">
        <ele>151.7</ele>
        <time>2020-10-13T09:26:59Z</time>
      </trkpt>
      <trkpt lat="37.872085000" lon="-4.701206000">
        <ele>151.7</ele>
        <time>2020-10-13T09:27:02Z</time>
      </trkpt>
      <trkpt lat="37.872071000" lon="-4.701101000">
        <ele>151.6</ele>
        <time>2020-10-13T09:27:05Z</time>
      </trkpt>
      <trkpt lat="37.872054000" lon="-4.700992000">
        <ele>151.6</ele>
        <time>2020-10-13T09:27:08Z</time>
      </trkpt>
      <trkpt lat="37.872039000" lon="-4.700882000">
        <ele>151.7</ele>
        <time>2020-10-13T09:27:11Z</time>
      </trkpt>
      <trkpt lat="37.872019000" lon="-4.700768000">
        <ele>151.7</ele>
        <time>2020-10-13T09:27:14Z</time>
      </trkpt>
      <trkpt lat="37.871995000" lon="-4.700650000">
        <ele>151.7</ele>
        <time>2020-10-13T09:27:17Z</time>
      </trkpt>
      <trkpt lat="37.871964000" lon="-4.700523000">
        <ele>151.7</ele>
        <time>2020-10-13T09:27:20Z</time>
      </trkpt>
      <trkpt lat="37.871925000" lon="-4.700394000">
        <ele>151.6</ele>
        <time>2020-10-13T09:27:23Z</time>
      </trkpt>
      <trkpt lat="37.871879000" lon="-4.700252000">
        <ele>151.5</ele>
        <time>2020-10-13T09:27:26Z</time>
      </trkpt>
      <trkpt lat="37.871846000" lon="-4.700153000">
        <ele>151.5</ele>
        <time>2020-10-13T09:27:28Z</time>
      </trkpt>
      <trkpt lat="37.871811000" lon="-4.700050000">
        <ele>151.5</ele>
        <time>2020-10-13T09:27:30Z</time>
      </trkpt>
      <trkpt lat="37.871773000" lon="-4.699949000">
        <ele>151.5</ele>
        <time>2020-10-13T09:27:32Z</time>
      </trkpt>
      <trkpt lat="37.871734000" lon="-4.699850000">
        <ele>151.5</ele>
        <time>2020-10-13T09:27:34Z</time>
      </trkpt>
      <trkpt lat="37.871695000" lon="-4.699745000">
        <ele>151.5</ele>
        <time>2020-10-13T09:27:36Z</time>
      </trkpt>
      <trkpt lat="37.871658000" lon="-4.699644000">
        <ele>151.3</ele>
        <time>2020-10-13T09:27:38Z</time>
      </trkpt>
      <trkpt lat="37.871619000" lon="-4.699537000">
        <ele>151.2</ele>
        <time>2020-10-13T09:27:40Z</time>
      </trkpt>
      <trkpt lat="37.871579000" lon="-4.699431000">
        <ele>151.1</ele>
        <time>2020-10-13T09:27:42Z</time>
      </trkpt>
      <trkpt lat="37.871545000" lon="-4.699328000">
        <ele>151.0</ele>
        <time>2020-10-13T09:27:44Z</time>
      </trkpt>
      <trkpt lat="37.871509000" lon="-4.699223000">
        <ele>151.0</ele>
        <time>2020-10-13T09:27:46Z</time>
      </trkpt>
      <trkpt lat="37.871477000" lon="-4.699118000">
        <ele>151.1</ele>
        <time>2020-10-13T09:27:48Z</time>
      </trkpt>
      <trkpt lat="37.871444000" lon="-4.699016000">
        <ele>151.2</ele>
        <time>2020-10-13T09:27:50Z</time>
      </trkpt>
      <trkpt lat="37.871398000" lon="-4.698886000">
        <ele>151.4</ele>
        <time>2020-10-13T09:27:53Z</time>
      </trkpt>
      <trkpt lat="37.871351000" lon="-4.698763000">
        <ele>151.6</ele>
        <time>2020-10-13T09:27:56Z</time>
      </trkpt>
      <trkpt lat="37.871312000" lon="-4.698635000">
        <ele>152.0</ele>
        <time>2020-10-13T09:27:59Z</time>
      </trkpt>
      <trkpt lat="37.871273000" lon="-4.698509000">
        <ele>152.5</ele>
        <time>2020-10-13T09:28:02Z</time>
      </trkpt>
      <trkpt lat="37.871231000" lon="-4.698387000">
        <ele>152.9</ele>
        <time>2020-10-13T09:28:05Z</time>
      </trkpt>
      <trkpt lat="37.871188000" lon="-4.698264000">
        <ele>153.5</ele>
        <time>2020-10-13T09:28:08Z</time>
      </trkpt>
      <trkpt lat="37.871147000" lon="-4.698144000">
        <ele>154.0</ele>
        <time>2020-10-13T09:28:11Z</time>
      </trkpt>
      <trkpt lat="37.871110000" lon="-4.698020000">
        <ele>154.5</ele>
        <time>2020-10-13T09:28:14Z</time>
      </trkpt>
      <trkpt lat="37.871068000" lon="-4.697900000">
        <ele>155.2</ele>
        <time>2020-10-13T09:28:17Z</time>
      </trkpt>
      <trkpt lat="37.871032000" lon="-4.697780000">
        <ele>155.7</ele>
        <time>2020-10-13T09:28:20Z</time>
      </trkpt>
      <trkpt lat="37.871000000" lon="-4.697658000">
        <ele>156.3</ele>
        <time>2020-10-13T09:28:23Z</time>
      </trkpt>
      <trkpt lat="37.870968000" lon="-4.697537000">
        <ele>156.6</ele>
        <time>2020-10-13T09:28:26Z</time>
      </trkpt>
      <trkpt lat="37.870942000" lon="-4.697409000">
        <ele>156.9</ele>
        <time>2020-10-13T09:28:29Z</time>
      </trkpt>
      <trkpt lat="37.870918000" lon="-4.697279000">
        <ele>157.0</ele>
        <time>2020-10-13T09:28:32Z</time>
      </trkpt>
      <trkpt lat="37.870899000" lon="-4.697146000">
        <ele>157.0</ele>
        <time>2020-10-13T09:28:35Z</time>
      </trkpt>
      <trkpt lat="37.870886000" lon="-4.697006000">
        <ele>157.1</ele>
        <time>2020-10-13T09:28:38Z</time>
      </trkpt>
      <trkpt lat="37.870877000" lon="-4.696865000">
        <ele>157.1</ele>
        <time>2020-10-13T09:28:41Z</time>
      </trkpt>
      <trkpt lat="37.870867000" lon="-4.696719000">
        <ele>157.2</ele>
        <time>2020-10-13T09:28:44Z</time>
      </trkpt>
      <trkpt lat="37.870861000" lon="-4.696577000">
        <ele>157.4</ele>
        <time>2020-10-13T09:28:47Z</time>
      </trkpt>
      <trkpt lat="37.870854000" lon="-4.696436000">
        <ele>157.5</ele>
        <time>2020-10-13T09:28:50Z</time>
      </trkpt>
      <trkpt lat="37.870849000" lon="-4.696294000">
        <ele>157.5</ele>
        <time>2020-10-13T09:28:53Z</time>
      </trkpt>
      <trkpt lat="37.870847000" lon="-4.696155000">
        <ele>157.6</ele>
        <time>2020-10-13T09:28:56Z</time>
      </trkpt>
      <trkpt lat="37.870840000" lon="-4.696009000">
        <ele>157.8</ele>
        <time>2020-10-13T09:28:59Z</time>
      </trkpt>
      <trkpt lat="37.870838000" lon="-4.695906000">
        <ele>157.9</ele>
        <time>2020-10-13T09:29:01Z</time>
      </trkpt>
      <trkpt lat="37.870835000" lon="-4.695801000">
        <ele>158.1</ele>
        <time>2020-10-13T09:29:03Z</time>
      </trkpt>
      <trkpt lat="37.870832000" lon="-4.695697000">
        <ele>158.3</ele>
        <time>2020-10-13T09:29:05Z</time>
      </trkpt>
      <trkpt lat="37.870827000" lon="-4.695593000">
        <ele>158.4</ele>
        <time>2020-10-13T09:29:07Z</time>
      </trkpt>
      <trkpt lat="37.870827000" lon="-4.695489000">
        <ele>158.5</ele>
        <time>2020-10-13T09:29:09Z</time>
      </trkpt>
      <trkpt lat="37.870824000" lon="-4.695385000">
        <ele>158.5</ele>
        <time>2020-10-13T09:29:11Z</time>
      </trkpt>
      <trkpt lat="37.870818000" lon="-4.695233000">
        <ele>158.5</ele>
        <time>2020-10-13T09:29:14Z</time>
      </trkpt>
      <trkpt lat="37.870813000" lon="-4.695087000">
        <ele>158.5</ele>
        <time>2020-10-13T09:29:17Z</time>
      </trkpt>
      <trkpt lat="37.870805000" lon="-4.694945000">
        <ele>158.6</ele>
        <time>2020-10-13T09:29:20Z</time>
      </trkpt>
      <trkpt lat="37.870797000" lon="-4.694798000">
        <ele>158.7</ele>
        <time>2020-10-13T09:29:23Z</time>
      </trkpt>
      <trkpt lat="37.870789000" lon="-4.694653000">
        <ele>158.8</ele>
        <time>2020-10-13T09:29:26Z</time>
      </trkpt>
      <trkpt lat="37.870781000" lon="-4.694514000">
        <ele>159.0</ele>
        <time>2020-10-13T09:29:29Z</time>
      </trkpt>
      <trkpt lat="37.870773000" lon="-4.694381000">
        <ele>159.2</ele>
        <time>2020-10-13T09:29:32Z</time>
      </trkpt>
      <trkpt lat="37.870762000" lon="-4.694249000">
        <ele>159.3</ele>
        <time>2020-10-13T09:29:35Z</time>
      </trkpt>
      <trkpt lat="37.870755000" lon="-4.694122000">
        <ele>159.4</ele>
        <time>2020-10-13T09:29:38Z</time>
      </trkpt>
      <trkpt lat="37.870742000" lon="-4.693993000">
        <ele>159.5</ele>
        <time>2020-10-13T09:29:41Z</time>
      </trkpt>
      <trkpt lat="37.870732000" lon="-4.693860000">
        <ele>159.5</ele>
        <time>2020-10-13T09:29:44Z</time>
      </trkpt>
      <trkpt lat="37.870724000" lon="-4.693724000">
        <ele>159.5</ele>
        <time>2020-10-13T09:29:47Z</time>
      </trkpt>
      <trkpt lat="37.870715000" lon="-4.693592000">
        <ele>159.6</ele>
        <time>2020-10-13T09:29:50Z</time>
      </trkpt>
      <trkpt lat="37.870711000" lon="-4.693464000">
        <ele>159.7</ele>
        <time>2020-10-13T09:29:53Z</time>
      </trkpt>
      <trkpt lat="37.870711000" lon="-4.693334000">
        <ele>159.8</ele>
        <time>2020-10-13T09:29:56Z</time>
      </trkpt>
      <trkpt lat="37.870712000" lon="-4.693202000">
        <ele>159.8</ele>
        <time>2020-10-13T09:29:59Z</time>
      </trkpt>
      <trkpt lat="37.870716000" lon="-4.693074000">
        <ele>159.8</ele>
        <time>2020-10-13T09:30:02Z</time>
      </trkpt>
      <trkpt lat="37.870725000" lon="-4.692943000">
        <ele>159.8</ele>
        <time>2020-10-13T09:30:05Z</time>
      </trkpt>
      <trkpt lat="37.870741000" lon="-4.692805000">
        <ele>159.9</ele>
        <time>2020-10-13T09:30:08Z</time>
      </trkpt>
      <trkpt lat="37.870760000" lon="-4.692663000">
        <ele>160.0</ele>
        <time>2020-10-13T09:30:11Z</time>
      </trkpt>
      <trkpt lat="37.870781000" lon="-4.692517000">
        <ele>160.1</ele>
        <time>2020-10-13T09:30:14Z</time>
      </trkpt>
      <trkpt lat="37.870796000" lon="-4.692415000">
        <ele>160.2</ele>
        <time>2020-10-13T09:30:16Z</time>
      </trkpt>
      <trkpt lat="37.870812000" lon="-4.692311000">
        <ele>160.3</ele>
        <time>2020-10-13T09:30:18Z</time>
      </trkpt>
      <trkpt lat="37.870829000" lon="-4.692206000">
        <ele>160.4</ele>
        <time>2020-10-13T09:30:20Z</time>
      </trkpt>
      <trkpt lat="37.870849000" lon="-4.692101000">
        <ele>160.4</ele>
        <time>2020-10-13T09:30:22Z</time>
      </trkpt>
      <trkpt lat="37.870865000" lon="-4.691995000">
        <ele>160.5</ele>
        <time>2020-10-13T09:30:24Z</time>
      </trkpt>
      <trkpt lat="37.870881000" lon="-4.691889000">
        <ele>160.6</ele>
        <time>2020-10-13T09:30:26Z</time>
      </trkpt>
      <trkpt lat="37.870897000" lon="-4.691781000">
        <ele>160.8</ele>
        <time>2020-10-13T09:30:28Z</time>
      </trkpt>
      <trkpt lat="37.870916000" lon="-4.691676000">
        <ele>161.0</ele>
        <time>2020-10-13T09:30:30Z</time>
      </trkpt>
      <trkpt lat="37.870937000" lon="-4.691575000">
        <ele>161.2</ele>
        <time>2020-10-13T09:30:32Z</time>
      </trkpt>
      <trkpt lat="37.870955000" lon="-4.691473000">
        <ele>161.4</ele>
        <time>2020-10-13T09:30:34Z</time>
      </trkpt>
      <trkpt lat="37.870976000" lon="-4.691371000">
        <ele>161.5</ele>
        <time>2020-10-13T09:30:36Z</time>
      </trkpt>
      <trkpt lat="37.870993000" lon="-4.691266000">
        <ele>161.7</ele>
        <time>2020-10-13T09:30:38Z</time>
      </trkpt>
      <trkpt lat="37.871012000" lon="-4.691159000">
        <ele>161.8</ele>
        <time>2020-10-13T09:30:40Z</time>
      </trkpt>
      <trkpt lat="37.871035000" lon="-4.691051000">
        <ele>161.9</ele>
        <time>2020-10-13T09:30:42Z</time>
      </trkpt>
      <trkpt lat="37.871052000" lon="-4.690940000">
        <ele>162.0</ele>
        <time>2020-10-13T09:30:44Z</time>
      </trkpt>
      <trkpt lat="37.871077000" lon="-4.690831000">
        <ele>162.0</ele>
        <time>2020-10-13T09:30:46Z</time>
      </trkpt>
      <trkpt lat="37.871089000" lon="-4.690730000">
        <ele>162.1</ele>
        <time>2020-10-13T09:30:48Z</time>
      </trkpt>
      <trkpt lat="37.871098000" lon="-4.690579000">
        <ele>162.2</ele>
        <time>2020-10-13T09:30:51Z</time>
      </trkpt>
      <trkpt lat="37.871106000" lon="-4.690438000">
        <ele>162.3</ele>
        <time>2020-10-13T09:30:54Z</time>
      </trkpt>
      <trkpt lat="37.871106000" lon="-4.690299000">
        <ele>162.5</ele>
        <time>2020-10-13T09:30:57Z</time>
      </trkpt>
      <trkpt lat="37.871102000" lon="-4.690167000">
        <ele>162.5</ele>
        <time>2020-10-13T09:31:00Z</time>
      </trkpt>
      <trkpt lat="37.871096000" lon="-4.690044000">
        <ele>162.6</ele>
        <time>2020-10-13T09:31:03Z</time>
      </trkpt>
      <trkpt lat="37.871085000" lon="-4.689922000">
        <ele>162.7</ele>
        <time>2020-10-13T09:31:06Z</time>
      </trkpt>
      <trkpt lat="37.871076000" lon="-4.689801000">
        <ele>162.8</ele>
        <time>2020-10-13T09:31:09Z</time>
      </trkpt>
      <trkpt lat="37.871064000" lon="-4.689687000">
        <ele>163.0</ele>
        <time>2020-10-13T09:31:12Z</time>
      </trkpt>
      <trkpt lat="37.871055000" lon="-4.689576000">
        <ele>163.2</ele>
        <time>2020-10-13T09:31:15Z</time>
      </trkpt>
      <trkpt lat="37.871044000" lon="-4.689471000">
        <ele>163.5</ele>
        <time>2020-10-13T09:31:18Z</time>
      </trkpt>
      <trkpt lat="37.871039000" lon="-4.689336000">
        <ele>163.6</ele>
        <time>2020-10-13T09:31:22Z</time>
      </trkpt>
      <trkpt lat="37.871032000" lon="-4.689232000">
        <ele>163.9</ele>
        <time>2020-10-13T09:31:25Z</time>
      </trkpt>
      <trkpt lat="37.871026000" lon="-4.689126000">
        <ele>164.3</ele>
        <time>2020-10-13T09:31:28Z</time>
      </trkpt>
      <trkpt lat="37.871024000" lon="-4.689019000">
        <ele>164.5</ele>
        <time>2020-10-13T09:31:31Z</time>
      </trkpt>
      <trkpt lat="37.871020000" lon="-4.688916000">
        <ele>165.0</ele>
        <time>2020-10-13T09:31:34Z</time>
      </trkpt>
      <trkpt lat="37.871025000" lon="-4.688813000">
        <ele>165.5</ele>
        <time>2020-10-13T09:31:37Z</time>
      </trkpt>
      <trkpt lat="37.871037000" lon="-4.688703000">
        <ele>165.8</ele>
        <time>2020-10-13T09:31:40Z</time>
      </trkpt>
      <trkpt lat="37.871050000" lon="-4.688592000">
        <ele>166.2</ele>
        <time>2020-10-13T09:31:43Z</time>
      </trkpt>
      <trkpt lat="37.871066000" lon="-4.688486000">
        <ele>166.5</ele>
        <time>2020-10-13T09:31:46Z</time>
      </trkpt>
      <trkpt lat="37.871083000" lon="-4.688379000">
        <ele>166.7</ele>
        <time>2020-10-13T09:31:49Z</time>
      </trkpt>
      <trkpt lat="37.871095000" lon="-4.688271000">
        <ele>167.0</ele>
        <time>2020-10-13T09:31:52Z</time>
      </trkpt>
      <trkpt lat="37.871117000" lon="-4.688160000">
        <ele>167.4</ele>
        <time>2020-10-13T09:31:55Z</time>
      </trkpt>
      <trkpt lat="37.871137000" lon="-4.688044000">
        <ele>167.7</ele>
        <time>2020-10-13T09:31:58Z</time>
      </trkpt>
      <trkpt lat="37.871155000" lon="-4.687926000">
        <ele>168.1</ele>
        <time>2020-10-13T09:32:01Z</time>
      </trkpt>
      <trkpt lat="37.871172000" lon="-4.687811000">
        <ele>168.5</ele>
        <time>2020-10-13T09:32:04Z</time>
      </trkpt>
      <trkpt lat="37.871190000" lon="-4.687699000">
        <ele>168.8</ele>
        <time>2020-10-13T09:32:07Z</time>
      </trkpt>
      <trkpt lat="37.871200000" lon="-4.687584000">
        <ele>169.3</ele>
        <time>2020-10-13T09:32:10Z</time>
      </trkpt>
      <trkpt lat="37.871203000" lon="-4.687472000">
        <ele>169.8</ele>
        <time>2020-10-13T09:32:13Z</time>
      </trkpt>
      <trkpt lat="37.871195000" lon="-4.687367000">
        <ele>170.5</ele>
        <time>2020-10-13T09:32:16Z</time>
      </trkpt>
      <trkpt lat="37.871171000" lon="-4.687238000">
        <ele>171.1</ele>
        <time>2020-10-13T09:32:20Z</time>
      </trkpt>
      <trkpt lat="37.871138000" lon="-4.687122000">
        <ele>171.8</ele>
        <time>2020-10-13T09:32:24Z</time>
      </trkpt>
      <trkpt lat="37.871095000" lon="-4.687005000">
        <ele>172.5</ele>
        <time>2020-10-13T09:32:28Z</time>
      </trkpt>
      <trkpt lat="37.871043000" lon="-4.686891000">
        <ele>173.1</ele>
        <time>2020-10-13T09:32:32Z</time>
      </trkpt>
      <trkpt lat="37.870984000" lon="-4.686795000">
        <ele>173.7</ele>
        <time>2020-10-13T09:32:36Z</time>
      </trkpt>
      <trkpt lat="37.870928000" lon="-4.686698000">
        <ele>174.4</ele>
        <time>2020-10-13T09:32:40Z</time>
      </trkpt>
      <trkpt lat="37.870873000" lon="-4.686611000">
        <ele>175.1</ele>
        <time>2020-10-13T09:32:44Z</time>
      </trkpt>
      <trkpt lat="37.870826000" lon="-4.686524000">
        <ele>175.7</ele>
        <time>2020-10-13T09:32:48Z</time>
      </trkpt>
      <trkpt lat="37.870772000" lon="-4.686436000">
        <ele>176.4</ele>
        <time>2020-10-13T09:32:52Z</time>
      </trkpt>
      <trkpt lat="37.870718000" lon="-4.686346000">
        <ele>177.0</ele>
        <time>2020-10-13T09:32:56Z</time>
      </trkpt>
      <trkpt lat="37.870669000" lon="-4.686248000">
        <ele>177.6</ele>
        <time>2020-10-13T09:33:00Z</time>
      </trkpt>
      <trkpt lat="37.870631000" lon="-4.686149000">
        <ele>178.4</ele>
        <time>2020-10-13T09:33:04Z</time>
      </trkpt>
      <trkpt lat="37.870592000" lon="-4.686046000">
        <ele>179.1</ele>
        <time>2020-10-13T09:33:08Z</time>
      </trkpt>
      <trkpt lat="37.870548000" lon="-4.685956000">
        <ele>179.9</ele>
        <time>2020-10-13T09:33:12Z</time>
      </trkpt>
      <trkpt lat="37.870504000" lon="-4.685846000">
        <ele>180.7</ele>
        <time>2020-10-13T09:33:17Z</time>
      </trkpt>
      <trkpt lat="37.870468000" lon="-4.685728000">
        <ele>181.5</ele>
        <time>2020-10-13T09:33:22Z</time>
      </trkpt>
      <trkpt lat="37.870419000" lon="-4.685617000">
        <ele>182.4</ele>
        <time>2020-10-13T09:33:27Z</time>
      </trkpt>
      <trkpt lat="37.870386000" lon="-4.685522000">
        <ele>183.2</ele>
        <time>2020-10-13T09:33:31Z</time>
      </trkpt>
      <trkpt lat="37.870348000" lon="-4.685407000">
        <ele>184.0</ele>
        <time>2020-10-13T09:33:36Z</time>
      </trkpt>
      <trkpt lat="37.870308000" lon="-4.685292000">
        <ele>184.8</ele>
        <time>2020-10-13T09:33:41Z</time>
      </trkpt>
      <trkpt lat="37.870273000" lon="-4.685178000">
        <ele>185.7</ele>
        <time>2020-10-13T09:33:46Z</time>
      </trkpt>
      <trkpt lat="37.870234000" lon="-4.685069000">
        <ele>186.7</ele>
        <time>2020-10-13T09:33:51Z</time>
      </trkpt>
      <trkpt lat="37.870198000" lon="-4.684967000">
        <ele>187.7</ele>
        <time>2020-10-13T09:33:56Z</time>
      </trkpt>
      <trkpt lat="37.870171000" lon="-4.684869000">
        <ele>188.7</ele>
        <time>2020-10-13T09:34:00Z</time>
      </trkpt>
      <trkpt lat="37.870145000" lon="-4.684760000">
        <ele>189.7</ele>
        <time>2020-10-13T09:34:04Z</time>
      </trkpt>
      <trkpt lat="37.870124000" lon="-4.684657000">
        <ele>190.6</ele>
        <time>2020-10-13T09:34:08Z</time>
      </trkpt>
      <trkpt lat="37.870101000" lon="-4.684533000">
        <ele>191.5</ele>
        <time>2020-10-13T09:34:13Z</time>
      </trkpt>
      <trkpt lat="37.870079000" lon="-4.684432000">
        <ele>192.4</ele>
        <time>2020-10-13T09:34:17Z</time>
      </trkpt>
      <trkpt lat="37.870052000" lon="-4.684333000">
        <ele>193.1</ele>
        <time>2020-10-13T09:34:21Z</time>
      </trkpt>
      <trkpt lat="37.870035000" lon="-4.684228000">
        <ele>193.9</ele>
        <time>2020-10-13T09:34:25Z</time>
      </trkpt>
      <trkpt lat="37.870015000" lon="-4.684105000">
        <ele>194.7</ele>
        <time>2020-10-13T09:34:30Z</time>
      </trkpt>
      <trkpt lat="37.869990000" lon="-4.683982000">
        <ele>195.5</ele>
        <time>2020-10-13T09:34:35Z</time>
      </trkpt>
      <trkpt lat="37.869967000" lon="-4.683865000">
        <ele>196.3</ele>
        <time>2020-10-13T09:34:40Z</time>
      </trkpt>
      <trkpt lat="37.869940000" lon="-4.683754000">
        <ele>197.0</ele>
        <time>2020-10-13T09:34:45Z</time>
      </trkpt>
      <trkpt lat="37.869919000" lon="-4.683632000">
        <ele>197.7</ele>
        <time>2020-10-13T09:34:50Z</time>
      </trkpt>
      <trkpt lat="37.869908000" lon="-4.683527000">
        <ele>198.5</ele>
        <time>2020-10-13T09:34:54Z</time>
      </trkpt>
      <trkpt lat="37.869899000" lon="-4.683422000">
        <ele>199.3</ele>
        <time>2020-10-13T09:34:58Z</time>
      </trkpt>
      <trkpt lat="37.869873000" lon="-4.683300000">
        <ele>200.2</ele>
        <time>2020-10-13T09:35:03Z</time>
      </trkpt>
      <trkpt lat="37.869872000" lon="-4.683195000">
        <ele>201.3</ele>
        <time>2020-10-13T09:35:07Z</time>
      </trkpt>
      <trkpt lat="37.869862000" lon="-4.683070000">
        <ele>202.5</ele>
        <time>2020-10-13T09:35:12Z</time>
      </trkpt>
      <trkpt lat="37.869873000" lon="-4.682968000">
        <ele>203.7</ele>
        <time>2020-10-13T09:35:16Z</time>
      </trkpt>
      <trkpt lat="37.869895000" lon="-4.682851000">
        <ele>204.9</ele>
        <time>2020-10-13T09:35:21Z</time>
      </trkpt>
      <trkpt lat="37.869918000" lon="-4.682737000">
        <ele>206.0</ele>
        <time>2020-10-13T09:35:26Z</time>
      </trkpt>
      <trkpt lat="37.869955000" lon="-4.682620000">
        <ele>207.0</ele>
        <time>2020-10-13T09:35:31Z</time>
      </trkpt>
      <trkpt lat="37.869989000" lon="-4.682526000">
        <ele>207.9</ele>
        <time>2020-10-13T09:35:35Z</time>
      </trkpt>
      <trkpt lat="37.870032000" lon="-4.682420000">
        <ele>208.7</ele>
        <time>2020-10-13T09:35:40Z</time>
      </trkpt>
      <trkpt lat="37.870074000" lon="-4.682321000">
        <ele>209.5</ele>
        <time>2020-10-13T09:35:45Z</time>
      </trkpt>
      <trkpt lat="37.870107000" lon="-4.682212000">
        <ele>210.1</ele>
        <time>2020-10-13T09:35:50Z</time>
      </trkpt>
      <trkpt lat="37.870142000" lon="-4.682103000">
        <ele>210.6</ele>
        <time>2020-10-13T09:35:55Z</time>
      </trkpt>
      <trkpt lat="37.870181000" lon="-4.681991000">
        <ele>211.0</ele>
        <time>2020-10-13T09:36:00Z</time>
      </trkpt>
      <trkpt lat="37.870212000" lon="-4.681896000">
        <ele>211.3</ele>
        <time>2020-10-13T09:36:04Z</time>
      </trkpt>
      <trkpt lat="37.870256000" lon="-4.681808000">
        <ele>211.6</ele>
        <time>2020-10-13T09:36:08Z</time>
      </trkpt>
      <trkpt lat="37.870288000" lon="-4.681687000">
        <ele>212.0</ele>
        <time>2020-10-13T09:36:13Z</time>
      </trkpt>
      <trkpt lat="37.870308000" lon="-4.681585000">
        <ele>212.5</ele>
        <time>2020-10-13T09:36:17Z</time>
      </trkpt>
      <trkpt lat="37.870333000" lon="-4.681463000">
        <ele>212.9</ele>
        <time>2020-10-13T09:36:22Z</time>
      </trkpt>
      <trkpt lat="37.870341000" lon="-4.681338000">
        <ele>213.5</ele>
        <time>2020-10-13T09:36:27Z</time>
      </trkpt>
      <trkpt lat="37.870351000" lon="-4.681224000">
        <ele>214.1</ele>
        <time>2020-10-13T09:36:32Z</time>
      </trkpt>
      <trkpt lat="37.870361000" lon="-4.681104000">
        <ele>214.8</ele>
        <time>2020-10-13T09:36:37Z</time>
      </trkpt>
      <trkpt lat="37.870369000" lon="-4.680981000">
        <ele>215.5</ele>
        <time>2020-10-13T09:36:42Z</time>
      </trkpt>
      <trkpt lat="37.870367000" lon="-4.680876000">
        <ele>216.3</ele>
        <time>2020-10-13T09:36:46Z</time>
      </trkpt>
      <trkpt lat="37.870370000" lon="-4.680748000">
        <ele>217.1</ele>
        <time>2020-10-13T09:36:51Z</time>
      </trkpt>
      <trkpt lat="37.870373000" lon="-4.680624000">
        <ele>217.8</ele>
        <time>2020-10-13T09:36:56Z</time>
      </trkpt>
      <trkpt lat="37.870377000" lon="-4.680519000">
        <ele>218.5</ele>
        <time>2020-10-13T09:37:00Z</time>
      </trkpt>
      <trkpt lat="37.870377000" lon="-4.680400000">
        <ele>219.1</ele>
        <time>2020-10-13T09:37:05Z</time>
      </trkpt>
      <trkpt lat="37.870379000" lon="-4.680278000">
        <ele>219.6</ele>
        <time>2020-10-13T09:37:10Z</time>
      </trkpt>
      <trkpt lat="37.870372000" lon="-4.680157000">
        <ele>220.3</ele>
        <time>2020-10-13T09:37:15Z</time>
      </trkpt>
      <trkpt lat="37.870368000" lon="-4.680039000">
        <ele>220.8</ele>
        <time>2020-10-13T09:37:20Z</time>
      </trkpt>
      <trkpt lat="37.870368000" lon="-4.679919000">
        <ele>221.3</ele>
        <time>2020-10-13T09:37:25Z</time>
      </trkpt>
      <trkpt lat="37.870368000" lon="-4.679802000">
        <ele>221.7</ele>
        <time>2020-10-13T09:37:30Z</time>
      </trkpt>
      <trkpt lat="37.870372000" lon="-4.679674000">
        <ele>222.3</ele>
        <time>2020-10-13T09:37:35Z</time>
      </trkpt>
      <trkpt lat="37.870371000" lon="-4.679548000">
        <ele>222.7</ele>
        <time>2020-10-13T09:37:40Z</time>
      </trkpt>
      <trkpt lat="37.870375000" lon="-4.679437000">
        <ele>223.2</ele>
        <time>2020-10-13T09:37:45Z</time>
      </trkpt>
      <trkpt lat="37.870381000" lon="-4.679314000">
        <ele>223.6</ele>
        <time>2020-10-13T09:37:50Z</time>
      </trkpt>
      <trkpt lat="37.870390000" lon="-4.679191000">
        <ele>224.2</ele>
        <time>2020-10-13T09:37:55Z</time>
      </trkpt>
      <trkpt lat="37.870399000" lon="-4.679069000">
        <ele>224.7</ele>
        <time>2020-10-13T09:38:00Z</time>
      </trkpt>
      <trkpt lat="37.870413000" lon="-4.678967000">
        <ele>225.4</ele>
        <time>2020-10-13T09:38:04Z</time>
      </trkpt>
      <trkpt lat="37.870420000" lon="-4.678862000">
        <ele>226.0</ele>
        <time>2020-10-13T09:38:08Z</time>
      </trkpt>
      <trkpt lat="37.870430000" lon="-4.678759000">
        <ele>226.7</ele>
        <time>2020-10-13T09:38:12Z</time>
      </trkpt>
      <trkpt lat="37.870438000" lon="-4.678652000">
        <ele>227.5</ele>
        <time>2020-10-13T09:38:16Z</time>
      </trkpt>
      <trkpt lat="37.870443000" lon="-4.678548000">
        <ele>228.4</ele>
        <time>2020-10-13T09:38:20Z</time>
      </trkpt>
      <trkpt lat="37.870446000" lon="-4.678422000">
        <ele>229.2</ele>
        <time>2020-10-13T09:38:25Z</time>
      </trkpt>
      <trkpt lat="37.870454000" lon="-4.678308000">
        <ele>230.1</ele>
        <time>2020-10-13T09:38:30Z</time>
      </trkpt>
      <trkpt lat="37.870457000" lon="-4.678201000">
        <ele>231.0</ele>
        <time>2020-10-13T09:38:35Z</time>
      </trkpt>
      <trkpt lat="37.870463000" lon="-4.678085000">
        <ele>232.0</ele>
        <time>2020-10-13T09:38:40Z</time>
      </trkpt>
      <trkpt lat="37.870475000" lon="-4.677976000">
        <ele>232.9</ele>
        <time>2020-10-13T09:38:45Z</time>
      </trkpt>
      <trkpt lat="37.870499000" lon="-4.677860000">
        <ele>233.8</ele>
        <time>2020-10-13T09:38:50Z</time>
      </trkpt>
      <trkpt lat="37.870503000" lon="-4.677755000">
        <ele>234.6</ele>
        <time>2020-10-13T09:38:55Z</time>
      </trkpt>
      <trkpt lat="37.870530000" lon="-4.677644000">
        <ele>235.5</ele>
        <time>2020-10-13T09:39:00Z</time>
      </trkpt>
      <trkpt lat="37.870560000" lon="-4.677536000">
        <ele>236.3</ele>
        <time>2020-10-13T09:39:05Z</time>
      </trkpt>
      <trkpt lat="37.870598000" lon="-4.677443000">
        <ele>237.1</ele>
        <time>2020-10-13T09:39:10Z</time>
      </trkpt>
      <trkpt lat="37.870645000" lon="-4.677347000">
        <ele>237.8</ele>
        <time>2020-10-13T09:39:15Z</time>
      </trkpt>
      <trkpt lat="37.870682000" lon="-4.677241000">
        <ele>238.5</ele>
        <time>2020-10-13T09:39:20Z</time>
      </trkpt>
      <trkpt lat="37.870717000" lon="-4.677148000">
        <ele>239.0</ele>
        <time>2020-10-13T09:39:24Z</time>
      </trkpt>
      <trkpt lat="37.870764000" lon="-4.677052000">
        <ele>239.5</ele>
        <time>2020-10-13T09:39:29Z</time>
      </trkpt>
      <trkpt lat="37.870809000" lon="-4.676944000">
        <ele>239.8</ele>
        <time>2020-10-13T09:39:34Z</time>
      </trkpt>
      <trkpt lat="37.870848000" lon="-4.676834000">
        <ele>240.2</ele>
        <time>2020-10-13T09:39:39Z</time>
      </trkpt>
      <trkpt lat="37.870893000" lon="-4.676729000">
        <ele>240.5</ele>
        <time>2020-10-13T09:39:44Z</time>
      </trkpt>
      <trkpt lat="37.870930000" lon="-4.676635000">
        <ele>240.8</ele>
        <time>2020-10-13T09:39:49Z</time>
      </trkpt>
      <trkpt lat="37.870973000" lon="-4.676540000">
        <ele>241.1</ele>
        <time>2020-10-13T09:39:54Z</time>
      </trkpt>
      <trkpt lat="37.871000000" lon="-4.676428000">
        <ele>241.3</ele>
        <time>2020-10-13T09:39:59Z</time>
      </trkpt>
      <trkpt lat="37.871035000" lon="-4.676317000">
        <ele>241.5</ele>
        <time>2020-10-13T09:40:04Z</time>
      </trkpt>
      <trkpt lat="37.871067000" lon="-4.676200000">
        <ele>241.6</ele>
        <time>2020-10-13T09:40:09Z</time>
      </trkpt>
      <trkpt lat="37.871094000" lon="-4.676089000">
        <ele>241.9</ele>
        <time>2020-10-13T09:40:14Z</time>
      </trkpt>
      <trkpt lat="37.871121000" lon="-4.675979000">
        <ele>242.3</ele>
        <time>2020-10-13T09:40:19Z</time>
      </trkpt>
      <trkpt lat="37.871137000" lon="-4.675858000">
        <ele>242.7</ele>
        <time>2020-10-13T09:40:24Z</time>
      </trkpt>
      <trkpt lat="37.871156000" lon="-4.675743000">
        <ele>243.3</ele>
        <time>2020-10-13T09:40:29Z</time>
      </trkpt>
      <trkpt lat="37.871188000" lon="-4.675628000">
        <ele>243.8</ele>
        <time>2020-10-13T09:40:34Z</time>
      </trkpt>
      <trkpt lat="37.871218000" lon="-4.675505000">
        <ele>244.3</ele>
        <time>2020-10-13T09:40:39Z</time>
      </trkpt>
      <trkpt lat="37.871244000" lon="-4.675382000">
        <ele>244.6</ele>
        <time>2020-10-13T09:40:44Z</time>
      </trkpt>
      <trkpt lat="37.871275000" lon="-4.675263000">
        <ele>245.0</ele>
        <time>2020-10-13T09:40:49Z</time>
      </trkpt>
      <trkpt lat="37.871304000" lon="-4.675144000">
        <ele>245.4</ele>
        <time>2020-10-13T09:40:54Z</time>
      </trkpt>
      <trkpt lat="37.871322000" lon="-4.675042000">
        <ele>245.6</ele>
        <time>2020-10-13T09:40:58Z</time>
      </trkpt>
      <trkpt lat="37.871336000" lon="-4.674922000">
        <ele>245.9</ele>
        <time>2020-10-13T09:41:03Z</time>
      </trkpt>
      <trkpt lat="37.871351000" lon="-4.674814000">
        <ele>246.1</ele>
        <time>2020-10-13T09:41:07Z</time>
      </trkpt>
      <trkpt lat="37.871378000" lon="-4.674696000">
        <ele>246.2</ele>
        <time>2020-10-13T09:41:11Z</time>
      </trkpt>
      <trkpt lat="37.871388000" lon="-4.674577000">
        <ele>246.2</ele>
        <time>2020-10-13T09:41:15Z</time>
      </trkpt>
      <trkpt lat="37.871389000" lon="-4.674473000">
        <ele>246.1</ele>
        <time>2020-10-13T09:41:18Z</time>
      </trkpt>
      <trkpt lat="37.871390000" lon="-4.674368000">
        <ele>246.0</ele>
        <time>2020-10-13T09:41:21Z</time>
      </trkpt>
      <trkpt lat="37.871374000" lon="-4.674235000">
        <ele>246.1</ele>
        <time>2020-10-13T09:41:25Z</time>
      </trkpt>
      <trkpt lat="37.871368000" lon="-4.674124000">
        <ele>246.2</ele>
        <time>2020-10-13T09:41:28Z</time>
      </trkpt>
      <trkpt lat="37.871354000" lon="-4.674013000">
        <ele>246.3</ele>
        <time>2020-10-13T09:41:31Z</time>
      </trkpt>
      <trkpt lat="37.871342000" lon="-4.673902000">
        <ele>246.3</ele>
        <time>2020-10-13T09:41:34Z</time>
      </trkpt>
      <trkpt lat="37.871327000" lon="-4.673792000">
        <ele>246.3</ele>
        <time>2020-10-13T09:41:37Z</time>
      </trkpt>
      <trkpt lat="37.871312000" lon="-4.673678000">
        <ele>246.3</ele>
        <time>2020-10-13T09:41:40Z</time>
      </trkpt>
      <trkpt lat="37.871300000" lon="-4.673562000">
        <ele>246.4</ele>
        <time>2020-10-13T09:41:43Z</time>
      </trkpt>
      <trkpt lat="37.871290000" lon="-4.673443000">
        <ele>246.5</ele>
        <time>2020-10-13T09:41:46Z</time>
      </trkpt>
      <trkpt lat="37.871278000" lon="-4.673322000">
        <ele>246.5</ele>
        <time>2020-10-13T09:41:49Z</time>
      </trkpt>
      <trkpt lat="37.871258000" lon="-4.673197000">
        <ele>246.5</ele>
        <time>2020-10-13T09:41:52Z</time>
      </trkpt>
      <trkpt lat="37.871244000" lon="-4.673066000">
        <ele>246.5</ele>
        <time>2020-10-13T09:41:55Z</time>
      </trkpt>
      <trkpt lat="37.871231000" lon="-4.672928000">
        <ele>246.5</ele>
        <time>2020-10-13T09:41:58Z</time>
      </trkpt>
      <trkpt lat="37.871217000" lon="-4.672786000">
        <ele>246.5</ele>
        <time>2020-10-13T09:42:01Z</time>
      </trkpt>
      <trkpt lat="37.871205000" lon="-4.672635000">
        <ele>246.6</ele>
        <time>2020-10-13T09:42:04Z</time>
      </trkpt>
      <trkpt lat="37.871191000" lon="-4.672533000">
        <ele>246.8</ele>
        <time>2020-10-13T09:42:06Z</time>
      </trkpt>
      <trkpt lat="37.871179000" lon="-4.672430000">
        <ele>247.1</ele>
        <time>2020-10-13T09:42:08Z</time>
      </trkpt>
      <trkpt lat="37.871169000" lon="-4.672327000">
        <ele>247.5</ele>
        <time>2020-10-13T09:42:10Z</time>
      </trkpt>
      <trkpt lat="37.871158000" lon="-4.672222000">
        <ele>247.9</ele>
        <time>2020-10-13T09:42:12Z</time>
      </trkpt>
      <trkpt lat="37.871149000" lon="-4.672119000">
        <ele>248.4</ele>
        <time>2020-10-13T09:42:14Z</time>
      </trkpt>
      <trkpt lat="37.871140000" lon="-4.672016000">
        <ele>248.8</ele>
        <time>2020-10-13T09:42:16Z</time>
      </trkpt>
      <trkpt lat="37.871129000" lon="-4.671911000">
        <ele>249.4</ele>
        <time>2020-10-13T09:42:18Z</time>
      </trkpt>
      <trkpt lat="37.871122000" lon="-4.671808000">
        <ele>249.9</ele>
        <time>2020-10-13T09:42:20Z</time>
      </trkpt>
      <trkpt lat="37.871110000" lon="-4.671664000">
        <ele>250.3</ele>
        <time>2020-10-13T09:42:23Z</time>
      </trkpt>
      <trkpt lat="37.871095000" lon="-4.671542000">
        <ele>250.6</ele>
        <time>2020-10-13T09:42:26Z</time>
      </trkpt>
      <trkpt lat="37.871085000" lon="-4.671436000">
        <ele>250.8</ele>
        <time>2020-10-13T09:42:29Z</time>
      </trkpt>
      <trkpt lat="37.871069000" lon="-4.671309000">
        <ele>251.1</ele>
        <time>2020-10-13T09:42:33Z</time>
      </trkpt>
      <trkpt lat="37.871048000" lon="-4.671196000">
        <ele>251.3</ele>
        <time>2020-10-13T09:42:37Z</time>
      </trkpt>
      <trkpt lat="37.871022000" lon="-4.671080000">
        <ele>251.4</ele>
        <time>2020-10-13T09:42:41Z</time>
      </trkpt>
      <trkpt lat="37.870985000" lon="-4.670963000">
        <ele>251.3</ele>
        <time>2020-10-13T09:42:45Z</time>
      </trkpt>
      <trkpt lat="37.870944000" lon="-4.670838000">
        <ele>251.1</ele>
        <time>2020-10-13T09:42:49Z</time>
      </trkpt>
      <trkpt lat="37.870904000" lon="-4.670744000">
        <ele>250.9</ele>
        <time>2020-10-13T09:42:52Z</time>
      </trkpt>
      <trkpt lat="37.870861000" lon="-4.670647000">
        <ele>250.7</ele>
        <time>2020-10-13T09:42:55Z</time>
      </trkpt>
      <trkpt lat="37.870809000" lon="-4.670541000">
        <ele>250.5</ele>
        <time>2020-10-13T09:42:58Z</time>
      </trkpt>
      <trkpt lat="37.870753000" lon="-4.670419000">
        <ele>250.5</ele>
        <time>2020-10-13T09:43:01Z</time>
      </trkpt>
      <trkpt lat="37.870685000" lon="-4.670291000">
        <ele>250.5</ele>
        <time>2020-10-13T09:43:04Z</time>
      </trkpt>
      <trkpt lat="37.870636000" lon="-4.670196000">
        <ele>250.5</ele>
        <time>2020-10-13T09:43:06Z</time>
      </trkpt>
      <trkpt lat="37.870587000" lon="-4.670100000">
        <ele>250.5</ele>
        <time>2020-10-13T09:43:08Z</time>
      </trkpt>
      <trkpt lat="37.870533000" lon="-4.669999000">
        <ele>250.5</ele>
        <time>2020-10-13T09:43:10Z</time>
      </trkpt>
      <trkpt lat="37.870479000" lon="-4.669895000">
        <ele>250.5</ele>
        <time>2020-10-13T09:43:12Z</time>
      </trkpt>
      <trkpt lat="37.870422000" lon="-4.669790000">
        <ele>250.5</ele>
        <time>2020-10-13T09:43:14Z</time>
      </trkpt>
      <trkpt lat="37.870361000" lon="-4.669685000">
        <ele>250.5</ele>
        <time>2020-10-13T09:43:16Z</time>
      </trkpt>
      <trkpt lat="37.870310000" lon="-4.669574000">
        <ele>250.5</ele>
        <time>2020-10-13T09:43:18Z</time>
      </trkpt>
      <trkpt lat="37.870253000" lon="-4.669475000">
        <ele>250.5</ele>
        <time>2020-10-13T09:43:20Z</time>
      </trkpt>
      <trkpt lat="37.870205000" lon="-4.669369000">
        <ele>250.5</ele>
        <time>2020-10-13T09:43:22Z</time>
      </trkpt>
      <trkpt lat="37.870156000" lon="-4.669264000">
        <ele>250.3</ele>
        <time>2020-10-13T09:43:24Z</time>
      </trkpt>
      <trkpt lat="37.870107000" lon="-4.669154000">
        <ele>249.9</ele>
        <time>2020-10-13T09:43:26Z</time>
      </trkpt>
      <trkpt lat="37.870063000" lon="-4.669043000">
        <ele>249.5</ele>
        <time>2020-10-13T09:43:28Z</time>
      </trkpt>
      <trkpt lat="37.870020000" lon="-4.668926000">
        <ele>249.2</ele>
        <time>2020-10-13T09:43:30Z</time>
      </trkpt>
      <trkpt lat="37.869979000" lon="-4.668798000">
        <ele>248.8</ele>
        <time>2020-10-13T09:43:32Z</time>
      </trkpt>
      <trkpt lat="37.869938000" lon="-4.668665000">
        <ele>248.5</ele>
        <time>2020-10-13T09:43:34Z</time>
      </trkpt>
      <trkpt lat="37.869906000" lon="-4.668527000">
        <ele>248.2</ele>
        <time>2020-10-13T09:43:36Z</time>
      </trkpt>
      <trkpt lat="37.869870000" lon="-4.668387000">
        <ele>247.8</ele>
        <time>2020-10-13T09:43:38Z</time>
      </trkpt>
      <trkpt lat="37.869834000" lon="-4.668246000">
        <ele>247.5</ele>
        <time>2020-10-13T09:43:40Z</time>
      </trkpt>
      <trkpt lat="37.869807000" lon="-4.668111000">
        <ele>247.3</ele>
        <time>2020-10-13T09:43:42Z</time>
      </trkpt>
      <trkpt lat="37.869784000" lon="-4.667973000">
        <ele>247.1</ele>
        <time>2020-10-13T09:43:44Z</time>
      </trkpt>
      <trkpt lat="37.869760000" lon="-4.667836000">
        <ele>247.0</ele>
        <time>2020-10-13T09:43:46Z</time>
      </trkpt>
      <trkpt lat="37.869740000" lon="-4.667699000">
        <ele>247.0</ele>
        <time>2020-10-13T09:43:48Z</time>
      </trkpt>
      <trkpt lat="37.869725000" lon="-4.667565000">
        <ele>247.1</ele>
        <time>2020-10-13T09:43:50Z</time>
      </trkpt>
      <trkpt lat="37.869711000" lon="-4.667433000">
        <ele>247.2</ele>
        <time>2020-10-13T09:43:52Z</time>
      </trkpt>
      <trkpt lat="37.869701000" lon="-4.667309000">
        <ele>247.3</ele>
        <time>2020-10-13T09:43:54Z</time>
      </trkpt>
      <trkpt lat="37.869693000" lon="-4.667188000">
        <ele>247.4</ele>
        <time>2020-10-13T09:43:56Z</time>
      </trkpt>
      <trkpt lat="37.869692000" lon="-4.667073000">
        <ele>247.4</ele>
        <time>2020-10-13T09:43:58Z</time>
      </trkpt>
      <trkpt lat="37.869687000" lon="-4.666963000">
        <ele>247.4</ele>
        <time>2020-10-13T09:44:00Z</time>
      </trkpt>
      <trkpt lat="37.869681000" lon="-4.666858000">
        <ele>247.4</ele>
        <time>2020-10-13T09:44:02Z</time>
      </trkpt>
      <trkpt lat="37.869676000" lon="-4.666703000">
        <ele>247.4</ele>
        <time>2020-10-13T09:44:05Z</time>
      </trkpt>
      <trkpt lat="37.869677000" lon="-4.666598000">
        <ele>247.4</ele>
        <time>2020-10-13T09:44:07Z</time>
      </trkpt>
      <trkpt lat="37.869670000" lon="-4.666447000">
        <ele>247.4</ele>
        <time>2020-10-13T09:44:10Z</time>
      </trkpt>
      <trkpt lat="37.869662000" lon="-4.666296000">
        <ele>247.4</ele>
        <time>2020-10-13T09:44:13Z</time>
      </trkpt>
      <trkpt lat="37.869656000" lon="-4.666140000">
        <ele>247.3</ele>
        <time>2020-10-13T09:44:16Z</time>
      </trkpt>
      <trkpt lat="37.869652000" lon="-4.666032000">
        <ele>247.2</ele>
        <time>2020-10-13T09:44:18Z</time>
      </trkpt>
      <trkpt lat="37.869650000" lon="-4.665922000">
        <ele>247.1</ele>
        <time>2020-10-13T09:44:20Z</time>
      </trkpt>
      <trkpt lat="37.869645000" lon="-4.665809000">
        <ele>247.0</ele>
        <time>2020-10-13T09:44:22Z</time>
      </trkpt>
      <trkpt lat="37.869646000" lon="-4.665697000">
        <ele>247.1</ele>
        <time>2020-10-13T09:44:24Z</time>
      </trkpt>
      <trkpt lat="37.869643000" lon="-4.665586000">
        <ele>247.2</ele>
        <time>2020-10-13T09:44:26Z</time>
      </trkpt>
      <trkpt lat="37.869638000" lon="-4.665474000">
        <ele>247.4</ele>
        <time>2020-10-13T09:44:28Z</time>
      </trkpt>
      <trkpt lat="37.869634000" lon="-4.665367000">
        <ele>247.5</ele>
        <time>2020-10-13T09:44:30Z</time>
      </trkpt>
      <trkpt lat="37.869630000" lon="-4.665263000">
        <ele>247.7</ele>
        <time>2020-10-13T09:44:32Z</time>
      </trkpt>
      <trkpt lat="37.869628000" lon="-4.665158000">
        <ele>247.9</ele>
        <time>2020-10-13T09:44:34Z</time>
      </trkpt>
      <trkpt lat="37.869621000" lon="-4.665008000">
        <ele>248.1</ele>
        <time>2020-10-13T09:44:37Z</time>
      </trkpt>
      <trkpt lat="37.869613000" lon="-4.664863000">
        <ele>248.3</ele>
        <time>2020-10-13T09:44:40Z</time>
      </trkpt>
      <trkpt lat="37.869596000" lon="-4.664720000">
        <ele>248.5</ele>
        <time>2020-10-13T09:44:43Z</time>
      </trkpt>
      <trkpt lat="37.869578000" lon="-4.664580000">
        <ele>248.6</ele>
        <time>2020-10-13T09:44:46Z</time>
      </trkpt>
      <trkpt lat="37.869554000" lon="-4.664440000">
        <ele>248.8</ele>
        <time>2020-10-13T09:44:49Z</time>
      </trkpt>
      <trkpt lat="37.869526000" lon="-4.664298000">
        <ele>249.0</ele>
        <time>2020-10-13T09:44:52Z</time>
      </trkpt>
      <trkpt lat="37.869495000" lon="-4.664157000">
        <ele>249.2</ele>
        <time>2020-10-13T09:44:55Z</time>
      </trkpt>
      <trkpt lat="37.869460000" lon="-4.664020000">
        <ele>249.3</ele>
        <time>2020-10-13T09:44:58Z</time>
      </trkpt>
      <trkpt lat="37.869426000" lon="-4.663884000">
        <ele>249.4</ele>
        <time>2020-10-13T09:45:01Z</time>
      </trkpt>
      <trkpt lat="37.869392000" lon="-4.663750000">
        <ele>249.5</ele>
        <time>2020-10-13T09:45:04Z</time>
      </trkpt>
      <trkpt lat="37.869362000" lon="-4.663617000">
        <ele>249.6</ele>
        <time>2020-10-13T09:45:07Z</time>
      </trkpt>
      <trkpt lat="37.869329000" lon="-4.663481000">
        <ele>249.9</ele>
        <time>2020-10-13T09:45:10Z</time>
      </trkpt>
      <trkpt lat="37.869292000" lon="-4.663348000">
        <ele>250.2</ele>
        <time>2020-10-13T09:45:13Z</time>
      </trkpt>
      <trkpt lat="37.869254000" lon="-4.663217000">
        <ele>250.5</ele>
        <time>2020-10-13T09:45:16Z</time>
      </trkpt>
      <trkpt lat="37.869212000" lon="-4.663087000">
        <ele>250.7</ele>
        <time>2020-10-13T09:45:19Z</time>
      </trkpt>
      <trkpt lat="37.869167000" lon="-4.662954000">
        <ele>251.1</ele>
        <time>2020-10-13T09:45:22Z</time>
      </trkpt>
      <trkpt lat="37.869121000" lon="-4.662826000">
        <ele>251.4</ele>
        <time>2020-10-13T09:45:25Z</time>
      </trkpt>
      <trkpt lat="37.869071000" lon="-4.662701000">
        <ele>251.6</ele>
        <time>2020-10-13T09:45:28Z</time>
      </trkpt>
      <trkpt lat="37.869024000" lon="-4.662574000">
        <ele>251.9</ele>
        <time>2020-10-13T09:45:31Z</time>
      </trkpt>
      <trkpt lat="37.868976000" lon="-4.662446000">
        <ele>252.2</ele>
        <time>2020-10-13T09:45:34Z</time>
      </trkpt>
      <trkpt lat="37.868928000" lon="-4.662314000">
        <ele>252.5</ele>
        <time>2020-10-13T09:45:37Z</time>
      </trkpt>
      <trkpt lat="37.868877000" lon="-4.662184000">
        <ele>252.7</ele>
        <time>2020-10-13T09:45:40Z</time>
      </trkpt>
      <trkpt lat="37.868826000" lon="-4.662050000">
        <ele>252.9</ele>
        <time>2020-10-13T09:45:43Z</time>
      </trkpt>
      <trkpt lat="37.868789000" lon="-4.661958000">
        <ele>253.0</ele>
        <time>2020-10-13T09:45:45Z</time>
      </trkpt>
      <trkpt lat="37.868753000" lon="-4.661865000">
        <ele>253.1</ele>
        <time>2020-10-13T09:45:47Z</time>
      </trkpt>
      <trkpt lat="37.868717000" lon="-4.661771000">
        <ele>253.1</ele>
        <time>2020-10-13T09:45:49Z</time>
      </trkpt>
      <trkpt lat="37.868681000" lon="-4.661677000">
        <ele>253.0</ele>
        <time>2020-10-13T09:45:51Z</time>
      </trkpt>
      <trkpt lat="37.868628000" lon="-4.661541000">
        <ele>253.0</ele>
        <time>2020-10-13T09:45:54Z</time>
      </trkpt>
      <trkpt lat="37.868579000" lon="-4.661408000">
        <ele>253.0</ele>
        <time>2020-10-13T09:45:57Z</time>
      </trkpt>
      <trkpt lat="37.868528000" lon="-4.661280000">
        <ele>253.0</ele>
        <time>2020-10-13T09:46:00Z</time>
      </trkpt>
      <trkpt lat="37.868479000" lon="-4.661153000">
        <ele>253.0</ele>
        <time>2020-10-13T09:46:03Z</time>
      </trkpt>
      <trkpt lat="37.868432000" lon="-4.661021000">
        <ele>253.0</ele>
        <time>2020-10-13T09:46:06Z</time>
      </trkpt>
      <trkpt lat="37.868380000" lon="-4.660882000">
        <ele>253.0</ele>
        <time>2020-10-13T09:46:09Z</time>
      </trkpt>
      <trkpt lat="37.868344000" lon="-4.660789000">
        <ele>253.0</ele>
        <time>2020-10-13T09:46:11Z</time>
      </trkpt>
      <trkpt lat="37.868306000" lon="-4.660697000">
        <ele>253.1</ele>
        <time>2020-10-13T09:46:13Z</time>
      </trkpt>
      <trkpt lat="37.868267000" lon="-4.660607000">
        <ele>253.2</ele>
        <time>2020-10-13T09:46:15Z</time>
      </trkpt>
      <trkpt lat="37.868207000" lon="-4.660475000">
        <ele>253.4</ele>
        <time>2020-10-13T09:46:18Z</time>
      </trkpt>
      <trkpt lat="37.868146000" lon="-4.660351000">
        <ele>253.5</ele>
        <time>2020-10-13T09:46:21Z</time>
      </trkpt>
      <trkpt lat="37.868087000" lon="-4.660228000">
        <ele>253.6</ele>
        <time>2020-10-13T09:46:24Z</time>
      </trkpt>
      <trkpt lat="37.868025000" lon="-4.660106000">
        <ele>253.7</ele>
        <time>2020-10-13T09:46:27Z</time>
      </trkpt>
      <trkpt lat="37.867964000" lon="-4.659979000">
        <ele>253.8</ele>
        <time>2020-10-13T09:46:30Z</time>
      </trkpt>
      <trkpt lat="37.867920000" lon="-4.659891000">
        <ele>253.9</ele>
        <time>2020-10-13T09:46:32Z</time>
      </trkpt>
      <trkpt lat="37.867877000" lon="-4.659799000">
        <ele>254.0</ele>
        <time>2020-10-13T09:46:34Z</time>
      </trkpt>
      <trkpt lat="37.867834000" lon="-4.659706000">
        <ele>254.1</ele>
        <time>2020-10-13T09:46:36Z</time>
      </trkpt>
      <trkpt lat="37.867794000" lon="-4.659610000">
        <ele>254.3</ele>
        <time>2020-10-13T09:46:38Z</time>
      </trkpt>
      <trkpt lat="37.867757000" lon="-4.659511000">
        <ele>254.5</ele>
        <time>2020-10-13T09:46:40Z</time>
      </trkpt>
      <trkpt lat="37.867726000" lon="-4.659411000">
        <ele>254.7</ele>
        <time>2020-10-13T09:46:42Z</time>
      </trkpt>
      <trkpt lat="37.867696000" lon="-4.659315000">
        <ele>255.0</ele>
        <time>2020-10-13T09:46:44Z</time>
      </trkpt>
      <trkpt lat="37.867651000" lon="-4.659175000">
        <ele>255.3</ele>
        <time>2020-10-13T09:46:47Z</time>
      </trkpt>
      <trkpt lat="37.867607000" lon="-4.659045000">
        <ele>255.5</ele>
        <time>2020-10-13T09:46:50Z</time>
      </trkpt>
      <trkpt lat="37.867561000" lon="-4.658916000">
        <ele>255.8</ele>
        <time>2020-10-13T09:46:53Z</time>
      </trkpt>
      <trkpt lat="37.867511000" lon="-4.658788000">
        <ele>256.1</ele>
        <time>2020-10-13T09:46:56Z</time>
      </trkpt>
      <trkpt lat="37.867462000" lon="-4.658655000">
        <ele>256.4</ele>
        <time>2020-10-13T09:46:59Z</time>
      </trkpt>
      <trkpt lat="37.867411000" lon="-4.658518000">
        <ele>256.6</ele>
        <time>2020-10-13T09:47:02Z</time>
      </trkpt>
      <trkpt lat="37.867376000" lon="-4.658426000">
        <ele>256.8</ele>
        <time>2020-10-13T09:47:04Z</time>
      </trkpt>
      <trkpt lat="37.867343000" lon="-4.658331000">
        <ele>256.9</ele>
        <time>2020-10-13T09:47:06Z</time>
      </trkpt>
      <trkpt lat="37.867291000" lon="-4.658193000">
        <ele>257.1</ele>
        <time>2020-10-13T09:47:09Z</time>
      </trkpt>
      <trkpt lat="37.867243000" lon="-4.658063000">
        <ele>257.2</ele>
        <time>2020-10-13T09:47:12Z</time>
      </trkpt>
      <trkpt lat="37.867198000" lon="-4.657939000">
        <ele>257.4</ele>
        <time>2020-10-13T09:47:15Z</time>
      </trkpt>
      <trkpt lat="37.867151000" lon="-4.657819000">
        <ele>257.5</ele>
        <time>2020-10-13T09:47:18Z</time>
      </trkpt>
      <trkpt lat="37.867105000" lon="-4.657693000">
        <ele>257.7</ele>
        <time>2020-10-13T09:47:21Z</time>
      </trkpt>
      <trkpt lat="37.867058000" lon="-4.657561000">
        <ele>257.9</ele>
        <time>2020-10-13T09:47:24Z</time>
      </trkpt>
      <trkpt lat="37.867011000" lon="-4.657425000">
        <ele>258.1</ele>
        <time>2020-10-13T09:47:27Z</time>
      </trkpt>
      <trkpt lat="37.866963000" lon="-4.657292000">
        <ele>258.2</ele>
        <time>2020-10-13T09:47:30Z</time>
      </trkpt>
      <trkpt lat="37.866913000" lon="-4.657165000">
        <ele>258.3</ele>
        <time>2020-10-13T09:47:33Z</time>
      </trkpt>
      <trkpt lat="37.866866000" lon="-4.657040000">
        <ele>258.3</ele>
        <time>2020-10-13T09:47:36Z</time>
      </trkpt>
      <trkpt lat="37.866825000" lon="-4.656916000">
        <ele>258.3</ele>
        <time>2020-10-13T09:47:39Z</time>
      </trkpt>
      <trkpt lat="37.866777000" lon="-4.656791000">
        <ele>258.2</ele>
        <time>2020-10-13T09:47:42Z</time>
      </trkpt>
      <trkpt lat="37.866737000" lon="-4.656662000">
        <ele>258.1</ele>
        <time>2020-10-13T09:47:45Z</time>
      </trkpt>
      <trkpt lat="37.866698000" lon="-4.656538000">
        <ele>258.0</ele>
        <time>2020-10-13T09:47:48Z</time>
      </trkpt>
      <trkpt lat="37.866664000" lon="-4.656416000">
        <ele>258.0</ele>
        <time>2020-10-13T09:47:51Z</time>
      </trkpt>
      <trkpt lat="37.866632000" lon="-4.656292000">
        <ele>258.1</ele>
        <time>2020-10-13T09:47:54Z</time>
      </trkpt>
      <trkpt lat="37.866602000" lon="-4.656169000">
        <ele>258.3</ele>
        <time>2020-10-13T09:47:57Z</time>
      </trkpt>
      <trkpt lat="37.866576000" lon="-4.656043000">
        <ele>258.5</ele>
        <time>2020-10-13T09:48:00Z</time>
      </trkpt>
      <trkpt lat="37.866546000" lon="-4.655921000">
        <ele>258.7</ele>
        <time>2020-10-13T09:48:03Z</time>
      </trkpt>
      <trkpt lat="37.866519000" lon="-4.655797000">
        <ele>259.0</ele>
        <time>2020-10-13T09:48:06Z</time>
      </trkpt>
      <trkpt lat="37.866489000" lon="-4.655674000">
        <ele>259.4</ele>
        <time>2020-10-13T09:48:09Z</time>
      </trkpt>
      <trkpt lat="37.866462000" lon="-4.655553000">
        <ele>259.7</ele>
        <time>2020-10-13T09:48:12Z</time>
      </trkpt>
      <trkpt lat="37.866435000" lon="-4.655439000">
        <ele>260.1</ele>
        <time>2020-10-13T09:48:15Z</time>
      </trkpt>
      <trkpt lat="37.866409000" lon="-4.655327000">
        <ele>260.4</ele>
        <time>2020-10-13T09:48:18Z</time>
      </trkpt>
      <trkpt lat="37.866381000" lon="-4.655213000">
        <ele>260.6</ele>
        <time>2020-10-13T09:48:21Z</time>
      </trkpt>
      <trkpt lat="37.866354000" lon="-4.655097000">
        <ele>260.8</ele>
        <time>2020-10-13T09:48:24Z</time>
      </trkpt>
      <trkpt lat="37.866328000" lon="-4.654982000">
        <ele>260.9</ele>
        <time>2020-10-13T09:48:27Z</time>
      </trkpt>
      <trkpt lat="37.866301000" lon="-4.654867000">
        <ele>260.9</ele>
        <time>2020-10-13T09:48:30Z</time>
      </trkpt>
      <trkpt lat="37.866274000" lon="-4.654752000">
        <ele>260.9</ele>
        <time>2020-10-13T09:48:33Z</time>
      </trkpt>
      <trkpt lat="37.866246000" lon="-4.654628000">
        <ele>261.0</ele>
        <time>2020-10-13T09:48:36Z</time>
      </trkpt>
      <trkpt lat="37.866224000" lon="-4.654512000">
        <ele>261.1</ele>
        <time>2020-10-13T09:48:39Z</time>
      </trkpt>
      <trkpt lat="37.866194000" lon="-4.654379000">
        <ele>261.3</ele>
        <time>2020-10-13T09:48:42Z</time>
      </trkpt>
      <trkpt lat="37.866163000" lon="-4.654256000">
        <ele>261.5</ele>
        <time>2020-10-13T09:48:45Z</time>
      </trkpt>
      <trkpt lat="37.866134000" lon="-4.654130000">
        <ele>261.6</ele>
        <time>2020-10-13T09:48:48Z</time>
      </trkpt>
      <trkpt lat="37.866106000" lon="-4.654006000">
        <ele>262.0</ele>
        <time>2020-10-13T09:48:51Z</time>
      </trkpt>
      <trkpt lat="37.866076000" lon="-4.653882000">
        <ele>262.3</ele>
        <time>2020-10-13T09:48:54Z</time>
      </trkpt>
      <trkpt lat="37.866042000" lon="-4.653756000">
        <ele>262.5</ele>
        <time>2020-10-13T09:48:57Z</time>
      </trkpt>
      <trkpt lat="37.866010000" lon="-4.653627000">
        <ele>262.8</ele>
        <time>2020-10-13T09:49:00Z</time>
      </trkpt>
      <trkpt lat="37.865979000" lon="-4.653495000">
        <ele>263.1</ele>
        <time>2020-10-13T09:49:03Z</time>
      </trkpt>
      <trkpt lat="37.865949000" lon="-4.653365000">
        <ele>263.4</ele>
        <time>2020-10-13T09:49:06Z</time>
      </trkpt>
      <trkpt lat="37.865911000" lon="-4.653240000">
        <ele>263.6</ele>
        <time>2020-10-13T09:49:09Z</time>
      </trkpt>
      <trkpt lat="37.865876000" lon="-4.653115000">
        <ele>263.9</ele>
        <time>2020-10-13T09:49:12Z</time>
      </trkpt>
      <trkpt lat="37.865833000" lon="-4.652992000">
        <ele>264.2</ele>
        <time>2020-10-13T09:49:15Z</time>
      </trkpt>
      <trkpt lat="37.865788000" lon="-4.652871000">
        <ele>264.5</ele>
        <time>2020-10-13T09:49:18Z</time>
      </trkpt>
      <trkpt lat="37.865748000" lon="-4.652750000">
        <ele>264.7</ele>
        <time>2020-10-13T09:49:21Z</time>
      </trkpt>
      <trkpt lat="37.865701000" lon="-4.652631000">
        <ele>265.0</ele>
        <time>2020-10-13T09:49:24Z</time>
      </trkpt>
      <trkpt lat="37.865649000" lon="-4.652516000">
        <ele>265.3</ele>
        <time>2020-10-13T09:49:27Z</time>
      </trkpt>
      <trkpt lat="37.865596000" lon="-4.652404000">
        <ele>265.6</ele>
        <time>2020-10-13T09:49:31Z</time>
      </trkpt>
      <trkpt lat="37.865541000" lon="-4.652298000">
        <ele>266.0</ele>
        <time>2020-10-13T09:49:33Z</time>
      </trkpt>
      <trkpt lat="37.865494000" lon="-4.652191000">
        <ele>266.4</ele>
        <time>2020-10-13T09:49:36Z</time>
      </trkpt>
      <trkpt lat="37.865438000" lon="-4.652091000">
        <ele>266.7</ele>
        <time>2020-10-13T09:49:39Z</time>
      </trkpt>
      <trkpt lat="37.865376000" lon="-4.651994000">
        <ele>267.0</ele>
        <time>2020-10-13T09:49:42Z</time>
      </trkpt>
      <trkpt lat="37.865308000" lon="-4.651900000">
        <ele>267.3</ele>
        <time>2020-10-13T09:49:45Z</time>
      </trkpt>
      <trkpt lat="37.865245000" lon="-4.651801000">
        <ele>267.5</ele>
        <time>2020-10-13T09:49:48Z</time>
      </trkpt>
      <trkpt lat="37.865177000" lon="-4.651710000">
        <ele>267.5</ele>
        <time>2020-10-13T09:49:51Z</time>
      </trkpt>
      <trkpt lat="37.865111000" lon="-4.651619000">
        <ele>267.6</ele>
        <time>2020-10-13T09:49:54Z</time>
      </trkpt>
      <trkpt lat="37.865042000" lon="-4.651532000">
        <ele>267.6</ele>
        <time>2020-10-13T09:49:57Z</time>
      </trkpt>
      <trkpt lat="37.864973000" lon="-4.651441000">
        <ele>267.6</ele>
        <time>2020-10-13T09:50:00Z</time>
      </trkpt>
      <trkpt lat="37.864905000" lon="-4.651348000">
        <ele>267.5</ele>
        <time>2020-10-13T09:50:03Z</time>
      </trkpt>
      <trkpt lat="37.864837000" lon="-4.651259000">
        <ele>267.5</ele>
        <time>2020-10-13T09:50:06Z</time>
      </trkpt>
      <trkpt lat="37.864769000" lon="-4.651163000">
        <ele>267.3</ele>
        <time>2020-10-13T09:50:09Z</time>
      </trkpt>
      <trkpt lat="37.864701000" lon="-4.651067000">
        <ele>267.1</ele>
        <time>2020-10-13T09:50:12Z</time>
      </trkpt>
      <trkpt lat="37.864631000" lon="-4.650971000">
        <ele>266.9</ele>
        <time>2020-10-13T09:50:15Z</time>
      </trkpt>
      <trkpt lat="37.864557000" lon="-4.650878000">
        <ele>266.7</ele>
        <time>2020-10-13T09:50:18Z</time>
      </trkpt>
      <trkpt lat="37.864481000" lon="-4.650781000">
        <ele>266.5</ele>
        <time>2020-10-13T09:50:21Z</time>
      </trkpt>
      <trkpt lat="37.864403000" lon="-4.650674000">
        <ele>266.5</ele>
        <time>2020-10-13T09:50:24Z</time>
      </trkpt>
      <trkpt lat="37.864321000" lon="-4.650568000">
        <ele>266.3</ele>
        <time>2020-10-13T09:50:27Z</time>
      </trkpt>
      <trkpt lat="37.864271000" lon="-4.650487000">
        <ele>266.1</ele>
        <time>2020-10-13T09:50:29Z</time>
      </trkpt>
      <trkpt lat="37.864227000" lon="-4.650389000">
        <ele>265.9</ele>
        <time>2020-10-13T09:50:31Z</time>
      </trkpt>
      <trkpt lat="37.864175000" lon="-4.650289000">
        <ele>265.7</ele>
        <time>2020-10-13T09:50:33Z</time>
      </trkpt>
      <trkpt lat="37.864130000" lon="-4.650185000">
        <ele>265.6</ele>
        <time>2020-10-13T09:50:35Z</time>
      </trkpt>
      <trkpt lat="37.864083000" lon="-4.650088000">
        <ele>265.6</ele>
        <time>2020-10-13T09:50:37Z</time>
      </trkpt>
      <trkpt lat="37.864039000" lon="-4.649981000">
        <ele>265.6</ele>
        <time>2020-10-13T09:50:39Z</time>
      </trkpt>
      <trkpt lat="37.864000000" lon="-4.649868000">
        <ele>265.5</ele>
        <time>2020-10-13T09:50:41Z</time>
      </trkpt>
      <trkpt lat="37.863964000" lon="-4.649754000">
        <ele>265.5</ele>
        <time>2020-10-13T09:50:43Z</time>
      </trkpt>
      <trkpt lat="37.863926000" lon="-4.649634000">
        <ele>265.4</ele>
        <time>2020-10-13T09:50:45Z</time>
      </trkpt>
      <trkpt lat="37.863893000" lon="-4.649518000">
        <ele>265.3</ele>
        <time>2020-10-13T09:50:47Z</time>
      </trkpt>
      <trkpt lat="37.863849000" lon="-4.649392000">
        <ele>265.2</ele>
        <time>2020-10-13T09:50:49Z</time>
      </trkpt>
      <trkpt lat="37.863810000" lon="-4.649271000">
        <ele>264.9</ele>
        <time>2020-10-13T09:50:51Z</time>
      </trkpt>
      <trkpt lat="37.863770000" lon="-4.649140000">
        <ele>264.5</ele>
        <time>2020-10-13T09:50:53Z</time>
      </trkpt>
      <trkpt lat="37.863724000" lon="-4.649012000">
        <ele>264.2</ele>
        <time>2020-10-13T09:50:55Z</time>
      </trkpt>
      <trkpt lat="37.863673000" lon="-4.648885000">
        <ele>263.7</ele>
        <time>2020-10-13T09:50:57Z</time>
      </trkpt>
      <trkpt lat="37.863614000" lon="-4.648765000">
        <ele>263.3</ele>
        <time>2020-10-13T09:50:59Z</time>
      </trkpt>
      <trkpt lat="37.863552000" lon="-4.648646000">
        <ele>262.8</ele>
        <time>2020-10-13T09:51:01Z</time>
      </trkpt>
      <trkpt lat="37.863495000" lon="-4.648530000">
        <ele>262.5</ele>
        <time>2020-10-13T09:51:03Z</time>
      </trkpt>
      <trkpt lat="37.863434000" lon="-4.648418000">
        <ele>262.0</ele>
        <time>2020-10-13T09:51:05Z</time>
      </trkpt>
      <trkpt lat="37.863376000" lon="-4.648311000">
        <ele>261.5</ele>
        <time>2020-10-13T09:51:07Z</time>
      </trkpt>
      <trkpt lat="37.863318000" lon="-4.648206000">
        <ele>261.1</ele>
        <time>2020-10-13T09:51:09Z</time>
      </trkpt>
      <trkpt lat="37.863258000" lon="-4.648097000">
        <ele>260.7</ele>
        <time>2020-10-13T09:51:11Z</time>
      </trkpt>
      <trkpt lat="37.863199000" lon="-4.647989000">
        <ele>260.5</ele>
        <time>2020-10-13T09:51:13Z</time>
      </trkpt>
      <trkpt lat="37.863137000" lon="-4.647876000">
        <ele>260.5</ele>
        <time>2020-10-13T09:51:15Z</time>
      </trkpt>
      <trkpt lat="37.863075000" lon="-4.647770000">
        <ele>260.4</ele>
        <time>2020-10-13T09:51:17Z</time>
      </trkpt>
      <trkpt lat="37.863016000" lon="-4.647651000">
        <ele>260.3</ele>
        <time>2020-10-13T09:51:19Z</time>
      </trkpt>
      <trkpt lat="37.862953000" lon="-4.647538000">
        <ele>260.1</ele>
        <time>2020-10-13T09:51:21Z</time>
      </trkpt>
      <trkpt lat="37.862892000" lon="-4.647435000">
        <ele>260.0</ele>
        <time>2020-10-13T09:51:23Z</time>
      </trkpt>
      <trkpt lat="37.862836000" lon="-4.647329000">
        <ele>259.9</ele>
        <time>2020-10-13T09:51:25Z</time>
      </trkpt>
      <trkpt lat="37.862780000" lon="-4.647220000">
        <ele>259.9</ele>
        <time>2020-10-13T09:51:27Z</time>
      </trkpt>
      <trkpt lat="37.862726000" lon="-4.647112000">
        <ele>259.9</ele>
        <time>2020-10-13T09:51:29Z</time>
      </trkpt>
      <trkpt lat="37.862678000" lon="-4.647006000">
        <ele>259.9</ele>
        <time>2020-10-13T09:51:31Z</time>
      </trkpt>
      <trkpt lat="37.862629000" lon="-4.646901000">
        <ele>259.9</ele>
        <time>2020-10-13T09:51:33Z</time>
      </trkpt>
      <trkpt lat="37.862583000" lon="-4.646791000">
        <ele>259.9</ele>
        <time>2020-10-13T09:51:35Z</time>
      </trkpt>
      <trkpt lat="37.862540000" lon="-4.646681000">
        <ele>259.9</ele>
        <time>2020-10-13T09:51:37Z</time>
      </trkpt>
      <trkpt lat="37.862503000" lon="-4.646563000">
        <ele>259.8</ele>
        <time>2020-10-13T09:51:39Z</time>
      </trkpt>
      <trkpt lat="37.862470000" lon="-4.646448000">
        <ele>259.7</ele>
        <time>2020-10-13T09:51:41Z</time>
      </trkpt>
      <trkpt lat="37.862439000" lon="-4.646328000">
        <ele>259.6</ele>
        <time>2020-10-13T09:51:43Z</time>
      </trkpt>
      <trkpt lat="37.862414000" lon="-4.646207000">
        <ele>259.4</ele>
        <time>2020-10-13T09:51:45Z</time>
      </trkpt>
      <trkpt lat="37.862398000" lon="-4.646079000">
        <ele>259.1</ele>
        <time>2020-10-13T09:51:47Z</time>
      </trkpt>
      <trkpt lat="37.862383000" lon="-4.645944000">
        <ele>258.8</ele>
        <time>2020-10-13T09:51:49Z</time>
      </trkpt>
      <trkpt lat="37.862369000" lon="-4.645808000">
        <ele>258.5</ele>
        <time>2020-10-13T09:51:51Z</time>
      </trkpt>
      <trkpt lat="37.862355000" lon="-4.645675000">
        <ele>258.3</ele>
        <time>2020-10-13T09:51:53Z</time>
      </trkpt>
      <trkpt lat="37.862345000" lon="-4.645544000">
        <ele>258.0</ele>
        <time>2020-10-13T09:51:55Z</time>
      </trkpt>
      <trkpt lat="37.862326000" lon="-4.645419000">
        <ele>257.8</ele>
        <time>2020-10-13T09:51:57Z</time>
      </trkpt>
      <trkpt lat="37.862313000" lon="-4.645290000">
        <ele>257.6</ele>
        <time>2020-10-13T09:51:59Z</time>
      </trkpt>
      <trkpt lat="37.862295000" lon="-4.645166000">
        <ele>257.6</ele>
        <time>2020-10-13T09:52:01Z</time>
      </trkpt>
      <trkpt lat="37.862285000" lon="-4.645043000">
        <ele>257.6</ele>
        <time>2020-10-13T09:52:03Z</time>
      </trkpt>
      <trkpt lat="37.862274000" lon="-4.644914000">
        <ele>257.7</ele>
        <time>2020-10-13T09:52:05Z</time>
      </trkpt>
      <trkpt lat="37.862259000" lon="-4.644797000">
        <ele>257.9</ele>
        <time>2020-10-13T09:52:07Z</time>
      </trkpt>
      <trkpt lat="37.862243000" lon="-4.644674000">
        <ele>258.1</ele>
        <time>2020-10-13T09:52:09Z</time>
      </trkpt>
      <trkpt lat="37.862224000" lon="-4.644553000">
        <ele>258.3</ele>
        <time>2020-10-13T09:52:11Z</time>
      </trkpt>
      <trkpt lat="37.862202000" lon="-4.644435000">
        <ele>258.5</ele>
        <time>2020-10-13T09:52:13Z</time>
      </trkpt>
      <trkpt lat="37.862180000" lon="-4.644324000">
        <ele>258.6</ele>
        <time>2020-10-13T09:52:15Z</time>
      </trkpt>
      <trkpt lat="37.862151000" lon="-4.644217000">
        <ele>258.8</ele>
        <time>2020-10-13T09:52:17Z</time>
      </trkpt>
      <trkpt lat="37.862119000" lon="-4.644109000">
        <ele>258.9</ele>
        <time>2020-10-13T09:52:19Z</time>
      </trkpt>
      <trkpt lat="37.862084000" lon="-4.644007000">
        <ele>259.0</ele>
        <time>2020-10-13T09:52:21Z</time>
      </trkpt>
      <trkpt lat="37.862046000" lon="-4.643908000">
        <ele>259.0</ele>
        <time>2020-10-13T09:52:23Z</time>
      </trkpt>
      <trkpt lat="37.862007000" lon="-4.643818000">
        <ele>259.1</ele>
        <time>2020-10-13T09:52:25Z</time>
      </trkpt>
      <trkpt lat="37.861953000" lon="-4.643686000">
        <ele>259.2</ele>
        <time>2020-10-13T09:52:28Z</time>
      </trkpt>
      <trkpt lat="37.861897000" lon="-4.643575000">
        <ele>259.3</ele>
        <time>2020-10-13T09:52:31Z</time>
      </trkpt>
      <trkpt lat="37.861843000" lon="-4.643475000">
        <ele>259.5</ele>
        <time>2020-10-13T09:52:34Z</time>
      </trkpt>
      <trkpt lat="37.861787000" lon="-4.643381000">
        <ele>259.7</ele>
        <time>2020-10-13T09:52:37Z</time>
      </trkpt>
      <trkpt lat="37.861736000" lon="-4.643292000">
        <ele>260.0</ele>
        <time>2020-10-13T09:52:40Z</time>
      </trkpt>
      <trkpt lat="37.861676000" lon="-4.643178000">
        <ele>260.4</ele>
        <time>2020-10-13T09:52:44Z</time>
      </trkpt>
      <trkpt lat="37.861625000" lon="-4.643092000">
        <ele>260.8</ele>
        <time>2020-10-13T09:52:47Z</time>
      </trkpt>
      <trkpt lat="37.861571000" lon="-4.643009000">
        <ele>261.4</ele>
        <time>2020-10-13T09:52:50Z</time>
      </trkpt>
      <trkpt lat="37.861518000" lon="-4.642926000">
        <ele>261.9</ele>
        <time>2020-10-13T09:52:53Z</time>
      </trkpt>
      <trkpt lat="37.861467000" lon="-4.642842000">
        <ele>262.5</ele>
        <time>2020-10-13T09:52:56Z</time>
      </trkpt>
      <trkpt lat="37.861402000" lon="-4.642736000">
        <ele>263.1</ele>
        <time>2020-10-13T09:53:00Z</time>
      </trkpt>
      <trkpt lat="37.861337000" lon="-4.642639000">
        <ele>263.6</ele>
        <time>2020-10-13T09:53:04Z</time>
      </trkpt>
      <trkpt lat="37.861270000" lon="-4.642540000">
        <ele>264.3</ele>
        <time>2020-10-13T09:53:08Z</time>
      </trkpt>
      <trkpt lat="37.861201000" lon="-4.642444000">
        <ele>264.8</ele>
        <time>2020-10-13T09:53:12Z</time>
      </trkpt>
      <trkpt lat="37.861135000" lon="-4.642347000">
        <ele>265.3</ele>
        <time>2020-10-13T09:53:16Z</time>
      </trkpt>
      <trkpt lat="37.861069000" lon="-4.642251000">
        <ele>265.7</ele>
        <time>2020-10-13T09:53:20Z</time>
      </trkpt>
      <trkpt lat="37.861007000" lon="-4.642160000">
        <ele>266.2</ele>
        <time>2020-10-13T09:53:24Z</time>
      </trkpt>
      <trkpt lat="37.860943000" lon="-4.642075000">
        <ele>266.6</ele>
        <time>2020-10-13T09:53:28Z</time>
      </trkpt>
      <trkpt lat="37.860881000" lon="-4.641986000">
        <ele>267.0</ele>
        <time>2020-10-13T09:53:32Z</time>
      </trkpt>
      <trkpt lat="37.860817000" lon="-4.641899000">
        <ele>267.5</ele>
        <time>2020-10-13T09:53:36Z</time>
      </trkpt>
      <trkpt lat="37.860753000" lon="-4.641801000">
        <ele>267.8</ele>
        <time>2020-10-13T09:53:40Z</time>
      </trkpt>
      <trkpt lat="37.860695000" lon="-4.641714000">
        <ele>268.3</ele>
        <time>2020-10-13T09:53:44Z</time>
      </trkpt>
      <trkpt lat="37.860634000" lon="-4.641623000">
        <ele>268.7</ele>
        <time>2020-10-13T09:53:48Z</time>
      </trkpt>
      <trkpt lat="37.860578000" lon="-4.641535000">
        <ele>269.1</ele>
        <time>2020-10-13T09:53:52Z</time>
      </trkpt>
      <trkpt lat="37.860520000" lon="-4.641447000">
        <ele>269.5</ele>
        <time>2020-10-13T09:53:56Z</time>
      </trkpt>
      <trkpt lat="37.860458000" lon="-4.641362000">
        <ele>269.8</ele>
        <time>2020-10-13T09:54:00Z</time>
      </trkpt>
      <trkpt lat="37.860398000" lon="-4.641265000">
        <ele>270.3</ele>
        <time>2020-10-13T09:54:04Z</time>
      </trkpt>
      <trkpt lat="37.860333000" lon="-4.641170000">
        <ele>270.6</ele>
        <time>2020-10-13T09:54:08Z</time>
      </trkpt>
      <trkpt lat="37.860273000" lon="-4.641068000">
        <ele>270.9</ele>
        <time>2020-10-13T09:54:12Z</time>
      </trkpt>
      <trkpt lat="37.860209000" lon="-4.640980000">
        <ele>271.3</ele>
        <time>2020-10-13T09:54:16Z</time>
      </trkpt>
      <trkpt lat="37.860149000" lon="-4.640893000">
        <ele>271.5</ele>
        <time>2020-10-13T09:54:20Z</time>
      </trkpt>
      <trkpt lat="37.860086000" lon="-4.640806000">
        <ele>271.8</ele>
        <time>2020-10-13T09:54:24Z</time>
      </trkpt>
      <trkpt lat="37.860020000" lon="-4.640714000">
        <ele>272.0</ele>
        <time>2020-10-13T09:54:28Z</time>
      </trkpt>
      <trkpt lat="37.859957000" lon="-4.640615000">
        <ele>272.3</ele>
        <time>2020-10-13T09:54:32Z</time>
      </trkpt>
      <trkpt lat="37.859886000" lon="-4.640526000">
        <ele>272.5</ele>
        <time>2020-10-13T09:54:36Z</time>
      </trkpt>
      <trkpt lat="37.859814000" lon="-4.640441000">
        <ele>272.9</ele>
        <time>2020-10-13T09:54:40Z</time>
      </trkpt>
      <trkpt lat="37.859738000" lon="-4.640362000">
        <ele>273.4</ele>
        <time>2020-10-13T09:54:44Z</time>
      </trkpt>
      <trkpt lat="37.859656000" lon="-4.640292000">
        <ele>273.7</ele>
        <time>2020-10-13T09:54:48Z</time>
      </trkpt>
      <trkpt lat="37.859561000" lon="-4.640231000">
        <ele>274.2</ele>
        <time>2020-10-13T09:54:52Z</time>
      </trkpt>
      <trkpt lat="37.859466000" lon="-4.640182000">
        <ele>274.7</ele>
        <time>2020-10-13T09:54:56Z</time>
      </trkpt>
      <trkpt lat="37.859367000" lon="-4.640148000">
        <ele>275.2</ele>
        <time>2020-10-13T09:55:00Z</time>
      </trkpt>
      <trkpt lat="37.859269000" lon="-4.640109000">
        <ele>275.7</ele>
        <time>2020-10-13T09:55:04Z</time>
      </trkpt>
      <trkpt lat="37.859168000" lon="-4.640072000">
        <ele>276.3</ele>
        <time>2020-10-13T09:55:08Z</time>
      </trkpt>
      <trkpt lat="37.859072000" lon="-4.640037000">
        <ele>276.9</ele>
        <time>2020-10-13T09:55:12Z</time>
      </trkpt>
      <trkpt lat="37.858972000" lon="-4.640003000">
        <ele>277.5</ele>
        <time>2020-10-13T09:55:16Z</time>
      </trkpt>
      <trkpt lat="37.858872000" lon="-4.639959000">
        <ele>278.2</ele>
        <time>2020-10-13T09:55:20Z</time>
      </trkpt>
      <trkpt lat="37.858779000" lon="-4.639910000">
        <ele>278.8</ele>
        <time>2020-10-13T09:55:24Z</time>
      </trkpt>
      <trkpt lat="37.858696000" lon="-4.639849000">
        <ele>279.5</ele>
        <time>2020-10-13T09:55:28Z</time>
      </trkpt>
      <trkpt lat="37.858619000" lon="-4.639775000">
        <ele>280.1</ele>
        <time>2020-10-13T09:55:32Z</time>
      </trkpt>
      <trkpt lat="37.858551000" lon="-4.639700000">
        <ele>280.7</ele>
        <time>2020-10-13T09:55:36Z</time>
      </trkpt>
      <trkpt lat="37.858491000" lon="-4.639612000">
        <ele>281.4</ele>
        <time>2020-10-13T09:55:40Z</time>
      </trkpt>
      <trkpt lat="37.858439000" lon="-4.639518000">
        <ele>282.0</ele>
        <time>2020-10-13T09:55:44Z</time>
      </trkpt>
      <trkpt lat="37.858389000" lon="-4.639419000">
        <ele>282.6</ele>
        <time>2020-10-13T09:55:48Z</time>
      </trkpt>
      <trkpt lat="37.858340000" lon="-4.639320000">
        <ele>283.3</ele>
        <time>2020-10-13T09:55:52Z</time>
      </trkpt>
      <trkpt lat="37.858294000" lon="-4.639221000">
        <ele>283.8</ele>
        <time>2020-10-13T09:55:56Z</time>
      </trkpt>
      <trkpt lat="37.858233000" lon="-4.639129000">
        <ele>284.3</ele>
        <time>2020-10-13T09:56:00Z</time>
      </trkpt>
      <trkpt lat="37.858172000" lon="-4.639031000">
        <ele>284.7</ele>
        <time>2020-10-13T09:56:04Z</time>
      </trkpt>
      <trkpt lat="37.858105000" lon="-4.638934000">
        <ele>285.1</ele>
        <time>2020-10-13T09:56:08Z</time>
      </trkpt>
      <trkpt lat="37.858041000" lon="-4.638847000">
        <ele>285.4</ele>
        <time>2020-10-13T09:56:12Z</time>
      </trkpt>
      <trkpt lat="37.857971000" lon="-4.638776000">
        <ele>285.7</ele>
        <time>2020-10-13T09:56:16Z</time>
      </trkpt>
      <trkpt lat="37.857896000" lon="-4.638707000">
        <ele>286.0</ele>
        <time>2020-10-13T09:56:20Z</time>
      </trkpt>
      <trkpt lat="37.857827000" lon="-4.638627000">
        <ele>286.1</ele>
        <time>2020-10-13T09:56:24Z</time>
      </trkpt>
      <trkpt lat="37.857762000" lon="-4.638552000">
        <ele>286.1</ele>
        <time>2020-10-13T09:56:28Z</time>
      </trkpt>
      <trkpt lat="37.857696000" lon="-4.638488000">
        <ele>285.9</ele>
        <time>2020-10-13T09:56:32Z</time>
      </trkpt>
      <trkpt lat="37.857630000" lon="-4.638413000">
        <ele>285.6</ele>
        <time>2020-10-13T09:56:36Z</time>
      </trkpt>
      <trkpt lat="37.857567000" lon="-4.638332000">
        <ele>285.4</ele>
        <time>2020-10-13T09:56:40Z</time>
      </trkpt>
      <trkpt lat="37.857503000" lon="-4.638238000">
        <ele>285.0</ele>
        <time>2020-10-13T09:56:44Z</time>
      </trkpt>
      <trkpt lat="37.857443000" lon="-4.638121000">
        <ele>284.6</ele>
        <time>2020-10-13T09:56:48Z</time>
      </trkpt>
      <trkpt lat="37.857394000" lon="-4.638026000">
        <ele>284.2</ele>
        <time>2020-10-13T09:56:51Z</time>
      </trkpt>
      <trkpt lat="37.857341000" lon="-4.637944000">
        <ele>283.8</ele>
        <time>2020-10-13T09:56:54Z</time>
      </trkpt>
      <trkpt lat="37.857274000" lon="-4.637846000">
        <ele>283.3</ele>
        <time>2020-10-13T09:56:58Z</time>
      </trkpt>
      <trkpt lat="37.857199000" lon="-4.637774000">
        <ele>282.7</ele>
        <time>2020-10-13T09:59:25Z</time>
      </trkpt>
      <trkpt lat="37.857120000" lon="-4.637679000">
        <ele>282.3</ele>
        <time>2020-10-13T09:59:29Z</time>
      </trkpt>
      <trkpt lat="37.857042000" lon="-4.637592000">
        <ele>281.8</ele>
        <time>2020-10-13T09:59:32Z</time>
      </trkpt>
      <trkpt lat="37.856954000" lon="-4.637505000">
        <ele>281.5</ele>
        <time>2020-10-13T09:59:35Z</time>
      </trkpt>
      <trkpt lat="37.856864000" lon="-4.637405000">
        <ele>281.2</ele>
        <time>2020-10-13T09:59:38Z</time>
      </trkpt>
      <trkpt lat="37.856801000" lon="-4.637330000">
        <ele>280.9</ele>
        <time>2020-10-13T09:59:40Z</time>
      </trkpt>
      <trkpt lat="37.856738000" lon="-4.637251000">
        <ele>280.6</ele>
        <time>2020-10-13T09:59:42Z</time>
      </trkpt>
      <trkpt lat="37.856695000" lon="-4.637137000">
        <ele>280.4</ele>
        <time>2020-10-13T09:59:44Z</time>
      </trkpt>
      <trkpt lat="37.856625000" lon="-4.637053000">
        <ele>280.2</ele>
        <time>2020-10-13T09:59:46Z</time>
      </trkpt>
      <trkpt lat="37.856554000" lon="-4.636966000">
        <ele>279.9</ele>
        <time>2020-10-13T09:59:48Z</time>
      </trkpt>
      <trkpt lat="37.856488000" lon="-4.636881000">
        <ele>279.7</ele>
        <time>2020-10-13T09:59:50Z</time>
      </trkpt>
      <trkpt lat="37.856414000" lon="-4.636796000">
        <ele>279.5</ele>
        <time>2020-10-13T09:59:52Z</time>
      </trkpt>
      <trkpt lat="37.856341000" lon="-4.636711000">
        <ele>279.4</ele>
        <time>2020-10-13T09:59:54Z</time>
      </trkpt>
      <trkpt lat="37.856266000" lon="-4.636622000">
        <ele>279.3</ele>
        <time>2020-10-13T09:59:56Z</time>
      </trkpt>
      <trkpt lat="37.856190000" lon="-4.636519000">
        <ele>279.1</ele>
        <time>2020-10-13T09:59:58Z</time>
      </trkpt>
      <trkpt lat="37.856110000" lon="-4.636403000">
        <ele>278.9</ele>
        <time>2020-10-13T10:00:00Z</time>
      </trkpt>
      <trkpt lat="37.856031000" lon="-4.636274000">
        <ele>278.8</ele>
        <time>2020-10-13T10:00:02Z</time>
      </trkpt>
      <trkpt lat="37.855964000" lon="-4.636143000">
        <ele>278.8</ele>
        <time>2020-10-13T10:00:04Z</time>
      </trkpt>
      <trkpt lat="37.855896000" lon="-4.636002000">
        <ele>278.8</ele>
        <time>2020-10-13T10:00:06Z</time>
      </trkpt>
      <trkpt lat="37.855838000" lon="-4.635863000">
        <ele>278.9</ele>
        <time>2020-10-13T10:00:08Z</time>
      </trkpt>
      <trkpt lat="37.855781000" lon="-4.635740000">
        <ele>279.0</ele>
        <time>2020-10-13T10:00:10Z</time>
      </trkpt>
      <trkpt lat="37.855728000" lon="-4.635619000">
        <ele>279.1</ele>
        <time>2020-10-13T10:00:12Z</time>
      </trkpt>
      <trkpt lat="37.855677000" lon="-4.635501000">
        <ele>279.3</ele>
        <time>2020-10-13T10:00:14Z</time>
      </trkpt>
      <trkpt lat="37.855626000" lon="-4.635387000">
        <ele>279.5</ele>
        <time>2020-10-13T10:00:16Z</time>
      </trkpt>
      <trkpt lat="37.855582000" lon="-4.635280000">
        <ele>279.8</ele>
        <time>2020-10-13T10:00:18Z</time>
      </trkpt>
      <trkpt lat="37.855532000" lon="-4.635171000">
        <ele>280.3</ele>
        <time>2020-10-13T10:00:20Z</time>
      </trkpt>
      <trkpt lat="37.855489000" lon="-4.635067000">
        <ele>280.7</ele>
        <time>2020-10-13T10:00:22Z</time>
      </trkpt>
      <trkpt lat="37.855452000" lon="-4.634960000">
        <ele>281.2</ele>
        <time>2020-10-13T10:00:24Z</time>
      </trkpt>
      <trkpt lat="37.855422000" lon="-4.634859000">
        <ele>281.6</ele>
        <time>2020-10-13T10:00:26Z</time>
      </trkpt>
      <trkpt lat="37.855393000" lon="-4.634763000">
        <ele>282.1</ele>
        <time>2020-10-13T10:00:28Z</time>
      </trkpt>
      <trkpt lat="37.855371000" lon="-4.634624000">
        <ele>282.5</ele>
        <time>2020-10-13T10:00:31Z</time>
      </trkpt>
      <trkpt lat="37.855359000" lon="-4.634486000">
        <ele>282.8</ele>
        <time>2020-10-13T10:00:34Z</time>
      </trkpt>
      <trkpt lat="37.855345000" lon="-4.634358000">
        <ele>283.1</ele>
        <time>2020-10-13T10:00:37Z</time>
      </trkpt>
      <trkpt lat="37.855332000" lon="-4.634224000">
        <ele>283.3</ele>
        <time>2020-10-13T10:00:40Z</time>
      </trkpt>
      <trkpt lat="37.855321000" lon="-4.634083000">
        <ele>283.4</ele>
        <time>2020-10-13T10:00:43Z</time>
      </trkpt>
      <trkpt lat="37.855306000" lon="-4.633942000">
        <ele>283.5</ele>
        <time>2020-10-13T10:00:46Z</time>
      </trkpt>
      <trkpt lat="37.855291000" lon="-4.633803000">
        <ele>283.5</ele>
        <time>2020-10-13T10:00:49Z</time>
      </trkpt>
      <trkpt lat="37.855280000" lon="-4.633666000">
        <ele>283.5</ele>
        <time>2020-10-13T10:00:52Z</time>
      </trkpt>
      <trkpt lat="37.855267000" lon="-4.633525000">
        <ele>283.4</ele>
        <time>2020-10-13T10:00:55Z</time>
      </trkpt>
      <trkpt lat="37.855253000" lon="-4.633382000">
        <ele>283.3</ele>
        <time>2020-10-13T10:00:58Z</time>
      </trkpt>
      <trkpt lat="37.855238000" lon="-4.633245000">
        <ele>283.3</ele>
        <time>2020-10-13T10:01:01Z</time>
      </trkpt>
      <trkpt lat="37.855225000" lon="-4.633105000">
        <ele>283.3</ele>
        <time>2020-10-13T10:01:04Z</time>
      </trkpt>
      <trkpt lat="37.855213000" lon="-4.632959000">
        <ele>283.3</ele>
        <time>2020-10-13T10:01:07Z</time>
      </trkpt>
      <trkpt lat="37.855203000" lon="-4.632811000">
        <ele>283.4</ele>
        <time>2020-10-13T10:01:10Z</time>
      </trkpt>
      <trkpt lat="37.855197000" lon="-4.632659000">
        <ele>283.5</ele>
        <time>2020-10-13T10:01:13Z</time>
      </trkpt>
      <trkpt lat="37.855195000" lon="-4.632554000">
        <ele>283.5</ele>
        <time>2020-10-13T10:01:15Z</time>
      </trkpt>
      <trkpt lat="37.855195000" lon="-4.632446000">
        <ele>283.5</ele>
        <time>2020-10-13T10:01:17Z</time>
      </trkpt>
      <trkpt lat="37.855198000" lon="-4.632333000">
        <ele>283.5</ele>
        <time>2020-10-13T10:01:19Z</time>
      </trkpt>
      <trkpt lat="37.855207000" lon="-4.632212000">
        <ele>283.5</ele>
        <time>2020-10-13T10:01:21Z</time>
      </trkpt>
      <trkpt lat="37.855218000" lon="-4.632083000">
        <ele>283.5</ele>
        <time>2020-10-13T10:01:23Z</time>
      </trkpt>
      <trkpt lat="37.855231000" lon="-4.631948000">
        <ele>283.5</ele>
        <time>2020-10-13T10:01:25Z</time>
      </trkpt>
      <trkpt lat="37.855249000" lon="-4.631810000">
        <ele>283.3</ele>
        <time>2020-10-13T10:01:27Z</time>
      </trkpt>
      <trkpt lat="37.855267000" lon="-4.631669000">
        <ele>283.0</ele>
        <time>2020-10-13T10:01:29Z</time>
      </trkpt>
      <trkpt lat="37.855286000" lon="-4.631538000">
        <ele>282.6</ele>
        <time>2020-10-13T10:01:31Z</time>
      </trkpt>
      <trkpt lat="37.855305000" lon="-4.631410000">
        <ele>282.2</ele>
        <time>2020-10-13T10:01:33Z</time>
      </trkpt>
      <trkpt lat="37.855327000" lon="-4.631289000">
        <ele>281.7</ele>
        <time>2020-10-13T10:01:35Z</time>
      </trkpt>
      <trkpt lat="37.855341000" lon="-4.631178000">
        <ele>281.3</ele>
        <time>2020-10-13T10:01:37Z</time>
      </trkpt>
      <trkpt lat="37.855339000" lon="-4.631074000">
        <ele>280.8</ele>
        <time>2020-10-13T10:01:39Z</time>
      </trkpt>
      <trkpt lat="37.855330000" lon="-4.630923000">
        <ele>280.4</ele>
        <time>2020-10-13T10:01:42Z</time>
      </trkpt>
      <trkpt lat="37.855308000" lon="-4.630824000">
        <ele>279.9</ele>
        <time>2020-10-13T10:01:44Z</time>
      </trkpt>
      <trkpt lat="37.855279000" lon="-4.630726000">
        <ele>279.5</ele>
        <time>2020-10-13T10:01:46Z</time>
      </trkpt>
      <trkpt lat="37.855247000" lon="-4.630631000">
        <ele>279.0</ele>
        <time>2020-10-13T10:01:48Z</time>
      </trkpt>
      <trkpt lat="37.855188000" lon="-4.630498000">
        <ele>278.5</ele>
        <time>2020-10-13T10:01:51Z</time>
      </trkpt>
      <trkpt lat="37.855138000" lon="-4.630410000">
        <ele>277.8</ele>
        <time>2020-10-13T10:01:53Z</time>
      </trkpt>
      <trkpt lat="37.855071000" lon="-4.630307000">
        <ele>277.0</ele>
        <time>2020-10-13T10:01:55Z</time>
      </trkpt>
      <trkpt lat="37.854983000" lon="-4.630186000">
        <ele>276.1</ele>
        <time>2020-10-13T10:01:57Z</time>
      </trkpt>
      <trkpt lat="37.854884000" lon="-4.630043000">
        <ele>275.0</ele>
        <time>2020-10-13T10:01:59Z</time>
      </trkpt>
      <trkpt lat="37.854781000" lon="-4.629905000">
        <ele>273.8</ele>
        <time>2020-10-13T10:02:01Z</time>
      </trkpt>
      <trkpt lat="37.854675000" lon="-4.629756000">
        <ele>272.6</ele>
        <time>2020-10-13T10:02:03Z</time>
      </trkpt>
      <trkpt lat="37.854564000" lon="-4.629602000">
        <ele>271.3</ele>
        <time>2020-10-13T10:02:05Z</time>
      </trkpt>
      <trkpt lat="37.854506000" lon="-4.629529000">
        <ele>269.9</ele>
        <time>2020-10-13T10:02:06Z</time>
      </trkpt>
      <trkpt lat="37.854448000" lon="-4.629451000">
        <ele>268.5</ele>
        <time>2020-10-13T10:02:07Z</time>
      </trkpt>
      <trkpt lat="37.854387000" lon="-4.629368000">
        <ele>267.3</ele>
        <time>2020-10-13T10:02:08Z</time>
      </trkpt>
      <trkpt lat="37.854324000" lon="-4.629285000">
        <ele>266.2</ele>
        <time>2020-10-13T10:02:09Z</time>
      </trkpt>
      <trkpt lat="37.854255000" lon="-4.629197000">
        <ele>265.3</ele>
        <time>2020-10-13T10:02:10Z</time>
      </trkpt>
      <trkpt lat="37.854193000" lon="-4.629113000">
        <ele>264.7</ele>
        <time>2020-10-13T10:02:11Z</time>
      </trkpt>
      <trkpt lat="37.854131000" lon="-4.629027000">
        <ele>264.4</ele>
        <time>2020-10-13T10:02:12Z</time>
      </trkpt>
      <trkpt lat="37.854068000" lon="-4.628945000">
        <ele>264.1</ele>
        <time>2020-10-13T10:02:13Z</time>
      </trkpt>
      <trkpt lat="37.854008000" lon="-4.628857000">
        <ele>263.9</ele>
        <time>2020-10-13T10:02:14Z</time>
      </trkpt>
      <trkpt lat="37.853949000" lon="-4.628770000">
        <ele>263.8</ele>
        <time>2020-10-13T10:02:15Z</time>
      </trkpt>
      <trkpt lat="37.853888000" lon="-4.628686000">
        <ele>263.9</ele>
        <time>2020-10-13T10:02:16Z</time>
      </trkpt>
      <trkpt lat="37.853827000" lon="-4.628602000">
        <ele>264.0</ele>
        <time>2020-10-13T10:02:17Z</time>
      </trkpt>
      <trkpt lat="37.853765000" lon="-4.628516000">
        <ele>264.0</ele>
        <time>2020-10-13T10:02:18Z</time>
      </trkpt>
      <trkpt lat="37.853703000" lon="-4.628431000">
        <ele>264.1</ele>
        <time>2020-10-13T10:02:19Z</time>
      </trkpt>
      <trkpt lat="37.853642000" lon="-4.628350000">
        <ele>264.3</ele>
        <time>2020-10-13T10:02:20Z</time>
      </trkpt>
      <trkpt lat="37.853582000" lon="-4.628268000">
        <ele>264.4</ele>
        <time>2020-10-13T10:02:21Z</time>
      </trkpt>
      <trkpt lat="37.853522000" lon="-4.628190000">
        <ele>264.4</ele>
        <time>2020-10-13T10:02:22Z</time>
      </trkpt>
      <trkpt lat="37.853406000" lon="-4.628055000">
        <ele>264.3</ele>
        <time>2020-10-13T10:02:24Z</time>
      </trkpt>
      <trkpt lat="37.853308000" lon="-4.627925000">
        <ele>264.2</ele>
        <time>2020-10-13T10:02:26Z</time>
      </trkpt>
      <trkpt lat="37.853221000" lon="-4.627792000">
        <ele>264.1</ele>
        <time>2020-10-13T10:02:28Z</time>
      </trkpt>
      <trkpt lat="37.853154000" lon="-4.627656000">
        <ele>264.0</ele>
        <time>2020-10-13T10:02:30Z</time>
      </trkpt>
      <trkpt lat="37.853088000" lon="-4.627519000">
        <ele>263.9</ele>
        <time>2020-10-13T10:02:32Z</time>
      </trkpt>
      <trkpt lat="37.853023000" lon="-4.627387000">
        <ele>263.7</ele>
        <time>2020-10-13T10:02:34Z</time>
      </trkpt>
      <trkpt lat="37.852962000" lon="-4.627256000">
        <ele>263.6</ele>
        <time>2020-10-13T10:02:36Z</time>
      </trkpt>
      <trkpt lat="37.852906000" lon="-4.627125000">
        <ele>263.5</ele>
        <time>2020-10-13T10:02:38Z</time>
      </trkpt>
      <trkpt lat="37.852848000" lon="-4.627001000">
        <ele>263.1</ele>
        <time>2020-10-13T10:02:40Z</time>
      </trkpt>
      <trkpt lat="37.852786000" lon="-4.626883000">
        <ele>262.8</ele>
        <time>2020-10-13T10:02:42Z</time>
      </trkpt>
      <trkpt lat="37.852727000" lon="-4.626772000">
        <ele>262.5</ele>
        <time>2020-10-13T10:02:44Z</time>
      </trkpt>
      <trkpt lat="37.852660000" lon="-4.626659000">
        <ele>262.2</ele>
        <time>2020-10-13T10:02:46Z</time>
      </trkpt>
      <trkpt lat="37.852587000" lon="-4.626546000">
        <ele>261.9</ele>
        <time>2020-10-13T10:02:48Z</time>
      </trkpt>
      <trkpt lat="37.852516000" lon="-4.626424000">
        <ele>261.5</ele>
        <time>2020-10-13T10:02:50Z</time>
      </trkpt>
      <trkpt lat="37.852431000" lon="-4.626309000">
        <ele>261.1</ele>
        <time>2020-10-13T10:02:52Z</time>
      </trkpt>
      <trkpt lat="37.852342000" lon="-4.626189000">
        <ele>260.5</ele>
        <time>2020-10-13T10:02:54Z</time>
      </trkpt>
      <trkpt lat="37.852249000" lon="-4.626076000">
        <ele>260.1</ele>
        <time>2020-10-13T10:02:56Z</time>
      </trkpt>
      <trkpt lat="37.852167000" lon="-4.625953000">
        <ele>259.5</ele>
        <time>2020-10-13T10:02:58Z</time>
      </trkpt>
      <trkpt lat="37.852084000" lon="-4.625836000">
        <ele>258.9</ele>
        <time>2020-10-13T10:03:00Z</time>
      </trkpt>
      <trkpt lat="37.852003000" lon="-4.625718000">
        <ele>258.2</ele>
        <time>2020-10-13T10:03:02Z</time>
      </trkpt>
      <trkpt lat="37.851921000" lon="-4.625593000">
        <ele>257.5</ele>
        <time>2020-10-13T10:03:04Z</time>
      </trkpt>
      <trkpt lat="37.851834000" lon="-4.625461000">
        <ele>256.7</ele>
        <time>2020-10-13T10:03:06Z</time>
      </trkpt>
      <trkpt lat="37.851742000" lon="-4.625319000">
        <ele>255.9</ele>
        <time>2020-10-13T10:03:08Z</time>
      </trkpt>
      <trkpt lat="37.851638000" lon="-4.625176000">
        <ele>255.2</ele>
        <time>2020-10-13T10:03:10Z</time>
      </trkpt>
      <trkpt lat="37.851542000" lon="-4.625038000">
        <ele>254.4</ele>
        <time>2020-10-13T10:03:12Z</time>
      </trkpt>
      <trkpt lat="37.851446000" lon="-4.624895000">
        <ele>253.5</ele>
        <time>2020-10-13T10:03:14Z</time>
      </trkpt>
      <trkpt lat="37.851346000" lon="-4.624771000">
        <ele>252.4</ele>
        <time>2020-10-13T10:03:16Z</time>
      </trkpt>
      <trkpt lat="37.851251000" lon="-4.624644000">
        <ele>251.3</ele>
        <time>2020-10-13T10:03:18Z</time>
      </trkpt>
      <trkpt lat="37.851159000" lon="-4.624519000">
        <ele>250.1</ele>
        <time>2020-10-13T10:03:20Z</time>
      </trkpt>
      <trkpt lat="37.851061000" lon="-4.624406000">
        <ele>249.0</ele>
        <time>2020-10-13T10:03:22Z</time>
      </trkpt>
      <trkpt lat="37.850958000" lon="-4.624301000">
        <ele>248.0</ele>
        <time>2020-10-13T10:03:24Z</time>
      </trkpt>
      <trkpt lat="37.850840000" lon="-4.624186000">
        <ele>247.0</ele>
        <time>2020-10-13T10:03:26Z</time>
      </trkpt>
      <trkpt lat="37.850723000" lon="-4.624066000">
        <ele>246.1</ele>
        <time>2020-10-13T10:03:28Z</time>
      </trkpt>
      <trkpt lat="37.850606000" lon="-4.623936000">
        <ele>245.2</ele>
        <time>2020-10-13T10:03:30Z</time>
      </trkpt>
      <trkpt lat="37.850483000" lon="-4.623804000">
        <ele>244.2</ele>
        <time>2020-10-13T10:03:32Z</time>
      </trkpt>
      <trkpt lat="37.850419000" lon="-4.623735000">
        <ele>243.3</ele>
        <time>2020-10-13T10:03:33Z</time>
      </trkpt>
      <trkpt lat="37.850351000" lon="-4.623666000">
        <ele>242.5</ele>
        <time>2020-10-13T10:03:34Z</time>
      </trkpt>
      <trkpt lat="37.850286000" lon="-4.623591000">
        <ele>241.9</ele>
        <time>2020-10-13T10:03:35Z</time>
      </trkpt>
      <trkpt lat="37.850216000" lon="-4.623515000">
        <ele>241.3</ele>
        <time>2020-10-13T10:03:36Z</time>
      </trkpt>
      <trkpt lat="37.850141000" lon="-4.623440000">
        <ele>240.8</ele>
        <time>2020-10-13T10:03:37Z</time>
      </trkpt>
      <trkpt lat="37.850065000" lon="-4.623365000">
        <ele>240.3</ele>
        <time>2020-10-13T10:03:38Z</time>
      </trkpt>
      <trkpt lat="37.849994000" lon="-4.623288000">
        <ele>239.7</ele>
        <time>2020-10-13T10:03:39Z</time>
      </trkpt>
      <trkpt lat="37.849923000" lon="-4.623214000">
        <ele>239.2</ele>
        <time>2020-10-13T10:03:40Z</time>
      </trkpt>
      <trkpt lat="37.849856000" lon="-4.623142000">
        <ele>238.5</ele>
        <time>2020-10-13T10:03:41Z</time>
      </trkpt>
      <trkpt lat="37.849792000" lon="-4.623075000">
        <ele>238.1</ele>
        <time>2020-10-13T10:03:42Z</time>
      </trkpt>
      <trkpt lat="37.849730000" lon="-4.623009000">
        <ele>237.6</ele>
        <time>2020-10-13T10:03:43Z</time>
      </trkpt>
      <trkpt lat="37.849663000" lon="-4.622940000">
        <ele>237.3</ele>
        <time>2020-10-13T10:03:44Z</time>
      </trkpt>
      <trkpt lat="37.849599000" lon="-4.622871000">
        <ele>237.0</ele>
        <time>2020-10-13T10:03:45Z</time>
      </trkpt>
      <trkpt lat="37.849534000" lon="-4.622801000">
        <ele>236.7</ele>
        <time>2020-10-13T10:03:46Z</time>
      </trkpt>
      <trkpt lat="37.849468000" lon="-4.622732000">
        <ele>236.4</ele>
        <time>2020-10-13T10:03:47Z</time>
      </trkpt>
      <trkpt lat="37.849401000" lon="-4.622661000">
        <ele>235.9</ele>
        <time>2020-10-13T10:03:48Z</time>
      </trkpt>
      <trkpt lat="37.849336000" lon="-4.622590000">
        <ele>235.5</ele>
        <time>2020-10-13T10:03:49Z</time>
      </trkpt>
      <trkpt lat="37.849269000" lon="-4.622522000">
        <ele>234.8</ele>
        <time>2020-10-13T10:03:50Z</time>
      </trkpt>
      <trkpt lat="37.849202000" lon="-4.622459000">
        <ele>234.1</ele>
        <time>2020-10-13T10:03:51Z</time>
      </trkpt>
      <trkpt lat="37.849087000" lon="-4.622326000">
        <ele>233.4</ele>
        <time>2020-10-13T10:03:53Z</time>
      </trkpt>
      <trkpt lat="37.848972000" lon="-4.622200000">
        <ele>232.5</ele>
        <time>2020-10-13T10:03:55Z</time>
      </trkpt>
      <trkpt lat="37.848910000" lon="-4.622132000">
        <ele>231.7</ele>
        <time>2020-10-13T10:03:56Z</time>
      </trkpt>
      <trkpt lat="37.848781000" lon="-4.622004000">
        <ele>230.9</ele>
        <time>2020-10-13T10:03:58Z</time>
      </trkpt>
      <trkpt lat="37.848713000" lon="-4.621943000">
        <ele>230.1</ele>
        <time>2020-10-13T10:03:59Z</time>
      </trkpt>
      <trkpt lat="37.848644000" lon="-4.621880000">
        <ele>229.3</ele>
        <time>2020-10-13T10:04:00Z</time>
      </trkpt>
      <trkpt lat="37.848573000" lon="-4.621823000">
        <ele>228.6</ele>
        <time>2020-10-13T10:04:01Z</time>
      </trkpt>
      <trkpt lat="37.848502000" lon="-4.621769000">
        <ele>228.0</ele>
        <time>2020-10-13T10:04:02Z</time>
      </trkpt>
      <trkpt lat="37.848433000" lon="-4.621712000">
        <ele>227.5</ele>
        <time>2020-10-13T10:04:03Z</time>
      </trkpt>
      <trkpt lat="37.848289000" lon="-4.621623000">
        <ele>227.0</ele>
        <time>2020-10-13T10:04:05Z</time>
      </trkpt>
      <trkpt lat="37.848147000" lon="-4.621545000">
        <ele>226.6</ele>
        <time>2020-10-13T10:04:07Z</time>
      </trkpt>
      <trkpt lat="37.848015000" lon="-4.621478000">
        <ele>226.3</ele>
        <time>2020-10-13T10:04:09Z</time>
      </trkpt>
      <trkpt lat="37.847889000" lon="-4.621427000">
        <ele>225.9</ele>
        <time>2020-10-13T10:04:11Z</time>
      </trkpt>
      <trkpt lat="37.847779000" lon="-4.621416000">
        <ele>225.5</ele>
        <time>2020-10-13T10:04:13Z</time>
      </trkpt>
      <trkpt lat="37.847665000" lon="-4.621421000">
        <ele>225.1</ele>
        <time>2020-10-13T10:04:15Z</time>
      </trkpt>
      <trkpt lat="37.847550000" lon="-4.621453000">
        <ele>224.5</ele>
        <time>2020-10-13T10:04:17Z</time>
      </trkpt>
      <trkpt lat="37.847433000" lon="-4.621489000">
        <ele>223.8</ele>
        <time>2020-10-13T10:04:19Z</time>
      </trkpt>
      <trkpt lat="37.847315000" lon="-4.621546000">
        <ele>222.8</ele>
        <time>2020-10-13T10:04:21Z</time>
      </trkpt>
      <trkpt lat="37.847195000" lon="-4.621592000">
        <ele>221.8</ele>
        <time>2020-10-13T10:04:23Z</time>
      </trkpt>
      <trkpt lat="37.847070000" lon="-4.621631000">
        <ele>220.6</ele>
        <time>2020-10-13T10:04:25Z</time>
      </trkpt>
      <trkpt lat="37.846943000" lon="-4.621651000">
        <ele>219.5</ele>
        <time>2020-10-13T10:04:27Z</time>
      </trkpt>
      <trkpt lat="37.846806000" lon="-4.621649000">
        <ele>218.3</ele>
        <time>2020-10-13T10:04:29Z</time>
      </trkpt>
      <trkpt lat="37.846666000" lon="-4.621616000">
        <ele>217.3</ele>
        <time>2020-10-13T10:04:31Z</time>
      </trkpt>
      <trkpt lat="37.846532000" lon="-4.621565000">
        <ele>216.4</ele>
        <time>2020-10-13T10:04:33Z</time>
      </trkpt>
      <trkpt lat="37.846404000" lon="-4.621499000">
        <ele>215.6</ele>
        <time>2020-10-13T10:04:35Z</time>
      </trkpt>
      <trkpt lat="37.846283000" lon="-4.621423000">
        <ele>214.9</ele>
        <time>2020-10-13T10:04:37Z</time>
      </trkpt>
      <trkpt lat="37.846174000" lon="-4.621331000">
        <ele>214.1</ele>
        <time>2020-10-13T10:04:39Z</time>
      </trkpt>
      <trkpt lat="37.846086000" lon="-4.621195000">
        <ele>213.2</ele>
        <time>2020-10-13T10:04:41Z</time>
      </trkpt>
      <trkpt lat="37.846025000" lon="-4.621027000">
        <ele>212.4</ele>
        <time>2020-10-13T10:04:43Z</time>
      </trkpt>
      <trkpt lat="37.845984000" lon="-4.620854000">
        <ele>211.5</ele>
        <time>2020-10-13T10:04:45Z</time>
      </trkpt>
      <trkpt lat="37.845955000" lon="-4.620689000">
        <ele>210.7</ele>
        <time>2020-10-13T10:04:47Z</time>
      </trkpt>
      <trkpt lat="37.845927000" lon="-4.620524000">
        <ele>210.0</ele>
        <time>2020-10-13T10:04:49Z</time>
      </trkpt>
      <trkpt lat="37.845895000" lon="-4.620358000">
        <ele>209.2</ele>
        <time>2020-10-13T10:04:51Z</time>
      </trkpt>
      <trkpt lat="37.845853000" lon="-4.620188000">
        <ele>208.3</ele>
        <time>2020-10-13T10:04:53Z</time>
      </trkpt>
      <trkpt lat="37.845812000" lon="-4.620025000">
        <ele>207.2</ele>
        <time>2020-10-13T10:04:55Z</time>
      </trkpt>
      <trkpt lat="37.845750000" lon="-4.619860000">
        <ele>205.9</ele>
        <time>2020-10-13T10:04:57Z</time>
      </trkpt>
      <trkpt lat="37.845675000" lon="-4.619690000">
        <ele>204.7</ele>
        <time>2020-10-13T10:04:59Z</time>
      </trkpt>
      <trkpt lat="37.845635000" lon="-4.619600000">
        <ele>203.6</ele>
        <time>2020-10-13T10:05:00Z</time>
      </trkpt>
      <trkpt lat="37.845594000" lon="-4.619509000">
        <ele>202.8</ele>
        <time>2020-10-13T10:05:01Z</time>
      </trkpt>
      <trkpt lat="37.845548000" lon="-4.619412000">
        <ele>202.1</ele>
        <time>2020-10-13T10:05:02Z</time>
      </trkpt>
      <trkpt lat="37.845496000" lon="-4.619315000">
        <ele>201.5</ele>
        <time>2020-10-13T10:05:03Z</time>
      </trkpt>
      <trkpt lat="37.845442000" lon="-4.619218000">
        <ele>201.1</ele>
        <time>2020-10-13T10:05:04Z</time>
      </trkpt>
      <trkpt lat="37.845390000" lon="-4.619119000">
        <ele>200.7</ele>
        <time>2020-10-13T10:05:05Z</time>
      </trkpt>
      <trkpt lat="37.845334000" lon="-4.619022000">
        <ele>200.5</ele>
        <time>2020-10-13T10:05:06Z</time>
      </trkpt>
      <trkpt lat="37.845279000" lon="-4.618924000">
        <ele>200.2</ele>
        <time>2020-10-13T10:05:07Z</time>
      </trkpt>
      <trkpt lat="37.845221000" lon="-4.618830000">
        <ele>199.9</ele>
        <time>2020-10-13T10:05:08Z</time>
      </trkpt>
      <trkpt lat="37.845163000" lon="-4.618735000">
        <ele>199.7</ele>
        <time>2020-10-13T10:05:09Z</time>
      </trkpt>
      <trkpt lat="37.845106000" lon="-4.618643000">
        <ele>199.5</ele>
        <time>2020-10-13T10:05:10Z</time>
      </trkpt>
      <trkpt lat="37.845046000" lon="-4.618554000">
        <ele>199.2</ele>
        <time>2020-10-13T10:05:11Z</time>
      </trkpt>
      <trkpt lat="37.844986000" lon="-4.618472000">
        <ele>198.9</ele>
        <time>2020-10-13T10:05:12Z</time>
      </trkpt>
      <trkpt lat="37.844922000" lon="-4.618392000">
        <ele>198.6</ele>
        <time>2020-10-13T10:05:13Z</time>
      </trkpt>
      <trkpt lat="37.844860000" lon="-4.618317000">
        <ele>198.4</ele>
        <time>2020-10-13T10:05:14Z</time>
      </trkpt>
      <trkpt lat="37.844739000" lon="-4.618193000">
        <ele>198.0</ele>
        <time>2020-10-13T10:05:16Z</time>
      </trkpt>
      <trkpt lat="37.844617000" lon="-4.618083000">
        <ele>197.6</ele>
        <time>2020-10-13T10:05:18Z</time>
      </trkpt>
      <trkpt lat="37.844493000" lon="-4.618007000">
        <ele>197.3</ele>
        <time>2020-10-13T10:05:20Z</time>
      </trkpt>
      <trkpt lat="37.844367000" lon="-4.617945000">
        <ele>196.9</ele>
        <time>2020-10-13T10:05:22Z</time>
      </trkpt>
      <trkpt lat="37.844243000" lon="-4.617889000">
        <ele>196.7</ele>
        <time>2020-10-13T10:05:24Z</time>
      </trkpt>
      <trkpt lat="37.844113000" lon="-4.617840000">
        <ele>196.4</ele>
        <time>2020-10-13T10:05:26Z</time>
      </trkpt>
      <trkpt lat="37.843970000" lon="-4.617791000">
        <ele>196.0</ele>
        <time>2020-10-13T10:05:28Z</time>
      </trkpt>
      <trkpt lat="37.843817000" lon="-4.617723000">
        <ele>195.5</ele>
        <time>2020-10-13T10:05:30Z</time>
      </trkpt>
      <trkpt lat="37.843741000" lon="-4.617678000">
        <ele>195.0</ele>
        <time>2020-10-13T10:05:31Z</time>
      </trkpt>
      <trkpt lat="37.843600000" lon="-4.617576000">
        <ele>194.6</ele>
        <time>2020-10-13T10:05:33Z</time>
      </trkpt>
      <trkpt lat="37.843470000" lon="-4.617476000">
        <ele>194.4</ele>
        <time>2020-10-13T10:05:35Z</time>
      </trkpt>
      <trkpt lat="37.843340000" lon="-4.617376000">
        <ele>194.1</ele>
        <time>2020-10-13T10:05:37Z</time>
      </trkpt>
      <trkpt lat="37.843210000" lon="-4.617279000">
        <ele>193.8</ele>
        <time>2020-10-13T10:05:39Z</time>
      </trkpt>
      <trkpt lat="37.843085000" lon="-4.617185000">
        <ele>193.6</ele>
        <time>2020-10-13T10:05:41Z</time>
      </trkpt>
      <trkpt lat="37.842968000" lon="-4.617089000">
        <ele>193.4</ele>
        <time>2020-10-13T10:05:43Z</time>
      </trkpt>
      <trkpt lat="37.842856000" lon="-4.617007000">
        <ele>192.8</ele>
        <time>2020-10-13T10:05:45Z</time>
      </trkpt>
      <trkpt lat="37.842744000" lon="-4.616923000">
        <ele>192.4</ele>
        <time>2020-10-13T10:05:47Z</time>
      </trkpt>
      <trkpt lat="37.842640000" lon="-4.616842000">
        <ele>192.0</ele>
        <time>2020-10-13T10:05:49Z</time>
      </trkpt>
      <trkpt lat="37.842529000" lon="-4.616760000">
        <ele>191.8</ele>
        <time>2020-10-13T10:05:51Z</time>
      </trkpt>
      <trkpt lat="37.842422000" lon="-4.616680000">
        <ele>191.7</ele>
        <time>2020-10-13T10:05:53Z</time>
      </trkpt>
      <trkpt lat="37.842314000" lon="-4.616601000">
        <ele>191.5</ele>
        <time>2020-10-13T10:05:55Z</time>
      </trkpt>
      <trkpt lat="37.842200000" lon="-4.616517000">
        <ele>191.3</ele>
        <time>2020-10-13T10:05:57Z</time>
      </trkpt>
      <trkpt lat="37.842088000" lon="-4.616429000">
        <ele>190.9</ele>
        <time>2020-10-13T10:05:59Z</time>
      </trkpt>
      <trkpt lat="37.841978000" lon="-4.616343000">
        <ele>190.5</ele>
        <time>2020-10-13T10:06:01Z</time>
      </trkpt>
      <trkpt lat="37.841872000" lon="-4.616264000">
        <ele>189.9</ele>
        <time>2020-10-13T10:06:03Z</time>
      </trkpt>
      <trkpt lat="37.841769000" lon="-4.616188000">
        <ele>189.4</ele>
        <time>2020-10-13T10:06:05Z</time>
      </trkpt>
      <trkpt lat="37.841666000" lon="-4.616111000">
        <ele>189.1</ele>
        <time>2020-10-13T10:06:07Z</time>
      </trkpt>
      <trkpt lat="37.841564000" lon="-4.616033000">
        <ele>188.9</ele>
        <time>2020-10-13T10:06:09Z</time>
      </trkpt>
      <trkpt lat="37.841461000" lon="-4.615964000">
        <ele>188.8</ele>
        <time>2020-10-13T10:06:11Z</time>
      </trkpt>
      <trkpt lat="37.841365000" lon="-4.615892000">
        <ele>188.7</ele>
        <time>2020-10-13T10:06:13Z</time>
      </trkpt>
      <trkpt lat="37.841269000" lon="-4.615818000">
        <ele>188.7</ele>
        <time>2020-10-13T10:06:15Z</time>
      </trkpt>
      <trkpt lat="37.841181000" lon="-4.615743000">
        <ele>188.8</ele>
        <time>2020-10-13T10:06:17Z</time>
      </trkpt>
      <trkpt lat="37.841090000" lon="-4.615679000">
        <ele>189.0</ele>
        <time>2020-10-13T10:06:19Z</time>
      </trkpt>
      <trkpt lat="37.841008000" lon="-4.615616000">
        <ele>189.4</ele>
        <time>2020-10-13T10:06:21Z</time>
      </trkpt>
      <trkpt lat="37.840935000" lon="-4.615554000">
        <ele>189.9</ele>
        <time>2020-10-13T10:06:23Z</time>
      </trkpt>
      <trkpt lat="37.840853000" lon="-4.615490000">
        <ele>190.5</ele>
        <time>2020-10-13T10:06:25Z</time>
      </trkpt>
      <trkpt lat="37.840776000" lon="-4.615434000">
        <ele>191.3</ele>
        <time>2020-10-13T10:06:27Z</time>
      </trkpt>
      <trkpt lat="37.840699000" lon="-4.615374000">
        <ele>192.0</ele>
        <time>2020-10-13T10:06:29Z</time>
      </trkpt>
      <trkpt lat="37.840622000" lon="-4.615328000">
        <ele>192.7</ele>
        <time>2020-10-13T10:06:31Z</time>
      </trkpt>
      <trkpt lat="37.840548000" lon="-4.615282000">
        <ele>193.3</ele>
        <time>2020-10-13T10:06:33Z</time>
      </trkpt>
      <trkpt lat="37.840475000" lon="-4.615235000">
        <ele>193.8</ele>
        <time>2020-10-13T10:06:35Z</time>
      </trkpt>
      <trkpt lat="37.840402000" lon="-4.615192000">
        <ele>194.2</ele>
        <time>2020-10-13T10:06:37Z</time>
      </trkpt>
      <trkpt lat="37.840295000" lon="-4.615138000">
        <ele>194.5</ele>
        <time>2020-10-13T10:06:40Z</time>
      </trkpt>
      <trkpt lat="37.840194000" lon="-4.615090000">
        <ele>194.5</ele>
        <time>2020-10-13T10:06:43Z</time>
      </trkpt>
      <trkpt lat="37.840094000" lon="-4.615042000">
        <ele>194.5</ele>
        <time>2020-10-13T10:06:46Z</time>
      </trkpt>
      <trkpt lat="37.839993000" lon="-4.615004000">
        <ele>194.4</ele>
        <time>2020-10-13T10:06:49Z</time>
      </trkpt>
      <trkpt lat="37.839901000" lon="-4.614972000">
        <ele>194.1</ele>
        <time>2020-10-13T10:06:52Z</time>
      </trkpt>
      <trkpt lat="37.839800000" lon="-4.614932000">
        <ele>193.8</ele>
        <time>2020-10-13T10:06:56Z</time>
      </trkpt>
      <trkpt lat="37.839712000" lon="-4.614899000">
        <ele>193.5</ele>
        <time>2020-10-13T10:06:59Z</time>
      </trkpt>
      <trkpt lat="37.839609000" lon="-4.614878000">
        <ele>193.2</ele>
        <time>2020-10-13T10:07:02Z</time>
      </trkpt>
      <trkpt lat="37.839499000" lon="-4.614842000">
        <ele>193.1</ele>
        <time>2020-10-13T10:07:05Z</time>
      </trkpt>
      <trkpt lat="37.839385000" lon="-4.614804000">
        <ele>193.1</ele>
        <time>2020-10-13T10:07:08Z</time>
      </trkpt>
      <trkpt lat="37.839270000" lon="-4.614762000">
        <ele>193.3</ele>
        <time>2020-10-13T10:07:11Z</time>
      </trkpt>
      <trkpt lat="37.839153000" lon="-4.614725000">
        <ele>193.5</ele>
        <time>2020-10-13T10:07:14Z</time>
      </trkpt>
      <trkpt lat="37.839038000" lon="-4.614686000">
        <ele>193.7</ele>
        <time>2020-10-13T10:07:17Z</time>
      </trkpt>
      <trkpt lat="37.838927000" lon="-4.614646000">
        <ele>194.0</ele>
        <time>2020-10-13T10:07:20Z</time>
      </trkpt>
      <trkpt lat="37.838817000" lon="-4.614602000">
        <ele>194.4</ele>
        <time>2020-10-13T10:07:23Z</time>
      </trkpt>
      <trkpt lat="37.838705000" lon="-4.614560000">
        <ele>194.6</ele>
        <time>2020-10-13T10:07:26Z</time>
      </trkpt>
      <trkpt lat="37.838592000" lon="-4.614517000">
        <ele>194.9</ele>
        <time>2020-10-13T10:07:29Z</time>
      </trkpt>
      <trkpt lat="37.838482000" lon="-4.614475000">
        <ele>195.2</ele>
        <time>2020-10-13T10:07:32Z</time>
      </trkpt>
      <trkpt lat="37.838369000" lon="-4.614433000">
        <ele>195.4</ele>
        <time>2020-10-13T10:07:35Z</time>
      </trkpt>
      <trkpt lat="37.838255000" lon="-4.614397000">
        <ele>195.5</ele>
        <time>2020-10-13T10:07:38Z</time>
      </trkpt>
      <trkpt lat="37.838144000" lon="-4.614353000">
        <ele>195.5</ele>
        <time>2020-10-13T10:07:41Z</time>
      </trkpt>
      <trkpt lat="37.838032000" lon="-4.614321000">
        <ele>195.4</ele>
        <time>2020-10-13T10:07:44Z</time>
      </trkpt>
      <trkpt lat="37.837917000" lon="-4.614291000">
        <ele>195.3</ele>
        <time>2020-10-13T10:07:47Z</time>
      </trkpt>
      <trkpt lat="37.837801000" lon="-4.614253000">
        <ele>195.2</ele>
        <time>2020-10-13T10:07:50Z</time>
      </trkpt>
      <trkpt lat="37.837722000" lon="-4.614224000">
        <ele>195.1</ele>
        <time>2020-10-13T10:07:52Z</time>
      </trkpt>
      <trkpt lat="37.837641000" lon="-4.614193000">
        <ele>194.9</ele>
        <time>2020-10-13T10:07:54Z</time>
      </trkpt>
      <trkpt lat="37.837557000" lon="-4.614163000">
        <ele>194.8</ele>
        <time>2020-10-13T10:07:56Z</time>
      </trkpt>
      <trkpt lat="37.837470000" lon="-4.614129000">
        <ele>194.7</ele>
        <time>2020-10-13T10:07:58Z</time>
      </trkpt>
      <trkpt lat="37.837382000" lon="-4.614095000">
        <ele>194.5</ele>
        <time>2020-10-13T10:08:00Z</time>
      </trkpt>
      <trkpt lat="37.837294000" lon="-4.614061000">
        <ele>194.5</ele>
        <time>2020-10-13T10:08:02Z</time>
      </trkpt>
      <trkpt lat="37.837203000" lon="-4.614025000">
        <ele>194.4</ele>
        <time>2020-10-13T10:08:04Z</time>
      </trkpt>
      <trkpt lat="37.837111000" lon="-4.613998000">
        <ele>194.3</ele>
        <time>2020-10-13T10:08:06Z</time>
      </trkpt>
      <trkpt lat="37.837016000" lon="-4.613971000">
        <ele>194.2</ele>
        <time>2020-10-13T10:08:08Z</time>
      </trkpt>
      <trkpt lat="37.836923000" lon="-4.613946000">
        <ele>194.2</ele>
        <time>2020-10-13T10:08:10Z</time>
      </trkpt>
      <trkpt lat="37.836828000" lon="-4.613913000">
        <ele>194.2</ele>
        <time>2020-10-13T10:08:12Z</time>
      </trkpt>
      <trkpt lat="37.836734000" lon="-4.613886000">
        <ele>194.2</ele>
        <time>2020-10-13T10:08:14Z</time>
      </trkpt>
      <trkpt lat="37.836641000" lon="-4.613848000">
        <ele>194.2</ele>
        <time>2020-10-13T10:08:16Z</time>
      </trkpt>
      <trkpt lat="37.836553000" lon="-4.613810000">
        <ele>194.2</ele>
        <time>2020-10-13T10:08:18Z</time>
      </trkpt>
      <trkpt lat="37.836471000" lon="-4.613775000">
        <ele>194.1</ele>
        <time>2020-10-13T10:08:20Z</time>
      </trkpt>
      <trkpt lat="37.836392000" lon="-4.613721000">
        <ele>194.1</ele>
        <time>2020-10-13T10:08:22Z</time>
      </trkpt>
      <trkpt lat="37.836316000" lon="-4.613666000">
        <ele>194.0</ele>
        <time>2020-10-13T10:08:24Z</time>
      </trkpt>
      <trkpt lat="37.836239000" lon="-4.613590000">
        <ele>193.9</ele>
        <time>2020-10-13T10:08:26Z</time>
      </trkpt>
      <trkpt lat="37.836171000" lon="-4.613506000">
        <ele>193.8</ele>
        <time>2020-10-13T10:08:28Z</time>
      </trkpt>
      <trkpt lat="37.836099000" lon="-4.613421000">
        <ele>193.7</ele>
        <time>2020-10-13T10:08:30Z</time>
      </trkpt>
      <trkpt lat="37.836033000" lon="-4.613335000">
        <ele>193.5</ele>
        <time>2020-10-13T10:08:32Z</time>
      </trkpt>
      <trkpt lat="37.835964000" lon="-4.613249000">
        <ele>193.4</ele>
        <time>2020-10-13T10:08:34Z</time>
      </trkpt>
      <trkpt lat="37.835900000" lon="-4.613159000">
        <ele>193.2</ele>
        <time>2020-10-13T10:08:36Z</time>
      </trkpt>
      <trkpt lat="37.835830000" lon="-4.613073000">
        <ele>193.2</ele>
        <time>2020-10-13T10:08:38Z</time>
      </trkpt>
      <trkpt lat="37.835764000" lon="-4.612983000">
        <ele>193.2</ele>
        <time>2020-10-13T10:08:40Z</time>
      </trkpt>
      <trkpt lat="37.835701000" lon="-4.612893000">
        <ele>193.3</ele>
        <time>2020-10-13T10:08:42Z</time>
      </trkpt>
      <trkpt lat="37.835638000" lon="-4.612813000">
        <ele>193.5</ele>
        <time>2020-10-13T10:08:44Z</time>
      </trkpt>
      <trkpt lat="37.835575000" lon="-4.612731000">
        <ele>193.6</ele>
        <time>2020-10-13T10:08:46Z</time>
      </trkpt>
      <trkpt lat="37.835512000" lon="-4.612649000">
        <ele>193.9</ele>
        <time>2020-10-13T10:08:48Z</time>
      </trkpt>
      <trkpt lat="37.835430000" lon="-4.612537000">
        <ele>194.3</ele>
        <time>2020-10-13T10:08:51Z</time>
      </trkpt>
      <trkpt lat="37.835376000" lon="-4.612458000">
        <ele>194.7</ele>
        <time>2020-10-13T10:08:53Z</time>
      </trkpt>
      <trkpt lat="37.835297000" lon="-4.612355000">
        <ele>195.2</ele>
        <time>2020-10-13T10:08:56Z</time>
      </trkpt>
      <trkpt lat="37.835223000" lon="-4.612248000">
        <ele>195.6</ele>
        <time>2020-10-13T10:08:59Z</time>
      </trkpt>
      <trkpt lat="37.835151000" lon="-4.612152000">
        <ele>196.2</ele>
        <time>2020-10-13T10:09:02Z</time>
      </trkpt>
      <trkpt lat="37.835080000" lon="-4.612064000">
        <ele>196.6</ele>
        <time>2020-10-13T10:09:05Z</time>
      </trkpt>
      <trkpt lat="37.835009000" lon="-4.611978000">
        <ele>197.1</ele>
        <time>2020-10-13T10:09:08Z</time>
      </trkpt>
      <trkpt lat="37.834938000" lon="-4.611898000">
        <ele>197.5</ele>
        <time>2020-10-13T10:09:11Z</time>
      </trkpt>
      <trkpt lat="37.834860000" lon="-4.611827000">
        <ele>198.0</ele>
        <time>2020-10-13T10:09:14Z</time>
      </trkpt>
      <trkpt lat="37.834777000" lon="-4.611751000">
        <ele>198.4</ele>
        <time>2020-10-13T10:09:17Z</time>
      </trkpt>
      <trkpt lat="37.834695000" lon="-4.611671000">
        <ele>198.6</ele>
        <time>2020-10-13T10:09:20Z</time>
      </trkpt>
      <trkpt lat="37.834610000" lon="-4.611594000">
        <ele>198.7</ele>
        <time>2020-10-13T10:09:23Z</time>
      </trkpt>
      <trkpt lat="37.834525000" lon="-4.611518000">
        <ele>198.8</ele>
        <time>2020-10-13T10:09:26Z</time>
      </trkpt>
      <trkpt lat="37.834436000" lon="-4.611447000">
        <ele>198.9</ele>
        <time>2020-10-13T10:09:29Z</time>
      </trkpt>
      <trkpt lat="37.834340000" lon="-4.611382000">
        <ele>199.0</ele>
        <time>2020-10-13T10:09:32Z</time>
      </trkpt>
      <trkpt lat="37.834241000" lon="-4.611322000">
        <ele>199.1</ele>
        <time>2020-10-13T10:09:35Z</time>
      </trkpt>
      <trkpt lat="37.834149000" lon="-4.611259000">
        <ele>199.2</ele>
        <time>2020-10-13T10:09:38Z</time>
      </trkpt>
      <trkpt lat="37.834055000" lon="-4.611199000">
        <ele>199.4</ele>
        <time>2020-10-13T10:09:41Z</time>
      </trkpt>
      <trkpt lat="37.833964000" lon="-4.611142000">
        <ele>199.5</ele>
        <time>2020-10-13T10:09:44Z</time>
      </trkpt>
      <trkpt lat="37.833879000" lon="-4.611092000">
        <ele>199.7</ele>
        <time>2020-10-13T10:09:47Z</time>
      </trkpt>
      <trkpt lat="37.833806000" lon="-4.611046000">
        <ele>200.1</ele>
        <time>2020-10-13T10:09:50Z</time>
      </trkpt>
      <trkpt lat="37.833715000" lon="-4.610996000">
        <ele>200.5</ele>
        <time>2020-10-13T10:09:54Z</time>
      </trkpt>
      <trkpt lat="37.833625000" lon="-4.610935000">
        <ele>201.0</ele>
        <time>2020-10-13T10:09:58Z</time>
      </trkpt>
      <trkpt lat="37.833532000" lon="-4.610878000">
        <ele>201.5</ele>
        <time>2020-10-13T10:10:02Z</time>
      </trkpt>
      <trkpt lat="37.833434000" lon="-4.610828000">
        <ele>201.9</ele>
        <time>2020-10-13T10:10:06Z</time>
      </trkpt>
      <trkpt lat="37.833342000" lon="-4.610772000">
        <ele>202.4</ele>
        <time>2020-10-13T10:10:10Z</time>
      </trkpt>
      <trkpt lat="37.833249000" lon="-4.610721000">
        <ele>202.7</ele>
        <time>2020-10-13T10:10:14Z</time>
      </trkpt>
      <trkpt lat="37.833157000" lon="-4.610672000">
        <ele>203.2</ele>
        <time>2020-10-13T10:10:18Z</time>
      </trkpt>
      <trkpt lat="37.833067000" lon="-4.610612000">
        <ele>203.5</ele>
        <time>2020-10-13T10:10:22Z</time>
      </trkpt>
      <trkpt lat="37.832995000" lon="-4.610564000">
        <ele>204.0</ele>
        <time>2020-10-13T10:10:25Z</time>
      </trkpt>
      <trkpt lat="37.832903000" lon="-4.610503000">
        <ele>204.5</ele>
        <time>2020-10-13T10:10:29Z</time>
      </trkpt>
      <trkpt lat="37.832812000" lon="-4.610446000">
        <ele>205.0</ele>
        <time>2020-10-13T10:10:33Z</time>
      </trkpt>
      <trkpt lat="37.832721000" lon="-4.610394000">
        <ele>205.6</ele>
        <time>2020-10-13T10:10:37Z</time>
      </trkpt>
      <trkpt lat="37.832627000" lon="-4.610333000">
        <ele>206.3</ele>
        <time>2020-10-13T10:10:41Z</time>
      </trkpt>
      <trkpt lat="37.832536000" lon="-4.610279000">
        <ele>207.0</ele>
        <time>2020-10-13T10:10:45Z</time>
      </trkpt>
      <trkpt lat="37.832444000" lon="-4.610219000">
        <ele>207.8</ele>
        <time>2020-10-13T10:10:49Z</time>
      </trkpt>
      <trkpt lat="37.832358000" lon="-4.610161000">
        <ele>208.6</ele>
        <time>2020-10-13T10:10:53Z</time>
      </trkpt>
      <trkpt lat="37.832267000" lon="-4.610114000">
        <ele>209.5</ele>
        <time>2020-10-13T10:10:57Z</time>
      </trkpt>
      <trkpt lat="37.832176000" lon="-4.610056000">
        <ele>210.1</ele>
        <time>2020-10-13T10:11:01Z</time>
      </trkpt>
      <trkpt lat="37.832087000" lon="-4.609999000">
        <ele>210.7</ele>
        <time>2020-10-13T10:11:05Z</time>
      </trkpt>
      <trkpt lat="37.832001000" lon="-4.609934000">
        <ele>211.2</ele>
        <time>2020-10-13T10:11:09Z</time>
      </trkpt>
      <trkpt lat="37.831911000" lon="-4.609876000">
        <ele>211.5</ele>
        <time>2020-10-13T10:11:13Z</time>
      </trkpt>
      <trkpt lat="37.831825000" lon="-4.609810000">
        <ele>211.7</ele>
        <time>2020-10-13T10:11:17Z</time>
      </trkpt>
      <trkpt lat="37.831735000" lon="-4.609750000">
        <ele>211.8</ele>
        <time>2020-10-13T10:11:21Z</time>
      </trkpt>
      <trkpt lat="37.831647000" lon="-4.609679000">
        <ele>211.9</ele>
        <time>2020-10-13T10:11:25Z</time>
      </trkpt>
      <trkpt lat="37.831557000" lon="-4.609604000">
        <ele>212.0</ele>
        <time>2020-10-13T10:11:29Z</time>
      </trkpt>
      <trkpt lat="37.831470000" lon="-4.609532000">
        <ele>212.2</ele>
        <time>2020-10-13T10:11:33Z</time>
      </trkpt>
      <trkpt lat="37.831385000" lon="-4.609459000">
        <ele>212.5</ele>
        <time>2020-10-13T10:11:37Z</time>
      </trkpt>
      <trkpt lat="37.831303000" lon="-4.609389000">
        <ele>212.8</ele>
        <time>2020-10-13T10:11:41Z</time>
      </trkpt>
      <trkpt lat="37.831227000" lon="-4.609332000">
        <ele>213.5</ele>
        <time>2020-10-13T10:11:45Z</time>
      </trkpt>
      <trkpt lat="37.831144000" lon="-4.609269000">
        <ele>214.2</ele>
        <time>2020-10-13T10:11:49Z</time>
      </trkpt>
      <trkpt lat="37.831065000" lon="-4.609209000">
        <ele>215.1</ele>
        <time>2020-10-13T10:11:53Z</time>
      </trkpt>
      <trkpt lat="37.830993000" lon="-4.609147000">
        <ele>216.0</ele>
        <time>2020-10-13T10:11:57Z</time>
      </trkpt>
      <trkpt lat="37.830918000" lon="-4.609093000">
        <ele>217.0</ele>
        <time>2020-10-13T10:12:01Z</time>
      </trkpt>
      <trkpt lat="37.830837000" lon="-4.609027000">
        <ele>218.0</ele>
        <time>2020-10-13T10:12:05Z</time>
      </trkpt>
      <trkpt lat="37.830753000" lon="-4.608959000">
        <ele>219.0</ele>
        <time>2020-10-13T10:12:09Z</time>
      </trkpt>
      <trkpt lat="37.830670000" lon="-4.608903000">
        <ele>219.9</ele>
        <time>2020-10-13T10:12:13Z</time>
      </trkpt>
      <trkpt lat="37.830594000" lon="-4.608838000">
        <ele>220.6</ele>
        <time>2020-10-13T10:12:17Z</time>
      </trkpt>
      <trkpt lat="37.830517000" lon="-4.608778000">
        <ele>221.3</ele>
        <time>2020-10-13T10:12:21Z</time>
      </trkpt>
      <trkpt lat="37.830439000" lon="-4.608718000">
        <ele>221.7</ele>
        <time>2020-10-13T10:12:25Z</time>
      </trkpt>
      <trkpt lat="37.830353000" lon="-4.608650000">
        <ele>222.0</ele>
        <time>2020-10-13T10:12:29Z</time>
      </trkpt>
      <trkpt lat="37.830270000" lon="-4.608579000">
        <ele>222.1</ele>
        <time>2020-10-13T10:12:33Z</time>
      </trkpt>
      <trkpt lat="37.830184000" lon="-4.608510000">
        <ele>222.1</ele>
        <time>2020-10-13T10:12:37Z</time>
      </trkpt>
      <trkpt lat="37.830102000" lon="-4.608438000">
        <ele>222.0</ele>
        <time>2020-10-13T10:12:41Z</time>
      </trkpt>
      <trkpt lat="37.830017000" lon="-4.608359000">
        <ele>221.7</ele>
        <time>2020-10-13T10:12:45Z</time>
      </trkpt>
      <trkpt lat="37.829948000" lon="-4.608295000">
        <ele>221.4</ele>
        <time>2020-10-13T10:12:48Z</time>
      </trkpt>
      <trkpt lat="37.829881000" lon="-4.608236000">
        <ele>220.7</ele>
        <time>2020-10-13T10:12:54Z</time>
      </trkpt>
      <trkpt lat="37.829807000" lon="-4.608175000">
        <ele>219.8</ele>
        <time>2020-10-13T10:14:18Z</time>
      </trkpt>
      <trkpt lat="37.829709000" lon="-4.608082000">
        <ele>218.8</ele>
        <time>2020-10-13T10:14:21Z</time>
      </trkpt>
      <trkpt lat="37.829624000" lon="-4.608004000">
        <ele>217.6</ele>
        <time>2020-10-13T10:14:23Z</time>
      </trkpt>
      <trkpt lat="37.829522000" lon="-4.607906000">
        <ele>216.5</ele>
        <time>2020-10-13T10:14:25Z</time>
      </trkpt>
      <trkpt lat="37.829412000" lon="-4.607803000">
        <ele>215.5</ele>
        <time>2020-10-13T10:14:27Z</time>
      </trkpt>
      <trkpt lat="37.829295000" lon="-4.607706000">
        <ele>214.5</ele>
        <time>2020-10-13T10:14:29Z</time>
      </trkpt>
      <trkpt lat="37.829184000" lon="-4.607607000">
        <ele>213.7</ele>
        <time>2020-10-13T10:14:31Z</time>
      </trkpt>
      <trkpt lat="37.829081000" lon="-4.607508000">
        <ele>213.1</ele>
        <time>2020-10-13T10:14:33Z</time>
      </trkpt>
      <trkpt lat="37.828982000" lon="-4.607418000">
        <ele>212.5</ele>
        <time>2020-10-13T10:14:35Z</time>
      </trkpt>
      <trkpt lat="37.828884000" lon="-4.607334000">
        <ele>212.2</ele>
        <time>2020-10-13T10:14:37Z</time>
      </trkpt>
      <trkpt lat="37.828798000" lon="-4.607252000">
        <ele>212.1</ele>
        <time>2020-10-13T10:14:39Z</time>
      </trkpt>
      <trkpt lat="37.828733000" lon="-4.607191000">
        <ele>212.4</ele>
        <time>2020-10-13T10:14:41Z</time>
      </trkpt>
      <trkpt lat="37.828651000" lon="-4.607120000">
        <ele>212.8</ele>
        <time>2020-10-13T10:14:44Z</time>
      </trkpt>
      <trkpt lat="37.828569000" lon="-4.607043000">
        <ele>213.5</ele>
        <time>2020-10-13T10:14:48Z</time>
      </trkpt>
      <trkpt lat="37.828480000" lon="-4.606971000">
        <ele>214.2</ele>
        <time>2020-10-13T10:14:52Z</time>
      </trkpt>
      <trkpt lat="37.828400000" lon="-4.606895000">
        <ele>215.0</ele>
        <time>2020-10-13T10:14:56Z</time>
      </trkpt>
      <trkpt lat="37.828323000" lon="-4.606849000">
        <ele>215.9</ele>
        <time>2020-10-13T10:14:59Z</time>
      </trkpt>
      <trkpt lat="37.828228000" lon="-4.606798000">
        <ele>216.8</ele>
        <time>2020-10-13T10:15:03Z</time>
      </trkpt>
      <trkpt lat="37.828132000" lon="-4.606752000">
        <ele>217.7</ele>
        <time>2020-10-13T10:15:07Z</time>
      </trkpt>
      <trkpt lat="37.828038000" lon="-4.606715000">
        <ele>218.7</ele>
        <time>2020-10-13T10:15:11Z</time>
      </trkpt>
      <trkpt lat="37.827943000" lon="-4.606686000">
        <ele>219.7</ele>
        <time>2020-10-13T10:15:15Z</time>
      </trkpt>
      <trkpt lat="37.827844000" lon="-4.606668000">
        <ele>220.5</ele>
        <time>2020-10-13T10:15:19Z</time>
      </trkpt>
      <trkpt lat="37.827752000" lon="-4.606666000">
        <ele>221.3</ele>
        <time>2020-10-13T10:15:23Z</time>
      </trkpt>
      <trkpt lat="37.827662000" lon="-4.606666000">
        <ele>221.9</ele>
        <time>2020-10-13T10:15:27Z</time>
      </trkpt>
      <trkpt lat="37.827572000" lon="-4.606680000">
        <ele>222.5</ele>
        <time>2020-10-13T10:15:31Z</time>
      </trkpt>
      <trkpt lat="37.827489000" lon="-4.606699000">
        <ele>223.1</ele>
        <time>2020-10-13T10:15:35Z</time>
      </trkpt>
      <trkpt lat="37.827400000" lon="-4.606737000">
        <ele>223.5</ele>
        <time>2020-10-13T10:15:40Z</time>
      </trkpt>
      <trkpt lat="37.827316000" lon="-4.606773000">
        <ele>223.6</ele>
        <time>2020-10-13T10:15:45Z</time>
      </trkpt>
      <trkpt lat="37.827234000" lon="-4.606816000">
        <ele>223.6</ele>
        <time>2020-10-13T10:16:05Z</time>
      </trkpt>
      <trkpt lat="37.827142000" lon="-4.606851000">
        <ele>223.5</ele>
        <time>2020-10-13T10:16:11Z</time>
      </trkpt>
      <trkpt lat="37.827057000" lon="-4.606886000">
        <ele>223.3</ele>
        <time>2020-10-13T10:16:16Z</time>
      </trkpt>
      <trkpt lat="37.826961000" lon="-4.606909000">
        <ele>222.8</ele>
        <time>2020-10-13T10:17:05Z</time>
      </trkpt>
      <trkpt lat="37.826863000" lon="-4.606946000">
        <ele>222.4</ele>
        <time>2020-10-13T10:17:09Z</time>
      </trkpt>
      <trkpt lat="37.826772000" lon="-4.606990000">
        <ele>221.8</ele>
        <time>2020-10-13T10:17:12Z</time>
      </trkpt>
      <trkpt lat="37.826660000" lon="-4.607042000">
        <ele>221.1</ele>
        <time>2020-10-13T10:17:15Z</time>
      </trkpt>
      <trkpt lat="37.826571000" lon="-4.607083000">
        <ele>220.4</ele>
        <time>2020-10-13T10:17:17Z</time>
      </trkpt>
      <trkpt lat="37.826476000" lon="-4.607119000">
        <ele>219.5</ele>
        <time>2020-10-13T10:17:19Z</time>
      </trkpt>
      <trkpt lat="37.826367000" lon="-4.607156000">
        <ele>218.9</ele>
        <time>2020-10-13T10:17:21Z</time>
      </trkpt>
      <trkpt lat="37.826245000" lon="-4.607175000">
        <ele>218.3</ele>
        <time>2020-10-13T10:17:23Z</time>
      </trkpt>
      <trkpt lat="37.826116000" lon="-4.607172000">
        <ele>217.7</ele>
        <time>2020-10-13T10:17:25Z</time>
      </trkpt>
      <trkpt lat="37.825998000" lon="-4.607134000">
        <ele>217.2</ele>
        <time>2020-10-13T10:17:27Z</time>
      </trkpt>
      <trkpt lat="37.825883000" lon="-4.607051000">
        <ele>216.6</ele>
        <time>2020-10-13T10:17:29Z</time>
      </trkpt>
      <trkpt lat="37.825784000" lon="-4.606938000">
        <ele>216.2</ele>
        <time>2020-10-13T10:17:31Z</time>
      </trkpt>
      <trkpt lat="37.825696000" lon="-4.606802000">
        <ele>215.8</ele>
        <time>2020-10-13T10:17:33Z</time>
      </trkpt>
      <trkpt lat="37.825615000" lon="-4.606651000">
        <ele>215.5</ele>
        <time>2020-10-13T10:17:35Z</time>
      </trkpt>
      <trkpt lat="37.825536000" lon="-4.606485000">
        <ele>215.5</ele>
        <time>2020-10-13T10:17:37Z</time>
      </trkpt>
      <trkpt lat="37.825459000" lon="-4.606320000">
        <ele>215.4</ele>
        <time>2020-10-13T10:17:39Z</time>
      </trkpt>
      <trkpt lat="37.825382000" lon="-4.606152000">
        <ele>215.5</ele>
        <time>2020-10-13T10:17:41Z</time>
      </trkpt>
      <trkpt lat="37.825305000" lon="-4.605988000">
        <ele>215.5</ele>
        <time>2020-10-13T10:17:43Z</time>
      </trkpt>
      <trkpt lat="37.825235000" lon="-4.605837000">
        <ele>215.6</ele>
        <time>2020-10-13T10:17:45Z</time>
      </trkpt>
      <trkpt lat="37.825170000" lon="-4.605693000">
        <ele>215.7</ele>
        <time>2020-10-13T10:17:47Z</time>
      </trkpt>
      <trkpt lat="37.825103000" lon="-4.605558000">
        <ele>215.9</ele>
        <time>2020-10-13T10:17:49Z</time>
      </trkpt>
      <trkpt lat="37.825046000" lon="-4.605431000">
        <ele>216.2</ele>
        <time>2020-10-13T10:17:51Z</time>
      </trkpt>
      <trkpt lat="37.824989000" lon="-4.605312000">
        <ele>216.5</ele>
        <time>2020-10-13T10:17:53Z</time>
      </trkpt>
      <trkpt lat="37.824936000" lon="-4.605204000">
        <ele>217.0</ele>
        <time>2020-10-13T10:17:55Z</time>
      </trkpt>
      <trkpt lat="37.824890000" lon="-4.605103000">
        <ele>217.5</ele>
        <time>2020-10-13T10:17:57Z</time>
      </trkpt>
      <trkpt lat="37.824843000" lon="-4.605003000">
        <ele>218.0</ele>
        <time>2020-10-13T10:17:59Z</time>
      </trkpt>
      <trkpt lat="37.824785000" lon="-4.604881000">
        <ele>218.6</ele>
        <time>2020-10-13T10:18:02Z</time>
      </trkpt>
      <trkpt lat="37.824729000" lon="-4.604752000">
        <ele>219.2</ele>
        <time>2020-10-13T10:18:05Z</time>
      </trkpt>
      <trkpt lat="37.824676000" lon="-4.604627000">
        <ele>219.6</ele>
        <time>2020-10-13T10:18:08Z</time>
      </trkpt>
      <trkpt lat="37.824626000" lon="-4.604502000">
        <ele>220.1</ele>
        <time>2020-10-13T10:18:11Z</time>
      </trkpt>
      <trkpt lat="37.824579000" lon="-4.604381000">
        <ele>220.5</ele>
        <time>2020-10-13T10:18:14Z</time>
      </trkpt>
      <trkpt lat="37.824548000" lon="-4.604251000">
        <ele>220.9</ele>
        <time>2020-10-13T10:18:17Z</time>
      </trkpt>
      <trkpt lat="37.824512000" lon="-4.604123000">
        <ele>221.2</ele>
        <time>2020-10-13T10:18:20Z</time>
      </trkpt>
      <trkpt lat="37.824476000" lon="-4.603995000">
        <ele>221.4</ele>
        <time>2020-10-13T10:18:23Z</time>
      </trkpt>
      <trkpt lat="37.824455000" lon="-4.603864000">
        <ele>221.5</ele>
        <time>2020-10-13T10:18:26Z</time>
      </trkpt>
      <trkpt lat="37.824434000" lon="-4.603725000">
        <ele>221.5</ele>
        <time>2020-10-13T10:18:29Z</time>
      </trkpt>
      <trkpt lat="37.824405000" lon="-4.603575000">
        <ele>221.3</ele>
        <time>2020-10-13T10:18:32Z</time>
      </trkpt>
      <trkpt lat="37.824383000" lon="-4.603468000">
        <ele>221.0</ele>
        <time>2020-10-13T10:18:34Z</time>
      </trkpt>
      <trkpt lat="37.824363000" lon="-4.603356000">
        <ele>220.6</ele>
        <time>2020-10-13T10:18:36Z</time>
      </trkpt>
      <trkpt lat="37.824345000" lon="-4.603241000">
        <ele>220.3</ele>
        <time>2020-10-13T10:18:38Z</time>
      </trkpt>
      <trkpt lat="37.824324000" lon="-4.603121000">
        <ele>219.9</ele>
        <time>2020-10-13T10:18:40Z</time>
      </trkpt>
      <trkpt lat="37.824299000" lon="-4.602998000">
        <ele>219.5</ele>
        <time>2020-10-13T10:18:42Z</time>
      </trkpt>
      <trkpt lat="37.824280000" lon="-4.602874000">
        <ele>219.3</ele>
        <time>2020-10-13T10:18:44Z</time>
      </trkpt>
      <trkpt lat="37.824263000" lon="-4.602753000">
        <ele>219.1</ele>
        <time>2020-10-13T10:18:46Z</time>
      </trkpt>
      <trkpt lat="37.824239000" lon="-4.602625000">
        <ele>219.0</ele>
        <time>2020-10-13T10:18:48Z</time>
      </trkpt>
      <trkpt lat="37.824220000" lon="-4.602504000">
        <ele>219.0</ele>
        <time>2020-10-13T10:18:50Z</time>
      </trkpt>
      <trkpt lat="37.824196000" lon="-4.602389000">
        <ele>219.2</ele>
        <time>2020-10-13T10:18:52Z</time>
      </trkpt>
      <trkpt lat="37.824173000" lon="-4.602279000">
        <ele>219.5</ele>
        <time>2020-10-13T10:18:54Z</time>
      </trkpt>
      <trkpt lat="37.824152000" lon="-4.602179000">
        <ele>219.8</ele>
        <time>2020-10-13T10:18:56Z</time>
      </trkpt>
      <trkpt lat="37.824130000" lon="-4.602048000">
        <ele>220.4</ele>
        <time>2020-10-13T10:18:59Z</time>
      </trkpt>
      <trkpt lat="37.824104000" lon="-4.601931000">
        <ele>221.0</ele>
        <time>2020-10-13T10:19:02Z</time>
      </trkpt>
      <trkpt lat="37.824078000" lon="-4.601821000">
        <ele>221.6</ele>
        <time>2020-10-13T10:19:05Z</time>
      </trkpt>
      <trkpt lat="37.824053000" lon="-4.601719000">
        <ele>222.3</ele>
        <time>2020-10-13T10:19:08Z</time>
      </trkpt>
      <trkpt lat="37.824031000" lon="-4.601611000">
        <ele>222.8</ele>
        <time>2020-10-13T10:19:11Z</time>
      </trkpt>
      <trkpt lat="37.824012000" lon="-4.601508000">
        <ele>223.4</ele>
        <time>2020-10-13T10:19:14Z</time>
      </trkpt>
      <trkpt lat="37.823995000" lon="-4.601401000">
        <ele>223.7</ele>
        <time>2020-10-13T10:19:17Z</time>
      </trkpt>
      <trkpt lat="37.823972000" lon="-4.601298000">
        <ele>224.0</ele>
        <time>2020-10-13T10:19:20Z</time>
      </trkpt>
      <trkpt lat="37.823945000" lon="-4.601191000">
        <ele>224.1</ele>
        <time>2020-10-13T10:19:23Z</time>
      </trkpt>
      <trkpt lat="37.823914000" lon="-4.601079000">
        <ele>224.2</ele>
        <time>2020-10-13T10:19:26Z</time>
      </trkpt>
      <trkpt lat="37.823878000" lon="-4.600965000">
        <ele>224.2</ele>
        <time>2020-10-13T10:19:29Z</time>
      </trkpt>
      <trkpt lat="37.823843000" lon="-4.600843000">
        <ele>224.1</ele>
        <time>2020-10-13T10:19:32Z</time>
      </trkpt>
      <trkpt lat="37.823798000" lon="-4.600711000">
        <ele>223.9</ele>
        <time>2020-10-13T10:19:35Z</time>
      </trkpt>
      <trkpt lat="37.823764000" lon="-4.600617000">
        <ele>223.8</ele>
        <time>2020-10-13T10:19:37Z</time>
      </trkpt>
      <trkpt lat="37.823732000" lon="-4.600519000">
        <ele>223.7</ele>
        <time>2020-10-13T10:19:39Z</time>
      </trkpt>
      <trkpt lat="37.823700000" lon="-4.600422000">
        <ele>223.6</ele>
        <time>2020-10-13T10:19:41Z</time>
      </trkpt>
      <trkpt lat="37.823665000" lon="-4.600327000">
        <ele>223.5</ele>
        <time>2020-10-13T10:19:43Z</time>
      </trkpt>
      <trkpt lat="37.823617000" lon="-4.600191000">
        <ele>223.5</ele>
        <time>2020-10-13T10:19:46Z</time>
      </trkpt>
      <trkpt lat="37.823567000" lon="-4.600060000">
        <ele>223.6</ele>
        <time>2020-10-13T10:19:49Z</time>
      </trkpt>
      <trkpt lat="37.823515000" lon="-4.599935000">
        <ele>223.8</ele>
        <time>2020-10-13T10:19:52Z</time>
      </trkpt>
      <trkpt lat="37.823462000" lon="-4.599816000">
        <ele>224.1</ele>
        <time>2020-10-13T10:19:55Z</time>
      </trkpt>
      <trkpt lat="37.823408000" lon="-4.599711000">
        <ele>224.4</ele>
        <time>2020-10-13T10:19:58Z</time>
      </trkpt>
      <trkpt lat="37.823354000" lon="-4.599617000">
        <ele>224.6</ele>
        <time>2020-10-13T10:20:01Z</time>
      </trkpt>
      <trkpt lat="37.823304000" lon="-4.599533000">
        <ele>224.9</ele>
        <time>2020-10-13T10:20:04Z</time>
      </trkpt>
      <trkpt lat="37.823253000" lon="-4.599449000">
        <ele>225.2</ele>
        <time>2020-10-13T10:20:07Z</time>
      </trkpt>
      <trkpt lat="37.823193000" lon="-4.599344000">
        <ele>225.5</ele>
        <time>2020-10-13T10:20:11Z</time>
      </trkpt>
      <trkpt lat="37.823141000" lon="-4.599261000">
        <ele>225.8</ele>
        <time>2020-10-13T10:20:14Z</time>
      </trkpt>
      <trkpt lat="37.823084000" lon="-4.599173000">
        <ele>226.3</ele>
        <time>2020-10-13T10:20:17Z</time>
      </trkpt>
      <trkpt lat="37.823031000" lon="-4.599086000">
        <ele>226.7</ele>
        <time>2020-10-13T10:20:20Z</time>
      </trkpt>
      <trkpt lat="37.822976000" lon="-4.598980000">
        <ele>227.2</ele>
        <time>2020-10-13T10:20:24Z</time>
      </trkpt>
      <trkpt lat="37.822927000" lon="-4.598889000">
        <ele>227.6</ele>
        <time>2020-10-13T10:20:27Z</time>
      </trkpt>
      <trkpt lat="37.822876000" lon="-4.598801000">
        <ele>228.1</ele>
        <time>2020-10-13T10:20:30Z</time>
      </trkpt>
      <trkpt lat="37.822829000" lon="-4.598712000">
        <ele>228.6</ele>
        <time>2020-10-13T10:20:33Z</time>
      </trkpt>
      <trkpt lat="37.822780000" lon="-4.598624000">
        <ele>229.2</ele>
        <time>2020-10-13T10:20:36Z</time>
      </trkpt>
      <trkpt lat="37.822731000" lon="-4.598541000">
        <ele>229.8</ele>
        <time>2020-10-13T10:20:39Z</time>
      </trkpt>
      <trkpt lat="37.822674000" lon="-4.598429000">
        <ele>230.5</ele>
        <time>2020-10-13T10:20:43Z</time>
      </trkpt>
      <trkpt lat="37.822629000" lon="-4.598340000">
        <ele>231.1</ele>
        <time>2020-10-13T10:20:46Z</time>
      </trkpt>
      <trkpt lat="37.822584000" lon="-4.598250000">
        <ele>231.6</ele>
        <time>2020-10-13T10:20:49Z</time>
      </trkpt>
      <trkpt lat="37.822540000" lon="-4.598159000">
        <ele>232.1</ele>
        <time>2020-10-13T10:20:52Z</time>
      </trkpt>
      <trkpt lat="37.822484000" lon="-4.598042000">
        <ele>232.5</ele>
        <time>2020-10-13T10:20:56Z</time>
      </trkpt>
      <trkpt lat="37.822436000" lon="-4.597951000">
        <ele>232.9</ele>
        <time>2020-10-13T10:20:59Z</time>
      </trkpt>
      <trkpt lat="37.822391000" lon="-4.597865000">
        <ele>233.3</ele>
        <time>2020-10-13T10:21:02Z</time>
      </trkpt>
      <trkpt lat="37.822328000" lon="-4.597761000">
        <ele>233.5</ele>
        <time>2020-10-13T10:21:06Z</time>
      </trkpt>
      <trkpt lat="37.822269000" lon="-4.597660000">
        <ele>233.5</ele>
        <time>2020-10-13T10:21:10Z</time>
      </trkpt>
      <trkpt lat="37.822216000" lon="-4.597551000">
        <ele>233.5</ele>
        <time>2020-10-13T10:21:14Z</time>
      </trkpt>
      <trkpt lat="37.822157000" lon="-4.597439000">
        <ele>233.3</ele>
        <time>2020-10-13T10:21:18Z</time>
      </trkpt>
      <trkpt lat="37.822103000" lon="-4.597337000">
        <ele>232.7</ele>
        <time>2020-10-13T10:21:21Z</time>
      </trkpt>
      <trkpt lat="37.822034000" lon="-4.597192000">
        <ele>232.2</ele>
        <time>2020-10-13T10:21:24Z</time>
      </trkpt>
      <trkpt lat="37.821980000" lon="-4.597075000">
        <ele>231.5</ele>
        <time>2020-10-13T10:21:26Z</time>
      </trkpt>
      <trkpt lat="37.821916000" lon="-4.596938000">
        <ele>230.8</ele>
        <time>2020-10-13T10:21:28Z</time>
      </trkpt>
      <trkpt lat="37.821840000" lon="-4.596778000">
        <ele>230.0</ele>
        <time>2020-10-13T10:21:30Z</time>
      </trkpt>
      <trkpt lat="37.821752000" lon="-4.596611000">
        <ele>229.2</ele>
        <time>2020-10-13T10:21:32Z</time>
      </trkpt>
      <trkpt lat="37.821706000" lon="-4.596521000">
        <ele>228.3</ele>
        <time>2020-10-13T10:21:33Z</time>
      </trkpt>
      <trkpt lat="37.821656000" lon="-4.596428000">
        <ele>227.4</ele>
        <time>2020-10-13T10:21:34Z</time>
      </trkpt>
      <trkpt lat="37.821608000" lon="-4.596329000">
        <ele>226.5</ele>
        <time>2020-10-13T10:21:35Z</time>
      </trkpt>
      <trkpt lat="37.821561000" lon="-4.596228000">
        <ele>225.6</ele>
        <time>2020-10-13T10:21:36Z</time>
      </trkpt>
      <trkpt lat="37.821516000" lon="-4.596128000">
        <ele>224.9</ele>
        <time>2020-10-13T10:21:37Z</time>
      </trkpt>
      <trkpt lat="37.821474000" lon="-4.596031000">
        <ele>224.4</ele>
        <time>2020-10-13T10:21:38Z</time>
      </trkpt>
      <trkpt lat="37.821434000" lon="-4.595936000">
        <ele>223.8</ele>
        <time>2020-10-13T10:21:39Z</time>
      </trkpt>
      <trkpt lat="37.821398000" lon="-4.595840000">
        <ele>223.5</ele>
        <time>2020-10-13T10:21:40Z</time>
      </trkpt>
      <trkpt lat="37.821365000" lon="-4.595740000">
        <ele>223.2</ele>
        <time>2020-10-13T10:21:41Z</time>
      </trkpt>
      <trkpt lat="37.821332000" lon="-4.595643000">
        <ele>223.0</ele>
        <time>2020-10-13T10:21:42Z</time>
      </trkpt>
      <trkpt lat="37.821301000" lon="-4.595545000">
        <ele>222.9</ele>
        <time>2020-10-13T10:21:43Z</time>
      </trkpt>
      <trkpt lat="37.821275000" lon="-4.595448000">
        <ele>222.9</ele>
        <time>2020-10-13T10:21:44Z</time>
      </trkpt>
      <trkpt lat="37.821220000" lon="-4.595262000">
        <ele>223.1</ele>
        <time>2020-10-13T10:21:46Z</time>
      </trkpt>
      <trkpt lat="37.821168000" lon="-4.595094000">
        <ele>223.4</ele>
        <time>2020-10-13T10:21:48Z</time>
      </trkpt>
      <trkpt lat="37.821116000" lon="-4.594943000">
        <ele>223.7</ele>
        <time>2020-10-13T10:21:50Z</time>
      </trkpt>
      <trkpt lat="37.821072000" lon="-4.594800000">
        <ele>224.2</ele>
        <time>2020-10-13T10:21:52Z</time>
      </trkpt>
      <trkpt lat="37.821032000" lon="-4.594667000">
        <ele>224.6</ele>
        <time>2020-10-13T10:21:54Z</time>
      </trkpt>
      <trkpt lat="37.820991000" lon="-4.594543000">
        <ele>225.2</ele>
        <time>2020-10-13T10:21:56Z</time>
      </trkpt>
      <trkpt lat="37.820961000" lon="-4.594426000">
        <ele>225.6</ele>
        <time>2020-10-13T10:21:58Z</time>
      </trkpt>
      <trkpt lat="37.820927000" lon="-4.594321000">
        <ele>226.1</ele>
        <time>2020-10-13T10:22:00Z</time>
      </trkpt>
      <trkpt lat="37.820894000" lon="-4.594210000">
        <ele>226.5</ele>
        <time>2020-10-13T10:22:02Z</time>
      </trkpt>
      <trkpt lat="37.820870000" lon="-4.594101000">
        <ele>226.7</ele>
        <time>2020-10-13T10:22:04Z</time>
      </trkpt>
      <trkpt lat="37.820840000" lon="-4.593994000">
        <ele>226.9</ele>
        <time>2020-10-13T10:22:06Z</time>
      </trkpt>
      <trkpt lat="37.820815000" lon="-4.593879000">
        <ele>227.0</ele>
        <time>2020-10-13T10:22:08Z</time>
      </trkpt>
      <trkpt lat="37.820785000" lon="-4.593773000">
        <ele>227.0</ele>
        <time>2020-10-13T10:22:10Z</time>
      </trkpt>
      <trkpt lat="37.820754000" lon="-4.593658000">
        <ele>226.9</ele>
        <time>2020-10-13T10:22:12Z</time>
      </trkpt>
      <trkpt lat="37.820727000" lon="-4.593548000">
        <ele>226.7</ele>
        <time>2020-10-13T10:22:14Z</time>
      </trkpt>
      <trkpt lat="37.820705000" lon="-4.593421000">
        <ele>226.5</ele>
        <time>2020-10-13T10:22:16Z</time>
      </trkpt>
      <trkpt lat="37.820683000" lon="-4.593302000">
        <ele>226.3</ele>
        <time>2020-10-13T10:22:18Z</time>
      </trkpt>
      <trkpt lat="37.820664000" lon="-4.593184000">
        <ele>226.0</ele>
        <time>2020-10-13T10:22:20Z</time>
      </trkpt>
      <trkpt lat="37.820642000" lon="-4.593066000">
        <ele>225.7</ele>
        <time>2020-10-13T10:22:22Z</time>
      </trkpt>
      <trkpt lat="37.820617000" lon="-4.592952000">
        <ele>225.6</ele>
        <time>2020-10-13T10:22:24Z</time>
      </trkpt>
      <trkpt lat="37.820592000" lon="-4.592840000">
        <ele>225.5</ele>
        <time>2020-10-13T10:22:26Z</time>
      </trkpt>
      <trkpt lat="37.820570000" lon="-4.592725000">
        <ele>225.6</ele>
        <time>2020-10-13T10:22:28Z</time>
      </trkpt>
      <trkpt lat="37.820547000" lon="-4.592606000">
        <ele>225.7</ele>
        <time>2020-10-13T10:22:30Z</time>
      </trkpt>
      <trkpt lat="37.820528000" lon="-4.592490000">
        <ele>225.9</ele>
        <time>2020-10-13T10:22:32Z</time>
      </trkpt>
      <trkpt lat="37.820504000" lon="-4.592379000">
        <ele>226.1</ele>
        <time>2020-10-13T10:22:34Z</time>
      </trkpt>
      <trkpt lat="37.820478000" lon="-4.592265000">
        <ele>226.4</ele>
        <time>2020-10-13T10:22:36Z</time>
      </trkpt>
      <trkpt lat="37.820458000" lon="-4.592146000">
        <ele>226.6</ele>
        <time>2020-10-13T10:22:38Z</time>
      </trkpt>
      <trkpt lat="37.820439000" lon="-4.592030000">
        <ele>226.9</ele>
        <time>2020-10-13T10:22:40Z</time>
      </trkpt>
      <trkpt lat="37.820418000" lon="-4.591915000">
        <ele>227.2</ele>
        <time>2020-10-13T10:22:42Z</time>
      </trkpt>
      <trkpt lat="37.820393000" lon="-4.591798000">
        <ele>227.5</ele>
        <time>2020-10-13T10:22:44Z</time>
      </trkpt>
      <trkpt lat="37.820366000" lon="-4.591676000">
        <ele>227.5</ele>
        <time>2020-10-13T10:22:46Z</time>
      </trkpt>
      <trkpt lat="37.820343000" lon="-4.591561000">
        <ele>227.6</ele>
        <time>2020-10-13T10:22:48Z</time>
      </trkpt>
      <trkpt lat="37.820313000" lon="-4.591448000">
        <ele>227.6</ele>
        <time>2020-10-13T10:22:50Z</time>
      </trkpt>
      <trkpt lat="37.820272000" lon="-4.591339000">
        <ele>227.6</ele>
        <time>2020-10-13T10:22:52Z</time>
      </trkpt>
      <trkpt lat="37.820239000" lon="-4.591232000">
        <ele>227.5</ele>
        <time>2020-10-13T10:22:54Z</time>
      </trkpt>
      <trkpt lat="37.820201000" lon="-4.591141000">
        <ele>227.5</ele>
        <time>2020-10-13T10:22:56Z</time>
      </trkpt>
      <trkpt lat="37.820168000" lon="-4.591043000">
        <ele>227.4</ele>
        <time>2020-10-13T10:22:58Z</time>
      </trkpt>
      <trkpt lat="37.820137000" lon="-4.590944000">
        <ele>227.3</ele>
        <time>2020-10-13T10:23:00Z</time>
      </trkpt>
      <trkpt lat="37.820108000" lon="-4.590848000">
        <ele>227.2</ele>
        <time>2020-10-13T10:23:02Z</time>
      </trkpt>
      <trkpt lat="37.820057000" lon="-4.590709000">
        <ele>227.1</ele>
        <time>2020-10-13T10:23:05Z</time>
      </trkpt>
      <trkpt lat="37.820024000" lon="-4.590613000">
        <ele>227.0</ele>
        <time>2020-10-13T10:23:07Z</time>
      </trkpt>
      <trkpt lat="37.819992000" lon="-4.590513000">
        <ele>227.0</ele>
        <time>2020-10-13T10:23:09Z</time>
      </trkpt>
      <trkpt lat="37.819959000" lon="-4.590412000">
        <ele>227.0</ele>
        <time>2020-10-13T10:23:11Z</time>
      </trkpt>
      <trkpt lat="37.819926000" lon="-4.590308000">
        <ele>227.1</ele>
        <time>2020-10-13T10:23:13Z</time>
      </trkpt>
      <trkpt lat="37.819891000" lon="-4.590203000">
        <ele>227.2</ele>
        <time>2020-10-13T10:23:15Z</time>
      </trkpt>
      <trkpt lat="37.819852000" lon="-4.590101000">
        <ele>227.3</ele>
        <time>2020-10-13T10:23:17Z</time>
      </trkpt>
      <trkpt lat="37.819812000" lon="-4.590000000">
        <ele>227.4</ele>
        <time>2020-10-13T10:23:19Z</time>
      </trkpt>
      <trkpt lat="37.819774000" lon="-4.589900000">
        <ele>227.5</ele>
        <time>2020-10-13T10:23:21Z</time>
      </trkpt>
      <trkpt lat="37.819739000" lon="-4.589800000">
        <ele>227.5</ele>
        <time>2020-10-13T10:23:23Z</time>
      </trkpt>
      <trkpt lat="37.819703000" lon="-4.589696000">
        <ele>227.6</ele>
        <time>2020-10-13T10:23:25Z</time>
      </trkpt>
      <trkpt lat="37.819669000" lon="-4.589589000">
        <ele>227.7</ele>
        <time>2020-10-13T10:23:27Z</time>
      </trkpt>
      <trkpt lat="37.819634000" lon="-4.589483000">
        <ele>227.7</ele>
        <time>2020-10-13T10:23:29Z</time>
      </trkpt>
      <trkpt lat="37.819604000" lon="-4.589383000">
        <ele>227.7</ele>
        <time>2020-10-13T10:23:31Z</time>
      </trkpt>
      <trkpt lat="37.819569000" lon="-4.589281000">
        <ele>227.7</ele>
        <time>2020-10-13T10:23:33Z</time>
      </trkpt>
      <trkpt lat="37.819536000" lon="-4.589180000">
        <ele>227.6</ele>
        <time>2020-10-13T10:23:35Z</time>
      </trkpt>
      <trkpt lat="37.819508000" lon="-4.589079000">
        <ele>227.5</ele>
        <time>2020-10-13T10:23:37Z</time>
      </trkpt>
      <trkpt lat="37.819476000" lon="-4.588975000">
        <ele>227.3</ele>
        <time>2020-10-13T10:23:39Z</time>
      </trkpt>
      <trkpt lat="37.819443000" lon="-4.588870000">
        <ele>227.0</ele>
        <time>2020-10-13T10:23:41Z</time>
      </trkpt>
      <trkpt lat="37.819409000" lon="-4.588766000">
        <ele>226.7</ele>
        <time>2020-10-13T10:23:43Z</time>
      </trkpt>
      <trkpt lat="37.819370000" lon="-4.588658000">
        <ele>226.5</ele>
        <time>2020-10-13T10:23:45Z</time>
      </trkpt>
      <trkpt lat="37.819325000" lon="-4.588557000">
        <ele>226.3</ele>
        <time>2020-10-13T10:23:47Z</time>
      </trkpt>
      <trkpt lat="37.819268000" lon="-4.588457000">
        <ele>226.1</ele>
        <time>2020-10-13T10:23:49Z</time>
      </trkpt>
      <trkpt lat="37.819197000" lon="-4.588365000">
        <ele>226.0</ele>
        <time>2020-10-13T10:23:51Z</time>
      </trkpt>
      <trkpt lat="37.819122000" lon="-4.588284000">
        <ele>226.0</ele>
        <time>2020-10-13T10:23:53Z</time>
      </trkpt>
      <trkpt lat="37.819038000" lon="-4.588208000">
        <ele>226.0</ele>
        <time>2020-10-13T10:23:55Z</time>
      </trkpt>
      <trkpt lat="37.818952000" lon="-4.588150000">
        <ele>226.1</ele>
        <time>2020-10-13T10:23:57Z</time>
      </trkpt>
      <trkpt lat="37.818864000" lon="-4.588104000">
        <ele>226.3</ele>
        <time>2020-10-13T10:23:59Z</time>
      </trkpt>
      <trkpt lat="37.818778000" lon="-4.588052000">
        <ele>226.5</ele>
        <time>2020-10-13T10:24:01Z</time>
      </trkpt>
      <trkpt lat="37.818692000" lon="-4.588003000">
        <ele>226.9</ele>
        <time>2020-10-13T10:24:03Z</time>
      </trkpt>
      <trkpt lat="37.818609000" lon="-4.587955000">
        <ele>227.4</ele>
        <time>2020-10-13T10:24:05Z</time>
      </trkpt>
      <trkpt lat="37.818530000" lon="-4.587904000">
        <ele>227.8</ele>
        <time>2020-10-13T10:24:07Z</time>
      </trkpt>
      <trkpt lat="37.818454000" lon="-4.587859000">
        <ele>228.2</ele>
        <time>2020-10-13T10:24:09Z</time>
      </trkpt>
      <trkpt lat="37.818378000" lon="-4.587826000">
        <ele>228.5</ele>
        <time>2020-10-13T10:24:11Z</time>
      </trkpt>
      <trkpt lat="37.818266000" lon="-4.587777000">
        <ele>228.8</ele>
        <time>2020-10-13T10:24:14Z</time>
      </trkpt>
      <trkpt lat="37.818158000" lon="-4.587737000">
        <ele>229.1</ele>
        <time>2020-10-13T10:24:17Z</time>
      </trkpt>
      <trkpt lat="37.818054000" lon="-4.587699000">
        <ele>229.4</ele>
        <time>2020-10-13T10:24:20Z</time>
      </trkpt>
      <trkpt lat="37.817950000" lon="-4.587671000">
        <ele>229.5</ele>
        <time>2020-10-13T10:24:23Z</time>
      </trkpt>
      <trkpt lat="37.817849000" lon="-4.587635000">
        <ele>229.8</ele>
        <time>2020-10-13T10:24:26Z</time>
      </trkpt>
      <trkpt lat="37.817748000" lon="-4.587613000">
        <ele>230.1</ele>
        <time>2020-10-13T10:24:29Z</time>
      </trkpt>
      <trkpt lat="37.817648000" lon="-4.587584000">
        <ele>230.3</ele>
        <time>2020-10-13T10:24:32Z</time>
      </trkpt>
      <trkpt lat="37.817545000" lon="-4.587551000">
        <ele>230.4</ele>
        <time>2020-10-13T10:24:35Z</time>
      </trkpt>
      <trkpt lat="37.817436000" lon="-4.587519000">
        <ele>230.5</ele>
        <time>2020-10-13T10:24:38Z</time>
      </trkpt>
      <trkpt lat="37.817327000" lon="-4.587488000">
        <ele>230.5</ele>
        <time>2020-10-13T10:24:41Z</time>
      </trkpt>
      <trkpt lat="37.817221000" lon="-4.587456000">
        <ele>230.8</ele>
        <time>2020-10-13T10:24:44Z</time>
      </trkpt>
      <trkpt lat="37.817115000" lon="-4.587425000">
        <ele>231.0</ele>
        <time>2020-10-13T10:24:49Z</time>
      </trkpt>
      <trkpt lat="37.817011000" lon="-4.587387000">
        <ele>231.2</ele>
        <time>2020-10-13T10:24:50Z</time>
      </trkpt>
      <trkpt lat="37.816903000" lon="-4.587349000">
        <ele>231.4</ele>
        <time>2020-10-13T10:24:53Z</time>
      </trkpt>
      <trkpt lat="37.816799000" lon="-4.587310000">
        <ele>231.6</ele>
        <time>2020-10-13T10:24:56Z</time>
      </trkpt>
      <trkpt lat="37.816696000" lon="-4.587268000">
        <ele>231.8</ele>
        <time>2020-10-13T10:24:59Z</time>
      </trkpt>
      <trkpt lat="37.816593000" lon="-4.587224000">
        <ele>231.9</ele>
        <time>2020-10-13T10:25:02Z</time>
      </trkpt>
      <trkpt lat="37.816489000" lon="-4.587172000">
        <ele>232.1</ele>
        <time>2020-10-13T10:25:05Z</time>
      </trkpt>
      <trkpt lat="37.816389000" lon="-4.587127000">
        <ele>232.4</ele>
        <time>2020-10-13T10:25:08Z</time>
      </trkpt>
      <trkpt lat="37.816290000" lon="-4.587080000">
        <ele>232.6</ele>
        <time>2020-10-13T10:25:11Z</time>
      </trkpt>
      <trkpt lat="37.816189000" lon="-4.587028000">
        <ele>232.9</ele>
        <time>2020-10-13T10:25:14Z</time>
      </trkpt>
      <trkpt lat="37.816081000" lon="-4.586982000">
        <ele>233.1</ele>
        <time>2020-10-13T10:25:17Z</time>
      </trkpt>
      <trkpt lat="37.815973000" lon="-4.586928000">
        <ele>233.3</ele>
        <time>2020-10-13T10:25:20Z</time>
      </trkpt>
      <trkpt lat="37.815865000" lon="-4.586869000">
        <ele>233.5</ele>
        <time>2020-10-13T10:25:23Z</time>
      </trkpt>
      <trkpt lat="37.815755000" lon="-4.586816000">
        <ele>233.6</ele>
        <time>2020-10-13T10:25:26Z</time>
      </trkpt>
      <trkpt lat="37.815648000" lon="-4.586770000">
        <ele>233.7</ele>
        <time>2020-10-13T10:25:29Z</time>
      </trkpt>
      <trkpt lat="37.815542000" lon="-4.586722000">
        <ele>233.9</ele>
        <time>2020-10-13T10:25:32Z</time>
      </trkpt>
      <trkpt lat="37.815432000" lon="-4.586668000">
        <ele>234.1</ele>
        <time>2020-10-13T10:25:35Z</time>
      </trkpt>
      <trkpt lat="37.815351000" lon="-4.586627000">
        <ele>234.4</ele>
        <time>2020-10-13T10:25:37Z</time>
      </trkpt>
      <trkpt lat="37.815250000" lon="-4.586574000">
        <ele>234.5</ele>
        <time>2020-10-13T10:25:40Z</time>
      </trkpt>
      <trkpt lat="37.815152000" lon="-4.586520000">
        <ele>234.8</ele>
        <time>2020-10-13T10:25:43Z</time>
      </trkpt>
      <trkpt lat="37.815047000" lon="-4.586466000">
        <ele>235.1</ele>
        <time>2020-10-13T10:25:47Z</time>
      </trkpt>
      <trkpt lat="37.814945000" lon="-4.586413000">
        <ele>235.5</ele>
        <time>2020-10-13T10:25:49Z</time>
      </trkpt>
      <trkpt lat="37.814845000" lon="-4.586363000">
        <ele>235.8</ele>
        <time>2020-10-13T10:25:52Z</time>
      </trkpt>
      <trkpt lat="37.814741000" lon="-4.586312000">
        <ele>236.3</ele>
        <time>2020-10-13T10:25:55Z</time>
      </trkpt>
      <trkpt lat="37.814637000" lon="-4.586267000">
        <ele>236.7</ele>
        <time>2020-10-13T10:25:58Z</time>
      </trkpt>
      <trkpt lat="37.814534000" lon="-4.586220000">
        <ele>237.2</ele>
        <time>2020-10-13T10:26:01Z</time>
      </trkpt>
      <trkpt lat="37.814423000" lon="-4.586173000">
        <ele>237.5</ele>
        <time>2020-10-13T10:26:04Z</time>
      </trkpt>
      <trkpt lat="37.814310000" lon="-4.586118000">
        <ele>237.7</ele>
        <time>2020-10-13T10:26:07Z</time>
      </trkpt>
      <trkpt lat="37.814234000" lon="-4.586081000">
        <ele>237.9</ele>
        <time>2020-10-13T10:26:09Z</time>
      </trkpt>
      <trkpt lat="37.814157000" lon="-4.586042000">
        <ele>238.1</ele>
        <time>2020-10-13T10:26:11Z</time>
      </trkpt>
      <trkpt lat="37.814081000" lon="-4.585999000">
        <ele>238.2</ele>
        <time>2020-10-13T10:26:13Z</time>
      </trkpt>
      <trkpt lat="37.814009000" lon="-4.585950000">
        <ele>238.3</ele>
        <time>2020-10-13T10:26:15Z</time>
      </trkpt>
      <trkpt lat="37.813941000" lon="-4.585895000">
        <ele>238.3</ele>
        <time>2020-10-13T10:26:17Z</time>
      </trkpt>
      <trkpt lat="37.813875000" lon="-4.585833000">
        <ele>238.3</ele>
        <time>2020-10-13T10:26:19Z</time>
      </trkpt>
      <trkpt lat="37.813814000" lon="-4.585765000">
        <ele>238.2</ele>
        <time>2020-10-13T10:26:21Z</time>
      </trkpt>
      <trkpt lat="37.813728000" lon="-4.585662000">
        <ele>238.1</ele>
        <time>2020-10-13T10:26:24Z</time>
      </trkpt>
      <trkpt lat="37.813644000" lon="-4.585561000">
        <ele>238.0</ele>
        <time>2020-10-13T10:26:27Z</time>
      </trkpt>
      <trkpt lat="37.813565000" lon="-4.585458000">
        <ele>238.1</ele>
        <time>2020-10-13T10:26:30Z</time>
      </trkpt>
      <trkpt lat="37.813486000" lon="-4.585354000">
        <ele>238.2</ele>
        <time>2020-10-13T10:26:33Z</time>
      </trkpt>
      <trkpt lat="37.813407000" lon="-4.585253000">
        <ele>238.3</ele>
        <time>2020-10-13T10:26:36Z</time>
      </trkpt>
      <trkpt lat="37.813325000" lon="-4.585156000">
        <ele>238.5</ele>
        <time>2020-10-13T10:26:39Z</time>
      </trkpt>
      <trkpt lat="37.813246000" lon="-4.585055000">
        <ele>238.6</ele>
        <time>2020-10-13T10:26:42Z</time>
      </trkpt>
      <trkpt lat="37.813170000" lon="-4.584950000">
        <ele>238.9</ele>
        <time>2020-10-13T10:26:45Z</time>
      </trkpt>
      <trkpt lat="37.813092000" lon="-4.584841000">
        <ele>239.2</ele>
        <time>2020-10-13T10:26:48Z</time>
      </trkpt>
      <trkpt lat="37.813014000" lon="-4.584726000">
        <ele>239.5</ele>
        <time>2020-10-13T10:26:51Z</time>
      </trkpt>
      <trkpt lat="37.812936000" lon="-4.584611000">
        <ele>239.9</ele>
        <time>2020-10-13T10:26:54Z</time>
      </trkpt>
      <trkpt lat="37.812858000" lon="-4.584496000">
        <ele>240.4</ele>
        <time>2020-10-13T10:26:57Z</time>
      </trkpt>
      <trkpt lat="37.812804000" lon="-4.584420000">
        <ele>240.8</ele>
        <time>2020-10-13T10:26:59Z</time>
      </trkpt>
      <trkpt lat="37.812729000" lon="-4.584300000">
        <ele>241.2</ele>
        <time>2020-10-13T10:27:02Z</time>
      </trkpt>
      <trkpt lat="37.812656000" lon="-4.584186000">
        <ele>241.5</ele>
        <time>2020-10-13T10:27:05Z</time>
      </trkpt>
      <trkpt lat="37.812587000" lon="-4.584076000">
        <ele>241.9</ele>
        <time>2020-10-13T10:27:08Z</time>
      </trkpt>
      <trkpt lat="37.812521000" lon="-4.583966000">
        <ele>242.2</ele>
        <time>2020-10-13T10:27:11Z</time>
      </trkpt>
      <trkpt lat="37.812459000" lon="-4.583850000">
        <ele>242.5</ele>
        <time>2020-10-13T10:27:14Z</time>
      </trkpt>
      <trkpt lat="37.812399000" lon="-4.583735000">
        <ele>242.6</ele>
        <time>2020-10-13T10:27:17Z</time>
      </trkpt>
      <trkpt lat="37.812347000" lon="-4.583609000">
        <ele>242.9</ele>
        <time>2020-10-13T10:27:20Z</time>
      </trkpt>
      <trkpt lat="37.812297000" lon="-4.583478000">
        <ele>243.1</ele>
        <time>2020-10-13T10:27:23Z</time>
      </trkpt>
      <trkpt lat="37.812252000" lon="-4.583351000">
        <ele>243.3</ele>
        <time>2020-10-13T10:27:26Z</time>
      </trkpt>
      <trkpt lat="37.812211000" lon="-4.583224000">
        <ele>243.4</ele>
        <time>2020-10-13T10:27:29Z</time>
      </trkpt>
      <trkpt lat="37.812169000" lon="-4.583098000">
        <ele>243.5</ele>
        <time>2020-10-13T10:27:32Z</time>
      </trkpt>
      <trkpt lat="37.812132000" lon="-4.582976000">
        <ele>243.6</ele>
        <time>2020-10-13T10:27:35Z</time>
      </trkpt>
      <trkpt lat="37.812101000" lon="-4.582854000">
        <ele>243.8</ele>
        <time>2020-10-13T10:27:38Z</time>
      </trkpt>
      <trkpt lat="37.812074000" lon="-4.582725000">
        <ele>244.0</ele>
        <time>2020-10-13T10:27:41Z</time>
      </trkpt>
      <trkpt lat="37.812045000" lon="-4.582593000">
        <ele>244.2</ele>
        <time>2020-10-13T10:27:44Z</time>
      </trkpt>
      <trkpt lat="37.812016000" lon="-4.582459000">
        <ele>244.5</ele>
        <time>2020-10-13T10:27:47Z</time>
      </trkpt>
      <trkpt lat="37.811981000" lon="-4.582328000">
        <ele>244.7</ele>
        <time>2020-10-13T10:27:50Z</time>
      </trkpt>
      <trkpt lat="37.811948000" lon="-4.582195000">
        <ele>244.9</ele>
        <time>2020-10-13T10:27:53Z</time>
      </trkpt>
      <trkpt lat="37.811917000" lon="-4.582061000">
        <ele>245.1</ele>
        <time>2020-10-13T10:27:56Z</time>
      </trkpt>
      <trkpt lat="37.811890000" lon="-4.581929000">
        <ele>245.3</ele>
        <time>2020-10-13T10:27:59Z</time>
      </trkpt>
      <trkpt lat="37.811858000" lon="-4.581797000">
        <ele>245.4</ele>
        <time>2020-10-13T10:28:02Z</time>
      </trkpt>
      <trkpt lat="37.811822000" lon="-4.581665000">
        <ele>245.5</ele>
        <time>2020-10-13T10:28:05Z</time>
      </trkpt>
      <trkpt lat="37.811784000" lon="-4.581532000">
        <ele>245.4</ele>
        <time>2020-10-13T10:28:08Z</time>
      </trkpt>
      <trkpt lat="37.811742000" lon="-4.581405000">
        <ele>245.3</ele>
        <time>2020-10-13T10:28:11Z</time>
      </trkpt>
      <trkpt lat="37.811697000" lon="-4.581281000">
        <ele>245.2</ele>
        <time>2020-10-13T10:28:14Z</time>
      </trkpt>
      <trkpt lat="37.811655000" lon="-4.581154000">
        <ele>245.1</ele>
        <time>2020-10-13T10:28:17Z</time>
      </trkpt>
      <trkpt lat="37.811607000" lon="-4.581030000">
        <ele>245.0</ele>
        <time>2020-10-13T10:28:20Z</time>
      </trkpt>
      <trkpt lat="37.811561000" lon="-4.580902000">
        <ele>244.9</ele>
        <time>2020-10-13T10:28:23Z</time>
      </trkpt>
      <trkpt lat="37.811515000" lon="-4.580768000">
        <ele>244.8</ele>
        <time>2020-10-13T10:28:26Z</time>
      </trkpt>
      <trkpt lat="37.811469000" lon="-4.580633000">
        <ele>244.7</ele>
        <time>2020-10-13T10:28:29Z</time>
      </trkpt>
      <trkpt lat="37.811421000" lon="-4.580494000">
        <ele>244.6</ele>
        <time>2020-10-13T10:28:32Z</time>
      </trkpt>
      <trkpt lat="37.811388000" lon="-4.580401000">
        <ele>244.6</ele>
        <time>2020-10-13T10:28:34Z</time>
      </trkpt>
      <trkpt lat="37.811350000" lon="-4.580307000">
        <ele>244.5</ele>
        <time>2020-10-13T10:28:36Z</time>
      </trkpt>
      <trkpt lat="37.811309000" lon="-4.580212000">
        <ele>244.5</ele>
        <time>2020-10-13T10:28:38Z</time>
      </trkpt>
      <trkpt lat="37.811269000" lon="-4.580118000">
        <ele>244.6</ele>
        <time>2020-10-13T10:28:40Z</time>
      </trkpt>
      <trkpt lat="37.811227000" lon="-4.580027000">
        <ele>244.8</ele>
        <time>2020-10-13T10:28:42Z</time>
      </trkpt>
      <trkpt lat="37.811178000" lon="-4.579941000">
        <ele>245.0</ele>
        <time>2020-10-13T10:28:44Z</time>
      </trkpt>
      <trkpt lat="37.811126000" lon="-4.579856000">
        <ele>245.2</ele>
        <time>2020-10-13T10:28:46Z</time>
      </trkpt>
      <trkpt lat="37.811051000" lon="-4.579738000">
        <ele>245.5</ele>
        <time>2020-10-13T10:28:49Z</time>
      </trkpt>
      <trkpt lat="37.810974000" lon="-4.579631000">
        <ele>245.7</ele>
        <time>2020-10-13T10:28:52Z</time>
      </trkpt>
      <trkpt lat="37.810894000" lon="-4.579523000">
        <ele>246.0</ele>
        <time>2020-10-13T10:28:55Z</time>
      </trkpt>
      <trkpt lat="37.810819000" lon="-4.579410000">
        <ele>246.3</ele>
        <time>2020-10-13T10:28:58Z</time>
      </trkpt>
      <trkpt lat="37.810744000" lon="-4.579303000">
        <ele>246.5</ele>
        <time>2020-10-13T10:29:01Z</time>
      </trkpt>
      <trkpt lat="37.810673000" lon="-4.579194000">
        <ele>246.9</ele>
        <time>2020-10-13T10:29:04Z</time>
      </trkpt>
      <trkpt lat="37.810599000" lon="-4.579088000">
        <ele>247.3</ele>
        <time>2020-10-13T10:29:07Z</time>
      </trkpt>
      <trkpt lat="37.810526000" lon="-4.578974000">
        <ele>247.5</ele>
        <time>2020-10-13T10:29:10Z</time>
      </trkpt>
      <trkpt lat="37.810449000" lon="-4.578861000">
        <ele>247.8</ele>
        <time>2020-10-13T10:29:13Z</time>
      </trkpt>
      <trkpt lat="37.810375000" lon="-4.578748000">
        <ele>248.1</ele>
        <time>2020-10-13T10:29:16Z</time>
      </trkpt>
      <trkpt lat="37.810305000" lon="-4.578646000">
        <ele>248.3</ele>
        <time>2020-10-13T10:29:19Z</time>
      </trkpt>
      <trkpt lat="37.810237000" lon="-4.578548000">
        <ele>248.4</ele>
        <time>2020-10-13T10:29:22Z</time>
      </trkpt>
      <trkpt lat="37.810170000" lon="-4.578454000">
        <ele>248.5</ele>
        <time>2020-10-13T10:29:25Z</time>
      </trkpt>
      <trkpt lat="37.810106000" lon="-4.578362000">
        <ele>248.6</ele>
        <time>2020-10-13T10:29:28Z</time>
      </trkpt>
      <trkpt lat="37.810050000" lon="-4.578269000">
        <ele>248.8</ele>
        <time>2020-10-13T10:29:31Z</time>
      </trkpt>
      <trkpt lat="37.809994000" lon="-4.578182000">
        <ele>249.0</ele>
        <time>2020-10-13T10:29:34Z</time>
      </trkpt>
      <trkpt lat="37.809937000" lon="-4.578109000">
        <ele>249.3</ele>
        <time>2020-10-13T10:29:37Z</time>
      </trkpt>
      <trkpt lat="37.809876000" lon="-4.578018000">
        <ele>249.6</ele>
        <time>2020-10-13T10:29:40Z</time>
      </trkpt>
      <trkpt lat="37.809819000" lon="-4.577932000">
        <ele>250.0</ele>
        <time>2020-10-13T10:29:43Z</time>
      </trkpt>
      <trkpt lat="37.809764000" lon="-4.577847000">
        <ele>250.4</ele>
        <time>2020-10-13T10:29:46Z</time>
      </trkpt>
      <trkpt lat="37.809709000" lon="-4.577768000">
        <ele>250.7</ele>
        <time>2020-10-13T10:29:49Z</time>
      </trkpt>
      <trkpt lat="37.809655000" lon="-4.577683000">
        <ele>251.1</ele>
        <time>2020-10-13T10:29:52Z</time>
      </trkpt>
      <trkpt lat="37.809596000" lon="-4.577600000">
        <ele>251.5</ele>
        <time>2020-10-13T10:29:55Z</time>
      </trkpt>
      <trkpt lat="37.809534000" lon="-4.577518000">
        <ele>252.0</ele>
        <time>2020-10-13T10:29:58Z</time>
      </trkpt>
      <trkpt lat="37.809468000" lon="-4.577434000">
        <ele>252.5</ele>
        <time>2020-10-13T10:30:01Z</time>
      </trkpt>
      <trkpt lat="37.809404000" lon="-4.577358000">
        <ele>253.0</ele>
        <time>2020-10-13T10:30:04Z</time>
      </trkpt>
      <trkpt lat="37.809336000" lon="-4.577283000">
        <ele>253.5</ele>
        <time>2020-10-13T10:30:07Z</time>
      </trkpt>
      <trkpt lat="37.809276000" lon="-4.577204000">
        <ele>254.1</ele>
        <time>2020-10-13T10:30:10Z</time>
      </trkpt>
      <trkpt lat="37.809216000" lon="-4.577133000">
        <ele>254.5</ele>
        <time>2020-10-13T10:30:13Z</time>
      </trkpt>
      <trkpt lat="37.809143000" lon="-4.577052000">
        <ele>255.0</ele>
        <time>2020-10-13T10:30:17Z</time>
      </trkpt>
      <trkpt lat="37.809053000" lon="-4.576968000">
        <ele>255.4</ele>
        <time>2020-10-13T10:30:21Z</time>
      </trkpt>
      <trkpt lat="37.808975000" lon="-4.576909000">
        <ele>255.8</ele>
        <time>2020-10-13T10:30:24Z</time>
      </trkpt>
      <trkpt lat="37.808889000" lon="-4.576845000">
        <ele>256.3</ele>
        <time>2020-10-13T10:30:28Z</time>
      </trkpt>
      <trkpt lat="37.808805000" lon="-4.576782000">
        <ele>256.7</ele>
        <time>2020-10-13T10:30:32Z</time>
      </trkpt>
      <trkpt lat="37.808717000" lon="-4.576725000">
        <ele>257.3</ele>
        <time>2020-10-13T10:30:36Z</time>
      </trkpt>
      <trkpt lat="37.808630000" lon="-4.576672000">
        <ele>257.8</ele>
        <time>2020-10-13T10:30:40Z</time>
      </trkpt>
      <trkpt lat="37.808538000" lon="-4.576609000">
        <ele>258.5</ele>
        <time>2020-10-13T10:30:44Z</time>
      </trkpt>
      <trkpt lat="37.808442000" lon="-4.576553000">
        <ele>259.2</ele>
        <time>2020-10-13T10:30:48Z</time>
      </trkpt>
      <trkpt lat="37.808347000" lon="-4.576498000">
        <ele>259.8</ele>
        <time>2020-10-13T10:30:52Z</time>
      </trkpt>
      <trkpt lat="37.808250000" lon="-4.576442000">
        <ele>260.5</ele>
        <time>2020-10-13T10:30:56Z</time>
      </trkpt>
      <trkpt lat="37.808178000" lon="-4.576393000">
        <ele>261.3</ele>
        <time>2020-10-13T10:30:59Z</time>
      </trkpt>
      <trkpt lat="37.808090000" lon="-4.576324000">
        <ele>262.0</ele>
        <time>2020-10-13T10:31:03Z</time>
      </trkpt>
      <trkpt lat="37.808015000" lon="-4.576280000">
        <ele>262.7</ele>
        <time>2020-10-13T10:31:06Z</time>
      </trkpt>
      <trkpt lat="37.807922000" lon="-4.576228000">
        <ele>263.5</ele>
        <time>2020-10-13T10:31:10Z</time>
      </trkpt>
      <trkpt lat="37.807833000" lon="-4.576183000">
        <ele>264.1</ele>
        <time>2020-10-13T10:31:14Z</time>
      </trkpt>
      <trkpt lat="37.807754000" lon="-4.576151000">
        <ele>264.6</ele>
        <time>2020-10-13T10:31:20Z</time>
      </trkpt>
      <trkpt lat="37.807666000" lon="-4.576129000">
        <ele>265.1</ele>
        <time>2020-10-13T10:34:18Z</time>
      </trkpt>
      <trkpt lat="37.807593000" lon="-4.576069000">
        <ele>265.4</ele>
        <time>2020-10-13T10:34:23Z</time>
      </trkpt>
      <trkpt lat="37.807511000" lon="-4.576019000">
        <ele>265.5</ele>
        <time>2020-10-13T10:34:27Z</time>
      </trkpt>
      <trkpt lat="37.807413000" lon="-4.575968000">
        <ele>265.5</ele>
        <time>2020-10-13T10:34:31Z</time>
      </trkpt>
      <trkpt lat="37.807327000" lon="-4.575928000">
        <ele>265.5</ele>
        <time>2020-10-13T10:34:34Z</time>
      </trkpt>
      <trkpt lat="37.807243000" lon="-4.575881000">
        <ele>265.3</ele>
        <time>2020-10-13T10:34:37Z</time>
      </trkpt>
      <trkpt lat="37.807156000" lon="-4.575852000">
        <ele>264.9</ele>
        <time>2020-10-13T10:34:40Z</time>
      </trkpt>
      <trkpt lat="37.807055000" lon="-4.575804000">
        <ele>264.4</ele>
        <time>2020-10-13T10:34:43Z</time>
      </trkpt>
      <trkpt lat="37.806975000" lon="-4.575774000">
        <ele>263.6</ele>
        <time>2020-10-13T10:34:45Z</time>
      </trkpt>
      <trkpt lat="37.806880000" lon="-4.575752000">
        <ele>262.9</ele>
        <time>2020-10-13T10:34:47Z</time>
      </trkpt>
      <trkpt lat="37.806774000" lon="-4.575712000">
        <ele>262.2</ele>
        <time>2020-10-13T10:34:49Z</time>
      </trkpt>
      <trkpt lat="37.806655000" lon="-4.575671000">
        <ele>261.5</ele>
        <time>2020-10-13T10:34:51Z</time>
      </trkpt>
      <trkpt lat="37.806520000" lon="-4.575622000">
        <ele>260.6</ele>
        <time>2020-10-13T10:34:53Z</time>
      </trkpt>
      <trkpt lat="37.806368000" lon="-4.575571000">
        <ele>259.9</ele>
        <time>2020-10-13T10:34:55Z</time>
      </trkpt>
      <trkpt lat="37.806287000" lon="-4.575547000">
        <ele>259.1</ele>
        <time>2020-10-13T10:34:56Z</time>
      </trkpt>
      <trkpt lat="37.806203000" lon="-4.575518000">
        <ele>258.4</ele>
        <time>2020-10-13T10:34:57Z</time>
      </trkpt>
      <trkpt lat="37.806120000" lon="-4.575485000">
        <ele>257.7</ele>
        <time>2020-10-13T10:34:58Z</time>
      </trkpt>
      <trkpt lat="37.806038000" lon="-4.575460000">
        <ele>257.2</ele>
        <time>2020-10-13T10:34:59Z</time>
      </trkpt>
      <trkpt lat="37.805955000" lon="-4.575430000">
        <ele>256.7</ele>
        <time>2020-10-13T10:35:00Z</time>
      </trkpt>
      <trkpt lat="37.805872000" lon="-4.575398000">
        <ele>256.5</ele>
        <time>2020-10-13T10:35:01Z</time>
      </trkpt>
      <trkpt lat="37.805787000" lon="-4.575366000">
        <ele>256.1</ele>
        <time>2020-10-13T10:35:02Z</time>
      </trkpt>
      <trkpt lat="37.805701000" lon="-4.575334000">
        <ele>255.7</ele>
        <time>2020-10-13T10:35:03Z</time>
      </trkpt>
      <trkpt lat="37.805614000" lon="-4.575304000">
        <ele>255.4</ele>
        <time>2020-10-13T10:35:04Z</time>
      </trkpt>
      <trkpt lat="37.805529000" lon="-4.575278000">
        <ele>255.1</ele>
        <time>2020-10-13T10:35:05Z</time>
      </trkpt>
      <trkpt lat="37.805446000" lon="-4.575251000">
        <ele>254.7</ele>
        <time>2020-10-13T10:35:06Z</time>
      </trkpt>
      <trkpt lat="37.805365000" lon="-4.575224000">
        <ele>254.5</ele>
        <time>2020-10-13T10:35:07Z</time>
      </trkpt>
      <trkpt lat="37.805279000" lon="-4.575200000">
        <ele>254.2</ele>
        <time>2020-10-13T10:35:08Z</time>
      </trkpt>
      <trkpt lat="37.805197000" lon="-4.575175000">
        <ele>253.9</ele>
        <time>2020-10-13T10:35:09Z</time>
      </trkpt>
      <trkpt lat="37.805040000" lon="-4.575124000">
        <ele>253.7</ele>
        <time>2020-10-13T10:35:11Z</time>
      </trkpt>
      <trkpt lat="37.804881000" lon="-4.575076000">
        <ele>253.5</ele>
        <time>2020-10-13T10:35:13Z</time>
      </trkpt>
      <trkpt lat="37.804731000" lon="-4.575029000">
        <ele>253.3</ele>
        <time>2020-10-13T10:35:15Z</time>
      </trkpt>
      <trkpt lat="37.804584000" lon="-4.574975000">
        <ele>253.0</ele>
        <time>2020-10-13T10:35:17Z</time>
      </trkpt>
      <trkpt lat="37.804440000" lon="-4.574909000">
        <ele>252.7</ele>
        <time>2020-10-13T10:35:19Z</time>
      </trkpt>
      <trkpt lat="37.804300000" lon="-4.574842000">
        <ele>252.4</ele>
        <time>2020-10-13T10:35:21Z</time>
      </trkpt>
      <trkpt lat="37.804153000" lon="-4.574775000">
        <ele>252.0</ele>
        <time>2020-10-13T10:35:23Z</time>
      </trkpt>
      <trkpt lat="37.804076000" lon="-4.574737000">
        <ele>251.6</ele>
        <time>2020-10-13T10:35:24Z</time>
      </trkpt>
      <trkpt lat="37.803923000" lon="-4.574662000">
        <ele>251.3</ele>
        <time>2020-10-13T10:35:26Z</time>
      </trkpt>
      <trkpt lat="37.803845000" lon="-4.574620000">
        <ele>250.8</ele>
        <time>2020-10-13T10:35:27Z</time>
      </trkpt>
      <trkpt lat="37.803765000" lon="-4.574578000">
        <ele>250.4</ele>
        <time>2020-10-13T10:35:28Z</time>
      </trkpt>
      <trkpt lat="37.803685000" lon="-4.574537000">
        <ele>249.9</ele>
        <time>2020-10-13T10:35:29Z</time>
      </trkpt>
      <trkpt lat="37.803606000" lon="-4.574495000">
        <ele>249.5</ele>
        <time>2020-10-13T10:35:30Z</time>
      </trkpt>
      <trkpt lat="37.803529000" lon="-4.574453000">
        <ele>249.0</ele>
        <time>2020-10-13T10:35:31Z</time>
      </trkpt>
      <trkpt lat="37.803451000" lon="-4.574414000">
        <ele>248.6</ele>
        <time>2020-10-13T10:35:32Z</time>
      </trkpt>
      <trkpt lat="37.803374000" lon="-4.574375000">
        <ele>248.3</ele>
        <time>2020-10-13T10:35:33Z</time>
      </trkpt>
      <trkpt lat="37.803295000" lon="-4.574336000">
        <ele>248.0</ele>
        <time>2020-10-13T10:35:34Z</time>
      </trkpt>
      <trkpt lat="37.803218000" lon="-4.574294000">
        <ele>247.7</ele>
        <time>2020-10-13T10:35:35Z</time>
      </trkpt>
      <trkpt lat="37.803140000" lon="-4.574255000">
        <ele>247.5</ele>
        <time>2020-10-13T10:35:36Z</time>
      </trkpt>
      <trkpt lat="37.803063000" lon="-4.574214000">
        <ele>247.2</ele>
        <time>2020-10-13T10:35:37Z</time>
      </trkpt>
      <trkpt lat="37.802916000" lon="-4.574135000">
        <ele>247.1</ele>
        <time>2020-10-13T10:35:39Z</time>
      </trkpt>
      <trkpt lat="37.802840000" lon="-4.574097000">
        <ele>247.0</ele>
        <time>2020-10-13T10:35:40Z</time>
      </trkpt>
      <trkpt lat="37.802699000" lon="-4.574027000">
        <ele>246.8</ele>
        <time>2020-10-13T10:35:42Z</time>
      </trkpt>
      <trkpt lat="37.802559000" lon="-4.573963000">
        <ele>246.6</ele>
        <time>2020-10-13T10:35:44Z</time>
      </trkpt>
      <trkpt lat="37.802418000" lon="-4.573895000">
        <ele>246.5</ele>
        <time>2020-10-13T10:35:46Z</time>
      </trkpt>
      <trkpt lat="37.802276000" lon="-4.573828000">
        <ele>246.3</ele>
        <time>2020-10-13T10:35:48Z</time>
      </trkpt>
      <trkpt lat="37.802136000" lon="-4.573763000">
        <ele>246.0</ele>
        <time>2020-10-13T10:35:50Z</time>
      </trkpt>
      <trkpt lat="37.801995000" lon="-4.573697000">
        <ele>245.7</ele>
        <time>2020-10-13T10:35:52Z</time>
      </trkpt>
      <trkpt lat="37.801855000" lon="-4.573635000">
        <ele>245.4</ele>
        <time>2020-10-13T10:35:54Z</time>
      </trkpt>
      <trkpt lat="37.801715000" lon="-4.573571000">
        <ele>245.1</ele>
        <time>2020-10-13T10:35:56Z</time>
      </trkpt>
      <trkpt lat="37.801581000" lon="-4.573509000">
        <ele>244.8</ele>
        <time>2020-10-13T10:35:58Z</time>
      </trkpt>
      <trkpt lat="37.801446000" lon="-4.573451000">
        <ele>244.5</ele>
        <time>2020-10-13T10:36:00Z</time>
      </trkpt>
      <trkpt lat="37.801316000" lon="-4.573389000">
        <ele>244.0</ele>
        <time>2020-10-13T10:36:02Z</time>
      </trkpt>
      <trkpt lat="37.801187000" lon="-4.573332000">
        <ele>243.6</ele>
        <time>2020-10-13T10:36:04Z</time>
      </trkpt>
      <trkpt lat="37.801055000" lon="-4.573271000">
        <ele>243.3</ele>
        <time>2020-10-13T10:36:06Z</time>
      </trkpt>
      <trkpt lat="37.800923000" lon="-4.573196000">
        <ele>243.0</ele>
        <time>2020-10-13T10:36:08Z</time>
      </trkpt>
      <trkpt lat="37.800793000" lon="-4.573115000">
        <ele>242.6</ele>
        <time>2020-10-13T10:36:10Z</time>
      </trkpt>
      <trkpt lat="37.800666000" lon="-4.573018000">
        <ele>242.4</ele>
        <time>2020-10-13T10:36:12Z</time>
      </trkpt>
      <trkpt lat="37.800555000" lon="-4.572914000">
        <ele>242.1</ele>
        <time>2020-10-13T10:36:14Z</time>
      </trkpt>
      <trkpt lat="37.800433000" lon="-4.572803000">
        <ele>241.9</ele>
        <time>2020-10-13T10:36:16Z</time>
      </trkpt>
      <trkpt lat="37.800317000" lon="-4.572693000">
        <ele>241.6</ele>
        <time>2020-10-13T10:36:18Z</time>
      </trkpt>
      <trkpt lat="37.800202000" lon="-4.572584000">
        <ele>241.4</ele>
        <time>2020-10-13T10:36:20Z</time>
      </trkpt>
      <trkpt lat="37.800087000" lon="-4.572472000">
        <ele>241.1</ele>
        <time>2020-10-13T10:36:22Z</time>
      </trkpt>
      <trkpt lat="37.799978000" lon="-4.572352000">
        <ele>240.8</ele>
        <time>2020-10-13T10:36:24Z</time>
      </trkpt>
      <trkpt lat="37.799864000" lon="-4.572243000">
        <ele>240.5</ele>
        <time>2020-10-13T10:36:26Z</time>
      </trkpt>
      <trkpt lat="37.799751000" lon="-4.572129000">
        <ele>240.2</ele>
        <time>2020-10-13T10:36:28Z</time>
      </trkpt>
      <trkpt lat="37.799634000" lon="-4.572021000">
        <ele>239.8</ele>
        <time>2020-10-13T10:36:30Z</time>
      </trkpt>
      <trkpt lat="37.799522000" lon="-4.571922000">
        <ele>239.5</ele>
        <time>2020-10-13T10:36:32Z</time>
      </trkpt>
      <trkpt lat="37.799413000" lon="-4.571817000">
        <ele>239.2</ele>
        <time>2020-10-13T10:36:34Z</time>
      </trkpt>
      <trkpt lat="37.799303000" lon="-4.571716000">
        <ele>238.8</ele>
        <time>2020-10-13T10:36:36Z</time>
      </trkpt>
      <trkpt lat="37.799199000" lon="-4.571615000">
        <ele>238.5</ele>
        <time>2020-10-13T10:36:38Z</time>
      </trkpt>
      <trkpt lat="37.799092000" lon="-4.571514000">
        <ele>238.1</ele>
        <time>2020-10-13T10:36:40Z</time>
      </trkpt>
      <trkpt lat="37.798986000" lon="-4.571418000">
        <ele>237.7</ele>
        <time>2020-10-13T10:36:42Z</time>
      </trkpt>
      <trkpt lat="37.798887000" lon="-4.571317000">
        <ele>237.4</ele>
        <time>2020-10-13T10:36:44Z</time>
      </trkpt>
      <trkpt lat="37.798784000" lon="-4.571220000">
        <ele>237.1</ele>
        <time>2020-10-13T10:36:46Z</time>
      </trkpt>
      <trkpt lat="37.798682000" lon="-4.571115000">
        <ele>236.9</ele>
        <time>2020-10-13T10:36:48Z</time>
      </trkpt>
      <trkpt lat="37.798574000" lon="-4.571010000">
        <ele>236.8</ele>
        <time>2020-10-13T10:36:50Z</time>
      </trkpt>
      <trkpt lat="37.798471000" lon="-4.570906000">
        <ele>236.7</ele>
        <time>2020-10-13T10:36:52Z</time>
      </trkpt>
      <trkpt lat="37.798369000" lon="-4.570807000">
        <ele>236.5</ele>
        <time>2020-10-13T10:36:54Z</time>
      </trkpt>
      <trkpt lat="37.798269000" lon="-4.570709000">
        <ele>236.5</ele>
        <time>2020-10-13T10:36:56Z</time>
      </trkpt>
      <trkpt lat="37.798168000" lon="-4.570609000">
        <ele>236.4</ele>
        <time>2020-10-13T10:36:58Z</time>
      </trkpt>
      <trkpt lat="37.798072000" lon="-4.570516000">
        <ele>236.3</ele>
        <time>2020-10-13T10:37:00Z</time>
      </trkpt>
      <trkpt lat="37.797972000" lon="-4.570422000">
        <ele>236.3</ele>
        <time>2020-10-13T10:37:02Z</time>
      </trkpt>
      <trkpt lat="37.797875000" lon="-4.570334000">
        <ele>236.3</ele>
        <time>2020-10-13T10:37:04Z</time>
      </trkpt>
      <trkpt lat="37.797787000" lon="-4.570240000">
        <ele>236.4</ele>
        <time>2020-10-13T10:37:06Z</time>
      </trkpt>
      <trkpt lat="37.797694000" lon="-4.570145000">
        <ele>236.5</ele>
        <time>2020-10-13T10:37:08Z</time>
      </trkpt>
      <trkpt lat="37.797604000" lon="-4.570055000">
        <ele>236.6</ele>
        <time>2020-10-13T10:37:10Z</time>
      </trkpt>
      <trkpt lat="37.797510000" lon="-4.569959000">
        <ele>236.7</ele>
        <time>2020-10-13T10:37:12Z</time>
      </trkpt>
      <trkpt lat="37.797420000" lon="-4.569859000">
        <ele>236.8</ele>
        <time>2020-10-13T10:37:14Z</time>
      </trkpt>
      <trkpt lat="37.797329000" lon="-4.569779000">
        <ele>237.0</ele>
        <time>2020-10-13T10:37:16Z</time>
      </trkpt>
      <trkpt lat="37.797235000" lon="-4.569690000">
        <ele>237.2</ele>
        <time>2020-10-13T10:37:18Z</time>
      </trkpt>
      <trkpt lat="37.797142000" lon="-4.569604000">
        <ele>237.4</ele>
        <time>2020-10-13T10:37:20Z</time>
      </trkpt>
      <trkpt lat="37.797052000" lon="-4.569522000">
        <ele>237.5</ele>
        <time>2020-10-13T10:37:22Z</time>
      </trkpt>
      <trkpt lat="37.796956000" lon="-4.569441000">
        <ele>237.5</ele>
        <time>2020-10-13T10:37:24Z</time>
      </trkpt>
      <trkpt lat="37.796851000" lon="-4.569382000">
        <ele>237.5</ele>
        <time>2020-10-13T10:37:26Z</time>
      </trkpt>
      <trkpt lat="37.796740000" lon="-4.569329000">
        <ele>237.4</ele>
        <time>2020-10-13T10:37:28Z</time>
      </trkpt>
      <trkpt lat="37.796625000" lon="-4.569289000">
        <ele>237.1</ele>
        <time>2020-10-13T10:37:30Z</time>
      </trkpt>
      <trkpt lat="37.796509000" lon="-4.569259000">
        <ele>236.8</ele>
        <time>2020-10-13T10:37:32Z</time>
      </trkpt>
      <trkpt lat="37.796392000" lon="-4.569246000">
        <ele>236.5</ele>
        <time>2020-10-13T10:37:34Z</time>
      </trkpt>
      <trkpt lat="37.796268000" lon="-4.569248000">
        <ele>236.3</ele>
        <time>2020-10-13T10:37:36Z</time>
      </trkpt>
      <trkpt lat="37.796145000" lon="-4.569263000">
        <ele>235.9</ele>
        <time>2020-10-13T10:37:38Z</time>
      </trkpt>
      <trkpt lat="37.796016000" lon="-4.569291000">
        <ele>235.5</ele>
        <time>2020-10-13T10:37:40Z</time>
      </trkpt>
      <trkpt lat="37.795884000" lon="-4.569316000">
        <ele>235.0</ele>
        <time>2020-10-13T10:37:42Z</time>
      </trkpt>
      <trkpt lat="37.795742000" lon="-4.569340000">
        <ele>234.6</ele>
        <time>2020-10-13T10:37:44Z</time>
      </trkpt>
      <trkpt lat="37.795601000" lon="-4.569370000">
        <ele>234.4</ele>
        <time>2020-10-13T10:37:46Z</time>
      </trkpt>
      <trkpt lat="37.795456000" lon="-4.569401000">
        <ele>234.2</ele>
        <time>2020-10-13T10:37:48Z</time>
      </trkpt>
      <trkpt lat="37.795309000" lon="-4.569425000">
        <ele>234.0</ele>
        <time>2020-10-13T10:37:50Z</time>
      </trkpt>
      <trkpt lat="37.795159000" lon="-4.569436000">
        <ele>233.9</ele>
        <time>2020-10-13T10:37:52Z</time>
      </trkpt>
      <trkpt lat="37.795010000" lon="-4.569439000">
        <ele>233.8</ele>
        <time>2020-10-13T10:37:54Z</time>
      </trkpt>
      <trkpt lat="37.794872000" lon="-4.569435000">
        <ele>233.7</ele>
        <time>2020-10-13T10:37:56Z</time>
      </trkpt>
      <trkpt lat="37.794747000" lon="-4.569432000">
        <ele>233.6</ele>
        <time>2020-10-13T10:37:58Z</time>
      </trkpt>
      <trkpt lat="37.794633000" lon="-4.569430000">
        <ele>233.6</ele>
        <time>2020-10-13T10:38:00Z</time>
      </trkpt>
      <trkpt lat="37.794538000" lon="-4.569427000">
        <ele>233.7</ele>
        <time>2020-10-13T10:38:02Z</time>
      </trkpt>
      <trkpt lat="37.794448000" lon="-4.569433000">
        <ele>233.8</ele>
        <time>2020-10-13T10:38:04Z</time>
      </trkpt>
      <trkpt lat="37.794363000" lon="-4.569441000">
        <ele>233.8</ele>
        <time>2020-10-13T10:38:06Z</time>
      </trkpt>
      <trkpt lat="37.794247000" lon="-4.569457000">
        <ele>233.8</ele>
        <time>2020-10-13T10:38:09Z</time>
      </trkpt>
      <trkpt lat="37.794132000" lon="-4.569484000">
        <ele>233.7</ele>
        <time>2020-10-13T10:38:12Z</time>
      </trkpt>
      <trkpt lat="37.794049000" lon="-4.569503000">
        <ele>233.5</ele>
        <time>2020-10-13T10:38:14Z</time>
      </trkpt>
      <trkpt lat="37.793968000" lon="-4.569525000">
        <ele>233.4</ele>
        <time>2020-10-13T10:38:16Z</time>
      </trkpt>
      <trkpt lat="37.793883000" lon="-4.569550000">
        <ele>233.1</ele>
        <time>2020-10-13T10:38:18Z</time>
      </trkpt>
      <trkpt lat="37.793791000" lon="-4.569573000">
        <ele>232.8</ele>
        <time>2020-10-13T10:38:20Z</time>
      </trkpt>
      <trkpt lat="37.793686000" lon="-4.569597000">
        <ele>232.5</ele>
        <time>2020-10-13T10:38:22Z</time>
      </trkpt>
      <trkpt lat="37.793567000" lon="-4.569609000">
        <ele>232.3</ele>
        <time>2020-10-13T10:38:24Z</time>
      </trkpt>
      <trkpt lat="37.793436000" lon="-4.569601000">
        <ele>232.0</ele>
        <time>2020-10-13T10:38:26Z</time>
      </trkpt>
      <trkpt lat="37.793297000" lon="-4.569565000">
        <ele>231.8</ele>
        <time>2020-10-13T10:38:28Z</time>
      </trkpt>
      <trkpt lat="37.793152000" lon="-4.569500000">
        <ele>231.7</ele>
        <time>2020-10-13T10:38:30Z</time>
      </trkpt>
      <trkpt lat="37.793012000" lon="-4.569411000">
        <ele>231.6</ele>
        <time>2020-10-13T10:38:32Z</time>
      </trkpt>
      <trkpt lat="37.792876000" lon="-4.569322000">
        <ele>231.5</ele>
        <time>2020-10-13T10:38:34Z</time>
      </trkpt>
      <trkpt lat="37.792748000" lon="-4.569239000">
        <ele>231.5</ele>
        <time>2020-10-13T10:38:36Z</time>
      </trkpt>
      <trkpt lat="37.792619000" lon="-4.569158000">
        <ele>231.5</ele>
        <time>2020-10-13T10:38:38Z</time>
      </trkpt>
      <trkpt lat="37.792503000" lon="-4.569079000">
        <ele>231.6</ele>
        <time>2020-10-13T10:38:40Z</time>
      </trkpt>
      <trkpt lat="37.792391000" lon="-4.569006000">
        <ele>231.6</ele>
        <time>2020-10-13T10:38:42Z</time>
      </trkpt>
      <trkpt lat="37.792286000" lon="-4.568929000">
        <ele>231.6</ele>
        <time>2020-10-13T10:38:44Z</time>
      </trkpt>
      <trkpt lat="37.792184000" lon="-4.568857000">
        <ele>231.5</ele>
        <time>2020-10-13T10:38:46Z</time>
      </trkpt>
      <trkpt lat="37.792081000" lon="-4.568787000">
        <ele>231.5</ele>
        <time>2020-10-13T10:38:48Z</time>
      </trkpt>
      <trkpt lat="37.791980000" lon="-4.568720000">
        <ele>231.3</ele>
        <time>2020-10-13T10:38:50Z</time>
      </trkpt>
      <trkpt lat="37.791895000" lon="-4.568660000">
        <ele>231.1</ele>
        <time>2020-10-13T10:38:52Z</time>
      </trkpt>
      <trkpt lat="37.791812000" lon="-4.568598000">
        <ele>230.9</ele>
        <time>2020-10-13T10:38:54Z</time>
      </trkpt>
      <trkpt lat="37.791728000" lon="-4.568543000">
        <ele>230.8</ele>
        <time>2020-10-13T10:38:56Z</time>
      </trkpt>
      <trkpt lat="37.791648000" lon="-4.568500000">
        <ele>230.7</ele>
        <time>2020-10-13T10:38:58Z</time>
      </trkpt>
      <trkpt lat="37.791559000" lon="-4.568457000">
        <ele>230.6</ele>
        <time>2020-10-13T10:39:00Z</time>
      </trkpt>
      <trkpt lat="37.791468000" lon="-4.568420000">
        <ele>230.5</ele>
        <time>2020-10-13T10:39:02Z</time>
      </trkpt>
      <trkpt lat="37.791376000" lon="-4.568380000">
        <ele>230.5</ele>
        <time>2020-10-13T10:39:04Z</time>
      </trkpt>
      <trkpt lat="37.791270000" lon="-4.568350000">
        <ele>230.3</ele>
        <time>2020-10-13T10:39:06Z</time>
      </trkpt>
      <trkpt lat="37.791156000" lon="-4.568323000">
        <ele>230.2</ele>
        <time>2020-10-13T10:39:08Z</time>
      </trkpt>
      <trkpt lat="37.791033000" lon="-4.568303000">
        <ele>230.0</ele>
        <time>2020-10-13T10:39:10Z</time>
      </trkpt>
      <trkpt lat="37.790903000" lon="-4.568286000">
        <ele>229.8</ele>
        <time>2020-10-13T10:39:12Z</time>
      </trkpt>
      <trkpt lat="37.790771000" lon="-4.568270000">
        <ele>229.6</ele>
        <time>2020-10-13T10:39:14Z</time>
      </trkpt>
      <trkpt lat="37.790637000" lon="-4.568264000">
        <ele>229.5</ele>
        <time>2020-10-13T10:39:16Z</time>
      </trkpt>
      <trkpt lat="37.790498000" lon="-4.568259000">
        <ele>229.1</ele>
        <time>2020-10-13T10:39:18Z</time>
      </trkpt>
      <trkpt lat="37.790357000" lon="-4.568256000">
        <ele>228.7</ele>
        <time>2020-10-13T10:39:20Z</time>
      </trkpt>
      <trkpt lat="37.790215000" lon="-4.568252000">
        <ele>228.4</ele>
        <time>2020-10-13T10:39:22Z</time>
      </trkpt>
      <trkpt lat="37.790077000" lon="-4.568247000">
        <ele>228.0</ele>
        <time>2020-10-13T10:39:24Z</time>
      </trkpt>
      <trkpt lat="37.789940000" lon="-4.568245000">
        <ele>227.7</ele>
        <time>2020-10-13T10:39:26Z</time>
      </trkpt>
      <trkpt lat="37.789811000" lon="-4.568237000">
        <ele>227.5</ele>
        <time>2020-10-13T10:39:28Z</time>
      </trkpt>
      <trkpt lat="37.789687000" lon="-4.568228000">
        <ele>227.3</ele>
        <time>2020-10-13T10:39:30Z</time>
      </trkpt>
      <trkpt lat="37.789576000" lon="-4.568218000">
        <ele>227.1</ele>
        <time>2020-10-13T10:39:32Z</time>
      </trkpt>
      <trkpt lat="37.789467000" lon="-4.568215000">
        <ele>226.9</ele>
        <time>2020-10-13T10:39:34Z</time>
      </trkpt>
      <trkpt lat="37.789362000" lon="-4.568207000">
        <ele>226.6</ele>
        <time>2020-10-13T10:39:36Z</time>
      </trkpt>
      <trkpt lat="37.789254000" lon="-4.568203000">
        <ele>226.4</ele>
        <time>2020-10-13T10:39:38Z</time>
      </trkpt>
      <trkpt lat="37.789140000" lon="-4.568196000">
        <ele>226.1</ele>
        <time>2020-10-13T10:39:40Z</time>
      </trkpt>
      <trkpt lat="37.789023000" lon="-4.568192000">
        <ele>225.8</ele>
        <time>2020-10-13T10:39:42Z</time>
      </trkpt>
      <trkpt lat="37.788908000" lon="-4.568192000">
        <ele>225.5</ele>
        <time>2020-10-13T10:39:44Z</time>
      </trkpt>
      <trkpt lat="37.788787000" lon="-4.568183000">
        <ele>225.4</ele>
        <time>2020-10-13T10:39:46Z</time>
      </trkpt>
      <trkpt lat="37.788669000" lon="-4.568183000">
        <ele>225.2</ele>
        <time>2020-10-13T10:39:48Z</time>
      </trkpt>
      <trkpt lat="37.788549000" lon="-4.568181000">
        <ele>225.0</ele>
        <time>2020-10-13T10:39:50Z</time>
      </trkpt>
      <trkpt lat="37.788431000" lon="-4.568168000">
        <ele>225.0</ele>
        <time>2020-10-13T10:39:52Z</time>
      </trkpt>
      <trkpt lat="37.788309000" lon="-4.568150000">
        <ele>225.0</ele>
        <time>2020-10-13T10:39:54Z</time>
      </trkpt>
      <trkpt lat="37.788191000" lon="-4.568118000">
        <ele>225.0</ele>
        <time>2020-10-13T10:39:56Z</time>
      </trkpt>
      <trkpt lat="37.788071000" lon="-4.568064000">
        <ele>225.1</ele>
        <time>2020-10-13T10:39:58Z</time>
      </trkpt>
      <trkpt lat="37.787960000" lon="-4.568005000">
        <ele>225.2</ele>
        <time>2020-10-13T10:40:00Z</time>
      </trkpt>
      <trkpt lat="37.787856000" lon="-4.567943000">
        <ele>225.3</ele>
        <time>2020-10-13T10:40:02Z</time>
      </trkpt>
      <trkpt lat="37.787751000" lon="-4.567877000">
        <ele>225.4</ele>
        <time>2020-10-13T10:40:04Z</time>
      </trkpt>
      <trkpt lat="37.787642000" lon="-4.567811000">
        <ele>225.5</ele>
        <time>2020-10-13T10:40:06Z</time>
      </trkpt>
      <trkpt lat="37.787543000" lon="-4.567746000">
        <ele>225.4</ele>
        <time>2020-10-13T10:40:08Z</time>
      </trkpt>
      <trkpt lat="37.787446000" lon="-4.567680000">
        <ele>225.3</ele>
        <time>2020-10-13T10:40:10Z</time>
      </trkpt>
      <trkpt lat="37.787343000" lon="-4.567617000">
        <ele>225.1</ele>
        <time>2020-10-13T10:40:12Z</time>
      </trkpt>
      <trkpt lat="37.787242000" lon="-4.567554000">
        <ele>224.7</ele>
        <time>2020-10-13T10:40:14Z</time>
      </trkpt>
      <trkpt lat="37.787141000" lon="-4.567489000">
        <ele>224.4</ele>
        <time>2020-10-13T10:40:16Z</time>
      </trkpt>
      <trkpt lat="37.787045000" lon="-4.567423000">
        <ele>224.0</ele>
        <time>2020-10-13T10:40:18Z</time>
      </trkpt>
      <trkpt lat="37.786947000" lon="-4.567361000">
        <ele>223.6</ele>
        <time>2020-10-13T10:40:20Z</time>
      </trkpt>
      <trkpt lat="37.786846000" lon="-4.567295000">
        <ele>223.3</ele>
        <time>2020-10-13T10:40:22Z</time>
      </trkpt>
      <trkpt lat="37.786742000" lon="-4.567219000">
        <ele>223.0</ele>
        <time>2020-10-13T10:40:24Z</time>
      </trkpt>
      <trkpt lat="37.786636000" lon="-4.567141000">
        <ele>222.7</ele>
        <time>2020-10-13T10:40:26Z</time>
      </trkpt>
      <trkpt lat="37.786529000" lon="-4.567074000">
        <ele>222.5</ele>
        <time>2020-10-13T10:40:28Z</time>
      </trkpt>
      <trkpt lat="37.786422000" lon="-4.567002000">
        <ele>222.4</ele>
        <time>2020-10-13T10:40:30Z</time>
      </trkpt>
      <trkpt lat="37.786315000" lon="-4.566931000">
        <ele>222.3</ele>
        <time>2020-10-13T10:40:32Z</time>
      </trkpt>
      <trkpt lat="37.786203000" lon="-4.566858000">
        <ele>222.2</ele>
        <time>2020-10-13T10:40:34Z</time>
      </trkpt>
      <trkpt lat="37.786098000" lon="-4.566792000">
        <ele>222.2</ele>
        <time>2020-10-13T10:40:36Z</time>
      </trkpt>
      <trkpt lat="37.785991000" lon="-4.566719000">
        <ele>222.2</ele>
        <time>2020-10-13T10:40:38Z</time>
      </trkpt>
      <trkpt lat="37.785890000" lon="-4.566647000">
        <ele>222.2</ele>
        <time>2020-10-13T10:40:40Z</time>
      </trkpt>
      <trkpt lat="37.785798000" lon="-4.566572000">
        <ele>222.1</ele>
        <time>2020-10-13T10:40:42Z</time>
      </trkpt>
      <trkpt lat="37.785712000" lon="-4.566493000">
        <ele>222.0</ele>
        <time>2020-10-13T10:40:44Z</time>
      </trkpt>
      <trkpt lat="37.785632000" lon="-4.566414000">
        <ele>221.8</ele>
        <time>2020-10-13T10:40:46Z</time>
      </trkpt>
      <trkpt lat="37.785555000" lon="-4.566324000">
        <ele>221.6</ele>
        <time>2020-10-13T10:40:48Z</time>
      </trkpt>
      <trkpt lat="37.785476000" lon="-4.566229000">
        <ele>221.5</ele>
        <time>2020-10-13T10:40:50Z</time>
      </trkpt>
      <trkpt lat="37.785409000" lon="-4.566141000">
        <ele>221.3</ele>
        <time>2020-10-13T10:40:52Z</time>
      </trkpt>
      <trkpt lat="37.785338000" lon="-4.566054000">
        <ele>221.1</ele>
        <time>2020-10-13T10:40:54Z</time>
      </trkpt>
      <trkpt lat="37.785273000" lon="-4.565966000">
        <ele>221.0</ele>
        <time>2020-10-13T10:40:56Z</time>
      </trkpt>
      <trkpt lat="37.785200000" lon="-4.565887000">
        <ele>221.0</ele>
        <time>2020-10-13T10:40:58Z</time>
      </trkpt>
      <trkpt lat="37.785125000" lon="-4.565811000">
        <ele>220.9</ele>
        <time>2020-10-13T10:41:00Z</time>
      </trkpt>
      <trkpt lat="37.785040000" lon="-4.565740000">
        <ele>220.8</ele>
        <time>2020-10-13T10:41:02Z</time>
      </trkpt>
      <trkpt lat="37.784948000" lon="-4.565671000">
        <ele>220.8</ele>
        <time>2020-10-13T10:41:04Z</time>
      </trkpt>
      <trkpt lat="37.784852000" lon="-4.565599000">
        <ele>220.7</ele>
        <time>2020-10-13T10:41:06Z</time>
      </trkpt>
      <trkpt lat="37.784753000" lon="-4.565530000">
        <ele>220.7</ele>
        <time>2020-10-13T10:41:08Z</time>
      </trkpt>
      <trkpt lat="37.784652000" lon="-4.565465000">
        <ele>220.6</ele>
        <time>2020-10-13T10:41:10Z</time>
      </trkpt>
      <trkpt lat="37.784545000" lon="-4.565404000">
        <ele>220.5</ele>
        <time>2020-10-13T10:41:12Z</time>
      </trkpt>
      <trkpt lat="37.784439000" lon="-4.565335000">
        <ele>220.2</ele>
        <time>2020-10-13T10:41:14Z</time>
      </trkpt>
      <trkpt lat="37.784332000" lon="-4.565261000">
        <ele>220.0</ele>
        <time>2020-10-13T10:41:16Z</time>
      </trkpt>
      <trkpt lat="37.784219000" lon="-4.565183000">
        <ele>219.8</ele>
        <time>2020-10-13T10:41:18Z</time>
      </trkpt>
      <trkpt lat="37.784104000" lon="-4.565105000">
        <ele>219.5</ele>
        <time>2020-10-13T10:41:20Z</time>
      </trkpt>
      <trkpt lat="37.783989000" lon="-4.565030000">
        <ele>219.3</ele>
        <time>2020-10-13T10:41:22Z</time>
      </trkpt>
      <trkpt lat="37.783875000" lon="-4.564963000">
        <ele>219.0</ele>
        <time>2020-10-13T10:41:24Z</time>
      </trkpt>
      <trkpt lat="37.783765000" lon="-4.564881000">
        <ele>218.7</ele>
        <time>2020-10-13T10:41:26Z</time>
      </trkpt>
      <trkpt lat="37.783650000" lon="-4.564798000">
        <ele>218.5</ele>
        <time>2020-10-13T10:41:28Z</time>
      </trkpt>
      <trkpt lat="37.783536000" lon="-4.564726000">
        <ele>218.2</ele>
        <time>2020-10-13T10:41:30Z</time>
      </trkpt>
      <trkpt lat="37.783419000" lon="-4.564652000">
        <ele>218.0</ele>
        <time>2020-10-13T10:41:32Z</time>
      </trkpt>
      <trkpt lat="37.783298000" lon="-4.564582000">
        <ele>217.8</ele>
        <time>2020-10-13T10:41:34Z</time>
      </trkpt>
      <trkpt lat="37.783174000" lon="-4.564512000">
        <ele>217.5</ele>
        <time>2020-10-13T10:41:36Z</time>
      </trkpt>
      <trkpt lat="37.783047000" lon="-4.564445000">
        <ele>217.1</ele>
        <time>2020-10-13T10:41:38Z</time>
      </trkpt>
      <trkpt lat="37.782918000" lon="-4.564386000">
        <ele>216.6</ele>
        <time>2020-10-13T10:41:40Z</time>
      </trkpt>
      <trkpt lat="37.782791000" lon="-4.564326000">
        <ele>216.1</ele>
        <time>2020-10-13T10:41:42Z</time>
      </trkpt>
      <trkpt lat="37.782656000" lon="-4.564262000">
        <ele>215.6</ele>
        <time>2020-10-13T10:41:44Z</time>
      </trkpt>
      <trkpt lat="37.782523000" lon="-4.564204000">
        <ele>215.2</ele>
        <time>2020-10-13T10:41:46Z</time>
      </trkpt>
      <trkpt lat="37.782394000" lon="-4.564146000">
        <ele>214.8</ele>
        <time>2020-10-13T10:41:48Z</time>
      </trkpt>
      <trkpt lat="37.782263000" lon="-4.564081000">
        <ele>214.5</ele>
        <time>2020-10-13T10:41:50Z</time>
      </trkpt>
      <trkpt lat="37.782133000" lon="-4.564021000">
        <ele>214.3</ele>
        <time>2020-10-13T10:41:52Z</time>
      </trkpt>
      <trkpt lat="37.782007000" lon="-4.563963000">
        <ele>214.0</ele>
        <time>2020-10-13T10:41:54Z</time>
      </trkpt>
      <trkpt lat="37.781884000" lon="-4.563905000">
        <ele>213.8</ele>
        <time>2020-10-13T10:41:56Z</time>
      </trkpt>
      <trkpt lat="37.781763000" lon="-4.563846000">
        <ele>213.7</ele>
        <time>2020-10-13T10:41:58Z</time>
      </trkpt>
      <trkpt lat="37.781648000" lon="-4.563788000">
        <ele>213.7</ele>
        <time>2020-10-13T10:42:00Z</time>
      </trkpt>
      <trkpt lat="37.781532000" lon="-4.563717000">
        <ele>213.7</ele>
        <time>2020-10-13T10:42:02Z</time>
      </trkpt>
      <trkpt lat="37.781422000" lon="-4.563638000">
        <ele>213.8</ele>
        <time>2020-10-13T10:42:04Z</time>
      </trkpt>
      <trkpt lat="37.781327000" lon="-4.563544000">
        <ele>213.9</ele>
        <time>2020-10-13T10:42:06Z</time>
      </trkpt>
      <trkpt lat="37.781245000" lon="-4.563440000">
        <ele>213.9</ele>
        <time>2020-10-13T10:42:08Z</time>
      </trkpt>
      <trkpt lat="37.781169000" lon="-4.563334000">
        <ele>213.8</ele>
        <time>2020-10-13T10:42:10Z</time>
      </trkpt>
      <trkpt lat="37.781108000" lon="-4.563229000">
        <ele>213.7</ele>
        <time>2020-10-13T10:42:12Z</time>
      </trkpt>
      <trkpt lat="37.781046000" lon="-4.563137000">
        <ele>213.6</ele>
        <time>2020-10-13T10:42:14Z</time>
      </trkpt>
      <trkpt lat="37.780981000" lon="-4.563038000">
        <ele>213.5</ele>
        <time>2020-10-13T10:42:16Z</time>
      </trkpt>
      <trkpt lat="37.780915000" lon="-4.562950000">
        <ele>213.5</ele>
        <time>2020-10-13T10:42:18Z</time>
      </trkpt>
      <trkpt lat="37.780848000" lon="-4.562860000">
        <ele>213.4</ele>
        <time>2020-10-13T10:42:20Z</time>
      </trkpt>
      <trkpt lat="37.780779000" lon="-4.562770000">
        <ele>213.3</ele>
        <time>2020-10-13T10:42:22Z</time>
      </trkpt>
      <trkpt lat="37.780706000" lon="-4.562695000">
        <ele>213.2</ele>
        <time>2020-10-13T10:42:24Z</time>
      </trkpt>
      <trkpt lat="37.780623000" lon="-4.562635000">
        <ele>213.2</ele>
        <time>2020-10-13T10:42:26Z</time>
      </trkpt>
      <trkpt lat="37.780539000" lon="-4.562579000">
        <ele>213.2</ele>
        <time>2020-10-13T10:42:28Z</time>
      </trkpt>
      <trkpt lat="37.780450000" lon="-4.562545000">
        <ele>213.3</ele>
        <time>2020-10-13T10:42:30Z</time>
      </trkpt>
      <trkpt lat="37.780364000" lon="-4.562518000">
        <ele>213.5</ele>
        <time>2020-10-13T10:42:32Z</time>
      </trkpt>
      <trkpt lat="37.780277000" lon="-4.562488000">
        <ele>213.6</ele>
        <time>2020-10-13T10:42:34Z</time>
      </trkpt>
      <trkpt lat="37.780192000" lon="-4.562462000">
        <ele>213.8</ele>
        <time>2020-10-13T10:42:36Z</time>
      </trkpt>
      <trkpt lat="37.780104000" lon="-4.562439000">
        <ele>214.1</ele>
        <time>2020-10-13T10:42:38Z</time>
      </trkpt>
      <trkpt lat="37.780014000" lon="-4.562413000">
        <ele>214.4</ele>
        <time>2020-10-13T10:42:40Z</time>
      </trkpt>
      <trkpt lat="37.779920000" lon="-4.562387000">
        <ele>214.7</ele>
        <time>2020-10-13T10:42:42Z</time>
      </trkpt>
      <trkpt lat="37.779834000" lon="-4.562366000">
        <ele>215.1</ele>
        <time>2020-10-13T10:42:44Z</time>
      </trkpt>
      <trkpt lat="37.779752000" lon="-4.562343000">
        <ele>215.5</ele>
        <time>2020-10-13T10:42:46Z</time>
      </trkpt>
      <trkpt lat="37.779663000" lon="-4.562318000">
        <ele>215.7</ele>
        <time>2020-10-13T10:42:48Z</time>
      </trkpt>
      <trkpt lat="37.779583000" lon="-4.562295000">
        <ele>216.1</ele>
        <time>2020-10-13T10:42:50Z</time>
      </trkpt>
      <trkpt lat="37.779503000" lon="-4.562270000">
        <ele>216.5</ele>
        <time>2020-10-13T10:42:52Z</time>
      </trkpt>
      <trkpt lat="37.779391000" lon="-4.562239000">
        <ele>216.8</ele>
        <time>2020-10-13T10:42:55Z</time>
      </trkpt>
      <trkpt lat="37.779281000" lon="-4.562213000">
        <ele>217.3</ele>
        <time>2020-10-13T10:42:58Z</time>
      </trkpt>
      <trkpt lat="37.779182000" lon="-4.562190000">
        <ele>217.7</ele>
        <time>2020-10-13T10:43:01Z</time>
      </trkpt>
      <trkpt lat="37.779090000" lon="-4.562174000">
        <ele>218.2</ele>
        <time>2020-10-13T10:43:04Z</time>
      </trkpt>
      <trkpt lat="37.779008000" lon="-4.562151000">
        <ele>218.7</ele>
        <time>2020-10-13T10:43:07Z</time>
      </trkpt>
      <trkpt lat="37.778924000" lon="-4.562126000">
        <ele>219.2</ele>
        <time>2020-10-13T10:43:10Z</time>
      </trkpt>
      <trkpt lat="37.778839000" lon="-4.562105000">
        <ele>219.7</ele>
        <time>2020-10-13T10:43:13Z</time>
      </trkpt>
      <trkpt lat="37.778746000" lon="-4.562061000">
        <ele>220.3</ele>
        <time>2020-10-13T10:43:17Z</time>
      </trkpt>
      <trkpt lat="37.778649000" lon="-4.562017000">
        <ele>220.9</ele>
        <time>2020-10-13T10:43:21Z</time>
      </trkpt>
      <trkpt lat="37.778548000" lon="-4.561976000">
        <ele>221.5</ele>
        <time>2020-10-13T10:43:25Z</time>
      </trkpt>
      <trkpt lat="37.778457000" lon="-4.561916000">
        <ele>222.1</ele>
        <time>2020-10-13T10:43:29Z</time>
      </trkpt>
      <trkpt lat="37.778364000" lon="-4.561859000">
        <ele>222.6</ele>
        <time>2020-10-13T10:43:33Z</time>
      </trkpt>
      <trkpt lat="37.778276000" lon="-4.561802000">
        <ele>223.2</ele>
        <time>2020-10-13T10:43:37Z</time>
      </trkpt>
      <trkpt lat="37.778183000" lon="-4.561745000">
        <ele>223.8</ele>
        <time>2020-10-13T10:43:41Z</time>
      </trkpt>
      <trkpt lat="37.778089000" lon="-4.561681000">
        <ele>224.5</ele>
        <time>2020-10-13T10:43:45Z</time>
      </trkpt>
      <trkpt lat="37.777993000" lon="-4.561624000">
        <ele>225.1</ele>
        <time>2020-10-13T10:43:49Z</time>
      </trkpt>
      <trkpt lat="37.777899000" lon="-4.561558000">
        <ele>225.8</ele>
        <time>2020-10-13T10:43:53Z</time>
      </trkpt>
      <trkpt lat="37.777809000" lon="-4.561489000">
        <ele>226.5</ele>
        <time>2020-10-13T10:43:57Z</time>
      </trkpt>
      <trkpt lat="37.777720000" lon="-4.561419000">
        <ele>227.1</ele>
        <time>2020-10-13T10:44:01Z</time>
      </trkpt>
      <trkpt lat="37.777637000" lon="-4.561349000">
        <ele>227.6</ele>
        <time>2020-10-13T10:44:05Z</time>
      </trkpt>
      <trkpt lat="37.777557000" lon="-4.561287000">
        <ele>228.2</ele>
        <time>2020-10-13T10:44:09Z</time>
      </trkpt>
      <trkpt lat="37.777489000" lon="-4.561209000">
        <ele>228.6</ele>
        <time>2020-10-13T10:44:13Z</time>
      </trkpt>
      <trkpt lat="37.777413000" lon="-4.561136000">
        <ele>229.2</ele>
        <time>2020-10-13T10:44:17Z</time>
      </trkpt>
      <trkpt lat="37.777333000" lon="-4.561065000">
        <ele>229.6</ele>
        <time>2020-10-13T10:44:21Z</time>
      </trkpt>
      <trkpt lat="37.777257000" lon="-4.560989000">
        <ele>230.1</ele>
        <time>2020-10-13T10:44:25Z</time>
      </trkpt>
      <trkpt lat="37.777187000" lon="-4.560922000">
        <ele>230.5</ele>
        <time>2020-10-13T10:44:29Z</time>
      </trkpt>
      <trkpt lat="37.777114000" lon="-4.560859000">
        <ele>230.9</ele>
        <time>2020-10-13T10:44:33Z</time>
      </trkpt>
      <trkpt lat="37.777039000" lon="-4.560789000">
        <ele>231.2</ele>
        <time>2020-10-13T10:44:37Z</time>
      </trkpt>
      <trkpt lat="37.776956000" lon="-4.560721000">
        <ele>231.5</ele>
        <time>2020-10-13T10:44:41Z</time>
      </trkpt>
      <trkpt lat="37.776866000" lon="-4.560655000">
        <ele>231.7</ele>
        <time>2020-10-13T10:44:45Z</time>
      </trkpt>
      <trkpt lat="37.776777000" lon="-4.560584000">
        <ele>232.0</ele>
        <time>2020-10-13T10:44:49Z</time>
      </trkpt>
      <trkpt lat="37.776683000" lon="-4.560530000">
        <ele>232.3</ele>
        <time>2020-10-13T10:44:53Z</time>
      </trkpt>
      <trkpt lat="37.776581000" lon="-4.560490000">
        <ele>232.6</ele>
        <time>2020-10-13T10:44:57Z</time>
      </trkpt>
      <trkpt lat="37.776498000" lon="-4.560472000">
        <ele>232.9</ele>
        <time>2020-10-13T10:45:00Z</time>
      </trkpt>
      <trkpt lat="37.776415000" lon="-4.560469000">
        <ele>233.3</ele>
        <time>2020-10-13T10:45:03Z</time>
      </trkpt>
      <trkpt lat="37.776327000" lon="-4.560480000">
        <ele>233.5</ele>
        <time>2020-10-13T10:45:06Z</time>
      </trkpt>
      <trkpt lat="37.776245000" lon="-4.560503000">
        <ele>233.7</ele>
        <time>2020-10-13T10:45:09Z</time>
      </trkpt>
      <trkpt lat="37.776145000" lon="-4.560551000">
        <ele>233.9</ele>
        <time>2020-10-13T10:45:13Z</time>
      </trkpt>
      <trkpt lat="37.776046000" lon="-4.560604000">
        <ele>234.1</ele>
        <time>2020-10-13T10:45:17Z</time>
      </trkpt>
      <trkpt lat="37.775948000" lon="-4.560647000">
        <ele>234.4</ele>
        <time>2020-10-13T10:45:21Z</time>
      </trkpt>
      <trkpt lat="37.775854000" lon="-4.560700000">
        <ele>234.7</ele>
        <time>2020-10-13T10:45:25Z</time>
      </trkpt>
      <trkpt lat="37.775766000" lon="-4.560751000">
        <ele>235.2</ele>
        <time>2020-10-13T10:45:29Z</time>
      </trkpt>
      <trkpt lat="37.775680000" lon="-4.560807000">
        <ele>235.7</ele>
        <time>2020-10-13T10:45:33Z</time>
      </trkpt>
      <trkpt lat="37.775611000" lon="-4.560866000">
        <ele>236.3</ele>
        <time>2020-10-13T10:45:37Z</time>
      </trkpt>
      <trkpt lat="37.775536000" lon="-4.560924000">
        <ele>236.9</ele>
        <time>2020-10-13T10:45:42Z</time>
      </trkpt>
      <trkpt lat="37.775450000" lon="-4.560973000">
        <ele>237.5</ele>
        <time>2020-10-13T10:45:47Z</time>
      </trkpt>
      <trkpt lat="37.775356000" lon="-4.561011000">
        <ele>238.3</ele>
        <time>2020-10-13T10:45:53Z</time>
      </trkpt>
      <trkpt lat="37.775263000" lon="-4.561042000">
        <ele>239.0</ele>
        <time>2020-10-13T10:45:58Z</time>
      </trkpt>
      <trkpt lat="37.775175000" lon="-4.561052000">
        <ele>239.9</ele>
        <time>2020-10-13T10:46:03Z</time>
      </trkpt>
      <trkpt lat="37.775085000" lon="-4.561051000">
        <ele>240.9</ele>
        <time>2020-10-13T10:46:09Z</time>
      </trkpt>
      <trkpt lat="37.774996000" lon="-4.561058000">
        <ele>241.9</ele>
        <time>2020-10-13T10:46:15Z</time>
      </trkpt>
      <trkpt lat="37.774910000" lon="-4.561018000">
        <ele>242.9</ele>
        <time>2020-10-13T10:46:21Z</time>
      </trkpt>
      <trkpt lat="37.774814000" lon="-4.561026000">
        <ele>243.9</ele>
        <time>2020-10-13T10:46:27Z</time>
      </trkpt>
      <trkpt lat="37.774742000" lon="-4.560972000">
        <ele>244.8</ele>
        <time>2020-10-13T10:46:32Z</time>
      </trkpt>
      <trkpt lat="37.774653000" lon="-4.560958000">
        <ele>245.7</ele>
        <time>2020-10-13T10:46:37Z</time>
      </trkpt>
      <trkpt lat="37.774559000" lon="-4.560938000">
        <ele>246.6</ele>
        <time>2020-10-13T10:46:42Z</time>
      </trkpt>
      <trkpt lat="37.774470000" lon="-4.560913000">
        <ele>247.5</ele>
        <time>2020-10-13T10:46:47Z</time>
      </trkpt>
      <trkpt lat="37.774377000" lon="-4.560906000">
        <ele>248.3</ele>
        <time>2020-10-13T10:46:52Z</time>
      </trkpt>
      <trkpt lat="37.774281000" lon="-4.560917000">
        <ele>249.1</ele>
        <time>2020-10-13T10:46:57Z</time>
      </trkpt>
      <trkpt lat="37.774185000" lon="-4.560932000">
        <ele>249.8</ele>
        <time>2020-10-13T10:47:02Z</time>
      </trkpt>
      <trkpt lat="37.774099000" lon="-4.560978000">
        <ele>250.5</ele>
        <time>2020-10-13T10:47:07Z</time>
      </trkpt>
      <trkpt lat="37.774029000" lon="-4.561044000">
        <ele>251.1</ele>
        <time>2020-10-13T10:47:12Z</time>
      </trkpt>
      <trkpt lat="37.773968000" lon="-4.561122000">
        <ele>251.7</ele>
        <time>2020-10-13T10:47:17Z</time>
      </trkpt>
      <trkpt lat="37.773912000" lon="-4.561210000">
        <ele>252.4</ele>
        <time>2020-10-13T10:47:21Z</time>
      </trkpt>
      <trkpt lat="37.773860000" lon="-4.561308000">
        <ele>253.1</ele>
        <time>2020-10-13T10:47:26Z</time>
      </trkpt>
      <trkpt lat="37.773798000" lon="-4.561403000">
        <ele>253.8</ele>
        <time>2020-10-13T10:47:31Z</time>
      </trkpt>
      <trkpt lat="37.773729000" lon="-4.561464000">
        <ele>254.5</ele>
        <time>2020-10-13T10:47:35Z</time>
      </trkpt>
      <trkpt lat="37.773653000" lon="-4.561504000">
        <ele>255.2</ele>
        <time>2020-10-13T10:47:39Z</time>
      </trkpt>
      <trkpt lat="37.773569000" lon="-4.561547000">
        <ele>255.8</ele>
        <time>2020-10-13T10:47:44Z</time>
      </trkpt>
      <trkpt lat="37.773479000" lon="-4.561546000">
        <ele>256.5</ele>
        <time>2020-10-13T10:47:49Z</time>
      </trkpt>
      <trkpt lat="37.773394000" lon="-4.561518000">
        <ele>257.1</ele>
        <time>2020-10-13T10:47:54Z</time>
      </trkpt>
      <trkpt lat="37.773298000" lon="-4.561510000">
        <ele>257.7</ele>
        <time>2020-10-13T10:47:59Z</time>
      </trkpt>
      <trkpt lat="37.773221000" lon="-4.561475000">
        <ele>258.4</ele>
        <time>2020-10-13T10:48:03Z</time>
      </trkpt>
      <trkpt lat="37.773146000" lon="-4.561437000">
        <ele>258.9</ele>
        <time>2020-10-13T10:48:07Z</time>
      </trkpt>
      <trkpt lat="37.773052000" lon="-4.561383000">
        <ele>259.4</ele>
        <time>2020-10-13T10:48:12Z</time>
      </trkpt>
      <trkpt lat="37.772978000" lon="-4.561333000">
        <ele>259.8</ele>
        <time>2020-10-13T10:48:16Z</time>
      </trkpt>
      <trkpt lat="37.772892000" lon="-4.561273000">
        <ele>260.2</ele>
        <time>2020-10-13T10:48:21Z</time>
      </trkpt>
      <trkpt lat="37.772820000" lon="-4.561223000">
        <ele>260.6</ele>
        <time>2020-10-13T10:48:25Z</time>
      </trkpt>
      <trkpt lat="37.772746000" lon="-4.561170000">
        <ele>261.1</ele>
        <time>2020-10-13T10:48:29Z</time>
      </trkpt>
      <trkpt lat="37.772667000" lon="-4.561115000">
        <ele>261.6</ele>
        <time>2020-10-13T10:48:33Z</time>
      </trkpt>
      <trkpt lat="37.772590000" lon="-4.561056000">
        <ele>262.3</ele>
        <time>2020-10-13T10:48:37Z</time>
      </trkpt>
      <trkpt lat="37.772512000" lon="-4.560992000">
        <ele>262.9</ele>
        <time>2020-10-13T10:48:41Z</time>
      </trkpt>
      <trkpt lat="37.772435000" lon="-4.560927000">
        <ele>263.6</ele>
        <time>2020-10-13T10:48:45Z</time>
      </trkpt>
      <trkpt lat="37.772358000" lon="-4.560866000">
        <ele>264.4</ele>
        <time>2020-10-13T10:48:49Z</time>
      </trkpt>
      <trkpt lat="37.772282000" lon="-4.560807000">
        <ele>265.1</ele>
        <time>2020-10-13T10:48:53Z</time>
      </trkpt>
      <trkpt lat="37.772202000" lon="-4.560745000">
        <ele>265.8</ele>
        <time>2020-10-13T10:48:57Z</time>
      </trkpt>
      <trkpt lat="37.772123000" lon="-4.560688000">
        <ele>266.5</ele>
        <time>2020-10-13T10:49:01Z</time>
      </trkpt>
      <trkpt lat="37.772049000" lon="-4.560621000">
        <ele>267.3</ele>
        <time>2020-10-13T10:49:05Z</time>
      </trkpt>
      <trkpt lat="37.771972000" lon="-4.560558000">
        <ele>267.9</ele>
        <time>2020-10-13T10:49:09Z</time>
      </trkpt>
      <trkpt lat="37.771899000" lon="-4.560495000">
        <ele>268.5</ele>
        <time>2020-10-13T10:49:13Z</time>
      </trkpt>
      <trkpt lat="37.771818000" lon="-4.560436000">
        <ele>269.1</ele>
        <time>2020-10-13T10:49:17Z</time>
      </trkpt>
      <trkpt lat="37.771739000" lon="-4.560371000">
        <ele>269.5</ele>
        <time>2020-10-13T10:49:21Z</time>
      </trkpt>
      <trkpt lat="37.771658000" lon="-4.560304000">
        <ele>269.9</ele>
        <time>2020-10-13T10:49:25Z</time>
      </trkpt>
      <trkpt lat="37.771576000" lon="-4.560236000">
        <ele>270.2</ele>
        <time>2020-10-13T10:49:29Z</time>
      </trkpt>
      <trkpt lat="37.771495000" lon="-4.560164000">
        <ele>270.4</ele>
        <time>2020-10-13T10:49:33Z</time>
      </trkpt>
      <trkpt lat="37.771410000" lon="-4.560099000">
        <ele>270.5</ele>
        <time>2020-10-13T10:49:37Z</time>
      </trkpt>
      <trkpt lat="37.771330000" lon="-4.560032000">
        <ele>270.7</ele>
        <time>2020-10-13T10:49:41Z</time>
      </trkpt>
      <trkpt lat="37.771251000" lon="-4.559967000">
        <ele>270.9</ele>
        <time>2020-10-13T10:49:45Z</time>
      </trkpt>
      <trkpt lat="37.771168000" lon="-4.559911000">
        <ele>271.2</ele>
        <time>2020-10-13T10:49:49Z</time>
      </trkpt>
      <trkpt lat="37.771091000" lon="-4.559842000">
        <ele>271.5</ele>
        <time>2020-10-13T10:49:53Z</time>
      </trkpt>
      <trkpt lat="37.771002000" lon="-4.559776000">
        <ele>271.9</ele>
        <time>2020-10-13T10:49:57Z</time>
      </trkpt>
      <trkpt lat="37.770913000" lon="-4.559711000">
        <ele>272.3</ele>
        <time>2020-10-13T10:50:01Z</time>
      </trkpt>
      <trkpt lat="37.770834000" lon="-4.559645000">
        <ele>272.5</ele>
        <time>2020-10-13T10:50:05Z</time>
      </trkpt>
      <trkpt lat="37.770752000" lon="-4.559576000">
        <ele>272.7</ele>
        <time>2020-10-13T10:50:09Z</time>
      </trkpt>
      <trkpt lat="37.770667000" lon="-4.559514000">
        <ele>272.9</ele>
        <time>2020-10-13T10:50:13Z</time>
      </trkpt>
      <trkpt lat="37.770588000" lon="-4.559450000">
        <ele>273.0</ele>
        <time>2020-10-13T10:50:17Z</time>
      </trkpt>
      <trkpt lat="37.770506000" lon="-4.559391000">
        <ele>273.0</ele>
        <time>2020-10-13T10:50:21Z</time>
      </trkpt>
      <trkpt lat="37.770431000" lon="-4.559335000">
        <ele>272.9</ele>
        <time>2020-10-13T10:50:25Z</time>
      </trkpt>
      <trkpt lat="37.770341000" lon="-4.559273000">
        <ele>272.7</ele>
        <time>2020-10-13T10:50:29Z</time>
      </trkpt>
      <trkpt lat="37.770262000" lon="-4.559219000">
        <ele>272.4</ele>
        <time>2020-10-13T10:50:32Z</time>
      </trkpt>
      <trkpt lat="37.770173000" lon="-4.559163000">
        <ele>271.9</ele>
        <time>2020-10-13T10:50:35Z</time>
      </trkpt>
      <trkpt lat="37.770067000" lon="-4.559101000">
        <ele>271.3</ele>
        <time>2020-10-13T10:50:38Z</time>
      </trkpt>
      <trkpt lat="37.769991000" lon="-4.559056000">
        <ele>270.6</ele>
        <time>2020-10-13T10:50:40Z</time>
      </trkpt>
      <trkpt lat="37.769913000" lon="-4.559016000">
        <ele>270.1</ele>
        <time>2020-10-13T10:50:42Z</time>
      </trkpt>
      <trkpt lat="37.769835000" lon="-4.558983000">
        <ele>269.6</ele>
        <time>2020-10-13T10:50:44Z</time>
      </trkpt>
      <trkpt lat="37.769755000" lon="-4.558962000">
        <ele>269.1</ele>
        <time>2020-10-13T10:50:46Z</time>
      </trkpt>
      <trkpt lat="37.769640000" lon="-4.558931000">
        <ele>268.6</ele>
        <time>2020-10-13T10:50:49Z</time>
      </trkpt>
      <trkpt lat="37.769551000" lon="-4.558909000">
        <ele>268.3</ele>
        <time>2020-10-13T10:50:52Z</time>
      </trkpt>
      <trkpt lat="37.769461000" lon="-4.558919000">
        <ele>268.0</ele>
        <time>2020-10-13T10:51:53Z</time>
      </trkpt>
      <trkpt lat="37.769372000" lon="-4.558925000">
        <ele>267.7</ele>
        <time>2020-10-13T10:51:56Z</time>
      </trkpt>
      <trkpt lat="37.769263000" lon="-4.558925000">
        <ele>267.5</ele>
        <time>2020-10-13T10:51:59Z</time>
      </trkpt>
      <trkpt lat="37.769180000" lon="-4.558930000">
        <ele>267.4</ele>
        <time>2020-10-13T10:52:01Z</time>
      </trkpt>
      <trkpt lat="37.769091000" lon="-4.558935000">
        <ele>267.3</ele>
        <time>2020-10-13T10:52:03Z</time>
      </trkpt>
      <trkpt lat="37.768996000" lon="-4.558949000">
        <ele>267.2</ele>
        <time>2020-10-13T10:52:05Z</time>
      </trkpt>
      <trkpt lat="37.768903000" lon="-4.558957000">
        <ele>267.0</ele>
        <time>2020-10-13T10:52:07Z</time>
      </trkpt>
      <trkpt lat="37.768810000" lon="-4.558971000">
        <ele>266.8</ele>
        <time>2020-10-13T10:52:09Z</time>
      </trkpt>
      <trkpt lat="37.768716000" lon="-4.558976000">
        <ele>266.8</ele>
        <time>2020-10-13T10:52:11Z</time>
      </trkpt>
      <trkpt lat="37.768631000" lon="-4.558972000">
        <ele>266.8</ele>
        <time>2020-10-13T10:52:13Z</time>
      </trkpt>
      <trkpt lat="37.768549000" lon="-4.558975000">
        <ele>266.8</ele>
        <time>2020-10-13T10:52:15Z</time>
      </trkpt>
      <trkpt lat="37.768443000" lon="-4.558986000">
        <ele>266.8</ele>
        <time>2020-10-13T10:52:18Z</time>
      </trkpt>
      <trkpt lat="37.768353000" lon="-4.559015000">
        <ele>266.8</ele>
        <time>2020-10-13T10:53:19Z</time>
      </trkpt>
      <trkpt lat="37.768265000" lon="-4.559039000">
        <ele>266.8</ele>
        <time>2020-10-13T10:53:23Z</time>
      </trkpt>
      <trkpt lat="37.768170000" lon="-4.559060000">
        <ele>266.8</ele>
        <time>2020-10-13T10:53:26Z</time>
      </trkpt>
      <trkpt lat="37.768056000" lon="-4.559088000">
        <ele>266.7</ele>
        <time>2020-10-13T10:53:29Z</time>
      </trkpt>
      <trkpt lat="37.767975000" lon="-4.559104000">
        <ele>266.6</ele>
        <time>2020-10-13T10:53:31Z</time>
      </trkpt>
      <trkpt lat="37.767893000" lon="-4.559114000">
        <ele>266.6</ele>
        <time>2020-10-13T10:53:33Z</time>
      </trkpt>
      <trkpt lat="37.767809000" lon="-4.559126000">
        <ele>266.6</ele>
        <time>2020-10-13T10:53:35Z</time>
      </trkpt>
      <trkpt lat="37.767726000" lon="-4.559138000">
        <ele>266.5</ele>
        <time>2020-10-13T10:53:37Z</time>
      </trkpt>
      <trkpt lat="37.767645000" lon="-4.559148000">
        <ele>266.4</ele>
        <time>2020-10-13T10:53:39Z</time>
      </trkpt>
      <trkpt lat="37.767562000" lon="-4.559154000">
        <ele>266.3</ele>
        <time>2020-10-13T10:53:41Z</time>
      </trkpt>
      <trkpt lat="37.767477000" lon="-4.559167000">
        <ele>266.2</ele>
        <time>2020-10-13T10:53:43Z</time>
      </trkpt>
      <trkpt lat="37.767389000" lon="-4.559176000">
        <ele>266.1</ele>
        <time>2020-10-13T10:53:45Z</time>
      </trkpt>
      <trkpt lat="37.767302000" lon="-4.559184000">
        <ele>266.1</ele>
        <time>2020-10-13T10:53:47Z</time>
      </trkpt>
      <trkpt lat="37.767198000" lon="-4.559193000">
        <ele>266.2</ele>
        <time>2020-10-13T10:53:50Z</time>
      </trkpt>
      <trkpt lat="37.767087000" lon="-4.559183000">
        <ele>266.4</ele>
        <time>2020-10-13T10:53:53Z</time>
      </trkpt>
      <trkpt lat="37.766964000" lon="-4.559173000">
        <ele>266.5</ele>
        <time>2020-10-13T10:53:56Z</time>
      </trkpt>
      <trkpt lat="37.766879000" lon="-4.559165000">
        <ele>266.6</ele>
        <time>2020-10-13T10:53:58Z</time>
      </trkpt>
      <trkpt lat="37.766792000" lon="-4.559155000">
        <ele>266.7</ele>
        <time>2020-10-13T10:54:00Z</time>
      </trkpt>
      <trkpt lat="37.766705000" lon="-4.559148000">
        <ele>266.8</ele>
        <time>2020-10-13T10:54:02Z</time>
      </trkpt>
      <trkpt lat="37.766618000" lon="-4.559142000">
        <ele>267.0</ele>
        <time>2020-10-13T10:54:04Z</time>
      </trkpt>
      <trkpt lat="37.766536000" lon="-4.559126000">
        <ele>267.0</ele>
        <time>2020-10-13T10:54:06Z</time>
      </trkpt>
      <trkpt lat="37.766455000" lon="-4.559108000">
        <ele>266.9</ele>
        <time>2020-10-13T10:54:08Z</time>
      </trkpt>
      <trkpt lat="37.766339000" lon="-4.559076000">
        <ele>266.6</ele>
        <time>2020-10-13T10:54:11Z</time>
      </trkpt>
      <trkpt lat="37.766262000" lon="-4.559040000">
        <ele>266.2</ele>
        <time>2020-10-13T10:54:13Z</time>
      </trkpt>
      <trkpt lat="37.766184000" lon="-4.558995000">
        <ele>265.5</ele>
        <time>2020-10-13T10:54:15Z</time>
      </trkpt>
      <trkpt lat="37.766099000" lon="-4.558936000">
        <ele>264.8</ele>
        <time>2020-10-13T10:54:17Z</time>
      </trkpt>
      <trkpt lat="37.766008000" lon="-4.558859000">
        <ele>264.1</ele>
        <time>2020-10-13T10:54:19Z</time>
      </trkpt>
      <trkpt lat="37.765914000" lon="-4.558777000">
        <ele>263.3</ele>
        <time>2020-10-13T10:54:21Z</time>
      </trkpt>
      <trkpt lat="37.765816000" lon="-4.558691000">
        <ele>262.5</ele>
        <time>2020-10-13T10:54:23Z</time>
      </trkpt>
      <trkpt lat="37.765713000" lon="-4.558604000">
        <ele>261.5</ele>
        <time>2020-10-13T10:54:25Z</time>
      </trkpt>
      <trkpt lat="37.765604000" lon="-4.558517000">
        <ele>260.6</ele>
        <time>2020-10-13T10:54:27Z</time>
      </trkpt>
      <trkpt lat="37.765491000" lon="-4.558423000">
        <ele>259.7</ele>
        <time>2020-10-13T10:54:29Z</time>
      </trkpt>
      <trkpt lat="37.765377000" lon="-4.558325000">
        <ele>258.7</ele>
        <time>2020-10-13T10:54:31Z</time>
      </trkpt>
      <trkpt lat="37.765256000" lon="-4.558226000">
        <ele>257.8</ele>
        <time>2020-10-13T10:54:33Z</time>
      </trkpt>
      <trkpt lat="37.765135000" lon="-4.558117000">
        <ele>256.8</ele>
        <time>2020-10-13T10:54:35Z</time>
      </trkpt>
      <trkpt lat="37.765013000" lon="-4.558008000">
        <ele>255.8</ele>
        <time>2020-10-13T10:54:37Z</time>
      </trkpt>
      <trkpt lat="37.764891000" lon="-4.557905000">
        <ele>254.9</ele>
        <time>2020-10-13T10:54:39Z</time>
      </trkpt>
      <trkpt lat="37.764768000" lon="-4.557809000">
        <ele>254.0</ele>
        <time>2020-10-13T10:54:41Z</time>
      </trkpt>
      <trkpt lat="37.764631000" lon="-4.557725000">
        <ele>253.2</ele>
        <time>2020-10-13T10:54:43Z</time>
      </trkpt>
      <trkpt lat="37.764483000" lon="-4.557634000">
        <ele>252.4</ele>
        <time>2020-10-13T10:54:45Z</time>
      </trkpt>
      <trkpt lat="37.764406000" lon="-4.557589000">
        <ele>251.5</ele>
        <time>2020-10-13T10:54:46Z</time>
      </trkpt>
      <trkpt lat="37.764326000" lon="-4.557538000">
        <ele>250.7</ele>
        <time>2020-10-13T10:54:47Z</time>
      </trkpt>
      <trkpt lat="37.764245000" lon="-4.557485000">
        <ele>250.0</ele>
        <time>2020-10-13T10:54:48Z</time>
      </trkpt>
      <trkpt lat="37.764162000" lon="-4.557430000">
        <ele>249.5</ele>
        <time>2020-10-13T10:54:49Z</time>
      </trkpt>
      <trkpt lat="37.764081000" lon="-4.557375000">
        <ele>248.9</ele>
        <time>2020-10-13T10:54:50Z</time>
      </trkpt>
      <trkpt lat="37.764001000" lon="-4.557311000">
        <ele>248.5</ele>
        <time>2020-10-13T10:54:51Z</time>
      </trkpt>
      <trkpt lat="37.763920000" lon="-4.557247000">
        <ele>248.1</ele>
        <time>2020-10-13T10:54:52Z</time>
      </trkpt>
      <trkpt lat="37.763840000" lon="-4.557181000">
        <ele>247.6</ele>
        <time>2020-10-13T10:54:53Z</time>
      </trkpt>
      <trkpt lat="37.763763000" lon="-4.557119000">
        <ele>247.1</ele>
        <time>2020-10-13T10:54:54Z</time>
      </trkpt>
      <trkpt lat="37.763689000" lon="-4.557052000">
        <ele>246.5</ele>
        <time>2020-10-13T10:54:55Z</time>
      </trkpt>
      <trkpt lat="37.763616000" lon="-4.556981000">
        <ele>246.0</ele>
        <time>2020-10-13T10:54:56Z</time>
      </trkpt>
      <trkpt lat="37.763545000" lon="-4.556910000">
        <ele>245.5</ele>
        <time>2020-10-13T10:54:57Z</time>
      </trkpt>
      <trkpt lat="37.763473000" lon="-4.556839000">
        <ele>245.0</ele>
        <time>2020-10-13T10:54:58Z</time>
      </trkpt>
      <trkpt lat="37.763404000" lon="-4.556766000">
        <ele>244.5</ele>
        <time>2020-10-13T10:54:59Z</time>
      </trkpt>
      <trkpt lat="37.763336000" lon="-4.556692000">
        <ele>243.8</ele>
        <time>2020-10-13T10:55:00Z</time>
      </trkpt>
      <trkpt lat="37.763269000" lon="-4.556616000">
        <ele>243.3</ele>
        <time>2020-10-13T10:55:01Z</time>
      </trkpt>
      <trkpt lat="37.763200000" lon="-4.556540000">
        <ele>242.8</ele>
        <time>2020-10-13T10:55:02Z</time>
      </trkpt>
      <trkpt lat="37.763130000" lon="-4.556460000">
        <ele>242.4</ele>
        <time>2020-10-13T10:55:03Z</time>
      </trkpt>
      <trkpt lat="37.763064000" lon="-4.556379000">
        <ele>241.9</ele>
        <time>2020-10-13T10:55:04Z</time>
      </trkpt>
      <trkpt lat="37.763000000" lon="-4.556296000">
        <ele>241.5</ele>
        <time>2020-10-13T10:55:05Z</time>
      </trkpt>
      <trkpt lat="37.762938000" lon="-4.556209000">
        <ele>241.2</ele>
        <time>2020-10-13T10:55:06Z</time>
      </trkpt>
      <trkpt lat="37.762879000" lon="-4.556128000">
        <ele>240.7</ele>
        <time>2020-10-13T10:55:07Z</time>
      </trkpt>
      <trkpt lat="37.762823000" lon="-4.556042000">
        <ele>240.2</ele>
        <time>2020-10-13T10:55:08Z</time>
      </trkpt>
      <trkpt lat="37.762770000" lon="-4.555955000">
        <ele>239.7</ele>
        <time>2020-10-13T10:55:09Z</time>
      </trkpt>
      <trkpt lat="37.762713000" lon="-4.555870000">
        <ele>239.2</ele>
        <time>2020-10-13T10:55:10Z</time>
      </trkpt>
      <trkpt lat="37.762661000" lon="-4.555781000">
        <ele>238.6</ele>
        <time>2020-10-13T10:55:11Z</time>
      </trkpt>
      <trkpt lat="37.762605000" lon="-4.555692000">
        <ele>238.1</ele>
        <time>2020-10-13T10:55:12Z</time>
      </trkpt>
      <trkpt lat="37.762554000" lon="-4.555602000">
        <ele>237.5</ele>
        <time>2020-10-13T10:55:13Z</time>
      </trkpt>
      <trkpt lat="37.762498000" lon="-4.555512000">
        <ele>236.7</ele>
        <time>2020-10-13T10:55:14Z</time>
      </trkpt>
      <trkpt lat="37.762443000" lon="-4.555418000">
        <ele>236.2</ele>
        <time>2020-10-13T10:55:15Z</time>
      </trkpt>
      <trkpt lat="37.762387000" lon="-4.555325000">
        <ele>235.6</ele>
        <time>2020-10-13T10:55:16Z</time>
      </trkpt>
      <trkpt lat="37.762331000" lon="-4.555225000">
        <ele>235.3</ele>
        <time>2020-10-13T10:55:17Z</time>
      </trkpt>
      <trkpt lat="37.762273000" lon="-4.555128000">
        <ele>235.0</ele>
        <time>2020-10-13T10:55:18Z</time>
      </trkpt>
      <trkpt lat="37.762218000" lon="-4.555037000">
        <ele>234.9</ele>
        <time>2020-10-13T10:55:19Z</time>
      </trkpt>
      <trkpt lat="37.762167000" lon="-4.554944000">
        <ele>234.8</ele>
        <time>2020-10-13T10:55:20Z</time>
      </trkpt>
      <trkpt lat="37.762112000" lon="-4.554855000">
        <ele>234.7</ele>
        <time>2020-10-13T10:55:21Z</time>
      </trkpt>
      <trkpt lat="37.762060000" lon="-4.554769000">
        <ele>234.7</ele>
        <time>2020-10-13T10:55:22Z</time>
      </trkpt>
      <trkpt lat="37.762006000" lon="-4.554690000">
        <ele>234.7</ele>
        <time>2020-10-13T10:55:23Z</time>
      </trkpt>
      <trkpt lat="37.761952000" lon="-4.554613000">
        <ele>234.8</ele>
        <time>2020-10-13T10:55:24Z</time>
      </trkpt>
      <trkpt lat="37.761845000" lon="-4.554476000">
        <ele>235.0</ele>
        <time>2020-10-13T10:55:26Z</time>
      </trkpt>
      <trkpt lat="37.761736000" lon="-4.554366000">
        <ele>235.0</ele>
        <time>2020-10-13T10:55:28Z</time>
      </trkpt>
      <trkpt lat="37.761628000" lon="-4.554261000">
        <ele>234.9</ele>
        <time>2020-10-13T10:55:30Z</time>
      </trkpt>
      <trkpt lat="37.761522000" lon="-4.554167000">
        <ele>234.6</ele>
        <time>2020-10-13T10:55:32Z</time>
      </trkpt>
      <trkpt lat="37.761415000" lon="-4.554074000">
        <ele>234.3</ele>
        <time>2020-10-13T10:55:34Z</time>
      </trkpt>
      <trkpt lat="37.761310000" lon="-4.553985000">
        <ele>233.7</ele>
        <time>2020-10-13T10:55:36Z</time>
      </trkpt>
      <trkpt lat="37.761210000" lon="-4.553897000">
        <ele>233.2</ele>
        <time>2020-10-13T10:55:38Z</time>
      </trkpt>
      <trkpt lat="37.761109000" lon="-4.553812000">
        <ele>232.6</ele>
        <time>2020-10-13T10:55:40Z</time>
      </trkpt>
      <trkpt lat="37.761006000" lon="-4.553710000">
        <ele>231.9</ele>
        <time>2020-10-13T10:55:42Z</time>
      </trkpt>
      <trkpt lat="37.760901000" lon="-4.553616000">
        <ele>231.1</ele>
        <time>2020-10-13T10:55:44Z</time>
      </trkpt>
      <trkpt lat="37.760787000" lon="-4.553508000">
        <ele>230.3</ele>
        <time>2020-10-13T10:55:46Z</time>
      </trkpt>
      <trkpt lat="37.760669000" lon="-4.553392000">
        <ele>229.4</ele>
        <time>2020-10-13T10:55:48Z</time>
      </trkpt>
      <trkpt lat="37.760544000" lon="-4.553272000">
        <ele>228.4</ele>
        <time>2020-10-13T10:55:50Z</time>
      </trkpt>
      <trkpt lat="37.760417000" lon="-4.553139000">
        <ele>227.5</ele>
        <time>2020-10-13T10:55:52Z</time>
      </trkpt>
      <trkpt lat="37.760353000" lon="-4.553067000">
        <ele>226.5</ele>
        <time>2020-10-13T10:55:53Z</time>
      </trkpt>
      <trkpt lat="37.760290000" lon="-4.552992000">
        <ele>225.6</ele>
        <time>2020-10-13T10:55:54Z</time>
      </trkpt>
      <trkpt lat="37.760232000" lon="-4.552918000">
        <ele>224.8</ele>
        <time>2020-10-13T10:55:55Z</time>
      </trkpt>
      <trkpt lat="37.760125000" lon="-4.552763000">
        <ele>223.9</ele>
        <time>2020-10-13T10:55:57Z</time>
      </trkpt>
      <trkpt lat="37.760071000" lon="-4.552682000">
        <ele>223.0</ele>
        <time>2020-10-13T10:55:58Z</time>
      </trkpt>
      <trkpt lat="37.760024000" lon="-4.552593000">
        <ele>222.3</ele>
        <time>2020-10-13T10:55:59Z</time>
      </trkpt>
      <trkpt lat="37.759973000" lon="-4.552504000">
        <ele>221.6</ele>
        <time>2020-10-13T10:56:00Z</time>
      </trkpt>
      <trkpt lat="37.759921000" lon="-4.552415000">
        <ele>221.0</ele>
        <time>2020-10-13T10:56:01Z</time>
      </trkpt>
      <trkpt lat="37.759868000" lon="-4.552323000">
        <ele>220.4</ele>
        <time>2020-10-13T10:56:02Z</time>
      </trkpt>
      <trkpt lat="37.759814000" lon="-4.552233000">
        <ele>219.9</ele>
        <time>2020-10-13T10:56:03Z</time>
      </trkpt>
      <trkpt lat="37.759760000" lon="-4.552144000">
        <ele>219.5</ele>
        <time>2020-10-13T10:56:04Z</time>
      </trkpt>
      <trkpt lat="37.759708000" lon="-4.552056000">
        <ele>219.1</ele>
        <time>2020-10-13T10:56:05Z</time>
      </trkpt>
      <trkpt lat="37.759653000" lon="-4.551966000">
        <ele>218.8</ele>
        <time>2020-10-13T10:56:06Z</time>
      </trkpt>
      <trkpt lat="37.759602000" lon="-4.551880000">
        <ele>218.5</ele>
        <time>2020-10-13T10:56:07Z</time>
      </trkpt>
      <trkpt lat="37.759552000" lon="-4.551793000">
        <ele>218.4</ele>
        <time>2020-10-13T10:56:08Z</time>
      </trkpt>
      <trkpt lat="37.759503000" lon="-4.551705000">
        <ele>218.3</ele>
        <time>2020-10-13T10:56:09Z</time>
      </trkpt>
      <trkpt lat="37.759449000" lon="-4.551622000">
        <ele>218.2</ele>
        <time>2020-10-13T10:56:10Z</time>
      </trkpt>
      <trkpt lat="37.759397000" lon="-4.551538000">
        <ele>218.2</ele>
        <time>2020-10-13T10:56:11Z</time>
      </trkpt>
      <trkpt lat="37.759302000" lon="-4.551385000">
        <ele>218.2</ele>
        <time>2020-10-13T10:56:13Z</time>
      </trkpt>
      <trkpt lat="37.759216000" lon="-4.551245000">
        <ele>218.4</ele>
        <time>2020-10-13T10:56:15Z</time>
      </trkpt>
      <trkpt lat="37.759143000" lon="-4.551123000">
        <ele>218.6</ele>
        <time>2020-10-13T10:56:17Z</time>
      </trkpt>
      <trkpt lat="37.759079000" lon="-4.551011000">
        <ele>218.9</ele>
        <time>2020-10-13T10:56:19Z</time>
      </trkpt>
      <trkpt lat="37.759025000" lon="-4.550917000">
        <ele>219.3</ele>
        <time>2020-10-13T10:56:21Z</time>
      </trkpt>
      <trkpt lat="37.758959000" lon="-4.550807000">
        <ele>219.7</ele>
        <time>2020-10-13T10:56:24Z</time>
      </trkpt>
      <trkpt lat="37.758897000" lon="-4.550694000">
        <ele>220.4</ele>
        <time>2020-10-13T10:56:28Z</time>
      </trkpt>
      <trkpt lat="37.758840000" lon="-4.550603000">
        <ele>221.1</ele>
        <time>2020-10-13T10:56:32Z</time>
      </trkpt>
      <trkpt lat="37.758790000" lon="-4.550506000">
        <ele>221.8</ele>
        <time>2020-10-13T10:56:36Z</time>
      </trkpt>
      <trkpt lat="37.758731000" lon="-4.550410000">
        <ele>222.6</ele>
        <time>2020-10-13T10:56:40Z</time>
      </trkpt>
      <trkpt lat="37.758678000" lon="-4.550320000">
        <ele>223.4</ele>
        <time>2020-10-13T10:56:44Z</time>
      </trkpt>
      <trkpt lat="37.758629000" lon="-4.550213000">
        <ele>224.2</ele>
        <time>2020-10-13T10:56:49Z</time>
      </trkpt>
      <trkpt lat="37.758586000" lon="-4.550115000">
        <ele>224.9</ele>
        <time>2020-10-13T10:56:53Z</time>
      </trkpt>
      <trkpt lat="37.758537000" lon="-4.550007000">
        <ele>225.5</ele>
        <time>2020-10-13T10:56:58Z</time>
      </trkpt>
      <trkpt lat="37.758479000" lon="-4.549903000">
        <ele>226.3</ele>
        <time>2020-10-13T10:57:03Z</time>
      </trkpt>
      <trkpt lat="37.758433000" lon="-4.549803000">
        <ele>226.8</ele>
        <time>2020-10-13T10:57:07Z</time>
      </trkpt>
      <trkpt lat="37.758395000" lon="-4.549696000">
        <ele>227.3</ele>
        <time>2020-10-13T10:57:11Z</time>
      </trkpt>
      <trkpt lat="37.758352000" lon="-4.549594000">
        <ele>227.5</ele>
        <time>2020-10-13T10:57:15Z</time>
      </trkpt>
      <trkpt lat="37.758320000" lon="-4.549498000">
        <ele>227.7</ele>
        <time>2020-10-13T10:57:19Z</time>
      </trkpt>
      <trkpt lat="37.758288000" lon="-4.549396000">
        <ele>228.0</ele>
        <time>2020-10-13T10:57:23Z</time>
      </trkpt>
      <trkpt lat="37.758250000" lon="-4.549283000">
        <ele>228.2</ele>
        <time>2020-10-13T10:57:27Z</time>
      </trkpt>
      <trkpt lat="37.758210000" lon="-4.549166000">
        <ele>228.5</ele>
        <time>2020-10-13T10:57:31Z</time>
      </trkpt>
      <trkpt lat="37.758170000" lon="-4.549043000">
        <ele>228.7</ele>
        <time>2020-10-13T10:57:35Z</time>
      </trkpt>
      <trkpt lat="37.758126000" lon="-4.548936000">
        <ele>229.0</ele>
        <time>2020-10-13T10:57:39Z</time>
      </trkpt>
      <trkpt lat="37.758091000" lon="-4.548840000">
        <ele>229.3</ele>
        <time>2020-10-13T10:57:42Z</time>
      </trkpt>
      <trkpt lat="37.758046000" lon="-4.548739000">
        <ele>229.5</ele>
        <time>2020-10-13T10:57:45Z</time>
      </trkpt>
      <trkpt lat="37.757996000" lon="-4.548628000">
        <ele>229.9</ele>
        <time>2020-10-13T10:57:48Z</time>
      </trkpt>
      <trkpt lat="37.757949000" lon="-4.548516000">
        <ele>230.2</ele>
        <time>2020-10-13T10:57:51Z</time>
      </trkpt>
      <trkpt lat="37.757900000" lon="-4.548406000">
        <ele>230.5</ele>
        <time>2020-10-13T10:57:54Z</time>
      </trkpt>
      <trkpt lat="37.757854000" lon="-4.548295000">
        <ele>230.6</ele>
        <time>2020-10-13T10:57:57Z</time>
      </trkpt>
      <trkpt lat="37.757807000" lon="-4.548180000">
        <ele>230.7</ele>
        <time>2020-10-13T10:58:00Z</time>
      </trkpt>
      <trkpt lat="37.757758000" lon="-4.548058000">
        <ele>230.7</ele>
        <time>2020-10-13T10:58:03Z</time>
      </trkpt>
      <trkpt lat="37.757706000" lon="-4.547934000">
        <ele>230.6</ele>
        <time>2020-10-13T10:58:06Z</time>
      </trkpt>
      <trkpt lat="37.757655000" lon="-4.547810000">
        <ele>230.4</ele>
        <time>2020-10-13T10:58:09Z</time>
      </trkpt>
      <trkpt lat="37.757603000" lon="-4.547681000">
        <ele>230.1</ele>
        <time>2020-10-13T10:58:12Z</time>
      </trkpt>
      <trkpt lat="37.757561000" lon="-4.547592000">
        <ele>229.7</ele>
        <time>2020-10-13T10:58:14Z</time>
      </trkpt>
      <trkpt lat="37.757519000" lon="-4.547500000">
        <ele>229.1</ele>
        <time>2020-10-13T10:58:16Z</time>
      </trkpt>
      <trkpt lat="37.757478000" lon="-4.547401000">
        <ele>228.5</ele>
        <time>2020-10-13T10:58:18Z</time>
      </trkpt>
      <trkpt lat="37.757431000" lon="-4.547296000">
        <ele>227.8</ele>
        <time>2020-10-13T10:58:20Z</time>
      </trkpt>
      <trkpt lat="37.757377000" lon="-4.547181000">
        <ele>227.2</ele>
        <time>2020-10-13T10:58:22Z</time>
      </trkpt>
      <trkpt lat="37.757310000" lon="-4.547046000">
        <ele>226.5</ele>
        <time>2020-10-13T10:58:24Z</time>
      </trkpt>
      <trkpt lat="37.757220000" lon="-4.546892000">
        <ele>225.9</ele>
        <time>2020-10-13T10:58:26Z</time>
      </trkpt>
      <trkpt lat="37.757169000" lon="-4.546812000">
        <ele>225.3</ele>
        <time>2020-10-13T10:58:27Z</time>
      </trkpt>
      <trkpt lat="37.757115000" lon="-4.546729000">
        <ele>224.6</ele>
        <time>2020-10-13T10:58:28Z</time>
      </trkpt>
      <trkpt lat="37.757060000" lon="-4.546643000">
        <ele>224.1</ele>
        <time>2020-10-13T10:58:29Z</time>
      </trkpt>
      <trkpt lat="37.757000000" lon="-4.546555000">
        <ele>223.5</ele>
        <time>2020-10-13T10:58:30Z</time>
      </trkpt>
      <trkpt lat="37.756940000" lon="-4.546471000">
        <ele>222.9</ele>
        <time>2020-10-13T10:58:31Z</time>
      </trkpt>
      <trkpt lat="37.756877000" lon="-4.546388000">
        <ele>222.5</ele>
        <time>2020-10-13T10:58:32Z</time>
      </trkpt>
      <trkpt lat="37.756813000" lon="-4.546305000">
        <ele>222.1</ele>
        <time>2020-10-13T10:58:33Z</time>
      </trkpt>
      <trkpt lat="37.756748000" lon="-4.546224000">
        <ele>221.7</ele>
        <time>2020-10-13T10:58:34Z</time>
      </trkpt>
      <trkpt lat="37.756684000" lon="-4.546146000">
        <ele>221.4</ele>
        <time>2020-10-13T10:58:35Z</time>
      </trkpt>
      <trkpt lat="37.756617000" lon="-4.546065000">
        <ele>221.0</ele>
        <time>2020-10-13T10:58:36Z</time>
      </trkpt>
      <trkpt lat="37.756551000" lon="-4.545987000">
        <ele>220.6</ele>
        <time>2020-10-13T10:58:37Z</time>
      </trkpt>
      <trkpt lat="37.756487000" lon="-4.545911000">
        <ele>220.3</ele>
        <time>2020-10-13T10:58:38Z</time>
      </trkpt>
      <trkpt lat="37.756418000" lon="-4.545835000">
        <ele>219.9</ele>
        <time>2020-10-13T10:58:39Z</time>
      </trkpt>
      <trkpt lat="37.756346000" lon="-4.545759000">
        <ele>219.5</ele>
        <time>2020-10-13T10:58:40Z</time>
      </trkpt>
      <trkpt lat="37.756275000" lon="-4.545684000">
        <ele>219.3</ele>
        <time>2020-10-13T10:58:41Z</time>
      </trkpt>
      <trkpt lat="37.756205000" lon="-4.545612000">
        <ele>219.0</ele>
        <time>2020-10-13T10:58:42Z</time>
      </trkpt>
      <trkpt lat="37.756142000" lon="-4.545541000">
        <ele>218.7</ele>
        <time>2020-10-13T10:58:43Z</time>
      </trkpt>
      <trkpt lat="37.756073000" lon="-4.545471000">
        <ele>218.5</ele>
        <time>2020-10-13T10:58:44Z</time>
      </trkpt>
      <trkpt lat="37.756011000" lon="-4.545404000">
        <ele>218.5</ele>
        <time>2020-10-13T10:58:45Z</time>
      </trkpt>
      <trkpt lat="37.755947000" lon="-4.545339000">
        <ele>218.4</ele>
        <time>2020-10-13T10:58:46Z</time>
      </trkpt>
      <trkpt lat="37.755830000" lon="-4.545211000">
        <ele>218.4</ele>
        <time>2020-10-13T10:58:48Z</time>
      </trkpt>
      <trkpt lat="37.755720000" lon="-4.545106000">
        <ele>218.4</ele>
        <time>2020-10-13T10:58:50Z</time>
      </trkpt>
      <trkpt lat="37.755620000" lon="-4.544996000">
        <ele>218.5</ele>
        <time>2020-10-13T10:58:52Z</time>
      </trkpt>
      <trkpt lat="37.755532000" lon="-4.544894000">
        <ele>218.5</ele>
        <time>2020-10-13T10:58:54Z</time>
      </trkpt>
      <trkpt lat="37.755451000" lon="-4.544805000">
        <ele>218.6</ele>
        <time>2020-10-13T10:58:56Z</time>
      </trkpt>
      <trkpt lat="37.755371000" lon="-4.544725000">
        <ele>218.7</ele>
        <time>2020-10-13T10:58:58Z</time>
      </trkpt>
      <trkpt lat="37.755300000" lon="-4.544649000">
        <ele>218.7</ele>
        <time>2020-10-13T10:59:00Z</time>
      </trkpt>
      <trkpt lat="37.755223000" lon="-4.544574000">
        <ele>218.6</ele>
        <time>2020-10-13T10:59:02Z</time>
      </trkpt>
      <trkpt lat="37.755158000" lon="-4.544498000">
        <ele>218.5</ele>
        <time>2020-10-13T10:59:04Z</time>
      </trkpt>
      <trkpt lat="37.755085000" lon="-4.544430000">
        <ele>218.1</ele>
        <time>2020-10-13T10:59:06Z</time>
      </trkpt>
      <trkpt lat="37.755008000" lon="-4.544347000">
        <ele>217.7</ele>
        <time>2020-10-13T10:59:08Z</time>
      </trkpt>
      <trkpt lat="37.754926000" lon="-4.544259000">
        <ele>217.3</ele>
        <time>2020-10-13T10:59:10Z</time>
      </trkpt>
      <trkpt lat="37.754843000" lon="-4.544180000">
        <ele>216.8</ele>
        <time>2020-10-13T10:59:12Z</time>
      </trkpt>
      <trkpt lat="37.754764000" lon="-4.544091000">
        <ele>216.2</ele>
        <time>2020-10-13T10:59:14Z</time>
      </trkpt>
      <trkpt lat="37.754670000" lon="-4.543995000">
        <ele>215.5</ele>
        <time>2020-10-13T10:59:16Z</time>
      </trkpt>
      <trkpt lat="37.754577000" lon="-4.543909000">
        <ele>214.6</ele>
        <time>2020-10-13T10:59:18Z</time>
      </trkpt>
      <trkpt lat="37.754492000" lon="-4.543832000">
        <ele>213.7</ele>
        <time>2020-10-13T10:59:20Z</time>
      </trkpt>
      <trkpt lat="37.754423000" lon="-4.543763000">
        <ele>212.8</ele>
        <time>2020-10-13T10:59:22Z</time>
      </trkpt>
      <trkpt lat="37.754343000" lon="-4.543700000">
        <ele>211.8</ele>
        <time>2020-10-13T10:59:24Z</time>
      </trkpt>
      <trkpt lat="37.754248000" lon="-4.543616000">
        <ele>210.7</ele>
        <time>2020-10-13T10:59:26Z</time>
      </trkpt>
      <trkpt lat="37.754154000" lon="-4.543540000">
        <ele>209.6</ele>
        <time>2020-10-13T10:59:28Z</time>
      </trkpt>
      <trkpt lat="37.754045000" lon="-4.543458000">
        <ele>208.4</ele>
        <time>2020-10-13T10:59:30Z</time>
      </trkpt>
      <trkpt lat="37.753925000" lon="-4.543369000">
        <ele>207.2</ele>
        <time>2020-10-13T10:59:32Z</time>
      </trkpt>
      <trkpt lat="37.753793000" lon="-4.543288000">
        <ele>205.8</ele>
        <time>2020-10-13T10:59:34Z</time>
      </trkpt>
      <trkpt lat="37.753658000" lon="-4.543209000">
        <ele>204.5</ele>
        <time>2020-10-13T10:59:36Z</time>
      </trkpt>
      <trkpt lat="37.753519000" lon="-4.543133000">
        <ele>203.3</ele>
        <time>2020-10-13T10:59:38Z</time>
      </trkpt>
      <trkpt lat="37.753376000" lon="-4.543068000">
        <ele>202.0</ele>
        <time>2020-10-13T10:59:40Z</time>
      </trkpt>
      <trkpt lat="37.753296000" lon="-4.543037000">
        <ele>200.7</ele>
        <time>2020-10-13T10:59:41Z</time>
      </trkpt>
      <trkpt lat="37.753155000" lon="-4.542980000">
        <ele>199.4</ele>
        <time>2020-10-13T10:59:43Z</time>
      </trkpt>
      <trkpt lat="37.753008000" lon="-4.542908000">
        <ele>198.0</ele>
        <time>2020-10-13T10:59:45Z</time>
      </trkpt>
      <trkpt lat="37.752926000" lon="-4.542870000">
        <ele>196.7</ele>
        <time>2020-10-13T10:59:46Z</time>
      </trkpt>
      <trkpt lat="37.752844000" lon="-4.542832000">
        <ele>195.5</ele>
        <time>2020-10-13T10:59:47Z</time>
      </trkpt>
      <trkpt lat="37.752759000" lon="-4.542795000">
        <ele>194.3</ele>
        <time>2020-10-13T10:59:48Z</time>
      </trkpt>
      <trkpt lat="37.752675000" lon="-4.542758000">
        <ele>193.0</ele>
        <time>2020-10-13T10:59:49Z</time>
      </trkpt>
      <trkpt lat="37.752586000" lon="-4.542721000">
        <ele>191.8</ele>
        <time>2020-10-13T10:59:50Z</time>
      </trkpt>
      <trkpt lat="37.752501000" lon="-4.542680000">
        <ele>190.5</ele>
        <time>2020-10-13T10:59:51Z</time>
      </trkpt>
      <trkpt lat="37.752414000" lon="-4.542641000">
        <ele>189.3</ele>
        <time>2020-10-13T10:59:52Z</time>
      </trkpt>
      <trkpt lat="37.752326000" lon="-4.542594000">
        <ele>188.1</ele>
        <time>2020-10-13T10:59:53Z</time>
      </trkpt>
      <trkpt lat="37.752233000" lon="-4.542547000">
        <ele>186.9</ele>
        <time>2020-10-13T10:59:54Z</time>
      </trkpt>
      <trkpt lat="37.752137000" lon="-4.542502000">
        <ele>185.9</ele>
        <time>2020-10-13T10:59:55Z</time>
      </trkpt>
      <trkpt lat="37.752039000" lon="-4.542456000">
        <ele>185.1</ele>
        <time>2020-10-13T10:59:56Z</time>
      </trkpt>
      <trkpt lat="37.751937000" lon="-4.542410000">
        <ele>184.3</ele>
        <time>2020-10-13T10:59:57Z</time>
      </trkpt>
      <trkpt lat="37.751841000" lon="-4.542362000">
        <ele>183.5</ele>
        <time>2020-10-13T10:59:58Z</time>
      </trkpt>
      <trkpt lat="37.751744000" lon="-4.542313000">
        <ele>182.9</ele>
        <time>2020-10-13T10:59:59Z</time>
      </trkpt>
      <trkpt lat="37.751650000" lon="-4.542270000">
        <ele>182.4</ele>
        <time>2020-10-13T11:00:00Z</time>
      </trkpt>
      <trkpt lat="37.751558000" lon="-4.542225000">
        <ele>181.9</ele>
        <time>2020-10-13T11:00:01Z</time>
      </trkpt>
      <trkpt lat="37.751470000" lon="-4.542182000">
        <ele>181.6</ele>
        <time>2020-10-13T11:00:02Z</time>
      </trkpt>
      <trkpt lat="37.751384000" lon="-4.542135000">
        <ele>181.5</ele>
        <time>2020-10-13T11:00:03Z</time>
      </trkpt>
      <trkpt lat="37.751305000" lon="-4.542090000">
        <ele>181.4</ele>
        <time>2020-10-13T11:00:04Z</time>
      </trkpt>
      <trkpt lat="37.751226000" lon="-4.542050000">
        <ele>181.4</ele>
        <time>2020-10-13T11:00:05Z</time>
      </trkpt>
      <trkpt lat="37.751151000" lon="-4.542006000">
        <ele>181.4</ele>
        <time>2020-10-13T11:00:06Z</time>
      </trkpt>
      <trkpt lat="37.751075000" lon="-4.541963000">
        <ele>181.5</ele>
        <time>2020-10-13T11:00:07Z</time>
      </trkpt>
      <trkpt lat="37.750933000" lon="-4.541874000">
        <ele>181.6</ele>
        <time>2020-10-13T11:00:09Z</time>
      </trkpt>
      <trkpt lat="37.750791000" lon="-4.541781000">
        <ele>181.8</ele>
        <time>2020-10-13T11:00:11Z</time>
      </trkpt>
      <trkpt lat="37.750658000" lon="-4.541691000">
        <ele>182.0</ele>
        <time>2020-10-13T11:00:13Z</time>
      </trkpt>
      <trkpt lat="37.750528000" lon="-4.541604000">
        <ele>182.2</ele>
        <time>2020-10-13T11:00:15Z</time>
      </trkpt>
      <trkpt lat="37.750404000" lon="-4.541510000">
        <ele>182.4</ele>
        <time>2020-10-13T11:00:17Z</time>
      </trkpt>
      <trkpt lat="37.750288000" lon="-4.541418000">
        <ele>182.5</ele>
        <time>2020-10-13T11:00:19Z</time>
      </trkpt>
      <trkpt lat="37.750171000" lon="-4.541334000">
        <ele>182.7</ele>
        <time>2020-10-13T11:00:21Z</time>
      </trkpt>
      <trkpt lat="37.750063000" lon="-4.541247000">
        <ele>182.8</ele>
        <time>2020-10-13T11:00:23Z</time>
      </trkpt>
      <trkpt lat="37.749954000" lon="-4.541164000">
        <ele>182.9</ele>
        <time>2020-10-13T11:00:25Z</time>
      </trkpt>
      <trkpt lat="37.749854000" lon="-4.541084000">
        <ele>183.0</ele>
        <time>2020-10-13T11:00:27Z</time>
      </trkpt>
      <trkpt lat="37.749756000" lon="-4.541010000">
        <ele>183.0</ele>
        <time>2020-10-13T11:00:29Z</time>
      </trkpt>
      <trkpt lat="37.749666000" lon="-4.540938000">
        <ele>183.0</ele>
        <time>2020-10-13T11:00:31Z</time>
      </trkpt>
      <trkpt lat="37.749583000" lon="-4.540865000">
        <ele>183.1</ele>
        <time>2020-10-13T11:00:33Z</time>
      </trkpt>
      <trkpt lat="37.749496000" lon="-4.540796000">
        <ele>183.2</ele>
        <time>2020-10-13T11:00:35Z</time>
      </trkpt>
      <trkpt lat="37.749416000" lon="-4.540731000">
        <ele>183.4</ele>
        <time>2020-10-13T11:00:37Z</time>
      </trkpt>
      <trkpt lat="37.749340000" lon="-4.540674000">
        <ele>183.6</ele>
        <time>2020-10-13T11:00:39Z</time>
      </trkpt>
      <trkpt lat="37.749266000" lon="-4.540613000">
        <ele>183.9</ele>
        <time>2020-10-13T11:00:41Z</time>
      </trkpt>
      <trkpt lat="37.749192000" lon="-4.540552000">
        <ele>184.2</ele>
        <time>2020-10-13T11:00:43Z</time>
      </trkpt>
      <trkpt lat="37.749122000" lon="-4.540491000">
        <ele>184.5</ele>
        <time>2020-10-13T11:00:45Z</time>
      </trkpt>
      <trkpt lat="37.749021000" lon="-4.540405000">
        <ele>184.9</ele>
        <time>2020-10-13T11:00:48Z</time>
      </trkpt>
      <trkpt lat="37.748926000" lon="-4.540332000">
        <ele>185.4</ele>
        <time>2020-10-13T11:00:51Z</time>
      </trkpt>
      <trkpt lat="37.748846000" lon="-4.540274000">
        <ele>185.9</ele>
        <time>2020-10-13T11:00:54Z</time>
      </trkpt>
      <trkpt lat="37.748769000" lon="-4.540213000">
        <ele>186.5</ele>
        <time>2020-10-13T11:00:57Z</time>
      </trkpt>
      <trkpt lat="37.748688000" lon="-4.540146000">
        <ele>187.2</ele>
        <time>2020-10-13T11:01:00Z</time>
      </trkpt>
      <trkpt lat="37.748618000" lon="-4.540095000">
        <ele>188.0</ele>
        <time>2020-10-13T11:01:03Z</time>
      </trkpt>
      <trkpt lat="37.748536000" lon="-4.540024000">
        <ele>188.8</ele>
        <time>2020-10-13T11:01:07Z</time>
      </trkpt>
      <trkpt lat="37.748467000" lon="-4.539965000">
        <ele>189.6</ele>
        <time>2020-10-13T11:01:11Z</time>
      </trkpt>
      <trkpt lat="37.748396000" lon="-4.539907000">
        <ele>190.5</ele>
        <time>2020-10-13T11:01:15Z</time>
      </trkpt>
      <trkpt lat="37.748318000" lon="-4.539837000">
        <ele>191.5</ele>
        <time>2020-10-13T11:01:20Z</time>
      </trkpt>
      <trkpt lat="37.748244000" lon="-4.539770000">
        <ele>192.5</ele>
        <time>2020-10-13T11:01:25Z</time>
      </trkpt>
      <trkpt lat="37.748174000" lon="-4.539700000">
        <ele>193.6</ele>
        <time>2020-10-13T11:01:30Z</time>
      </trkpt>
      <trkpt lat="37.748105000" lon="-4.539638000">
        <ele>194.7</ele>
        <time>2020-10-13T11:01:35Z</time>
      </trkpt>
      <trkpt lat="37.748030000" lon="-4.539567000">
        <ele>195.7</ele>
        <time>2020-10-13T11:01:41Z</time>
      </trkpt>
      <trkpt lat="37.747963000" lon="-4.539507000">
        <ele>196.7</ele>
        <time>2020-10-13T11:01:46Z</time>
      </trkpt>
      <trkpt lat="37.747887000" lon="-4.539429000">
        <ele>197.8</ele>
        <time>2020-10-13T11:01:52Z</time>
      </trkpt>
      <trkpt lat="37.747812000" lon="-4.539362000">
        <ele>198.8</ele>
        <time>2020-10-13T11:01:58Z</time>
      </trkpt>
      <trkpt lat="37.747748000" lon="-4.539298000">
        <ele>199.8</ele>
        <time>2020-10-13T11:02:03Z</time>
      </trkpt>
      <trkpt lat="37.747681000" lon="-4.539227000">
        <ele>200.8</ele>
        <time>2020-10-13T11:02:08Z</time>
      </trkpt>
      <trkpt lat="37.747611000" lon="-4.539156000">
        <ele>201.8</ele>
        <time>2020-10-13T11:02:13Z</time>
      </trkpt>
      <trkpt lat="37.747547000" lon="-4.539082000">
        <ele>202.8</ele>
        <time>2020-10-13T11:02:18Z</time>
      </trkpt>
      <trkpt lat="37.747490000" lon="-4.539007000">
        <ele>203.8</ele>
        <time>2020-10-13T11:02:22Z</time>
      </trkpt>
      <trkpt lat="37.747419000" lon="-4.538934000">
        <ele>204.8</ele>
        <time>2020-10-13T11:02:27Z</time>
      </trkpt>
      <trkpt lat="37.747346000" lon="-4.538858000">
        <ele>205.8</ele>
        <time>2020-10-13T11:02:32Z</time>
      </trkpt>
      <trkpt lat="37.747282000" lon="-4.538780000">
        <ele>206.9</ele>
        <time>2020-10-13T11:02:36Z</time>
      </trkpt>
      <trkpt lat="37.747220000" lon="-4.538699000">
        <ele>208.0</ele>
        <time>2020-10-13T11:02:40Z</time>
      </trkpt>
      <trkpt lat="37.747154000" lon="-4.538625000">
        <ele>208.9</ele>
        <time>2020-10-13T11:02:44Z</time>
      </trkpt>
      <trkpt lat="37.747086000" lon="-4.538548000">
        <ele>209.7</ele>
        <time>2020-10-13T11:02:48Z</time>
      </trkpt>
      <trkpt lat="37.747018000" lon="-4.538460000">
        <ele>210.5</ele>
        <time>2020-10-13T11:02:52Z</time>
      </trkpt>
      <trkpt lat="37.746953000" lon="-4.538374000">
        <ele>211.1</ele>
        <time>2020-10-13T11:02:56Z</time>
      </trkpt>
      <trkpt lat="37.746883000" lon="-4.538286000">
        <ele>211.5</ele>
        <time>2020-10-13T11:03:00Z</time>
      </trkpt>
      <trkpt lat="37.746814000" lon="-4.538193000">
        <ele>211.9</ele>
        <time>2020-10-13T11:03:04Z</time>
      </trkpt>
      <trkpt lat="37.746741000" lon="-4.538094000">
        <ele>212.1</ele>
        <time>2020-10-13T11:03:08Z</time>
      </trkpt>
      <trkpt lat="37.746684000" lon="-4.538018000">
        <ele>212.2</ele>
        <time>2020-10-13T11:03:11Z</time>
      </trkpt>
      <trkpt lat="37.746621000" lon="-4.537938000">
        <ele>212.1</ele>
        <time>2020-10-13T11:03:14Z</time>
      </trkpt>
      <trkpt lat="37.746559000" lon="-4.537852000">
        <ele>211.9</ele>
        <time>2020-10-13T11:03:17Z</time>
      </trkpt>
      <trkpt lat="37.746495000" lon="-4.537765000">
        <ele>211.6</ele>
        <time>2020-10-13T11:03:20Z</time>
      </trkpt>
      <trkpt lat="37.746437000" lon="-4.537666000">
        <ele>211.3</ele>
        <time>2020-10-13T11:03:23Z</time>
      </trkpt>
      <trkpt lat="37.746359000" lon="-4.537576000">
        <ele>210.9</ele>
        <time>2020-10-13T11:03:26Z</time>
      </trkpt>
      <trkpt lat="37.746277000" lon="-4.537467000">
        <ele>210.5</ele>
        <time>2020-10-13T11:03:29Z</time>
      </trkpt>
      <trkpt lat="37.746215000" lon="-4.537390000">
        <ele>210.2</ele>
        <time>2020-10-13T11:03:31Z</time>
      </trkpt>
      <trkpt lat="37.746146000" lon="-4.537307000">
        <ele>209.9</ele>
        <time>2020-10-13T11:03:33Z</time>
      </trkpt>
      <trkpt lat="37.746072000" lon="-4.537219000">
        <ele>209.6</ele>
        <time>2020-10-13T11:03:35Z</time>
      </trkpt>
      <trkpt lat="37.745997000" lon="-4.537119000">
        <ele>209.5</ele>
        <time>2020-10-13T11:03:37Z</time>
      </trkpt>
      <trkpt lat="37.745914000" lon="-4.537017000">
        <ele>209.3</ele>
        <time>2020-10-13T11:03:39Z</time>
      </trkpt>
      <trkpt lat="37.745837000" lon="-4.536915000">
        <ele>209.2</ele>
        <time>2020-10-13T11:03:41Z</time>
      </trkpt>
      <trkpt lat="37.745758000" lon="-4.536813000">
        <ele>209.1</ele>
        <time>2020-10-13T11:03:43Z</time>
      </trkpt>
      <trkpt lat="37.745682000" lon="-4.536707000">
        <ele>209.0</ele>
        <time>2020-10-13T11:03:45Z</time>
      </trkpt>
      <trkpt lat="37.745608000" lon="-4.536612000">
        <ele>209.0</ele>
        <time>2020-10-13T11:03:47Z</time>
      </trkpt>
      <trkpt lat="37.745537000" lon="-4.536522000">
        <ele>209.1</ele>
        <time>2020-10-13T11:03:49Z</time>
      </trkpt>
      <trkpt lat="37.745476000" lon="-4.536441000">
        <ele>209.3</ele>
        <time>2020-10-13T11:03:51Z</time>
      </trkpt>
      <trkpt lat="37.745415000" lon="-4.536371000">
        <ele>209.5</ele>
        <time>2020-10-13T11:03:53Z</time>
      </trkpt>
      <trkpt lat="37.745339000" lon="-4.536272000">
        <ele>209.7</ele>
        <time>2020-10-13T11:03:56Z</time>
      </trkpt>
      <trkpt lat="37.745259000" lon="-4.536168000">
        <ele>210.0</ele>
        <time>2020-10-13T11:03:59Z</time>
      </trkpt>
      <trkpt lat="37.745202000" lon="-4.536091000">
        <ele>210.4</ele>
        <time>2020-10-13T11:04:01Z</time>
      </trkpt>
      <trkpt lat="37.745145000" lon="-4.536018000">
        <ele>210.7</ele>
        <time>2020-10-13T11:04:03Z</time>
      </trkpt>
      <trkpt lat="37.745074000" lon="-4.535931000">
        <ele>211.1</ele>
        <time>2020-10-13T11:04:06Z</time>
      </trkpt>
      <trkpt lat="37.745011000" lon="-4.535850000">
        <ele>211.4</ele>
        <time>2020-10-13T11:04:09Z</time>
      </trkpt>
      <trkpt lat="37.744951000" lon="-4.535761000">
        <ele>211.5</ele>
        <time>2020-10-13T11:04:12Z</time>
      </trkpt>
      <trkpt lat="37.744889000" lon="-4.535681000">
        <ele>211.6</ele>
        <time>2020-10-13T11:04:15Z</time>
      </trkpt>
      <trkpt lat="37.744827000" lon="-4.535600000">
        <ele>211.5</ele>
        <time>2020-10-13T11:04:18Z</time>
      </trkpt>
      <trkpt lat="37.744757000" lon="-4.535526000">
        <ele>211.4</ele>
        <time>2020-10-13T11:04:21Z</time>
      </trkpt>
      <trkpt lat="37.744683000" lon="-4.535440000">
        <ele>211.2</ele>
        <time>2020-10-13T11:04:24Z</time>
      </trkpt>
      <trkpt lat="37.744601000" lon="-4.535345000">
        <ele>210.9</ele>
        <time>2020-10-13T11:04:27Z</time>
      </trkpt>
      <trkpt lat="37.744510000" lon="-4.535257000">
        <ele>210.6</ele>
        <time>2020-10-13T11:04:30Z</time>
      </trkpt>
      <trkpt lat="37.744413000" lon="-4.535171000">
        <ele>210.3</ele>
        <time>2020-10-13T11:04:33Z</time>
      </trkpt>
      <trkpt lat="37.744346000" lon="-4.535111000">
        <ele>209.8</ele>
        <time>2020-10-13T11:04:35Z</time>
      </trkpt>
      <trkpt lat="37.744275000" lon="-4.535055000">
        <ele>209.4</ele>
        <time>2020-10-13T11:04:37Z</time>
      </trkpt>
      <trkpt lat="37.744198000" lon="-4.534999000">
        <ele>208.9</ele>
        <time>2020-10-13T11:04:39Z</time>
      </trkpt>
      <trkpt lat="37.744102000" lon="-4.534943000">
        <ele>208.5</ele>
        <time>2020-10-13T11:04:41Z</time>
      </trkpt>
      <trkpt lat="37.743999000" lon="-4.534878000">
        <ele>207.9</ele>
        <time>2020-10-13T11:04:43Z</time>
      </trkpt>
      <trkpt lat="37.743886000" lon="-4.534810000">
        <ele>207.4</ele>
        <time>2020-10-13T11:04:45Z</time>
      </trkpt>
      <trkpt lat="37.743754000" lon="-4.534739000">
        <ele>206.6</ele>
        <time>2020-10-13T11:04:47Z</time>
      </trkpt>
      <trkpt lat="37.743623000" lon="-4.534668000">
        <ele>205.8</ele>
        <time>2020-10-13T11:04:49Z</time>
      </trkpt>
      <trkpt lat="37.743489000" lon="-4.534595000">
        <ele>204.8</ele>
        <time>2020-10-13T11:04:51Z</time>
      </trkpt>
      <trkpt lat="37.743350000" lon="-4.534518000">
        <ele>203.7</ele>
        <time>2020-10-13T11:04:53Z</time>
      </trkpt>
      <trkpt lat="37.743218000" lon="-4.534439000">
        <ele>202.5</ele>
        <time>2020-10-13T11:04:55Z</time>
      </trkpt>
      <trkpt lat="37.743077000" lon="-4.534355000">
        <ele>201.5</ele>
        <time>2020-10-13T11:04:57Z</time>
      </trkpt>
      <trkpt lat="37.742936000" lon="-4.534278000">
        <ele>200.4</ele>
        <time>2020-10-13T11:04:59Z</time>
      </trkpt>
      <trkpt lat="37.742798000" lon="-4.534208000">
        <ele>199.5</ele>
        <time>2020-10-13T11:05:01Z</time>
      </trkpt>
      <trkpt lat="37.742662000" lon="-4.534144000">
        <ele>198.8</ele>
        <time>2020-10-13T11:05:03Z</time>
      </trkpt>
      <trkpt lat="37.742539000" lon="-4.534087000">
        <ele>198.5</ele>
        <time>2020-10-13T11:05:05Z</time>
      </trkpt>
      <trkpt lat="37.742421000" lon="-4.534053000">
        <ele>198.2</ele>
        <time>2020-10-13T11:05:07Z</time>
      </trkpt>
      <trkpt lat="37.742291000" lon="-4.534050000">
        <ele>198.1</ele>
        <time>2020-10-13T11:05:09Z</time>
      </trkpt>
      <trkpt lat="37.742145000" lon="-4.534050000">
        <ele>198.0</ele>
        <time>2020-10-13T11:05:11Z</time>
      </trkpt>
      <trkpt lat="37.742006000" lon="-4.534046000">
        <ele>198.0</ele>
        <time>2020-10-13T11:05:13Z</time>
      </trkpt>
      <trkpt lat="37.741874000" lon="-4.534038000">
        <ele>197.9</ele>
        <time>2020-10-13T11:05:15Z</time>
      </trkpt>
      <trkpt lat="37.741739000" lon="-4.534014000">
        <ele>197.8</ele>
        <time>2020-10-13T11:05:17Z</time>
      </trkpt>
      <trkpt lat="37.741602000" lon="-4.533963000">
        <ele>197.6</ele>
        <time>2020-10-13T11:05:19Z</time>
      </trkpt>
      <trkpt lat="37.741471000" lon="-4.533891000">
        <ele>197.5</ele>
        <time>2020-10-13T11:05:21Z</time>
      </trkpt>
      <trkpt lat="37.741349000" lon="-4.533785000">
        <ele>197.2</ele>
        <time>2020-10-13T11:05:23Z</time>
      </trkpt>
      <trkpt lat="37.741240000" lon="-4.533648000">
        <ele>196.6</ele>
        <time>2020-10-13T11:05:25Z</time>
      </trkpt>
      <trkpt lat="37.741149000" lon="-4.533488000">
        <ele>195.9</ele>
        <time>2020-10-13T11:05:27Z</time>
      </trkpt>
      <trkpt lat="37.741070000" lon="-4.533316000">
        <ele>195.1</ele>
        <time>2020-10-13T11:05:29Z</time>
      </trkpt>
      <trkpt lat="37.741005000" lon="-4.533136000">
        <ele>194.2</ele>
        <time>2020-10-13T11:05:31Z</time>
      </trkpt>
      <trkpt lat="37.740970000" lon="-4.533043000">
        <ele>193.2</ele>
        <time>2020-10-13T11:05:32Z</time>
      </trkpt>
      <trkpt lat="37.740903000" lon="-4.532864000">
        <ele>192.2</ele>
        <time>2020-10-13T11:05:34Z</time>
      </trkpt>
      <trkpt lat="37.740828000" lon="-4.532700000">
        <ele>191.4</ele>
        <time>2020-10-13T11:05:36Z</time>
      </trkpt>
      <trkpt lat="37.740748000" lon="-4.532553000">
        <ele>190.5</ele>
        <time>2020-10-13T11:05:38Z</time>
      </trkpt>
      <trkpt lat="37.740664000" lon="-4.532423000">
        <ele>189.8</ele>
        <time>2020-10-13T11:05:40Z</time>
      </trkpt>
      <trkpt lat="37.740578000" lon="-4.532300000">
        <ele>189.1</ele>
        <time>2020-10-13T11:05:42Z</time>
      </trkpt>
      <trkpt lat="37.740487000" lon="-4.532191000">
        <ele>188.4</ele>
        <time>2020-10-13T11:05:44Z</time>
      </trkpt>
      <trkpt lat="37.740402000" lon="-4.532076000">
        <ele>187.7</ele>
        <time>2020-10-13T11:05:46Z</time>
      </trkpt>
      <trkpt lat="37.740320000" lon="-4.531965000">
        <ele>187.2</ele>
        <time>2020-10-13T11:05:48Z</time>
      </trkpt>
      <trkpt lat="37.740241000" lon="-4.531863000">
        <ele>186.7</ele>
        <time>2020-10-13T11:05:50Z</time>
      </trkpt>
      <trkpt lat="37.740163000" lon="-4.531768000">
        <ele>186.5</ele>
        <time>2020-10-13T11:05:52Z</time>
      </trkpt>
      <trkpt lat="37.740088000" lon="-4.531669000">
        <ele>186.4</ele>
        <time>2020-10-13T11:05:54Z</time>
      </trkpt>
      <trkpt lat="37.740014000" lon="-4.531569000">
        <ele>186.4</ele>
        <time>2020-10-13T11:05:56Z</time>
      </trkpt>
      <trkpt lat="37.739940000" lon="-4.531477000">
        <ele>186.4</ele>
        <time>2020-10-13T11:05:58Z</time>
      </trkpt>
      <trkpt lat="37.739869000" lon="-4.531385000">
        <ele>186.5</ele>
        <time>2020-10-13T11:06:00Z</time>
      </trkpt>
      <trkpt lat="37.739798000" lon="-4.531293000">
        <ele>186.5</ele>
        <time>2020-10-13T11:06:02Z</time>
      </trkpt>
      <trkpt lat="37.739729000" lon="-4.531199000">
        <ele>186.6</ele>
        <time>2020-10-13T11:06:04Z</time>
      </trkpt>
      <trkpt lat="37.739654000" lon="-4.531105000">
        <ele>186.7</ele>
        <time>2020-10-13T11:06:06Z</time>
      </trkpt>
      <trkpt lat="37.739580000" lon="-4.531009000">
        <ele>186.8</ele>
        <time>2020-10-13T11:06:08Z</time>
      </trkpt>
      <trkpt lat="37.739515000" lon="-4.530924000">
        <ele>186.9</ele>
        <time>2020-10-13T11:06:10Z</time>
      </trkpt>
      <trkpt lat="37.739452000" lon="-4.530844000">
        <ele>187.0</ele>
        <time>2020-10-13T11:06:12Z</time>
      </trkpt>
      <trkpt lat="37.739383000" lon="-4.530748000">
        <ele>187.0</ele>
        <time>2020-10-13T11:06:14Z</time>
      </trkpt>
      <trkpt lat="37.739313000" lon="-4.530656000">
        <ele>187.1</ele>
        <time>2020-10-13T11:06:16Z</time>
      </trkpt>
      <trkpt lat="37.739244000" lon="-4.530570000">
        <ele>187.2</ele>
        <time>2020-10-13T11:06:18Z</time>
      </trkpt>
      <trkpt lat="37.739176000" lon="-4.530485000">
        <ele>187.3</ele>
        <time>2020-10-13T11:06:20Z</time>
      </trkpt>
      <trkpt lat="37.739107000" lon="-4.530396000">
        <ele>187.4</ele>
        <time>2020-10-13T11:06:22Z</time>
      </trkpt>
      <trkpt lat="37.739038000" lon="-4.530300000">
        <ele>187.5</ele>
        <time>2020-10-13T11:06:24Z</time>
      </trkpt>
      <trkpt lat="37.738973000" lon="-4.530206000">
        <ele>187.5</ele>
        <time>2020-10-13T11:06:26Z</time>
      </trkpt>
      <trkpt lat="37.738904000" lon="-4.530109000">
        <ele>187.5</ele>
        <time>2020-10-13T11:06:28Z</time>
      </trkpt>
      <trkpt lat="37.738836000" lon="-4.530022000">
        <ele>187.5</ele>
        <time>2020-10-13T11:06:30Z</time>
      </trkpt>
      <trkpt lat="37.738773000" lon="-4.529934000">
        <ele>187.6</ele>
        <time>2020-10-13T11:06:32Z</time>
      </trkpt>
      <trkpt lat="37.738712000" lon="-4.529845000">
        <ele>187.8</ele>
        <time>2020-10-13T11:06:34Z</time>
      </trkpt>
      <trkpt lat="37.738654000" lon="-4.529744000">
        <ele>188.1</ele>
        <time>2020-10-13T11:06:36Z</time>
      </trkpt>
      <trkpt lat="37.738599000" lon="-4.529651000">
        <ele>188.4</ele>
        <time>2020-10-13T11:06:38Z</time>
      </trkpt>
      <trkpt lat="37.738549000" lon="-4.529541000">
        <ele>188.8</ele>
        <time>2020-10-13T11:06:40Z</time>
      </trkpt>
      <trkpt lat="37.738508000" lon="-4.529428000">
        <ele>189.4</ele>
        <time>2020-10-13T11:06:42Z</time>
      </trkpt>
      <trkpt lat="37.738469000" lon="-4.529319000">
        <ele>190.0</ele>
        <time>2020-10-13T11:06:44Z</time>
      </trkpt>
      <trkpt lat="37.738434000" lon="-4.529213000">
        <ele>190.7</ele>
        <time>2020-10-13T11:06:46Z</time>
      </trkpt>
      <trkpt lat="37.738398000" lon="-4.529106000">
        <ele>191.5</ele>
        <time>2020-10-13T11:06:48Z</time>
      </trkpt>
      <trkpt lat="37.738362000" lon="-4.528997000">
        <ele>192.5</ele>
        <time>2020-10-13T11:06:50Z</time>
      </trkpt>
      <trkpt lat="37.738324000" lon="-4.528891000">
        <ele>193.4</ele>
        <time>2020-10-13T11:06:52Z</time>
      </trkpt>
      <trkpt lat="37.738292000" lon="-4.528786000">
        <ele>194.2</ele>
        <time>2020-10-13T11:06:54Z</time>
      </trkpt>
      <trkpt lat="37.738256000" lon="-4.528678000">
        <ele>194.8</ele>
        <time>2020-10-13T11:06:56Z</time>
      </trkpt>
      <trkpt lat="37.738224000" lon="-4.528576000">
        <ele>195.3</ele>
        <time>2020-10-13T11:06:58Z</time>
      </trkpt>
      <trkpt lat="37.738190000" lon="-4.528475000">
        <ele>195.5</ele>
        <time>2020-10-13T11:07:00Z</time>
      </trkpt>
      <trkpt lat="37.738158000" lon="-4.528377000">
        <ele>195.5</ele>
        <time>2020-10-13T11:07:02Z</time>
      </trkpt>
      <trkpt lat="37.738112000" lon="-4.528237000">
        <ele>195.4</ele>
        <time>2020-10-13T11:07:05Z</time>
      </trkpt>
      <trkpt lat="37.738070000" lon="-4.528099000">
        <ele>195.0</ele>
        <time>2020-10-13T11:07:08Z</time>
      </trkpt>
      <trkpt lat="37.738015000" lon="-4.527966000">
        <ele>194.5</ele>
        <time>2020-10-13T11:07:11Z</time>
      </trkpt>
      <trkpt lat="37.737975000" lon="-4.527875000">
        <ele>194.1</ele>
        <time>2020-10-13T11:07:13Z</time>
      </trkpt>
      <trkpt lat="37.737930000" lon="-4.527783000">
        <ele>193.5</ele>
        <time>2020-10-13T11:07:15Z</time>
      </trkpt>
      <trkpt lat="37.737880000" lon="-4.527695000">
        <ele>192.7</ele>
        <time>2020-10-13T11:07:17Z</time>
      </trkpt>
      <trkpt lat="37.737826000" lon="-4.527612000">
        <ele>192.1</ele>
        <time>2020-10-13T11:07:19Z</time>
      </trkpt>
      <trkpt lat="37.737766000" lon="-4.527533000">
        <ele>191.5</ele>
        <time>2020-10-13T11:07:21Z</time>
      </trkpt>
      <trkpt lat="37.737706000" lon="-4.527454000">
        <ele>191.1</ele>
        <time>2020-10-13T11:07:23Z</time>
      </trkpt>
      <trkpt lat="37.737620000" lon="-4.527347000">
        <ele>190.7</ele>
        <time>2020-10-13T11:07:26Z</time>
      </trkpt>
      <trkpt lat="37.737557000" lon="-4.527280000">
        <ele>190.5</ele>
        <time>2020-10-13T11:07:28Z</time>
      </trkpt>
      <trkpt lat="37.737491000" lon="-4.527213000">
        <ele>190.4</ele>
        <time>2020-10-13T11:07:30Z</time>
      </trkpt>
      <trkpt lat="37.737426000" lon="-4.527143000">
        <ele>190.4</ele>
        <time>2020-10-13T11:07:32Z</time>
      </trkpt>
      <trkpt lat="37.737363000" lon="-4.527074000">
        <ele>190.4</ele>
        <time>2020-10-13T11:07:34Z</time>
      </trkpt>
      <trkpt lat="37.737298000" lon="-4.527006000">
        <ele>190.4</ele>
        <time>2020-10-13T11:07:36Z</time>
      </trkpt>
      <trkpt lat="37.737232000" lon="-4.526939000">
        <ele>190.5</ele>
        <time>2020-10-13T11:07:38Z</time>
      </trkpt>
      <trkpt lat="37.737164000" lon="-4.526874000">
        <ele>190.5</ele>
        <time>2020-10-13T11:07:40Z</time>
      </trkpt>
      <trkpt lat="37.737101000" lon="-4.526804000">
        <ele>190.6</ele>
        <time>2020-10-13T11:07:42Z</time>
      </trkpt>
      <trkpt lat="37.737038000" lon="-4.526736000">
        <ele>190.8</ele>
        <time>2020-10-13T11:07:44Z</time>
      </trkpt>
      <trkpt lat="37.736978000" lon="-4.526664000">
        <ele>191.0</ele>
        <time>2020-10-13T11:07:46Z</time>
      </trkpt>
      <trkpt lat="37.736894000" lon="-4.526554000">
        <ele>191.3</ele>
        <time>2020-10-13T11:07:49Z</time>
      </trkpt>
      <trkpt lat="37.736839000" lon="-4.526475000">
        <ele>191.5</ele>
        <time>2020-10-13T11:07:51Z</time>
      </trkpt>
      <trkpt lat="37.736765000" lon="-4.526351000">
        <ele>191.7</ele>
        <time>2020-10-13T11:07:54Z</time>
      </trkpt>
      <trkpt lat="37.736717000" lon="-4.526264000">
        <ele>191.8</ele>
        <time>2020-10-13T11:07:56Z</time>
      </trkpt>
      <trkpt lat="37.736669000" lon="-4.526173000">
        <ele>191.9</ele>
        <time>2020-10-13T11:07:58Z</time>
      </trkpt>
      <trkpt lat="37.736625000" lon="-4.526081000">
        <ele>192.0</ele>
        <time>2020-10-13T11:08:00Z</time>
      </trkpt>
      <trkpt lat="37.736580000" lon="-4.525989000">
        <ele>192.2</ele>
        <time>2020-10-13T11:08:02Z</time>
      </trkpt>
      <trkpt lat="37.736540000" lon="-4.525896000">
        <ele>192.4</ele>
        <time>2020-10-13T11:08:04Z</time>
      </trkpt>
      <trkpt lat="37.736509000" lon="-4.525796000">
        <ele>192.5</ele>
        <time>2020-10-13T11:08:06Z</time>
      </trkpt>
      <trkpt lat="37.736475000" lon="-4.525694000">
        <ele>192.6</ele>
        <time>2020-10-13T11:08:08Z</time>
      </trkpt>
      <trkpt lat="37.736444000" lon="-4.525592000">
        <ele>192.7</ele>
        <time>2020-10-13T11:08:10Z</time>
      </trkpt>
      <trkpt lat="37.736416000" lon="-4.525489000">
        <ele>192.7</ele>
        <time>2020-10-13T11:08:12Z</time>
      </trkpt>
      <trkpt lat="37.736387000" lon="-4.525386000">
        <ele>192.7</ele>
        <time>2020-10-13T11:08:14Z</time>
      </trkpt>
      <trkpt lat="37.736360000" lon="-4.525283000">
        <ele>192.6</ele>
        <time>2020-10-13T11:08:16Z</time>
      </trkpt>
      <trkpt lat="37.736331000" lon="-4.525185000">
        <ele>192.6</ele>
        <time>2020-10-13T11:08:18Z</time>
      </trkpt>
      <trkpt lat="37.736302000" lon="-4.525083000">
        <ele>192.6</ele>
        <time>2020-10-13T11:08:20Z</time>
      </trkpt>
      <trkpt lat="37.736269000" lon="-4.524983000">
        <ele>192.6</ele>
        <time>2020-10-13T11:08:22Z</time>
      </trkpt>
      <trkpt lat="37.736242000" lon="-4.524875000">
        <ele>192.5</ele>
        <time>2020-10-13T11:08:24Z</time>
      </trkpt>
      <trkpt lat="37.736213000" lon="-4.524766000">
        <ele>192.5</ele>
        <time>2020-10-13T11:08:26Z</time>
      </trkpt>
      <trkpt lat="37.736190000" lon="-4.524650000">
        <ele>192.5</ele>
        <time>2020-10-13T11:08:28Z</time>
      </trkpt>
      <trkpt lat="37.736164000" lon="-4.524534000">
        <ele>192.5</ele>
        <time>2020-10-13T11:08:30Z</time>
      </trkpt>
      <trkpt lat="37.736134000" lon="-4.524420000">
        <ele>192.5</ele>
        <time>2020-10-13T11:08:32Z</time>
      </trkpt>
      <trkpt lat="37.736099000" lon="-4.524304000">
        <ele>192.5</ele>
        <time>2020-10-13T11:08:34Z</time>
      </trkpt>
      <trkpt lat="37.736060000" lon="-4.524194000">
        <ele>192.5</ele>
        <time>2020-10-13T11:08:36Z</time>
      </trkpt>
      <trkpt lat="37.736020000" lon="-4.524082000">
        <ele>192.7</ele>
        <time>2020-10-13T11:08:38Z</time>
      </trkpt>
      <trkpt lat="37.735982000" lon="-4.523967000">
        <ele>192.9</ele>
        <time>2020-10-13T11:08:40Z</time>
      </trkpt>
      <trkpt lat="37.735938000" lon="-4.523853000">
        <ele>193.1</ele>
        <time>2020-10-13T11:08:42Z</time>
      </trkpt>
      <trkpt lat="37.735895000" lon="-4.523739000">
        <ele>193.3</ele>
        <time>2020-10-13T11:08:44Z</time>
      </trkpt>
      <trkpt lat="37.735852000" lon="-4.523627000">
        <ele>193.5</ele>
        <time>2020-10-13T11:08:46Z</time>
      </trkpt>
      <trkpt lat="37.735804000" lon="-4.523511000">
        <ele>193.6</ele>
        <time>2020-10-13T11:08:48Z</time>
      </trkpt>
      <trkpt lat="37.735749000" lon="-4.523394000">
        <ele>193.7</ele>
        <time>2020-10-13T11:08:50Z</time>
      </trkpt>
      <trkpt lat="37.735693000" lon="-4.523281000">
        <ele>193.8</ele>
        <time>2020-10-13T11:08:52Z</time>
      </trkpt>
      <trkpt lat="37.735628000" lon="-4.523172000">
        <ele>193.9</ele>
        <time>2020-10-13T11:08:54Z</time>
      </trkpt>
      <trkpt lat="37.735561000" lon="-4.523075000">
        <ele>194.0</ele>
        <time>2020-10-13T11:08:56Z</time>
      </trkpt>
      <trkpt lat="37.735484000" lon="-4.522991000">
        <ele>194.0</ele>
        <time>2020-10-13T11:08:58Z</time>
      </trkpt>
      <trkpt lat="37.735409000" lon="-4.522910000">
        <ele>194.1</ele>
        <time>2020-10-13T11:09:00Z</time>
      </trkpt>
      <trkpt lat="37.735340000" lon="-4.522830000">
        <ele>194.2</ele>
        <time>2020-10-13T11:09:02Z</time>
      </trkpt>
      <trkpt lat="37.735269000" lon="-4.522756000">
        <ele>194.3</ele>
        <time>2020-10-13T11:09:04Z</time>
      </trkpt>
      <trkpt lat="37.735205000" lon="-4.522682000">
        <ele>194.5</ele>
        <time>2020-10-13T11:09:06Z</time>
      </trkpt>
      <trkpt lat="37.735114000" lon="-4.522590000">
        <ele>194.6</ele>
        <time>2020-10-13T11:09:09Z</time>
      </trkpt>
      <trkpt lat="37.735034000" lon="-4.522505000">
        <ele>194.8</ele>
        <time>2020-10-13T11:09:12Z</time>
      </trkpt>
      <trkpt lat="37.734939000" lon="-4.522420000">
        <ele>195.1</ele>
        <time>2020-10-13T11:09:15Z</time>
      </trkpt>
      <trkpt lat="37.734875000" lon="-4.522355000">
        <ele>195.4</ele>
        <time>2020-10-13T11:09:17Z</time>
      </trkpt>
      <trkpt lat="37.734801000" lon="-4.522282000">
        <ele>195.6</ele>
        <time>2020-10-13T11:09:20Z</time>
      </trkpt>
      <trkpt lat="37.734715000" lon="-4.522203000">
        <ele>196.0</ele>
        <time>2020-10-13T11:09:23Z</time>
      </trkpt>
      <trkpt lat="37.734649000" lon="-4.522138000">
        <ele>196.4</ele>
        <time>2020-10-13T11:09:25Z</time>
      </trkpt>
      <trkpt lat="37.734564000" lon="-4.522056000">
        <ele>196.7</ele>
        <time>2020-10-13T11:09:28Z</time>
      </trkpt>
      <trkpt lat="37.734492000" lon="-4.521979000">
        <ele>197.1</ele>
        <time>2020-10-13T11:09:31Z</time>
      </trkpt>
      <trkpt lat="37.734418000" lon="-4.521906000">
        <ele>197.5</ele>
        <time>2020-10-13T11:09:34Z</time>
      </trkpt>
      <trkpt lat="37.734339000" lon="-4.521836000">
        <ele>197.9</ele>
        <time>2020-10-13T11:09:37Z</time>
      </trkpt>
      <trkpt lat="37.734263000" lon="-4.521764000">
        <ele>198.4</ele>
        <time>2020-10-13T11:09:40Z</time>
      </trkpt>
      <trkpt lat="37.734188000" lon="-4.521690000">
        <ele>198.8</ele>
        <time>2020-10-13T11:09:43Z</time>
      </trkpt>
      <trkpt lat="37.734114000" lon="-4.521621000">
        <ele>199.2</ele>
        <time>2020-10-13T11:09:46Z</time>
      </trkpt>
      <trkpt lat="37.734048000" lon="-4.521557000">
        <ele>199.6</ele>
        <time>2020-10-13T11:09:49Z</time>
      </trkpt>
      <trkpt lat="37.733970000" lon="-4.521479000">
        <ele>200.1</ele>
        <time>2020-10-13T11:09:53Z</time>
      </trkpt>
      <trkpt lat="37.733900000" lon="-4.521403000">
        <ele>200.5</ele>
        <time>2020-10-13T11:09:56Z</time>
      </trkpt>
      <trkpt lat="37.733829000" lon="-4.521333000">
        <ele>201.0</ele>
        <time>2020-10-13T11:09:59Z</time>
      </trkpt>
      <trkpt lat="37.733755000" lon="-4.521253000">
        <ele>201.5</ele>
        <time>2020-10-13T11:10:03Z</time>
      </trkpt>
      <trkpt lat="37.733673000" lon="-4.521177000">
        <ele>201.9</ele>
        <time>2020-10-13T11:10:07Z</time>
      </trkpt>
      <trkpt lat="37.733603000" lon="-4.521108000">
        <ele>202.4</ele>
        <time>2020-10-13T11:10:10Z</time>
      </trkpt>
      <trkpt lat="37.733533000" lon="-4.521034000">
        <ele>202.8</ele>
        <time>2020-10-13T11:10:14Z</time>
      </trkpt>
      <trkpt lat="37.733451000" lon="-4.520954000">
        <ele>203.3</ele>
        <time>2020-10-13T11:10:18Z</time>
      </trkpt>
      <trkpt lat="37.733385000" lon="-4.520892000">
        <ele>203.7</ele>
        <time>2020-10-13T11:10:21Z</time>
      </trkpt>
      <trkpt lat="37.733320000" lon="-4.520829000">
        <ele>204.3</ele>
        <time>2020-10-13T11:10:24Z</time>
      </trkpt>
      <trkpt lat="37.733236000" lon="-4.520746000">
        <ele>204.8</ele>
        <time>2020-10-13T11:10:28Z</time>
      </trkpt>
      <trkpt lat="37.733153000" lon="-4.520657000">
        <ele>205.4</ele>
        <time>2020-10-13T11:10:32Z</time>
      </trkpt>
      <trkpt lat="37.733086000" lon="-4.520594000">
        <ele>205.8</ele>
        <time>2020-10-13T11:10:35Z</time>
      </trkpt>
      <trkpt lat="37.733007000" lon="-4.520516000">
        <ele>206.3</ele>
        <time>2020-10-13T11:10:39Z</time>
      </trkpt>
      <trkpt lat="37.732927000" lon="-4.520443000">
        <ele>206.6</ele>
        <time>2020-10-13T11:10:43Z</time>
      </trkpt>
      <trkpt lat="37.732852000" lon="-4.520365000">
        <ele>207.0</ele>
        <time>2020-10-13T11:10:47Z</time>
      </trkpt>
      <trkpt lat="37.732779000" lon="-4.520289000">
        <ele>207.3</ele>
        <time>2020-10-13T11:10:51Z</time>
      </trkpt>
      <trkpt lat="37.732694000" lon="-4.520214000">
        <ele>207.5</ele>
        <time>2020-10-13T11:10:55Z</time>
      </trkpt>
      <trkpt lat="37.732611000" lon="-4.520137000">
        <ele>207.7</ele>
        <time>2020-10-13T11:10:59Z</time>
      </trkpt>
      <trkpt lat="37.732529000" lon="-4.520058000">
        <ele>207.9</ele>
        <time>2020-10-13T11:11:03Z</time>
      </trkpt>
      <trkpt lat="37.732451000" lon="-4.519971000">
        <ele>208.1</ele>
        <time>2020-10-13T11:11:07Z</time>
      </trkpt>
      <trkpt lat="37.732365000" lon="-4.519886000">
        <ele>208.2</ele>
        <time>2020-10-13T11:11:11Z</time>
      </trkpt>
      <trkpt lat="37.732299000" lon="-4.519807000">
        <ele>208.3</ele>
        <time>2020-10-13T11:11:14Z</time>
      </trkpt>
      <trkpt lat="37.732231000" lon="-4.519735000">
        <ele>208.5</ele>
        <time>2020-10-13T11:11:17Z</time>
      </trkpt>
      <trkpt lat="37.732161000" lon="-4.519657000">
        <ele>208.7</ele>
        <time>2020-10-13T11:11:20Z</time>
      </trkpt>
      <trkpt lat="37.732090000" lon="-4.519579000">
        <ele>209.1</ele>
        <time>2020-10-13T11:11:23Z</time>
      </trkpt>
      <trkpt lat="37.732019000" lon="-4.519498000">
        <ele>209.5</ele>
        <time>2020-10-13T11:11:26Z</time>
      </trkpt>
      <trkpt lat="37.731945000" lon="-4.519415000">
        <ele>210.1</ele>
        <time>2020-10-13T11:11:29Z</time>
      </trkpt>
      <trkpt lat="37.731874000" lon="-4.519332000">
        <ele>210.7</ele>
        <time>2020-10-13T11:11:32Z</time>
      </trkpt>
      <trkpt lat="37.731806000" lon="-4.519246000">
        <ele>211.5</ele>
        <time>2020-10-13T11:11:35Z</time>
      </trkpt>
      <trkpt lat="37.731743000" lon="-4.519154000">
        <ele>212.4</ele>
        <time>2020-10-13T11:11:38Z</time>
      </trkpt>
      <trkpt lat="37.731676000" lon="-4.519064000">
        <ele>213.3</ele>
        <time>2020-10-13T11:11:41Z</time>
      </trkpt>
      <trkpt lat="37.731609000" lon="-4.518974000">
        <ele>214.2</ele>
        <time>2020-10-13T11:11:44Z</time>
      </trkpt>
      <trkpt lat="37.731539000" lon="-4.518893000">
        <ele>215.1</ele>
        <time>2020-10-13T11:11:47Z</time>
      </trkpt>
      <trkpt lat="37.731472000" lon="-4.518811000">
        <ele>215.8</ele>
        <time>2020-10-13T11:11:50Z</time>
      </trkpt>
      <trkpt lat="37.731402000" lon="-4.518717000">
        <ele>216.3</ele>
        <time>2020-10-13T11:11:53Z</time>
      </trkpt>
      <trkpt lat="37.731332000" lon="-4.518611000">
        <ele>216.5</ele>
        <time>2020-10-13T11:11:56Z</time>
      </trkpt>
      <trkpt lat="37.731256000" lon="-4.518510000">
        <ele>216.6</ele>
        <time>2020-10-13T11:11:59Z</time>
      </trkpt>
      <trkpt lat="37.731183000" lon="-4.518395000">
        <ele>216.5</ele>
        <time>2020-10-13T11:12:02Z</time>
      </trkpt>
      <trkpt lat="37.731115000" lon="-4.518281000">
        <ele>216.1</ele>
        <time>2020-10-13T11:12:05Z</time>
      </trkpt>
      <trkpt lat="37.731041000" lon="-4.518164000">
        <ele>215.5</ele>
        <time>2020-10-13T11:12:08Z</time>
      </trkpt>
      <trkpt lat="37.730986000" lon="-4.518079000">
        <ele>214.7</ele>
        <time>2020-10-13T11:12:10Z</time>
      </trkpt>
      <trkpt lat="37.730925000" lon="-4.517986000">
        <ele>213.7</ele>
        <time>2020-10-13T11:12:12Z</time>
      </trkpt>
      <trkpt lat="37.730868000" lon="-4.517892000">
        <ele>212.6</ele>
        <time>2020-10-13T11:12:14Z</time>
      </trkpt>
      <trkpt lat="37.730814000" lon="-4.517800000">
        <ele>211.4</ele>
        <time>2020-10-13T11:12:16Z</time>
      </trkpt>
      <trkpt lat="37.730768000" lon="-4.517709000">
        <ele>210.1</ele>
        <time>2020-10-13T11:12:18Z</time>
      </trkpt>
      <trkpt lat="37.730692000" lon="-4.517589000">
        <ele>209.0</ele>
        <time>2020-10-13T11:12:21Z</time>
      </trkpt>
      <trkpt lat="37.730639000" lon="-4.517491000">
        <ele>207.9</ele>
        <time>2020-10-13T11:12:23Z</time>
      </trkpt>
      <trkpt lat="37.730581000" lon="-4.517400000">
        <ele>206.9</ele>
        <time>2020-10-13T11:12:25Z</time>
      </trkpt>
      <trkpt lat="37.730520000" lon="-4.517303000">
        <ele>206.0</ele>
        <time>2020-10-13T11:12:27Z</time>
      </trkpt>
      <trkpt lat="37.730448000" lon="-4.517198000">
        <ele>205.2</ele>
        <time>2020-10-13T11:12:29Z</time>
      </trkpt>
      <trkpt lat="37.730376000" lon="-4.517071000">
        <ele>204.5</ele>
        <time>2020-10-13T11:12:31Z</time>
      </trkpt>
      <trkpt lat="37.730298000" lon="-4.516947000">
        <ele>204.0</ele>
        <time>2020-10-13T11:12:33Z</time>
      </trkpt>
      <trkpt lat="37.730225000" lon="-4.516827000">
        <ele>203.5</ele>
        <time>2020-10-13T11:12:35Z</time>
      </trkpt>
      <trkpt lat="37.730157000" lon="-4.516712000">
        <ele>203.3</ele>
        <time>2020-10-13T11:12:37Z</time>
      </trkpt>
      <trkpt lat="37.730088000" lon="-4.516617000">
        <ele>203.2</ele>
        <time>2020-10-13T11:12:39Z</time>
      </trkpt>
      <trkpt lat="37.730034000" lon="-4.516525000">
        <ele>203.3</ele>
        <time>2020-10-13T11:12:41Z</time>
      </trkpt>
      <trkpt lat="37.729984000" lon="-4.516439000">
        <ele>203.5</ele>
        <time>2020-10-13T11:12:43Z</time>
      </trkpt>
      <trkpt lat="37.729938000" lon="-4.516345000">
        <ele>203.8</ele>
        <time>2020-10-13T11:12:45Z</time>
      </trkpt>
      <trkpt lat="37.729879000" lon="-4.516220000">
        <ele>204.2</ele>
        <time>2020-10-13T11:12:48Z</time>
      </trkpt>
      <trkpt lat="37.729838000" lon="-4.516106000">
        <ele>204.6</ele>
        <time>2020-10-13T11:12:51Z</time>
      </trkpt>
      <trkpt lat="37.729809000" lon="-4.516001000">
        <ele>205.2</ele>
        <time>2020-10-13T11:12:54Z</time>
      </trkpt>
      <trkpt lat="37.729789000" lon="-4.515885000">
        <ele>205.7</ele>
        <time>2020-10-13T11:12:58Z</time>
      </trkpt>
      <trkpt lat="37.729776000" lon="-4.515759000">
        <ele>206.3</ele>
        <time>2020-10-13T11:13:02Z</time>
      </trkpt>
      <trkpt lat="37.729763000" lon="-4.515656000">
        <ele>206.8</ele>
        <time>2020-10-13T11:13:06Z</time>
      </trkpt>
      <trkpt lat="37.729766000" lon="-4.515546000">
        <ele>207.3</ele>
        <time>2020-10-13T11:22:11Z</time>
      </trkpt>
      <trkpt lat="37.729753000" lon="-4.515444000">
        <ele>207.7</ele>
        <time>2020-10-13T11:22:20Z</time>
      </trkpt>
      <trkpt lat="37.729722000" lon="-4.515344000">
        <ele>208.0</ele>
        <time>2020-10-13T11:22:30Z</time>
      </trkpt>
      <trkpt lat="37.729684000" lon="-4.515248000">
        <ele>208.2</ele>
        <time>2020-10-13T11:22:37Z</time>
      </trkpt>
      <trkpt lat="37.729623000" lon="-4.515165000">
        <ele>208.3</ele>
        <time>2020-10-13T11:22:45Z</time>
      </trkpt>
      <trkpt lat="37.729549000" lon="-4.515102000">
        <ele>208.4</ele>
        <time>2020-10-13T11:22:54Z</time>
      </trkpt>
      <trkpt lat="37.729449000" lon="-4.515054000">
        <ele>208.5</ele>
        <time>2020-10-13T11:22:58Z</time>
      </trkpt>
      <trkpt lat="37.729350000" lon="-4.515011000">
        <ele>208.5</ele>
        <time>2020-10-13T11:23:01Z</time>
      </trkpt>
      <trkpt lat="37.729231000" lon="-4.514977000">
        <ele>208.4</ele>
        <time>2020-10-13T11:23:04Z</time>
      </trkpt>
      <trkpt lat="37.729145000" lon="-4.514950000">
        <ele>208.3</ele>
        <time>2020-10-13T11:23:06Z</time>
      </trkpt>
      <trkpt lat="37.729043000" lon="-4.514920000">
        <ele>208.1</ele>
        <time>2020-10-13T11:23:08Z</time>
      </trkpt>
      <trkpt lat="37.728941000" lon="-4.514881000">
        <ele>207.9</ele>
        <time>2020-10-13T11:23:10Z</time>
      </trkpt>
      <trkpt lat="37.728843000" lon="-4.514838000">
        <ele>207.7</ele>
        <time>2020-10-13T11:23:12Z</time>
      </trkpt>
      <trkpt lat="37.728740000" lon="-4.514807000">
        <ele>207.7</ele>
        <time>2020-10-13T11:23:14Z</time>
      </trkpt>
      <trkpt lat="37.728632000" lon="-4.514764000">
        <ele>207.6</ele>
        <time>2020-10-13T11:23:16Z</time>
      </trkpt>
      <trkpt lat="37.728514000" lon="-4.514724000">
        <ele>207.5</ele>
        <time>2020-10-13T11:23:18Z</time>
      </trkpt>
      <trkpt lat="37.728393000" lon="-4.514668000">
        <ele>207.2</ele>
        <time>2020-10-13T11:23:20Z</time>
      </trkpt>
      <trkpt lat="37.728259000" lon="-4.514622000">
        <ele>206.8</ele>
        <time>2020-10-13T11:23:22Z</time>
      </trkpt>
      <trkpt lat="37.728125000" lon="-4.514567000">
        <ele>206.4</ele>
        <time>2020-10-13T11:23:24Z</time>
      </trkpt>
      <trkpt lat="37.727983000" lon="-4.514514000">
        <ele>205.9</ele>
        <time>2020-10-13T11:23:26Z</time>
      </trkpt>
      <trkpt lat="37.727836000" lon="-4.514456000">
        <ele>205.4</ele>
        <time>2020-10-13T11:23:28Z</time>
      </trkpt>
      <trkpt lat="37.727688000" lon="-4.514393000">
        <ele>204.9</ele>
        <time>2020-10-13T11:23:30Z</time>
      </trkpt>
      <trkpt lat="37.727610000" lon="-4.514362000">
        <ele>204.4</ele>
        <time>2020-10-13T11:23:31Z</time>
      </trkpt>
      <trkpt lat="37.727451000" lon="-4.514305000">
        <ele>203.8</ele>
        <time>2020-10-13T11:23:33Z</time>
      </trkpt>
      <trkpt lat="37.727373000" lon="-4.514276000">
        <ele>203.2</ele>
        <time>2020-10-13T11:23:34Z</time>
      </trkpt>
      <trkpt lat="37.727292000" lon="-4.514244000">
        <ele>202.6</ele>
        <time>2020-10-13T11:23:35Z</time>
      </trkpt>
      <trkpt lat="37.727211000" lon="-4.514210000">
        <ele>202.1</ele>
        <time>2020-10-13T11:23:36Z</time>
      </trkpt>
      <trkpt lat="37.727129000" lon="-4.514181000">
        <ele>201.6</ele>
        <time>2020-10-13T11:23:37Z</time>
      </trkpt>
      <trkpt lat="37.726978000" lon="-4.514121000">
        <ele>201.2</ele>
        <time>2020-10-13T11:23:39Z</time>
      </trkpt>
      <trkpt lat="37.726835000" lon="-4.514071000">
        <ele>200.7</ele>
        <time>2020-10-13T11:23:41Z</time>
      </trkpt>
      <trkpt lat="37.726692000" lon="-4.514028000">
        <ele>200.2</ele>
        <time>2020-10-13T11:23:43Z</time>
      </trkpt>
      <trkpt lat="37.726553000" lon="-4.513984000">
        <ele>199.6</ele>
        <time>2020-10-13T11:23:45Z</time>
      </trkpt>
      <trkpt lat="37.726405000" lon="-4.513949000">
        <ele>199.1</ele>
        <time>2020-10-13T11:23:47Z</time>
      </trkpt>
      <trkpt lat="37.726258000" lon="-4.513928000">
        <ele>198.6</ele>
        <time>2020-10-13T11:23:49Z</time>
      </trkpt>
      <trkpt lat="37.726107000" lon="-4.513921000">
        <ele>198.3</ele>
        <time>2020-10-13T11:23:51Z</time>
      </trkpt>
      <trkpt lat="37.725952000" lon="-4.513917000">
        <ele>197.9</ele>
        <time>2020-10-13T11:23:53Z</time>
      </trkpt>
      <trkpt lat="37.725795000" lon="-4.513934000">
        <ele>197.6</ele>
        <time>2020-10-13T11:23:55Z</time>
      </trkpt>
      <trkpt lat="37.725642000" lon="-4.513949000">
        <ele>197.5</ele>
        <time>2020-10-13T11:23:57Z</time>
      </trkpt>
      <trkpt lat="37.725489000" lon="-4.513965000">
        <ele>197.3</ele>
        <time>2020-10-13T11:23:59Z</time>
      </trkpt>
      <trkpt lat="37.725337000" lon="-4.513987000">
        <ele>197.1</ele>
        <time>2020-10-13T11:24:01Z</time>
      </trkpt>
      <trkpt lat="37.725195000" lon="-4.514000000">
        <ele>197.0</ele>
        <time>2020-10-13T11:24:03Z</time>
      </trkpt>
      <trkpt lat="37.725048000" lon="-4.514020000">
        <ele>197.0</ele>
        <time>2020-10-13T11:24:05Z</time>
      </trkpt>
      <trkpt lat="37.724908000" lon="-4.514032000">
        <ele>197.1</ele>
        <time>2020-10-13T11:24:07Z</time>
      </trkpt>
      <trkpt lat="37.724778000" lon="-4.514047000">
        <ele>197.2</ele>
        <time>2020-10-13T11:24:09Z</time>
      </trkpt>
      <trkpt lat="37.724646000" lon="-4.514056000">
        <ele>197.3</ele>
        <time>2020-10-13T11:24:11Z</time>
      </trkpt>
      <trkpt lat="37.724522000" lon="-4.514075000">
        <ele>197.4</ele>
        <time>2020-10-13T11:24:13Z</time>
      </trkpt>
      <trkpt lat="37.724406000" lon="-4.514091000">
        <ele>197.5</ele>
        <time>2020-10-13T11:24:15Z</time>
      </trkpt>
      <trkpt lat="37.724292000" lon="-4.514105000">
        <ele>197.5</ele>
        <time>2020-10-13T11:24:17Z</time>
      </trkpt>
      <trkpt lat="37.724181000" lon="-4.514125000">
        <ele>197.5</ele>
        <time>2020-10-13T11:24:19Z</time>
      </trkpt>
      <trkpt lat="37.724071000" lon="-4.514135000">
        <ele>197.5</ele>
        <time>2020-10-13T11:24:21Z</time>
      </trkpt>
      <trkpt lat="37.723969000" lon="-4.514137000">
        <ele>197.5</ele>
        <time>2020-10-13T11:24:23Z</time>
      </trkpt>
      <trkpt lat="37.723864000" lon="-4.514152000">
        <ele>197.5</ele>
        <time>2020-10-13T11:24:25Z</time>
      </trkpt>
      <trkpt lat="37.723762000" lon="-4.514169000">
        <ele>197.5</ele>
        <time>2020-10-13T11:24:27Z</time>
      </trkpt>
      <trkpt lat="37.723660000" lon="-4.514185000">
        <ele>197.4</ele>
        <time>2020-10-13T11:24:29Z</time>
      </trkpt>
      <trkpt lat="37.723554000" lon="-4.514195000">
        <ele>197.3</ele>
        <time>2020-10-13T11:24:31Z</time>
      </trkpt>
      <trkpt lat="37.723449000" lon="-4.514215000">
        <ele>197.2</ele>
        <time>2020-10-13T11:24:33Z</time>
      </trkpt>
      <trkpt lat="37.723346000" lon="-4.514229000">
        <ele>197.1</ele>
        <time>2020-10-13T11:24:35Z</time>
      </trkpt>
      <trkpt lat="37.723238000" lon="-4.514239000">
        <ele>197.0</ele>
        <time>2020-10-13T11:24:37Z</time>
      </trkpt>
      <trkpt lat="37.723133000" lon="-4.514250000">
        <ele>196.9</ele>
        <time>2020-10-13T11:24:39Z</time>
      </trkpt>
      <trkpt lat="37.723027000" lon="-4.514257000">
        <ele>196.8</ele>
        <time>2020-10-13T11:24:41Z</time>
      </trkpt>
      <trkpt lat="37.722919000" lon="-4.514264000">
        <ele>196.7</ele>
        <time>2020-10-13T11:24:43Z</time>
      </trkpt>
      <trkpt lat="37.722808000" lon="-4.514280000">
        <ele>196.7</ele>
        <time>2020-10-13T11:24:45Z</time>
      </trkpt>
      <trkpt lat="37.722700000" lon="-4.514286000">
        <ele>196.7</ele>
        <time>2020-10-13T11:24:47Z</time>
      </trkpt>
      <trkpt lat="37.722593000" lon="-4.514294000">
        <ele>196.7</ele>
        <time>2020-10-13T11:24:49Z</time>
      </trkpt>
      <trkpt lat="37.722488000" lon="-4.514307000">
        <ele>196.8</ele>
        <time>2020-10-13T11:24:51Z</time>
      </trkpt>
      <trkpt lat="37.722384000" lon="-4.514316000">
        <ele>196.9</ele>
        <time>2020-10-13T11:24:53Z</time>
      </trkpt>
      <trkpt lat="37.722276000" lon="-4.514329000">
        <ele>197.1</ele>
        <time>2020-10-13T11:24:55Z</time>
      </trkpt>
      <trkpt lat="37.722174000" lon="-4.514335000">
        <ele>197.2</ele>
        <time>2020-10-13T11:24:57Z</time>
      </trkpt>
      <trkpt lat="37.722066000" lon="-4.514346000">
        <ele>197.4</ele>
        <time>2020-10-13T11:24:59Z</time>
      </trkpt>
      <trkpt lat="37.721966000" lon="-4.514365000">
        <ele>197.5</ele>
        <time>2020-10-13T11:25:01Z</time>
      </trkpt>
      <trkpt lat="37.721873000" lon="-4.514377000">
        <ele>197.8</ele>
        <time>2020-10-13T11:25:03Z</time>
      </trkpt>
      <trkpt lat="37.721777000" lon="-4.514396000">
        <ele>198.1</ele>
        <time>2020-10-13T11:25:05Z</time>
      </trkpt>
      <trkpt lat="37.721682000" lon="-4.514407000">
        <ele>198.5</ele>
        <time>2020-10-13T11:25:07Z</time>
      </trkpt>
      <trkpt lat="37.721587000" lon="-4.514418000">
        <ele>198.9</ele>
        <time>2020-10-13T11:25:09Z</time>
      </trkpt>
      <trkpt lat="37.721496000" lon="-4.514427000">
        <ele>199.4</ele>
        <time>2020-10-13T11:25:11Z</time>
      </trkpt>
      <trkpt lat="37.721405000" lon="-4.514435000">
        <ele>199.8</ele>
        <time>2020-10-13T11:25:13Z</time>
      </trkpt>
      <trkpt lat="37.721320000" lon="-4.514445000">
        <ele>200.3</ele>
        <time>2020-10-13T11:25:15Z</time>
      </trkpt>
      <trkpt lat="37.721233000" lon="-4.514456000">
        <ele>200.6</ele>
        <time>2020-10-13T11:25:17Z</time>
      </trkpt>
      <trkpt lat="37.721149000" lon="-4.514459000">
        <ele>201.1</ele>
        <time>2020-10-13T11:25:19Z</time>
      </trkpt>
      <trkpt lat="37.721058000" lon="-4.514468000">
        <ele>201.5</ele>
        <time>2020-10-13T11:25:21Z</time>
      </trkpt>
      <trkpt lat="37.720964000" lon="-4.514479000">
        <ele>201.8</ele>
        <time>2020-10-13T11:25:23Z</time>
      </trkpt>
      <trkpt lat="37.720868000" lon="-4.514506000">
        <ele>202.1</ele>
        <time>2020-10-13T11:25:25Z</time>
      </trkpt>
      <trkpt lat="37.720781000" lon="-4.514505000">
        <ele>202.4</ele>
        <time>2020-10-13T11:25:27Z</time>
      </trkpt>
      <trkpt lat="37.720694000" lon="-4.514499000">
        <ele>202.5</ele>
        <time>2020-10-13T11:25:29Z</time>
      </trkpt>
      <trkpt lat="37.720603000" lon="-4.514500000">
        <ele>202.5</ele>
        <time>2020-10-13T11:25:31Z</time>
      </trkpt>
      <trkpt lat="37.720510000" lon="-4.514495000">
        <ele>202.5</ele>
        <time>2020-10-13T11:25:33Z</time>
      </trkpt>
      <trkpt lat="37.720423000" lon="-4.514486000">
        <ele>202.5</ele>
        <time>2020-10-13T11:25:35Z</time>
      </trkpt>
      <trkpt lat="37.720327000" lon="-4.514463000">
        <ele>202.5</ele>
        <time>2020-10-13T11:25:37Z</time>
      </trkpt>
      <trkpt lat="37.720230000" lon="-4.514454000">
        <ele>202.5</ele>
        <time>2020-10-13T11:25:39Z</time>
      </trkpt>
      <trkpt lat="37.720134000" lon="-4.514439000">
        <ele>202.5</ele>
        <time>2020-10-13T11:25:41Z</time>
      </trkpt>
      <trkpt lat="37.720043000" lon="-4.514410000">
        <ele>202.4</ele>
        <time>2020-10-13T11:25:43Z</time>
      </trkpt>
      <trkpt lat="37.719952000" lon="-4.514375000">
        <ele>202.3</ele>
        <time>2020-10-13T11:25:45Z</time>
      </trkpt>
      <trkpt lat="37.719863000" lon="-4.514334000">
        <ele>202.2</ele>
        <time>2020-10-13T11:25:47Z</time>
      </trkpt>
      <trkpt lat="37.719778000" lon="-4.514297000">
        <ele>202.0</ele>
        <time>2020-10-13T11:25:49Z</time>
      </trkpt>
      <trkpt lat="37.719692000" lon="-4.514251000">
        <ele>201.7</ele>
        <time>2020-10-13T11:25:51Z</time>
      </trkpt>
      <trkpt lat="37.719608000" lon="-4.514200000">
        <ele>201.5</ele>
        <time>2020-10-13T11:25:53Z</time>
      </trkpt>
      <trkpt lat="37.719529000" lon="-4.514151000">
        <ele>201.1</ele>
        <time>2020-10-13T11:25:55Z</time>
      </trkpt>
      <trkpt lat="37.719450000" lon="-4.514092000">
        <ele>200.7</ele>
        <time>2020-10-13T11:25:57Z</time>
      </trkpt>
      <trkpt lat="37.719369000" lon="-4.514029000">
        <ele>200.4</ele>
        <time>2020-10-13T11:25:59Z</time>
      </trkpt>
      <trkpt lat="37.719287000" lon="-4.513960000">
        <ele>200.0</ele>
        <time>2020-10-13T11:26:01Z</time>
      </trkpt>
      <trkpt lat="37.719198000" lon="-4.513891000">
        <ele>199.6</ele>
        <time>2020-10-13T11:26:03Z</time>
      </trkpt>
      <trkpt lat="37.719116000" lon="-4.513819000">
        <ele>199.4</ele>
        <time>2020-10-13T11:26:05Z</time>
      </trkpt>
      <trkpt lat="37.719030000" lon="-4.513750000">
        <ele>199.1</ele>
        <time>2020-10-13T11:26:07Z</time>
      </trkpt>
      <trkpt lat="37.718945000" lon="-4.513676000">
        <ele>198.9</ele>
        <time>2020-10-13T11:26:09Z</time>
      </trkpt>
      <trkpt lat="37.718862000" lon="-4.513600000">
        <ele>198.8</ele>
        <time>2020-10-13T11:26:11Z</time>
      </trkpt>
      <trkpt lat="37.718777000" lon="-4.513520000">
        <ele>198.8</ele>
        <time>2020-10-13T11:26:13Z</time>
      </trkpt>
      <trkpt lat="37.718691000" lon="-4.513445000">
        <ele>198.9</ele>
        <time>2020-10-13T11:26:15Z</time>
      </trkpt>
      <trkpt lat="37.718602000" lon="-4.513362000">
        <ele>199.1</ele>
        <time>2020-10-13T11:26:17Z</time>
      </trkpt>
      <trkpt lat="37.718511000" lon="-4.513287000">
        <ele>199.3</ele>
        <time>2020-10-13T11:26:19Z</time>
      </trkpt>
      <trkpt lat="37.718424000" lon="-4.513211000">
        <ele>199.4</ele>
        <time>2020-10-13T11:26:21Z</time>
      </trkpt>
      <trkpt lat="37.718335000" lon="-4.513139000">
        <ele>199.5</ele>
        <time>2020-10-13T11:26:23Z</time>
      </trkpt>
      <trkpt lat="37.718246000" lon="-4.513066000">
        <ele>199.5</ele>
        <time>2020-10-13T11:26:25Z</time>
      </trkpt>
      <trkpt lat="37.718158000" lon="-4.512993000">
        <ele>199.5</ele>
        <time>2020-10-13T11:26:27Z</time>
      </trkpt>
      <trkpt lat="37.718071000" lon="-4.512926000">
        <ele>199.4</ele>
        <time>2020-10-13T11:26:29Z</time>
      </trkpt>
      <trkpt lat="37.717982000" lon="-4.512854000">
        <ele>199.1</ele>
        <time>2020-10-13T11:26:31Z</time>
      </trkpt>
      <trkpt lat="37.717893000" lon="-4.512779000">
        <ele>198.9</ele>
        <time>2020-10-13T11:26:33Z</time>
      </trkpt>
      <trkpt lat="37.717803000" lon="-4.512697000">
        <ele>198.7</ele>
        <time>2020-10-13T11:26:35Z</time>
      </trkpt>
      <trkpt lat="37.717705000" lon="-4.512625000">
        <ele>198.5</ele>
        <time>2020-10-13T11:26:37Z</time>
      </trkpt>
      <trkpt lat="37.717606000" lon="-4.512557000">
        <ele>198.5</ele>
        <time>2020-10-13T11:26:39Z</time>
      </trkpt>
      <trkpt lat="37.717508000" lon="-4.512495000">
        <ele>198.4</ele>
        <time>2020-10-13T11:26:41Z</time>
      </trkpt>
      <trkpt lat="37.717404000" lon="-4.512432000">
        <ele>198.4</ele>
        <time>2020-10-13T11:26:43Z</time>
      </trkpt>
      <trkpt lat="37.717303000" lon="-4.512379000">
        <ele>198.4</ele>
        <time>2020-10-13T11:26:45Z</time>
      </trkpt>
      <trkpt lat="37.717197000" lon="-4.512334000">
        <ele>198.4</ele>
        <time>2020-10-13T11:26:47Z</time>
      </trkpt>
      <trkpt lat="37.717092000" lon="-4.512298000">
        <ele>198.4</ele>
        <time>2020-10-13T11:26:49Z</time>
      </trkpt>
      <trkpt lat="37.716981000" lon="-4.512266000">
        <ele>198.4</ele>
        <time>2020-10-13T11:26:51Z</time>
      </trkpt>
      <trkpt lat="37.716869000" lon="-4.512253000">
        <ele>198.5</ele>
        <time>2020-10-13T11:26:53Z</time>
      </trkpt>
      <trkpt lat="37.716756000" lon="-4.512226000">
        <ele>198.5</ele>
        <time>2020-10-13T11:26:55Z</time>
      </trkpt>
      <trkpt lat="37.716644000" lon="-4.512209000">
        <ele>198.5</ele>
        <time>2020-10-13T11:26:57Z</time>
      </trkpt>
      <trkpt lat="37.716535000" lon="-4.512199000">
        <ele>198.5</ele>
        <time>2020-10-13T11:26:59Z</time>
      </trkpt>
      <trkpt lat="37.716428000" lon="-4.512185000">
        <ele>198.5</ele>
        <time>2020-10-13T11:27:01Z</time>
      </trkpt>
      <trkpt lat="37.716319000" lon="-4.512172000">
        <ele>198.5</ele>
        <time>2020-10-13T11:27:03Z</time>
      </trkpt>
      <trkpt lat="37.716213000" lon="-4.512164000">
        <ele>198.5</ele>
        <time>2020-10-13T11:27:05Z</time>
      </trkpt>
      <trkpt lat="37.716107000" lon="-4.512158000">
        <ele>198.5</ele>
        <time>2020-10-13T11:27:07Z</time>
      </trkpt>
      <trkpt lat="37.715998000" lon="-4.512149000">
        <ele>198.5</ele>
        <time>2020-10-13T11:27:09Z</time>
      </trkpt>
      <trkpt lat="37.715890000" lon="-4.512144000">
        <ele>198.6</ele>
        <time>2020-10-13T11:27:11Z</time>
      </trkpt>
      <trkpt lat="37.715784000" lon="-4.512138000">
        <ele>198.7</ele>
        <time>2020-10-13T11:27:13Z</time>
      </trkpt>
      <trkpt lat="37.715678000" lon="-4.512135000">
        <ele>198.8</ele>
        <time>2020-10-13T11:27:15Z</time>
      </trkpt>
      <trkpt lat="37.715570000" lon="-4.512124000">
        <ele>198.9</ele>
        <time>2020-10-13T11:27:17Z</time>
      </trkpt>
      <trkpt lat="37.715461000" lon="-4.512115000">
        <ele>199.1</ele>
        <time>2020-10-13T11:27:19Z</time>
      </trkpt>
      <trkpt lat="37.715359000" lon="-4.512114000">
        <ele>199.2</ele>
        <time>2020-10-13T11:27:21Z</time>
      </trkpt>
      <trkpt lat="37.715253000" lon="-4.512106000">
        <ele>199.4</ele>
        <time>2020-10-13T11:27:23Z</time>
      </trkpt>
      <trkpt lat="37.715153000" lon="-4.512099000">
        <ele>199.5</ele>
        <time>2020-10-13T11:27:25Z</time>
      </trkpt>
      <trkpt lat="37.715051000" lon="-4.512089000">
        <ele>199.7</ele>
        <time>2020-10-13T11:27:27Z</time>
      </trkpt>
      <trkpt lat="37.714949000" lon="-4.512085000">
        <ele>199.9</ele>
        <time>2020-10-13T11:27:29Z</time>
      </trkpt>
      <trkpt lat="37.714842000" lon="-4.512075000">
        <ele>200.1</ele>
        <time>2020-10-13T11:27:31Z</time>
      </trkpt>
      <trkpt lat="37.714735000" lon="-4.512071000">
        <ele>200.3</ele>
        <time>2020-10-13T11:27:33Z</time>
      </trkpt>
      <trkpt lat="37.714629000" lon="-4.512064000">
        <ele>200.5</ele>
        <time>2020-10-13T11:27:35Z</time>
      </trkpt>
      <trkpt lat="37.714525000" lon="-4.512052000">
        <ele>200.5</ele>
        <time>2020-10-13T11:27:37Z</time>
      </trkpt>
      <trkpt lat="37.714421000" lon="-4.512040000">
        <ele>200.6</ele>
        <time>2020-10-13T11:27:39Z</time>
      </trkpt>
      <trkpt lat="37.714317000" lon="-4.512030000">
        <ele>200.6</ele>
        <time>2020-10-13T11:27:41Z</time>
      </trkpt>
      <trkpt lat="37.714212000" lon="-4.512021000">
        <ele>200.6</ele>
        <time>2020-10-13T11:27:43Z</time>
      </trkpt>
      <trkpt lat="37.714109000" lon="-4.512014000">
        <ele>200.5</ele>
        <time>2020-10-13T11:27:45Z</time>
      </trkpt>
      <trkpt lat="37.714005000" lon="-4.512003000">
        <ele>200.5</ele>
        <time>2020-10-13T11:27:47Z</time>
      </trkpt>
      <trkpt lat="37.713902000" lon="-4.512000000">
        <ele>200.4</ele>
        <time>2020-10-13T11:27:49Z</time>
      </trkpt>
      <trkpt lat="37.713799000" lon="-4.511997000">
        <ele>200.3</ele>
        <time>2020-10-13T11:27:51Z</time>
      </trkpt>
      <trkpt lat="37.713694000" lon="-4.511985000">
        <ele>200.2</ele>
        <time>2020-10-13T11:27:53Z</time>
      </trkpt>
      <trkpt lat="37.713590000" lon="-4.511972000">
        <ele>200.1</ele>
        <time>2020-10-13T11:27:55Z</time>
      </trkpt>
      <trkpt lat="37.713488000" lon="-4.511964000">
        <ele>200.0</ele>
        <time>2020-10-13T11:27:57Z</time>
      </trkpt>
      <trkpt lat="37.713383000" lon="-4.511962000">
        <ele>200.1</ele>
        <time>2020-10-13T11:27:59Z</time>
      </trkpt>
      <trkpt lat="37.713280000" lon="-4.511951000">
        <ele>200.2</ele>
        <time>2020-10-13T11:28:01Z</time>
      </trkpt>
      <trkpt lat="37.713178000" lon="-4.511944000">
        <ele>200.3</ele>
        <time>2020-10-13T11:28:03Z</time>
      </trkpt>
      <trkpt lat="37.713074000" lon="-4.511942000">
        <ele>200.4</ele>
        <time>2020-10-13T11:28:05Z</time>
      </trkpt>
      <trkpt lat="37.712972000" lon="-4.511932000">
        <ele>200.5</ele>
        <time>2020-10-13T11:28:07Z</time>
      </trkpt>
      <trkpt lat="37.712865000" lon="-4.511933000">
        <ele>200.5</ele>
        <time>2020-10-13T11:28:09Z</time>
      </trkpt>
      <trkpt lat="37.712759000" lon="-4.511920000">
        <ele>200.6</ele>
        <time>2020-10-13T11:28:11Z</time>
      </trkpt>
      <trkpt lat="37.712654000" lon="-4.511918000">
        <ele>200.7</ele>
        <time>2020-10-13T11:28:13Z</time>
      </trkpt>
      <trkpt lat="37.712548000" lon="-4.511912000">
        <ele>200.7</ele>
        <time>2020-10-13T11:28:15Z</time>
      </trkpt>
      <trkpt lat="37.712443000" lon="-4.511909000">
        <ele>200.7</ele>
        <time>2020-10-13T11:28:17Z</time>
      </trkpt>
      <trkpt lat="37.712339000" lon="-4.511908000">
        <ele>200.7</ele>
        <time>2020-10-13T11:28:19Z</time>
      </trkpt>
      <trkpt lat="37.712234000" lon="-4.511899000">
        <ele>200.6</ele>
        <time>2020-10-13T11:28:21Z</time>
      </trkpt>
      <trkpt lat="37.712132000" lon="-4.511895000">
        <ele>200.5</ele>
        <time>2020-10-13T11:28:23Z</time>
      </trkpt>
      <trkpt lat="37.712025000" lon="-4.511889000">
        <ele>200.5</ele>
        <time>2020-10-13T11:28:25Z</time>
      </trkpt>
      <trkpt lat="37.711917000" lon="-4.511878000">
        <ele>200.5</ele>
        <time>2020-10-13T11:28:27Z</time>
      </trkpt>
      <trkpt lat="37.711814000" lon="-4.511868000">
        <ele>200.5</ele>
        <time>2020-10-13T11:28:29Z</time>
      </trkpt>
      <trkpt lat="37.711708000" lon="-4.511861000">
        <ele>200.5</ele>
        <time>2020-10-13T11:28:31Z</time>
      </trkpt>
      <trkpt lat="37.711601000" lon="-4.511856000">
        <ele>200.5</ele>
        <time>2020-10-13T11:28:33Z</time>
      </trkpt>
      <trkpt lat="37.711493000" lon="-4.511851000">
        <ele>200.4</ele>
        <time>2020-10-13T11:28:35Z</time>
      </trkpt>
      <trkpt lat="37.711384000" lon="-4.511838000">
        <ele>200.4</ele>
        <time>2020-10-13T11:28:37Z</time>
      </trkpt>
      <trkpt lat="37.711272000" lon="-4.511837000">
        <ele>200.3</ele>
        <time>2020-10-13T11:28:39Z</time>
      </trkpt>
      <trkpt lat="37.711169000" lon="-4.511828000">
        <ele>200.2</ele>
        <time>2020-10-13T11:28:41Z</time>
      </trkpt>
      <trkpt lat="37.711066000" lon="-4.511825000">
        <ele>200.1</ele>
        <time>2020-10-13T11:28:43Z</time>
      </trkpt>
      <trkpt lat="37.710963000" lon="-4.511819000">
        <ele>199.9</ele>
        <time>2020-10-13T11:28:45Z</time>
      </trkpt>
      <trkpt lat="37.710860000" lon="-4.511807000">
        <ele>199.6</ele>
        <time>2020-10-13T11:28:47Z</time>
      </trkpt>
      <trkpt lat="37.710760000" lon="-4.511794000">
        <ele>199.4</ele>
        <time>2020-10-13T11:28:49Z</time>
      </trkpt>
      <trkpt lat="37.710656000" lon="-4.511786000">
        <ele>199.1</ele>
        <time>2020-10-13T11:28:51Z</time>
      </trkpt>
      <trkpt lat="37.710555000" lon="-4.511779000">
        <ele>198.9</ele>
        <time>2020-10-13T11:28:53Z</time>
      </trkpt>
      <trkpt lat="37.710451000" lon="-4.511774000">
        <ele>198.8</ele>
        <time>2020-10-13T11:28:55Z</time>
      </trkpt>
      <trkpt lat="37.710348000" lon="-4.511765000">
        <ele>198.7</ele>
        <time>2020-10-13T11:28:57Z</time>
      </trkpt>
      <trkpt lat="37.710247000" lon="-4.511758000">
        <ele>198.7</ele>
        <time>2020-10-13T11:28:59Z</time>
      </trkpt>
      <trkpt lat="37.710148000" lon="-4.511747000">
        <ele>198.8</ele>
        <time>2020-10-13T11:29:01Z</time>
      </trkpt>
      <trkpt lat="37.710048000" lon="-4.511733000">
        <ele>199.0</ele>
        <time>2020-10-13T11:29:03Z</time>
      </trkpt>
      <trkpt lat="37.709947000" lon="-4.511724000">
        <ele>199.3</ele>
        <time>2020-10-13T11:29:05Z</time>
      </trkpt>
      <trkpt lat="37.709851000" lon="-4.511720000">
        <ele>199.6</ele>
        <time>2020-10-13T11:29:07Z</time>
      </trkpt>
      <trkpt lat="37.709755000" lon="-4.511714000">
        <ele>200.0</ele>
        <time>2020-10-13T11:29:09Z</time>
      </trkpt>
      <trkpt lat="37.709657000" lon="-4.511707000">
        <ele>200.4</ele>
        <time>2020-10-13T11:29:11Z</time>
      </trkpt>
      <trkpt lat="37.709564000" lon="-4.511708000">
        <ele>200.7</ele>
        <time>2020-10-13T11:29:13Z</time>
      </trkpt>
      <trkpt lat="37.709468000" lon="-4.511700000">
        <ele>201.0</ele>
        <time>2020-10-13T11:29:15Z</time>
      </trkpt>
      <trkpt lat="37.709371000" lon="-4.511696000">
        <ele>201.3</ele>
        <time>2020-10-13T11:29:17Z</time>
      </trkpt>
      <trkpt lat="37.709281000" lon="-4.511698000">
        <ele>201.5</ele>
        <time>2020-10-13T11:29:19Z</time>
      </trkpt>
      <trkpt lat="37.709192000" lon="-4.511696000">
        <ele>201.7</ele>
        <time>2020-10-13T11:29:21Z</time>
      </trkpt>
      <trkpt lat="37.709100000" lon="-4.511697000">
        <ele>201.9</ele>
        <time>2020-10-13T11:29:23Z</time>
      </trkpt>
      <trkpt lat="37.709005000" lon="-4.511694000">
        <ele>202.1</ele>
        <time>2020-10-13T11:29:25Z</time>
      </trkpt>
      <trkpt lat="37.708916000" lon="-4.511683000">
        <ele>202.2</ele>
        <time>2020-10-13T11:29:27Z</time>
      </trkpt>
      <trkpt lat="37.708793000" lon="-4.511670000">
        <ele>202.3</ele>
        <time>2020-10-13T11:29:30Z</time>
      </trkpt>
      <trkpt lat="37.708701000" lon="-4.511653000">
        <ele>202.4</ele>
        <time>2020-10-13T11:29:32Z</time>
      </trkpt>
      <trkpt lat="37.708609000" lon="-4.511637000">
        <ele>202.5</ele>
        <time>2020-10-13T11:29:34Z</time>
      </trkpt>
      <trkpt lat="37.708528000" lon="-4.511615000">
        <ele>202.5</ele>
        <time>2020-10-13T11:29:36Z</time>
      </trkpt>
      <trkpt lat="37.708413000" lon="-4.511568000">
        <ele>202.6</ele>
        <time>2020-10-13T11:29:39Z</time>
      </trkpt>
      <trkpt lat="37.708302000" lon="-4.511530000">
        <ele>202.8</ele>
        <time>2020-10-13T11:29:42Z</time>
      </trkpt>
      <trkpt lat="37.708193000" lon="-4.511471000">
        <ele>203.0</ele>
        <time>2020-10-13T11:29:45Z</time>
      </trkpt>
      <trkpt lat="37.708119000" lon="-4.511427000">
        <ele>203.3</ele>
        <time>2020-10-13T11:29:47Z</time>
      </trkpt>
      <trkpt lat="37.708011000" lon="-4.511363000">
        <ele>203.5</ele>
        <time>2020-10-13T11:29:50Z</time>
      </trkpt>
      <trkpt lat="37.707903000" lon="-4.511295000">
        <ele>203.6</ele>
        <time>2020-10-13T11:29:53Z</time>
      </trkpt>
      <trkpt lat="37.707802000" lon="-4.511217000">
        <ele>203.7</ele>
        <time>2020-10-13T11:29:56Z</time>
      </trkpt>
      <trkpt lat="37.707704000" lon="-4.511140000">
        <ele>203.8</ele>
        <time>2020-10-13T11:29:59Z</time>
      </trkpt>
      <trkpt lat="37.707606000" lon="-4.511061000">
        <ele>203.9</ele>
        <time>2020-10-13T11:30:02Z</time>
      </trkpt>
      <trkpt lat="37.707510000" lon="-4.510983000">
        <ele>203.9</ele>
        <time>2020-10-13T11:30:05Z</time>
      </trkpt>
      <trkpt lat="37.707411000" lon="-4.510909000">
        <ele>203.9</ele>
        <time>2020-10-13T11:30:08Z</time>
      </trkpt>
      <trkpt lat="37.707315000" lon="-4.510835000">
        <ele>204.0</ele>
        <time>2020-10-13T11:30:11Z</time>
      </trkpt>
      <trkpt lat="37.707219000" lon="-4.510763000">
        <ele>204.0</ele>
        <time>2020-10-13T11:30:14Z</time>
      </trkpt>
      <trkpt lat="37.707123000" lon="-4.510685000">
        <ele>204.0</ele>
        <time>2020-10-13T11:30:17Z</time>
      </trkpt>
      <trkpt lat="37.707028000" lon="-4.510605000">
        <ele>204.0</ele>
        <time>2020-10-13T11:30:20Z</time>
      </trkpt>
      <trkpt lat="37.706935000" lon="-4.510527000">
        <ele>204.0</ele>
        <time>2020-10-13T11:30:23Z</time>
      </trkpt>
      <trkpt lat="37.706838000" lon="-4.510455000">
        <ele>204.2</ele>
        <time>2020-10-13T11:30:26Z</time>
      </trkpt>
      <trkpt lat="37.706742000" lon="-4.510376000">
        <ele>204.4</ele>
        <time>2020-10-13T11:30:29Z</time>
      </trkpt>
      <trkpt lat="37.706646000" lon="-4.510297000">
        <ele>204.6</ele>
        <time>2020-10-13T11:30:32Z</time>
      </trkpt>
      <trkpt lat="37.706554000" lon="-4.510221000">
        <ele>204.9</ele>
        <time>2020-10-13T11:30:35Z</time>
      </trkpt>
      <trkpt lat="37.706460000" lon="-4.510154000">
        <ele>205.3</ele>
        <time>2020-10-13T11:30:38Z</time>
      </trkpt>
      <trkpt lat="37.706366000" lon="-4.510082000">
        <ele>205.6</ele>
        <time>2020-10-13T11:30:41Z</time>
      </trkpt>
      <trkpt lat="37.706269000" lon="-4.510011000">
        <ele>205.9</ele>
        <time>2020-10-13T11:30:44Z</time>
      </trkpt>
      <trkpt lat="37.706167000" lon="-4.509942000">
        <ele>206.2</ele>
        <time>2020-10-13T11:30:47Z</time>
      </trkpt>
      <trkpt lat="37.706058000" lon="-4.509873000">
        <ele>206.4</ele>
        <time>2020-10-13T11:30:50Z</time>
      </trkpt>
      <trkpt lat="37.705980000" lon="-4.509830000">
        <ele>206.5</ele>
        <time>2020-10-13T11:30:52Z</time>
      </trkpt>
      <trkpt lat="37.705899000" lon="-4.509796000">
        <ele>206.5</ele>
        <time>2020-10-13T11:30:54Z</time>
      </trkpt>
      <trkpt lat="37.705816000" lon="-4.509761000">
        <ele>206.5</ele>
        <time>2020-10-13T11:30:56Z</time>
      </trkpt>
      <trkpt lat="37.705732000" lon="-4.509729000">
        <ele>206.5</ele>
        <time>2020-10-13T11:30:58Z</time>
      </trkpt>
      <trkpt lat="37.705645000" lon="-4.509699000">
        <ele>206.3</ele>
        <time>2020-10-13T11:31:00Z</time>
      </trkpt>
      <trkpt lat="37.705552000" lon="-4.509672000">
        <ele>206.1</ele>
        <time>2020-10-13T11:31:02Z</time>
      </trkpt>
      <trkpt lat="37.705458000" lon="-4.509646000">
        <ele>205.9</ele>
        <time>2020-10-13T11:31:04Z</time>
      </trkpt>
      <trkpt lat="37.705360000" lon="-4.509612000">
        <ele>205.6</ele>
        <time>2020-10-13T11:31:06Z</time>
      </trkpt>
      <trkpt lat="37.705260000" lon="-4.509575000">
        <ele>205.4</ele>
        <time>2020-10-13T11:31:08Z</time>
      </trkpt>
      <trkpt lat="37.705156000" lon="-4.509537000">
        <ele>205.1</ele>
        <time>2020-10-13T11:31:10Z</time>
      </trkpt>
      <trkpt lat="37.705051000" lon="-4.509503000">
        <ele>204.9</ele>
        <time>2020-10-13T11:31:12Z</time>
      </trkpt>
      <trkpt lat="37.704945000" lon="-4.509468000">
        <ele>204.8</ele>
        <time>2020-10-13T11:31:14Z</time>
      </trkpt>
      <trkpt lat="37.704830000" lon="-4.509429000">
        <ele>204.7</ele>
        <time>2020-10-13T11:31:16Z</time>
      </trkpt>
      <trkpt lat="37.704716000" lon="-4.509395000">
        <ele>204.7</ele>
        <time>2020-10-13T11:31:18Z</time>
      </trkpt>
      <trkpt lat="37.704600000" lon="-4.509363000">
        <ele>204.8</ele>
        <time>2020-10-13T11:31:20Z</time>
      </trkpt>
      <trkpt lat="37.704488000" lon="-4.509324000">
        <ele>204.8</ele>
        <time>2020-10-13T11:31:22Z</time>
      </trkpt>
      <trkpt lat="37.704382000" lon="-4.509287000">
        <ele>204.8</ele>
        <time>2020-10-13T11:31:24Z</time>
      </trkpt>
      <trkpt lat="37.704276000" lon="-4.509251000">
        <ele>204.8</ele>
        <time>2020-10-13T11:31:26Z</time>
      </trkpt>
      <trkpt lat="37.704173000" lon="-4.509213000">
        <ele>204.8</ele>
        <time>2020-10-13T11:31:28Z</time>
      </trkpt>
      <trkpt lat="37.704071000" lon="-4.509178000">
        <ele>204.8</ele>
        <time>2020-10-13T11:31:30Z</time>
      </trkpt>
      <trkpt lat="37.703967000" lon="-4.509145000">
        <ele>204.8</ele>
        <time>2020-10-13T11:31:32Z</time>
      </trkpt>
      <trkpt lat="37.703860000" lon="-4.509112000">
        <ele>204.8</ele>
        <time>2020-10-13T11:31:34Z</time>
      </trkpt>
      <trkpt lat="37.703749000" lon="-4.509088000">
        <ele>204.7</ele>
        <time>2020-10-13T11:31:36Z</time>
      </trkpt>
      <trkpt lat="37.703639000" lon="-4.509070000">
        <ele>204.6</ele>
        <time>2020-10-13T11:31:38Z</time>
      </trkpt>
      <trkpt lat="37.703527000" lon="-4.509055000">
        <ele>204.5</ele>
        <time>2020-10-13T11:31:40Z</time>
      </trkpt>
      <trkpt lat="37.703420000" lon="-4.509050000">
        <ele>204.4</ele>
        <time>2020-10-13T11:31:42Z</time>
      </trkpt>
      <trkpt lat="37.703311000" lon="-4.509050000">
        <ele>204.4</ele>
        <time>2020-10-13T11:31:44Z</time>
      </trkpt>
      <trkpt lat="37.703206000" lon="-4.509061000">
        <ele>204.4</ele>
        <time>2020-10-13T11:31:46Z</time>
      </trkpt>
      <trkpt lat="37.703096000" lon="-4.509082000">
        <ele>204.4</ele>
        <time>2020-10-13T11:31:48Z</time>
      </trkpt>
      <trkpt lat="37.702988000" lon="-4.509103000">
        <ele>204.5</ele>
        <time>2020-10-13T11:31:50Z</time>
      </trkpt>
      <trkpt lat="37.702882000" lon="-4.509128000">
        <ele>204.5</ele>
        <time>2020-10-13T11:31:52Z</time>
      </trkpt>
      <trkpt lat="37.702777000" lon="-4.509163000">
        <ele>204.6</ele>
        <time>2020-10-13T11:31:54Z</time>
      </trkpt>
      <trkpt lat="37.702679000" lon="-4.509195000">
        <ele>204.7</ele>
        <time>2020-10-13T11:31:56Z</time>
      </trkpt>
      <trkpt lat="37.702577000" lon="-4.509229000">
        <ele>204.8</ele>
        <time>2020-10-13T11:31:58Z</time>
      </trkpt>
      <trkpt lat="37.702476000" lon="-4.509265000">
        <ele>204.9</ele>
        <time>2020-10-13T11:32:00Z</time>
      </trkpt>
      <trkpt lat="37.702377000" lon="-4.509299000">
        <ele>205.0</ele>
        <time>2020-10-13T11:32:02Z</time>
      </trkpt>
      <trkpt lat="37.702281000" lon="-4.509337000">
        <ele>205.0</ele>
        <time>2020-10-13T11:32:04Z</time>
      </trkpt>
      <trkpt lat="37.702185000" lon="-4.509371000">
        <ele>205.1</ele>
        <time>2020-10-13T11:32:06Z</time>
      </trkpt>
      <trkpt lat="37.702090000" lon="-4.509410000">
        <ele>205.3</ele>
        <time>2020-10-13T11:32:08Z</time>
      </trkpt>
      <trkpt lat="37.702004000" lon="-4.509445000">
        <ele>205.5</ele>
        <time>2020-10-13T11:32:10Z</time>
      </trkpt>
      <trkpt lat="37.701917000" lon="-4.509480000">
        <ele>205.9</ele>
        <time>2020-10-13T11:32:12Z</time>
      </trkpt>
      <trkpt lat="37.701840000" lon="-4.509523000">
        <ele>206.3</ele>
        <time>2020-10-13T11:32:14Z</time>
      </trkpt>
      <trkpt lat="37.701732000" lon="-4.509574000">
        <ele>206.7</ele>
        <time>2020-10-13T11:32:17Z</time>
      </trkpt>
      <trkpt lat="37.701631000" lon="-4.509609000">
        <ele>207.2</ele>
        <time>2020-10-13T11:32:20Z</time>
      </trkpt>
      <trkpt lat="37.701539000" lon="-4.509636000">
        <ele>207.7</ele>
        <time>2020-10-13T11:32:23Z</time>
      </trkpt>
      <trkpt lat="37.701460000" lon="-4.509664000">
        <ele>208.3</ele>
        <time>2020-10-13T11:32:26Z</time>
      </trkpt>
      <trkpt lat="37.701379000" lon="-4.509692000">
        <ele>208.9</ele>
        <time>2020-10-13T11:32:29Z</time>
      </trkpt>
      <trkpt lat="37.701286000" lon="-4.509727000">
        <ele>209.5</ele>
        <time>2020-10-13T11:32:32Z</time>
      </trkpt>
      <trkpt lat="37.701188000" lon="-4.509769000">
        <ele>210.1</ele>
        <time>2020-10-13T11:32:36Z</time>
      </trkpt>
      <trkpt lat="37.701095000" lon="-4.509808000">
        <ele>210.5</ele>
        <time>2020-10-13T11:32:40Z</time>
      </trkpt>
      <trkpt lat="37.700995000" lon="-4.509841000">
        <ele>210.9</ele>
        <time>2020-10-13T11:32:44Z</time>
      </trkpt>
      <trkpt lat="37.700917000" lon="-4.509876000">
        <ele>211.3</ele>
        <time>2020-10-13T11:32:47Z</time>
      </trkpt>
      <trkpt lat="37.700839000" lon="-4.509905000">
        <ele>211.7</ele>
        <time>2020-10-13T11:32:50Z</time>
      </trkpt>
      <trkpt lat="37.700749000" lon="-4.509939000">
        <ele>212.2</ele>
        <time>2020-10-13T11:32:53Z</time>
      </trkpt>
      <trkpt lat="37.700661000" lon="-4.509967000">
        <ele>212.6</ele>
        <time>2020-10-13T11:32:56Z</time>
      </trkpt>
      <trkpt lat="37.700568000" lon="-4.509996000">
        <ele>213.0</ele>
        <time>2020-10-13T11:32:59Z</time>
      </trkpt>
      <trkpt lat="37.700477000" lon="-4.510022000">
        <ele>213.4</ele>
        <time>2020-10-13T11:33:02Z</time>
      </trkpt>
      <trkpt lat="37.700387000" lon="-4.510046000">
        <ele>213.7</ele>
        <time>2020-10-13T11:33:05Z</time>
      </trkpt>
      <trkpt lat="37.700298000" lon="-4.510063000">
        <ele>214.2</ele>
        <time>2020-10-13T11:33:08Z</time>
      </trkpt>
      <trkpt lat="37.700209000" lon="-4.510075000">
        <ele>214.7</ele>
        <time>2020-10-13T11:33:11Z</time>
      </trkpt>
      <trkpt lat="37.700115000" lon="-4.510083000">
        <ele>215.3</ele>
        <time>2020-10-13T11:33:14Z</time>
      </trkpt>
      <trkpt lat="37.700019000" lon="-4.510088000">
        <ele>215.8</ele>
        <time>2020-10-13T11:33:17Z</time>
      </trkpt>
      <trkpt lat="37.699916000" lon="-4.510090000">
        <ele>216.3</ele>
        <time>2020-10-13T11:33:20Z</time>
      </trkpt>
      <trkpt lat="37.699803000" lon="-4.510082000">
        <ele>216.5</ele>
        <time>2020-10-13T11:33:23Z</time>
      </trkpt>
      <trkpt lat="37.699692000" lon="-4.510066000">
        <ele>216.5</ele>
        <time>2020-10-13T11:33:26Z</time>
      </trkpt>
      <trkpt lat="37.699575000" lon="-4.510040000">
        <ele>216.4</ele>
        <time>2020-10-13T11:33:29Z</time>
      </trkpt>
      <trkpt lat="37.699496000" lon="-4.510014000">
        <ele>216.2</ele>
        <time>2020-10-13T11:33:31Z</time>
      </trkpt>
      <trkpt lat="37.699413000" lon="-4.509985000">
        <ele>215.9</ele>
        <time>2020-10-13T11:33:33Z</time>
      </trkpt>
      <trkpt lat="37.699327000" lon="-4.509950000">
        <ele>215.5</ele>
        <time>2020-10-13T11:33:35Z</time>
      </trkpt>
      <trkpt lat="37.699240000" lon="-4.509912000">
        <ele>214.9</ele>
        <time>2020-10-13T11:33:37Z</time>
      </trkpt>
      <trkpt lat="37.699146000" lon="-4.509856000">
        <ele>214.2</ele>
        <time>2020-10-13T11:33:39Z</time>
      </trkpt>
      <trkpt lat="37.699048000" lon="-4.509791000">
        <ele>213.4</ele>
        <time>2020-10-13T11:33:41Z</time>
      </trkpt>
      <trkpt lat="37.698945000" lon="-4.509717000">
        <ele>212.5</ele>
        <time>2020-10-13T11:33:43Z</time>
      </trkpt>
      <trkpt lat="37.698841000" lon="-4.509628000">
        <ele>211.5</ele>
        <time>2020-10-13T11:33:45Z</time>
      </trkpt>
      <trkpt lat="37.698748000" lon="-4.509527000">
        <ele>210.7</ele>
        <time>2020-10-13T11:33:47Z</time>
      </trkpt>
      <trkpt lat="37.698656000" lon="-4.509410000">
        <ele>210.0</ele>
        <time>2020-10-13T11:33:49Z</time>
      </trkpt>
      <trkpt lat="37.698569000" lon="-4.509287000">
        <ele>209.4</ele>
        <time>2020-10-13T11:33:51Z</time>
      </trkpt>
      <trkpt lat="37.698484000" lon="-4.509155000">
        <ele>208.9</ele>
        <time>2020-10-13T11:33:53Z</time>
      </trkpt>
      <trkpt lat="37.698413000" lon="-4.509016000">
        <ele>208.5</ele>
        <time>2020-10-13T11:33:55Z</time>
      </trkpt>
      <trkpt lat="37.698336000" lon="-4.508878000">
        <ele>208.3</ele>
        <time>2020-10-13T11:33:57Z</time>
      </trkpt>
      <trkpt lat="37.698264000" lon="-4.508732000">
        <ele>208.0</ele>
        <time>2020-10-13T11:33:59Z</time>
      </trkpt>
      <trkpt lat="37.698199000" lon="-4.508582000">
        <ele>207.7</ele>
        <time>2020-10-13T11:34:01Z</time>
      </trkpt>
      <trkpt lat="37.698132000" lon="-4.508437000">
        <ele>207.5</ele>
        <time>2020-10-13T11:34:03Z</time>
      </trkpt>
      <trkpt lat="37.698063000" lon="-4.508308000">
        <ele>207.5</ele>
        <time>2020-10-13T11:34:05Z</time>
      </trkpt>
      <trkpt lat="37.697996000" lon="-4.508167000">
        <ele>207.5</ele>
        <time>2020-10-13T11:34:07Z</time>
      </trkpt>
      <trkpt lat="37.697928000" lon="-4.508029000">
        <ele>207.5</ele>
        <time>2020-10-13T11:34:09Z</time>
      </trkpt>
      <trkpt lat="37.697854000" lon="-4.507895000">
        <ele>207.6</ele>
        <time>2020-10-13T11:34:11Z</time>
      </trkpt>
      <trkpt lat="37.697787000" lon="-4.507756000">
        <ele>207.7</ele>
        <time>2020-10-13T11:34:13Z</time>
      </trkpt>
      <trkpt lat="37.697719000" lon="-4.507628000">
        <ele>207.6</ele>
        <time>2020-10-13T11:34:15Z</time>
      </trkpt>
      <trkpt lat="37.697644000" lon="-4.507500000">
        <ele>207.5</ele>
        <time>2020-10-13T11:34:17Z</time>
      </trkpt>
      <trkpt lat="37.697577000" lon="-4.507375000">
        <ele>207.5</ele>
        <time>2020-10-13T11:34:19Z</time>
      </trkpt>
      <trkpt lat="37.697511000" lon="-4.507248000">
        <ele>207.5</ele>
        <time>2020-10-13T11:34:21Z</time>
      </trkpt>
      <trkpt lat="37.697441000" lon="-4.507126000">
        <ele>207.6</ele>
        <time>2020-10-13T11:34:23Z</time>
      </trkpt>
      <trkpt lat="37.697366000" lon="-4.507007000">
        <ele>207.7</ele>
        <time>2020-10-13T11:34:25Z</time>
      </trkpt>
      <trkpt lat="37.697285000" lon="-4.506893000">
        <ele>207.7</ele>
        <time>2020-10-13T11:34:27Z</time>
      </trkpt>
      <trkpt lat="37.697204000" lon="-4.506782000">
        <ele>207.6</ele>
        <time>2020-10-13T11:34:29Z</time>
      </trkpt>
      <trkpt lat="37.697119000" lon="-4.506680000">
        <ele>207.5</ele>
        <time>2020-10-13T11:34:31Z</time>
      </trkpt>
      <trkpt lat="37.697035000" lon="-4.506582000">
        <ele>207.3</ele>
        <time>2020-10-13T11:34:33Z</time>
      </trkpt>
      <trkpt lat="37.696946000" lon="-4.506487000">
        <ele>207.2</ele>
        <time>2020-10-13T11:34:35Z</time>
      </trkpt>
      <trkpt lat="37.696864000" lon="-4.506389000">
        <ele>207.3</ele>
        <time>2020-10-13T11:34:37Z</time>
      </trkpt>
      <trkpt lat="37.696779000" lon="-4.506285000">
        <ele>207.4</ele>
        <time>2020-10-13T11:34:39Z</time>
      </trkpt>
      <trkpt lat="37.696693000" lon="-4.506193000">
        <ele>207.4</ele>
        <time>2020-10-13T11:34:41Z</time>
      </trkpt>
      <trkpt lat="37.696612000" lon="-4.506100000">
        <ele>207.4</ele>
        <time>2020-10-13T11:34:43Z</time>
      </trkpt>
      <trkpt lat="37.696531000" lon="-4.506008000">
        <ele>207.4</ele>
        <time>2020-10-13T11:34:45Z</time>
      </trkpt>
      <trkpt lat="37.696447000" lon="-4.505913000">
        <ele>207.4</ele>
        <time>2020-10-13T11:34:47Z</time>
      </trkpt>
      <trkpt lat="37.696365000" lon="-4.505824000">
        <ele>207.5</ele>
        <time>2020-10-13T11:34:49Z</time>
      </trkpt>
      <trkpt lat="37.696279000" lon="-4.505733000">
        <ele>207.5</ele>
        <time>2020-10-13T11:34:51Z</time>
      </trkpt>
      <trkpt lat="37.696199000" lon="-4.505636000">
        <ele>207.6</ele>
        <time>2020-10-13T11:34:53Z</time>
      </trkpt>
      <trkpt lat="37.696113000" lon="-4.505551000">
        <ele>207.8</ele>
        <time>2020-10-13T11:34:55Z</time>
      </trkpt>
      <trkpt lat="37.696031000" lon="-4.505459000">
        <ele>207.9</ele>
        <time>2020-10-13T11:34:57Z</time>
      </trkpt>
      <trkpt lat="37.695951000" lon="-4.505369000">
        <ele>208.0</ele>
        <time>2020-10-13T11:34:59Z</time>
      </trkpt>
      <trkpt lat="37.695874000" lon="-4.505282000">
        <ele>208.2</ele>
        <time>2020-10-13T11:35:01Z</time>
      </trkpt>
      <trkpt lat="37.695798000" lon="-4.505190000">
        <ele>208.4</ele>
        <time>2020-10-13T11:35:03Z</time>
      </trkpt>
      <trkpt lat="37.695720000" lon="-4.505095000">
        <ele>208.5</ele>
        <time>2020-10-13T11:35:05Z</time>
      </trkpt>
      <trkpt lat="37.695644000" lon="-4.505006000">
        <ele>208.7</ele>
        <time>2020-10-13T11:35:07Z</time>
      </trkpt>
      <trkpt lat="37.695571000" lon="-4.504910000">
        <ele>208.9</ele>
        <time>2020-10-13T11:35:09Z</time>
      </trkpt>
      <trkpt lat="37.695496000" lon="-4.504828000">
        <ele>209.1</ele>
        <time>2020-10-13T11:35:11Z</time>
      </trkpt>
      <trkpt lat="37.695423000" lon="-4.504744000">
        <ele>209.4</ele>
        <time>2020-10-13T11:35:13Z</time>
      </trkpt>
      <trkpt lat="37.695350000" lon="-4.504667000">
        <ele>209.5</ele>
        <time>2020-10-13T11:35:15Z</time>
      </trkpt>
      <trkpt lat="37.695277000" lon="-4.504584000">
        <ele>209.6</ele>
        <time>2020-10-13T11:35:17Z</time>
      </trkpt>
      <trkpt lat="37.695212000" lon="-4.504504000">
        <ele>209.7</ele>
        <time>2020-10-13T11:35:19Z</time>
      </trkpt>
      <trkpt lat="37.695145000" lon="-4.504432000">
        <ele>209.8</ele>
        <time>2020-10-13T11:35:21Z</time>
      </trkpt>
      <trkpt lat="37.695081000" lon="-4.504366000">
        <ele>209.9</ele>
        <time>2020-10-13T11:35:23Z</time>
      </trkpt>
      <trkpt lat="37.695018000" lon="-4.504302000">
        <ele>210.0</ele>
        <time>2020-10-13T11:35:25Z</time>
      </trkpt>
      <trkpt lat="37.694956000" lon="-4.504231000">
        <ele>210.2</ele>
        <time>2020-10-13T11:35:27Z</time>
      </trkpt>
      <trkpt lat="37.694891000" lon="-4.504149000">
        <ele>210.4</ele>
        <time>2020-10-13T11:35:29Z</time>
      </trkpt>
      <trkpt lat="37.694827000" lon="-4.504071000">
        <ele>210.5</ele>
        <time>2020-10-13T11:35:31Z</time>
      </trkpt>
      <trkpt lat="37.694757000" lon="-4.503992000">
        <ele>210.8</ele>
        <time>2020-10-13T11:35:33Z</time>
      </trkpt>
      <trkpt lat="37.694694000" lon="-4.503917000">
        <ele>211.1</ele>
        <time>2020-10-13T11:35:35Z</time>
      </trkpt>
      <trkpt lat="37.694622000" lon="-4.503851000">
        <ele>211.4</ele>
        <time>2020-10-13T11:35:37Z</time>
      </trkpt>
      <trkpt lat="37.694549000" lon="-4.503770000">
        <ele>211.7</ele>
        <time>2020-10-13T11:35:39Z</time>
      </trkpt>
      <trkpt lat="37.694477000" lon="-4.503696000">
        <ele>212.1</ele>
        <time>2020-10-13T11:35:41Z</time>
      </trkpt>
      <trkpt lat="37.694412000" lon="-4.503624000">
        <ele>212.4</ele>
        <time>2020-10-13T11:35:43Z</time>
      </trkpt>
      <trkpt lat="37.694346000" lon="-4.503560000">
        <ele>212.5</ele>
        <time>2020-10-13T11:35:45Z</time>
      </trkpt>
      <trkpt lat="37.694281000" lon="-4.503496000">
        <ele>212.6</ele>
        <time>2020-10-13T11:35:47Z</time>
      </trkpt>
      <trkpt lat="37.694185000" lon="-4.503404000">
        <ele>212.6</ele>
        <time>2020-10-13T11:35:50Z</time>
      </trkpt>
      <trkpt lat="37.694128000" lon="-4.503329000">
        <ele>212.5</ele>
        <time>2020-10-13T11:35:52Z</time>
      </trkpt>
      <trkpt lat="37.694036000" lon="-4.503233000">
        <ele>212.5</ele>
        <time>2020-10-13T11:35:55Z</time>
      </trkpt>
      <trkpt lat="37.693963000" lon="-4.503174000">
        <ele>212.2</ele>
        <time>2020-10-13T11:35:57Z</time>
      </trkpt>
      <trkpt lat="37.693886000" lon="-4.503120000">
        <ele>211.9</ele>
        <time>2020-10-13T11:35:59Z</time>
      </trkpt>
      <trkpt lat="37.693805000" lon="-4.503072000">
        <ele>211.6</ele>
        <time>2020-10-13T11:36:01Z</time>
      </trkpt>
      <trkpt lat="37.693723000" lon="-4.503025000">
        <ele>211.5</ele>
        <time>2020-10-13T11:36:03Z</time>
      </trkpt>
      <trkpt lat="37.693642000" lon="-4.502977000">
        <ele>211.3</ele>
        <time>2020-10-13T11:36:05Z</time>
      </trkpt>
      <trkpt lat="37.693562000" lon="-4.502929000">
        <ele>211.2</ele>
        <time>2020-10-13T11:36:07Z</time>
      </trkpt>
      <trkpt lat="37.693501000" lon="-4.502853000">
        <ele>211.1</ele>
        <time>2020-10-13T11:36:09Z</time>
      </trkpt>
      <trkpt lat="37.693467000" lon="-4.502709000">
        <ele>211.1</ele>
        <time>2020-10-13T11:36:12Z</time>
      </trkpt>
      <trkpt lat="37.693471000" lon="-4.502564000">
        <ele>211.2</ele>
        <time>2020-10-13T11:36:15Z</time>
      </trkpt>
      <trkpt lat="37.693479000" lon="-4.502462000">
        <ele>211.4</ele>
        <time>2020-10-13T11:36:17Z</time>
      </trkpt>
      <trkpt lat="37.693469000" lon="-4.502360000">
        <ele>211.5</ele>
        <time>2020-10-13T11:36:19Z</time>
      </trkpt>
      <trkpt lat="37.693452000" lon="-4.502260000">
        <ele>211.8</ele>
        <time>2020-10-13T11:36:21Z</time>
      </trkpt>
      <trkpt lat="37.693431000" lon="-4.502111000">
        <ele>212.1</ele>
        <time>2020-10-13T11:36:24Z</time>
      </trkpt>
      <trkpt lat="37.693418000" lon="-4.501962000">
        <ele>212.5</ele>
        <time>2020-10-13T11:36:27Z</time>
      </trkpt>
      <trkpt lat="37.693429000" lon="-4.501810000">
        <ele>212.7</ele>
        <time>2020-10-13T11:36:30Z</time>
      </trkpt>
      <trkpt lat="37.693452000" lon="-4.501661000">
        <ele>213.0</ele>
        <time>2020-10-13T11:36:33Z</time>
      </trkpt>
      <trkpt lat="37.693493000" lon="-4.501523000">
        <ele>213.3</ele>
        <time>2020-10-13T11:36:36Z</time>
      </trkpt>
      <trkpt lat="37.693535000" lon="-4.501392000">
        <ele>213.5</ele>
        <time>2020-10-13T11:36:39Z</time>
      </trkpt>
      <trkpt lat="37.693581000" lon="-4.501266000">
        <ele>213.5</ele>
        <time>2020-10-13T11:36:42Z</time>
      </trkpt>
      <trkpt lat="37.693628000" lon="-4.501138000">
        <ele>213.5</ele>
        <time>2020-10-13T11:36:45Z</time>
      </trkpt>
      <trkpt lat="37.693677000" lon="-4.501006000">
        <ele>213.5</ele>
        <time>2020-10-13T11:36:48Z</time>
      </trkpt>
      <trkpt lat="37.693728000" lon="-4.500879000">
        <ele>213.5</ele>
        <time>2020-10-13T11:36:51Z</time>
      </trkpt>
      <trkpt lat="37.693777000" lon="-4.500755000">
        <ele>213.5</ele>
        <time>2020-10-13T11:36:54Z</time>
      </trkpt>
      <trkpt lat="37.693824000" lon="-4.500625000">
        <ele>213.4</ele>
        <time>2020-10-13T11:36:57Z</time>
      </trkpt>
      <trkpt lat="37.693873000" lon="-4.500488000">
        <ele>213.2</ele>
        <time>2020-10-13T11:37:00Z</time>
      </trkpt>
      <trkpt lat="37.693918000" lon="-4.500358000">
        <ele>213.0</ele>
        <time>2020-10-13T11:37:03Z</time>
      </trkpt>
      <trkpt lat="37.693948000" lon="-4.500256000">
        <ele>212.8</ele>
        <time>2020-10-13T11:37:05Z</time>
      </trkpt>
      <trkpt lat="37.693971000" lon="-4.500151000">
        <ele>212.5</ele>
        <time>2020-10-13T11:37:07Z</time>
      </trkpt>
      <trkpt lat="37.693989000" lon="-4.500046000">
        <ele>212.4</ele>
        <time>2020-10-13T11:37:09Z</time>
      </trkpt>
      <trkpt lat="37.694003000" lon="-4.499933000">
        <ele>212.3</ele>
        <time>2020-10-13T11:37:11Z</time>
      </trkpt>
      <trkpt lat="37.694014000" lon="-4.499824000">
        <ele>212.2</ele>
        <time>2020-10-13T11:37:13Z</time>
      </trkpt>
      <trkpt lat="37.694023000" lon="-4.499674000">
        <ele>212.1</ele>
        <time>2020-10-13T11:37:16Z</time>
      </trkpt>
      <trkpt lat="37.694029000" lon="-4.499566000">
        <ele>212.0</ele>
        <time>2020-10-13T11:37:18Z</time>
      </trkpt>
      <trkpt lat="37.694032000" lon="-4.499454000">
        <ele>211.9</ele>
        <time>2020-10-13T11:37:20Z</time>
      </trkpt>
      <trkpt lat="37.694040000" lon="-4.499339000">
        <ele>211.8</ele>
        <time>2020-10-13T11:37:22Z</time>
      </trkpt>
      <trkpt lat="37.694048000" lon="-4.499221000">
        <ele>211.7</ele>
        <time>2020-10-13T11:37:24Z</time>
      </trkpt>
      <trkpt lat="37.694052000" lon="-4.499102000">
        <ele>211.6</ele>
        <time>2020-10-13T11:37:26Z</time>
      </trkpt>
      <trkpt lat="37.694058000" lon="-4.498980000">
        <ele>211.5</ele>
        <time>2020-10-13T11:37:28Z</time>
      </trkpt>
      <trkpt lat="37.694060000" lon="-4.498854000">
        <ele>211.5</ele>
        <time>2020-10-13T11:37:30Z</time>
      </trkpt>
      <trkpt lat="37.694071000" lon="-4.498723000">
        <ele>211.4</ele>
        <time>2020-10-13T11:37:32Z</time>
      </trkpt>
      <trkpt lat="37.694083000" lon="-4.498581000">
        <ele>211.2</ele>
        <time>2020-10-13T11:37:34Z</time>
      </trkpt>
      <trkpt lat="37.694088000" lon="-4.498448000">
        <ele>211.0</ele>
        <time>2020-10-13T11:37:36Z</time>
      </trkpt>
      <trkpt lat="37.694095000" lon="-4.498313000">
        <ele>210.7</ele>
        <time>2020-10-13T11:37:38Z</time>
      </trkpt>
      <trkpt lat="37.694103000" lon="-4.498173000">
        <ele>210.5</ele>
        <time>2020-10-13T11:37:40Z</time>
      </trkpt>
      <trkpt lat="37.694111000" lon="-4.498029000">
        <ele>210.2</ele>
        <time>2020-10-13T11:37:42Z</time>
      </trkpt>
      <trkpt lat="37.694120000" lon="-4.497881000">
        <ele>209.9</ele>
        <time>2020-10-13T11:37:44Z</time>
      </trkpt>
      <trkpt lat="37.694126000" lon="-4.497733000">
        <ele>209.6</ele>
        <time>2020-10-13T11:37:46Z</time>
      </trkpt>
      <trkpt lat="37.694135000" lon="-4.497585000">
        <ele>209.4</ele>
        <time>2020-10-13T11:37:48Z</time>
      </trkpt>
      <trkpt lat="37.694141000" lon="-4.497430000">
        <ele>209.1</ele>
        <time>2020-10-13T11:37:50Z</time>
      </trkpt>
      <trkpt lat="37.694145000" lon="-4.497280000">
        <ele>208.8</ele>
        <time>2020-10-13T11:37:52Z</time>
      </trkpt>
      <trkpt lat="37.694160000" lon="-4.497123000">
        <ele>208.5</ele>
        <time>2020-10-13T11:37:54Z</time>
      </trkpt>
      <trkpt lat="37.694170000" lon="-4.496966000">
        <ele>208.4</ele>
        <time>2020-10-13T11:37:56Z</time>
      </trkpt>
      <trkpt lat="37.694174000" lon="-4.496812000">
        <ele>208.2</ele>
        <time>2020-10-13T11:37:58Z</time>
      </trkpt>
      <trkpt lat="37.694180000" lon="-4.496653000">
        <ele>208.0</ele>
        <time>2020-10-13T11:38:00Z</time>
      </trkpt>
      <trkpt lat="37.694187000" lon="-4.496501000">
        <ele>207.8</ele>
        <time>2020-10-13T11:38:02Z</time>
      </trkpt>
      <trkpt lat="37.694202000" lon="-4.496360000">
        <ele>207.6</ele>
        <time>2020-10-13T11:38:04Z</time>
      </trkpt>
      <trkpt lat="37.694215000" lon="-4.496216000">
        <ele>207.5</ele>
        <time>2020-10-13T11:38:06Z</time>
      </trkpt>
      <trkpt lat="37.694222000" lon="-4.496072000">
        <ele>207.2</ele>
        <time>2020-10-13T11:38:08Z</time>
      </trkpt>
      <trkpt lat="37.694229000" lon="-4.495930000">
        <ele>206.9</ele>
        <time>2020-10-13T11:38:10Z</time>
      </trkpt>
      <trkpt lat="37.694236000" lon="-4.495794000">
        <ele>206.7</ele>
        <time>2020-10-13T11:38:12Z</time>
      </trkpt>
      <trkpt lat="37.694245000" lon="-4.495660000">
        <ele>206.6</ele>
        <time>2020-10-13T11:38:14Z</time>
      </trkpt>
      <trkpt lat="37.694252000" lon="-4.495527000">
        <ele>206.5</ele>
        <time>2020-10-13T11:38:16Z</time>
      </trkpt>
      <trkpt lat="37.694256000" lon="-4.495397000">
        <ele>206.5</ele>
        <time>2020-10-13T11:38:18Z</time>
      </trkpt>
      <trkpt lat="37.694264000" lon="-4.495271000">
        <ele>206.5</ele>
        <time>2020-10-13T11:38:20Z</time>
      </trkpt>
      <trkpt lat="37.694272000" lon="-4.495147000">
        <ele>206.5</ele>
        <time>2020-10-13T11:38:22Z</time>
      </trkpt>
      <trkpt lat="37.694279000" lon="-4.495028000">
        <ele>206.6</ele>
        <time>2020-10-13T11:38:24Z</time>
      </trkpt>
      <trkpt lat="37.694286000" lon="-4.494904000">
        <ele>206.8</ele>
        <time>2020-10-13T11:38:26Z</time>
      </trkpt>
      <trkpt lat="37.694295000" lon="-4.494787000">
        <ele>207.0</ele>
        <time>2020-10-13T11:38:28Z</time>
      </trkpt>
      <trkpt lat="37.694302000" lon="-4.494659000">
        <ele>207.3</ele>
        <time>2020-10-13T11:38:30Z</time>
      </trkpt>
      <trkpt lat="37.694310000" lon="-4.494543000">
        <ele>207.5</ele>
        <time>2020-10-13T11:38:32Z</time>
      </trkpt>
      <trkpt lat="37.694319000" lon="-4.494430000">
        <ele>207.7</ele>
        <time>2020-10-13T11:38:34Z</time>
      </trkpt>
      <trkpt lat="37.694322000" lon="-4.494320000">
        <ele>207.8</ele>
        <time>2020-10-13T11:38:36Z</time>
      </trkpt>
      <trkpt lat="37.694324000" lon="-4.494207000">
        <ele>207.9</ele>
        <time>2020-10-13T11:38:38Z</time>
      </trkpt>
      <trkpt lat="37.694333000" lon="-4.494092000">
        <ele>208.0</ele>
        <time>2020-10-13T11:38:40Z</time>
      </trkpt>
      <trkpt lat="37.694340000" lon="-4.493984000">
        <ele>208.0</ele>
        <time>2020-10-13T11:38:42Z</time>
      </trkpt>
      <trkpt lat="37.694354000" lon="-4.493871000">
        <ele>208.0</ele>
        <time>2020-10-13T11:38:44Z</time>
      </trkpt>
      <trkpt lat="37.694363000" lon="-4.493757000">
        <ele>208.0</ele>
        <time>2020-10-13T11:38:46Z</time>
      </trkpt>
      <trkpt lat="37.694371000" lon="-4.493637000">
        <ele>208.0</ele>
        <time>2020-10-13T11:38:48Z</time>
      </trkpt>
      <trkpt lat="37.694377000" lon="-4.493523000">
        <ele>208.0</ele>
        <time>2020-10-13T11:38:50Z</time>
      </trkpt>
      <trkpt lat="37.694380000" lon="-4.493402000">
        <ele>208.0</ele>
        <time>2020-10-13T11:38:52Z</time>
      </trkpt>
      <trkpt lat="37.694386000" lon="-4.493282000">
        <ele>208.0</ele>
        <time>2020-10-13T11:38:54Z</time>
      </trkpt>
      <trkpt lat="37.694389000" lon="-4.493171000">
        <ele>207.9</ele>
        <time>2020-10-13T11:38:56Z</time>
      </trkpt>
      <trkpt lat="37.694404000" lon="-4.493046000">
        <ele>207.8</ele>
        <time>2020-10-13T11:38:58Z</time>
      </trkpt>
      <trkpt lat="37.694407000" lon="-4.492929000">
        <ele>207.7</ele>
        <time>2020-10-13T11:39:00Z</time>
      </trkpt>
      <trkpt lat="37.694412000" lon="-4.492819000">
        <ele>207.6</ele>
        <time>2020-10-13T11:39:02Z</time>
      </trkpt>
      <trkpt lat="37.694420000" lon="-4.492707000">
        <ele>207.5</ele>
        <time>2020-10-13T11:39:04Z</time>
      </trkpt>
      <trkpt lat="37.694422000" lon="-4.492600000">
        <ele>207.5</ele>
        <time>2020-10-13T11:39:06Z</time>
      </trkpt>
      <trkpt lat="37.694426000" lon="-4.492445000">
        <ele>207.4</ele>
        <time>2020-10-13T11:39:09Z</time>
      </trkpt>
      <trkpt lat="37.694437000" lon="-4.492339000">
        <ele>207.3</ele>
        <time>2020-10-13T11:39:11Z</time>
      </trkpt>
      <trkpt lat="37.694447000" lon="-4.492232000">
        <ele>207.2</ele>
        <time>2020-10-13T11:39:13Z</time>
      </trkpt>
      <trkpt lat="37.694451000" lon="-4.492129000">
        <ele>207.1</ele>
        <time>2020-10-13T11:39:15Z</time>
      </trkpt>
      <trkpt lat="37.694463000" lon="-4.492025000">
        <ele>207.1</ele>
        <time>2020-10-13T11:39:17Z</time>
      </trkpt>
      <trkpt lat="37.694469000" lon="-4.491923000">
        <ele>207.2</ele>
        <time>2020-10-13T11:39:19Z</time>
      </trkpt>
      <trkpt lat="37.694473000" lon="-4.491817000">
        <ele>207.3</ele>
        <time>2020-10-13T11:39:21Z</time>
      </trkpt>
      <trkpt lat="37.694474000" lon="-4.491711000">
        <ele>207.5</ele>
        <time>2020-10-13T11:39:23Z</time>
      </trkpt>
      <trkpt lat="37.694478000" lon="-4.491607000">
        <ele>207.7</ele>
        <time>2020-10-13T11:39:25Z</time>
      </trkpt>
      <trkpt lat="37.694488000" lon="-4.491455000">
        <ele>208.0</ele>
        <time>2020-10-13T11:39:28Z</time>
      </trkpt>
      <trkpt lat="37.694490000" lon="-4.491353000">
        <ele>208.4</ele>
        <time>2020-10-13T11:39:30Z</time>
      </trkpt>
      <trkpt lat="37.694501000" lon="-4.491205000">
        <ele>208.7</ele>
        <time>2020-10-13T11:39:33Z</time>
      </trkpt>
      <trkpt lat="37.694508000" lon="-4.491058000">
        <ele>209.1</ele>
        <time>2020-10-13T11:39:36Z</time>
      </trkpt>
      <trkpt lat="37.694518000" lon="-4.490913000">
        <ele>209.5</ele>
        <time>2020-10-13T11:39:39Z</time>
      </trkpt>
      <trkpt lat="37.694524000" lon="-4.490767000">
        <ele>209.8</ele>
        <time>2020-10-13T11:39:42Z</time>
      </trkpt>
      <trkpt lat="37.694528000" lon="-4.490619000">
        <ele>210.1</ele>
        <time>2020-10-13T11:39:45Z</time>
      </trkpt>
      <trkpt lat="37.694535000" lon="-4.490474000">
        <ele>210.4</ele>
        <time>2020-10-13T11:39:48Z</time>
      </trkpt>
      <trkpt lat="37.694544000" lon="-4.490325000">
        <ele>210.7</ele>
        <time>2020-10-13T11:39:51Z</time>
      </trkpt>
      <trkpt lat="37.694558000" lon="-4.490178000">
        <ele>211.0</ele>
        <time>2020-10-13T11:39:54Z</time>
      </trkpt>
      <trkpt lat="37.694563000" lon="-4.490031000">
        <ele>211.2</ele>
        <time>2020-10-13T11:39:57Z</time>
      </trkpt>
      <trkpt lat="37.694569000" lon="-4.489881000">
        <ele>211.4</ele>
        <time>2020-10-13T11:40:00Z</time>
      </trkpt>
      <trkpt lat="37.694578000" lon="-4.489737000">
        <ele>211.5</ele>
        <time>2020-10-13T11:40:03Z</time>
      </trkpt>
      <trkpt lat="37.694589000" lon="-4.489593000">
        <ele>211.5</ele>
        <time>2020-10-13T11:40:06Z</time>
      </trkpt>
      <trkpt lat="37.694599000" lon="-4.489446000">
        <ele>211.6</ele>
        <time>2020-10-13T11:40:09Z</time>
      </trkpt>
      <trkpt lat="37.694611000" lon="-4.489301000">
        <ele>211.7</ele>
        <time>2020-10-13T11:40:12Z</time>
      </trkpt>
      <trkpt lat="37.694623000" lon="-4.489153000">
        <ele>211.8</ele>
        <time>2020-10-13T11:40:15Z</time>
      </trkpt>
      <trkpt lat="37.694633000" lon="-4.489003000">
        <ele>211.9</ele>
        <time>2020-10-13T11:40:18Z</time>
      </trkpt>
      <trkpt lat="37.694643000" lon="-4.488856000">
        <ele>212.0</ele>
        <time>2020-10-13T11:40:21Z</time>
      </trkpt>
      <trkpt lat="37.694657000" lon="-4.488723000">
        <ele>212.0</ele>
        <time>2020-10-13T11:40:24Z</time>
      </trkpt>
      <trkpt lat="37.694667000" lon="-4.488601000">
        <ele>212.0</ele>
        <time>2020-10-13T11:40:27Z</time>
      </trkpt>
      <trkpt lat="37.694670000" lon="-4.488484000">
        <ele>212.0</ele>
        <time>2020-10-13T11:40:30Z</time>
      </trkpt>
      <trkpt lat="37.694679000" lon="-4.488356000">
        <ele>212.0</ele>
        <time>2020-10-13T11:40:33Z</time>
      </trkpt>
      <trkpt lat="37.694679000" lon="-4.488215000">
        <ele>212.1</ele>
        <time>2020-10-13T11:40:36Z</time>
      </trkpt>
      <trkpt lat="37.694685000" lon="-4.488074000">
        <ele>212.2</ele>
        <time>2020-10-13T11:40:39Z</time>
      </trkpt>
      <trkpt lat="37.694671000" lon="-4.487930000">
        <ele>212.3</ele>
        <time>2020-10-13T11:40:42Z</time>
      </trkpt>
      <trkpt lat="37.694646000" lon="-4.487792000">
        <ele>212.4</ele>
        <time>2020-10-13T11:40:45Z</time>
      </trkpt>
      <trkpt lat="37.694606000" lon="-4.487673000">
        <ele>212.4</ele>
        <time>2020-10-13T11:40:48Z</time>
      </trkpt>
      <trkpt lat="37.694554000" lon="-4.487551000">
        <ele>212.4</ele>
        <time>2020-10-13T11:40:51Z</time>
      </trkpt>
      <trkpt lat="37.694488000" lon="-4.487430000">
        <ele>212.4</ele>
        <time>2020-10-13T11:40:54Z</time>
      </trkpt>
      <trkpt lat="37.694415000" lon="-4.487321000">
        <ele>212.4</ele>
        <time>2020-10-13T11:40:57Z</time>
      </trkpt>
      <trkpt lat="37.694328000" lon="-4.487228000">
        <ele>212.4</ele>
        <time>2020-10-13T11:41:00Z</time>
      </trkpt>
      <trkpt lat="37.694233000" lon="-4.487153000">
        <ele>212.4</ele>
        <time>2020-10-13T11:41:03Z</time>
      </trkpt>
      <trkpt lat="37.694151000" lon="-4.487103000">
        <ele>212.5</ele>
        <time>2020-10-13T11:41:05Z</time>
      </trkpt>
      <trkpt lat="37.694071000" lon="-4.487057000">
        <ele>212.5</ele>
        <time>2020-10-13T11:41:07Z</time>
      </trkpt>
      <trkpt lat="37.693994000" lon="-4.487015000">
        <ele>212.5</ele>
        <time>2020-10-13T11:41:09Z</time>
      </trkpt>
      <trkpt lat="37.693920000" lon="-4.486974000">
        <ele>212.5</ele>
        <time>2020-10-13T11:41:11Z</time>
      </trkpt>
      <trkpt lat="37.693810000" lon="-4.486919000">
        <ele>212.6</ele>
        <time>2020-10-13T11:41:14Z</time>
      </trkpt>
      <trkpt lat="37.693702000" lon="-4.486870000">
        <ele>212.8</ele>
        <time>2020-10-13T11:41:17Z</time>
      </trkpt>
      <trkpt lat="37.693624000" lon="-4.486814000">
        <ele>213.0</ele>
        <time>2020-10-13T11:41:19Z</time>
      </trkpt>
      <trkpt lat="37.693538000" lon="-4.486772000">
        <ele>213.1</ele>
        <time>2020-10-13T11:41:21Z</time>
      </trkpt>
      <trkpt lat="37.693423000" lon="-4.486713000">
        <ele>213.2</ele>
        <time>2020-10-13T11:41:24Z</time>
      </trkpt>
      <trkpt lat="37.693348000" lon="-4.486671000">
        <ele>213.3</ele>
        <time>2020-10-13T11:41:26Z</time>
      </trkpt>
      <trkpt lat="37.693230000" lon="-4.486617000">
        <ele>213.4</ele>
        <time>2020-10-13T11:41:29Z</time>
      </trkpt>
      <trkpt lat="37.693119000" lon="-4.486561000">
        <ele>213.4</ele>
        <time>2020-10-13T11:41:32Z</time>
      </trkpt>
      <trkpt lat="37.693040000" lon="-4.486525000">
        <ele>213.4</ele>
        <time>2020-10-13T11:41:34Z</time>
      </trkpt>
      <trkpt lat="37.692933000" lon="-4.486471000">
        <ele>213.4</ele>
        <time>2020-10-13T11:41:37Z</time>
      </trkpt>
      <trkpt lat="37.692824000" lon="-4.486425000">
        <ele>213.3</ele>
        <time>2020-10-13T11:41:40Z</time>
      </trkpt>
      <trkpt lat="37.692749000" lon="-4.486375000">
        <ele>213.3</ele>
        <time>2020-10-13T11:41:42Z</time>
      </trkpt>
      <trkpt lat="37.692636000" lon="-4.486318000">
        <ele>213.3</ele>
        <time>2020-10-13T11:41:45Z</time>
      </trkpt>
      <trkpt lat="37.692559000" lon="-4.486281000">
        <ele>213.3</ele>
        <time>2020-10-13T11:41:47Z</time>
      </trkpt>
      <trkpt lat="37.692484000" lon="-4.486242000">
        <ele>213.4</ele>
        <time>2020-10-13T11:41:49Z</time>
      </trkpt>
      <trkpt lat="37.692371000" lon="-4.486190000">
        <ele>213.5</ele>
        <time>2020-10-13T11:41:52Z</time>
      </trkpt>
      <trkpt lat="37.692259000" lon="-4.486139000">
        <ele>213.6</ele>
        <time>2020-10-13T11:41:55Z</time>
      </trkpt>
      <trkpt lat="37.692150000" lon="-4.486091000">
        <ele>213.8</ele>
        <time>2020-10-13T11:41:58Z</time>
      </trkpt>
      <trkpt lat="37.692044000" lon="-4.486042000">
        <ele>214.0</ele>
        <time>2020-10-13T11:42:01Z</time>
      </trkpt>
      <trkpt lat="37.691938000" lon="-4.485996000">
        <ele>214.1</ele>
        <time>2020-10-13T11:42:04Z</time>
      </trkpt>
      <trkpt lat="37.691842000" lon="-4.485951000">
        <ele>214.2</ele>
        <time>2020-10-13T11:42:07Z</time>
      </trkpt>
      <trkpt lat="37.691746000" lon="-4.485910000">
        <ele>214.3</ele>
        <time>2020-10-13T11:42:10Z</time>
      </trkpt>
      <trkpt lat="37.691652000" lon="-4.485874000">
        <ele>214.2</ele>
        <time>2020-10-13T11:42:13Z</time>
      </trkpt>
      <trkpt lat="37.691556000" lon="-4.485847000">
        <ele>214.2</ele>
        <time>2020-10-13T11:42:16Z</time>
      </trkpt>
      <trkpt lat="37.691464000" lon="-4.485851000">
        <ele>214.2</ele>
        <time>2020-10-13T11:42:19Z</time>
      </trkpt>
      <trkpt lat="37.691373000" lon="-4.485858000">
        <ele>214.2</ele>
        <time>2020-10-13T11:42:22Z</time>
      </trkpt>
      <trkpt lat="37.691296000" lon="-4.485812000">
        <ele>214.1</ele>
        <time>2020-10-13T11:42:25Z</time>
      </trkpt>
      <trkpt lat="37.691238000" lon="-4.485898000">
        <ele>213.9</ele>
        <time>2020-10-13T11:42:31Z</time>
      </trkpt>
      <trkpt lat="37.691309000" lon="-4.485840000">
        <ele>213.7</ele>
        <time>2020-10-13T11:45:30Z</time>
      </trkpt>
      <trkpt lat="37.691292000" lon="-4.485711000">
        <ele>213.6</ele>
        <time>2020-10-13T11:45:53Z</time>
      </trkpt>
      <trkpt lat="37.691198000" lon="-4.485638000">
        <ele>213.7</ele>
        <time>2020-10-13T11:45:56Z</time>
      </trkpt>
      <trkpt lat="37.691111000" lon="-4.485595000">
        <ele>213.8</ele>
        <time>2020-10-13T11:45:59Z</time>
      </trkpt>
      <trkpt lat="37.691025000" lon="-4.485556000">
        <ele>214.0</ele>
        <time>2020-10-13T11:46:03Z</time>
      </trkpt>
      <trkpt lat="37.690963000" lon="-4.485487000">
        <ele>214.3</ele>
        <time>2020-10-13T11:46:10Z</time>
      </trkpt>
      <trkpt lat="37.690988000" lon="-4.485369000">
        <ele>214.5</ele>
        <time>2020-10-13T11:46:15Z</time>
      </trkpt>
      <trkpt lat="37.691007000" lon="-4.485265000">
        <ele>214.7</ele>
        <time>2020-10-13T11:46:19Z</time>
      </trkpt>
      <trkpt lat="37.691025000" lon="-4.485163000">
        <ele>215.0</ele>
        <time>2020-10-13T11:46:23Z</time>
      </trkpt>
      <trkpt lat="37.691038000" lon="-4.485060000">
        <ele>215.4</ele>
        <time>2020-10-13T11:46:27Z</time>
      </trkpt>
      <trkpt lat="37.691070000" lon="-4.484945000">
        <ele>215.7</ele>
        <time>2020-10-13T11:46:31Z</time>
      </trkpt>
      <trkpt lat="37.690999000" lon="-4.484885000">
        <ele>216.1</ele>
        <time>2020-10-13T11:46:37Z</time>
      </trkpt>
      <trkpt lat="37.690922000" lon="-4.484829000">
        <ele>216.5</ele>
        <time>2020-10-13T11:46:43Z</time>
      </trkpt>
      <trkpt lat="37.690850000" lon="-4.484773000">
        <ele>216.7</ele>
        <time>2020-10-13T11:46:46Z</time>
      </trkpt>
      <trkpt lat="37.690768000" lon="-4.484709000">
        <ele>217.0</ele>
        <time>2020-10-13T11:46:49Z</time>
      </trkpt>
      <trkpt lat="37.690694000" lon="-4.484650000">
        <ele>217.3</ele>
        <time>2020-10-13T11:46:52Z</time>
      </trkpt>
      <trkpt lat="37.690617000" lon="-4.484592000">
        <ele>217.5</ele>
        <time>2020-10-13T11:46:55Z</time>
      </trkpt>
      <trkpt lat="37.690543000" lon="-4.484531000">
        <ele>217.8</ele>
        <time>2020-10-13T11:46:58Z</time>
      </trkpt>
      <trkpt lat="37.690478000" lon="-4.484465000">
        <ele>218.1</ele>
        <time>2020-10-13T11:47:01Z</time>
      </trkpt>
      <trkpt lat="37.690418000" lon="-4.484379000">
        <ele>218.4</ele>
        <time>2020-10-13T11:47:04Z</time>
      </trkpt>
      <trkpt lat="37.690357000" lon="-4.484295000">
        <ele>218.7</ele>
        <time>2020-10-13T11:47:08Z</time>
      </trkpt>
      <trkpt lat="37.690294000" lon="-4.484222000">
        <ele>219.2</ele>
        <time>2020-10-13T11:47:12Z</time>
      </trkpt>
      <trkpt lat="37.690222000" lon="-4.484157000">
        <ele>219.6</ele>
        <time>2020-10-13T11:47:17Z</time>
      </trkpt>
      <trkpt lat="37.690166000" lon="-4.484066000">
        <ele>220.2</ele>
        <time>2020-10-13T11:47:22Z</time>
      </trkpt>
      <trkpt lat="37.690102000" lon="-4.483982000">
        <ele>220.8</ele>
        <time>2020-10-13T11:47:28Z</time>
      </trkpt>
      <trkpt lat="37.690040000" lon="-4.483903000">
        <ele>221.5</ele>
        <time>2020-10-13T11:47:32Z</time>
      </trkpt>
      <trkpt lat="37.689980000" lon="-4.483823000">
        <ele>222.2</ele>
        <time>2020-10-13T11:47:36Z</time>
      </trkpt>
      <trkpt lat="37.689919000" lon="-4.483750000">
        <ele>222.7</ele>
        <time>2020-10-13T11:47:41Z</time>
      </trkpt>
      <trkpt lat="37.689876000" lon="-4.483642000">
        <ele>223.4</ele>
        <time>2020-10-13T11:47:47Z</time>
      </trkpt>
      <trkpt lat="37.689834000" lon="-4.483553000">
        <ele>223.9</ele>
        <time>2020-10-13T11:47:59Z</time>
      </trkpt>
      <trkpt lat="37.689749000" lon="-4.483496000">
        <ele>224.5</ele>
        <time>2020-10-13T11:48:14Z</time>
      </trkpt>
      <trkpt lat="37.689664000" lon="-4.483484000">
        <ele>224.9</ele>
        <time>2020-10-13T11:48:17Z</time>
      </trkpt>
      <trkpt lat="37.689575000" lon="-4.483448000">
        <ele>225.2</ele>
        <time>2020-10-13T11:48:21Z</time>
      </trkpt>
      <trkpt lat="37.689486000" lon="-4.483389000">
        <ele>225.5</ele>
        <time>2020-10-13T11:48:26Z</time>
      </trkpt>
      <trkpt lat="37.689394000" lon="-4.483320000">
        <ele>225.6</ele>
        <time>2020-10-13T11:48:31Z</time>
      </trkpt>
      <trkpt lat="37.689308000" lon="-4.483237000">
        <ele>225.7</ele>
        <time>2020-10-13T11:48:35Z</time>
      </trkpt>
      <trkpt lat="37.689228000" lon="-4.483157000">
        <ele>225.8</ele>
        <time>2020-10-13T11:48:39Z</time>
      </trkpt>
      <trkpt lat="37.689143000" lon="-4.483081000">
        <ele>226.0</ele>
        <time>2020-10-13T11:48:41Z</time>
      </trkpt>
      <trkpt lat="37.689072000" lon="-4.483006000">
        <ele>226.3</ele>
        <time>2020-10-13T11:48:44Z</time>
      </trkpt>
      <trkpt lat="37.688989000" lon="-4.482931000">
        <ele>226.5</ele>
        <time>2020-10-13T11:48:47Z</time>
      </trkpt>
      <trkpt lat="37.688951000" lon="-4.482814000">
        <ele>226.8</ele>
        <time>2020-10-13T11:48:51Z</time>
      </trkpt>
      <trkpt lat="37.688912000" lon="-4.482711000">
        <ele>227.0</ele>
        <time>2020-10-13T11:48:55Z</time>
      </trkpt>
      <trkpt lat="37.688862000" lon="-4.482623000">
        <ele>227.1</ele>
        <time>2020-10-13T11:48:58Z</time>
      </trkpt>
      <trkpt lat="37.688807000" lon="-4.482542000">
        <ele>227.3</ele>
        <time>2020-10-13T11:49:01Z</time>
      </trkpt>
      <trkpt lat="37.688779000" lon="-4.482426000">
        <ele>227.4</ele>
        <time>2020-10-13T11:49:05Z</time>
      </trkpt>
      <trkpt lat="37.688750000" lon="-4.482296000">
        <ele>227.5</ele>
        <time>2020-10-13T11:49:09Z</time>
      </trkpt>
      <trkpt lat="37.688678000" lon="-4.482233000">
        <ele>227.6</ele>
        <time>2020-10-13T11:49:13Z</time>
      </trkpt>
      <trkpt lat="37.688606000" lon="-4.482149000">
        <ele>227.5</ele>
        <time>2020-10-13T11:49:17Z</time>
      </trkpt>
      <trkpt lat="37.688526000" lon="-4.482079000">
        <ele>227.4</ele>
        <time>2020-10-13T11:49:21Z</time>
      </trkpt>
      <trkpt lat="37.688495000" lon="-4.481961000">
        <ele>227.2</ele>
        <time>2020-10-13T11:49:25Z</time>
      </trkpt>
      <trkpt lat="37.688492000" lon="-4.481858000">
        <ele>227.0</ele>
        <time>2020-10-13T11:49:28Z</time>
      </trkpt>
      <trkpt lat="37.688484000" lon="-4.481730000">
        <ele>226.8</ele>
        <time>2020-10-13T11:49:32Z</time>
      </trkpt>
      <trkpt lat="37.688467000" lon="-4.481618000">
        <ele>226.8</ele>
        <time>2020-10-13T11:49:36Z</time>
      </trkpt>
      <trkpt lat="37.688455000" lon="-4.481495000">
        <ele>227.0</ele>
        <time>2020-10-13T11:49:40Z</time>
      </trkpt>
      <trkpt lat="37.688441000" lon="-4.481377000">
        <ele>227.3</ele>
        <time>2020-10-13T11:49:45Z</time>
      </trkpt>
      <trkpt lat="37.688507000" lon="-4.481317000">
        <ele>227.7</ele>
        <time>2020-10-13T11:50:37Z</time>
      </trkpt>
      <trkpt lat="37.688473000" lon="-4.481222000">
        <ele>228.4</ele>
        <time>2020-10-13T11:53:33Z</time>
      </trkpt>
      <trkpt lat="37.688547000" lon="-4.481271000">
        <ele>229.1</ele>
        <time>2020-10-13T11:53:53Z</time>
      </trkpt>
      <trkpt lat="37.688634000" lon="-4.481280000">
        <ele>230.1</ele>
        <time>2020-10-13T11:54:00Z</time>
      </trkpt>
      <trkpt lat="37.688715000" lon="-4.481311000">
        <ele>231.1</ele>
        <time>2020-10-13T11:54:06Z</time>
      </trkpt>
      <trkpt lat="37.688797000" lon="-4.481347000">
        <ele>232.2</ele>
        <time>2020-10-13T11:54:14Z</time>
      </trkpt>
      <trkpt lat="37.688872000" lon="-4.481389000">
        <ele>233.3</ele>
        <time>2020-10-13T11:54:21Z</time>
      </trkpt>
      <trkpt lat="37.688954000" lon="-4.481417000">
        <ele>234.4</ele>
        <time>2020-10-13T11:54:31Z</time>
      </trkpt>
      <trkpt lat="37.689040000" lon="-4.481413000">
        <ele>235.3</ele>
        <time>2020-10-13T11:54:40Z</time>
      </trkpt>
      <trkpt lat="37.689045000" lon="-4.481305000">
        <ele>236.1</ele>
        <time>2020-10-13T11:54:47Z</time>
      </trkpt>
      <trkpt lat="37.689103000" lon="-4.481228000">
        <ele>236.8</ele>
        <time>2020-10-13T11:54:52Z</time>
      </trkpt>
      <trkpt lat="37.689127000" lon="-4.481108000">
        <ele>237.5</ele>
        <time>2020-10-13T11:54:56Z</time>
      </trkpt>
      <trkpt lat="37.689162000" lon="-4.480989000">
        <ele>237.9</ele>
        <time>2020-10-13T11:55:00Z</time>
      </trkpt>
      <trkpt lat="37.689198000" lon="-4.480896000">
        <ele>238.2</ele>
        <time>2020-10-13T11:55:04Z</time>
      </trkpt>
      <trkpt lat="37.689283000" lon="-4.480857000">
        <ele>238.3</ele>
        <time>2020-10-13T11:55:11Z</time>
      </trkpt>
      <trkpt lat="37.689365000" lon="-4.480871000">
        <ele>238.3</ele>
        <time>2020-10-13T11:55:16Z</time>
      </trkpt>
      <trkpt lat="37.689463000" lon="-4.480894000">
        <ele>238.1</ele>
        <time>2020-10-13T11:55:20Z</time>
      </trkpt>
      <trkpt lat="37.689557000" lon="-4.480903000">
        <ele>237.8</ele>
        <time>2020-10-13T11:55:24Z</time>
      </trkpt>
      <trkpt lat="37.689643000" lon="-4.480885000">
        <ele>237.5</ele>
        <time>2020-10-13T11:55:28Z</time>
      </trkpt>
      <trkpt lat="37.689728000" lon="-4.480860000">
        <ele>237.3</ele>
        <time>2020-10-13T11:55:31Z</time>
      </trkpt>
      <trkpt lat="37.689820000" lon="-4.480854000">
        <ele>237.1</ele>
        <time>2020-10-13T11:55:35Z</time>
      </trkpt>
      <trkpt lat="37.689920000" lon="-4.480819000">
        <ele>236.9</ele>
        <time>2020-10-13T11:55:40Z</time>
      </trkpt>
      <trkpt lat="37.690023000" lon="-4.480831000">
        <ele>236.5</ele>
        <time>2020-10-13T11:55:44Z</time>
      </trkpt>
      <trkpt lat="37.690127000" lon="-4.480866000">
        <ele>236.2</ele>
        <time>2020-10-13T11:55:48Z</time>
      </trkpt>
      <trkpt lat="37.690206000" lon="-4.480925000">
        <ele>235.8</ele>
        <time>2020-10-13T11:55:52Z</time>
      </trkpt>
      <trkpt lat="37.690278000" lon="-4.480980000">
        <ele>235.5</ele>
        <time>2020-10-13T11:55:57Z</time>
      </trkpt>
      <trkpt lat="37.690358000" lon="-4.481031000">
        <ele>235.4</ele>
        <time>2020-10-13T11:56:03Z</time>
      </trkpt>
      <trkpt lat="37.690431000" lon="-4.480977000">
        <ele>235.2</ele>
        <time>2020-10-13T11:56:12Z</time>
      </trkpt>
      <trkpt lat="37.690363000" lon="-4.480919000">
        <ele>235.1</ele>
        <time>2020-10-13T11:56:19Z</time>
      </trkpt>
      <trkpt lat="37.690299000" lon="-4.480846000">
        <ele>235.1</ele>
        <time>2020-10-13T11:57:48Z</time>
      </trkpt>
      <trkpt lat="37.690353000" lon="-4.480935000">
        <ele>235.0</ele>
        <time>2020-10-13T11:58:36Z</time>
      </trkpt>
      <trkpt lat="37.690440000" lon="-4.480952000">
        <ele>235.0</ele>
        <time>2020-10-13T11:58:40Z</time>
      </trkpt>
      <trkpt lat="37.690531000" lon="-4.480984000">
        <ele>235.0</ele>
        <time>2020-10-13T11:58:43Z</time>
      </trkpt>
      <trkpt lat="37.690610000" lon="-4.481031000">
        <ele>235.0</ele>
        <time>2020-10-13T11:58:46Z</time>
      </trkpt>
      <trkpt lat="37.690692000" lon="-4.481049000">
        <ele>234.9</ele>
        <time>2020-10-13T11:58:49Z</time>
      </trkpt>
      <trkpt lat="37.690773000" lon="-4.481123000">
        <ele>234.9</ele>
        <time>2020-10-13T11:58:53Z</time>
      </trkpt>
      <trkpt lat="37.690839000" lon="-4.481184000">
        <ele>234.9</ele>
        <time>2020-10-13T11:58:56Z</time>
      </trkpt>
      <trkpt lat="37.690908000" lon="-4.481272000">
        <ele>234.9</ele>
        <time>2020-10-13T11:58:59Z</time>
      </trkpt>
      <trkpt lat="37.690977000" lon="-4.481211000">
        <ele>235.0</ele>
        <time>2020-10-13T11:59:17Z</time>
      </trkpt>
      <trkpt lat="37.691068000" lon="-4.481173000">
        <ele>234.9</ele>
        <time>2020-10-13T11:59:23Z</time>
      </trkpt>
      <trkpt lat="37.691158000" lon="-4.481210000">
        <ele>234.8</ele>
        <time>2020-10-13T11:59:28Z</time>
      </trkpt>
      <trkpt lat="37.691236000" lon="-4.481284000">
        <ele>234.6</ele>
        <time>2020-10-13T11:59:34Z</time>
      </trkpt>
      <trkpt lat="37.691323000" lon="-4.481333000">
        <ele>234.4</ele>
        <time>2020-10-13T11:59:39Z</time>
      </trkpt>
      <trkpt lat="37.691387000" lon="-4.481425000">
        <ele>234.1</ele>
        <time>2020-10-13T11:59:44Z</time>
      </trkpt>
      <trkpt lat="37.691443000" lon="-4.481521000">
        <ele>233.9</ele>
        <time>2020-10-13T11:59:49Z</time>
      </trkpt>
      <trkpt lat="37.691460000" lon="-4.481637000">
        <ele>233.9</ele>
        <time>2020-10-13T11:59:54Z</time>
      </trkpt>
      <trkpt lat="37.691470000" lon="-4.481765000">
        <ele>234.1</ele>
        <time>2020-10-13T11:59:59Z</time>
      </trkpt>
      <trkpt lat="37.691473000" lon="-4.481886000">
        <ele>234.2</ele>
        <time>2020-10-13T12:00:03Z</time>
      </trkpt>
      <trkpt lat="37.691463000" lon="-4.482006000">
        <ele>234.4</ele>
        <time>2020-10-13T12:00:07Z</time>
      </trkpt>
      <trkpt lat="37.691428000" lon="-4.482113000">
        <ele>234.6</ele>
        <time>2020-10-13T12:00:11Z</time>
      </trkpt>
      <trkpt lat="37.691380000" lon="-4.482198000">
        <ele>235.2</ele>
        <time>2020-10-13T12:00:16Z</time>
      </trkpt>
      <trkpt lat="37.691293000" lon="-4.482177000">
        <ele>235.7</ele>
        <time>2020-10-13T12:00:23Z</time>
      </trkpt>
      <trkpt lat="37.691290000" lon="-4.482053000">
        <ele>236.4</ele>
        <time>2020-10-13T12:00:33Z</time>
      </trkpt>
      <trkpt lat="37.691284000" lon="-4.481942000">
        <ele>237.0</ele>
        <time>2020-10-13T12:00:38Z</time>
      </trkpt>
      <trkpt lat="37.691196000" lon="-4.481880000">
        <ele>237.6</ele>
        <time>2020-10-13T12:00:45Z</time>
      </trkpt>
      <trkpt lat="37.691100000" lon="-4.481850000">
        <ele>238.3</ele>
        <time>2020-10-13T12:00:49Z</time>
      </trkpt>
      <trkpt lat="37.691026000" lon="-4.481798000">
        <ele>238.8</ele>
        <time>2020-10-13T12:00:52Z</time>
      </trkpt>
      <trkpt lat="37.690946000" lon="-4.481751000">
        <ele>239.3</ele>
        <time>2020-10-13T12:00:56Z</time>
      </trkpt>
      <trkpt lat="37.690864000" lon="-4.481740000">
        <ele>239.7</ele>
        <time>2020-10-13T12:00:59Z</time>
      </trkpt>
      <trkpt lat="37.690791000" lon="-4.481800000">
        <ele>240.0</ele>
        <time>2020-10-13T12:01:04Z</time>
      </trkpt>
      <trkpt lat="37.690694000" lon="-4.481775000">
        <ele>240.2</ele>
        <time>2020-10-13T12:01:09Z</time>
      </trkpt>
      <trkpt lat="37.690592000" lon="-4.481793000">
        <ele>240.2</ele>
        <time>2020-10-13T12:01:15Z</time>
      </trkpt>
      <trkpt lat="37.690501000" lon="-4.481833000">
        <ele>240.1</ele>
        <time>2020-10-13T12:01:19Z</time>
      </trkpt>
      <trkpt lat="37.690442000" lon="-4.481913000">
        <ele>240.0</ele>
        <time>2020-10-13T12:02:04Z</time>
      </trkpt>
      <trkpt lat="37.690383000" lon="-4.481833000">
        <ele>239.8</ele>
        <time>2020-10-13T12:02:36Z</time>
      </trkpt>
      <trkpt lat="37.690336000" lon="-4.481929000">
        <ele>239.6</ele>
        <time>2020-10-13T12:03:49Z</time>
      </trkpt>
      <trkpt lat="37.690305000" lon="-4.482031000">
        <ele>239.4</ele>
        <time>2020-10-13T12:03:54Z</time>
      </trkpt>
      <trkpt lat="37.690251000" lon="-4.482126000">
        <ele>239.1</ele>
        <time>2020-10-13T12:03:58Z</time>
      </trkpt>
      <trkpt lat="37.690235000" lon="-4.482240000">
        <ele>238.7</ele>
        <time>2020-10-13T12:04:01Z</time>
      </trkpt>
      <trkpt lat="37.690193000" lon="-4.482327000">
        <ele>238.5</ele>
        <time>2020-10-13T12:04:10Z</time>
      </trkpt>
      <trkpt lat="37.690114000" lon="-4.482356000">
        <ele>238.3</ele>
        <time>2020-10-13T12:04:53Z</time>
      </trkpt>
      <trkpt lat="37.690031000" lon="-4.482382000">
        <ele>238.1</ele>
        <time>2020-10-13T12:05:01Z</time>
      </trkpt>
      <trkpt lat="37.689948000" lon="-4.482403000">
        <ele>238.0</ele>
        <time>2020-10-13T12:05:13Z</time>
      </trkpt>
      <trkpt lat="37.689865000" lon="-4.482369000">
        <ele>238.1</ele>
        <time>2020-10-13T12:05:20Z</time>
      </trkpt>
      <trkpt lat="37.689774000" lon="-4.482332000">
        <ele>238.1</ele>
        <time>2020-10-13T12:05:26Z</time>
      </trkpt>
      <trkpt lat="37.689670000" lon="-4.482342000">
        <ele>238.0</ele>
        <time>2020-10-13T12:05:33Z</time>
      </trkpt>
      <trkpt lat="37.689590000" lon="-4.482272000">
        <ele>237.9</ele>
        <time>2020-10-13T12:05:37Z</time>
      </trkpt>
      <trkpt lat="37.689519000" lon="-4.482219000">
        <ele>238.1</ele>
        <time>2020-10-13T12:05:46Z</time>
      </trkpt>
      <trkpt lat="37.689456000" lon="-4.482143000">
        <ele>238.4</ele>
        <time>2020-10-13T12:05:52Z</time>
      </trkpt>
      <trkpt lat="37.689371000" lon="-4.482154000">
        <ele>238.7</ele>
        <time>2020-10-13T12:06:00Z</time>
      </trkpt>
      <trkpt lat="37.689329000" lon="-4.482267000">
        <ele>239.0</ele>
        <time>2020-10-13T12:06:04Z</time>
      </trkpt>
      <trkpt lat="37.689275000" lon="-4.482186000">
        <ele>239.3</ele>
        <time>2020-10-13T12:06:14Z</time>
      </trkpt>
      <trkpt lat="37.689336000" lon="-4.482100000">
        <ele>239.5</ele>
        <time>2020-10-13T12:06:18Z</time>
      </trkpt>
      <trkpt lat="37.689400000" lon="-4.482026000">
        <ele>239.5</ele>
        <time>2020-10-13T12:06:27Z</time>
      </trkpt>
      <trkpt lat="37.689419000" lon="-4.481899000">
        <ele>239.5</ele>
        <time>2020-10-13T12:06:30Z</time>
      </trkpt>
      <trkpt lat="37.689425000" lon="-4.481795000">
        <ele>239.4</ele>
        <time>2020-10-13T12:06:33Z</time>
      </trkpt>
      <trkpt lat="37.689440000" lon="-4.481683000">
        <ele>239.3</ele>
        <time>2020-10-13T12:06:37Z</time>
      </trkpt>
      <trkpt lat="37.689357000" lon="-4.481618000">
        <ele>239.1</ele>
        <time>2020-10-13T12:06:41Z</time>
      </trkpt>
      <trkpt lat="37.689275000" lon="-4.481582000">
        <ele>238.6</ele>
        <time>2020-10-13T12:06:44Z</time>
      </trkpt>
      <trkpt lat="37.689189000" lon="-4.481560000">
        <ele>237.9</ele>
        <time>2020-10-13T12:06:47Z</time>
      </trkpt>
      <trkpt lat="37.689110000" lon="-4.481513000">
        <ele>236.9</ele>
        <time>2020-10-13T12:06:52Z</time>
      </trkpt>
      <trkpt lat="37.689023000" lon="-4.481490000">
        <ele>235.7</ele>
        <time>2020-10-13T12:06:56Z</time>
      </trkpt>
      <trkpt lat="37.688938000" lon="-4.481457000">
        <ele>234.5</ele>
        <time>2020-10-13T12:06:59Z</time>
      </trkpt>
      <trkpt lat="37.688864000" lon="-4.481373000">
        <ele>233.2</ele>
        <time>2020-10-13T12:07:03Z</time>
      </trkpt>
      <trkpt lat="37.688781000" lon="-4.481332000">
        <ele>231.8</ele>
        <time>2020-10-13T12:07:06Z</time>
      </trkpt>
      <trkpt lat="37.688675000" lon="-4.481303000">
        <ele>230.5</ele>
        <time>2020-10-13T12:07:11Z</time>
      </trkpt>
      <trkpt lat="37.688584000" lon="-4.481290000">
        <ele>229.2</ele>
        <time>2020-10-13T12:07:15Z</time>
      </trkpt>
      <trkpt lat="37.688500000" lon="-4.481269000">
        <ele>228.1</ele>
        <time>2020-10-13T12:07:20Z</time>
      </trkpt>
      <trkpt lat="37.688426000" lon="-4.481324000">
        <ele>227.0</ele>
        <time>2020-10-13T12:07:27Z</time>
      </trkpt>
      <trkpt lat="37.688330000" lon="-4.481273000">
        <ele>226.0</ele>
        <time>2020-10-13T12:07:33Z</time>
      </trkpt>
      <trkpt lat="37.688271000" lon="-4.481186000">
        <ele>225.2</ele>
        <time>2020-10-13T12:07:36Z</time>
      </trkpt>
      <trkpt lat="37.688222000" lon="-4.481053000">
        <ele>224.5</ele>
        <time>2020-10-13T12:07:39Z</time>
      </trkpt>
      <trkpt lat="37.688224000" lon="-4.480897000">
        <ele>223.9</ele>
        <time>2020-10-13T12:07:42Z</time>
      </trkpt>
      <trkpt lat="37.688246000" lon="-4.480794000">
        <ele>223.3</ele>
        <time>2020-10-13T12:07:44Z</time>
      </trkpt>
      <trkpt lat="37.688284000" lon="-4.480690000">
        <ele>222.6</ele>
        <time>2020-10-13T12:07:46Z</time>
      </trkpt>
      <trkpt lat="37.688324000" lon="-4.480547000">
        <ele>222.0</ele>
        <time>2020-10-13T12:07:49Z</time>
      </trkpt>
      <trkpt lat="37.688398000" lon="-4.480454000">
        <ele>221.3</ele>
        <time>2020-10-13T12:07:51Z</time>
      </trkpt>
      <trkpt lat="37.688449000" lon="-4.480353000">
        <ele>220.5</ele>
        <time>2020-10-13T12:07:53Z</time>
      </trkpt>
      <trkpt lat="37.688493000" lon="-4.480259000">
        <ele>219.6</ele>
        <time>2020-10-13T12:07:55Z</time>
      </trkpt>
      <trkpt lat="37.688514000" lon="-4.480160000">
        <ele>218.8</ele>
        <time>2020-10-13T12:07:57Z</time>
      </trkpt>
      <trkpt lat="37.688554000" lon="-4.480059000">
        <ele>218.0</ele>
        <time>2020-10-13T12:07:59Z</time>
      </trkpt>
      <trkpt lat="37.688588000" lon="-4.479934000">
        <ele>217.2</ele>
        <time>2020-10-13T12:08:02Z</time>
      </trkpt>
      <trkpt lat="37.688654000" lon="-4.479861000">
        <ele>216.4</ele>
        <time>2020-10-13T12:08:06Z</time>
      </trkpt>
      <trkpt lat="37.688738000" lon="-4.479832000">
        <ele>215.7</ele>
        <time>2020-10-13T12:08:11Z</time>
      </trkpt>
      <trkpt lat="37.688789000" lon="-4.479753000">
        <ele>215.1</ele>
        <time>2020-10-13T12:08:15Z</time>
      </trkpt>
      <trkpt lat="37.688826000" lon="-4.479661000">
        <ele>214.5</ele>
        <time>2020-10-13T12:08:24Z</time>
      </trkpt>
      <trkpt lat="37.688923000" lon="-4.479629000">
        <ele>214.2</ele>
        <time>2020-10-13T12:08:28Z</time>
      </trkpt>
      <trkpt lat="37.689033000" lon="-4.479604000">
        <ele>214.0</ele>
        <time>2020-10-13T12:08:31Z</time>
      </trkpt>
      <trkpt lat="37.689115000" lon="-4.479606000">
        <ele>213.9</ele>
        <time>2020-10-13T12:08:34Z</time>
      </trkpt>
      <trkpt lat="37.689114000" lon="-4.479503000">
        <ele>213.7</ele>
        <time>2020-10-13T12:08:55Z</time>
      </trkpt>
      <trkpt lat="37.689117000" lon="-4.479402000">
        <ele>213.7</ele>
        <time>2020-10-13T12:09:47Z</time>
      </trkpt>
      <trkpt lat="37.689104000" lon="-4.479439000">
        <ele>214.0</ele>
        <time>2020-10-13T12:37:33Z</time>
      </trkpt>
      <trkpt lat="37.689108000" lon="-4.479410000">
        <ele>214.3</ele>
        <time>2020-10-13T12:37:42Z</time>
      </trkpt>
      <trkpt lat="37.689156000" lon="-4.479510000">
        <ele>214.6</ele>
        <time>2020-10-13T12:41:40Z</time>
      </trkpt>
      <trkpt lat="37.689247000" lon="-4.479544000">
        <ele>215.0</ele>
        <time>2020-10-13T12:41:45Z</time>
      </trkpt>
      <trkpt lat="37.689342000" lon="-4.479573000">
        <ele>215.3</ele>
        <time>2020-10-13T12:41:49Z</time>
      </trkpt>
      <trkpt lat="37.689441000" lon="-4.479602000">
        <ele>215.5</ele>
        <time>2020-10-13T12:41:53Z</time>
      </trkpt>
      <trkpt lat="37.689523000" lon="-4.479610000">
        <ele>216.0</ele>
        <time>2020-10-13T12:41:56Z</time>
      </trkpt>
      <trkpt lat="37.689626000" lon="-4.479616000">
        <ele>216.4</ele>
        <time>2020-10-13T12:42:00Z</time>
      </trkpt>
      <trkpt lat="37.689730000" lon="-4.479608000">
        <ele>216.6</ele>
        <time>2020-10-13T12:42:04Z</time>
      </trkpt>
      <trkpt lat="37.689827000" lon="-4.479594000">
        <ele>216.8</ele>
        <time>2020-10-13T12:42:08Z</time>
      </trkpt>
      <trkpt lat="37.689928000" lon="-4.479564000">
        <ele>216.9</ele>
        <time>2020-10-13T12:42:12Z</time>
      </trkpt>
      <trkpt lat="37.690011000" lon="-4.479518000">
        <ele>216.9</ele>
        <time>2020-10-13T12:42:15Z</time>
      </trkpt>
      <trkpt lat="37.690102000" lon="-4.479463000">
        <ele>216.9</ele>
        <time>2020-10-13T12:42:18Z</time>
      </trkpt>
      <trkpt lat="37.690195000" lon="-4.479400000">
        <ele>216.8</ele>
        <time>2020-10-13T12:42:21Z</time>
      </trkpt>
      <trkpt lat="37.690293000" lon="-4.479313000">
        <ele>216.7</ele>
        <time>2020-10-13T12:42:24Z</time>
      </trkpt>
      <trkpt lat="37.690361000" lon="-4.479251000">
        <ele>216.7</ele>
        <time>2020-10-13T12:42:26Z</time>
      </trkpt>
      <trkpt lat="37.690427000" lon="-4.479189000">
        <ele>216.7</ele>
        <time>2020-10-13T12:42:28Z</time>
      </trkpt>
      <trkpt lat="37.690490000" lon="-4.479121000">
        <ele>216.8</ele>
        <time>2020-10-13T12:42:30Z</time>
      </trkpt>
      <trkpt lat="37.690546000" lon="-4.479043000">
        <ele>217.0</ele>
        <time>2020-10-13T12:42:32Z</time>
      </trkpt>
      <trkpt lat="37.690590000" lon="-4.478952000">
        <ele>217.3</ele>
        <time>2020-10-13T12:42:34Z</time>
      </trkpt>
      <trkpt lat="37.690636000" lon="-4.478857000">
        <ele>217.5</ele>
        <time>2020-10-13T12:42:36Z</time>
      </trkpt>
      <trkpt lat="37.690678000" lon="-4.478760000">
        <ele>217.7</ele>
        <time>2020-10-13T12:42:38Z</time>
      </trkpt>
      <trkpt lat="37.690711000" lon="-4.478658000">
        <ele>217.9</ele>
        <time>2020-10-13T12:42:40Z</time>
      </trkpt>
      <trkpt lat="37.690762000" lon="-4.478562000">
        <ele>218.0</ele>
        <time>2020-10-13T12:42:42Z</time>
      </trkpt>
      <trkpt lat="37.690786000" lon="-4.478412000">
        <ele>218.1</ele>
        <time>2020-10-13T12:42:45Z</time>
      </trkpt>
      <trkpt lat="37.690821000" lon="-4.478293000">
        <ele>218.1</ele>
        <time>2020-10-13T12:42:47Z</time>
      </trkpt>
      <trkpt lat="37.690860000" lon="-4.478182000">
        <ele>217.9</ele>
        <time>2020-10-13T12:42:49Z</time>
      </trkpt>
      <trkpt lat="37.690899000" lon="-4.478076000">
        <ele>217.7</ele>
        <time>2020-10-13T12:42:51Z</time>
      </trkpt>
      <trkpt lat="37.690929000" lon="-4.477960000">
        <ele>217.5</ele>
        <time>2020-10-13T12:42:53Z</time>
      </trkpt>
      <trkpt lat="37.690964000" lon="-4.477841000">
        <ele>217.2</ele>
        <time>2020-10-13T12:42:55Z</time>
      </trkpt>
      <trkpt lat="37.690993000" lon="-4.477736000">
        <ele>217.0</ele>
        <time>2020-10-13T12:42:57Z</time>
      </trkpt>
      <trkpt lat="37.691026000" lon="-4.477627000">
        <ele>216.8</ele>
        <time>2020-10-13T12:42:59Z</time>
      </trkpt>
      <trkpt lat="37.691073000" lon="-4.477532000">
        <ele>216.8</ele>
        <time>2020-10-13T12:43:01Z</time>
      </trkpt>
      <trkpt lat="37.691167000" lon="-4.477430000">
        <ele>216.8</ele>
        <time>2020-10-13T12:43:04Z</time>
      </trkpt>
      <trkpt lat="37.691237000" lon="-4.477358000">
        <ele>216.9</ele>
        <time>2020-10-13T12:43:06Z</time>
      </trkpt>
      <trkpt lat="37.691320000" lon="-4.477299000">
        <ele>217.0</ele>
        <time>2020-10-13T12:43:08Z</time>
      </trkpt>
      <trkpt lat="37.691398000" lon="-4.477244000">
        <ele>217.1</ele>
        <time>2020-10-13T12:43:10Z</time>
      </trkpt>
      <trkpt lat="37.691469000" lon="-4.477182000">
        <ele>217.3</ele>
        <time>2020-10-13T12:43:12Z</time>
      </trkpt>
      <trkpt lat="37.691557000" lon="-4.477094000">
        <ele>217.4</ele>
        <time>2020-10-13T12:43:15Z</time>
      </trkpt>
      <trkpt lat="37.691646000" lon="-4.477024000">
        <ele>217.5</ele>
        <time>2020-10-13T12:43:18Z</time>
      </trkpt>
      <trkpt lat="37.691715000" lon="-4.476946000">
        <ele>217.5</ele>
        <time>2020-10-13T12:43:21Z</time>
      </trkpt>
      <trkpt lat="37.691749000" lon="-4.476841000">
        <ele>217.5</ele>
        <time>2020-10-13T12:43:24Z</time>
      </trkpt>
      <trkpt lat="37.691756000" lon="-4.476725000">
        <ele>217.5</ele>
        <time>2020-10-13T12:43:27Z</time>
      </trkpt>
      <trkpt lat="37.691726000" lon="-4.476592000">
        <ele>217.5</ele>
        <time>2020-10-13T12:43:30Z</time>
      </trkpt>
      <trkpt lat="37.691691000" lon="-4.476445000">
        <ele>217.4</ele>
        <time>2020-10-13T12:43:33Z</time>
      </trkpt>
      <trkpt lat="37.691663000" lon="-4.476341000">
        <ele>217.3</ele>
        <time>2020-10-13T12:43:35Z</time>
      </trkpt>
      <trkpt lat="37.691634000" lon="-4.476233000">
        <ele>217.2</ele>
        <time>2020-10-13T12:43:37Z</time>
      </trkpt>
      <trkpt lat="37.691613000" lon="-4.476110000">
        <ele>217.1</ele>
        <time>2020-10-13T12:43:39Z</time>
      </trkpt>
      <trkpt lat="37.691589000" lon="-4.475994000">
        <ele>217.0</ele>
        <time>2020-10-13T12:43:41Z</time>
      </trkpt>
      <trkpt lat="37.691560000" lon="-4.475883000">
        <ele>217.0</ele>
        <time>2020-10-13T12:43:43Z</time>
      </trkpt>
      <trkpt lat="37.691533000" lon="-4.475775000">
        <ele>217.1</ele>
        <time>2020-10-13T12:43:45Z</time>
      </trkpt>
      <trkpt lat="37.691503000" lon="-4.475663000">
        <ele>217.2</ele>
        <time>2020-10-13T12:43:47Z</time>
      </trkpt>
      <trkpt lat="37.691477000" lon="-4.475549000">
        <ele>217.4</ele>
        <time>2020-10-13T12:43:49Z</time>
      </trkpt>
      <trkpt lat="37.691457000" lon="-4.475431000">
        <ele>217.5</ele>
        <time>2020-10-13T12:43:51Z</time>
      </trkpt>
      <trkpt lat="37.691431000" lon="-4.475313000">
        <ele>217.8</ele>
        <time>2020-10-13T12:43:53Z</time>
      </trkpt>
      <trkpt lat="37.691407000" lon="-4.475191000">
        <ele>218.0</ele>
        <time>2020-10-13T12:43:55Z</time>
      </trkpt>
      <trkpt lat="37.691381000" lon="-4.475082000">
        <ele>218.2</ele>
        <time>2020-10-13T12:43:57Z</time>
      </trkpt>
      <trkpt lat="37.691346000" lon="-4.474963000">
        <ele>218.3</ele>
        <time>2020-10-13T12:43:59Z</time>
      </trkpt>
      <trkpt lat="37.691317000" lon="-4.474843000">
        <ele>218.3</ele>
        <time>2020-10-13T12:44:01Z</time>
      </trkpt>
      <trkpt lat="37.691294000" lon="-4.474737000">
        <ele>218.3</ele>
        <time>2020-10-13T12:44:03Z</time>
      </trkpt>
      <trkpt lat="37.691270000" lon="-4.474632000">
        <ele>218.3</ele>
        <time>2020-10-13T12:44:05Z</time>
      </trkpt>
      <trkpt lat="37.691250000" lon="-4.474523000">
        <ele>218.2</ele>
        <time>2020-10-13T12:44:07Z</time>
      </trkpt>
      <trkpt lat="37.691228000" lon="-4.474419000">
        <ele>218.2</ele>
        <time>2020-10-13T12:44:09Z</time>
      </trkpt>
      <trkpt lat="37.691191000" lon="-4.474305000">
        <ele>218.1</ele>
        <time>2020-10-13T12:44:11Z</time>
      </trkpt>
      <trkpt lat="37.691158000" lon="-4.474192000">
        <ele>218.0</ele>
        <time>2020-10-13T12:44:13Z</time>
      </trkpt>
      <trkpt lat="37.691134000" lon="-4.474078000">
        <ele>217.8</ele>
        <time>2020-10-13T12:44:15Z</time>
      </trkpt>
      <trkpt lat="37.691107000" lon="-4.473960000">
        <ele>217.6</ele>
        <time>2020-10-13T12:44:17Z</time>
      </trkpt>
      <trkpt lat="37.691077000" lon="-4.473841000">
        <ele>217.5</ele>
        <time>2020-10-13T12:44:19Z</time>
      </trkpt>
      <trkpt lat="37.691042000" lon="-4.473725000">
        <ele>217.4</ele>
        <time>2020-10-13T12:44:21Z</time>
      </trkpt>
      <trkpt lat="37.691011000" lon="-4.473608000">
        <ele>217.4</ele>
        <time>2020-10-13T12:44:23Z</time>
      </trkpt>
      <trkpt lat="37.690984000" lon="-4.473490000">
        <ele>217.5</ele>
        <time>2020-10-13T12:44:25Z</time>
      </trkpt>
      <trkpt lat="37.690959000" lon="-4.473377000">
        <ele>217.5</ele>
        <time>2020-10-13T12:44:27Z</time>
      </trkpt>
      <trkpt lat="37.690937000" lon="-4.473261000">
        <ele>217.6</ele>
        <time>2020-10-13T12:44:29Z</time>
      </trkpt>
      <trkpt lat="37.690912000" lon="-4.473158000">
        <ele>217.6</ele>
        <time>2020-10-13T12:44:31Z</time>
      </trkpt>
      <trkpt lat="37.690887000" lon="-4.473050000">
        <ele>217.6</ele>
        <time>2020-10-13T12:44:33Z</time>
      </trkpt>
      <trkpt lat="37.690868000" lon="-4.472939000">
        <ele>217.5</ele>
        <time>2020-10-13T12:44:35Z</time>
      </trkpt>
      <trkpt lat="37.690849000" lon="-4.472828000">
        <ele>217.5</ele>
        <time>2020-10-13T12:44:37Z</time>
      </trkpt>
      <trkpt lat="37.690834000" lon="-4.472720000">
        <ele>217.4</ele>
        <time>2020-10-13T12:44:39Z</time>
      </trkpt>
      <trkpt lat="37.690819000" lon="-4.472600000">
        <ele>217.3</ele>
        <time>2020-10-13T12:44:41Z</time>
      </trkpt>
      <trkpt lat="37.690807000" lon="-4.472481000">
        <ele>217.1</ele>
        <time>2020-10-13T12:44:43Z</time>
      </trkpt>
      <trkpt lat="37.690793000" lon="-4.472362000">
        <ele>216.9</ele>
        <time>2020-10-13T12:44:45Z</time>
      </trkpt>
      <trkpt lat="37.690780000" lon="-4.472243000">
        <ele>216.6</ele>
        <time>2020-10-13T12:44:47Z</time>
      </trkpt>
      <trkpt lat="37.690773000" lon="-4.472121000">
        <ele>216.3</ele>
        <time>2020-10-13T12:44:49Z</time>
      </trkpt>
      <trkpt lat="37.690762000" lon="-4.472003000">
        <ele>215.9</ele>
        <time>2020-10-13T12:44:51Z</time>
      </trkpt>
      <trkpt lat="37.690746000" lon="-4.471881000">
        <ele>215.5</ele>
        <time>2020-10-13T12:44:53Z</time>
      </trkpt>
      <trkpt lat="37.690737000" lon="-4.471766000">
        <ele>215.2</ele>
        <time>2020-10-13T12:44:55Z</time>
      </trkpt>
      <trkpt lat="37.690728000" lon="-4.471645000">
        <ele>215.0</ele>
        <time>2020-10-13T12:44:57Z</time>
      </trkpt>
      <trkpt lat="37.690721000" lon="-4.471525000">
        <ele>214.9</ele>
        <time>2020-10-13T12:44:59Z</time>
      </trkpt>
      <trkpt lat="37.690710000" lon="-4.471410000">
        <ele>214.9</ele>
        <time>2020-10-13T12:45:01Z</time>
      </trkpt>
      <trkpt lat="37.690697000" lon="-4.471298000">
        <ele>215.0</ele>
        <time>2020-10-13T12:45:03Z</time>
      </trkpt>
      <trkpt lat="37.690689000" lon="-4.471181000">
        <ele>215.2</ele>
        <time>2020-10-13T12:45:05Z</time>
      </trkpt>
      <trkpt lat="37.690679000" lon="-4.471065000">
        <ele>215.4</ele>
        <time>2020-10-13T12:45:07Z</time>
      </trkpt>
      <trkpt lat="37.690672000" lon="-4.470952000">
        <ele>215.5</ele>
        <time>2020-10-13T12:45:09Z</time>
      </trkpt>
      <trkpt lat="37.690660000" lon="-4.470834000">
        <ele>215.8</ele>
        <time>2020-10-13T12:45:11Z</time>
      </trkpt>
      <trkpt lat="37.690651000" lon="-4.470712000">
        <ele>216.1</ele>
        <time>2020-10-13T12:45:13Z</time>
      </trkpt>
      <trkpt lat="37.690646000" lon="-4.470593000">
        <ele>216.4</ele>
        <time>2020-10-13T12:45:15Z</time>
      </trkpt>
      <trkpt lat="37.690639000" lon="-4.470471000">
        <ele>216.6</ele>
        <time>2020-10-13T12:45:17Z</time>
      </trkpt>
      <trkpt lat="37.690631000" lon="-4.470357000">
        <ele>216.8</ele>
        <time>2020-10-13T12:45:19Z</time>
      </trkpt>
      <trkpt lat="37.690625000" lon="-4.470243000">
        <ele>216.9</ele>
        <time>2020-10-13T12:45:21Z</time>
      </trkpt>
      <trkpt lat="37.690618000" lon="-4.470125000">
        <ele>216.9</ele>
        <time>2020-10-13T12:45:23Z</time>
      </trkpt>
      <trkpt lat="37.690612000" lon="-4.470000000">
        <ele>216.8</ele>
        <time>2020-10-13T12:45:25Z</time>
      </trkpt>
      <trkpt lat="37.690609000" lon="-4.469886000">
        <ele>216.7</ele>
        <time>2020-10-13T12:45:27Z</time>
      </trkpt>
      <trkpt lat="37.690603000" lon="-4.469767000">
        <ele>216.6</ele>
        <time>2020-10-13T12:45:29Z</time>
      </trkpt>
      <trkpt lat="37.690591000" lon="-4.469648000">
        <ele>216.6</ele>
        <time>2020-10-13T12:45:31Z</time>
      </trkpt>
      <trkpt lat="37.690582000" lon="-4.469526000">
        <ele>216.6</ele>
        <time>2020-10-13T12:45:33Z</time>
      </trkpt>
      <trkpt lat="37.690577000" lon="-4.469414000">
        <ele>216.6</ele>
        <time>2020-10-13T12:45:35Z</time>
      </trkpt>
      <trkpt lat="37.690575000" lon="-4.469293000">
        <ele>216.6</ele>
        <time>2020-10-13T12:45:37Z</time>
      </trkpt>
      <trkpt lat="37.690568000" lon="-4.469177000">
        <ele>216.6</ele>
        <time>2020-10-13T12:45:39Z</time>
      </trkpt>
      <trkpt lat="37.690566000" lon="-4.469060000">
        <ele>216.7</ele>
        <time>2020-10-13T12:45:41Z</time>
      </trkpt>
      <trkpt lat="37.690566000" lon="-4.468945000">
        <ele>216.8</ele>
        <time>2020-10-13T12:45:43Z</time>
      </trkpt>
      <trkpt lat="37.690566000" lon="-4.468821000">
        <ele>217.0</ele>
        <time>2020-10-13T12:45:45Z</time>
      </trkpt>
      <trkpt lat="37.690556000" lon="-4.468706000">
        <ele>217.2</ele>
        <time>2020-10-13T12:45:47Z</time>
      </trkpt>
      <trkpt lat="37.690556000" lon="-4.468587000">
        <ele>217.4</ele>
        <time>2020-10-13T12:45:49Z</time>
      </trkpt>
      <trkpt lat="37.690555000" lon="-4.468466000">
        <ele>217.5</ele>
        <time>2020-10-13T12:45:51Z</time>
      </trkpt>
      <trkpt lat="37.690552000" lon="-4.468355000">
        <ele>217.7</ele>
        <time>2020-10-13T12:45:53Z</time>
      </trkpt>
      <trkpt lat="37.690554000" lon="-4.468240000">
        <ele>217.9</ele>
        <time>2020-10-13T12:45:55Z</time>
      </trkpt>
      <trkpt lat="37.690544000" lon="-4.468127000">
        <ele>218.1</ele>
        <time>2020-10-13T12:45:57Z</time>
      </trkpt>
      <trkpt lat="37.690540000" lon="-4.468013000">
        <ele>218.4</ele>
        <time>2020-10-13T12:45:59Z</time>
      </trkpt>
      <trkpt lat="37.690534000" lon="-4.467906000">
        <ele>218.6</ele>
        <time>2020-10-13T12:46:01Z</time>
      </trkpt>
      <trkpt lat="37.690533000" lon="-4.467795000">
        <ele>218.8</ele>
        <time>2020-10-13T12:46:03Z</time>
      </trkpt>
      <trkpt lat="37.690523000" lon="-4.467681000">
        <ele>219.1</ele>
        <time>2020-10-13T12:46:05Z</time>
      </trkpt>
      <trkpt lat="37.690512000" lon="-4.467575000">
        <ele>219.5</ele>
        <time>2020-10-13T12:46:07Z</time>
      </trkpt>
      <trkpt lat="37.690508000" lon="-4.467471000">
        <ele>219.8</ele>
        <time>2020-10-13T12:46:09Z</time>
      </trkpt>
      <trkpt lat="37.690505000" lon="-4.467368000">
        <ele>220.2</ele>
        <time>2020-10-13T12:46:11Z</time>
      </trkpt>
      <trkpt lat="37.690502000" lon="-4.467261000">
        <ele>220.6</ele>
        <time>2020-10-13T12:46:13Z</time>
      </trkpt>
      <trkpt lat="37.690499000" lon="-4.467156000">
        <ele>220.9</ele>
        <time>2020-10-13T12:46:15Z</time>
      </trkpt>
      <trkpt lat="37.690503000" lon="-4.467014000">
        <ele>221.2</ele>
        <time>2020-10-13T12:46:18Z</time>
      </trkpt>
      <trkpt lat="37.690505000" lon="-4.466875000">
        <ele>221.5</ele>
        <time>2020-10-13T12:46:21Z</time>
      </trkpt>
      <trkpt lat="37.690517000" lon="-4.466742000">
        <ele>221.6</ele>
        <time>2020-10-13T12:46:24Z</time>
      </trkpt>
      <trkpt lat="37.690523000" lon="-4.466602000">
        <ele>221.7</ele>
        <time>2020-10-13T12:46:27Z</time>
      </trkpt>
      <trkpt lat="37.690539000" lon="-4.466458000">
        <ele>221.8</ele>
        <time>2020-10-13T12:46:30Z</time>
      </trkpt>
      <trkpt lat="37.690557000" lon="-4.466314000">
        <ele>221.8</ele>
        <time>2020-10-13T12:46:33Z</time>
      </trkpt>
      <trkpt lat="37.690578000" lon="-4.466176000">
        <ele>221.6</ele>
        <time>2020-10-13T12:46:36Z</time>
      </trkpt>
      <trkpt lat="37.690597000" lon="-4.466040000">
        <ele>221.5</ele>
        <time>2020-10-13T12:46:39Z</time>
      </trkpt>
      <trkpt lat="37.690616000" lon="-4.465898000">
        <ele>221.4</ele>
        <time>2020-10-13T12:46:42Z</time>
      </trkpt>
      <trkpt lat="37.690641000" lon="-4.465749000">
        <ele>221.2</ele>
        <time>2020-10-13T12:46:45Z</time>
      </trkpt>
      <trkpt lat="37.690657000" lon="-4.465642000">
        <ele>221.2</ele>
        <time>2020-10-13T12:46:47Z</time>
      </trkpt>
      <trkpt lat="37.690673000" lon="-4.465527000">
        <ele>221.2</ele>
        <time>2020-10-13T12:46:49Z</time>
      </trkpt>
      <trkpt lat="37.690690000" lon="-4.465412000">
        <ele>221.2</ele>
        <time>2020-10-13T12:46:51Z</time>
      </trkpt>
      <trkpt lat="37.690712000" lon="-4.465291000">
        <ele>221.2</ele>
        <time>2020-10-13T12:46:53Z</time>
      </trkpt>
      <trkpt lat="37.690724000" lon="-4.465168000">
        <ele>221.3</ele>
        <time>2020-10-13T12:46:55Z</time>
      </trkpt>
      <trkpt lat="37.690733000" lon="-4.465046000">
        <ele>221.3</ele>
        <time>2020-10-13T12:46:57Z</time>
      </trkpt>
      <trkpt lat="37.690741000" lon="-4.464924000">
        <ele>221.3</ele>
        <time>2020-10-13T12:46:59Z</time>
      </trkpt>
      <trkpt lat="37.690748000" lon="-4.464798000">
        <ele>221.3</ele>
        <time>2020-10-13T12:47:01Z</time>
      </trkpt>
      <trkpt lat="37.690747000" lon="-4.464682000">
        <ele>221.3</ele>
        <time>2020-10-13T12:47:03Z</time>
      </trkpt>
      <trkpt lat="37.690745000" lon="-4.464563000">
        <ele>221.2</ele>
        <time>2020-10-13T12:47:05Z</time>
      </trkpt>
      <trkpt lat="37.690736000" lon="-4.464443000">
        <ele>221.1</ele>
        <time>2020-10-13T12:47:07Z</time>
      </trkpt>
      <trkpt lat="37.690732000" lon="-4.464329000">
        <ele>221.0</ele>
        <time>2020-10-13T12:47:09Z</time>
      </trkpt>
      <trkpt lat="37.690730000" lon="-4.464208000">
        <ele>220.9</ele>
        <time>2020-10-13T12:47:11Z</time>
      </trkpt>
      <trkpt lat="37.690728000" lon="-4.464084000">
        <ele>220.8</ele>
        <time>2020-10-13T12:47:13Z</time>
      </trkpt>
      <trkpt lat="37.690738000" lon="-4.463965000">
        <ele>220.7</ele>
        <time>2020-10-13T12:47:15Z</time>
      </trkpt>
      <trkpt lat="37.690740000" lon="-4.463848000">
        <ele>220.7</ele>
        <time>2020-10-13T12:47:17Z</time>
      </trkpt>
      <trkpt lat="37.690741000" lon="-4.463723000">
        <ele>220.8</ele>
        <time>2020-10-13T12:47:19Z</time>
      </trkpt>
      <trkpt lat="37.690747000" lon="-4.463595000">
        <ele>220.9</ele>
        <time>2020-10-13T12:47:21Z</time>
      </trkpt>
      <trkpt lat="37.690752000" lon="-4.463469000">
        <ele>221.1</ele>
        <time>2020-10-13T12:47:23Z</time>
      </trkpt>
      <trkpt lat="37.690756000" lon="-4.463345000">
        <ele>221.3</ele>
        <time>2020-10-13T12:47:25Z</time>
      </trkpt>
      <trkpt lat="37.690758000" lon="-4.463223000">
        <ele>221.5</ele>
        <time>2020-10-13T12:47:27Z</time>
      </trkpt>
      <trkpt lat="37.690760000" lon="-4.463096000">
        <ele>221.7</ele>
        <time>2020-10-13T12:47:29Z</time>
      </trkpt>
      <trkpt lat="37.690768000" lon="-4.462968000">
        <ele>221.9</ele>
        <time>2020-10-13T12:47:31Z</time>
      </trkpt>
      <trkpt lat="37.690774000" lon="-4.462847000">
        <ele>222.1</ele>
        <time>2020-10-13T12:47:33Z</time>
      </trkpt>
      <trkpt lat="37.690771000" lon="-4.462723000">
        <ele>222.3</ele>
        <time>2020-10-13T12:47:35Z</time>
      </trkpt>
      <trkpt lat="37.690777000" lon="-4.462605000">
        <ele>222.5</ele>
        <time>2020-10-13T12:47:37Z</time>
      </trkpt>
      <trkpt lat="37.690781000" lon="-4.462484000">
        <ele>222.5</ele>
        <time>2020-10-13T12:47:39Z</time>
      </trkpt>
      <trkpt lat="37.690782000" lon="-4.462371000">
        <ele>222.6</ele>
        <time>2020-10-13T12:47:41Z</time>
      </trkpt>
      <trkpt lat="37.690784000" lon="-4.462253000">
        <ele>222.7</ele>
        <time>2020-10-13T12:47:43Z</time>
      </trkpt>
      <trkpt lat="37.690785000" lon="-4.462136000">
        <ele>222.8</ele>
        <time>2020-10-13T12:47:45Z</time>
      </trkpt>
      <trkpt lat="37.690794000" lon="-4.462019000">
        <ele>222.9</ele>
        <time>2020-10-13T12:47:47Z</time>
      </trkpt>
      <trkpt lat="37.690800000" lon="-4.461903000">
        <ele>223.0</ele>
        <time>2020-10-13T12:47:49Z</time>
      </trkpt>
      <trkpt lat="37.690805000" lon="-4.461784000">
        <ele>223.0</ele>
        <time>2020-10-13T12:47:51Z</time>
      </trkpt>
      <trkpt lat="37.690810000" lon="-4.461666000">
        <ele>223.0</ele>
        <time>2020-10-13T12:47:53Z</time>
      </trkpt>
      <trkpt lat="37.690817000" lon="-4.461553000">
        <ele>223.0</ele>
        <time>2020-10-13T12:47:55Z</time>
      </trkpt>
      <trkpt lat="37.690822000" lon="-4.461437000">
        <ele>223.0</ele>
        <time>2020-10-13T12:47:57Z</time>
      </trkpt>
      <trkpt lat="37.690833000" lon="-4.461319000">
        <ele>223.0</ele>
        <time>2020-10-13T12:47:59Z</time>
      </trkpt>
      <trkpt lat="37.690837000" lon="-4.461206000">
        <ele>222.9</ele>
        <time>2020-10-13T12:48:01Z</time>
      </trkpt>
      <trkpt lat="37.690843000" lon="-4.461096000">
        <ele>222.8</ele>
        <time>2020-10-13T12:48:03Z</time>
      </trkpt>
      <trkpt lat="37.690848000" lon="-4.460948000">
        <ele>222.7</ele>
        <time>2020-10-13T12:48:06Z</time>
      </trkpt>
      <trkpt lat="37.690850000" lon="-4.460806000">
        <ele>222.7</ele>
        <time>2020-10-13T12:48:09Z</time>
      </trkpt>
      <trkpt lat="37.690859000" lon="-4.460674000">
        <ele>222.7</ele>
        <time>2020-10-13T12:48:12Z</time>
      </trkpt>
      <trkpt lat="37.690862000" lon="-4.460534000">
        <ele>222.8</ele>
        <time>2020-10-13T12:48:15Z</time>
      </trkpt>
      <trkpt lat="37.690865000" lon="-4.460382000">
        <ele>222.9</ele>
        <time>2020-10-13T12:48:18Z</time>
      </trkpt>
      <trkpt lat="37.690864000" lon="-4.460275000">
        <ele>223.1</ele>
        <time>2020-10-13T12:48:20Z</time>
      </trkpt>
      <trkpt lat="37.690873000" lon="-4.460169000">
        <ele>223.3</ele>
        <time>2020-10-13T12:48:22Z</time>
      </trkpt>
      <trkpt lat="37.690878000" lon="-4.460060000">
        <ele>223.5</ele>
        <time>2020-10-13T12:48:24Z</time>
      </trkpt>
      <trkpt lat="37.690890000" lon="-4.459951000">
        <ele>223.6</ele>
        <time>2020-10-13T12:48:26Z</time>
      </trkpt>
      <trkpt lat="37.690901000" lon="-4.459843000">
        <ele>223.9</ele>
        <time>2020-10-13T12:48:28Z</time>
      </trkpt>
      <trkpt lat="37.690913000" lon="-4.459738000">
        <ele>224.1</ele>
        <time>2020-10-13T12:48:30Z</time>
      </trkpt>
      <trkpt lat="37.690927000" lon="-4.459633000">
        <ele>224.3</ele>
        <time>2020-10-13T12:48:32Z</time>
      </trkpt>
      <trkpt lat="37.690945000" lon="-4.459528000">
        <ele>224.5</ele>
        <time>2020-10-13T12:48:34Z</time>
      </trkpt>
      <trkpt lat="37.690967000" lon="-4.459421000">
        <ele>224.6</ele>
        <time>2020-10-13T12:48:36Z</time>
      </trkpt>
      <trkpt lat="37.690985000" lon="-4.459311000">
        <ele>224.6</ele>
        <time>2020-10-13T12:48:38Z</time>
      </trkpt>
      <trkpt lat="37.691008000" lon="-4.459203000">
        <ele>224.6</ele>
        <time>2020-10-13T12:48:40Z</time>
      </trkpt>
      <trkpt lat="37.691029000" lon="-4.459094000">
        <ele>224.5</ele>
        <time>2020-10-13T12:48:42Z</time>
      </trkpt>
      <trkpt lat="37.691051000" lon="-4.458980000">
        <ele>224.5</ele>
        <time>2020-10-13T12:48:44Z</time>
      </trkpt>
      <trkpt lat="37.691074000" lon="-4.458869000">
        <ele>224.5</ele>
        <time>2020-10-13T12:48:46Z</time>
      </trkpt>
      <trkpt lat="37.691096000" lon="-4.458761000">
        <ele>224.4</ele>
        <time>2020-10-13T12:48:48Z</time>
      </trkpt>
      <trkpt lat="37.691117000" lon="-4.458654000">
        <ele>224.4</ele>
        <time>2020-10-13T12:48:50Z</time>
      </trkpt>
      <trkpt lat="37.691136000" lon="-4.458548000">
        <ele>224.5</ele>
        <time>2020-10-13T12:48:52Z</time>
      </trkpt>
      <trkpt lat="37.691165000" lon="-4.458412000">
        <ele>224.5</ele>
        <time>2020-10-13T12:48:55Z</time>
      </trkpt>
      <trkpt lat="37.691187000" lon="-4.458275000">
        <ele>224.6</ele>
        <time>2020-10-13T12:48:58Z</time>
      </trkpt>
      <trkpt lat="37.691202000" lon="-4.458126000">
        <ele>224.7</ele>
        <time>2020-10-13T12:49:01Z</time>
      </trkpt>
      <trkpt lat="37.691215000" lon="-4.457975000">
        <ele>224.9</ele>
        <time>2020-10-13T12:49:04Z</time>
      </trkpt>
      <trkpt lat="37.691223000" lon="-4.457872000">
        <ele>225.1</ele>
        <time>2020-10-13T12:49:06Z</time>
      </trkpt>
      <trkpt lat="37.691232000" lon="-4.457720000">
        <ele>225.3</ele>
        <time>2020-10-13T12:49:09Z</time>
      </trkpt>
      <trkpt lat="37.691240000" lon="-4.457566000">
        <ele>225.5</ele>
        <time>2020-10-13T12:49:12Z</time>
      </trkpt>
      <trkpt lat="37.691241000" lon="-4.457462000">
        <ele>225.5</ele>
        <time>2020-10-13T12:49:14Z</time>
      </trkpt>
      <trkpt lat="37.691243000" lon="-4.457352000">
        <ele>225.7</ele>
        <time>2020-10-13T12:49:16Z</time>
      </trkpt>
      <trkpt lat="37.691246000" lon="-4.457238000">
        <ele>225.8</ele>
        <time>2020-10-13T12:49:18Z</time>
      </trkpt>
      <trkpt lat="37.691259000" lon="-4.457116000">
        <ele>225.8</ele>
        <time>2020-10-13T12:49:20Z</time>
      </trkpt>
      <trkpt lat="37.691271000" lon="-4.456993000">
        <ele>225.8</ele>
        <time>2020-10-13T12:49:22Z</time>
      </trkpt>
      <trkpt lat="37.691276000" lon="-4.456874000">
        <ele>225.7</ele>
        <time>2020-10-13T12:49:24Z</time>
      </trkpt>
      <trkpt lat="37.691287000" lon="-4.456747000">
        <ele>225.6</ele>
        <time>2020-10-13T12:49:26Z</time>
      </trkpt>
      <trkpt lat="37.691292000" lon="-4.456619000">
        <ele>225.5</ele>
        <time>2020-10-13T12:49:28Z</time>
      </trkpt>
      <trkpt lat="37.691297000" lon="-4.456485000">
        <ele>225.5</ele>
        <time>2020-10-13T12:49:30Z</time>
      </trkpt>
      <trkpt lat="37.691302000" lon="-4.456355000">
        <ele>225.4</ele>
        <time>2020-10-13T12:49:32Z</time>
      </trkpt>
      <trkpt lat="37.691309000" lon="-4.456224000">
        <ele>225.3</ele>
        <time>2020-10-13T12:49:34Z</time>
      </trkpt>
      <trkpt lat="37.691313000" lon="-4.456092000">
        <ele>225.2</ele>
        <time>2020-10-13T12:49:36Z</time>
      </trkpt>
      <trkpt lat="37.691307000" lon="-4.455955000">
        <ele>225.0</ele>
        <time>2020-10-13T12:49:38Z</time>
      </trkpt>
      <trkpt lat="37.691310000" lon="-4.455811000">
        <ele>224.9</ele>
        <time>2020-10-13T12:49:40Z</time>
      </trkpt>
      <trkpt lat="37.691303000" lon="-4.455664000">
        <ele>224.9</ele>
        <time>2020-10-13T12:49:42Z</time>
      </trkpt>
      <trkpt lat="37.691285000" lon="-4.455517000">
        <ele>224.9</ele>
        <time>2020-10-13T12:49:44Z</time>
      </trkpt>
      <trkpt lat="37.691264000" lon="-4.455369000">
        <ele>224.9</ele>
        <time>2020-10-13T12:49:46Z</time>
      </trkpt>
      <trkpt lat="37.691236000" lon="-4.455231000">
        <ele>225.0</ele>
        <time>2020-10-13T12:49:48Z</time>
      </trkpt>
      <trkpt lat="37.691213000" lon="-4.455096000">
        <ele>225.1</ele>
        <time>2020-10-13T12:49:50Z</time>
      </trkpt>
      <trkpt lat="37.691188000" lon="-4.454963000">
        <ele>225.2</ele>
        <time>2020-10-13T12:49:52Z</time>
      </trkpt>
      <trkpt lat="37.691164000" lon="-4.454833000">
        <ele>225.2</ele>
        <time>2020-10-13T12:49:54Z</time>
      </trkpt>
      <trkpt lat="37.691138000" lon="-4.454710000">
        <ele>225.2</ele>
        <time>2020-10-13T12:49:56Z</time>
      </trkpt>
      <trkpt lat="37.691115000" lon="-4.454589000">
        <ele>225.2</ele>
        <time>2020-10-13T12:49:58Z</time>
      </trkpt>
      <trkpt lat="37.691095000" lon="-4.454472000">
        <ele>225.3</ele>
        <time>2020-10-13T12:50:00Z</time>
      </trkpt>
      <trkpt lat="37.691074000" lon="-4.454359000">
        <ele>225.3</ele>
        <time>2020-10-13T12:50:02Z</time>
      </trkpt>
      <trkpt lat="37.691052000" lon="-4.454242000">
        <ele>225.3</ele>
        <time>2020-10-13T12:50:04Z</time>
      </trkpt>
      <trkpt lat="37.691032000" lon="-4.454122000">
        <ele>225.3</ele>
        <time>2020-10-13T12:50:06Z</time>
      </trkpt>
      <trkpt lat="37.691015000" lon="-4.454005000">
        <ele>225.4</ele>
        <time>2020-10-13T12:50:08Z</time>
      </trkpt>
      <trkpt lat="37.690995000" lon="-4.453885000">
        <ele>225.4</ele>
        <time>2020-10-13T12:50:10Z</time>
      </trkpt>
      <trkpt lat="37.690972000" lon="-4.453770000">
        <ele>225.4</ele>
        <time>2020-10-13T12:50:12Z</time>
      </trkpt>
      <trkpt lat="37.690956000" lon="-4.453656000">
        <ele>225.5</ele>
        <time>2020-10-13T12:50:14Z</time>
      </trkpt>
      <trkpt lat="37.690937000" lon="-4.453539000">
        <ele>225.6</ele>
        <time>2020-10-13T12:50:16Z</time>
      </trkpt>
      <trkpt lat="37.690923000" lon="-4.453419000">
        <ele>225.8</ele>
        <time>2020-10-13T12:50:18Z</time>
      </trkpt>
      <trkpt lat="37.690905000" lon="-4.453292000">
        <ele>226.0</ele>
        <time>2020-10-13T12:50:20Z</time>
      </trkpt>
      <trkpt lat="37.690891000" lon="-4.453170000">
        <ele>226.2</ele>
        <time>2020-10-13T12:50:22Z</time>
      </trkpt>
      <trkpt lat="37.690877000" lon="-4.453042000">
        <ele>226.3</ele>
        <time>2020-10-13T12:50:24Z</time>
      </trkpt>
      <trkpt lat="37.690863000" lon="-4.452917000">
        <ele>226.4</ele>
        <time>2020-10-13T12:50:26Z</time>
      </trkpt>
      <trkpt lat="37.690851000" lon="-4.452794000">
        <ele>226.5</ele>
        <time>2020-10-13T12:50:28Z</time>
      </trkpt>
      <trkpt lat="37.690834000" lon="-4.452665000">
        <ele>226.4</ele>
        <time>2020-10-13T12:50:30Z</time>
      </trkpt>
      <trkpt lat="37.690818000" lon="-4.452538000">
        <ele>226.3</ele>
        <time>2020-10-13T12:50:32Z</time>
      </trkpt>
      <trkpt lat="37.690799000" lon="-4.452408000">
        <ele>226.2</ele>
        <time>2020-10-13T12:50:34Z</time>
      </trkpt>
      <trkpt lat="37.690784000" lon="-4.452280000">
        <ele>225.9</ele>
        <time>2020-10-13T12:50:36Z</time>
      </trkpt>
      <trkpt lat="37.690762000" lon="-4.452149000">
        <ele>225.6</ele>
        <time>2020-10-13T12:50:38Z</time>
      </trkpt>
      <trkpt lat="37.690742000" lon="-4.452019000">
        <ele>225.4</ele>
        <time>2020-10-13T12:50:40Z</time>
      </trkpt>
      <trkpt lat="37.690723000" lon="-4.451890000">
        <ele>225.0</ele>
        <time>2020-10-13T12:50:42Z</time>
      </trkpt>
      <trkpt lat="37.690703000" lon="-4.451765000">
        <ele>224.6</ele>
        <time>2020-10-13T12:50:44Z</time>
      </trkpt>
      <trkpt lat="37.690677000" lon="-4.451637000">
        <ele>224.4</ele>
        <time>2020-10-13T12:50:46Z</time>
      </trkpt>
      <trkpt lat="37.690649000" lon="-4.451511000">
        <ele>224.1</ele>
        <time>2020-10-13T12:50:48Z</time>
      </trkpt>
      <trkpt lat="37.690626000" lon="-4.451391000">
        <ele>223.8</ele>
        <time>2020-10-13T12:50:50Z</time>
      </trkpt>
      <trkpt lat="37.690606000" lon="-4.451271000">
        <ele>223.6</ele>
        <time>2020-10-13T12:50:52Z</time>
      </trkpt>
      <trkpt lat="37.690581000" lon="-4.451149000">
        <ele>223.5</ele>
        <time>2020-10-13T12:50:54Z</time>
      </trkpt>
      <trkpt lat="37.690560000" lon="-4.451031000">
        <ele>223.3</ele>
        <time>2020-10-13T12:50:56Z</time>
      </trkpt>
      <trkpt lat="37.690533000" lon="-4.450912000">
        <ele>223.1</ele>
        <time>2020-10-13T12:50:58Z</time>
      </trkpt>
      <trkpt lat="37.690505000" lon="-4.450792000">
        <ele>222.9</ele>
        <time>2020-10-13T12:51:00Z</time>
      </trkpt>
      <trkpt lat="37.690473000" lon="-4.450674000">
        <ele>222.7</ele>
        <time>2020-10-13T12:51:02Z</time>
      </trkpt>
      <trkpt lat="37.690441000" lon="-4.450556000">
        <ele>222.6</ele>
        <time>2020-10-13T12:51:04Z</time>
      </trkpt>
      <trkpt lat="37.690404000" lon="-4.450442000">
        <ele>222.5</ele>
        <time>2020-10-13T12:51:06Z</time>
      </trkpt>
      <trkpt lat="37.690364000" lon="-4.450336000">
        <ele>222.5</ele>
        <time>2020-10-13T12:51:08Z</time>
      </trkpt>
      <trkpt lat="37.690317000" lon="-4.450234000">
        <ele>222.4</ele>
        <time>2020-10-13T12:51:10Z</time>
      </trkpt>
      <trkpt lat="37.690273000" lon="-4.450136000">
        <ele>222.3</ele>
        <time>2020-10-13T12:51:12Z</time>
      </trkpt>
      <trkpt lat="37.690228000" lon="-4.450043000">
        <ele>222.2</ele>
        <time>2020-10-13T12:51:14Z</time>
      </trkpt>
      <trkpt lat="37.690184000" lon="-4.449943000">
        <ele>222.1</ele>
        <time>2020-10-13T12:51:16Z</time>
      </trkpt>
      <trkpt lat="37.690128000" lon="-4.449839000">
        <ele>222.0</ele>
        <time>2020-10-13T12:51:18Z</time>
      </trkpt>
      <trkpt lat="37.690075000" lon="-4.449734000">
        <ele>222.0</ele>
        <time>2020-10-13T12:51:20Z</time>
      </trkpt>
      <trkpt lat="37.690021000" lon="-4.449615000">
        <ele>222.0</ele>
        <time>2020-10-13T12:51:22Z</time>
      </trkpt>
      <trkpt lat="37.689966000" lon="-4.449497000">
        <ele>222.0</ele>
        <time>2020-10-13T12:51:24Z</time>
      </trkpt>
      <trkpt lat="37.689910000" lon="-4.449379000">
        <ele>221.9</ele>
        <time>2020-10-13T12:51:26Z</time>
      </trkpt>
      <trkpt lat="37.689854000" lon="-4.449263000">
        <ele>221.8</ele>
        <time>2020-10-13T12:51:28Z</time>
      </trkpt>
      <trkpt lat="37.689800000" lon="-4.449156000">
        <ele>221.7</ele>
        <time>2020-10-13T12:51:30Z</time>
      </trkpt>
      <trkpt lat="37.689746000" lon="-4.449039000">
        <ele>221.5</ele>
        <time>2020-10-13T12:51:32Z</time>
      </trkpt>
      <trkpt lat="37.689694000" lon="-4.448918000">
        <ele>221.4</ele>
        <time>2020-10-13T12:51:34Z</time>
      </trkpt>
      <trkpt lat="37.689639000" lon="-4.448799000">
        <ele>221.3</ele>
        <time>2020-10-13T12:51:36Z</time>
      </trkpt>
      <trkpt lat="37.689583000" lon="-4.448681000">
        <ele>221.2</ele>
        <time>2020-10-13T12:51:38Z</time>
      </trkpt>
      <trkpt lat="37.689529000" lon="-4.448564000">
        <ele>221.2</ele>
        <time>2020-10-13T12:51:40Z</time>
      </trkpt>
      <trkpt lat="37.689476000" lon="-4.448450000">
        <ele>221.3</ele>
        <time>2020-10-13T12:51:42Z</time>
      </trkpt>
      <trkpt lat="37.689427000" lon="-4.448333000">
        <ele>221.4</ele>
        <time>2020-10-13T12:51:44Z</time>
      </trkpt>
      <trkpt lat="37.689376000" lon="-4.448221000">
        <ele>221.5</ele>
        <time>2020-10-13T12:51:46Z</time>
      </trkpt>
      <trkpt lat="37.689333000" lon="-4.448109000">
        <ele>221.7</ele>
        <time>2020-10-13T12:51:48Z</time>
      </trkpt>
      <trkpt lat="37.689278000" lon="-4.447994000">
        <ele>222.0</ele>
        <time>2020-10-13T12:51:50Z</time>
      </trkpt>
      <trkpt lat="37.689232000" lon="-4.447877000">
        <ele>222.2</ele>
        <time>2020-10-13T12:51:52Z</time>
      </trkpt>
      <trkpt lat="37.689179000" lon="-4.447765000">
        <ele>222.5</ele>
        <time>2020-10-13T12:51:54Z</time>
      </trkpt>
      <trkpt lat="37.689129000" lon="-4.447645000">
        <ele>222.7</ele>
        <time>2020-10-13T12:51:56Z</time>
      </trkpt>
      <trkpt lat="37.689084000" lon="-4.447526000">
        <ele>222.9</ele>
        <time>2020-10-13T12:51:58Z</time>
      </trkpt>
      <trkpt lat="37.689035000" lon="-4.447407000">
        <ele>223.0</ele>
        <time>2020-10-13T12:52:00Z</time>
      </trkpt>
      <trkpt lat="37.688991000" lon="-4.447284000">
        <ele>223.0</ele>
        <time>2020-10-13T12:52:02Z</time>
      </trkpt>
      <trkpt lat="37.688944000" lon="-4.447158000">
        <ele>222.9</ele>
        <time>2020-10-13T12:52:04Z</time>
      </trkpt>
      <trkpt lat="37.688899000" lon="-4.447031000">
        <ele>222.7</ele>
        <time>2020-10-13T12:52:06Z</time>
      </trkpt>
      <trkpt lat="37.688854000" lon="-4.446908000">
        <ele>222.5</ele>
        <time>2020-10-13T12:52:08Z</time>
      </trkpt>
      <trkpt lat="37.688808000" lon="-4.446783000">
        <ele>222.3</ele>
        <time>2020-10-13T12:52:10Z</time>
      </trkpt>
      <trkpt lat="37.688769000" lon="-4.446658000">
        <ele>222.0</ele>
        <time>2020-10-13T12:52:12Z</time>
      </trkpt>
      <trkpt lat="37.688723000" lon="-4.446534000">
        <ele>221.8</ele>
        <time>2020-10-13T12:52:14Z</time>
      </trkpt>
      <trkpt lat="37.688671000" lon="-4.446408000">
        <ele>221.6</ele>
        <time>2020-10-13T12:52:16Z</time>
      </trkpt>
      <trkpt lat="37.688627000" lon="-4.446286000">
        <ele>221.5</ele>
        <time>2020-10-13T12:52:18Z</time>
      </trkpt>
      <trkpt lat="37.688583000" lon="-4.446156000">
        <ele>221.3</ele>
        <time>2020-10-13T12:52:20Z</time>
      </trkpt>
      <trkpt lat="37.688534000" lon="-4.446034000">
        <ele>221.3</ele>
        <time>2020-10-13T12:52:22Z</time>
      </trkpt>
      <trkpt lat="37.688486000" lon="-4.445912000">
        <ele>221.3</ele>
        <time>2020-10-13T12:52:24Z</time>
      </trkpt>
      <trkpt lat="37.688446000" lon="-4.445785000">
        <ele>221.3</ele>
        <time>2020-10-13T12:52:26Z</time>
      </trkpt>
      <trkpt lat="37.688403000" lon="-4.445660000">
        <ele>221.5</ele>
        <time>2020-10-13T12:52:28Z</time>
      </trkpt>
      <trkpt lat="37.688356000" lon="-4.445535000">
        <ele>221.6</ele>
        <time>2020-10-13T12:52:30Z</time>
      </trkpt>
      <trkpt lat="37.688314000" lon="-4.445413000">
        <ele>221.8</ele>
        <time>2020-10-13T12:52:32Z</time>
      </trkpt>
      <trkpt lat="37.688274000" lon="-4.445301000">
        <ele>222.0</ele>
        <time>2020-10-13T12:52:34Z</time>
      </trkpt>
      <trkpt lat="37.688236000" lon="-4.445187000">
        <ele>222.2</ele>
        <time>2020-10-13T12:52:36Z</time>
      </trkpt>
      <trkpt lat="37.688198000" lon="-4.445079000">
        <ele>222.4</ele>
        <time>2020-10-13T12:52:38Z</time>
      </trkpt>
      <trkpt lat="37.688163000" lon="-4.444972000">
        <ele>222.5</ele>
        <time>2020-10-13T12:52:40Z</time>
      </trkpt>
      <trkpt lat="37.688120000" lon="-4.444868000">
        <ele>222.6</ele>
        <time>2020-10-13T12:52:42Z</time>
      </trkpt>
      <trkpt lat="37.688079000" lon="-4.444756000">
        <ele>222.6</ele>
        <time>2020-10-13T12:52:44Z</time>
      </trkpt>
      <trkpt lat="37.688042000" lon="-4.444650000">
        <ele>222.6</ele>
        <time>2020-10-13T12:52:46Z</time>
      </trkpt>
      <trkpt lat="37.688006000" lon="-4.444533000">
        <ele>222.7</ele>
        <time>2020-10-13T12:52:48Z</time>
      </trkpt>
      <trkpt lat="37.687967000" lon="-4.444422000">
        <ele>222.7</ele>
        <time>2020-10-13T12:52:50Z</time>
      </trkpt>
      <trkpt lat="37.687924000" lon="-4.444310000">
        <ele>222.7</ele>
        <time>2020-10-13T12:52:52Z</time>
      </trkpt>
      <trkpt lat="37.687884000" lon="-4.444199000">
        <ele>222.8</ele>
        <time>2020-10-13T12:52:54Z</time>
      </trkpt>
      <trkpt lat="37.687847000" lon="-4.444090000">
        <ele>222.9</ele>
        <time>2020-10-13T12:52:56Z</time>
      </trkpt>
      <trkpt lat="37.687806000" lon="-4.443975000">
        <ele>222.9</ele>
        <time>2020-10-13T12:52:58Z</time>
      </trkpt>
      <trkpt lat="37.687769000" lon="-4.443867000">
        <ele>222.9</ele>
        <time>2020-10-13T12:53:00Z</time>
      </trkpt>
      <trkpt lat="37.687730000" lon="-4.443761000">
        <ele>223.0</ele>
        <time>2020-10-13T12:53:02Z</time>
      </trkpt>
      <trkpt lat="37.687690000" lon="-4.443652000">
        <ele>223.2</ele>
        <time>2020-10-13T12:53:04Z</time>
      </trkpt>
      <trkpt lat="37.687651000" lon="-4.443535000">
        <ele>223.4</ele>
        <time>2020-10-13T12:53:06Z</time>
      </trkpt>
      <trkpt lat="37.687609000" lon="-4.443428000">
        <ele>223.5</ele>
        <time>2020-10-13T12:53:08Z</time>
      </trkpt>
      <trkpt lat="37.687573000" lon="-4.443324000">
        <ele>223.5</ele>
        <time>2020-10-13T12:53:10Z</time>
      </trkpt>
      <trkpt lat="37.687536000" lon="-4.443216000">
        <ele>223.5</ele>
        <time>2020-10-13T12:53:12Z</time>
      </trkpt>
      <trkpt lat="37.687498000" lon="-4.443109000">
        <ele>223.5</ele>
        <time>2020-10-13T12:53:14Z</time>
      </trkpt>
      <trkpt lat="37.687460000" lon="-4.443001000">
        <ele>223.4</ele>
        <time>2020-10-13T12:53:16Z</time>
      </trkpt>
      <trkpt lat="37.687424000" lon="-4.442897000">
        <ele>223.3</ele>
        <time>2020-10-13T12:53:18Z</time>
      </trkpt>
      <trkpt lat="37.687382000" lon="-4.442792000">
        <ele>223.3</ele>
        <time>2020-10-13T12:53:20Z</time>
      </trkpt>
      <trkpt lat="37.687343000" lon="-4.442679000">
        <ele>223.3</ele>
        <time>2020-10-13T12:53:22Z</time>
      </trkpt>
      <trkpt lat="37.687304000" lon="-4.442574000">
        <ele>223.3</ele>
        <time>2020-10-13T12:53:24Z</time>
      </trkpt>
      <trkpt lat="37.687260000" lon="-4.442470000">
        <ele>223.3</ele>
        <time>2020-10-13T12:53:26Z</time>
      </trkpt>
      <trkpt lat="37.687221000" lon="-4.442370000">
        <ele>223.3</ele>
        <time>2020-10-13T12:53:28Z</time>
      </trkpt>
      <trkpt lat="37.687189000" lon="-4.442263000">
        <ele>223.5</ele>
        <time>2020-10-13T12:53:30Z</time>
      </trkpt>
      <trkpt lat="37.687149000" lon="-4.442168000">
        <ele>223.6</ele>
        <time>2020-10-13T12:53:32Z</time>
      </trkpt>
      <trkpt lat="37.687114000" lon="-4.442064000">
        <ele>223.8</ele>
        <time>2020-10-13T12:53:34Z</time>
      </trkpt>
      <trkpt lat="37.687077000" lon="-4.441964000">
        <ele>224.0</ele>
        <time>2020-10-13T12:53:36Z</time>
      </trkpt>
      <trkpt lat="37.687040000" lon="-4.441864000">
        <ele>224.2</ele>
        <time>2020-10-13T12:53:38Z</time>
      </trkpt>
      <trkpt lat="37.687003000" lon="-4.441768000">
        <ele>224.5</ele>
        <time>2020-10-13T12:53:40Z</time>
      </trkpt>
      <trkpt lat="37.686959000" lon="-4.441671000">
        <ele>224.7</ele>
        <time>2020-10-13T12:53:42Z</time>
      </trkpt>
      <trkpt lat="37.686916000" lon="-4.441577000">
        <ele>225.0</ele>
        <time>2020-10-13T12:53:44Z</time>
      </trkpt>
      <trkpt lat="37.686872000" lon="-4.441483000">
        <ele>225.3</ele>
        <time>2020-10-13T12:53:46Z</time>
      </trkpt>
      <trkpt lat="37.686828000" lon="-4.441384000">
        <ele>225.5</ele>
        <time>2020-10-13T12:53:48Z</time>
      </trkpt>
      <trkpt lat="37.686785000" lon="-4.441281000">
        <ele>225.8</ele>
        <time>2020-10-13T12:53:50Z</time>
      </trkpt>
      <trkpt lat="37.686737000" lon="-4.441188000">
        <ele>226.0</ele>
        <time>2020-10-13T12:53:52Z</time>
      </trkpt>
      <trkpt lat="37.686690000" lon="-4.441088000">
        <ele>226.2</ele>
        <time>2020-10-13T12:53:54Z</time>
      </trkpt>
      <trkpt lat="37.686649000" lon="-4.440989000">
        <ele>226.3</ele>
        <time>2020-10-13T12:53:56Z</time>
      </trkpt>
      <trkpt lat="37.686606000" lon="-4.440886000">
        <ele>226.5</ele>
        <time>2020-10-13T12:53:58Z</time>
      </trkpt>
      <trkpt lat="37.686574000" lon="-4.440791000">
        <ele>226.6</ele>
        <time>2020-10-13T12:54:00Z</time>
      </trkpt>
      <trkpt lat="37.686535000" lon="-4.440651000">
        <ele>226.7</ele>
        <time>2020-10-13T12:54:03Z</time>
      </trkpt>
      <trkpt lat="37.686548000" lon="-4.440506000">
        <ele>226.8</ele>
        <time>2020-10-13T12:54:06Z</time>
      </trkpt>
      <trkpt lat="37.686571000" lon="-4.440405000">
        <ele>226.8</ele>
        <time>2020-10-13T12:54:08Z</time>
      </trkpt>
      <trkpt lat="37.686627000" lon="-4.440278000">
        <ele>226.6</ele>
        <time>2020-10-13T12:54:11Z</time>
      </trkpt>
      <trkpt lat="37.686697000" lon="-4.440156000">
        <ele>226.4</ele>
        <time>2020-10-13T12:54:14Z</time>
      </trkpt>
      <trkpt lat="37.686745000" lon="-4.440058000">
        <ele>226.1</ele>
        <time>2020-10-13T12:54:16Z</time>
      </trkpt>
      <trkpt lat="37.686790000" lon="-4.439940000">
        <ele>225.8</ele>
        <time>2020-10-13T12:54:18Z</time>
      </trkpt>
      <trkpt lat="37.686804000" lon="-4.439801000">
        <ele>225.5</ele>
        <time>2020-10-13T12:54:20Z</time>
      </trkpt>
      <trkpt lat="37.686788000" lon="-4.439646000">
        <ele>225.2</ele>
        <time>2020-10-13T12:54:22Z</time>
      </trkpt>
      <trkpt lat="37.686756000" lon="-4.439489000">
        <ele>224.7</ele>
        <time>2020-10-13T12:54:24Z</time>
      </trkpt>
      <trkpt lat="37.686714000" lon="-4.439337000">
        <ele>224.3</ele>
        <time>2020-10-13T12:54:26Z</time>
      </trkpt>
      <trkpt lat="37.686659000" lon="-4.439190000">
        <ele>223.8</ele>
        <time>2020-10-13T12:54:28Z</time>
      </trkpt>
      <trkpt lat="37.686606000" lon="-4.439042000">
        <ele>223.5</ele>
        <time>2020-10-13T12:54:30Z</time>
      </trkpt>
      <trkpt lat="37.686546000" lon="-4.438892000">
        <ele>223.2</ele>
        <time>2020-10-13T12:54:32Z</time>
      </trkpt>
      <trkpt lat="37.686474000" lon="-4.438749000">
        <ele>223.0</ele>
        <time>2020-10-13T12:54:34Z</time>
      </trkpt>
      <trkpt lat="37.686403000" lon="-4.438615000">
        <ele>222.9</ele>
        <time>2020-10-13T12:54:36Z</time>
      </trkpt>
      <trkpt lat="37.686325000" lon="-4.438491000">
        <ele>222.8</ele>
        <time>2020-10-13T12:54:38Z</time>
      </trkpt>
      <trkpt lat="37.686250000" lon="-4.438366000">
        <ele>222.7</ele>
        <time>2020-10-13T12:54:40Z</time>
      </trkpt>
      <trkpt lat="37.686172000" lon="-4.438244000">
        <ele>222.7</ele>
        <time>2020-10-13T12:54:42Z</time>
      </trkpt>
      <trkpt lat="37.686094000" lon="-4.438126000">
        <ele>222.8</ele>
        <time>2020-10-13T12:54:44Z</time>
      </trkpt>
      <trkpt lat="37.686012000" lon="-4.438008000">
        <ele>223.0</ele>
        <time>2020-10-13T12:54:46Z</time>
      </trkpt>
      <trkpt lat="37.685936000" lon="-4.437895000">
        <ele>223.2</ele>
        <time>2020-10-13T12:54:48Z</time>
      </trkpt>
      <trkpt lat="37.685849000" lon="-4.437783000">
        <ele>223.4</ele>
        <time>2020-10-13T12:54:50Z</time>
      </trkpt>
      <trkpt lat="37.685769000" lon="-4.437670000">
        <ele>223.5</ele>
        <time>2020-10-13T12:54:52Z</time>
      </trkpt>
      <trkpt lat="37.685687000" lon="-4.437562000">
        <ele>223.6</ele>
        <time>2020-10-13T12:54:54Z</time>
      </trkpt>
      <trkpt lat="37.685615000" lon="-4.437465000">
        <ele>223.7</ele>
        <time>2020-10-13T12:54:56Z</time>
      </trkpt>
      <trkpt lat="37.685545000" lon="-4.437366000">
        <ele>223.8</ele>
        <time>2020-10-13T12:54:58Z</time>
      </trkpt>
      <trkpt lat="37.685481000" lon="-4.437267000">
        <ele>223.9</ele>
        <time>2020-10-13T12:55:00Z</time>
      </trkpt>
      <trkpt lat="37.685416000" lon="-4.437161000">
        <ele>224.0</ele>
        <time>2020-10-13T12:55:02Z</time>
      </trkpt>
      <trkpt lat="37.685355000" lon="-4.437071000">
        <ele>224.1</ele>
        <time>2020-10-13T12:55:04Z</time>
      </trkpt>
      <trkpt lat="37.685305000" lon="-4.436977000">
        <ele>224.1</ele>
        <time>2020-10-13T12:55:06Z</time>
      </trkpt>
      <trkpt lat="37.685252000" lon="-4.436884000">
        <ele>224.1</ele>
        <time>2020-10-13T12:55:08Z</time>
      </trkpt>
      <trkpt lat="37.685201000" lon="-4.436785000">
        <ele>224.1</ele>
        <time>2020-10-13T12:55:10Z</time>
      </trkpt>
      <trkpt lat="37.685151000" lon="-4.436698000">
        <ele>224.1</ele>
        <time>2020-10-13T12:55:12Z</time>
      </trkpt>
      <trkpt lat="37.685107000" lon="-4.436609000">
        <ele>224.0</ele>
        <time>2020-10-13T12:55:14Z</time>
      </trkpt>
      <trkpt lat="37.685061000" lon="-4.436522000">
        <ele>224.0</ele>
        <time>2020-10-13T12:55:16Z</time>
      </trkpt>
      <trkpt lat="37.685016000" lon="-4.436433000">
        <ele>224.0</ele>
        <time>2020-10-13T12:55:18Z</time>
      </trkpt>
      <trkpt lat="37.684969000" lon="-4.436342000">
        <ele>224.1</ele>
        <time>2020-10-13T12:55:20Z</time>
      </trkpt>
      <trkpt lat="37.684924000" lon="-4.436252000">
        <ele>224.2</ele>
        <time>2020-10-13T12:55:22Z</time>
      </trkpt>
      <trkpt lat="37.684878000" lon="-4.436161000">
        <ele>224.4</ele>
        <time>2020-10-13T12:55:24Z</time>
      </trkpt>
      <trkpt lat="37.684831000" lon="-4.436071000">
        <ele>224.5</ele>
        <time>2020-10-13T12:55:26Z</time>
      </trkpt>
      <trkpt lat="37.684783000" lon="-4.435980000">
        <ele>224.7</ele>
        <time>2020-10-13T12:55:28Z</time>
      </trkpt>
      <trkpt lat="37.684738000" lon="-4.435886000">
        <ele>224.9</ele>
        <time>2020-10-13T12:55:30Z</time>
      </trkpt>
      <trkpt lat="37.684692000" lon="-4.435794000">
        <ele>225.1</ele>
        <time>2020-10-13T12:55:32Z</time>
      </trkpt>
      <trkpt lat="37.684646000" lon="-4.435700000">
        <ele>225.3</ele>
        <time>2020-10-13T12:55:34Z</time>
      </trkpt>
      <trkpt lat="37.684600000" lon="-4.435611000">
        <ele>225.5</ele>
        <time>2020-10-13T12:55:36Z</time>
      </trkpt>
      <trkpt lat="37.684554000" lon="-4.435522000">
        <ele>225.5</ele>
        <time>2020-10-13T12:55:38Z</time>
      </trkpt>
      <trkpt lat="37.684508000" lon="-4.435432000">
        <ele>225.7</ele>
        <time>2020-10-13T12:55:40Z</time>
      </trkpt>
      <trkpt lat="37.684459000" lon="-4.435340000">
        <ele>225.8</ele>
        <time>2020-10-13T12:55:42Z</time>
      </trkpt>
      <trkpt lat="37.684411000" lon="-4.435244000">
        <ele>225.9</ele>
        <time>2020-10-13T12:55:44Z</time>
      </trkpt>
      <trkpt lat="37.684364000" lon="-4.435149000">
        <ele>225.9</ele>
        <time>2020-10-13T12:55:46Z</time>
      </trkpt>
      <trkpt lat="37.684313000" lon="-4.435050000">
        <ele>225.9</ele>
        <time>2020-10-13T12:55:48Z</time>
      </trkpt>
      <trkpt lat="37.684260000" lon="-4.434950000">
        <ele>225.9</ele>
        <time>2020-10-13T12:55:50Z</time>
      </trkpt>
      <trkpt lat="37.684210000" lon="-4.434844000">
        <ele>225.9</ele>
        <time>2020-10-13T12:55:52Z</time>
      </trkpt>
      <trkpt lat="37.684157000" lon="-4.434742000">
        <ele>226.0</ele>
        <time>2020-10-13T12:55:54Z</time>
      </trkpt>
      <trkpt lat="37.684098000" lon="-4.434645000">
        <ele>226.1</ele>
        <time>2020-10-13T12:55:56Z</time>
      </trkpt>
      <trkpt lat="37.684039000" lon="-4.434548000">
        <ele>226.1</ele>
        <time>2020-10-13T12:55:58Z</time>
      </trkpt>
      <trkpt lat="37.683986000" lon="-4.434455000">
        <ele>226.2</ele>
        <time>2020-10-13T12:56:00Z</time>
      </trkpt>
      <trkpt lat="37.683925000" lon="-4.434366000">
        <ele>226.2</ele>
        <time>2020-10-13T12:56:02Z</time>
      </trkpt>
      <trkpt lat="37.683863000" lon="-4.434280000">
        <ele>226.2</ele>
        <time>2020-10-13T12:56:04Z</time>
      </trkpt>
      <trkpt lat="37.683805000" lon="-4.434188000">
        <ele>226.2</ele>
        <time>2020-10-13T12:56:06Z</time>
      </trkpt>
      <trkpt lat="37.683743000" lon="-4.434100000">
        <ele>226.3</ele>
        <time>2020-10-13T12:56:08Z</time>
      </trkpt>
      <trkpt lat="37.683677000" lon="-4.433999000">
        <ele>226.4</ele>
        <time>2020-10-13T12:56:10Z</time>
      </trkpt>
      <trkpt lat="37.683609000" lon="-4.433898000">
        <ele>226.5</ele>
        <time>2020-10-13T12:56:12Z</time>
      </trkpt>
      <trkpt lat="37.683544000" lon="-4.433798000">
        <ele>226.6</ele>
        <time>2020-10-13T12:56:14Z</time>
      </trkpt>
      <trkpt lat="37.683486000" lon="-4.433705000">
        <ele>226.7</ele>
        <time>2020-10-13T12:56:16Z</time>
      </trkpt>
      <trkpt lat="37.683436000" lon="-4.433612000">
        <ele>226.8</ele>
        <time>2020-10-13T12:56:18Z</time>
      </trkpt>
      <trkpt lat="37.683375000" lon="-4.433523000">
        <ele>227.0</ele>
        <time>2020-10-13T12:56:20Z</time>
      </trkpt>
      <trkpt lat="37.683317000" lon="-4.433429000">
        <ele>227.2</ele>
        <time>2020-10-13T12:56:22Z</time>
      </trkpt>
      <trkpt lat="37.683250000" lon="-4.433338000">
        <ele>227.3</ele>
        <time>2020-10-13T12:56:24Z</time>
      </trkpt>
      <trkpt lat="37.683190000" lon="-4.433245000">
        <ele>227.4</ele>
        <time>2020-10-13T12:56:26Z</time>
      </trkpt>
      <trkpt lat="37.683133000" lon="-4.433150000">
        <ele>227.4</ele>
        <time>2020-10-13T12:56:28Z</time>
      </trkpt>
      <trkpt lat="37.683075000" lon="-4.433064000">
        <ele>227.3</ele>
        <time>2020-10-13T12:56:30Z</time>
      </trkpt>
      <trkpt lat="37.683011000" lon="-4.432973000">
        <ele>227.2</ele>
        <time>2020-10-13T12:56:32Z</time>
      </trkpt>
      <trkpt lat="37.682956000" lon="-4.432888000">
        <ele>227.2</ele>
        <time>2020-10-13T12:56:34Z</time>
      </trkpt>
      <trkpt lat="37.682905000" lon="-4.432804000">
        <ele>227.0</ele>
        <time>2020-10-13T12:56:36Z</time>
      </trkpt>
      <trkpt lat="37.682851000" lon="-4.432720000">
        <ele>226.8</ele>
        <time>2020-10-13T12:56:38Z</time>
      </trkpt>
      <trkpt lat="37.682797000" lon="-4.432640000">
        <ele>226.6</ele>
        <time>2020-10-13T12:56:40Z</time>
      </trkpt>
      <trkpt lat="37.682744000" lon="-4.432554000">
        <ele>226.5</ele>
        <time>2020-10-13T12:56:42Z</time>
      </trkpt>
      <trkpt lat="37.682695000" lon="-4.432466000">
        <ele>226.3</ele>
        <time>2020-10-13T12:56:44Z</time>
      </trkpt>
      <trkpt lat="37.682644000" lon="-4.432381000">
        <ele>226.2</ele>
        <time>2020-10-13T12:56:46Z</time>
      </trkpt>
      <trkpt lat="37.682595000" lon="-4.432269000">
        <ele>226.2</ele>
        <time>2020-10-13T12:56:48Z</time>
      </trkpt>
      <trkpt lat="37.682548000" lon="-4.432163000">
        <ele>226.3</ele>
        <time>2020-10-13T12:56:50Z</time>
      </trkpt>
      <trkpt lat="37.682514000" lon="-4.432052000">
        <ele>226.4</ele>
        <time>2020-10-13T12:56:52Z</time>
      </trkpt>
      <trkpt lat="37.682497000" lon="-4.431937000">
        <ele>226.5</ele>
        <time>2020-10-13T12:56:54Z</time>
      </trkpt>
      <trkpt lat="37.682482000" lon="-4.431834000">
        <ele>226.6</ele>
        <time>2020-10-13T12:56:56Z</time>
      </trkpt>
      <trkpt lat="37.682471000" lon="-4.431723000">
        <ele>226.8</ele>
        <time>2020-10-13T12:56:58Z</time>
      </trkpt>
      <trkpt lat="37.682473000" lon="-4.431603000">
        <ele>227.0</ele>
        <time>2020-10-13T12:57:00Z</time>
      </trkpt>
      <trkpt lat="37.682479000" lon="-4.431482000">
        <ele>227.2</ele>
        <time>2020-10-13T12:57:02Z</time>
      </trkpt>
      <trkpt lat="37.682501000" lon="-4.431361000">
        <ele>227.4</ele>
        <time>2020-10-13T12:57:04Z</time>
      </trkpt>
      <trkpt lat="37.682519000" lon="-4.431235000">
        <ele>227.5</ele>
        <time>2020-10-13T12:57:06Z</time>
      </trkpt>
      <trkpt lat="37.682542000" lon="-4.431107000">
        <ele>227.7</ele>
        <time>2020-10-13T12:57:08Z</time>
      </trkpt>
      <trkpt lat="37.682563000" lon="-4.430984000">
        <ele>227.7</ele>
        <time>2020-10-13T12:57:10Z</time>
      </trkpt>
      <trkpt lat="37.682584000" lon="-4.430860000">
        <ele>227.7</ele>
        <time>2020-10-13T12:57:12Z</time>
      </trkpt>
      <trkpt lat="37.682598000" lon="-4.430747000">
        <ele>227.7</ele>
        <time>2020-10-13T12:57:14Z</time>
      </trkpt>
      <trkpt lat="37.682601000" lon="-4.430636000">
        <ele>227.6</ele>
        <time>2020-10-13T12:57:16Z</time>
      </trkpt>
      <trkpt lat="37.682592000" lon="-4.430524000">
        <ele>227.5</ele>
        <time>2020-10-13T12:57:18Z</time>
      </trkpt>
      <trkpt lat="37.682581000" lon="-4.430406000">
        <ele>227.5</ele>
        <time>2020-10-13T12:57:20Z</time>
      </trkpt>
      <trkpt lat="37.682565000" lon="-4.430298000">
        <ele>227.4</ele>
        <time>2020-10-13T12:57:22Z</time>
      </trkpt>
      <trkpt lat="37.682547000" lon="-4.430188000">
        <ele>227.4</ele>
        <time>2020-10-13T12:57:24Z</time>
      </trkpt>
      <trkpt lat="37.682524000" lon="-4.430078000">
        <ele>227.4</ele>
        <time>2020-10-13T12:57:26Z</time>
      </trkpt>
      <trkpt lat="37.682499000" lon="-4.429975000">
        <ele>227.4</ele>
        <time>2020-10-13T12:57:28Z</time>
      </trkpt>
      <trkpt lat="37.682472000" lon="-4.429877000">
        <ele>227.4</ele>
        <time>2020-10-13T12:57:30Z</time>
      </trkpt>
      <trkpt lat="37.682444000" lon="-4.429772000">
        <ele>227.5</ele>
        <time>2020-10-13T12:57:32Z</time>
      </trkpt>
      <trkpt lat="37.682414000" lon="-4.429672000">
        <ele>227.7</ele>
        <time>2020-10-13T12:57:34Z</time>
      </trkpt>
      <trkpt lat="37.682381000" lon="-4.429576000">
        <ele>227.9</ele>
        <time>2020-10-13T12:57:36Z</time>
      </trkpt>
      <trkpt lat="37.682346000" lon="-4.429482000">
        <ele>228.1</ele>
        <time>2020-10-13T12:57:38Z</time>
      </trkpt>
      <trkpt lat="37.682314000" lon="-4.429387000">
        <ele>228.3</ele>
        <time>2020-10-13T12:57:40Z</time>
      </trkpt>
      <trkpt lat="37.682254000" lon="-4.429256000">
        <ele>228.5</ele>
        <time>2020-10-13T12:57:43Z</time>
      </trkpt>
      <trkpt lat="37.682193000" lon="-4.429134000">
        <ele>228.6</ele>
        <time>2020-10-13T12:57:46Z</time>
      </trkpt>
      <trkpt lat="37.682126000" lon="-4.429028000">
        <ele>228.8</ele>
        <time>2020-10-13T12:57:49Z</time>
      </trkpt>
      <trkpt lat="37.682060000" lon="-4.428923000">
        <ele>229.0</ele>
        <time>2020-10-13T12:57:52Z</time>
      </trkpt>
      <trkpt lat="37.681990000" lon="-4.428821000">
        <ele>229.2</ele>
        <time>2020-10-13T12:57:55Z</time>
      </trkpt>
      <trkpt lat="37.681909000" lon="-4.428719000">
        <ele>229.3</ele>
        <time>2020-10-13T12:57:58Z</time>
      </trkpt>
      <trkpt lat="37.681815000" lon="-4.428629000">
        <ele>229.3</ele>
        <time>2020-10-13T12:58:01Z</time>
      </trkpt>
      <trkpt lat="37.681711000" lon="-4.428546000">
        <ele>229.3</ele>
        <time>2020-10-13T12:58:04Z</time>
      </trkpt>
      <trkpt lat="37.681633000" lon="-4.428503000">
        <ele>229.2</ele>
        <time>2020-10-13T12:58:06Z</time>
      </trkpt>
      <trkpt lat="37.681556000" lon="-4.428459000">
        <ele>229.1</ele>
        <time>2020-10-13T12:58:08Z</time>
      </trkpt>
      <trkpt lat="37.681480000" lon="-4.428423000">
        <ele>229.0</ele>
        <time>2020-10-13T12:58:10Z</time>
      </trkpt>
      <trkpt lat="37.681365000" lon="-4.428378000">
        <ele>228.8</ele>
        <time>2020-10-13T12:58:13Z</time>
      </trkpt>
      <trkpt lat="37.681283000" lon="-4.428346000">
        <ele>228.6</ele>
        <time>2020-10-13T12:58:15Z</time>
      </trkpt>
      <trkpt lat="37.681196000" lon="-4.428308000">
        <ele>228.4</ele>
        <time>2020-10-13T12:58:17Z</time>
      </trkpt>
      <trkpt lat="37.681109000" lon="-4.428273000">
        <ele>228.2</ele>
        <time>2020-10-13T12:58:19Z</time>
      </trkpt>
      <trkpt lat="37.681023000" lon="-4.428230000">
        <ele>228.1</ele>
        <time>2020-10-13T12:58:21Z</time>
      </trkpt>
      <trkpt lat="37.680944000" lon="-4.428166000">
        <ele>228.1</ele>
        <time>2020-10-13T12:58:23Z</time>
      </trkpt>
      <trkpt lat="37.680862000" lon="-4.428086000">
        <ele>228.2</ele>
        <time>2020-10-13T12:58:25Z</time>
      </trkpt>
      <trkpt lat="37.680789000" lon="-4.427998000">
        <ele>228.4</ele>
        <time>2020-10-13T12:58:27Z</time>
      </trkpt>
      <trkpt lat="37.680727000" lon="-4.427904000">
        <ele>228.6</ele>
        <time>2020-10-13T12:58:29Z</time>
      </trkpt>
      <trkpt lat="37.680678000" lon="-4.427807000">
        <ele>228.8</ele>
        <time>2020-10-13T12:58:31Z</time>
      </trkpt>
      <trkpt lat="37.680627000" lon="-4.427707000">
        <ele>229.0</ele>
        <time>2020-10-13T12:58:33Z</time>
      </trkpt>
      <trkpt lat="37.680586000" lon="-4.427598000">
        <ele>229.3</ele>
        <time>2020-10-13T12:58:35Z</time>
      </trkpt>
      <trkpt lat="37.680552000" lon="-4.427490000">
        <ele>229.5</ele>
        <time>2020-10-13T12:58:37Z</time>
      </trkpt>
      <trkpt lat="37.680524000" lon="-4.427377000">
        <ele>229.9</ele>
        <time>2020-10-13T12:58:39Z</time>
      </trkpt>
      <trkpt lat="37.680497000" lon="-4.427271000">
        <ele>230.2</ele>
        <time>2020-10-13T12:58:41Z</time>
      </trkpt>
      <trkpt lat="37.680478000" lon="-4.427166000">
        <ele>230.4</ele>
        <time>2020-10-13T12:58:43Z</time>
      </trkpt>
      <trkpt lat="37.680460000" lon="-4.427061000">
        <ele>230.5</ele>
        <time>2020-10-13T12:58:45Z</time>
      </trkpt>
      <trkpt lat="37.680446000" lon="-4.426954000">
        <ele>230.6</ele>
        <time>2020-10-13T12:58:47Z</time>
      </trkpt>
      <trkpt lat="37.680434000" lon="-4.426843000">
        <ele>230.5</ele>
        <time>2020-10-13T12:58:49Z</time>
      </trkpt>
      <trkpt lat="37.680419000" lon="-4.426734000">
        <ele>230.5</ele>
        <time>2020-10-13T12:58:51Z</time>
      </trkpt>
      <trkpt lat="37.680407000" lon="-4.426628000">
        <ele>230.4</ele>
        <time>2020-10-13T12:58:53Z</time>
      </trkpt>
      <trkpt lat="37.680389000" lon="-4.426479000">
        <ele>230.3</ele>
        <time>2020-10-13T12:58:56Z</time>
      </trkpt>
      <trkpt lat="37.680381000" lon="-4.426331000">
        <ele>230.2</ele>
        <time>2020-10-13T12:58:59Z</time>
      </trkpt>
      <trkpt lat="37.680371000" lon="-4.426184000">
        <ele>230.1</ele>
        <time>2020-10-13T12:59:02Z</time>
      </trkpt>
      <trkpt lat="37.680367000" lon="-4.426041000">
        <ele>229.9</ele>
        <time>2020-10-13T12:59:05Z</time>
      </trkpt>
      <trkpt lat="37.680357000" lon="-4.425897000">
        <ele>229.6</ele>
        <time>2020-10-13T12:59:08Z</time>
      </trkpt>
      <trkpt lat="37.680349000" lon="-4.425747000">
        <ele>229.5</ele>
        <time>2020-10-13T12:59:11Z</time>
      </trkpt>
      <trkpt lat="37.680353000" lon="-4.425645000">
        <ele>229.3</ele>
        <time>2020-10-13T12:59:13Z</time>
      </trkpt>
      <trkpt lat="37.680360000" lon="-4.425495000">
        <ele>229.1</ele>
        <time>2020-10-13T12:59:16Z</time>
      </trkpt>
      <trkpt lat="37.680367000" lon="-4.425346000">
        <ele>229.0</ele>
        <time>2020-10-13T12:59:19Z</time>
      </trkpt>
      <trkpt lat="37.680387000" lon="-4.425199000">
        <ele>229.0</ele>
        <time>2020-10-13T12:59:22Z</time>
      </trkpt>
      <trkpt lat="37.680415000" lon="-4.425051000">
        <ele>229.2</ele>
        <time>2020-10-13T12:59:25Z</time>
      </trkpt>
      <trkpt lat="37.680462000" lon="-4.424915000">
        <ele>229.4</ele>
        <time>2020-10-13T12:59:28Z</time>
      </trkpt>
      <trkpt lat="37.680517000" lon="-4.424787000">
        <ele>229.5</ele>
        <time>2020-10-13T12:59:31Z</time>
      </trkpt>
      <trkpt lat="37.680576000" lon="-4.424665000">
        <ele>229.7</ele>
        <time>2020-10-13T12:59:34Z</time>
      </trkpt>
      <trkpt lat="37.680628000" lon="-4.424546000">
        <ele>229.8</ele>
        <time>2020-10-13T12:59:37Z</time>
      </trkpt>
      <trkpt lat="37.680665000" lon="-4.424416000">
        <ele>229.9</ele>
        <time>2020-10-13T12:59:40Z</time>
      </trkpt>
      <trkpt lat="37.680695000" lon="-4.424283000">
        <ele>229.9</ele>
        <time>2020-10-13T12:59:43Z</time>
      </trkpt>
      <trkpt lat="37.680717000" lon="-4.424150000">
        <ele>229.9</ele>
        <time>2020-10-13T12:59:46Z</time>
      </trkpt>
      <trkpt lat="37.680718000" lon="-4.424010000">
        <ele>229.9</ele>
        <time>2020-10-13T12:59:49Z</time>
      </trkpt>
      <trkpt lat="37.680711000" lon="-4.423863000">
        <ele>229.9</ele>
        <time>2020-10-13T12:59:52Z</time>
      </trkpt>
      <trkpt lat="37.680700000" lon="-4.423713000">
        <ele>229.8</ele>
        <time>2020-10-13T12:59:55Z</time>
      </trkpt>
      <trkpt lat="37.680698000" lon="-4.423606000">
        <ele>229.7</ele>
        <time>2020-10-13T12:59:57Z</time>
      </trkpt>
      <trkpt lat="37.680707000" lon="-4.423497000">
        <ele>229.6</ele>
        <time>2020-10-13T12:59:59Z</time>
      </trkpt>
      <trkpt lat="37.680727000" lon="-4.423389000">
        <ele>229.5</ele>
        <time>2020-10-13T13:00:01Z</time>
      </trkpt>
      <trkpt lat="37.680750000" lon="-4.423282000">
        <ele>229.5</ele>
        <time>2020-10-13T13:00:03Z</time>
      </trkpt>
      <trkpt lat="37.680772000" lon="-4.423178000">
        <ele>229.5</ele>
        <time>2020-10-13T13:00:05Z</time>
      </trkpt>
      <trkpt lat="37.680791000" lon="-4.423077000">
        <ele>229.5</ele>
        <time>2020-10-13T13:00:07Z</time>
      </trkpt>
      <trkpt lat="37.680803000" lon="-4.422974000">
        <ele>229.6</ele>
        <time>2020-10-13T13:00:09Z</time>
      </trkpt>
      <trkpt lat="37.680800000" lon="-4.422867000">
        <ele>229.7</ele>
        <time>2020-10-13T13:00:11Z</time>
      </trkpt>
      <trkpt lat="37.680780000" lon="-4.422762000">
        <ele>229.8</ele>
        <time>2020-10-13T13:00:13Z</time>
      </trkpt>
      <trkpt lat="37.680751000" lon="-4.422662000">
        <ele>229.9</ele>
        <time>2020-10-13T13:00:15Z</time>
      </trkpt>
      <trkpt lat="37.680718000" lon="-4.422566000">
        <ele>230.0</ele>
        <time>2020-10-13T13:00:17Z</time>
      </trkpt>
      <trkpt lat="37.680682000" lon="-4.422470000">
        <ele>229.9</ele>
        <time>2020-10-13T13:00:19Z</time>
      </trkpt>
      <trkpt lat="37.680642000" lon="-4.422372000">
        <ele>229.8</ele>
        <time>2020-10-13T13:00:21Z</time>
      </trkpt>
      <trkpt lat="37.680597000" lon="-4.422269000">
        <ele>229.7</ele>
        <time>2020-10-13T13:00:23Z</time>
      </trkpt>
      <trkpt lat="37.680545000" lon="-4.422159000">
        <ele>229.6</ele>
        <time>2020-10-13T13:00:25Z</time>
      </trkpt>
      <trkpt lat="37.680493000" lon="-4.422053000">
        <ele>229.5</ele>
        <time>2020-10-13T13:00:27Z</time>
      </trkpt>
      <trkpt lat="37.680436000" lon="-4.421951000">
        <ele>229.5</ele>
        <time>2020-10-13T13:00:29Z</time>
      </trkpt>
      <trkpt lat="37.680380000" lon="-4.421858000">
        <ele>229.4</ele>
        <time>2020-10-13T13:00:31Z</time>
      </trkpt>
      <trkpt lat="37.680316000" lon="-4.421771000">
        <ele>229.2</ele>
        <time>2020-10-13T13:00:33Z</time>
      </trkpt>
      <trkpt lat="37.680254000" lon="-4.421668000">
        <ele>229.0</ele>
        <time>2020-10-13T13:00:35Z</time>
      </trkpt>
      <trkpt lat="37.680185000" lon="-4.421570000">
        <ele>228.8</ele>
        <time>2020-10-13T13:00:37Z</time>
      </trkpt>
      <trkpt lat="37.680126000" lon="-4.421482000">
        <ele>228.6</ele>
        <time>2020-10-13T13:00:39Z</time>
      </trkpt>
      <trkpt lat="37.680062000" lon="-4.421381000">
        <ele>228.5</ele>
        <time>2020-10-13T13:00:41Z</time>
      </trkpt>
      <trkpt lat="37.680004000" lon="-4.421280000">
        <ele>228.5</ele>
        <time>2020-10-13T13:00:43Z</time>
      </trkpt>
      <trkpt lat="37.679938000" lon="-4.421193000">
        <ele>228.4</ele>
        <time>2020-10-13T13:00:45Z</time>
      </trkpt>
      <trkpt lat="37.679871000" lon="-4.421098000">
        <ele>228.3</ele>
        <time>2020-10-13T13:00:47Z</time>
      </trkpt>
      <trkpt lat="37.679808000" lon="-4.421007000">
        <ele>228.3</ele>
        <time>2020-10-13T13:00:49Z</time>
      </trkpt>
      <trkpt lat="37.679749000" lon="-4.420918000">
        <ele>228.2</ele>
        <time>2020-10-13T13:00:51Z</time>
      </trkpt>
      <trkpt lat="37.679690000" lon="-4.420821000">
        <ele>228.1</ele>
        <time>2020-10-13T13:00:53Z</time>
      </trkpt>
      <trkpt lat="37.679635000" lon="-4.420729000">
        <ele>228.1</ele>
        <time>2020-10-13T13:00:55Z</time>
      </trkpt>
      <trkpt lat="37.679578000" lon="-4.420637000">
        <ele>228.1</ele>
        <time>2020-10-13T13:00:57Z</time>
      </trkpt>
      <trkpt lat="37.679527000" lon="-4.420544000">
        <ele>228.2</ele>
        <time>2020-10-13T13:00:59Z</time>
      </trkpt>
      <trkpt lat="37.679480000" lon="-4.420448000">
        <ele>228.3</ele>
        <time>2020-10-13T13:01:01Z</time>
      </trkpt>
      <trkpt lat="37.679437000" lon="-4.420348000">
        <ele>228.4</ele>
        <time>2020-10-13T13:01:03Z</time>
      </trkpt>
      <trkpt lat="37.679397000" lon="-4.420247000">
        <ele>228.5</ele>
        <time>2020-10-13T13:01:05Z</time>
      </trkpt>
      <trkpt lat="37.679377000" lon="-4.420139000">
        <ele>228.5</ele>
        <time>2020-10-13T13:01:07Z</time>
      </trkpt>
      <trkpt lat="37.679354000" lon="-4.420024000">
        <ele>228.6</ele>
        <time>2020-10-13T13:01:09Z</time>
      </trkpt>
      <trkpt lat="37.679338000" lon="-4.419911000">
        <ele>228.6</ele>
        <time>2020-10-13T13:01:11Z</time>
      </trkpt>
      <trkpt lat="37.679324000" lon="-4.419797000">
        <ele>228.7</ele>
        <time>2020-10-13T13:01:13Z</time>
      </trkpt>
      <trkpt lat="37.679329000" lon="-4.419686000">
        <ele>228.8</ele>
        <time>2020-10-13T13:01:15Z</time>
      </trkpt>
      <trkpt lat="37.679340000" lon="-4.419571000">
        <ele>228.9</ele>
        <time>2020-10-13T13:01:17Z</time>
      </trkpt>
      <trkpt lat="37.679358000" lon="-4.419466000">
        <ele>229.0</ele>
        <time>2020-10-13T13:01:19Z</time>
      </trkpt>
      <trkpt lat="37.679386000" lon="-4.419362000">
        <ele>229.1</ele>
        <time>2020-10-13T13:01:21Z</time>
      </trkpt>
      <trkpt lat="37.679412000" lon="-4.419258000">
        <ele>229.2</ele>
        <time>2020-10-13T13:01:23Z</time>
      </trkpt>
      <trkpt lat="37.679437000" lon="-4.419154000">
        <ele>229.3</ele>
        <time>2020-10-13T13:01:25Z</time>
      </trkpt>
      <trkpt lat="37.679458000" lon="-4.419049000">
        <ele>229.4</ele>
        <time>2020-10-13T13:01:27Z</time>
      </trkpt>
      <trkpt lat="37.679485000" lon="-4.418943000">
        <ele>229.5</ele>
        <time>2020-10-13T13:01:29Z</time>
      </trkpt>
      <trkpt lat="37.679516000" lon="-4.418838000">
        <ele>229.7</ele>
        <time>2020-10-13T13:01:31Z</time>
      </trkpt>
      <trkpt lat="37.679548000" lon="-4.418733000">
        <ele>230.0</ele>
        <time>2020-10-13T13:01:33Z</time>
      </trkpt>
      <trkpt lat="37.679580000" lon="-4.418628000">
        <ele>230.3</ele>
        <time>2020-10-13T13:01:35Z</time>
      </trkpt>
      <trkpt lat="37.679607000" lon="-4.418523000">
        <ele>230.5</ele>
        <time>2020-10-13T13:01:37Z</time>
      </trkpt>
      <trkpt lat="37.679638000" lon="-4.418414000">
        <ele>230.8</ele>
        <time>2020-10-13T13:01:39Z</time>
      </trkpt>
      <trkpt lat="37.679665000" lon="-4.418310000">
        <ele>231.1</ele>
        <time>2020-10-13T13:01:41Z</time>
      </trkpt>
      <trkpt lat="37.679692000" lon="-4.418205000">
        <ele>231.2</ele>
        <time>2020-10-13T13:01:43Z</time>
      </trkpt>
      <trkpt lat="37.679715000" lon="-4.418090000">
        <ele>231.3</ele>
        <time>2020-10-13T13:01:45Z</time>
      </trkpt>
      <trkpt lat="37.679749000" lon="-4.417983000">
        <ele>231.4</ele>
        <time>2020-10-13T13:01:49Z</time>
      </trkpt>
      <trkpt lat="37.679797000" lon="-4.417824000">
        <ele>231.5</ele>
        <time>2020-10-13T13:01:50Z</time>
      </trkpt>
      <trkpt lat="37.679833000" lon="-4.417667000">
        <ele>231.5</ele>
        <time>2020-10-13T13:01:53Z</time>
      </trkpt>
      <trkpt lat="37.679857000" lon="-4.417561000">
        <ele>231.5</ele>
        <time>2020-10-13T13:01:55Z</time>
      </trkpt>
      <trkpt lat="37.679876000" lon="-4.417457000">
        <ele>231.4</ele>
        <time>2020-10-13T13:01:57Z</time>
      </trkpt>
      <trkpt lat="37.679894000" lon="-4.417354000">
        <ele>231.3</ele>
        <time>2020-10-13T13:01:59Z</time>
      </trkpt>
      <trkpt lat="37.679899000" lon="-4.417251000">
        <ele>231.2</ele>
        <time>2020-10-13T13:02:01Z</time>
      </trkpt>
      <trkpt lat="37.679903000" lon="-4.417141000">
        <ele>231.1</ele>
        <time>2020-10-13T13:02:03Z</time>
      </trkpt>
      <trkpt lat="37.679904000" lon="-4.417028000">
        <ele>231.0</ele>
        <time>2020-10-13T13:02:05Z</time>
      </trkpt>
      <trkpt lat="37.679898000" lon="-4.416905000">
        <ele>231.0</ele>
        <time>2020-10-13T13:02:07Z</time>
      </trkpt>
      <trkpt lat="37.679899000" lon="-4.416790000">
        <ele>231.1</ele>
        <time>2020-10-13T13:02:09Z</time>
      </trkpt>
      <trkpt lat="37.679904000" lon="-4.416673000">
        <ele>231.2</ele>
        <time>2020-10-13T13:02:11Z</time>
      </trkpt>
      <trkpt lat="37.679903000" lon="-4.416546000">
        <ele>231.3</ele>
        <time>2020-10-13T13:02:13Z</time>
      </trkpt>
      <trkpt lat="37.679905000" lon="-4.416417000">
        <ele>231.5</ele>
        <time>2020-10-13T13:02:15Z</time>
      </trkpt>
      <trkpt lat="37.679901000" lon="-4.416295000">
        <ele>231.6</ele>
        <time>2020-10-13T13:02:17Z</time>
      </trkpt>
      <trkpt lat="37.679904000" lon="-4.416176000">
        <ele>231.9</ele>
        <time>2020-10-13T13:02:19Z</time>
      </trkpt>
      <trkpt lat="37.679903000" lon="-4.416060000">
        <ele>232.2</ele>
        <time>2020-10-13T13:02:21Z</time>
      </trkpt>
      <trkpt lat="37.679907000" lon="-4.415939000">
        <ele>232.5</ele>
        <time>2020-10-13T13:02:23Z</time>
      </trkpt>
      <trkpt lat="37.679912000" lon="-4.415822000">
        <ele>233.0</ele>
        <time>2020-10-13T13:02:25Z</time>
      </trkpt>
      <trkpt lat="37.679919000" lon="-4.415708000">
        <ele>233.5</ele>
        <time>2020-10-13T13:02:27Z</time>
      </trkpt>
      <trkpt lat="37.679925000" lon="-4.415588000">
        <ele>233.9</ele>
        <time>2020-10-13T13:02:29Z</time>
      </trkpt>
      <trkpt lat="37.679931000" lon="-4.415481000">
        <ele>234.3</ele>
        <time>2020-10-13T13:02:31Z</time>
      </trkpt>
      <trkpt lat="37.679941000" lon="-4.415373000">
        <ele>234.6</ele>
        <time>2020-10-13T13:02:33Z</time>
      </trkpt>
      <trkpt lat="37.679950000" lon="-4.415271000">
        <ele>235.0</ele>
        <time>2020-10-13T13:02:35Z</time>
      </trkpt>
      <trkpt lat="37.679959000" lon="-4.415169000">
        <ele>235.3</ele>
        <time>2020-10-13T13:02:37Z</time>
      </trkpt>
      <trkpt lat="37.679972000" lon="-4.415025000">
        <ele>235.5</ele>
        <time>2020-10-13T13:02:40Z</time>
      </trkpt>
      <trkpt lat="37.679988000" lon="-4.414883000">
        <ele>235.7</ele>
        <time>2020-10-13T13:02:43Z</time>
      </trkpt>
      <trkpt lat="37.679997000" lon="-4.414748000">
        <ele>236.0</ele>
        <time>2020-10-13T13:02:46Z</time>
      </trkpt>
      <trkpt lat="37.680018000" lon="-4.414619000">
        <ele>236.2</ele>
        <time>2020-10-13T13:02:49Z</time>
      </trkpt>
      <trkpt lat="37.680034000" lon="-4.414479000">
        <ele>236.3</ele>
        <time>2020-10-13T13:02:52Z</time>
      </trkpt>
      <trkpt lat="37.680058000" lon="-4.414338000">
        <ele>236.5</ele>
        <time>2020-10-13T13:02:55Z</time>
      </trkpt>
      <trkpt lat="37.680081000" lon="-4.414203000">
        <ele>236.6</ele>
        <time>2020-10-13T13:02:58Z</time>
      </trkpt>
      <trkpt lat="37.680107000" lon="-4.414070000">
        <ele>236.8</ele>
        <time>2020-10-13T13:03:01Z</time>
      </trkpt>
      <trkpt lat="37.680143000" lon="-4.413935000">
        <ele>237.1</ele>
        <time>2020-10-13T13:03:04Z</time>
      </trkpt>
      <trkpt lat="37.680168000" lon="-4.413803000">
        <ele>237.4</ele>
        <time>2020-10-13T13:03:07Z</time>
      </trkpt>
      <trkpt lat="37.680194000" lon="-4.413679000">
        <ele>237.6</ele>
        <time>2020-10-13T13:03:10Z</time>
      </trkpt>
      <trkpt lat="37.680217000" lon="-4.413552000">
        <ele>237.9</ele>
        <time>2020-10-13T13:03:13Z</time>
      </trkpt>
      <trkpt lat="37.680217000" lon="-4.413418000">
        <ele>238.2</ele>
        <time>2020-10-13T13:03:16Z</time>
      </trkpt>
      <trkpt lat="37.680199000" lon="-4.413280000">
        <ele>238.4</ele>
        <time>2020-10-13T13:03:19Z</time>
      </trkpt>
      <trkpt lat="37.680170000" lon="-4.413139000">
        <ele>238.5</ele>
        <time>2020-10-13T13:03:22Z</time>
      </trkpt>
      <trkpt lat="37.680136000" lon="-4.413000000">
        <ele>238.7</ele>
        <time>2020-10-13T13:03:25Z</time>
      </trkpt>
      <trkpt lat="37.680091000" lon="-4.412867000">
        <ele>238.8</ele>
        <time>2020-10-13T13:03:28Z</time>
      </trkpt>
      <trkpt lat="37.680029000" lon="-4.412748000">
        <ele>238.9</ele>
        <time>2020-10-13T13:03:31Z</time>
      </trkpt>
      <trkpt lat="37.679951000" lon="-4.412643000">
        <ele>239.0</ele>
        <time>2020-10-13T13:03:34Z</time>
      </trkpt>
      <trkpt lat="37.679857000" lon="-4.412545000">
        <ele>239.0</ele>
        <time>2020-10-13T13:03:37Z</time>
      </trkpt>
      <trkpt lat="37.679787000" lon="-4.412478000">
        <ele>239.0</ele>
        <time>2020-10-13T13:03:39Z</time>
      </trkpt>
      <trkpt lat="37.679715000" lon="-4.412406000">
        <ele>238.9</ele>
        <time>2020-10-13T13:03:41Z</time>
      </trkpt>
      <trkpt lat="37.679645000" lon="-4.412331000">
        <ele>238.8</ele>
        <time>2020-10-13T13:03:43Z</time>
      </trkpt>
      <trkpt lat="37.679571000" lon="-4.412262000">
        <ele>238.6</ele>
        <time>2020-10-13T13:03:45Z</time>
      </trkpt>
      <trkpt lat="37.679504000" lon="-4.412187000">
        <ele>238.5</ele>
        <time>2020-10-13T13:03:47Z</time>
      </trkpt>
      <trkpt lat="37.679438000" lon="-4.412114000">
        <ele>238.3</ele>
        <time>2020-10-13T13:03:49Z</time>
      </trkpt>
      <trkpt lat="37.679384000" lon="-4.412034000">
        <ele>238.1</ele>
        <time>2020-10-13T13:03:51Z</time>
      </trkpt>
      <trkpt lat="37.679316000" lon="-4.411908000">
        <ele>237.9</ele>
        <time>2020-10-13T13:03:54Z</time>
      </trkpt>
      <trkpt lat="37.679289000" lon="-4.411809000">
        <ele>237.7</ele>
        <time>2020-10-13T13:03:56Z</time>
      </trkpt>
      <trkpt lat="37.679265000" lon="-4.411708000">
        <ele>237.6</ele>
        <time>2020-10-13T13:03:58Z</time>
      </trkpt>
      <trkpt lat="37.679239000" lon="-4.411606000">
        <ele>237.5</ele>
        <time>2020-10-13T13:04:00Z</time>
      </trkpt>
      <trkpt lat="37.679212000" lon="-4.411502000">
        <ele>237.3</ele>
        <time>2020-10-13T13:04:02Z</time>
      </trkpt>
      <trkpt lat="37.679186000" lon="-4.411394000">
        <ele>237.1</ele>
        <time>2020-10-13T13:04:04Z</time>
      </trkpt>
      <trkpt lat="37.679159000" lon="-4.411287000">
        <ele>236.9</ele>
        <time>2020-10-13T13:04:06Z</time>
      </trkpt>
      <trkpt lat="37.679134000" lon="-4.411179000">
        <ele>236.7</ele>
        <time>2020-10-13T13:04:08Z</time>
      </trkpt>
      <trkpt lat="37.679113000" lon="-4.411068000">
        <ele>236.5</ele>
        <time>2020-10-13T13:04:10Z</time>
      </trkpt>
      <trkpt lat="37.679090000" lon="-4.410956000">
        <ele>236.4</ele>
        <time>2020-10-13T13:04:12Z</time>
      </trkpt>
      <trkpt lat="37.679066000" lon="-4.410843000">
        <ele>236.2</ele>
        <time>2020-10-13T13:04:14Z</time>
      </trkpt>
      <trkpt lat="37.679044000" lon="-4.410732000">
        <ele>236.1</ele>
        <time>2020-10-13T13:04:16Z</time>
      </trkpt>
      <trkpt lat="37.679018000" lon="-4.410618000">
        <ele>236.0</ele>
        <time>2020-10-13T13:04:18Z</time>
      </trkpt>
      <trkpt lat="37.678985000" lon="-4.410494000">
        <ele>235.8</ele>
        <time>2020-10-13T13:04:20Z</time>
      </trkpt>
      <trkpt lat="37.678944000" lon="-4.410370000">
        <ele>235.7</ele>
        <time>2020-10-13T13:04:22Z</time>
      </trkpt>
      <trkpt lat="37.678892000" lon="-4.410248000">
        <ele>235.5</ele>
        <time>2020-10-13T13:04:24Z</time>
      </trkpt>
      <trkpt lat="37.678832000" lon="-4.410119000">
        <ele>235.5</ele>
        <time>2020-10-13T13:04:26Z</time>
      </trkpt>
      <trkpt lat="37.678777000" lon="-4.409988000">
        <ele>235.4</ele>
        <time>2020-10-13T13:04:28Z</time>
      </trkpt>
      <trkpt lat="37.678720000" lon="-4.409858000">
        <ele>235.4</ele>
        <time>2020-10-13T13:04:30Z</time>
      </trkpt>
      <trkpt lat="37.678661000" lon="-4.409733000">
        <ele>235.5</ele>
        <time>2020-10-13T13:04:32Z</time>
      </trkpt>
      <trkpt lat="37.678597000" lon="-4.409606000">
        <ele>235.5</ele>
        <time>2020-10-13T13:04:34Z</time>
      </trkpt>
      <trkpt lat="37.678537000" lon="-4.409484000">
        <ele>235.6</ele>
        <time>2020-10-13T13:04:36Z</time>
      </trkpt>
      <trkpt lat="37.678480000" lon="-4.409362000">
        <ele>235.6</ele>
        <time>2020-10-13T13:04:38Z</time>
      </trkpt>
      <trkpt lat="37.678420000" lon="-4.409241000">
        <ele>235.6</ele>
        <time>2020-10-13T13:04:40Z</time>
      </trkpt>
      <trkpt lat="37.678354000" lon="-4.409127000">
        <ele>235.6</ele>
        <time>2020-10-13T13:04:42Z</time>
      </trkpt>
      <trkpt lat="37.678294000" lon="-4.409008000">
        <ele>235.7</ele>
        <time>2020-10-13T13:04:44Z</time>
      </trkpt>
      <trkpt lat="37.678237000" lon="-4.408905000">
        <ele>236.0</ele>
        <time>2020-10-13T13:04:46Z</time>
      </trkpt>
      <trkpt lat="37.678182000" lon="-4.408800000">
        <ele>236.4</ele>
        <time>2020-10-13T13:04:48Z</time>
      </trkpt>
      <trkpt lat="37.678136000" lon="-4.408701000">
        <ele>236.7</ele>
        <time>2020-10-13T13:04:50Z</time>
      </trkpt>
      <trkpt lat="37.678087000" lon="-4.408601000">
        <ele>237.2</ele>
        <time>2020-10-13T13:04:52Z</time>
      </trkpt>
      <trkpt lat="37.678040000" lon="-4.408501000">
        <ele>237.6</ele>
        <time>2020-10-13T13:04:54Z</time>
      </trkpt>
      <trkpt lat="37.677997000" lon="-4.408402000">
        <ele>238.1</ele>
        <time>2020-10-13T13:04:56Z</time>
      </trkpt>
      <trkpt lat="37.677955000" lon="-4.408295000">
        <ele>238.5</ele>
        <time>2020-10-13T13:04:58Z</time>
      </trkpt>
      <trkpt lat="37.677904000" lon="-4.408200000">
        <ele>238.8</ele>
        <time>2020-10-13T13:05:00Z</time>
      </trkpt>
      <trkpt lat="37.677861000" lon="-4.408107000">
        <ele>239.1</ele>
        <time>2020-10-13T13:05:02Z</time>
      </trkpt>
      <trkpt lat="37.677807000" lon="-4.407968000">
        <ele>239.4</ele>
        <time>2020-10-13T13:05:05Z</time>
      </trkpt>
      <trkpt lat="37.677766000" lon="-4.407877000">
        <ele>239.5</ele>
        <time>2020-10-13T13:05:07Z</time>
      </trkpt>
      <trkpt lat="37.677713000" lon="-4.407739000">
        <ele>239.5</ele>
        <time>2020-10-13T13:05:10Z</time>
      </trkpt>
      <trkpt lat="37.677678000" lon="-4.407647000">
        <ele>239.5</ele>
        <time>2020-10-13T13:05:12Z</time>
      </trkpt>
      <trkpt lat="37.677626000" lon="-4.407509000">
        <ele>239.5</ele>
        <time>2020-10-13T13:05:15Z</time>
      </trkpt>
      <trkpt lat="37.677596000" lon="-4.407414000">
        <ele>239.5</ele>
        <time>2020-10-13T13:05:17Z</time>
      </trkpt>
      <trkpt lat="37.677566000" lon="-4.407317000">
        <ele>239.3</ele>
        <time>2020-10-13T13:05:19Z</time>
      </trkpt>
      <trkpt lat="37.677533000" lon="-4.407218000">
        <ele>239.1</ele>
        <time>2020-10-13T13:05:21Z</time>
      </trkpt>
      <trkpt lat="37.677507000" lon="-4.407112000">
        <ele>239.0</ele>
        <time>2020-10-13T13:05:23Z</time>
      </trkpt>
      <trkpt lat="37.677472000" lon="-4.407004000">
        <ele>238.9</ele>
        <time>2020-10-13T13:05:25Z</time>
      </trkpt>
      <trkpt lat="37.677436000" lon="-4.406891000">
        <ele>238.8</ele>
        <time>2020-10-13T13:05:27Z</time>
      </trkpt>
      <trkpt lat="37.677398000" lon="-4.406779000">
        <ele>238.8</ele>
        <time>2020-10-13T13:05:29Z</time>
      </trkpt>
      <trkpt lat="37.677360000" lon="-4.406669000">
        <ele>238.8</ele>
        <time>2020-10-13T13:05:31Z</time>
      </trkpt>
      <trkpt lat="37.677317000" lon="-4.406556000">
        <ele>238.8</ele>
        <time>2020-10-13T13:05:33Z</time>
      </trkpt>
      <trkpt lat="37.677281000" lon="-4.406450000">
        <ele>238.7</ele>
        <time>2020-10-13T13:05:35Z</time>
      </trkpt>
      <trkpt lat="37.677231000" lon="-4.406352000">
        <ele>238.6</ele>
        <time>2020-10-13T13:05:37Z</time>
      </trkpt>
      <trkpt lat="37.677186000" lon="-4.406249000">
        <ele>238.5</ele>
        <time>2020-10-13T13:05:39Z</time>
      </trkpt>
      <trkpt lat="37.677146000" lon="-4.406154000">
        <ele>238.4</ele>
        <time>2020-10-13T13:05:41Z</time>
      </trkpt>
      <trkpt lat="37.677103000" lon="-4.406060000">
        <ele>238.2</ele>
        <time>2020-10-13T13:05:43Z</time>
      </trkpt>
      <trkpt lat="37.677056000" lon="-4.405967000">
        <ele>238.0</ele>
        <time>2020-10-13T13:05:45Z</time>
      </trkpt>
      <trkpt lat="37.677010000" lon="-4.405857000">
        <ele>237.8</ele>
        <time>2020-10-13T13:05:47Z</time>
      </trkpt>
      <trkpt lat="37.676966000" lon="-4.405752000">
        <ele>237.7</ele>
        <time>2020-10-13T13:05:49Z</time>
      </trkpt>
      <trkpt lat="37.676912000" lon="-4.405665000">
        <ele>237.5</ele>
        <time>2020-10-13T13:05:51Z</time>
      </trkpt>
      <trkpt lat="37.676858000" lon="-4.405571000">
        <ele>237.4</ele>
        <time>2020-10-13T13:05:53Z</time>
      </trkpt>
      <trkpt lat="37.676811000" lon="-4.405478000">
        <ele>237.2</ele>
        <time>2020-10-13T13:05:55Z</time>
      </trkpt>
      <trkpt lat="37.676764000" lon="-4.405386000">
        <ele>237.0</ele>
        <time>2020-10-13T13:05:57Z</time>
      </trkpt>
      <trkpt lat="37.676715000" lon="-4.405299000">
        <ele>236.7</ele>
        <time>2020-10-13T13:05:59Z</time>
      </trkpt>
      <trkpt lat="37.676667000" lon="-4.405207000">
        <ele>236.4</ele>
        <time>2020-10-13T13:06:01Z</time>
      </trkpt>
      <trkpt lat="37.676613000" lon="-4.405108000">
        <ele>236.1</ele>
        <time>2020-10-13T13:06:03Z</time>
      </trkpt>
      <trkpt lat="37.676553000" lon="-4.405006000">
        <ele>235.8</ele>
        <time>2020-10-13T13:06:05Z</time>
      </trkpt>
      <trkpt lat="37.676497000" lon="-4.404905000">
        <ele>235.5</ele>
        <time>2020-10-13T13:06:07Z</time>
      </trkpt>
      <trkpt lat="37.676439000" lon="-4.404805000">
        <ele>235.3</ele>
        <time>2020-10-13T13:06:09Z</time>
      </trkpt>
      <trkpt lat="37.676381000" lon="-4.404702000">
        <ele>235.1</ele>
        <time>2020-10-13T13:06:11Z</time>
      </trkpt>
      <trkpt lat="37.676325000" lon="-4.404602000">
        <ele>234.9</ele>
        <time>2020-10-13T13:06:13Z</time>
      </trkpt>
      <trkpt lat="37.676271000" lon="-4.404504000">
        <ele>234.8</ele>
        <time>2020-10-13T13:06:15Z</time>
      </trkpt>
      <trkpt lat="37.676217000" lon="-4.404401000">
        <ele>234.9</ele>
        <time>2020-10-13T13:06:17Z</time>
      </trkpt>
      <trkpt lat="37.676158000" lon="-4.404299000">
        <ele>235.0</ele>
        <time>2020-10-13T13:06:19Z</time>
      </trkpt>
      <trkpt lat="37.676099000" lon="-4.404193000">
        <ele>235.2</ele>
        <time>2020-10-13T13:06:21Z</time>
      </trkpt>
      <trkpt lat="37.676038000" lon="-4.404092000">
        <ele>235.5</ele>
        <time>2020-10-13T13:06:23Z</time>
      </trkpt>
      <trkpt lat="37.675986000" lon="-4.403990000">
        <ele>235.9</ele>
        <time>2020-10-13T13:06:25Z</time>
      </trkpt>
      <trkpt lat="37.675930000" lon="-4.403881000">
        <ele>236.3</ele>
        <time>2020-10-13T13:06:27Z</time>
      </trkpt>
      <trkpt lat="37.675871000" lon="-4.403787000">
        <ele>236.6</ele>
        <time>2020-10-13T13:06:29Z</time>
      </trkpt>
      <trkpt lat="37.675814000" lon="-4.403686000">
        <ele>237.0</ele>
        <time>2020-10-13T13:06:31Z</time>
      </trkpt>
      <trkpt lat="37.675759000" lon="-4.403593000">
        <ele>237.4</ele>
        <time>2020-10-13T13:06:33Z</time>
      </trkpt>
      <trkpt lat="37.675707000" lon="-4.403499000">
        <ele>237.7</ele>
        <time>2020-10-13T13:06:35Z</time>
      </trkpt>
      <trkpt lat="37.675656000" lon="-4.403412000">
        <ele>238.1</ele>
        <time>2020-10-13T13:06:37Z</time>
      </trkpt>
      <trkpt lat="37.675605000" lon="-4.403318000">
        <ele>238.4</ele>
        <time>2020-10-13T13:06:39Z</time>
      </trkpt>
      <trkpt lat="37.675558000" lon="-4.403227000">
        <ele>238.6</ele>
        <time>2020-10-13T13:06:41Z</time>
      </trkpt>
      <trkpt lat="37.675516000" lon="-4.403135000">
        <ele>239.0</ele>
        <time>2020-10-13T13:06:43Z</time>
      </trkpt>
      <trkpt lat="37.675470000" lon="-4.403048000">
        <ele>239.3</ele>
        <time>2020-10-13T13:06:45Z</time>
      </trkpt>
      <trkpt lat="37.675434000" lon="-4.402950000">
        <ele>239.6</ele>
        <time>2020-10-13T13:06:47Z</time>
      </trkpt>
      <trkpt lat="37.675397000" lon="-4.402856000">
        <ele>240.0</ele>
        <time>2020-10-13T13:06:49Z</time>
      </trkpt>
      <trkpt lat="37.675365000" lon="-4.402761000">
        <ele>240.5</ele>
        <time>2020-10-13T13:06:51Z</time>
      </trkpt>
      <trkpt lat="37.675321000" lon="-4.402619000">
        <ele>240.9</ele>
        <time>2020-10-13T13:06:54Z</time>
      </trkpt>
      <trkpt lat="37.675282000" lon="-4.402479000">
        <ele>241.3</ele>
        <time>2020-10-13T13:06:57Z</time>
      </trkpt>
      <trkpt lat="37.675247000" lon="-4.402339000">
        <ele>241.6</ele>
        <time>2020-10-13T13:07:00Z</time>
      </trkpt>
      <trkpt lat="37.675218000" lon="-4.402198000">
        <ele>241.9</ele>
        <time>2020-10-13T13:07:03Z</time>
      </trkpt>
      <trkpt lat="37.675197000" lon="-4.402063000">
        <ele>242.1</ele>
        <time>2020-10-13T13:07:06Z</time>
      </trkpt>
      <trkpt lat="37.675185000" lon="-4.401920000">
        <ele>242.3</ele>
        <time>2020-10-13T13:07:09Z</time>
      </trkpt>
      <trkpt lat="37.675184000" lon="-4.401816000">
        <ele>242.5</ele>
        <time>2020-10-13T13:07:11Z</time>
      </trkpt>
      <trkpt lat="37.675203000" lon="-4.401671000">
        <ele>242.6</ele>
        <time>2020-10-13T13:07:14Z</time>
      </trkpt>
      <trkpt lat="37.675233000" lon="-4.401533000">
        <ele>242.7</ele>
        <time>2020-10-13T13:07:17Z</time>
      </trkpt>
      <trkpt lat="37.675281000" lon="-4.401411000">
        <ele>242.8</ele>
        <time>2020-10-13T13:07:20Z</time>
      </trkpt>
      <trkpt lat="37.675336000" lon="-4.401292000">
        <ele>242.8</ele>
        <time>2020-10-13T13:07:23Z</time>
      </trkpt>
      <trkpt lat="37.675401000" lon="-4.401179000">
        <ele>242.8</ele>
        <time>2020-10-13T13:07:26Z</time>
      </trkpt>
      <trkpt lat="37.675470000" lon="-4.401071000">
        <ele>242.7</ele>
        <time>2020-10-13T13:07:29Z</time>
      </trkpt>
      <trkpt lat="37.675544000" lon="-4.400967000">
        <ele>242.6</ele>
        <time>2020-10-13T13:07:32Z</time>
      </trkpt>
      <trkpt lat="37.675616000" lon="-4.400861000">
        <ele>242.6</ele>
        <time>2020-10-13T13:07:35Z</time>
      </trkpt>
      <trkpt lat="37.675683000" lon="-4.400759000">
        <ele>242.7</ele>
        <time>2020-10-13T13:07:38Z</time>
      </trkpt>
      <trkpt lat="37.675749000" lon="-4.400661000">
        <ele>242.9</ele>
        <time>2020-10-13T13:07:41Z</time>
      </trkpt>
      <trkpt lat="37.675807000" lon="-4.400567000">
        <ele>243.0</ele>
        <time>2020-10-13T13:07:44Z</time>
      </trkpt>
      <trkpt lat="37.675860000" lon="-4.400468000">
        <ele>243.2</ele>
        <time>2020-10-13T13:07:47Z</time>
      </trkpt>
      <trkpt lat="37.675924000" lon="-4.400372000">
        <ele>243.4</ele>
        <time>2020-10-13T13:07:50Z</time>
      </trkpt>
      <trkpt lat="37.675991000" lon="-4.400271000">
        <ele>243.5</ele>
        <time>2020-10-13T13:07:53Z</time>
      </trkpt>
      <trkpt lat="37.676055000" lon="-4.400178000">
        <ele>243.7</ele>
        <time>2020-10-13T13:07:56Z</time>
      </trkpt>
      <trkpt lat="37.676112000" lon="-4.400080000">
        <ele>244.0</ele>
        <time>2020-10-13T13:07:59Z</time>
      </trkpt>
      <trkpt lat="37.676173000" lon="-4.399983000">
        <ele>244.5</ele>
        <time>2020-10-13T13:08:02Z</time>
      </trkpt>
      <trkpt lat="37.676225000" lon="-4.399893000">
        <ele>245.0</ele>
        <time>2020-10-13T13:08:05Z</time>
      </trkpt>
      <trkpt lat="37.676280000" lon="-4.399797000">
        <ele>245.5</ele>
        <time>2020-10-13T13:08:08Z</time>
      </trkpt>
      <trkpt lat="37.676337000" lon="-4.399706000">
        <ele>246.2</ele>
        <time>2020-10-13T13:08:11Z</time>
      </trkpt>
      <trkpt lat="37.676386000" lon="-4.399621000">
        <ele>246.7</ele>
        <time>2020-10-13T13:08:14Z</time>
      </trkpt>
      <trkpt lat="37.676445000" lon="-4.399515000">
        <ele>247.4</ele>
        <time>2020-10-13T13:08:18Z</time>
      </trkpt>
      <trkpt lat="37.676485000" lon="-4.399425000">
        <ele>247.9</ele>
        <time>2020-10-13T13:08:21Z</time>
      </trkpt>
      <trkpt lat="37.676524000" lon="-4.399331000">
        <ele>248.5</ele>
        <time>2020-10-13T13:08:24Z</time>
      </trkpt>
      <trkpt lat="37.676565000" lon="-4.399208000">
        <ele>249.2</ele>
        <time>2020-10-13T13:08:28Z</time>
      </trkpt>
      <trkpt lat="37.676600000" lon="-4.399102000">
        <ele>249.8</ele>
        <time>2020-10-13T13:08:31Z</time>
      </trkpt>
      <trkpt lat="37.676637000" lon="-4.398990000">
        <ele>250.4</ele>
        <time>2020-10-13T13:08:35Z</time>
      </trkpt>
      <trkpt lat="37.676685000" lon="-4.398866000">
        <ele>250.8</ele>
        <time>2020-10-13T13:08:39Z</time>
      </trkpt>
      <trkpt lat="37.676721000" lon="-4.398767000">
        <ele>251.3</ele>
        <time>2020-10-13T13:08:42Z</time>
      </trkpt>
      <trkpt lat="37.676750000" lon="-4.398671000">
        <ele>251.6</ele>
        <time>2020-10-13T13:08:45Z</time>
      </trkpt>
      <trkpt lat="37.676792000" lon="-4.398551000">
        <ele>252.0</ele>
        <time>2020-10-13T13:08:49Z</time>
      </trkpt>
      <trkpt lat="37.676832000" lon="-4.398433000">
        <ele>252.5</ele>
        <time>2020-10-13T13:08:53Z</time>
      </trkpt>
      <trkpt lat="37.676871000" lon="-4.398309000">
        <ele>252.9</ele>
        <time>2020-10-13T13:08:57Z</time>
      </trkpt>
      <trkpt lat="37.676905000" lon="-4.398181000">
        <ele>253.4</ele>
        <time>2020-10-13T13:09:01Z</time>
      </trkpt>
      <trkpt lat="37.676936000" lon="-4.398086000">
        <ele>253.8</ele>
        <time>2020-10-13T13:09:04Z</time>
      </trkpt>
      <trkpt lat="37.676955000" lon="-4.397983000">
        <ele>254.3</ele>
        <time>2020-10-13T13:09:07Z</time>
      </trkpt>
      <trkpt lat="37.676975000" lon="-4.397884000">
        <ele>254.8</ele>
        <time>2020-10-13T13:09:10Z</time>
      </trkpt>
      <trkpt lat="37.676987000" lon="-4.397780000">
        <ele>255.4</ele>
        <time>2020-10-13T13:09:13Z</time>
      </trkpt>
      <trkpt lat="37.676992000" lon="-4.397675000">
        <ele>256.0</ele>
        <time>2020-10-13T13:09:16Z</time>
      </trkpt>
      <trkpt lat="37.676987000" lon="-4.397548000">
        <ele>256.6</ele>
        <time>2020-10-13T13:09:20Z</time>
      </trkpt>
      <trkpt lat="37.676974000" lon="-4.397422000">
        <ele>257.3</ele>
        <time>2020-10-13T13:09:24Z</time>
      </trkpt>
      <trkpt lat="37.676949000" lon="-4.397304000">
        <ele>257.9</ele>
        <time>2020-10-13T13:09:28Z</time>
      </trkpt>
      <trkpt lat="37.676917000" lon="-4.397183000">
        <ele>258.5</ele>
        <time>2020-10-13T13:09:32Z</time>
      </trkpt>
      <trkpt lat="37.676892000" lon="-4.397084000">
        <ele>259.2</ele>
        <time>2020-10-13T13:09:36Z</time>
      </trkpt>
      <trkpt lat="37.676862000" lon="-4.396966000">
        <ele>259.9</ele>
        <time>2020-10-13T13:09:41Z</time>
      </trkpt>
      <trkpt lat="37.676829000" lon="-4.396862000">
        <ele>260.6</ele>
        <time>2020-10-13T13:09:45Z</time>
      </trkpt>
      <trkpt lat="37.676799000" lon="-4.396751000">
        <ele>261.5</ele>
        <time>2020-10-13T13:09:49Z</time>
      </trkpt>
      <trkpt lat="37.676777000" lon="-4.396636000">
        <ele>262.3</ele>
        <time>2020-10-13T13:09:54Z</time>
      </trkpt>
      <trkpt lat="37.676753000" lon="-4.396513000">
        <ele>263.2</ele>
        <time>2020-10-13T13:09:59Z</time>
      </trkpt>
      <trkpt lat="37.676720000" lon="-4.396406000">
        <ele>264.1</ele>
        <time>2020-10-13T13:10:03Z</time>
      </trkpt>
      <trkpt lat="37.676688000" lon="-4.396302000">
        <ele>264.9</ele>
        <time>2020-10-13T13:10:07Z</time>
      </trkpt>
      <trkpt lat="37.676649000" lon="-4.396198000">
        <ele>265.8</ele>
        <time>2020-10-13T13:10:11Z</time>
      </trkpt>
      <trkpt lat="37.676607000" lon="-4.396085000">
        <ele>266.6</ele>
        <time>2020-10-13T13:10:15Z</time>
      </trkpt>
      <trkpt lat="37.676556000" lon="-4.395981000">
        <ele>267.5</ele>
        <time>2020-10-13T13:10:19Z</time>
      </trkpt>
      <trkpt lat="37.676490000" lon="-4.395872000">
        <ele>268.2</ele>
        <time>2020-10-13T13:10:23Z</time>
      </trkpt>
      <trkpt lat="37.676438000" lon="-4.395792000">
        <ele>268.8</ele>
        <time>2020-10-13T13:10:26Z</time>
      </trkpt>
      <trkpt lat="37.676377000" lon="-4.395713000">
        <ele>269.4</ele>
        <time>2020-10-13T13:10:29Z</time>
      </trkpt>
      <trkpt lat="37.676316000" lon="-4.395637000">
        <ele>269.9</ele>
        <time>2020-10-13T13:10:32Z</time>
      </trkpt>
      <trkpt lat="37.676231000" lon="-4.395554000">
        <ele>270.4</ele>
        <time>2020-10-13T13:10:36Z</time>
      </trkpt>
      <trkpt lat="37.676150000" lon="-4.395468000">
        <ele>270.7</ele>
        <time>2020-10-13T13:10:40Z</time>
      </trkpt>
      <trkpt lat="37.676087000" lon="-4.395398000">
        <ele>271.1</ele>
        <time>2020-10-13T13:10:43Z</time>
      </trkpt>
      <trkpt lat="37.676019000" lon="-4.395339000">
        <ele>271.4</ele>
        <time>2020-10-13T13:10:46Z</time>
      </trkpt>
      <trkpt lat="37.675949000" lon="-4.395260000">
        <ele>271.5</ele>
        <time>2020-10-13T13:10:49Z</time>
      </trkpt>
      <trkpt lat="37.675875000" lon="-4.395189000">
        <ele>271.7</ele>
        <time>2020-10-13T13:10:52Z</time>
      </trkpt>
      <trkpt lat="37.675796000" lon="-4.395119000">
        <ele>271.7</ele>
        <time>2020-10-13T13:10:55Z</time>
      </trkpt>
      <trkpt lat="37.675730000" lon="-4.395050000">
        <ele>271.6</ele>
        <time>2020-10-13T13:10:58Z</time>
      </trkpt>
      <trkpt lat="37.675662000" lon="-4.394984000">
        <ele>271.4</ele>
        <time>2020-10-13T13:11:01Z</time>
      </trkpt>
      <trkpt lat="37.675592000" lon="-4.394905000">
        <ele>271.0</ele>
        <time>2020-10-13T13:11:04Z</time>
      </trkpt>
      <trkpt lat="37.675513000" lon="-4.394824000">
        <ele>270.5</ele>
        <time>2020-10-13T13:11:07Z</time>
      </trkpt>
      <trkpt lat="37.675439000" lon="-4.394736000">
        <ele>270.1</ele>
        <time>2020-10-13T13:11:10Z</time>
      </trkpt>
      <trkpt lat="37.675369000" lon="-4.394647000">
        <ele>269.5</ele>
        <time>2020-10-13T13:11:13Z</time>
      </trkpt>
      <trkpt lat="37.675290000" lon="-4.394547000">
        <ele>268.9</ele>
        <time>2020-10-13T13:11:16Z</time>
      </trkpt>
      <trkpt lat="37.675208000" lon="-4.394443000">
        <ele>268.3</ele>
        <time>2020-10-13T13:11:19Z</time>
      </trkpt>
      <trkpt lat="37.675152000" lon="-4.394364000">
        <ele>267.6</ele>
        <time>2020-10-13T13:11:21Z</time>
      </trkpt>
      <trkpt lat="37.675102000" lon="-4.394277000">
        <ele>266.9</ele>
        <time>2020-10-13T13:11:23Z</time>
      </trkpt>
      <trkpt lat="37.675033000" lon="-4.394157000">
        <ele>266.3</ele>
        <time>2020-10-13T13:11:26Z</time>
      </trkpt>
      <trkpt lat="37.674980000" lon="-4.394047000">
        <ele>265.7</ele>
        <time>2020-10-13T13:11:29Z</time>
      </trkpt>
      <trkpt lat="37.674929000" lon="-4.393921000">
        <ele>265.4</ele>
        <time>2020-10-13T13:11:32Z</time>
      </trkpt>
      <trkpt lat="37.674910000" lon="-4.393821000">
        <ele>265.2</ele>
        <time>2020-10-13T13:11:34Z</time>
      </trkpt>
      <trkpt lat="37.674898000" lon="-4.393711000">
        <ele>265.1</ele>
        <time>2020-10-13T13:11:36Z</time>
      </trkpt>
      <trkpt lat="37.674895000" lon="-4.393587000">
        <ele>265.0</ele>
        <time>2020-10-13T13:11:38Z</time>
      </trkpt>
      <trkpt lat="37.674899000" lon="-4.393461000">
        <ele>265.0</ele>
        <time>2020-10-13T13:11:40Z</time>
      </trkpt>
      <trkpt lat="37.674901000" lon="-4.393321000">
        <ele>264.9</ele>
        <time>2020-10-13T13:11:42Z</time>
      </trkpt>
      <trkpt lat="37.674915000" lon="-4.393181000">
        <ele>264.8</ele>
        <time>2020-10-13T13:11:44Z</time>
      </trkpt>
      <trkpt lat="37.674923000" lon="-4.393038000">
        <ele>264.7</ele>
        <time>2020-10-13T13:11:46Z</time>
      </trkpt>
      <trkpt lat="37.674916000" lon="-4.392907000">
        <ele>264.6</ele>
        <time>2020-10-13T13:11:48Z</time>
      </trkpt>
      <trkpt lat="37.674865000" lon="-4.392790000">
        <ele>264.5</ele>
        <time>2020-10-13T13:11:50Z</time>
      </trkpt>
      <trkpt lat="37.674783000" lon="-4.392701000">
        <ele>264.2</ele>
        <time>2020-10-13T13:11:52Z</time>
      </trkpt>
      <trkpt lat="37.674688000" lon="-4.392650000">
        <ele>263.8</ele>
        <time>2020-10-13T13:11:54Z</time>
      </trkpt>
      <trkpt lat="37.674598000" lon="-4.392592000">
        <ele>263.2</ele>
        <time>2020-10-13T13:11:56Z</time>
      </trkpt>
      <trkpt lat="37.674504000" lon="-4.392518000">
        <ele>262.4</ele>
        <time>2020-10-13T13:11:58Z</time>
      </trkpt>
      <trkpt lat="37.674411000" lon="-4.392418000">
        <ele>261.5</ele>
        <time>2020-10-13T13:12:00Z</time>
      </trkpt>
      <trkpt lat="37.674332000" lon="-4.392296000">
        <ele>260.5</ele>
        <time>2020-10-13T13:12:02Z</time>
      </trkpt>
      <trkpt lat="37.674262000" lon="-4.392162000">
        <ele>259.5</ele>
        <time>2020-10-13T13:12:04Z</time>
      </trkpt>
      <trkpt lat="37.674187000" lon="-4.392012000">
        <ele>258.6</ele>
        <time>2020-10-13T13:12:06Z</time>
      </trkpt>
      <trkpt lat="37.674121000" lon="-4.391846000">
        <ele>257.7</ele>
        <time>2020-10-13T13:12:08Z</time>
      </trkpt>
      <trkpt lat="37.674054000" lon="-4.391672000">
        <ele>256.8</ele>
        <time>2020-10-13T13:12:10Z</time>
      </trkpt>
      <trkpt lat="37.673996000" lon="-4.391523000">
        <ele>255.9</ele>
        <time>2020-10-13T13:12:12Z</time>
      </trkpt>
      <trkpt lat="37.673949000" lon="-4.391380000">
        <ele>255.0</ele>
        <time>2020-10-13T13:12:14Z</time>
      </trkpt>
      <trkpt lat="37.673915000" lon="-4.391255000">
        <ele>254.2</ele>
        <time>2020-10-13T13:12:16Z</time>
      </trkpt>
      <trkpt lat="37.673882000" lon="-4.391116000">
        <ele>253.5</ele>
        <time>2020-10-13T13:12:18Z</time>
      </trkpt>
      <trkpt lat="37.673852000" lon="-4.390971000">
        <ele>252.8</ele>
        <time>2020-10-13T13:12:20Z</time>
      </trkpt>
      <trkpt lat="37.673823000" lon="-4.390853000">
        <ele>252.3</ele>
        <time>2020-10-13T13:12:22Z</time>
      </trkpt>
      <trkpt lat="37.673805000" lon="-4.390740000">
        <ele>251.8</ele>
        <time>2020-10-13T13:12:24Z</time>
      </trkpt>
      <trkpt lat="37.673785000" lon="-4.390609000">
        <ele>251.3</ele>
        <time>2020-10-13T13:12:27Z</time>
      </trkpt>
      <trkpt lat="37.673756000" lon="-4.390470000">
        <ele>250.8</ele>
        <time>2020-10-13T13:12:30Z</time>
      </trkpt>
      <trkpt lat="37.673738000" lon="-4.390360000">
        <ele>250.4</ele>
        <time>2020-10-13T13:12:32Z</time>
      </trkpt>
      <trkpt lat="37.673715000" lon="-4.390251000">
        <ele>250.0</ele>
        <time>2020-10-13T13:12:34Z</time>
      </trkpt>
      <trkpt lat="37.673698000" lon="-4.390135000">
        <ele>249.7</ele>
        <time>2020-10-13T13:12:36Z</time>
      </trkpt>
      <trkpt lat="37.673679000" lon="-4.390029000">
        <ele>249.6</ele>
        <time>2020-10-13T13:12:40Z</time>
      </trkpt>
      <trkpt lat="37.673662000" lon="-4.389909000">
        <ele>249.5</ele>
        <time>2020-10-13T13:13:32Z</time>
      </trkpt>
      <trkpt lat="37.673636000" lon="-4.389793000">
        <ele>249.5</ele>
        <time>2020-10-13T13:13:35Z</time>
      </trkpt>
      <trkpt lat="37.673608000" lon="-4.389649000">
        <ele>249.5</ele>
        <time>2020-10-13T13:13:38Z</time>
      </trkpt>
      <trkpt lat="37.673589000" lon="-4.389531000">
        <ele>249.5</ele>
        <time>2020-10-13T13:13:40Z</time>
      </trkpt>
      <trkpt lat="37.673569000" lon="-4.389417000">
        <ele>249.5</ele>
        <time>2020-10-13T13:13:42Z</time>
      </trkpt>
      <trkpt lat="37.673553000" lon="-4.389293000">
        <ele>249.5</ele>
        <time>2020-10-13T13:13:44Z</time>
      </trkpt>
      <trkpt lat="37.673536000" lon="-4.389165000">
        <ele>249.5</ele>
        <time>2020-10-13T13:13:46Z</time>
      </trkpt>
      <trkpt lat="37.673513000" lon="-4.389031000">
        <ele>249.5</ele>
        <time>2020-10-13T13:13:48Z</time>
      </trkpt>
      <trkpt lat="37.673486000" lon="-4.388891000">
        <ele>249.4</ele>
        <time>2020-10-13T13:13:50Z</time>
      </trkpt>
      <trkpt lat="37.673462000" lon="-4.388754000">
        <ele>249.3</ele>
        <time>2020-10-13T13:13:52Z</time>
      </trkpt>
      <trkpt lat="37.673438000" lon="-4.388615000">
        <ele>249.1</ele>
        <time>2020-10-13T13:13:54Z</time>
      </trkpt>
      <trkpt lat="37.673409000" lon="-4.388473000">
        <ele>248.8</ele>
        <time>2020-10-13T13:13:56Z</time>
      </trkpt>
      <trkpt lat="37.673395000" lon="-4.388332000">
        <ele>248.5</ele>
        <time>2020-10-13T13:13:58Z</time>
      </trkpt>
      <trkpt lat="37.673369000" lon="-4.388185000">
        <ele>248.3</ele>
        <time>2020-10-13T13:14:00Z</time>
      </trkpt>
      <trkpt lat="37.673349000" lon="-4.388047000">
        <ele>248.0</ele>
        <time>2020-10-13T13:14:02Z</time>
      </trkpt>
      <trkpt lat="37.673322000" lon="-4.387909000">
        <ele>247.9</ele>
        <time>2020-10-13T13:14:04Z</time>
      </trkpt>
      <trkpt lat="37.673293000" lon="-4.387769000">
        <ele>247.7</ele>
        <time>2020-10-13T13:14:06Z</time>
      </trkpt>
      <trkpt lat="37.673265000" lon="-4.387628000">
        <ele>247.5</ele>
        <time>2020-10-13T13:14:08Z</time>
      </trkpt>
      <trkpt lat="37.673234000" lon="-4.387480000">
        <ele>247.5</ele>
        <time>2020-10-13T13:14:10Z</time>
      </trkpt>
      <trkpt lat="37.673207000" lon="-4.387335000">
        <ele>247.4</ele>
        <time>2020-10-13T13:14:12Z</time>
      </trkpt>
      <trkpt lat="37.673176000" lon="-4.387179000">
        <ele>247.2</ele>
        <time>2020-10-13T13:14:14Z</time>
      </trkpt>
      <trkpt lat="37.673149000" lon="-4.387032000">
        <ele>247.0</ele>
        <time>2020-10-13T13:14:16Z</time>
      </trkpt>
      <trkpt lat="37.673125000" lon="-4.386885000">
        <ele>246.8</ele>
        <time>2020-10-13T13:14:18Z</time>
      </trkpt>
      <trkpt lat="37.673107000" lon="-4.386739000">
        <ele>246.5</ele>
        <time>2020-10-13T13:14:20Z</time>
      </trkpt>
      <trkpt lat="37.673108000" lon="-4.386592000">
        <ele>246.2</ele>
        <time>2020-10-13T13:14:22Z</time>
      </trkpt>
      <trkpt lat="37.673116000" lon="-4.386443000">
        <ele>245.8</ele>
        <time>2020-10-13T13:14:24Z</time>
      </trkpt>
      <trkpt lat="37.673124000" lon="-4.386296000">
        <ele>245.3</ele>
        <time>2020-10-13T13:14:26Z</time>
      </trkpt>
      <trkpt lat="37.673138000" lon="-4.386151000">
        <ele>244.9</ele>
        <time>2020-10-13T13:14:28Z</time>
      </trkpt>
      <trkpt lat="37.673155000" lon="-4.386005000">
        <ele>244.5</ele>
        <time>2020-10-13T13:14:30Z</time>
      </trkpt>
      <trkpt lat="37.673164000" lon="-4.385855000">
        <ele>244.1</ele>
        <time>2020-10-13T13:14:32Z</time>
      </trkpt>
      <trkpt lat="37.673177000" lon="-4.385711000">
        <ele>243.8</ele>
        <time>2020-10-13T13:14:34Z</time>
      </trkpt>
      <trkpt lat="37.673178000" lon="-4.385577000">
        <ele>243.6</ele>
        <time>2020-10-13T13:14:36Z</time>
      </trkpt>
      <trkpt lat="37.673164000" lon="-4.385441000">
        <ele>243.5</ele>
        <time>2020-10-13T13:14:38Z</time>
      </trkpt>
      <trkpt lat="37.673135000" lon="-4.385312000">
        <ele>243.5</ele>
        <time>2020-10-13T13:14:40Z</time>
      </trkpt>
      <trkpt lat="37.673097000" lon="-4.385177000">
        <ele>243.6</ele>
        <time>2020-10-13T13:14:42Z</time>
      </trkpt>
      <trkpt lat="37.673056000" lon="-4.385050000">
        <ele>243.8</ele>
        <time>2020-10-13T13:14:44Z</time>
      </trkpt>
      <trkpt lat="37.673021000" lon="-4.384918000">
        <ele>244.0</ele>
        <time>2020-10-13T13:14:46Z</time>
      </trkpt>
      <trkpt lat="37.672992000" lon="-4.384796000">
        <ele>244.2</ele>
        <time>2020-10-13T13:14:48Z</time>
      </trkpt>
      <trkpt lat="37.672960000" lon="-4.384674000">
        <ele>244.3</ele>
        <time>2020-10-13T13:14:50Z</time>
      </trkpt>
      <trkpt lat="37.672927000" lon="-4.384545000">
        <ele>244.4</ele>
        <time>2020-10-13T13:14:52Z</time>
      </trkpt>
      <trkpt lat="37.672894000" lon="-4.384415000">
        <ele>244.5</ele>
        <time>2020-10-13T13:14:54Z</time>
      </trkpt>
      <trkpt lat="37.672856000" lon="-4.384290000">
        <ele>244.6</ele>
        <time>2020-10-13T13:14:56Z</time>
      </trkpt>
      <trkpt lat="37.672823000" lon="-4.384167000">
        <ele>244.7</ele>
        <time>2020-10-13T13:14:58Z</time>
      </trkpt>
      <trkpt lat="37.672790000" lon="-4.384042000">
        <ele>244.7</ele>
        <time>2020-10-13T13:15:00Z</time>
      </trkpt>
      <trkpt lat="37.672758000" lon="-4.383926000">
        <ele>244.7</ele>
        <time>2020-10-13T13:15:02Z</time>
      </trkpt>
      <trkpt lat="37.672736000" lon="-4.383812000">
        <ele>244.6</ele>
        <time>2020-10-13T13:15:04Z</time>
      </trkpt>
      <trkpt lat="37.672703000" lon="-4.383701000">
        <ele>244.5</ele>
        <time>2020-10-13T13:15:06Z</time>
      </trkpt>
      <trkpt lat="37.672667000" lon="-4.383585000">
        <ele>244.5</ele>
        <time>2020-10-13T13:15:08Z</time>
      </trkpt>
      <trkpt lat="37.672644000" lon="-4.383476000">
        <ele>244.5</ele>
        <time>2020-10-13T13:15:10Z</time>
      </trkpt>
      <trkpt lat="37.672611000" lon="-4.383371000">
        <ele>244.5</ele>
        <time>2020-10-13T13:15:12Z</time>
      </trkpt>
      <trkpt lat="37.672580000" lon="-4.383270000">
        <ele>244.6</ele>
        <time>2020-10-13T13:15:14Z</time>
      </trkpt>
      <trkpt lat="37.672548000" lon="-4.383174000">
        <ele>244.6</ele>
        <time>2020-10-13T13:15:16Z</time>
      </trkpt>
      <trkpt lat="37.672525000" lon="-4.383071000">
        <ele>244.6</ele>
        <time>2020-10-13T13:15:18Z</time>
      </trkpt>
      <trkpt lat="37.672501000" lon="-4.382965000">
        <ele>244.6</ele>
        <time>2020-10-13T13:15:20Z</time>
      </trkpt>
      <trkpt lat="37.672475000" lon="-4.382861000">
        <ele>244.6</ele>
        <time>2020-10-13T13:15:22Z</time>
      </trkpt>
      <trkpt lat="37.672448000" lon="-4.382757000">
        <ele>244.5</ele>
        <time>2020-10-13T13:15:24Z</time>
      </trkpt>
      <trkpt lat="37.672421000" lon="-4.382650000">
        <ele>244.5</ele>
        <time>2020-10-13T13:15:26Z</time>
      </trkpt>
      <trkpt lat="37.672390000" lon="-4.382542000">
        <ele>244.5</ele>
        <time>2020-10-13T13:15:28Z</time>
      </trkpt>
      <trkpt lat="37.672361000" lon="-4.382429000">
        <ele>244.5</ele>
        <time>2020-10-13T13:15:30Z</time>
      </trkpt>
      <trkpt lat="37.672330000" lon="-4.382323000">
        <ele>244.5</ele>
        <time>2020-10-13T13:15:32Z</time>
      </trkpt>
      <trkpt lat="37.672298000" lon="-4.382217000">
        <ele>244.5</ele>
        <time>2020-10-13T13:15:34Z</time>
      </trkpt>
      <trkpt lat="37.672272000" lon="-4.382100000">
        <ele>244.4</ele>
        <time>2020-10-13T13:15:36Z</time>
      </trkpt>
      <trkpt lat="37.672249000" lon="-4.381995000">
        <ele>244.3</ele>
        <time>2020-10-13T13:15:38Z</time>
      </trkpt>
      <trkpt lat="37.672229000" lon="-4.381891000">
        <ele>244.3</ele>
        <time>2020-10-13T13:15:40Z</time>
      </trkpt>
      <trkpt lat="37.672196000" lon="-4.381783000">
        <ele>244.3</ele>
        <time>2020-10-13T13:15:42Z</time>
      </trkpt>
      <trkpt lat="37.672171000" lon="-4.381673000">
        <ele>244.3</ele>
        <time>2020-10-13T13:15:44Z</time>
      </trkpt>
      <trkpt lat="37.672144000" lon="-4.381558000">
        <ele>244.4</ele>
        <time>2020-10-13T13:15:46Z</time>
      </trkpt>
      <trkpt lat="37.672122000" lon="-4.381458000">
        <ele>244.5</ele>
        <time>2020-10-13T13:15:48Z</time>
      </trkpt>
      <trkpt lat="37.672097000" lon="-4.381349000">
        <ele>244.5</ele>
        <time>2020-10-13T13:15:50Z</time>
      </trkpt>
      <trkpt lat="37.672068000" lon="-4.381241000">
        <ele>244.6</ele>
        <time>2020-10-13T13:15:52Z</time>
      </trkpt>
      <trkpt lat="37.672046000" lon="-4.381143000">
        <ele>244.7</ele>
        <time>2020-10-13T13:15:54Z</time>
      </trkpt>
      <trkpt lat="37.672013000" lon="-4.380993000">
        <ele>244.8</ele>
        <time>2020-10-13T13:15:57Z</time>
      </trkpt>
      <trkpt lat="37.671991000" lon="-4.380889000">
        <ele>244.9</ele>
        <time>2020-10-13T13:15:59Z</time>
      </trkpt>
      <trkpt lat="37.671970000" lon="-4.380788000">
        <ele>245.1</ele>
        <time>2020-10-13T13:16:01Z</time>
      </trkpt>
      <trkpt lat="37.671944000" lon="-4.380688000">
        <ele>245.2</ele>
        <time>2020-10-13T13:16:03Z</time>
      </trkpt>
      <trkpt lat="37.671919000" lon="-4.380587000">
        <ele>245.3</ele>
        <time>2020-10-13T13:16:05Z</time>
      </trkpt>
      <trkpt lat="37.671900000" lon="-4.380486000">
        <ele>245.4</ele>
        <time>2020-10-13T13:16:07Z</time>
      </trkpt>
      <trkpt lat="37.671869000" lon="-4.380339000">
        <ele>245.5</ele>
        <time>2020-10-13T13:16:10Z</time>
      </trkpt>
      <trkpt lat="37.671837000" lon="-4.380193000">
        <ele>245.5</ele>
        <time>2020-10-13T13:16:13Z</time>
      </trkpt>
      <trkpt lat="37.671820000" lon="-4.380092000">
        <ele>245.6</ele>
        <time>2020-10-13T13:16:15Z</time>
      </trkpt>
      <trkpt lat="37.671801000" lon="-4.379990000">
        <ele>245.7</ele>
        <time>2020-10-13T13:16:17Z</time>
      </trkpt>
      <trkpt lat="37.671777000" lon="-4.379891000">
        <ele>245.8</ele>
        <time>2020-10-13T13:16:19Z</time>
      </trkpt>
      <trkpt lat="37.671756000" lon="-4.379788000">
        <ele>245.9</ele>
        <time>2020-10-13T13:16:21Z</time>
      </trkpt>
      <trkpt lat="37.671734000" lon="-4.379687000">
        <ele>246.0</ele>
        <time>2020-10-13T13:16:23Z</time>
      </trkpt>
      <trkpt lat="37.671714000" lon="-4.379581000">
        <ele>246.0</ele>
        <time>2020-10-13T13:16:25Z</time>
      </trkpt>
      <trkpt lat="37.671690000" lon="-4.379474000">
        <ele>245.9</ele>
        <time>2020-10-13T13:16:27Z</time>
      </trkpt>
      <trkpt lat="37.671665000" lon="-4.379359000">
        <ele>245.8</ele>
        <time>2020-10-13T13:16:29Z</time>
      </trkpt>
      <trkpt lat="37.671649000" lon="-4.379248000">
        <ele>245.7</ele>
        <time>2020-10-13T13:16:31Z</time>
      </trkpt>
      <trkpt lat="37.671629000" lon="-4.379138000">
        <ele>245.6</ele>
        <time>2020-10-13T13:16:33Z</time>
      </trkpt>
      <trkpt lat="37.671607000" lon="-4.379023000">
        <ele>245.5</ele>
        <time>2020-10-13T13:16:35Z</time>
      </trkpt>
      <trkpt lat="37.671582000" lon="-4.378903000">
        <ele>245.5</ele>
        <time>2020-10-13T13:16:37Z</time>
      </trkpt>
      <trkpt lat="37.671555000" lon="-4.378784000">
        <ele>245.5</ele>
        <time>2020-10-13T13:16:39Z</time>
      </trkpt>
      <trkpt lat="37.671543000" lon="-4.378668000">
        <ele>245.5</ele>
        <time>2020-10-13T13:16:41Z</time>
      </trkpt>
      <trkpt lat="37.671516000" lon="-4.378552000">
        <ele>245.5</ele>
        <time>2020-10-13T13:16:43Z</time>
      </trkpt>
      <trkpt lat="37.671494000" lon="-4.378444000">
        <ele>245.7</ele>
        <time>2020-10-13T13:16:45Z</time>
      </trkpt>
      <trkpt lat="37.671466000" lon="-4.378331000">
        <ele>245.9</ele>
        <time>2020-10-13T13:16:47Z</time>
      </trkpt>
      <trkpt lat="37.671439000" lon="-4.378212000">
        <ele>246.2</ele>
        <time>2020-10-13T13:16:49Z</time>
      </trkpt>
      <trkpt lat="37.671414000" lon="-4.378097000">
        <ele>246.5</ele>
        <time>2020-10-13T13:16:51Z</time>
      </trkpt>
      <trkpt lat="37.671394000" lon="-4.377977000">
        <ele>246.7</ele>
        <time>2020-10-13T13:16:53Z</time>
      </trkpt>
      <trkpt lat="37.671372000" lon="-4.377873000">
        <ele>246.9</ele>
        <time>2020-10-13T13:16:55Z</time>
      </trkpt>
      <trkpt lat="37.671352000" lon="-4.377767000">
        <ele>247.1</ele>
        <time>2020-10-13T13:16:57Z</time>
      </trkpt>
      <trkpt lat="37.671330000" lon="-4.377661000">
        <ele>247.3</ele>
        <time>2020-10-13T13:16:59Z</time>
      </trkpt>
      <trkpt lat="37.671309000" lon="-4.377544000">
        <ele>247.4</ele>
        <time>2020-10-13T13:17:01Z</time>
      </trkpt>
      <trkpt lat="37.671286000" lon="-4.377431000">
        <ele>247.5</ele>
        <time>2020-10-13T13:17:03Z</time>
      </trkpt>
      <trkpt lat="37.671261000" lon="-4.377319000">
        <ele>247.5</ele>
        <time>2020-10-13T13:17:05Z</time>
      </trkpt>
      <trkpt lat="37.671243000" lon="-4.377212000">
        <ele>247.3</ele>
        <time>2020-10-13T13:17:07Z</time>
      </trkpt>
      <trkpt lat="37.671228000" lon="-4.377106000">
        <ele>247.1</ele>
        <time>2020-10-13T13:17:09Z</time>
      </trkpt>
      <trkpt lat="37.671216000" lon="-4.376992000">
        <ele>246.9</ele>
        <time>2020-10-13T13:17:11Z</time>
      </trkpt>
      <trkpt lat="37.671206000" lon="-4.376875000">
        <ele>246.7</ele>
        <time>2020-10-13T13:17:13Z</time>
      </trkpt>
      <trkpt lat="37.671203000" lon="-4.376771000">
        <ele>246.5</ele>
        <time>2020-10-13T13:17:15Z</time>
      </trkpt>
      <trkpt lat="37.671201000" lon="-4.376668000">
        <ele>246.5</ele>
        <time>2020-10-13T13:17:17Z</time>
      </trkpt>
      <trkpt lat="37.671198000" lon="-4.376564000">
        <ele>246.4</ele>
        <time>2020-10-13T13:17:19Z</time>
      </trkpt>
      <trkpt lat="37.671205000" lon="-4.376460000">
        <ele>246.4</ele>
        <time>2020-10-13T13:17:21Z</time>
      </trkpt>
      <trkpt lat="37.671225000" lon="-4.376354000">
        <ele>246.4</ele>
        <time>2020-10-13T13:17:23Z</time>
      </trkpt>
      <trkpt lat="37.671255000" lon="-4.376251000">
        <ele>246.4</ele>
        <time>2020-10-13T13:17:25Z</time>
      </trkpt>
      <trkpt lat="37.671291000" lon="-4.376149000">
        <ele>246.5</ele>
        <time>2020-10-13T13:17:27Z</time>
      </trkpt>
      <trkpt lat="37.671332000" lon="-4.376045000">
        <ele>246.5</ele>
        <time>2020-10-13T13:17:29Z</time>
      </trkpt>
      <trkpt lat="37.671377000" lon="-4.375940000">
        <ele>246.6</ele>
        <time>2020-10-13T13:17:31Z</time>
      </trkpt>
      <trkpt lat="37.671420000" lon="-4.375835000">
        <ele>246.7</ele>
        <time>2020-10-13T13:17:33Z</time>
      </trkpt>
      <trkpt lat="37.671468000" lon="-4.375725000">
        <ele>246.8</ele>
        <time>2020-10-13T13:17:35Z</time>
      </trkpt>
      <trkpt lat="37.671516000" lon="-4.375617000">
        <ele>246.9</ele>
        <time>2020-10-13T13:17:37Z</time>
      </trkpt>
      <trkpt lat="37.671567000" lon="-4.375509000">
        <ele>247.1</ele>
        <time>2020-10-13T13:17:39Z</time>
      </trkpt>
      <trkpt lat="37.671612000" lon="-4.375391000">
        <ele>247.3</ele>
        <time>2020-10-13T13:17:41Z</time>
      </trkpt>
      <trkpt lat="37.671658000" lon="-4.375280000">
        <ele>247.4</ele>
        <time>2020-10-13T13:17:43Z</time>
      </trkpt>
      <trkpt lat="37.671710000" lon="-4.375169000">
        <ele>247.5</ele>
        <time>2020-10-13T13:17:45Z</time>
      </trkpt>
      <trkpt lat="37.671750000" lon="-4.375060000">
        <ele>247.6</ele>
        <time>2020-10-13T13:17:47Z</time>
      </trkpt>
      <trkpt lat="37.671791000" lon="-4.374963000">
        <ele>247.7</ele>
        <time>2020-10-13T13:17:49Z</time>
      </trkpt>
      <trkpt lat="37.671834000" lon="-4.374865000">
        <ele>247.9</ele>
        <time>2020-10-13T13:17:51Z</time>
      </trkpt>
      <trkpt lat="37.671866000" lon="-4.374766000">
        <ele>248.2</ele>
        <time>2020-10-13T13:17:53Z</time>
      </trkpt>
      <trkpt lat="37.671909000" lon="-4.374669000">
        <ele>248.5</ele>
        <time>2020-10-13T13:17:55Z</time>
      </trkpt>
      <trkpt lat="37.671938000" lon="-4.374571000">
        <ele>248.7</ele>
        <time>2020-10-13T13:17:57Z</time>
      </trkpt>
      <trkpt lat="37.671981000" lon="-4.374427000">
        <ele>249.0</ele>
        <time>2020-10-13T13:18:00Z</time>
      </trkpt>
      <trkpt lat="37.672013000" lon="-4.374326000">
        <ele>249.2</ele>
        <time>2020-10-13T13:18:02Z</time>
      </trkpt>
      <trkpt lat="37.672039000" lon="-4.374225000">
        <ele>249.4</ele>
        <time>2020-10-13T13:18:04Z</time>
      </trkpt>
      <trkpt lat="37.672066000" lon="-4.374122000">
        <ele>249.5</ele>
        <time>2020-10-13T13:18:06Z</time>
      </trkpt>
      <trkpt lat="37.672091000" lon="-4.374016000">
        <ele>249.7</ele>
        <time>2020-10-13T13:18:08Z</time>
      </trkpt>
      <trkpt lat="37.672113000" lon="-4.373911000">
        <ele>249.8</ele>
        <time>2020-10-13T13:18:10Z</time>
      </trkpt>
      <trkpt lat="37.672149000" lon="-4.373770000">
        <ele>249.9</ele>
        <time>2020-10-13T13:18:13Z</time>
      </trkpt>
      <trkpt lat="37.672181000" lon="-4.373625000">
        <ele>250.1</ele>
        <time>2020-10-13T13:18:16Z</time>
      </trkpt>
      <trkpt lat="37.672198000" lon="-4.373522000">
        <ele>250.2</ele>
        <time>2020-10-13T13:18:18Z</time>
      </trkpt>
      <trkpt lat="37.672216000" lon="-4.373418000">
        <ele>250.3</ele>
        <time>2020-10-13T13:18:20Z</time>
      </trkpt>
      <trkpt lat="37.672245000" lon="-4.373317000">
        <ele>250.4</ele>
        <time>2020-10-13T13:18:22Z</time>
      </trkpt>
      <trkpt lat="37.672274000" lon="-4.373213000">
        <ele>250.5</ele>
        <time>2020-10-13T13:18:24Z</time>
      </trkpt>
      <trkpt lat="37.672300000" lon="-4.373104000">
        <ele>250.6</ele>
        <time>2020-10-13T13:18:26Z</time>
      </trkpt>
      <trkpt lat="37.672333000" lon="-4.372997000">
        <ele>250.7</ele>
        <time>2020-10-13T13:18:28Z</time>
      </trkpt>
      <trkpt lat="37.672364000" lon="-4.372876000">
        <ele>250.8</ele>
        <time>2020-10-13T13:18:30Z</time>
      </trkpt>
      <trkpt lat="37.672402000" lon="-4.372758000">
        <ele>250.8</ele>
        <time>2020-10-13T13:18:32Z</time>
      </trkpt>
      <trkpt lat="37.672436000" lon="-4.372638000">
        <ele>250.8</ele>
        <time>2020-10-13T13:18:34Z</time>
      </trkpt>
      <trkpt lat="37.672474000" lon="-4.372510000">
        <ele>250.7</ele>
        <time>2020-10-13T13:18:36Z</time>
      </trkpt>
      <trkpt lat="37.672514000" lon="-4.372379000">
        <ele>250.5</ele>
        <time>2020-10-13T13:18:38Z</time>
      </trkpt>
      <trkpt lat="37.672551000" lon="-4.372245000">
        <ele>250.4</ele>
        <time>2020-10-13T13:18:40Z</time>
      </trkpt>
      <trkpt lat="37.672597000" lon="-4.372112000">
        <ele>250.2</ele>
        <time>2020-10-13T13:18:42Z</time>
      </trkpt>
      <trkpt lat="37.672633000" lon="-4.371971000">
        <ele>250.0</ele>
        <time>2020-10-13T13:18:44Z</time>
      </trkpt>
      <trkpt lat="37.672669000" lon="-4.371834000">
        <ele>249.9</ele>
        <time>2020-10-13T13:18:46Z</time>
      </trkpt>
      <trkpt lat="37.672709000" lon="-4.371704000">
        <ele>249.7</ele>
        <time>2020-10-13T13:18:48Z</time>
      </trkpt>
      <trkpt lat="37.672749000" lon="-4.371570000">
        <ele>249.6</ele>
        <time>2020-10-13T13:18:50Z</time>
      </trkpt>
      <trkpt lat="37.672780000" lon="-4.371429000">
        <ele>249.5</ele>
        <time>2020-10-13T13:18:52Z</time>
      </trkpt>
      <trkpt lat="37.672819000" lon="-4.371288000">
        <ele>249.3</ele>
        <time>2020-10-13T13:18:54Z</time>
      </trkpt>
      <trkpt lat="37.672852000" lon="-4.371142000">
        <ele>249.0</ele>
        <time>2020-10-13T13:18:56Z</time>
      </trkpt>
      <trkpt lat="37.672885000" lon="-4.370994000">
        <ele>248.7</ele>
        <time>2020-10-13T13:18:58Z</time>
      </trkpt>
      <trkpt lat="37.672916000" lon="-4.370845000">
        <ele>248.5</ele>
        <time>2020-10-13T13:19:00Z</time>
      </trkpt>
      <trkpt lat="37.672942000" lon="-4.370688000">
        <ele>248.2</ele>
        <time>2020-10-13T13:19:02Z</time>
      </trkpt>
      <trkpt lat="37.672966000" lon="-4.370532000">
        <ele>247.8</ele>
        <time>2020-10-13T13:19:04Z</time>
      </trkpt>
      <trkpt lat="37.672993000" lon="-4.370369000">
        <ele>247.5</ele>
        <time>2020-10-13T13:19:06Z</time>
      </trkpt>
      <trkpt lat="37.673022000" lon="-4.370219000">
        <ele>247.0</ele>
        <time>2020-10-13T13:19:08Z</time>
      </trkpt>
      <trkpt lat="37.673041000" lon="-4.370068000">
        <ele>246.5</ele>
        <time>2020-10-13T13:19:10Z</time>
      </trkpt>
      <trkpt lat="37.673057000" lon="-4.369922000">
        <ele>246.1</ele>
        <time>2020-10-13T13:19:12Z</time>
      </trkpt>
      <trkpt lat="37.673078000" lon="-4.369766000">
        <ele>245.7</ele>
        <time>2020-10-13T13:19:14Z</time>
      </trkpt>
      <trkpt lat="37.673105000" lon="-4.369618000">
        <ele>245.5</ele>
        <time>2020-10-13T13:19:16Z</time>
      </trkpt>
      <trkpt lat="37.673123000" lon="-4.369470000">
        <ele>245.4</ele>
        <time>2020-10-13T13:19:18Z</time>
      </trkpt>
      <trkpt lat="37.673146000" lon="-4.369319000">
        <ele>245.3</ele>
        <time>2020-10-13T13:19:20Z</time>
      </trkpt>
      <trkpt lat="37.673165000" lon="-4.369176000">
        <ele>245.2</ele>
        <time>2020-10-13T13:19:22Z</time>
      </trkpt>
      <trkpt lat="37.673181000" lon="-4.369029000">
        <ele>245.1</ele>
        <time>2020-10-13T13:19:24Z</time>
      </trkpt>
      <trkpt lat="37.673198000" lon="-4.368882000">
        <ele>245.2</ele>
        <time>2020-10-13T13:19:26Z</time>
      </trkpt>
      <trkpt lat="37.673220000" lon="-4.368737000">
        <ele>245.3</ele>
        <time>2020-10-13T13:19:28Z</time>
      </trkpt>
      <trkpt lat="37.673238000" lon="-4.368586000">
        <ele>245.4</ele>
        <time>2020-10-13T13:19:30Z</time>
      </trkpt>
      <trkpt lat="37.673247000" lon="-4.368441000">
        <ele>245.5</ele>
        <time>2020-10-13T13:19:32Z</time>
      </trkpt>
      <trkpt lat="37.673256000" lon="-4.368302000">
        <ele>245.5</ele>
        <time>2020-10-13T13:19:34Z</time>
      </trkpt>
      <trkpt lat="37.673263000" lon="-4.368158000">
        <ele>245.7</ele>
        <time>2020-10-13T13:19:36Z</time>
      </trkpt>
      <trkpt lat="37.673265000" lon="-4.368016000">
        <ele>245.8</ele>
        <time>2020-10-13T13:19:38Z</time>
      </trkpt>
      <trkpt lat="37.673269000" lon="-4.367885000">
        <ele>246.0</ele>
        <time>2020-10-13T13:19:40Z</time>
      </trkpt>
      <trkpt lat="37.673272000" lon="-4.367750000">
        <ele>246.2</ele>
        <time>2020-10-13T13:19:42Z</time>
      </trkpt>
      <trkpt lat="37.673275000" lon="-4.367623000">
        <ele>246.4</ele>
        <time>2020-10-13T13:19:44Z</time>
      </trkpt>
      <trkpt lat="37.673278000" lon="-4.367491000">
        <ele>246.5</ele>
        <time>2020-10-13T13:19:46Z</time>
      </trkpt>
      <trkpt lat="37.673280000" lon="-4.367363000">
        <ele>246.6</ele>
        <time>2020-10-13T13:19:48Z</time>
      </trkpt>
      <trkpt lat="37.673287000" lon="-4.367232000">
        <ele>246.7</ele>
        <time>2020-10-13T13:19:50Z</time>
      </trkpt>
      <trkpt lat="37.673294000" lon="-4.367102000">
        <ele>246.9</ele>
        <time>2020-10-13T13:19:52Z</time>
      </trkpt>
      <trkpt lat="37.673305000" lon="-4.366971000">
        <ele>247.1</ele>
        <time>2020-10-13T13:19:54Z</time>
      </trkpt>
      <trkpt lat="37.673309000" lon="-4.366842000">
        <ele>247.3</ele>
        <time>2020-10-13T13:19:56Z</time>
      </trkpt>
      <trkpt lat="37.673312000" lon="-4.366719000">
        <ele>247.4</ele>
        <time>2020-10-13T13:19:58Z</time>
      </trkpt>
      <trkpt lat="37.673317000" lon="-4.366589000">
        <ele>247.5</ele>
        <time>2020-10-13T13:20:00Z</time>
      </trkpt>
      <trkpt lat="37.673326000" lon="-4.366464000">
        <ele>247.5</ele>
        <time>2020-10-13T13:20:02Z</time>
      </trkpt>
      <trkpt lat="37.673335000" lon="-4.366344000">
        <ele>247.6</ele>
        <time>2020-10-13T13:20:04Z</time>
      </trkpt>
      <trkpt lat="37.673337000" lon="-4.366226000">
        <ele>247.7</ele>
        <time>2020-10-13T13:20:06Z</time>
      </trkpt>
      <trkpt lat="37.673341000" lon="-4.366108000">
        <ele>247.8</ele>
        <time>2020-10-13T13:20:08Z</time>
      </trkpt>
      <trkpt lat="37.673340000" lon="-4.365993000">
        <ele>248.0</ele>
        <time>2020-10-13T13:20:10Z</time>
      </trkpt>
      <trkpt lat="37.673348000" lon="-4.365880000">
        <ele>248.2</ele>
        <time>2020-10-13T13:20:12Z</time>
      </trkpt>
      <trkpt lat="37.673354000" lon="-4.365775000">
        <ele>248.3</ele>
        <time>2020-10-13T13:20:14Z</time>
      </trkpt>
      <trkpt lat="37.673370000" lon="-4.365671000">
        <ele>248.4</ele>
        <time>2020-10-13T13:20:16Z</time>
      </trkpt>
      <trkpt lat="37.673392000" lon="-4.365559000">
        <ele>248.5</ele>
        <time>2020-10-13T13:20:18Z</time>
      </trkpt>
      <trkpt lat="37.673416000" lon="-4.365445000">
        <ele>248.5</ele>
        <time>2020-10-13T13:20:20Z</time>
      </trkpt>
      <trkpt lat="37.673438000" lon="-4.365326000">
        <ele>248.7</ele>
        <time>2020-10-13T13:20:22Z</time>
      </trkpt>
      <trkpt lat="37.673465000" lon="-4.365210000">
        <ele>248.9</ele>
        <time>2020-10-13T13:20:24Z</time>
      </trkpt>
      <trkpt lat="37.673486000" lon="-4.365098000">
        <ele>249.0</ele>
        <time>2020-10-13T13:20:26Z</time>
      </trkpt>
      <trkpt lat="37.673507000" lon="-4.364990000">
        <ele>249.1</ele>
        <time>2020-10-13T13:20:28Z</time>
      </trkpt>
      <trkpt lat="37.673529000" lon="-4.364882000">
        <ele>249.2</ele>
        <time>2020-10-13T13:20:30Z</time>
      </trkpt>
      <trkpt lat="37.673549000" lon="-4.364776000">
        <ele>249.1</ele>
        <time>2020-10-13T13:20:32Z</time>
      </trkpt>
      <trkpt lat="37.673567000" lon="-4.364672000">
        <ele>249.0</ele>
        <time>2020-10-13T13:20:34Z</time>
      </trkpt>
      <trkpt lat="37.673598000" lon="-4.364522000">
        <ele>248.9</ele>
        <time>2020-10-13T13:20:37Z</time>
      </trkpt>
      <trkpt lat="37.673618000" lon="-4.364416000">
        <ele>248.8</ele>
        <time>2020-10-13T13:20:39Z</time>
      </trkpt>
      <trkpt lat="37.673636000" lon="-4.364312000">
        <ele>248.7</ele>
        <time>2020-10-13T13:20:41Z</time>
      </trkpt>
      <trkpt lat="37.673655000" lon="-4.364208000">
        <ele>248.7</ele>
        <time>2020-10-13T13:20:43Z</time>
      </trkpt>
      <trkpt lat="37.673674000" lon="-4.364101000">
        <ele>248.6</ele>
        <time>2020-10-13T13:20:45Z</time>
      </trkpt>
      <trkpt lat="37.673698000" lon="-4.363994000">
        <ele>248.6</ele>
        <time>2020-10-13T13:20:47Z</time>
      </trkpt>
      <trkpt lat="37.673720000" lon="-4.363886000">
        <ele>248.8</ele>
        <time>2020-10-13T13:20:49Z</time>
      </trkpt>
      <trkpt lat="37.673744000" lon="-4.363778000">
        <ele>249.0</ele>
        <time>2020-10-13T13:20:51Z</time>
      </trkpt>
      <trkpt lat="37.673771000" lon="-4.363675000">
        <ele>249.2</ele>
        <time>2020-10-13T13:20:53Z</time>
      </trkpt>
      <trkpt lat="37.673798000" lon="-4.363568000">
        <ele>249.5</ele>
        <time>2020-10-13T13:20:55Z</time>
      </trkpt>
      <trkpt lat="37.673829000" lon="-4.363458000">
        <ele>249.7</ele>
        <time>2020-10-13T13:20:57Z</time>
      </trkpt>
      <trkpt lat="37.673861000" lon="-4.363355000">
        <ele>250.0</ele>
        <time>2020-10-13T13:20:59Z</time>
      </trkpt>
      <trkpt lat="37.673892000" lon="-4.363236000">
        <ele>250.3</ele>
        <time>2020-10-13T13:21:01Z</time>
      </trkpt>
      <trkpt lat="37.673929000" lon="-4.363119000">
        <ele>250.5</ele>
        <time>2020-10-13T13:21:03Z</time>
      </trkpt>
      <trkpt lat="37.673965000" lon="-4.363006000">
        <ele>250.5</ele>
        <time>2020-10-13T13:21:05Z</time>
      </trkpt>
      <trkpt lat="37.674002000" lon="-4.362901000">
        <ele>250.6</ele>
        <time>2020-10-13T13:21:07Z</time>
      </trkpt>
      <trkpt lat="37.674037000" lon="-4.362805000">
        <ele>250.7</ele>
        <time>2020-10-13T13:21:09Z</time>
      </trkpt>
      <trkpt lat="37.674076000" lon="-4.362702000">
        <ele>250.8</ele>
        <time>2020-10-13T13:21:11Z</time>
      </trkpt>
      <trkpt lat="37.674115000" lon="-4.362591000">
        <ele>251.0</ele>
        <time>2020-10-13T13:21:13Z</time>
      </trkpt>
      <trkpt lat="37.674144000" lon="-4.362489000">
        <ele>251.3</ele>
        <time>2020-10-13T13:21:15Z</time>
      </trkpt>
      <trkpt lat="37.674178000" lon="-4.362394000">
        <ele>251.5</ele>
        <time>2020-10-13T13:21:17Z</time>
      </trkpt>
      <trkpt lat="37.674219000" lon="-4.362257000">
        <ele>251.8</ele>
        <time>2020-10-13T13:21:20Z</time>
      </trkpt>
      <trkpt lat="37.674245000" lon="-4.362117000">
        <ele>252.0</ele>
        <time>2020-10-13T13:21:23Z</time>
      </trkpt>
      <trkpt lat="37.674273000" lon="-4.361984000">
        <ele>252.2</ele>
        <time>2020-10-13T13:21:26Z</time>
      </trkpt>
      <trkpt lat="37.674298000" lon="-4.361856000">
        <ele>252.5</ele>
        <time>2020-10-13T13:21:29Z</time>
      </trkpt>
      <trkpt lat="37.674325000" lon="-4.361721000">
        <ele>252.7</ele>
        <time>2020-10-13T13:21:32Z</time>
      </trkpt>
      <trkpt lat="37.674340000" lon="-4.361619000">
        <ele>253.0</ele>
        <time>2020-10-13T13:21:34Z</time>
      </trkpt>
      <trkpt lat="37.674350000" lon="-4.361486000">
        <ele>253.1</ele>
        <time>2020-10-13T13:21:36Z</time>
      </trkpt>
      <trkpt lat="37.674370000" lon="-4.361341000">
        <ele>253.2</ele>
        <time>2020-10-13T13:21:38Z</time>
      </trkpt>
      <trkpt lat="37.674380000" lon="-4.361175000">
        <ele>253.3</ele>
        <time>2020-10-13T13:21:40Z</time>
      </trkpt>
      <trkpt lat="37.674375000" lon="-4.360997000">
        <ele>253.3</ele>
        <time>2020-10-13T13:21:42Z</time>
      </trkpt>
      <trkpt lat="37.674368000" lon="-4.360812000">
        <ele>253.3</ele>
        <time>2020-10-13T13:21:44Z</time>
      </trkpt>
      <trkpt lat="37.674355000" lon="-4.360629000">
        <ele>253.3</ele>
        <time>2020-10-13T13:21:46Z</time>
      </trkpt>
      <trkpt lat="37.674348000" lon="-4.360446000">
        <ele>253.3</ele>
        <time>2020-10-13T13:21:48Z</time>
      </trkpt>
      <trkpt lat="37.674340000" lon="-4.360265000">
        <ele>253.2</ele>
        <time>2020-10-13T13:21:50Z</time>
      </trkpt>
      <trkpt lat="37.674327000" lon="-4.360095000">
        <ele>253.0</ele>
        <time>2020-10-13T13:21:52Z</time>
      </trkpt>
      <trkpt lat="37.674308000" lon="-4.359933000">
        <ele>252.7</ele>
        <time>2020-10-13T13:21:54Z</time>
      </trkpt>
      <trkpt lat="37.674288000" lon="-4.359776000">
        <ele>252.5</ele>
        <time>2020-10-13T13:21:56Z</time>
      </trkpt>
      <trkpt lat="37.674272000" lon="-4.359623000">
        <ele>252.2</ele>
        <time>2020-10-13T13:21:58Z</time>
      </trkpt>
      <trkpt lat="37.674252000" lon="-4.359469000">
        <ele>251.8</ele>
        <time>2020-10-13T13:22:00Z</time>
      </trkpt>
      <trkpt lat="37.674235000" lon="-4.359317000">
        <ele>251.4</ele>
        <time>2020-10-13T13:22:02Z</time>
      </trkpt>
      <trkpt lat="37.674212000" lon="-4.359166000">
        <ele>250.9</ele>
        <time>2020-10-13T13:22:04Z</time>
      </trkpt>
      <trkpt lat="37.674191000" lon="-4.359011000">
        <ele>250.5</ele>
        <time>2020-10-13T13:22:06Z</time>
      </trkpt>
      <trkpt lat="37.674167000" lon="-4.358861000">
        <ele>250.0</ele>
        <time>2020-10-13T13:22:08Z</time>
      </trkpt>
      <trkpt lat="37.674138000" lon="-4.358721000">
        <ele>249.6</ele>
        <time>2020-10-13T13:22:10Z</time>
      </trkpt>
      <trkpt lat="37.674102000" lon="-4.358587000">
        <ele>249.5</ele>
        <time>2020-10-13T13:22:12Z</time>
      </trkpt>
      <trkpt lat="37.674070000" lon="-4.358456000">
        <ele>249.4</ele>
        <time>2020-10-13T13:22:14Z</time>
      </trkpt>
      <trkpt lat="37.674044000" lon="-4.358326000">
        <ele>249.4</ele>
        <time>2020-10-13T13:22:16Z</time>
      </trkpt>
      <trkpt lat="37.674008000" lon="-4.358200000">
        <ele>249.4</ele>
        <time>2020-10-13T13:22:18Z</time>
      </trkpt>
      <trkpt lat="37.673983000" lon="-4.358075000">
        <ele>249.5</ele>
        <time>2020-10-13T13:22:20Z</time>
      </trkpt>
      <trkpt lat="37.673957000" lon="-4.357960000">
        <ele>249.6</ele>
        <time>2020-10-13T13:22:22Z</time>
      </trkpt>
      <trkpt lat="37.673935000" lon="-4.357848000">
        <ele>249.7</ele>
        <time>2020-10-13T13:22:24Z</time>
      </trkpt>
      <trkpt lat="37.673915000" lon="-4.357744000">
        <ele>249.8</ele>
        <time>2020-10-13T13:22:26Z</time>
      </trkpt>
      <trkpt lat="37.673894000" lon="-4.357643000">
        <ele>249.9</ele>
        <time>2020-10-13T13:22:28Z</time>
      </trkpt>
      <trkpt lat="37.673872000" lon="-4.357502000">
        <ele>250.1</ele>
        <time>2020-10-13T13:22:31Z</time>
      </trkpt>
      <trkpt lat="37.673854000" lon="-4.357379000">
        <ele>250.3</ele>
        <time>2020-10-13T13:22:34Z</time>
      </trkpt>
      <trkpt lat="37.673852000" lon="-4.357263000">
        <ele>250.3</ele>
        <time>2020-10-13T13:22:37Z</time>
      </trkpt>
      <trkpt lat="37.673834000" lon="-4.357131000">
        <ele>250.2</ele>
        <time>2020-10-13T13:22:41Z</time>
      </trkpt>
      <trkpt lat="37.673830000" lon="-4.357008000">
        <ele>250.1</ele>
        <time>2020-10-13T13:22:45Z</time>
      </trkpt>
      <trkpt lat="37.673806000" lon="-4.356903000">
        <ele>249.9</ele>
        <time>2020-10-13T13:23:31Z</time>
      </trkpt>
      <trkpt lat="37.673740000" lon="-4.356834000">
        <ele>249.6</ele>
        <time>2020-10-13T13:23:45Z</time>
      </trkpt>
      <trkpt lat="37.673659000" lon="-4.356789000">
        <ele>249.4</ele>
        <time>2020-10-13T13:23:48Z</time>
      </trkpt>
      <trkpt lat="37.673570000" lon="-4.356722000">
        <ele>249.1</ele>
        <time>2020-10-13T13:23:51Z</time>
      </trkpt>
      <trkpt lat="37.673472000" lon="-4.356654000">
        <ele>248.8</ele>
        <time>2020-10-13T13:23:54Z</time>
      </trkpt>
      <trkpt lat="37.673371000" lon="-4.356585000">
        <ele>248.5</ele>
        <time>2020-10-13T13:23:57Z</time>
      </trkpt>
      <trkpt lat="37.673265000" lon="-4.356518000">
        <ele>248.2</ele>
        <time>2020-10-13T13:24:00Z</time>
      </trkpt>
      <trkpt lat="37.673191000" lon="-4.356472000">
        <ele>247.8</ele>
        <time>2020-10-13T13:24:02Z</time>
      </trkpt>
      <trkpt lat="37.673117000" lon="-4.356425000">
        <ele>247.5</ele>
        <time>2020-10-13T13:24:04Z</time>
      </trkpt>
      <trkpt lat="37.673043000" lon="-4.356378000">
        <ele>247.4</ele>
        <time>2020-10-13T13:24:06Z</time>
      </trkpt>
      <trkpt lat="37.672969000" lon="-4.356330000">
        <ele>247.2</ele>
        <time>2020-10-13T13:24:08Z</time>
      </trkpt>
      <trkpt lat="37.672893000" lon="-4.356281000">
        <ele>247.1</ele>
        <time>2020-10-13T13:24:10Z</time>
      </trkpt>
      <trkpt lat="37.672814000" lon="-4.356230000">
        <ele>247.0</ele>
        <time>2020-10-13T13:24:12Z</time>
      </trkpt>
      <trkpt lat="37.672729000" lon="-4.356185000">
        <ele>247.1</ele>
        <time>2020-10-13T13:24:14Z</time>
      </trkpt>
      <trkpt lat="37.672646000" lon="-4.356136000">
        <ele>247.2</ele>
        <time>2020-10-13T13:24:16Z</time>
      </trkpt>
      <trkpt lat="37.672560000" lon="-4.356080000">
        <ele>247.3</ele>
        <time>2020-10-13T13:24:18Z</time>
      </trkpt>
      <trkpt lat="37.672478000" lon="-4.356024000">
        <ele>247.4</ele>
        <time>2020-10-13T13:24:20Z</time>
      </trkpt>
      <trkpt lat="37.672394000" lon="-4.355970000">
        <ele>247.4</ele>
        <time>2020-10-13T13:24:22Z</time>
      </trkpt>
      <trkpt lat="37.672307000" lon="-4.355915000">
        <ele>247.4</ele>
        <time>2020-10-13T13:24:24Z</time>
      </trkpt>
      <trkpt lat="37.672221000" lon="-4.355862000">
        <ele>247.5</ele>
        <time>2020-10-13T13:24:26Z</time>
      </trkpt>
      <trkpt lat="37.672141000" lon="-4.355808000">
        <ele>247.6</ele>
        <time>2020-10-13T13:24:28Z</time>
      </trkpt>
      <trkpt lat="37.672141000" lon="-4.355808000">
        <ele>247.7</ele>
        <time>2020-10-13T13:24:28Z</time>
      </trkpt>
      <trkpt lat="37.651233000" lon="-4.354344000">
        <ele>364.0</ele>
        <time>2020-10-13T13:41:39Z</time>
      </trkpt>
      <trkpt lat="37.651134000" lon="-4.354369000">
        <ele>364.1</ele>
        <time>2020-10-13T13:41:51Z</time>
      </trkpt>
      <trkpt lat="37.651037000" lon="-4.354415000">
        <ele>364.2</ele>
        <time>2020-10-13T13:41:55Z</time>
      </trkpt>
      <trkpt lat="37.650958000" lon="-4.354449000">
        <ele>364.4</ele>
        <time>2020-10-13T13:41:58Z</time>
      </trkpt>
      <trkpt lat="37.650879000" lon="-4.354477000">
        <ele>364.6</ele>
        <time>2020-10-13T13:42:01Z</time>
      </trkpt>
      <trkpt lat="37.650798000" lon="-4.354523000">
        <ele>364.7</ele>
        <time>2020-10-13T13:42:04Z</time>
      </trkpt>
      <trkpt lat="37.650711000" lon="-4.354563000">
        <ele>365.0</ele>
        <time>2020-10-13T13:42:07Z</time>
      </trkpt>
      <trkpt lat="37.650626000" lon="-4.354605000">
        <ele>365.3</ele>
        <time>2020-10-13T13:42:10Z</time>
      </trkpt>
      <trkpt lat="37.650539000" lon="-4.354644000">
        <ele>365.6</ele>
        <time>2020-10-13T13:42:13Z</time>
      </trkpt>
      <trkpt lat="37.650455000" lon="-4.354679000">
        <ele>366.0</ele>
        <time>2020-10-13T13:42:16Z</time>
      </trkpt>
      <trkpt lat="37.650376000" lon="-4.354713000">
        <ele>366.5</ele>
        <time>2020-10-13T13:42:20Z</time>
      </trkpt>
      <trkpt lat="37.650300000" lon="-4.354760000">
        <ele>366.9</ele>
        <time>2020-10-13T13:42:22Z</time>
      </trkpt>
      <trkpt lat="37.650213000" lon="-4.354804000">
        <ele>367.4</ele>
        <time>2020-10-13T13:42:25Z</time>
      </trkpt>
      <trkpt lat="37.650124000" lon="-4.354851000">
        <ele>367.9</ele>
        <time>2020-10-13T13:42:28Z</time>
      </trkpt>
      <trkpt lat="37.650031000" lon="-4.354885000">
        <ele>368.5</ele>
        <time>2020-10-13T13:42:31Z</time>
      </trkpt>
      <trkpt lat="37.649943000" lon="-4.354896000">
        <ele>369.0</ele>
        <time>2020-10-13T13:42:34Z</time>
      </trkpt>
      <trkpt lat="37.649855000" lon="-4.354897000">
        <ele>369.6</ele>
        <time>2020-10-13T13:42:37Z</time>
      </trkpt>
      <trkpt lat="37.649769000" lon="-4.354893000">
        <ele>370.2</ele>
        <time>2020-10-13T13:42:40Z</time>
      </trkpt>
      <trkpt lat="37.649690000" lon="-4.354868000">
        <ele>370.6</ele>
        <time>2020-10-13T13:42:43Z</time>
      </trkpt>
      <trkpt lat="37.649588000" lon="-4.354844000">
        <ele>371.0</ele>
        <time>2020-10-13T13:42:47Z</time>
      </trkpt>
      <trkpt lat="37.649488000" lon="-4.354823000">
        <ele>371.3</ele>
        <time>2020-10-13T13:42:51Z</time>
      </trkpt>
      <trkpt lat="37.649392000" lon="-4.354807000">
        <ele>371.5</ele>
        <time>2020-10-13T13:42:55Z</time>
      </trkpt>
      <trkpt lat="37.649308000" lon="-4.354795000">
        <ele>371.5</ele>
        <time>2020-10-13T13:42:58Z</time>
      </trkpt>
      <trkpt lat="37.649210000" lon="-4.354780000">
        <ele>371.6</ele>
        <time>2020-10-13T13:43:01Z</time>
      </trkpt>
      <trkpt lat="37.649098000" lon="-4.354761000">
        <ele>371.6</ele>
        <time>2020-10-13T13:43:04Z</time>
      </trkpt>
      <trkpt lat="37.648979000" lon="-4.354742000">
        <ele>371.5</ele>
        <time>2020-10-13T13:43:07Z</time>
      </trkpt>
      <trkpt lat="37.648898000" lon="-4.354727000">
        <ele>371.5</ele>
        <time>2020-10-13T13:43:09Z</time>
      </trkpt>
      <trkpt lat="37.648815000" lon="-4.354709000">
        <ele>371.2</ele>
        <time>2020-10-13T13:43:11Z</time>
      </trkpt>
      <trkpt lat="37.648730000" lon="-4.354693000">
        <ele>371.1</ele>
        <time>2020-10-13T13:43:13Z</time>
      </trkpt>
      <trkpt lat="37.648642000" lon="-4.354672000">
        <ele>371.0</ele>
        <time>2020-10-13T13:43:15Z</time>
      </trkpt>
      <trkpt lat="37.648554000" lon="-4.354654000">
        <ele>370.9</ele>
        <time>2020-10-13T13:43:17Z</time>
      </trkpt>
      <trkpt lat="37.648462000" lon="-4.354625000">
        <ele>370.9</ele>
        <time>2020-10-13T13:43:19Z</time>
      </trkpt>
      <trkpt lat="37.648372000" lon="-4.354598000">
        <ele>370.9</ele>
        <time>2020-10-13T13:43:21Z</time>
      </trkpt>
      <trkpt lat="37.648283000" lon="-4.354569000">
        <ele>370.8</ele>
        <time>2020-10-13T13:43:23Z</time>
      </trkpt>
      <trkpt lat="37.648194000" lon="-4.354534000">
        <ele>370.5</ele>
        <time>2020-10-13T13:43:25Z</time>
      </trkpt>
      <trkpt lat="37.648113000" lon="-4.354501000">
        <ele>370.1</ele>
        <time>2020-10-13T13:43:27Z</time>
      </trkpt>
      <trkpt lat="37.648023000" lon="-4.354465000">
        <ele>369.5</ele>
        <time>2020-10-13T13:43:29Z</time>
      </trkpt>
      <trkpt lat="37.647914000" lon="-4.354410000">
        <ele>368.9</ele>
        <time>2020-10-13T13:43:31Z</time>
      </trkpt>
      <trkpt lat="37.647793000" lon="-4.354356000">
        <ele>368.3</ele>
        <time>2020-10-13T13:43:33Z</time>
      </trkpt>
      <trkpt lat="37.647659000" lon="-4.354293000">
        <ele>367.5</ele>
        <time>2020-10-13T13:43:35Z</time>
      </trkpt>
      <trkpt lat="37.647522000" lon="-4.354228000">
        <ele>366.6</ele>
        <time>2020-10-13T13:43:37Z</time>
      </trkpt>
      <trkpt lat="37.647393000" lon="-4.354142000">
        <ele>365.6</ele>
        <time>2020-10-13T13:43:39Z</time>
      </trkpt>
      <trkpt lat="37.647258000" lon="-4.354021000">
        <ele>364.6</ele>
        <time>2020-10-13T13:43:41Z</time>
      </trkpt>
      <trkpt lat="37.647194000" lon="-4.353952000">
        <ele>363.5</ele>
        <time>2020-10-13T13:43:42Z</time>
      </trkpt>
      <trkpt lat="37.647123000" lon="-4.353879000">
        <ele>362.6</ele>
        <time>2020-10-13T13:43:43Z</time>
      </trkpt>
      <trkpt lat="37.647050000" lon="-4.353799000">
        <ele>361.9</ele>
        <time>2020-10-13T13:43:44Z</time>
      </trkpt>
      <trkpt lat="37.646977000" lon="-4.353718000">
        <ele>361.4</ele>
        <time>2020-10-13T13:43:45Z</time>
      </trkpt>
      <trkpt lat="37.646904000" lon="-4.353635000">
        <ele>360.9</ele>
        <time>2020-10-13T13:43:46Z</time>
      </trkpt>
      <trkpt lat="37.646829000" lon="-4.353549000">
        <ele>360.6</ele>
        <time>2020-10-13T13:43:47Z</time>
      </trkpt>
      <trkpt lat="37.646755000" lon="-4.353461000">
        <ele>360.5</ele>
        <time>2020-10-13T13:43:48Z</time>
      </trkpt>
      <trkpt lat="37.646684000" lon="-4.353377000">
        <ele>360.3</ele>
        <time>2020-10-13T13:43:49Z</time>
      </trkpt>
      <trkpt lat="37.646615000" lon="-4.353292000">
        <ele>360.3</ele>
        <time>2020-10-13T13:43:50Z</time>
      </trkpt>
      <trkpt lat="37.646547000" lon="-4.353211000">
        <ele>360.4</ele>
        <time>2020-10-13T13:43:51Z</time>
      </trkpt>
      <trkpt lat="37.646480000" lon="-4.353139000">
        <ele>360.5</ele>
        <time>2020-10-13T13:43:52Z</time>
      </trkpt>
      <trkpt lat="37.646415000" lon="-4.353064000">
        <ele>360.6</ele>
        <time>2020-10-13T13:43:53Z</time>
      </trkpt>
      <trkpt lat="37.646356000" lon="-4.352990000">
        <ele>360.7</ele>
        <time>2020-10-13T13:43:54Z</time>
      </trkpt>
      <trkpt lat="37.646294000" lon="-4.352917000">
        <ele>360.8</ele>
        <time>2020-10-13T13:43:55Z</time>
      </trkpt>
      <trkpt lat="37.646233000" lon="-4.352846000">
        <ele>361.0</ele>
        <time>2020-10-13T13:43:56Z</time>
      </trkpt>
      <trkpt lat="37.646175000" lon="-4.352770000">
        <ele>361.2</ele>
        <time>2020-10-13T13:43:57Z</time>
      </trkpt>
      <trkpt lat="37.646059000" lon="-4.352636000">
        <ele>361.4</ele>
        <time>2020-10-13T13:43:59Z</time>
      </trkpt>
      <trkpt lat="37.645944000" lon="-4.352498000">
        <ele>361.5</ele>
        <time>2020-10-13T13:44:01Z</time>
      </trkpt>
      <trkpt lat="37.645834000" lon="-4.352364000">
        <ele>361.8</ele>
        <time>2020-10-13T13:44:03Z</time>
      </trkpt>
      <trkpt lat="37.645726000" lon="-4.352236000">
        <ele>362.1</ele>
        <time>2020-10-13T13:44:05Z</time>
      </trkpt>
      <trkpt lat="37.645626000" lon="-4.352119000">
        <ele>362.5</ele>
        <time>2020-10-13T13:44:07Z</time>
      </trkpt>
      <trkpt lat="37.645528000" lon="-4.352006000">
        <ele>362.8</ele>
        <time>2020-10-13T13:44:09Z</time>
      </trkpt>
      <trkpt lat="37.645435000" lon="-4.351892000">
        <ele>363.3</ele>
        <time>2020-10-13T13:44:11Z</time>
      </trkpt>
      <trkpt lat="37.645345000" lon="-4.351787000">
        <ele>363.7</ele>
        <time>2020-10-13T13:44:13Z</time>
      </trkpt>
      <trkpt lat="37.645263000" lon="-4.351693000">
        <ele>364.3</ele>
        <time>2020-10-13T13:44:15Z</time>
      </trkpt>
      <trkpt lat="37.645184000" lon="-4.351605000">
        <ele>364.7</ele>
        <time>2020-10-13T13:44:17Z</time>
      </trkpt>
      <trkpt lat="37.645110000" lon="-4.351520000">
        <ele>365.3</ele>
        <time>2020-10-13T13:44:19Z</time>
      </trkpt>
      <trkpt lat="37.645048000" lon="-4.351444000">
        <ele>365.7</ele>
        <time>2020-10-13T13:44:21Z</time>
      </trkpt>
      <trkpt lat="37.644968000" lon="-4.351348000">
        <ele>366.3</ele>
        <time>2020-10-13T13:44:24Z</time>
      </trkpt>
      <trkpt lat="37.644906000" lon="-4.351269000">
        <ele>366.8</ele>
        <time>2020-10-13T13:44:27Z</time>
      </trkpt>
      <trkpt lat="37.644848000" lon="-4.351189000">
        <ele>367.5</ele>
        <time>2020-10-13T13:44:31Z</time>
      </trkpt>
      <trkpt lat="37.644785000" lon="-4.351104000">
        <ele>368.0</ele>
        <time>2020-10-13T13:44:35Z</time>
      </trkpt>
      <trkpt lat="37.644711000" lon="-4.351022000">
        <ele>368.6</ele>
        <time>2020-10-13T13:44:39Z</time>
      </trkpt>
      <trkpt lat="37.644639000" lon="-4.350938000">
        <ele>369.3</ele>
        <time>2020-10-13T13:44:43Z</time>
      </trkpt>
      <trkpt lat="37.644565000" lon="-4.350855000">
        <ele>370.0</ele>
        <time>2020-10-13T13:44:47Z</time>
      </trkpt>
      <trkpt lat="37.644489000" lon="-4.350766000">
        <ele>370.7</ele>
        <time>2020-10-13T13:44:51Z</time>
      </trkpt>
      <trkpt lat="37.644423000" lon="-4.350686000">
        <ele>371.5</ele>
        <time>2020-10-13T13:44:55Z</time>
      </trkpt>
      <trkpt lat="37.644364000" lon="-4.350607000">
        <ele>372.1</ele>
        <time>2020-10-13T13:44:59Z</time>
      </trkpt>
      <trkpt lat="37.644301000" lon="-4.350532000">
        <ele>372.8</ele>
        <time>2020-10-13T13:45:03Z</time>
      </trkpt>
      <trkpt lat="37.644239000" lon="-4.350463000">
        <ele>373.5</ele>
        <time>2020-10-13T13:45:07Z</time>
      </trkpt>
      <trkpt lat="37.644167000" lon="-4.350376000">
        <ele>374.3</ele>
        <time>2020-10-13T13:45:12Z</time>
      </trkpt>
      <trkpt lat="37.644107000" lon="-4.350300000">
        <ele>374.9</ele>
        <time>2020-10-13T13:45:16Z</time>
      </trkpt>
      <trkpt lat="37.644045000" lon="-4.350229000">
        <ele>375.6</ele>
        <time>2020-10-13T13:45:20Z</time>
      </trkpt>
      <trkpt lat="37.643974000" lon="-4.350147000">
        <ele>376.4</ele>
        <time>2020-10-13T13:45:25Z</time>
      </trkpt>
      <trkpt lat="37.643905000" lon="-4.350062000">
        <ele>377.1</ele>
        <time>2020-10-13T13:45:30Z</time>
      </trkpt>
      <trkpt lat="37.643839000" lon="-4.350001000">
        <ele>377.7</ele>
        <time>2020-10-13T13:45:34Z</time>
      </trkpt>
      <trkpt lat="37.643771000" lon="-4.349933000">
        <ele>378.4</ele>
        <time>2020-10-13T13:45:38Z</time>
      </trkpt>
      <trkpt lat="37.643705000" lon="-4.349859000">
        <ele>379.0</ele>
        <time>2020-10-13T13:45:42Z</time>
      </trkpt>
      <trkpt lat="37.643638000" lon="-4.349791000">
        <ele>379.7</ele>
        <time>2020-10-13T13:45:46Z</time>
      </trkpt>
      <trkpt lat="37.643574000" lon="-4.349721000">
        <ele>380.5</ele>
        <time>2020-10-13T13:45:50Z</time>
      </trkpt>
      <trkpt lat="37.643507000" lon="-4.349654000">
        <ele>381.2</ele>
        <time>2020-10-13T13:45:54Z</time>
      </trkpt>
      <trkpt lat="37.643447000" lon="-4.349578000">
        <ele>381.9</ele>
        <time>2020-10-13T13:45:58Z</time>
      </trkpt>
      <trkpt lat="37.643385000" lon="-4.349509000">
        <ele>382.7</ele>
        <time>2020-10-13T13:46:02Z</time>
      </trkpt>
      <trkpt lat="37.643318000" lon="-4.349440000">
        <ele>383.5</ele>
        <time>2020-10-13T13:46:06Z</time>
      </trkpt>
      <trkpt lat="37.643251000" lon="-4.349366000">
        <ele>384.2</ele>
        <time>2020-10-13T13:46:10Z</time>
      </trkpt>
      <trkpt lat="37.643178000" lon="-4.349296000">
        <ele>384.9</ele>
        <time>2020-10-13T13:46:14Z</time>
      </trkpt>
      <trkpt lat="37.643100000" lon="-4.349233000">
        <ele>385.6</ele>
        <time>2020-10-13T13:46:18Z</time>
      </trkpt>
      <trkpt lat="37.643012000" lon="-4.349182000">
        <ele>386.4</ele>
        <time>2020-10-13T13:46:22Z</time>
      </trkpt>
      <trkpt lat="37.642917000" lon="-4.349135000">
        <ele>387.1</ele>
        <time>2020-10-13T13:46:26Z</time>
      </trkpt>
      <trkpt lat="37.642819000" lon="-4.349104000">
        <ele>387.8</ele>
        <time>2020-10-13T13:46:30Z</time>
      </trkpt>
      <trkpt lat="37.642721000" lon="-4.349083000">
        <ele>388.5</ele>
        <time>2020-10-13T13:46:35Z</time>
      </trkpt>
      <trkpt lat="37.642622000" lon="-4.349089000">
        <ele>389.0</ele>
        <time>2020-10-13T13:46:38Z</time>
      </trkpt>
      <trkpt lat="37.642532000" lon="-4.349107000">
        <ele>389.5</ele>
        <time>2020-10-13T13:46:42Z</time>
      </trkpt>
      <trkpt lat="37.642436000" lon="-4.349127000">
        <ele>390.0</ele>
        <time>2020-10-13T13:46:46Z</time>
      </trkpt>
      <trkpt lat="37.642346000" lon="-4.349162000">
        <ele>390.5</ele>
        <time>2020-10-13T13:46:50Z</time>
      </trkpt>
      <trkpt lat="37.642261000" lon="-4.349195000">
        <ele>390.8</ele>
        <time>2020-10-13T13:46:54Z</time>
      </trkpt>
      <trkpt lat="37.642167000" lon="-4.349225000">
        <ele>391.1</ele>
        <time>2020-10-13T13:46:59Z</time>
      </trkpt>
      <trkpt lat="37.642069000" lon="-4.349251000">
        <ele>391.4</ele>
        <time>2020-10-13T13:47:04Z</time>
      </trkpt>
      <trkpt lat="37.641986000" lon="-4.349275000">
        <ele>391.5</ele>
        <time>2020-10-13T13:47:08Z</time>
      </trkpt>
      <trkpt lat="37.641894000" lon="-4.349298000">
        <ele>391.7</ele>
        <time>2020-10-13T13:47:12Z</time>
      </trkpt>
      <trkpt lat="37.641793000" lon="-4.349332000">
        <ele>391.8</ele>
        <time>2020-10-13T13:47:16Z</time>
      </trkpt>
      <trkpt lat="37.641692000" lon="-4.349367000">
        <ele>391.9</ele>
        <time>2020-10-13T13:47:21Z</time>
      </trkpt>
      <trkpt lat="37.641609000" lon="-4.349392000">
        <ele>392.0</ele>
        <time>2020-10-13T13:47:23Z</time>
      </trkpt>
      <trkpt lat="37.641529000" lon="-4.349412000">
        <ele>392.0</ele>
        <time>2020-10-13T13:47:26Z</time>
      </trkpt>
      <trkpt lat="37.641444000" lon="-4.349437000">
        <ele>392.0</ele>
        <time>2020-10-13T13:47:29Z</time>
      </trkpt>
      <trkpt lat="37.641349000" lon="-4.349454000">
        <ele>392.0</ele>
        <time>2020-10-13T13:47:33Z</time>
      </trkpt>
      <trkpt lat="37.641250000" lon="-4.349467000">
        <ele>392.0</ele>
        <time>2020-10-13T13:47:35Z</time>
      </trkpt>
      <trkpt lat="37.641151000" lon="-4.349483000">
        <ele>392.0</ele>
        <time>2020-10-13T13:47:38Z</time>
      </trkpt>
      <trkpt lat="37.641054000" lon="-4.349497000">
        <ele>392.0</ele>
        <time>2020-10-13T13:47:44Z</time>
      </trkpt>
      <trkpt lat="37.640959000" lon="-4.349505000">
        <ele>392.0</ele>
        <time>2020-10-13T13:47:44Z</time>
      </trkpt>
      <trkpt lat="37.640860000" lon="-4.349513000">
        <ele>392.0</ele>
        <time>2020-10-13T13:47:47Z</time>
      </trkpt>
      <trkpt lat="37.640760000" lon="-4.349519000">
        <ele>392.0</ele>
        <time>2020-10-13T13:47:50Z</time>
      </trkpt>
      <trkpt lat="37.640653000" lon="-4.349530000">
        <ele>392.0</ele>
        <time>2020-10-13T13:47:53Z</time>
      </trkpt>
      <trkpt lat="37.640540000" lon="-4.349530000">
        <ele>392.0</ele>
        <time>2020-10-13T13:47:56Z</time>
      </trkpt>
      <trkpt lat="37.640428000" lon="-4.349531000">
        <ele>391.9</ele>
        <time>2020-10-13T13:47:59Z</time>
      </trkpt>
      <trkpt lat="37.640306000" lon="-4.349522000">
        <ele>391.8</ele>
        <time>2020-10-13T13:48:02Z</time>
      </trkpt>
      <trkpt lat="37.640224000" lon="-4.349519000">
        <ele>391.7</ele>
        <time>2020-10-13T13:48:04Z</time>
      </trkpt>
      <trkpt lat="37.640140000" lon="-4.349511000">
        <ele>391.6</ele>
        <time>2020-10-13T13:48:06Z</time>
      </trkpt>
      <trkpt lat="37.640054000" lon="-4.349499000">
        <ele>391.5</ele>
        <time>2020-10-13T13:48:08Z</time>
      </trkpt>
      <trkpt lat="37.639972000" lon="-4.349490000">
        <ele>391.5</ele>
        <time>2020-10-13T13:48:10Z</time>
      </trkpt>
      <trkpt lat="37.639860000" lon="-4.349470000">
        <ele>391.5</ele>
        <time>2020-10-13T13:48:13Z</time>
      </trkpt>
      <trkpt lat="37.639755000" lon="-4.349442000">
        <ele>391.5</ele>
        <time>2020-10-13T13:48:16Z</time>
      </trkpt>
      <trkpt lat="37.639660000" lon="-4.349405000">
        <ele>391.4</ele>
        <time>2020-10-13T13:48:19Z</time>
      </trkpt>
      <trkpt lat="37.639570000" lon="-4.349365000">
        <ele>391.2</ele>
        <time>2020-10-13T13:48:22Z</time>
      </trkpt>
      <trkpt lat="37.639483000" lon="-4.349318000">
        <ele>391.0</ele>
        <time>2020-10-13T13:48:25Z</time>
      </trkpt>
      <trkpt lat="37.639393000" lon="-4.349261000">
        <ele>390.8</ele>
        <time>2020-10-13T13:48:28Z</time>
      </trkpt>
      <trkpt lat="37.639289000" lon="-4.349195000">
        <ele>390.6</ele>
        <time>2020-10-13T13:48:31Z</time>
      </trkpt>
      <trkpt lat="37.639208000" lon="-4.349131000">
        <ele>390.4</ele>
        <time>2020-10-13T13:48:33Z</time>
      </trkpt>
      <trkpt lat="37.639120000" lon="-4.349071000">
        <ele>390.1</ele>
        <time>2020-10-13T13:48:35Z</time>
      </trkpt>
      <trkpt lat="37.639027000" lon="-4.349010000">
        <ele>389.7</ele>
        <time>2020-10-13T13:48:37Z</time>
      </trkpt>
      <trkpt lat="37.638925000" lon="-4.348947000">
        <ele>389.3</ele>
        <time>2020-10-13T13:48:39Z</time>
      </trkpt>
      <trkpt lat="37.638816000" lon="-4.348868000">
        <ele>388.8</ele>
        <time>2020-10-13T13:48:41Z</time>
      </trkpt>
      <trkpt lat="37.638700000" lon="-4.348787000">
        <ele>388.5</ele>
        <time>2020-10-13T13:48:43Z</time>
      </trkpt>
      <trkpt lat="37.638579000" lon="-4.348701000">
        <ele>388.1</ele>
        <time>2020-10-13T13:48:45Z</time>
      </trkpt>
      <trkpt lat="37.638449000" lon="-4.348618000">
        <ele>387.8</ele>
        <time>2020-10-13T13:48:47Z</time>
      </trkpt>
      <trkpt lat="37.638322000" lon="-4.348530000">
        <ele>387.5</ele>
        <time>2020-10-13T13:48:49Z</time>
      </trkpt>
      <trkpt lat="37.638200000" lon="-4.348448000">
        <ele>387.5</ele>
        <time>2020-10-13T13:48:51Z</time>
      </trkpt>
      <trkpt lat="37.638073000" lon="-4.348367000">
        <ele>387.4</ele>
        <time>2020-10-13T13:48:53Z</time>
      </trkpt>
      <trkpt lat="37.637952000" lon="-4.348286000">
        <ele>387.5</ele>
        <time>2020-10-13T13:48:55Z</time>
      </trkpt>
      <trkpt lat="37.637844000" lon="-4.348207000">
        <ele>387.5</ele>
        <time>2020-10-13T13:48:57Z</time>
      </trkpt>
      <trkpt lat="37.637735000" lon="-4.348136000">
        <ele>387.7</ele>
        <time>2020-10-13T13:48:59Z</time>
      </trkpt>
      <trkpt lat="37.637626000" lon="-4.348068000">
        <ele>387.9</ele>
        <time>2020-10-13T13:49:01Z</time>
      </trkpt>
      <trkpt lat="37.637526000" lon="-4.348007000">
        <ele>388.1</ele>
        <time>2020-10-13T13:49:03Z</time>
      </trkpt>
      <trkpt lat="37.637425000" lon="-4.347939000">
        <ele>388.2</ele>
        <time>2020-10-13T13:49:05Z</time>
      </trkpt>
      <trkpt lat="37.637336000" lon="-4.347876000">
        <ele>388.3</ele>
        <time>2020-10-13T13:49:07Z</time>
      </trkpt>
      <trkpt lat="37.637248000" lon="-4.347821000">
        <ele>388.4</ele>
        <time>2020-10-13T13:49:09Z</time>
      </trkpt>
      <trkpt lat="37.637169000" lon="-4.347770000">
        <ele>388.5</ele>
        <time>2020-10-13T13:49:11Z</time>
      </trkpt>
      <trkpt lat="37.637089000" lon="-4.347720000">
        <ele>388.4</ele>
        <time>2020-10-13T13:49:13Z</time>
      </trkpt>
      <trkpt lat="37.637018000" lon="-4.347665000">
        <ele>388.3</ele>
        <time>2020-10-13T13:49:15Z</time>
      </trkpt>
      <trkpt lat="37.636946000" lon="-4.347609000">
        <ele>388.0</ele>
        <time>2020-10-13T13:49:17Z</time>
      </trkpt>
      <trkpt lat="37.636873000" lon="-4.347546000">
        <ele>387.7</ele>
        <time>2020-10-13T13:49:19Z</time>
      </trkpt>
      <trkpt lat="37.636810000" lon="-4.347479000">
        <ele>387.5</ele>
        <time>2020-10-13T13:49:21Z</time>
      </trkpt>
      <trkpt lat="37.636742000" lon="-4.347407000">
        <ele>387.2</ele>
        <time>2020-10-13T13:49:23Z</time>
      </trkpt>
      <trkpt lat="37.636670000" lon="-4.347338000">
        <ele>386.9</ele>
        <time>2020-10-13T13:49:25Z</time>
      </trkpt>
      <trkpt lat="37.636603000" lon="-4.347267000">
        <ele>386.7</ele>
        <time>2020-10-13T13:49:27Z</time>
      </trkpt>
      <trkpt lat="37.636536000" lon="-4.347193000">
        <ele>386.6</ele>
        <time>2020-10-13T13:49:29Z</time>
      </trkpt>
      <trkpt lat="37.636473000" lon="-4.347114000">
        <ele>386.5</ele>
        <time>2020-10-13T13:49:31Z</time>
      </trkpt>
      <trkpt lat="37.636418000" lon="-4.347030000">
        <ele>386.5</ele>
        <time>2020-10-13T13:49:33Z</time>
      </trkpt>
      <trkpt lat="37.636356000" lon="-4.346951000">
        <ele>386.5</ele>
        <time>2020-10-13T13:49:35Z</time>
      </trkpt>
      <trkpt lat="37.636301000" lon="-4.346873000">
        <ele>386.5</ele>
        <time>2020-10-13T13:49:37Z</time>
      </trkpt>
      <trkpt lat="37.636233000" lon="-4.346757000">
        <ele>386.5</ele>
        <time>2020-10-13T13:49:40Z</time>
      </trkpt>
      <trkpt lat="37.636171000" lon="-4.346657000">
        <ele>386.6</ele>
        <time>2020-10-13T13:49:43Z</time>
      </trkpt>
      <trkpt lat="37.636103000" lon="-4.346575000">
        <ele>386.6</ele>
        <time>2020-10-13T13:49:46Z</time>
      </trkpt>
      <trkpt lat="37.636038000" lon="-4.346509000">
        <ele>386.5</ele>
        <time>2020-10-13T13:49:49Z</time>
      </trkpt>
      <trkpt lat="37.636059000" lon="-4.346382000">
        <ele>386.4</ele>
        <time>2020-10-13T13:49:54Z</time>
      </trkpt>
      <trkpt lat="37.636025000" lon="-4.346267000">
        <ele>386.2</ele>
        <time>2020-10-13T13:49:58Z</time>
      </trkpt>
      <trkpt lat="37.635984000" lon="-4.346159000">
        <ele>385.9</ele>
        <time>2020-10-13T13:50:01Z</time>
      </trkpt>
      <trkpt lat="37.635936000" lon="-4.346036000">
        <ele>385.5</ele>
        <time>2020-10-13T13:50:04Z</time>
      </trkpt>
      <trkpt lat="37.635893000" lon="-4.345893000">
        <ele>385.2</ele>
        <time>2020-10-13T13:50:08Z</time>
      </trkpt>
      <trkpt lat="37.635845000" lon="-4.345800000">
        <ele>384.7</ele>
        <time>2020-10-13T13:50:09Z</time>
      </trkpt>
      <trkpt lat="37.635798000" lon="-4.345699000">
        <ele>384.2</ele>
        <time>2020-10-13T13:50:11Z</time>
      </trkpt>
      <trkpt lat="37.635744000" lon="-4.345591000">
        <ele>383.5</ele>
        <time>2020-10-13T13:50:13Z</time>
      </trkpt>
      <trkpt lat="37.635697000" lon="-4.345479000">
        <ele>382.9</ele>
        <time>2020-10-13T13:50:15Z</time>
      </trkpt>
      <trkpt lat="37.635646000" lon="-4.345365000">
        <ele>382.3</ele>
        <time>2020-10-13T13:50:17Z</time>
      </trkpt>
      <trkpt lat="37.635593000" lon="-4.345245000">
        <ele>381.7</ele>
        <time>2020-10-13T13:50:19Z</time>
      </trkpt>
      <trkpt lat="37.635536000" lon="-4.345133000">
        <ele>381.3</ele>
        <time>2020-10-13T13:50:21Z</time>
      </trkpt>
      <trkpt lat="37.635486000" lon="-4.345010000">
        <ele>380.8</ele>
        <time>2020-10-13T13:50:23Z</time>
      </trkpt>
      <trkpt lat="37.635428000" lon="-4.344881000">
        <ele>380.4</ele>
        <time>2020-10-13T13:50:25Z</time>
      </trkpt>
      <trkpt lat="37.635375000" lon="-4.344745000">
        <ele>380.0</ele>
        <time>2020-10-13T13:50:27Z</time>
      </trkpt>
      <trkpt lat="37.635322000" lon="-4.344620000">
        <ele>379.6</ele>
        <time>2020-10-13T13:50:29Z</time>
      </trkpt>
      <trkpt lat="37.635272000" lon="-4.344491000">
        <ele>379.3</ele>
        <time>2020-10-13T13:50:31Z</time>
      </trkpt>
      <trkpt lat="37.635219000" lon="-4.344371000">
        <ele>379.0</ele>
        <time>2020-10-13T13:50:33Z</time>
      </trkpt>
      <trkpt lat="37.635165000" lon="-4.344253000">
        <ele>378.8</ele>
        <time>2020-10-13T13:50:35Z</time>
      </trkpt>
      <trkpt lat="37.635112000" lon="-4.344128000">
        <ele>378.5</ele>
        <time>2020-10-13T13:50:37Z</time>
      </trkpt>
      <trkpt lat="37.635060000" lon="-4.344010000">
        <ele>378.4</ele>
        <time>2020-10-13T13:50:39Z</time>
      </trkpt>
      <trkpt lat="37.635016000" lon="-4.343908000">
        <ele>378.1</ele>
        <time>2020-10-13T13:50:41Z</time>
      </trkpt>
      <trkpt lat="37.634966000" lon="-4.343774000">
        <ele>377.7</ele>
        <time>2020-10-13T13:50:44Z</time>
      </trkpt>
      <trkpt lat="37.634930000" lon="-4.343637000">
        <ele>377.3</ele>
        <time>2020-10-13T13:50:47Z</time>
      </trkpt>
      <trkpt lat="37.634905000" lon="-4.343539000">
        <ele>376.8</ele>
        <time>2020-10-13T13:50:49Z</time>
      </trkpt>
      <trkpt lat="37.634869000" lon="-4.343427000">
        <ele>376.4</ele>
        <time>2020-10-13T13:50:51Z</time>
      </trkpt>
      <trkpt lat="37.634836000" lon="-4.343298000">
        <ele>375.9</ele>
        <time>2020-10-13T13:50:53Z</time>
      </trkpt>
      <trkpt lat="37.634805000" lon="-4.343160000">
        <ele>375.5</ele>
        <time>2020-10-13T13:50:55Z</time>
      </trkpt>
      <trkpt lat="37.634783000" lon="-4.343018000">
        <ele>375.1</ele>
        <time>2020-10-13T13:50:57Z</time>
      </trkpt>
      <trkpt lat="37.634771000" lon="-4.342866000">
        <ele>374.5</ele>
        <time>2020-10-13T13:50:59Z</time>
      </trkpt>
      <trkpt lat="37.634766000" lon="-4.342710000">
        <ele>374.1</ele>
        <time>2020-10-13T13:51:01Z</time>
      </trkpt>
      <trkpt lat="37.634763000" lon="-4.342552000">
        <ele>373.6</ele>
        <time>2020-10-13T13:51:03Z</time>
      </trkpt>
      <trkpt lat="37.634747000" lon="-4.342380000">
        <ele>373.3</ele>
        <time>2020-10-13T13:51:05Z</time>
      </trkpt>
      <trkpt lat="37.634702000" lon="-4.342209000">
        <ele>373.0</ele>
        <time>2020-10-13T13:51:07Z</time>
      </trkpt>
      <trkpt lat="37.634622000" lon="-4.342068000">
        <ele>372.8</ele>
        <time>2020-10-13T13:51:09Z</time>
      </trkpt>
      <trkpt lat="37.634522000" lon="-4.341954000">
        <ele>372.7</ele>
        <time>2020-10-13T13:51:11Z</time>
      </trkpt>
      <trkpt lat="37.634420000" lon="-4.341850000">
        <ele>372.6</ele>
        <time>2020-10-13T13:51:13Z</time>
      </trkpt>
      <trkpt lat="37.634321000" lon="-4.341757000">
        <ele>372.6</ele>
        <time>2020-10-13T13:51:15Z</time>
      </trkpt>
      <trkpt lat="37.634224000" lon="-4.341667000">
        <ele>372.7</ele>
        <time>2020-10-13T13:51:17Z</time>
      </trkpt>
      <trkpt lat="37.634141000" lon="-4.341590000">
        <ele>372.9</ele>
        <time>2020-10-13T13:51:19Z</time>
      </trkpt>
      <trkpt lat="37.634059000" lon="-4.341526000">
        <ele>373.2</ele>
        <time>2020-10-13T13:51:21Z</time>
      </trkpt>
      <trkpt lat="37.633978000" lon="-4.341454000">
        <ele>373.5</ele>
        <time>2020-10-13T13:51:23Z</time>
      </trkpt>
      <trkpt lat="37.633898000" lon="-4.341377000">
        <ele>373.7</ele>
        <time>2020-10-13T13:51:25Z</time>
      </trkpt>
      <trkpt lat="37.633820000" lon="-4.341306000">
        <ele>374.1</ele>
        <time>2020-10-13T13:51:27Z</time>
      </trkpt>
      <trkpt lat="37.633746000" lon="-4.341237000">
        <ele>374.5</ele>
        <time>2020-10-13T13:51:29Z</time>
      </trkpt>
      <trkpt lat="37.633665000" lon="-4.341165000">
        <ele>374.8</ele>
        <time>2020-10-13T13:51:31Z</time>
      </trkpt>
      <trkpt lat="37.633586000" lon="-4.341088000">
        <ele>375.2</ele>
        <time>2020-10-13T13:51:33Z</time>
      </trkpt>
      <trkpt lat="37.633507000" lon="-4.341012000">
        <ele>375.5</ele>
        <time>2020-10-13T13:51:35Z</time>
      </trkpt>
      <trkpt lat="37.633442000" lon="-4.340947000">
        <ele>375.9</ele>
        <time>2020-10-13T13:51:37Z</time>
      </trkpt>
      <trkpt lat="37.633350000" lon="-4.340866000">
        <ele>376.3</ele>
        <time>2020-10-13T13:51:40Z</time>
      </trkpt>
      <trkpt lat="37.633267000" lon="-4.340783000">
        <ele>376.6</ele>
        <time>2020-10-13T13:51:43Z</time>
      </trkpt>
      <trkpt lat="37.633189000" lon="-4.340713000">
        <ele>377.1</ele>
        <time>2020-10-13T13:51:46Z</time>
      </trkpt>
      <trkpt lat="37.633107000" lon="-4.340641000">
        <ele>377.6</ele>
        <time>2020-10-13T13:51:49Z</time>
      </trkpt>
      <trkpt lat="37.633032000" lon="-4.340568000">
        <ele>378.2</ele>
        <time>2020-10-13T13:51:52Z</time>
      </trkpt>
      <trkpt lat="37.632969000" lon="-4.340498000">
        <ele>378.6</ele>
        <time>2020-10-13T13:51:55Z</time>
      </trkpt>
      <trkpt lat="37.632902000" lon="-4.340431000">
        <ele>379.1</ele>
        <time>2020-10-13T13:51:58Z</time>
      </trkpt>
      <trkpt lat="37.632841000" lon="-4.340357000">
        <ele>379.5</ele>
        <time>2020-10-13T13:52:01Z</time>
      </trkpt>
      <trkpt lat="37.632778000" lon="-4.340281000">
        <ele>380.0</ele>
        <time>2020-10-13T13:52:04Z</time>
      </trkpt>
      <trkpt lat="37.632722000" lon="-4.340195000">
        <ele>380.5</ele>
        <time>2020-10-13T13:52:07Z</time>
      </trkpt>
      <trkpt lat="37.632665000" lon="-4.340101000">
        <ele>380.9</ele>
        <time>2020-10-13T13:52:10Z</time>
      </trkpt>
      <trkpt lat="37.632604000" lon="-4.339998000">
        <ele>381.3</ele>
        <time>2020-10-13T13:52:13Z</time>
      </trkpt>
      <trkpt lat="37.632552000" lon="-4.339891000">
        <ele>381.6</ele>
        <time>2020-10-13T13:52:16Z</time>
      </trkpt>
      <trkpt lat="37.632499000" lon="-4.339783000">
        <ele>382.0</ele>
        <time>2020-10-13T13:52:19Z</time>
      </trkpt>
      <trkpt lat="37.632443000" lon="-4.339668000">
        <ele>382.3</ele>
        <time>2020-10-13T13:52:22Z</time>
      </trkpt>
      <trkpt lat="37.632385000" lon="-4.339552000">
        <ele>382.5</ele>
        <time>2020-10-13T13:52:25Z</time>
      </trkpt>
      <trkpt lat="37.632329000" lon="-4.339434000">
        <ele>382.9</ele>
        <time>2020-10-13T13:52:28Z</time>
      </trkpt>
      <trkpt lat="37.632275000" lon="-4.339315000">
        <ele>383.3</ele>
        <time>2020-10-13T13:52:31Z</time>
      </trkpt>
      <trkpt lat="37.632217000" lon="-4.339198000">
        <ele>383.7</ele>
        <time>2020-10-13T13:52:34Z</time>
      </trkpt>
      <trkpt lat="37.632164000" lon="-4.339080000">
        <ele>384.1</ele>
        <time>2020-10-13T13:52:37Z</time>
      </trkpt>
      <trkpt lat="37.632111000" lon="-4.338967000">
        <ele>384.5</ele>
        <time>2020-10-13T13:52:40Z</time>
      </trkpt>
      <trkpt lat="37.632053000" lon="-4.338850000">
        <ele>384.7</ele>
        <time>2020-10-13T13:52:43Z</time>
      </trkpt>
      <trkpt lat="37.631990000" lon="-4.338730000">
        <ele>384.9</ele>
        <time>2020-10-13T13:52:47Z</time>
      </trkpt>
      <trkpt lat="37.631932000" lon="-4.338607000">
        <ele>385.1</ele>
        <time>2020-10-13T13:52:49Z</time>
      </trkpt>
      <trkpt lat="37.631874000" lon="-4.338495000">
        <ele>385.2</ele>
        <time>2020-10-13T13:52:52Z</time>
      </trkpt>
      <trkpt lat="37.631822000" lon="-4.338390000">
        <ele>385.3</ele>
        <time>2020-10-13T13:52:55Z</time>
      </trkpt>
      <trkpt lat="37.631767000" lon="-4.338276000">
        <ele>385.4</ele>
        <time>2020-10-13T13:52:58Z</time>
      </trkpt>
      <trkpt lat="37.631701000" lon="-4.338151000">
        <ele>385.4</ele>
        <time>2020-10-13T13:53:01Z</time>
      </trkpt>
      <trkpt lat="37.631642000" lon="-4.338043000">
        <ele>385.4</ele>
        <time>2020-10-13T13:53:04Z</time>
      </trkpt>
      <trkpt lat="37.631572000" lon="-4.337936000">
        <ele>385.3</ele>
        <time>2020-10-13T13:53:07Z</time>
      </trkpt>
      <trkpt lat="37.631495000" lon="-4.337829000">
        <ele>385.2</ele>
        <time>2020-10-13T13:53:10Z</time>
      </trkpt>
      <trkpt lat="37.631420000" lon="-4.337730000">
        <ele>385.0</ele>
        <time>2020-10-13T13:53:13Z</time>
      </trkpt>
      <trkpt lat="37.631345000" lon="-4.337641000">
        <ele>384.8</ele>
        <time>2020-10-13T13:53:16Z</time>
      </trkpt>
      <trkpt lat="37.631269000" lon="-4.337549000">
        <ele>384.7</ele>
        <time>2020-10-13T13:53:19Z</time>
      </trkpt>
      <trkpt lat="37.631191000" lon="-4.337452000">
        <ele>384.6</ele>
        <time>2020-10-13T13:53:22Z</time>
      </trkpt>
      <trkpt lat="37.631107000" lon="-4.337354000">
        <ele>384.5</ele>
        <time>2020-10-13T13:53:25Z</time>
      </trkpt>
      <trkpt lat="37.631023000" lon="-4.337245000">
        <ele>384.2</ele>
        <time>2020-10-13T13:53:28Z</time>
      </trkpt>
      <trkpt lat="37.630957000" lon="-4.337168000">
        <ele>383.9</ele>
        <time>2020-10-13T13:53:30Z</time>
      </trkpt>
      <trkpt lat="37.630889000" lon="-4.337092000">
        <ele>383.6</ele>
        <time>2020-10-13T13:53:32Z</time>
      </trkpt>
      <trkpt lat="37.630816000" lon="-4.337009000">
        <ele>383.4</ele>
        <time>2020-10-13T13:53:34Z</time>
      </trkpt>
      <trkpt lat="37.630750000" lon="-4.336926000">
        <ele>383.0</ele>
        <time>2020-10-13T13:53:36Z</time>
      </trkpt>
      <trkpt lat="37.630680000" lon="-4.336834000">
        <ele>382.6</ele>
        <time>2020-10-13T13:53:39Z</time>
      </trkpt>
      <trkpt lat="37.630603000" lon="-4.336750000">
        <ele>382.5</ele>
        <time>2020-10-13T13:53:40Z</time>
      </trkpt>
      <trkpt lat="37.630524000" lon="-4.336659000">
        <ele>382.3</ele>
        <time>2020-10-13T13:53:42Z</time>
      </trkpt>
      <trkpt lat="37.630448000" lon="-4.336564000">
        <ele>382.2</ele>
        <time>2020-10-13T13:53:44Z</time>
      </trkpt>
      <trkpt lat="37.630374000" lon="-4.336471000">
        <ele>382.1</ele>
        <time>2020-10-13T13:53:46Z</time>
      </trkpt>
      <trkpt lat="37.630297000" lon="-4.336384000">
        <ele>382.2</ele>
        <time>2020-10-13T13:53:48Z</time>
      </trkpt>
      <trkpt lat="37.630225000" lon="-4.336291000">
        <ele>382.4</ele>
        <time>2020-10-13T13:53:50Z</time>
      </trkpt>
      <trkpt lat="37.630156000" lon="-4.336204000">
        <ele>382.5</ele>
        <time>2020-10-13T13:53:52Z</time>
      </trkpt>
      <trkpt lat="37.630088000" lon="-4.336106000">
        <ele>382.7</ele>
        <time>2020-10-13T13:53:55Z</time>
      </trkpt>
      <trkpt lat="37.630025000" lon="-4.335996000">
        <ele>382.8</ele>
        <time>2020-10-13T13:53:56Z</time>
      </trkpt>
      <trkpt lat="37.629968000" lon="-4.335874000">
        <ele>383.0</ele>
        <time>2020-10-13T13:53:58Z</time>
      </trkpt>
      <trkpt lat="37.629925000" lon="-4.335748000">
        <ele>383.2</ele>
        <time>2020-10-13T13:54:00Z</time>
      </trkpt>
      <trkpt lat="37.629875000" lon="-4.335622000">
        <ele>383.2</ele>
        <time>2020-10-13T13:54:02Z</time>
      </trkpt>
      <trkpt lat="37.629824000" lon="-4.335495000">
        <ele>383.2</ele>
        <time>2020-10-13T13:54:04Z</time>
      </trkpt>
      <trkpt lat="37.629775000" lon="-4.335364000">
        <ele>383.1</ele>
        <time>2020-10-13T13:54:06Z</time>
      </trkpt>
      <trkpt lat="37.629723000" lon="-4.335230000">
        <ele>383.0</ele>
        <time>2020-10-13T13:54:08Z</time>
      </trkpt>
      <trkpt lat="37.629669000" lon="-4.335097000">
        <ele>382.9</ele>
        <time>2020-10-13T13:54:10Z</time>
      </trkpt>
      <trkpt lat="37.629603000" lon="-4.334976000">
        <ele>382.8</ele>
        <time>2020-10-13T13:54:12Z</time>
      </trkpt>
      <trkpt lat="37.629534000" lon="-4.334855000">
        <ele>382.8</ele>
        <time>2020-10-13T13:54:14Z</time>
      </trkpt>
      <trkpt lat="37.629463000" lon="-4.334744000">
        <ele>382.8</ele>
        <time>2020-10-13T13:54:16Z</time>
      </trkpt>
      <trkpt lat="37.629391000" lon="-4.334640000">
        <ele>382.8</ele>
        <time>2020-10-13T13:54:18Z</time>
      </trkpt>
      <trkpt lat="37.629317000" lon="-4.334546000">
        <ele>382.8</ele>
        <time>2020-10-13T13:54:20Z</time>
      </trkpt>
      <trkpt lat="37.629245000" lon="-4.334452000">
        <ele>382.7</ele>
        <time>2020-10-13T13:54:23Z</time>
      </trkpt>
      <trkpt lat="37.629169000" lon="-4.334365000">
        <ele>382.7</ele>
        <time>2020-10-13T13:54:24Z</time>
      </trkpt>
      <trkpt lat="37.629095000" lon="-4.334279000">
        <ele>382.7</ele>
        <time>2020-10-13T13:54:26Z</time>
      </trkpt>
      <trkpt lat="37.629028000" lon="-4.334192000">
        <ele>382.7</ele>
        <time>2020-10-13T13:54:28Z</time>
      </trkpt>
      <trkpt lat="37.628951000" lon="-4.334115000">
        <ele>382.7</ele>
        <time>2020-10-13T13:54:30Z</time>
      </trkpt>
      <trkpt lat="37.628876000" lon="-4.334038000">
        <ele>382.6</ele>
        <time>2020-10-13T13:54:32Z</time>
      </trkpt>
      <trkpt lat="37.628800000" lon="-4.333939000">
        <ele>382.6</ele>
        <time>2020-10-13T13:54:34Z</time>
      </trkpt>
      <trkpt lat="37.628726000" lon="-4.333846000">
        <ele>382.5</ele>
        <time>2020-10-13T13:54:36Z</time>
      </trkpt>
      <trkpt lat="37.628650000" lon="-4.333760000">
        <ele>382.5</ele>
        <time>2020-10-13T13:54:38Z</time>
      </trkpt>
      <trkpt lat="37.628578000" lon="-4.333672000">
        <ele>382.5</ele>
        <time>2020-10-13T13:54:40Z</time>
      </trkpt>
      <trkpt lat="37.628508000" lon="-4.333585000">
        <ele>382.6</ele>
        <time>2020-10-13T13:54:42Z</time>
      </trkpt>
      <trkpt lat="37.628432000" lon="-4.333503000">
        <ele>382.8</ele>
        <time>2020-10-13T13:54:44Z</time>
      </trkpt>
      <trkpt lat="37.628360000" lon="-4.333416000">
        <ele>383.0</ele>
        <time>2020-10-13T13:54:46Z</time>
      </trkpt>
      <trkpt lat="37.628292000" lon="-4.333337000">
        <ele>383.3</ele>
        <time>2020-10-13T13:54:48Z</time>
      </trkpt>
      <trkpt lat="37.628224000" lon="-4.333265000">
        <ele>383.5</ele>
        <time>2020-10-13T13:54:50Z</time>
      </trkpt>
      <trkpt lat="37.628156000" lon="-4.333178000">
        <ele>383.8</ele>
        <time>2020-10-13T13:54:52Z</time>
      </trkpt>
      <trkpt lat="37.628086000" lon="-4.333100000">
        <ele>384.1</ele>
        <time>2020-10-13T13:54:54Z</time>
      </trkpt>
      <trkpt lat="37.628012000" lon="-4.333012000">
        <ele>384.3</ele>
        <time>2020-10-13T13:54:56Z</time>
      </trkpt>
      <trkpt lat="37.627937000" lon="-4.332927000">
        <ele>384.5</ele>
        <time>2020-10-13T13:54:59Z</time>
      </trkpt>
      <trkpt lat="37.627866000" lon="-4.332841000">
        <ele>384.6</ele>
        <time>2020-10-13T13:55:00Z</time>
      </trkpt>
      <trkpt lat="37.627794000" lon="-4.332758000">
        <ele>384.8</ele>
        <time>2020-10-13T13:55:02Z</time>
      </trkpt>
      <trkpt lat="37.627722000" lon="-4.332668000">
        <ele>385.0</ele>
        <time>2020-10-13T13:55:04Z</time>
      </trkpt>
      <trkpt lat="37.627649000" lon="-4.332586000">
        <ele>385.3</ele>
        <time>2020-10-13T13:55:06Z</time>
      </trkpt>
      <trkpt lat="37.627578000" lon="-4.332506000">
        <ele>385.5</ele>
        <time>2020-10-13T13:55:08Z</time>
      </trkpt>
      <trkpt lat="37.627510000" lon="-4.332428000">
        <ele>385.7</ele>
        <time>2020-10-13T13:55:10Z</time>
      </trkpt>
      <trkpt lat="37.627442000" lon="-4.332346000">
        <ele>385.9</ele>
        <time>2020-10-13T13:55:12Z</time>
      </trkpt>
      <trkpt lat="37.627371000" lon="-4.332274000">
        <ele>386.0</ele>
        <time>2020-10-13T13:55:14Z</time>
      </trkpt>
      <trkpt lat="37.627302000" lon="-4.332189000">
        <ele>386.1</ele>
        <time>2020-10-13T13:55:16Z</time>
      </trkpt>
      <trkpt lat="37.627231000" lon="-4.332114000">
        <ele>386.2</ele>
        <time>2020-10-13T13:55:18Z</time>
      </trkpt>
      <trkpt lat="37.627166000" lon="-4.332029000">
        <ele>386.3</ele>
        <time>2020-10-13T13:55:20Z</time>
      </trkpt>
      <trkpt lat="37.627097000" lon="-4.331948000">
        <ele>386.4</ele>
        <time>2020-10-13T13:55:22Z</time>
      </trkpt>
      <trkpt lat="37.627029000" lon="-4.331867000">
        <ele>386.3</ele>
        <time>2020-10-13T13:55:24Z</time>
      </trkpt>
      <trkpt lat="37.626970000" lon="-4.331779000">
        <ele>386.2</ele>
        <time>2020-10-13T13:55:26Z</time>
      </trkpt>
      <trkpt lat="37.626910000" lon="-4.331686000">
        <ele>386.0</ele>
        <time>2020-10-13T13:55:28Z</time>
      </trkpt>
      <trkpt lat="37.626857000" lon="-4.331592000">
        <ele>385.8</ele>
        <time>2020-10-13T13:55:30Z</time>
      </trkpt>
      <trkpt lat="37.626806000" lon="-4.331494000">
        <ele>385.6</ele>
        <time>2020-10-13T13:55:32Z</time>
      </trkpt>
      <trkpt lat="37.626758000" lon="-4.331394000">
        <ele>385.4</ele>
        <time>2020-10-13T13:55:34Z</time>
      </trkpt>
      <trkpt lat="37.626706000" lon="-4.331305000">
        <ele>385.2</ele>
        <time>2020-10-13T13:55:36Z</time>
      </trkpt>
      <trkpt lat="37.626660000" lon="-4.331220000">
        <ele>385.1</ele>
        <time>2020-10-13T13:55:38Z</time>
      </trkpt>
      <trkpt lat="37.626595000" lon="-4.331097000">
        <ele>385.0</ele>
        <time>2020-10-13T13:55:41Z</time>
      </trkpt>
      <trkpt lat="37.626541000" lon="-4.331005000">
        <ele>384.8</ele>
        <time>2020-10-13T13:55:44Z</time>
      </trkpt>
      <trkpt lat="37.626493000" lon="-4.330914000">
        <ele>384.6</ele>
        <time>2020-10-13T13:55:45Z</time>
      </trkpt>
      <trkpt lat="37.626440000" lon="-4.330827000">
        <ele>384.5</ele>
        <time>2020-10-13T13:55:47Z</time>
      </trkpt>
      <trkpt lat="37.626387000" lon="-4.330749000">
        <ele>384.4</ele>
        <time>2020-10-13T13:55:49Z</time>
      </trkpt>
      <trkpt lat="37.626293000" lon="-4.330665000">
        <ele>384.2</ele>
        <time>2020-10-13T13:55:52Z</time>
      </trkpt>
      <trkpt lat="37.626191000" lon="-4.330592000">
        <ele>384.1</ele>
        <time>2020-10-13T13:55:55Z</time>
      </trkpt>
      <trkpt lat="37.626089000" lon="-4.330552000">
        <ele>384.0</ele>
        <time>2020-10-13T13:55:59Z</time>
      </trkpt>
      <trkpt lat="37.625992000" lon="-4.330520000">
        <ele>384.0</ele>
        <time>2020-10-13T13:56:01Z</time>
      </trkpt>
      <trkpt lat="37.625892000" lon="-4.330495000">
        <ele>384.1</ele>
        <time>2020-10-13T13:56:04Z</time>
      </trkpt>
      <trkpt lat="37.625783000" lon="-4.330455000">
        <ele>384.1</ele>
        <time>2020-10-13T13:56:07Z</time>
      </trkpt>
      <trkpt lat="37.625682000" lon="-4.330412000">
        <ele>384.2</ele>
        <time>2020-10-13T13:56:10Z</time>
      </trkpt>
      <trkpt lat="37.625581000" lon="-4.330370000">
        <ele>384.5</ele>
        <time>2020-10-13T13:56:13Z</time>
      </trkpt>
      <trkpt lat="37.625474000" lon="-4.330315000">
        <ele>384.8</ele>
        <time>2020-10-13T13:56:16Z</time>
      </trkpt>
      <trkpt lat="37.625400000" lon="-4.330271000">
        <ele>385.2</ele>
        <time>2020-10-13T13:56:18Z</time>
      </trkpt>
      <trkpt lat="37.625325000" lon="-4.330226000">
        <ele>385.7</ele>
        <time>2020-10-13T13:56:20Z</time>
      </trkpt>
      <trkpt lat="37.625251000" lon="-4.330178000">
        <ele>386.4</ele>
        <time>2020-10-13T13:56:22Z</time>
      </trkpt>
      <trkpt lat="37.625149000" lon="-4.330109000">
        <ele>387.0</ele>
        <time>2020-10-13T13:56:25Z</time>
      </trkpt>
      <trkpt lat="37.625049000" lon="-4.330051000">
        <ele>387.7</ele>
        <time>2020-10-13T13:56:28Z</time>
      </trkpt>
      <trkpt lat="37.624946000" lon="-4.329983000">
        <ele>388.5</ele>
        <time>2020-10-13T13:56:31Z</time>
      </trkpt>
      <trkpt lat="37.624842000" lon="-4.329905000">
        <ele>389.2</ele>
        <time>2020-10-13T13:56:34Z</time>
      </trkpt>
      <trkpt lat="37.624739000" lon="-4.329831000">
        <ele>389.9</ele>
        <time>2020-10-13T13:56:37Z</time>
      </trkpt>
      <trkpt lat="37.624669000" lon="-4.329780000">
        <ele>390.5</ele>
        <time>2020-10-13T13:56:39Z</time>
      </trkpt>
      <trkpt lat="37.624599000" lon="-4.329729000">
        <ele>391.1</ele>
        <time>2020-10-13T13:56:41Z</time>
      </trkpt>
      <trkpt lat="37.624529000" lon="-4.329678000">
        <ele>391.5</ele>
        <time>2020-10-13T13:56:43Z</time>
      </trkpt>
      <trkpt lat="37.624458000" lon="-4.329623000">
        <ele>392.0</ele>
        <time>2020-10-13T13:56:45Z</time>
      </trkpt>
      <trkpt lat="37.624388000" lon="-4.329570000">
        <ele>392.4</ele>
        <time>2020-10-13T13:56:47Z</time>
      </trkpt>
      <trkpt lat="37.624318000" lon="-4.329516000">
        <ele>392.6</ele>
        <time>2020-10-13T13:56:49Z</time>
      </trkpt>
      <trkpt lat="37.624245000" lon="-4.329465000">
        <ele>392.7</ele>
        <time>2020-10-13T13:56:51Z</time>
      </trkpt>
      <trkpt lat="37.624172000" lon="-4.329414000">
        <ele>392.7</ele>
        <time>2020-10-13T13:56:53Z</time>
      </trkpt>
      <trkpt lat="37.624100000" lon="-4.329360000">
        <ele>392.7</ele>
        <time>2020-10-13T13:56:55Z</time>
      </trkpt>
      <trkpt lat="37.624031000" lon="-4.329304000">
        <ele>392.5</ele>
        <time>2020-10-13T13:56:57Z</time>
      </trkpt>
      <trkpt lat="37.623926000" lon="-4.329234000">
        <ele>392.4</ele>
        <time>2020-10-13T13:57:00Z</time>
      </trkpt>
      <trkpt lat="37.623826000" lon="-4.329164000">
        <ele>392.2</ele>
        <time>2020-10-13T13:57:03Z</time>
      </trkpt>
      <trkpt lat="37.623730000" lon="-4.329102000">
        <ele>392.1</ele>
        <time>2020-10-13T13:57:06Z</time>
      </trkpt>
      <trkpt lat="37.623639000" lon="-4.329036000">
        <ele>392.0</ele>
        <time>2020-10-13T13:57:09Z</time>
      </trkpt>
      <trkpt lat="37.623549000" lon="-4.328963000">
        <ele>392.0</ele>
        <time>2020-10-13T13:57:12Z</time>
      </trkpt>
      <trkpt lat="37.623464000" lon="-4.328897000">
        <ele>392.0</ele>
        <time>2020-10-13T13:57:16Z</time>
      </trkpt>
      <trkpt lat="37.623370000" lon="-4.328827000">
        <ele>392.1</ele>
        <time>2020-10-13T13:57:18Z</time>
      </trkpt>
      <trkpt lat="37.623299000" lon="-4.328775000">
        <ele>392.4</ele>
        <time>2020-10-13T13:57:20Z</time>
      </trkpt>
      <trkpt lat="37.623225000" lon="-4.328724000">
        <ele>392.7</ele>
        <time>2020-10-13T13:57:22Z</time>
      </trkpt>
      <trkpt lat="37.623137000" lon="-4.328665000">
        <ele>393.1</ele>
        <time>2020-10-13T13:57:27Z</time>
      </trkpt>
      <trkpt lat="37.623043000" lon="-4.328594000">
        <ele>393.6</ele>
        <time>2020-10-13T13:57:29Z</time>
      </trkpt>
      <trkpt lat="37.622960000" lon="-4.328530000">
        <ele>394.2</ele>
        <time>2020-10-13T13:57:32Z</time>
      </trkpt>
      <trkpt lat="37.622862000" lon="-4.328463000">
        <ele>394.8</ele>
        <time>2020-10-13T13:57:35Z</time>
      </trkpt>
      <trkpt lat="37.622777000" lon="-4.328398000">
        <ele>395.4</ele>
        <time>2020-10-13T13:57:38Z</time>
      </trkpt>
      <trkpt lat="37.622704000" lon="-4.328352000">
        <ele>395.9</ele>
        <time>2020-10-13T13:57:41Z</time>
      </trkpt>
      <trkpt lat="37.622620000" lon="-4.328289000">
        <ele>396.5</ele>
        <time>2020-10-13T13:57:44Z</time>
      </trkpt>
      <trkpt lat="37.622525000" lon="-4.328213000">
        <ele>397.0</ele>
        <time>2020-10-13T13:57:47Z</time>
      </trkpt>
      <trkpt lat="37.622440000" lon="-4.328151000">
        <ele>397.5</ele>
        <time>2020-10-13T13:57:50Z</time>
      </trkpt>
      <trkpt lat="37.622363000" lon="-4.328088000">
        <ele>397.9</ele>
        <time>2020-10-13T13:57:53Z</time>
      </trkpt>
      <trkpt lat="37.622287000" lon="-4.328033000">
        <ele>398.3</ele>
        <time>2020-10-13T13:57:56Z</time>
      </trkpt>
      <trkpt lat="37.622214000" lon="-4.327976000">
        <ele>398.6</ele>
        <time>2020-10-13T13:57:59Z</time>
      </trkpt>
      <trkpt lat="37.622138000" lon="-4.327917000">
        <ele>399.0</ele>
        <time>2020-10-13T13:58:02Z</time>
      </trkpt>
      <trkpt lat="37.622060000" lon="-4.327858000">
        <ele>399.4</ele>
        <time>2020-10-13T13:58:05Z</time>
      </trkpt>
      <trkpt lat="37.621985000" lon="-4.327793000">
        <ele>399.6</ele>
        <time>2020-10-13T13:58:08Z</time>
      </trkpt>
      <trkpt lat="37.621912000" lon="-4.327737000">
        <ele>400.0</ele>
        <time>2020-10-13T13:58:11Z</time>
      </trkpt>
      <trkpt lat="37.621841000" lon="-4.327677000">
        <ele>400.5</ele>
        <time>2020-10-13T13:58:14Z</time>
      </trkpt>
      <trkpt lat="37.621766000" lon="-4.327624000">
        <ele>400.9</ele>
        <time>2020-10-13T13:58:17Z</time>
      </trkpt>
      <trkpt lat="37.621687000" lon="-4.327563000">
        <ele>401.5</ele>
        <time>2020-10-13T13:58:20Z</time>
      </trkpt>
      <trkpt lat="37.621613000" lon="-4.327514000">
        <ele>402.0</ele>
        <time>2020-10-13T13:58:23Z</time>
      </trkpt>
      <trkpt lat="37.621538000" lon="-4.327464000">
        <ele>402.5</ele>
        <time>2020-10-13T13:58:26Z</time>
      </trkpt>
      <trkpt lat="37.621431000" lon="-4.327438000">
        <ele>403.1</ele>
        <time>2020-10-13T13:58:30Z</time>
      </trkpt>
      <trkpt lat="37.621347000" lon="-4.327427000">
        <ele>403.6</ele>
        <time>2020-10-13T13:58:33Z</time>
      </trkpt>
      <trkpt lat="37.621255000" lon="-4.327368000">
        <ele>404.1</ele>
        <time>2020-10-13T13:58:37Z</time>
      </trkpt>
      <trkpt lat="37.621196000" lon="-4.327295000">
        <ele>404.5</ele>
        <time>2020-10-13T13:58:40Z</time>
      </trkpt>
      <trkpt lat="37.621118000" lon="-4.327224000">
        <ele>405.1</ele>
        <time>2020-10-13T13:58:44Z</time>
      </trkpt>
      <trkpt lat="37.621044000" lon="-4.327152000">
        <ele>405.6</ele>
        <time>2020-10-13T13:58:48Z</time>
      </trkpt>
      <trkpt lat="37.620961000" lon="-4.327095000">
        <ele>406.1</ele>
        <time>2020-10-13T13:58:52Z</time>
      </trkpt>
      <trkpt lat="37.620896000" lon="-4.327033000">
        <ele>406.5</ele>
        <time>2020-10-13T13:58:55Z</time>
      </trkpt>
      <trkpt lat="37.620833000" lon="-4.326968000">
        <ele>406.9</ele>
        <time>2020-10-13T13:58:58Z</time>
      </trkpt>
      <trkpt lat="37.620751000" lon="-4.326886000">
        <ele>407.3</ele>
        <time>2020-10-13T13:59:02Z</time>
      </trkpt>
      <trkpt lat="37.620672000" lon="-4.326813000">
        <ele>407.5</ele>
        <time>2020-10-13T13:59:06Z</time>
      </trkpt>
      <trkpt lat="37.620586000" lon="-4.326748000">
        <ele>407.8</ele>
        <time>2020-10-13T13:59:10Z</time>
      </trkpt>
      <trkpt lat="37.620498000" lon="-4.326695000">
        <ele>408.2</ele>
        <time>2020-10-13T13:59:14Z</time>
      </trkpt>
      <trkpt lat="37.620406000" lon="-4.326631000">
        <ele>408.5</ele>
        <time>2020-10-13T13:59:19Z</time>
      </trkpt>
      <trkpt lat="37.620333000" lon="-4.326557000">
        <ele>408.9</ele>
        <time>2020-10-13T13:59:23Z</time>
      </trkpt>
      <trkpt lat="37.620260000" lon="-4.326490000">
        <ele>409.2</ele>
        <time>2020-10-13T13:59:25Z</time>
      </trkpt>
      <trkpt lat="37.620188000" lon="-4.326429000">
        <ele>409.4</ele>
        <time>2020-10-13T13:59:28Z</time>
      </trkpt>
      <trkpt lat="37.620117000" lon="-4.326369000">
        <ele>409.5</ele>
        <time>2020-10-13T13:59:31Z</time>
      </trkpt>
      <trkpt lat="37.620052000" lon="-4.326301000">
        <ele>409.6</ele>
        <time>2020-10-13T13:59:34Z</time>
      </trkpt>
      <trkpt lat="37.619968000" lon="-4.326217000">
        <ele>409.7</ele>
        <time>2020-10-13T13:59:38Z</time>
      </trkpt>
      <trkpt lat="37.619887000" lon="-4.326147000">
        <ele>409.7</ele>
        <time>2020-10-13T13:59:42Z</time>
      </trkpt>
      <trkpt lat="37.619803000" lon="-4.326075000">
        <ele>409.6</ele>
        <time>2020-10-13T13:59:46Z</time>
      </trkpt>
      <trkpt lat="37.619714000" lon="-4.326005000">
        <ele>409.5</ele>
        <time>2020-10-13T13:59:50Z</time>
      </trkpt>
      <trkpt lat="37.619624000" lon="-4.325938000">
        <ele>409.4</ele>
        <time>2020-10-13T13:59:54Z</time>
      </trkpt>
      <trkpt lat="37.619548000" lon="-4.325876000">
        <ele>409.1</ele>
        <time>2020-10-13T13:59:57Z</time>
      </trkpt>
      <trkpt lat="37.619459000" lon="-4.325812000">
        <ele>408.8</ele>
        <time>2020-10-13T14:00:00Z</time>
      </trkpt>
      <trkpt lat="37.619359000" lon="-4.325735000">
        <ele>408.5</ele>
        <time>2020-10-13T14:00:03Z</time>
      </trkpt>
      <trkpt lat="37.619261000" lon="-4.325657000">
        <ele>408.2</ele>
        <time>2020-10-13T14:00:06Z</time>
      </trkpt>
      <trkpt lat="37.619161000" lon="-4.325584000">
        <ele>407.8</ele>
        <time>2020-10-13T14:00:09Z</time>
      </trkpt>
      <trkpt lat="37.619090000" lon="-4.325530000">
        <ele>407.5</ele>
        <time>2020-10-13T14:00:11Z</time>
      </trkpt>
      <trkpt lat="37.619018000" lon="-4.325478000">
        <ele>407.0</ele>
        <time>2020-10-13T14:00:13Z</time>
      </trkpt>
      <trkpt lat="37.618945000" lon="-4.325428000">
        <ele>406.6</ele>
        <time>2020-10-13T14:00:15Z</time>
      </trkpt>
      <trkpt lat="37.618843000" lon="-4.325350000">
        <ele>406.4</ele>
        <time>2020-10-13T14:00:18Z</time>
      </trkpt>
      <trkpt lat="37.618769000" lon="-4.325298000">
        <ele>406.0</ele>
        <time>2020-10-13T14:00:20Z</time>
      </trkpt>
      <trkpt lat="37.618693000" lon="-4.325256000">
        <ele>405.6</ele>
        <time>2020-10-13T14:00:22Z</time>
      </trkpt>
      <trkpt lat="37.618618000" lon="-4.325212000">
        <ele>405.4</ele>
        <time>2020-10-13T14:00:24Z</time>
      </trkpt>
      <trkpt lat="37.618508000" lon="-4.325149000">
        <ele>405.1</ele>
        <time>2020-10-13T14:00:27Z</time>
      </trkpt>
      <trkpt lat="37.618432000" lon="-4.325102000">
        <ele>404.8</ele>
        <time>2020-10-13T14:00:29Z</time>
      </trkpt>
      <trkpt lat="37.618357000" lon="-4.325052000">
        <ele>404.5</ele>
        <time>2020-10-13T14:00:32Z</time>
      </trkpt>
      <trkpt lat="37.618282000" lon="-4.325003000">
        <ele>404.3</ele>
        <time>2020-10-13T14:00:33Z</time>
      </trkpt>
      <trkpt lat="37.618192000" lon="-4.324927000">
        <ele>404.0</ele>
        <time>2020-10-13T14:00:35Z</time>
      </trkpt>
      <trkpt lat="37.618115000" lon="-4.324874000">
        <ele>403.8</ele>
        <time>2020-10-13T14:00:37Z</time>
      </trkpt>
      <trkpt lat="37.618038000" lon="-4.324825000">
        <ele>403.6</ele>
        <time>2020-10-13T14:00:40Z</time>
      </trkpt>
      <trkpt lat="37.617954000" lon="-4.324772000">
        <ele>403.5</ele>
        <time>2020-10-13T14:00:41Z</time>
      </trkpt>
      <trkpt lat="37.617866000" lon="-4.324717000">
        <ele>403.4</ele>
        <time>2020-10-13T14:00:43Z</time>
      </trkpt>
      <trkpt lat="37.617789000" lon="-4.324657000">
        <ele>403.2</ele>
        <time>2020-10-13T14:00:45Z</time>
      </trkpt>
      <trkpt lat="37.617691000" lon="-4.324593000">
        <ele>403.0</ele>
        <time>2020-10-13T14:00:48Z</time>
      </trkpt>
      <trkpt lat="37.617608000" lon="-4.324544000">
        <ele>402.8</ele>
        <time>2020-10-13T14:01:06Z</time>
      </trkpt>
      <trkpt lat="37.617519000" lon="-4.324498000">
        <ele>402.6</ele>
        <time>2020-10-13T14:01:10Z</time>
      </trkpt>
      <trkpt lat="37.617414000" lon="-4.324454000">
        <ele>402.5</ele>
        <time>2020-10-13T14:01:13Z</time>
      </trkpt>
      <trkpt lat="37.617310000" lon="-4.324407000">
        <ele>402.5</ele>
        <time>2020-10-13T14:01:16Z</time>
      </trkpt>
      <trkpt lat="37.617225000" lon="-4.324318000">
        <ele>402.4</ele>
        <time>2020-10-13T14:01:19Z</time>
      </trkpt>
      <trkpt lat="37.617157000" lon="-4.324218000">
        <ele>402.3</ele>
        <time>2020-10-13T14:01:22Z</time>
      </trkpt>
      <trkpt lat="37.617100000" lon="-4.324126000">
        <ele>402.2</ele>
        <time>2020-10-13T14:01:25Z</time>
      </trkpt>
      <trkpt lat="37.617050000" lon="-4.324035000">
        <ele>402.1</ele>
        <time>2020-10-13T14:01:28Z</time>
      </trkpt>
      <trkpt lat="37.617004000" lon="-4.323949000">
        <ele>402.0</ele>
        <time>2020-10-13T14:01:31Z</time>
      </trkpt>
      <trkpt lat="37.616954000" lon="-4.323861000">
        <ele>402.1</ele>
        <time>2020-10-13T14:01:34Z</time>
      </trkpt>
      <trkpt lat="37.616899000" lon="-4.323779000">
        <ele>402.3</ele>
        <time>2020-10-13T14:01:37Z</time>
      </trkpt>
      <trkpt lat="37.616845000" lon="-4.323698000">
        <ele>402.5</ele>
        <time>2020-10-13T14:01:40Z</time>
      </trkpt>
      <trkpt lat="37.616783000" lon="-4.323632000">
        <ele>402.7</ele>
        <time>2020-10-13T14:01:43Z</time>
      </trkpt>
      <trkpt lat="37.616712000" lon="-4.323582000">
        <ele>403.1</ele>
        <time>2020-10-13T14:01:46Z</time>
      </trkpt>
      <trkpt lat="37.616625000" lon="-4.323565000">
        <ele>403.5</ele>
        <time>2020-10-13T14:01:49Z</time>
      </trkpt>
      <trkpt lat="37.616532000" lon="-4.323551000">
        <ele>404.0</ele>
        <time>2020-10-13T14:01:52Z</time>
      </trkpt>
      <trkpt lat="37.616433000" lon="-4.323547000">
        <ele>404.5</ele>
        <time>2020-10-13T14:01:55Z</time>
      </trkpt>
      <trkpt lat="37.616332000" lon="-4.323552000">
        <ele>405.1</ele>
        <time>2020-10-13T14:01:58Z</time>
      </trkpt>
      <trkpt lat="37.616235000" lon="-4.323535000">
        <ele>405.7</ele>
        <time>2020-10-13T14:02:01Z</time>
      </trkpt>
      <trkpt lat="37.616158000" lon="-4.323479000">
        <ele>406.5</ele>
        <time>2020-10-13T14:02:05Z</time>
      </trkpt>
      <trkpt lat="37.616078000" lon="-4.323389000">
        <ele>407.1</ele>
        <time>2020-10-13T14:02:10Z</time>
      </trkpt>
      <trkpt lat="37.616003000" lon="-4.323313000">
        <ele>407.7</ele>
        <time>2020-10-13T14:02:12Z</time>
      </trkpt>
      <trkpt lat="37.615936000" lon="-4.323252000">
        <ele>408.5</ele>
        <time>2020-10-13T14:02:15Z</time>
      </trkpt>
      <trkpt lat="37.615856000" lon="-4.323227000">
        <ele>409.3</ele>
        <time>2020-10-13T14:02:18Z</time>
      </trkpt>
      <trkpt lat="37.615757000" lon="-4.323231000">
        <ele>410.0</ele>
        <time>2020-10-13T14:02:22Z</time>
      </trkpt>
      <trkpt lat="37.615675000" lon="-4.323226000">
        <ele>410.7</ele>
        <time>2020-10-13T14:02:29Z</time>
      </trkpt>
      <trkpt lat="37.615620000" lon="-4.323316000">
        <ele>411.5</ele>
        <time>2020-10-13T14:02:36Z</time>
      </trkpt>
      <trkpt lat="37.615564000" lon="-4.323421000">
        <ele>412.2</ele>
        <time>2020-10-13T14:02:41Z</time>
      </trkpt>
      <trkpt lat="37.615503000" lon="-4.323509000">
        <ele>413.0</ele>
        <time>2020-10-13T14:02:46Z</time>
      </trkpt>
      <trkpt lat="37.615447000" lon="-4.323593000">
        <ele>413.7</ele>
        <time>2020-10-13T14:02:52Z</time>
      </trkpt>
      <trkpt lat="37.615393000" lon="-4.323686000">
        <ele>414.5</ele>
        <time>2020-10-13T14:02:57Z</time>
      </trkpt>
      <trkpt lat="37.615327000" lon="-4.323784000">
        <ele>415.4</ele>
        <time>2020-10-13T14:03:04Z</time>
      </trkpt>
      <trkpt lat="37.615270000" lon="-4.323875000">
        <ele>416.3</ele>
        <time>2020-10-13T14:03:09Z</time>
      </trkpt>
      <trkpt lat="37.615217000" lon="-4.323981000">
        <ele>417.1</ele>
        <time>2020-10-13T14:03:14Z</time>
      </trkpt>
      <trkpt lat="37.615158000" lon="-4.324077000">
        <ele>418.0</ele>
        <time>2020-10-13T14:03:19Z</time>
      </trkpt>
      <trkpt lat="37.615104000" lon="-4.324164000">
        <ele>418.9</ele>
        <time>2020-10-13T14:03:25Z</time>
      </trkpt>
      <trkpt lat="37.615045000" lon="-4.324253000">
        <ele>419.8</ele>
        <time>2020-10-13T14:03:31Z</time>
      </trkpt>
      <trkpt lat="37.615026000" lon="-4.324368000">
        <ele>420.7</ele>
        <time>2020-10-13T14:03:37Z</time>
      </trkpt>
      <trkpt lat="37.614990000" lon="-4.324464000">
        <ele>421.6</ele>
        <time>2020-10-13T14:03:44Z</time>
      </trkpt>
      <trkpt lat="37.614927000" lon="-4.324539000">
        <ele>422.5</ele>
        <time>2020-10-13T14:03:50Z</time>
      </trkpt>
      <trkpt lat="37.614873000" lon="-4.324619000">
        <ele>423.4</ele>
        <time>2020-10-13T14:03:56Z</time>
      </trkpt>
      <trkpt lat="37.614800000" lon="-4.324681000">
        <ele>424.3</ele>
        <time>2020-10-13T14:04:05Z</time>
      </trkpt>
      <trkpt lat="37.614735000" lon="-4.324742000">
        <ele>425.0</ele>
        <time>2020-10-13T14:04:10Z</time>
      </trkpt>
      <trkpt lat="37.614655000" lon="-4.324800000">
        <ele>425.6</ele>
        <time>2020-10-13T14:04:16Z</time>
      </trkpt>
      <trkpt lat="37.614615000" lon="-4.324891000">
        <ele>426.3</ele>
        <time>2020-10-13T14:04:24Z</time>
      </trkpt>
      <trkpt lat="37.614567000" lon="-4.324991000">
        <ele>426.9</ele>
        <time>2020-10-13T14:04:29Z</time>
      </trkpt>
      <trkpt lat="37.614522000" lon="-4.325086000">
        <ele>427.5</ele>
        <time>2020-10-13T14:04:35Z</time>
      </trkpt>
      <trkpt lat="37.614470000" lon="-4.325182000">
        <ele>428.1</ele>
        <time>2020-10-13T14:04:39Z</time>
      </trkpt>
      <trkpt lat="37.614436000" lon="-4.325286000">
        <ele>428.7</ele>
        <time>2020-10-13T14:04:44Z</time>
      </trkpt>
      <trkpt lat="37.614434000" lon="-4.325395000">
        <ele>429.3</ele>
        <time>2020-10-13T14:04:49Z</time>
      </trkpt>
      <trkpt lat="37.614431000" lon="-4.325508000">
        <ele>429.8</ele>
        <time>2020-10-13T14:04:55Z</time>
      </trkpt>
      <trkpt lat="37.614415000" lon="-4.325613000">
        <ele>430.4</ele>
        <time>2020-10-13T14:05:02Z</time>
      </trkpt>
      <trkpt lat="37.614440000" lon="-4.325720000">
        <ele>430.8</ele>
        <time>2020-10-13T14:05:07Z</time>
      </trkpt>
      <trkpt lat="37.614447000" lon="-4.325843000">
        <ele>431.3</ele>
        <time>2020-10-13T14:05:12Z</time>
      </trkpt>
      <trkpt lat="37.614452000" lon="-4.325946000">
        <ele>431.6</ele>
        <time>2020-10-13T14:05:16Z</time>
      </trkpt>
      <trkpt lat="37.614471000" lon="-4.326054000">
        <ele>431.8</ele>
        <time>2020-10-13T14:05:21Z</time>
      </trkpt>
      <trkpt lat="37.614451000" lon="-4.326154000">
        <ele>431.9</ele>
        <time>2020-10-13T14:07:25Z</time>
      </trkpt>
      <trkpt lat="37.614436000" lon="-4.326039000">
        <ele>431.8</ele>
        <time>2020-10-13T14:10:45Z</time>
      </trkpt>
      <trkpt lat="37.614421000" lon="-4.325939000">
        <ele>431.6</ele>
        <time>2020-10-13T14:11:13Z</time>
      </trkpt>
      <trkpt lat="37.614426000" lon="-4.325824000">
        <ele>431.4</ele>
        <time>2020-10-13T14:11:22Z</time>
      </trkpt>
      <trkpt lat="37.614432000" lon="-4.325714000">
        <ele>431.1</ele>
        <time>2020-10-13T14:11:31Z</time>
      </trkpt>
      <trkpt lat="37.614417000" lon="-4.325608000">
        <ele>430.7</ele>
        <time>2020-10-13T14:11:37Z</time>
      </trkpt>
      <trkpt lat="37.614412000" lon="-4.325497000">
        <ele>430.3</ele>
        <time>2020-10-13T14:11:44Z</time>
      </trkpt>
      <trkpt lat="37.614429000" lon="-4.325396000">
        <ele>429.6</ele>
        <time>2020-10-13T14:12:13Z</time>
      </trkpt>
      <trkpt lat="37.614346000" lon="-4.325337000">
        <ele>428.9</ele>
        <time>2020-10-13T14:12:18Z</time>
      </trkpt>
      <trkpt lat="37.614268000" lon="-4.325273000">
        <ele>428.1</ele>
        <time>2020-10-13T14:12:26Z</time>
      </trkpt>
      <trkpt lat="37.614234000" lon="-4.325180000">
        <ele>427.2</ele>
        <time>2020-10-13T14:13:10Z</time>
      </trkpt>
      <trkpt lat="37.614202000" lon="-4.325077000">
        <ele>426.0</ele>
        <time>2020-10-13T14:16:12Z</time>
      </trkpt>
      <trkpt lat="37.614194000" lon="-4.324951000">
        <ele>424.7</ele>
        <time>2020-10-13T14:16:17Z</time>
      </trkpt>
      <trkpt lat="37.614201000" lon="-4.324842000">
        <ele>423.4</ele>
        <time>2020-10-13T14:16:21Z</time>
      </trkpt>
      <trkpt lat="37.614212000" lon="-4.324726000">
        <ele>421.8</ele>
        <time>2020-10-13T14:16:25Z</time>
      </trkpt>
      <trkpt lat="37.614205000" lon="-4.324591000">
        <ele>420.2</ele>
        <time>2020-10-13T14:16:29Z</time>
      </trkpt>
      <trkpt lat="37.614213000" lon="-4.324483000">
        <ele>418.5</ele>
        <time>2020-10-13T14:16:34Z</time>
      </trkpt>
      <trkpt lat="37.614207000" lon="-4.324356000">
        <ele>416.7</ele>
        <time>2020-10-13T14:16:39Z</time>
      </trkpt>
      <trkpt lat="37.614176000" lon="-4.324222000">
        <ele>415.0</ele>
        <time>2020-10-13T14:16:43Z</time>
      </trkpt>
      <trkpt lat="37.614158000" lon="-4.324114000">
        <ele>413.3</ele>
        <time>2020-10-13T14:16:46Z</time>
      </trkpt>
      <trkpt lat="37.614153000" lon="-4.323992000">
        <ele>411.6</ele>
        <time>2020-10-13T14:16:49Z</time>
      </trkpt>
      <trkpt lat="37.614150000" lon="-4.323869000">
        <ele>410.0</ele>
        <time>2020-10-13T14:16:52Z</time>
      </trkpt>
      <trkpt lat="37.614140000" lon="-4.323765000">
        <ele>408.5</ele>
        <time>2020-10-13T14:16:55Z</time>
      </trkpt>
      <trkpt lat="37.614112000" lon="-4.323665000">
        <ele>407.2</ele>
        <time>2020-10-13T14:16:59Z</time>
      </trkpt>
      <trkpt lat="37.614030000" lon="-4.323647000">
        <ele>405.8</ele>
        <time>2020-10-13T14:17:03Z</time>
      </trkpt>
      <trkpt lat="37.613939000" lon="-4.323629000">
        <ele>404.5</ele>
        <time>2020-10-13T14:17:06Z</time>
      </trkpt>
      <trkpt lat="37.613846000" lon="-4.323620000">
        <ele>403.3</ele>
        <time>2020-10-13T14:17:09Z</time>
      </trkpt>
      <trkpt lat="37.613753000" lon="-4.323613000">
        <ele>402.0</ele>
        <time>2020-10-13T14:17:12Z</time>
      </trkpt>
      <trkpt lat="37.613661000" lon="-4.323598000">
        <ele>400.7</ele>
        <time>2020-10-13T14:17:15Z</time>
      </trkpt>
      <trkpt lat="37.613571000" lon="-4.323578000">
        <ele>399.4</ele>
        <time>2020-10-13T14:17:18Z</time>
      </trkpt>
      <trkpt lat="37.613484000" lon="-4.323555000">
        <ele>397.8</ele>
        <time>2020-10-13T14:17:21Z</time>
      </trkpt>
      <trkpt lat="37.613394000" lon="-4.323515000">
        <ele>396.1</ele>
        <time>2020-10-13T14:17:24Z</time>
      </trkpt>
      <trkpt lat="37.613306000" lon="-4.323494000">
        <ele>394.4</ele>
        <time>2020-10-13T14:17:27Z</time>
      </trkpt>
      <trkpt lat="37.613209000" lon="-4.323469000">
        <ele>392.5</ele>
        <time>2020-10-13T14:17:30Z</time>
      </trkpt>
      <trkpt lat="37.613113000" lon="-4.323441000">
        <ele>390.7</ele>
        <time>2020-10-13T14:17:33Z</time>
      </trkpt>
      <trkpt lat="37.613002000" lon="-4.323409000">
        <ele>388.9</ele>
        <time>2020-10-13T14:17:36Z</time>
      </trkpt>
      <trkpt lat="37.612897000" lon="-4.323376000">
        <ele>387.1</ele>
        <time>2020-10-13T14:17:39Z</time>
      </trkpt>
      <trkpt lat="37.612792000" lon="-4.323346000">
        <ele>385.3</ele>
        <time>2020-10-13T14:17:42Z</time>
      </trkpt>
      <trkpt lat="37.612685000" lon="-4.323321000">
        <ele>383.5</ele>
        <time>2020-10-13T14:17:45Z</time>
      </trkpt>
      <trkpt lat="37.612580000" lon="-4.323297000">
        <ele>381.7</ele>
        <time>2020-10-13T14:17:48Z</time>
      </trkpt>
      <trkpt lat="37.612468000" lon="-4.323276000">
        <ele>380.1</ele>
        <time>2020-10-13T14:17:51Z</time>
      </trkpt>
      <trkpt lat="37.612364000" lon="-4.323267000">
        <ele>378.7</ele>
        <time>2020-10-13T14:17:54Z</time>
      </trkpt>
      <trkpt lat="37.612265000" lon="-4.323239000">
        <ele>377.6</ele>
        <time>2020-10-13T14:17:57Z</time>
      </trkpt>
      <trkpt lat="37.612170000" lon="-4.323201000">
        <ele>376.7</ele>
        <time>2020-10-13T14:18:00Z</time>
      </trkpt>
      <trkpt lat="37.612073000" lon="-4.323182000">
        <ele>376.0</ele>
        <time>2020-10-13T14:18:03Z</time>
      </trkpt>
      <trkpt lat="37.611979000" lon="-4.323167000">
        <ele>375.4</ele>
        <time>2020-10-13T14:18:07Z</time>
      </trkpt>
      <trkpt lat="37.611966000" lon="-4.323063000">
        <ele>375.0</ele>
        <time>2020-10-13T14:18:14Z</time>
      </trkpt>
      <trkpt lat="37.612000000" lon="-4.322954000">
        <ele>374.7</ele>
        <time>2020-10-13T14:18:19Z</time>
      </trkpt>
      <trkpt lat="37.612029000" lon="-4.322851000">
        <ele>374.5</ele>
        <time>2020-10-13T14:18:23Z</time>
      </trkpt>
      <trkpt lat="37.612054000" lon="-4.322746000">
        <ele>374.5</ele>
        <time>2020-10-13T14:18:26Z</time>
      </trkpt>
      <trkpt lat="37.612080000" lon="-4.322637000">
        <ele>374.5</ele>
        <time>2020-10-13T14:18:29Z</time>
      </trkpt>
      <trkpt lat="37.612108000" lon="-4.322528000">
        <ele>374.5</ele>
        <time>2020-10-13T14:18:32Z</time>
      </trkpt>
      <trkpt lat="37.612131000" lon="-4.322419000">
        <ele>374.5</ele>
        <time>2020-10-13T14:18:35Z</time>
      </trkpt>
      <trkpt lat="37.612154000" lon="-4.322295000">
        <ele>374.6</ele>
        <time>2020-10-13T14:18:38Z</time>
      </trkpt>
      <trkpt lat="37.612186000" lon="-4.322177000">
        <ele>374.7</ele>
        <time>2020-10-13T14:18:41Z</time>
      </trkpt>
      <trkpt lat="37.612234000" lon="-4.322062000">
        <ele>374.8</ele>
        <time>2020-10-13T14:18:44Z</time>
      </trkpt>
      <trkpt lat="37.612272000" lon="-4.321950000">
        <ele>374.9</ele>
        <time>2020-10-13T14:18:47Z</time>
      </trkpt>
      <trkpt lat="37.612309000" lon="-4.321839000">
        <ele>374.9</ele>
        <time>2020-10-13T14:18:50Z</time>
      </trkpt>
      <trkpt lat="37.612348000" lon="-4.321726000">
        <ele>375.0</ele>
        <time>2020-10-13T14:18:53Z</time>
      </trkpt>
      <trkpt lat="37.612399000" lon="-4.321622000">
        <ele>375.1</ele>
        <time>2020-10-13T14:18:56Z</time>
      </trkpt>
      <trkpt lat="37.612441000" lon="-4.321525000">
        <ele>375.2</ele>
        <time>2020-10-13T14:18:59Z</time>
      </trkpt>
      <trkpt lat="37.612480000" lon="-4.321430000">
        <ele>375.3</ele>
        <time>2020-10-13T14:19:02Z</time>
      </trkpt>
      <trkpt lat="37.612504000" lon="-4.321313000">
        <ele>375.5</ele>
        <time>2020-10-13T14:19:06Z</time>
      </trkpt>
      <trkpt lat="37.612426000" lon="-4.321250000">
        <ele>375.5</ele>
        <time>2020-10-13T14:19:10Z</time>
      </trkpt>
      <trkpt lat="37.612334000" lon="-4.321204000">
        <ele>375.6</ele>
        <time>2020-10-13T14:19:14Z</time>
      </trkpt>
      <trkpt lat="37.612267000" lon="-4.321121000">
        <ele>375.7</ele>
        <time>2020-10-13T14:19:17Z</time>
      </trkpt>
      <trkpt lat="37.612198000" lon="-4.321035000">
        <ele>375.8</ele>
        <time>2020-10-13T14:19:20Z</time>
      </trkpt>
      <trkpt lat="37.612109000" lon="-4.321007000">
        <ele>375.9</ele>
        <time>2020-10-13T14:19:23Z</time>
      </trkpt>
      <trkpt lat="37.612024000" lon="-4.320986000">
        <ele>376.0</ele>
        <time>2020-10-13T14:19:26Z</time>
      </trkpt>
      <trkpt lat="37.611946000" lon="-4.320955000">
        <ele>376.0</ele>
        <time>2020-10-13T14:19:29Z</time>
      </trkpt>
      <trkpt lat="37.611866000" lon="-4.320933000">
        <ele>375.9</ele>
        <time>2020-10-13T14:20:41Z</time>
      </trkpt>
      <trkpt lat="37.611786000" lon="-4.320878000">
        <ele>375.8</ele>
        <time>2020-10-13T14:20:47Z</time>
      </trkpt>
      <trkpt lat="37.611694000" lon="-4.320859000">
        <ele>375.8</ele>
        <time>2020-10-13T14:20:51Z</time>
      </trkpt>
      <trkpt lat="37.611612000" lon="-4.320842000">
        <ele>375.8</ele>
        <time>2020-10-13T14:21:19Z</time>
      </trkpt>
      <trkpt lat="37.611521000" lon="-4.320813000">
        <ele>375.9</ele>
        <time>2020-10-13T14:21:22Z</time>
      </trkpt>
      <trkpt lat="37.611415000" lon="-4.320780000">
        <ele>376.0</ele>
        <time>2020-10-13T14:21:25Z</time>
      </trkpt>
      <trkpt lat="37.611304000" lon="-4.320756000">
        <ele>376.2</ele>
        <time>2020-10-13T14:21:28Z</time>
      </trkpt>
      <trkpt lat="37.611195000" lon="-4.320743000">
        <ele>376.5</ele>
        <time>2020-10-13T14:21:31Z</time>
      </trkpt>
      <trkpt lat="37.611080000" lon="-4.320723000">
        <ele>376.8</ele>
        <time>2020-10-13T14:21:34Z</time>
      </trkpt>
      <trkpt lat="37.610968000" lon="-4.320688000">
        <ele>377.2</ele>
        <time>2020-10-13T14:21:37Z</time>
      </trkpt>
      <trkpt lat="37.610859000" lon="-4.320662000">
        <ele>377.6</ele>
        <time>2020-10-13T14:21:40Z</time>
      </trkpt>
      <trkpt lat="37.610753000" lon="-4.320637000">
        <ele>378.2</ele>
        <time>2020-10-13T14:21:43Z</time>
      </trkpt>
      <trkpt lat="37.610650000" lon="-4.320611000">
        <ele>378.7</ele>
        <time>2020-10-13T14:21:46Z</time>
      </trkpt>
      <trkpt lat="37.610549000" lon="-4.320585000">
        <ele>379.2</ele>
        <time>2020-10-13T14:21:49Z</time>
      </trkpt>
      <trkpt lat="37.610455000" lon="-4.320550000">
        <ele>379.6</ele>
        <time>2020-10-13T14:21:52Z</time>
      </trkpt>
      <trkpt lat="37.610368000" lon="-4.320527000">
        <ele>380.0</ele>
        <time>2020-10-13T14:21:55Z</time>
      </trkpt>
      <trkpt lat="37.610283000" lon="-4.320510000">
        <ele>380.5</ele>
        <time>2020-10-13T14:21:58Z</time>
      </trkpt>
      <trkpt lat="37.610201000" lon="-4.320479000">
        <ele>380.9</ele>
        <time>2020-10-13T14:22:01Z</time>
      </trkpt>
      <trkpt lat="37.610111000" lon="-4.320411000">
        <ele>381.3</ele>
        <time>2020-10-13T14:22:05Z</time>
      </trkpt>
      <trkpt lat="37.610017000" lon="-4.320361000">
        <ele>381.5</ele>
        <time>2020-10-13T14:22:09Z</time>
      </trkpt>
      <trkpt lat="37.609925000" lon="-4.320319000">
        <ele>381.8</ele>
        <time>2020-10-13T14:22:13Z</time>
      </trkpt>
      <trkpt lat="37.609835000" lon="-4.320286000">
        <ele>382.0</ele>
        <time>2020-10-13T14:22:17Z</time>
      </trkpt>
      <trkpt lat="37.609742000" lon="-4.320255000">
        <ele>382.2</ele>
        <time>2020-10-13T14:22:21Z</time>
      </trkpt>
      <trkpt lat="37.609646000" lon="-4.320244000">
        <ele>382.5</ele>
        <time>2020-10-13T14:22:25Z</time>
      </trkpt>
      <trkpt lat="37.609556000" lon="-4.320233000">
        <ele>382.7</ele>
        <time>2020-10-13T14:22:29Z</time>
      </trkpt>
      <trkpt lat="37.609466000" lon="-4.320215000">
        <ele>383.1</ele>
        <time>2020-10-13T14:22:33Z</time>
      </trkpt>
      <trkpt lat="37.609386000" lon="-4.320200000">
        <ele>383.5</ele>
        <time>2020-10-13T14:22:37Z</time>
      </trkpt>
      <trkpt lat="37.609300000" lon="-4.320197000">
        <ele>384.1</ele>
        <time>2020-10-13T14:22:41Z</time>
      </trkpt>
      <trkpt lat="37.609212000" lon="-4.320190000">
        <ele>384.7</ele>
        <time>2020-10-13T14:22:45Z</time>
      </trkpt>
      <trkpt lat="37.609128000" lon="-4.320173000">
        <ele>385.5</ele>
        <time>2020-10-13T14:22:49Z</time>
      </trkpt>
      <trkpt lat="37.609043000" lon="-4.320157000">
        <ele>386.6</ele>
        <time>2020-10-13T14:22:53Z</time>
      </trkpt>
      <trkpt lat="37.608948000" lon="-4.320124000">
        <ele>387.8</ele>
        <time>2020-10-13T14:22:58Z</time>
      </trkpt>
      <trkpt lat="37.608864000" lon="-4.320066000">
        <ele>389.2</ele>
        <time>2020-10-13T14:24:19Z</time>
      </trkpt>
      <trkpt lat="37.608802000" lon="-4.319966000">
        <ele>390.5</ele>
        <time>2020-10-13T14:24:23Z</time>
      </trkpt>
      <trkpt lat="37.608760000" lon="-4.319863000">
        <ele>391.9</ele>
        <time>2020-10-13T14:24:26Z</time>
      </trkpt>
      <trkpt lat="37.608738000" lon="-4.319749000">
        <ele>393.3</ele>
        <time>2020-10-13T14:24:29Z</time>
      </trkpt>
      <trkpt lat="37.608742000" lon="-4.319638000">
        <ele>394.5</ele>
        <time>2020-10-13T14:24:32Z</time>
      </trkpt>
      <trkpt lat="37.608763000" lon="-4.319509000">
        <ele>395.5</ele>
        <time>2020-10-13T14:24:36Z</time>
      </trkpt>
      <trkpt lat="37.608818000" lon="-4.319403000">
        <ele>396.3</ele>
        <time>2020-10-13T14:24:41Z</time>
      </trkpt>
      <trkpt lat="37.608892000" lon="-4.319321000">
        <ele>397.0</ele>
        <time>2020-10-13T14:24:45Z</time>
      </trkpt>
      <trkpt lat="37.608980000" lon="-4.319270000">
        <ele>397.5</ele>
        <time>2020-10-13T14:24:49Z</time>
      </trkpt>
      <trkpt lat="37.609073000" lon="-4.319241000">
        <ele>397.8</ele>
        <time>2020-10-13T14:24:54Z</time>
      </trkpt>
      <trkpt lat="37.609156000" lon="-4.319231000">
        <ele>398.0</ele>
        <time>2020-10-13T14:25:00Z</time>
      </trkpt>
      <trkpt lat="37.609238000" lon="-4.319234000">
        <ele>398.1</ele>
        <time>2020-10-13T14:25:02Z</time>
      </trkpt>
      <trkpt lat="37.609332000" lon="-4.319223000">
        <ele>398.2</ele>
        <time>2020-10-13T14:25:06Z</time>
      </trkpt>
      <trkpt lat="37.609440000" lon="-4.319217000">
        <ele>398.3</ele>
        <time>2020-10-13T14:25:10Z</time>
      </trkpt>
      <trkpt lat="37.609535000" lon="-4.319208000">
        <ele>398.5</ele>
        <time>2020-10-13T14:25:13Z</time>
      </trkpt>
      <trkpt lat="37.609635000" lon="-4.319202000">
        <ele>398.8</ele>
        <time>2020-10-13T14:25:16Z</time>
      </trkpt>
      <trkpt lat="37.609741000" lon="-4.319193000">
        <ele>399.3</ele>
        <time>2020-10-13T14:25:19Z</time>
      </trkpt>
      <trkpt lat="37.609841000" lon="-4.319170000">
        <ele>399.8</ele>
        <time>2020-10-13T14:25:23Z</time>
      </trkpt>
      <trkpt lat="37.609932000" lon="-4.319128000">
        <ele>400.3</ele>
        <time>2020-10-13T14:25:25Z</time>
      </trkpt>
      <trkpt lat="37.610011000" lon="-4.319057000">
        <ele>400.8</ele>
        <time>2020-10-13T14:25:28Z</time>
      </trkpt>
      <trkpt lat="37.610077000" lon="-4.318975000">
        <ele>401.5</ele>
        <time>2020-10-13T14:25:31Z</time>
      </trkpt>
      <trkpt lat="37.610122000" lon="-4.318889000">
        <ele>402.5</ele>
        <time>2020-10-13T14:25:34Z</time>
      </trkpt>
      <trkpt lat="37.610143000" lon="-4.318764000">
        <ele>403.5</ele>
        <time>2020-10-13T14:25:38Z</time>
      </trkpt>
      <trkpt lat="37.610146000" lon="-4.318643000">
        <ele>404.5</ele>
        <time>2020-10-13T14:25:42Z</time>
      </trkpt>
      <trkpt lat="37.610130000" lon="-4.318526000">
        <ele>405.6</ele>
        <time>2020-10-13T14:25:46Z</time>
      </trkpt>
      <trkpt lat="37.610097000" lon="-4.318413000">
        <ele>406.7</ele>
        <time>2020-10-13T14:25:50Z</time>
      </trkpt>
      <trkpt lat="37.610040000" lon="-4.318321000">
        <ele>407.7</ele>
        <time>2020-10-13T14:25:54Z</time>
      </trkpt>
      <trkpt lat="37.609957000" lon="-4.318252000">
        <ele>408.7</ele>
        <time>2020-10-13T14:25:58Z</time>
      </trkpt>
      <trkpt lat="37.609867000" lon="-4.318198000">
        <ele>409.6</ele>
        <time>2020-10-13T14:26:02Z</time>
      </trkpt>
      <trkpt lat="37.609761000" lon="-4.318188000">
        <ele>410.6</ele>
        <time>2020-10-13T14:26:06Z</time>
      </trkpt>
      <trkpt lat="37.609659000" lon="-4.318212000">
        <ele>411.5</ele>
        <time>2020-10-13T14:26:10Z</time>
      </trkpt>
      <trkpt lat="37.609567000" lon="-4.318240000">
        <ele>412.3</ele>
        <time>2020-10-13T14:26:14Z</time>
      </trkpt>
      <trkpt lat="37.609480000" lon="-4.318279000">
        <ele>412.9</ele>
        <time>2020-10-13T14:26:18Z</time>
      </trkpt>
      <trkpt lat="37.609394000" lon="-4.318318000">
        <ele>413.4</ele>
        <time>2020-10-13T14:26:22Z</time>
      </trkpt>
      <trkpt lat="37.609305000" lon="-4.318346000">
        <ele>413.8</ele>
        <time>2020-10-13T14:26:26Z</time>
      </trkpt>
      <trkpt lat="37.609219000" lon="-4.318393000">
        <ele>414.2</ele>
        <time>2020-10-13T14:26:30Z</time>
      </trkpt>
      <trkpt lat="37.609132000" lon="-4.318426000">
        <ele>414.5</ele>
        <time>2020-10-13T14:26:34Z</time>
      </trkpt>
      <trkpt lat="37.609044000" lon="-4.318456000">
        <ele>415.0</ele>
        <time>2020-10-13T14:26:38Z</time>
      </trkpt>
      <trkpt lat="37.608956000" lon="-4.318483000">
        <ele>415.4</ele>
        <time>2020-10-13T14:26:42Z</time>
      </trkpt>
      <trkpt lat="37.608862000" lon="-4.318516000">
        <ele>415.7</ele>
        <time>2020-10-13T14:26:46Z</time>
      </trkpt>
      <trkpt lat="37.608778000" lon="-4.318537000">
        <ele>416.0</ele>
        <time>2020-10-13T14:26:50Z</time>
      </trkpt>
      <trkpt lat="37.608694000" lon="-4.318562000">
        <ele>416.2</ele>
        <time>2020-10-13T14:27:41Z</time>
      </trkpt>
      <trkpt lat="37.608600000" lon="-4.318575000">
        <ele>416.4</ele>
        <time>2020-10-13T14:27:45Z</time>
      </trkpt>
      <trkpt lat="37.608497000" lon="-4.318599000">
        <ele>416.5</ele>
        <time>2020-10-13T14:27:48Z</time>
      </trkpt>
      <trkpt lat="37.608390000" lon="-4.318616000">
        <ele>416.5</ele>
        <time>2020-10-13T14:27:51Z</time>
      </trkpt>
      <trkpt lat="37.608311000" lon="-4.318639000">
        <ele>416.4</ele>
        <time>2020-10-13T14:27:53Z</time>
      </trkpt>
      <trkpt lat="37.608226000" lon="-4.318671000">
        <ele>416.4</ele>
        <time>2020-10-13T14:27:55Z</time>
      </trkpt>
      <trkpt lat="37.608134000" lon="-4.318703000">
        <ele>416.3</ele>
        <time>2020-10-13T14:27:57Z</time>
      </trkpt>
      <trkpt lat="37.608044000" lon="-4.318721000">
        <ele>416.1</ele>
        <time>2020-10-13T14:27:59Z</time>
      </trkpt>
      <trkpt lat="37.607953000" lon="-4.318726000">
        <ele>416.1</ele>
        <time>2020-10-13T14:28:01Z</time>
      </trkpt>
      <trkpt lat="37.607870000" lon="-4.318718000">
        <ele>416.2</ele>
        <time>2020-10-13T14:28:03Z</time>
      </trkpt>
      <trkpt lat="37.607757000" lon="-4.318662000">
        <ele>416.3</ele>
        <time>2020-10-13T14:28:06Z</time>
      </trkpt>
      <trkpt lat="37.607670000" lon="-4.318567000">
        <ele>416.5</ele>
        <time>2020-10-13T14:28:09Z</time>
      </trkpt>
      <trkpt lat="37.607596000" lon="-4.318450000">
        <ele>416.6</ele>
        <time>2020-10-13T14:28:12Z</time>
      </trkpt>
      <trkpt lat="37.607555000" lon="-4.318359000">
        <ele>416.7</ele>
        <time>2020-10-13T14:28:14Z</time>
      </trkpt>
      <trkpt lat="37.607514000" lon="-4.318268000">
        <ele>416.9</ele>
        <time>2020-10-13T14:28:16Z</time>
      </trkpt>
      <trkpt lat="37.607470000" lon="-4.318175000">
        <ele>417.1</ele>
        <time>2020-10-13T14:28:18Z</time>
      </trkpt>
      <trkpt lat="37.607420000" lon="-4.318086000">
        <ele>417.2</ele>
        <time>2020-10-13T14:28:20Z</time>
      </trkpt>
      <trkpt lat="37.607357000" lon="-4.317989000">
        <ele>417.3</ele>
        <time>2020-10-13T14:28:22Z</time>
      </trkpt>
      <trkpt lat="37.607279000" lon="-4.317904000">
        <ele>417.4</ele>
        <time>2020-10-13T14:28:24Z</time>
      </trkpt>
      <trkpt lat="37.607208000" lon="-4.317813000">
        <ele>417.4</ele>
        <time>2020-10-13T14:28:26Z</time>
      </trkpt>
      <trkpt lat="37.607134000" lon="-4.317725000">
        <ele>417.3</ele>
        <time>2020-10-13T14:28:28Z</time>
      </trkpt>
      <trkpt lat="37.607060000" lon="-4.317644000">
        <ele>417.4</ele>
        <time>2020-10-13T14:28:30Z</time>
      </trkpt>
      <trkpt lat="37.606992000" lon="-4.317561000">
        <ele>417.5</ele>
        <time>2020-10-13T14:28:32Z</time>
      </trkpt>
      <trkpt lat="37.606926000" lon="-4.317478000">
        <ele>417.7</ele>
        <time>2020-10-13T14:28:34Z</time>
      </trkpt>
      <trkpt lat="37.606859000" lon="-4.317385000">
        <ele>418.0</ele>
        <time>2020-10-13T14:28:36Z</time>
      </trkpt>
      <trkpt lat="37.606818000" lon="-4.317283000">
        <ele>418.2</ele>
        <time>2020-10-13T14:28:38Z</time>
      </trkpt>
      <trkpt lat="37.606782000" lon="-4.317171000">
        <ele>418.4</ele>
        <time>2020-10-13T14:28:40Z</time>
      </trkpt>
      <trkpt lat="37.606733000" lon="-4.317069000">
        <ele>418.5</ele>
        <time>2020-10-13T14:28:42Z</time>
      </trkpt>
      <trkpt lat="37.606661000" lon="-4.316972000">
        <ele>418.5</ele>
        <time>2020-10-13T14:28:44Z</time>
      </trkpt>
      <trkpt lat="37.606572000" lon="-4.316908000">
        <ele>418.5</ele>
        <time>2020-10-13T14:28:46Z</time>
      </trkpt>
      <trkpt lat="37.606483000" lon="-4.316846000">
        <ele>418.5</ele>
        <time>2020-10-13T14:28:48Z</time>
      </trkpt>
      <trkpt lat="37.606393000" lon="-4.316780000">
        <ele>418.4</ele>
        <time>2020-10-13T14:28:50Z</time>
      </trkpt>
      <trkpt lat="37.606303000" lon="-4.316717000">
        <ele>418.1</ele>
        <time>2020-10-13T14:28:52Z</time>
      </trkpt>
      <trkpt lat="37.606210000" lon="-4.316655000">
        <ele>417.7</ele>
        <time>2020-10-13T14:28:54Z</time>
      </trkpt>
      <trkpt lat="37.606113000" lon="-4.316587000">
        <ele>417.5</ele>
        <time>2020-10-13T14:28:56Z</time>
      </trkpt>
      <trkpt lat="37.606013000" lon="-4.316521000">
        <ele>417.3</ele>
        <time>2020-10-13T14:28:58Z</time>
      </trkpt>
      <trkpt lat="37.605902000" lon="-4.316451000">
        <ele>417.3</ele>
        <time>2020-10-13T14:29:00Z</time>
      </trkpt>
      <trkpt lat="37.605792000" lon="-4.316381000">
        <ele>417.4</ele>
        <time>2020-10-13T14:29:02Z</time>
      </trkpt>
      <trkpt lat="37.605682000" lon="-4.316319000">
        <ele>417.6</ele>
        <time>2020-10-13T14:29:04Z</time>
      </trkpt>
      <trkpt lat="37.605593000" lon="-4.316263000">
        <ele>418.1</ele>
        <time>2020-10-13T14:29:06Z</time>
      </trkpt>
      <trkpt lat="37.605505000" lon="-4.316211000">
        <ele>418.6</ele>
        <time>2020-10-13T14:29:08Z</time>
      </trkpt>
      <trkpt lat="37.605427000" lon="-4.316162000">
        <ele>419.1</ele>
        <time>2020-10-13T14:29:10Z</time>
      </trkpt>
      <trkpt lat="37.605326000" lon="-4.316099000">
        <ele>419.5</ele>
        <time>2020-10-13T14:29:13Z</time>
      </trkpt>
      <trkpt lat="37.605232000" lon="-4.316036000">
        <ele>419.9</ele>
        <time>2020-10-13T14:29:16Z</time>
      </trkpt>
      <trkpt lat="37.605135000" lon="-4.315975000">
        <ele>420.4</ele>
        <time>2020-10-13T14:29:19Z</time>
      </trkpt>
      <trkpt lat="37.605033000" lon="-4.315930000">
        <ele>420.7</ele>
        <time>2020-10-13T14:29:22Z</time>
      </trkpt>
      <trkpt lat="37.604910000" lon="-4.315988000">
        <ele>421.1</ele>
        <time>2020-10-13T14:29:25Z</time>
      </trkpt>
      <trkpt lat="37.604821000" lon="-4.316000000">
        <ele>421.4</ele>
        <time>2020-10-13T14:29:27Z</time>
      </trkpt>
      <trkpt lat="37.604718000" lon="-4.315988000">
        <ele>421.6</ele>
        <time>2020-10-13T14:29:29Z</time>
      </trkpt>
      <trkpt lat="37.604617000" lon="-4.315957000">
        <ele>421.9</ele>
        <time>2020-10-13T14:29:31Z</time>
      </trkpt>
      <trkpt lat="37.604516000" lon="-4.315922000">
        <ele>422.1</ele>
        <time>2020-10-13T14:29:33Z</time>
      </trkpt>
      <trkpt lat="37.604411000" lon="-4.315875000">
        <ele>422.2</ele>
        <time>2020-10-13T14:29:35Z</time>
      </trkpt>
      <trkpt lat="37.604307000" lon="-4.315833000">
        <ele>422.5</ele>
        <time>2020-10-13T14:29:37Z</time>
      </trkpt>
      <trkpt lat="37.604191000" lon="-4.315790000">
        <ele>422.9</ele>
        <time>2020-10-13T14:29:39Z</time>
      </trkpt>
      <trkpt lat="37.604095000" lon="-4.315743000">
        <ele>423.5</ele>
        <time>2020-10-13T14:29:41Z</time>
      </trkpt>
      <trkpt lat="37.603998000" lon="-4.315706000">
        <ele>424.0</ele>
        <time>2020-10-13T14:29:44Z</time>
      </trkpt>
      <trkpt lat="37.603912000" lon="-4.315662000">
        <ele>424.5</ele>
        <time>2020-10-13T14:29:48Z</time>
      </trkpt>
      <trkpt lat="37.603819000" lon="-4.315606000">
        <ele>425.1</ele>
        <time>2020-10-13T14:29:53Z</time>
      </trkpt>
      <trkpt lat="37.603747000" lon="-4.315545000">
        <ele>425.8</ele>
        <time>2020-10-13T14:29:58Z</time>
      </trkpt>
      <trkpt lat="37.603687000" lon="-4.315458000">
        <ele>426.5</ele>
        <time>2020-10-13T14:30:04Z</time>
      </trkpt>
      <trkpt lat="37.603688000" lon="-4.315344000">
        <ele>427.1</ele>
        <time>2020-10-13T14:30:09Z</time>
      </trkpt>
      <trkpt lat="37.603729000" lon="-4.315246000">
        <ele>427.8</ele>
        <time>2020-10-13T14:30:14Z</time>
      </trkpt>
      <trkpt lat="37.603769000" lon="-4.315152000">
        <ele>428.6</ele>
        <time>2020-10-13T14:30:19Z</time>
      </trkpt>
      <trkpt lat="37.603757000" lon="-4.315031000">
        <ele>429.5</ele>
        <time>2020-10-13T14:30:24Z</time>
      </trkpt>
      <trkpt lat="37.603684000" lon="-4.314970000">
        <ele>430.3</ele>
        <time>2020-10-13T14:30:28Z</time>
      </trkpt>
      <trkpt lat="37.603599000" lon="-4.314917000">
        <ele>431.1</ele>
        <time>2020-10-13T14:30:32Z</time>
      </trkpt>
      <trkpt lat="37.603512000" lon="-4.314868000">
        <ele>431.9</ele>
        <time>2020-10-13T14:30:36Z</time>
      </trkpt>
      <trkpt lat="37.603435000" lon="-4.314798000">
        <ele>432.7</ele>
        <time>2020-10-13T14:30:40Z</time>
      </trkpt>
      <trkpt lat="37.603351000" lon="-4.314727000">
        <ele>433.5</ele>
        <time>2020-10-13T14:30:44Z</time>
      </trkpt>
      <trkpt lat="37.603269000" lon="-4.314668000">
        <ele>434.2</ele>
        <time>2020-10-13T14:30:48Z</time>
      </trkpt>
      <trkpt lat="37.603182000" lon="-4.314606000">
        <ele>434.8</ele>
        <time>2020-10-13T14:30:52Z</time>
      </trkpt>
      <trkpt lat="37.603108000" lon="-4.314556000">
        <ele>435.4</ele>
        <time>2020-10-13T14:30:55Z</time>
      </trkpt>
      <trkpt lat="37.603023000" lon="-4.314491000">
        <ele>435.9</ele>
        <time>2020-10-13T14:30:59Z</time>
      </trkpt>
      <trkpt lat="37.602943000" lon="-4.314431000">
        <ele>436.4</ele>
        <time>2020-10-13T14:31:03Z</time>
      </trkpt>
      <trkpt lat="37.602869000" lon="-4.314371000">
        <ele>436.7</ele>
        <time>2020-10-13T14:31:08Z</time>
      </trkpt>
      <trkpt lat="37.602784000" lon="-4.314317000">
        <ele>437.0</ele>
        <time>2020-10-13T14:31:47Z</time>
      </trkpt>
      <trkpt lat="37.602697000" lon="-4.314252000">
        <ele>437.3</ele>
        <time>2020-10-13T14:31:50Z</time>
      </trkpt>
      <trkpt lat="37.602616000" lon="-4.314137000">
        <ele>437.4</ele>
        <time>2020-10-13T14:31:53Z</time>
      </trkpt>
      <trkpt lat="37.602582000" lon="-4.314043000">
        <ele>437.5</ele>
        <time>2020-10-13T14:31:55Z</time>
      </trkpt>
      <trkpt lat="37.602537000" lon="-4.313944000">
        <ele>437.5</ele>
        <time>2020-10-13T14:31:57Z</time>
      </trkpt>
      <trkpt lat="37.602501000" lon="-4.313838000">
        <ele>437.4</ele>
        <time>2020-10-13T14:31:59Z</time>
      </trkpt>
      <trkpt lat="37.602468000" lon="-4.313726000">
        <ele>437.3</ele>
        <time>2020-10-13T14:32:01Z</time>
      </trkpt>
      <trkpt lat="37.602444000" lon="-4.313611000">
        <ele>437.2</ele>
        <time>2020-10-13T14:32:03Z</time>
      </trkpt>
      <trkpt lat="37.602413000" lon="-4.313496000">
        <ele>437.0</ele>
        <time>2020-10-13T14:32:05Z</time>
      </trkpt>
      <trkpt lat="37.602386000" lon="-4.313376000">
        <ele>436.7</ele>
        <time>2020-10-13T14:32:07Z</time>
      </trkpt>
      <trkpt lat="37.602369000" lon="-4.313247000">
        <ele>436.5</ele>
        <time>2020-10-13T14:32:09Z</time>
      </trkpt>
      <trkpt lat="37.602371000" lon="-4.313124000">
        <ele>436.2</ele>
        <time>2020-10-13T14:32:11Z</time>
      </trkpt>
      <trkpt lat="37.602378000" lon="-4.313003000">
        <ele>436.0</ele>
        <time>2020-10-13T14:32:13Z</time>
      </trkpt>
      <trkpt lat="37.602383000" lon="-4.312879000">
        <ele>435.9</ele>
        <time>2020-10-13T14:32:15Z</time>
      </trkpt>
      <trkpt lat="37.602388000" lon="-4.312755000">
        <ele>435.8</ele>
        <time>2020-10-13T14:32:17Z</time>
      </trkpt>
      <trkpt lat="37.602388000" lon="-4.312633000">
        <ele>435.7</ele>
        <time>2020-10-13T14:32:19Z</time>
      </trkpt>
      <trkpt lat="37.602379000" lon="-4.312510000">
        <ele>435.8</ele>
        <time>2020-10-13T14:32:21Z</time>
      </trkpt>
      <trkpt lat="37.602368000" lon="-4.312383000">
        <ele>435.9</ele>
        <time>2020-10-13T14:32:23Z</time>
      </trkpt>
      <trkpt lat="37.602364000" lon="-4.312262000">
        <ele>436.0</ele>
        <time>2020-10-13T14:32:25Z</time>
      </trkpt>
      <trkpt lat="37.602361000" lon="-4.312144000">
        <ele>436.1</ele>
        <time>2020-10-13T14:32:27Z</time>
      </trkpt>
      <trkpt lat="37.602350000" lon="-4.312021000">
        <ele>436.3</ele>
        <time>2020-10-13T14:32:29Z</time>
      </trkpt>
      <trkpt lat="37.602343000" lon="-4.311890000">
        <ele>436.5</ele>
        <time>2020-10-13T14:32:31Z</time>
      </trkpt>
      <trkpt lat="37.602337000" lon="-4.311754000">
        <ele>436.6</ele>
        <time>2020-10-13T14:32:33Z</time>
      </trkpt>
      <trkpt lat="37.602329000" lon="-4.311628000">
        <ele>436.8</ele>
        <time>2020-10-13T14:32:35Z</time>
      </trkpt>
      <trkpt lat="37.602316000" lon="-4.311497000">
        <ele>437.1</ele>
        <time>2020-10-13T14:32:37Z</time>
      </trkpt>
      <trkpt lat="37.602307000" lon="-4.311368000">
        <ele>437.5</ele>
        <time>2020-10-13T14:32:39Z</time>
      </trkpt>
      <trkpt lat="37.602295000" lon="-4.311234000">
        <ele>437.8</ele>
        <time>2020-10-13T14:32:41Z</time>
      </trkpt>
      <trkpt lat="37.602283000" lon="-4.311109000">
        <ele>438.1</ele>
        <time>2020-10-13T14:32:43Z</time>
      </trkpt>
      <trkpt lat="37.602273000" lon="-4.310977000">
        <ele>438.4</ele>
        <time>2020-10-13T14:32:45Z</time>
      </trkpt>
      <trkpt lat="37.602261000" lon="-4.310845000">
        <ele>438.6</ele>
        <time>2020-10-13T14:32:47Z</time>
      </trkpt>
      <trkpt lat="37.602245000" lon="-4.310713000">
        <ele>438.9</ele>
        <time>2020-10-13T14:32:49Z</time>
      </trkpt>
      <trkpt lat="37.602231000" lon="-4.310587000">
        <ele>439.1</ele>
        <time>2020-10-13T14:32:51Z</time>
      </trkpt>
      <trkpt lat="37.602204000" lon="-4.310463000">
        <ele>439.3</ele>
        <time>2020-10-13T14:32:53Z</time>
      </trkpt>
      <trkpt lat="37.602174000" lon="-4.310342000">
        <ele>439.5</ele>
        <time>2020-10-13T14:32:55Z</time>
      </trkpt>
      <trkpt lat="37.602142000" lon="-4.310225000">
        <ele>439.5</ele>
        <time>2020-10-13T14:32:57Z</time>
      </trkpt>
      <trkpt lat="37.602106000" lon="-4.310107000">
        <ele>439.5</ele>
        <time>2020-10-13T14:32:59Z</time>
      </trkpt>
      <trkpt lat="37.602069000" lon="-4.309989000">
        <ele>439.5</ele>
        <time>2020-10-13T14:33:01Z</time>
      </trkpt>
      <trkpt lat="37.602041000" lon="-4.309870000">
        <ele>439.5</ele>
        <time>2020-10-13T14:33:03Z</time>
      </trkpt>
      <trkpt lat="37.602026000" lon="-4.309750000">
        <ele>439.5</ele>
        <time>2020-10-13T14:33:05Z</time>
      </trkpt>
      <trkpt lat="37.602026000" lon="-4.309633000">
        <ele>439.5</ele>
        <time>2020-10-13T14:33:07Z</time>
      </trkpt>
      <trkpt lat="37.602030000" lon="-4.309525000">
        <ele>439.5</ele>
        <time>2020-10-13T14:33:09Z</time>
      </trkpt>
      <trkpt lat="37.602041000" lon="-4.309379000">
        <ele>439.4</ele>
        <time>2020-10-13T14:33:12Z</time>
      </trkpt>
      <trkpt lat="37.602024000" lon="-4.309240000">
        <ele>439.4</ele>
        <time>2020-10-13T14:33:15Z</time>
      </trkpt>
      <trkpt lat="37.601982000" lon="-4.309091000">
        <ele>439.4</ele>
        <time>2020-10-13T14:33:18Z</time>
      </trkpt>
      <trkpt lat="37.601975000" lon="-4.308970000">
        <ele>439.3</ele>
        <time>2020-10-13T14:33:20Z</time>
      </trkpt>
      <trkpt lat="37.601981000" lon="-4.308852000">
        <ele>439.2</ele>
        <time>2020-10-13T14:33:22Z</time>
      </trkpt>
      <trkpt lat="37.601989000" lon="-4.308735000">
        <ele>439.1</ele>
        <time>2020-10-13T14:33:24Z</time>
      </trkpt>
      <trkpt lat="37.601996000" lon="-4.308617000">
        <ele>438.8</ele>
        <time>2020-10-13T14:33:26Z</time>
      </trkpt>
      <trkpt lat="37.602005000" lon="-4.308499000">
        <ele>438.5</ele>
        <time>2020-10-13T14:33:28Z</time>
      </trkpt>
      <trkpt lat="37.602007000" lon="-4.308383000">
        <ele>438.0</ele>
        <time>2020-10-13T14:33:30Z</time>
      </trkpt>
      <trkpt lat="37.602006000" lon="-4.308259000">
        <ele>437.5</ele>
        <time>2020-10-13T14:33:32Z</time>
      </trkpt>
      <trkpt lat="37.602000000" lon="-4.308138000">
        <ele>436.8</ele>
        <time>2020-10-13T14:33:34Z</time>
      </trkpt>
      <trkpt lat="37.601999000" lon="-4.308012000">
        <ele>436.1</ele>
        <time>2020-10-13T14:33:36Z</time>
      </trkpt>
      <trkpt lat="37.601988000" lon="-4.307885000">
        <ele>435.4</ele>
        <time>2020-10-13T14:33:38Z</time>
      </trkpt>
      <trkpt lat="37.601974000" lon="-4.307759000">
        <ele>434.7</ele>
        <time>2020-10-13T14:33:40Z</time>
      </trkpt>
      <trkpt lat="37.601944000" lon="-4.307619000">
        <ele>434.2</ele>
        <time>2020-10-13T14:33:42Z</time>
      </trkpt>
      <trkpt lat="37.601903000" lon="-4.307463000">
        <ele>433.7</ele>
        <time>2020-10-13T14:33:44Z</time>
      </trkpt>
      <trkpt lat="37.601858000" lon="-4.307312000">
        <ele>433.4</ele>
        <time>2020-10-13T14:33:46Z</time>
      </trkpt>
      <trkpt lat="37.601811000" lon="-4.307169000">
        <ele>433.2</ele>
        <time>2020-10-13T14:33:48Z</time>
      </trkpt>
      <trkpt lat="37.601767000" lon="-4.307033000">
        <ele>433.2</ele>
        <time>2020-10-13T14:33:50Z</time>
      </trkpt>
      <trkpt lat="37.601714000" lon="-4.306902000">
        <ele>433.4</ele>
        <time>2020-10-13T14:33:52Z</time>
      </trkpt>
      <trkpt lat="37.601658000" lon="-4.306768000">
        <ele>433.7</ele>
        <time>2020-10-13T14:33:54Z</time>
      </trkpt>
      <trkpt lat="37.601602000" lon="-4.306636000">
        <ele>434.3</ele>
        <time>2020-10-13T14:33:56Z</time>
      </trkpt>
      <trkpt lat="37.601541000" lon="-4.306510000">
        <ele>434.9</ele>
        <time>2020-10-13T14:33:58Z</time>
      </trkpt>
      <trkpt lat="37.601478000" lon="-4.306388000">
        <ele>435.6</ele>
        <time>2020-10-13T14:34:00Z</time>
      </trkpt>
      <trkpt lat="37.601416000" lon="-4.306277000">
        <ele>436.3</ele>
        <time>2020-10-13T14:34:03Z</time>
      </trkpt>
      <trkpt lat="37.601361000" lon="-4.306176000">
        <ele>436.9</ele>
        <time>2020-10-13T14:34:04Z</time>
      </trkpt>
      <trkpt lat="37.601310000" lon="-4.306089000">
        <ele>437.5</ele>
        <time>2020-10-13T14:34:06Z</time>
      </trkpt>
      <trkpt lat="37.601253000" lon="-4.305981000">
        <ele>437.9</ele>
        <time>2020-10-13T14:34:09Z</time>
      </trkpt>
      <trkpt lat="37.601296000" lon="-4.305890000">
        <ele>438.4</ele>
        <time>2020-10-13T14:34:17Z</time>
      </trkpt>
      <trkpt lat="37.601359000" lon="-4.305825000">
        <ele>438.7</ele>
        <time>2020-10-13T14:34:24Z</time>
      </trkpt>
      <trkpt lat="37.601339000" lon="-4.305723000">
        <ele>439.1</ele>
        <time>2020-10-13T14:34:28Z</time>
      </trkpt>
      <trkpt lat="37.601327000" lon="-4.305603000">
        <ele>439.5</ele>
        <time>2020-10-13T14:34:32Z</time>
      </trkpt>
      <trkpt lat="37.601315000" lon="-4.305501000">
        <ele>439.9</ele>
        <time>2020-10-13T14:34:35Z</time>
      </trkpt>
      <trkpt lat="37.601304000" lon="-4.305368000">
        <ele>440.4</ele>
        <time>2020-10-13T14:34:39Z</time>
      </trkpt>
      <trkpt lat="37.601288000" lon="-4.305260000">
        <ele>440.8</ele>
        <time>2020-10-13T14:34:42Z</time>
      </trkpt>
      <trkpt lat="37.601290000" lon="-4.305145000">
        <ele>441.3</ele>
        <time>2020-10-13T14:34:45Z</time>
      </trkpt>
      <trkpt lat="37.601283000" lon="-4.305029000">
        <ele>441.7</ele>
        <time>2020-10-13T14:34:48Z</time>
      </trkpt>
      <trkpt lat="37.601277000" lon="-4.304910000">
        <ele>442.2</ele>
        <time>2020-10-13T14:34:51Z</time>
      </trkpt>
      <trkpt lat="37.601264000" lon="-4.304786000">
        <ele>442.5</ele>
        <time>2020-10-13T14:34:54Z</time>
      </trkpt>
      <trkpt lat="37.601233000" lon="-4.304669000">
        <ele>442.8</ele>
        <time>2020-10-13T14:34:57Z</time>
      </trkpt>
      <trkpt lat="37.601155000" lon="-4.304593000">
        <ele>443.2</ele>
        <time>2020-10-13T14:35:00Z</time>
      </trkpt>
      <trkpt lat="37.601075000" lon="-4.304549000">
        <ele>443.5</ele>
        <time>2020-10-13T14:35:03Z</time>
      </trkpt>
      <trkpt lat="37.600984000" lon="-4.304539000">
        <ele>443.6</ele>
        <time>2020-10-13T14:35:06Z</time>
      </trkpt>
      <trkpt lat="37.600891000" lon="-4.304545000">
        <ele>443.8</ele>
        <time>2020-10-13T14:35:09Z</time>
      </trkpt>
      <trkpt lat="37.600798000" lon="-4.304541000">
        <ele>444.0</ele>
        <time>2020-10-13T14:35:12Z</time>
      </trkpt>
      <trkpt lat="37.600702000" lon="-4.304517000">
        <ele>444.2</ele>
        <time>2020-10-13T14:35:15Z</time>
      </trkpt>
      <trkpt lat="37.600626000" lon="-4.304448000">
        <ele>444.4</ele>
        <time>2020-10-13T14:35:18Z</time>
      </trkpt>
      <trkpt lat="37.600600000" lon="-4.304327000">
        <ele>444.5</ele>
        <time>2020-10-13T14:35:21Z</time>
      </trkpt>
      <trkpt lat="37.600596000" lon="-4.304197000">
        <ele>444.8</ele>
        <time>2020-10-13T14:35:24Z</time>
      </trkpt>
      <trkpt lat="37.600595000" lon="-4.304067000">
        <ele>445.2</ele>
        <time>2020-10-13T14:35:27Z</time>
      </trkpt>
      <trkpt lat="37.600598000" lon="-4.303951000">
        <ele>445.5</ele>
        <time>2020-10-13T14:35:30Z</time>
      </trkpt>
      <trkpt lat="37.600566000" lon="-4.303830000">
        <ele>445.8</ele>
        <time>2020-10-13T14:35:34Z</time>
      </trkpt>
      <trkpt lat="37.600480000" lon="-4.303770000">
        <ele>446.1</ele>
        <time>2020-10-13T14:35:37Z</time>
      </trkpt>
      <trkpt lat="37.600355000" lon="-4.303735000">
        <ele>446.4</ele>
        <time>2020-10-13T14:35:39Z</time>
      </trkpt>
      <trkpt lat="37.600199000" lon="-4.303706000">
        <ele>446.5</ele>
        <time>2020-10-13T14:35:41Z</time>
      </trkpt>
      <trkpt lat="37.600116000" lon="-4.303703000">
        <ele>446.8</ele>
        <time>2020-10-13T14:35:42Z</time>
      </trkpt>
      <trkpt lat="37.599976000" lon="-4.303717000">
        <ele>447.0</ele>
        <time>2020-10-13T14:35:44Z</time>
      </trkpt>
      <trkpt lat="37.599873000" lon="-4.303748000">
        <ele>447.2</ele>
        <time>2020-10-13T14:35:46Z</time>
      </trkpt>
      <trkpt lat="37.599784000" lon="-4.303757000">
        <ele>447.4</ele>
        <time>2020-10-13T14:35:48Z</time>
      </trkpt>
      <trkpt lat="37.599685000" lon="-4.303759000">
        <ele>447.5</ele>
        <time>2020-10-13T14:35:51Z</time>
      </trkpt>
      <trkpt lat="37.599590000" lon="-4.303767000">
        <ele>447.7</ele>
        <time>2020-10-13T14:35:54Z</time>
      </trkpt>
      <trkpt lat="37.599484000" lon="-4.303770000">
        <ele>448.1</ele>
        <time>2020-10-13T14:35:58Z</time>
      </trkpt>
      <trkpt lat="37.599401000" lon="-4.303752000">
        <ele>448.5</ele>
        <time>2020-10-13T14:36:01Z</time>
      </trkpt>
      <trkpt lat="37.599320000" lon="-4.303736000">
        <ele>449.1</ele>
        <time>2020-10-13T14:36:04Z</time>
      </trkpt>
      <trkpt lat="37.599216000" lon="-4.303718000">
        <ele>449.7</ele>
        <time>2020-10-13T14:36:08Z</time>
      </trkpt>
      <trkpt lat="37.599120000" lon="-4.303708000">
        <ele>450.5</ele>
        <time>2020-10-13T14:36:12Z</time>
      </trkpt>
      <trkpt lat="37.599013000" lon="-4.303702000">
        <ele>451.2</ele>
        <time>2020-10-13T14:36:16Z</time>
      </trkpt>
      <trkpt lat="37.598912000" lon="-4.303676000">
        <ele>451.9</ele>
        <time>2020-10-13T14:36:20Z</time>
      </trkpt>
      <trkpt lat="37.598815000" lon="-4.303635000">
        <ele>452.7</ele>
        <time>2020-10-13T14:36:24Z</time>
      </trkpt>
      <trkpt lat="37.598720000" lon="-4.303601000">
        <ele>453.6</ele>
        <time>2020-10-13T14:36:28Z</time>
      </trkpt>
      <trkpt lat="37.598644000" lon="-4.303558000">
        <ele>454.5</ele>
        <time>2020-10-13T14:36:32Z</time>
      </trkpt>
      <trkpt lat="37.598562000" lon="-4.303490000">
        <ele>455.5</ele>
        <time>2020-10-13T14:36:37Z</time>
      </trkpt>
      <trkpt lat="37.598488000" lon="-4.303407000">
        <ele>456.5</ele>
        <time>2020-10-13T14:36:42Z</time>
      </trkpt>
      <trkpt lat="37.598421000" lon="-4.303337000">
        <ele>457.5</ele>
        <time>2020-10-13T14:36:47Z</time>
      </trkpt>
      <trkpt lat="37.598360000" lon="-4.303246000">
        <ele>458.6</ele>
        <time>2020-10-13T14:36:54Z</time>
      </trkpt>
      <trkpt lat="37.598310000" lon="-4.303157000">
        <ele>459.7</ele>
        <time>2020-10-13T14:36:59Z</time>
      </trkpt>
      <trkpt lat="37.598241000" lon="-4.303083000">
        <ele>460.8</ele>
        <time>2020-10-13T14:37:06Z</time>
      </trkpt>
      <trkpt lat="37.598184000" lon="-4.303003000">
        <ele>461.9</ele>
        <time>2020-10-13T14:37:12Z</time>
      </trkpt>
      <trkpt lat="37.598106000" lon="-4.302927000">
        <ele>463.2</ele>
        <time>2020-10-13T14:37:18Z</time>
      </trkpt>
      <trkpt lat="37.598042000" lon="-4.302864000">
        <ele>464.5</ele>
        <time>2020-10-13T14:37:22Z</time>
      </trkpt>
      <trkpt lat="37.597975000" lon="-4.302795000">
        <ele>465.7</ele>
        <time>2020-10-13T14:37:26Z</time>
      </trkpt>
      <trkpt lat="37.597908000" lon="-4.302718000">
        <ele>467.0</ele>
        <time>2020-10-13T14:37:30Z</time>
      </trkpt>
      <trkpt lat="37.597842000" lon="-4.302624000">
        <ele>468.3</ele>
        <time>2020-10-13T14:37:35Z</time>
      </trkpt>
      <trkpt lat="37.597789000" lon="-4.302527000">
        <ele>469.5</ele>
        <time>2020-10-13T14:37:41Z</time>
      </trkpt>
      <trkpt lat="37.597743000" lon="-4.302430000">
        <ele>470.5</ele>
        <time>2020-10-13T14:37:48Z</time>
      </trkpt>
      <trkpt lat="37.597672000" lon="-4.302376000">
        <ele>471.5</ele>
        <time>2020-10-13T14:37:53Z</time>
      </trkpt>
      <trkpt lat="37.597585000" lon="-4.302318000">
        <ele>472.3</ele>
        <time>2020-10-13T14:37:57Z</time>
      </trkpt>
      <trkpt lat="37.597511000" lon="-4.302258000">
        <ele>473.0</ele>
        <time>2020-10-13T14:38:01Z</time>
      </trkpt>
      <trkpt lat="37.597440000" lon="-4.302190000">
        <ele>473.6</ele>
        <time>2020-10-13T14:38:04Z</time>
      </trkpt>
      <trkpt lat="37.597373000" lon="-4.302126000">
        <ele>474.1</ele>
        <time>2020-10-13T14:38:09Z</time>
      </trkpt>
      <trkpt lat="37.597299000" lon="-4.302065000">
        <ele>474.5</ele>
        <time>2020-10-13T14:38:15Z</time>
      </trkpt>
      <trkpt lat="37.597212000" lon="-4.302002000">
        <ele>474.7</ele>
        <time>2020-10-13T14:38:20Z</time>
      </trkpt>
      <trkpt lat="37.597132000" lon="-4.301943000">
        <ele>474.9</ele>
        <time>2020-10-13T14:38:24Z</time>
      </trkpt>
      <trkpt lat="37.597048000" lon="-4.301881000">
        <ele>475.0</ele>
        <time>2020-10-13T14:38:28Z</time>
      </trkpt>
      <trkpt lat="37.596971000" lon="-4.301818000">
        <ele>474.9</ele>
        <time>2020-10-13T14:38:31Z</time>
      </trkpt>
      <trkpt lat="37.596891000" lon="-4.301741000">
        <ele>474.7</ele>
        <time>2020-10-13T14:38:34Z</time>
      </trkpt>
      <trkpt lat="37.596797000" lon="-4.301662000">
        <ele>474.5</ele>
        <time>2020-10-13T14:38:37Z</time>
      </trkpt>
      <trkpt lat="37.596724000" lon="-4.301607000">
        <ele>474.2</ele>
        <time>2020-10-13T14:38:39Z</time>
      </trkpt>
      <trkpt lat="37.596650000" lon="-4.301554000">
        <ele>473.6</ele>
        <time>2020-10-13T14:38:41Z</time>
      </trkpt>
      <trkpt lat="37.596569000" lon="-4.301513000">
        <ele>472.9</ele>
        <time>2020-10-13T14:38:43Z</time>
      </trkpt>
      <trkpt lat="37.596481000" lon="-4.301470000">
        <ele>471.9</ele>
        <time>2020-10-13T14:38:45Z</time>
      </trkpt>
      <trkpt lat="37.596393000" lon="-4.301423000">
        <ele>470.7</ele>
        <time>2020-10-13T14:38:47Z</time>
      </trkpt>
      <trkpt lat="37.596288000" lon="-4.301385000">
        <ele>469.3</ele>
        <time>2020-10-13T14:38:49Z</time>
      </trkpt>
      <trkpt lat="37.596176000" lon="-4.301351000">
        <ele>467.6</ele>
        <time>2020-10-13T14:38:51Z</time>
      </trkpt>
      <trkpt lat="37.596061000" lon="-4.301338000">
        <ele>465.8</ele>
        <time>2020-10-13T14:38:53Z</time>
      </trkpt>
      <trkpt lat="37.595938000" lon="-4.301317000">
        <ele>463.9</ele>
        <time>2020-10-13T14:38:55Z</time>
      </trkpt>
      <trkpt lat="37.595801000" lon="-4.301304000">
        <ele>461.9</ele>
        <time>2020-10-13T14:38:57Z</time>
      </trkpt>
      <trkpt lat="37.595656000" lon="-4.301286000">
        <ele>459.8</ele>
        <time>2020-10-13T14:38:59Z</time>
      </trkpt>
      <trkpt lat="37.595511000" lon="-4.301260000">
        <ele>457.9</ele>
        <time>2020-10-13T14:39:01Z</time>
      </trkpt>
      <trkpt lat="37.595376000" lon="-4.301234000">
        <ele>456.0</ele>
        <time>2020-10-13T14:39:03Z</time>
      </trkpt>
      <trkpt lat="37.595231000" lon="-4.301188000">
        <ele>454.3</ele>
        <time>2020-10-13T14:39:05Z</time>
      </trkpt>
      <trkpt lat="37.595096000" lon="-4.301139000">
        <ele>452.8</ele>
        <time>2020-10-13T14:39:07Z</time>
      </trkpt>
      <trkpt lat="37.594956000" lon="-4.301074000">
        <ele>451.5</ele>
        <time>2020-10-13T14:39:09Z</time>
      </trkpt>
      <trkpt lat="37.594823000" lon="-4.300983000">
        <ele>450.5</ele>
        <time>2020-10-13T14:39:11Z</time>
      </trkpt>
      <trkpt lat="37.594690000" lon="-4.300875000">
        <ele>449.5</ele>
        <time>2020-10-13T14:39:13Z</time>
      </trkpt>
      <trkpt lat="37.594561000" lon="-4.300749000">
        <ele>448.7</ele>
        <time>2020-10-13T14:39:15Z</time>
      </trkpt>
      <trkpt lat="37.594439000" lon="-4.300625000">
        <ele>448.1</ele>
        <time>2020-10-13T14:39:17Z</time>
      </trkpt>
      <trkpt lat="37.594371000" lon="-4.300559000">
        <ele>447.6</ele>
        <time>2020-10-13T14:39:18Z</time>
      </trkpt>
      <trkpt lat="37.594303000" lon="-4.300491000">
        <ele>447.3</ele>
        <time>2020-10-13T14:39:19Z</time>
      </trkpt>
      <trkpt lat="37.594237000" lon="-4.300422000">
        <ele>447.0</ele>
        <time>2020-10-13T14:39:20Z</time>
      </trkpt>
      <trkpt lat="37.594170000" lon="-4.300354000">
        <ele>446.9</ele>
        <time>2020-10-13T14:39:21Z</time>
      </trkpt>
      <trkpt lat="37.594105000" lon="-4.300286000">
        <ele>446.8</ele>
        <time>2020-10-13T14:39:22Z</time>
      </trkpt>
      <trkpt lat="37.594041000" lon="-4.300217000">
        <ele>446.7</ele>
        <time>2020-10-13T14:39:23Z</time>
      </trkpt>
      <trkpt lat="37.593978000" lon="-4.300147000">
        <ele>446.6</ele>
        <time>2020-10-13T14:39:24Z</time>
      </trkpt>
      <trkpt lat="37.593916000" lon="-4.300078000">
        <ele>446.6</ele>
        <time>2020-10-13T14:39:25Z</time>
      </trkpt>
      <trkpt lat="37.593852000" lon="-4.300009000">
        <ele>446.5</ele>
        <time>2020-10-13T14:39:26Z</time>
      </trkpt>
      <trkpt lat="37.593792000" lon="-4.299939000">
        <ele>446.5</ele>
        <time>2020-10-13T14:39:27Z</time>
      </trkpt>
      <trkpt lat="37.593673000" lon="-4.299801000">
        <ele>446.5</ele>
        <time>2020-10-13T14:39:29Z</time>
      </trkpt>
      <trkpt lat="37.593557000" lon="-4.299664000">
        <ele>446.6</ele>
        <time>2020-10-13T14:39:31Z</time>
      </trkpt>
      <trkpt lat="37.593453000" lon="-4.299534000">
        <ele>446.7</ele>
        <time>2020-10-13T14:39:33Z</time>
      </trkpt>
      <trkpt lat="37.593361000" lon="-4.299408000">
        <ele>446.7</ele>
        <time>2020-10-13T14:39:35Z</time>
      </trkpt>
      <trkpt lat="37.593267000" lon="-4.299292000">
        <ele>446.7</ele>
        <time>2020-10-13T14:39:37Z</time>
      </trkpt>
      <trkpt lat="37.593185000" lon="-4.299175000">
        <ele>446.7</ele>
        <time>2020-10-13T14:39:39Z</time>
      </trkpt>
      <trkpt lat="37.593104000" lon="-4.299053000">
        <ele>446.7</ele>
        <time>2020-10-13T14:39:41Z</time>
      </trkpt>
      <trkpt lat="37.593023000" lon="-4.298946000">
        <ele>446.8</ele>
        <time>2020-10-13T14:39:43Z</time>
      </trkpt>
      <trkpt lat="37.592946000" lon="-4.298840000">
        <ele>446.9</ele>
        <time>2020-10-13T14:39:46Z</time>
      </trkpt>
      <trkpt lat="37.592883000" lon="-4.298730000">
        <ele>447.1</ele>
        <time>2020-10-13T14:39:47Z</time>
      </trkpt>
      <trkpt lat="37.592817000" lon="-4.298630000">
        <ele>447.3</ele>
        <time>2020-10-13T14:39:49Z</time>
      </trkpt>
      <trkpt lat="37.592755000" lon="-4.298530000">
        <ele>447.5</ele>
        <time>2020-10-13T14:39:51Z</time>
      </trkpt>
      <trkpt lat="37.592692000" lon="-4.298431000">
        <ele>447.5</ele>
        <time>2020-10-13T14:39:53Z</time>
      </trkpt>
      <trkpt lat="37.592626000" lon="-4.298330000">
        <ele>447.6</ele>
        <time>2020-10-13T14:39:55Z</time>
      </trkpt>
      <trkpt lat="37.592564000" lon="-4.298226000">
        <ele>447.7</ele>
        <time>2020-10-13T14:39:57Z</time>
      </trkpt>
      <trkpt lat="37.592496000" lon="-4.298118000">
        <ele>447.8</ele>
        <time>2020-10-13T14:39:59Z</time>
      </trkpt>
      <trkpt lat="37.592429000" lon="-4.298016000">
        <ele>447.9</ele>
        <time>2020-10-13T14:40:01Z</time>
      </trkpt>
      <trkpt lat="37.592359000" lon="-4.297918000">
        <ele>448.0</ele>
        <time>2020-10-13T14:40:03Z</time>
      </trkpt>
      <trkpt lat="37.592284000" lon="-4.297813000">
        <ele>448.0</ele>
        <time>2020-10-13T14:40:05Z</time>
      </trkpt>
      <trkpt lat="37.592216000" lon="-4.297716000">
        <ele>448.0</ele>
        <time>2020-10-13T14:40:07Z</time>
      </trkpt>
      <trkpt lat="37.592150000" lon="-4.297621000">
        <ele>448.1</ele>
        <time>2020-10-13T14:40:09Z</time>
      </trkpt>
      <trkpt lat="37.592079000" lon="-4.297529000">
        <ele>448.2</ele>
        <time>2020-10-13T14:40:11Z</time>
      </trkpt>
      <trkpt lat="37.592013000" lon="-4.297438000">
        <ele>448.4</ele>
        <time>2020-10-13T14:40:13Z</time>
      </trkpt>
      <trkpt lat="37.591943000" lon="-4.297354000">
        <ele>448.5</ele>
        <time>2020-10-13T14:40:15Z</time>
      </trkpt>
      <trkpt lat="37.591873000" lon="-4.297265000">
        <ele>448.7</ele>
        <time>2020-10-13T14:40:17Z</time>
      </trkpt>
      <trkpt lat="37.591815000" lon="-4.297183000">
        <ele>448.9</ele>
        <time>2020-10-13T14:40:19Z</time>
      </trkpt>
      <trkpt lat="37.591758000" lon="-4.297109000">
        <ele>449.1</ele>
        <time>2020-10-13T14:40:21Z</time>
      </trkpt>
      <trkpt lat="37.591703000" lon="-4.297029000">
        <ele>449.4</ele>
        <time>2020-10-13T14:40:23Z</time>
      </trkpt>
      <trkpt lat="37.591626000" lon="-4.296921000">
        <ele>449.6</ele>
        <time>2020-10-13T14:40:26Z</time>
      </trkpt>
      <trkpt lat="37.591559000" lon="-4.296816000">
        <ele>449.9</ele>
        <time>2020-10-13T14:40:29Z</time>
      </trkpt>
      <trkpt lat="37.591484000" lon="-4.296711000">
        <ele>450.2</ele>
        <time>2020-10-13T14:40:32Z</time>
      </trkpt>
      <trkpt lat="37.591435000" lon="-4.296618000">
        <ele>450.4</ele>
        <time>2020-10-13T14:40:34Z</time>
      </trkpt>
      <trkpt lat="37.591381000" lon="-4.296490000">
        <ele>450.5</ele>
        <time>2020-10-13T14:40:37Z</time>
      </trkpt>
      <trkpt lat="37.591342000" lon="-4.296354000">
        <ele>450.6</ele>
        <time>2020-10-13T14:40:40Z</time>
      </trkpt>
      <trkpt lat="37.591306000" lon="-4.296221000">
        <ele>450.6</ele>
        <time>2020-10-13T14:40:43Z</time>
      </trkpt>
      <trkpt lat="37.591277000" lon="-4.296093000">
        <ele>450.6</ele>
        <time>2020-10-13T14:40:46Z</time>
      </trkpt>
      <trkpt lat="37.591255000" lon="-4.295954000">
        <ele>450.7</ele>
        <time>2020-10-13T14:40:49Z</time>
      </trkpt>
      <trkpt lat="37.591239000" lon="-4.295851000">
        <ele>450.8</ele>
        <time>2020-10-13T14:40:51Z</time>
      </trkpt>
      <trkpt lat="37.591203000" lon="-4.295737000">
        <ele>450.7</ele>
        <time>2020-10-13T14:40:53Z</time>
      </trkpt>
      <trkpt lat="37.591170000" lon="-4.295621000">
        <ele>450.6</ele>
        <time>2020-10-13T14:40:55Z</time>
      </trkpt>
      <trkpt lat="37.591147000" lon="-4.295499000">
        <ele>450.5</ele>
        <time>2020-10-13T14:40:57Z</time>
      </trkpt>
      <trkpt lat="37.591125000" lon="-4.295370000">
        <ele>450.3</ele>
        <time>2020-10-13T14:40:59Z</time>
      </trkpt>
      <trkpt lat="37.591108000" lon="-4.295233000">
        <ele>450.1</ele>
        <time>2020-10-13T14:41:01Z</time>
      </trkpt>
      <trkpt lat="37.591090000" lon="-4.295090000">
        <ele>449.9</ele>
        <time>2020-10-13T14:41:03Z</time>
      </trkpt>
      <trkpt lat="37.591089000" lon="-4.294951000">
        <ele>449.6</ele>
        <time>2020-10-13T14:41:05Z</time>
      </trkpt>
      <trkpt lat="37.591097000" lon="-4.294814000">
        <ele>449.4</ele>
        <time>2020-10-13T14:41:08Z</time>
      </trkpt>
      <trkpt lat="37.591104000" lon="-4.294670000">
        <ele>449.0</ele>
        <time>2020-10-13T14:41:09Z</time>
      </trkpt>
      <trkpt lat="37.591105000" lon="-4.294528000">
        <ele>448.5</ele>
        <time>2020-10-13T14:41:11Z</time>
      </trkpt>
      <trkpt lat="37.591109000" lon="-4.294391000">
        <ele>447.8</ele>
        <time>2020-10-13T14:41:13Z</time>
      </trkpt>
      <trkpt lat="37.591094000" lon="-4.294249000">
        <ele>447.3</ele>
        <time>2020-10-13T14:41:15Z</time>
      </trkpt>
      <trkpt lat="37.591082000" lon="-4.294104000">
        <ele>446.7</ele>
        <time>2020-10-13T14:41:18Z</time>
      </trkpt>
      <trkpt lat="37.591070000" lon="-4.293945000">
        <ele>446.4</ele>
        <time>2020-10-13T14:41:19Z</time>
      </trkpt>
      <trkpt lat="37.591063000" lon="-4.293774000">
        <ele>446.0</ele>
        <time>2020-10-13T14:41:21Z</time>
      </trkpt>
      <trkpt lat="37.591072000" lon="-4.293591000">
        <ele>445.6</ele>
        <time>2020-10-13T14:41:23Z</time>
      </trkpt>
      <trkpt lat="37.591077000" lon="-4.293411000">
        <ele>445.2</ele>
        <time>2020-10-13T14:41:25Z</time>
      </trkpt>
      <trkpt lat="37.591086000" lon="-4.293237000">
        <ele>444.8</ele>
        <time>2020-10-13T14:41:27Z</time>
      </trkpt>
      <trkpt lat="37.591086000" lon="-4.293056000">
        <ele>444.6</ele>
        <time>2020-10-13T14:41:29Z</time>
      </trkpt>
      <trkpt lat="37.591082000" lon="-4.292883000">
        <ele>444.5</ele>
        <time>2020-10-13T14:41:31Z</time>
      </trkpt>
      <trkpt lat="37.591068000" lon="-4.292706000">
        <ele>444.5</ele>
        <time>2020-10-13T14:41:33Z</time>
      </trkpt>
      <trkpt lat="37.591042000" lon="-4.292535000">
        <ele>444.6</ele>
        <time>2020-10-13T14:41:35Z</time>
      </trkpt>
      <trkpt lat="37.591017000" lon="-4.292366000">
        <ele>444.7</ele>
        <time>2020-10-13T14:41:37Z</time>
      </trkpt>
      <trkpt lat="37.590986000" lon="-4.292197000">
        <ele>444.7</ele>
        <time>2020-10-13T14:41:39Z</time>
      </trkpt>
      <trkpt lat="37.590945000" lon="-4.292035000">
        <ele>444.6</ele>
        <time>2020-10-13T14:41:41Z</time>
      </trkpt>
      <trkpt lat="37.590899000" lon="-4.291873000">
        <ele>444.5</ele>
        <time>2020-10-13T14:41:43Z</time>
      </trkpt>
      <trkpt lat="37.590843000" lon="-4.291713000">
        <ele>444.5</ele>
        <time>2020-10-13T14:41:45Z</time>
      </trkpt>
      <trkpt lat="37.590786000" lon="-4.291561000">
        <ele>444.6</ele>
        <time>2020-10-13T14:41:47Z</time>
      </trkpt>
      <trkpt lat="37.590731000" lon="-4.291412000">
        <ele>444.8</ele>
        <time>2020-10-13T14:41:49Z</time>
      </trkpt>
      <trkpt lat="37.590670000" lon="-4.291263000">
        <ele>444.9</ele>
        <time>2020-10-13T14:41:51Z</time>
      </trkpt>
      <trkpt lat="37.590611000" lon="-4.291113000">
        <ele>445.0</ele>
        <time>2020-10-13T14:41:53Z</time>
      </trkpt>
      <trkpt lat="37.590561000" lon="-4.290963000">
        <ele>445.1</ele>
        <time>2020-10-13T14:41:55Z</time>
      </trkpt>
      <trkpt lat="37.590506000" lon="-4.290814000">
        <ele>445.3</ele>
        <time>2020-10-13T14:41:57Z</time>
      </trkpt>
      <trkpt lat="37.590453000" lon="-4.290670000">
        <ele>445.5</ele>
        <time>2020-10-13T14:41:59Z</time>
      </trkpt>
      <trkpt lat="37.590395000" lon="-4.290534000">
        <ele>445.8</ele>
        <time>2020-10-13T14:42:01Z</time>
      </trkpt>
      <trkpt lat="37.590339000" lon="-4.290397000">
        <ele>446.2</ele>
        <time>2020-10-13T14:42:03Z</time>
      </trkpt>
      <trkpt lat="37.590287000" lon="-4.290259000">
        <ele>446.6</ele>
        <time>2020-10-13T14:42:05Z</time>
      </trkpt>
      <trkpt lat="37.590228000" lon="-4.290122000">
        <ele>447.0</ele>
        <time>2020-10-13T14:42:07Z</time>
      </trkpt>
      <trkpt lat="37.590175000" lon="-4.289982000">
        <ele>447.3</ele>
        <time>2020-10-13T14:42:09Z</time>
      </trkpt>
      <trkpt lat="37.590121000" lon="-4.289841000">
        <ele>447.4</ele>
        <time>2020-10-13T14:42:11Z</time>
      </trkpt>
      <trkpt lat="37.590067000" lon="-4.289700000">
        <ele>447.5</ele>
        <time>2020-10-13T14:42:13Z</time>
      </trkpt>
      <trkpt lat="37.590016000" lon="-4.289556000">
        <ele>447.5</ele>
        <time>2020-10-13T14:42:15Z</time>
      </trkpt>
      <trkpt lat="37.589962000" lon="-4.289412000">
        <ele>447.6</ele>
        <time>2020-10-13T14:42:17Z</time>
      </trkpt>
      <trkpt lat="37.589902000" lon="-4.289260000">
        <ele>447.6</ele>
        <time>2020-10-13T14:42:20Z</time>
      </trkpt>
      <trkpt lat="37.589844000" lon="-4.289114000">
        <ele>447.6</ele>
        <time>2020-10-13T14:42:21Z</time>
      </trkpt>
      <trkpt lat="37.589788000" lon="-4.288973000">
        <ele>447.5</ele>
        <time>2020-10-13T14:42:23Z</time>
      </trkpt>
      <trkpt lat="37.589734000" lon="-4.288827000">
        <ele>447.3</ele>
        <time>2020-10-13T14:42:25Z</time>
      </trkpt>
      <trkpt lat="37.589674000" lon="-4.288684000">
        <ele>447.0</ele>
        <time>2020-10-13T14:42:27Z</time>
      </trkpt>
      <trkpt lat="37.589616000" lon="-4.288542000">
        <ele>446.6</ele>
        <time>2020-10-13T14:42:29Z</time>
      </trkpt>
      <trkpt lat="37.589567000" lon="-4.288402000">
        <ele>446.4</ele>
        <time>2020-10-13T14:42:31Z</time>
      </trkpt>
      <trkpt lat="37.589517000" lon="-4.288260000">
        <ele>446.2</ele>
        <time>2020-10-13T14:42:33Z</time>
      </trkpt>
      <trkpt lat="37.589463000" lon="-4.288112000">
        <ele>446.0</ele>
        <time>2020-10-13T14:42:35Z</time>
      </trkpt>
      <trkpt lat="37.589407000" lon="-4.287969000">
        <ele>445.8</ele>
        <time>2020-10-13T14:42:37Z</time>
      </trkpt>
      <trkpt lat="37.589355000" lon="-4.287827000">
        <ele>445.6</ele>
        <time>2020-10-13T14:42:39Z</time>
      </trkpt>
      <trkpt lat="37.589296000" lon="-4.287689000">
        <ele>445.5</ele>
        <time>2020-10-13T14:42:41Z</time>
      </trkpt>
      <trkpt lat="37.589238000" lon="-4.287555000">
        <ele>445.3</ele>
        <time>2020-10-13T14:42:44Z</time>
      </trkpt>
      <trkpt lat="37.589188000" lon="-4.287420000">
        <ele>445.2</ele>
        <time>2020-10-13T14:42:45Z</time>
      </trkpt>
      <trkpt lat="37.589132000" lon="-4.287294000">
        <ele>445.1</ele>
        <time>2020-10-13T14:42:47Z</time>
      </trkpt>
      <trkpt lat="37.589066000" lon="-4.287178000">
        <ele>445.0</ele>
        <time>2020-10-13T14:42:49Z</time>
      </trkpt>
      <trkpt lat="37.588993000" lon="-4.287059000">
        <ele>445.1</ele>
        <time>2020-10-13T14:42:52Z</time>
      </trkpt>
      <trkpt lat="37.588919000" lon="-4.286962000">
        <ele>445.2</ele>
        <time>2020-10-13T14:42:53Z</time>
      </trkpt>
      <trkpt lat="37.588846000" lon="-4.286862000">
        <ele>445.4</ele>
        <time>2020-10-13T14:42:55Z</time>
      </trkpt>
      <trkpt lat="37.588767000" lon="-4.286759000">
        <ele>445.5</ele>
        <time>2020-10-13T14:42:57Z</time>
      </trkpt>
      <trkpt lat="37.588699000" lon="-4.286667000">
        <ele>445.7</ele>
        <time>2020-10-13T14:42:59Z</time>
      </trkpt>
      <trkpt lat="37.588623000" lon="-4.286571000">
        <ele>445.9</ele>
        <time>2020-10-13T14:43:01Z</time>
      </trkpt>
      <trkpt lat="37.588537000" lon="-4.286477000">
        <ele>446.1</ele>
        <time>2020-10-13T14:43:03Z</time>
      </trkpt>
      <trkpt lat="37.588449000" lon="-4.286399000">
        <ele>446.3</ele>
        <time>2020-10-13T14:43:05Z</time>
      </trkpt>
      <trkpt lat="37.588370000" lon="-4.286329000">
        <ele>446.5</ele>
        <time>2020-10-13T14:43:07Z</time>
      </trkpt>
      <trkpt lat="37.588299000" lon="-4.286269000">
        <ele>446.6</ele>
        <time>2020-10-13T14:43:09Z</time>
      </trkpt>
      <trkpt lat="37.588213000" lon="-4.286201000">
        <ele>446.8</ele>
        <time>2020-10-13T14:43:12Z</time>
      </trkpt>
      <trkpt lat="37.588143000" lon="-4.286143000">
        <ele>446.9</ele>
        <time>2020-10-13T14:43:51Z</time>
      </trkpt>
      <trkpt lat="37.588056000" lon="-4.286066000">
        <ele>447.1</ele>
        <time>2020-10-13T14:43:55Z</time>
      </trkpt>
      <trkpt lat="37.587965000" lon="-4.285988000">
        <ele>447.2</ele>
        <time>2020-10-13T14:43:58Z</time>
      </trkpt>
      <trkpt lat="37.587866000" lon="-4.285917000">
        <ele>447.4</ele>
        <time>2020-10-13T14:44:01Z</time>
      </trkpt>
      <trkpt lat="37.587768000" lon="-4.285866000">
        <ele>447.6</ele>
        <time>2020-10-13T14:44:04Z</time>
      </trkpt>
      <trkpt lat="37.587684000" lon="-4.285814000">
        <ele>447.9</ele>
        <time>2020-10-13T14:44:07Z</time>
      </trkpt>
      <trkpt lat="37.587590000" lon="-4.285759000">
        <ele>448.3</ele>
        <time>2020-10-13T14:44:10Z</time>
      </trkpt>
      <trkpt lat="37.587486000" lon="-4.285701000">
        <ele>448.6</ele>
        <time>2020-10-13T14:44:13Z</time>
      </trkpt>
      <trkpt lat="37.587391000" lon="-4.285639000">
        <ele>449.0</ele>
        <time>2020-10-13T14:44:16Z</time>
      </trkpt>
      <trkpt lat="37.587301000" lon="-4.285582000">
        <ele>449.4</ele>
        <time>2020-10-13T14:44:19Z</time>
      </trkpt>
      <trkpt lat="37.587212000" lon="-4.285527000">
        <ele>449.7</ele>
        <time>2020-10-13T14:44:22Z</time>
      </trkpt>
      <trkpt lat="37.587116000" lon="-4.285463000">
        <ele>450.1</ele>
        <time>2020-10-13T14:44:25Z</time>
      </trkpt>
      <trkpt lat="37.587017000" lon="-4.285402000">
        <ele>450.4</ele>
        <time>2020-10-13T14:44:28Z</time>
      </trkpt>
      <trkpt lat="37.586916000" lon="-4.285339000">
        <ele>450.6</ele>
        <time>2020-10-13T14:44:31Z</time>
      </trkpt>
      <trkpt lat="37.586845000" lon="-4.285291000">
        <ele>450.8</ele>
        <time>2020-10-13T14:44:33Z</time>
      </trkpt>
      <trkpt lat="37.586735000" lon="-4.285221000">
        <ele>450.9</ele>
        <time>2020-10-13T14:44:36Z</time>
      </trkpt>
      <trkpt lat="37.586661000" lon="-4.285172000">
        <ele>451.0</ele>
        <time>2020-10-13T14:44:38Z</time>
      </trkpt>
      <trkpt lat="37.586586000" lon="-4.285124000">
        <ele>451.0</ele>
        <time>2020-10-13T14:44:40Z</time>
      </trkpt>
      <trkpt lat="37.586511000" lon="-4.285077000">
        <ele>451.0</ele>
        <time>2020-10-13T14:44:42Z</time>
      </trkpt>
      <trkpt lat="37.586436000" lon="-4.285027000">
        <ele>451.0</ele>
        <time>2020-10-13T14:44:44Z</time>
      </trkpt>
      <trkpt lat="37.586360000" lon="-4.284979000">
        <ele>451.0</ele>
        <time>2020-10-13T14:44:46Z</time>
      </trkpt>
      <trkpt lat="37.586284000" lon="-4.284930000">
        <ele>451.0</ele>
        <time>2020-10-13T14:44:48Z</time>
      </trkpt>
      <trkpt lat="37.586210000" lon="-4.284883000">
        <ele>451.0</ele>
        <time>2020-10-13T14:44:50Z</time>
      </trkpt>
      <trkpt lat="37.586130000" lon="-4.284837000">
        <ele>451.0</ele>
        <time>2020-10-13T14:44:52Z</time>
      </trkpt>
      <trkpt lat="37.586052000" lon="-4.284790000">
        <ele>450.9</ele>
        <time>2020-10-13T14:44:54Z</time>
      </trkpt>
      <trkpt lat="37.585976000" lon="-4.284739000">
        <ele>450.8</ele>
        <time>2020-10-13T14:44:56Z</time>
      </trkpt>
      <trkpt lat="37.585902000" lon="-4.284691000">
        <ele>450.7</ele>
        <time>2020-10-13T14:44:58Z</time>
      </trkpt>
      <trkpt lat="37.585824000" lon="-4.284646000">
        <ele>450.6</ele>
        <time>2020-10-13T14:45:00Z</time>
      </trkpt>
      <trkpt lat="37.585746000" lon="-4.284602000">
        <ele>450.5</ele>
        <time>2020-10-13T14:45:02Z</time>
      </trkpt>
      <trkpt lat="37.585667000" lon="-4.284555000">
        <ele>450.5</ele>
        <time>2020-10-13T14:45:04Z</time>
      </trkpt>
      <trkpt lat="37.585588000" lon="-4.284505000">
        <ele>450.4</ele>
        <time>2020-10-13T14:45:06Z</time>
      </trkpt>
      <trkpt lat="37.585509000" lon="-4.284456000">
        <ele>450.3</ele>
        <time>2020-10-13T14:45:08Z</time>
      </trkpt>
      <trkpt lat="37.585427000" lon="-4.284410000">
        <ele>450.2</ele>
        <time>2020-10-13T14:45:10Z</time>
      </trkpt>
      <trkpt lat="37.585346000" lon="-4.284357000">
        <ele>450.2</ele>
        <time>2020-10-13T14:45:12Z</time>
      </trkpt>
      <trkpt lat="37.585258000" lon="-4.284305000">
        <ele>450.2</ele>
        <time>2020-10-13T14:45:14Z</time>
      </trkpt>
      <trkpt lat="37.585179000" lon="-4.284257000">
        <ele>450.3</ele>
        <time>2020-10-13T14:45:16Z</time>
      </trkpt>
      <trkpt lat="37.585097000" lon="-4.284202000">
        <ele>450.4</ele>
        <time>2020-10-13T14:45:18Z</time>
      </trkpt>
      <trkpt lat="37.585003000" lon="-4.284142000">
        <ele>450.5</ele>
        <time>2020-10-13T14:45:20Z</time>
      </trkpt>
      <trkpt lat="37.584914000" lon="-4.284076000">
        <ele>450.5</ele>
        <time>2020-10-13T14:45:22Z</time>
      </trkpt>
      <trkpt lat="37.584822000" lon="-4.284019000">
        <ele>450.6</ele>
        <time>2020-10-13T14:45:24Z</time>
      </trkpt>
      <trkpt lat="37.584741000" lon="-4.283962000">
        <ele>450.6</ele>
        <time>2020-10-13T14:45:26Z</time>
      </trkpt>
      <trkpt lat="37.584658000" lon="-4.283906000">
        <ele>450.6</ele>
        <time>2020-10-13T14:45:28Z</time>
      </trkpt>
      <trkpt lat="37.584561000" lon="-4.283847000">
        <ele>450.6</ele>
        <time>2020-10-13T14:45:30Z</time>
      </trkpt>
      <trkpt lat="37.584466000" lon="-4.283787000">
        <ele>450.6</ele>
        <time>2020-10-13T14:45:32Z</time>
      </trkpt>
      <trkpt lat="37.584379000" lon="-4.283730000">
        <ele>450.5</ele>
        <time>2020-10-13T14:45:34Z</time>
      </trkpt>
      <trkpt lat="37.584293000" lon="-4.283672000">
        <ele>450.5</ele>
        <time>2020-10-13T14:45:36Z</time>
      </trkpt>
      <trkpt lat="37.584219000" lon="-4.283617000">
        <ele>450.5</ele>
        <time>2020-10-13T14:45:38Z</time>
      </trkpt>
      <trkpt lat="37.584115000" lon="-4.283545000">
        <ele>450.5</ele>
        <time>2020-10-13T14:45:41Z</time>
      </trkpt>
      <trkpt lat="37.584043000" lon="-4.283497000">
        <ele>450.6</ele>
        <time>2020-10-13T14:45:44Z</time>
      </trkpt>
      <trkpt lat="37.583967000" lon="-4.283450000">
        <ele>450.7</ele>
        <time>2020-10-13T14:45:45Z</time>
      </trkpt>
      <trkpt lat="37.583885000" lon="-4.283398000">
        <ele>450.8</ele>
        <time>2020-10-13T14:45:47Z</time>
      </trkpt>
      <trkpt lat="37.583806000" lon="-4.283349000">
        <ele>451.0</ele>
        <time>2020-10-13T14:45:49Z</time>
      </trkpt>
      <trkpt lat="37.583724000" lon="-4.283296000">
        <ele>451.2</ele>
        <time>2020-10-13T14:45:51Z</time>
      </trkpt>
      <trkpt lat="37.583627000" lon="-4.283233000">
        <ele>451.4</ele>
        <time>2020-10-13T14:45:53Z</time>
      </trkpt>
      <trkpt lat="37.583538000" lon="-4.283173000">
        <ele>451.5</ele>
        <time>2020-10-13T14:45:55Z</time>
      </trkpt>
      <trkpt lat="37.583454000" lon="-4.283125000">
        <ele>451.7</ele>
        <time>2020-10-13T14:45:57Z</time>
      </trkpt>
      <trkpt lat="37.583371000" lon="-4.283075000">
        <ele>451.8</ele>
        <time>2020-10-13T14:45:59Z</time>
      </trkpt>
      <trkpt lat="37.583276000" lon="-4.283023000">
        <ele>451.9</ele>
        <time>2020-10-13T14:46:01Z</time>
      </trkpt>
      <trkpt lat="37.583170000" lon="-4.282965000">
        <ele>452.1</ele>
        <time>2020-10-13T14:46:03Z</time>
      </trkpt>
      <trkpt lat="37.583068000" lon="-4.282896000">
        <ele>452.2</ele>
        <time>2020-10-13T14:46:05Z</time>
      </trkpt>
      <trkpt lat="37.582978000" lon="-4.282841000">
        <ele>452.3</ele>
        <time>2020-10-13T14:46:07Z</time>
      </trkpt>
      <trkpt lat="37.582899000" lon="-4.282790000">
        <ele>452.4</ele>
        <time>2020-10-13T14:46:09Z</time>
      </trkpt>
      <trkpt lat="37.582824000" lon="-4.282737000">
        <ele>452.5</ele>
        <time>2020-10-13T14:46:11Z</time>
      </trkpt>
      <trkpt lat="37.582747000" lon="-4.282682000">
        <ele>452.5</ele>
        <time>2020-10-13T14:46:13Z</time>
      </trkpt>
      <trkpt lat="37.582669000" lon="-4.282618000">
        <ele>452.6</ele>
        <time>2020-10-13T14:46:15Z</time>
      </trkpt>
      <trkpt lat="37.582582000" lon="-4.282560000">
        <ele>452.7</ele>
        <time>2020-10-13T14:46:17Z</time>
      </trkpt>
      <trkpt lat="37.582492000" lon="-4.282489000">
        <ele>452.9</ele>
        <time>2020-10-13T14:46:19Z</time>
      </trkpt>
      <trkpt lat="37.582412000" lon="-4.282425000">
        <ele>453.1</ele>
        <time>2020-10-13T14:46:21Z</time>
      </trkpt>
      <trkpt lat="37.582314000" lon="-4.282349000">
        <ele>453.4</ele>
        <time>2020-10-13T14:46:24Z</time>
      </trkpt>
      <trkpt lat="37.582226000" lon="-4.282255000">
        <ele>453.5</ele>
        <time>2020-10-13T14:46:27Z</time>
      </trkpt>
      <trkpt lat="37.582143000" lon="-4.282153000">
        <ele>453.8</ele>
        <time>2020-10-13T14:46:30Z</time>
      </trkpt>
      <trkpt lat="37.582070000" lon="-4.282045000">
        <ele>454.1</ele>
        <time>2020-10-13T14:46:33Z</time>
      </trkpt>
      <trkpt lat="37.582002000" lon="-4.281940000">
        <ele>454.5</ele>
        <time>2020-10-13T14:46:36Z</time>
      </trkpt>
      <trkpt lat="37.581938000" lon="-4.281832000">
        <ele>454.8</ele>
        <time>2020-10-13T14:46:39Z</time>
      </trkpt>
      <trkpt lat="37.581875000" lon="-4.281719000">
        <ele>455.2</ele>
        <time>2020-10-13T14:46:42Z</time>
      </trkpt>
      <trkpt lat="37.581808000" lon="-4.281611000">
        <ele>455.5</ele>
        <time>2020-10-13T14:46:45Z</time>
      </trkpt>
      <trkpt lat="37.581750000" lon="-4.281504000">
        <ele>456.0</ele>
        <time>2020-10-13T14:46:48Z</time>
      </trkpt>
      <trkpt lat="37.581686000" lon="-4.281402000">
        <ele>456.5</ele>
        <time>2020-10-13T14:46:51Z</time>
      </trkpt>
      <trkpt lat="37.581627000" lon="-4.281301000">
        <ele>456.9</ele>
        <time>2020-10-13T14:46:54Z</time>
      </trkpt>
      <trkpt lat="37.581564000" lon="-4.281210000">
        <ele>457.3</ele>
        <time>2020-10-13T14:46:57Z</time>
      </trkpt>
      <trkpt lat="37.581504000" lon="-4.281107000">
        <ele>457.6</ele>
        <time>2020-10-13T14:47:00Z</time>
      </trkpt>
      <trkpt lat="37.581446000" lon="-4.281004000">
        <ele>457.9</ele>
        <time>2020-10-13T14:47:03Z</time>
      </trkpt>
      <trkpt lat="37.581386000" lon="-4.280897000">
        <ele>458.2</ele>
        <time>2020-10-13T14:47:06Z</time>
      </trkpt>
      <trkpt lat="37.581319000" lon="-4.280787000">
        <ele>458.4</ele>
        <time>2020-10-13T14:47:09Z</time>
      </trkpt>
      <trkpt lat="37.581254000" lon="-4.280671000">
        <ele>458.5</ele>
        <time>2020-10-13T14:47:12Z</time>
      </trkpt>
      <trkpt lat="37.581191000" lon="-4.280557000">
        <ele>458.7</ele>
        <time>2020-10-13T14:47:15Z</time>
      </trkpt>
      <trkpt lat="37.581125000" lon="-4.280453000">
        <ele>458.9</ele>
        <time>2020-10-13T14:47:18Z</time>
      </trkpt>
      <trkpt lat="37.581059000" lon="-4.280349000">
        <ele>459.1</ele>
        <time>2020-10-13T14:47:21Z</time>
      </trkpt>
      <trkpt lat="37.580996000" lon="-4.280238000">
        <ele>459.3</ele>
        <time>2020-10-13T14:47:24Z</time>
      </trkpt>
      <trkpt lat="37.580931000" lon="-4.280128000">
        <ele>459.5</ele>
        <time>2020-10-13T14:47:27Z</time>
      </trkpt>
      <trkpt lat="37.580864000" lon="-4.280021000">
        <ele>459.8</ele>
        <time>2020-10-13T14:47:30Z</time>
      </trkpt>
      <trkpt lat="37.580798000" lon="-4.279912000">
        <ele>460.1</ele>
        <time>2020-10-13T14:47:33Z</time>
      </trkpt>
      <trkpt lat="37.580731000" lon="-4.279790000">
        <ele>460.5</ele>
        <time>2020-10-13T14:47:36Z</time>
      </trkpt>
      <trkpt lat="37.580669000" lon="-4.279668000">
        <ele>460.8</ele>
        <time>2020-10-13T14:47:39Z</time>
      </trkpt>
      <trkpt lat="37.580600000" lon="-4.279559000">
        <ele>461.3</ele>
        <time>2020-10-13T14:47:42Z</time>
      </trkpt>
      <trkpt lat="37.580530000" lon="-4.279453000">
        <ele>461.7</ele>
        <time>2020-10-13T14:47:46Z</time>
      </trkpt>
      <trkpt lat="37.580463000" lon="-4.279344000">
        <ele>462.3</ele>
        <time>2020-10-13T14:47:49Z</time>
      </trkpt>
      <trkpt lat="37.580401000" lon="-4.279234000">
        <ele>462.9</ele>
        <time>2020-10-13T14:47:51Z</time>
      </trkpt>
      <trkpt lat="37.580339000" lon="-4.279123000">
        <ele>463.5</ele>
        <time>2020-10-13T14:47:54Z</time>
      </trkpt>
      <trkpt lat="37.580282000" lon="-4.279011000">
        <ele>464.1</ele>
        <time>2020-10-13T14:47:57Z</time>
      </trkpt>
      <trkpt lat="37.580231000" lon="-4.278893000">
        <ele>464.5</ele>
        <time>2020-10-13T14:48:00Z</time>
      </trkpt>
      <trkpt lat="37.580185000" lon="-4.278770000">
        <ele>464.9</ele>
        <time>2020-10-13T14:48:03Z</time>
      </trkpt>
      <trkpt lat="37.580142000" lon="-4.278648000">
        <ele>465.3</ele>
        <time>2020-10-13T14:48:06Z</time>
      </trkpt>
      <trkpt lat="37.580099000" lon="-4.278523000">
        <ele>465.5</ele>
        <time>2020-10-13T14:48:09Z</time>
      </trkpt>
      <trkpt lat="37.580061000" lon="-4.278391000">
        <ele>465.8</ele>
        <time>2020-10-13T14:48:12Z</time>
      </trkpt>
      <trkpt lat="37.580025000" lon="-4.278260000">
        <ele>466.0</ele>
        <time>2020-10-13T14:48:15Z</time>
      </trkpt>
      <trkpt lat="37.579993000" lon="-4.278130000">
        <ele>466.2</ele>
        <time>2020-10-13T14:48:18Z</time>
      </trkpt>
      <trkpt lat="37.579968000" lon="-4.278006000">
        <ele>466.4</ele>
        <time>2020-10-13T14:48:21Z</time>
      </trkpt>
      <trkpt lat="37.579948000" lon="-4.277881000">
        <ele>466.5</ele>
        <time>2020-10-13T14:48:24Z</time>
      </trkpt>
      <trkpt lat="37.579934000" lon="-4.277755000">
        <ele>466.5</ele>
        <time>2020-10-13T14:48:27Z</time>
      </trkpt>
      <trkpt lat="37.579916000" lon="-4.277639000">
        <ele>466.6</ele>
        <time>2020-10-13T14:48:30Z</time>
      </trkpt>
      <trkpt lat="37.579906000" lon="-4.277520000">
        <ele>466.7</ele>
        <time>2020-10-13T14:48:33Z</time>
      </trkpt>
      <trkpt lat="37.579888000" lon="-4.277406000">
        <ele>466.9</ele>
        <time>2020-10-13T14:48:36Z</time>
      </trkpt>
      <trkpt lat="37.579874000" lon="-4.277274000">
        <ele>467.1</ele>
        <time>2020-10-13T14:48:40Z</time>
      </trkpt>
      <trkpt lat="37.579890000" lon="-4.277150000">
        <ele>467.4</ele>
        <time>2020-10-13T14:48:43Z</time>
      </trkpt>
      <trkpt lat="37.579898000" lon="-4.277014000">
        <ele>467.6</ele>
        <time>2020-10-13T14:48:46Z</time>
      </trkpt>
      <trkpt lat="37.579899000" lon="-4.276873000">
        <ele>468.0</ele>
        <time>2020-10-13T14:48:49Z</time>
      </trkpt>
      <trkpt lat="37.579902000" lon="-4.276734000">
        <ele>468.4</ele>
        <time>2020-10-13T14:48:52Z</time>
      </trkpt>
      <trkpt lat="37.579917000" lon="-4.276599000">
        <ele>468.7</ele>
        <time>2020-10-13T14:48:55Z</time>
      </trkpt>
      <trkpt lat="37.579941000" lon="-4.276464000">
        <ele>469.1</ele>
        <time>2020-10-13T14:48:58Z</time>
      </trkpt>
      <trkpt lat="37.579964000" lon="-4.276322000">
        <ele>469.4</ele>
        <time>2020-10-13T14:49:01Z</time>
      </trkpt>
      <trkpt lat="37.579991000" lon="-4.276178000">
        <ele>469.6</ele>
        <time>2020-10-13T14:49:04Z</time>
      </trkpt>
      <trkpt lat="37.580002000" lon="-4.276030000">
        <ele>469.9</ele>
        <time>2020-10-13T14:49:07Z</time>
      </trkpt>
      <trkpt lat="37.580011000" lon="-4.275881000">
        <ele>470.2</ele>
        <time>2020-10-13T14:49:10Z</time>
      </trkpt>
      <trkpt lat="37.580033000" lon="-4.275740000">
        <ele>470.5</ele>
        <time>2020-10-13T14:49:13Z</time>
      </trkpt>
      <trkpt lat="37.580055000" lon="-4.275589000">
        <ele>470.5</ele>
        <time>2020-10-13T14:49:16Z</time>
      </trkpt>
      <trkpt lat="37.580064000" lon="-4.275444000">
        <ele>470.6</ele>
        <time>2020-10-13T14:49:19Z</time>
      </trkpt>
      <trkpt lat="37.580070000" lon="-4.275323000">
        <ele>470.6</ele>
        <time>2020-10-13T14:49:21Z</time>
      </trkpt>
      <trkpt lat="37.580085000" lon="-4.275192000">
        <ele>470.6</ele>
        <time>2020-10-13T14:49:24Z</time>
      </trkpt>
      <trkpt lat="37.580104000" lon="-4.275055000">
        <ele>470.5</ele>
        <time>2020-10-13T14:49:27Z</time>
      </trkpt>
      <trkpt lat="37.580108000" lon="-4.274909000">
        <ele>470.5</ele>
        <time>2020-10-13T14:49:30Z</time>
      </trkpt>
      <trkpt lat="37.580120000" lon="-4.274793000">
        <ele>470.4</ele>
        <time>2020-10-13T14:49:33Z</time>
      </trkpt>
      <trkpt lat="37.580132000" lon="-4.274664000">
        <ele>470.4</ele>
        <time>2020-10-13T14:49:36Z</time>
      </trkpt>
      <trkpt lat="37.580144000" lon="-4.274563000">
        <ele>470.4</ele>
        <time>2020-10-13T14:49:38Z</time>
      </trkpt>
      <trkpt lat="37.580157000" lon="-4.274425000">
        <ele>470.4</ele>
        <time>2020-10-13T14:49:41Z</time>
      </trkpt>
      <trkpt lat="37.580166000" lon="-4.274308000">
        <ele>470.4</ele>
        <time>2020-10-13T14:49:44Z</time>
      </trkpt>
      <trkpt lat="37.580185000" lon="-4.274161000">
        <ele>470.5</ele>
        <time>2020-10-13T14:49:47Z</time>
      </trkpt>
      <trkpt lat="37.580197000" lon="-4.274022000">
        <ele>470.6</ele>
        <time>2020-10-13T14:49:50Z</time>
      </trkpt>
      <trkpt lat="37.580209000" lon="-4.273904000">
        <ele>470.8</ele>
        <time>2020-10-13T14:49:53Z</time>
      </trkpt>
      <trkpt lat="37.580219000" lon="-4.273753000">
        <ele>471.0</ele>
        <time>2020-10-13T14:49:56Z</time>
      </trkpt>
      <trkpt lat="37.580220000" lon="-4.273642000">
        <ele>471.2</ele>
        <time>2020-10-13T14:49:58Z</time>
      </trkpt>
      <trkpt lat="37.580228000" lon="-4.273497000">
        <ele>471.5</ele>
        <time>2020-10-13T14:50:01Z</time>
      </trkpt>
      <trkpt lat="37.580245000" lon="-4.273358000">
        <ele>471.8</ele>
        <time>2020-10-13T14:50:04Z</time>
      </trkpt>
      <trkpt lat="37.580250000" lon="-4.273217000">
        <ele>472.1</ele>
        <time>2020-10-13T14:50:07Z</time>
      </trkpt>
      <trkpt lat="37.580266000" lon="-4.273075000">
        <ele>472.5</ele>
        <time>2020-10-13T14:50:10Z</time>
      </trkpt>
      <trkpt lat="37.580283000" lon="-4.272936000">
        <ele>472.9</ele>
        <time>2020-10-13T14:50:13Z</time>
      </trkpt>
      <trkpt lat="37.580302000" lon="-4.272793000">
        <ele>473.5</ele>
        <time>2020-10-13T14:50:16Z</time>
      </trkpt>
      <trkpt lat="37.580318000" lon="-4.272645000">
        <ele>474.1</ele>
        <time>2020-10-13T14:50:19Z</time>
      </trkpt>
      <trkpt lat="37.580322000" lon="-4.272506000">
        <ele>474.6</ele>
        <time>2020-10-13T14:50:22Z</time>
      </trkpt>
      <trkpt lat="37.580321000" lon="-4.272363000">
        <ele>475.3</ele>
        <time>2020-10-13T14:50:25Z</time>
      </trkpt>
      <trkpt lat="37.580316000" lon="-4.272216000">
        <ele>475.8</ele>
        <time>2020-10-13T14:50:28Z</time>
      </trkpt>
      <trkpt lat="37.580307000" lon="-4.272075000">
        <ele>476.4</ele>
        <time>2020-10-13T14:50:31Z</time>
      </trkpt>
      <trkpt lat="37.580291000" lon="-4.271942000">
        <ele>476.8</ele>
        <time>2020-10-13T14:50:34Z</time>
      </trkpt>
      <trkpt lat="37.580268000" lon="-4.271813000">
        <ele>477.4</ele>
        <time>2020-10-13T14:50:37Z</time>
      </trkpt>
      <trkpt lat="37.580245000" lon="-4.271683000">
        <ele>477.9</ele>
        <time>2020-10-13T14:50:40Z</time>
      </trkpt>
      <trkpt lat="37.580211000" lon="-4.271549000">
        <ele>478.4</ele>
        <time>2020-10-13T14:50:43Z</time>
      </trkpt>
      <trkpt lat="37.580171000" lon="-4.271414000">
        <ele>478.7</ele>
        <time>2020-10-13T14:50:46Z</time>
      </trkpt>
      <trkpt lat="37.580129000" lon="-4.271283000">
        <ele>478.9</ele>
        <time>2020-10-13T14:50:56Z</time>
      </trkpt>
      <trkpt lat="37.580014000" lon="-4.270934000">
        <ele>479.0</ele>
        <time>2020-10-13T14:50:57Z</time>
      </trkpt>
      <trkpt lat="37.579970000" lon="-4.270812000">
        <ele>479.2</ele>
        <time>2020-10-13T14:51:06Z</time>
      </trkpt>
      <trkpt lat="37.579929000" lon="-4.270691000">
        <ele>479.3</ele>
        <time>2020-10-13T14:51:07Z</time>
      </trkpt>
      <trkpt lat="37.579879000" lon="-4.270520000">
        <ele>479.5</ele>
        <time>2020-10-13T14:51:07Z</time>
      </trkpt>
      <trkpt lat="37.579837000" lon="-4.270391000">
        <ele>479.7</ele>
        <time>2020-10-13T14:51:10Z</time>
      </trkpt>
      <trkpt lat="37.579798000" lon="-4.270246000">
        <ele>480.1</ele>
        <time>2020-10-13T14:51:13Z</time>
      </trkpt>
      <trkpt lat="37.579772000" lon="-4.270147000">
        <ele>480.3</ele>
        <time>2020-10-13T14:51:15Z</time>
      </trkpt>
      <trkpt lat="37.579743000" lon="-4.270044000">
        <ele>480.5</ele>
        <time>2020-10-13T14:51:18Z</time>
      </trkpt>
      <trkpt lat="37.579714000" lon="-4.269937000">
        <ele>480.6</ele>
        <time>2020-10-13T14:51:19Z</time>
      </trkpt>
      <trkpt lat="37.579682000" lon="-4.269831000">
        <ele>480.9</ele>
        <time>2020-10-13T14:51:21Z</time>
      </trkpt>
      <trkpt lat="37.579648000" lon="-4.269727000">
        <ele>481.3</ele>
        <time>2020-10-13T14:51:23Z</time>
      </trkpt>
      <trkpt lat="37.579614000" lon="-4.269625000">
        <ele>481.6</ele>
        <time>2020-10-13T14:51:25Z</time>
      </trkpt>
      <trkpt lat="37.579581000" lon="-4.269526000">
        <ele>481.9</ele>
        <time>2020-10-13T14:51:27Z</time>
      </trkpt>
      <trkpt lat="37.579552000" lon="-4.269425000">
        <ele>482.2</ele>
        <time>2020-10-13T14:51:29Z</time>
      </trkpt>
      <trkpt lat="37.579521000" lon="-4.269324000">
        <ele>482.5</ele>
        <time>2020-10-13T14:51:31Z</time>
      </trkpt>
      <trkpt lat="37.579495000" lon="-4.269223000">
        <ele>482.6</ele>
        <time>2020-10-13T14:51:33Z</time>
      </trkpt>
      <trkpt lat="37.579465000" lon="-4.269123000">
        <ele>482.7</ele>
        <time>2020-10-13T14:51:35Z</time>
      </trkpt>
      <trkpt lat="37.579425000" lon="-4.269028000">
        <ele>482.8</ele>
        <time>2020-10-13T14:51:37Z</time>
      </trkpt>
      <trkpt lat="37.579389000" lon="-4.268930000">
        <ele>482.9</ele>
        <time>2020-10-13T14:51:39Z</time>
      </trkpt>
      <trkpt lat="37.579354000" lon="-4.268830000">
        <ele>483.0</ele>
        <time>2020-10-13T14:51:41Z</time>
      </trkpt>
      <trkpt lat="37.579315000" lon="-4.268731000">
        <ele>483.0</ele>
        <time>2020-10-13T14:51:43Z</time>
      </trkpt>
      <trkpt lat="37.579271000" lon="-4.268639000">
        <ele>483.0</ele>
        <time>2020-10-13T14:51:45Z</time>
      </trkpt>
      <trkpt lat="37.579223000" lon="-4.268548000">
        <ele>483.0</ele>
        <time>2020-10-13T14:51:47Z</time>
      </trkpt>
      <trkpt lat="37.579175000" lon="-4.268458000">
        <ele>483.0</ele>
        <time>2020-10-13T14:51:49Z</time>
      </trkpt>
      <trkpt lat="37.579126000" lon="-4.268369000">
        <ele>483.0</ele>
        <time>2020-10-13T14:51:51Z</time>
      </trkpt>
      <trkpt lat="37.579071000" lon="-4.268280000">
        <ele>483.0</ele>
        <time>2020-10-13T14:51:53Z</time>
      </trkpt>
      <trkpt lat="37.579012000" lon="-4.268193000">
        <ele>483.1</ele>
        <time>2020-10-13T14:51:55Z</time>
      </trkpt>
      <trkpt lat="37.578956000" lon="-4.268111000">
        <ele>483.2</ele>
        <time>2020-10-13T14:51:57Z</time>
      </trkpt>
      <trkpt lat="37.578895000" lon="-4.268037000">
        <ele>483.3</ele>
        <time>2020-10-13T14:51:59Z</time>
      </trkpt>
      <trkpt lat="37.578832000" lon="-4.267955000">
        <ele>483.4</ele>
        <time>2020-10-13T14:52:01Z</time>
      </trkpt>
      <trkpt lat="37.578769000" lon="-4.267880000">
        <ele>483.5</ele>
        <time>2020-10-13T14:52:03Z</time>
      </trkpt>
      <trkpt lat="37.578704000" lon="-4.267817000">
        <ele>483.5</ele>
        <time>2020-10-13T14:52:05Z</time>
      </trkpt>
      <trkpt lat="37.578608000" lon="-4.267723000">
        <ele>483.6</ele>
        <time>2020-10-13T14:52:08Z</time>
      </trkpt>
      <trkpt lat="37.578542000" lon="-4.267660000">
        <ele>483.7</ele>
        <time>2020-10-13T14:52:10Z</time>
      </trkpt>
      <trkpt lat="37.578472000" lon="-4.267604000">
        <ele>483.8</ele>
        <time>2020-10-13T14:52:12Z</time>
      </trkpt>
      <trkpt lat="37.578400000" lon="-4.267551000">
        <ele>483.9</ele>
        <time>2020-10-13T14:52:14Z</time>
      </trkpt>
      <trkpt lat="37.578327000" lon="-4.267500000">
        <ele>484.1</ele>
        <time>2020-10-13T14:52:16Z</time>
      </trkpt>
      <trkpt lat="37.578252000" lon="-4.267456000">
        <ele>484.2</ele>
        <time>2020-10-13T14:52:18Z</time>
      </trkpt>
      <trkpt lat="37.578144000" lon="-4.267399000">
        <ele>484.4</ele>
        <time>2020-10-13T14:52:21Z</time>
      </trkpt>
      <trkpt lat="37.578041000" lon="-4.267344000">
        <ele>484.6</ele>
        <time>2020-10-13T14:52:24Z</time>
      </trkpt>
      <trkpt lat="37.577938000" lon="-4.267293000">
        <ele>485.0</ele>
        <time>2020-10-13T14:52:27Z</time>
      </trkpt>
      <trkpt lat="37.577843000" lon="-4.267239000">
        <ele>485.5</ele>
        <time>2020-10-13T14:52:30Z</time>
      </trkpt>
      <trkpt lat="37.577761000" lon="-4.267189000">
        <ele>486.0</ele>
        <time>2020-10-13T14:52:33Z</time>
      </trkpt>
      <trkpt lat="37.577686000" lon="-4.267150000">
        <ele>486.6</ele>
        <time>2020-10-13T14:52:36Z</time>
      </trkpt>
      <trkpt lat="37.577610000" lon="-4.267096000">
        <ele>487.4</ele>
        <time>2020-10-13T14:52:40Z</time>
      </trkpt>
      <trkpt lat="37.577528000" lon="-4.267060000">
        <ele>488.1</ele>
        <time>2020-10-13T14:52:44Z</time>
      </trkpt>
      <trkpt lat="37.577428000" lon="-4.267024000">
        <ele>488.9</ele>
        <time>2020-10-13T14:52:48Z</time>
      </trkpt>
      <trkpt lat="37.577336000" lon="-4.266996000">
        <ele>489.7</ele>
        <time>2020-10-13T14:52:51Z</time>
      </trkpt>
      <trkpt lat="37.577257000" lon="-4.266965000">
        <ele>490.5</ele>
        <time>2020-10-13T14:52:54Z</time>
      </trkpt>
      <trkpt lat="37.577173000" lon="-4.266901000">
        <ele>491.2</ele>
        <time>2020-10-13T14:52:59Z</time>
      </trkpt>
      <trkpt lat="37.577081000" lon="-4.266857000">
        <ele>491.7</ele>
        <time>2020-10-13T14:53:04Z</time>
      </trkpt>
      <trkpt lat="37.577004000" lon="-4.266809000">
        <ele>492.2</ele>
        <time>2020-10-13T14:53:08Z</time>
      </trkpt>
      <trkpt lat="37.576921000" lon="-4.266765000">
        <ele>492.5</ele>
        <time>2020-10-13T14:53:12Z</time>
      </trkpt>
      <trkpt lat="37.576833000" lon="-4.266731000">
        <ele>492.7</ele>
        <time>2020-10-13T14:53:16Z</time>
      </trkpt>
      <trkpt lat="37.576753000" lon="-4.266702000">
        <ele>492.8</ele>
        <time>2020-10-13T14:53:20Z</time>
      </trkpt>
      <trkpt lat="37.576652000" lon="-4.266653000">
        <ele>492.7</ele>
        <time>2020-10-13T14:53:24Z</time>
      </trkpt>
      <trkpt lat="37.576576000" lon="-4.266619000">
        <ele>492.6</ele>
        <time>2020-10-13T14:53:26Z</time>
      </trkpt>
      <trkpt lat="37.576475000" lon="-4.266573000">
        <ele>492.5</ele>
        <time>2020-10-13T14:53:28Z</time>
      </trkpt>
      <trkpt lat="37.576363000" lon="-4.266519000">
        <ele>492.2</ele>
        <time>2020-10-13T14:53:30Z</time>
      </trkpt>
      <trkpt lat="37.576250000" lon="-4.266466000">
        <ele>491.9</ele>
        <time>2020-10-13T14:53:32Z</time>
      </trkpt>
      <trkpt lat="37.576142000" lon="-4.266418000">
        <ele>491.6</ele>
        <time>2020-10-13T14:53:34Z</time>
      </trkpt>
      <trkpt lat="37.576055000" lon="-4.266374000">
        <ele>491.4</ele>
        <time>2020-10-13T14:53:36Z</time>
      </trkpt>
      <trkpt lat="37.575962000" lon="-4.266335000">
        <ele>491.1</ele>
        <time>2020-10-13T14:53:38Z</time>
      </trkpt>
      <trkpt lat="37.575866000" lon="-4.266294000">
        <ele>490.8</ele>
        <time>2020-10-13T14:53:40Z</time>
      </trkpt>
      <trkpt lat="37.575777000" lon="-4.266250000">
        <ele>490.6</ele>
        <time>2020-10-13T14:53:42Z</time>
      </trkpt>
      <trkpt lat="37.575692000" lon="-4.266216000">
        <ele>490.5</ele>
        <time>2020-10-13T14:53:44Z</time>
      </trkpt>
      <trkpt lat="37.575602000" lon="-4.266175000">
        <ele>490.4</ele>
        <time>2020-10-13T14:53:46Z</time>
      </trkpt>
      <trkpt lat="37.575523000" lon="-4.266133000">
        <ele>490.3</ele>
        <time>2020-10-13T14:53:48Z</time>
      </trkpt>
      <trkpt lat="37.575445000" lon="-4.266098000">
        <ele>490.2</ele>
        <time>2020-10-13T14:53:50Z</time>
      </trkpt>
      <trkpt lat="37.575363000" lon="-4.266061000">
        <ele>490.1</ele>
        <time>2020-10-13T14:53:52Z</time>
      </trkpt>
      <trkpt lat="37.575250000" lon="-4.266005000">
        <ele>490.0</ele>
        <time>2020-10-13T14:53:55Z</time>
      </trkpt>
      <trkpt lat="37.575141000" lon="-4.265954000">
        <ele>489.9</ele>
        <time>2020-10-13T14:53:58Z</time>
      </trkpt>
      <trkpt lat="37.575063000" lon="-4.265921000">
        <ele>489.8</ele>
        <time>2020-10-13T14:54:00Z</time>
      </trkpt>
      <trkpt lat="37.574985000" lon="-4.265884000">
        <ele>489.6</ele>
        <time>2020-10-13T14:54:02Z</time>
      </trkpt>
      <trkpt lat="37.574910000" lon="-4.265845000">
        <ele>489.5</ele>
        <time>2020-10-13T14:54:04Z</time>
      </trkpt>
      <trkpt lat="37.574802000" lon="-4.265793000">
        <ele>489.5</ele>
        <time>2020-10-13T14:54:07Z</time>
      </trkpt>
      <trkpt lat="37.574700000" lon="-4.265747000">
        <ele>489.5</ele>
        <time>2020-10-13T14:54:10Z</time>
      </trkpt>
      <trkpt lat="37.574607000" lon="-4.265694000">
        <ele>489.5</ele>
        <time>2020-10-13T14:54:13Z</time>
      </trkpt>
      <trkpt lat="37.574515000" lon="-4.265647000">
        <ele>489.5</ele>
        <time>2020-10-13T14:54:17Z</time>
      </trkpt>
      <trkpt lat="37.574424000" lon="-4.265584000">
        <ele>489.5</ele>
        <time>2020-10-13T14:54:19Z</time>
      </trkpt>
      <trkpt lat="37.574339000" lon="-4.265526000">
        <ele>489.5</ele>
        <time>2020-10-13T14:54:22Z</time>
      </trkpt>
      <trkpt lat="37.574247000" lon="-4.265461000">
        <ele>489.5</ele>
        <time>2020-10-13T14:54:25Z</time>
      </trkpt>
      <trkpt lat="37.574170000" lon="-4.265392000">
        <ele>489.6</ele>
        <time>2020-10-13T14:54:28Z</time>
      </trkpt>
      <trkpt lat="37.574092000" lon="-4.265335000">
        <ele>489.8</ele>
        <time>2020-10-13T14:54:33Z</time>
      </trkpt>
      <trkpt lat="37.574007000" lon="-4.265252000">
        <ele>490.2</ele>
        <time>2020-10-13T14:54:37Z</time>
      </trkpt>
      <trkpt lat="37.573942000" lon="-4.265191000">
        <ele>490.5</ele>
        <time>2020-10-13T14:54:40Z</time>
      </trkpt>
      <trkpt lat="37.573861000" lon="-4.265118000">
        <ele>491.0</ele>
        <time>2020-10-13T14:54:44Z</time>
      </trkpt>
      <trkpt lat="37.573792000" lon="-4.265055000">
        <ele>491.5</ele>
        <time>2020-10-13T14:54:47Z</time>
      </trkpt>
      <trkpt lat="37.573723000" lon="-4.264988000">
        <ele>492.0</ele>
        <time>2020-10-13T14:54:50Z</time>
      </trkpt>
      <trkpt lat="37.573648000" lon="-4.264918000">
        <ele>492.7</ele>
        <time>2020-10-13T14:54:53Z</time>
      </trkpt>
      <trkpt lat="37.573579000" lon="-4.264854000">
        <ele>493.5</ele>
        <time>2020-10-13T14:54:56Z</time>
      </trkpt>
      <trkpt lat="37.573497000" lon="-4.264780000">
        <ele>494.4</ele>
        <time>2020-10-13T14:55:00Z</time>
      </trkpt>
      <trkpt lat="37.573421000" lon="-4.264705000">
        <ele>495.3</ele>
        <time>2020-10-13T14:55:03Z</time>
      </trkpt>
      <trkpt lat="37.573343000" lon="-4.264633000">
        <ele>496.1</ele>
        <time>2020-10-13T14:55:06Z</time>
      </trkpt>
      <trkpt lat="37.573266000" lon="-4.264563000">
        <ele>496.6</ele>
        <time>2020-10-13T14:55:09Z</time>
      </trkpt>
      <trkpt lat="37.573220000" lon="-4.264470000">
        <ele>497.1</ele>
        <time>2020-10-13T14:55:12Z</time>
      </trkpt>
      <trkpt lat="37.573204000" lon="-4.264350000">
        <ele>497.6</ele>
        <time>2020-10-13T14:55:15Z</time>
      </trkpt>
      <trkpt lat="37.573181000" lon="-4.264238000">
        <ele>498.1</ele>
        <time>2020-10-13T14:55:19Z</time>
      </trkpt>
      <trkpt lat="37.573193000" lon="-4.264212000">
        <ele>498.7</ele>
        <time>2020-10-13T14:59:13Z</time>
      </trkpt>
      <trkpt lat="37.573305000" lon="-4.265334000">
        <ele>499.0</ele>
        <time>2020-10-13T15:05:34Z</time>
      </trkpt>
      <trkpt lat="37.573323000" lon="-4.265436000">
        <ele>499.0</ele>
        <time>2020-10-13T15:05:36Z</time>
      </trkpt>
      <trkpt lat="37.573346000" lon="-4.265567000">
        <ele>498.9</ele>
        <time>2020-10-13T15:05:39Z</time>
      </trkpt>
      <trkpt lat="37.573370000" lon="-4.265709000">
        <ele>498.8</ele>
        <time>2020-10-13T15:05:42Z</time>
      </trkpt>
      <trkpt lat="37.573394000" lon="-4.265858000">
        <ele>498.7</ele>
        <time>2020-10-13T15:05:45Z</time>
      </trkpt>
      <trkpt lat="37.573410000" lon="-4.265959000">
        <ele>498.6</ele>
        <time>2020-10-13T15:05:47Z</time>
      </trkpt>
      <trkpt lat="37.573427000" lon="-4.266108000">
        <ele>498.5</ele>
        <time>2020-10-13T15:05:50Z</time>
      </trkpt>
      <trkpt lat="37.573449000" lon="-4.266259000">
        <ele>498.5</ele>
        <time>2020-10-13T15:05:53Z</time>
      </trkpt>
      <trkpt lat="37.573459000" lon="-4.266361000">
        <ele>498.4</ele>
        <time>2020-10-13T15:05:55Z</time>
      </trkpt>
      <trkpt lat="37.573470000" lon="-4.266467000">
        <ele>498.3</ele>
        <time>2020-10-13T15:05:57Z</time>
      </trkpt>
      <trkpt lat="37.573478000" lon="-4.266574000">
        <ele>498.2</ele>
        <time>2020-10-13T15:05:59Z</time>
      </trkpt>
      <trkpt lat="37.573487000" lon="-4.266680000">
        <ele>498.2</ele>
        <time>2020-10-13T15:06:01Z</time>
      </trkpt>
      <trkpt lat="37.573497000" lon="-4.266784000">
        <ele>498.2</ele>
        <time>2020-10-13T15:06:03Z</time>
      </trkpt>
      <trkpt lat="37.573499000" lon="-4.266889000">
        <ele>498.3</ele>
        <time>2020-10-13T15:06:05Z</time>
      </trkpt>
      <trkpt lat="37.573496000" lon="-4.266999000">
        <ele>498.3</ele>
        <time>2020-10-13T15:06:07Z</time>
      </trkpt>
      <trkpt lat="37.573496000" lon="-4.267110000">
        <ele>498.3</ele>
        <time>2020-10-13T15:06:09Z</time>
      </trkpt>
      <trkpt lat="37.573492000" lon="-4.267228000">
        <ele>498.3</ele>
        <time>2020-10-13T15:06:11Z</time>
      </trkpt>
      <trkpt lat="37.573492000" lon="-4.267343000">
        <ele>498.3</ele>
        <time>2020-10-13T15:06:13Z</time>
      </trkpt>
      <trkpt lat="37.573493000" lon="-4.267467000">
        <ele>498.3</ele>
        <time>2020-10-13T15:06:15Z</time>
      </trkpt>
      <trkpt lat="37.573491000" lon="-4.267592000">
        <ele>498.3</ele>
        <time>2020-10-13T15:06:17Z</time>
      </trkpt>
      <trkpt lat="37.573484000" lon="-4.267711000">
        <ele>498.2</ele>
        <time>2020-10-13T15:06:19Z</time>
      </trkpt>
      <trkpt lat="37.573479000" lon="-4.267832000">
        <ele>498.2</ele>
        <time>2020-10-13T15:06:21Z</time>
      </trkpt>
      <trkpt lat="37.573464000" lon="-4.267954000">
        <ele>498.1</ele>
        <time>2020-10-13T15:06:23Z</time>
      </trkpt>
      <trkpt lat="37.573456000" lon="-4.268076000">
        <ele>498.1</ele>
        <time>2020-10-13T15:06:25Z</time>
      </trkpt>
      <trkpt lat="37.573443000" lon="-4.268201000">
        <ele>498.2</ele>
        <time>2020-10-13T15:06:27Z</time>
      </trkpt>
      <trkpt lat="37.573432000" lon="-4.268331000">
        <ele>498.5</ele>
        <time>2020-10-13T15:06:29Z</time>
      </trkpt>
      <trkpt lat="37.573418000" lon="-4.268457000">
        <ele>498.8</ele>
        <time>2020-10-13T15:06:31Z</time>
      </trkpt>
      <trkpt lat="37.573401000" lon="-4.268562000">
        <ele>499.2</ele>
        <time>2020-10-13T15:06:33Z</time>
      </trkpt>
      <trkpt lat="37.573387000" lon="-4.268665000">
        <ele>499.6</ele>
        <time>2020-10-13T15:06:35Z</time>
      </trkpt>
      <trkpt lat="37.573350000" lon="-4.268807000">
        <ele>500.1</ele>
        <time>2020-10-13T15:06:38Z</time>
      </trkpt>
      <trkpt lat="37.573324000" lon="-4.268943000">
        <ele>500.5</ele>
        <time>2020-10-13T15:06:41Z</time>
      </trkpt>
      <trkpt lat="37.573297000" lon="-4.269051000">
        <ele>500.8</ele>
        <time>2020-10-13T15:06:43Z</time>
      </trkpt>
      <trkpt lat="37.573274000" lon="-4.269165000">
        <ele>501.1</ele>
        <time>2020-10-13T15:06:45Z</time>
      </trkpt>
      <trkpt lat="37.573240000" lon="-4.269283000">
        <ele>501.3</ele>
        <time>2020-10-13T15:06:47Z</time>
      </trkpt>
      <trkpt lat="37.573211000" lon="-4.269399000">
        <ele>501.3</ele>
        <time>2020-10-13T15:06:49Z</time>
      </trkpt>
      <trkpt lat="37.573173000" lon="-4.269519000">
        <ele>501.2</ele>
        <time>2020-10-13T15:06:51Z</time>
      </trkpt>
      <trkpt lat="37.573138000" lon="-4.269647000">
        <ele>501.0</ele>
        <time>2020-10-13T15:06:53Z</time>
      </trkpt>
      <trkpt lat="37.573100000" lon="-4.269771000">
        <ele>500.7</ele>
        <time>2020-10-13T15:06:55Z</time>
      </trkpt>
      <trkpt lat="37.573061000" lon="-4.269894000">
        <ele>500.4</ele>
        <time>2020-10-13T15:06:57Z</time>
      </trkpt>
      <trkpt lat="37.573020000" lon="-4.270018000">
        <ele>499.9</ele>
        <time>2020-10-13T15:06:59Z</time>
      </trkpt>
      <trkpt lat="37.572981000" lon="-4.270141000">
        <ele>499.4</ele>
        <time>2020-10-13T15:07:01Z</time>
      </trkpt>
      <trkpt lat="37.572943000" lon="-4.270264000">
        <ele>498.9</ele>
        <time>2020-10-13T15:07:03Z</time>
      </trkpt>
      <trkpt lat="37.572904000" lon="-4.270390000">
        <ele>498.5</ele>
        <time>2020-10-13T15:07:05Z</time>
      </trkpt>
      <trkpt lat="37.572865000" lon="-4.270517000">
        <ele>498.2</ele>
        <time>2020-10-13T15:07:07Z</time>
      </trkpt>
      <trkpt lat="37.572824000" lon="-4.270649000">
        <ele>497.9</ele>
        <time>2020-10-13T15:07:09Z</time>
      </trkpt>
      <trkpt lat="37.572786000" lon="-4.270778000">
        <ele>497.7</ele>
        <time>2020-10-13T15:07:11Z</time>
      </trkpt>
      <trkpt lat="37.572747000" lon="-4.270906000">
        <ele>497.5</ele>
        <time>2020-10-13T15:07:13Z</time>
      </trkpt>
      <trkpt lat="37.572716000" lon="-4.271036000">
        <ele>497.4</ele>
        <time>2020-10-13T15:07:15Z</time>
      </trkpt>
      <trkpt lat="37.572678000" lon="-4.271166000">
        <ele>497.2</ele>
        <time>2020-10-13T15:07:17Z</time>
      </trkpt>
      <trkpt lat="37.572642000" lon="-4.271290000">
        <ele>497.0</ele>
        <time>2020-10-13T15:07:19Z</time>
      </trkpt>
      <trkpt lat="37.572609000" lon="-4.271414000">
        <ele>496.7</ele>
        <time>2020-10-13T15:07:21Z</time>
      </trkpt>
      <trkpt lat="37.572576000" lon="-4.271537000">
        <ele>496.5</ele>
        <time>2020-10-13T15:07:23Z</time>
      </trkpt>
      <trkpt lat="37.572539000" lon="-4.271657000">
        <ele>496.2</ele>
        <time>2020-10-13T15:07:25Z</time>
      </trkpt>
      <trkpt lat="37.572496000" lon="-4.271773000">
        <ele>495.9</ele>
        <time>2020-10-13T15:07:27Z</time>
      </trkpt>
      <trkpt lat="37.572456000" lon="-4.271893000">
        <ele>495.5</ele>
        <time>2020-10-13T15:07:29Z</time>
      </trkpt>
      <trkpt lat="37.572416000" lon="-4.272020000">
        <ele>495.2</ele>
        <time>2020-10-13T15:07:31Z</time>
      </trkpt>
      <trkpt lat="37.572375000" lon="-4.272148000">
        <ele>494.8</ele>
        <time>2020-10-13T15:07:33Z</time>
      </trkpt>
      <trkpt lat="37.572336000" lon="-4.272279000">
        <ele>494.4</ele>
        <time>2020-10-13T15:07:35Z</time>
      </trkpt>
      <trkpt lat="37.572295000" lon="-4.272407000">
        <ele>493.8</ele>
        <time>2020-10-13T15:07:37Z</time>
      </trkpt>
      <trkpt lat="37.572258000" lon="-4.272540000">
        <ele>493.2</ele>
        <time>2020-10-13T15:07:39Z</time>
      </trkpt>
      <trkpt lat="37.572219000" lon="-4.272666000">
        <ele>492.6</ele>
        <time>2020-10-13T15:07:41Z</time>
      </trkpt>
      <trkpt lat="37.572180000" lon="-4.272795000">
        <ele>492.3</ele>
        <time>2020-10-13T15:07:43Z</time>
      </trkpt>
      <trkpt lat="37.572145000" lon="-4.272922000">
        <ele>492.1</ele>
        <time>2020-10-13T15:07:45Z</time>
      </trkpt>
      <trkpt lat="37.572102000" lon="-4.273053000">
        <ele>492.0</ele>
        <time>2020-10-13T15:07:47Z</time>
      </trkpt>
      <trkpt lat="37.572066000" lon="-4.273188000">
        <ele>492.1</ele>
        <time>2020-10-13T15:07:49Z</time>
      </trkpt>
      <trkpt lat="37.572025000" lon="-4.273314000">
        <ele>492.4</ele>
        <time>2020-10-13T15:07:51Z</time>
      </trkpt>
      <trkpt lat="37.571981000" lon="-4.273443000">
        <ele>492.7</ele>
        <time>2020-10-13T15:07:53Z</time>
      </trkpt>
      <trkpt lat="37.571946000" lon="-4.273571000">
        <ele>493.1</ele>
        <time>2020-10-13T15:07:55Z</time>
      </trkpt>
      <trkpt lat="37.571908000" lon="-4.273700000">
        <ele>493.5</ele>
        <time>2020-10-13T15:07:57Z</time>
      </trkpt>
      <trkpt lat="37.571867000" lon="-4.273829000">
        <ele>494.1</ele>
        <time>2020-10-13T15:07:59Z</time>
      </trkpt>
      <trkpt lat="37.571827000" lon="-4.273952000">
        <ele>494.7</ele>
        <time>2020-10-13T15:08:01Z</time>
      </trkpt>
      <trkpt lat="37.571787000" lon="-4.274076000">
        <ele>495.4</ele>
        <time>2020-10-13T15:08:03Z</time>
      </trkpt>
      <trkpt lat="37.571748000" lon="-4.274199000">
        <ele>495.9</ele>
        <time>2020-10-13T15:08:05Z</time>
      </trkpt>
      <trkpt lat="37.571708000" lon="-4.274326000">
        <ele>496.4</ele>
        <time>2020-10-13T15:08:07Z</time>
      </trkpt>
      <trkpt lat="37.571671000" lon="-4.274446000">
        <ele>496.7</ele>
        <time>2020-10-13T15:08:09Z</time>
      </trkpt>
      <trkpt lat="37.571635000" lon="-4.274564000">
        <ele>496.8</ele>
        <time>2020-10-13T15:08:11Z</time>
      </trkpt>
      <trkpt lat="37.571605000" lon="-4.274678000">
        <ele>496.8</ele>
        <time>2020-10-13T15:08:13Z</time>
      </trkpt>
      <trkpt lat="37.571572000" lon="-4.274793000">
        <ele>496.7</ele>
        <time>2020-10-13T15:08:15Z</time>
      </trkpt>
      <trkpt lat="37.571536000" lon="-4.274916000">
        <ele>496.6</ele>
        <time>2020-10-13T15:08:17Z</time>
      </trkpt>
      <trkpt lat="37.571495000" lon="-4.275036000">
        <ele>496.5</ele>
        <time>2020-10-13T15:08:19Z</time>
      </trkpt>
      <trkpt lat="37.571460000" lon="-4.275151000">
        <ele>496.5</ele>
        <time>2020-10-13T15:08:21Z</time>
      </trkpt>
      <trkpt lat="37.571424000" lon="-4.275266000">
        <ele>496.5</ele>
        <time>2020-10-13T15:08:23Z</time>
      </trkpt>
      <trkpt lat="37.571387000" lon="-4.275377000">
        <ele>496.5</ele>
        <time>2020-10-13T15:08:25Z</time>
      </trkpt>
      <trkpt lat="37.571355000" lon="-4.275491000">
        <ele>496.6</ele>
        <time>2020-10-13T15:08:27Z</time>
      </trkpt>
      <trkpt lat="37.571329000" lon="-4.275604000">
        <ele>496.7</ele>
        <time>2020-10-13T15:08:29Z</time>
      </trkpt>
      <trkpt lat="37.571294000" lon="-4.275707000">
        <ele>496.8</ele>
        <time>2020-10-13T15:08:31Z</time>
      </trkpt>
      <trkpt lat="37.571263000" lon="-4.275810000">
        <ele>497.1</ele>
        <time>2020-10-13T15:08:33Z</time>
      </trkpt>
      <trkpt lat="37.571236000" lon="-4.275918000">
        <ele>497.4</ele>
        <time>2020-10-13T15:08:35Z</time>
      </trkpt>
      <trkpt lat="37.571206000" lon="-4.276021000">
        <ele>497.7</ele>
        <time>2020-10-13T15:08:37Z</time>
      </trkpt>
      <trkpt lat="37.571184000" lon="-4.276125000">
        <ele>498.2</ele>
        <time>2020-10-13T15:08:39Z</time>
      </trkpt>
      <trkpt lat="37.571156000" lon="-4.276229000">
        <ele>498.6</ele>
        <time>2020-10-13T15:08:41Z</time>
      </trkpt>
      <trkpt lat="37.571131000" lon="-4.276326000">
        <ele>499.1</ele>
        <time>2020-10-13T15:08:43Z</time>
      </trkpt>
      <trkpt lat="37.571094000" lon="-4.276465000">
        <ele>499.5</ele>
        <time>2020-10-13T15:08:46Z</time>
      </trkpt>
      <trkpt lat="37.571059000" lon="-4.276609000">
        <ele>500.1</ele>
        <time>2020-10-13T15:08:49Z</time>
      </trkpt>
      <trkpt lat="37.571026000" lon="-4.276754000">
        <ele>500.5</ele>
        <time>2020-10-13T15:08:52Z</time>
      </trkpt>
      <trkpt lat="37.571004000" lon="-4.276853000">
        <ele>501.0</ele>
        <time>2020-10-13T15:08:54Z</time>
      </trkpt>
      <trkpt lat="37.570983000" lon="-4.276954000">
        <ele>501.5</ele>
        <time>2020-10-13T15:08:56Z</time>
      </trkpt>
      <trkpt lat="37.570954000" lon="-4.277099000">
        <ele>501.8</ele>
        <time>2020-10-13T15:08:59Z</time>
      </trkpt>
      <trkpt lat="37.570930000" lon="-4.277241000">
        <ele>502.3</ele>
        <time>2020-10-13T15:09:02Z</time>
      </trkpt>
      <trkpt lat="37.570903000" lon="-4.277381000">
        <ele>502.7</ele>
        <time>2020-10-13T15:09:06Z</time>
      </trkpt>
      <trkpt lat="37.570874000" lon="-4.277531000">
        <ele>503.1</ele>
        <time>2020-10-13T15:09:09Z</time>
      </trkpt>
      <trkpt lat="37.570844000" lon="-4.277677000">
        <ele>503.4</ele>
        <time>2020-10-13T15:09:37Z</time>
      </trkpt>
      <trkpt lat="37.570822000" lon="-4.277822000">
        <ele>503.5</ele>
        <time>2020-10-13T15:09:37Z</time>
      </trkpt>
      <trkpt lat="37.570802000" lon="-4.277969000">
        <ele>503.5</ele>
        <time>2020-10-13T15:09:37Z</time>
      </trkpt>
      <trkpt lat="37.570777000" lon="-4.278115000">
        <ele>503.6</ele>
        <time>2020-10-13T15:09:45Z</time>
      </trkpt>
      <trkpt lat="37.570762000" lon="-4.278263000">
        <ele>503.7</ele>
        <time>2020-10-13T15:09:46Z</time>
      </trkpt>
      <trkpt lat="37.570741000" lon="-4.278506000">
        <ele>504.1</ele>
        <time>2020-10-13T15:09:47Z</time>
      </trkpt>
      <trkpt lat="37.570727000" lon="-4.278702000">
        <ele>504.5</ele>
        <time>2020-10-13T15:09:47Z</time>
      </trkpt>
      <trkpt lat="37.570714000" lon="-4.278849000">
        <ele>505.0</ele>
        <time>2020-10-13T15:09:48Z</time>
      </trkpt>
      <trkpt lat="37.570707000" lon="-4.279000000">
        <ele>505.4</ele>
        <time>2020-10-13T15:09:49Z</time>
      </trkpt>
      <trkpt lat="37.570700000" lon="-4.279152000">
        <ele>505.6</ele>
        <time>2020-10-13T15:09:49Z</time>
      </trkpt>
      <trkpt lat="37.570682000" lon="-4.279588000">
        <ele>505.9</ele>
        <time>2020-10-13T15:09:51Z</time>
      </trkpt>
      <trkpt lat="37.570677000" lon="-4.279731000">
        <ele>506.2</ele>
        <time>2020-10-13T15:09:53Z</time>
      </trkpt>
      <trkpt lat="37.570690000" lon="-4.279878000">
        <ele>506.5</ele>
        <time>2020-10-13T15:09:56Z</time>
      </trkpt>
      <trkpt lat="37.570692000" lon="-4.280019000">
        <ele>507.1</ele>
        <time>2020-10-13T15:09:59Z</time>
      </trkpt>
      <trkpt lat="37.570691000" lon="-4.280144000">
        <ele>507.7</ele>
        <time>2020-10-13T15:10:02Z</time>
      </trkpt>
      <trkpt lat="37.570675000" lon="-4.280270000">
        <ele>508.5</ele>
        <time>2020-10-13T15:10:06Z</time>
      </trkpt>
      <trkpt lat="37.570659000" lon="-4.280396000">
        <ele>509.0</ele>
        <time>2020-10-13T15:10:14Z</time>
      </trkpt>
      <trkpt lat="37.570632000" lon="-4.280531000">
        <ele>509.5</ele>
        <time>2020-10-13T15:10:15Z</time>
      </trkpt>
      <trkpt lat="37.570544000" lon="-4.280536000">
        <ele>510.2</ele>
        <time>2020-10-13T15:14:34Z</time>
      </trkpt>
      <trkpt lat="37.570479000" lon="-4.280634000">
        <ele>511.0</ele>
        <time>2020-10-13T15:14:39Z</time>
      </trkpt>
      <trkpt lat="37.570422000" lon="-4.280732000">
        <ele>512.0</ele>
        <time>2020-10-13T15:14:44Z</time>
      </trkpt>
      <trkpt lat="37.570375000" lon="-4.280823000">
        <ele>513.1</ele>
        <time>2020-10-13T15:14:48Z</time>
      </trkpt>
      <trkpt lat="37.570317000" lon="-4.280894000">
        <ele>514.4</ele>
        <time>2020-10-13T15:14:52Z</time>
      </trkpt>
      <trkpt lat="37.570266000" lon="-4.280977000">
        <ele>515.5</ele>
        <time>2020-10-13T15:14:56Z</time>
      </trkpt>
      <trkpt lat="37.570191000" lon="-4.281058000">
        <ele>516.6</ele>
        <time>2020-10-13T15:15:01Z</time>
      </trkpt>
      <trkpt lat="37.570112000" lon="-4.281029000">
        <ele>517.5</ele>
        <time>2020-10-13T15:15:05Z</time>
      </trkpt>
      <trkpt lat="37.570052000" lon="-4.280938000">
        <ele>518.4</ele>
        <time>2020-10-13T15:15:10Z</time>
      </trkpt>
      <trkpt lat="37.570062000" lon="-4.280830000">
        <ele>519.2</ele>
        <time>2020-10-13T15:15:14Z</time>
      </trkpt>
      <trkpt lat="37.570086000" lon="-4.280729000">
        <ele>519.9</ele>
        <time>2020-10-13T15:15:18Z</time>
      </trkpt>
      <trkpt lat="37.570106000" lon="-4.280606000">
        <ele>520.5</ele>
        <time>2020-10-13T15:15:23Z</time>
      </trkpt>
      <trkpt lat="37.570114000" lon="-4.280482000">
        <ele>521.0</ele>
        <time>2020-10-13T15:15:28Z</time>
      </trkpt>
      <trkpt lat="37.570084000" lon="-4.280364000">
        <ele>521.3</ele>
        <time>2020-10-13T15:15:33Z</time>
      </trkpt>
      <trkpt lat="37.570055000" lon="-4.280249000">
        <ele>521.5</ele>
        <time>2020-10-13T15:15:38Z</time>
      </trkpt>
      <trkpt lat="37.570032000" lon="-4.280141000">
        <ele>521.7</ele>
        <time>2020-10-13T15:15:43Z</time>
      </trkpt>
      <trkpt lat="37.569991000" lon="-4.280035000">
        <ele>522.1</ele>
        <time>2020-10-13T15:15:48Z</time>
      </trkpt>
      <trkpt lat="37.569937000" lon="-4.279929000">
        <ele>522.4</ele>
        <time>2020-10-13T15:15:53Z</time>
      </trkpt>
      <trkpt lat="37.569867000" lon="-4.279864000">
        <ele>522.7</ele>
        <time>2020-10-13T15:15:57Z</time>
      </trkpt>
      <trkpt lat="37.569789000" lon="-4.279831000">
        <ele>523.1</ele>
        <time>2020-10-13T15:16:01Z</time>
      </trkpt>
      <trkpt lat="37.569707000" lon="-4.279806000">
        <ele>523.5</ele>
        <time>2020-10-13T15:16:05Z</time>
      </trkpt>
      <trkpt lat="37.569626000" lon="-4.279780000">
        <ele>523.9</ele>
        <time>2020-10-13T15:16:09Z</time>
      </trkpt>
      <trkpt lat="37.569529000" lon="-4.279753000">
        <ele>524.5</ele>
        <time>2020-10-13T15:16:14Z</time>
      </trkpt>
      <trkpt lat="37.569446000" lon="-4.279729000">
        <ele>525.1</ele>
        <time>2020-10-13T15:16:18Z</time>
      </trkpt>
      <trkpt lat="37.569366000" lon="-4.279704000">
        <ele>525.7</ele>
        <time>2020-10-13T15:16:22Z</time>
      </trkpt>
      <trkpt lat="37.569275000" lon="-4.279693000">
        <ele>526.4</ele>
        <time>2020-10-13T15:16:26Z</time>
      </trkpt>
      <trkpt lat="37.569187000" lon="-4.279669000">
        <ele>527.1</ele>
        <time>2020-10-13T15:16:30Z</time>
      </trkpt>
      <trkpt lat="37.569106000" lon="-4.279631000">
        <ele>527.8</ele>
        <time>2020-10-13T15:16:34Z</time>
      </trkpt>
      <trkpt lat="37.569012000" lon="-4.279592000">
        <ele>528.6</ele>
        <time>2020-10-13T15:16:39Z</time>
      </trkpt>
      <trkpt lat="37.568934000" lon="-4.279556000">
        <ele>529.5</ele>
        <time>2020-10-13T15:16:43Z</time>
      </trkpt>
      <trkpt lat="37.568851000" lon="-4.279517000">
        <ele>530.4</ele>
        <time>2020-10-13T15:16:47Z</time>
      </trkpt>
      <trkpt lat="37.568769000" lon="-4.279482000">
        <ele>531.3</ele>
        <time>2020-10-13T15:16:51Z</time>
      </trkpt>
      <trkpt lat="37.568689000" lon="-4.279441000">
        <ele>532.3</ele>
        <time>2020-10-13T15:16:55Z</time>
      </trkpt>
      <trkpt lat="37.568612000" lon="-4.279392000">
        <ele>533.3</ele>
        <time>2020-10-13T15:16:59Z</time>
      </trkpt>
      <trkpt lat="37.568522000" lon="-4.279355000">
        <ele>534.2</ele>
        <time>2020-10-13T15:17:04Z</time>
      </trkpt>
      <trkpt lat="37.568433000" lon="-4.279308000">
        <ele>535.2</ele>
        <time>2020-10-13T15:17:09Z</time>
      </trkpt>
      <trkpt lat="37.568349000" lon="-4.279266000">
        <ele>536.2</ele>
        <time>2020-10-13T15:17:14Z</time>
      </trkpt>
      <trkpt lat="37.568262000" lon="-4.279221000">
        <ele>537.2</ele>
        <time>2020-10-13T15:17:20Z</time>
      </trkpt>
      <trkpt lat="37.568175000" lon="-4.279171000">
        <ele>538.2</ele>
        <time>2020-10-13T15:17:25Z</time>
      </trkpt>
      <trkpt lat="37.568102000" lon="-4.279123000">
        <ele>539.2</ele>
        <time>2020-10-13T15:17:30Z</time>
      </trkpt>
      <trkpt lat="37.568016000" lon="-4.279075000">
        <ele>540.2</ele>
        <time>2020-10-13T15:17:35Z</time>
      </trkpt>
      <trkpt lat="37.567944000" lon="-4.279029000">
        <ele>541.2</ele>
        <time>2020-10-13T15:17:40Z</time>
      </trkpt>
      <trkpt lat="37.567868000" lon="-4.278980000">
        <ele>542.2</ele>
        <time>2020-10-13T15:17:45Z</time>
      </trkpt>
      <trkpt lat="37.567781000" lon="-4.278928000">
        <ele>543.1</ele>
        <time>2020-10-13T15:17:51Z</time>
      </trkpt>
      <trkpt lat="37.567706000" lon="-4.278862000">
        <ele>544.1</ele>
        <time>2020-10-13T15:17:57Z</time>
      </trkpt>
      <trkpt lat="37.567634000" lon="-4.278814000">
        <ele>545.2</ele>
        <time>2020-10-13T15:18:02Z</time>
      </trkpt>
      <trkpt lat="37.567555000" lon="-4.278766000">
        <ele>546.4</ele>
        <time>2020-10-13T15:18:08Z</time>
      </trkpt>
      <trkpt lat="37.567484000" lon="-4.278711000">
        <ele>547.6</ele>
        <time>2020-10-13T15:18:13Z</time>
      </trkpt>
      <trkpt lat="37.567398000" lon="-4.278664000">
        <ele>549.0</ele>
        <time>2020-10-13T15:18:21Z</time>
      </trkpt>
      <trkpt lat="37.567327000" lon="-4.278588000">
        <ele>550.4</ele>
        <time>2020-10-13T15:18:27Z</time>
      </trkpt>
      <trkpt lat="37.567274000" lon="-4.278496000">
        <ele>551.7</ele>
        <time>2020-10-13T15:18:34Z</time>
      </trkpt>
      <trkpt lat="37.567191000" lon="-4.278458000">
        <ele>553.0</ele>
        <time>2020-10-13T15:18:42Z</time>
      </trkpt>
      <trkpt lat="37.567125000" lon="-4.278390000">
        <ele>554.3</ele>
        <time>2020-10-13T15:18:48Z</time>
      </trkpt>
      <trkpt lat="37.567050000" lon="-4.278319000">
        <ele>555.5</ele>
        <time>2020-10-13T15:18:55Z</time>
      </trkpt>
      <trkpt lat="37.566979000" lon="-4.278252000">
        <ele>556.6</ele>
        <time>2020-10-13T15:19:01Z</time>
      </trkpt>
      <trkpt lat="37.566910000" lon="-4.278196000">
        <ele>557.7</ele>
        <time>2020-10-13T15:19:07Z</time>
      </trkpt>
      <trkpt lat="37.566841000" lon="-4.278136000">
        <ele>558.8</ele>
        <time>2020-10-13T15:19:13Z</time>
      </trkpt>
      <trkpt lat="37.566791000" lon="-4.278043000">
        <ele>559.7</ele>
        <time>2020-10-13T15:19:19Z</time>
      </trkpt>
      <trkpt lat="37.566759000" lon="-4.277945000">
        <ele>560.5</ele>
        <time>2020-10-13T15:19:25Z</time>
      </trkpt>
      <trkpt lat="37.566725000" lon="-4.277834000">
        <ele>561.2</ele>
        <time>2020-10-13T15:19:30Z</time>
      </trkpt>
      <trkpt lat="37.566681000" lon="-4.277719000">
        <ele>561.7</ele>
        <time>2020-10-13T15:19:35Z</time>
      </trkpt>
      <trkpt lat="37.566659000" lon="-4.277616000">
        <ele>562.2</ele>
        <time>2020-10-13T15:19:39Z</time>
      </trkpt>
      <trkpt lat="37.566639000" lon="-4.277516000">
        <ele>562.7</ele>
        <time>2020-10-13T15:19:43Z</time>
      </trkpt>
      <trkpt lat="37.566618000" lon="-4.277416000">
        <ele>563.3</ele>
        <time>2020-10-13T15:19:47Z</time>
      </trkpt>
      <trkpt lat="37.566617000" lon="-4.277297000">
        <ele>563.8</ele>
        <time>2020-10-13T15:19:52Z</time>
      </trkpt>
      <trkpt lat="37.566620000" lon="-4.277194000">
        <ele>564.4</ele>
        <time>2020-10-13T15:19:56Z</time>
      </trkpt>
      <trkpt lat="37.566617000" lon="-4.277087000">
        <ele>564.9</ele>
        <time>2020-10-13T15:20:00Z</time>
      </trkpt>
      <trkpt lat="37.566612000" lon="-4.276978000">
        <ele>565.4</ele>
        <time>2020-10-13T15:20:04Z</time>
      </trkpt>
      <trkpt lat="37.566600000" lon="-4.276870000">
        <ele>565.9</ele>
        <time>2020-10-13T15:20:08Z</time>
      </trkpt>
      <trkpt lat="37.566566000" lon="-4.276770000">
        <ele>566.4</ele>
        <time>2020-10-13T15:20:12Z</time>
      </trkpt>
      <trkpt lat="37.566506000" lon="-4.276696000">
        <ele>566.8</ele>
        <time>2020-10-13T15:20:16Z</time>
      </trkpt>
      <trkpt lat="37.566431000" lon="-4.276643000">
        <ele>567.3</ele>
        <time>2020-10-13T15:20:20Z</time>
      </trkpt>
      <trkpt lat="37.566356000" lon="-4.276603000">
        <ele>567.7</ele>
        <time>2020-10-13T15:20:24Z</time>
      </trkpt>
      <trkpt lat="37.566264000" lon="-4.276554000">
        <ele>568.2</ele>
        <time>2020-10-13T15:20:29Z</time>
      </trkpt>
      <trkpt lat="37.566165000" lon="-4.276519000">
        <ele>568.5</ele>
        <time>2020-10-13T15:20:34Z</time>
      </trkpt>
      <trkpt lat="37.566084000" lon="-4.276489000">
        <ele>569.0</ele>
        <time>2020-10-13T15:20:38Z</time>
      </trkpt>
      <trkpt lat="37.566003000" lon="-4.276466000">
        <ele>569.5</ele>
        <time>2020-10-13T15:20:42Z</time>
      </trkpt>
      <trkpt lat="37.565916000" lon="-4.276459000">
        <ele>569.8</ele>
        <time>2020-10-13T15:20:46Z</time>
      </trkpt>
      <trkpt lat="37.565828000" lon="-4.276451000">
        <ele>570.2</ele>
        <time>2020-10-13T15:20:50Z</time>
      </trkpt>
      <trkpt lat="37.565745000" lon="-4.276458000">
        <ele>570.5</ele>
        <time>2020-10-13T15:20:54Z</time>
      </trkpt>
      <trkpt lat="37.565657000" lon="-4.276463000">
        <ele>570.9</ele>
        <time>2020-10-13T15:20:58Z</time>
      </trkpt>
      <trkpt lat="37.565568000" lon="-4.276466000">
        <ele>571.4</ele>
        <time>2020-10-13T15:21:02Z</time>
      </trkpt>
      <trkpt lat="37.565477000" lon="-4.276464000">
        <ele>571.9</ele>
        <time>2020-10-13T15:21:06Z</time>
      </trkpt>
      <trkpt lat="37.565391000" lon="-4.276447000">
        <ele>572.5</ele>
        <time>2020-10-13T15:21:10Z</time>
      </trkpt>
      <trkpt lat="37.565307000" lon="-4.276436000">
        <ele>573.2</ele>
        <time>2020-10-13T15:21:14Z</time>
      </trkpt>
      <trkpt lat="37.565227000" lon="-4.276411000">
        <ele>573.9</ele>
        <time>2020-10-13T15:21:18Z</time>
      </trkpt>
      <trkpt lat="37.565142000" lon="-4.276374000">
        <ele>574.6</ele>
        <time>2020-10-13T15:21:22Z</time>
      </trkpt>
      <trkpt lat="37.565058000" lon="-4.276343000">
        <ele>575.3</ele>
        <time>2020-10-13T15:21:26Z</time>
      </trkpt>
      <trkpt lat="37.564978000" lon="-4.276299000">
        <ele>576.0</ele>
        <time>2020-10-13T15:21:30Z</time>
      </trkpt>
      <trkpt lat="37.564898000" lon="-4.276259000">
        <ele>576.7</ele>
        <time>2020-10-13T15:21:34Z</time>
      </trkpt>
      <trkpt lat="37.564821000" lon="-4.276217000">
        <ele>577.4</ele>
        <time>2020-10-13T15:21:38Z</time>
      </trkpt>
      <trkpt lat="37.564744000" lon="-4.276177000">
        <ele>578.0</ele>
        <time>2020-10-13T15:21:42Z</time>
      </trkpt>
      <trkpt lat="37.564662000" lon="-4.276143000">
        <ele>578.5</ele>
        <time>2020-10-13T15:21:46Z</time>
      </trkpt>
      <trkpt lat="37.564580000" lon="-4.276102000">
        <ele>579.0</ele>
        <time>2020-10-13T15:21:50Z</time>
      </trkpt>
      <trkpt lat="37.564492000" lon="-4.276059000">
        <ele>579.4</ele>
        <time>2020-10-13T15:21:54Z</time>
      </trkpt>
      <trkpt lat="37.564409000" lon="-4.276009000">
        <ele>579.7</ele>
        <time>2020-10-13T15:21:58Z</time>
      </trkpt>
      <trkpt lat="37.564326000" lon="-4.275965000">
        <ele>580.0</ele>
        <time>2020-10-13T15:22:02Z</time>
      </trkpt>
      <trkpt lat="37.564247000" lon="-4.275919000">
        <ele>580.2</ele>
        <time>2020-10-13T15:22:06Z</time>
      </trkpt>
      <trkpt lat="37.564175000" lon="-4.275864000">
        <ele>580.4</ele>
        <time>2020-10-13T15:22:10Z</time>
      </trkpt>
      <trkpt lat="37.564102000" lon="-4.275805000">
        <ele>580.5</ele>
        <time>2020-10-13T15:22:14Z</time>
      </trkpt>
      <trkpt lat="37.564022000" lon="-4.275755000">
        <ele>580.5</ele>
        <time>2020-10-13T15:22:18Z</time>
      </trkpt>
      <trkpt lat="37.563949000" lon="-4.275698000">
        <ele>580.7</ele>
        <time>2020-10-13T15:22:22Z</time>
      </trkpt>
      <trkpt lat="37.563859000" lon="-4.275638000">
        <ele>581.0</ele>
        <time>2020-10-13T15:22:26Z</time>
      </trkpt>
      <trkpt lat="37.563774000" lon="-4.275586000">
        <ele>581.5</ele>
        <time>2020-10-13T15:22:30Z</time>
      </trkpt>
      <trkpt lat="37.563701000" lon="-4.275530000">
        <ele>582.0</ele>
        <time>2020-10-13T15:22:34Z</time>
      </trkpt>
      <trkpt lat="37.563633000" lon="-4.275473000">
        <ele>582.6</ele>
        <time>2020-10-13T15:22:38Z</time>
      </trkpt>
      <trkpt lat="37.563561000" lon="-4.275422000">
        <ele>583.4</ele>
        <time>2020-10-13T15:22:42Z</time>
      </trkpt>
      <trkpt lat="37.563473000" lon="-4.275359000">
        <ele>584.2</ele>
        <time>2020-10-13T15:22:47Z</time>
      </trkpt>
      <trkpt lat="37.563399000" lon="-4.275305000">
        <ele>585.1</ele>
        <time>2020-10-13T15:22:51Z</time>
      </trkpt>
      <trkpt lat="37.563320000" lon="-4.275243000">
        <ele>586.0</ele>
        <time>2020-10-13T15:22:55Z</time>
      </trkpt>
      <trkpt lat="37.563235000" lon="-4.275173000">
        <ele>587.0</ele>
        <time>2020-10-13T15:22:59Z</time>
      </trkpt>
      <trkpt lat="37.563147000" lon="-4.275101000">
        <ele>588.0</ele>
        <time>2020-10-13T15:23:03Z</time>
      </trkpt>
      <trkpt lat="37.563070000" lon="-4.275027000">
        <ele>589.0</ele>
        <time>2020-10-13T15:23:07Z</time>
      </trkpt>
      <trkpt lat="37.562996000" lon="-4.274954000">
        <ele>590.0</ele>
        <time>2020-10-13T15:23:11Z</time>
      </trkpt>
      <trkpt lat="37.562919000" lon="-4.274888000">
        <ele>590.9</ele>
        <time>2020-10-13T15:23:15Z</time>
      </trkpt>
      <trkpt lat="37.562843000" lon="-4.274814000">
        <ele>591.8</ele>
        <time>2020-10-13T15:23:19Z</time>
      </trkpt>
      <trkpt lat="37.562767000" lon="-4.274748000">
        <ele>592.7</ele>
        <time>2020-10-13T15:23:23Z</time>
      </trkpt>
      <trkpt lat="37.562689000" lon="-4.274699000">
        <ele>593.5</ele>
        <time>2020-10-13T15:23:27Z</time>
      </trkpt>
      <trkpt lat="37.562599000" lon="-4.274698000">
        <ele>594.4</ele>
        <time>2020-10-13T15:23:31Z</time>
      </trkpt>
      <trkpt lat="37.562514000" lon="-4.274736000">
        <ele>595.2</ele>
        <time>2020-10-13T15:23:35Z</time>
      </trkpt>
      <trkpt lat="37.562423000" lon="-4.274785000">
        <ele>596.0</ele>
        <time>2020-10-13T15:23:39Z</time>
      </trkpt>
      <trkpt lat="37.562344000" lon="-4.274838000">
        <ele>596.8</ele>
        <time>2020-10-13T15:23:43Z</time>
      </trkpt>
      <trkpt lat="37.562283000" lon="-4.274908000">
        <ele>597.6</ele>
        <time>2020-10-13T15:23:47Z</time>
      </trkpt>
      <trkpt lat="37.562223000" lon="-4.274993000">
        <ele>598.5</ele>
        <time>2020-10-13T15:23:51Z</time>
      </trkpt>
      <trkpt lat="37.562166000" lon="-4.275072000">
        <ele>599.2</ele>
        <time>2020-10-13T15:23:55Z</time>
      </trkpt>
      <trkpt lat="37.562105000" lon="-4.275148000">
        <ele>599.9</ele>
        <time>2020-10-13T15:23:59Z</time>
      </trkpt>
      <trkpt lat="37.562046000" lon="-4.275238000">
        <ele>600.5</ele>
        <time>2020-10-13T15:24:03Z</time>
      </trkpt>
      <trkpt lat="37.562025000" lon="-4.275347000">
        <ele>601.2</ele>
        <time>2020-10-13T15:24:07Z</time>
      </trkpt>
      <trkpt lat="37.562024000" lon="-4.275460000">
        <ele>601.8</ele>
        <time>2020-10-13T15:24:11Z</time>
      </trkpt>
      <trkpt lat="37.562028000" lon="-4.275580000">
        <ele>602.5</ele>
        <time>2020-10-13T15:24:16Z</time>
      </trkpt>
      <trkpt lat="37.562039000" lon="-4.275699000">
        <ele>603.0</ele>
        <time>2020-10-13T15:24:21Z</time>
      </trkpt>
      <trkpt lat="37.562052000" lon="-4.275810000">
        <ele>603.5</ele>
        <time>2020-10-13T15:24:26Z</time>
      </trkpt>
      <trkpt lat="37.562065000" lon="-4.275914000">
        <ele>603.7</ele>
        <time>2020-10-13T15:24:31Z</time>
      </trkpt>
      <trkpt lat="37.562075000" lon="-4.276025000">
        <ele>604.0</ele>
        <time>2020-10-13T15:24:38Z</time>
      </trkpt>
      <trkpt lat="37.561988000" lon="-4.276059000">
        <ele>604.1</ele>
        <time>2020-10-13T15:24:44Z</time>
      </trkpt>
      <trkpt lat="37.561914000" lon="-4.276014000">
        <ele>604.1</ele>
        <time>2020-10-13T15:25:08Z</time>
      </trkpt>
      <trkpt lat="37.561834000" lon="-4.275946000">
        <ele>603.9</ele>
        <time>2020-10-13T15:25:12Z</time>
      </trkpt>
      <trkpt lat="37.561742000" lon="-4.275872000">
        <ele>603.7</ele>
        <time>2020-10-13T15:25:16Z</time>
      </trkpt>
      <trkpt lat="37.561651000" lon="-4.275794000">
        <ele>603.3</ele>
        <time>2020-10-13T15:25:20Z</time>
      </trkpt>
      <trkpt lat="37.561575000" lon="-4.275714000">
        <ele>602.6</ele>
        <time>2020-10-13T15:25:23Z</time>
      </trkpt>
      <trkpt lat="37.561512000" lon="-4.275650000">
        <ele>601.8</ele>
        <time>2020-10-13T15:25:25Z</time>
      </trkpt>
      <trkpt lat="37.561426000" lon="-4.275579000">
        <ele>601.0</ele>
        <time>2020-10-13T15:25:27Z</time>
      </trkpt>
      <trkpt lat="37.561336000" lon="-4.275510000">
        <ele>600.3</ele>
        <time>2020-10-13T15:25:29Z</time>
      </trkpt>
      <trkpt lat="37.561246000" lon="-4.275417000">
        <ele>599.6</ele>
        <time>2020-10-13T15:25:31Z</time>
      </trkpt>
      <trkpt lat="37.561142000" lon="-4.275322000">
        <ele>599.0</ele>
        <time>2020-10-13T15:25:33Z</time>
      </trkpt>
      <trkpt lat="37.561030000" lon="-4.275217000">
        <ele>598.5</ele>
        <time>2020-10-13T15:25:35Z</time>
      </trkpt>
      <trkpt lat="37.560925000" lon="-4.275114000">
        <ele>598.4</ele>
        <time>2020-10-13T15:25:37Z</time>
      </trkpt>
      <trkpt lat="37.560817000" lon="-4.275019000">
        <ele>598.4</ele>
        <time>2020-10-13T15:25:39Z</time>
      </trkpt>
      <trkpt lat="37.560698000" lon="-4.274925000">
        <ele>598.5</ele>
        <time>2020-10-13T15:25:41Z</time>
      </trkpt>
      <trkpt lat="37.560594000" lon="-4.274840000">
        <ele>598.9</ele>
        <time>2020-10-13T15:25:43Z</time>
      </trkpt>
      <trkpt lat="37.560485000" lon="-4.274757000">
        <ele>599.4</ele>
        <time>2020-10-13T15:25:45Z</time>
      </trkpt>
      <trkpt lat="37.560379000" lon="-4.274671000">
        <ele>599.9</ele>
        <time>2020-10-13T15:25:47Z</time>
      </trkpt>
      <trkpt lat="37.560282000" lon="-4.274590000">
        <ele>600.4</ele>
        <time>2020-10-13T15:25:49Z</time>
      </trkpt>
      <trkpt lat="37.560189000" lon="-4.274517000">
        <ele>600.8</ele>
        <time>2020-10-13T15:25:51Z</time>
      </trkpt>
      <trkpt lat="37.560106000" lon="-4.274446000">
        <ele>601.3</ele>
        <time>2020-10-13T15:25:53Z</time>
      </trkpt>
      <trkpt lat="37.560022000" lon="-4.274379000">
        <ele>601.9</ele>
        <time>2020-10-13T15:25:55Z</time>
      </trkpt>
      <trkpt lat="37.559941000" lon="-4.274322000">
        <ele>602.6</ele>
        <time>2020-10-13T15:25:57Z</time>
      </trkpt>
      <trkpt lat="37.559862000" lon="-4.274263000">
        <ele>603.3</ele>
        <time>2020-10-13T15:25:59Z</time>
      </trkpt>
      <trkpt lat="37.559780000" lon="-4.274208000">
        <ele>603.9</ele>
        <time>2020-10-13T15:26:01Z</time>
      </trkpt>
      <trkpt lat="37.559699000" lon="-4.274151000">
        <ele>604.3</ele>
        <time>2020-10-13T15:26:03Z</time>
      </trkpt>
      <trkpt lat="37.559616000" lon="-4.274099000">
        <ele>604.7</ele>
        <time>2020-10-13T15:26:05Z</time>
      </trkpt>
      <trkpt lat="37.559537000" lon="-4.274060000">
        <ele>605.3</ele>
        <time>2020-10-13T15:26:07Z</time>
      </trkpt>
      <trkpt lat="37.559459000" lon="-4.274003000">
        <ele>605.8</ele>
        <time>2020-10-13T15:26:09Z</time>
      </trkpt>
      <trkpt lat="37.559375000" lon="-4.273952000">
        <ele>606.5</ele>
        <time>2020-10-13T15:26:11Z</time>
      </trkpt>
      <trkpt lat="37.559301000" lon="-4.273894000">
        <ele>607.1</ele>
        <time>2020-10-13T15:26:13Z</time>
      </trkpt>
      <trkpt lat="37.559227000" lon="-4.273841000">
        <ele>607.7</ele>
        <time>2020-10-13T15:26:15Z</time>
      </trkpt>
      <trkpt lat="37.559156000" lon="-4.273785000">
        <ele>608.2</ele>
        <time>2020-10-13T15:26:17Z</time>
      </trkpt>
      <trkpt lat="37.559080000" lon="-4.273729000">
        <ele>608.5</ele>
        <time>2020-10-13T15:26:19Z</time>
      </trkpt>
      <trkpt lat="37.559008000" lon="-4.273680000">
        <ele>608.7</ele>
        <time>2020-10-13T15:26:21Z</time>
      </trkpt>
      <trkpt lat="37.558931000" lon="-4.273627000">
        <ele>609.0</ele>
        <time>2020-10-13T15:26:23Z</time>
      </trkpt>
      <trkpt lat="37.558828000" lon="-4.273567000">
        <ele>609.4</ele>
        <time>2020-10-13T15:26:26Z</time>
      </trkpt>
      <trkpt lat="37.558725000" lon="-4.273529000">
        <ele>609.7</ele>
        <time>2020-10-13T15:26:29Z</time>
      </trkpt>
      <trkpt lat="37.558627000" lon="-4.273506000">
        <ele>610.1</ele>
        <time>2020-10-13T15:26:32Z</time>
      </trkpt>
      <trkpt lat="37.558532000" lon="-4.273516000">
        <ele>610.5</ele>
        <time>2020-10-13T15:26:35Z</time>
      </trkpt>
      <trkpt lat="37.558443000" lon="-4.273540000">
        <ele>610.9</ele>
        <time>2020-10-13T15:26:38Z</time>
      </trkpt>
      <trkpt lat="37.558342000" lon="-4.273582000">
        <ele>611.5</ele>
        <time>2020-10-13T15:26:42Z</time>
      </trkpt>
      <trkpt lat="37.558267000" lon="-4.273623000">
        <ele>612.2</ele>
        <time>2020-10-13T15:26:45Z</time>
      </trkpt>
      <trkpt lat="37.558184000" lon="-4.273694000">
        <ele>613.1</ele>
        <time>2020-10-13T15:26:49Z</time>
      </trkpt>
      <trkpt lat="37.558113000" lon="-4.273770000">
        <ele>614.3</ele>
        <time>2020-10-13T15:26:53Z</time>
      </trkpt>
      <trkpt lat="37.558055000" lon="-4.273876000">
        <ele>615.6</ele>
        <time>2020-10-13T15:26:57Z</time>
      </trkpt>
      <trkpt lat="37.558010000" lon="-4.273969000">
        <ele>617.0</ele>
        <time>2020-10-13T15:27:01Z</time>
      </trkpt>
      <trkpt lat="37.557990000" lon="-4.274089000">
        <ele>618.5</ele>
        <time>2020-10-13T15:27:05Z</time>
      </trkpt>
      <trkpt lat="37.557982000" lon="-4.274203000">
        <ele>619.8</ele>
        <time>2020-10-13T15:27:09Z</time>
      </trkpt>
      <trkpt lat="37.557971000" lon="-4.274344000">
        <ele>621.1</ele>
        <time>2020-10-13T15:27:13Z</time>
      </trkpt>
      <trkpt lat="37.557974000" lon="-4.274469000">
        <ele>622.3</ele>
        <time>2020-10-13T15:27:18Z</time>
      </trkpt>
      <trkpt lat="37.557963000" lon="-4.274587000">
        <ele>623.6</ele>
        <time>2020-10-13T15:27:23Z</time>
      </trkpt>
      <trkpt lat="37.557935000" lon="-4.274700000">
        <ele>624.8</ele>
        <time>2020-10-13T15:27:28Z</time>
      </trkpt>
      <trkpt lat="37.557904000" lon="-4.274803000">
        <ele>625.9</ele>
        <time>2020-10-13T15:27:34Z</time>
      </trkpt>
      <trkpt lat="37.557868000" lon="-4.274902000">
        <ele>626.8</ele>
        <time>2020-10-13T15:27:41Z</time>
      </trkpt>
      <trkpt lat="37.557846000" lon="-4.275024000">
        <ele>627.5</ele>
        <time>2020-10-13T15:27:47Z</time>
      </trkpt>
      <trkpt lat="37.557839000" lon="-4.275126000">
        <ele>628.2</ele>
        <time>2020-10-13T15:27:52Z</time>
      </trkpt>
      <trkpt lat="37.557825000" lon="-4.275237000">
        <ele>628.8</ele>
        <time>2020-10-13T15:27:57Z</time>
      </trkpt>
      <trkpt lat="37.557824000" lon="-4.275355000">
        <ele>629.4</ele>
        <time>2020-10-13T15:28:02Z</time>
      </trkpt>
      <trkpt lat="37.557825000" lon="-4.275463000">
        <ele>630.0</ele>
        <time>2020-10-13T15:28:06Z</time>
      </trkpt>
      <trkpt lat="37.557824000" lon="-4.275587000">
        <ele>630.6</ele>
        <time>2020-10-13T15:28:11Z</time>
      </trkpt>
      <trkpt lat="37.557822000" lon="-4.275696000">
        <ele>631.3</ele>
        <time>2020-10-13T15:28:15Z</time>
      </trkpt>
      <trkpt lat="37.557828000" lon="-4.275806000">
        <ele>631.8</ele>
        <time>2020-10-13T15:28:19Z</time>
      </trkpt>
      <trkpt lat="37.557836000" lon="-4.275914000">
        <ele>632.4</ele>
        <time>2020-10-13T15:28:23Z</time>
      </trkpt>
      <trkpt lat="37.557835000" lon="-4.276022000">
        <ele>632.9</ele>
        <time>2020-10-13T15:28:27Z</time>
      </trkpt>
      <trkpt lat="37.557819000" lon="-4.276142000">
        <ele>633.5</ele>
        <time>2020-10-13T15:28:31Z</time>
      </trkpt>
      <trkpt lat="37.557791000" lon="-4.276263000">
        <ele>633.9</ele>
        <time>2020-10-13T15:28:36Z</time>
      </trkpt>
      <trkpt lat="37.557760000" lon="-4.276388000">
        <ele>634.2</ele>
        <time>2020-10-13T15:28:41Z</time>
      </trkpt>
      <trkpt lat="37.557719000" lon="-4.276483000">
        <ele>634.5</ele>
        <time>2020-10-13T15:28:45Z</time>
      </trkpt>
      <trkpt lat="37.557644000" lon="-4.276567000">
        <ele>634.7</ele>
        <time>2020-10-13T15:28:50Z</time>
      </trkpt>
      <trkpt lat="37.557567000" lon="-4.276611000">
        <ele>635.0</ele>
        <time>2020-10-13T15:28:54Z</time>
      </trkpt>
      <trkpt lat="37.557483000" lon="-4.276644000">
        <ele>635.4</ele>
        <time>2020-10-13T15:28:58Z</time>
      </trkpt>
      <trkpt lat="37.557396000" lon="-4.276656000">
        <ele>635.8</ele>
        <time>2020-10-13T15:29:02Z</time>
      </trkpt>
      <trkpt lat="37.557296000" lon="-4.276662000">
        <ele>636.3</ele>
        <time>2020-10-13T15:29:07Z</time>
      </trkpt>
      <trkpt lat="37.557213000" lon="-4.276669000">
        <ele>636.8</ele>
        <time>2020-10-13T15:29:11Z</time>
      </trkpt>
      <trkpt lat="37.557131000" lon="-4.276677000">
        <ele>637.3</ele>
        <time>2020-10-13T15:29:15Z</time>
      </trkpt>
      <trkpt lat="37.557039000" lon="-4.276690000">
        <ele>637.8</ele>
        <time>2020-10-13T15:29:20Z</time>
      </trkpt>
      <trkpt lat="37.556945000" lon="-4.276692000">
        <ele>638.5</ele>
        <time>2020-10-13T15:29:24Z</time>
      </trkpt>
      <trkpt lat="37.556853000" lon="-4.276698000">
        <ele>639.1</ele>
        <time>2020-10-13T15:29:28Z</time>
      </trkpt>
      <trkpt lat="37.556771000" lon="-4.276728000">
        <ele>639.7</ele>
        <time>2020-10-13T15:29:32Z</time>
      </trkpt>
      <trkpt lat="37.556679000" lon="-4.276763000">
        <ele>640.4</ele>
        <time>2020-10-13T15:29:36Z</time>
      </trkpt>
      <trkpt lat="37.556586000" lon="-4.276819000">
        <ele>641.0</ele>
        <time>2020-10-13T15:29:40Z</time>
      </trkpt>
      <trkpt lat="37.556499000" lon="-4.276892000">
        <ele>641.6</ele>
        <time>2020-10-13T15:29:44Z</time>
      </trkpt>
      <trkpt lat="37.556431000" lon="-4.276973000">
        <ele>642.2</ele>
        <time>2020-10-13T15:29:48Z</time>
      </trkpt>
      <trkpt lat="37.556379000" lon="-4.277059000">
        <ele>642.7</ele>
        <time>2020-10-13T15:29:52Z</time>
      </trkpt>
      <trkpt lat="37.556342000" lon="-4.277153000">
        <ele>643.3</ele>
        <time>2020-10-13T15:29:56Z</time>
      </trkpt>
      <trkpt lat="37.556302000" lon="-4.277248000">
        <ele>643.8</ele>
        <time>2020-10-13T15:30:00Z</time>
      </trkpt>
      <trkpt lat="37.556260000" lon="-4.277342000">
        <ele>644.4</ele>
        <time>2020-10-13T15:30:04Z</time>
      </trkpt>
      <trkpt lat="37.556210000" lon="-4.277437000">
        <ele>644.8</ele>
        <time>2020-10-13T15:30:08Z</time>
      </trkpt>
      <trkpt lat="37.556147000" lon="-4.277534000">
        <ele>645.3</ele>
        <time>2020-10-13T15:30:12Z</time>
      </trkpt>
      <trkpt lat="37.556089000" lon="-4.277614000">
        <ele>645.7</ele>
        <time>2020-10-13T15:30:16Z</time>
      </trkpt>
      <trkpt lat="37.556030000" lon="-4.277696000">
        <ele>646.2</ele>
        <time>2020-10-13T15:30:20Z</time>
      </trkpt>
      <trkpt lat="37.555965000" lon="-4.277765000">
        <ele>646.5</ele>
        <time>2020-10-13T15:30:24Z</time>
      </trkpt>
      <trkpt lat="37.555896000" lon="-4.277839000">
        <ele>646.8</ele>
        <time>2020-10-13T15:30:28Z</time>
      </trkpt>
      <trkpt lat="37.555812000" lon="-4.277905000">
        <ele>647.2</ele>
        <time>2020-10-13T15:30:32Z</time>
      </trkpt>
      <trkpt lat="37.555713000" lon="-4.277943000">
        <ele>647.5</ele>
        <time>2020-10-13T15:30:36Z</time>
      </trkpt>
      <trkpt lat="37.555613000" lon="-4.277959000">
        <ele>647.8</ele>
        <time>2020-10-13T15:30:40Z</time>
      </trkpt>
      <trkpt lat="37.555521000" lon="-4.277977000">
        <ele>648.1</ele>
        <time>2020-10-13T15:30:43Z</time>
      </trkpt>
      <trkpt lat="37.555430000" lon="-4.277981000">
        <ele>648.3</ele>
        <time>2020-10-13T15:30:46Z</time>
      </trkpt>
      <trkpt lat="37.555335000" lon="-4.277990000">
        <ele>648.5</ele>
        <time>2020-10-13T15:30:49Z</time>
      </trkpt>
      <trkpt lat="37.555242000" lon="-4.278003000">
        <ele>648.5</ele>
        <time>2020-10-13T15:30:52Z</time>
      </trkpt>
      <trkpt lat="37.555151000" lon="-4.278026000">
        <ele>648.5</ele>
        <time>2020-10-13T15:30:55Z</time>
      </trkpt>
      <trkpt lat="37.555067000" lon="-4.278061000">
        <ele>648.5</ele>
        <time>2020-10-13T15:30:58Z</time>
      </trkpt>
      <trkpt lat="37.554988000" lon="-4.278101000">
        <ele>648.5</ele>
        <time>2020-10-13T15:31:01Z</time>
      </trkpt>
      <trkpt lat="37.554905000" lon="-4.278149000">
        <ele>648.5</ele>
        <time>2020-10-13T15:31:04Z</time>
      </trkpt>
      <trkpt lat="37.554829000" lon="-4.278212000">
        <ele>648.5</ele>
        <time>2020-10-13T15:31:07Z</time>
      </trkpt>
      <trkpt lat="37.554774000" lon="-4.278301000">
        <ele>648.5</ele>
        <time>2020-10-13T15:31:10Z</time>
      </trkpt>
      <trkpt lat="37.554724000" lon="-4.278393000">
        <ele>648.5</ele>
        <time>2020-10-13T15:31:13Z</time>
      </trkpt>
      <trkpt lat="37.554680000" lon="-4.278483000">
        <ele>648.5</ele>
        <time>2020-10-13T15:31:16Z</time>
      </trkpt>
      <trkpt lat="37.554621000" lon="-4.278594000">
        <ele>648.5</ele>
        <time>2020-10-13T15:31:20Z</time>
      </trkpt>
      <trkpt lat="37.554565000" lon="-4.278677000">
        <ele>648.5</ele>
        <time>2020-10-13T15:31:23Z</time>
      </trkpt>
      <trkpt lat="37.554504000" lon="-4.278747000">
        <ele>648.5</ele>
        <time>2020-10-13T15:31:26Z</time>
      </trkpt>
      <trkpt lat="37.554421000" lon="-4.278803000">
        <ele>648.6</ele>
        <time>2020-10-13T15:31:30Z</time>
      </trkpt>
      <trkpt lat="37.554325000" lon="-4.278827000">
        <ele>648.7</ele>
        <time>2020-10-13T15:31:34Z</time>
      </trkpt>
      <trkpt lat="37.554223000" lon="-4.278809000">
        <ele>648.8</ele>
        <time>2020-10-13T15:31:38Z</time>
      </trkpt>
      <trkpt lat="37.554125000" lon="-4.278786000">
        <ele>649.0</ele>
        <time>2020-10-13T15:31:42Z</time>
      </trkpt>
      <trkpt lat="37.554044000" lon="-4.278775000">
        <ele>649.1</ele>
        <time>2020-10-13T15:31:45Z</time>
      </trkpt>
      <trkpt lat="37.553962000" lon="-4.278760000">
        <ele>649.3</ele>
        <time>2020-10-13T15:31:48Z</time>
      </trkpt>
      <trkpt lat="37.553879000" lon="-4.278744000">
        <ele>649.5</ele>
        <time>2020-10-13T15:31:51Z</time>
      </trkpt>
      <trkpt lat="37.553800000" lon="-4.278715000">
        <ele>649.8</ele>
        <time>2020-10-13T15:31:54Z</time>
      </trkpt>
      <trkpt lat="37.553696000" lon="-4.278684000">
        <ele>650.2</ele>
        <time>2020-10-13T15:31:58Z</time>
      </trkpt>
      <trkpt lat="37.553614000" lon="-4.278665000">
        <ele>650.7</ele>
        <time>2020-10-13T15:32:01Z</time>
      </trkpt>
      <trkpt lat="37.553508000" lon="-4.278651000">
        <ele>651.4</ele>
        <time>2020-10-13T15:32:05Z</time>
      </trkpt>
      <trkpt lat="37.553412000" lon="-4.278641000">
        <ele>652.1</ele>
        <time>2020-10-13T15:32:09Z</time>
      </trkpt>
      <trkpt lat="37.553308000" lon="-4.278624000">
        <ele>652.9</ele>
        <time>2020-10-13T15:32:13Z</time>
      </trkpt>
      <trkpt lat="37.553204000" lon="-4.278616000">
        <ele>653.8</ele>
        <time>2020-10-13T15:32:17Z</time>
      </trkpt>
      <trkpt lat="37.553112000" lon="-4.278592000">
        <ele>654.7</ele>
        <time>2020-10-13T15:32:22Z</time>
      </trkpt>
      <trkpt lat="37.553029000" lon="-4.278581000">
        <ele>655.6</ele>
        <time>2020-10-13T15:32:26Z</time>
      </trkpt>
      <trkpt lat="37.552939000" lon="-4.278600000">
        <ele>656.5</ele>
        <time>2020-10-13T15:32:30Z</time>
      </trkpt>
      <trkpt lat="37.552847000" lon="-4.278604000">
        <ele>657.3</ele>
        <time>2020-10-13T15:32:35Z</time>
      </trkpt>
      <trkpt lat="37.552758000" lon="-4.278601000">
        <ele>658.1</ele>
        <time>2020-10-13T15:32:40Z</time>
      </trkpt>
      <trkpt lat="37.552673000" lon="-4.278585000">
        <ele>658.8</ele>
        <time>2020-10-13T15:32:46Z</time>
      </trkpt>
      <trkpt lat="37.552593000" lon="-4.278604000">
        <ele>659.5</ele>
        <time>2020-10-13T15:32:52Z</time>
      </trkpt>
      <trkpt lat="37.552496000" lon="-4.278587000">
        <ele>660.0</ele>
        <time>2020-10-13T15:32:58Z</time>
      </trkpt>
      <trkpt lat="37.552403000" lon="-4.278558000">
        <ele>660.5</ele>
        <time>2020-10-13T15:33:03Z</time>
      </trkpt>
      <trkpt lat="37.552322000" lon="-4.278531000">
        <ele>661.0</ele>
        <time>2020-10-13T15:33:08Z</time>
      </trkpt>
      <trkpt lat="37.552237000" lon="-4.278514000">
        <ele>661.5</ele>
        <time>2020-10-13T15:33:13Z</time>
      </trkpt>
      <trkpt lat="37.552150000" lon="-4.278476000">
        <ele>661.9</ele>
        <time>2020-10-13T15:33:20Z</time>
      </trkpt>
      <trkpt lat="37.552081000" lon="-4.278422000">
        <ele>662.5</ele>
        <time>2020-10-13T15:33:25Z</time>
      </trkpt>
      <trkpt lat="37.551999000" lon="-4.278375000">
        <ele>663.1</ele>
        <time>2020-10-13T15:33:30Z</time>
      </trkpt>
      <trkpt lat="37.551921000" lon="-4.278329000">
        <ele>663.7</ele>
        <time>2020-10-13T15:33:36Z</time>
      </trkpt>
      <trkpt lat="37.551836000" lon="-4.278277000">
        <ele>664.4</ele>
        <time>2020-10-13T15:33:40Z</time>
      </trkpt>
      <trkpt lat="37.551758000" lon="-4.278215000">
        <ele>665.0</ele>
        <time>2020-10-13T15:33:45Z</time>
      </trkpt>
      <trkpt lat="37.551678000" lon="-4.278166000">
        <ele>665.6</ele>
        <time>2020-10-13T15:33:50Z</time>
      </trkpt>
      <trkpt lat="37.551592000" lon="-4.278112000">
        <ele>666.3</ele>
        <time>2020-10-13T15:33:55Z</time>
      </trkpt>
      <trkpt lat="37.551518000" lon="-4.278045000">
        <ele>666.9</ele>
        <time>2020-10-13T15:34:00Z</time>
      </trkpt>
      <trkpt lat="37.551437000" lon="-4.277985000">
        <ele>667.6</ele>
        <time>2020-10-13T15:34:05Z</time>
      </trkpt>
      <trkpt lat="37.551347000" lon="-4.277932000">
        <ele>668.4</ele>
        <time>2020-10-13T15:34:10Z</time>
      </trkpt>
      <trkpt lat="37.551262000" lon="-4.277886000">
        <ele>669.1</ele>
        <time>2020-10-13T15:34:15Z</time>
      </trkpt>
      <trkpt lat="37.551171000" lon="-4.277835000">
        <ele>669.8</ele>
        <time>2020-10-13T15:34:20Z</time>
      </trkpt>
      <trkpt lat="37.551076000" lon="-4.277800000">
        <ele>670.5</ele>
        <time>2020-10-13T15:34:25Z</time>
      </trkpt>
      <trkpt lat="37.550994000" lon="-4.277771000">
        <ele>671.4</ele>
        <time>2020-10-13T15:34:29Z</time>
      </trkpt>
      <trkpt lat="37.550912000" lon="-4.277742000">
        <ele>672.1</ele>
        <time>2020-10-13T15:34:33Z</time>
      </trkpt>
      <trkpt lat="37.550813000" lon="-4.277717000">
        <ele>672.9</ele>
        <time>2020-10-13T15:34:38Z</time>
      </trkpt>
      <trkpt lat="37.550713000" lon="-4.277696000">
        <ele>673.6</ele>
        <time>2020-10-13T15:34:43Z</time>
      </trkpt>
      <trkpt lat="37.550630000" lon="-4.277673000">
        <ele>674.4</ele>
        <time>2020-10-13T15:34:47Z</time>
      </trkpt>
      <trkpt lat="37.550540000" lon="-4.277650000">
        <ele>675.1</ele>
        <time>2020-10-13T15:34:51Z</time>
      </trkpt>
      <trkpt lat="37.550449000" lon="-4.277628000">
        <ele>675.7</ele>
        <time>2020-10-13T15:34:55Z</time>
      </trkpt>
      <trkpt lat="37.550354000" lon="-4.277597000">
        <ele>676.3</ele>
        <time>2020-10-13T15:35:00Z</time>
      </trkpt>
      <trkpt lat="37.550271000" lon="-4.277575000">
        <ele>676.7</ele>
        <time>2020-10-13T15:35:04Z</time>
      </trkpt>
      <trkpt lat="37.550190000" lon="-4.277549000">
        <ele>677.1</ele>
        <time>2020-10-13T15:35:08Z</time>
      </trkpt>
      <trkpt lat="37.550111000" lon="-4.277516000">
        <ele>677.3</ele>
        <time>2020-10-13T15:35:12Z</time>
      </trkpt>
      <trkpt lat="37.550030000" lon="-4.277478000">
        <ele>677.4</ele>
        <time>2020-10-13T15:35:17Z</time>
      </trkpt>
      <trkpt lat="37.549953000" lon="-4.277431000">
        <ele>677.4</ele>
        <time>2020-10-13T15:35:21Z</time>
      </trkpt>
      <trkpt lat="37.549865000" lon="-4.277392000">
        <ele>677.2</ele>
        <time>2020-10-13T15:35:24Z</time>
      </trkpt>
      <trkpt lat="37.549776000" lon="-4.277345000">
        <ele>676.9</ele>
        <time>2020-10-13T15:35:27Z</time>
      </trkpt>
      <trkpt lat="37.549693000" lon="-4.277301000">
        <ele>676.5</ele>
        <time>2020-10-13T15:35:30Z</time>
      </trkpt>
      <trkpt lat="37.549612000" lon="-4.277252000">
        <ele>676.1</ele>
        <time>2020-10-13T15:35:33Z</time>
      </trkpt>
      <trkpt lat="37.549517000" lon="-4.277197000">
        <ele>675.5</ele>
        <time>2020-10-13T15:35:36Z</time>
      </trkpt>
      <trkpt lat="37.549415000" lon="-4.277140000">
        <ele>674.9</ele>
        <time>2020-10-13T15:35:39Z</time>
      </trkpt>
      <trkpt lat="37.549321000" lon="-4.277085000">
        <ele>674.2</ele>
        <time>2020-10-13T15:35:42Z</time>
      </trkpt>
      <trkpt lat="37.549236000" lon="-4.277061000">
        <ele>673.4</ele>
        <time>2020-10-13T15:35:45Z</time>
      </trkpt>
      <trkpt lat="37.549166000" lon="-4.276972000">
        <ele>672.5</ele>
        <time>2020-10-13T15:38:42Z</time>
      </trkpt>
      <trkpt lat="37.549045000" lon="-4.276880000">
        <ele>671.5</ele>
        <time>2020-10-13T15:38:45Z</time>
      </trkpt>
      <trkpt lat="37.548960000" lon="-4.276798000">
        <ele>670.6</ele>
        <time>2020-10-13T15:38:47Z</time>
      </trkpt>
      <trkpt lat="37.548863000" lon="-4.276697000">
        <ele>669.8</ele>
        <time>2020-10-13T15:38:49Z</time>
      </trkpt>
      <trkpt lat="37.548753000" lon="-4.276576000">
        <ele>669.0</ele>
        <time>2020-10-13T15:38:51Z</time>
      </trkpt>
      <trkpt lat="37.548636000" lon="-4.276437000">
        <ele>668.2</ele>
        <time>2020-10-13T15:38:53Z</time>
      </trkpt>
      <trkpt lat="37.548572000" lon="-4.276358000">
        <ele>667.4</ele>
        <time>2020-10-13T15:38:54Z</time>
      </trkpt>
      <trkpt lat="37.548512000" lon="-4.276278000">
        <ele>666.6</ele>
        <time>2020-10-13T15:38:55Z</time>
      </trkpt>
      <trkpt lat="37.548450000" lon="-4.276191000">
        <ele>665.9</ele>
        <time>2020-10-13T15:38:56Z</time>
      </trkpt>
      <trkpt lat="37.548388000" lon="-4.276101000">
        <ele>665.2</ele>
        <time>2020-10-13T15:38:57Z</time>
      </trkpt>
      <trkpt lat="37.548323000" lon="-4.276009000">
        <ele>664.5</ele>
        <time>2020-10-13T15:38:58Z</time>
      </trkpt>
      <trkpt lat="37.548258000" lon="-4.275915000">
        <ele>664.1</ele>
        <time>2020-10-13T15:38:59Z</time>
      </trkpt>
      <trkpt lat="37.548195000" lon="-4.275817000">
        <ele>663.6</ele>
        <time>2020-10-13T15:39:00Z</time>
      </trkpt>
      <trkpt lat="37.548133000" lon="-4.275722000">
        <ele>663.2</ele>
        <time>2020-10-13T15:39:01Z</time>
      </trkpt>
      <trkpt lat="37.548073000" lon="-4.275624000">
        <ele>662.7</ele>
        <time>2020-10-13T15:39:02Z</time>
      </trkpt>
      <trkpt lat="37.548011000" lon="-4.275529000">
        <ele>662.3</ele>
        <time>2020-10-13T15:39:03Z</time>
      </trkpt>
      <trkpt lat="37.547949000" lon="-4.275435000">
        <ele>661.8</ele>
        <time>2020-10-13T15:39:04Z</time>
      </trkpt>
      <trkpt lat="37.547893000" lon="-4.275342000">
        <ele>661.4</ele>
        <time>2020-10-13T15:39:05Z</time>
      </trkpt>
      <trkpt lat="37.547831000" lon="-4.275248000">
        <ele>660.8</ele>
        <time>2020-10-13T15:39:06Z</time>
      </trkpt>
      <trkpt lat="37.547774000" lon="-4.275165000">
        <ele>660.4</ele>
        <time>2020-10-13T15:39:07Z</time>
      </trkpt>
      <trkpt lat="37.547717000" lon="-4.275073000">
        <ele>660.0</ele>
        <time>2020-10-13T15:39:08Z</time>
      </trkpt>
      <trkpt lat="37.547658000" lon="-4.274981000">
        <ele>659.6</ele>
        <time>2020-10-13T15:39:09Z</time>
      </trkpt>
      <trkpt lat="37.547600000" lon="-4.274886000">
        <ele>659.3</ele>
        <time>2020-10-13T15:39:10Z</time>
      </trkpt>
      <trkpt lat="37.547545000" lon="-4.274796000">
        <ele>658.9</ele>
        <time>2020-10-13T15:39:11Z</time>
      </trkpt>
      <trkpt lat="37.547492000" lon="-4.274704000">
        <ele>658.5</ele>
        <time>2020-10-13T15:39:12Z</time>
      </trkpt>
      <trkpt lat="37.547436000" lon="-4.274617000">
        <ele>658.2</ele>
        <time>2020-10-13T15:39:13Z</time>
      </trkpt>
      <trkpt lat="37.547379000" lon="-4.274532000">
        <ele>657.8</ele>
        <time>2020-10-13T15:39:14Z</time>
      </trkpt>
      <trkpt lat="37.547320000" lon="-4.274440000">
        <ele>657.5</ele>
        <time>2020-10-13T15:39:15Z</time>
      </trkpt>
      <trkpt lat="37.547269000" lon="-4.274356000">
        <ele>657.1</ele>
        <time>2020-10-13T15:39:16Z</time>
      </trkpt>
      <trkpt lat="37.547215000" lon="-4.274273000">
        <ele>656.8</ele>
        <time>2020-10-13T15:39:17Z</time>
      </trkpt>
      <trkpt lat="37.547165000" lon="-4.274184000">
        <ele>656.6</ele>
        <time>2020-10-13T15:39:18Z</time>
      </trkpt>
      <trkpt lat="37.547069000" lon="-4.274015000">
        <ele>656.5</ele>
        <time>2020-10-13T15:39:20Z</time>
      </trkpt>
      <trkpt lat="37.547020000" lon="-4.273931000">
        <ele>656.3</ele>
        <time>2020-10-13T15:39:21Z</time>
      </trkpt>
      <trkpt lat="37.546970000" lon="-4.273846000">
        <ele>656.2</ele>
        <time>2020-10-13T15:39:22Z</time>
      </trkpt>
      <trkpt lat="37.546922000" lon="-4.273758000">
        <ele>656.1</ele>
        <time>2020-10-13T15:39:23Z</time>
      </trkpt>
      <trkpt lat="37.546872000" lon="-4.273671000">
        <ele>656.1</ele>
        <time>2020-10-13T15:39:24Z</time>
      </trkpt>
      <trkpt lat="37.546823000" lon="-4.273587000">
        <ele>656.1</ele>
        <time>2020-10-13T15:39:25Z</time>
      </trkpt>
      <trkpt lat="37.546773000" lon="-4.273499000">
        <ele>656.2</ele>
        <time>2020-10-13T15:39:26Z</time>
      </trkpt>
      <trkpt lat="37.546725000" lon="-4.273413000">
        <ele>656.4</ele>
        <time>2020-10-13T15:39:27Z</time>
      </trkpt>
      <trkpt lat="37.546677000" lon="-4.273330000">
        <ele>656.5</ele>
        <time>2020-10-13T15:39:28Z</time>
      </trkpt>
      <trkpt lat="37.546629000" lon="-4.273246000">
        <ele>656.7</ele>
        <time>2020-10-13T15:39:29Z</time>
      </trkpt>
      <trkpt lat="37.546584000" lon="-4.273160000">
        <ele>656.8</ele>
        <time>2020-10-13T15:39:30Z</time>
      </trkpt>
      <trkpt lat="37.546533000" lon="-4.273069000">
        <ele>656.8</ele>
        <time>2020-10-13T15:39:31Z</time>
      </trkpt>
      <trkpt lat="37.546482000" lon="-4.272983000">
        <ele>656.7</ele>
        <time>2020-10-13T15:39:32Z</time>
      </trkpt>
      <trkpt lat="37.546432000" lon="-4.272900000">
        <ele>656.5</ele>
        <time>2020-10-13T15:39:33Z</time>
      </trkpt>
      <trkpt lat="37.546380000" lon="-4.272809000">
        <ele>656.3</ele>
        <time>2020-10-13T15:39:34Z</time>
      </trkpt>
      <trkpt lat="37.546330000" lon="-4.272722000">
        <ele>656.0</ele>
        <time>2020-10-13T15:39:35Z</time>
      </trkpt>
      <trkpt lat="37.546228000" lon="-4.272563000">
        <ele>655.6</ele>
        <time>2020-10-13T15:39:37Z</time>
      </trkpt>
      <trkpt lat="37.546175000" lon="-4.272477000">
        <ele>655.3</ele>
        <time>2020-10-13T15:39:38Z</time>
      </trkpt>
      <trkpt lat="37.546125000" lon="-4.272395000">
        <ele>654.9</ele>
        <time>2020-10-13T15:39:39Z</time>
      </trkpt>
      <trkpt lat="37.546070000" lon="-4.272310000">
        <ele>654.5</ele>
        <time>2020-10-13T15:39:40Z</time>
      </trkpt>
      <trkpt lat="37.546020000" lon="-4.272227000">
        <ele>654.3</ele>
        <time>2020-10-13T15:39:41Z</time>
      </trkpt>
      <trkpt lat="37.545920000" lon="-4.272065000">
        <ele>654.1</ele>
        <time>2020-10-13T15:39:43Z</time>
      </trkpt>
      <trkpt lat="37.545867000" lon="-4.271985000">
        <ele>654.1</ele>
        <time>2020-10-13T15:39:44Z</time>
      </trkpt>
      <trkpt lat="37.545760000" lon="-4.271840000">
        <ele>654.1</ele>
        <time>2020-10-13T15:39:46Z</time>
      </trkpt>
      <trkpt lat="37.545646000" lon="-4.271702000">
        <ele>654.0</ele>
        <time>2020-10-13T15:39:48Z</time>
      </trkpt>
      <trkpt lat="37.545535000" lon="-4.271582000">
        <ele>654.0</ele>
        <time>2020-10-13T15:39:50Z</time>
      </trkpt>
      <trkpt lat="37.545424000" lon="-4.271460000">
        <ele>654.0</ele>
        <time>2020-10-13T15:39:52Z</time>
      </trkpt>
      <trkpt lat="37.545317000" lon="-4.271344000">
        <ele>654.2</ele>
        <time>2020-10-13T15:39:54Z</time>
      </trkpt>
      <trkpt lat="37.545215000" lon="-4.271239000">
        <ele>654.4</ele>
        <time>2020-10-13T15:39:56Z</time>
      </trkpt>
      <trkpt lat="37.545120000" lon="-4.271121000">
        <ele>654.6</ele>
        <time>2020-10-13T15:39:58Z</time>
      </trkpt>
      <trkpt lat="37.545030000" lon="-4.271012000">
        <ele>655.0</ele>
        <time>2020-10-13T15:40:00Z</time>
      </trkpt>
      <trkpt lat="37.544944000" lon="-4.270910000">
        <ele>655.4</ele>
        <time>2020-10-13T15:40:02Z</time>
      </trkpt>
      <trkpt lat="37.544866000" lon="-4.270801000">
        <ele>655.7</ele>
        <time>2020-10-13T15:40:04Z</time>
      </trkpt>
      <trkpt lat="37.544795000" lon="-4.270708000">
        <ele>656.0</ele>
        <time>2020-10-13T15:40:06Z</time>
      </trkpt>
      <trkpt lat="37.544718000" lon="-4.270624000">
        <ele>656.4</ele>
        <time>2020-10-13T15:40:08Z</time>
      </trkpt>
      <trkpt lat="37.544650000" lon="-4.270556000">
        <ele>656.8</ele>
        <time>2020-10-13T15:40:10Z</time>
      </trkpt>
      <trkpt lat="37.544577000" lon="-4.270497000">
        <ele>657.2</ele>
        <time>2020-10-13T15:40:12Z</time>
      </trkpt>
      <trkpt lat="37.544470000" lon="-4.270421000">
        <ele>657.5</ele>
        <time>2020-10-13T15:40:15Z</time>
      </trkpt>
      <trkpt lat="37.544367000" lon="-4.270352000">
        <ele>657.8</ele>
        <time>2020-10-13T15:40:18Z</time>
      </trkpt>
      <trkpt lat="37.544255000" lon="-4.270291000">
        <ele>658.1</ele>
        <time>2020-10-13T15:40:21Z</time>
      </trkpt>
      <trkpt lat="37.544175000" lon="-4.270251000">
        <ele>658.3</ele>
        <time>2020-10-13T15:40:23Z</time>
      </trkpt>
      <trkpt lat="37.544096000" lon="-4.270211000">
        <ele>658.5</ele>
        <time>2020-10-13T15:40:25Z</time>
      </trkpt>
      <trkpt lat="37.544020000" lon="-4.270165000">
        <ele>658.5</ele>
        <time>2020-10-13T15:40:27Z</time>
      </trkpt>
      <trkpt lat="37.543942000" lon="-4.270117000">
        <ele>658.6</ele>
        <time>2020-10-13T15:40:30Z</time>
      </trkpt>
      <trkpt lat="37.543864000" lon="-4.270062000">
        <ele>658.7</ele>
        <time>2020-10-13T15:40:31Z</time>
      </trkpt>
      <trkpt lat="37.543788000" lon="-4.270003000">
        <ele>658.8</ele>
        <time>2020-10-13T15:40:33Z</time>
      </trkpt>
      <trkpt lat="37.543712000" lon="-4.269944000">
        <ele>658.9</ele>
        <time>2020-10-13T15:40:35Z</time>
      </trkpt>
      <trkpt lat="37.543640000" lon="-4.269884000">
        <ele>659.2</ele>
        <time>2020-10-13T15:40:37Z</time>
      </trkpt>
      <trkpt lat="37.543572000" lon="-4.269822000">
        <ele>659.5</ele>
        <time>2020-10-13T15:40:39Z</time>
      </trkpt>
      <trkpt lat="37.543479000" lon="-4.269727000">
        <ele>659.7</ele>
        <time>2020-10-13T15:40:42Z</time>
      </trkpt>
      <trkpt lat="37.543393000" lon="-4.269636000">
        <ele>660.0</ele>
        <time>2020-10-13T15:40:45Z</time>
      </trkpt>
      <trkpt lat="37.543319000" lon="-4.269542000">
        <ele>660.4</ele>
        <time>2020-10-13T15:40:49Z</time>
      </trkpt>
      <trkpt lat="37.543250000" lon="-4.269451000">
        <ele>660.7</ele>
        <time>2020-10-13T15:40:51Z</time>
      </trkpt>
      <trkpt lat="37.543186000" lon="-4.269363000">
        <ele>661.2</ele>
        <time>2020-10-13T15:40:54Z</time>
      </trkpt>
      <trkpt lat="37.543115000" lon="-4.269272000">
        <ele>661.6</ele>
        <time>2020-10-13T15:40:57Z</time>
      </trkpt>
      <trkpt lat="37.543043000" lon="-4.269175000">
        <ele>662.1</ele>
        <time>2020-10-13T15:41:00Z</time>
      </trkpt>
      <trkpt lat="37.542975000" lon="-4.269086000">
        <ele>662.6</ele>
        <time>2020-10-13T15:41:03Z</time>
      </trkpt>
      <trkpt lat="37.542913000" lon="-4.269005000">
        <ele>663.3</ele>
        <time>2020-10-13T15:41:06Z</time>
      </trkpt>
      <trkpt lat="37.542849000" lon="-4.268925000">
        <ele>663.8</ele>
        <time>2020-10-13T15:41:09Z</time>
      </trkpt>
      <trkpt lat="37.542777000" lon="-4.268848000">
        <ele>664.4</ele>
        <time>2020-10-13T15:41:12Z</time>
      </trkpt>
      <trkpt lat="37.542702000" lon="-4.268784000">
        <ele>664.9</ele>
        <time>2020-10-13T15:41:15Z</time>
      </trkpt>
      <trkpt lat="37.542622000" lon="-4.268724000">
        <ele>665.5</ele>
        <time>2020-10-13T15:41:18Z</time>
      </trkpt>
      <trkpt lat="37.542540000" lon="-4.268671000">
        <ele>666.0</ele>
        <time>2020-10-13T15:41:21Z</time>
      </trkpt>
      <trkpt lat="37.542461000" lon="-4.268623000">
        <ele>666.5</ele>
        <time>2020-10-13T15:41:24Z</time>
      </trkpt>
      <trkpt lat="37.542366000" lon="-4.268572000">
        <ele>667.1</ele>
        <time>2020-10-13T15:41:28Z</time>
      </trkpt>
      <trkpt lat="37.542274000" lon="-4.268521000">
        <ele>667.7</ele>
        <time>2020-10-13T15:41:32Z</time>
      </trkpt>
      <trkpt lat="37.542177000" lon="-4.268471000">
        <ele>668.4</ele>
        <time>2020-10-13T15:41:36Z</time>
      </trkpt>
      <trkpt lat="37.542103000" lon="-4.268424000">
        <ele>669.0</ele>
        <time>2020-10-13T15:41:39Z</time>
      </trkpt>
      <trkpt lat="37.542005000" lon="-4.268374000">
        <ele>669.5</ele>
        <time>2020-10-13T15:41:43Z</time>
      </trkpt>
      <trkpt lat="37.541921000" lon="-4.268316000">
        <ele>670.2</ele>
        <time>2020-10-13T15:41:47Z</time>
      </trkpt>
      <trkpt lat="37.541842000" lon="-4.268263000">
        <ele>670.8</ele>
        <time>2020-10-13T15:41:51Z</time>
      </trkpt>
      <trkpt lat="37.541768000" lon="-4.268188000">
        <ele>671.5</ele>
        <time>2020-10-13T15:41:55Z</time>
      </trkpt>
      <trkpt lat="37.541699000" lon="-4.268120000">
        <ele>672.1</ele>
        <time>2020-10-13T15:41:59Z</time>
      </trkpt>
      <trkpt lat="37.541635000" lon="-4.268048000">
        <ele>672.8</ele>
        <time>2020-10-13T15:42:03Z</time>
      </trkpt>
      <trkpt lat="37.541568000" lon="-4.267973000">
        <ele>673.5</ele>
        <time>2020-10-13T15:42:07Z</time>
      </trkpt>
      <trkpt lat="37.541499000" lon="-4.267891000">
        <ele>674.4</ele>
        <time>2020-10-13T15:42:11Z</time>
      </trkpt>
      <trkpt lat="37.541430000" lon="-4.267805000">
        <ele>675.0</ele>
        <time>2020-10-13T15:42:15Z</time>
      </trkpt>
      <trkpt lat="37.541352000" lon="-4.267719000">
        <ele>675.7</ele>
        <time>2020-10-13T15:42:19Z</time>
      </trkpt>
      <trkpt lat="37.541264000" lon="-4.267651000">
        <ele>676.4</ele>
        <time>2020-10-13T15:42:23Z</time>
      </trkpt>
      <trkpt lat="37.541176000" lon="-4.267610000">
        <ele>677.1</ele>
        <time>2020-10-13T15:42:27Z</time>
      </trkpt>
      <trkpt lat="37.541082000" lon="-4.267599000">
        <ele>677.8</ele>
        <time>2020-10-13T15:42:31Z</time>
      </trkpt>
      <trkpt lat="37.540985000" lon="-4.267594000">
        <ele>678.6</ele>
        <time>2020-10-13T15:42:35Z</time>
      </trkpt>
      <trkpt lat="37.540894000" lon="-4.267594000">
        <ele>679.5</ele>
        <time>2020-10-13T15:42:39Z</time>
      </trkpt>
      <trkpt lat="37.540792000" lon="-4.267583000">
        <ele>680.5</ele>
        <time>2020-10-13T15:42:44Z</time>
      </trkpt>
      <trkpt lat="37.540706000" lon="-4.267573000">
        <ele>681.5</ele>
        <time>2020-10-13T15:42:48Z</time>
      </trkpt>
      <trkpt lat="37.540615000" lon="-4.267562000">
        <ele>682.4</ele>
        <time>2020-10-13T15:42:53Z</time>
      </trkpt>
      <trkpt lat="37.540530000" lon="-4.267543000">
        <ele>683.2</ele>
        <time>2020-10-13T15:42:57Z</time>
      </trkpt>
      <trkpt lat="37.540441000" lon="-4.267528000">
        <ele>684.0</ele>
        <time>2020-10-13T15:43:01Z</time>
      </trkpt>
      <trkpt lat="37.540359000" lon="-4.267500000">
        <ele>684.8</ele>
        <time>2020-10-13T15:43:05Z</time>
      </trkpt>
      <trkpt lat="37.540271000" lon="-4.267473000">
        <ele>685.6</ele>
        <time>2020-10-13T15:43:09Z</time>
      </trkpt>
      <trkpt lat="37.540184000" lon="-4.267437000">
        <ele>686.4</ele>
        <time>2020-10-13T15:43:15Z</time>
      </trkpt>
      <trkpt lat="37.540103000" lon="-4.267407000">
        <ele>687.0</ele>
        <time>2020-10-13T15:43:17Z</time>
      </trkpt>
      <trkpt lat="37.540020000" lon="-4.267368000">
        <ele>687.5</ele>
        <time>2020-10-13T15:43:21Z</time>
      </trkpt>
      <trkpt lat="37.539936000" lon="-4.267340000">
        <ele>687.8</ele>
        <time>2020-10-13T15:43:25Z</time>
      </trkpt>
      <trkpt lat="37.539840000" lon="-4.267303000">
        <ele>688.2</ele>
        <time>2020-10-13T15:43:30Z</time>
      </trkpt>
      <trkpt lat="37.539760000" lon="-4.267283000">
        <ele>688.5</ele>
        <time>2020-10-13T15:43:34Z</time>
      </trkpt>
      <trkpt lat="37.539671000" lon="-4.267272000">
        <ele>688.7</ele>
        <time>2020-10-13T15:43:38Z</time>
      </trkpt>
      <trkpt lat="37.539570000" lon="-4.267238000">
        <ele>688.9</ele>
        <time>2020-10-13T15:43:42Z</time>
      </trkpt>
      <trkpt lat="37.539488000" lon="-4.267195000">
        <ele>689.0</ele>
        <time>2020-10-13T15:43:45Z</time>
      </trkpt>
      <trkpt lat="37.539402000" lon="-4.267125000">
        <ele>689.0</ele>
        <time>2020-10-13T15:43:48Z</time>
      </trkpt>
      <trkpt lat="37.539305000" lon="-4.267031000">
        <ele>689.0</ele>
        <time>2020-10-13T15:43:51Z</time>
      </trkpt>
      <trkpt lat="37.539221000" lon="-4.266954000">
        <ele>688.9</ele>
        <time>2020-10-13T15:43:53Z</time>
      </trkpt>
      <trkpt lat="37.539133000" lon="-4.266885000">
        <ele>688.7</ele>
        <time>2020-10-13T15:43:55Z</time>
      </trkpt>
      <trkpt lat="37.539042000" lon="-4.266807000">
        <ele>688.6</ele>
        <time>2020-10-13T15:43:57Z</time>
      </trkpt>
      <trkpt lat="37.538954000" lon="-4.266734000">
        <ele>688.5</ele>
        <time>2020-10-13T15:43:59Z</time>
      </trkpt>
      <trkpt lat="37.538864000" lon="-4.266663000">
        <ele>688.2</ele>
        <time>2020-10-13T15:44:01Z</time>
      </trkpt>
      <trkpt lat="37.538767000" lon="-4.266579000">
        <ele>687.9</ele>
        <time>2020-10-13T15:44:03Z</time>
      </trkpt>
      <trkpt lat="37.538659000" lon="-4.266501000">
        <ele>687.5</ele>
        <time>2020-10-13T15:44:05Z</time>
      </trkpt>
      <trkpt lat="37.538548000" lon="-4.266425000">
        <ele>686.9</ele>
        <time>2020-10-13T15:44:07Z</time>
      </trkpt>
      <trkpt lat="37.538432000" lon="-4.266354000">
        <ele>686.5</ele>
        <time>2020-10-13T15:44:09Z</time>
      </trkpt>
      <trkpt lat="37.538308000" lon="-4.266278000">
        <ele>686.0</ele>
        <time>2020-10-13T15:44:11Z</time>
      </trkpt>
      <trkpt lat="37.538177000" lon="-4.266196000">
        <ele>685.5</ele>
        <time>2020-10-13T15:44:13Z</time>
      </trkpt>
      <trkpt lat="37.538038000" lon="-4.266113000">
        <ele>685.2</ele>
        <time>2020-10-13T15:44:15Z</time>
      </trkpt>
      <trkpt lat="37.537967000" lon="-4.266061000">
        <ele>684.9</ele>
        <time>2020-10-13T15:44:16Z</time>
      </trkpt>
      <trkpt lat="37.537895000" lon="-4.266004000">
        <ele>684.6</ele>
        <time>2020-10-13T15:44:17Z</time>
      </trkpt>
      <trkpt lat="37.537767000" lon="-4.265872000">
        <ele>684.5</ele>
        <time>2020-10-13T15:44:19Z</time>
      </trkpt>
      <trkpt lat="37.537706000" lon="-4.265792000">
        <ele>684.5</ele>
        <time>2020-10-13T15:44:20Z</time>
      </trkpt>
      <trkpt lat="37.537647000" lon="-4.265721000">
        <ele>684.4</ele>
        <time>2020-10-13T15:44:21Z</time>
      </trkpt>
      <trkpt lat="37.537588000" lon="-4.265640000">
        <ele>684.4</ele>
        <time>2020-10-13T15:44:22Z</time>
      </trkpt>
      <trkpt lat="37.537533000" lon="-4.265560000">
        <ele>684.5</ele>
        <time>2020-10-13T15:44:23Z</time>
      </trkpt>
      <trkpt lat="37.537476000" lon="-4.265477000">
        <ele>684.5</ele>
        <time>2020-10-13T15:44:24Z</time>
      </trkpt>
      <trkpt lat="37.537420000" lon="-4.265393000">
        <ele>684.6</ele>
        <time>2020-10-13T15:44:25Z</time>
      </trkpt>
      <trkpt lat="37.537362000" lon="-4.265310000">
        <ele>684.6</ele>
        <time>2020-10-13T15:44:26Z</time>
      </trkpt>
      <trkpt lat="37.537306000" lon="-4.265229000">
        <ele>684.5</ele>
        <time>2020-10-13T15:44:27Z</time>
      </trkpt>
      <trkpt lat="37.537247000" lon="-4.265153000">
        <ele>684.4</ele>
        <time>2020-10-13T15:44:28Z</time>
      </trkpt>
      <trkpt lat="37.537189000" lon="-4.265078000">
        <ele>684.1</ele>
        <time>2020-10-13T15:44:29Z</time>
      </trkpt>
      <trkpt lat="37.537066000" lon="-4.264943000">
        <ele>683.5</ele>
        <time>2020-10-13T15:44:31Z</time>
      </trkpt>
      <trkpt lat="37.536943000" lon="-4.264829000">
        <ele>683.0</ele>
        <time>2020-10-13T15:44:33Z</time>
      </trkpt>
      <trkpt lat="37.536815000" lon="-4.264729000">
        <ele>682.5</ele>
        <time>2020-10-13T15:44:35Z</time>
      </trkpt>
      <trkpt lat="37.536685000" lon="-4.264621000">
        <ele>681.9</ele>
        <time>2020-10-13T15:44:37Z</time>
      </trkpt>
      <trkpt lat="37.536558000" lon="-4.264508000">
        <ele>681.4</ele>
        <time>2020-10-13T15:44:39Z</time>
      </trkpt>
      <trkpt lat="37.536437000" lon="-4.264380000">
        <ele>680.7</ele>
        <time>2020-10-13T15:44:41Z</time>
      </trkpt>
      <trkpt lat="37.536377000" lon="-4.264306000">
        <ele>680.1</ele>
        <time>2020-10-13T15:44:42Z</time>
      </trkpt>
      <trkpt lat="37.536325000" lon="-4.264228000">
        <ele>679.5</ele>
        <time>2020-10-13T15:44:43Z</time>
      </trkpt>
      <trkpt lat="37.536274000" lon="-4.264146000">
        <ele>679.1</ele>
        <time>2020-10-13T15:44:44Z</time>
      </trkpt>
      <trkpt lat="37.536227000" lon="-4.264056000">
        <ele>678.7</ele>
        <time>2020-10-13T15:44:45Z</time>
      </trkpt>
      <trkpt lat="37.536180000" lon="-4.263968000">
        <ele>678.5</ele>
        <time>2020-10-13T15:44:46Z</time>
      </trkpt>
      <trkpt lat="37.536131000" lon="-4.263878000">
        <ele>678.3</ele>
        <time>2020-10-13T15:44:47Z</time>
      </trkpt>
      <trkpt lat="37.536086000" lon="-4.263783000">
        <ele>678.1</ele>
        <time>2020-10-13T15:44:48Z</time>
      </trkpt>
      <trkpt lat="37.536041000" lon="-4.263692000">
        <ele>677.8</ele>
        <time>2020-10-13T15:44:49Z</time>
      </trkpt>
      <trkpt lat="37.535995000" lon="-4.263598000">
        <ele>677.5</ele>
        <time>2020-10-13T15:44:50Z</time>
      </trkpt>
      <trkpt lat="37.535953000" lon="-4.263506000">
        <ele>677.2</ele>
        <time>2020-10-13T15:44:51Z</time>
      </trkpt>
      <trkpt lat="37.535908000" lon="-4.263410000">
        <ele>676.8</ele>
        <time>2020-10-13T15:44:52Z</time>
      </trkpt>
      <trkpt lat="37.535864000" lon="-4.263318000">
        <ele>676.4</ele>
        <time>2020-10-13T15:44:53Z</time>
      </trkpt>
      <trkpt lat="37.535818000" lon="-4.263223000">
        <ele>675.8</ele>
        <time>2020-10-13T15:44:54Z</time>
      </trkpt>
      <trkpt lat="37.535777000" lon="-4.263132000">
        <ele>675.2</ele>
        <time>2020-10-13T15:44:55Z</time>
      </trkpt>
      <trkpt lat="37.535734000" lon="-4.263041000">
        <ele>674.5</ele>
        <time>2020-10-13T15:44:56Z</time>
      </trkpt>
      <trkpt lat="37.535688000" lon="-4.262946000">
        <ele>673.9</ele>
        <time>2020-10-13T15:44:57Z</time>
      </trkpt>
      <trkpt lat="37.535644000" lon="-4.262851000">
        <ele>673.4</ele>
        <time>2020-10-13T15:44:58Z</time>
      </trkpt>
      <trkpt lat="37.535600000" lon="-4.262757000">
        <ele>672.7</ele>
        <time>2020-10-13T15:44:59Z</time>
      </trkpt>
      <trkpt lat="37.535517000" lon="-4.262586000">
        <ele>672.2</ele>
        <time>2020-10-13T15:45:01Z</time>
      </trkpt>
      <trkpt lat="37.535412000" lon="-4.262433000">
        <ele>671.5</ele>
        <time>2020-10-13T15:45:03Z</time>
      </trkpt>
      <trkpt lat="37.535357000" lon="-4.262357000">
        <ele>670.8</ele>
        <time>2020-10-13T15:45:04Z</time>
      </trkpt>
      <trkpt lat="37.535244000" lon="-4.262208000">
        <ele>670.1</ele>
        <time>2020-10-13T15:45:06Z</time>
      </trkpt>
      <trkpt lat="37.535129000" lon="-4.262062000">
        <ele>669.3</ele>
        <time>2020-10-13T15:45:08Z</time>
      </trkpt>
      <trkpt lat="37.535070000" lon="-4.261975000">
        <ele>668.4</ele>
        <time>2020-10-13T15:45:09Z</time>
      </trkpt>
      <trkpt lat="37.535008000" lon="-4.261885000">
        <ele>667.5</ele>
        <time>2020-10-13T15:45:10Z</time>
      </trkpt>
      <trkpt lat="37.534944000" lon="-4.261785000">
        <ele>666.5</ele>
        <time>2020-10-13T15:45:11Z</time>
      </trkpt>
      <trkpt lat="37.534882000" lon="-4.261684000">
        <ele>665.5</ele>
        <time>2020-10-13T15:45:12Z</time>
      </trkpt>
      <trkpt lat="37.534818000" lon="-4.261576000">
        <ele>664.5</ele>
        <time>2020-10-13T15:45:13Z</time>
      </trkpt>
      <trkpt lat="37.534755000" lon="-4.261466000">
        <ele>663.5</ele>
        <time>2020-10-13T15:45:14Z</time>
      </trkpt>
      <trkpt lat="37.534694000" lon="-4.261356000">
        <ele>662.6</ele>
        <time>2020-10-13T15:45:15Z</time>
      </trkpt>
      <trkpt lat="37.534639000" lon="-4.261248000">
        <ele>661.8</ele>
        <time>2020-10-13T15:45:16Z</time>
      </trkpt>
      <trkpt lat="37.534593000" lon="-4.261143000">
        <ele>661.2</ele>
        <time>2020-10-13T15:45:17Z</time>
      </trkpt>
      <trkpt lat="37.534565000" lon="-4.261029000">
        <ele>660.5</ele>
        <time>2020-10-13T15:45:18Z</time>
      </trkpt>
      <trkpt lat="37.534543000" lon="-4.260907000">
        <ele>659.8</ele>
        <time>2020-10-13T15:45:19Z</time>
      </trkpt>
      <trkpt lat="37.534527000" lon="-4.260787000">
        <ele>659.4</ele>
        <time>2020-10-13T15:45:20Z</time>
      </trkpt>
      <trkpt lat="37.534515000" lon="-4.260665000">
        <ele>658.9</ele>
        <time>2020-10-13T15:45:21Z</time>
      </trkpt>
      <trkpt lat="37.534506000" lon="-4.260535000">
        <ele>658.5</ele>
        <time>2020-10-13T15:45:22Z</time>
      </trkpt>
      <trkpt lat="37.534496000" lon="-4.260403000">
        <ele>658.1</ele>
        <time>2020-10-13T15:45:23Z</time>
      </trkpt>
      <trkpt lat="37.534489000" lon="-4.260272000">
        <ele>657.5</ele>
        <time>2020-10-13T15:45:24Z</time>
      </trkpt>
      <trkpt lat="37.534483000" lon="-4.260141000">
        <ele>656.9</ele>
        <time>2020-10-13T15:45:25Z</time>
      </trkpt>
      <trkpt lat="37.534471000" lon="-4.260005000">
        <ele>656.3</ele>
        <time>2020-10-13T15:45:26Z</time>
      </trkpt>
      <trkpt lat="37.534463000" lon="-4.259869000">
        <ele>655.6</ele>
        <time>2020-10-13T15:45:27Z</time>
      </trkpt>
      <trkpt lat="37.534458000" lon="-4.259730000">
        <ele>655.0</ele>
        <time>2020-10-13T15:45:28Z</time>
      </trkpt>
      <trkpt lat="37.534460000" lon="-4.259589000">
        <ele>654.5</ele>
        <time>2020-10-13T15:45:29Z</time>
      </trkpt>
      <trkpt lat="37.534449000" lon="-4.259449000">
        <ele>654.2</ele>
        <time>2020-10-13T15:45:30Z</time>
      </trkpt>
      <trkpt lat="37.534431000" lon="-4.259314000">
        <ele>653.8</ele>
        <time>2020-10-13T15:45:31Z</time>
      </trkpt>
      <trkpt lat="37.534410000" lon="-4.259177000">
        <ele>653.5</ele>
        <time>2020-10-13T15:45:32Z</time>
      </trkpt>
      <trkpt lat="37.534386000" lon="-4.259038000">
        <ele>653.1</ele>
        <time>2020-10-13T15:45:33Z</time>
      </trkpt>
      <trkpt lat="37.534367000" lon="-4.258905000">
        <ele>652.8</ele>
        <time>2020-10-13T15:45:34Z</time>
      </trkpt>
      <trkpt lat="37.534344000" lon="-4.258770000">
        <ele>652.6</ele>
        <time>2020-10-13T15:45:35Z</time>
      </trkpt>
      <trkpt lat="37.534318000" lon="-4.258641000">
        <ele>652.6</ele>
        <time>2020-10-13T15:45:36Z</time>
      </trkpt>
      <trkpt lat="37.534298000" lon="-4.258522000">
        <ele>652.6</ele>
        <time>2020-10-13T15:45:37Z</time>
      </trkpt>
      <trkpt lat="37.534280000" lon="-4.258406000">
        <ele>652.6</ele>
        <time>2020-10-13T15:45:38Z</time>
      </trkpt>
      <trkpt lat="37.534256000" lon="-4.258293000">
        <ele>652.6</ele>
        <time>2020-10-13T15:45:39Z</time>
      </trkpt>
      <trkpt lat="37.534235000" lon="-4.258194000">
        <ele>652.5</ele>
        <time>2020-10-13T15:45:40Z</time>
      </trkpt>
      <trkpt lat="37.534217000" lon="-4.258095000">
        <ele>652.4</ele>
        <time>2020-10-13T15:45:41Z</time>
      </trkpt>
      <trkpt lat="37.534187000" lon="-4.257920000">
        <ele>652.1</ele>
        <time>2020-10-13T15:45:43Z</time>
      </trkpt>
      <trkpt lat="37.534162000" lon="-4.257756000">
        <ele>651.9</ele>
        <time>2020-10-13T15:45:45Z</time>
      </trkpt>
      <trkpt lat="37.534134000" lon="-4.257606000">
        <ele>651.6</ele>
        <time>2020-10-13T15:45:47Z</time>
      </trkpt>
      <trkpt lat="37.534118000" lon="-4.257458000">
        <ele>651.3</ele>
        <time>2020-10-13T15:45:49Z</time>
      </trkpt>
      <trkpt lat="37.534094000" lon="-4.257304000">
        <ele>650.9</ele>
        <time>2020-10-13T15:45:51Z</time>
      </trkpt>
      <trkpt lat="37.534070000" lon="-4.257144000">
        <ele>650.4</ele>
        <time>2020-10-13T15:45:53Z</time>
      </trkpt>
      <trkpt lat="37.534007000" lon="-4.256989000">
        <ele>649.7</ele>
        <time>2020-10-13T15:45:55Z</time>
      </trkpt>
      <trkpt lat="37.533898000" lon="-4.256841000">
        <ele>649.1</ele>
        <time>2020-10-13T15:45:58Z</time>
      </trkpt>
      <trkpt lat="37.533838000" lon="-4.256766000">
        <ele>648.4</ele>
        <time>2020-10-13T15:45:58Z</time>
      </trkpt>
      <trkpt lat="37.533768000" lon="-4.256697000">
        <ele>647.7</ele>
        <time>2020-10-13T15:45:59Z</time>
      </trkpt>
      <trkpt lat="37.533628000" lon="-4.256574000">
        <ele>647.1</ele>
        <time>2020-10-13T15:46:01Z</time>
      </trkpt>
      <trkpt lat="37.533562000" lon="-4.256508000">
        <ele>646.5</ele>
        <time>2020-10-13T15:46:02Z</time>
      </trkpt>
      <trkpt lat="37.533500000" lon="-4.256432000">
        <ele>645.8</ele>
        <time>2020-10-13T15:46:03Z</time>
      </trkpt>
      <trkpt lat="37.533450000" lon="-4.256347000">
        <ele>645.3</ele>
        <time>2020-10-13T15:46:04Z</time>
      </trkpt>
      <trkpt lat="37.533409000" lon="-4.256247000">
        <ele>644.7</ele>
        <time>2020-10-13T15:46:05Z</time>
      </trkpt>
      <trkpt lat="37.533368000" lon="-4.256148000">
        <ele>644.3</ele>
        <time>2020-10-13T15:46:06Z</time>
      </trkpt>
      <trkpt lat="37.533320000" lon="-4.256049000">
        <ele>643.8</ele>
        <time>2020-10-13T15:46:07Z</time>
      </trkpt>
      <trkpt lat="37.533263000" lon="-4.255962000">
        <ele>643.5</ele>
        <time>2020-10-13T15:46:08Z</time>
      </trkpt>
      <trkpt lat="37.533197000" lon="-4.255894000">
        <ele>643.1</ele>
        <time>2020-10-13T15:46:09Z</time>
      </trkpt>
      <trkpt lat="37.533126000" lon="-4.255831000">
        <ele>642.8</ele>
        <time>2020-10-13T15:46:10Z</time>
      </trkpt>
      <trkpt lat="37.533049000" lon="-4.255786000">
        <ele>642.5</ele>
        <time>2020-10-13T15:46:11Z</time>
      </trkpt>
      <trkpt lat="37.532972000" lon="-4.255749000">
        <ele>642.4</ele>
        <time>2020-10-13T15:46:12Z</time>
      </trkpt>
      <trkpt lat="37.532892000" lon="-4.255715000">
        <ele>642.3</ele>
        <time>2020-10-13T15:46:13Z</time>
      </trkpt>
      <trkpt lat="37.532813000" lon="-4.255672000">
        <ele>642.1</ele>
        <time>2020-10-13T15:46:14Z</time>
      </trkpt>
      <trkpt lat="37.532732000" lon="-4.255630000">
        <ele>641.8</ele>
        <time>2020-10-13T15:46:15Z</time>
      </trkpt>
      <trkpt lat="37.532657000" lon="-4.255584000">
        <ele>641.5</ele>
        <time>2020-10-13T15:46:16Z</time>
      </trkpt>
      <trkpt lat="37.532579000" lon="-4.255532000">
        <ele>641.1</ele>
        <time>2020-10-13T15:46:17Z</time>
      </trkpt>
      <trkpt lat="37.532505000" lon="-4.255475000">
        <ele>640.6</ele>
        <time>2020-10-13T15:46:18Z</time>
      </trkpt>
      <trkpt lat="37.532427000" lon="-4.255409000">
        <ele>640.1</ele>
        <time>2020-10-13T15:46:20Z</time>
      </trkpt>
      <trkpt lat="37.532353000" lon="-4.255341000">
        <ele>639.5</ele>
        <time>2020-10-13T15:46:20Z</time>
      </trkpt>
      <trkpt lat="37.532278000" lon="-4.255266000">
        <ele>638.9</ele>
        <time>2020-10-13T15:46:21Z</time>
      </trkpt>
      <trkpt lat="37.532201000" lon="-4.255192000">
        <ele>638.4</ele>
        <time>2020-10-13T15:46:22Z</time>
      </trkpt>
      <trkpt lat="37.532130000" lon="-4.255103000">
        <ele>638.0</ele>
        <time>2020-10-13T15:46:23Z</time>
      </trkpt>
      <trkpt lat="37.532065000" lon="-4.255015000">
        <ele>637.8</ele>
        <time>2020-10-13T15:46:24Z</time>
      </trkpt>
      <trkpt lat="37.532004000" lon="-4.254920000">
        <ele>637.8</ele>
        <time>2020-10-13T15:46:25Z</time>
      </trkpt>
      <trkpt lat="37.531943000" lon="-4.254829000">
        <ele>638.0</ele>
        <time>2020-10-13T15:46:26Z</time>
      </trkpt>
      <trkpt lat="37.531884000" lon="-4.254736000">
        <ele>638.5</ele>
        <time>2020-10-13T15:46:27Z</time>
      </trkpt>
      <trkpt lat="37.531826000" lon="-4.254641000">
        <ele>639.1</ele>
        <time>2020-10-13T15:46:28Z</time>
      </trkpt>
      <trkpt lat="37.531772000" lon="-4.254551000">
        <ele>639.8</ele>
        <time>2020-10-13T15:46:29Z</time>
      </trkpt>
      <trkpt lat="37.531721000" lon="-4.254459000">
        <ele>640.7</ele>
        <time>2020-10-13T15:46:30Z</time>
      </trkpt>
      <trkpt lat="37.531673000" lon="-4.254372000">
        <ele>641.7</ele>
        <time>2020-10-13T15:46:31Z</time>
      </trkpt>
      <trkpt lat="37.531585000" lon="-4.254223000">
        <ele>642.9</ele>
        <time>2020-10-13T15:46:33Z</time>
      </trkpt>
      <trkpt lat="37.531520000" lon="-4.254106000">
        <ele>644.1</ele>
        <time>2020-10-13T15:46:35Z</time>
      </trkpt>
      <trkpt lat="37.531473000" lon="-4.254011000">
        <ele>645.2</ele>
        <time>2020-10-13T15:46:37Z</time>
      </trkpt>
      <trkpt lat="37.531418000" lon="-4.253920000">
        <ele>646.2</ele>
        <time>2020-10-13T15:46:40Z</time>
      </trkpt>
      <trkpt lat="37.531366000" lon="-4.253831000">
        <ele>647.2</ele>
        <time>2020-10-13T15:46:44Z</time>
      </trkpt>
      <trkpt lat="37.531314000" lon="-4.253744000">
        <ele>648.2</ele>
        <time>2020-10-13T15:46:50Z</time>
      </trkpt>
      <trkpt lat="37.531246000" lon="-4.253678000">
        <ele>649.1</ele>
        <time>2020-10-13T15:46:55Z</time>
      </trkpt>
      <trkpt lat="37.531175000" lon="-4.253617000">
        <ele>650.1</ele>
        <time>2020-10-13T15:47:01Z</time>
      </trkpt>
      <trkpt lat="37.531115000" lon="-4.253544000">
        <ele>651.2</ele>
        <time>2020-10-13T15:47:05Z</time>
      </trkpt>
      <trkpt lat="37.531064000" lon="-4.253463000">
        <ele>652.4</ele>
        <time>2020-10-13T15:47:10Z</time>
      </trkpt>
      <trkpt lat="37.530997000" lon="-4.253392000">
        <ele>653.5</ele>
        <time>2020-10-13T15:47:15Z</time>
      </trkpt>
      <trkpt lat="37.530940000" lon="-4.253305000">
        <ele>654.7</ele>
        <time>2020-10-13T15:47:22Z</time>
      </trkpt>
      <trkpt lat="37.530866000" lon="-4.253236000">
        <ele>655.9</ele>
        <time>2020-10-13T15:47:28Z</time>
      </trkpt>
      <trkpt lat="37.530801000" lon="-4.253165000">
        <ele>657.0</ele>
        <time>2020-10-13T15:47:34Z</time>
      </trkpt>
      <trkpt lat="37.530730000" lon="-4.253085000">
        <ele>658.0</ele>
        <time>2020-10-13T15:47:40Z</time>
      </trkpt>
      <trkpt lat="37.530660000" lon="-4.252994000">
        <ele>658.9</ele>
        <time>2020-10-13T15:47:45Z</time>
      </trkpt>
      <trkpt lat="37.530603000" lon="-4.252911000">
        <ele>659.7</ele>
        <time>2020-10-13T15:47:50Z</time>
      </trkpt>
      <trkpt lat="37.530547000" lon="-4.252819000">
        <ele>660.5</ele>
        <time>2020-10-13T15:47:55Z</time>
      </trkpt>
      <trkpt lat="37.530501000" lon="-4.252721000">
        <ele>661.0</ele>
        <time>2020-10-13T15:48:00Z</time>
      </trkpt>
      <trkpt lat="37.530461000" lon="-4.252631000">
        <ele>661.5</ele>
        <time>2020-10-13T15:48:04Z</time>
      </trkpt>
      <trkpt lat="37.530411000" lon="-4.252535000">
        <ele>661.9</ele>
        <time>2020-10-13T15:48:09Z</time>
      </trkpt>
      <trkpt lat="37.530370000" lon="-4.252435000">
        <ele>662.3</ele>
        <time>2020-10-13T15:48:14Z</time>
      </trkpt>
      <trkpt lat="37.530321000" lon="-4.252329000">
        <ele>662.6</ele>
        <time>2020-10-13T15:48:19Z</time>
      </trkpt>
      <trkpt lat="37.530296000" lon="-4.252226000">
        <ele>663.0</ele>
        <time>2020-10-13T15:48:23Z</time>
      </trkpt>
      <trkpt lat="37.530260000" lon="-4.252115000">
        <ele>663.4</ele>
        <time>2020-10-13T15:48:27Z</time>
      </trkpt>
      <trkpt lat="37.530212000" lon="-4.251996000">
        <ele>663.8</ele>
        <time>2020-10-13T15:48:31Z</time>
      </trkpt>
      <trkpt lat="37.530172000" lon="-4.251877000">
        <ele>664.3</ele>
        <time>2020-10-13T15:48:35Z</time>
      </trkpt>
      <trkpt lat="37.530131000" lon="-4.251764000">
        <ele>664.7</ele>
        <time>2020-10-13T15:48:39Z</time>
      </trkpt>
      <trkpt lat="37.530089000" lon="-4.251651000">
        <ele>665.2</ele>
        <time>2020-10-13T15:48:43Z</time>
      </trkpt>
      <trkpt lat="37.530040000" lon="-4.251534000">
        <ele>665.5</ele>
        <time>2020-10-13T15:48:47Z</time>
      </trkpt>
      <trkpt lat="37.529994000" lon="-4.251416000">
        <ele>665.8</ele>
        <time>2020-10-13T15:48:51Z</time>
      </trkpt>
      <trkpt lat="37.529950000" lon="-4.251296000">
        <ele>666.1</ele>
        <time>2020-10-13T15:48:55Z</time>
      </trkpt>
      <trkpt lat="37.529917000" lon="-4.251203000">
        <ele>666.3</ele>
        <time>2020-10-13T15:48:58Z</time>
      </trkpt>
      <trkpt lat="37.529875000" lon="-4.251081000">
        <ele>666.5</ele>
        <time>2020-10-13T15:49:02Z</time>
      </trkpt>
      <trkpt lat="37.529832000" lon="-4.250966000">
        <ele>666.6</ele>
        <time>2020-10-13T15:49:06Z</time>
      </trkpt>
      <trkpt lat="37.529790000" lon="-4.250853000">
        <ele>666.9</ele>
        <time>2020-10-13T15:49:10Z</time>
      </trkpt>
      <trkpt lat="37.529748000" lon="-4.250736000">
        <ele>667.2</ele>
        <time>2020-10-13T15:49:14Z</time>
      </trkpt>
      <trkpt lat="37.529708000" lon="-4.250623000">
        <ele>667.5</ele>
        <time>2020-10-13T15:49:18Z</time>
      </trkpt>
      <trkpt lat="37.529658000" lon="-4.250510000">
        <ele>668.0</ele>
        <time>2020-10-13T15:49:22Z</time>
      </trkpt>
      <trkpt lat="37.529614000" lon="-4.250390000">
        <ele>668.5</ele>
        <time>2020-10-13T15:49:26Z</time>
      </trkpt>
      <trkpt lat="37.529573000" lon="-4.250274000">
        <ele>669.2</ele>
        <time>2020-10-13T15:49:30Z</time>
      </trkpt>
      <trkpt lat="37.529524000" lon="-4.250159000">
        <ele>669.9</ele>
        <time>2020-10-13T15:49:34Z</time>
      </trkpt>
      <trkpt lat="37.529478000" lon="-4.250041000">
        <ele>670.6</ele>
        <time>2020-10-13T15:49:38Z</time>
      </trkpt>
      <trkpt lat="37.529430000" lon="-4.249934000">
        <ele>671.4</ele>
        <time>2020-10-13T15:49:42Z</time>
      </trkpt>
      <trkpt lat="37.529386000" lon="-4.249820000">
        <ele>671.9</ele>
        <time>2020-10-13T15:49:46Z</time>
      </trkpt>
      <trkpt lat="37.529339000" lon="-4.249705000">
        <ele>672.4</ele>
        <time>2020-10-13T15:49:50Z</time>
      </trkpt>
      <trkpt lat="37.529294000" lon="-4.249591000">
        <ele>672.7</ele>
        <time>2020-10-13T15:49:54Z</time>
      </trkpt>
      <trkpt lat="37.529257000" lon="-4.249500000">
        <ele>673.1</ele>
        <time>2020-10-13T15:49:57Z</time>
      </trkpt>
      <trkpt lat="37.529219000" lon="-4.249408000">
        <ele>673.4</ele>
        <time>2020-10-13T15:50:00Z</time>
      </trkpt>
      <trkpt lat="37.529186000" lon="-4.249312000">
        <ele>673.5</ele>
        <time>2020-10-13T15:50:03Z</time>
      </trkpt>
      <trkpt lat="37.529156000" lon="-4.249213000">
        <ele>673.6</ele>
        <time>2020-10-13T15:50:06Z</time>
      </trkpt>
      <trkpt lat="37.529131000" lon="-4.249080000">
        <ele>673.8</ele>
        <time>2020-10-13T15:50:10Z</time>
      </trkpt>
      <trkpt lat="37.529112000" lon="-4.248975000">
        <ele>673.9</ele>
        <time>2020-10-13T15:50:13Z</time>
      </trkpt>
      <trkpt lat="37.529104000" lon="-4.248865000">
        <ele>674.0</ele>
        <time>2020-10-13T15:50:16Z</time>
      </trkpt>
      <trkpt lat="37.529088000" lon="-4.248758000">
        <ele>674.1</ele>
        <time>2020-10-13T15:50:19Z</time>
      </trkpt>
      <trkpt lat="37.529069000" lon="-4.248652000">
        <ele>674.2</ele>
        <time>2020-10-13T15:50:22Z</time>
      </trkpt>
      <trkpt lat="37.529052000" lon="-4.248544000">
        <ele>674.3</ele>
        <time>2020-10-13T15:50:26Z</time>
      </trkpt>
      <trkpt lat="37.529025000" lon="-4.248429000">
        <ele>674.4</ele>
        <time>2020-10-13T15:50:28Z</time>
      </trkpt>
      <trkpt lat="37.528993000" lon="-4.248312000">
        <ele>674.5</ele>
        <time>2020-10-13T15:50:31Z</time>
      </trkpt>
      <trkpt lat="37.528963000" lon="-4.248201000">
        <ele>674.5</ele>
        <time>2020-10-13T15:50:34Z</time>
      </trkpt>
      <trkpt lat="37.528922000" lon="-4.248099000">
        <ele>674.7</ele>
        <time>2020-10-13T15:50:37Z</time>
      </trkpt>
      <trkpt lat="37.528865000" lon="-4.247995000">
        <ele>674.9</ele>
        <time>2020-10-13T15:50:40Z</time>
      </trkpt>
      <trkpt lat="37.528808000" lon="-4.247884000">
        <ele>675.0</ele>
        <time>2020-10-13T15:50:43Z</time>
      </trkpt>
      <trkpt lat="37.528749000" lon="-4.247766000">
        <ele>675.1</ele>
        <time>2020-10-13T15:50:46Z</time>
      </trkpt>
      <trkpt lat="37.528681000" lon="-4.247650000">
        <ele>675.2</ele>
        <time>2020-10-13T15:50:49Z</time>
      </trkpt>
      <trkpt lat="37.528621000" lon="-4.247531000">
        <ele>675.3</ele>
        <time>2020-10-13T15:50:52Z</time>
      </trkpt>
      <trkpt lat="37.528556000" lon="-4.247413000">
        <ele>675.4</ele>
        <time>2020-10-13T15:50:55Z</time>
      </trkpt>
      <trkpt lat="37.528502000" lon="-4.247296000">
        <ele>675.5</ele>
        <time>2020-10-13T15:50:58Z</time>
      </trkpt>
      <trkpt lat="37.528445000" lon="-4.247180000">
        <ele>675.5</ele>
        <time>2020-10-13T15:51:01Z</time>
      </trkpt>
      <trkpt lat="37.528392000" lon="-4.247058000">
        <ele>675.4</ele>
        <time>2020-10-13T15:51:04Z</time>
      </trkpt>
      <trkpt lat="37.528337000" lon="-4.246920000">
        <ele>675.2</ele>
        <time>2020-10-13T15:51:07Z</time>
      </trkpt>
      <trkpt lat="37.528295000" lon="-4.246810000">
        <ele>674.9</ele>
        <time>2020-10-13T15:51:09Z</time>
      </trkpt>
      <trkpt lat="37.528253000" lon="-4.246698000">
        <ele>674.6</ele>
        <time>2020-10-13T15:51:11Z</time>
      </trkpt>
      <trkpt lat="37.528210000" lon="-4.246575000">
        <ele>674.3</ele>
        <time>2020-10-13T15:51:13Z</time>
      </trkpt>
      <trkpt lat="37.528167000" lon="-4.246438000">
        <ele>673.8</ele>
        <time>2020-10-13T15:51:15Z</time>
      </trkpt>
      <trkpt lat="37.528122000" lon="-4.246286000">
        <ele>673.3</ele>
        <time>2020-10-13T15:51:17Z</time>
      </trkpt>
      <trkpt lat="37.528084000" lon="-4.246128000">
        <ele>672.6</ele>
        <time>2020-10-13T15:51:19Z</time>
      </trkpt>
      <trkpt lat="37.528051000" lon="-4.245965000">
        <ele>672.0</ele>
        <time>2020-10-13T15:51:21Z</time>
      </trkpt>
      <trkpt lat="37.528012000" lon="-4.245795000">
        <ele>671.4</ele>
        <time>2020-10-13T15:51:23Z</time>
      </trkpt>
      <trkpt lat="37.527973000" lon="-4.245614000">
        <ele>670.7</ele>
        <time>2020-10-13T15:51:25Z</time>
      </trkpt>
      <trkpt lat="37.527933000" lon="-4.245427000">
        <ele>670.0</ele>
        <time>2020-10-13T15:51:27Z</time>
      </trkpt>
      <trkpt lat="37.527911000" lon="-4.245326000">
        <ele>669.4</ele>
        <time>2020-10-13T15:51:28Z</time>
      </trkpt>
      <trkpt lat="37.527872000" lon="-4.245133000">
        <ele>668.8</ele>
        <time>2020-10-13T15:51:30Z</time>
      </trkpt>
      <trkpt lat="37.527835000" lon="-4.244934000">
        <ele>668.2</ele>
        <time>2020-10-13T15:51:32Z</time>
      </trkpt>
      <trkpt lat="37.527815000" lon="-4.244834000">
        <ele>667.6</ele>
        <time>2020-10-13T15:51:33Z</time>
      </trkpt>
      <trkpt lat="37.527778000" lon="-4.244642000">
        <ele>667.2</ele>
        <time>2020-10-13T15:51:35Z</time>
      </trkpt>
      <trkpt lat="37.527758000" lon="-4.244542000">
        <ele>666.8</ele>
        <time>2020-10-13T15:51:36Z</time>
      </trkpt>
      <trkpt lat="37.527739000" lon="-4.244435000">
        <ele>666.5</ele>
        <time>2020-10-13T15:51:37Z</time>
      </trkpt>
      <trkpt lat="37.527724000" lon="-4.244331000">
        <ele>666.3</ele>
        <time>2020-10-13T15:51:38Z</time>
      </trkpt>
      <trkpt lat="37.527703000" lon="-4.244229000">
        <ele>666.1</ele>
        <time>2020-10-13T15:51:39Z</time>
      </trkpt>
      <trkpt lat="37.527678000" lon="-4.244120000">
        <ele>666.0</ele>
        <time>2020-10-13T15:51:40Z</time>
      </trkpt>
      <trkpt lat="37.527654000" lon="-4.244019000">
        <ele>666.1</ele>
        <time>2020-10-13T15:51:41Z</time>
      </trkpt>
      <trkpt lat="37.527628000" lon="-4.243915000">
        <ele>666.2</ele>
        <time>2020-10-13T15:51:42Z</time>
      </trkpt>
      <trkpt lat="37.527596000" lon="-4.243808000">
        <ele>666.3</ele>
        <time>2020-10-13T15:51:43Z</time>
      </trkpt>
      <trkpt lat="37.527557000" lon="-4.243707000">
        <ele>666.5</ele>
        <time>2020-10-13T15:51:44Z</time>
      </trkpt>
      <trkpt lat="37.527520000" lon="-4.243608000">
        <ele>666.5</ele>
        <time>2020-10-13T15:51:45Z</time>
      </trkpt>
      <trkpt lat="37.527477000" lon="-4.243512000">
        <ele>666.5</ele>
        <time>2020-10-13T15:51:46Z</time>
      </trkpt>
      <trkpt lat="37.527435000" lon="-4.243418000">
        <ele>666.5</ele>
        <time>2020-10-13T15:51:47Z</time>
      </trkpt>
      <trkpt lat="37.527394000" lon="-4.243325000">
        <ele>666.5</ele>
        <time>2020-10-13T15:51:48Z</time>
      </trkpt>
      <trkpt lat="37.527313000" lon="-4.243147000">
        <ele>666.4</ele>
        <time>2020-10-13T15:51:50Z</time>
      </trkpt>
      <trkpt lat="37.527236000" lon="-4.242979000">
        <ele>666.3</ele>
        <time>2020-10-13T15:51:52Z</time>
      </trkpt>
      <trkpt lat="37.527175000" lon="-4.242812000">
        <ele>666.2</ele>
        <time>2020-10-13T15:51:54Z</time>
      </trkpt>
      <trkpt lat="37.527133000" lon="-4.242636000">
        <ele>666.0</ele>
        <time>2020-10-13T15:51:56Z</time>
      </trkpt>
      <trkpt lat="37.527111000" lon="-4.242462000">
        <ele>665.7</ele>
        <time>2020-10-13T15:51:58Z</time>
      </trkpt>
      <trkpt lat="37.527103000" lon="-4.242298000">
        <ele>665.4</ele>
        <time>2020-10-13T15:52:00Z</time>
      </trkpt>
      <trkpt lat="37.527088000" lon="-4.242133000">
        <ele>665.0</ele>
        <time>2020-10-13T15:52:02Z</time>
      </trkpt>
      <trkpt lat="37.527073000" lon="-4.241962000">
        <ele>664.7</ele>
        <time>2020-10-13T15:52:04Z</time>
      </trkpt>
      <trkpt lat="37.527064000" lon="-4.241799000">
        <ele>664.5</ele>
        <time>2020-10-13T15:52:06Z</time>
      </trkpt>
      <trkpt lat="37.527054000" lon="-4.241636000">
        <ele>664.4</ele>
        <time>2020-10-13T15:52:09Z</time>
      </trkpt>
      <trkpt lat="37.527042000" lon="-4.241484000">
        <ele>664.2</ele>
        <time>2020-10-13T15:52:10Z</time>
      </trkpt>
      <trkpt lat="37.527031000" lon="-4.241343000">
        <ele>664.1</ele>
        <time>2020-10-13T15:52:12Z</time>
      </trkpt>
      <trkpt lat="37.527012000" lon="-4.241196000">
        <ele>664.0</ele>
        <time>2020-10-13T15:52:14Z</time>
      </trkpt>
      <trkpt lat="37.526987000" lon="-4.241042000">
        <ele>663.8</ele>
        <time>2020-10-13T15:52:16Z</time>
      </trkpt>
      <trkpt lat="37.526956000" lon="-4.240891000">
        <ele>663.6</ele>
        <time>2020-10-13T15:52:18Z</time>
      </trkpt>
      <trkpt lat="37.526928000" lon="-4.240745000">
        <ele>663.5</ele>
        <time>2020-10-13T15:52:20Z</time>
      </trkpt>
      <trkpt lat="37.526896000" lon="-4.240605000">
        <ele>663.5</ele>
        <time>2020-10-13T15:52:22Z</time>
      </trkpt>
      <trkpt lat="37.526868000" lon="-4.240473000">
        <ele>663.4</ele>
        <time>2020-10-13T15:52:24Z</time>
      </trkpt>
      <trkpt lat="37.526851000" lon="-4.240335000">
        <ele>663.4</ele>
        <time>2020-10-13T15:52:26Z</time>
      </trkpt>
      <trkpt lat="37.526846000" lon="-4.240206000">
        <ele>663.4</ele>
        <time>2020-10-13T15:52:28Z</time>
      </trkpt>
      <trkpt lat="37.526846000" lon="-4.240083000">
        <ele>663.5</ele>
        <time>2020-10-13T15:52:30Z</time>
      </trkpt>
      <trkpt lat="37.526854000" lon="-4.239971000">
        <ele>663.5</ele>
        <time>2020-10-13T15:52:32Z</time>
      </trkpt>
      <trkpt lat="37.526868000" lon="-4.239866000">
        <ele>663.5</ele>
        <time>2020-10-13T15:52:34Z</time>
      </trkpt>
      <trkpt lat="37.526887000" lon="-4.239761000">
        <ele>663.5</ele>
        <time>2020-10-13T15:52:36Z</time>
      </trkpt>
      <trkpt lat="37.526902000" lon="-4.239660000">
        <ele>663.5</ele>
        <time>2020-10-13T15:52:38Z</time>
      </trkpt>
      <trkpt lat="37.526917000" lon="-4.239552000">
        <ele>663.3</ele>
        <time>2020-10-13T15:52:40Z</time>
      </trkpt>
      <trkpt lat="37.526940000" lon="-4.239425000">
        <ele>662.9</ele>
        <time>2020-10-13T15:52:42Z</time>
      </trkpt>
      <trkpt lat="37.526955000" lon="-4.239287000">
        <ele>662.5</ele>
        <time>2020-10-13T15:52:44Z</time>
      </trkpt>
      <trkpt lat="37.526963000" lon="-4.239141000">
        <ele>662.0</ele>
        <time>2020-10-13T15:52:46Z</time>
      </trkpt>
      <trkpt lat="37.526962000" lon="-4.238991000">
        <ele>661.5</ele>
        <time>2020-10-13T15:52:48Z</time>
      </trkpt>
      <trkpt lat="37.526943000" lon="-4.238831000">
        <ele>660.9</ele>
        <time>2020-10-13T15:52:50Z</time>
      </trkpt>
      <trkpt lat="37.526917000" lon="-4.238660000">
        <ele>660.4</ele>
        <time>2020-10-13T15:52:52Z</time>
      </trkpt>
      <trkpt lat="37.526883000" lon="-4.238478000">
        <ele>659.8</ele>
        <time>2020-10-13T15:52:54Z</time>
      </trkpt>
      <trkpt lat="37.526850000" lon="-4.238293000">
        <ele>659.2</ele>
        <time>2020-10-13T15:52:56Z</time>
      </trkpt>
      <trkpt lat="37.526813000" lon="-4.238112000">
        <ele>658.5</ele>
        <time>2020-10-13T15:52:59Z</time>
      </trkpt>
      <trkpt lat="37.526756000" lon="-4.237942000">
        <ele>657.7</ele>
        <time>2020-10-13T15:53:00Z</time>
      </trkpt>
      <trkpt lat="37.526683000" lon="-4.237770000">
        <ele>657.0</ele>
        <time>2020-10-13T15:53:02Z</time>
      </trkpt>
      <trkpt lat="37.526601000" lon="-4.237595000">
        <ele>656.4</ele>
        <time>2020-10-13T15:53:04Z</time>
      </trkpt>
      <trkpt lat="37.526558000" lon="-4.237503000">
        <ele>655.8</ele>
        <time>2020-10-13T15:53:05Z</time>
      </trkpt>
      <trkpt lat="37.526511000" lon="-4.237412000">
        <ele>655.3</ele>
        <time>2020-10-13T15:53:06Z</time>
      </trkpt>
      <trkpt lat="37.526463000" lon="-4.237316000">
        <ele>654.6</ele>
        <time>2020-10-13T15:53:07Z</time>
      </trkpt>
      <trkpt lat="37.526417000" lon="-4.237219000">
        <ele>654.0</ele>
        <time>2020-10-13T15:53:08Z</time>
      </trkpt>
      <trkpt lat="37.526372000" lon="-4.237118000">
        <ele>653.3</ele>
        <time>2020-10-13T15:53:09Z</time>
      </trkpt>
      <trkpt lat="37.526328000" lon="-4.237014000">
        <ele>652.6</ele>
        <time>2020-10-13T15:53:10Z</time>
      </trkpt>
      <trkpt lat="37.526281000" lon="-4.236928000">
        <ele>652.1</ele>
        <time>2020-10-13T15:53:11Z</time>
      </trkpt>
      <trkpt lat="37.526224000" lon="-4.236851000">
        <ele>651.6</ele>
        <time>2020-10-13T15:53:12Z</time>
      </trkpt>
      <trkpt lat="37.526159000" lon="-4.236787000">
        <ele>651.4</ele>
        <time>2020-10-13T15:53:13Z</time>
      </trkpt>
      <trkpt lat="37.526088000" lon="-4.236735000">
        <ele>651.1</ele>
        <time>2020-10-13T15:53:14Z</time>
      </trkpt>
      <trkpt lat="37.526009000" lon="-4.236678000">
        <ele>650.9</ele>
        <time>2020-10-13T15:53:15Z</time>
      </trkpt>
      <trkpt lat="37.525932000" lon="-4.236626000">
        <ele>650.6</ele>
        <time>2020-10-13T15:53:16Z</time>
      </trkpt>
      <trkpt lat="37.525858000" lon="-4.236572000">
        <ele>650.3</ele>
        <time>2020-10-13T15:53:17Z</time>
      </trkpt>
      <trkpt lat="37.525780000" lon="-4.236515000">
        <ele>649.9</ele>
        <time>2020-10-13T15:53:18Z</time>
      </trkpt>
      <trkpt lat="37.525696000" lon="-4.236456000">
        <ele>649.5</ele>
        <time>2020-10-13T15:53:19Z</time>
      </trkpt>
      <trkpt lat="37.525616000" lon="-4.236397000">
        <ele>649.2</ele>
        <time>2020-10-13T15:53:20Z</time>
      </trkpt>
      <trkpt lat="37.525533000" lon="-4.236336000">
        <ele>648.7</ele>
        <time>2020-10-13T15:53:21Z</time>
      </trkpt>
      <trkpt lat="37.525456000" lon="-4.236282000">
        <ele>648.3</ele>
        <time>2020-10-13T15:53:22Z</time>
      </trkpt>
      <trkpt lat="37.525374000" lon="-4.236220000">
        <ele>647.8</ele>
        <time>2020-10-13T15:53:23Z</time>
      </trkpt>
      <trkpt lat="37.525297000" lon="-4.236161000">
        <ele>647.4</ele>
        <time>2020-10-13T15:53:24Z</time>
      </trkpt>
      <trkpt lat="37.525223000" lon="-4.236101000">
        <ele>646.9</ele>
        <time>2020-10-13T15:53:25Z</time>
      </trkpt>
      <trkpt lat="37.525148000" lon="-4.236029000">
        <ele>646.5</ele>
        <time>2020-10-13T15:53:26Z</time>
      </trkpt>
      <trkpt lat="37.525078000" lon="-4.235950000">
        <ele>646.0</ele>
        <time>2020-10-13T15:53:27Z</time>
      </trkpt>
      <trkpt lat="37.525008000" lon="-4.235870000">
        <ele>645.5</ele>
        <time>2020-10-13T15:53:28Z</time>
      </trkpt>
      <trkpt lat="37.524945000" lon="-4.235785000">
        <ele>645.1</ele>
        <time>2020-10-13T15:53:29Z</time>
      </trkpt>
      <trkpt lat="37.524882000" lon="-4.235692000">
        <ele>644.5</ele>
        <time>2020-10-13T15:53:30Z</time>
      </trkpt>
      <trkpt lat="37.524817000" lon="-4.235601000">
        <ele>644.1</ele>
        <time>2020-10-13T15:53:31Z</time>
      </trkpt>
      <trkpt lat="37.524756000" lon="-4.235507000">
        <ele>643.5</ele>
        <time>2020-10-13T15:53:32Z</time>
      </trkpt>
      <trkpt lat="37.524704000" lon="-4.235412000">
        <ele>643.0</ele>
        <time>2020-10-13T15:53:33Z</time>
      </trkpt>
      <trkpt lat="37.524649000" lon="-4.235318000">
        <ele>642.4</ele>
        <time>2020-10-13T15:53:34Z</time>
      </trkpt>
      <trkpt lat="37.524591000" lon="-4.235224000">
        <ele>641.7</ele>
        <time>2020-10-13T15:53:35Z</time>
      </trkpt>
      <trkpt lat="37.524536000" lon="-4.235129000">
        <ele>641.2</ele>
        <time>2020-10-13T15:53:36Z</time>
      </trkpt>
      <trkpt lat="37.524478000" lon="-4.235035000">
        <ele>640.5</ele>
        <time>2020-10-13T15:53:37Z</time>
      </trkpt>
      <trkpt lat="37.524415000" lon="-4.234949000">
        <ele>640.0</ele>
        <time>2020-10-13T15:53:38Z</time>
      </trkpt>
      <trkpt lat="37.524349000" lon="-4.234872000">
        <ele>639.5</ele>
        <time>2020-10-13T15:53:39Z</time>
      </trkpt>
      <trkpt lat="37.524281000" lon="-4.234795000">
        <ele>638.9</ele>
        <time>2020-10-13T15:53:40Z</time>
      </trkpt>
      <trkpt lat="37.524219000" lon="-4.234721000">
        <ele>638.5</ele>
        <time>2020-10-13T15:53:41Z</time>
      </trkpt>
      <trkpt lat="37.524155000" lon="-4.234641000">
        <ele>637.9</ele>
        <time>2020-10-13T15:53:42Z</time>
      </trkpt>
      <trkpt lat="37.524092000" lon="-4.234564000">
        <ele>637.4</ele>
        <time>2020-10-13T15:53:43Z</time>
      </trkpt>
      <trkpt lat="37.524032000" lon="-4.234489000">
        <ele>636.8</ele>
        <time>2020-10-13T15:53:44Z</time>
      </trkpt>
      <trkpt lat="37.523972000" lon="-4.234413000">
        <ele>636.3</ele>
        <time>2020-10-13T15:53:45Z</time>
      </trkpt>
      <trkpt lat="37.523910000" lon="-4.234337000">
        <ele>635.6</ele>
        <time>2020-10-13T15:53:46Z</time>
      </trkpt>
      <trkpt lat="37.523845000" lon="-4.234260000">
        <ele>635.0</ele>
        <time>2020-10-13T15:53:47Z</time>
      </trkpt>
      <trkpt lat="37.523782000" lon="-4.234184000">
        <ele>634.5</ele>
        <time>2020-10-13T15:53:48Z</time>
      </trkpt>
      <trkpt lat="37.523723000" lon="-4.234100000">
        <ele>633.8</ele>
        <time>2020-10-13T15:53:49Z</time>
      </trkpt>
      <trkpt lat="37.523666000" lon="-4.234011000">
        <ele>633.3</ele>
        <time>2020-10-13T15:53:50Z</time>
      </trkpt>
      <trkpt lat="37.523613000" lon="-4.233917000">
        <ele>632.7</ele>
        <time>2020-10-13T15:53:51Z</time>
      </trkpt>
      <trkpt lat="37.523561000" lon="-4.233815000">
        <ele>632.2</ele>
        <time>2020-10-13T15:53:52Z</time>
      </trkpt>
      <trkpt lat="37.523514000" lon="-4.233707000">
        <ele>631.6</ele>
        <time>2020-10-13T15:53:53Z</time>
      </trkpt>
      <trkpt lat="37.523467000" lon="-4.233601000">
        <ele>631.2</ele>
        <time>2020-10-13T15:53:54Z</time>
      </trkpt>
      <trkpt lat="37.523421000" lon="-4.233492000">
        <ele>630.6</ele>
        <time>2020-10-13T15:53:55Z</time>
      </trkpt>
      <trkpt lat="37.523368000" lon="-4.233387000">
        <ele>630.2</ele>
        <time>2020-10-13T15:53:57Z</time>
      </trkpt>
      <trkpt lat="37.523314000" lon="-4.233290000">
        <ele>629.7</ele>
        <time>2020-10-13T15:53:57Z</time>
      </trkpt>
      <trkpt lat="37.523257000" lon="-4.233188000">
        <ele>629.2</ele>
        <time>2020-10-13T15:53:58Z</time>
      </trkpt>
      <trkpt lat="37.523200000" lon="-4.233092000">
        <ele>628.5</ele>
        <time>2020-10-13T15:53:59Z</time>
      </trkpt>
      <trkpt lat="37.523145000" lon="-4.232997000">
        <ele>627.9</ele>
        <time>2020-10-13T15:54:00Z</time>
      </trkpt>
      <trkpt lat="37.523092000" lon="-4.232903000">
        <ele>627.3</ele>
        <time>2020-10-13T15:54:01Z</time>
      </trkpt>
      <trkpt lat="37.523040000" lon="-4.232807000">
        <ele>626.6</ele>
        <time>2020-10-13T15:54:02Z</time>
      </trkpt>
      <trkpt lat="37.522989000" lon="-4.232703000">
        <ele>626.0</ele>
        <time>2020-10-13T15:54:03Z</time>
      </trkpt>
      <trkpt lat="37.522946000" lon="-4.232596000">
        <ele>625.4</ele>
        <time>2020-10-13T15:54:04Z</time>
      </trkpt>
      <trkpt lat="37.522900000" lon="-4.232490000">
        <ele>624.6</ele>
        <time>2020-10-13T15:54:05Z</time>
      </trkpt>
      <trkpt lat="37.522858000" lon="-4.232379000">
        <ele>623.9</ele>
        <time>2020-10-13T15:54:06Z</time>
      </trkpt>
      <trkpt lat="37.522817000" lon="-4.232270000">
        <ele>623.1</ele>
        <time>2020-10-13T15:54:07Z</time>
      </trkpt>
      <trkpt lat="37.522773000" lon="-4.232151000">
        <ele>622.3</ele>
        <time>2020-10-13T15:54:08Z</time>
      </trkpt>
      <trkpt lat="37.522726000" lon="-4.232037000">
        <ele>621.5</ele>
        <time>2020-10-13T15:54:09Z</time>
      </trkpt>
      <trkpt lat="37.522682000" lon="-4.231928000">
        <ele>620.6</ele>
        <time>2020-10-13T15:54:10Z</time>
      </trkpt>
      <trkpt lat="37.522643000" lon="-4.231821000">
        <ele>619.7</ele>
        <time>2020-10-13T15:54:11Z</time>
      </trkpt>
      <trkpt lat="37.522573000" lon="-4.231635000">
        <ele>618.6</ele>
        <time>2020-10-13T15:54:13Z</time>
      </trkpt>
      <trkpt lat="37.522504000" lon="-4.231452000">
        <ele>617.5</ele>
        <time>2020-10-13T15:54:15Z</time>
      </trkpt>
      <trkpt lat="37.522431000" lon="-4.231277000">
        <ele>616.3</ele>
        <time>2020-10-13T15:54:17Z</time>
      </trkpt>
      <trkpt lat="37.522352000" lon="-4.231121000">
        <ele>614.8</ele>
        <time>2020-10-13T15:54:19Z</time>
      </trkpt>
      <trkpt lat="37.522250000" lon="-4.230996000">
        <ele>613.4</ele>
        <time>2020-10-13T15:54:21Z</time>
      </trkpt>
      <trkpt lat="37.522120000" lon="-4.230906000">
        <ele>611.8</ele>
        <time>2020-10-13T15:54:23Z</time>
      </trkpt>
      <trkpt lat="37.521993000" lon="-4.230834000">
        <ele>610.4</ele>
        <time>2020-10-13T15:54:25Z</time>
      </trkpt>
      <trkpt lat="37.521857000" lon="-4.230779000">
        <ele>608.9</ele>
        <time>2020-10-13T15:54:27Z</time>
      </trkpt>
      <trkpt lat="37.521713000" lon="-4.230711000">
        <ele>607.5</ele>
        <time>2020-10-13T15:54:29Z</time>
      </trkpt>
      <trkpt lat="37.521571000" lon="-4.230646000">
        <ele>606.0</ele>
        <time>2020-10-13T15:54:31Z</time>
      </trkpt>
      <trkpt lat="37.521434000" lon="-4.230576000">
        <ele>604.6</ele>
        <time>2020-10-13T15:54:33Z</time>
      </trkpt>
      <trkpt lat="37.521302000" lon="-4.230504000">
        <ele>603.5</ele>
        <time>2020-10-13T15:54:35Z</time>
      </trkpt>
      <trkpt lat="37.521176000" lon="-4.230429000">
        <ele>602.3</ele>
        <time>2020-10-13T15:54:37Z</time>
      </trkpt>
      <trkpt lat="37.521054000" lon="-4.230346000">
        <ele>601.1</ele>
        <time>2020-10-13T15:54:39Z</time>
      </trkpt>
      <trkpt lat="37.520931000" lon="-4.230222000">
        <ele>600.1</ele>
        <time>2020-10-13T15:54:41Z</time>
      </trkpt>
      <trkpt lat="37.520874000" lon="-4.230144000">
        <ele>599.1</ele>
        <time>2020-10-13T15:54:42Z</time>
      </trkpt>
      <trkpt lat="37.520823000" lon="-4.230059000">
        <ele>598.2</ele>
        <time>2020-10-13T15:54:43Z</time>
      </trkpt>
      <trkpt lat="37.520776000" lon="-4.229969000">
        <ele>597.2</ele>
        <time>2020-10-13T15:54:44Z</time>
      </trkpt>
      <trkpt lat="37.520728000" lon="-4.229868000">
        <ele>596.2</ele>
        <time>2020-10-13T15:54:45Z</time>
      </trkpt>
      <trkpt lat="37.520683000" lon="-4.229766000">
        <ele>595.2</ele>
        <time>2020-10-13T15:54:46Z</time>
      </trkpt>
      <trkpt lat="37.520637000" lon="-4.229663000">
        <ele>594.3</ele>
        <time>2020-10-13T15:54:47Z</time>
      </trkpt>
      <trkpt lat="37.520592000" lon="-4.229563000">
        <ele>593.4</ele>
        <time>2020-10-13T15:54:48Z</time>
      </trkpt>
      <trkpt lat="37.520544000" lon="-4.229460000">
        <ele>592.5</ele>
        <time>2020-10-13T15:54:49Z</time>
      </trkpt>
      <trkpt lat="37.520495000" lon="-4.229361000">
        <ele>591.6</ele>
        <time>2020-10-13T15:54:50Z</time>
      </trkpt>
      <trkpt lat="37.520447000" lon="-4.229265000">
        <ele>590.9</ele>
        <time>2020-10-13T15:54:51Z</time>
      </trkpt>
      <trkpt lat="37.520401000" lon="-4.229166000">
        <ele>590.2</ele>
        <time>2020-10-13T15:54:52Z</time>
      </trkpt>
      <trkpt lat="37.520359000" lon="-4.229063000">
        <ele>589.5</ele>
        <time>2020-10-13T15:54:53Z</time>
      </trkpt>
      <trkpt lat="37.520315000" lon="-4.228963000">
        <ele>588.7</ele>
        <time>2020-10-13T15:54:54Z</time>
      </trkpt>
      <trkpt lat="37.520270000" lon="-4.228861000">
        <ele>587.9</ele>
        <time>2020-10-13T15:54:55Z</time>
      </trkpt>
      <trkpt lat="37.520224000" lon="-4.228760000">
        <ele>587.1</ele>
        <time>2020-10-13T15:54:56Z</time>
      </trkpt>
      <trkpt lat="37.520186000" lon="-4.228662000">
        <ele>586.3</ele>
        <time>2020-10-13T15:54:57Z</time>
      </trkpt>
      <trkpt lat="37.520148000" lon="-4.228563000">
        <ele>585.3</ele>
        <time>2020-10-13T15:54:58Z</time>
      </trkpt>
      <trkpt lat="37.520115000" lon="-4.228462000">
        <ele>584.4</ele>
        <time>2020-10-13T15:54:59Z</time>
      </trkpt>
      <trkpt lat="37.520090000" lon="-4.228363000">
        <ele>583.4</ele>
        <time>2020-10-13T15:55:00Z</time>
      </trkpt>
      <trkpt lat="37.520064000" lon="-4.228264000">
        <ele>582.3</ele>
        <time>2020-10-13T15:55:01Z</time>
      </trkpt>
      <trkpt lat="37.520036000" lon="-4.228161000">
        <ele>581.3</ele>
        <time>2020-10-13T15:55:02Z</time>
      </trkpt>
      <trkpt lat="37.520012000" lon="-4.228061000">
        <ele>580.3</ele>
        <time>2020-10-13T15:55:03Z</time>
      </trkpt>
      <trkpt lat="37.519983000" lon="-4.227956000">
        <ele>579.4</ele>
        <time>2020-10-13T15:55:04Z</time>
      </trkpt>
      <trkpt lat="37.519957000" lon="-4.227858000">
        <ele>578.5</ele>
        <time>2020-10-13T15:55:05Z</time>
      </trkpt>
      <trkpt lat="37.519933000" lon="-4.227756000">
        <ele>577.8</ele>
        <time>2020-10-13T15:55:06Z</time>
      </trkpt>
      <trkpt lat="37.519905000" lon="-4.227651000">
        <ele>577.2</ele>
        <time>2020-10-13T15:55:07Z</time>
      </trkpt>
      <trkpt lat="37.519879000" lon="-4.227542000">
        <ele>576.6</ele>
        <time>2020-10-13T15:55:08Z</time>
      </trkpt>
      <trkpt lat="37.519854000" lon="-4.227433000">
        <ele>576.3</ele>
        <time>2020-10-13T15:55:09Z</time>
      </trkpt>
      <trkpt lat="37.519827000" lon="-4.227331000">
        <ele>575.8</ele>
        <time>2020-10-13T15:55:10Z</time>
      </trkpt>
      <trkpt lat="37.519803000" lon="-4.227220000">
        <ele>575.5</ele>
        <time>2020-10-13T15:55:11Z</time>
      </trkpt>
      <trkpt lat="37.519785000" lon="-4.227103000">
        <ele>575.1</ele>
        <time>2020-10-13T15:55:12Z</time>
      </trkpt>
      <trkpt lat="37.519771000" lon="-4.226990000">
        <ele>574.6</ele>
        <time>2020-10-13T15:55:13Z</time>
      </trkpt>
      <trkpt lat="37.519758000" lon="-4.226873000">
        <ele>574.3</ele>
        <time>2020-10-13T15:55:14Z</time>
      </trkpt>
      <trkpt lat="37.519749000" lon="-4.226756000">
        <ele>573.8</ele>
        <time>2020-10-13T15:55:15Z</time>
      </trkpt>
      <trkpt lat="37.519740000" lon="-4.226634000">
        <ele>573.3</ele>
        <time>2020-10-13T15:55:16Z</time>
      </trkpt>
      <trkpt lat="37.519729000" lon="-4.226514000">
        <ele>572.7</ele>
        <time>2020-10-13T15:55:17Z</time>
      </trkpt>
      <trkpt lat="37.519719000" lon="-4.226392000">
        <ele>572.2</ele>
        <time>2020-10-13T15:55:18Z</time>
      </trkpt>
      <trkpt lat="37.519710000" lon="-4.226264000">
        <ele>571.5</ele>
        <time>2020-10-13T15:55:19Z</time>
      </trkpt>
      <trkpt lat="37.519697000" lon="-4.226136000">
        <ele>570.8</ele>
        <time>2020-10-13T15:55:20Z</time>
      </trkpt>
      <trkpt lat="37.519688000" lon="-4.226004000">
        <ele>570.2</ele>
        <time>2020-10-13T15:55:22Z</time>
      </trkpt>
      <trkpt lat="37.519676000" lon="-4.225872000">
        <ele>569.5</ele>
        <time>2020-10-13T15:55:22Z</time>
      </trkpt>
      <trkpt lat="37.519663000" lon="-4.225739000">
        <ele>569.0</ele>
        <time>2020-10-13T15:55:23Z</time>
      </trkpt>
      <trkpt lat="37.519648000" lon="-4.225603000">
        <ele>568.5</ele>
        <time>2020-10-13T15:55:24Z</time>
      </trkpt>
      <trkpt lat="37.519637000" lon="-4.225467000">
        <ele>567.9</ele>
        <time>2020-10-13T15:55:25Z</time>
      </trkpt>
      <trkpt lat="37.519626000" lon="-4.225333000">
        <ele>567.5</ele>
        <time>2020-10-13T15:55:26Z</time>
      </trkpt>
      <trkpt lat="37.519612000" lon="-4.225200000">
        <ele>567.0</ele>
        <time>2020-10-13T15:55:27Z</time>
      </trkpt>
      <trkpt lat="37.519598000" lon="-4.225060000">
        <ele>566.5</ele>
        <time>2020-10-13T15:55:28Z</time>
      </trkpt>
      <trkpt lat="37.519587000" lon="-4.224921000">
        <ele>566.1</ele>
        <time>2020-10-13T15:55:29Z</time>
      </trkpt>
      <trkpt lat="37.519577000" lon="-4.224788000">
        <ele>565.6</ele>
        <time>2020-10-13T15:55:30Z</time>
      </trkpt>
      <trkpt lat="37.519568000" lon="-4.224654000">
        <ele>565.2</ele>
        <time>2020-10-13T15:55:31Z</time>
      </trkpt>
      <trkpt lat="37.519552000" lon="-4.224519000">
        <ele>564.6</ele>
        <time>2020-10-13T15:55:32Z</time>
      </trkpt>
      <trkpt lat="37.519535000" lon="-4.224385000">
        <ele>564.1</ele>
        <time>2020-10-13T15:55:33Z</time>
      </trkpt>
      <trkpt lat="37.519516000" lon="-4.224258000">
        <ele>563.5</ele>
        <time>2020-10-13T15:55:34Z</time>
      </trkpt>
      <trkpt lat="37.519491000" lon="-4.224127000">
        <ele>563.1</ele>
        <time>2020-10-13T15:55:35Z</time>
      </trkpt>
      <trkpt lat="37.519463000" lon="-4.223991000">
        <ele>562.6</ele>
        <time>2020-10-13T15:55:36Z</time>
      </trkpt>
      <trkpt lat="37.519435000" lon="-4.223861000">
        <ele>562.1</ele>
        <time>2020-10-13T15:55:37Z</time>
      </trkpt>
      <trkpt lat="37.519405000" lon="-4.223731000">
        <ele>561.6</ele>
        <time>2020-10-13T15:55:38Z</time>
      </trkpt>
      <trkpt lat="37.519378000" lon="-4.223607000">
        <ele>561.3</ele>
        <time>2020-10-13T15:55:39Z</time>
      </trkpt>
      <trkpt lat="37.519348000" lon="-4.223478000">
        <ele>560.8</ele>
        <time>2020-10-13T15:55:40Z</time>
      </trkpt>
      <trkpt lat="37.519321000" lon="-4.223354000">
        <ele>560.5</ele>
        <time>2020-10-13T15:55:41Z</time>
      </trkpt>
      <trkpt lat="37.519292000" lon="-4.223233000">
        <ele>560.1</ele>
        <time>2020-10-13T15:55:42Z</time>
      </trkpt>
      <trkpt lat="37.519261000" lon="-4.223117000">
        <ele>559.8</ele>
        <time>2020-10-13T15:55:43Z</time>
      </trkpt>
      <trkpt lat="37.519226000" lon="-4.223002000">
        <ele>559.5</ele>
        <time>2020-10-13T15:55:44Z</time>
      </trkpt>
      <trkpt lat="37.519182000" lon="-4.222889000">
        <ele>559.3</ele>
        <time>2020-10-13T15:55:45Z</time>
      </trkpt>
      <trkpt lat="37.519135000" lon="-4.222782000">
        <ele>559.0</ele>
        <time>2020-10-13T15:55:46Z</time>
      </trkpt>
      <trkpt lat="37.519083000" lon="-4.222681000">
        <ele>558.7</ele>
        <time>2020-10-13T15:55:47Z</time>
      </trkpt>
      <trkpt lat="37.519032000" lon="-4.222584000">
        <ele>558.5</ele>
        <time>2020-10-13T15:55:48Z</time>
      </trkpt>
      <trkpt lat="37.518977000" lon="-4.222496000">
        <ele>558.5</ele>
        <time>2020-10-13T15:55:49Z</time>
      </trkpt>
      <trkpt lat="37.518921000" lon="-4.222413000">
        <ele>558.4</ele>
        <time>2020-10-13T15:55:50Z</time>
      </trkpt>
      <trkpt lat="37.518868000" lon="-4.222331000">
        <ele>558.3</ele>
        <time>2020-10-13T15:55:51Z</time>
      </trkpt>
      <trkpt lat="37.518817000" lon="-4.222247000">
        <ele>558.2</ele>
        <time>2020-10-13T15:55:52Z</time>
      </trkpt>
      <trkpt lat="37.518769000" lon="-4.222162000">
        <ele>558.2</ele>
        <time>2020-10-13T15:55:53Z</time>
      </trkpt>
      <trkpt lat="37.518724000" lon="-4.222077000">
        <ele>558.2</ele>
        <time>2020-10-13T15:55:54Z</time>
      </trkpt>
      <trkpt lat="37.518647000" lon="-4.221900000">
        <ele>558.1</ele>
        <time>2020-10-13T15:55:56Z</time>
      </trkpt>
      <trkpt lat="37.518588000" lon="-4.221712000">
        <ele>558.0</ele>
        <time>2020-10-13T15:55:58Z</time>
      </trkpt>
      <trkpt lat="37.518548000" lon="-4.221519000">
        <ele>557.9</ele>
        <time>2020-10-13T15:56:00Z</time>
      </trkpt>
      <trkpt lat="37.518523000" lon="-4.221325000">
        <ele>557.8</ele>
        <time>2020-10-13T15:56:02Z</time>
      </trkpt>
      <trkpt lat="37.518512000" lon="-4.221224000">
        <ele>557.7</ele>
        <time>2020-10-13T15:56:03Z</time>
      </trkpt>
      <trkpt lat="37.518502000" lon="-4.221120000">
        <ele>557.5</ele>
        <time>2020-10-13T15:56:04Z</time>
      </trkpt>
      <trkpt lat="37.518503000" lon="-4.221017000">
        <ele>557.4</ele>
        <time>2020-10-13T15:56:05Z</time>
      </trkpt>
      <trkpt lat="37.518503000" lon="-4.220909000">
        <ele>557.3</ele>
        <time>2020-10-13T15:56:06Z</time>
      </trkpt>
      <trkpt lat="37.518505000" lon="-4.220805000">
        <ele>557.2</ele>
        <time>2020-10-13T15:56:07Z</time>
      </trkpt>
      <trkpt lat="37.518507000" lon="-4.220699000">
        <ele>557.0</ele>
        <time>2020-10-13T15:56:08Z</time>
      </trkpt>
      <trkpt lat="37.518517000" lon="-4.220594000">
        <ele>556.8</ele>
        <time>2020-10-13T15:56:09Z</time>
      </trkpt>
      <trkpt lat="37.518525000" lon="-4.220489000">
        <ele>556.6</ele>
        <time>2020-10-13T15:56:10Z</time>
      </trkpt>
      <trkpt lat="37.518526000" lon="-4.220380000">
        <ele>556.4</ele>
        <time>2020-10-13T15:56:11Z</time>
      </trkpt>
      <trkpt lat="37.518530000" lon="-4.220272000">
        <ele>556.1</ele>
        <time>2020-10-13T15:56:12Z</time>
      </trkpt>
      <trkpt lat="37.518536000" lon="-4.220164000">
        <ele>555.7</ele>
        <time>2020-10-13T15:56:13Z</time>
      </trkpt>
      <trkpt lat="37.518543000" lon="-4.220061000">
        <ele>555.3</ele>
        <time>2020-10-13T15:56:14Z</time>
      </trkpt>
      <trkpt lat="37.518552000" lon="-4.219952000">
        <ele>554.7</ele>
        <time>2020-10-13T15:56:15Z</time>
      </trkpt>
      <trkpt lat="37.518562000" lon="-4.219841000">
        <ele>554.1</ele>
        <time>2020-10-13T15:56:16Z</time>
      </trkpt>
      <trkpt lat="37.518583000" lon="-4.219738000">
        <ele>553.3</ele>
        <time>2020-10-13T15:56:17Z</time>
      </trkpt>
      <trkpt lat="37.518604000" lon="-4.219639000">
        <ele>552.4</ele>
        <time>2020-10-13T15:56:18Z</time>
      </trkpt>
      <trkpt lat="37.518627000" lon="-4.219536000">
        <ele>551.5</ele>
        <time>2020-10-13T15:56:19Z</time>
      </trkpt>
      <trkpt lat="37.518682000" lon="-4.219350000">
        <ele>550.5</ele>
        <time>2020-10-13T15:56:21Z</time>
      </trkpt>
      <trkpt lat="37.518718000" lon="-4.219163000">
        <ele>549.5</ele>
        <time>2020-10-13T15:56:23Z</time>
      </trkpt>
      <trkpt lat="37.518756000" lon="-4.218984000">
        <ele>548.7</ele>
        <time>2020-10-13T15:56:25Z</time>
      </trkpt>
      <trkpt lat="37.518794000" lon="-4.218809000">
        <ele>548.0</ele>
        <time>2020-10-13T15:56:27Z</time>
      </trkpt>
      <trkpt lat="37.518828000" lon="-4.218636000">
        <ele>547.4</ele>
        <time>2020-10-13T15:56:29Z</time>
      </trkpt>
      <trkpt lat="37.518865000" lon="-4.218467000">
        <ele>546.9</ele>
        <time>2020-10-13T15:56:31Z</time>
      </trkpt>
      <trkpt lat="37.518898000" lon="-4.218300000">
        <ele>546.5</ele>
        <time>2020-10-13T15:56:33Z</time>
      </trkpt>
      <trkpt lat="37.518923000" lon="-4.218137000">
        <ele>546.3</ele>
        <time>2020-10-13T15:56:35Z</time>
      </trkpt>
      <trkpt lat="37.518951000" lon="-4.217979000">
        <ele>546.2</ele>
        <time>2020-10-13T15:56:37Z</time>
      </trkpt>
      <trkpt lat="37.518964000" lon="-4.217823000">
        <ele>546.2</ele>
        <time>2020-10-13T15:56:39Z</time>
      </trkpt>
      <trkpt lat="37.518958000" lon="-4.217674000">
        <ele>546.3</ele>
        <time>2020-10-13T15:56:41Z</time>
      </trkpt>
      <trkpt lat="37.518944000" lon="-4.217531000">
        <ele>546.5</ele>
        <time>2020-10-13T15:56:43Z</time>
      </trkpt>
      <trkpt lat="37.518917000" lon="-4.217395000">
        <ele>546.6</ele>
        <time>2020-10-13T15:56:45Z</time>
      </trkpt>
      <trkpt lat="37.518886000" lon="-4.217261000">
        <ele>546.8</ele>
        <time>2020-10-13T15:56:47Z</time>
      </trkpt>
      <trkpt lat="37.518842000" lon="-4.217150000">
        <ele>546.9</ele>
        <time>2020-10-13T15:56:49Z</time>
      </trkpt>
      <trkpt lat="37.518794000" lon="-4.217058000">
        <ele>547.0</ele>
        <time>2020-10-13T15:56:51Z</time>
      </trkpt>
      <trkpt lat="37.518740000" lon="-4.216966000">
        <ele>547.0</ele>
        <time>2020-10-13T15:56:53Z</time>
      </trkpt>
      <trkpt lat="37.518689000" lon="-4.216867000">
        <ele>547.0</ele>
        <time>2020-10-13T15:56:55Z</time>
      </trkpt>
      <trkpt lat="37.518637000" lon="-4.216767000">
        <ele>547.1</ele>
        <time>2020-10-13T15:56:57Z</time>
      </trkpt>
      <trkpt lat="37.518592000" lon="-4.216667000">
        <ele>547.2</ele>
        <time>2020-10-13T15:56:59Z</time>
      </trkpt>
      <trkpt lat="37.518551000" lon="-4.216569000">
        <ele>547.3</ele>
        <time>2020-10-13T15:57:01Z</time>
      </trkpt>
      <trkpt lat="37.518515000" lon="-4.216476000">
        <ele>547.4</ele>
        <time>2020-10-13T15:57:03Z</time>
      </trkpt>
      <trkpt lat="37.518489000" lon="-4.216370000">
        <ele>547.5</ele>
        <time>2020-10-13T15:57:05Z</time>
      </trkpt>
      <trkpt lat="37.518466000" lon="-4.216268000">
        <ele>547.5</ele>
        <time>2020-10-13T15:57:07Z</time>
      </trkpt>
      <trkpt lat="37.518446000" lon="-4.216160000">
        <ele>547.5</ele>
        <time>2020-10-13T15:57:09Z</time>
      </trkpt>
      <trkpt lat="37.518436000" lon="-4.216049000">
        <ele>547.6</ele>
        <time>2020-10-13T15:57:11Z</time>
      </trkpt>
      <trkpt lat="37.518417000" lon="-4.215922000">
        <ele>547.7</ele>
        <time>2020-10-13T15:57:13Z</time>
      </trkpt>
      <trkpt lat="37.518402000" lon="-4.215796000">
        <ele>547.7</ele>
        <time>2020-10-13T15:57:15Z</time>
      </trkpt>
      <trkpt lat="37.518379000" lon="-4.215674000">
        <ele>547.7</ele>
        <time>2020-10-13T15:57:17Z</time>
      </trkpt>
      <trkpt lat="37.518360000" lon="-4.215542000">
        <ele>547.6</ele>
        <time>2020-10-13T15:57:19Z</time>
      </trkpt>
      <trkpt lat="37.518343000" lon="-4.215402000">
        <ele>547.5</ele>
        <time>2020-10-13T15:57:21Z</time>
      </trkpt>
      <trkpt lat="37.518319000" lon="-4.215268000">
        <ele>547.3</ele>
        <time>2020-10-13T15:57:23Z</time>
      </trkpt>
      <trkpt lat="37.518302000" lon="-4.215131000">
        <ele>547.0</ele>
        <time>2020-10-13T15:57:25Z</time>
      </trkpt>
      <trkpt lat="37.518291000" lon="-4.214996000">
        <ele>546.8</ele>
        <time>2020-10-13T15:57:27Z</time>
      </trkpt>
      <trkpt lat="37.518287000" lon="-4.214864000">
        <ele>546.7</ele>
        <time>2020-10-13T15:57:29Z</time>
      </trkpt>
      <trkpt lat="37.518289000" lon="-4.214716000">
        <ele>546.6</ele>
        <time>2020-10-13T15:57:31Z</time>
      </trkpt>
      <trkpt lat="37.518285000" lon="-4.214565000">
        <ele>546.4</ele>
        <time>2020-10-13T15:57:33Z</time>
      </trkpt>
      <trkpt lat="37.518282000" lon="-4.214400000">
        <ele>546.0</ele>
        <time>2020-10-13T15:57:35Z</time>
      </trkpt>
      <trkpt lat="37.518288000" lon="-4.214241000">
        <ele>545.6</ele>
        <time>2020-10-13T15:57:37Z</time>
      </trkpt>
      <trkpt lat="37.518287000" lon="-4.214086000">
        <ele>545.1</ele>
        <time>2020-10-13T15:57:39Z</time>
      </trkpt>
      <trkpt lat="37.518291000" lon="-4.213916000">
        <ele>544.5</ele>
        <time>2020-10-13T15:57:41Z</time>
      </trkpt>
      <trkpt lat="37.518290000" lon="-4.213734000">
        <ele>543.9</ele>
        <time>2020-10-13T15:57:43Z</time>
      </trkpt>
      <trkpt lat="37.518300000" lon="-4.213545000">
        <ele>543.4</ele>
        <time>2020-10-13T15:57:45Z</time>
      </trkpt>
      <trkpt lat="37.518298000" lon="-4.213362000">
        <ele>542.9</ele>
        <time>2020-10-13T15:57:47Z</time>
      </trkpt>
      <trkpt lat="37.518300000" lon="-4.213184000">
        <ele>542.4</ele>
        <time>2020-10-13T15:57:49Z</time>
      </trkpt>
      <trkpt lat="37.518303000" lon="-4.213009000">
        <ele>541.6</ele>
        <time>2020-10-13T15:57:51Z</time>
      </trkpt>
      <trkpt lat="37.518320000" lon="-4.212820000">
        <ele>540.6</ele>
        <time>2020-10-13T15:57:53Z</time>
      </trkpt>
      <trkpt lat="37.518372000" lon="-4.212640000">
        <ele>539.7</ele>
        <time>2020-10-13T15:57:55Z</time>
      </trkpt>
      <trkpt lat="37.518427000" lon="-4.212457000">
        <ele>538.9</ele>
        <time>2020-10-13T15:57:57Z</time>
      </trkpt>
      <trkpt lat="37.518470000" lon="-4.212280000">
        <ele>538.2</ele>
        <time>2020-10-13T15:57:59Z</time>
      </trkpt>
      <trkpt lat="37.518448000" lon="-4.212100000">
        <ele>537.6</ele>
        <time>2020-10-13T15:58:01Z</time>
      </trkpt>
      <trkpt lat="37.518367000" lon="-4.211947000">
        <ele>537.1</ele>
        <time>2020-10-13T15:58:03Z</time>
      </trkpt>
      <trkpt lat="37.518280000" lon="-4.211806000">
        <ele>536.5</ele>
        <time>2020-10-13T15:58:05Z</time>
      </trkpt>
      <trkpt lat="37.518204000" lon="-4.211656000">
        <ele>535.7</ele>
        <time>2020-10-13T15:58:07Z</time>
      </trkpt>
      <trkpt lat="37.518136000" lon="-4.211495000">
        <ele>535.0</ele>
        <time>2020-10-13T15:58:09Z</time>
      </trkpt>
      <trkpt lat="37.518087000" lon="-4.211326000">
        <ele>534.2</ele>
        <time>2020-10-13T15:58:11Z</time>
      </trkpt>
      <trkpt lat="37.518056000" lon="-4.211157000">
        <ele>533.5</ele>
        <time>2020-10-13T15:58:13Z</time>
      </trkpt>
      <trkpt lat="37.518021000" lon="-4.210986000">
        <ele>532.8</ele>
        <time>2020-10-13T15:58:15Z</time>
      </trkpt>
      <trkpt lat="37.517992000" lon="-4.210810000">
        <ele>532.2</ele>
        <time>2020-10-13T15:58:17Z</time>
      </trkpt>
      <trkpt lat="37.517963000" lon="-4.210623000">
        <ele>531.5</ele>
        <time>2020-10-13T15:58:19Z</time>
      </trkpt>
      <trkpt lat="37.517932000" lon="-4.210440000">
        <ele>530.6</ele>
        <time>2020-10-13T15:58:21Z</time>
      </trkpt>
      <trkpt lat="37.517900000" lon="-4.210253000">
        <ele>529.7</ele>
        <time>2020-10-13T15:58:23Z</time>
      </trkpt>
      <trkpt lat="37.517866000" lon="-4.210072000">
        <ele>528.8</ele>
        <time>2020-10-13T15:58:25Z</time>
      </trkpt>
      <trkpt lat="37.517838000" lon="-4.209899000">
        <ele>527.9</ele>
        <time>2020-10-13T15:58:27Z</time>
      </trkpt>
      <trkpt lat="37.517840000" lon="-4.209728000">
        <ele>527.0</ele>
        <time>2020-10-13T15:58:29Z</time>
      </trkpt>
      <trkpt lat="37.517862000" lon="-4.209536000">
        <ele>526.0</ele>
        <time>2020-10-13T15:58:31Z</time>
      </trkpt>
      <trkpt lat="37.517882000" lon="-4.209345000">
        <ele>524.9</ele>
        <time>2020-10-13T15:58:33Z</time>
      </trkpt>
      <trkpt lat="37.517877000" lon="-4.209241000">
        <ele>523.9</ele>
        <time>2020-10-13T15:58:34Z</time>
      </trkpt>
      <trkpt lat="37.517864000" lon="-4.209138000">
        <ele>523.0</ele>
        <time>2020-10-13T15:58:35Z</time>
      </trkpt>
      <trkpt lat="37.517834000" lon="-4.208944000">
        <ele>522.1</ele>
        <time>2020-10-13T15:58:37Z</time>
      </trkpt>
      <trkpt lat="37.517802000" lon="-4.208742000">
        <ele>521.3</ele>
        <time>2020-10-13T15:58:39Z</time>
      </trkpt>
      <trkpt lat="37.517789000" lon="-4.208638000">
        <ele>520.5</ele>
        <time>2020-10-13T15:58:40Z</time>
      </trkpt>
      <trkpt lat="37.517766000" lon="-4.208456000">
        <ele>519.8</ele>
        <time>2020-10-13T15:58:42Z</time>
      </trkpt>
      <trkpt lat="37.517724000" lon="-4.208279000">
        <ele>519.3</ele>
        <time>2020-10-13T15:58:44Z</time>
      </trkpt>
      <trkpt lat="37.517687000" lon="-4.208102000">
        <ele>518.8</ele>
        <time>2020-10-13T15:58:46Z</time>
      </trkpt>
      <trkpt lat="37.517654000" lon="-4.207944000">
        <ele>518.5</ele>
        <time>2020-10-13T15:58:48Z</time>
      </trkpt>
      <trkpt lat="37.517630000" lon="-4.207798000">
        <ele>518.2</ele>
        <time>2020-10-13T15:58:50Z</time>
      </trkpt>
      <trkpt lat="37.517609000" lon="-4.207654000">
        <ele>517.9</ele>
        <time>2020-10-13T15:58:52Z</time>
      </trkpt>
      <trkpt lat="37.517603000" lon="-4.207529000">
        <ele>517.5</ele>
        <time>2020-10-13T15:58:54Z</time>
      </trkpt>
      <trkpt lat="37.517606000" lon="-4.207414000">
        <ele>517.0</ele>
        <time>2020-10-13T15:58:56Z</time>
      </trkpt>
      <trkpt lat="37.517627000" lon="-4.207301000">
        <ele>516.3</ele>
        <time>2020-10-13T15:58:58Z</time>
      </trkpt>
      <trkpt lat="37.517638000" lon="-4.207148000">
        <ele>515.3</ele>
        <time>2020-10-13T15:59:00Z</time>
      </trkpt>
      <trkpt lat="37.517638000" lon="-4.206996000">
        <ele>514.2</ele>
        <time>2020-10-13T15:59:02Z</time>
      </trkpt>
      <trkpt lat="37.517655000" lon="-4.206858000">
        <ele>512.7</ele>
        <time>2020-10-13T15:59:04Z</time>
      </trkpt>
      <trkpt lat="37.517709000" lon="-4.206708000">
        <ele>511.1</ele>
        <time>2020-10-13T15:59:06Z</time>
      </trkpt>
      <trkpt lat="37.517789000" lon="-4.206562000">
        <ele>509.4</ele>
        <time>2020-10-13T15:59:08Z</time>
      </trkpt>
      <trkpt lat="37.517856000" lon="-4.206398000">
        <ele>507.5</ele>
        <time>2020-10-13T15:59:10Z</time>
      </trkpt>
      <trkpt lat="37.517896000" lon="-4.206215000">
        <ele>505.6</ele>
        <time>2020-10-13T15:59:12Z</time>
      </trkpt>
      <trkpt lat="37.517960000" lon="-4.206058000">
        <ele>503.9</ele>
        <time>2020-10-13T15:59:14Z</time>
      </trkpt>
      <trkpt lat="37.518064000" lon="-4.205919000">
        <ele>502.2</ele>
        <time>2020-10-13T15:59:16Z</time>
      </trkpt>
      <trkpt lat="37.518116000" lon="-4.205841000">
        <ele>500.6</ele>
        <time>2020-10-13T15:59:17Z</time>
      </trkpt>
      <trkpt lat="37.518166000" lon="-4.205755000">
        <ele>499.3</ele>
        <time>2020-10-13T15:59:18Z</time>
      </trkpt>
      <trkpt lat="37.518206000" lon="-4.205656000">
        <ele>498.2</ele>
        <time>2020-10-13T15:59:19Z</time>
      </trkpt>
      <trkpt lat="37.518237000" lon="-4.205546000">
        <ele>497.3</ele>
        <time>2020-10-13T15:59:20Z</time>
      </trkpt>
      <trkpt lat="37.518261000" lon="-4.205429000">
        <ele>496.5</ele>
        <time>2020-10-13T15:59:21Z</time>
      </trkpt>
      <trkpt lat="37.518282000" lon="-4.205310000">
        <ele>495.9</ele>
        <time>2020-10-13T15:59:22Z</time>
      </trkpt>
      <trkpt lat="37.518300000" lon="-4.205183000">
        <ele>495.4</ele>
        <time>2020-10-13T15:59:23Z</time>
      </trkpt>
      <trkpt lat="37.518318000" lon="-4.205056000">
        <ele>494.8</ele>
        <time>2020-10-13T15:59:24Z</time>
      </trkpt>
      <trkpt lat="37.518335000" lon="-4.204931000">
        <ele>494.5</ele>
        <time>2020-10-13T15:59:25Z</time>
      </trkpt>
      <trkpt lat="37.518347000" lon="-4.204798000">
        <ele>494.2</ele>
        <time>2020-10-13T15:59:27Z</time>
      </trkpt>
      <trkpt lat="37.518348000" lon="-4.204665000">
        <ele>493.9</ele>
        <time>2020-10-13T15:59:27Z</time>
      </trkpt>
      <trkpt lat="37.518342000" lon="-4.204542000">
        <ele>493.6</ele>
        <time>2020-10-13T15:59:28Z</time>
      </trkpt>
      <trkpt lat="37.518325000" lon="-4.204422000">
        <ele>493.4</ele>
        <time>2020-10-13T15:59:29Z</time>
      </trkpt>
      <trkpt lat="37.518301000" lon="-4.204302000">
        <ele>493.0</ele>
        <time>2020-10-13T15:59:30Z</time>
      </trkpt>
      <trkpt lat="37.518258000" lon="-4.204180000">
        <ele>492.6</ele>
        <time>2020-10-13T15:59:31Z</time>
      </trkpt>
      <trkpt lat="37.518209000" lon="-4.204064000">
        <ele>492.4</ele>
        <time>2020-10-13T15:59:32Z</time>
      </trkpt>
      <trkpt lat="37.518148000" lon="-4.203955000">
        <ele>492.2</ele>
        <time>2020-10-13T15:59:33Z</time>
      </trkpt>
      <trkpt lat="37.518101000" lon="-4.203846000">
        <ele>492.0</ele>
        <time>2020-10-13T15:59:34Z</time>
      </trkpt>
      <trkpt lat="37.518062000" lon="-4.203739000">
        <ele>491.9</ele>
        <time>2020-10-13T15:59:35Z</time>
      </trkpt>
      <trkpt lat="37.518034000" lon="-4.203628000">
        <ele>491.7</ele>
        <time>2020-10-13T15:59:36Z</time>
      </trkpt>
      <trkpt lat="37.518025000" lon="-4.203518000">
        <ele>491.5</ele>
        <time>2020-10-13T15:59:37Z</time>
      </trkpt>
      <trkpt lat="37.518018000" lon="-4.203408000">
        <ele>491.3</ele>
        <time>2020-10-13T15:59:38Z</time>
      </trkpt>
      <trkpt lat="37.518021000" lon="-4.203299000">
        <ele>491.0</ele>
        <time>2020-10-13T15:59:39Z</time>
      </trkpt>
      <trkpt lat="37.518022000" lon="-4.203188000">
        <ele>490.7</ele>
        <time>2020-10-13T15:59:40Z</time>
      </trkpt>
      <trkpt lat="37.518025000" lon="-4.203079000">
        <ele>490.5</ele>
        <time>2020-10-13T15:59:41Z</time>
      </trkpt>
      <trkpt lat="37.518024000" lon="-4.202968000">
        <ele>490.1</ele>
        <time>2020-10-13T15:59:42Z</time>
      </trkpt>
      <trkpt lat="37.518018000" lon="-4.202862000">
        <ele>489.7</ele>
        <time>2020-10-13T15:59:43Z</time>
      </trkpt>
      <trkpt lat="37.518004000" lon="-4.202756000">
        <ele>489.4</ele>
        <time>2020-10-13T15:59:44Z</time>
      </trkpt>
      <trkpt lat="37.517980000" lon="-4.202652000">
        <ele>489.0</ele>
        <time>2020-10-13T15:59:45Z</time>
      </trkpt>
      <trkpt lat="37.517951000" lon="-4.202557000">
        <ele>488.5</ele>
        <time>2020-10-13T15:59:46Z</time>
      </trkpt>
      <trkpt lat="37.517919000" lon="-4.202460000">
        <ele>488.1</ele>
        <time>2020-10-13T15:59:47Z</time>
      </trkpt>
      <trkpt lat="37.517884000" lon="-4.202364000">
        <ele>487.6</ele>
        <time>2020-10-13T15:59:48Z</time>
      </trkpt>
      <trkpt lat="37.517847000" lon="-4.202265000">
        <ele>487.2</ele>
        <time>2020-10-13T15:59:49Z</time>
      </trkpt>
      <trkpt lat="37.517815000" lon="-4.202168000">
        <ele>486.7</ele>
        <time>2020-10-13T15:59:50Z</time>
      </trkpt>
      <trkpt lat="37.517781000" lon="-4.202066000">
        <ele>486.5</ele>
        <time>2020-10-13T15:59:51Z</time>
      </trkpt>
      <trkpt lat="37.517747000" lon="-4.201969000">
        <ele>486.3</ele>
        <time>2020-10-13T15:59:52Z</time>
      </trkpt>
      <trkpt lat="37.517709000" lon="-4.201863000">
        <ele>486.2</ele>
        <time>2020-10-13T15:59:53Z</time>
      </trkpt>
      <trkpt lat="37.517672000" lon="-4.201758000">
        <ele>486.1</ele>
        <time>2020-10-13T15:59:54Z</time>
      </trkpt>
      <trkpt lat="37.517637000" lon="-4.201648000">
        <ele>486.0</ele>
        <time>2020-10-13T15:59:55Z</time>
      </trkpt>
      <trkpt lat="37.517602000" lon="-4.201538000">
        <ele>485.8</ele>
        <time>2020-10-13T15:59:56Z</time>
      </trkpt>
      <trkpt lat="37.517566000" lon="-4.201427000">
        <ele>485.6</ele>
        <time>2020-10-13T15:59:57Z</time>
      </trkpt>
      <trkpt lat="37.517530000" lon="-4.201318000">
        <ele>485.4</ele>
        <time>2020-10-13T15:59:58Z</time>
      </trkpt>
      <trkpt lat="37.517494000" lon="-4.201217000">
        <ele>485.1</ele>
        <time>2020-10-13T15:59:59Z</time>
      </trkpt>
      <trkpt lat="37.517461000" lon="-4.201112000">
        <ele>484.7</ele>
        <time>2020-10-13T16:00:00Z</time>
      </trkpt>
      <trkpt lat="37.517425000" lon="-4.201010000">
        <ele>484.5</ele>
        <time>2020-10-13T16:00:01Z</time>
      </trkpt>
      <trkpt lat="37.517389000" lon="-4.200906000">
        <ele>484.1</ele>
        <time>2020-10-13T16:00:02Z</time>
      </trkpt>
      <trkpt lat="37.517346000" lon="-4.200803000">
        <ele>483.7</ele>
        <time>2020-10-13T16:00:03Z</time>
      </trkpt>
      <trkpt lat="37.517297000" lon="-4.200706000">
        <ele>483.3</ele>
        <time>2020-10-13T16:00:04Z</time>
      </trkpt>
      <trkpt lat="37.517244000" lon="-4.200618000">
        <ele>482.8</ele>
        <time>2020-10-13T16:00:05Z</time>
      </trkpt>
      <trkpt lat="37.517184000" lon="-4.200534000">
        <ele>482.4</ele>
        <time>2020-10-13T16:00:06Z</time>
      </trkpt>
      <trkpt lat="37.517121000" lon="-4.200455000">
        <ele>482.0</ele>
        <time>2020-10-13T16:00:07Z</time>
      </trkpt>
      <trkpt lat="37.517053000" lon="-4.200387000">
        <ele>481.7</ele>
        <time>2020-10-13T16:00:08Z</time>
      </trkpt>
      <trkpt lat="37.516979000" lon="-4.200332000">
        <ele>481.5</ele>
        <time>2020-10-13T16:00:09Z</time>
      </trkpt>
      <trkpt lat="37.516825000" lon="-4.200263000">
        <ele>481.1</ele>
        <time>2020-10-13T16:00:11Z</time>
      </trkpt>
      <trkpt lat="37.516747000" lon="-4.200232000">
        <ele>480.7</ele>
        <time>2020-10-13T16:00:12Z</time>
      </trkpt>
      <trkpt lat="37.516612000" lon="-4.200183000">
        <ele>480.3</ele>
        <time>2020-10-13T16:00:14Z</time>
      </trkpt>
      <trkpt lat="37.516537000" lon="-4.200142000">
        <ele>479.6</ele>
        <time>2020-10-13T16:00:16Z</time>
      </trkpt>
      <trkpt lat="37.516445000" lon="-4.200058000">
        <ele>478.8</ele>
        <time>2020-10-13T16:00:19Z</time>
      </trkpt>
      <trkpt lat="37.516365000" lon="-4.199957000">
        <ele>478.0</ele>
        <time>2020-10-13T16:00:21Z</time>
      </trkpt>
      <trkpt lat="37.516264000" lon="-4.199873000">
        <ele>477.2</ele>
        <time>2020-10-13T16:00:23Z</time>
      </trkpt>
      <trkpt lat="37.516149000" lon="-4.199790000">
        <ele>476.4</ele>
        <time>2020-10-13T16:00:25Z</time>
      </trkpt>
      <trkpt lat="37.516036000" lon="-4.199716000">
        <ele>475.5</ele>
        <time>2020-10-13T16:00:27Z</time>
      </trkpt>
      <trkpt lat="37.515908000" lon="-4.199641000">
        <ele>474.7</ele>
        <time>2020-10-13T16:00:29Z</time>
      </trkpt>
      <trkpt lat="37.515774000" lon="-4.199582000">
        <ele>473.9</ele>
        <time>2020-10-13T16:00:31Z</time>
      </trkpt>
      <trkpt lat="37.515634000" lon="-4.199540000">
        <ele>473.2</ele>
        <time>2020-10-13T16:00:33Z</time>
      </trkpt>
      <trkpt lat="37.515499000" lon="-4.199506000">
        <ele>472.5</ele>
        <time>2020-10-13T16:00:35Z</time>
      </trkpt>
      <trkpt lat="37.515365000" lon="-4.199481000">
        <ele>471.7</ele>
        <time>2020-10-13T16:00:37Z</time>
      </trkpt>
      <trkpt lat="37.515235000" lon="-4.199458000">
        <ele>471.1</ele>
        <time>2020-10-13T16:00:39Z</time>
      </trkpt>
      <trkpt lat="37.515096000" lon="-4.199472000">
        <ele>470.6</ele>
        <time>2020-10-13T16:00:41Z</time>
      </trkpt>
      <trkpt lat="37.514949000" lon="-4.199501000">
        <ele>470.3</ele>
        <time>2020-10-13T16:00:43Z</time>
      </trkpt>
      <trkpt lat="37.514807000" lon="-4.199539000">
        <ele>470.0</ele>
        <time>2020-10-13T16:00:45Z</time>
      </trkpt>
      <trkpt lat="37.514673000" lon="-4.199529000">
        <ele>469.7</ele>
        <time>2020-10-13T16:00:47Z</time>
      </trkpt>
      <trkpt lat="37.514553000" lon="-4.199469000">
        <ele>469.5</ele>
        <time>2020-10-13T16:00:49Z</time>
      </trkpt>
      <trkpt lat="37.514431000" lon="-4.199417000">
        <ele>469.3</ele>
        <time>2020-10-13T16:00:51Z</time>
      </trkpt>
      <trkpt lat="37.514302000" lon="-4.199372000">
        <ele>469.0</ele>
        <time>2020-10-13T16:00:53Z</time>
      </trkpt>
      <trkpt lat="37.514176000" lon="-4.199344000">
        <ele>468.7</ele>
        <time>2020-10-13T16:00:55Z</time>
      </trkpt>
      <trkpt lat="37.514052000" lon="-4.199324000">
        <ele>468.5</ele>
        <time>2020-10-13T16:00:57Z</time>
      </trkpt>
      <trkpt lat="37.513926000" lon="-4.199292000">
        <ele>468.4</ele>
        <time>2020-10-13T16:00:59Z</time>
      </trkpt>
      <trkpt lat="37.513812000" lon="-4.199269000">
        <ele>468.5</ele>
        <time>2020-10-13T16:01:01Z</time>
      </trkpt>
      <trkpt lat="37.513701000" lon="-4.199236000">
        <ele>468.6</ele>
        <time>2020-10-13T16:01:03Z</time>
      </trkpt>
      <trkpt lat="37.513597000" lon="-4.199200000">
        <ele>468.9</ele>
        <time>2020-10-13T16:01:05Z</time>
      </trkpt>
      <trkpt lat="37.513492000" lon="-4.199152000">
        <ele>469.1</ele>
        <time>2020-10-13T16:01:07Z</time>
      </trkpt>
      <trkpt lat="37.513391000" lon="-4.199070000">
        <ele>469.3</ele>
        <time>2020-10-13T16:01:09Z</time>
      </trkpt>
      <trkpt lat="37.513307000" lon="-4.198970000">
        <ele>469.3</ele>
        <time>2020-10-13T16:01:11Z</time>
      </trkpt>
      <trkpt lat="37.513238000" lon="-4.198860000">
        <ele>469.4</ele>
        <time>2020-10-13T16:01:13Z</time>
      </trkpt>
      <trkpt lat="37.513188000" lon="-4.198743000">
        <ele>469.5</ele>
        <time>2020-10-13T16:01:15Z</time>
      </trkpt>
      <trkpt lat="37.513153000" lon="-4.198637000">
        <ele>469.7</ele>
        <time>2020-10-13T16:01:17Z</time>
      </trkpt>
      <trkpt lat="37.513110000" lon="-4.198523000">
        <ele>470.0</ele>
        <time>2020-10-13T16:01:19Z</time>
      </trkpt>
      <trkpt lat="37.513056000" lon="-4.198438000">
        <ele>470.1</ele>
        <time>2020-10-13T16:01:21Z</time>
      </trkpt>
      <trkpt lat="37.512985000" lon="-4.198355000">
        <ele>470.0</ele>
        <time>2020-10-13T16:01:23Z</time>
      </trkpt>
      <trkpt lat="37.512898000" lon="-4.198284000">
        <ele>469.8</ele>
        <time>2020-10-13T16:01:25Z</time>
      </trkpt>
      <trkpt lat="37.512800000" lon="-4.198226000">
        <ele>469.5</ele>
        <time>2020-10-13T16:01:27Z</time>
      </trkpt>
      <trkpt lat="37.512700000" lon="-4.198179000">
        <ele>469.1</ele>
        <time>2020-10-13T16:01:29Z</time>
      </trkpt>
      <trkpt lat="37.512603000" lon="-4.198136000">
        <ele>468.6</ele>
        <time>2020-10-13T16:01:32Z</time>
      </trkpt>
      <trkpt lat="37.512511000" lon="-4.198094000">
        <ele>468.2</ele>
        <time>2020-10-13T16:01:33Z</time>
      </trkpt>
      <trkpt lat="37.512425000" lon="-4.198063000">
        <ele>467.7</ele>
        <time>2020-10-13T16:01:35Z</time>
      </trkpt>
      <trkpt lat="37.512340000" lon="-4.198025000">
        <ele>467.2</ele>
        <time>2020-10-13T16:01:37Z</time>
      </trkpt>
      <trkpt lat="37.512250000" lon="-4.197992000">
        <ele>466.7</ele>
        <time>2020-10-13T16:01:39Z</time>
      </trkpt>
      <trkpt lat="37.512170000" lon="-4.197944000">
        <ele>466.3</ele>
        <time>2020-10-13T16:01:41Z</time>
      </trkpt>
      <trkpt lat="37.512088000" lon="-4.197888000">
        <ele>466.0</ele>
        <time>2020-10-13T16:01:43Z</time>
      </trkpt>
      <trkpt lat="37.512013000" lon="-4.197826000">
        <ele>465.8</ele>
        <time>2020-10-13T16:01:45Z</time>
      </trkpt>
      <trkpt lat="37.511937000" lon="-4.197753000">
        <ele>465.6</ele>
        <time>2020-10-13T16:01:47Z</time>
      </trkpt>
      <trkpt lat="37.511863000" lon="-4.197674000">
        <ele>465.5</ele>
        <time>2020-10-13T16:01:49Z</time>
      </trkpt>
      <trkpt lat="37.511788000" lon="-4.197607000">
        <ele>465.2</ele>
        <time>2020-10-13T16:01:51Z</time>
      </trkpt>
      <trkpt lat="37.511713000" lon="-4.197529000">
        <ele>465.0</ele>
        <time>2020-10-13T16:01:53Z</time>
      </trkpt>
      <trkpt lat="37.511647000" lon="-4.197456000">
        <ele>464.8</ele>
        <time>2020-10-13T16:01:55Z</time>
      </trkpt>
      <trkpt lat="37.511576000" lon="-4.197368000">
        <ele>464.6</ele>
        <time>2020-10-13T16:01:57Z</time>
      </trkpt>
      <trkpt lat="37.511504000" lon="-4.197289000">
        <ele>464.5</ele>
        <time>2020-10-13T16:01:59Z</time>
      </trkpt>
      <trkpt lat="37.511425000" lon="-4.197201000">
        <ele>464.5</ele>
        <time>2020-10-13T16:02:01Z</time>
      </trkpt>
      <trkpt lat="37.511349000" lon="-4.197112000">
        <ele>464.5</ele>
        <time>2020-10-13T16:02:03Z</time>
      </trkpt>
      <trkpt lat="37.511277000" lon="-4.197020000">
        <ele>464.5</ele>
        <time>2020-10-13T16:02:05Z</time>
      </trkpt>
      <trkpt lat="37.511207000" lon="-4.196932000">
        <ele>464.5</ele>
        <time>2020-10-13T16:02:07Z</time>
      </trkpt>
      <trkpt lat="37.511129000" lon="-4.196851000">
        <ele>464.4</ele>
        <time>2020-10-13T16:02:09Z</time>
      </trkpt>
      <trkpt lat="37.511052000" lon="-4.196758000">
        <ele>464.4</ele>
        <time>2020-10-13T16:02:11Z</time>
      </trkpt>
      <trkpt lat="37.510974000" lon="-4.196687000">
        <ele>464.4</ele>
        <time>2020-10-13T16:02:13Z</time>
      </trkpt>
      <trkpt lat="37.510886000" lon="-4.196616000">
        <ele>464.3</ele>
        <time>2020-10-13T16:02:15Z</time>
      </trkpt>
      <trkpt lat="37.510785000" lon="-4.196561000">
        <ele>464.3</ele>
        <time>2020-10-13T16:02:17Z</time>
      </trkpt>
      <trkpt lat="37.510677000" lon="-4.196523000">
        <ele>464.2</ele>
        <time>2020-10-13T16:02:19Z</time>
      </trkpt>
      <trkpt lat="37.510568000" lon="-4.196483000">
        <ele>464.0</ele>
        <time>2020-10-13T16:02:21Z</time>
      </trkpt>
      <trkpt lat="37.510460000" lon="-4.196415000">
        <ele>463.6</ele>
        <time>2020-10-13T16:02:23Z</time>
      </trkpt>
      <trkpt lat="37.510355000" lon="-4.196339000">
        <ele>463.2</ele>
        <time>2020-10-13T16:02:25Z</time>
      </trkpt>
      <trkpt lat="37.510248000" lon="-4.196267000">
        <ele>462.6</ele>
        <time>2020-10-13T16:02:27Z</time>
      </trkpt>
      <trkpt lat="37.510146000" lon="-4.196206000">
        <ele>462.0</ele>
        <time>2020-10-13T16:02:29Z</time>
      </trkpt>
      <trkpt lat="37.510036000" lon="-4.196136000">
        <ele>461.5</ele>
        <time>2020-10-13T16:02:31Z</time>
      </trkpt>
      <trkpt lat="37.509913000" lon="-4.196081000">
        <ele>461.0</ele>
        <time>2020-10-13T16:02:33Z</time>
      </trkpt>
      <trkpt lat="37.509786000" lon="-4.196058000">
        <ele>460.6</ele>
        <time>2020-10-13T16:02:35Z</time>
      </trkpt>
      <trkpt lat="37.509685000" lon="-4.196066000">
        <ele>460.4</ele>
        <time>2020-10-13T16:02:37Z</time>
      </trkpt>
      <trkpt lat="37.509578000" lon="-4.196090000">
        <ele>460.0</ele>
        <time>2020-10-13T16:02:40Z</time>
      </trkpt>
      <trkpt lat="37.509481000" lon="-4.196127000">
        <ele>459.7</ele>
        <time>2020-10-13T16:02:43Z</time>
      </trkpt>
      <trkpt lat="37.509412000" lon="-4.196181000">
        <ele>459.5</ele>
        <time>2020-10-13T16:02:46Z</time>
      </trkpt>
      <trkpt lat="37.509313000" lon="-4.196284000">
        <ele>459.3</ele>
        <time>2020-10-13T16:02:49Z</time>
      </trkpt>
      <trkpt lat="37.509226000" lon="-4.196374000">
        <ele>459.0</ele>
        <time>2020-10-13T16:02:51Z</time>
      </trkpt>
      <trkpt lat="37.509125000" lon="-4.196479000">
        <ele>458.6</ele>
        <time>2020-10-13T16:02:53Z</time>
      </trkpt>
      <trkpt lat="37.509008000" lon="-4.196597000">
        <ele>458.3</ele>
        <time>2020-10-13T16:02:55Z</time>
      </trkpt>
      <trkpt lat="37.508887000" lon="-4.196730000">
        <ele>458.0</ele>
        <time>2020-10-13T16:02:57Z</time>
      </trkpt>
      <trkpt lat="37.508825000" lon="-4.196803000">
        <ele>457.6</ele>
        <time>2020-10-13T16:02:58Z</time>
      </trkpt>
      <trkpt lat="37.508760000" lon="-4.196873000">
        <ele>457.2</ele>
        <time>2020-10-13T16:02:59Z</time>
      </trkpt>
      <trkpt lat="37.508694000" lon="-4.196947000">
        <ele>456.7</ele>
        <time>2020-10-13T16:03:00Z</time>
      </trkpt>
      <trkpt lat="37.508624000" lon="-4.197019000">
        <ele>456.5</ele>
        <time>2020-10-13T16:03:01Z</time>
      </trkpt>
      <trkpt lat="37.508552000" lon="-4.197094000">
        <ele>456.2</ele>
        <time>2020-10-13T16:03:03Z</time>
      </trkpt>
      <trkpt lat="37.508480000" lon="-4.197164000">
        <ele>455.9</ele>
        <time>2020-10-13T16:03:03Z</time>
      </trkpt>
      <trkpt lat="37.508406000" lon="-4.197229000">
        <ele>455.5</ele>
        <time>2020-10-13T16:03:04Z</time>
      </trkpt>
      <trkpt lat="37.508270000" lon="-4.197344000">
        <ele>455.2</ele>
        <time>2020-10-13T16:03:06Z</time>
      </trkpt>
      <trkpt lat="37.508135000" lon="-4.197438000">
        <ele>454.9</ele>
        <time>2020-10-13T16:03:08Z</time>
      </trkpt>
      <trkpt lat="37.508005000" lon="-4.197518000">
        <ele>454.7</ele>
        <time>2020-10-13T16:03:10Z</time>
      </trkpt>
      <trkpt lat="37.507871000" lon="-4.197571000">
        <ele>454.5</ele>
        <time>2020-10-13T16:03:12Z</time>
      </trkpt>
      <trkpt lat="37.507741000" lon="-4.197614000">
        <ele>454.2</ele>
        <time>2020-10-13T16:03:14Z</time>
      </trkpt>
      <trkpt lat="37.507612000" lon="-4.197657000">
        <ele>454.1</ele>
        <time>2020-10-13T16:03:16Z</time>
      </trkpt>
      <trkpt lat="37.507484000" lon="-4.197697000">
        <ele>454.1</ele>
        <time>2020-10-13T16:03:18Z</time>
      </trkpt>
      <trkpt lat="37.507362000" lon="-4.197729000">
        <ele>454.0</ele>
        <time>2020-10-13T16:03:20Z</time>
      </trkpt>
      <trkpt lat="37.507242000" lon="-4.197756000">
        <ele>454.0</ele>
        <time>2020-10-13T16:03:22Z</time>
      </trkpt>
      <trkpt lat="37.507131000" lon="-4.197784000">
        <ele>454.2</ele>
        <time>2020-10-13T16:03:24Z</time>
      </trkpt>
      <trkpt lat="37.507026000" lon="-4.197823000">
        <ele>454.5</ele>
        <time>2020-10-13T16:03:26Z</time>
      </trkpt>
      <trkpt lat="37.506928000" lon="-4.197854000">
        <ele>455.1</ele>
        <time>2020-10-13T16:03:28Z</time>
      </trkpt>
      <trkpt lat="37.506833000" lon="-4.197862000">
        <ele>455.7</ele>
        <time>2020-10-13T16:03:30Z</time>
      </trkpt>
      <trkpt lat="37.506751000" lon="-4.197874000">
        <ele>456.5</ele>
        <time>2020-10-13T16:03:32Z</time>
      </trkpt>
      <trkpt lat="37.506629000" lon="-4.197886000">
        <ele>457.2</ele>
        <time>2020-10-13T16:03:35Z</time>
      </trkpt>
      <trkpt lat="37.506511000" lon="-4.197892000">
        <ele>457.8</ele>
        <time>2020-10-13T16:03:38Z</time>
      </trkpt>
      <trkpt lat="37.506403000" lon="-4.197897000">
        <ele>458.4</ele>
        <time>2020-10-13T16:03:41Z</time>
      </trkpt>
      <trkpt lat="37.506303000" lon="-4.197896000">
        <ele>458.7</ele>
        <time>2020-10-13T16:03:44Z</time>
      </trkpt>
      <trkpt lat="37.506212000" lon="-4.197867000">
        <ele>459.2</ele>
        <time>2020-10-13T16:03:47Z</time>
      </trkpt>
      <trkpt lat="37.506129000" lon="-4.197832000">
        <ele>459.5</ele>
        <time>2020-10-13T16:03:50Z</time>
      </trkpt>
      <trkpt lat="37.506048000" lon="-4.197791000">
        <ele>459.9</ele>
        <time>2020-10-13T16:03:53Z</time>
      </trkpt>
      <trkpt lat="37.505968000" lon="-4.197764000">
        <ele>460.2</ele>
        <time>2020-10-13T16:03:56Z</time>
      </trkpt>
      <trkpt lat="37.505879000" lon="-4.197723000">
        <ele>460.4</ele>
        <time>2020-10-13T16:04:00Z</time>
      </trkpt>
      <trkpt lat="37.505796000" lon="-4.197700000">
        <ele>460.4</ele>
        <time>2020-10-13T16:04:05Z</time>
      </trkpt>
      <trkpt lat="37.505717000" lon="-4.197675000">
        <ele>460.3</ele>
        <time>2020-10-13T16:04:11Z</time>
      </trkpt>
      <trkpt lat="37.505627000" lon="-4.197654000">
        <ele>460.1</ele>
        <time>2020-10-13T16:04:18Z</time>
      </trkpt>
      <trkpt lat="37.505563000" lon="-4.197584000">
        <ele>459.9</ele>
        <time>2020-10-13T16:04:24Z</time>
      </trkpt>
      <trkpt lat="37.505484000" lon="-4.197542000">
        <ele>459.5</ele>
        <time>2020-10-13T16:04:29Z</time>
      </trkpt>
      <trkpt lat="37.505402000" lon="-4.197518000">
        <ele>459.1</ele>
        <time>2020-10-13T16:04:32Z</time>
      </trkpt>
      <trkpt lat="37.505308000" lon="-4.197478000">
        <ele>458.5</ele>
        <time>2020-10-13T16:04:35Z</time>
      </trkpt>
      <trkpt lat="37.505197000" lon="-4.197475000">
        <ele>457.7</ele>
        <time>2020-10-13T16:04:38Z</time>
      </trkpt>
      <trkpt lat="37.505122000" lon="-4.197513000">
        <ele>456.9</ele>
        <time>2020-10-13T16:04:40Z</time>
      </trkpt>
      <trkpt lat="37.505051000" lon="-4.197634000">
        <ele>456.1</ele>
        <time>2020-10-13T16:04:42Z</time>
      </trkpt>
      <trkpt lat="37.505007000" lon="-4.197794000">
        <ele>455.2</ele>
        <time>2020-10-13T16:04:44Z</time>
      </trkpt>
      <trkpt lat="37.504939000" lon="-4.197972000">
        <ele>454.4</ele>
        <time>2020-10-13T16:04:46Z</time>
      </trkpt>
      <trkpt lat="37.504892000" lon="-4.198057000">
        <ele>453.5</ele>
        <time>2020-10-13T16:04:47Z</time>
      </trkpt>
      <trkpt lat="37.504839000" lon="-4.198139000">
        <ele>452.7</ele>
        <time>2020-10-13T16:04:48Z</time>
      </trkpt>
      <trkpt lat="37.504774000" lon="-4.198216000">
        <ele>452.0</ele>
        <time>2020-10-13T16:04:49Z</time>
      </trkpt>
      <trkpt lat="37.504696000" lon="-4.198286000">
        <ele>451.5</ele>
        <time>2020-10-13T16:04:50Z</time>
      </trkpt>
      <trkpt lat="37.504612000" lon="-4.198349000">
        <ele>451.1</ele>
        <time>2020-10-13T16:04:51Z</time>
      </trkpt>
      <trkpt lat="37.504524000" lon="-4.198398000">
        <ele>450.9</ele>
        <time>2020-10-13T16:04:52Z</time>
      </trkpt>
      <trkpt lat="37.504429000" lon="-4.198441000">
        <ele>450.8</ele>
        <time>2020-10-13T16:04:53Z</time>
      </trkpt>
      <trkpt lat="37.504336000" lon="-4.198478000">
        <ele>450.7</ele>
        <time>2020-10-13T16:04:54Z</time>
      </trkpt>
      <trkpt lat="37.504248000" lon="-4.198516000">
        <ele>450.5</ele>
        <time>2020-10-13T16:04:55Z</time>
      </trkpt>
      <trkpt lat="37.504165000" lon="-4.198543000">
        <ele>450.5</ele>
        <time>2020-10-13T16:04:56Z</time>
      </trkpt>
      <trkpt lat="37.504009000" lon="-4.198588000">
        <ele>450.4</ele>
        <time>2020-10-13T16:04:58Z</time>
      </trkpt>
      <trkpt lat="37.503868000" lon="-4.198626000">
        <ele>450.3</ele>
        <time>2020-10-13T16:05:00Z</time>
      </trkpt>
      <trkpt lat="37.503736000" lon="-4.198656000">
        <ele>450.3</ele>
        <time>2020-10-13T16:05:02Z</time>
      </trkpt>
      <trkpt lat="37.503620000" lon="-4.198684000">
        <ele>450.2</ele>
        <time>2020-10-13T16:05:04Z</time>
      </trkpt>
      <trkpt lat="37.503513000" lon="-4.198719000">
        <ele>450.1</ele>
        <time>2020-10-13T16:05:06Z</time>
      </trkpt>
      <trkpt lat="37.503409000" lon="-4.198743000">
        <ele>450.1</ele>
        <time>2020-10-13T16:05:08Z</time>
      </trkpt>
      <trkpt lat="37.503305000" lon="-4.198774000">
        <ele>450.0</ele>
        <time>2020-10-13T16:05:10Z</time>
      </trkpt>
      <trkpt lat="37.503204000" lon="-4.198806000">
        <ele>450.1</ele>
        <time>2020-10-13T16:05:12Z</time>
      </trkpt>
      <trkpt lat="37.503094000" lon="-4.198837000">
        <ele>450.4</ele>
        <time>2020-10-13T16:05:14Z</time>
      </trkpt>
      <trkpt lat="37.502991000" lon="-4.198869000">
        <ele>450.9</ele>
        <time>2020-10-13T16:05:16Z</time>
      </trkpt>
      <trkpt lat="37.502883000" lon="-4.198899000">
        <ele>451.5</ele>
        <time>2020-10-13T16:05:18Z</time>
      </trkpt>
      <trkpt lat="37.502777000" lon="-4.198935000">
        <ele>452.1</ele>
        <time>2020-10-13T16:05:20Z</time>
      </trkpt>
      <trkpt lat="37.502670000" lon="-4.198966000">
        <ele>452.6</ele>
        <time>2020-10-13T16:05:22Z</time>
      </trkpt>
      <trkpt lat="37.502561000" lon="-4.198990000">
        <ele>453.2</ele>
        <time>2020-10-13T16:05:24Z</time>
      </trkpt>
      <trkpt lat="37.502453000" lon="-4.199024000">
        <ele>453.8</ele>
        <time>2020-10-13T16:05:26Z</time>
      </trkpt>
      <trkpt lat="37.502348000" lon="-4.199057000">
        <ele>454.5</ele>
        <time>2020-10-13T16:05:28Z</time>
      </trkpt>
      <trkpt lat="37.502245000" lon="-4.199085000">
        <ele>454.9</ele>
        <time>2020-10-13T16:05:30Z</time>
      </trkpt>
      <trkpt lat="37.502142000" lon="-4.199120000">
        <ele>455.2</ele>
        <time>2020-10-13T16:05:32Z</time>
      </trkpt>
      <trkpt lat="37.502053000" lon="-4.199157000">
        <ele>455.3</ele>
        <time>2020-10-13T16:05:34Z</time>
      </trkpt>
      <trkpt lat="37.501977000" lon="-4.199201000">
        <ele>455.1</ele>
        <time>2020-10-13T16:05:36Z</time>
      </trkpt>
      <trkpt lat="37.501902000" lon="-4.199245000">
        <ele>454.7</ele>
        <time>2020-10-13T16:05:38Z</time>
      </trkpt>
      <trkpt lat="37.501792000" lon="-4.199298000">
        <ele>454.5</ele>
        <time>2020-10-13T16:05:41Z</time>
      </trkpt>
      <trkpt lat="37.501690000" lon="-4.199348000">
        <ele>454.2</ele>
        <time>2020-10-13T16:05:44Z</time>
      </trkpt>
      <trkpt lat="37.501591000" lon="-4.199395000">
        <ele>454.4</ele>
        <time>2020-10-13T16:05:47Z</time>
      </trkpt>
      <trkpt lat="37.501496000" lon="-4.199432000">
        <ele>454.6</ele>
        <time>2020-10-13T16:05:50Z</time>
      </trkpt>
      <trkpt lat="37.501411000" lon="-4.199472000">
        <ele>455.1</ele>
        <time>2020-10-13T16:05:53Z</time>
      </trkpt>
      <trkpt lat="37.501314000" lon="-4.199509000">
        <ele>455.6</ele>
        <time>2020-10-13T16:05:57Z</time>
      </trkpt>
      <trkpt lat="37.501238000" lon="-4.199549000">
        <ele>456.3</ele>
        <time>2020-10-13T16:06:02Z</time>
      </trkpt>
      <trkpt lat="37.501213000" lon="-4.199669000">
        <ele>457.1</ele>
        <time>2020-10-13T16:06:32Z</time>
      </trkpt>
      <trkpt lat="37.501138000" lon="-4.199746000">
        <ele>457.9</ele>
        <time>2020-10-13T16:06:36Z</time>
      </trkpt>
      <trkpt lat="37.501073000" lon="-4.199813000">
        <ele>458.7</ele>
        <time>2020-10-13T16:06:39Z</time>
      </trkpt>
      <trkpt lat="37.500987000" lon="-4.199872000">
        <ele>459.5</ele>
        <time>2020-10-13T16:06:42Z</time>
      </trkpt>
      <trkpt lat="37.500899000" lon="-4.199913000">
        <ele>460.2</ele>
        <time>2020-10-13T16:06:45Z</time>
      </trkpt>
      <trkpt lat="37.500822000" lon="-4.199952000">
        <ele>460.5</ele>
        <time>2020-10-13T16:06:48Z</time>
      </trkpt>
      <trkpt lat="37.500741000" lon="-4.200001000">
        <ele>460.5</ele>
        <time>2020-10-13T16:07:20Z</time>
      </trkpt>
      <trkpt lat="37.500639000" lon="-4.200046000">
        <ele>460.2</ele>
        <time>2020-10-13T16:07:24Z</time>
      </trkpt>
      <trkpt lat="37.500533000" lon="-4.200114000">
        <ele>459.6</ele>
        <time>2020-10-13T16:07:27Z</time>
      </trkpt>
      <trkpt lat="37.500454000" lon="-4.200205000">
        <ele>459.0</ele>
        <time>2020-10-13T16:07:29Z</time>
      </trkpt>
      <trkpt lat="37.500379000" lon="-4.200284000">
        <ele>458.4</ele>
        <time>2020-10-13T16:07:31Z</time>
      </trkpt>
      <trkpt lat="37.500288000" lon="-4.200383000">
        <ele>457.6</ele>
        <time>2020-10-13T16:07:33Z</time>
      </trkpt>
      <trkpt lat="37.500199000" lon="-4.200509000">
        <ele>456.9</ele>
        <time>2020-10-13T16:07:35Z</time>
      </trkpt>
      <trkpt lat="37.500104000" lon="-4.200666000">
        <ele>456.2</ele>
        <time>2020-10-13T16:07:37Z</time>
      </trkpt>
      <trkpt lat="37.500057000" lon="-4.200752000">
        <ele>455.4</ele>
        <time>2020-10-13T16:07:38Z</time>
      </trkpt>
      <trkpt lat="37.500008000" lon="-4.200839000">
        <ele>454.6</ele>
        <time>2020-10-13T16:07:39Z</time>
      </trkpt>
      <trkpt lat="37.499954000" lon="-4.200928000">
        <ele>454.1</ele>
        <time>2020-10-13T16:07:40Z</time>
      </trkpt>
      <trkpt lat="37.499894000" lon="-4.201018000">
        <ele>453.5</ele>
        <time>2020-10-13T16:07:41Z</time>
      </trkpt>
      <trkpt lat="37.499833000" lon="-4.201112000">
        <ele>453.2</ele>
        <time>2020-10-13T16:07:42Z</time>
      </trkpt>
      <trkpt lat="37.499765000" lon="-4.201203000">
        <ele>452.9</ele>
        <time>2020-10-13T16:07:43Z</time>
      </trkpt>
      <trkpt lat="37.499690000" lon="-4.201277000">
        <ele>452.6</ele>
        <time>2020-10-13T16:07:44Z</time>
      </trkpt>
      <trkpt lat="37.499614000" lon="-4.201346000">
        <ele>452.4</ele>
        <time>2020-10-13T16:07:45Z</time>
      </trkpt>
      <trkpt lat="37.499538000" lon="-4.201414000">
        <ele>452.3</ele>
        <time>2020-10-13T16:07:46Z</time>
      </trkpt>
      <trkpt lat="37.499465000" lon="-4.201479000">
        <ele>452.2</ele>
        <time>2020-10-13T16:07:47Z</time>
      </trkpt>
      <trkpt lat="37.499392000" lon="-4.201545000">
        <ele>452.2</ele>
        <time>2020-10-13T16:07:48Z</time>
      </trkpt>
      <trkpt lat="37.499322000" lon="-4.201606000">
        <ele>452.3</ele>
        <time>2020-10-13T16:07:49Z</time>
      </trkpt>
      <trkpt lat="37.499257000" lon="-4.201669000">
        <ele>452.4</ele>
        <time>2020-10-13T16:07:50Z</time>
      </trkpt>
      <trkpt lat="37.499135000" lon="-4.201807000">
        <ele>452.5</ele>
        <time>2020-10-13T16:07:52Z</time>
      </trkpt>
      <trkpt lat="37.499076000" lon="-4.201880000">
        <ele>452.5</ele>
        <time>2020-10-13T16:07:53Z</time>
      </trkpt>
      <trkpt lat="37.499016000" lon="-4.201954000">
        <ele>452.5</ele>
        <time>2020-10-13T16:07:54Z</time>
      </trkpt>
      <trkpt lat="37.498957000" lon="-4.202025000">
        <ele>452.6</ele>
        <time>2020-10-13T16:07:55Z</time>
      </trkpt>
      <trkpt lat="37.498897000" lon="-4.202095000">
        <ele>452.7</ele>
        <time>2020-10-13T16:07:56Z</time>
      </trkpt>
      <trkpt lat="37.498834000" lon="-4.202163000">
        <ele>452.8</ele>
        <time>2020-10-13T16:07:57Z</time>
      </trkpt>
      <trkpt lat="37.498711000" lon="-4.202292000">
        <ele>452.9</ele>
        <time>2020-10-13T16:07:59Z</time>
      </trkpt>
      <trkpt lat="37.498596000" lon="-4.202413000">
        <ele>453.0</ele>
        <time>2020-10-13T16:08:01Z</time>
      </trkpt>
      <trkpt lat="37.498481000" lon="-4.202531000">
        <ele>453.1</ele>
        <time>2020-10-13T16:08:03Z</time>
      </trkpt>
      <trkpt lat="37.498371000" lon="-4.202647000">
        <ele>453.3</ele>
        <time>2020-10-13T16:08:05Z</time>
      </trkpt>
      <trkpt lat="37.498281000" lon="-4.202780000">
        <ele>453.5</ele>
        <time>2020-10-13T16:08:07Z</time>
      </trkpt>
      <trkpt lat="37.498192000" lon="-4.202924000">
        <ele>453.5</ele>
        <time>2020-10-13T16:08:09Z</time>
      </trkpt>
      <trkpt lat="37.498110000" lon="-4.203068000">
        <ele>453.6</ele>
        <time>2020-10-13T16:08:11Z</time>
      </trkpt>
      <trkpt lat="37.498030000" lon="-4.203215000">
        <ele>453.7</ele>
        <time>2020-10-13T16:08:13Z</time>
      </trkpt>
      <trkpt lat="37.497956000" lon="-4.203367000">
        <ele>453.6</ele>
        <time>2020-10-13T16:08:16Z</time>
      </trkpt>
      <trkpt lat="37.497891000" lon="-4.203514000">
        <ele>453.4</ele>
        <time>2020-10-13T16:08:17Z</time>
      </trkpt>
      <trkpt lat="37.497824000" lon="-4.203658000">
        <ele>453.0</ele>
        <time>2020-10-13T16:08:19Z</time>
      </trkpt>
      <trkpt lat="37.497756000" lon="-4.203797000">
        <ele>452.5</ele>
        <time>2020-10-13T16:08:21Z</time>
      </trkpt>
      <trkpt lat="37.497690000" lon="-4.203938000">
        <ele>451.9</ele>
        <time>2020-10-13T16:08:23Z</time>
      </trkpt>
      <trkpt lat="37.497621000" lon="-4.204073000">
        <ele>451.4</ele>
        <time>2020-10-13T16:08:25Z</time>
      </trkpt>
      <trkpt lat="37.497560000" lon="-4.204201000">
        <ele>450.7</ele>
        <time>2020-10-13T16:08:27Z</time>
      </trkpt>
      <trkpt lat="37.497483000" lon="-4.204316000">
        <ele>450.1</ele>
        <time>2020-10-13T16:08:29Z</time>
      </trkpt>
      <trkpt lat="37.497403000" lon="-4.204417000">
        <ele>449.5</ele>
        <time>2020-10-13T16:08:31Z</time>
      </trkpt>
      <trkpt lat="37.497319000" lon="-4.204500000">
        <ele>448.9</ele>
        <time>2020-10-13T16:08:33Z</time>
      </trkpt>
      <trkpt lat="37.497246000" lon="-4.204570000">
        <ele>448.5</ele>
        <time>2020-10-13T16:08:35Z</time>
      </trkpt>
      <trkpt lat="37.497175000" lon="-4.204637000">
        <ele>448.1</ele>
        <time>2020-10-13T16:08:37Z</time>
      </trkpt>
      <trkpt lat="37.497075000" lon="-4.204706000">
        <ele>448.0</ele>
        <time>2020-10-13T16:08:40Z</time>
      </trkpt>
      <trkpt lat="37.496969000" lon="-4.204674000">
        <ele>448.2</ele>
        <time>2020-10-13T16:08:43Z</time>
      </trkpt>
      <trkpt lat="37.496901000" lon="-4.204613000">
        <ele>448.5</ele>
        <time>2020-10-13T16:08:45Z</time>
      </trkpt>
      <trkpt lat="37.496826000" lon="-4.204550000">
        <ele>449.0</ele>
        <time>2020-10-13T16:08:47Z</time>
      </trkpt>
      <trkpt lat="37.496750000" lon="-4.204494000">
        <ele>449.5</ele>
        <time>2020-10-13T16:08:49Z</time>
      </trkpt>
      <trkpt lat="37.496662000" lon="-4.204490000">
        <ele>450.0</ele>
        <time>2020-10-13T16:08:51Z</time>
      </trkpt>
      <trkpt lat="37.496581000" lon="-4.204528000">
        <ele>450.6</ele>
        <time>2020-10-13T16:08:53Z</time>
      </trkpt>
      <trkpt lat="37.496503000" lon="-4.204584000">
        <ele>451.5</ele>
        <time>2020-10-13T16:08:55Z</time>
      </trkpt>
      <trkpt lat="37.496429000" lon="-4.204648000">
        <ele>452.5</ele>
        <time>2020-10-13T16:08:57Z</time>
      </trkpt>
      <trkpt lat="37.496360000" lon="-4.204712000">
        <ele>453.5</ele>
        <time>2020-10-13T16:08:59Z</time>
      </trkpt>
      <trkpt lat="37.496292000" lon="-4.204773000">
        <ele>454.7</ele>
        <time>2020-10-13T16:09:01Z</time>
      </trkpt>
      <trkpt lat="37.496189000" lon="-4.204827000">
        <ele>455.9</ele>
        <time>2020-10-13T16:09:04Z</time>
      </trkpt>
      <trkpt lat="37.496097000" lon="-4.204852000">
        <ele>457.0</ele>
        <time>2020-10-13T16:09:07Z</time>
      </trkpt>
      <trkpt lat="37.496001000" lon="-4.204840000">
        <ele>458.2</ele>
        <time>2020-10-13T16:09:11Z</time>
      </trkpt>
      <trkpt lat="37.495909000" lon="-4.204816000">
        <ele>459.3</ele>
        <time>2020-10-13T16:09:17Z</time>
      </trkpt>
      <trkpt lat="37.495823000" lon="-4.204783000">
        <ele>460.5</ele>
        <time>2020-10-13T16:09:22Z</time>
      </trkpt>
      <trkpt lat="37.495730000" lon="-4.204769000">
        <ele>461.6</ele>
        <time>2020-10-13T16:09:27Z</time>
      </trkpt>
      <trkpt lat="37.495645000" lon="-4.204752000">
        <ele>462.7</ele>
        <time>2020-10-13T16:09:31Z</time>
      </trkpt>
      <trkpt lat="37.495558000" lon="-4.204728000">
        <ele>463.8</ele>
        <time>2020-10-13T16:09:35Z</time>
      </trkpt>
      <trkpt lat="37.495469000" lon="-4.204735000">
        <ele>464.8</ele>
        <time>2020-10-13T16:09:39Z</time>
      </trkpt>
      <trkpt lat="37.495386000" lon="-4.204737000">
        <ele>465.8</ele>
        <time>2020-10-13T16:09:44Z</time>
      </trkpt>
      <trkpt lat="37.495308000" lon="-4.204703000">
        <ele>466.7</ele>
        <time>2020-10-13T16:09:49Z</time>
      </trkpt>
      <trkpt lat="37.495218000" lon="-4.204739000">
        <ele>467.6</ele>
        <time>2020-10-13T16:09:55Z</time>
      </trkpt>
      <trkpt lat="37.495142000" lon="-4.204691000">
        <ele>468.5</ele>
        <time>2020-10-13T16:10:00Z</time>
      </trkpt>
      <trkpt lat="37.495057000" lon="-4.204709000">
        <ele>469.0</ele>
        <time>2020-10-13T16:10:05Z</time>
      </trkpt>
      <trkpt lat="37.494968000" lon="-4.204687000">
        <ele>469.5</ele>
        <time>2020-10-13T16:10:10Z</time>
      </trkpt>
      <trkpt lat="37.494883000" lon="-4.204650000">
        <ele>469.7</ele>
        <time>2020-10-13T16:10:15Z</time>
      </trkpt>
      <trkpt lat="37.494797000" lon="-4.204624000">
        <ele>470.0</ele>
        <time>2020-10-13T16:10:20Z</time>
      </trkpt>
      <trkpt lat="37.494698000" lon="-4.204607000">
        <ele>470.4</ele>
        <time>2020-10-13T16:10:25Z</time>
      </trkpt>
      <trkpt lat="37.494606000" lon="-4.204620000">
        <ele>470.5</ele>
        <time>2020-10-13T16:10:30Z</time>
      </trkpt>
      <trkpt lat="37.494519000" lon="-4.204642000">
        <ele>470.7</ele>
        <time>2020-10-13T16:10:35Z</time>
      </trkpt>
      <trkpt lat="37.494429000" lon="-4.204636000">
        <ele>470.8</ele>
        <time>2020-10-13T16:10:40Z</time>
      </trkpt>
      <trkpt lat="37.494335000" lon="-4.204644000">
        <ele>470.9</ele>
        <time>2020-10-13T16:10:45Z</time>
      </trkpt>
      <trkpt lat="37.494256000" lon="-4.204606000">
        <ele>471.0</ele>
        <time>2020-10-13T16:10:50Z</time>
      </trkpt>
      <trkpt lat="37.494165000" lon="-4.204611000">
        <ele>471.3</ele>
        <time>2020-10-13T16:10:55Z</time>
      </trkpt>
      <trkpt lat="37.494074000" lon="-4.204604000">
        <ele>471.6</ele>
        <time>2020-10-13T16:11:00Z</time>
      </trkpt>
      <trkpt lat="37.493992000" lon="-4.204591000">
        <ele>472.2</ele>
        <time>2020-10-13T16:11:04Z</time>
      </trkpt>
      <trkpt lat="37.493910000" lon="-4.204565000">
        <ele>472.8</ele>
        <time>2020-10-13T16:11:08Z</time>
      </trkpt>
      <trkpt lat="37.493825000" lon="-4.204529000">
        <ele>473.4</ele>
        <time>2020-10-13T16:11:13Z</time>
      </trkpt>
      <trkpt lat="37.493757000" lon="-4.204468000">
        <ele>473.7</ele>
        <time>2020-10-13T16:13:06Z</time>
      </trkpt>
      <trkpt lat="37.493663000" lon="-4.204505000">
        <ele>474.2</ele>
        <time>2020-10-13T16:13:12Z</time>
      </trkpt>
      <trkpt lat="37.493571000" lon="-4.204523000">
        <ele>474.7</ele>
        <time>2020-10-13T16:13:16Z</time>
      </trkpt>
      <trkpt lat="37.493486000" lon="-4.204555000">
        <ele>475.5</ele>
        <time>2020-10-13T16:13:20Z</time>
      </trkpt>
      <trkpt lat="37.493394000" lon="-4.204603000">
        <ele>476.3</ele>
        <time>2020-10-13T16:13:25Z</time>
      </trkpt>
      <trkpt lat="37.493298000" lon="-4.204624000">
        <ele>477.2</ele>
        <time>2020-10-13T16:13:30Z</time>
      </trkpt>
      <trkpt lat="37.493205000" lon="-4.204606000">
        <ele>478.0</ele>
        <time>2020-10-13T16:13:35Z</time>
      </trkpt>
      <trkpt lat="37.493126000" lon="-4.204546000">
        <ele>478.9</ele>
        <time>2020-10-13T16:13:40Z</time>
      </trkpt>
      <trkpt lat="37.493056000" lon="-4.204485000">
        <ele>479.9</ele>
        <time>2020-10-13T16:13:44Z</time>
      </trkpt>
      <trkpt lat="37.492994000" lon="-4.204418000">
        <ele>480.9</ele>
        <time>2020-10-13T16:13:48Z</time>
      </trkpt>
      <trkpt lat="37.492920000" lon="-4.204357000">
        <ele>481.8</ele>
        <time>2020-10-13T16:13:52Z</time>
      </trkpt>
      <trkpt lat="37.492838000" lon="-4.204309000">
        <ele>482.7</ele>
        <time>2020-10-13T16:13:56Z</time>
      </trkpt>
      <trkpt lat="37.492750000" lon="-4.204290000">
        <ele>483.5</ele>
        <time>2020-10-13T16:14:00Z</time>
      </trkpt>
      <trkpt lat="37.492666000" lon="-4.204272000">
        <ele>484.2</ele>
        <time>2020-10-13T16:14:04Z</time>
      </trkpt>
      <trkpt lat="37.492588000" lon="-4.204315000">
        <ele>484.6</ele>
        <time>2020-10-13T16:14:08Z</time>
      </trkpt>
      <trkpt lat="37.492528000" lon="-4.204403000">
        <ele>484.9</ele>
        <time>2020-10-13T16:14:12Z</time>
      </trkpt>
      <trkpt lat="37.492481000" lon="-4.204507000">
        <ele>485.0</ele>
        <time>2020-10-13T16:14:16Z</time>
      </trkpt>
      <trkpt lat="37.492429000" lon="-4.204600000">
        <ele>484.9</ele>
        <time>2020-10-13T16:14:20Z</time>
      </trkpt>
      <trkpt lat="37.492386000" lon="-4.204696000">
        <ele>484.7</ele>
        <time>2020-10-13T16:14:24Z</time>
      </trkpt>
      <trkpt lat="37.492332000" lon="-4.204780000">
        <ele>484.5</ele>
        <time>2020-10-13T16:14:28Z</time>
      </trkpt>
      <trkpt lat="37.492273000" lon="-4.204851000">
        <ele>484.1</ele>
        <time>2020-10-13T16:14:32Z</time>
      </trkpt>
      <trkpt lat="37.492197000" lon="-4.204936000">
        <ele>483.9</ele>
        <time>2020-10-13T16:14:37Z</time>
      </trkpt>
      <trkpt lat="37.492131000" lon="-4.205001000">
        <ele>483.8</ele>
        <time>2020-10-13T16:14:41Z</time>
      </trkpt>
      <trkpt lat="37.492049000" lon="-4.205053000">
        <ele>483.9</ele>
        <time>2020-10-13T16:14:45Z</time>
      </trkpt>
      <trkpt lat="37.491972000" lon="-4.205093000">
        <ele>484.3</ele>
        <time>2020-10-13T16:14:49Z</time>
      </trkpt>
      <trkpt lat="37.491876000" lon="-4.205101000">
        <ele>484.8</ele>
        <time>2020-10-13T16:14:54Z</time>
      </trkpt>
      <trkpt lat="37.491781000" lon="-4.205063000">
        <ele>485.5</ele>
        <time>2020-10-13T16:14:59Z</time>
      </trkpt>
      <trkpt lat="37.491716000" lon="-4.204995000">
        <ele>486.5</ele>
        <time>2020-10-13T16:15:03Z</time>
      </trkpt>
      <trkpt lat="37.491664000" lon="-4.204911000">
        <ele>487.5</ele>
        <time>2020-10-13T16:15:07Z</time>
      </trkpt>
      <trkpt lat="37.491632000" lon="-4.204797000">
        <ele>488.5</ele>
        <time>2020-10-13T16:15:12Z</time>
      </trkpt>
      <trkpt lat="37.491629000" lon="-4.204674000">
        <ele>489.4</ele>
        <time>2020-10-13T16:15:17Z</time>
      </trkpt>
      <trkpt lat="37.491650000" lon="-4.204552000">
        <ele>490.3</ele>
        <time>2020-10-13T16:15:22Z</time>
      </trkpt>
      <trkpt lat="37.491662000" lon="-4.204435000">
        <ele>491.1</ele>
        <time>2020-10-13T16:15:26Z</time>
      </trkpt>
      <trkpt lat="37.491620000" lon="-4.204323000">
        <ele>492.1</ele>
        <time>2020-10-13T16:15:30Z</time>
      </trkpt>
      <trkpt lat="37.491524000" lon="-4.204272000">
        <ele>493.0</ele>
        <time>2020-10-13T16:15:34Z</time>
      </trkpt>
      <trkpt lat="37.491419000" lon="-4.204250000">
        <ele>493.8</ele>
        <time>2020-10-13T16:15:38Z</time>
      </trkpt>
      <trkpt lat="37.491331000" lon="-4.204181000">
        <ele>494.5</ele>
        <time>2020-10-13T16:15:42Z</time>
      </trkpt>
      <trkpt lat="37.491275000" lon="-4.204081000">
        <ele>495.1</ele>
        <time>2020-10-13T16:15:46Z</time>
      </trkpt>
      <trkpt lat="37.491235000" lon="-4.203981000">
        <ele>495.5</ele>
        <time>2020-10-13T16:15:50Z</time>
      </trkpt>
      <trkpt lat="37.491189000" lon="-4.203880000">
        <ele>496.0</ele>
        <time>2020-10-13T16:15:54Z</time>
      </trkpt>
      <trkpt lat="37.491131000" lon="-4.203782000">
        <ele>496.6</ele>
        <time>2020-10-13T16:15:58Z</time>
      </trkpt>
      <trkpt lat="37.491065000" lon="-4.203697000">
        <ele>497.5</ele>
        <time>2020-10-13T16:16:02Z</time>
      </trkpt>
      <trkpt lat="37.491007000" lon="-4.203610000">
        <ele>498.5</ele>
        <time>2020-10-13T16:16:06Z</time>
      </trkpt>
      <trkpt lat="37.490961000" lon="-4.203514000">
        <ele>499.6</ele>
        <time>2020-10-13T16:16:10Z</time>
      </trkpt>
      <trkpt lat="37.490918000" lon="-4.203419000">
        <ele>500.7</ele>
        <time>2020-10-13T16:16:14Z</time>
      </trkpt>
      <trkpt lat="37.490893000" lon="-4.203322000">
        <ele>501.7</ele>
        <time>2020-10-13T16:16:18Z</time>
      </trkpt>
      <trkpt lat="37.490877000" lon="-4.203218000">
        <ele>502.6</ele>
        <time>2020-10-13T16:16:22Z</time>
      </trkpt>
      <trkpt lat="37.490856000" lon="-4.203113000">
        <ele>503.3</ele>
        <time>2020-10-13T16:16:26Z</time>
      </trkpt>
      <trkpt lat="37.490841000" lon="-4.203009000">
        <ele>503.8</ele>
        <time>2020-10-13T16:16:30Z</time>
      </trkpt>
      <trkpt lat="37.490822000" lon="-4.202907000">
        <ele>504.2</ele>
        <time>2020-10-13T16:16:34Z</time>
      </trkpt>
      <trkpt lat="37.490781000" lon="-4.202814000">
        <ele>504.4</ele>
        <time>2020-10-13T16:16:38Z</time>
      </trkpt>
      <trkpt lat="37.490715000" lon="-4.202738000">
        <ele>504.4</ele>
        <time>2020-10-13T16:16:42Z</time>
      </trkpt>
      <trkpt lat="37.490627000" lon="-4.202710000">
        <ele>504.3</ele>
        <time>2020-10-13T16:16:46Z</time>
      </trkpt>
      <trkpt lat="37.490538000" lon="-4.202719000">
        <ele>504.0</ele>
        <time>2020-10-13T16:16:50Z</time>
      </trkpt>
      <trkpt lat="37.490439000" lon="-4.202746000">
        <ele>503.6</ele>
        <time>2020-10-13T16:16:54Z</time>
      </trkpt>
      <trkpt lat="37.490351000" lon="-4.202774000">
        <ele>503.3</ele>
        <time>2020-10-13T16:16:57Z</time>
      </trkpt>
      <trkpt lat="37.490257000" lon="-4.202786000">
        <ele>503.0</ele>
        <time>2020-10-13T16:17:02Z</time>
      </trkpt>
      <trkpt lat="37.490154000" lon="-4.202767000">
        <ele>502.8</ele>
        <time>2020-10-13T16:17:05Z</time>
      </trkpt>
      <trkpt lat="37.490058000" lon="-4.202731000">
        <ele>502.9</ele>
        <time>2020-10-13T16:17:09Z</time>
      </trkpt>
      <trkpt lat="37.489971000" lon="-4.202666000">
        <ele>503.2</ele>
        <time>2020-10-13T16:17:13Z</time>
      </trkpt>
      <trkpt lat="37.489896000" lon="-4.202590000">
        <ele>503.6</ele>
        <time>2020-10-13T16:17:18Z</time>
      </trkpt>
      <trkpt lat="37.489829000" lon="-4.202498000">
        <ele>504.4</ele>
        <time>2020-10-13T16:17:21Z</time>
      </trkpt>
      <trkpt lat="37.489771000" lon="-4.202402000">
        <ele>505.3</ele>
        <time>2020-10-13T16:17:25Z</time>
      </trkpt>
      <trkpt lat="37.489711000" lon="-4.202312000">
        <ele>506.3</ele>
        <time>2020-10-13T16:17:29Z</time>
      </trkpt>
      <trkpt lat="37.489646000" lon="-4.202241000">
        <ele>507.4</ele>
        <time>2020-10-13T16:17:33Z</time>
      </trkpt>
      <trkpt lat="37.489574000" lon="-4.202158000">
        <ele>508.5</ele>
        <time>2020-10-13T16:17:37Z</time>
      </trkpt>
      <trkpt lat="37.489492000" lon="-4.202076000">
        <ele>509.5</ele>
        <time>2020-10-13T16:17:41Z</time>
      </trkpt>
      <trkpt lat="37.489413000" lon="-4.201998000">
        <ele>510.5</ele>
        <time>2020-10-13T16:17:45Z</time>
      </trkpt>
      <trkpt lat="37.489334000" lon="-4.201938000">
        <ele>511.5</ele>
        <time>2020-10-13T16:17:49Z</time>
      </trkpt>
      <trkpt lat="37.489261000" lon="-4.201874000">
        <ele>512.5</ele>
        <time>2020-10-13T16:17:53Z</time>
      </trkpt>
      <trkpt lat="37.489188000" lon="-4.201808000">
        <ele>513.3</ele>
        <time>2020-10-13T16:17:57Z</time>
      </trkpt>
      <trkpt lat="37.489107000" lon="-4.201752000">
        <ele>514.1</ele>
        <time>2020-10-13T16:18:01Z</time>
      </trkpt>
      <trkpt lat="37.489021000" lon="-4.201711000">
        <ele>514.7</ele>
        <time>2020-10-13T16:18:05Z</time>
      </trkpt>
      <trkpt lat="37.488930000" lon="-4.201691000">
        <ele>515.3</ele>
        <time>2020-10-13T16:18:09Z</time>
      </trkpt>
      <trkpt lat="37.488847000" lon="-4.201680000">
        <ele>515.8</ele>
        <time>2020-10-13T16:18:12Z</time>
      </trkpt>
      <trkpt lat="37.488764000" lon="-4.201663000">
        <ele>516.3</ele>
        <time>2020-10-13T16:18:16Z</time>
      </trkpt>
      <trkpt lat="37.488670000" lon="-4.201645000">
        <ele>516.7</ele>
        <time>2020-10-13T16:18:20Z</time>
      </trkpt>
      <trkpt lat="37.488569000" lon="-4.201622000">
        <ele>517.2</ele>
        <time>2020-10-13T16:18:24Z</time>
      </trkpt>
      <trkpt lat="37.488488000" lon="-4.201611000">
        <ele>517.6</ele>
        <time>2020-10-13T16:18:27Z</time>
      </trkpt>
      <trkpt lat="37.488383000" lon="-4.201614000">
        <ele>518.0</ele>
        <time>2020-10-13T16:18:31Z</time>
      </trkpt>
      <trkpt lat="37.488277000" lon="-4.201636000">
        <ele>518.4</ele>
        <time>2020-10-13T16:18:35Z</time>
      </trkpt>
      <trkpt lat="37.488177000" lon="-4.201676000">
        <ele>518.7</ele>
        <time>2020-10-13T16:18:39Z</time>
      </trkpt>
      <trkpt lat="37.488074000" lon="-4.201717000">
        <ele>519.0</ele>
        <time>2020-10-13T16:18:43Z</time>
      </trkpt>
      <trkpt lat="37.487995000" lon="-4.201749000">
        <ele>519.4</ele>
        <time>2020-10-13T16:18:46Z</time>
      </trkpt>
      <trkpt lat="37.487910000" lon="-4.201777000">
        <ele>519.7</ele>
        <time>2020-10-13T16:18:49Z</time>
      </trkpt>
      <trkpt lat="37.487825000" lon="-4.201796000">
        <ele>520.0</ele>
        <time>2020-10-13T16:18:52Z</time>
      </trkpt>
      <trkpt lat="37.487734000" lon="-4.201793000">
        <ele>520.3</ele>
        <time>2020-10-13T16:18:55Z</time>
      </trkpt>
      <trkpt lat="37.487642000" lon="-4.201785000">
        <ele>520.5</ele>
        <time>2020-10-13T16:18:58Z</time>
      </trkpt>
      <trkpt lat="37.487551000" lon="-4.201776000">
        <ele>520.5</ele>
        <time>2020-10-13T16:19:01Z</time>
      </trkpt>
      <trkpt lat="37.487462000" lon="-4.201774000">
        <ele>520.5</ele>
        <time>2020-10-13T16:19:04Z</time>
      </trkpt>
      <trkpt lat="37.487381000" lon="-4.201781000">
        <ele>520.5</ele>
        <time>2020-10-13T16:19:07Z</time>
      </trkpt>
      <trkpt lat="37.487280000" lon="-4.201791000">
        <ele>520.5</ele>
        <time>2020-10-13T16:19:11Z</time>
      </trkpt>
      <trkpt lat="37.487189000" lon="-4.201800000">
        <ele>520.5</ele>
        <time>2020-10-13T16:19:15Z</time>
      </trkpt>
      <trkpt lat="37.487098000" lon="-4.201829000">
        <ele>520.5</ele>
        <time>2020-10-13T16:19:20Z</time>
      </trkpt>
      <trkpt lat="37.486998000" lon="-4.201848000">
        <ele>520.5</ele>
        <time>2020-10-13T16:19:25Z</time>
      </trkpt>
      <trkpt lat="37.486909000" lon="-4.201879000">
        <ele>520.3</ele>
        <time>2020-10-13T16:19:28Z</time>
      </trkpt>
      <trkpt lat="37.486829000" lon="-4.201918000">
        <ele>520.1</ele>
        <time>2020-10-13T16:19:31Z</time>
      </trkpt>
      <trkpt lat="37.486755000" lon="-4.201966000">
        <ele>519.9</ele>
        <time>2020-10-13T16:19:34Z</time>
      </trkpt>
      <trkpt lat="37.486669000" lon="-4.202037000">
        <ele>519.7</ele>
        <time>2020-10-13T16:19:38Z</time>
      </trkpt>
      <trkpt lat="37.486586000" lon="-4.202060000">
        <ele>519.5</ele>
        <time>2020-10-13T16:37:01Z</time>
      </trkpt>
      <trkpt lat="37.486515000" lon="-4.202129000">
        <ele>519.3</ele>
        <time>2020-10-13T16:37:05Z</time>
      </trkpt>
      <trkpt lat="37.486440000" lon="-4.202201000">
        <ele>519.1</ele>
        <time>2020-10-13T16:37:11Z</time>
      </trkpt>
      <trkpt lat="37.486357000" lon="-4.202291000">
        <ele>518.9</ele>
        <time>2020-10-13T16:37:12Z</time>
      </trkpt>
      <trkpt lat="37.486266000" lon="-4.202394000">
        <ele>518.6</ele>
        <time>2020-10-13T16:37:14Z</time>
      </trkpt>
      <trkpt lat="37.486195000" lon="-4.202487000">
        <ele>518.4</ele>
        <time>2020-10-13T16:37:16Z</time>
      </trkpt>
      <trkpt lat="37.486144000" lon="-4.202602000">
        <ele>518.1</ele>
        <time>2020-10-13T16:37:19Z</time>
      </trkpt>
      <trkpt lat="37.486076000" lon="-4.202708000">
        <ele>517.9</ele>
        <time>2020-10-13T16:37:20Z</time>
      </trkpt>
      <trkpt lat="37.486004000" lon="-4.202818000">
        <ele>517.7</ele>
        <time>2020-10-13T16:37:22Z</time>
      </trkpt>
      <trkpt lat="37.485915000" lon="-4.202913000">
        <ele>517.5</ele>
        <time>2020-10-13T16:37:24Z</time>
      </trkpt>
      <trkpt lat="37.485808000" lon="-4.202990000">
        <ele>517.4</ele>
        <time>2020-10-13T16:37:27Z</time>
      </trkpt>
      <trkpt lat="37.485699000" lon="-4.203032000">
        <ele>517.3</ele>
        <time>2020-10-13T16:37:29Z</time>
      </trkpt>
      <trkpt lat="37.485588000" lon="-4.203036000">
        <ele>517.2</ele>
        <time>2020-10-13T16:37:30Z</time>
      </trkpt>
      <trkpt lat="37.485474000" lon="-4.203021000">
        <ele>517.2</ele>
        <time>2020-10-13T16:37:32Z</time>
      </trkpt>
      <trkpt lat="37.485364000" lon="-4.202993000">
        <ele>517.2</ele>
        <time>2020-10-13T16:37:34Z</time>
      </trkpt>
      <trkpt lat="37.485262000" lon="-4.202973000">
        <ele>517.5</ele>
        <time>2020-10-13T16:37:36Z</time>
      </trkpt>
      <trkpt lat="37.485170000" lon="-4.202979000">
        <ele>517.8</ele>
        <time>2020-10-13T16:37:38Z</time>
      </trkpt>
      <trkpt lat="37.485067000" lon="-4.203044000">
        <ele>518.3</ele>
        <time>2020-10-13T16:37:41Z</time>
      </trkpt>
      <trkpt lat="37.484987000" lon="-4.203143000">
        <ele>518.8</ele>
        <time>2020-10-13T16:37:44Z</time>
      </trkpt>
      <trkpt lat="37.484931000" lon="-4.203263000">
        <ele>519.4</ele>
        <time>2020-10-13T16:37:47Z</time>
      </trkpt>
      <trkpt lat="37.484900000" lon="-4.203399000">
        <ele>519.9</ele>
        <time>2020-10-13T16:37:50Z</time>
      </trkpt>
      <trkpt lat="37.484870000" lon="-4.203531000">
        <ele>520.5</ele>
        <time>2020-10-13T16:37:53Z</time>
      </trkpt>
      <trkpt lat="37.484820000" lon="-4.203653000">
        <ele>521.2</ele>
        <time>2020-10-13T16:37:56Z</time>
      </trkpt>
      <trkpt lat="37.484742000" lon="-4.203757000">
        <ele>521.8</ele>
        <time>2020-10-13T16:37:59Z</time>
      </trkpt>
      <trkpt lat="37.484641000" lon="-4.203828000">
        <ele>522.4</ele>
        <time>2020-10-13T16:38:02Z</time>
      </trkpt>
      <trkpt lat="37.484544000" lon="-4.203905000">
        <ele>522.9</ele>
        <time>2020-10-13T16:38:05Z</time>
      </trkpt>
      <trkpt lat="37.484463000" lon="-4.204015000">
        <ele>523.3</ele>
        <time>2020-10-13T16:38:08Z</time>
      </trkpt>
      <trkpt lat="37.484392000" lon="-4.204131000">
        <ele>523.6</ele>
        <time>2020-10-13T16:38:11Z</time>
      </trkpt>
      <trkpt lat="37.484326000" lon="-4.204249000">
        <ele>523.9</ele>
        <time>2020-10-13T16:38:14Z</time>
      </trkpt>
      <trkpt lat="37.484248000" lon="-4.204363000">
        <ele>524.1</ele>
        <time>2020-10-13T16:38:17Z</time>
      </trkpt>
      <trkpt lat="37.484193000" lon="-4.204439000">
        <ele>524.3</ele>
        <time>2020-10-13T16:38:19Z</time>
      </trkpt>
      <trkpt lat="37.484141000" lon="-4.204519000">
        <ele>524.5</ele>
        <time>2020-10-13T16:38:21Z</time>
      </trkpt>
      <trkpt lat="37.484086000" lon="-4.204597000">
        <ele>524.5</ele>
        <time>2020-10-13T16:38:23Z</time>
      </trkpt>
      <trkpt lat="37.484025000" lon="-4.204668000">
        <ele>524.6</ele>
        <time>2020-10-13T16:38:25Z</time>
      </trkpt>
      <trkpt lat="37.483959000" lon="-4.204734000">
        <ele>524.6</ele>
        <time>2020-10-13T16:38:27Z</time>
      </trkpt>
      <trkpt lat="37.483892000" lon="-4.204795000">
        <ele>524.6</ele>
        <time>2020-10-13T16:38:29Z</time>
      </trkpt>
      <trkpt lat="37.483803000" lon="-4.204899000">
        <ele>524.7</ele>
        <time>2020-10-13T16:38:32Z</time>
      </trkpt>
      <trkpt lat="37.483742000" lon="-4.204971000">
        <ele>524.8</ele>
        <time>2020-10-13T16:38:34Z</time>
      </trkpt>
      <trkpt lat="37.483691000" lon="-4.205051000">
        <ele>524.9</ele>
        <time>2020-10-13T16:38:36Z</time>
      </trkpt>
      <trkpt lat="37.483627000" lon="-4.205175000">
        <ele>525.0</ele>
        <time>2020-10-13T16:38:39Z</time>
      </trkpt>
      <trkpt lat="37.483564000" lon="-4.205304000">
        <ele>525.1</ele>
        <time>2020-10-13T16:38:42Z</time>
      </trkpt>
      <trkpt lat="37.483523000" lon="-4.205392000">
        <ele>525.1</ele>
        <time>2020-10-13T16:38:44Z</time>
      </trkpt>
      <trkpt lat="37.483465000" lon="-4.205526000">
        <ele>525.0</ele>
        <time>2020-10-13T16:38:47Z</time>
      </trkpt>
      <trkpt lat="37.483423000" lon="-4.205615000">
        <ele>524.8</ele>
        <time>2020-10-13T16:38:49Z</time>
      </trkpt>
      <trkpt lat="37.483363000" lon="-4.205745000">
        <ele>524.6</ele>
        <time>2020-10-13T16:38:52Z</time>
      </trkpt>
      <trkpt lat="37.483285000" lon="-4.205855000">
        <ele>524.6</ele>
        <time>2020-10-13T16:38:55Z</time>
      </trkpt>
      <trkpt lat="37.483194000" lon="-4.205954000">
        <ele>524.7</ele>
        <time>2020-10-13T16:38:58Z</time>
      </trkpt>
      <trkpt lat="37.483129000" lon="-4.206019000">
        <ele>524.8</ele>
        <time>2020-10-13T16:39:00Z</time>
      </trkpt>
      <trkpt lat="37.483066000" lon="-4.206089000">
        <ele>524.9</ele>
        <time>2020-10-13T16:39:02Z</time>
      </trkpt>
      <trkpt lat="37.483008000" lon="-4.206172000">
        <ele>525.0</ele>
        <time>2020-10-13T16:39:04Z</time>
      </trkpt>
      <trkpt lat="37.482956000" lon="-4.206274000">
        <ele>525.0</ele>
        <time>2020-10-13T16:39:06Z</time>
      </trkpt>
      <trkpt lat="37.482917000" lon="-4.206377000">
        <ele>525.0</ele>
        <time>2020-10-13T16:39:08Z</time>
      </trkpt>
      <trkpt lat="37.482883000" lon="-4.206482000">
        <ele>525.1</ele>
        <time>2020-10-13T16:39:10Z</time>
      </trkpt>
      <trkpt lat="37.482841000" lon="-4.206590000">
        <ele>525.2</ele>
        <time>2020-10-13T16:39:12Z</time>
      </trkpt>
      <trkpt lat="37.482797000" lon="-4.206704000">
        <ele>525.4</ele>
        <time>2020-10-13T16:39:14Z</time>
      </trkpt>
      <trkpt lat="37.482752000" lon="-4.206809000">
        <ele>525.6</ele>
        <time>2020-10-13T16:39:16Z</time>
      </trkpt>
      <trkpt lat="37.482704000" lon="-4.206915000">
        <ele>525.8</ele>
        <time>2020-10-13T16:39:18Z</time>
      </trkpt>
      <trkpt lat="37.482673000" lon="-4.207038000">
        <ele>526.0</ele>
        <time>2020-10-13T16:39:20Z</time>
      </trkpt>
      <trkpt lat="37.482653000" lon="-4.207160000">
        <ele>526.2</ele>
        <time>2020-10-13T16:39:22Z</time>
      </trkpt>
      <trkpt lat="37.482659000" lon="-4.207290000">
        <ele>526.4</ele>
        <time>2020-10-13T16:39:25Z</time>
      </trkpt>
      <trkpt lat="37.482688000" lon="-4.207411000">
        <ele>526.5</ele>
        <time>2020-10-13T16:39:26Z</time>
      </trkpt>
      <trkpt lat="37.482729000" lon="-4.207535000">
        <ele>526.6</ele>
        <time>2020-10-13T16:39:28Z</time>
      </trkpt>
      <trkpt lat="37.482771000" lon="-4.207654000">
        <ele>526.7</ele>
        <time>2020-10-13T16:39:30Z</time>
      </trkpt>
      <trkpt lat="37.482780000" lon="-4.207775000">
        <ele>526.8</ele>
        <time>2020-10-13T16:39:32Z</time>
      </trkpt>
      <trkpt lat="37.482769000" lon="-4.207899000">
        <ele>527.0</ele>
        <time>2020-10-13T16:39:34Z</time>
      </trkpt>
      <trkpt lat="37.482716000" lon="-4.207997000">
        <ele>527.2</ele>
        <time>2020-10-13T16:39:36Z</time>
      </trkpt>
      <trkpt lat="37.482638000" lon="-4.208068000">
        <ele>527.3</ele>
        <time>2020-10-13T16:39:38Z</time>
      </trkpt>
      <trkpt lat="37.482553000" lon="-4.208137000">
        <ele>527.4</ele>
        <time>2020-10-13T16:39:40Z</time>
      </trkpt>
      <trkpt lat="37.482467000" lon="-4.208199000">
        <ele>527.5</ele>
        <time>2020-10-13T16:39:42Z</time>
      </trkpt>
      <trkpt lat="37.482374000" lon="-4.208253000">
        <ele>527.5</ele>
        <time>2020-10-13T16:39:44Z</time>
      </trkpt>
      <trkpt lat="37.482278000" lon="-4.208291000">
        <ele>527.5</ele>
        <time>2020-10-13T16:39:46Z</time>
      </trkpt>
      <trkpt lat="37.482186000" lon="-4.208318000">
        <ele>527.5</ele>
        <time>2020-10-13T16:39:48Z</time>
      </trkpt>
      <trkpt lat="37.482090000" lon="-4.208334000">
        <ele>527.6</ele>
        <time>2020-10-13T16:39:50Z</time>
      </trkpt>
      <trkpt lat="37.482003000" lon="-4.208328000">
        <ele>527.8</ele>
        <time>2020-10-13T16:39:52Z</time>
      </trkpt>
      <trkpt lat="37.481920000" lon="-4.208300000">
        <ele>527.9</ele>
        <time>2020-10-13T16:39:54Z</time>
      </trkpt>
      <trkpt lat="37.481844000" lon="-4.208262000">
        <ele>528.0</ele>
        <time>2020-10-13T16:39:56Z</time>
      </trkpt>
      <trkpt lat="37.481750000" lon="-4.208186000">
        <ele>528.1</ele>
        <time>2020-10-13T16:39:59Z</time>
      </trkpt>
      <trkpt lat="37.481665000" lon="-4.208093000">
        <ele>528.2</ele>
        <time>2020-10-13T16:40:02Z</time>
      </trkpt>
      <trkpt lat="37.481590000" lon="-4.207996000">
        <ele>528.4</ele>
        <time>2020-10-13T16:40:05Z</time>
      </trkpt>
      <trkpt lat="37.481518000" lon="-4.207897000">
        <ele>528.5</ele>
        <time>2020-10-13T16:40:08Z</time>
      </trkpt>
      <trkpt lat="37.481447000" lon="-4.207802000">
        <ele>528.7</ele>
        <time>2020-10-13T16:40:11Z</time>
      </trkpt>
      <trkpt lat="37.481376000" lon="-4.207710000">
        <ele>529.0</ele>
        <time>2020-10-13T16:40:14Z</time>
      </trkpt>
      <trkpt lat="37.481304000" lon="-4.207621000">
        <ele>529.3</ele>
        <time>2020-10-13T16:40:17Z</time>
      </trkpt>
      <trkpt lat="37.481233000" lon="-4.207542000">
        <ele>529.6</ele>
        <time>2020-10-13T16:40:20Z</time>
      </trkpt>
      <trkpt lat="37.481173000" lon="-4.207461000">
        <ele>530.1</ele>
        <time>2020-10-13T16:40:23Z</time>
      </trkpt>
      <trkpt lat="37.481103000" lon="-4.207383000">
        <ele>530.6</ele>
        <time>2020-10-13T16:40:26Z</time>
      </trkpt>
      <trkpt lat="37.481029000" lon="-4.207296000">
        <ele>531.2</ele>
        <time>2020-10-13T16:40:29Z</time>
      </trkpt>
      <trkpt lat="37.480953000" lon="-4.207205000">
        <ele>531.8</ele>
        <time>2020-10-13T16:40:32Z</time>
      </trkpt>
      <trkpt lat="37.480884000" lon="-4.207117000">
        <ele>532.5</ele>
        <time>2020-10-13T16:40:35Z</time>
      </trkpt>
      <trkpt lat="37.480816000" lon="-4.207031000">
        <ele>533.0</ele>
        <time>2020-10-13T16:40:38Z</time>
      </trkpt>
      <trkpt lat="37.480746000" lon="-4.206940000">
        <ele>533.5</ele>
        <time>2020-10-13T16:40:41Z</time>
      </trkpt>
      <trkpt lat="37.480671000" lon="-4.206854000">
        <ele>534.0</ele>
        <time>2020-10-13T16:40:44Z</time>
      </trkpt>
      <trkpt lat="37.480602000" lon="-4.206763000">
        <ele>534.5</ele>
        <time>2020-10-13T16:40:47Z</time>
      </trkpt>
      <trkpt lat="37.480529000" lon="-4.206679000">
        <ele>534.9</ele>
        <time>2020-10-13T16:40:50Z</time>
      </trkpt>
      <trkpt lat="37.480453000" lon="-4.206600000">
        <ele>535.3</ele>
        <time>2020-10-13T16:40:53Z</time>
      </trkpt>
      <trkpt lat="37.480363000" lon="-4.206544000">
        <ele>535.6</ele>
        <time>2020-10-13T16:40:56Z</time>
      </trkpt>
      <trkpt lat="37.480258000" lon="-4.206523000">
        <ele>536.0</ele>
        <time>2020-10-13T16:40:59Z</time>
      </trkpt>
      <trkpt lat="37.480153000" lon="-4.206539000">
        <ele>536.4</ele>
        <time>2020-10-13T16:41:02Z</time>
      </trkpt>
      <trkpt lat="37.480054000" lon="-4.206582000">
        <ele>536.6</ele>
        <time>2020-10-13T16:41:05Z</time>
      </trkpt>
      <trkpt lat="37.479962000" lon="-4.206629000">
        <ele>537.0</ele>
        <time>2020-10-13T16:41:08Z</time>
      </trkpt>
      <trkpt lat="37.479872000" lon="-4.206679000">
        <ele>537.4</ele>
        <time>2020-10-13T16:41:11Z</time>
      </trkpt>
      <trkpt lat="37.479787000" lon="-4.206727000">
        <ele>537.7</ele>
        <time>2020-10-13T16:41:14Z</time>
      </trkpt>
      <trkpt lat="37.479706000" lon="-4.206766000">
        <ele>538.1</ele>
        <time>2020-10-13T16:41:17Z</time>
      </trkpt>
      <trkpt lat="37.479623000" lon="-4.206793000">
        <ele>538.5</ele>
        <time>2020-10-13T16:41:20Z</time>
      </trkpt>
      <trkpt lat="37.479534000" lon="-4.206808000">
        <ele>538.8</ele>
        <time>2020-10-13T16:41:23Z</time>
      </trkpt>
      <trkpt lat="37.479445000" lon="-4.206812000">
        <ele>539.3</ele>
        <time>2020-10-13T16:41:26Z</time>
      </trkpt>
      <trkpt lat="37.479358000" lon="-4.206813000">
        <ele>539.6</ele>
        <time>2020-10-13T16:41:29Z</time>
      </trkpt>
      <trkpt lat="37.479251000" lon="-4.206816000">
        <ele>540.1</ele>
        <time>2020-10-13T16:41:34Z</time>
      </trkpt>
      <trkpt lat="37.479169000" lon="-4.206818000">
        <ele>540.6</ele>
        <time>2020-10-13T16:41:36Z</time>
      </trkpt>
      <trkpt lat="37.479065000" lon="-4.206820000">
        <ele>541.3</ele>
        <time>2020-10-13T16:41:40Z</time>
      </trkpt>
      <trkpt lat="37.478964000" lon="-4.206826000">
        <ele>541.8</ele>
        <time>2020-10-13T16:41:44Z</time>
      </trkpt>
      <trkpt lat="37.478876000" lon="-4.206835000">
        <ele>542.4</ele>
        <time>2020-10-13T16:41:47Z</time>
      </trkpt>
      <trkpt lat="37.478782000" lon="-4.206833000">
        <ele>543.0</ele>
        <time>2020-10-13T16:41:51Z</time>
      </trkpt>
      <trkpt lat="37.478682000" lon="-4.206828000">
        <ele>543.5</ele>
        <time>2020-10-13T16:41:56Z</time>
      </trkpt>
      <trkpt lat="37.478593000" lon="-4.206826000">
        <ele>544.2</ele>
        <time>2020-10-13T16:42:00Z</time>
      </trkpt>
      <trkpt lat="37.478500000" lon="-4.206830000">
        <ele>544.7</ele>
        <time>2020-10-13T16:42:04Z</time>
      </trkpt>
      <trkpt lat="37.478401000" lon="-4.206832000">
        <ele>545.2</ele>
        <time>2020-10-13T16:42:08Z</time>
      </trkpt>
      <trkpt lat="37.478298000" lon="-4.206818000">
        <ele>545.6</ele>
        <time>2020-10-13T16:42:12Z</time>
      </trkpt>
      <trkpt lat="37.478197000" lon="-4.206808000">
        <ele>546.0</ele>
        <time>2020-10-13T16:42:16Z</time>
      </trkpt>
      <trkpt lat="37.478115000" lon="-4.206803000">
        <ele>546.4</ele>
        <time>2020-10-13T16:42:20Z</time>
      </trkpt>
      <trkpt lat="37.478032000" lon="-4.206786000">
        <ele>546.6</ele>
        <time>2020-10-13T16:42:24Z</time>
      </trkpt>
      <trkpt lat="37.477941000" lon="-4.206775000">
        <ele>546.9</ele>
        <time>2020-10-13T16:42:28Z</time>
      </trkpt>
      <trkpt lat="37.477847000" lon="-4.206757000">
        <ele>547.2</ele>
        <time>2020-10-13T16:42:32Z</time>
      </trkpt>
      <trkpt lat="37.477756000" lon="-4.206743000">
        <ele>547.5</ele>
        <time>2020-10-13T16:42:36Z</time>
      </trkpt>
      <trkpt lat="37.477668000" lon="-4.206722000">
        <ele>547.7</ele>
        <time>2020-10-13T16:42:40Z</time>
      </trkpt>
      <trkpt lat="37.477572000" lon="-4.206710000">
        <ele>547.9</ele>
        <time>2020-10-13T16:42:44Z</time>
      </trkpt>
      <trkpt lat="37.477478000" lon="-4.206691000">
        <ele>548.1</ele>
        <time>2020-10-13T16:42:48Z</time>
      </trkpt>
      <trkpt lat="37.477385000" lon="-4.206673000">
        <ele>548.3</ele>
        <time>2020-10-13T16:42:52Z</time>
      </trkpt>
      <trkpt lat="37.477287000" lon="-4.206664000">
        <ele>548.5</ele>
        <time>2020-10-13T16:42:56Z</time>
      </trkpt>
      <trkpt lat="37.477187000" lon="-4.206646000">
        <ele>548.8</ele>
        <time>2020-10-13T16:43:00Z</time>
      </trkpt>
      <trkpt lat="37.477090000" lon="-4.206624000">
        <ele>549.1</ele>
        <time>2020-10-13T16:43:04Z</time>
      </trkpt>
      <trkpt lat="37.476991000" lon="-4.206589000">
        <ele>549.4</ele>
        <time>2020-10-13T16:43:08Z</time>
      </trkpt>
      <trkpt lat="37.476893000" lon="-4.206534000">
        <ele>549.7</ele>
        <time>2020-10-13T16:43:12Z</time>
      </trkpt>
      <trkpt lat="37.476813000" lon="-4.206485000">
        <ele>550.1</ele>
        <time>2020-10-13T16:43:15Z</time>
      </trkpt>
      <trkpt lat="37.476725000" lon="-4.206440000">
        <ele>550.5</ele>
        <time>2020-10-13T16:43:18Z</time>
      </trkpt>
      <trkpt lat="37.476626000" lon="-4.206396000">
        <ele>550.9</ele>
        <time>2020-10-13T16:43:21Z</time>
      </trkpt>
      <trkpt lat="37.476518000" lon="-4.206359000">
        <ele>551.4</ele>
        <time>2020-10-13T16:43:24Z</time>
      </trkpt>
      <trkpt lat="37.476412000" lon="-4.206320000">
        <ele>551.9</ele>
        <time>2020-10-13T16:43:27Z</time>
      </trkpt>
      <trkpt lat="37.476305000" lon="-4.206281000">
        <ele>552.5</ele>
        <time>2020-10-13T16:43:30Z</time>
      </trkpt>
      <trkpt lat="37.476190000" lon="-4.206240000">
        <ele>552.9</ele>
        <time>2020-10-13T16:43:33Z</time>
      </trkpt>
      <trkpt lat="37.476110000" lon="-4.206219000">
        <ele>553.4</ele>
        <time>2020-10-13T16:43:35Z</time>
      </trkpt>
      <trkpt lat="37.476028000" lon="-4.206203000">
        <ele>553.7</ele>
        <time>2020-10-13T16:43:38Z</time>
      </trkpt>
      <trkpt lat="37.475941000" lon="-4.206200000">
        <ele>554.1</ele>
        <time>2020-10-13T16:43:39Z</time>
      </trkpt>
      <trkpt lat="37.475855000" lon="-4.206225000">
        <ele>554.4</ele>
        <time>2020-10-13T16:43:41Z</time>
      </trkpt>
      <trkpt lat="37.475776000" lon="-4.206266000">
        <ele>554.6</ele>
        <time>2020-10-13T16:43:43Z</time>
      </trkpt>
      <trkpt lat="37.475704000" lon="-4.206321000">
        <ele>554.9</ele>
        <time>2020-10-13T16:43:46Z</time>
      </trkpt>
      <trkpt lat="37.475633000" lon="-4.206383000">
        <ele>555.3</ele>
        <time>2020-10-13T16:43:47Z</time>
      </trkpt>
      <trkpt lat="37.475573000" lon="-4.206456000">
        <ele>555.6</ele>
        <time>2020-10-13T16:43:49Z</time>
      </trkpt>
      <trkpt lat="37.475504000" lon="-4.206577000">
        <ele>556.0</ele>
        <time>2020-10-13T16:43:52Z</time>
      </trkpt>
      <trkpt lat="37.475450000" lon="-4.206694000">
        <ele>556.4</ele>
        <time>2020-10-13T16:43:55Z</time>
      </trkpt>
      <trkpt lat="37.475407000" lon="-4.206805000">
        <ele>556.7</ele>
        <time>2020-10-13T16:43:58Z</time>
      </trkpt>
      <trkpt lat="37.475363000" lon="-4.206928000">
        <ele>557.1</ele>
        <time>2020-10-13T16:44:01Z</time>
      </trkpt>
      <trkpt lat="37.475329000" lon="-4.207027000">
        <ele>557.4</ele>
        <time>2020-10-13T16:44:03Z</time>
      </trkpt>
      <trkpt lat="37.475294000" lon="-4.207123000">
        <ele>557.5</ele>
        <time>2020-10-13T16:44:05Z</time>
      </trkpt>
      <trkpt lat="37.475243000" lon="-4.207242000">
        <ele>557.6</ele>
        <time>2020-10-13T16:44:08Z</time>
      </trkpt>
      <trkpt lat="37.475196000" lon="-4.207354000">
        <ele>557.7</ele>
        <time>2020-10-13T16:44:11Z</time>
      </trkpt>
      <trkpt lat="37.475143000" lon="-4.207444000">
        <ele>557.7</ele>
        <time>2020-10-13T16:44:13Z</time>
      </trkpt>
      <trkpt lat="37.475094000" lon="-4.207532000">
        <ele>557.5</ele>
        <time>2020-10-13T16:44:15Z</time>
      </trkpt>
      <trkpt lat="37.475021000" lon="-4.207647000">
        <ele>557.4</ele>
        <time>2020-10-13T16:44:18Z</time>
      </trkpt>
      <trkpt lat="37.474949000" lon="-4.207746000">
        <ele>557.1</ele>
        <time>2020-10-13T16:44:21Z</time>
      </trkpt>
      <trkpt lat="37.474895000" lon="-4.207823000">
        <ele>556.9</ele>
        <time>2020-10-13T16:44:23Z</time>
      </trkpt>
      <trkpt lat="37.474840000" lon="-4.207902000">
        <ele>556.7</ele>
        <time>2020-10-13T16:44:25Z</time>
      </trkpt>
      <trkpt lat="37.474780000" lon="-4.208008000">
        <ele>556.6</ele>
        <time>2020-10-13T16:44:28Z</time>
      </trkpt>
      <trkpt lat="37.474722000" lon="-4.208143000">
        <ele>556.6</ele>
        <time>2020-10-13T16:44:31Z</time>
      </trkpt>
      <trkpt lat="37.474695000" lon="-4.208243000">
        <ele>556.7</ele>
        <time>2020-10-13T16:44:33Z</time>
      </trkpt>
      <trkpt lat="37.474677000" lon="-4.208387000">
        <ele>556.9</ele>
        <time>2020-10-13T16:44:36Z</time>
      </trkpt>
      <trkpt lat="37.474658000" lon="-4.208531000">
        <ele>557.2</ele>
        <time>2020-10-13T16:44:39Z</time>
      </trkpt>
      <trkpt lat="37.474637000" lon="-4.208673000">
        <ele>557.4</ele>
        <time>2020-10-13T16:44:42Z</time>
      </trkpt>
      <trkpt lat="37.474607000" lon="-4.208808000">
        <ele>557.5</ele>
        <time>2020-10-13T16:44:45Z</time>
      </trkpt>
      <trkpt lat="37.474574000" lon="-4.208937000">
        <ele>557.7</ele>
        <time>2020-10-13T16:44:49Z</time>
      </trkpt>
      <trkpt lat="37.474529000" lon="-4.209073000">
        <ele>557.8</ele>
        <time>2020-10-13T16:44:51Z</time>
      </trkpt>
      <trkpt lat="37.474501000" lon="-4.209183000">
        <ele>557.6</ele>
        <time>2020-10-13T16:44:53Z</time>
      </trkpt>
      <trkpt lat="37.474465000" lon="-4.209311000">
        <ele>557.4</ele>
        <time>2020-10-13T16:44:55Z</time>
      </trkpt>
      <trkpt lat="37.474419000" lon="-4.209448000">
        <ele>556.9</ele>
        <time>2020-10-13T16:44:57Z</time>
      </trkpt>
      <trkpt lat="37.474377000" lon="-4.209597000">
        <ele>556.4</ele>
        <time>2020-10-13T16:44:59Z</time>
      </trkpt>
      <trkpt lat="37.474368000" lon="-4.209758000">
        <ele>555.8</ele>
        <time>2020-10-13T16:45:01Z</time>
      </trkpt>
      <trkpt lat="37.474375000" lon="-4.209922000">
        <ele>555.3</ele>
        <time>2020-10-13T16:45:03Z</time>
      </trkpt>
      <trkpt lat="37.474379000" lon="-4.210084000">
        <ele>554.6</ele>
        <time>2020-10-13T16:45:05Z</time>
      </trkpt>
      <trkpt lat="37.474367000" lon="-4.210241000">
        <ele>554.1</ele>
        <time>2020-10-13T16:45:07Z</time>
      </trkpt>
      <trkpt lat="37.474338000" lon="-4.210399000">
        <ele>553.5</ele>
        <time>2020-10-13T16:45:09Z</time>
      </trkpt>
      <trkpt lat="37.474286000" lon="-4.210542000">
        <ele>552.9</ele>
        <time>2020-10-13T16:45:11Z</time>
      </trkpt>
      <trkpt lat="37.474215000" lon="-4.210668000">
        <ele>552.4</ele>
        <time>2020-10-13T16:45:13Z</time>
      </trkpt>
      <trkpt lat="37.474132000" lon="-4.210800000">
        <ele>552.0</ele>
        <time>2020-10-13T16:45:15Z</time>
      </trkpt>
      <trkpt lat="37.474040000" lon="-4.210923000">
        <ele>551.7</ele>
        <time>2020-10-13T16:45:17Z</time>
      </trkpt>
      <trkpt lat="37.473959000" lon="-4.211024000">
        <ele>551.5</ele>
        <time>2020-10-13T16:45:19Z</time>
      </trkpt>
      <trkpt lat="37.473885000" lon="-4.211101000">
        <ele>551.5</ele>
        <time>2020-10-13T16:45:21Z</time>
      </trkpt>
      <trkpt lat="37.473794000" lon="-4.211156000">
        <ele>551.4</ele>
        <time>2020-10-13T16:45:23Z</time>
      </trkpt>
      <trkpt lat="37.473700000" lon="-4.211195000">
        <ele>551.4</ele>
        <time>2020-10-13T16:45:26Z</time>
      </trkpt>
      <trkpt lat="37.473602000" lon="-4.211202000">
        <ele>551.5</ele>
        <time>2020-10-13T16:46:12Z</time>
      </trkpt>
      <trkpt lat="37.473521000" lon="-4.211217000">
        <ele>551.6</ele>
        <time>2020-10-13T16:46:15Z</time>
      </trkpt>
      <trkpt lat="37.473423000" lon="-4.211235000">
        <ele>551.9</ele>
        <time>2020-10-13T16:46:18Z</time>
      </trkpt>
      <trkpt lat="37.473317000" lon="-4.211234000">
        <ele>552.4</ele>
        <time>2020-10-13T16:46:21Z</time>
      </trkpt>
      <trkpt lat="37.473213000" lon="-4.211212000">
        <ele>552.9</ele>
        <time>2020-10-13T16:46:24Z</time>
      </trkpt>
      <trkpt lat="37.473125000" lon="-4.211185000">
        <ele>553.5</ele>
        <time>2020-10-13T16:46:27Z</time>
      </trkpt>
      <trkpt lat="37.473044000" lon="-4.211148000">
        <ele>554.3</ele>
        <time>2020-10-13T16:46:30Z</time>
      </trkpt>
      <trkpt lat="37.472964000" lon="-4.211107000">
        <ele>555.1</ele>
        <time>2020-10-13T16:46:33Z</time>
      </trkpt>
      <trkpt lat="37.472887000" lon="-4.211072000">
        <ele>556.0</ele>
        <time>2020-10-13T16:46:36Z</time>
      </trkpt>
      <trkpt lat="37.472797000" lon="-4.211024000">
        <ele>556.9</ele>
        <time>2020-10-13T16:46:40Z</time>
      </trkpt>
      <trkpt lat="37.472712000" lon="-4.210979000">
        <ele>557.7</ele>
        <time>2020-10-13T16:46:44Z</time>
      </trkpt>
      <trkpt lat="37.472625000" lon="-4.210937000">
        <ele>558.5</ele>
        <time>2020-10-13T16:46:48Z</time>
      </trkpt>
      <trkpt lat="37.472532000" lon="-4.210880000">
        <ele>559.1</ele>
        <time>2020-10-13T16:46:52Z</time>
      </trkpt>
      <trkpt lat="37.472455000" lon="-4.210831000">
        <ele>559.6</ele>
        <time>2020-10-13T16:46:57Z</time>
      </trkpt>
      <trkpt lat="37.472375000" lon="-4.210784000">
        <ele>560.1</ele>
        <time>2020-10-13T16:47:00Z</time>
      </trkpt>
      <trkpt lat="37.472284000" lon="-4.210732000">
        <ele>560.5</ele>
        <time>2020-10-13T16:47:06Z</time>
      </trkpt>
      <trkpt lat="37.472191000" lon="-4.210679000">
        <ele>561.0</ele>
        <time>2020-10-13T16:47:10Z</time>
      </trkpt>
      <trkpt lat="37.472105000" lon="-4.210643000">
        <ele>561.5</ele>
        <time>2020-10-13T16:47:14Z</time>
      </trkpt>
      <trkpt lat="37.472019000" lon="-4.210595000">
        <ele>561.8</ele>
        <time>2020-10-13T16:47:18Z</time>
      </trkpt>
      <trkpt lat="37.471931000" lon="-4.210546000">
        <ele>562.3</ele>
        <time>2020-10-13T16:47:22Z</time>
      </trkpt>
      <trkpt lat="37.471844000" lon="-4.210496000">
        <ele>562.8</ele>
        <time>2020-10-13T16:47:26Z</time>
      </trkpt>
      <trkpt lat="37.471755000" lon="-4.210452000">
        <ele>563.5</ele>
        <time>2020-10-13T16:47:30Z</time>
      </trkpt>
      <trkpt lat="37.471666000" lon="-4.210405000">
        <ele>564.2</ele>
        <time>2020-10-13T16:47:34Z</time>
      </trkpt>
      <trkpt lat="37.471584000" lon="-4.210367000">
        <ele>565.0</ele>
        <time>2020-10-13T16:47:38Z</time>
      </trkpt>
      <trkpt lat="37.471488000" lon="-4.210337000">
        <ele>565.8</ele>
        <time>2020-10-13T16:47:43Z</time>
      </trkpt>
      <trkpt lat="37.471388000" lon="-4.210339000">
        <ele>566.6</ele>
        <time>2020-10-13T16:47:48Z</time>
      </trkpt>
      <trkpt lat="37.471292000" lon="-4.210380000">
        <ele>567.5</ele>
        <time>2020-10-13T16:47:52Z</time>
      </trkpt>
      <trkpt lat="37.471207000" lon="-4.210455000">
        <ele>568.3</ele>
        <time>2020-10-13T16:47:56Z</time>
      </trkpt>
      <trkpt lat="37.471141000" lon="-4.210526000">
        <ele>569.1</ele>
        <time>2020-10-13T16:48:00Z</time>
      </trkpt>
      <trkpt lat="37.471073000" lon="-4.210599000">
        <ele>569.9</ele>
        <time>2020-10-13T16:48:04Z</time>
      </trkpt>
      <trkpt lat="37.470993000" lon="-4.210660000">
        <ele>570.6</ele>
        <time>2020-10-13T16:48:08Z</time>
      </trkpt>
      <trkpt lat="37.470905000" lon="-4.210710000">
        <ele>571.4</ele>
        <time>2020-10-13T16:48:12Z</time>
      </trkpt>
      <trkpt lat="37.470811000" lon="-4.210735000">
        <ele>572.0</ele>
        <time>2020-10-13T16:48:16Z</time>
      </trkpt>
      <trkpt lat="37.470723000" lon="-4.210732000">
        <ele>572.6</ele>
        <time>2020-10-13T16:48:20Z</time>
      </trkpt>
      <trkpt lat="37.470639000" lon="-4.210717000">
        <ele>573.2</ele>
        <time>2020-10-13T16:48:24Z</time>
      </trkpt>
      <trkpt lat="37.470557000" lon="-4.210698000">
        <ele>573.7</ele>
        <time>2020-10-13T16:48:28Z</time>
      </trkpt>
      <trkpt lat="37.470471000" lon="-4.210694000">
        <ele>574.4</ele>
        <time>2020-10-13T16:48:32Z</time>
      </trkpt>
      <trkpt lat="37.470383000" lon="-4.210730000">
        <ele>575.0</ele>
        <time>2020-10-13T16:48:36Z</time>
      </trkpt>
      <trkpt lat="37.470313000" lon="-4.210794000">
        <ele>575.5</ele>
        <time>2020-10-13T16:48:40Z</time>
      </trkpt>
      <trkpt lat="37.470246000" lon="-4.210877000">
        <ele>576.1</ele>
        <time>2020-10-13T16:48:45Z</time>
      </trkpt>
      <trkpt lat="37.470183000" lon="-4.210944000">
        <ele>576.6</ele>
        <time>2020-10-13T16:48:49Z</time>
      </trkpt>
      <trkpt lat="37.470115000" lon="-4.211019000">
        <ele>577.2</ele>
        <time>2020-10-13T16:48:53Z</time>
      </trkpt>
      <trkpt lat="37.470044000" lon="-4.211076000">
        <ele>577.6</ele>
        <time>2020-10-13T16:48:58Z</time>
      </trkpt>
      <trkpt lat="37.469961000" lon="-4.211103000">
        <ele>578.1</ele>
        <time>2020-10-13T16:49:02Z</time>
      </trkpt>
      <trkpt lat="37.469871000" lon="-4.211066000">
        <ele>578.5</ele>
        <time>2020-10-13T16:49:07Z</time>
      </trkpt>
      <trkpt lat="37.469798000" lon="-4.211010000">
        <ele>579.1</ele>
        <time>2020-10-13T16:49:11Z</time>
      </trkpt>
      <trkpt lat="37.469717000" lon="-4.210957000">
        <ele>579.7</ele>
        <time>2020-10-13T16:49:15Z</time>
      </trkpt>
      <trkpt lat="37.469642000" lon="-4.210911000">
        <ele>580.3</ele>
        <time>2020-10-13T16:49:19Z</time>
      </trkpt>
      <trkpt lat="37.469567000" lon="-4.210867000">
        <ele>580.8</ele>
        <time>2020-10-13T16:49:23Z</time>
      </trkpt>
      <trkpt lat="37.469484000" lon="-4.210817000">
        <ele>581.5</ele>
        <time>2020-10-13T16:49:28Z</time>
      </trkpt>
      <trkpt lat="37.469400000" lon="-4.210768000">
        <ele>582.0</ele>
        <time>2020-10-13T16:49:33Z</time>
      </trkpt>
      <trkpt lat="37.469322000" lon="-4.210707000">
        <ele>582.5</ele>
        <time>2020-10-13T16:49:38Z</time>
      </trkpt>
      <trkpt lat="37.469235000" lon="-4.210666000">
        <ele>583.1</ele>
        <time>2020-10-13T16:49:43Z</time>
      </trkpt>
      <trkpt lat="37.469141000" lon="-4.210634000">
        <ele>583.6</ele>
        <time>2020-10-13T16:49:48Z</time>
      </trkpt>
      <trkpt lat="37.469041000" lon="-4.210633000">
        <ele>584.2</ele>
        <time>2020-10-13T16:49:53Z</time>
      </trkpt>
      <trkpt lat="37.468964000" lon="-4.210667000">
        <ele>584.6</ele>
        <time>2020-10-13T16:49:57Z</time>
      </trkpt>
      <trkpt lat="37.468875000" lon="-4.210719000">
        <ele>585.1</ele>
        <time>2020-10-13T16:50:02Z</time>
      </trkpt>
      <trkpt lat="37.468797000" lon="-4.210761000">
        <ele>585.5</ele>
        <time>2020-10-13T16:50:06Z</time>
      </trkpt>
      <trkpt lat="37.468715000" lon="-4.210800000">
        <ele>586.0</ele>
        <time>2020-10-13T16:50:10Z</time>
      </trkpt>
      <trkpt lat="37.468636000" lon="-4.210833000">
        <ele>586.5</ele>
        <time>2020-10-13T16:50:14Z</time>
      </trkpt>
      <trkpt lat="37.468552000" lon="-4.210839000">
        <ele>586.9</ele>
        <time>2020-10-13T16:50:18Z</time>
      </trkpt>
      <trkpt lat="37.468467000" lon="-4.210812000">
        <ele>587.5</ele>
        <time>2020-10-13T16:50:22Z</time>
      </trkpt>
      <trkpt lat="37.468373000" lon="-4.210859000">
        <ele>588.1</ele>
        <time>2020-10-13T16:50:27Z</time>
      </trkpt>
      <trkpt lat="37.468291000" lon="-4.210861000">
        <ele>588.7</ele>
        <time>2020-10-13T16:50:31Z</time>
      </trkpt>
      <trkpt lat="37.468208000" lon="-4.210857000">
        <ele>589.5</ele>
        <time>2020-10-13T16:50:35Z</time>
      </trkpt>
      <trkpt lat="37.468115000" lon="-4.210840000">
        <ele>590.2</ele>
        <time>2020-10-13T16:50:40Z</time>
      </trkpt>
      <trkpt lat="37.468031000" lon="-4.210815000">
        <ele>591.0</ele>
        <time>2020-10-13T16:50:45Z</time>
      </trkpt>
      <trkpt lat="37.467939000" lon="-4.210846000">
        <ele>591.7</ele>
        <time>2020-10-13T16:50:50Z</time>
      </trkpt>
      <trkpt lat="37.467837000" lon="-4.210843000">
        <ele>592.5</ele>
        <time>2020-10-13T16:50:55Z</time>
      </trkpt>
      <trkpt lat="37.467750000" lon="-4.210842000">
        <ele>593.3</ele>
        <time>2020-10-13T16:50:59Z</time>
      </trkpt>
      <trkpt lat="37.467660000" lon="-4.210855000">
        <ele>594.0</ele>
        <time>2020-10-13T16:51:03Z</time>
      </trkpt>
      <trkpt lat="37.467572000" lon="-4.210863000">
        <ele>594.6</ele>
        <time>2020-10-13T16:51:07Z</time>
      </trkpt>
      <trkpt lat="37.467486000" lon="-4.210885000">
        <ele>595.2</ele>
        <time>2020-10-13T16:51:11Z</time>
      </trkpt>
      <trkpt lat="37.467405000" lon="-4.210901000">
        <ele>595.6</ele>
        <time>2020-10-13T16:51:15Z</time>
      </trkpt>
      <trkpt lat="37.467321000" lon="-4.210897000">
        <ele>596.1</ele>
        <time>2020-10-13T16:51:19Z</time>
      </trkpt>
      <trkpt lat="37.467233000" lon="-4.210905000">
        <ele>596.6</ele>
        <time>2020-10-13T16:51:23Z</time>
      </trkpt>
      <trkpt lat="37.467139000" lon="-4.210912000">
        <ele>597.3</ele>
        <time>2020-10-13T16:51:28Z</time>
      </trkpt>
      <trkpt lat="37.467056000" lon="-4.210911000">
        <ele>597.9</ele>
        <time>2020-10-13T16:51:33Z</time>
      </trkpt>
      <trkpt lat="37.466969000" lon="-4.210914000">
        <ele>598.5</ele>
        <time>2020-10-13T16:51:38Z</time>
      </trkpt>
      <trkpt lat="37.466876000" lon="-4.210883000">
        <ele>599.2</ele>
        <time>2020-10-13T16:51:43Z</time>
      </trkpt>
      <trkpt lat="37.466790000" lon="-4.210832000">
        <ele>599.7</ele>
        <time>2020-10-13T16:51:48Z</time>
      </trkpt>
      <trkpt lat="37.466721000" lon="-4.210776000">
        <ele>600.4</ele>
        <time>2020-10-13T16:51:52Z</time>
      </trkpt>
      <trkpt lat="37.466648000" lon="-4.210717000">
        <ele>601.0</ele>
        <time>2020-10-13T16:51:56Z</time>
      </trkpt>
      <trkpt lat="37.466579000" lon="-4.210653000">
        <ele>601.6</ele>
        <time>2020-10-13T16:52:00Z</time>
      </trkpt>
      <trkpt lat="37.466493000" lon="-4.210586000">
        <ele>602.4</ele>
        <time>2020-10-13T16:52:05Z</time>
      </trkpt>
      <trkpt lat="37.466398000" lon="-4.210529000">
        <ele>603.0</ele>
        <time>2020-10-13T16:52:09Z</time>
      </trkpt>
      <trkpt lat="37.466313000" lon="-4.210471000">
        <ele>603.5</ele>
        <time>2020-10-13T16:52:12Z</time>
      </trkpt>
      <trkpt lat="37.466237000" lon="-4.210407000">
        <ele>603.8</ele>
        <time>2020-10-13T16:52:15Z</time>
      </trkpt>
      <trkpt lat="37.466156000" lon="-4.210345000">
        <ele>604.1</ele>
        <time>2020-10-13T16:52:18Z</time>
      </trkpt>
      <trkpt lat="37.466063000" lon="-4.210303000">
        <ele>604.4</ele>
        <time>2020-10-13T16:52:21Z</time>
      </trkpt>
      <trkpt lat="37.465972000" lon="-4.210305000">
        <ele>604.5</ele>
        <time>2020-10-13T16:52:24Z</time>
      </trkpt>
      <trkpt lat="37.465877000" lon="-4.210337000">
        <ele>604.7</ele>
        <time>2020-10-13T16:52:28Z</time>
      </trkpt>
      <trkpt lat="37.465791000" lon="-4.210369000">
        <ele>604.9</ele>
        <time>2020-10-13T16:52:31Z</time>
      </trkpt>
      <trkpt lat="37.465690000" lon="-4.210392000">
        <ele>605.1</ele>
        <time>2020-10-13T16:52:34Z</time>
      </trkpt>
      <trkpt lat="37.465601000" lon="-4.210385000">
        <ele>605.4</ele>
        <time>2020-10-13T16:52:37Z</time>
      </trkpt>
      <trkpt lat="37.465516000" lon="-4.210370000">
        <ele>605.6</ele>
        <time>2020-10-13T16:52:40Z</time>
      </trkpt>
      <trkpt lat="37.465432000" lon="-4.210344000">
        <ele>606.0</ele>
        <time>2020-10-13T16:52:43Z</time>
      </trkpt>
      <trkpt lat="37.465352000" lon="-4.210303000">
        <ele>606.4</ele>
        <time>2020-10-13T16:52:47Z</time>
      </trkpt>
      <trkpt lat="37.465277000" lon="-4.210250000">
        <ele>606.8</ele>
        <time>2020-10-13T16:52:51Z</time>
      </trkpt>
      <trkpt lat="37.465203000" lon="-4.210198000">
        <ele>607.3</ele>
        <time>2020-10-13T16:52:52Z</time>
      </trkpt>
      <trkpt lat="37.465122000" lon="-4.210112000">
        <ele>607.8</ele>
        <time>2020-10-13T16:52:56Z</time>
      </trkpt>
      <trkpt lat="37.465043000" lon="-4.210025000">
        <ele>608.4</ele>
        <time>2020-10-13T16:53:00Z</time>
      </trkpt>
      <trkpt lat="37.464957000" lon="-4.209947000">
        <ele>608.9</ele>
        <time>2020-10-13T16:53:04Z</time>
      </trkpt>
      <trkpt lat="37.464878000" lon="-4.209877000">
        <ele>609.4</ele>
        <time>2020-10-13T16:53:08Z</time>
      </trkpt>
      <trkpt lat="37.464799000" lon="-4.209816000">
        <ele>609.8</ele>
        <time>2020-10-13T16:53:12Z</time>
      </trkpt>
      <trkpt lat="37.464714000" lon="-4.209748000">
        <ele>610.2</ele>
        <time>2020-10-13T16:53:16Z</time>
      </trkpt>
      <trkpt lat="37.464645000" lon="-4.209684000">
        <ele>610.5</ele>
        <time>2020-10-13T16:53:19Z</time>
      </trkpt>
      <trkpt lat="37.464555000" lon="-4.209623000">
        <ele>610.7</ele>
        <time>2020-10-13T16:53:23Z</time>
      </trkpt>
      <trkpt lat="37.464474000" lon="-4.209559000">
        <ele>610.9</ele>
        <time>2020-10-13T16:53:27Z</time>
      </trkpt>
      <trkpt lat="37.464391000" lon="-4.209492000">
        <ele>611.0</ele>
        <time>2020-10-13T16:53:31Z</time>
      </trkpt>
      <trkpt lat="37.464313000" lon="-4.209427000">
        <ele>611.1</ele>
        <time>2020-10-13T16:53:35Z</time>
      </trkpt>
      <trkpt lat="37.464228000" lon="-4.209362000">
        <ele>611.1</ele>
        <time>2020-10-13T16:53:39Z</time>
      </trkpt>
      <trkpt lat="37.464154000" lon="-4.209289000">
        <ele>611.1</ele>
        <time>2020-10-13T16:53:42Z</time>
      </trkpt>
      <trkpt lat="37.464081000" lon="-4.209199000">
        <ele>611.2</ele>
        <time>2020-10-13T16:53:45Z</time>
      </trkpt>
      <trkpt lat="37.464010000" lon="-4.209085000">
        <ele>611.3</ele>
        <time>2020-10-13T16:53:48Z</time>
      </trkpt>
      <trkpt lat="37.463966000" lon="-4.208993000">
        <ele>611.4</ele>
        <time>2020-10-13T16:53:50Z</time>
      </trkpt>
      <trkpt lat="37.463923000" lon="-4.208898000">
        <ele>611.5</ele>
        <time>2020-10-13T16:53:52Z</time>
      </trkpt>
      <trkpt lat="37.463879000" lon="-4.208804000">
        <ele>611.5</ele>
        <time>2020-10-13T16:53:54Z</time>
      </trkpt>
      <trkpt lat="37.463835000" lon="-4.208710000">
        <ele>611.5</ele>
        <time>2020-10-13T16:53:56Z</time>
      </trkpt>
      <trkpt lat="37.463793000" lon="-4.208617000">
        <ele>611.5</ele>
        <time>2020-10-13T16:53:58Z</time>
      </trkpt>
      <trkpt lat="37.463747000" lon="-4.208521000">
        <ele>611.4</ele>
        <time>2020-10-13T16:54:00Z</time>
      </trkpt>
      <trkpt lat="37.463695000" lon="-4.208417000">
        <ele>611.2</ele>
        <time>2020-10-13T16:54:02Z</time>
      </trkpt>
      <trkpt lat="37.463636000" lon="-4.208314000">
        <ele>611.1</ele>
        <time>2020-10-13T16:54:04Z</time>
      </trkpt>
      <trkpt lat="37.463563000" lon="-4.208215000">
        <ele>611.0</ele>
        <time>2020-10-13T16:54:06Z</time>
      </trkpt>
      <trkpt lat="37.463478000" lon="-4.208146000">
        <ele>610.7</ele>
        <time>2020-10-13T16:54:08Z</time>
      </trkpt>
      <trkpt lat="37.463384000" lon="-4.208087000">
        <ele>610.5</ele>
        <time>2020-10-13T16:54:10Z</time>
      </trkpt>
      <trkpt lat="37.463296000" lon="-4.208006000">
        <ele>610.1</ele>
        <time>2020-10-13T16:54:12Z</time>
      </trkpt>
      <trkpt lat="37.463217000" lon="-4.207921000">
        <ele>609.6</ele>
        <time>2020-10-13T16:54:14Z</time>
      </trkpt>
      <trkpt lat="37.463139000" lon="-4.207836000">
        <ele>609.2</ele>
        <time>2020-10-13T16:54:16Z</time>
      </trkpt>
      <trkpt lat="37.463066000" lon="-4.207744000">
        <ele>608.7</ele>
        <time>2020-10-13T16:54:18Z</time>
      </trkpt>
      <trkpt lat="37.462999000" lon="-4.207645000">
        <ele>608.2</ele>
        <time>2020-10-13T16:54:20Z</time>
      </trkpt>
      <trkpt lat="37.462936000" lon="-4.207554000">
        <ele>607.7</ele>
        <time>2020-10-13T16:54:22Z</time>
      </trkpt>
      <trkpt lat="37.462874000" lon="-4.207458000">
        <ele>607.4</ele>
        <time>2020-10-13T16:54:24Z</time>
      </trkpt>
      <trkpt lat="37.462811000" lon="-4.207366000">
        <ele>606.8</ele>
        <time>2020-10-13T16:54:26Z</time>
      </trkpt>
      <trkpt lat="37.462750000" lon="-4.207288000">
        <ele>606.4</ele>
        <time>2020-10-13T16:54:28Z</time>
      </trkpt>
      <trkpt lat="37.462678000" lon="-4.207186000">
        <ele>606.0</ele>
        <time>2020-10-13T16:54:31Z</time>
      </trkpt>
      <trkpt lat="37.462624000" lon="-4.207082000">
        <ele>605.7</ele>
        <time>2020-10-13T16:54:35Z</time>
      </trkpt>
      <trkpt lat="37.462590000" lon="-4.206972000">
        <ele>605.6</ele>
        <time>2020-10-13T16:54:39Z</time>
      </trkpt>
      <trkpt lat="37.462575000" lon="-4.206836000">
        <ele>605.7</ele>
        <time>2020-10-13T16:54:43Z</time>
      </trkpt>
      <trkpt lat="37.462580000" lon="-4.206730000">
        <ele>606.0</ele>
        <time>2020-10-13T16:54:46Z</time>
      </trkpt>
      <trkpt lat="37.462596000" lon="-4.206623000">
        <ele>606.5</ele>
        <time>2020-10-13T16:54:51Z</time>
      </trkpt>
      <trkpt lat="37.462643000" lon="-4.206540000">
        <ele>607.1</ele>
        <time>2020-10-13T16:56:52Z</time>
      </trkpt>
      <trkpt lat="37.462713000" lon="-4.206447000">
        <ele>607.7</ele>
        <time>2020-10-13T16:56:57Z</time>
      </trkpt>
      <trkpt lat="37.462780000" lon="-4.206373000">
        <ele>608.5</ele>
        <time>2020-10-13T16:57:01Z</time>
      </trkpt>
      <trkpt lat="37.462855000" lon="-4.206306000">
        <ele>609.3</ele>
        <time>2020-10-13T16:57:05Z</time>
      </trkpt>
      <trkpt lat="37.462921000" lon="-4.206230000">
        <ele>610.0</ele>
        <time>2020-10-13T16:57:09Z</time>
      </trkpt>
      <trkpt lat="37.462983000" lon="-4.206150000">
        <ele>610.8</ele>
        <time>2020-10-13T16:57:13Z</time>
      </trkpt>
      <trkpt lat="37.463042000" lon="-4.206051000">
        <ele>611.5</ele>
        <time>2020-10-13T16:57:17Z</time>
      </trkpt>
      <trkpt lat="37.463123000" lon="-4.205959000">
        <ele>612.3</ele>
        <time>2020-10-13T16:57:21Z</time>
      </trkpt>
      <trkpt lat="37.463196000" lon="-4.205891000">
        <ele>612.8</ele>
        <time>2020-10-13T16:57:24Z</time>
      </trkpt>
      <trkpt lat="37.463278000" lon="-4.205835000">
        <ele>613.2</ele>
        <time>2020-10-13T16:57:27Z</time>
      </trkpt>
      <trkpt lat="37.463364000" lon="-4.205772000">
        <ele>613.5</ele>
        <time>2020-10-13T16:57:30Z</time>
      </trkpt>
      <trkpt lat="37.463448000" lon="-4.205702000">
        <ele>613.6</ele>
        <time>2020-10-13T16:57:33Z</time>
      </trkpt>
      <trkpt lat="37.463522000" lon="-4.205613000">
        <ele>613.9</ele>
        <time>2020-10-13T16:57:36Z</time>
      </trkpt>
      <trkpt lat="37.463581000" lon="-4.205516000">
        <ele>614.1</ele>
        <time>2020-10-13T16:57:39Z</time>
      </trkpt>
      <trkpt lat="37.463627000" lon="-4.205417000">
        <ele>614.4</ele>
        <time>2020-10-13T16:57:42Z</time>
      </trkpt>
      <trkpt lat="37.463671000" lon="-4.205315000">
        <ele>614.8</ele>
        <time>2020-10-13T16:57:45Z</time>
      </trkpt>
      <trkpt lat="37.463711000" lon="-4.205204000">
        <ele>615.3</ele>
        <time>2020-10-13T16:57:48Z</time>
      </trkpt>
      <trkpt lat="37.463745000" lon="-4.205104000">
        <ele>615.8</ele>
        <time>2020-10-13T16:57:51Z</time>
      </trkpt>
      <trkpt lat="37.463770000" lon="-4.204998000">
        <ele>616.4</ele>
        <time>2020-10-13T16:57:54Z</time>
      </trkpt>
      <trkpt lat="37.463764000" lon="-4.204876000">
        <ele>617.0</ele>
        <time>2020-10-13T16:57:57Z</time>
      </trkpt>
      <trkpt lat="37.463734000" lon="-4.204745000">
        <ele>617.6</ele>
        <time>2020-10-13T16:58:00Z</time>
      </trkpt>
      <trkpt lat="37.463687000" lon="-4.204623000">
        <ele>618.2</ele>
        <time>2020-10-13T16:58:03Z</time>
      </trkpt>
      <trkpt lat="37.463638000" lon="-4.204510000">
        <ele>618.6</ele>
        <time>2020-10-13T16:58:06Z</time>
      </trkpt>
      <trkpt lat="37.463574000" lon="-4.204422000">
        <ele>618.9</ele>
        <time>2020-10-13T16:58:09Z</time>
      </trkpt>
      <trkpt lat="37.463505000" lon="-4.204316000">
        <ele>619.0</ele>
        <time>2020-10-13T16:58:13Z</time>
      </trkpt>
      <trkpt lat="37.463428000" lon="-4.204252000">
        <ele>618.9</ele>
        <time>2020-10-13T16:58:16Z</time>
      </trkpt>
      <trkpt lat="37.463344000" lon="-4.204205000">
        <ele>618.5</ele>
        <time>2020-10-13T16:58:19Z</time>
      </trkpt>
      <trkpt lat="37.463249000" lon="-4.204206000">
        <ele>618.1</ele>
        <time>2020-10-13T16:58:22Z</time>
      </trkpt>
      <trkpt lat="37.463162000" lon="-4.204259000">
        <ele>617.5</ele>
        <time>2020-10-13T16:58:25Z</time>
      </trkpt>
      <trkpt lat="37.463092000" lon="-4.204338000">
        <ele>616.8</ele>
        <time>2020-10-13T16:58:28Z</time>
      </trkpt>
      <trkpt lat="37.463028000" lon="-4.204417000">
        <ele>616.3</ele>
        <time>2020-10-13T16:58:31Z</time>
      </trkpt>
      <trkpt lat="37.462947000" lon="-4.204492000">
        <ele>615.8</ele>
        <time>2020-10-13T16:58:34Z</time>
      </trkpt>
      <trkpt lat="37.462864000" lon="-4.204557000">
        <ele>615.7</ele>
        <time>2020-10-13T16:58:37Z</time>
      </trkpt>
      <trkpt lat="37.462779000" lon="-4.204619000">
        <ele>615.9</ele>
        <time>2020-10-13T16:58:40Z</time>
      </trkpt>
      <trkpt lat="37.462690000" lon="-4.204671000">
        <ele>616.3</ele>
        <time>2020-10-13T16:58:43Z</time>
      </trkpt>
      <trkpt lat="37.462597000" lon="-4.204722000">
        <ele>617.0</ele>
        <time>2020-10-13T16:58:46Z</time>
      </trkpt>
      <trkpt lat="37.462496000" lon="-4.204783000">
        <ele>618.0</ele>
        <time>2020-10-13T16:58:49Z</time>
      </trkpt>
      <trkpt lat="37.462396000" lon="-4.204841000">
        <ele>619.3</ele>
        <time>2020-10-13T16:58:52Z</time>
      </trkpt>
      <trkpt lat="37.462304000" lon="-4.204910000">
        <ele>620.6</ele>
        <time>2020-10-13T16:58:55Z</time>
      </trkpt>
      <trkpt lat="37.462207000" lon="-4.204985000">
        <ele>622.0</ele>
        <time>2020-10-13T16:58:58Z</time>
      </trkpt>
      <trkpt lat="37.462108000" lon="-4.205063000">
        <ele>623.2</ele>
        <time>2020-10-13T16:59:01Z</time>
      </trkpt>
      <trkpt lat="37.462015000" lon="-4.205138000">
        <ele>624.2</ele>
        <time>2020-10-13T16:59:04Z</time>
      </trkpt>
      <trkpt lat="37.461926000" lon="-4.205211000">
        <ele>625.0</ele>
        <time>2020-10-13T16:59:07Z</time>
      </trkpt>
      <trkpt lat="37.461853000" lon="-4.205284000">
        <ele>625.5</ele>
        <time>2020-10-13T16:59:10Z</time>
      </trkpt>
      <trkpt lat="37.461802000" lon="-4.205372000">
        <ele>626.0</ele>
        <time>2020-10-13T16:59:13Z</time>
      </trkpt>
      <trkpt lat="37.461754000" lon="-4.205483000">
        <ele>626.6</ele>
        <time>2020-10-13T16:59:17Z</time>
      </trkpt>
      <trkpt lat="37.461696000" lon="-4.205588000">
        <ele>627.2</ele>
        <time>2020-10-13T16:59:21Z</time>
      </trkpt>
      <trkpt lat="37.461641000" lon="-4.205684000">
        <ele>627.7</ele>
        <time>2020-10-13T16:59:25Z</time>
      </trkpt>
      <trkpt lat="37.461571000" lon="-4.205766000">
        <ele>628.2</ele>
        <time>2020-10-13T16:59:29Z</time>
      </trkpt>
      <trkpt lat="37.461492000" lon="-4.205835000">
        <ele>628.5</ele>
        <time>2020-10-13T16:59:33Z</time>
      </trkpt>
      <trkpt lat="37.461392000" lon="-4.205856000">
        <ele>629.0</ele>
        <time>2020-10-13T16:59:37Z</time>
      </trkpt>
      <trkpt lat="37.461286000" lon="-4.205858000">
        <ele>629.6</ele>
        <time>2020-10-13T16:59:41Z</time>
      </trkpt>
      <trkpt lat="37.461186000" lon="-4.205850000">
        <ele>630.4</ele>
        <time>2020-10-13T16:59:45Z</time>
      </trkpt>
      <trkpt lat="37.461105000" lon="-4.205833000">
        <ele>631.2</ele>
        <time>2020-10-13T16:59:48Z</time>
      </trkpt>
      <trkpt lat="37.461022000" lon="-4.205813000">
        <ele>632.1</ele>
        <time>2020-10-13T16:59:52Z</time>
      </trkpt>
      <trkpt lat="37.460937000" lon="-4.205792000">
        <ele>632.9</ele>
        <time>2020-10-13T16:59:56Z</time>
      </trkpt>
      <trkpt lat="37.460851000" lon="-4.205765000">
        <ele>633.4</ele>
        <time>2020-10-13T17:00:00Z</time>
      </trkpt>
      <trkpt lat="37.460769000" lon="-4.205736000">
        <ele>633.6</ele>
        <time>2020-10-13T17:00:04Z</time>
      </trkpt>
      <trkpt lat="37.460676000" lon="-4.205704000">
        <ele>633.7</ele>
        <time>2020-10-13T17:00:09Z</time>
      </trkpt>
      <trkpt lat="37.460588000" lon="-4.205664000">
        <ele>633.7</ele>
        <time>2020-10-13T17:00:15Z</time>
      </trkpt>
      <trkpt lat="37.460501000" lon="-4.205624000">
        <ele>633.6</ele>
        <time>2020-10-13T17:00:20Z</time>
      </trkpt>
      <trkpt lat="37.460398000" lon="-4.205557000">
        <ele>633.5</ele>
        <time>2020-10-13T17:00:24Z</time>
      </trkpt>
      <trkpt lat="37.460292000" lon="-4.205496000">
        <ele>633.4</ele>
        <time>2020-10-13T17:00:27Z</time>
      </trkpt>
      <trkpt lat="37.460182000" lon="-4.205432000">
        <ele>633.2</ele>
        <time>2020-10-13T17:00:30Z</time>
      </trkpt>
      <trkpt lat="37.460095000" lon="-4.205383000">
        <ele>632.9</ele>
        <time>2020-10-13T17:00:32Z</time>
      </trkpt>
      <trkpt lat="37.459994000" lon="-4.205329000">
        <ele>632.5</ele>
        <time>2020-10-13T17:00:34Z</time>
      </trkpt>
      <trkpt lat="37.459884000" lon="-4.205274000">
        <ele>632.1</ele>
        <time>2020-10-13T17:00:36Z</time>
      </trkpt>
      <trkpt lat="37.459761000" lon="-4.205215000">
        <ele>631.7</ele>
        <time>2020-10-13T17:00:38Z</time>
      </trkpt>
      <trkpt lat="37.459636000" lon="-4.205147000">
        <ele>631.4</ele>
        <time>2020-10-13T17:00:40Z</time>
      </trkpt>
      <trkpt lat="37.459505000" lon="-4.205070000">
        <ele>631.0</ele>
        <time>2020-10-13T17:00:42Z</time>
      </trkpt>
      <trkpt lat="37.459373000" lon="-4.204985000">
        <ele>630.5</ele>
        <time>2020-10-13T17:00:44Z</time>
      </trkpt>
      <trkpt lat="37.459243000" lon="-4.204898000">
        <ele>629.8</ele>
        <time>2020-10-13T17:00:46Z</time>
      </trkpt>
      <trkpt lat="37.459117000" lon="-4.204800000">
        <ele>629.2</ele>
        <time>2020-10-13T17:00:48Z</time>
      </trkpt>
      <trkpt lat="37.458996000" lon="-4.204708000">
        <ele>628.5</ele>
        <time>2020-10-13T17:00:50Z</time>
      </trkpt>
      <trkpt lat="37.458872000" lon="-4.204623000">
        <ele>627.7</ele>
        <time>2020-10-13T17:00:52Z</time>
      </trkpt>
      <trkpt lat="37.458745000" lon="-4.204530000">
        <ele>627.0</ele>
        <time>2020-10-13T17:00:54Z</time>
      </trkpt>
      <trkpt lat="37.458600000" lon="-4.204444000">
        <ele>626.3</ele>
        <time>2020-10-13T17:00:56Z</time>
      </trkpt>
      <trkpt lat="37.458524000" lon="-4.204403000">
        <ele>625.5</ele>
        <time>2020-10-13T17:00:57Z</time>
      </trkpt>
      <trkpt lat="37.458443000" lon="-4.204359000">
        <ele>624.7</ele>
        <time>2020-10-13T17:00:58Z</time>
      </trkpt>
      <trkpt lat="37.458356000" lon="-4.204317000">
        <ele>624.0</ele>
        <time>2020-10-13T17:00:59Z</time>
      </trkpt>
      <trkpt lat="37.458271000" lon="-4.204275000">
        <ele>623.3</ele>
        <time>2020-10-13T17:01:00Z</time>
      </trkpt>
      <trkpt lat="37.458189000" lon="-4.204238000">
        <ele>622.6</ele>
        <time>2020-10-13T17:01:01Z</time>
      </trkpt>
      <trkpt lat="37.458103000" lon="-4.204199000">
        <ele>622.2</ele>
        <time>2020-10-13T17:01:02Z</time>
      </trkpt>
      <trkpt lat="37.458016000" lon="-4.204157000">
        <ele>621.7</ele>
        <time>2020-10-13T17:01:03Z</time>
      </trkpt>
      <trkpt lat="37.457929000" lon="-4.204114000">
        <ele>621.3</ele>
        <time>2020-10-13T17:01:04Z</time>
      </trkpt>
      <trkpt lat="37.457842000" lon="-4.204074000">
        <ele>620.7</ele>
        <time>2020-10-13T17:01:05Z</time>
      </trkpt>
      <trkpt lat="37.457760000" lon="-4.204033000">
        <ele>620.2</ele>
        <time>2020-10-13T17:01:06Z</time>
      </trkpt>
      <trkpt lat="37.457679000" lon="-4.203996000">
        <ele>619.5</ele>
        <time>2020-10-13T17:01:07Z</time>
      </trkpt>
      <trkpt lat="37.457602000" lon="-4.203959000">
        <ele>618.8</ele>
        <time>2020-10-13T17:01:08Z</time>
      </trkpt>
      <trkpt lat="37.457462000" lon="-4.203900000">
        <ele>618.1</ele>
        <time>2020-10-13T17:01:10Z</time>
      </trkpt>
      <trkpt lat="37.457338000" lon="-4.203841000">
        <ele>617.2</ele>
        <time>2020-10-13T17:01:12Z</time>
      </trkpt>
      <trkpt lat="37.457217000" lon="-4.203789000">
        <ele>616.2</ele>
        <time>2020-10-13T17:01:14Z</time>
      </trkpt>
      <trkpt lat="37.457123000" lon="-4.203753000">
        <ele>615.2</ele>
        <time>2020-10-13T17:01:16Z</time>
      </trkpt>
      <trkpt lat="37.457013000" lon="-4.203711000">
        <ele>614.1</ele>
        <time>2020-10-13T17:01:19Z</time>
      </trkpt>
      <trkpt lat="37.456922000" lon="-4.203663000">
        <ele>612.9</ele>
        <time>2020-10-13T17:02:21Z</time>
      </trkpt>
      <trkpt lat="37.456805000" lon="-4.203630000">
        <ele>611.7</ele>
        <time>2020-10-13T17:02:24Z</time>
      </trkpt>
      <trkpt lat="37.456706000" lon="-4.203600000">
        <ele>610.5</ele>
        <time>2020-10-13T17:02:26Z</time>
      </trkpt>
      <trkpt lat="37.456590000" lon="-4.203567000">
        <ele>609.4</ele>
        <time>2020-10-13T17:02:28Z</time>
      </trkpt>
      <trkpt lat="37.456460000" lon="-4.203520000">
        <ele>608.2</ele>
        <time>2020-10-13T17:02:30Z</time>
      </trkpt>
      <trkpt lat="37.456313000" lon="-4.203457000">
        <ele>607.2</ele>
        <time>2020-10-13T17:02:32Z</time>
      </trkpt>
      <trkpt lat="37.456158000" lon="-4.203407000">
        <ele>606.3</ele>
        <time>2020-10-13T17:02:34Z</time>
      </trkpt>
      <trkpt lat="37.456076000" lon="-4.203384000">
        <ele>605.5</ele>
        <time>2020-10-13T17:02:35Z</time>
      </trkpt>
      <trkpt lat="37.455988000" lon="-4.203359000">
        <ele>604.7</ele>
        <time>2020-10-13T17:02:36Z</time>
      </trkpt>
      <trkpt lat="37.455902000" lon="-4.203334000">
        <ele>604.0</ele>
        <time>2020-10-13T17:02:37Z</time>
      </trkpt>
      <trkpt lat="37.455809000" lon="-4.203306000">
        <ele>603.2</ele>
        <time>2020-10-13T17:02:38Z</time>
      </trkpt>
      <trkpt lat="37.455717000" lon="-4.203280000">
        <ele>602.4</ele>
        <time>2020-10-13T17:02:39Z</time>
      </trkpt>
      <trkpt lat="37.455619000" lon="-4.203253000">
        <ele>601.5</ele>
        <time>2020-10-13T17:02:40Z</time>
      </trkpt>
      <trkpt lat="37.455523000" lon="-4.203226000">
        <ele>600.7</ele>
        <time>2020-10-13T17:02:41Z</time>
      </trkpt>
      <trkpt lat="37.455421000" lon="-4.203201000">
        <ele>600.0</ele>
        <time>2020-10-13T17:02:42Z</time>
      </trkpt>
      <trkpt lat="37.455320000" lon="-4.203165000">
        <ele>599.4</ele>
        <time>2020-10-13T17:02:43Z</time>
      </trkpt>
      <trkpt lat="37.455222000" lon="-4.203132000">
        <ele>598.6</ele>
        <time>2020-10-13T17:02:44Z</time>
      </trkpt>
      <trkpt lat="37.455122000" lon="-4.203093000">
        <ele>597.9</ele>
        <time>2020-10-13T17:02:45Z</time>
      </trkpt>
      <trkpt lat="37.455023000" lon="-4.203053000">
        <ele>597.3</ele>
        <time>2020-10-13T17:02:46Z</time>
      </trkpt>
      <trkpt lat="37.454929000" lon="-4.203009000">
        <ele>596.6</ele>
        <time>2020-10-13T17:02:47Z</time>
      </trkpt>
      <trkpt lat="37.454839000" lon="-4.202965000">
        <ele>596.2</ele>
        <time>2020-10-13T17:02:48Z</time>
      </trkpt>
      <trkpt lat="37.454752000" lon="-4.202916000">
        <ele>595.9</ele>
        <time>2020-10-13T17:02:49Z</time>
      </trkpt>
      <trkpt lat="37.454669000" lon="-4.202868000">
        <ele>595.6</ele>
        <time>2020-10-13T17:02:50Z</time>
      </trkpt>
      <trkpt lat="37.454586000" lon="-4.202817000">
        <ele>595.5</ele>
        <time>2020-10-13T17:02:51Z</time>
      </trkpt>
      <trkpt lat="37.454510000" lon="-4.202770000">
        <ele>595.4</ele>
        <time>2020-10-13T17:02:52Z</time>
      </trkpt>
      <trkpt lat="37.454436000" lon="-4.202719000">
        <ele>595.3</ele>
        <time>2020-10-13T17:02:53Z</time>
      </trkpt>
      <trkpt lat="37.454365000" lon="-4.202670000">
        <ele>595.1</ele>
        <time>2020-10-13T17:02:54Z</time>
      </trkpt>
      <trkpt lat="37.454237000" lon="-4.202590000">
        <ele>595.0</ele>
        <time>2020-10-13T17:02:56Z</time>
      </trkpt>
      <trkpt lat="37.454115000" lon="-4.202545000">
        <ele>594.8</ele>
        <time>2020-10-13T17:02:58Z</time>
      </trkpt>
      <trkpt lat="37.454001000" lon="-4.202548000">
        <ele>594.5</ele>
        <time>2020-10-13T17:03:00Z</time>
      </trkpt>
      <trkpt lat="37.453886000" lon="-4.202610000">
        <ele>594.2</ele>
        <time>2020-10-13T17:03:02Z</time>
      </trkpt>
      <trkpt lat="37.453773000" lon="-4.202678000">
        <ele>593.6</ele>
        <time>2020-10-13T17:03:04Z</time>
      </trkpt>
      <trkpt lat="37.453662000" lon="-4.202763000">
        <ele>593.0</ele>
        <time>2020-10-13T17:03:06Z</time>
      </trkpt>
      <trkpt lat="37.453545000" lon="-4.202848000">
        <ele>592.5</ele>
        <time>2020-10-13T17:03:08Z</time>
      </trkpt>
      <trkpt lat="37.453426000" lon="-4.202932000">
        <ele>591.8</ele>
        <time>2020-10-13T17:03:10Z</time>
      </trkpt>
      <trkpt lat="37.453304000" lon="-4.203020000">
        <ele>591.2</ele>
        <time>2020-10-13T17:03:12Z</time>
      </trkpt>
      <trkpt lat="37.453180000" lon="-4.203111000">
        <ele>590.5</ele>
        <time>2020-10-13T17:03:14Z</time>
      </trkpt>
      <trkpt lat="37.453048000" lon="-4.203202000">
        <ele>589.6</ele>
        <time>2020-10-13T17:03:16Z</time>
      </trkpt>
      <trkpt lat="37.452921000" lon="-4.203304000">
        <ele>588.8</ele>
        <time>2020-10-13T17:03:18Z</time>
      </trkpt>
      <trkpt lat="37.452795000" lon="-4.203408000">
        <ele>588.1</ele>
        <time>2020-10-13T17:03:20Z</time>
      </trkpt>
      <trkpt lat="37.452671000" lon="-4.203515000">
        <ele>587.4</ele>
        <time>2020-10-13T17:03:22Z</time>
      </trkpt>
      <trkpt lat="37.452547000" lon="-4.203606000">
        <ele>586.6</ele>
        <time>2020-10-13T17:03:24Z</time>
      </trkpt>
      <trkpt lat="37.452411000" lon="-4.203682000">
        <ele>586.0</ele>
        <time>2020-10-13T17:03:26Z</time>
      </trkpt>
      <trkpt lat="37.452268000" lon="-4.203696000">
        <ele>585.4</ele>
        <time>2020-10-13T17:03:28Z</time>
      </trkpt>
      <trkpt lat="37.452137000" lon="-4.203658000">
        <ele>584.7</ele>
        <time>2020-10-13T17:03:30Z</time>
      </trkpt>
      <trkpt lat="37.452022000" lon="-4.203551000">
        <ele>584.2</ele>
        <time>2020-10-13T17:03:33Z</time>
      </trkpt>
      <trkpt lat="37.451931000" lon="-4.203408000">
        <ele>583.5</ele>
        <time>2020-10-13T17:03:34Z</time>
      </trkpt>
      <trkpt lat="37.451858000" lon="-4.203251000">
        <ele>582.9</ele>
        <time>2020-10-13T17:03:36Z</time>
      </trkpt>
      <trkpt lat="37.451796000" lon="-4.203097000">
        <ele>582.4</ele>
        <time>2020-10-13T17:03:38Z</time>
      </trkpt>
      <trkpt lat="37.451741000" lon="-4.202935000">
        <ele>581.6</ele>
        <time>2020-10-13T17:03:40Z</time>
      </trkpt>
      <trkpt lat="37.451690000" lon="-4.202779000">
        <ele>580.8</ele>
        <time>2020-10-13T17:03:42Z</time>
      </trkpt>
      <trkpt lat="37.451642000" lon="-4.202646000">
        <ele>580.0</ele>
        <time>2020-10-13T17:03:45Z</time>
      </trkpt>
      <trkpt lat="37.451573000" lon="-4.202549000">
        <ele>579.3</ele>
        <time>2020-10-13T17:03:46Z</time>
      </trkpt>
      <trkpt lat="37.451470000" lon="-4.202489000">
        <ele>578.5</ele>
        <time>2020-10-13T17:03:48Z</time>
      </trkpt>
      <trkpt lat="37.451352000" lon="-4.202498000">
        <ele>578.0</ele>
        <time>2020-10-13T17:03:51Z</time>
      </trkpt>
      <trkpt lat="37.451243000" lon="-4.202588000">
        <ele>577.5</ele>
        <time>2020-10-13T17:03:52Z</time>
      </trkpt>
      <trkpt lat="37.451158000" lon="-4.202728000">
        <ele>576.8</ele>
        <time>2020-10-13T17:03:54Z</time>
      </trkpt>
      <trkpt lat="37.451092000" lon="-4.202887000">
        <ele>576.2</ele>
        <time>2020-10-13T17:03:56Z</time>
      </trkpt>
      <trkpt lat="37.451025000" lon="-4.203051000">
        <ele>575.5</ele>
        <time>2020-10-13T17:03:58Z</time>
      </trkpt>
      <trkpt lat="37.450951000" lon="-4.203216000">
        <ele>575.0</ele>
        <time>2020-10-13T17:04:00Z</time>
      </trkpt>
      <trkpt lat="37.450871000" lon="-4.203376000">
        <ele>574.6</ele>
        <time>2020-10-13T17:04:02Z</time>
      </trkpt>
      <trkpt lat="37.450763000" lon="-4.203503000">
        <ele>574.4</ele>
        <time>2020-10-13T17:04:04Z</time>
      </trkpt>
      <trkpt lat="37.450641000" lon="-4.203578000">
        <ele>574.3</ele>
        <time>2020-10-13T17:04:06Z</time>
      </trkpt>
      <trkpt lat="37.450524000" lon="-4.203617000">
        <ele>574.2</ele>
        <time>2020-10-13T17:04:08Z</time>
      </trkpt>
      <trkpt lat="37.450425000" lon="-4.203641000">
        <ele>574.1</ele>
        <time>2020-10-13T17:04:10Z</time>
      </trkpt>
      <trkpt lat="37.450325000" lon="-4.203657000">
        <ele>574.0</ele>
        <time>2020-10-13T17:04:13Z</time>
      </trkpt>
      <trkpt lat="37.450227000" lon="-4.203654000">
        <ele>573.9</ele>
        <time>2020-10-13T17:04:36Z</time>
      </trkpt>
      <trkpt lat="37.450129000" lon="-4.203625000">
        <ele>573.9</ele>
        <time>2020-10-13T17:04:40Z</time>
      </trkpt>
      <trkpt lat="37.450019000" lon="-4.203617000">
        <ele>574.0</ele>
        <time>2020-10-13T17:04:43Z</time>
      </trkpt>
      <trkpt lat="37.449938000" lon="-4.203611000">
        <ele>574.2</ele>
        <time>2020-10-13T17:04:45Z</time>
      </trkpt>
      <trkpt lat="37.449821000" lon="-4.203596000">
        <ele>574.4</ele>
        <time>2020-10-13T17:04:48Z</time>
      </trkpt>
      <trkpt lat="37.449712000" lon="-4.203587000">
        <ele>574.5</ele>
        <time>2020-10-13T17:04:51Z</time>
      </trkpt>
      <trkpt lat="37.449611000" lon="-4.203588000">
        <ele>574.8</ele>
        <time>2020-10-13T17:04:54Z</time>
      </trkpt>
      <trkpt lat="37.449513000" lon="-4.203581000">
        <ele>575.0</ele>
        <time>2020-10-13T17:04:57Z</time>
      </trkpt>
      <trkpt lat="37.449413000" lon="-4.203575000">
        <ele>575.3</ele>
        <time>2020-10-13T17:05:00Z</time>
      </trkpt>
      <trkpt lat="37.449314000" lon="-4.203555000">
        <ele>575.7</ele>
        <time>2020-10-13T17:05:03Z</time>
      </trkpt>
      <trkpt lat="37.449216000" lon="-4.203519000">
        <ele>576.2</ele>
        <time>2020-10-13T17:05:06Z</time>
      </trkpt>
      <trkpt lat="37.449126000" lon="-4.203448000">
        <ele>576.8</ele>
        <time>2020-10-13T17:05:09Z</time>
      </trkpt>
      <trkpt lat="37.449051000" lon="-4.203345000">
        <ele>577.5</ele>
        <time>2020-10-13T17:05:12Z</time>
      </trkpt>
      <trkpt lat="37.449001000" lon="-4.203222000">
        <ele>578.3</ele>
        <time>2020-10-13T17:05:15Z</time>
      </trkpt>
      <trkpt lat="37.448960000" lon="-4.203097000">
        <ele>578.9</ele>
        <time>2020-10-13T17:05:18Z</time>
      </trkpt>
      <trkpt lat="37.448938000" lon="-4.202991000">
        <ele>579.5</ele>
        <time>2020-10-13T17:05:21Z</time>
      </trkpt>
      <trkpt lat="37.448919000" lon="-4.202879000">
        <ele>580.2</ele>
        <time>2020-10-13T17:05:25Z</time>
      </trkpt>
      <trkpt lat="37.448939000" lon="-4.202773000">
        <ele>580.7</ele>
        <time>2020-10-13T17:05:29Z</time>
      </trkpt>
      <trkpt lat="37.448989000" lon="-4.202670000">
        <ele>581.3</ele>
        <time>2020-10-13T17:05:33Z</time>
      </trkpt>
      <trkpt lat="37.449057000" lon="-4.202583000">
        <ele>581.8</ele>
        <time>2020-10-13T17:05:37Z</time>
      </trkpt>
      <trkpt lat="37.449120000" lon="-4.202491000">
        <ele>582.3</ele>
        <time>2020-10-13T17:05:41Z</time>
      </trkpt>
      <trkpt lat="37.449155000" lon="-4.202394000">
        <ele>582.6</ele>
        <time>2020-10-13T17:05:45Z</time>
      </trkpt>
      <trkpt lat="37.449173000" lon="-4.202281000">
        <ele>582.8</ele>
        <time>2020-10-13T17:05:49Z</time>
      </trkpt>
      <trkpt lat="37.449187000" lon="-4.202158000">
        <ele>583.0</ele>
        <time>2020-10-13T17:05:53Z</time>
      </trkpt>
      <trkpt lat="37.449200000" lon="-4.202028000">
        <ele>583.3</ele>
        <time>2020-10-13T17:05:57Z</time>
      </trkpt>
      <trkpt lat="37.449200000" lon="-4.201907000">
        <ele>583.7</ele>
        <time>2020-10-13T17:06:01Z</time>
      </trkpt>
      <trkpt lat="37.449199000" lon="-4.201785000">
        <ele>584.3</ele>
        <time>2020-10-13T17:06:05Z</time>
      </trkpt>
      <trkpt lat="37.449185000" lon="-4.201662000">
        <ele>584.9</ele>
        <time>2020-10-13T17:06:09Z</time>
      </trkpt>
      <trkpt lat="37.449171000" lon="-4.201552000">
        <ele>585.5</ele>
        <time>2020-10-13T17:06:12Z</time>
      </trkpt>
      <trkpt lat="37.449146000" lon="-4.201437000">
        <ele>586.2</ele>
        <time>2020-10-13T17:06:15Z</time>
      </trkpt>
      <trkpt lat="37.449111000" lon="-4.201332000">
        <ele>586.7</ele>
        <time>2020-10-13T17:06:18Z</time>
      </trkpt>
      <trkpt lat="37.449053000" lon="-4.201247000">
        <ele>587.2</ele>
        <time>2020-10-13T17:06:21Z</time>
      </trkpt>
      <trkpt lat="37.448962000" lon="-4.201194000">
        <ele>587.6</ele>
        <time>2020-10-13T17:06:24Z</time>
      </trkpt>
      <trkpt lat="37.448851000" lon="-4.201204000">
        <ele>588.0</ele>
        <time>2020-10-13T17:06:27Z</time>
      </trkpt>
      <trkpt lat="37.448737000" lon="-4.201260000">
        <ele>588.3</ele>
        <time>2020-10-13T17:06:30Z</time>
      </trkpt>
      <trkpt lat="37.448649000" lon="-4.201300000">
        <ele>588.5</ele>
        <time>2020-10-13T17:06:32Z</time>
      </trkpt>
      <trkpt lat="37.448559000" lon="-4.201351000">
        <ele>588.5</ele>
        <time>2020-10-13T17:06:34Z</time>
      </trkpt>
      <trkpt lat="37.448465000" lon="-4.201403000">
        <ele>588.5</ele>
        <time>2020-10-13T17:06:36Z</time>
      </trkpt>
      <trkpt lat="37.448361000" lon="-4.201456000">
        <ele>588.5</ele>
        <time>2020-10-13T17:06:38Z</time>
      </trkpt>
      <trkpt lat="37.448267000" lon="-4.201506000">
        <ele>588.5</ele>
        <time>2020-10-13T17:06:40Z</time>
      </trkpt>
      <trkpt lat="37.448180000" lon="-4.201557000">
        <ele>588.5</ele>
        <time>2020-10-13T17:06:42Z</time>
      </trkpt>
      <trkpt lat="37.448092000" lon="-4.201606000">
        <ele>588.5</ele>
        <time>2020-10-13T17:06:44Z</time>
      </trkpt>
      <trkpt lat="37.448007000" lon="-4.201662000">
        <ele>588.5</ele>
        <time>2020-10-13T17:06:46Z</time>
      </trkpt>
      <trkpt lat="37.447921000" lon="-4.201711000">
        <ele>588.4</ele>
        <time>2020-10-13T17:06:48Z</time>
      </trkpt>
      <trkpt lat="37.447838000" lon="-4.201767000">
        <ele>588.3</ele>
        <time>2020-10-13T17:06:50Z</time>
      </trkpt>
      <trkpt lat="37.447760000" lon="-4.201813000">
        <ele>588.1</ele>
        <time>2020-10-13T17:06:52Z</time>
      </trkpt>
      <trkpt lat="37.447653000" lon="-4.201883000">
        <ele>587.7</ele>
        <time>2020-10-13T17:06:55Z</time>
      </trkpt>
      <trkpt lat="37.447547000" lon="-4.201903000">
        <ele>587.4</ele>
        <time>2020-10-13T17:06:58Z</time>
      </trkpt>
      <trkpt lat="37.447464000" lon="-4.201882000">
        <ele>587.0</ele>
        <time>2020-10-13T17:07:01Z</time>
      </trkpt>
      <trkpt lat="37.447380000" lon="-4.201817000">
        <ele>586.5</ele>
        <time>2020-10-13T17:07:02Z</time>
      </trkpt>
      <trkpt lat="37.447291000" lon="-4.201718000">
        <ele>586.0</ele>
        <time>2020-10-13T17:07:04Z</time>
      </trkpt>
      <trkpt lat="37.447194000" lon="-4.201601000">
        <ele>585.5</ele>
        <time>2020-10-13T17:07:06Z</time>
      </trkpt>
      <trkpt lat="37.447098000" lon="-4.201488000">
        <ele>585.0</ele>
        <time>2020-10-13T17:07:08Z</time>
      </trkpt>
      <trkpt lat="37.446998000" lon="-4.201390000">
        <ele>584.6</ele>
        <time>2020-10-13T17:07:10Z</time>
      </trkpt>
      <trkpt lat="37.446893000" lon="-4.201297000">
        <ele>584.5</ele>
        <time>2020-10-13T17:07:12Z</time>
      </trkpt>
      <trkpt lat="37.446784000" lon="-4.201225000">
        <ele>584.5</ele>
        <time>2020-10-13T17:07:14Z</time>
      </trkpt>
      <trkpt lat="37.446676000" lon="-4.201159000">
        <ele>584.6</ele>
        <time>2020-10-13T17:07:16Z</time>
      </trkpt>
      <trkpt lat="37.446575000" lon="-4.201094000">
        <ele>585.2</ele>
        <time>2020-10-13T17:07:18Z</time>
      </trkpt>
      <trkpt lat="37.446487000" lon="-4.201044000">
        <ele>585.7</ele>
        <time>2020-10-13T17:07:20Z</time>
      </trkpt>
      <trkpt lat="37.446406000" lon="-4.200996000">
        <ele>586.3</ele>
        <time>2020-10-13T17:07:22Z</time>
      </trkpt>
      <trkpt lat="37.446319000" lon="-4.200935000">
        <ele>587.0</ele>
        <time>2020-10-13T17:07:25Z</time>
      </trkpt>
      <trkpt lat="37.446233000" lon="-4.200872000">
        <ele>587.7</ele>
        <time>2020-10-13T17:07:29Z</time>
      </trkpt>
      <trkpt lat="37.446152000" lon="-4.200789000">
        <ele>588.5</ele>
        <time>2020-10-13T17:07:33Z</time>
      </trkpt>
      <trkpt lat="37.446110000" lon="-4.200695000">
        <ele>589.1</ele>
        <time>2020-10-13T17:07:36Z</time>
      </trkpt>
      <trkpt lat="37.446086000" lon="-4.200587000">
        <ele>589.7</ele>
        <time>2020-10-13T17:07:39Z</time>
      </trkpt>
      <trkpt lat="37.446069000" lon="-4.200479000">
        <ele>590.3</ele>
        <time>2020-10-13T17:07:42Z</time>
      </trkpt>
      <trkpt lat="37.446053000" lon="-4.200373000">
        <ele>590.8</ele>
        <time>2020-10-13T17:07:45Z</time>
      </trkpt>
      <trkpt lat="37.446029000" lon="-4.200243000">
        <ele>591.4</ele>
        <time>2020-10-13T17:07:49Z</time>
      </trkpt>
      <trkpt lat="37.445997000" lon="-4.200126000">
        <ele>591.7</ele>
        <time>2020-10-13T17:07:53Z</time>
      </trkpt>
      <trkpt lat="37.445962000" lon="-4.200010000">
        <ele>592.1</ele>
        <time>2020-10-13T17:07:57Z</time>
      </trkpt>
      <trkpt lat="37.445921000" lon="-4.199901000">
        <ele>592.5</ele>
        <time>2020-10-13T17:08:01Z</time>
      </trkpt>
      <trkpt lat="37.445879000" lon="-4.199790000">
        <ele>592.7</ele>
        <time>2020-10-13T17:08:05Z</time>
      </trkpt>
      <trkpt lat="37.445843000" lon="-4.199671000">
        <ele>593.0</ele>
        <time>2020-10-13T17:08:09Z</time>
      </trkpt>
      <trkpt lat="37.445806000" lon="-4.199548000">
        <ele>593.4</ele>
        <time>2020-10-13T17:08:13Z</time>
      </trkpt>
      <trkpt lat="37.445762000" lon="-4.199435000">
        <ele>593.8</ele>
        <time>2020-10-13T17:08:17Z</time>
      </trkpt>
      <trkpt lat="37.445719000" lon="-4.199326000">
        <ele>594.3</ele>
        <time>2020-10-13T17:08:21Z</time>
      </trkpt>
      <trkpt lat="37.445661000" lon="-4.199231000">
        <ele>594.9</ele>
        <time>2020-10-13T17:08:25Z</time>
      </trkpt>
      <trkpt lat="37.445594000" lon="-4.199144000">
        <ele>595.5</ele>
        <time>2020-10-13T17:08:29Z</time>
      </trkpt>
      <trkpt lat="37.445532000" lon="-4.199078000">
        <ele>596.0</ele>
        <time>2020-10-13T17:08:32Z</time>
      </trkpt>
      <trkpt lat="37.445458000" lon="-4.199014000">
        <ele>596.5</ele>
        <time>2020-10-13T17:08:36Z</time>
      </trkpt>
      <trkpt lat="37.445370000" lon="-4.198958000">
        <ele>597.2</ele>
        <time>2020-10-13T17:08:41Z</time>
      </trkpt>
      <trkpt lat="37.445292000" lon="-4.198906000">
        <ele>597.8</ele>
        <time>2020-10-13T17:08:45Z</time>
      </trkpt>
      <trkpt lat="37.445220000" lon="-4.198851000">
        <ele>598.5</ele>
        <time>2020-10-13T17:08:49Z</time>
      </trkpt>
      <trkpt lat="37.445139000" lon="-4.198800000">
        <ele>599.2</ele>
        <time>2020-10-13T17:08:53Z</time>
      </trkpt>
      <trkpt lat="37.445058000" lon="-4.198752000">
        <ele>599.9</ele>
        <time>2020-10-13T17:08:57Z</time>
      </trkpt>
      <trkpt lat="37.444972000" lon="-4.198707000">
        <ele>600.6</ele>
        <time>2020-10-13T17:09:01Z</time>
      </trkpt>
      <trkpt lat="37.444884000" lon="-4.198672000">
        <ele>601.3</ele>
        <time>2020-10-13T17:09:05Z</time>
      </trkpt>
      <trkpt lat="37.444789000" lon="-4.198657000">
        <ele>601.9</ele>
        <time>2020-10-13T17:09:09Z</time>
      </trkpt>
      <trkpt lat="37.444696000" lon="-4.198670000">
        <ele>602.6</ele>
        <time>2020-10-13T17:09:13Z</time>
      </trkpt>
      <trkpt lat="37.444608000" lon="-4.198707000">
        <ele>603.3</ele>
        <time>2020-10-13T17:09:17Z</time>
      </trkpt>
      <trkpt lat="37.444518000" lon="-4.198740000">
        <ele>603.9</ele>
        <time>2020-10-13T17:09:22Z</time>
      </trkpt>
      <trkpt lat="37.444434000" lon="-4.198778000">
        <ele>604.5</ele>
        <time>2020-10-13T17:09:26Z</time>
      </trkpt>
      <trkpt lat="37.444342000" lon="-4.198796000">
        <ele>605.1</ele>
        <time>2020-10-13T17:09:31Z</time>
      </trkpt>
      <trkpt lat="37.444243000" lon="-4.198793000">
        <ele>605.8</ele>
        <time>2020-10-13T17:09:36Z</time>
      </trkpt>
      <trkpt lat="37.444165000" lon="-4.198763000">
        <ele>606.6</ele>
        <time>2020-10-13T17:09:40Z</time>
      </trkpt>
      <trkpt lat="37.444085000" lon="-4.198741000">
        <ele>607.5</ele>
        <time>2020-10-13T17:09:44Z</time>
      </trkpt>
      <trkpt lat="37.444004000" lon="-4.198726000">
        <ele>608.1</ele>
        <time>2020-10-13T17:09:48Z</time>
      </trkpt>
      <trkpt lat="37.443917000" lon="-4.198729000">
        <ele>608.7</ele>
        <time>2020-10-13T17:09:52Z</time>
      </trkpt>
      <trkpt lat="37.443819000" lon="-4.198728000">
        <ele>609.2</ele>
        <time>2020-10-13T17:09:57Z</time>
      </trkpt>
      <trkpt lat="37.443724000" lon="-4.198723000">
        <ele>609.5</ele>
        <time>2020-10-13T17:10:02Z</time>
      </trkpt>
      <trkpt lat="37.443632000" lon="-4.198715000">
        <ele>610.0</ele>
        <time>2020-10-13T17:10:07Z</time>
      </trkpt>
      <trkpt lat="37.443550000" lon="-4.198682000">
        <ele>610.5</ele>
        <time>2020-10-13T17:10:11Z</time>
      </trkpt>
      <trkpt lat="37.443470000" lon="-4.198641000">
        <ele>611.2</ele>
        <time>2020-10-13T17:10:15Z</time>
      </trkpt>
      <trkpt lat="37.443388000" lon="-4.198613000">
        <ele>611.8</ele>
        <time>2020-10-13T17:10:19Z</time>
      </trkpt>
      <trkpt lat="37.443308000" lon="-4.198597000">
        <ele>612.5</ele>
        <time>2020-10-13T17:10:23Z</time>
      </trkpt>
      <trkpt lat="37.443208000" lon="-4.198598000">
        <ele>612.9</ele>
        <time>2020-10-13T17:10:28Z</time>
      </trkpt>
      <trkpt lat="37.443119000" lon="-4.198615000">
        <ele>613.3</ele>
        <time>2020-10-13T17:10:32Z</time>
      </trkpt>
      <trkpt lat="37.443025000" lon="-4.198641000">
        <ele>613.8</ele>
        <time>2020-10-13T17:10:36Z</time>
      </trkpt>
      <trkpt lat="37.442929000" lon="-4.198647000">
        <ele>614.4</ele>
        <time>2020-10-13T17:10:40Z</time>
      </trkpt>
      <trkpt lat="37.442837000" lon="-4.198627000">
        <ele>615.0</ele>
        <time>2020-10-13T17:10:44Z</time>
      </trkpt>
      <trkpt lat="37.442750000" lon="-4.198584000">
        <ele>615.7</ele>
        <time>2020-10-13T17:10:48Z</time>
      </trkpt>
      <trkpt lat="37.442656000" lon="-4.198516000">
        <ele>616.5</ele>
        <time>2020-10-13T17:10:52Z</time>
      </trkpt>
      <trkpt lat="37.442584000" lon="-4.198466000">
        <ele>617.1</ele>
        <time>2020-10-13T17:10:55Z</time>
      </trkpt>
      <trkpt lat="37.442489000" lon="-4.198444000">
        <ele>617.5</ele>
        <time>2020-10-13T17:10:59Z</time>
      </trkpt>
      <trkpt lat="37.442395000" lon="-4.198450000">
        <ele>617.9</ele>
        <time>2020-10-13T17:11:03Z</time>
      </trkpt>
      <trkpt lat="37.442294000" lon="-4.198448000">
        <ele>618.3</ele>
        <time>2020-10-13T17:11:07Z</time>
      </trkpt>
      <trkpt lat="37.442206000" lon="-4.198417000">
        <ele>618.6</ele>
        <time>2020-10-13T17:11:12Z</time>
      </trkpt>
      <trkpt lat="37.442144000" lon="-4.198344000">
        <ele>619.1</ele>
        <time>2020-10-13T17:11:15Z</time>
      </trkpt>
      <trkpt lat="37.442090000" lon="-4.198241000">
        <ele>619.4</ele>
        <time>2020-10-13T17:11:18Z</time>
      </trkpt>
      <trkpt lat="37.442036000" lon="-4.198132000">
        <ele>619.6</ele>
        <time>2020-10-13T17:11:21Z</time>
      </trkpt>
      <trkpt lat="37.441987000" lon="-4.198016000">
        <ele>619.9</ele>
        <time>2020-10-13T17:11:24Z</time>
      </trkpt>
      <trkpt lat="37.441923000" lon="-4.197917000">
        <ele>620.2</ele>
        <time>2020-10-13T17:11:27Z</time>
      </trkpt>
      <trkpt lat="37.441869000" lon="-4.197803000">
        <ele>620.4</ele>
        <time>2020-10-13T17:11:30Z</time>
      </trkpt>
      <trkpt lat="37.441820000" lon="-4.197667000">
        <ele>620.6</ele>
        <time>2020-10-13T17:11:33Z</time>
      </trkpt>
      <trkpt lat="37.441782000" lon="-4.197527000">
        <ele>621.0</ele>
        <time>2020-10-13T17:11:36Z</time>
      </trkpt>
      <trkpt lat="37.441743000" lon="-4.197398000">
        <ele>621.5</ele>
        <time>2020-10-13T17:11:39Z</time>
      </trkpt>
      <trkpt lat="37.441703000" lon="-4.197273000">
        <ele>621.8</ele>
        <time>2020-10-13T17:11:42Z</time>
      </trkpt>
      <trkpt lat="37.441675000" lon="-4.197153000">
        <ele>622.3</ele>
        <time>2020-10-13T17:11:45Z</time>
      </trkpt>
      <trkpt lat="37.441661000" lon="-4.197043000">
        <ele>622.6</ele>
        <time>2020-10-13T17:11:48Z</time>
      </trkpt>
      <trkpt lat="37.441655000" lon="-4.196938000">
        <ele>623.2</ele>
        <time>2020-10-13T17:11:51Z</time>
      </trkpt>
      <trkpt lat="37.441646000" lon="-4.196834000">
        <ele>623.7</ele>
        <time>2020-10-13T17:11:54Z</time>
      </trkpt>
      <trkpt lat="37.441643000" lon="-4.196703000">
        <ele>624.3</ele>
        <time>2020-10-13T17:11:58Z</time>
      </trkpt>
      <trkpt lat="37.441637000" lon="-4.196589000">
        <ele>624.7</ele>
        <time>2020-10-13T17:12:02Z</time>
      </trkpt>
      <trkpt lat="37.441611000" lon="-4.196491000">
        <ele>625.2</ele>
        <time>2020-10-13T17:12:46Z</time>
      </trkpt>
      <trkpt lat="37.441597000" lon="-4.196366000">
        <ele>625.6</ele>
        <time>2020-10-13T17:12:51Z</time>
      </trkpt>
      <trkpt lat="37.441544000" lon="-4.196286000">
        <ele>626.1</ele>
        <time>2020-10-13T17:12:55Z</time>
      </trkpt>
      <trkpt lat="37.441460000" lon="-4.196309000">
        <ele>626.5</ele>
        <time>2020-10-13T17:12:59Z</time>
      </trkpt>
      <trkpt lat="37.441361000" lon="-4.196359000">
        <ele>626.9</ele>
        <time>2020-10-13T17:13:03Z</time>
      </trkpt>
      <trkpt lat="37.441282000" lon="-4.196396000">
        <ele>627.3</ele>
        <time>2020-10-13T17:13:06Z</time>
      </trkpt>
      <trkpt lat="37.441201000" lon="-4.196436000">
        <ele>627.6</ele>
        <time>2020-10-13T17:13:09Z</time>
      </trkpt>
      <trkpt lat="37.441106000" lon="-4.196486000">
        <ele>628.0</ele>
        <time>2020-10-13T17:13:13Z</time>
      </trkpt>
      <trkpt lat="37.441015000" lon="-4.196542000">
        <ele>628.5</ele>
        <time>2020-10-13T17:13:17Z</time>
      </trkpt>
      <trkpt lat="37.440920000" lon="-4.196593000">
        <ele>628.8</ele>
        <time>2020-10-13T17:13:21Z</time>
      </trkpt>
      <trkpt lat="37.440843000" lon="-4.196635000">
        <ele>629.3</ele>
        <time>2020-10-13T17:13:24Z</time>
      </trkpt>
      <trkpt lat="37.440766000" lon="-4.196671000">
        <ele>629.7</ele>
        <time>2020-10-13T17:13:27Z</time>
      </trkpt>
      <trkpt lat="37.440665000" lon="-4.196710000">
        <ele>630.2</ele>
        <time>2020-10-13T17:13:31Z</time>
      </trkpt>
      <trkpt lat="37.440564000" lon="-4.196743000">
        <ele>630.7</ele>
        <time>2020-10-13T17:13:35Z</time>
      </trkpt>
      <trkpt lat="37.440486000" lon="-4.196778000">
        <ele>631.3</ele>
        <time>2020-10-13T17:13:38Z</time>
      </trkpt>
      <trkpt lat="37.440391000" lon="-4.196807000">
        <ele>631.8</ele>
        <time>2020-10-13T17:13:42Z</time>
      </trkpt>
      <trkpt lat="37.440310000" lon="-4.196791000">
        <ele>632.4</ele>
        <time>2020-10-13T17:13:46Z</time>
      </trkpt>
      <trkpt lat="37.440217000" lon="-4.196783000">
        <ele>633.0</ele>
        <time>2020-10-13T17:13:52Z</time>
      </trkpt>
      <trkpt lat="37.440145000" lon="-4.196734000">
        <ele>633.6</ele>
        <time>2020-10-13T17:13:56Z</time>
      </trkpt>
      <trkpt lat="37.440080000" lon="-4.196672000">
        <ele>634.3</ele>
        <time>2020-10-13T17:14:00Z</time>
      </trkpt>
      <trkpt lat="37.440011000" lon="-4.196613000">
        <ele>635.1</ele>
        <time>2020-10-13T17:14:04Z</time>
      </trkpt>
      <trkpt lat="37.439939000" lon="-4.196541000">
        <ele>636.0</ele>
        <time>2020-10-13T17:14:09Z</time>
      </trkpt>
      <trkpt lat="37.439868000" lon="-4.196486000">
        <ele>637.2</ele>
        <time>2020-10-13T17:14:14Z</time>
      </trkpt>
      <trkpt lat="37.439796000" lon="-4.196416000">
        <ele>638.5</ele>
        <time>2020-10-13T17:14:19Z</time>
      </trkpt>
      <trkpt lat="37.439720000" lon="-4.196350000">
        <ele>639.8</ele>
        <time>2020-10-13T17:14:24Z</time>
      </trkpt>
      <trkpt lat="37.439654000" lon="-4.196282000">
        <ele>641.2</ele>
        <time>2020-10-13T17:14:29Z</time>
      </trkpt>
      <trkpt lat="37.439586000" lon="-4.196206000">
        <ele>642.5</ele>
        <time>2020-10-13T17:14:34Z</time>
      </trkpt>
      <trkpt lat="37.439517000" lon="-4.196131000">
        <ele>643.7</ele>
        <time>2020-10-13T17:14:42Z</time>
      </trkpt>
      <trkpt lat="37.439468000" lon="-4.196048000">
        <ele>644.8</ele>
        <time>2020-10-13T17:14:47Z</time>
      </trkpt>
      <trkpt lat="37.439457000" lon="-4.195922000">
        <ele>645.8</ele>
        <time>2020-10-13T17:14:52Z</time>
      </trkpt>
      <trkpt lat="37.439481000" lon="-4.195823000">
        <ele>646.7</ele>
        <time>2020-10-13T17:14:56Z</time>
      </trkpt>
      <trkpt lat="37.439499000" lon="-4.195711000">
        <ele>647.5</ele>
        <time>2020-10-13T17:15:01Z</time>
      </trkpt>
      <trkpt lat="37.439537000" lon="-4.195608000">
        <ele>648.1</ele>
        <time>2020-10-13T17:15:06Z</time>
      </trkpt>
      <trkpt lat="37.439585000" lon="-4.195508000">
        <ele>648.6</ele>
        <time>2020-10-13T17:15:12Z</time>
      </trkpt>
      <trkpt lat="37.439620000" lon="-4.195412000">
        <ele>649.3</ele>
        <time>2020-10-13T17:15:17Z</time>
      </trkpt>
      <trkpt lat="37.439653000" lon="-4.195318000">
        <ele>649.8</ele>
        <time>2020-10-13T17:15:22Z</time>
      </trkpt>
      <trkpt lat="37.439681000" lon="-4.195205000">
        <ele>650.5</ele>
        <time>2020-10-13T17:15:28Z</time>
      </trkpt>
      <trkpt lat="37.439651000" lon="-4.195105000">
        <ele>651.2</ele>
        <time>2020-10-13T17:15:33Z</time>
      </trkpt>
      <trkpt lat="37.439573000" lon="-4.195049000">
        <ele>652.0</ele>
        <time>2020-10-13T17:15:38Z</time>
      </trkpt>
      <trkpt lat="37.439483000" lon="-4.195025000">
        <ele>653.0</ele>
        <time>2020-10-13T17:15:43Z</time>
      </trkpt>
      <trkpt lat="37.439388000" lon="-4.194994000">
        <ele>654.0</ele>
        <time>2020-10-13T17:15:48Z</time>
      </trkpt>
      <trkpt lat="37.439297000" lon="-4.194962000">
        <ele>655.1</ele>
        <time>2020-10-13T17:15:54Z</time>
      </trkpt>
      <trkpt lat="37.439216000" lon="-4.194970000">
        <ele>656.2</ele>
        <time>2020-10-13T17:15:59Z</time>
      </trkpt>
      <trkpt lat="37.439118000" lon="-4.194914000">
        <ele>657.2</ele>
        <time>2020-10-13T17:16:06Z</time>
      </trkpt>
      <trkpt lat="37.439037000" lon="-4.194880000">
        <ele>658.0</ele>
        <time>2020-10-13T17:16:09Z</time>
      </trkpt>
      <trkpt lat="37.438946000" lon="-4.194827000">
        <ele>658.5</ele>
        <time>2020-10-13T17:16:13Z</time>
      </trkpt>
      <trkpt lat="37.438856000" lon="-4.194780000">
        <ele>659.1</ele>
        <time>2020-10-13T17:16:17Z</time>
      </trkpt>
      <trkpt lat="37.438761000" lon="-4.194720000">
        <ele>659.5</ele>
        <time>2020-10-13T17:16:21Z</time>
      </trkpt>
      <trkpt lat="37.438682000" lon="-4.194675000">
        <ele>659.9</ele>
        <time>2020-10-13T17:16:24Z</time>
      </trkpt>
      <trkpt lat="37.438599000" lon="-4.194628000">
        <ele>660.2</ele>
        <time>2020-10-13T17:16:27Z</time>
      </trkpt>
      <trkpt lat="37.438509000" lon="-4.194584000">
        <ele>660.4</ele>
        <time>2020-10-13T17:16:31Z</time>
      </trkpt>
      <trkpt lat="37.438447000" lon="-4.194499000">
        <ele>660.5</ele>
        <time>2020-10-13T17:16:34Z</time>
      </trkpt>
      <trkpt lat="37.438422000" lon="-4.194398000">
        <ele>660.6</ele>
        <time>2020-10-13T17:16:37Z</time>
      </trkpt>
      <trkpt lat="37.438424000" lon="-4.194284000">
        <ele>660.7</ele>
        <time>2020-10-13T17:16:41Z</time>
      </trkpt>
      <trkpt lat="37.438397000" lon="-4.194179000">
        <ele>660.7</ele>
        <time>2020-10-13T17:19:31Z</time>
      </trkpt>
      <trkpt lat="37.438390000" lon="-4.194072000">
        <ele>660.7</ele>
        <time>2020-10-13T17:19:37Z</time>
      </trkpt>
      <trkpt lat="37.438363000" lon="-4.193953000">
        <ele>660.6</ele>
        <time>2020-10-13T17:19:43Z</time>
      </trkpt>
      <trkpt lat="37.438333000" lon="-4.193852000">
        <ele>660.5</ele>
        <time>2020-10-13T17:19:49Z</time>
      </trkpt>
      <trkpt lat="37.438302000" lon="-4.193746000">
        <ele>660.4</ele>
        <time>2020-10-13T17:19:55Z</time>
      </trkpt>
      <trkpt lat="37.438252000" lon="-4.193652000">
        <ele>660.3</ele>
        <time>2020-10-13T17:20:02Z</time>
      </trkpt>
      <trkpt lat="37.438203000" lon="-4.193555000">
        <ele>660.2</ele>
        <time>2020-10-13T17:20:07Z</time>
      </trkpt>
      <trkpt lat="37.438274000" lon="-4.193479000">
        <ele>660.1</ele>
        <time>2020-10-13T17:20:31Z</time>
      </trkpt>
      <trkpt lat="37.438309000" lon="-4.193468000">
        <ele>660.0</ele>
        <time>2020-10-13T17:20:52Z</time>
      </trkpt>
      <trkpt lat="37.439373000" lon="-4.193181000">
        <ele>656.0</ele>
        <time>2020-10-14T08:09:50Z</time>
      </trkpt>
      <trkpt lat="37.439306000" lon="-4.193101000">
        <ele>656.0</ele>
        <time>2020-10-14T08:09:58Z</time>
      </trkpt>
      <trkpt lat="37.439274000" lon="-4.193007000">
        <ele>655.9</ele>
        <time>2020-10-14T08:10:20Z</time>
      </trkpt>
      <trkpt lat="37.439190000" lon="-4.192948000">
        <ele>655.7</ele>
        <time>2020-10-14T08:11:12Z</time>
      </trkpt>
      <trkpt lat="37.439116000" lon="-4.192890000">
        <ele>655.4</ele>
        <time>2020-10-14T08:11:16Z</time>
      </trkpt>
      <trkpt lat="37.439048000" lon="-4.192834000">
        <ele>655.1</ele>
        <time>2020-10-14T08:11:19Z</time>
      </trkpt>
      <trkpt lat="37.438960000" lon="-4.192752000">
        <ele>654.7</ele>
        <time>2020-10-14T08:11:22Z</time>
      </trkpt>
      <trkpt lat="37.438874000" lon="-4.192651000">
        <ele>654.4</ele>
        <time>2020-10-14T08:11:24Z</time>
      </trkpt>
      <trkpt lat="37.438784000" lon="-4.192553000">
        <ele>654.0</ele>
        <time>2020-10-14T08:11:26Z</time>
      </trkpt>
      <trkpt lat="37.438707000" lon="-4.192464000">
        <ele>653.6</ele>
        <time>2020-10-14T08:11:28Z</time>
      </trkpt>
      <trkpt lat="37.438614000" lon="-4.192388000">
        <ele>653.3</ele>
        <time>2020-10-14T08:11:30Z</time>
      </trkpt>
      <trkpt lat="37.438538000" lon="-4.192302000">
        <ele>652.9</ele>
        <time>2020-10-14T08:11:33Z</time>
      </trkpt>
      <trkpt lat="37.438603000" lon="-4.192200000">
        <ele>652.5</ele>
        <time>2020-10-14T08:11:37Z</time>
      </trkpt>
      <trkpt lat="37.438630000" lon="-4.192059000">
        <ele>652.3</ele>
        <time>2020-10-14T08:11:40Z</time>
      </trkpt>
      <trkpt lat="37.438644000" lon="-4.191959000">
        <ele>652.1</ele>
        <time>2020-10-14T08:11:42Z</time>
      </trkpt>
      <trkpt lat="37.438671000" lon="-4.191813000">
        <ele>652.0</ele>
        <time>2020-10-14T08:11:45Z</time>
      </trkpt>
      <trkpt lat="37.438697000" lon="-4.191688000">
        <ele>652.0</ele>
        <time>2020-10-14T08:11:48Z</time>
      </trkpt>
      <trkpt lat="37.438729000" lon="-4.191583000">
        <ele>652.0</ele>
        <time>2020-10-14T08:11:51Z</time>
      </trkpt>
      <trkpt lat="37.438736000" lon="-4.191448000">
        <ele>651.9</ele>
        <time>2020-10-14T08:11:54Z</time>
      </trkpt>
      <trkpt lat="37.438717000" lon="-4.191325000">
        <ele>651.8</ele>
        <time>2020-10-14T08:11:57Z</time>
      </trkpt>
      <trkpt lat="37.438728000" lon="-4.191202000">
        <ele>651.6</ele>
        <time>2020-10-14T08:12:01Z</time>
      </trkpt>
      <trkpt lat="37.438733000" lon="-4.191077000">
        <ele>651.3</ele>
        <time>2020-10-14T08:12:04Z</time>
      </trkpt>
      <trkpt lat="37.438736000" lon="-4.190939000">
        <ele>650.8</ele>
        <time>2020-10-14T08:12:07Z</time>
      </trkpt>
      <trkpt lat="37.438752000" lon="-4.190807000">
        <ele>650.3</ele>
        <time>2020-10-14T08:12:10Z</time>
      </trkpt>
      <trkpt lat="37.438761000" lon="-4.190670000">
        <ele>649.7</ele>
        <time>2020-10-14T08:12:13Z</time>
      </trkpt>
      <trkpt lat="37.438756000" lon="-4.190539000">
        <ele>649.2</ele>
        <time>2020-10-14T08:12:16Z</time>
      </trkpt>
      <trkpt lat="37.438749000" lon="-4.190413000">
        <ele>648.5</ele>
        <time>2020-10-14T08:12:19Z</time>
      </trkpt>
      <trkpt lat="37.438757000" lon="-4.190300000">
        <ele>647.8</ele>
        <time>2020-10-14T08:12:23Z</time>
      </trkpt>
      <trkpt lat="37.438831000" lon="-4.190246000">
        <ele>647.1</ele>
        <time>2020-10-14T08:12:29Z</time>
      </trkpt>
      <trkpt lat="37.438935000" lon="-4.190249000">
        <ele>646.5</ele>
        <time>2020-10-14T08:12:33Z</time>
      </trkpt>
      <trkpt lat="37.439033000" lon="-4.190220000">
        <ele>645.7</ele>
        <time>2020-10-14T08:12:36Z</time>
      </trkpt>
      <trkpt lat="37.439105000" lon="-4.190157000">
        <ele>644.9</ele>
        <time>2020-10-14T08:12:39Z</time>
      </trkpt>
      <trkpt lat="37.439202000" lon="-4.190113000">
        <ele>644.2</ele>
        <time>2020-10-14T08:12:43Z</time>
      </trkpt>
      <trkpt lat="37.439297000" lon="-4.190087000">
        <ele>643.5</ele>
        <time>2020-10-14T08:12:47Z</time>
      </trkpt>
      <trkpt lat="37.439382000" lon="-4.190094000">
        <ele>642.6</ele>
        <time>2020-10-14T08:12:52Z</time>
      </trkpt>
      <trkpt lat="37.439481000" lon="-4.190086000">
        <ele>641.7</ele>
        <time>2020-10-14T08:12:56Z</time>
      </trkpt>
      <trkpt lat="37.439579000" lon="-4.190097000">
        <ele>640.7</ele>
        <time>2020-10-14T08:13:00Z</time>
      </trkpt>
      <trkpt lat="37.439667000" lon="-4.190107000">
        <ele>639.6</ele>
        <time>2020-10-14T08:13:05Z</time>
      </trkpt>
      <trkpt lat="37.439755000" lon="-4.190128000">
        <ele>638.8</ele>
        <time>2020-10-14T08:13:09Z</time>
      </trkpt>
      <trkpt lat="37.439862000" lon="-4.190143000">
        <ele>638.2</ele>
        <time>2020-10-14T08:13:13Z</time>
      </trkpt>
      <trkpt lat="37.439952000" lon="-4.190167000">
        <ele>637.7</ele>
        <time>2020-10-14T08:13:16Z</time>
      </trkpt>
      <trkpt lat="37.440039000" lon="-4.190188000">
        <ele>637.5</ele>
        <time>2020-10-14T08:13:19Z</time>
      </trkpt>
      <trkpt lat="37.440119000" lon="-4.190216000">
        <ele>637.5</ele>
        <time>2020-10-14T08:13:23Z</time>
      </trkpt>
      <trkpt lat="37.440031000" lon="-4.190195000">
        <ele>637.6</ele>
        <time>2020-10-14T08:14:36Z</time>
      </trkpt>
      <trkpt lat="37.439940000" lon="-4.190182000">
        <ele>638.0</ele>
        <time>2020-10-14T08:14:40Z</time>
      </trkpt>
      <trkpt lat="37.439852000" lon="-4.190172000">
        <ele>638.6</ele>
        <time>2020-10-14T08:14:44Z</time>
      </trkpt>
      <trkpt lat="37.439764000" lon="-4.190153000">
        <ele>639.4</ele>
        <time>2020-10-14T08:14:48Z</time>
      </trkpt>
      <trkpt lat="37.439676000" lon="-4.190133000">
        <ele>640.3</ele>
        <time>2020-10-14T08:14:52Z</time>
      </trkpt>
      <trkpt lat="37.439585000" lon="-4.190119000">
        <ele>641.4</ele>
        <time>2020-10-14T08:14:56Z</time>
      </trkpt>
      <trkpt lat="37.439494000" lon="-4.190116000">
        <ele>642.4</ele>
        <time>2020-10-14T08:15:00Z</time>
      </trkpt>
      <trkpt lat="37.439391000" lon="-4.190115000">
        <ele>643.3</ele>
        <time>2020-10-14T08:15:04Z</time>
      </trkpt>
      <trkpt lat="37.439309000" lon="-4.190111000">
        <ele>644.0</ele>
        <time>2020-10-14T08:15:07Z</time>
      </trkpt>
      <trkpt lat="37.439227000" lon="-4.190129000">
        <ele>644.6</ele>
        <time>2020-10-14T08:15:10Z</time>
      </trkpt>
      <trkpt lat="37.439134000" lon="-4.190164000">
        <ele>645.3</ele>
        <time>2020-10-14T08:15:14Z</time>
      </trkpt>
      <trkpt lat="37.439058000" lon="-4.190204000">
        <ele>646.0</ele>
        <time>2020-10-14T08:15:18Z</time>
      </trkpt>
      <trkpt lat="37.438979000" lon="-4.190251000">
        <ele>646.7</ele>
        <time>2020-10-14T08:15:22Z</time>
      </trkpt>
      <trkpt lat="37.438898000" lon="-4.190257000">
        <ele>647.4</ele>
        <time>2020-10-14T08:15:26Z</time>
      </trkpt>
      <trkpt lat="37.438819000" lon="-4.190287000">
        <ele>648.1</ele>
        <time>2020-10-14T08:15:31Z</time>
      </trkpt>
      <trkpt lat="37.438810000" lon="-4.190407000">
        <ele>648.7</ele>
        <time>2020-10-14T08:15:36Z</time>
      </trkpt>
      <trkpt lat="37.438809000" lon="-4.190535000">
        <ele>649.5</ele>
        <time>2020-10-14T08:15:40Z</time>
      </trkpt>
      <trkpt lat="37.438815000" lon="-4.190639000">
        <ele>650.1</ele>
        <time>2020-10-14T08:15:43Z</time>
      </trkpt>
      <trkpt lat="37.438815000" lon="-4.190767000">
        <ele>650.6</ele>
        <time>2020-10-14T08:15:47Z</time>
      </trkpt>
      <trkpt lat="37.438824000" lon="-4.190878000">
        <ele>651.2</ele>
        <time>2020-10-14T08:15:50Z</time>
      </trkpt>
      <trkpt lat="37.438832000" lon="-4.190995000">
        <ele>651.6</ele>
        <time>2020-10-14T08:15:53Z</time>
      </trkpt>
      <trkpt lat="37.438834000" lon="-4.191112000">
        <ele>652.0</ele>
        <time>2020-10-14T08:15:56Z</time>
      </trkpt>
      <trkpt lat="37.438833000" lon="-4.191249000">
        <ele>652.3</ele>
        <time>2020-10-14T08:16:00Z</time>
      </trkpt>
      <trkpt lat="37.438803000" lon="-4.191363000">
        <ele>652.4</ele>
        <time>2020-10-14T08:16:03Z</time>
      </trkpt>
      <trkpt lat="37.438769000" lon="-4.191477000">
        <ele>652.5</ele>
        <time>2020-10-14T08:16:06Z</time>
      </trkpt>
      <trkpt lat="37.438735000" lon="-4.191613000">
        <ele>652.5</ele>
        <time>2020-10-14T08:16:09Z</time>
      </trkpt>
      <trkpt lat="37.438709000" lon="-4.191746000">
        <ele>652.5</ele>
        <time>2020-10-14T08:16:12Z</time>
      </trkpt>
      <trkpt lat="37.438690000" lon="-4.191876000">
        <ele>652.4</ele>
        <time>2020-10-14T08:16:15Z</time>
      </trkpt>
      <trkpt lat="37.438662000" lon="-4.192008000">
        <ele>652.3</ele>
        <time>2020-10-14T08:16:18Z</time>
      </trkpt>
      <trkpt lat="37.438620000" lon="-4.192139000">
        <ele>652.2</ele>
        <time>2020-10-14T08:16:21Z</time>
      </trkpt>
      <trkpt lat="37.438570000" lon="-4.192233000">
        <ele>652.2</ele>
        <time>2020-10-14T08:16:24Z</time>
      </trkpt>
      <trkpt lat="37.438490000" lon="-4.192265000">
        <ele>652.3</ele>
        <time>2020-10-14T08:16:33Z</time>
      </trkpt>
      <trkpt lat="37.438401000" lon="-4.192203000">
        <ele>652.4</ele>
        <time>2020-10-14T08:16:37Z</time>
      </trkpt>
      <trkpt lat="37.438315000" lon="-4.192164000">
        <ele>652.5</ele>
        <time>2020-10-14T08:16:40Z</time>
      </trkpt>
      <trkpt lat="37.438236000" lon="-4.192118000">
        <ele>652.6</ele>
        <time>2020-10-14T08:16:43Z</time>
      </trkpt>
      <trkpt lat="37.438160000" lon="-4.192077000">
        <ele>652.7</ele>
        <time>2020-10-14T08:16:46Z</time>
      </trkpt>
      <trkpt lat="37.438069000" lon="-4.192026000">
        <ele>652.8</ele>
        <time>2020-10-14T08:16:50Z</time>
      </trkpt>
      <trkpt lat="37.437983000" lon="-4.191968000">
        <ele>652.8</ele>
        <time>2020-10-14T08:16:54Z</time>
      </trkpt>
      <trkpt lat="37.437912000" lon="-4.191907000">
        <ele>652.8</ele>
        <time>2020-10-14T08:17:04Z</time>
      </trkpt>
      <trkpt lat="37.437825000" lon="-4.191877000">
        <ele>652.7</ele>
        <time>2020-10-14T08:17:12Z</time>
      </trkpt>
      <trkpt lat="37.437764000" lon="-4.191804000">
        <ele>652.5</ele>
        <time>2020-10-14T08:17:17Z</time>
      </trkpt>
      <trkpt lat="37.437721000" lon="-4.191716000">
        <ele>652.3</ele>
        <time>2020-10-14T08:17:20Z</time>
      </trkpt>
      <trkpt lat="37.437687000" lon="-4.191606000">
        <ele>651.9</ele>
        <time>2020-10-14T08:17:23Z</time>
      </trkpt>
      <trkpt lat="37.437683000" lon="-4.191477000">
        <ele>651.5</ele>
        <time>2020-10-14T08:17:26Z</time>
      </trkpt>
      <trkpt lat="37.437708000" lon="-4.191345000">
        <ele>650.9</ele>
        <time>2020-10-14T08:17:29Z</time>
      </trkpt>
      <trkpt lat="37.437743000" lon="-4.191216000">
        <ele>650.2</ele>
        <time>2020-10-14T08:17:32Z</time>
      </trkpt>
      <trkpt lat="37.437772000" lon="-4.191084000">
        <ele>649.4</ele>
        <time>2020-10-14T08:17:35Z</time>
      </trkpt>
      <trkpt lat="37.437795000" lon="-4.190969000">
        <ele>648.4</ele>
        <time>2020-10-14T08:17:38Z</time>
      </trkpt>
      <trkpt lat="37.437819000" lon="-4.190850000">
        <ele>647.2</ele>
        <time>2020-10-14T08:17:41Z</time>
      </trkpt>
      <trkpt lat="37.437811000" lon="-4.190732000">
        <ele>645.8</ele>
        <time>2020-10-14T08:17:44Z</time>
      </trkpt>
      <trkpt lat="37.437801000" lon="-4.190601000">
        <ele>644.3</ele>
        <time>2020-10-14T08:17:47Z</time>
      </trkpt>
      <trkpt lat="37.437795000" lon="-4.190470000">
        <ele>642.6</ele>
        <time>2020-10-14T08:17:50Z</time>
      </trkpt>
      <trkpt lat="37.437788000" lon="-4.190364000">
        <ele>640.8</ele>
        <time>2020-10-14T08:17:53Z</time>
      </trkpt>
      <trkpt lat="37.437789000" lon="-4.190244000">
        <ele>639.0</ele>
        <time>2020-10-14T08:17:56Z</time>
      </trkpt>
      <trkpt lat="37.437791000" lon="-4.190110000">
        <ele>636.9</ele>
        <time>2020-10-14T08:17:59Z</time>
      </trkpt>
      <trkpt lat="37.437770000" lon="-4.190002000">
        <ele>634.9</ele>
        <time>2020-10-14T08:18:02Z</time>
      </trkpt>
      <trkpt lat="37.437723000" lon="-4.189886000">
        <ele>632.9</ele>
        <time>2020-10-14T08:18:05Z</time>
      </trkpt>
      <trkpt lat="37.437674000" lon="-4.189795000">
        <ele>631.1</ele>
        <time>2020-10-14T08:18:08Z</time>
      </trkpt>
      <trkpt lat="37.437628000" lon="-4.189699000">
        <ele>629.5</ele>
        <time>2020-10-14T08:18:11Z</time>
      </trkpt>
      <trkpt lat="37.437571000" lon="-4.189586000">
        <ele>628.0</ele>
        <time>2020-10-14T08:18:14Z</time>
      </trkpt>
      <trkpt lat="37.437518000" lon="-4.189498000">
        <ele>626.7</ele>
        <time>2020-10-14T08:18:17Z</time>
      </trkpt>
      <trkpt lat="37.437440000" lon="-4.189435000">
        <ele>625.7</ele>
        <time>2020-10-14T08:18:20Z</time>
      </trkpt>
      <trkpt lat="37.437367000" lon="-4.189384000">
        <ele>624.9</ele>
        <time>2020-10-14T08:18:23Z</time>
      </trkpt>
      <trkpt lat="37.437291000" lon="-4.189319000">
        <ele>624.2</ele>
        <time>2020-10-14T08:18:45Z</time>
      </trkpt>
      <trkpt lat="37.437192000" lon="-4.189237000">
        <ele>623.5</ele>
        <time>2020-10-14T08:18:48Z</time>
      </trkpt>
      <trkpt lat="37.437124000" lon="-4.189156000">
        <ele>623.1</ele>
        <time>2020-10-14T08:18:50Z</time>
      </trkpt>
      <trkpt lat="37.437049000" lon="-4.189098000">
        <ele>622.7</ele>
        <time>2020-10-14T08:18:52Z</time>
      </trkpt>
      <trkpt lat="37.437014000" lon="-4.188990000">
        <ele>622.3</ele>
        <time>2020-10-14T08:18:55Z</time>
      </trkpt>
      <trkpt lat="37.437018000" lon="-4.188860000">
        <ele>621.7</ele>
        <time>2020-10-14T08:18:58Z</time>
      </trkpt>
      <trkpt lat="37.437068000" lon="-4.188748000">
        <ele>621.1</ele>
        <time>2020-10-14T08:19:01Z</time>
      </trkpt>
      <trkpt lat="37.437144000" lon="-4.188676000">
        <ele>620.4</ele>
        <time>2020-10-14T08:19:04Z</time>
      </trkpt>
      <trkpt lat="37.437222000" lon="-4.188610000">
        <ele>619.5</ele>
        <time>2020-10-14T08:19:07Z</time>
      </trkpt>
      <trkpt lat="37.437303000" lon="-4.188516000">
        <ele>618.5</ele>
        <time>2020-10-14T08:19:12Z</time>
      </trkpt>
      <trkpt lat="37.437363000" lon="-4.188411000">
        <ele>617.4</ele>
        <time>2020-10-14T08:19:15Z</time>
      </trkpt>
      <trkpt lat="37.437400000" lon="-4.188297000">
        <ele>616.1</ele>
        <time>2020-10-14T08:19:18Z</time>
      </trkpt>
      <trkpt lat="37.437407000" lon="-4.188189000">
        <ele>614.7</ele>
        <time>2020-10-14T08:19:21Z</time>
      </trkpt>
      <trkpt lat="37.437396000" lon="-4.188086000">
        <ele>613.3</ele>
        <time>2020-10-14T08:19:24Z</time>
      </trkpt>
      <trkpt lat="37.437386000" lon="-4.187975000">
        <ele>611.6</ele>
        <time>2020-10-14T08:19:28Z</time>
      </trkpt>
      <trkpt lat="37.437359000" lon="-4.187857000">
        <ele>609.9</ele>
        <time>2020-10-14T08:19:32Z</time>
      </trkpt>
      <trkpt lat="37.437324000" lon="-4.187752000">
        <ele>608.2</ele>
        <time>2020-10-14T08:19:36Z</time>
      </trkpt>
      <trkpt lat="37.437295000" lon="-4.187654000">
        <ele>606.3</ele>
        <time>2020-10-14T08:19:40Z</time>
      </trkpt>
      <trkpt lat="37.437263000" lon="-4.187553000">
        <ele>604.3</ele>
        <time>2020-10-14T08:19:44Z</time>
      </trkpt>
      <trkpt lat="37.437225000" lon="-4.187438000">
        <ele>602.1</ele>
        <time>2020-10-14T08:19:48Z</time>
      </trkpt>
      <trkpt lat="37.437178000" lon="-4.187318000">
        <ele>599.8</ele>
        <time>2020-10-14T08:19:52Z</time>
      </trkpt>
      <trkpt lat="37.437142000" lon="-4.187220000">
        <ele>597.5</ele>
        <time>2020-10-14T08:19:55Z</time>
      </trkpt>
      <trkpt lat="37.437101000" lon="-4.187116000">
        <ele>595.2</ele>
        <time>2020-10-14T08:19:58Z</time>
      </trkpt>
      <trkpt lat="37.437060000" lon="-4.187008000">
        <ele>592.8</ele>
        <time>2020-10-14T08:20:01Z</time>
      </trkpt>
      <trkpt lat="37.437037000" lon="-4.186898000">
        <ele>590.5</ele>
        <time>2020-10-14T08:20:04Z</time>
      </trkpt>
      <trkpt lat="37.437048000" lon="-4.186785000">
        <ele>588.4</ele>
        <time>2020-10-14T08:20:08Z</time>
      </trkpt>
      <trkpt lat="37.437100000" lon="-4.186680000">
        <ele>586.3</ele>
        <time>2020-10-14T08:20:13Z</time>
      </trkpt>
      <trkpt lat="37.437141000" lon="-4.186589000">
        <ele>584.1</ele>
        <time>2020-10-14T08:20:17Z</time>
      </trkpt>
      <trkpt lat="37.437130000" lon="-4.186456000">
        <ele>581.9</ele>
        <time>2020-10-14T08:20:22Z</time>
      </trkpt>
      <trkpt lat="37.437124000" lon="-4.186350000">
        <ele>579.9</ele>
        <time>2020-10-14T08:20:25Z</time>
      </trkpt>
      <trkpt lat="37.437128000" lon="-4.186234000">
        <ele>578.1</ele>
        <time>2020-10-14T08:20:28Z</time>
      </trkpt>
      <trkpt lat="37.437133000" lon="-4.186108000">
        <ele>576.5</ele>
        <time>2020-10-14T08:20:31Z</time>
      </trkpt>
      <trkpt lat="37.437140000" lon="-4.185964000">
        <ele>575.2</ele>
        <time>2020-10-14T08:20:34Z</time>
      </trkpt>
      <trkpt lat="37.437143000" lon="-4.185820000">
        <ele>574.0</ele>
        <time>2020-10-14T08:20:37Z</time>
      </trkpt>
      <trkpt lat="37.437145000" lon="-4.185698000">
        <ele>573.2</ele>
        <time>2020-10-14T08:20:40Z</time>
      </trkpt>
      <trkpt lat="37.437199000" lon="-4.185600000">
        <ele>572.5</ele>
        <time>2020-10-14T08:21:23Z</time>
      </trkpt>
      <trkpt lat="37.437282000" lon="-4.185640000">
        <ele>572.2</ele>
        <time>2020-10-14T08:21:28Z</time>
      </trkpt>
      <trkpt lat="37.437326000" lon="-4.185728000">
        <ele>571.9</ele>
        <time>2020-10-14T08:21:31Z</time>
      </trkpt>
      <trkpt lat="37.437382000" lon="-4.185843000">
        <ele>571.6</ele>
        <time>2020-10-14T08:21:35Z</time>
      </trkpt>
      <trkpt lat="37.437431000" lon="-4.185928000">
        <ele>571.5</ele>
        <time>2020-10-14T08:21:38Z</time>
      </trkpt>
      <trkpt lat="37.437496000" lon="-4.186029000">
        <ele>571.5</ele>
        <time>2020-10-14T08:21:42Z</time>
      </trkpt>
      <trkpt lat="37.437534000" lon="-4.186127000">
        <ele>571.5</ele>
        <time>2020-10-14T08:21:47Z</time>
      </trkpt>
      <trkpt lat="37.437470000" lon="-4.186051000">
        <ele>571.5</ele>
        <time>2020-10-14T08:21:52Z</time>
      </trkpt>
      <trkpt lat="37.437416000" lon="-4.185936000">
        <ele>571.4</ele>
        <time>2020-10-14T08:21:55Z</time>
      </trkpt>
      <trkpt lat="37.437361000" lon="-4.185853000">
        <ele>571.2</ele>
        <time>2020-10-14T08:21:57Z</time>
      </trkpt>
      <trkpt lat="37.437289000" lon="-4.185751000">
        <ele>570.8</ele>
        <time>2020-10-14T08:21:59Z</time>
      </trkpt>
      <trkpt lat="37.437222000" lon="-4.185645000">
        <ele>570.4</ele>
        <time>2020-10-14T08:22:01Z</time>
      </trkpt>
      <trkpt lat="37.437150000" lon="-4.185534000">
        <ele>569.6</ele>
        <time>2020-10-14T08:22:03Z</time>
      </trkpt>
      <trkpt lat="37.437086000" lon="-4.185406000">
        <ele>568.9</ele>
        <time>2020-10-14T08:22:05Z</time>
      </trkpt>
      <trkpt lat="37.437023000" lon="-4.185268000">
        <ele>568.3</ele>
        <time>2020-10-14T08:22:07Z</time>
      </trkpt>
      <trkpt lat="37.436973000" lon="-4.185115000">
        <ele>567.7</ele>
        <time>2020-10-14T08:22:09Z</time>
      </trkpt>
      <trkpt lat="37.436951000" lon="-4.184943000">
        <ele>567.3</ele>
        <time>2020-10-14T08:22:11Z</time>
      </trkpt>
      <trkpt lat="37.436970000" lon="-4.184764000">
        <ele>566.8</ele>
        <time>2020-10-14T08:22:13Z</time>
      </trkpt>
      <trkpt lat="37.437028000" lon="-4.184593000">
        <ele>566.5</ele>
        <time>2020-10-14T08:22:15Z</time>
      </trkpt>
      <trkpt lat="37.437111000" lon="-4.184444000">
        <ele>566.2</ele>
        <time>2020-10-14T08:22:17Z</time>
      </trkpt>
      <trkpt lat="37.437195000" lon="-4.184304000">
        <ele>566.0</ele>
        <time>2020-10-14T08:22:19Z</time>
      </trkpt>
      <trkpt lat="37.437274000" lon="-4.184174000">
        <ele>565.9</ele>
        <time>2020-10-14T08:22:21Z</time>
      </trkpt>
      <trkpt lat="37.437351000" lon="-4.184047000">
        <ele>565.8</ele>
        <time>2020-10-14T08:22:23Z</time>
      </trkpt>
      <trkpt lat="37.437421000" lon="-4.183929000">
        <ele>565.8</ele>
        <time>2020-10-14T08:22:25Z</time>
      </trkpt>
      <trkpt lat="37.437489000" lon="-4.183808000">
        <ele>566.0</ele>
        <time>2020-10-14T08:22:27Z</time>
      </trkpt>
      <trkpt lat="37.437556000" lon="-4.183704000">
        <ele>566.4</ele>
        <time>2020-10-14T08:22:29Z</time>
      </trkpt>
      <trkpt lat="37.437623000" lon="-4.183601000">
        <ele>566.8</ele>
        <time>2020-10-14T08:22:31Z</time>
      </trkpt>
      <trkpt lat="37.437683000" lon="-4.183509000">
        <ele>567.4</ele>
        <time>2020-10-14T08:22:33Z</time>
      </trkpt>
      <trkpt lat="37.437741000" lon="-4.183430000">
        <ele>567.9</ele>
        <time>2020-10-14T08:22:35Z</time>
      </trkpt>
      <trkpt lat="37.437802000" lon="-4.183314000">
        <ele>568.5</ele>
        <time>2020-10-14T08:22:38Z</time>
      </trkpt>
      <trkpt lat="37.437870000" lon="-4.183204000">
        <ele>569.1</ele>
        <time>2020-10-14T08:22:41Z</time>
      </trkpt>
      <trkpt lat="37.437930000" lon="-4.183110000">
        <ele>569.6</ele>
        <time>2020-10-14T08:22:44Z</time>
      </trkpt>
      <trkpt lat="37.437987000" lon="-4.183025000">
        <ele>570.1</ele>
        <time>2020-10-14T08:22:47Z</time>
      </trkpt>
      <trkpt lat="37.438039000" lon="-4.182940000">
        <ele>570.5</ele>
        <time>2020-10-14T08:22:50Z</time>
      </trkpt>
      <trkpt lat="37.438089000" lon="-4.182845000">
        <ele>571.0</ele>
        <time>2020-10-14T08:22:53Z</time>
      </trkpt>
      <trkpt lat="37.438137000" lon="-4.182760000">
        <ele>571.4</ele>
        <time>2020-10-14T08:22:56Z</time>
      </trkpt>
      <trkpt lat="37.438186000" lon="-4.182675000">
        <ele>571.6</ele>
        <time>2020-10-14T08:22:59Z</time>
      </trkpt>
      <trkpt lat="37.438231000" lon="-4.182575000">
        <ele>571.8</ele>
        <time>2020-10-14T08:23:02Z</time>
      </trkpt>
      <trkpt lat="37.438281000" lon="-4.182462000">
        <ele>571.9</ele>
        <time>2020-10-14T08:23:05Z</time>
      </trkpt>
      <trkpt lat="37.438310000" lon="-4.182336000">
        <ele>572.0</ele>
        <time>2020-10-14T08:23:08Z</time>
      </trkpt>
      <trkpt lat="37.438328000" lon="-4.182209000">
        <ele>572.0</ele>
        <time>2020-10-14T08:23:11Z</time>
      </trkpt>
      <trkpt lat="37.438327000" lon="-4.182075000">
        <ele>572.0</ele>
        <time>2020-10-14T08:23:14Z</time>
      </trkpt>
      <trkpt lat="37.438329000" lon="-4.181932000">
        <ele>572.0</ele>
        <time>2020-10-14T08:23:17Z</time>
      </trkpt>
      <trkpt lat="37.438331000" lon="-4.181828000">
        <ele>572.0</ele>
        <time>2020-10-14T08:23:19Z</time>
      </trkpt>
      <trkpt lat="37.438334000" lon="-4.181720000">
        <ele>572.0</ele>
        <time>2020-10-14T08:23:21Z</time>
      </trkpt>
      <trkpt lat="37.438337000" lon="-4.181611000">
        <ele>572.0</ele>
        <time>2020-10-14T08:23:23Z</time>
      </trkpt>
      <trkpt lat="37.438341000" lon="-4.181503000">
        <ele>571.9</ele>
        <time>2020-10-14T08:23:25Z</time>
      </trkpt>
      <trkpt lat="37.438348000" lon="-4.181395000">
        <ele>571.8</ele>
        <time>2020-10-14T08:23:27Z</time>
      </trkpt>
      <trkpt lat="37.438354000" lon="-4.181287000">
        <ele>571.7</ele>
        <time>2020-10-14T08:23:29Z</time>
      </trkpt>
      <trkpt lat="37.438358000" lon="-4.181178000">
        <ele>571.7</ele>
        <time>2020-10-14T08:23:31Z</time>
      </trkpt>
      <trkpt lat="37.438362000" lon="-4.181072000">
        <ele>571.7</ele>
        <time>2020-10-14T08:23:33Z</time>
      </trkpt>
      <trkpt lat="37.438366000" lon="-4.180968000">
        <ele>571.8</ele>
        <time>2020-10-14T08:23:35Z</time>
      </trkpt>
      <trkpt lat="37.438375000" lon="-4.180864000">
        <ele>571.9</ele>
        <time>2020-10-14T08:23:37Z</time>
      </trkpt>
      <trkpt lat="37.438381000" lon="-4.180761000">
        <ele>572.1</ele>
        <time>2020-10-14T08:23:39Z</time>
      </trkpt>
      <trkpt lat="37.438386000" lon="-4.180658000">
        <ele>572.4</ele>
        <time>2020-10-14T08:23:41Z</time>
      </trkpt>
      <trkpt lat="37.438391000" lon="-4.180556000">
        <ele>572.7</ele>
        <time>2020-10-14T08:23:43Z</time>
      </trkpt>
      <trkpt lat="37.438399000" lon="-4.180409000">
        <ele>573.1</ele>
        <time>2020-10-14T08:23:46Z</time>
      </trkpt>
      <trkpt lat="37.438410000" lon="-4.180264000">
        <ele>573.6</ele>
        <time>2020-10-14T08:23:49Z</time>
      </trkpt>
      <trkpt lat="37.438420000" lon="-4.180113000">
        <ele>574.2</ele>
        <time>2020-10-14T08:23:52Z</time>
      </trkpt>
      <trkpt lat="37.438426000" lon="-4.180010000">
        <ele>574.7</ele>
        <time>2020-10-14T08:23:54Z</time>
      </trkpt>
      <trkpt lat="37.438435000" lon="-4.179858000">
        <ele>575.2</ele>
        <time>2020-10-14T08:23:57Z</time>
      </trkpt>
      <trkpt lat="37.438443000" lon="-4.179708000">
        <ele>575.6</ele>
        <time>2020-10-14T08:24:00Z</time>
      </trkpt>
      <trkpt lat="37.438453000" lon="-4.179558000">
        <ele>576.1</ele>
        <time>2020-10-14T08:24:03Z</time>
      </trkpt>
      <trkpt lat="37.438457000" lon="-4.179454000">
        <ele>576.5</ele>
        <time>2020-10-14T08:24:05Z</time>
      </trkpt>
      <trkpt lat="37.438461000" lon="-4.179349000">
        <ele>576.9</ele>
        <time>2020-10-14T08:24:07Z</time>
      </trkpt>
      <trkpt lat="37.438469000" lon="-4.179196000">
        <ele>577.2</ele>
        <time>2020-10-14T08:24:10Z</time>
      </trkpt>
      <trkpt lat="37.438479000" lon="-4.179046000">
        <ele>577.5</ele>
        <time>2020-10-14T08:24:13Z</time>
      </trkpt>
      <trkpt lat="37.438488000" lon="-4.178901000">
        <ele>577.8</ele>
        <time>2020-10-14T08:24:16Z</time>
      </trkpt>
      <trkpt lat="37.438501000" lon="-4.178757000">
        <ele>578.2</ele>
        <time>2020-10-14T08:24:19Z</time>
      </trkpt>
      <trkpt lat="37.438506000" lon="-4.178617000">
        <ele>578.5</ele>
        <time>2020-10-14T08:24:22Z</time>
      </trkpt>
      <trkpt lat="37.438515000" lon="-4.178480000">
        <ele>579.0</ele>
        <time>2020-10-14T08:24:25Z</time>
      </trkpt>
      <trkpt lat="37.438525000" lon="-4.178341000">
        <ele>579.5</ele>
        <time>2020-10-14T08:24:28Z</time>
      </trkpt>
      <trkpt lat="37.438533000" lon="-4.178202000">
        <ele>580.1</ele>
        <time>2020-10-14T08:24:31Z</time>
      </trkpt>
      <trkpt lat="37.438538000" lon="-4.178064000">
        <ele>580.6</ele>
        <time>2020-10-14T08:24:34Z</time>
      </trkpt>
      <trkpt lat="37.438543000" lon="-4.177926000">
        <ele>581.2</ele>
        <time>2020-10-14T08:24:37Z</time>
      </trkpt>
      <trkpt lat="37.438553000" lon="-4.177790000">
        <ele>581.7</ele>
        <time>2020-10-14T08:24:40Z</time>
      </trkpt>
      <trkpt lat="37.438557000" lon="-4.177656000">
        <ele>582.3</ele>
        <time>2020-10-14T08:24:43Z</time>
      </trkpt>
      <trkpt lat="37.438558000" lon="-4.177524000">
        <ele>582.7</ele>
        <time>2020-10-14T08:24:46Z</time>
      </trkpt>
      <trkpt lat="37.438563000" lon="-4.177393000">
        <ele>583.1</ele>
        <time>2020-10-14T08:24:49Z</time>
      </trkpt>
      <trkpt lat="37.438556000" lon="-4.177261000">
        <ele>583.4</ele>
        <time>2020-10-14T08:24:52Z</time>
      </trkpt>
      <trkpt lat="37.438544000" lon="-4.177131000">
        <ele>583.7</ele>
        <time>2020-10-14T08:24:55Z</time>
      </trkpt>
      <trkpt lat="37.438531000" lon="-4.177004000">
        <ele>584.1</ele>
        <time>2020-10-14T08:24:58Z</time>
      </trkpt>
      <trkpt lat="37.438517000" lon="-4.176880000">
        <ele>584.4</ele>
        <time>2020-10-14T08:25:01Z</time>
      </trkpt>
      <trkpt lat="37.438498000" lon="-4.176751000">
        <ele>584.6</ele>
        <time>2020-10-14T08:25:04Z</time>
      </trkpt>
      <trkpt lat="37.438471000" lon="-4.176625000">
        <ele>584.8</ele>
        <time>2020-10-14T08:25:07Z</time>
      </trkpt>
      <trkpt lat="37.438437000" lon="-4.176499000">
        <ele>584.9</ele>
        <time>2020-10-14T08:25:10Z</time>
      </trkpt>
      <trkpt lat="37.438402000" lon="-4.176369000">
        <ele>585.0</ele>
        <time>2020-10-14T08:25:13Z</time>
      </trkpt>
      <trkpt lat="37.438362000" lon="-4.176232000">
        <ele>585.1</ele>
        <time>2020-10-14T08:25:16Z</time>
      </trkpt>
      <trkpt lat="37.438319000" lon="-4.176089000">
        <ele>585.3</ele>
        <time>2020-10-14T08:25:19Z</time>
      </trkpt>
      <trkpt lat="37.438277000" lon="-4.175946000">
        <ele>585.4</ele>
        <time>2020-10-14T08:25:22Z</time>
      </trkpt>
      <trkpt lat="37.438248000" lon="-4.175848000">
        <ele>585.5</ele>
        <time>2020-10-14T08:25:24Z</time>
      </trkpt>
      <trkpt lat="37.438220000" lon="-4.175752000">
        <ele>585.5</ele>
        <time>2020-10-14T08:25:26Z</time>
      </trkpt>
      <trkpt lat="37.438179000" lon="-4.175610000">
        <ele>585.6</ele>
        <time>2020-10-14T08:25:29Z</time>
      </trkpt>
      <trkpt lat="37.438139000" lon="-4.175470000">
        <ele>585.8</ele>
        <time>2020-10-14T08:25:32Z</time>
      </trkpt>
      <trkpt lat="37.438100000" lon="-4.175332000">
        <ele>586.0</ele>
        <time>2020-10-14T08:25:35Z</time>
      </trkpt>
      <trkpt lat="37.438068000" lon="-4.175237000">
        <ele>586.2</ele>
        <time>2020-10-14T08:25:37Z</time>
      </trkpt>
      <trkpt lat="37.438038000" lon="-4.175141000">
        <ele>586.5</ele>
        <time>2020-10-14T08:25:39Z</time>
      </trkpt>
      <trkpt lat="37.438008000" lon="-4.175040000">
        <ele>586.9</ele>
        <time>2020-10-14T08:25:41Z</time>
      </trkpt>
      <trkpt lat="37.437981000" lon="-4.174941000">
        <ele>587.4</ele>
        <time>2020-10-14T08:25:43Z</time>
      </trkpt>
      <trkpt lat="37.437951000" lon="-4.174844000">
        <ele>587.7</ele>
        <time>2020-10-14T08:25:45Z</time>
      </trkpt>
      <trkpt lat="37.437924000" lon="-4.174746000">
        <ele>588.3</ele>
        <time>2020-10-14T08:25:47Z</time>
      </trkpt>
      <trkpt lat="37.437880000" lon="-4.174603000">
        <ele>588.8</ele>
        <time>2020-10-14T08:25:50Z</time>
      </trkpt>
      <trkpt lat="37.437854000" lon="-4.174505000">
        <ele>589.3</ele>
        <time>2020-10-14T08:25:52Z</time>
      </trkpt>
      <trkpt lat="37.437814000" lon="-4.174366000">
        <ele>589.5</ele>
        <time>2020-10-14T08:25:55Z</time>
      </trkpt>
      <trkpt lat="37.437776000" lon="-4.174232000">
        <ele>589.7</ele>
        <time>2020-10-14T08:25:58Z</time>
      </trkpt>
      <trkpt lat="37.437738000" lon="-4.174100000">
        <ele>589.9</ele>
        <time>2020-10-14T08:26:01Z</time>
      </trkpt>
      <trkpt lat="37.437702000" lon="-4.173965000">
        <ele>590.1</ele>
        <time>2020-10-14T08:26:04Z</time>
      </trkpt>
      <trkpt lat="37.437662000" lon="-4.173835000">
        <ele>590.3</ele>
        <time>2020-10-14T08:26:07Z</time>
      </trkpt>
      <trkpt lat="37.437621000" lon="-4.173706000">
        <ele>590.5</ele>
        <time>2020-10-14T08:26:10Z</time>
      </trkpt>
      <trkpt lat="37.437581000" lon="-4.173576000">
        <ele>590.6</ele>
        <time>2020-10-14T08:26:13Z</time>
      </trkpt>
      <trkpt lat="37.437537000" lon="-4.173438000">
        <ele>590.8</ele>
        <time>2020-10-14T08:26:16Z</time>
      </trkpt>
      <trkpt lat="37.437509000" lon="-4.173340000">
        <ele>591.0</ele>
        <time>2020-10-14T08:26:18Z</time>
      </trkpt>
      <trkpt lat="37.437479000" lon="-4.173240000">
        <ele>591.3</ele>
        <time>2020-10-14T08:26:20Z</time>
      </trkpt>
      <trkpt lat="37.437451000" lon="-4.173139000">
        <ele>591.5</ele>
        <time>2020-10-14T08:26:22Z</time>
      </trkpt>
      <trkpt lat="37.437426000" lon="-4.173042000">
        <ele>591.9</ele>
        <time>2020-10-14T08:26:24Z</time>
      </trkpt>
      <trkpt lat="37.437391000" lon="-4.172901000">
        <ele>592.2</ele>
        <time>2020-10-14T08:26:27Z</time>
      </trkpt>
      <trkpt lat="37.437360000" lon="-4.172761000">
        <ele>592.5</ele>
        <time>2020-10-14T08:26:30Z</time>
      </trkpt>
      <trkpt lat="37.437329000" lon="-4.172620000">
        <ele>592.8</ele>
        <time>2020-10-14T08:26:33Z</time>
      </trkpt>
      <trkpt lat="37.437297000" lon="-4.172485000">
        <ele>593.1</ele>
        <time>2020-10-14T08:26:36Z</time>
      </trkpt>
      <trkpt lat="37.437264000" lon="-4.172355000">
        <ele>593.5</ele>
        <time>2020-10-14T08:26:39Z</time>
      </trkpt>
      <trkpt lat="37.437226000" lon="-4.172219000">
        <ele>593.7</ele>
        <time>2020-10-14T08:26:42Z</time>
      </trkpt>
      <trkpt lat="37.437198000" lon="-4.172082000">
        <ele>594.1</ele>
        <time>2020-10-14T08:26:45Z</time>
      </trkpt>
      <trkpt lat="37.437171000" lon="-4.171950000">
        <ele>594.4</ele>
        <time>2020-10-14T08:26:48Z</time>
      </trkpt>
      <trkpt lat="37.437148000" lon="-4.171825000">
        <ele>594.5</ele>
        <time>2020-10-14T08:26:51Z</time>
      </trkpt>
      <trkpt lat="37.437128000" lon="-4.171703000">
        <ele>594.7</ele>
        <time>2020-10-14T08:26:54Z</time>
      </trkpt>
      <trkpt lat="37.437112000" lon="-4.171585000">
        <ele>595.0</ele>
        <time>2020-10-14T08:26:57Z</time>
      </trkpt>
      <trkpt lat="37.437094000" lon="-4.171461000">
        <ele>595.4</ele>
        <time>2020-10-14T08:27:00Z</time>
      </trkpt>
      <trkpt lat="37.437069000" lon="-4.171340000">
        <ele>595.7</ele>
        <time>2020-10-14T08:27:03Z</time>
      </trkpt>
      <trkpt lat="37.437043000" lon="-4.171218000">
        <ele>596.0</ele>
        <time>2020-10-14T08:27:06Z</time>
      </trkpt>
      <trkpt lat="37.437026000" lon="-4.171098000">
        <ele>596.4</ele>
        <time>2020-10-14T08:27:09Z</time>
      </trkpt>
      <trkpt lat="37.437013000" lon="-4.170979000">
        <ele>596.7</ele>
        <time>2020-10-14T08:27:12Z</time>
      </trkpt>
      <trkpt lat="37.436995000" lon="-4.170863000">
        <ele>597.1</ele>
        <time>2020-10-14T08:27:15Z</time>
      </trkpt>
      <trkpt lat="37.436976000" lon="-4.170747000">
        <ele>597.5</ele>
        <time>2020-10-14T08:27:18Z</time>
      </trkpt>
      <trkpt lat="37.436959000" lon="-4.170627000">
        <ele>598.0</ele>
        <time>2020-10-14T08:27:21Z</time>
      </trkpt>
      <trkpt lat="37.436945000" lon="-4.170504000">
        <ele>598.5</ele>
        <time>2020-10-14T08:27:24Z</time>
      </trkpt>
      <trkpt lat="37.436928000" lon="-4.170382000">
        <ele>599.2</ele>
        <time>2020-10-14T08:27:27Z</time>
      </trkpt>
      <trkpt lat="37.436909000" lon="-4.170265000">
        <ele>599.8</ele>
        <time>2020-10-14T08:27:30Z</time>
      </trkpt>
      <trkpt lat="37.436893000" lon="-4.170138000">
        <ele>600.5</ele>
        <time>2020-10-14T08:27:33Z</time>
      </trkpt>
      <trkpt lat="37.436877000" lon="-4.170015000">
        <ele>601.2</ele>
        <time>2020-10-14T08:27:36Z</time>
      </trkpt>
      <trkpt lat="37.436864000" lon="-4.169892000">
        <ele>601.9</ele>
        <time>2020-10-14T08:27:39Z</time>
      </trkpt>
      <trkpt lat="37.436850000" lon="-4.169770000">
        <ele>602.5</ele>
        <time>2020-10-14T08:27:42Z</time>
      </trkpt>
      <trkpt lat="37.436835000" lon="-4.169644000">
        <ele>602.9</ele>
        <time>2020-10-14T08:27:45Z</time>
      </trkpt>
      <trkpt lat="37.436823000" lon="-4.169518000">
        <ele>603.4</ele>
        <time>2020-10-14T08:27:48Z</time>
      </trkpt>
      <trkpt lat="37.436815000" lon="-4.169385000">
        <ele>603.5</ele>
        <time>2020-10-14T08:27:51Z</time>
      </trkpt>
      <trkpt lat="37.436805000" lon="-4.169250000">
        <ele>603.7</ele>
        <time>2020-10-14T08:27:54Z</time>
      </trkpt>
      <trkpt lat="37.436800000" lon="-4.169110000">
        <ele>603.8</ele>
        <time>2020-10-14T08:27:57Z</time>
      </trkpt>
      <trkpt lat="37.436794000" lon="-4.168969000">
        <ele>603.8</ele>
        <time>2020-10-14T08:28:00Z</time>
      </trkpt>
      <trkpt lat="37.436792000" lon="-4.168822000">
        <ele>603.7</ele>
        <time>2020-10-14T08:28:03Z</time>
      </trkpt>
      <trkpt lat="37.436793000" lon="-4.168676000">
        <ele>603.7</ele>
        <time>2020-10-14T08:28:06Z</time>
      </trkpt>
      <trkpt lat="37.436792000" lon="-4.168535000">
        <ele>603.6</ele>
        <time>2020-10-14T08:28:09Z</time>
      </trkpt>
      <trkpt lat="37.436799000" lon="-4.168394000">
        <ele>603.5</ele>
        <time>2020-10-14T08:28:12Z</time>
      </trkpt>
      <trkpt lat="37.436804000" lon="-4.168248000">
        <ele>603.5</ele>
        <time>2020-10-14T08:28:15Z</time>
      </trkpt>
      <trkpt lat="37.436818000" lon="-4.168098000">
        <ele>603.6</ele>
        <time>2020-10-14T08:28:18Z</time>
      </trkpt>
      <trkpt lat="37.436830000" lon="-4.167948000">
        <ele>603.6</ele>
        <time>2020-10-14T08:28:21Z</time>
      </trkpt>
      <trkpt lat="37.436843000" lon="-4.167846000">
        <ele>603.6</ele>
        <time>2020-10-14T08:28:23Z</time>
      </trkpt>
      <trkpt lat="37.436860000" lon="-4.167742000">
        <ele>603.7</ele>
        <time>2020-10-14T08:28:25Z</time>
      </trkpt>
      <trkpt lat="37.436878000" lon="-4.167641000">
        <ele>603.8</ele>
        <time>2020-10-14T08:28:27Z</time>
      </trkpt>
      <trkpt lat="37.436903000" lon="-4.167494000">
        <ele>603.9</ele>
        <time>2020-10-14T08:28:30Z</time>
      </trkpt>
      <trkpt lat="37.436935000" lon="-4.167348000">
        <ele>604.1</ele>
        <time>2020-10-14T08:28:33Z</time>
      </trkpt>
      <trkpt lat="37.436972000" lon="-4.167203000">
        <ele>604.3</ele>
        <time>2020-10-14T08:28:36Z</time>
      </trkpt>
      <trkpt lat="37.436998000" lon="-4.167104000">
        <ele>604.5</ele>
        <time>2020-10-14T08:28:38Z</time>
      </trkpt>
      <trkpt lat="37.437028000" lon="-4.167005000">
        <ele>604.6</ele>
        <time>2020-10-14T08:28:40Z</time>
      </trkpt>
      <trkpt lat="37.437057000" lon="-4.166907000">
        <ele>604.8</ele>
        <time>2020-10-14T08:28:42Z</time>
      </trkpt>
      <trkpt lat="37.437090000" lon="-4.166809000">
        <ele>604.9</ele>
        <time>2020-10-14T08:28:44Z</time>
      </trkpt>
      <trkpt lat="37.437120000" lon="-4.166709000">
        <ele>605.2</ele>
        <time>2020-10-14T08:28:46Z</time>
      </trkpt>
      <trkpt lat="37.437150000" lon="-4.166609000">
        <ele>605.5</ele>
        <time>2020-10-14T08:28:48Z</time>
      </trkpt>
      <trkpt lat="37.437182000" lon="-4.166510000">
        <ele>605.9</ele>
        <time>2020-10-14T08:28:50Z</time>
      </trkpt>
      <trkpt lat="37.437214000" lon="-4.166409000">
        <ele>606.3</ele>
        <time>2020-10-14T08:28:52Z</time>
      </trkpt>
      <trkpt lat="37.437244000" lon="-4.166307000">
        <ele>606.6</ele>
        <time>2020-10-14T08:28:54Z</time>
      </trkpt>
      <trkpt lat="37.437275000" lon="-4.166203000">
        <ele>606.9</ele>
        <time>2020-10-14T08:28:56Z</time>
      </trkpt>
      <trkpt lat="37.437308000" lon="-4.166095000">
        <ele>607.1</ele>
        <time>2020-10-14T08:28:58Z</time>
      </trkpt>
      <trkpt lat="37.437339000" lon="-4.165994000">
        <ele>607.2</ele>
        <time>2020-10-14T08:29:00Z</time>
      </trkpt>
      <trkpt lat="37.437372000" lon="-4.165888000">
        <ele>607.3</ele>
        <time>2020-10-14T08:29:02Z</time>
      </trkpt>
      <trkpt lat="37.437405000" lon="-4.165781000">
        <ele>607.4</ele>
        <time>2020-10-14T08:29:04Z</time>
      </trkpt>
      <trkpt lat="37.437435000" lon="-4.165675000">
        <ele>607.5</ele>
        <time>2020-10-14T08:29:06Z</time>
      </trkpt>
      <trkpt lat="37.437469000" lon="-4.165567000">
        <ele>607.5</ele>
        <time>2020-10-14T08:29:08Z</time>
      </trkpt>
      <trkpt lat="37.437504000" lon="-4.165462000">
        <ele>607.5</ele>
        <time>2020-10-14T08:29:10Z</time>
      </trkpt>
      <trkpt lat="37.437536000" lon="-4.165358000">
        <ele>607.4</ele>
        <time>2020-10-14T08:29:12Z</time>
      </trkpt>
      <trkpt lat="37.437568000" lon="-4.165255000">
        <ele>607.4</ele>
        <time>2020-10-14T08:29:14Z</time>
      </trkpt>
      <trkpt lat="37.437603000" lon="-4.165149000">
        <ele>607.5</ele>
        <time>2020-10-14T08:29:16Z</time>
      </trkpt>
      <trkpt lat="37.437640000" lon="-4.165038000">
        <ele>607.6</ele>
        <time>2020-10-14T08:29:18Z</time>
      </trkpt>
      <trkpt lat="37.437676000" lon="-4.164933000">
        <ele>607.9</ele>
        <time>2020-10-14T08:29:20Z</time>
      </trkpt>
      <trkpt lat="37.437708000" lon="-4.164826000">
        <ele>608.4</ele>
        <time>2020-10-14T08:29:22Z</time>
      </trkpt>
      <trkpt lat="37.437741000" lon="-4.164719000">
        <ele>608.9</ele>
        <time>2020-10-14T08:29:24Z</time>
      </trkpt>
      <trkpt lat="37.437773000" lon="-4.164609000">
        <ele>609.5</ele>
        <time>2020-10-14T08:29:26Z</time>
      </trkpt>
      <trkpt lat="37.437808000" lon="-4.164504000">
        <ele>610.1</ele>
        <time>2020-10-14T08:29:28Z</time>
      </trkpt>
      <trkpt lat="37.437835000" lon="-4.164400000">
        <ele>610.7</ele>
        <time>2020-10-14T08:29:30Z</time>
      </trkpt>
      <trkpt lat="37.437867000" lon="-4.164295000">
        <ele>611.4</ele>
        <time>2020-10-14T08:29:32Z</time>
      </trkpt>
      <trkpt lat="37.437903000" lon="-4.164190000">
        <ele>612.0</ele>
        <time>2020-10-14T08:29:34Z</time>
      </trkpt>
      <trkpt lat="37.437935000" lon="-4.164088000">
        <ele>612.5</ele>
        <time>2020-10-14T08:29:36Z</time>
      </trkpt>
      <trkpt lat="37.437962000" lon="-4.163987000">
        <ele>613.0</ele>
        <time>2020-10-14T08:29:38Z</time>
      </trkpt>
      <trkpt lat="37.437992000" lon="-4.163885000">
        <ele>613.4</ele>
        <time>2020-10-14T08:29:40Z</time>
      </trkpt>
      <trkpt lat="37.438024000" lon="-4.163782000">
        <ele>613.5</ele>
        <time>2020-10-14T08:29:42Z</time>
      </trkpt>
      <trkpt lat="37.438056000" lon="-4.163679000">
        <ele>613.6</ele>
        <time>2020-10-14T08:29:44Z</time>
      </trkpt>
      <trkpt lat="37.438087000" lon="-4.163579000">
        <ele>613.6</ele>
        <time>2020-10-14T08:29:46Z</time>
      </trkpt>
      <trkpt lat="37.438119000" lon="-4.163481000">
        <ele>613.6</ele>
        <time>2020-10-14T08:29:48Z</time>
      </trkpt>
      <trkpt lat="37.438146000" lon="-4.163385000">
        <ele>613.5</ele>
        <time>2020-10-14T08:29:50Z</time>
      </trkpt>
      <trkpt lat="37.438179000" lon="-4.163285000">
        <ele>613.5</ele>
        <time>2020-10-14T08:29:52Z</time>
      </trkpt>
      <trkpt lat="37.438212000" lon="-4.163186000">
        <ele>613.3</ele>
        <time>2020-10-14T08:29:54Z</time>
      </trkpt>
      <trkpt lat="37.438241000" lon="-4.163090000">
        <ele>613.2</ele>
        <time>2020-10-14T08:29:56Z</time>
      </trkpt>
      <trkpt lat="37.438283000" lon="-4.162949000">
        <ele>613.1</ele>
        <time>2020-10-14T08:29:59Z</time>
      </trkpt>
      <trkpt lat="37.438322000" lon="-4.162809000">
        <ele>613.1</ele>
        <time>2020-10-14T08:30:02Z</time>
      </trkpt>
      <trkpt lat="37.438358000" lon="-4.162671000">
        <ele>613.2</ele>
        <time>2020-10-14T08:30:05Z</time>
      </trkpt>
      <trkpt lat="37.438389000" lon="-4.162531000">
        <ele>613.4</ele>
        <time>2020-10-14T08:30:08Z</time>
      </trkpt>
      <trkpt lat="37.438425000" lon="-4.162400000">
        <ele>613.6</ele>
        <time>2020-10-14T08:30:11Z</time>
      </trkpt>
      <trkpt lat="37.438453000" lon="-4.162269000">
        <ele>613.9</ele>
        <time>2020-10-14T08:30:14Z</time>
      </trkpt>
      <trkpt lat="37.438473000" lon="-4.162138000">
        <ele>614.3</ele>
        <time>2020-10-14T08:30:17Z</time>
      </trkpt>
      <trkpt lat="37.438494000" lon="-4.162006000">
        <ele>614.6</ele>
        <time>2020-10-14T08:30:20Z</time>
      </trkpt>
      <trkpt lat="37.438509000" lon="-4.161875000">
        <ele>615.1</ele>
        <time>2020-10-14T08:30:23Z</time>
      </trkpt>
      <trkpt lat="37.438517000" lon="-4.161744000">
        <ele>615.6</ele>
        <time>2020-10-14T08:30:26Z</time>
      </trkpt>
      <trkpt lat="37.438527000" lon="-4.161613000">
        <ele>616.1</ele>
        <time>2020-10-14T08:30:29Z</time>
      </trkpt>
      <trkpt lat="37.438531000" lon="-4.161484000">
        <ele>616.6</ele>
        <time>2020-10-14T08:30:32Z</time>
      </trkpt>
      <trkpt lat="37.438544000" lon="-4.161354000">
        <ele>617.1</ele>
        <time>2020-10-14T08:30:35Z</time>
      </trkpt>
      <trkpt lat="37.438553000" lon="-4.161218000">
        <ele>617.5</ele>
        <time>2020-10-14T08:30:38Z</time>
      </trkpt>
      <trkpt lat="37.438553000" lon="-4.161076000">
        <ele>618.0</ele>
        <time>2020-10-14T08:30:41Z</time>
      </trkpt>
      <trkpt lat="37.438560000" lon="-4.160929000">
        <ele>618.5</ele>
        <time>2020-10-14T08:30:44Z</time>
      </trkpt>
      <trkpt lat="37.438564000" lon="-4.160779000">
        <ele>618.9</ele>
        <time>2020-10-14T08:30:47Z</time>
      </trkpt>
      <trkpt lat="37.438570000" lon="-4.160630000">
        <ele>619.3</ele>
        <time>2020-10-14T08:30:50Z</time>
      </trkpt>
      <trkpt lat="37.438576000" lon="-4.160481000">
        <ele>619.6</ele>
        <time>2020-10-14T08:30:53Z</time>
      </trkpt>
      <trkpt lat="37.438582000" lon="-4.160334000">
        <ele>619.9</ele>
        <time>2020-10-14T08:30:56Z</time>
      </trkpt>
      <trkpt lat="37.438587000" lon="-4.160185000">
        <ele>620.2</ele>
        <time>2020-10-14T08:30:59Z</time>
      </trkpt>
      <trkpt lat="37.438595000" lon="-4.160046000">
        <ele>620.5</ele>
        <time>2020-10-14T08:31:02Z</time>
      </trkpt>
      <trkpt lat="37.438599000" lon="-4.159907000">
        <ele>620.7</ele>
        <time>2020-10-14T08:31:05Z</time>
      </trkpt>
      <trkpt lat="37.438605000" lon="-4.159762000">
        <ele>621.0</ele>
        <time>2020-10-14T08:31:08Z</time>
      </trkpt>
      <trkpt lat="37.438609000" lon="-4.159619000">
        <ele>621.2</ele>
        <time>2020-10-14T08:31:11Z</time>
      </trkpt>
      <trkpt lat="37.438618000" lon="-4.159479000">
        <ele>621.4</ele>
        <time>2020-10-14T08:31:14Z</time>
      </trkpt>
      <trkpt lat="37.438631000" lon="-4.159340000">
        <ele>621.5</ele>
        <time>2020-10-14T08:31:19Z</time>
      </trkpt>
      <trkpt lat="37.438643000" lon="-4.159198000">
        <ele>621.7</ele>
        <time>2020-10-14T08:31:20Z</time>
      </trkpt>
      <trkpt lat="37.438657000" lon="-4.159055000">
        <ele>622.0</ele>
        <time>2020-10-14T08:31:23Z</time>
      </trkpt>
      <trkpt lat="37.438677000" lon="-4.158913000">
        <ele>622.3</ele>
        <time>2020-10-14T08:31:26Z</time>
      </trkpt>
      <trkpt lat="37.438701000" lon="-4.158766000">
        <ele>622.5</ele>
        <time>2020-10-14T08:31:29Z</time>
      </trkpt>
      <trkpt lat="37.438731000" lon="-4.158619000">
        <ele>622.9</ele>
        <time>2020-10-14T08:31:32Z</time>
      </trkpt>
      <trkpt lat="37.438764000" lon="-4.158471000">
        <ele>623.2</ele>
        <time>2020-10-14T08:31:35Z</time>
      </trkpt>
      <trkpt lat="37.438788000" lon="-4.158368000">
        <ele>623.5</ele>
        <time>2020-10-14T08:31:37Z</time>
      </trkpt>
      <trkpt lat="37.438814000" lon="-4.158264000">
        <ele>623.7</ele>
        <time>2020-10-14T08:31:39Z</time>
      </trkpt>
      <trkpt lat="37.438840000" lon="-4.158161000">
        <ele>624.0</ele>
        <time>2020-10-14T08:31:41Z</time>
      </trkpt>
      <trkpt lat="37.438867000" lon="-4.158059000">
        <ele>624.3</ele>
        <time>2020-10-14T08:31:43Z</time>
      </trkpt>
      <trkpt lat="37.438896000" lon="-4.157958000">
        <ele>624.5</ele>
        <time>2020-10-14T08:31:45Z</time>
      </trkpt>
      <trkpt lat="37.438926000" lon="-4.157861000">
        <ele>624.6</ele>
        <time>2020-10-14T08:31:47Z</time>
      </trkpt>
      <trkpt lat="37.438954000" lon="-4.157764000">
        <ele>624.7</ele>
        <time>2020-10-14T08:31:49Z</time>
      </trkpt>
      <trkpt lat="37.438997000" lon="-4.157622000">
        <ele>624.7</ele>
        <time>2020-10-14T08:31:52Z</time>
      </trkpt>
      <trkpt lat="37.439028000" lon="-4.157527000">
        <ele>624.7</ele>
        <time>2020-10-14T08:31:54Z</time>
      </trkpt>
      <trkpt lat="37.439062000" lon="-4.157430000">
        <ele>624.6</ele>
        <time>2020-10-14T08:31:56Z</time>
      </trkpt>
      <trkpt lat="37.439096000" lon="-4.157331000">
        <ele>624.6</ele>
        <time>2020-10-14T08:31:58Z</time>
      </trkpt>
      <trkpt lat="37.439132000" lon="-4.157230000">
        <ele>624.5</ele>
        <time>2020-10-14T08:32:00Z</time>
      </trkpt>
      <trkpt lat="37.439167000" lon="-4.157128000">
        <ele>624.5</ele>
        <time>2020-10-14T08:32:02Z</time>
      </trkpt>
      <trkpt lat="37.439204000" lon="-4.157029000">
        <ele>624.3</ele>
        <time>2020-10-14T08:32:04Z</time>
      </trkpt>
      <trkpt lat="37.439237000" lon="-4.156931000">
        <ele>624.1</ele>
        <time>2020-10-14T08:32:06Z</time>
      </trkpt>
      <trkpt lat="37.439274000" lon="-4.156836000">
        <ele>623.9</ele>
        <time>2020-10-14T08:32:08Z</time>
      </trkpt>
      <trkpt lat="37.439310000" lon="-4.156743000">
        <ele>623.8</ele>
        <time>2020-10-14T08:32:10Z</time>
      </trkpt>
      <trkpt lat="37.439347000" lon="-4.156651000">
        <ele>623.7</ele>
        <time>2020-10-14T08:32:12Z</time>
      </trkpt>
      <trkpt lat="37.439401000" lon="-4.156515000">
        <ele>623.8</ele>
        <time>2020-10-14T08:32:15Z</time>
      </trkpt>
      <trkpt lat="37.439437000" lon="-4.156422000">
        <ele>624.0</ele>
        <time>2020-10-14T08:32:17Z</time>
      </trkpt>
      <trkpt lat="37.439473000" lon="-4.156326000">
        <ele>624.3</ele>
        <time>2020-10-14T08:32:19Z</time>
      </trkpt>
      <trkpt lat="37.439506000" lon="-4.156231000">
        <ele>624.7</ele>
        <time>2020-10-14T08:32:21Z</time>
      </trkpt>
      <trkpt lat="37.439559000" lon="-4.156094000">
        <ele>625.3</ele>
        <time>2020-10-14T08:32:24Z</time>
      </trkpt>
      <trkpt lat="37.439613000" lon="-4.155962000">
        <ele>625.9</ele>
        <time>2020-10-14T08:32:27Z</time>
      </trkpt>
      <trkpt lat="37.439669000" lon="-4.155836000">
        <ele>626.7</ele>
        <time>2020-10-14T08:32:30Z</time>
      </trkpt>
      <trkpt lat="37.439724000" lon="-4.155704000">
        <ele>627.5</ele>
        <time>2020-10-14T08:32:33Z</time>
      </trkpt>
      <trkpt lat="37.439779000" lon="-4.155576000">
        <ele>628.4</ele>
        <time>2020-10-14T08:32:36Z</time>
      </trkpt>
      <trkpt lat="37.439834000" lon="-4.155453000">
        <ele>629.2</ele>
        <time>2020-10-14T08:32:39Z</time>
      </trkpt>
      <trkpt lat="37.439893000" lon="-4.155331000">
        <ele>630.0</ele>
        <time>2020-10-14T08:32:42Z</time>
      </trkpt>
      <trkpt lat="37.439943000" lon="-4.155206000">
        <ele>630.8</ele>
        <time>2020-10-14T08:32:45Z</time>
      </trkpt>
      <trkpt lat="37.439992000" lon="-4.155078000">
        <ele>631.5</ele>
        <time>2020-10-14T08:32:48Z</time>
      </trkpt>
      <trkpt lat="37.440036000" lon="-4.154954000">
        <ele>632.2</ele>
        <time>2020-10-14T08:32:51Z</time>
      </trkpt>
      <trkpt lat="37.440073000" lon="-4.154826000">
        <ele>632.7</ele>
        <time>2020-10-14T08:32:54Z</time>
      </trkpt>
      <trkpt lat="37.440107000" lon="-4.154694000">
        <ele>633.1</ele>
        <time>2020-10-14T08:32:57Z</time>
      </trkpt>
      <trkpt lat="37.440141000" lon="-4.154562000">
        <ele>633.3</ele>
        <time>2020-10-14T08:33:00Z</time>
      </trkpt>
      <trkpt lat="37.440171000" lon="-4.154428000">
        <ele>633.4</ele>
        <time>2020-10-14T08:33:03Z</time>
      </trkpt>
      <trkpt lat="37.440203000" lon="-4.154292000">
        <ele>633.5</ele>
        <time>2020-10-14T08:33:06Z</time>
      </trkpt>
      <trkpt lat="37.440228000" lon="-4.154150000">
        <ele>633.8</ele>
        <time>2020-10-14T08:33:09Z</time>
      </trkpt>
      <trkpt lat="37.440251000" lon="-4.154012000">
        <ele>634.2</ele>
        <time>2020-10-14T08:33:12Z</time>
      </trkpt>
      <trkpt lat="37.440271000" lon="-4.153879000">
        <ele>634.6</ele>
        <time>2020-10-14T08:33:15Z</time>
      </trkpt>
      <trkpt lat="37.440289000" lon="-4.153738000">
        <ele>635.0</ele>
        <time>2020-10-14T08:33:18Z</time>
      </trkpt>
      <trkpt lat="37.440306000" lon="-4.153601000">
        <ele>635.4</ele>
        <time>2020-10-14T08:33:21Z</time>
      </trkpt>
      <trkpt lat="37.440319000" lon="-4.153464000">
        <ele>635.7</ele>
        <time>2020-10-14T08:33:24Z</time>
      </trkpt>
      <trkpt lat="37.440330000" lon="-4.153323000">
        <ele>636.0</ele>
        <time>2020-10-14T08:33:27Z</time>
      </trkpt>
      <trkpt lat="37.440335000" lon="-4.153183000">
        <ele>636.4</ele>
        <time>2020-10-14T08:33:30Z</time>
      </trkpt>
      <trkpt lat="37.440338000" lon="-4.153044000">
        <ele>636.8</ele>
        <time>2020-10-14T08:33:33Z</time>
      </trkpt>
      <trkpt lat="37.440340000" lon="-4.152903000">
        <ele>637.3</ele>
        <time>2020-10-14T08:33:36Z</time>
      </trkpt>
      <trkpt lat="37.440344000" lon="-4.152767000">
        <ele>637.6</ele>
        <time>2020-10-14T08:33:39Z</time>
      </trkpt>
      <trkpt lat="37.440349000" lon="-4.152634000">
        <ele>637.9</ele>
        <time>2020-10-14T08:33:42Z</time>
      </trkpt>
      <trkpt lat="37.440340000" lon="-4.152500000">
        <ele>638.0</ele>
        <time>2020-10-14T08:33:45Z</time>
      </trkpt>
      <trkpt lat="37.440333000" lon="-4.152364000">
        <ele>638.0</ele>
        <time>2020-10-14T08:33:48Z</time>
      </trkpt>
      <trkpt lat="37.440324000" lon="-4.152226000">
        <ele>638.1</ele>
        <time>2020-10-14T08:33:51Z</time>
      </trkpt>
      <trkpt lat="37.440312000" lon="-4.152091000">
        <ele>638.4</ele>
        <time>2020-10-14T08:33:54Z</time>
      </trkpt>
      <trkpt lat="37.440295000" lon="-4.151958000">
        <ele>638.7</ele>
        <time>2020-10-14T08:33:57Z</time>
      </trkpt>
      <trkpt lat="37.440279000" lon="-4.151828000">
        <ele>639.2</ele>
        <time>2020-10-14T08:34:00Z</time>
      </trkpt>
      <trkpt lat="37.440261000" lon="-4.151701000">
        <ele>639.7</ele>
        <time>2020-10-14T08:34:03Z</time>
      </trkpt>
      <trkpt lat="37.440241000" lon="-4.151575000">
        <ele>640.4</ele>
        <time>2020-10-14T08:34:06Z</time>
      </trkpt>
      <trkpt lat="37.440217000" lon="-4.151449000">
        <ele>641.0</ele>
        <time>2020-10-14T08:34:09Z</time>
      </trkpt>
      <trkpt lat="37.440189000" lon="-4.151323000">
        <ele>641.6</ele>
        <time>2020-10-14T08:34:12Z</time>
      </trkpt>
      <trkpt lat="37.440160000" lon="-4.151200000">
        <ele>642.3</ele>
        <time>2020-10-14T08:34:15Z</time>
      </trkpt>
      <trkpt lat="37.440136000" lon="-4.151077000">
        <ele>642.8</ele>
        <time>2020-10-14T08:34:18Z</time>
      </trkpt>
      <trkpt lat="37.440111000" lon="-4.150957000">
        <ele>643.4</ele>
        <time>2020-10-14T08:34:21Z</time>
      </trkpt>
      <trkpt lat="37.440093000" lon="-4.150840000">
        <ele>643.9</ele>
        <time>2020-10-14T08:34:24Z</time>
      </trkpt>
      <trkpt lat="37.440074000" lon="-4.150721000">
        <ele>644.3</ele>
        <time>2020-10-14T08:34:27Z</time>
      </trkpt>
      <trkpt lat="37.440049000" lon="-4.150601000">
        <ele>644.5</ele>
        <time>2020-10-14T08:34:30Z</time>
      </trkpt>
      <trkpt lat="37.440028000" lon="-4.150486000">
        <ele>644.8</ele>
        <time>2020-10-14T08:34:33Z</time>
      </trkpt>
      <trkpt lat="37.440007000" lon="-4.150368000">
        <ele>645.1</ele>
        <time>2020-10-14T08:34:36Z</time>
      </trkpt>
      <trkpt lat="37.439988000" lon="-4.150257000">
        <ele>645.4</ele>
        <time>2020-10-14T08:34:39Z</time>
      </trkpt>
      <trkpt lat="37.439969000" lon="-4.150150000">
        <ele>645.6</ele>
        <time>2020-10-14T08:34:42Z</time>
      </trkpt>
      <trkpt lat="37.439943000" lon="-4.150018000">
        <ele>646.0</ele>
        <time>2020-10-14T08:34:46Z</time>
      </trkpt>
      <trkpt lat="37.439921000" lon="-4.149913000">
        <ele>646.5</ele>
        <time>2020-10-14T08:34:49Z</time>
      </trkpt>
      <trkpt lat="37.439899000" lon="-4.149802000">
        <ele>647.1</ele>
        <time>2020-10-14T08:34:52Z</time>
      </trkpt>
      <trkpt lat="37.439881000" lon="-4.149691000">
        <ele>647.8</ele>
        <time>2020-10-14T08:34:55Z</time>
      </trkpt>
      <trkpt lat="37.439866000" lon="-4.149585000">
        <ele>648.5</ele>
        <time>2020-10-14T08:34:58Z</time>
      </trkpt>
      <trkpt lat="37.439850000" lon="-4.149478000">
        <ele>649.0</ele>
        <time>2020-10-14T08:35:01Z</time>
      </trkpt>
      <trkpt lat="37.439832000" lon="-4.149371000">
        <ele>649.5</ele>
        <time>2020-10-14T08:35:04Z</time>
      </trkpt>
      <trkpt lat="37.439812000" lon="-4.149270000">
        <ele>650.1</ele>
        <time>2020-10-14T08:35:07Z</time>
      </trkpt>
      <trkpt lat="37.439783000" lon="-4.149143000">
        <ele>650.6</ele>
        <time>2020-10-14T08:35:11Z</time>
      </trkpt>
      <trkpt lat="37.439758000" lon="-4.149033000">
        <ele>651.2</ele>
        <time>2020-10-14T08:35:15Z</time>
      </trkpt>
      <trkpt lat="37.439731000" lon="-4.148908000">
        <ele>651.9</ele>
        <time>2020-10-14T08:35:19Z</time>
      </trkpt>
      <trkpt lat="37.439714000" lon="-4.148805000">
        <ele>652.6</ele>
        <time>2020-10-14T08:35:22Z</time>
      </trkpt>
      <trkpt lat="37.439693000" lon="-4.148702000">
        <ele>653.4</ele>
        <time>2020-10-14T08:35:25Z</time>
      </trkpt>
      <trkpt lat="37.439673000" lon="-4.148601000">
        <ele>654.1</ele>
        <time>2020-10-14T08:35:28Z</time>
      </trkpt>
      <trkpt lat="37.439654000" lon="-4.148499000">
        <ele>654.7</ele>
        <time>2020-10-14T08:35:31Z</time>
      </trkpt>
      <trkpt lat="37.439630000" lon="-4.148395000">
        <ele>655.5</ele>
        <time>2020-10-14T08:35:34Z</time>
      </trkpt>
      <trkpt lat="37.439609000" lon="-4.148289000">
        <ele>656.3</ele>
        <time>2020-10-14T08:35:37Z</time>
      </trkpt>
      <trkpt lat="37.439590000" lon="-4.148185000">
        <ele>657.2</ele>
        <time>2020-10-14T08:35:40Z</time>
      </trkpt>
      <trkpt lat="37.439561000" lon="-4.148056000">
        <ele>658.0</ele>
        <time>2020-10-14T08:35:44Z</time>
      </trkpt>
      <trkpt lat="37.439540000" lon="-4.147957000">
        <ele>658.7</ele>
        <time>2020-10-14T08:35:47Z</time>
      </trkpt>
      <trkpt lat="37.439515000" lon="-4.147857000">
        <ele>659.5</ele>
        <time>2020-10-14T08:35:50Z</time>
      </trkpt>
      <trkpt lat="37.439482000" lon="-4.147758000">
        <ele>660.0</ele>
        <time>2020-10-14T08:35:53Z</time>
      </trkpt>
      <trkpt lat="37.439444000" lon="-4.147660000">
        <ele>660.5</ele>
        <time>2020-10-14T08:35:56Z</time>
      </trkpt>
      <trkpt lat="37.439407000" lon="-4.147558000">
        <ele>660.8</ele>
        <time>2020-10-14T08:35:59Z</time>
      </trkpt>
      <trkpt lat="37.439362000" lon="-4.147461000">
        <ele>661.0</ele>
        <time>2020-10-14T08:36:02Z</time>
      </trkpt>
      <trkpt lat="37.439320000" lon="-4.147365000">
        <ele>661.2</ele>
        <time>2020-10-14T08:36:05Z</time>
      </trkpt>
      <trkpt lat="37.439279000" lon="-4.147265000">
        <ele>661.3</ele>
        <time>2020-10-14T08:36:08Z</time>
      </trkpt>
      <trkpt lat="37.439244000" lon="-4.147165000">
        <ele>661.4</ele>
        <time>2020-10-14T08:36:11Z</time>
      </trkpt>
      <trkpt lat="37.439206000" lon="-4.147067000">
        <ele>661.4</ele>
        <time>2020-10-14T08:36:14Z</time>
      </trkpt>
      <trkpt lat="37.439172000" lon="-4.146969000">
        <ele>661.4</ele>
        <time>2020-10-14T08:36:17Z</time>
      </trkpt>
      <trkpt lat="37.439134000" lon="-4.146872000">
        <ele>661.4</ele>
        <time>2020-10-14T08:36:20Z</time>
      </trkpt>
      <trkpt lat="37.439092000" lon="-4.146776000">
        <ele>661.3</ele>
        <time>2020-10-14T08:36:23Z</time>
      </trkpt>
      <trkpt lat="37.439053000" lon="-4.146682000">
        <ele>661.2</ele>
        <time>2020-10-14T08:36:26Z</time>
      </trkpt>
      <trkpt lat="37.439012000" lon="-4.146591000">
        <ele>661.1</ele>
        <time>2020-10-14T08:36:29Z</time>
      </trkpt>
      <trkpt lat="37.438967000" lon="-4.146491000">
        <ele>661.0</ele>
        <time>2020-10-14T08:36:32Z</time>
      </trkpt>
      <trkpt lat="37.438920000" lon="-4.146391000">
        <ele>661.0</ele>
        <time>2020-10-14T08:36:35Z</time>
      </trkpt>
      <trkpt lat="37.438873000" lon="-4.146301000">
        <ele>661.1</ele>
        <time>2020-10-14T08:36:38Z</time>
      </trkpt>
      <trkpt lat="37.438826000" lon="-4.146210000">
        <ele>661.2</ele>
        <time>2020-10-14T08:36:41Z</time>
      </trkpt>
      <trkpt lat="37.438780000" lon="-4.146115000">
        <ele>661.3</ele>
        <time>2020-10-14T08:36:44Z</time>
      </trkpt>
      <trkpt lat="37.438739000" lon="-4.146023000">
        <ele>661.4</ele>
        <time>2020-10-14T08:36:47Z</time>
      </trkpt>
      <trkpt lat="37.438688000" lon="-4.145930000">
        <ele>661.5</ele>
        <time>2020-10-14T08:36:50Z</time>
      </trkpt>
      <trkpt lat="37.438641000" lon="-4.145837000">
        <ele>661.8</ele>
        <time>2020-10-14T08:36:53Z</time>
      </trkpt>
      <trkpt lat="37.438592000" lon="-4.145744000">
        <ele>662.1</ele>
        <time>2020-10-14T08:36:56Z</time>
      </trkpt>
      <trkpt lat="37.438543000" lon="-4.145650000">
        <ele>662.5</ele>
        <time>2020-10-14T08:36:59Z</time>
      </trkpt>
      <trkpt lat="37.438484000" lon="-4.145556000">
        <ele>662.8</ele>
        <time>2020-10-14T08:37:02Z</time>
      </trkpt>
      <trkpt lat="37.438425000" lon="-4.145470000">
        <ele>663.2</ele>
        <time>2020-10-14T08:37:05Z</time>
      </trkpt>
      <trkpt lat="37.438364000" lon="-4.145385000">
        <ele>663.5</ele>
        <time>2020-10-14T08:37:08Z</time>
      </trkpt>
      <trkpt lat="37.438301000" lon="-4.145307000">
        <ele>663.9</ele>
        <time>2020-10-14T08:37:11Z</time>
      </trkpt>
      <trkpt lat="37.438238000" lon="-4.145226000">
        <ele>664.3</ele>
        <time>2020-10-14T08:37:14Z</time>
      </trkpt>
      <trkpt lat="37.438176000" lon="-4.145152000">
        <ele>664.7</ele>
        <time>2020-10-14T08:37:17Z</time>
      </trkpt>
      <trkpt lat="37.438114000" lon="-4.145078000">
        <ele>665.2</ele>
        <time>2020-10-14T08:37:20Z</time>
      </trkpt>
      <trkpt lat="37.438048000" lon="-4.145008000">
        <ele>665.6</ele>
        <time>2020-10-14T08:37:23Z</time>
      </trkpt>
      <trkpt lat="37.437982000" lon="-4.144936000">
        <ele>666.0</ele>
        <time>2020-10-14T08:37:26Z</time>
      </trkpt>
      <trkpt lat="37.437916000" lon="-4.144862000">
        <ele>666.5</ele>
        <time>2020-10-14T08:37:29Z</time>
      </trkpt>
      <trkpt lat="37.437848000" lon="-4.144786000">
        <ele>666.8</ele>
        <time>2020-10-14T08:37:32Z</time>
      </trkpt>
      <trkpt lat="37.437776000" lon="-4.144710000">
        <ele>667.3</ele>
        <time>2020-10-14T08:37:35Z</time>
      </trkpt>
      <trkpt lat="37.437704000" lon="-4.144633000">
        <ele>667.7</ele>
        <time>2020-10-14T08:37:38Z</time>
      </trkpt>
      <trkpt lat="37.437631000" lon="-4.144558000">
        <ele>668.2</ele>
        <time>2020-10-14T08:37:41Z</time>
      </trkpt>
      <trkpt lat="37.437563000" lon="-4.144488000">
        <ele>668.6</ele>
        <time>2020-10-14T08:37:44Z</time>
      </trkpt>
      <trkpt lat="37.437496000" lon="-4.144421000">
        <ele>669.1</ele>
        <time>2020-10-14T08:37:47Z</time>
      </trkpt>
      <trkpt lat="37.437428000" lon="-4.144354000">
        <ele>669.5</ele>
        <time>2020-10-14T08:37:50Z</time>
      </trkpt>
      <trkpt lat="37.437366000" lon="-4.144281000">
        <ele>670.0</ele>
        <time>2020-10-14T08:37:53Z</time>
      </trkpt>
      <trkpt lat="37.437299000" lon="-4.144214000">
        <ele>670.5</ele>
        <time>2020-10-14T08:37:56Z</time>
      </trkpt>
      <trkpt lat="37.437236000" lon="-4.144144000">
        <ele>670.9</ele>
        <time>2020-10-14T08:37:59Z</time>
      </trkpt>
      <trkpt lat="37.437170000" lon="-4.144084000">
        <ele>671.4</ele>
        <time>2020-10-14T08:38:02Z</time>
      </trkpt>
      <trkpt lat="37.437086000" lon="-4.143994000">
        <ele>671.8</ele>
        <time>2020-10-14T08:38:06Z</time>
      </trkpt>
      <trkpt lat="37.437016000" lon="-4.143924000">
        <ele>672.3</ele>
        <time>2020-10-14T08:38:09Z</time>
      </trkpt>
      <trkpt lat="37.436947000" lon="-4.143848000">
        <ele>672.8</ele>
        <time>2020-10-14T08:38:12Z</time>
      </trkpt>
      <trkpt lat="37.436873000" lon="-4.143775000">
        <ele>673.5</ele>
        <time>2020-10-14T08:38:15Z</time>
      </trkpt>
      <trkpt lat="37.436797000" lon="-4.143700000">
        <ele>674.0</ele>
        <time>2020-10-14T08:38:18Z</time>
      </trkpt>
      <trkpt lat="37.436723000" lon="-4.143633000">
        <ele>674.5</ele>
        <time>2020-10-14T08:38:21Z</time>
      </trkpt>
      <trkpt lat="37.436653000" lon="-4.143568000">
        <ele>675.0</ele>
        <time>2020-10-14T08:38:24Z</time>
      </trkpt>
      <trkpt lat="37.436582000" lon="-4.143508000">
        <ele>675.4</ele>
        <time>2020-10-14T08:38:27Z</time>
      </trkpt>
      <trkpt lat="37.436516000" lon="-4.143442000">
        <ele>675.7</ele>
        <time>2020-10-14T08:38:30Z</time>
      </trkpt>
      <trkpt lat="37.436447000" lon="-4.143373000">
        <ele>676.1</ele>
        <time>2020-10-14T08:38:33Z</time>
      </trkpt>
      <trkpt lat="37.436375000" lon="-4.143298000">
        <ele>676.4</ele>
        <time>2020-10-14T08:38:36Z</time>
      </trkpt>
      <trkpt lat="37.436305000" lon="-4.143221000">
        <ele>676.7</ele>
        <time>2020-10-14T08:38:39Z</time>
      </trkpt>
      <trkpt lat="37.436239000" lon="-4.143149000">
        <ele>677.0</ele>
        <time>2020-10-14T08:38:42Z</time>
      </trkpt>
      <trkpt lat="37.436174000" lon="-4.143080000">
        <ele>677.3</ele>
        <time>2020-10-14T08:38:45Z</time>
      </trkpt>
      <trkpt lat="37.436108000" lon="-4.143006000">
        <ele>677.5</ele>
        <time>2020-10-14T08:38:48Z</time>
      </trkpt>
      <trkpt lat="37.436042000" lon="-4.142936000">
        <ele>677.9</ele>
        <time>2020-10-14T08:38:51Z</time>
      </trkpt>
      <trkpt lat="37.435952000" lon="-4.142855000">
        <ele>678.4</ele>
        <time>2020-10-14T08:38:55Z</time>
      </trkpt>
      <trkpt lat="37.435881000" lon="-4.142793000">
        <ele>678.9</ele>
        <time>2020-10-14T08:38:58Z</time>
      </trkpt>
      <trkpt lat="37.435815000" lon="-4.142731000">
        <ele>679.5</ele>
        <time>2020-10-14T08:39:01Z</time>
      </trkpt>
      <trkpt lat="37.435747000" lon="-4.142660000">
        <ele>680.2</ele>
        <time>2020-10-14T08:39:04Z</time>
      </trkpt>
      <trkpt lat="37.435681000" lon="-4.142588000">
        <ele>680.8</ele>
        <time>2020-10-14T08:39:07Z</time>
      </trkpt>
      <trkpt lat="37.435615000" lon="-4.142519000">
        <ele>681.5</ele>
        <time>2020-10-14T08:39:10Z</time>
      </trkpt>
      <trkpt lat="37.435550000" lon="-4.142453000">
        <ele>682.0</ele>
        <time>2020-10-14T08:39:13Z</time>
      </trkpt>
      <trkpt lat="37.435486000" lon="-4.142386000">
        <ele>682.5</ele>
        <time>2020-10-14T08:39:16Z</time>
      </trkpt>
      <trkpt lat="37.435418000" lon="-4.142323000">
        <ele>683.0</ele>
        <time>2020-10-14T08:39:19Z</time>
      </trkpt>
      <trkpt lat="37.435359000" lon="-4.142249000">
        <ele>683.4</ele>
        <time>2020-10-14T08:39:22Z</time>
      </trkpt>
      <trkpt lat="37.435293000" lon="-4.142174000">
        <ele>683.7</ele>
        <time>2020-10-14T08:39:25Z</time>
      </trkpt>
      <trkpt lat="37.435226000" lon="-4.142101000">
        <ele>684.0</ele>
        <time>2020-10-14T08:39:28Z</time>
      </trkpt>
      <trkpt lat="37.435162000" lon="-4.142026000">
        <ele>684.3</ele>
        <time>2020-10-14T08:39:31Z</time>
      </trkpt>
      <trkpt lat="37.435100000" lon="-4.141947000">
        <ele>684.5</ele>
        <time>2020-10-14T08:39:34Z</time>
      </trkpt>
      <trkpt lat="37.435037000" lon="-4.141868000">
        <ele>684.8</ele>
        <time>2020-10-14T08:39:37Z</time>
      </trkpt>
      <trkpt lat="37.434977000" lon="-4.141789000">
        <ele>685.1</ele>
        <time>2020-10-14T08:39:40Z</time>
      </trkpt>
      <trkpt lat="37.434917000" lon="-4.141706000">
        <ele>685.4</ele>
        <time>2020-10-14T08:39:43Z</time>
      </trkpt>
      <trkpt lat="37.434855000" lon="-4.141631000">
        <ele>685.7</ele>
        <time>2020-10-14T08:39:46Z</time>
      </trkpt>
      <trkpt lat="37.434801000" lon="-4.141552000">
        <ele>686.1</ele>
        <time>2020-10-14T08:39:49Z</time>
      </trkpt>
      <trkpt lat="37.434748000" lon="-4.141472000">
        <ele>686.5</ele>
        <time>2020-10-14T08:39:52Z</time>
      </trkpt>
      <trkpt lat="37.434695000" lon="-4.141386000">
        <ele>687.0</ele>
        <time>2020-10-14T08:39:55Z</time>
      </trkpt>
      <trkpt lat="37.434643000" lon="-4.141293000">
        <ele>687.4</ele>
        <time>2020-10-14T08:39:58Z</time>
      </trkpt>
      <trkpt lat="37.434590000" lon="-4.141198000">
        <ele>687.8</ele>
        <time>2020-10-14T08:40:01Z</time>
      </trkpt>
      <trkpt lat="37.434542000" lon="-4.141097000">
        <ele>688.2</ele>
        <time>2020-10-14T08:40:04Z</time>
      </trkpt>
      <trkpt lat="37.434502000" lon="-4.140996000">
        <ele>688.5</ele>
        <time>2020-10-14T08:40:07Z</time>
      </trkpt>
      <trkpt lat="37.434458000" lon="-4.140895000">
        <ele>688.8</ele>
        <time>2020-10-14T08:40:10Z</time>
      </trkpt>
      <trkpt lat="37.434414000" lon="-4.140793000">
        <ele>689.2</ele>
        <time>2020-10-14T08:40:13Z</time>
      </trkpt>
      <trkpt lat="37.434372000" lon="-4.140688000">
        <ele>689.5</ele>
        <time>2020-10-14T08:40:16Z</time>
      </trkpt>
      <trkpt lat="37.434335000" lon="-4.140580000">
        <ele>689.9</ele>
        <time>2020-10-14T08:40:19Z</time>
      </trkpt>
      <trkpt lat="37.434299000" lon="-4.140469000">
        <ele>690.4</ele>
        <time>2020-10-14T08:40:22Z</time>
      </trkpt>
      <trkpt lat="37.434269000" lon="-4.140356000">
        <ele>690.7</ele>
        <time>2020-10-14T08:40:25Z</time>
      </trkpt>
      <trkpt lat="37.434238000" lon="-4.140241000">
        <ele>691.2</ele>
        <time>2020-10-14T08:40:28Z</time>
      </trkpt>
      <trkpt lat="37.434208000" lon="-4.140119000">
        <ele>691.6</ele>
        <time>2020-10-14T08:40:31Z</time>
      </trkpt>
      <trkpt lat="37.434179000" lon="-4.139993000">
        <ele>692.0</ele>
        <time>2020-10-14T08:40:34Z</time>
      </trkpt>
      <trkpt lat="37.434155000" lon="-4.139863000">
        <ele>692.4</ele>
        <time>2020-10-14T08:40:37Z</time>
      </trkpt>
      <trkpt lat="37.434137000" lon="-4.139726000">
        <ele>692.7</ele>
        <time>2020-10-14T08:40:40Z</time>
      </trkpt>
      <trkpt lat="37.434120000" lon="-4.139591000">
        <ele>693.1</ele>
        <time>2020-10-14T08:40:43Z</time>
      </trkpt>
      <trkpt lat="37.434109000" lon="-4.139464000">
        <ele>693.4</ele>
        <time>2020-10-14T08:40:46Z</time>
      </trkpt>
      <trkpt lat="37.434102000" lon="-4.139341000">
        <ele>693.6</ele>
        <time>2020-10-14T08:40:49Z</time>
      </trkpt>
      <trkpt lat="37.434100000" lon="-4.139216000">
        <ele>693.8</ele>
        <time>2020-10-14T08:40:52Z</time>
      </trkpt>
      <trkpt lat="37.434099000" lon="-4.139092000">
        <ele>693.9</ele>
        <time>2020-10-14T08:40:55Z</time>
      </trkpt>
      <trkpt lat="37.434096000" lon="-4.138965000">
        <ele>694.0</ele>
        <time>2020-10-14T08:40:58Z</time>
      </trkpt>
      <trkpt lat="37.434102000" lon="-4.138838000">
        <ele>694.0</ele>
        <time>2020-10-14T08:41:01Z</time>
      </trkpt>
      <trkpt lat="37.434107000" lon="-4.138710000">
        <ele>694.0</ele>
        <time>2020-10-14T08:41:04Z</time>
      </trkpt>
      <trkpt lat="37.434111000" lon="-4.138580000">
        <ele>694.0</ele>
        <time>2020-10-14T08:41:07Z</time>
      </trkpt>
      <trkpt lat="37.434119000" lon="-4.138449000">
        <ele>694.0</ele>
        <time>2020-10-14T08:41:10Z</time>
      </trkpt>
      <trkpt lat="37.434129000" lon="-4.138317000">
        <ele>694.1</ele>
        <time>2020-10-14T08:41:13Z</time>
      </trkpt>
      <trkpt lat="37.434137000" lon="-4.138186000">
        <ele>694.3</ele>
        <time>2020-10-14T08:41:16Z</time>
      </trkpt>
      <trkpt lat="37.434147000" lon="-4.138054000">
        <ele>694.5</ele>
        <time>2020-10-14T08:41:19Z</time>
      </trkpt>
      <trkpt lat="37.434158000" lon="-4.137924000">
        <ele>694.8</ele>
        <time>2020-10-14T08:41:22Z</time>
      </trkpt>
      <trkpt lat="37.434168000" lon="-4.137794000">
        <ele>695.2</ele>
        <time>2020-10-14T08:41:25Z</time>
      </trkpt>
      <trkpt lat="37.434180000" lon="-4.137668000">
        <ele>695.6</ele>
        <time>2020-10-14T08:41:28Z</time>
      </trkpt>
      <trkpt lat="37.434189000" lon="-4.137543000">
        <ele>696.1</ele>
        <time>2020-10-14T08:41:31Z</time>
      </trkpt>
      <trkpt lat="37.434194000" lon="-4.137419000">
        <ele>696.6</ele>
        <time>2020-10-14T08:41:34Z</time>
      </trkpt>
      <trkpt lat="37.434202000" lon="-4.137296000">
        <ele>697.2</ele>
        <time>2020-10-14T08:41:37Z</time>
      </trkpt>
      <trkpt lat="37.434213000" lon="-4.137172000">
        <ele>697.7</ele>
        <time>2020-10-14T08:41:40Z</time>
      </trkpt>
      <trkpt lat="37.434222000" lon="-4.137045000">
        <ele>698.3</ele>
        <time>2020-10-14T08:41:43Z</time>
      </trkpt>
      <trkpt lat="37.434232000" lon="-4.136919000">
        <ele>698.8</ele>
        <time>2020-10-14T08:41:46Z</time>
      </trkpt>
      <trkpt lat="37.434242000" lon="-4.136788000">
        <ele>699.3</ele>
        <time>2020-10-14T08:41:49Z</time>
      </trkpt>
      <trkpt lat="37.434251000" lon="-4.136658000">
        <ele>699.6</ele>
        <time>2020-10-14T08:41:52Z</time>
      </trkpt>
      <trkpt lat="37.434266000" lon="-4.136524000">
        <ele>700.1</ele>
        <time>2020-10-14T08:41:55Z</time>
      </trkpt>
      <trkpt lat="37.434277000" lon="-4.136389000">
        <ele>700.5</ele>
        <time>2020-10-14T08:41:58Z</time>
      </trkpt>
      <trkpt lat="37.434285000" lon="-4.136256000">
        <ele>700.8</ele>
        <time>2020-10-14T08:42:01Z</time>
      </trkpt>
      <trkpt lat="37.434296000" lon="-4.136128000">
        <ele>701.2</ele>
        <time>2020-10-14T08:42:04Z</time>
      </trkpt>
      <trkpt lat="37.434308000" lon="-4.135996000">
        <ele>701.5</ele>
        <time>2020-10-14T08:42:07Z</time>
      </trkpt>
      <trkpt lat="37.434316000" lon="-4.135861000">
        <ele>701.7</ele>
        <time>2020-10-14T08:42:10Z</time>
      </trkpt>
      <trkpt lat="37.434322000" lon="-4.135723000">
        <ele>702.0</ele>
        <time>2020-10-14T08:42:13Z</time>
      </trkpt>
      <trkpt lat="37.434334000" lon="-4.135582000">
        <ele>702.2</ele>
        <time>2020-10-14T08:42:16Z</time>
      </trkpt>
      <trkpt lat="37.434348000" lon="-4.135443000">
        <ele>702.3</ele>
        <time>2020-10-14T08:42:19Z</time>
      </trkpt>
      <trkpt lat="37.434364000" lon="-4.135307000">
        <ele>702.4</ele>
        <time>2020-10-14T08:42:22Z</time>
      </trkpt>
      <trkpt lat="37.434373000" lon="-4.135169000">
        <ele>702.5</ele>
        <time>2020-10-14T08:42:25Z</time>
      </trkpt>
      <trkpt lat="37.434380000" lon="-4.135024000">
        <ele>702.5</ele>
        <time>2020-10-14T08:42:28Z</time>
      </trkpt>
      <trkpt lat="37.434392000" lon="-4.134873000">
        <ele>702.5</ele>
        <time>2020-10-14T08:42:31Z</time>
      </trkpt>
      <trkpt lat="37.434404000" lon="-4.134725000">
        <ele>702.4</ele>
        <time>2020-10-14T08:42:34Z</time>
      </trkpt>
      <trkpt lat="37.434413000" lon="-4.134581000">
        <ele>702.3</ele>
        <time>2020-10-14T08:42:37Z</time>
      </trkpt>
      <trkpt lat="37.434420000" lon="-4.134476000">
        <ele>702.2</ele>
        <time>2020-10-14T08:42:39Z</time>
      </trkpt>
      <trkpt lat="37.434428000" lon="-4.134367000">
        <ele>702.1</ele>
        <time>2020-10-14T08:42:41Z</time>
      </trkpt>
      <trkpt lat="37.434438000" lon="-4.134249000">
        <ele>701.9</ele>
        <time>2020-10-14T08:42:43Z</time>
      </trkpt>
      <trkpt lat="37.434450000" lon="-4.134135000">
        <ele>701.8</ele>
        <time>2020-10-14T08:42:45Z</time>
      </trkpt>
      <trkpt lat="37.434461000" lon="-4.134021000">
        <ele>701.6</ele>
        <time>2020-10-14T08:42:47Z</time>
      </trkpt>
      <trkpt lat="37.434473000" lon="-4.133896000">
        <ele>701.5</ele>
        <time>2020-10-14T08:42:49Z</time>
      </trkpt>
      <trkpt lat="37.434486000" lon="-4.133770000">
        <ele>701.3</ele>
        <time>2020-10-14T08:42:51Z</time>
      </trkpt>
      <trkpt lat="37.434496000" lon="-4.133636000">
        <ele>701.1</ele>
        <time>2020-10-14T08:42:53Z</time>
      </trkpt>
      <trkpt lat="37.434511000" lon="-4.133510000">
        <ele>700.9</ele>
        <time>2020-10-14T08:42:55Z</time>
      </trkpt>
      <trkpt lat="37.434527000" lon="-4.133375000">
        <ele>700.7</ele>
        <time>2020-10-14T08:42:57Z</time>
      </trkpt>
      <trkpt lat="37.434534000" lon="-4.133237000">
        <ele>700.6</ele>
        <time>2020-10-14T08:42:59Z</time>
      </trkpt>
      <trkpt lat="37.434546000" lon="-4.133108000">
        <ele>700.5</ele>
        <time>2020-10-14T08:43:01Z</time>
      </trkpt>
      <trkpt lat="37.434553000" lon="-4.132973000">
        <ele>700.5</ele>
        <time>2020-10-14T08:43:03Z</time>
      </trkpt>
      <trkpt lat="37.434558000" lon="-4.132836000">
        <ele>700.5</ele>
        <time>2020-10-14T08:43:05Z</time>
      </trkpt>
      <trkpt lat="37.434570000" lon="-4.132703000">
        <ele>700.4</ele>
        <time>2020-10-14T08:43:07Z</time>
      </trkpt>
      <trkpt lat="37.434577000" lon="-4.132563000">
        <ele>700.3</ele>
        <time>2020-10-14T08:43:09Z</time>
      </trkpt>
      <trkpt lat="37.434589000" lon="-4.132430000">
        <ele>700.2</ele>
        <time>2020-10-14T08:43:11Z</time>
      </trkpt>
      <trkpt lat="37.434596000" lon="-4.132296000">
        <ele>700.1</ele>
        <time>2020-10-14T08:43:13Z</time>
      </trkpt>
      <trkpt lat="37.434606000" lon="-4.132155000">
        <ele>700.1</ele>
        <time>2020-10-14T08:43:15Z</time>
      </trkpt>
      <trkpt lat="37.434619000" lon="-4.132014000">
        <ele>700.2</ele>
        <time>2020-10-14T08:43:17Z</time>
      </trkpt>
      <trkpt lat="37.434630000" lon="-4.131876000">
        <ele>700.3</ele>
        <time>2020-10-14T08:43:19Z</time>
      </trkpt>
      <trkpt lat="37.434640000" lon="-4.131735000">
        <ele>700.3</ele>
        <time>2020-10-14T08:43:21Z</time>
      </trkpt>
      <trkpt lat="37.434649000" lon="-4.131596000">
        <ele>700.4</ele>
        <time>2020-10-14T08:43:23Z</time>
      </trkpt>
      <trkpt lat="37.434660000" lon="-4.131458000">
        <ele>700.5</ele>
        <time>2020-10-14T08:43:25Z</time>
      </trkpt>
      <trkpt lat="37.434672000" lon="-4.131316000">
        <ele>700.5</ele>
        <time>2020-10-14T08:43:27Z</time>
      </trkpt>
      <trkpt lat="37.434681000" lon="-4.131177000">
        <ele>700.5</ele>
        <time>2020-10-14T08:43:29Z</time>
      </trkpt>
      <trkpt lat="37.434692000" lon="-4.131042000">
        <ele>700.6</ele>
        <time>2020-10-14T08:43:31Z</time>
      </trkpt>
      <trkpt lat="37.434706000" lon="-4.130905000">
        <ele>700.7</ele>
        <time>2020-10-14T08:43:33Z</time>
      </trkpt>
      <trkpt lat="37.434717000" lon="-4.130771000">
        <ele>700.7</ele>
        <time>2020-10-14T08:43:35Z</time>
      </trkpt>
      <trkpt lat="37.434728000" lon="-4.130637000">
        <ele>700.6</ele>
        <time>2020-10-14T08:43:37Z</time>
      </trkpt>
      <trkpt lat="37.434738000" lon="-4.130505000">
        <ele>700.5</ele>
        <time>2020-10-14T08:43:39Z</time>
      </trkpt>
      <trkpt lat="37.434740000" lon="-4.130379000">
        <ele>700.3</ele>
        <time>2020-10-14T08:43:41Z</time>
      </trkpt>
      <trkpt lat="37.434753000" lon="-4.130253000">
        <ele>700.2</ele>
        <time>2020-10-14T08:43:43Z</time>
      </trkpt>
      <trkpt lat="37.434767000" lon="-4.130134000">
        <ele>700.1</ele>
        <time>2020-10-14T08:43:45Z</time>
      </trkpt>
      <trkpt lat="37.434778000" lon="-4.130013000">
        <ele>700.0</ele>
        <time>2020-10-14T08:43:47Z</time>
      </trkpt>
      <trkpt lat="37.434786000" lon="-4.129899000">
        <ele>700.1</ele>
        <time>2020-10-14T08:43:49Z</time>
      </trkpt>
      <trkpt lat="37.434796000" lon="-4.129789000">
        <ele>700.2</ele>
        <time>2020-10-14T08:43:51Z</time>
      </trkpt>
      <trkpt lat="37.434804000" lon="-4.129682000">
        <ele>700.5</ele>
        <time>2020-10-14T08:43:53Z</time>
      </trkpt>
      <trkpt lat="37.434817000" lon="-4.129533000">
        <ele>700.8</ele>
        <time>2020-10-14T08:43:56Z</time>
      </trkpt>
      <trkpt lat="37.434829000" lon="-4.129423000">
        <ele>701.4</ele>
        <time>2020-10-14T08:43:58Z</time>
      </trkpt>
      <trkpt lat="37.434838000" lon="-4.129309000">
        <ele>702.0</ele>
        <time>2020-10-14T08:44:00Z</time>
      </trkpt>
      <trkpt lat="37.434844000" lon="-4.129166000">
        <ele>702.5</ele>
        <time>2020-10-14T08:44:03Z</time>
      </trkpt>
      <trkpt lat="37.434851000" lon="-4.129029000">
        <ele>703.1</ele>
        <time>2020-10-14T08:44:06Z</time>
      </trkpt>
      <trkpt lat="37.434862000" lon="-4.128894000">
        <ele>703.5</ele>
        <time>2020-10-14T08:44:09Z</time>
      </trkpt>
      <trkpt lat="37.434871000" lon="-4.128751000">
        <ele>703.9</ele>
        <time>2020-10-14T08:44:12Z</time>
      </trkpt>
      <trkpt lat="37.434880000" lon="-4.128602000">
        <ele>704.4</ele>
        <time>2020-10-14T08:44:15Z</time>
      </trkpt>
      <trkpt lat="37.434889000" lon="-4.128456000">
        <ele>704.8</ele>
        <time>2020-10-14T08:44:18Z</time>
      </trkpt>
      <trkpt lat="37.434897000" lon="-4.128314000">
        <ele>705.2</ele>
        <time>2020-10-14T08:44:21Z</time>
      </trkpt>
      <trkpt lat="37.434907000" lon="-4.128171000">
        <ele>705.5</ele>
        <time>2020-10-14T08:44:24Z</time>
      </trkpt>
      <trkpt lat="37.434924000" lon="-4.128028000">
        <ele>705.9</ele>
        <time>2020-10-14T08:44:27Z</time>
      </trkpt>
      <trkpt lat="37.434942000" lon="-4.127885000">
        <ele>706.2</ele>
        <time>2020-10-14T08:44:30Z</time>
      </trkpt>
      <trkpt lat="37.434958000" lon="-4.127741000">
        <ele>706.5</ele>
        <time>2020-10-14T08:44:33Z</time>
      </trkpt>
      <trkpt lat="37.434968000" lon="-4.127593000">
        <ele>706.8</ele>
        <time>2020-10-14T08:44:36Z</time>
      </trkpt>
      <trkpt lat="37.434975000" lon="-4.127445000">
        <ele>707.2</ele>
        <time>2020-10-14T08:44:39Z</time>
      </trkpt>
      <trkpt lat="37.434986000" lon="-4.127295000">
        <ele>707.5</ele>
        <time>2020-10-14T08:44:42Z</time>
      </trkpt>
      <trkpt lat="37.434995000" lon="-4.127146000">
        <ele>707.9</ele>
        <time>2020-10-14T08:44:45Z</time>
      </trkpt>
      <trkpt lat="37.435002000" lon="-4.127042000">
        <ele>708.1</ele>
        <time>2020-10-14T08:44:47Z</time>
      </trkpt>
      <trkpt lat="37.435008000" lon="-4.126935000">
        <ele>708.2</ele>
        <time>2020-10-14T08:44:49Z</time>
      </trkpt>
      <trkpt lat="37.435016000" lon="-4.126828000">
        <ele>708.3</ele>
        <time>2020-10-14T08:44:51Z</time>
      </trkpt>
      <trkpt lat="37.435025000" lon="-4.126720000">
        <ele>708.2</ele>
        <time>2020-10-14T08:44:53Z</time>
      </trkpt>
      <trkpt lat="37.435030000" lon="-4.126612000">
        <ele>708.0</ele>
        <time>2020-10-14T08:44:55Z</time>
      </trkpt>
      <trkpt lat="37.435037000" lon="-4.126502000">
        <ele>707.8</ele>
        <time>2020-10-14T08:44:57Z</time>
      </trkpt>
      <trkpt lat="37.435048000" lon="-4.126394000">
        <ele>707.5</ele>
        <time>2020-10-14T08:44:59Z</time>
      </trkpt>
      <trkpt lat="37.435057000" lon="-4.126285000">
        <ele>707.3</ele>
        <time>2020-10-14T08:45:01Z</time>
      </trkpt>
      <trkpt lat="37.435065000" lon="-4.126172000">
        <ele>707.0</ele>
        <time>2020-10-14T08:45:03Z</time>
      </trkpt>
      <trkpt lat="37.435075000" lon="-4.126061000">
        <ele>706.7</ele>
        <time>2020-10-14T08:45:05Z</time>
      </trkpt>
      <trkpt lat="37.435085000" lon="-4.125944000">
        <ele>706.5</ele>
        <time>2020-10-14T08:45:07Z</time>
      </trkpt>
      <trkpt lat="37.435097000" lon="-4.125828000">
        <ele>706.3</ele>
        <time>2020-10-14T08:45:09Z</time>
      </trkpt>
      <trkpt lat="37.435106000" lon="-4.125715000">
        <ele>706.1</ele>
        <time>2020-10-14T08:45:11Z</time>
      </trkpt>
      <trkpt lat="37.435114000" lon="-4.125597000">
        <ele>706.0</ele>
        <time>2020-10-14T08:45:13Z</time>
      </trkpt>
      <trkpt lat="37.435121000" lon="-4.125479000">
        <ele>706.1</ele>
        <time>2020-10-14T08:45:15Z</time>
      </trkpt>
      <trkpt lat="37.435124000" lon="-4.125363000">
        <ele>706.2</ele>
        <time>2020-10-14T08:45:17Z</time>
      </trkpt>
      <trkpt lat="37.435134000" lon="-4.125245000">
        <ele>706.4</ele>
        <time>2020-10-14T08:45:19Z</time>
      </trkpt>
      <trkpt lat="37.435140000" lon="-4.125125000">
        <ele>706.6</ele>
        <time>2020-10-14T08:45:21Z</time>
      </trkpt>
      <trkpt lat="37.435143000" lon="-4.125002000">
        <ele>706.9</ele>
        <time>2020-10-14T08:45:23Z</time>
      </trkpt>
      <trkpt lat="37.435141000" lon="-4.124879000">
        <ele>707.3</ele>
        <time>2020-10-14T08:45:25Z</time>
      </trkpt>
      <trkpt lat="37.435141000" lon="-4.124763000">
        <ele>707.7</ele>
        <time>2020-10-14T08:45:27Z</time>
      </trkpt>
      <trkpt lat="37.435135000" lon="-4.124643000">
        <ele>708.2</ele>
        <time>2020-10-14T08:45:29Z</time>
      </trkpt>
      <trkpt lat="37.435126000" lon="-4.124522000">
        <ele>708.6</ele>
        <time>2020-10-14T08:45:31Z</time>
      </trkpt>
      <trkpt lat="37.435117000" lon="-4.124404000">
        <ele>709.1</ele>
        <time>2020-10-14T08:45:33Z</time>
      </trkpt>
      <trkpt lat="37.435100000" lon="-4.124283000">
        <ele>709.5</ele>
        <time>2020-10-14T08:45:35Z</time>
      </trkpt>
      <trkpt lat="37.435084000" lon="-4.124162000">
        <ele>709.9</ele>
        <time>2020-10-14T08:45:37Z</time>
      </trkpt>
      <trkpt lat="37.435068000" lon="-4.124042000">
        <ele>710.3</ele>
        <time>2020-10-14T08:45:39Z</time>
      </trkpt>
      <trkpt lat="37.435051000" lon="-4.123925000">
        <ele>710.5</ele>
        <time>2020-10-14T08:45:41Z</time>
      </trkpt>
      <trkpt lat="37.435032000" lon="-4.123802000">
        <ele>710.7</ele>
        <time>2020-10-14T08:45:43Z</time>
      </trkpt>
      <trkpt lat="37.435006000" lon="-4.123690000">
        <ele>710.9</ele>
        <time>2020-10-14T08:45:45Z</time>
      </trkpt>
      <trkpt lat="37.434978000" lon="-4.123575000">
        <ele>711.0</ele>
        <time>2020-10-14T08:45:47Z</time>
      </trkpt>
      <trkpt lat="37.434947000" lon="-4.123462000">
        <ele>711.0</ele>
        <time>2020-10-14T08:45:49Z</time>
      </trkpt>
      <trkpt lat="37.434915000" lon="-4.123362000">
        <ele>711.1</ele>
        <time>2020-10-14T08:45:51Z</time>
      </trkpt>
      <trkpt lat="37.434886000" lon="-4.123252000">
        <ele>711.1</ele>
        <time>2020-10-14T08:45:53Z</time>
      </trkpt>
      <trkpt lat="37.434852000" lon="-4.123141000">
        <ele>711.0</ele>
        <time>2020-10-14T08:45:55Z</time>
      </trkpt>
      <trkpt lat="37.434817000" lon="-4.123031000">
        <ele>710.8</ele>
        <time>2020-10-14T08:45:57Z</time>
      </trkpt>
      <trkpt lat="37.434778000" lon="-4.122918000">
        <ele>710.6</ele>
        <time>2020-10-14T08:45:59Z</time>
      </trkpt>
      <trkpt lat="37.434736000" lon="-4.122803000">
        <ele>710.5</ele>
        <time>2020-10-14T08:46:01Z</time>
      </trkpt>
      <trkpt lat="37.434695000" lon="-4.122691000">
        <ele>710.3</ele>
        <time>2020-10-14T08:46:03Z</time>
      </trkpt>
      <trkpt lat="37.434650000" lon="-4.122572000">
        <ele>710.1</ele>
        <time>2020-10-14T08:46:05Z</time>
      </trkpt>
      <trkpt lat="37.434608000" lon="-4.122454000">
        <ele>710.0</ele>
        <time>2020-10-14T08:46:07Z</time>
      </trkpt>
      <trkpt lat="37.434562000" lon="-4.122332000">
        <ele>709.9</ele>
        <time>2020-10-14T08:46:09Z</time>
      </trkpt>
      <trkpt lat="37.434514000" lon="-4.122207000">
        <ele>709.8</ele>
        <time>2020-10-14T08:46:11Z</time>
      </trkpt>
      <trkpt lat="37.434462000" lon="-4.122079000">
        <ele>709.5</ele>
        <time>2020-10-14T08:46:13Z</time>
      </trkpt>
      <trkpt lat="37.434417000" lon="-4.121948000">
        <ele>708.9</ele>
        <time>2020-10-14T08:46:15Z</time>
      </trkpt>
      <trkpt lat="37.434366000" lon="-4.121813000">
        <ele>708.3</ele>
        <time>2020-10-14T08:46:17Z</time>
      </trkpt>
      <trkpt lat="37.434314000" lon="-4.121674000">
        <ele>707.5</ele>
        <time>2020-10-14T08:46:19Z</time>
      </trkpt>
      <trkpt lat="37.434260000" lon="-4.121520000">
        <ele>706.6</ele>
        <time>2020-10-14T08:46:21Z</time>
      </trkpt>
      <trkpt lat="37.434211000" lon="-4.121358000">
        <ele>705.8</ele>
        <time>2020-10-14T08:46:23Z</time>
      </trkpt>
      <trkpt lat="37.434157000" lon="-4.121182000">
        <ele>705.1</ele>
        <time>2020-10-14T08:46:25Z</time>
      </trkpt>
      <trkpt lat="37.434114000" lon="-4.120998000">
        <ele>704.5</ele>
        <time>2020-10-14T08:46:27Z</time>
      </trkpt>
      <trkpt lat="37.434079000" lon="-4.120816000">
        <ele>704.0</ele>
        <time>2020-10-14T08:46:29Z</time>
      </trkpt>
      <trkpt lat="37.434042000" lon="-4.120629000">
        <ele>703.5</ele>
        <time>2020-10-14T08:46:31Z</time>
      </trkpt>
      <trkpt lat="37.434011000" lon="-4.120439000">
        <ele>703.0</ele>
        <time>2020-10-14T08:46:33Z</time>
      </trkpt>
      <trkpt lat="37.433983000" lon="-4.120255000">
        <ele>702.8</ele>
        <time>2020-10-14T08:46:35Z</time>
      </trkpt>
      <trkpt lat="37.433971000" lon="-4.120073000">
        <ele>703.0</ele>
        <time>2020-10-14T08:46:37Z</time>
      </trkpt>
      <trkpt lat="37.433962000" lon="-4.119904000">
        <ele>703.5</ele>
        <time>2020-10-14T08:46:39Z</time>
      </trkpt>
      <trkpt lat="37.433956000" lon="-4.119739000">
        <ele>704.2</ele>
        <time>2020-10-14T08:46:41Z</time>
      </trkpt>
      <trkpt lat="37.433957000" lon="-4.119581000">
        <ele>704.9</ele>
        <time>2020-10-14T08:46:43Z</time>
      </trkpt>
      <trkpt lat="37.433963000" lon="-4.119437000">
        <ele>705.6</ele>
        <time>2020-10-14T08:46:45Z</time>
      </trkpt>
      <trkpt lat="37.433969000" lon="-4.119304000">
        <ele>706.4</ele>
        <time>2020-10-14T08:46:47Z</time>
      </trkpt>
      <trkpt lat="37.433979000" lon="-4.119182000">
        <ele>706.9</ele>
        <time>2020-10-14T08:46:49Z</time>
      </trkpt>
      <trkpt lat="37.433991000" lon="-4.119073000">
        <ele>707.4</ele>
        <time>2020-10-14T08:46:51Z</time>
      </trkpt>
      <trkpt lat="37.434007000" lon="-4.118960000">
        <ele>707.9</ele>
        <time>2020-10-14T08:46:53Z</time>
      </trkpt>
      <trkpt lat="37.434024000" lon="-4.118843000">
        <ele>708.5</ele>
        <time>2020-10-14T08:46:55Z</time>
      </trkpt>
      <trkpt lat="37.434041000" lon="-4.118732000">
        <ele>709.0</ele>
        <time>2020-10-14T08:46:57Z</time>
      </trkpt>
      <trkpt lat="37.434079000" lon="-4.118588000">
        <ele>709.5</ele>
        <time>2020-10-14T08:47:00Z</time>
      </trkpt>
      <trkpt lat="37.434112000" lon="-4.118452000">
        <ele>710.1</ele>
        <time>2020-10-14T08:47:03Z</time>
      </trkpt>
      <trkpt lat="37.434149000" lon="-4.118317000">
        <ele>710.7</ele>
        <time>2020-10-14T08:47:06Z</time>
      </trkpt>
      <trkpt lat="37.434185000" lon="-4.118180000">
        <ele>711.5</ele>
        <time>2020-10-14T08:47:09Z</time>
      </trkpt>
      <trkpt lat="37.434225000" lon="-4.118048000">
        <ele>712.3</ele>
        <time>2020-10-14T08:47:12Z</time>
      </trkpt>
      <trkpt lat="37.434266000" lon="-4.117921000">
        <ele>713.1</ele>
        <time>2020-10-14T08:47:15Z</time>
      </trkpt>
      <trkpt lat="37.434316000" lon="-4.117793000">
        <ele>714.0</ele>
        <time>2020-10-14T08:47:18Z</time>
      </trkpt>
      <trkpt lat="37.434368000" lon="-4.117667000">
        <ele>714.9</ele>
        <time>2020-10-14T08:47:21Z</time>
      </trkpt>
      <trkpt lat="37.434423000" lon="-4.117541000">
        <ele>715.7</ele>
        <time>2020-10-14T08:47:24Z</time>
      </trkpt>
      <trkpt lat="37.434474000" lon="-4.117423000">
        <ele>716.4</ele>
        <time>2020-10-14T08:47:27Z</time>
      </trkpt>
      <trkpt lat="37.434524000" lon="-4.117308000">
        <ele>716.9</ele>
        <time>2020-10-14T08:47:30Z</time>
      </trkpt>
      <trkpt lat="37.434577000" lon="-4.117188000">
        <ele>717.3</ele>
        <time>2020-10-14T08:47:33Z</time>
      </trkpt>
      <trkpt lat="37.434625000" lon="-4.117067000">
        <ele>717.5</ele>
        <time>2020-10-14T08:47:36Z</time>
      </trkpt>
      <trkpt lat="37.434677000" lon="-4.116944000">
        <ele>717.8</ele>
        <time>2020-10-14T08:47:39Z</time>
      </trkpt>
      <trkpt lat="37.434738000" lon="-4.116817000">
        <ele>718.0</ele>
        <time>2020-10-14T08:47:42Z</time>
      </trkpt>
      <trkpt lat="37.434779000" lon="-4.116726000">
        <ele>718.1</ele>
        <time>2020-10-14T08:47:44Z</time>
      </trkpt>
      <trkpt lat="37.434820000" lon="-4.116635000">
        <ele>718.1</ele>
        <time>2020-10-14T08:47:46Z</time>
      </trkpt>
      <trkpt lat="37.434861000" lon="-4.116544000">
        <ele>718.0</ele>
        <time>2020-10-14T08:47:48Z</time>
      </trkpt>
      <trkpt lat="37.434898000" lon="-4.116450000">
        <ele>717.8</ele>
        <time>2020-10-14T08:47:50Z</time>
      </trkpt>
      <trkpt lat="37.434932000" lon="-4.116356000">
        <ele>717.6</ele>
        <time>2020-10-14T08:47:52Z</time>
      </trkpt>
      <trkpt lat="37.434969000" lon="-4.116262000">
        <ele>717.5</ele>
        <time>2020-10-14T08:47:54Z</time>
      </trkpt>
      <trkpt lat="37.435004000" lon="-4.116164000">
        <ele>717.5</ele>
        <time>2020-10-14T08:47:56Z</time>
      </trkpt>
      <trkpt lat="37.435040000" lon="-4.116065000">
        <ele>717.5</ele>
        <time>2020-10-14T08:47:58Z</time>
      </trkpt>
      <trkpt lat="37.435074000" lon="-4.115962000">
        <ele>717.5</ele>
        <time>2020-10-14T08:48:00Z</time>
      </trkpt>
      <trkpt lat="37.435108000" lon="-4.115862000">
        <ele>717.4</ele>
        <time>2020-10-14T08:48:02Z</time>
      </trkpt>
      <trkpt lat="37.435139000" lon="-4.115764000">
        <ele>717.3</ele>
        <time>2020-10-14T08:48:04Z</time>
      </trkpt>
      <trkpt lat="37.435163000" lon="-4.115664000">
        <ele>717.1</ele>
        <time>2020-10-14T08:48:06Z</time>
      </trkpt>
      <trkpt lat="37.435192000" lon="-4.115559000">
        <ele>716.8</ele>
        <time>2020-10-14T08:48:08Z</time>
      </trkpt>
      <trkpt lat="37.435220000" lon="-4.115452000">
        <ele>716.5</ele>
        <time>2020-10-14T08:48:10Z</time>
      </trkpt>
      <trkpt lat="37.435253000" lon="-4.115338000">
        <ele>716.3</ele>
        <time>2020-10-14T08:48:12Z</time>
      </trkpt>
      <trkpt lat="37.435288000" lon="-4.115219000">
        <ele>716.0</ele>
        <time>2020-10-14T08:48:14Z</time>
      </trkpt>
      <trkpt lat="37.435324000" lon="-4.115098000">
        <ele>715.7</ele>
        <time>2020-10-14T08:48:16Z</time>
      </trkpt>
      <trkpt lat="37.435356000" lon="-4.114970000">
        <ele>715.5</ele>
        <time>2020-10-14T08:48:18Z</time>
      </trkpt>
      <trkpt lat="37.435389000" lon="-4.114838000">
        <ele>715.2</ele>
        <time>2020-10-14T08:48:20Z</time>
      </trkpt>
      <trkpt lat="37.435424000" lon="-4.114701000">
        <ele>714.8</ele>
        <time>2020-10-14T08:48:22Z</time>
      </trkpt>
      <trkpt lat="37.435462000" lon="-4.114565000">
        <ele>714.3</ele>
        <time>2020-10-14T08:48:24Z</time>
      </trkpt>
      <trkpt lat="37.435499000" lon="-4.114404000">
        <ele>713.5</ele>
        <time>2020-10-14T08:48:26Z</time>
      </trkpt>
      <trkpt lat="37.435536000" lon="-4.114247000">
        <ele>712.9</ele>
        <time>2020-10-14T08:48:28Z</time>
      </trkpt>
      <trkpt lat="37.435574000" lon="-4.114075000">
        <ele>712.3</ele>
        <time>2020-10-14T08:48:30Z</time>
      </trkpt>
      <trkpt lat="37.435609000" lon="-4.113904000">
        <ele>711.6</ele>
        <time>2020-10-14T08:48:32Z</time>
      </trkpt>
      <trkpt lat="37.435650000" lon="-4.113721000">
        <ele>711.1</ele>
        <time>2020-10-14T08:48:34Z</time>
      </trkpt>
      <trkpt lat="37.435688000" lon="-4.113529000">
        <ele>710.5</ele>
        <time>2020-10-14T08:48:36Z</time>
      </trkpt>
      <trkpt lat="37.435708000" lon="-4.113430000">
        <ele>710.0</ele>
        <time>2020-10-14T08:48:37Z</time>
      </trkpt>
      <trkpt lat="37.435750000" lon="-4.113240000">
        <ele>709.5</ele>
        <time>2020-10-14T08:48:39Z</time>
      </trkpt>
      <trkpt lat="37.435797000" lon="-4.113045000">
        <ele>709.1</ele>
        <time>2020-10-14T08:48:41Z</time>
      </trkpt>
      <trkpt lat="37.435823000" lon="-4.112944000">
        <ele>708.7</ele>
        <time>2020-10-14T08:48:42Z</time>
      </trkpt>
      <trkpt lat="37.435849000" lon="-4.112842000">
        <ele>708.6</ele>
        <time>2020-10-14T08:48:43Z</time>
      </trkpt>
      <trkpt lat="37.435877000" lon="-4.112740000">
        <ele>708.7</ele>
        <time>2020-10-14T08:48:44Z</time>
      </trkpt>
      <trkpt lat="37.435903000" lon="-4.112633000">
        <ele>708.7</ele>
        <time>2020-10-14T08:48:45Z</time>
      </trkpt>
      <trkpt lat="37.435928000" lon="-4.112527000">
        <ele>708.7</ele>
        <time>2020-10-14T08:48:46Z</time>
      </trkpt>
      <trkpt lat="37.435953000" lon="-4.112425000">
        <ele>708.6</ele>
        <time>2020-10-14T08:48:47Z</time>
      </trkpt>
      <trkpt lat="37.435978000" lon="-4.112319000">
        <ele>708.5</ele>
        <time>2020-10-14T08:48:48Z</time>
      </trkpt>
      <trkpt lat="37.436001000" lon="-4.112212000">
        <ele>708.2</ele>
        <time>2020-10-14T08:48:49Z</time>
      </trkpt>
      <trkpt lat="37.436027000" lon="-4.112107000">
        <ele>707.8</ele>
        <time>2020-10-14T08:48:50Z</time>
      </trkpt>
      <trkpt lat="37.436053000" lon="-4.111999000">
        <ele>707.3</ele>
        <time>2020-10-14T08:48:51Z</time>
      </trkpt>
      <trkpt lat="37.436081000" lon="-4.111898000">
        <ele>706.6</ele>
        <time>2020-10-14T08:48:52Z</time>
      </trkpt>
      <trkpt lat="37.436108000" lon="-4.111792000">
        <ele>706.0</ele>
        <time>2020-10-14T08:48:53Z</time>
      </trkpt>
      <trkpt lat="37.436131000" lon="-4.111687000">
        <ele>705.3</ele>
        <time>2020-10-14T08:48:54Z</time>
      </trkpt>
      <trkpt lat="37.436158000" lon="-4.111578000">
        <ele>704.5</ele>
        <time>2020-10-14T08:48:55Z</time>
      </trkpt>
      <trkpt lat="37.436185000" lon="-4.111469000">
        <ele>703.7</ele>
        <time>2020-10-14T08:48:56Z</time>
      </trkpt>
      <trkpt lat="37.436216000" lon="-4.111363000">
        <ele>703.1</ele>
        <time>2020-10-14T08:48:57Z</time>
      </trkpt>
      <trkpt lat="37.436246000" lon="-4.111253000">
        <ele>702.5</ele>
        <time>2020-10-14T08:48:58Z</time>
      </trkpt>
      <trkpt lat="37.436274000" lon="-4.111142000">
        <ele>701.8</ele>
        <time>2020-10-14T08:48:59Z</time>
      </trkpt>
      <trkpt lat="37.436305000" lon="-4.111031000">
        <ele>701.2</ele>
        <time>2020-10-14T08:49:00Z</time>
      </trkpt>
      <trkpt lat="37.436338000" lon="-4.110929000">
        <ele>700.6</ele>
        <time>2020-10-14T08:49:01Z</time>
      </trkpt>
      <trkpt lat="37.436370000" lon="-4.110820000">
        <ele>700.2</ele>
        <time>2020-10-14T08:49:02Z</time>
      </trkpt>
      <trkpt lat="37.436402000" lon="-4.110712000">
        <ele>699.8</ele>
        <time>2020-10-14T08:49:03Z</time>
      </trkpt>
      <trkpt lat="37.436433000" lon="-4.110605000">
        <ele>699.5</ele>
        <time>2020-10-14T08:49:04Z</time>
      </trkpt>
      <trkpt lat="37.436464000" lon="-4.110496000">
        <ele>699.0</ele>
        <time>2020-10-14T08:49:05Z</time>
      </trkpt>
      <trkpt lat="37.436492000" lon="-4.110388000">
        <ele>698.6</ele>
        <time>2020-10-14T08:49:06Z</time>
      </trkpt>
      <trkpt lat="37.436521000" lon="-4.110283000">
        <ele>698.2</ele>
        <time>2020-10-14T08:49:07Z</time>
      </trkpt>
      <trkpt lat="37.436550000" lon="-4.110169000">
        <ele>697.7</ele>
        <time>2020-10-14T08:49:08Z</time>
      </trkpt>
      <trkpt lat="37.436579000" lon="-4.110053000">
        <ele>697.3</ele>
        <time>2020-10-14T08:49:09Z</time>
      </trkpt>
      <trkpt lat="37.436605000" lon="-4.109946000">
        <ele>696.9</ele>
        <time>2020-10-14T08:49:10Z</time>
      </trkpt>
      <trkpt lat="37.436630000" lon="-4.109833000">
        <ele>696.5</ele>
        <time>2020-10-14T08:49:11Z</time>
      </trkpt>
      <trkpt lat="37.436659000" lon="-4.109715000">
        <ele>696.2</ele>
        <time>2020-10-14T08:49:12Z</time>
      </trkpt>
      <trkpt lat="37.436688000" lon="-4.109596000">
        <ele>695.8</ele>
        <time>2020-10-14T08:49:13Z</time>
      </trkpt>
      <trkpt lat="37.436718000" lon="-4.109484000">
        <ele>695.5</ele>
        <time>2020-10-14T08:49:14Z</time>
      </trkpt>
      <trkpt lat="37.436746000" lon="-4.109366000">
        <ele>695.2</ele>
        <time>2020-10-14T08:49:15Z</time>
      </trkpt>
      <trkpt lat="37.436775000" lon="-4.109251000">
        <ele>695.0</ele>
        <time>2020-10-14T08:49:16Z</time>
      </trkpt>
      <trkpt lat="37.436804000" lon="-4.109140000">
        <ele>694.8</ele>
        <time>2020-10-14T08:49:17Z</time>
      </trkpt>
      <trkpt lat="37.436833000" lon="-4.109023000">
        <ele>694.6</ele>
        <time>2020-10-14T08:49:18Z</time>
      </trkpt>
      <trkpt lat="37.436858000" lon="-4.108906000">
        <ele>694.4</ele>
        <time>2020-10-14T08:49:19Z</time>
      </trkpt>
      <trkpt lat="37.436885000" lon="-4.108794000">
        <ele>694.2</ele>
        <time>2020-10-14T08:49:20Z</time>
      </trkpt>
      <trkpt lat="37.436913000" lon="-4.108684000">
        <ele>693.9</ele>
        <time>2020-10-14T08:49:21Z</time>
      </trkpt>
      <trkpt lat="37.436943000" lon="-4.108572000">
        <ele>693.6</ele>
        <time>2020-10-14T08:49:22Z</time>
      </trkpt>
      <trkpt lat="37.436972000" lon="-4.108455000">
        <ele>693.3</ele>
        <time>2020-10-14T08:49:23Z</time>
      </trkpt>
      <trkpt lat="37.437000000" lon="-4.108343000">
        <ele>692.9</ele>
        <time>2020-10-14T08:49:24Z</time>
      </trkpt>
      <trkpt lat="37.437027000" lon="-4.108228000">
        <ele>692.5</ele>
        <time>2020-10-14T08:49:25Z</time>
      </trkpt>
      <trkpt lat="37.437056000" lon="-4.108115000">
        <ele>691.8</ele>
        <time>2020-10-14T08:49:26Z</time>
      </trkpt>
      <trkpt lat="37.437089000" lon="-4.108000000">
        <ele>691.2</ele>
        <time>2020-10-14T08:49:27Z</time>
      </trkpt>
      <trkpt lat="37.437118000" lon="-4.107886000">
        <ele>690.5</ele>
        <time>2020-10-14T08:49:28Z</time>
      </trkpt>
      <trkpt lat="37.437150000" lon="-4.107771000">
        <ele>690.0</ele>
        <time>2020-10-14T08:49:29Z</time>
      </trkpt>
      <trkpt lat="37.437178000" lon="-4.107661000">
        <ele>689.5</ele>
        <time>2020-10-14T08:49:30Z</time>
      </trkpt>
      <trkpt lat="37.437208000" lon="-4.107548000">
        <ele>688.9</ele>
        <time>2020-10-14T08:49:31Z</time>
      </trkpt>
      <trkpt lat="37.437241000" lon="-4.107433000">
        <ele>688.4</ele>
        <time>2020-10-14T08:49:32Z</time>
      </trkpt>
      <trkpt lat="37.437269000" lon="-4.107321000">
        <ele>687.9</ele>
        <time>2020-10-14T08:49:33Z</time>
      </trkpt>
      <trkpt lat="37.437295000" lon="-4.107202000">
        <ele>687.5</ele>
        <time>2020-10-14T08:49:34Z</time>
      </trkpt>
      <trkpt lat="37.437323000" lon="-4.107087000">
        <ele>686.9</ele>
        <time>2020-10-14T08:49:35Z</time>
      </trkpt>
      <trkpt lat="37.437349000" lon="-4.106973000">
        <ele>686.4</ele>
        <time>2020-10-14T08:49:36Z</time>
      </trkpt>
      <trkpt lat="37.437377000" lon="-4.106859000">
        <ele>685.8</ele>
        <time>2020-10-14T08:49:37Z</time>
      </trkpt>
      <trkpt lat="37.437409000" lon="-4.106751000">
        <ele>685.3</ele>
        <time>2020-10-14T08:49:38Z</time>
      </trkpt>
      <trkpt lat="37.437437000" lon="-4.106638000">
        <ele>684.7</ele>
        <time>2020-10-14T08:49:39Z</time>
      </trkpt>
      <trkpt lat="37.437465000" lon="-4.106527000">
        <ele>684.2</ele>
        <time>2020-10-14T08:49:40Z</time>
      </trkpt>
      <trkpt lat="37.437491000" lon="-4.106416000">
        <ele>683.7</ele>
        <time>2020-10-14T08:49:41Z</time>
      </trkpt>
      <trkpt lat="37.437521000" lon="-4.106309000">
        <ele>683.3</ele>
        <time>2020-10-14T08:49:42Z</time>
      </trkpt>
      <trkpt lat="37.437540000" lon="-4.106199000">
        <ele>682.9</ele>
        <time>2020-10-14T08:49:43Z</time>
      </trkpt>
      <trkpt lat="37.437569000" lon="-4.106090000">
        <ele>682.5</ele>
        <time>2020-10-14T08:49:44Z</time>
      </trkpt>
      <trkpt lat="37.437597000" lon="-4.105981000">
        <ele>682.3</ele>
        <time>2020-10-14T08:49:45Z</time>
      </trkpt>
      <trkpt lat="37.437618000" lon="-4.105871000">
        <ele>682.1</ele>
        <time>2020-10-14T08:49:46Z</time>
      </trkpt>
      <trkpt lat="37.437642000" lon="-4.105769000">
        <ele>682.0</ele>
        <time>2020-10-14T08:49:47Z</time>
      </trkpt>
      <trkpt lat="37.437669000" lon="-4.105667000">
        <ele>682.0</ele>
        <time>2020-10-14T08:49:48Z</time>
      </trkpt>
      <trkpt lat="37.437697000" lon="-4.105567000">
        <ele>682.1</ele>
        <time>2020-10-14T08:49:49Z</time>
      </trkpt>
      <trkpt lat="37.437724000" lon="-4.105470000">
        <ele>682.3</ele>
        <time>2020-10-14T08:49:50Z</time>
      </trkpt>
      <trkpt lat="37.437751000" lon="-4.105367000">
        <ele>682.5</ele>
        <time>2020-10-14T08:49:51Z</time>
      </trkpt>
      <trkpt lat="37.437778000" lon="-4.105268000">
        <ele>682.6</ele>
        <time>2020-10-14T08:49:52Z</time>
      </trkpt>
      <trkpt lat="37.437825000" lon="-4.105074000">
        <ele>682.8</ele>
        <time>2020-10-14T08:49:54Z</time>
      </trkpt>
      <trkpt lat="37.437865000" lon="-4.104884000">
        <ele>683.0</ele>
        <time>2020-10-14T08:49:56Z</time>
      </trkpt>
      <trkpt lat="37.437911000" lon="-4.104696000">
        <ele>683.1</ele>
        <time>2020-10-14T08:49:58Z</time>
      </trkpt>
      <trkpt lat="37.437949000" lon="-4.104508000">
        <ele>683.1</ele>
        <time>2020-10-14T08:50:00Z</time>
      </trkpt>
      <trkpt lat="37.437999000" lon="-4.104322000">
        <ele>683.1</ele>
        <time>2020-10-14T08:50:02Z</time>
      </trkpt>
      <trkpt lat="37.438048000" lon="-4.104141000">
        <ele>683.1</ele>
        <time>2020-10-14T08:50:04Z</time>
      </trkpt>
      <trkpt lat="37.438091000" lon="-4.103968000">
        <ele>683.2</ele>
        <time>2020-10-14T08:50:06Z</time>
      </trkpt>
      <trkpt lat="37.438137000" lon="-4.103792000">
        <ele>683.3</ele>
        <time>2020-10-14T08:50:08Z</time>
      </trkpt>
      <trkpt lat="37.438178000" lon="-4.103619000">
        <ele>683.4</ele>
        <time>2020-10-14T08:50:10Z</time>
      </trkpt>
      <trkpt lat="37.438223000" lon="-4.103451000">
        <ele>683.4</ele>
        <time>2020-10-14T08:50:12Z</time>
      </trkpt>
      <trkpt lat="37.438261000" lon="-4.103290000">
        <ele>683.4</ele>
        <time>2020-10-14T08:50:14Z</time>
      </trkpt>
      <trkpt lat="37.438302000" lon="-4.103125000">
        <ele>683.3</ele>
        <time>2020-10-14T08:50:16Z</time>
      </trkpt>
      <trkpt lat="37.438344000" lon="-4.102956000">
        <ele>683.1</ele>
        <time>2020-10-14T08:50:18Z</time>
      </trkpt>
      <trkpt lat="37.438385000" lon="-4.102792000">
        <ele>682.8</ele>
        <time>2020-10-14T08:50:20Z</time>
      </trkpt>
      <trkpt lat="37.438422000" lon="-4.102634000">
        <ele>682.6</ele>
        <time>2020-10-14T08:50:22Z</time>
      </trkpt>
      <trkpt lat="37.438466000" lon="-4.102470000">
        <ele>682.4</ele>
        <time>2020-10-14T08:50:24Z</time>
      </trkpt>
      <trkpt lat="37.438511000" lon="-4.102307000">
        <ele>682.0</ele>
        <time>2020-10-14T08:50:26Z</time>
      </trkpt>
      <trkpt lat="37.438554000" lon="-4.102146000">
        <ele>681.5</ele>
        <time>2020-10-14T08:50:28Z</time>
      </trkpt>
      <trkpt lat="37.438593000" lon="-4.101981000">
        <ele>680.7</ele>
        <time>2020-10-14T08:50:30Z</time>
      </trkpt>
      <trkpt lat="37.438632000" lon="-4.101826000">
        <ele>679.8</ele>
        <time>2020-10-14T08:50:32Z</time>
      </trkpt>
      <trkpt lat="37.438676000" lon="-4.101668000">
        <ele>679.0</ele>
        <time>2020-10-14T08:50:34Z</time>
      </trkpt>
      <trkpt lat="37.438725000" lon="-4.101509000">
        <ele>678.1</ele>
        <time>2020-10-14T08:50:36Z</time>
      </trkpt>
      <trkpt lat="37.438772000" lon="-4.101355000">
        <ele>677.3</ele>
        <time>2020-10-14T08:50:38Z</time>
      </trkpt>
      <trkpt lat="37.438826000" lon="-4.101195000">
        <ele>676.5</ele>
        <time>2020-10-14T08:50:40Z</time>
      </trkpt>
      <trkpt lat="37.438896000" lon="-4.101050000">
        <ele>675.8</ele>
        <time>2020-10-14T08:50:42Z</time>
      </trkpt>
      <trkpt lat="37.438974000" lon="-4.100907000">
        <ele>675.1</ele>
        <time>2020-10-14T08:50:44Z</time>
      </trkpt>
      <trkpt lat="37.439057000" lon="-4.100764000">
        <ele>674.4</ele>
        <time>2020-10-14T08:50:46Z</time>
      </trkpt>
      <trkpt lat="37.439145000" lon="-4.100622000">
        <ele>673.6</ele>
        <time>2020-10-14T08:50:48Z</time>
      </trkpt>
      <trkpt lat="37.439233000" lon="-4.100488000">
        <ele>673.0</ele>
        <time>2020-10-14T08:50:50Z</time>
      </trkpt>
      <trkpt lat="37.439328000" lon="-4.100363000">
        <ele>672.5</ele>
        <time>2020-10-14T08:50:52Z</time>
      </trkpt>
      <trkpt lat="37.439425000" lon="-4.100246000">
        <ele>672.0</ele>
        <time>2020-10-14T08:50:54Z</time>
      </trkpt>
      <trkpt lat="37.439526000" lon="-4.100130000">
        <ele>671.5</ele>
        <time>2020-10-14T08:50:56Z</time>
      </trkpt>
      <trkpt lat="37.439636000" lon="-4.100024000">
        <ele>671.3</ele>
        <time>2020-10-14T08:50:58Z</time>
      </trkpt>
      <trkpt lat="37.439745000" lon="-4.099930000">
        <ele>671.1</ele>
        <time>2020-10-14T08:51:00Z</time>
      </trkpt>
      <trkpt lat="37.439860000" lon="-4.099837000">
        <ele>671.1</ele>
        <time>2020-10-14T08:51:02Z</time>
      </trkpt>
      <trkpt lat="37.439974000" lon="-4.099755000">
        <ele>671.2</ele>
        <time>2020-10-14T08:51:04Z</time>
      </trkpt>
      <trkpt lat="37.440088000" lon="-4.099678000">
        <ele>671.4</ele>
        <time>2020-10-14T08:51:06Z</time>
      </trkpt>
      <trkpt lat="37.440205000" lon="-4.099612000">
        <ele>671.7</ele>
        <time>2020-10-14T08:51:08Z</time>
      </trkpt>
      <trkpt lat="37.440316000" lon="-4.099546000">
        <ele>672.2</ele>
        <time>2020-10-14T08:51:10Z</time>
      </trkpt>
      <trkpt lat="37.440422000" lon="-4.099479000">
        <ele>672.7</ele>
        <time>2020-10-14T08:51:12Z</time>
      </trkpt>
      <trkpt lat="37.440527000" lon="-4.099410000">
        <ele>673.3</ele>
        <time>2020-10-14T08:51:14Z</time>
      </trkpt>
      <trkpt lat="37.440630000" lon="-4.099356000">
        <ele>673.9</ele>
        <time>2020-10-14T08:51:16Z</time>
      </trkpt>
      <trkpt lat="37.440726000" lon="-4.099304000">
        <ele>674.5</ele>
        <time>2020-10-14T08:51:18Z</time>
      </trkpt>
      <trkpt lat="37.440817000" lon="-4.099249000">
        <ele>675.2</ele>
        <time>2020-10-14T08:51:20Z</time>
      </trkpt>
      <trkpt lat="37.440899000" lon="-4.099193000">
        <ele>675.7</ele>
        <time>2020-10-14T08:51:22Z</time>
      </trkpt>
      <trkpt lat="37.440980000" lon="-4.099137000">
        <ele>676.2</ele>
        <time>2020-10-14T08:51:24Z</time>
      </trkpt>
      <trkpt lat="37.441063000" lon="-4.099069000">
        <ele>676.6</ele>
        <time>2020-10-14T08:51:26Z</time>
      </trkpt>
      <trkpt lat="37.441143000" lon="-4.099005000">
        <ele>677.1</ele>
        <time>2020-10-14T08:51:28Z</time>
      </trkpt>
      <trkpt lat="37.441217000" lon="-4.098941000">
        <ele>677.5</ele>
        <time>2020-10-14T08:51:30Z</time>
      </trkpt>
      <trkpt lat="37.441291000" lon="-4.098870000">
        <ele>678.0</ele>
        <time>2020-10-14T08:51:33Z</time>
      </trkpt>
      <trkpt lat="37.441364000" lon="-4.098799000">
        <ele>678.4</ele>
        <time>2020-10-14T08:51:34Z</time>
      </trkpt>
      <trkpt lat="37.441428000" lon="-4.098727000">
        <ele>678.7</ele>
        <time>2020-10-14T08:51:36Z</time>
      </trkpt>
      <trkpt lat="37.441512000" lon="-4.098623000">
        <ele>679.0</ele>
        <time>2020-10-14T08:51:39Z</time>
      </trkpt>
      <trkpt lat="37.441571000" lon="-4.098546000">
        <ele>679.4</ele>
        <time>2020-10-14T08:51:41Z</time>
      </trkpt>
      <trkpt lat="37.441626000" lon="-4.098463000">
        <ele>679.6</ele>
        <time>2020-10-14T08:51:43Z</time>
      </trkpt>
      <trkpt lat="37.441680000" lon="-4.098370000">
        <ele>679.9</ele>
        <time>2020-10-14T08:51:45Z</time>
      </trkpt>
      <trkpt lat="37.441738000" lon="-4.098276000">
        <ele>680.1</ele>
        <time>2020-10-14T08:51:47Z</time>
      </trkpt>
      <trkpt lat="37.441795000" lon="-4.098167000">
        <ele>680.0</ele>
        <time>2020-10-14T08:51:49Z</time>
      </trkpt>
      <trkpt lat="37.441843000" lon="-4.098051000">
        <ele>679.7</ele>
        <time>2020-10-14T08:51:51Z</time>
      </trkpt>
      <trkpt lat="37.441897000" lon="-4.097935000">
        <ele>679.2</ele>
        <time>2020-10-14T08:51:53Z</time>
      </trkpt>
      <trkpt lat="37.441943000" lon="-4.097807000">
        <ele>678.5</ele>
        <time>2020-10-14T08:51:55Z</time>
      </trkpt>
      <trkpt lat="37.441979000" lon="-4.097673000">
        <ele>677.9</ele>
        <time>2020-10-14T08:51:57Z</time>
      </trkpt>
      <trkpt lat="37.442021000" lon="-4.097527000">
        <ele>677.2</ele>
        <time>2020-10-14T08:51:59Z</time>
      </trkpt>
      <trkpt lat="37.442059000" lon="-4.097368000">
        <ele>676.3</ele>
        <time>2020-10-14T08:52:01Z</time>
      </trkpt>
      <trkpt lat="37.442087000" lon="-4.097193000">
        <ele>675.2</ele>
        <time>2020-10-14T08:52:03Z</time>
      </trkpt>
      <trkpt lat="37.442104000" lon="-4.097008000">
        <ele>674.0</ele>
        <time>2020-10-14T08:52:05Z</time>
      </trkpt>
      <trkpt lat="37.442116000" lon="-4.096829000">
        <ele>672.7</ele>
        <time>2020-10-14T08:52:07Z</time>
      </trkpt>
      <trkpt lat="37.442117000" lon="-4.096652000">
        <ele>671.5</ele>
        <time>2020-10-14T08:52:09Z</time>
      </trkpt>
      <trkpt lat="37.442114000" lon="-4.096462000">
        <ele>670.5</ele>
        <time>2020-10-14T08:52:11Z</time>
      </trkpt>
      <trkpt lat="37.442094000" lon="-4.096259000">
        <ele>669.7</ele>
        <time>2020-10-14T08:52:13Z</time>
      </trkpt>
      <trkpt lat="37.442085000" lon="-4.096155000">
        <ele>669.1</ele>
        <time>2020-10-14T08:52:14Z</time>
      </trkpt>
      <trkpt lat="37.442075000" lon="-4.096048000">
        <ele>668.5</ele>
        <time>2020-10-14T08:52:15Z</time>
      </trkpt>
      <trkpt lat="37.442066000" lon="-4.095943000">
        <ele>667.8</ele>
        <time>2020-10-14T08:52:16Z</time>
      </trkpt>
      <trkpt lat="37.442055000" lon="-4.095831000">
        <ele>667.3</ele>
        <time>2020-10-14T08:52:17Z</time>
      </trkpt>
      <trkpt lat="37.442046000" lon="-4.095718000">
        <ele>666.7</ele>
        <time>2020-10-14T08:52:18Z</time>
      </trkpt>
      <trkpt lat="37.442034000" lon="-4.095604000">
        <ele>666.2</ele>
        <time>2020-10-14T08:52:19Z</time>
      </trkpt>
      <trkpt lat="37.442025000" lon="-4.095484000">
        <ele>665.5</ele>
        <time>2020-10-14T08:52:20Z</time>
      </trkpt>
      <trkpt lat="37.442016000" lon="-4.095372000">
        <ele>664.8</ele>
        <time>2020-10-14T08:52:21Z</time>
      </trkpt>
      <trkpt lat="37.442010000" lon="-4.095265000">
        <ele>664.0</ele>
        <time>2020-10-14T08:52:22Z</time>
      </trkpt>
      <trkpt lat="37.442003000" lon="-4.095065000">
        <ele>663.2</ele>
        <time>2020-10-14T08:52:24Z</time>
      </trkpt>
      <trkpt lat="37.442005000" lon="-4.094871000">
        <ele>662.3</ele>
        <time>2020-10-14T08:52:26Z</time>
      </trkpt>
      <trkpt lat="37.442018000" lon="-4.094675000">
        <ele>661.3</ele>
        <time>2020-10-14T08:52:28Z</time>
      </trkpt>
      <trkpt lat="37.442044000" lon="-4.094480000">
        <ele>660.3</ele>
        <time>2020-10-14T08:52:30Z</time>
      </trkpt>
      <trkpt lat="37.442060000" lon="-4.094378000">
        <ele>659.2</ele>
        <time>2020-10-14T08:52:31Z</time>
      </trkpt>
      <trkpt lat="37.442077000" lon="-4.094273000">
        <ele>658.0</ele>
        <time>2020-10-14T08:52:32Z</time>
      </trkpt>
      <trkpt lat="37.442101000" lon="-4.094167000">
        <ele>656.9</ele>
        <time>2020-10-14T08:52:33Z</time>
      </trkpt>
      <trkpt lat="37.442132000" lon="-4.094067000">
        <ele>655.8</ele>
        <time>2020-10-14T08:52:34Z</time>
      </trkpt>
      <trkpt lat="37.442166000" lon="-4.093964000">
        <ele>654.9</ele>
        <time>2020-10-14T08:52:35Z</time>
      </trkpt>
      <trkpt lat="37.442205000" lon="-4.093857000">
        <ele>654.1</ele>
        <time>2020-10-14T08:52:36Z</time>
      </trkpt>
      <trkpt lat="37.442244000" lon="-4.093745000">
        <ele>653.2</ele>
        <time>2020-10-14T08:52:37Z</time>
      </trkpt>
      <trkpt lat="37.442286000" lon="-4.093637000">
        <ele>652.1</ele>
        <time>2020-10-14T08:52:38Z</time>
      </trkpt>
      <trkpt lat="37.442325000" lon="-4.093528000">
        <ele>650.9</ele>
        <time>2020-10-14T08:52:39Z</time>
      </trkpt>
      <trkpt lat="37.442366000" lon="-4.093421000">
        <ele>649.7</ele>
        <time>2020-10-14T08:52:40Z</time>
      </trkpt>
      <trkpt lat="37.442409000" lon="-4.093312000">
        <ele>648.5</ele>
        <time>2020-10-14T08:52:41Z</time>
      </trkpt>
      <trkpt lat="37.442444000" lon="-4.093209000">
        <ele>647.3</ele>
        <time>2020-10-14T08:52:42Z</time>
      </trkpt>
      <trkpt lat="37.442485000" lon="-4.093101000">
        <ele>646.2</ele>
        <time>2020-10-14T08:52:43Z</time>
      </trkpt>
      <trkpt lat="37.442524000" lon="-4.092994000">
        <ele>645.2</ele>
        <time>2020-10-14T08:52:44Z</time>
      </trkpt>
      <trkpt lat="37.442566000" lon="-4.092890000">
        <ele>644.3</ele>
        <time>2020-10-14T08:52:45Z</time>
      </trkpt>
      <trkpt lat="37.442609000" lon="-4.092786000">
        <ele>643.3</ele>
        <time>2020-10-14T08:52:46Z</time>
      </trkpt>
      <trkpt lat="37.442649000" lon="-4.092681000">
        <ele>642.4</ele>
        <time>2020-10-14T08:52:47Z</time>
      </trkpt>
      <trkpt lat="37.442686000" lon="-4.092574000">
        <ele>641.5</ele>
        <time>2020-10-14T08:52:48Z</time>
      </trkpt>
      <trkpt lat="37.442720000" lon="-4.092468000">
        <ele>640.8</ele>
        <time>2020-10-14T08:52:49Z</time>
      </trkpt>
      <trkpt lat="37.442756000" lon="-4.092365000">
        <ele>640.3</ele>
        <time>2020-10-14T08:52:50Z</time>
      </trkpt>
      <trkpt lat="37.442789000" lon="-4.092261000">
        <ele>639.7</ele>
        <time>2020-10-14T08:52:51Z</time>
      </trkpt>
      <trkpt lat="37.442820000" lon="-4.092158000">
        <ele>639.3</ele>
        <time>2020-10-14T08:52:52Z</time>
      </trkpt>
      <trkpt lat="37.442853000" lon="-4.092059000">
        <ele>638.9</ele>
        <time>2020-10-14T08:52:53Z</time>
      </trkpt>
      <trkpt lat="37.442901000" lon="-4.091889000">
        <ele>638.7</ele>
        <time>2020-10-14T08:52:55Z</time>
      </trkpt>
      <trkpt lat="37.442924000" lon="-4.091769000">
        <ele>638.6</ele>
        <time>2020-10-14T08:52:57Z</time>
      </trkpt>
      <trkpt lat="37.442944000" lon="-4.091654000">
        <ele>638.6</ele>
        <time>2020-10-14T08:53:00Z</time>
      </trkpt>
      <trkpt lat="37.442852000" lon="-4.091631000">
        <ele>638.7</ele>
        <time>2020-10-14T08:53:07Z</time>
      </trkpt>
      <trkpt lat="37.442939000" lon="-4.091645000">
        <ele>638.8</ele>
        <time>2020-10-14T08:56:10Z</time>
      </trkpt>
      <trkpt lat="37.442995000" lon="-4.091546000">
        <ele>639.0</ele>
        <time>2020-10-14T08:56:15Z</time>
      </trkpt>
      <trkpt lat="37.443021000" lon="-4.091388000">
        <ele>639.1</ele>
        <time>2020-10-14T08:56:18Z</time>
      </trkpt>
      <trkpt lat="37.443055000" lon="-4.091261000">
        <ele>639.1</ele>
        <time>2020-10-14T08:56:20Z</time>
      </trkpt>
      <trkpt lat="37.443090000" lon="-4.091116000">
        <ele>639.0</ele>
        <time>2020-10-14T08:56:22Z</time>
      </trkpt>
      <trkpt lat="37.443124000" lon="-4.090960000">
        <ele>638.9</ele>
        <time>2020-10-14T08:56:24Z</time>
      </trkpt>
      <trkpt lat="37.443165000" lon="-4.090804000">
        <ele>638.6</ele>
        <time>2020-10-14T08:56:26Z</time>
      </trkpt>
      <trkpt lat="37.443203000" lon="-4.090654000">
        <ele>638.1</ele>
        <time>2020-10-14T08:56:28Z</time>
      </trkpt>
      <trkpt lat="37.443241000" lon="-4.090507000">
        <ele>637.5</ele>
        <time>2020-10-14T08:56:30Z</time>
      </trkpt>
      <trkpt lat="37.443274000" lon="-4.090367000">
        <ele>636.6</ele>
        <time>2020-10-14T08:56:32Z</time>
      </trkpt>
      <trkpt lat="37.443305000" lon="-4.090227000">
        <ele>635.7</ele>
        <time>2020-10-14T08:56:34Z</time>
      </trkpt>
      <trkpt lat="37.443338000" lon="-4.090082000">
        <ele>634.7</ele>
        <time>2020-10-14T08:56:36Z</time>
      </trkpt>
      <trkpt lat="37.443374000" lon="-4.089924000">
        <ele>633.5</ele>
        <time>2020-10-14T08:56:38Z</time>
      </trkpt>
      <trkpt lat="37.443417000" lon="-4.089740000">
        <ele>632.5</ele>
        <time>2020-10-14T08:56:40Z</time>
      </trkpt>
      <trkpt lat="37.443460000" lon="-4.089547000">
        <ele>631.4</ele>
        <time>2020-10-14T08:56:42Z</time>
      </trkpt>
      <trkpt lat="37.443485000" lon="-4.089444000">
        <ele>630.3</ele>
        <time>2020-10-14T08:56:43Z</time>
      </trkpt>
      <trkpt lat="37.443509000" lon="-4.089341000">
        <ele>629.2</ele>
        <time>2020-10-14T08:56:44Z</time>
      </trkpt>
      <trkpt lat="37.443533000" lon="-4.089235000">
        <ele>628.2</ele>
        <time>2020-10-14T08:56:45Z</time>
      </trkpt>
      <trkpt lat="37.443557000" lon="-4.089130000">
        <ele>627.2</ele>
        <time>2020-10-14T08:56:46Z</time>
      </trkpt>
      <trkpt lat="37.443584000" lon="-4.089024000">
        <ele>626.1</ele>
        <time>2020-10-14T08:56:47Z</time>
      </trkpt>
      <trkpt lat="37.443609000" lon="-4.088917000">
        <ele>625.1</ele>
        <time>2020-10-14T08:56:48Z</time>
      </trkpt>
      <trkpt lat="37.443637000" lon="-4.088814000">
        <ele>624.1</ele>
        <time>2020-10-14T08:56:49Z</time>
      </trkpt>
      <trkpt lat="37.443661000" lon="-4.088713000">
        <ele>623.2</ele>
        <time>2020-10-14T08:56:50Z</time>
      </trkpt>
      <trkpt lat="37.443686000" lon="-4.088611000">
        <ele>622.5</ele>
        <time>2020-10-14T08:56:51Z</time>
      </trkpt>
      <trkpt lat="37.443715000" lon="-4.088509000">
        <ele>621.7</ele>
        <time>2020-10-14T08:56:52Z</time>
      </trkpt>
      <trkpt lat="37.443745000" lon="-4.088409000">
        <ele>621.0</ele>
        <time>2020-10-14T08:56:53Z</time>
      </trkpt>
      <trkpt lat="37.443782000" lon="-4.088314000">
        <ele>620.4</ele>
        <time>2020-10-14T08:56:54Z</time>
      </trkpt>
      <trkpt lat="37.443815000" lon="-4.088215000">
        <ele>619.7</ele>
        <time>2020-10-14T08:56:55Z</time>
      </trkpt>
      <trkpt lat="37.443847000" lon="-4.088115000">
        <ele>619.0</ele>
        <time>2020-10-14T08:56:56Z</time>
      </trkpt>
      <trkpt lat="37.443884000" lon="-4.088020000">
        <ele>618.4</ele>
        <time>2020-10-14T08:56:57Z</time>
      </trkpt>
      <trkpt lat="37.443926000" lon="-4.087929000">
        <ele>617.7</ele>
        <time>2020-10-14T08:56:58Z</time>
      </trkpt>
      <trkpt lat="37.443968000" lon="-4.087836000">
        <ele>617.0</ele>
        <time>2020-10-14T08:56:59Z</time>
      </trkpt>
      <trkpt lat="37.444008000" lon="-4.087738000">
        <ele>616.3</ele>
        <time>2020-10-14T08:57:00Z</time>
      </trkpt>
      <trkpt lat="37.444053000" lon="-4.087642000">
        <ele>615.5</ele>
        <time>2020-10-14T08:57:01Z</time>
      </trkpt>
      <trkpt lat="37.444100000" lon="-4.087552000">
        <ele>614.6</ele>
        <time>2020-10-14T08:57:02Z</time>
      </trkpt>
      <trkpt lat="37.444147000" lon="-4.087464000">
        <ele>613.8</ele>
        <time>2020-10-14T08:57:03Z</time>
      </trkpt>
      <trkpt lat="37.444195000" lon="-4.087374000">
        <ele>613.0</ele>
        <time>2020-10-14T08:57:04Z</time>
      </trkpt>
      <trkpt lat="37.444243000" lon="-4.087285000">
        <ele>612.3</ele>
        <time>2020-10-14T08:57:05Z</time>
      </trkpt>
      <trkpt lat="37.444292000" lon="-4.087194000">
        <ele>611.6</ele>
        <time>2020-10-14T08:57:06Z</time>
      </trkpt>
      <trkpt lat="37.444342000" lon="-4.087103000">
        <ele>611.0</ele>
        <time>2020-10-14T08:57:07Z</time>
      </trkpt>
      <trkpt lat="37.444391000" lon="-4.087014000">
        <ele>610.4</ele>
        <time>2020-10-14T08:57:08Z</time>
      </trkpt>
      <trkpt lat="37.444439000" lon="-4.086926000">
        <ele>609.7</ele>
        <time>2020-10-14T08:57:09Z</time>
      </trkpt>
      <trkpt lat="37.444487000" lon="-4.086839000">
        <ele>609.1</ele>
        <time>2020-10-14T08:57:10Z</time>
      </trkpt>
      <trkpt lat="37.444533000" lon="-4.086752000">
        <ele>608.5</ele>
        <time>2020-10-14T08:57:11Z</time>
      </trkpt>
      <trkpt lat="37.444580000" lon="-4.086663000">
        <ele>607.8</ele>
        <time>2020-10-14T08:57:12Z</time>
      </trkpt>
      <trkpt lat="37.444632000" lon="-4.086575000">
        <ele>607.1</ele>
        <time>2020-10-14T08:57:13Z</time>
      </trkpt>
      <trkpt lat="37.444680000" lon="-4.086485000">
        <ele>606.4</ele>
        <time>2020-10-14T08:57:14Z</time>
      </trkpt>
      <trkpt lat="37.444726000" lon="-4.086393000">
        <ele>605.6</ele>
        <time>2020-10-14T08:57:15Z</time>
      </trkpt>
      <trkpt lat="37.444772000" lon="-4.086300000">
        <ele>604.8</ele>
        <time>2020-10-14T08:57:16Z</time>
      </trkpt>
      <trkpt lat="37.444817000" lon="-4.086209000">
        <ele>603.8</ele>
        <time>2020-10-14T08:57:17Z</time>
      </trkpt>
      <trkpt lat="37.444861000" lon="-4.086117000">
        <ele>602.8</ele>
        <time>2020-10-14T08:57:18Z</time>
      </trkpt>
      <trkpt lat="37.444910000" lon="-4.086028000">
        <ele>601.8</ele>
        <time>2020-10-14T08:57:19Z</time>
      </trkpt>
      <trkpt lat="37.444957000" lon="-4.085936000">
        <ele>600.9</ele>
        <time>2020-10-14T08:57:20Z</time>
      </trkpt>
      <trkpt lat="37.444998000" lon="-4.085845000">
        <ele>600.3</ele>
        <time>2020-10-14T08:57:21Z</time>
      </trkpt>
      <trkpt lat="37.445078000" lon="-4.085669000">
        <ele>599.8</ele>
        <time>2020-10-14T08:57:23Z</time>
      </trkpt>
      <trkpt lat="37.445159000" lon="-4.085494000">
        <ele>599.5</ele>
        <time>2020-10-14T08:57:25Z</time>
      </trkpt>
      <trkpt lat="37.445242000" lon="-4.085324000">
        <ele>599.2</ele>
        <time>2020-10-14T08:57:27Z</time>
      </trkpt>
      <trkpt lat="37.445317000" lon="-4.085150000">
        <ele>598.8</ele>
        <time>2020-10-14T08:57:29Z</time>
      </trkpt>
      <trkpt lat="37.445389000" lon="-4.084977000">
        <ele>598.5</ele>
        <time>2020-10-14T08:57:31Z</time>
      </trkpt>
      <trkpt lat="37.445456000" lon="-4.084818000">
        <ele>598.1</ele>
        <time>2020-10-14T08:57:33Z</time>
      </trkpt>
      <trkpt lat="37.445511000" lon="-4.084687000">
        <ele>597.8</ele>
        <time>2020-10-14T08:57:35Z</time>
      </trkpt>
      <trkpt lat="37.445551000" lon="-4.084589000">
        <ele>597.5</ele>
        <time>2020-10-14T08:57:37Z</time>
      </trkpt>
      <trkpt lat="37.445571000" lon="-4.084469000">
        <ele>597.2</ele>
        <time>2020-10-14T08:58:33Z</time>
      </trkpt>
      <trkpt lat="37.445624000" lon="-4.084359000">
        <ele>596.7</ele>
        <time>2020-10-14T08:58:36Z</time>
      </trkpt>
      <trkpt lat="37.445680000" lon="-4.084253000">
        <ele>596.0</ele>
        <time>2020-10-14T08:58:38Z</time>
      </trkpt>
      <trkpt lat="37.445731000" lon="-4.084131000">
        <ele>595.1</ele>
        <time>2020-10-14T08:58:41Z</time>
      </trkpt>
      <trkpt lat="37.445794000" lon="-4.083999000">
        <ele>594.1</ele>
        <time>2020-10-14T08:58:42Z</time>
      </trkpt>
      <trkpt lat="37.445856000" lon="-4.083856000">
        <ele>593.1</ele>
        <time>2020-10-14T08:58:44Z</time>
      </trkpt>
      <trkpt lat="37.445927000" lon="-4.083701000">
        <ele>592.3</ele>
        <time>2020-10-14T08:58:46Z</time>
      </trkpt>
      <trkpt lat="37.445998000" lon="-4.083530000">
        <ele>591.5</ele>
        <time>2020-10-14T08:58:48Z</time>
      </trkpt>
      <trkpt lat="37.446035000" lon="-4.083438000">
        <ele>590.9</ele>
        <time>2020-10-14T08:58:49Z</time>
      </trkpt>
      <trkpt lat="37.446077000" lon="-4.083345000">
        <ele>590.3</ele>
        <time>2020-10-14T08:58:50Z</time>
      </trkpt>
      <trkpt lat="37.446117000" lon="-4.083253000">
        <ele>589.7</ele>
        <time>2020-10-14T08:58:51Z</time>
      </trkpt>
      <trkpt lat="37.446156000" lon="-4.083163000">
        <ele>589.3</ele>
        <time>2020-10-14T08:58:52Z</time>
      </trkpt>
      <trkpt lat="37.446198000" lon="-4.083069000">
        <ele>588.9</ele>
        <time>2020-10-14T08:58:53Z</time>
      </trkpt>
      <trkpt lat="37.446237000" lon="-4.082977000">
        <ele>588.5</ele>
        <time>2020-10-14T08:58:54Z</time>
      </trkpt>
      <trkpt lat="37.446279000" lon="-4.082881000">
        <ele>588.2</ele>
        <time>2020-10-14T08:58:55Z</time>
      </trkpt>
      <trkpt lat="37.446318000" lon="-4.082787000">
        <ele>587.8</ele>
        <time>2020-10-14T08:58:56Z</time>
      </trkpt>
      <trkpt lat="37.446359000" lon="-4.082692000">
        <ele>587.4</ele>
        <time>2020-10-14T08:58:57Z</time>
      </trkpt>
      <trkpt lat="37.446400000" lon="-4.082600000">
        <ele>586.8</ele>
        <time>2020-10-14T08:58:58Z</time>
      </trkpt>
      <trkpt lat="37.446439000" lon="-4.082510000">
        <ele>586.1</ele>
        <time>2020-10-14T08:58:59Z</time>
      </trkpt>
      <trkpt lat="37.446517000" lon="-4.082328000">
        <ele>585.3</ele>
        <time>2020-10-14T08:59:01Z</time>
      </trkpt>
      <trkpt lat="37.446555000" lon="-4.082231000">
        <ele>584.5</ele>
        <time>2020-10-14T08:59:02Z</time>
      </trkpt>
      <trkpt lat="37.446595000" lon="-4.082138000">
        <ele>583.5</ele>
        <time>2020-10-14T08:59:03Z</time>
      </trkpt>
      <trkpt lat="37.446634000" lon="-4.082042000">
        <ele>582.6</ele>
        <time>2020-10-14T08:59:04Z</time>
      </trkpt>
      <trkpt lat="37.446673000" lon="-4.081946000">
        <ele>581.6</ele>
        <time>2020-10-14T08:59:05Z</time>
      </trkpt>
      <trkpt lat="37.446712000" lon="-4.081846000">
        <ele>580.6</ele>
        <time>2020-10-14T08:59:06Z</time>
      </trkpt>
      <trkpt lat="37.446745000" lon="-4.081742000">
        <ele>579.6</ele>
        <time>2020-10-14T08:59:07Z</time>
      </trkpt>
      <trkpt lat="37.446776000" lon="-4.081641000">
        <ele>578.5</ele>
        <time>2020-10-14T08:59:08Z</time>
      </trkpt>
      <trkpt lat="37.446808000" lon="-4.081541000">
        <ele>577.4</ele>
        <time>2020-10-14T08:59:09Z</time>
      </trkpt>
      <trkpt lat="37.446836000" lon="-4.081432000">
        <ele>576.1</ele>
        <time>2020-10-14T08:59:10Z</time>
      </trkpt>
      <trkpt lat="37.446861000" lon="-4.081320000">
        <ele>574.9</ele>
        <time>2020-10-14T08:59:11Z</time>
      </trkpt>
      <trkpt lat="37.446883000" lon="-4.081202000">
        <ele>573.8</ele>
        <time>2020-10-14T08:59:12Z</time>
      </trkpt>
      <trkpt lat="37.446901000" lon="-4.081086000">
        <ele>572.7</ele>
        <time>2020-10-14T08:59:13Z</time>
      </trkpt>
      <trkpt lat="37.446916000" lon="-4.080971000">
        <ele>571.8</ele>
        <time>2020-10-14T08:59:14Z</time>
      </trkpt>
      <trkpt lat="37.446924000" lon="-4.080859000">
        <ele>570.9</ele>
        <time>2020-10-14T08:59:15Z</time>
      </trkpt>
      <trkpt lat="37.446931000" lon="-4.080741000">
        <ele>570.1</ele>
        <time>2020-10-14T08:59:16Z</time>
      </trkpt>
      <trkpt lat="37.446937000" lon="-4.080632000">
        <ele>569.4</ele>
        <time>2020-10-14T08:59:17Z</time>
      </trkpt>
      <trkpt lat="37.446937000" lon="-4.080518000">
        <ele>568.8</ele>
        <time>2020-10-14T08:59:18Z</time>
      </trkpt>
      <trkpt lat="37.446932000" lon="-4.080410000">
        <ele>568.5</ele>
        <time>2020-10-14T08:59:19Z</time>
      </trkpt>
      <trkpt lat="37.446922000" lon="-4.080301000">
        <ele>568.5</ele>
        <time>2020-10-14T08:59:20Z</time>
      </trkpt>
      <trkpt lat="37.446911000" lon="-4.080198000">
        <ele>568.8</ele>
        <time>2020-10-14T08:59:21Z</time>
      </trkpt>
      <trkpt lat="37.446896000" lon="-4.080094000">
        <ele>569.2</ele>
        <time>2020-10-14T08:59:22Z</time>
      </trkpt>
      <trkpt lat="37.446880000" lon="-4.079992000">
        <ele>569.6</ele>
        <time>2020-10-14T08:59:23Z</time>
      </trkpt>
      <trkpt lat="37.446840000" lon="-4.079798000">
        <ele>570.3</ele>
        <time>2020-10-14T08:59:25Z</time>
      </trkpt>
      <trkpt lat="37.446795000" lon="-4.079623000">
        <ele>570.9</ele>
        <time>2020-10-14T08:59:27Z</time>
      </trkpt>
      <trkpt lat="37.446742000" lon="-4.079455000">
        <ele>571.6</ele>
        <time>2020-10-14T08:59:29Z</time>
      </trkpt>
      <trkpt lat="37.446684000" lon="-4.079302000">
        <ele>572.4</ele>
        <time>2020-10-14T08:59:31Z</time>
      </trkpt>
      <trkpt lat="37.446628000" lon="-4.079157000">
        <ele>573.1</ele>
        <time>2020-10-14T08:59:33Z</time>
      </trkpt>
      <trkpt lat="37.446573000" lon="-4.079021000">
        <ele>573.7</ele>
        <time>2020-10-14T08:59:35Z</time>
      </trkpt>
      <trkpt lat="37.446524000" lon="-4.078903000">
        <ele>574.3</ele>
        <time>2020-10-14T08:59:37Z</time>
      </trkpt>
      <trkpt lat="37.446469000" lon="-4.078796000">
        <ele>574.7</ele>
        <time>2020-10-14T08:59:39Z</time>
      </trkpt>
      <trkpt lat="37.446420000" lon="-4.078704000">
        <ele>575.2</ele>
        <time>2020-10-14T08:59:41Z</time>
      </trkpt>
      <trkpt lat="37.446372000" lon="-4.078618000">
        <ele>575.9</ele>
        <time>2020-10-14T08:59:43Z</time>
      </trkpt>
      <trkpt lat="37.446307000" lon="-4.078488000">
        <ele>576.7</ele>
        <time>2020-10-14T08:59:46Z</time>
      </trkpt>
      <trkpt lat="37.446241000" lon="-4.078376000">
        <ele>577.5</ele>
        <time>2020-10-14T08:59:49Z</time>
      </trkpt>
      <trkpt lat="37.446191000" lon="-4.078296000">
        <ele>578.5</ele>
        <time>2020-10-14T08:59:51Z</time>
      </trkpt>
      <trkpt lat="37.446126000" lon="-4.078181000">
        <ele>579.4</ele>
        <time>2020-10-14T08:59:54Z</time>
      </trkpt>
      <trkpt lat="37.446053000" lon="-4.078076000">
        <ele>580.3</ele>
        <time>2020-10-14T08:59:57Z</time>
      </trkpt>
      <trkpt lat="37.445988000" lon="-4.077970000">
        <ele>581.2</ele>
        <time>2020-10-14T09:00:00Z</time>
      </trkpt>
      <trkpt lat="37.445924000" lon="-4.077872000">
        <ele>582.0</ele>
        <time>2020-10-14T09:00:03Z</time>
      </trkpt>
      <trkpt lat="37.445863000" lon="-4.077772000">
        <ele>582.7</ele>
        <time>2020-10-14T09:00:06Z</time>
      </trkpt>
      <trkpt lat="37.445805000" lon="-4.077670000">
        <ele>583.5</ele>
        <time>2020-10-14T09:00:09Z</time>
      </trkpt>
      <trkpt lat="37.445747000" lon="-4.077567000">
        <ele>584.2</ele>
        <time>2020-10-14T09:00:12Z</time>
      </trkpt>
      <trkpt lat="37.445687000" lon="-4.077466000">
        <ele>584.6</ele>
        <time>2020-10-14T09:00:15Z</time>
      </trkpt>
      <trkpt lat="37.445626000" lon="-4.077369000">
        <ele>584.9</ele>
        <time>2020-10-14T09:00:18Z</time>
      </trkpt>
      <trkpt lat="37.445571000" lon="-4.077269000">
        <ele>585.1</ele>
        <time>2020-10-14T09:00:21Z</time>
      </trkpt>
      <trkpt lat="37.445512000" lon="-4.077179000">
        <ele>585.1</ele>
        <time>2020-10-14T09:00:24Z</time>
      </trkpt>
      <trkpt lat="37.445454000" lon="-4.077089000">
        <ele>585.1</ele>
        <time>2020-10-14T09:00:27Z</time>
      </trkpt>
      <trkpt lat="37.445398000" lon="-4.076992000">
        <ele>585.1</ele>
        <time>2020-10-14T09:00:30Z</time>
      </trkpt>
      <trkpt lat="37.445348000" lon="-4.076894000">
        <ele>585.2</ele>
        <time>2020-10-14T09:00:33Z</time>
      </trkpt>
      <trkpt lat="37.445293000" lon="-4.076807000">
        <ele>585.4</ele>
        <time>2020-10-14T09:00:36Z</time>
      </trkpt>
      <trkpt lat="37.445229000" lon="-4.076703000">
        <ele>585.5</ele>
        <time>2020-10-14T09:00:40Z</time>
      </trkpt>
      <trkpt lat="37.445164000" lon="-4.076601000">
        <ele>585.7</ele>
        <time>2020-10-14T09:00:44Z</time>
      </trkpt>
      <trkpt lat="37.445099000" lon="-4.076494000">
        <ele>585.7</ele>
        <time>2020-10-14T09:00:48Z</time>
      </trkpt>
      <trkpt lat="37.445040000" lon="-4.076388000">
        <ele>585.6</ele>
        <time>2020-10-14T09:00:52Z</time>
      </trkpt>
      <trkpt lat="37.444982000" lon="-4.076280000">
        <ele>585.5</ele>
        <time>2020-10-14T09:00:56Z</time>
      </trkpt>
      <trkpt lat="37.444937000" lon="-4.076192000">
        <ele>585.4</ele>
        <time>2020-10-14T09:00:59Z</time>
      </trkpt>
      <trkpt lat="37.444885000" lon="-4.076075000">
        <ele>585.2</ele>
        <time>2020-10-14T09:01:03Z</time>
      </trkpt>
      <trkpt lat="37.444843000" lon="-4.075985000">
        <ele>585.0</ele>
        <time>2020-10-14T09:01:06Z</time>
      </trkpt>
      <trkpt lat="37.444804000" lon="-4.075893000">
        <ele>584.8</ele>
        <time>2020-10-14T09:01:09Z</time>
      </trkpt>
      <trkpt lat="37.444772000" lon="-4.075795000">
        <ele>584.5</ele>
        <time>2020-10-14T09:01:12Z</time>
      </trkpt>
      <trkpt lat="37.444739000" lon="-4.075697000">
        <ele>584.4</ele>
        <time>2020-10-14T09:01:15Z</time>
      </trkpt>
      <trkpt lat="37.444706000" lon="-4.075567000">
        <ele>584.3</ele>
        <time>2020-10-14T09:01:19Z</time>
      </trkpt>
      <trkpt lat="37.444676000" lon="-4.075438000">
        <ele>584.2</ele>
        <time>2020-10-14T09:01:23Z</time>
      </trkpt>
      <trkpt lat="37.444653000" lon="-4.075339000">
        <ele>584.2</ele>
        <time>2020-10-14T09:01:26Z</time>
      </trkpt>
      <trkpt lat="37.444637000" lon="-4.075205000">
        <ele>584.3</ele>
        <time>2020-10-14T09:01:30Z</time>
      </trkpt>
      <trkpt lat="37.444617000" lon="-4.075078000">
        <ele>584.5</ele>
        <time>2020-10-14T09:01:34Z</time>
      </trkpt>
      <trkpt lat="37.444611000" lon="-4.074949000">
        <ele>584.5</ele>
        <time>2020-10-14T09:01:38Z</time>
      </trkpt>
      <trkpt lat="37.444607000" lon="-4.074846000">
        <ele>584.7</ele>
        <time>2020-10-14T09:01:41Z</time>
      </trkpt>
      <trkpt lat="37.444612000" lon="-4.074741000">
        <ele>584.8</ele>
        <time>2020-10-14T09:01:44Z</time>
      </trkpt>
      <trkpt lat="37.444611000" lon="-4.074638000">
        <ele>585.1</ele>
        <time>2020-10-14T09:01:47Z</time>
      </trkpt>
      <trkpt lat="37.444618000" lon="-4.074536000">
        <ele>585.5</ele>
        <time>2020-10-14T09:01:50Z</time>
      </trkpt>
      <trkpt lat="37.444629000" lon="-4.074431000">
        <ele>586.1</ele>
        <time>2020-10-14T09:01:53Z</time>
      </trkpt>
      <trkpt lat="37.444640000" lon="-4.074329000">
        <ele>586.8</ele>
        <time>2020-10-14T09:01:56Z</time>
      </trkpt>
      <trkpt lat="37.444650000" lon="-4.074199000">
        <ele>587.6</ele>
        <time>2020-10-14T09:02:00Z</time>
      </trkpt>
      <trkpt lat="37.444670000" lon="-4.074075000">
        <ele>588.5</ele>
        <time>2020-10-14T09:02:04Z</time>
      </trkpt>
      <trkpt lat="37.444692000" lon="-4.073943000">
        <ele>589.6</ele>
        <time>2020-10-14T09:02:08Z</time>
      </trkpt>
      <trkpt lat="37.444716000" lon="-4.073813000">
        <ele>590.8</ele>
        <time>2020-10-14T09:02:12Z</time>
      </trkpt>
      <trkpt lat="37.444754000" lon="-4.073694000">
        <ele>592.1</ele>
        <time>2020-10-14T09:02:16Z</time>
      </trkpt>
      <trkpt lat="37.444786000" lon="-4.073564000">
        <ele>593.5</ele>
        <time>2020-10-14T09:02:20Z</time>
      </trkpt>
      <trkpt lat="37.444817000" lon="-4.073466000">
        <ele>594.9</ele>
        <time>2020-10-14T09:02:23Z</time>
      </trkpt>
      <trkpt lat="37.444853000" lon="-4.073373000">
        <ele>596.3</ele>
        <time>2020-10-14T09:02:26Z</time>
      </trkpt>
      <trkpt lat="37.444897000" lon="-4.073259000">
        <ele>597.5</ele>
        <time>2020-10-14T09:02:30Z</time>
      </trkpt>
      <trkpt lat="37.444934000" lon="-4.073144000">
        <ele>598.7</ele>
        <time>2020-10-14T09:02:34Z</time>
      </trkpt>
      <trkpt lat="37.444970000" lon="-4.073027000">
        <ele>599.8</ele>
        <time>2020-10-14T09:02:38Z</time>
      </trkpt>
      <trkpt lat="37.445009000" lon="-4.072907000">
        <ele>600.9</ele>
        <time>2020-10-14T09:02:42Z</time>
      </trkpt>
      <trkpt lat="37.445043000" lon="-4.072780000">
        <ele>602.0</ele>
        <time>2020-10-14T09:02:46Z</time>
      </trkpt>
      <trkpt lat="37.445066000" lon="-4.072680000">
        <ele>603.0</ele>
        <time>2020-10-14T09:02:49Z</time>
      </trkpt>
      <trkpt lat="37.445098000" lon="-4.072550000">
        <ele>604.0</ele>
        <time>2020-10-14T09:02:53Z</time>
      </trkpt>
      <trkpt lat="37.445123000" lon="-4.072448000">
        <ele>604.9</ele>
        <time>2020-10-14T09:02:56Z</time>
      </trkpt>
      <trkpt lat="37.445145000" lon="-4.072346000">
        <ele>605.8</ele>
        <time>2020-10-14T09:02:59Z</time>
      </trkpt>
      <trkpt lat="37.445162000" lon="-4.072242000">
        <ele>606.6</ele>
        <time>2020-10-14T09:03:02Z</time>
      </trkpt>
      <trkpt lat="37.445173000" lon="-4.072114000">
        <ele>607.5</ele>
        <time>2020-10-14T09:03:06Z</time>
      </trkpt>
      <trkpt lat="37.445178000" lon="-4.071985000">
        <ele>608.2</ele>
        <time>2020-10-14T09:03:10Z</time>
      </trkpt>
      <trkpt lat="37.445177000" lon="-4.071863000">
        <ele>608.8</ele>
        <time>2020-10-14T09:03:14Z</time>
      </trkpt>
      <trkpt lat="37.445179000" lon="-4.071742000">
        <ele>609.5</ele>
        <time>2020-10-14T09:03:18Z</time>
      </trkpt>
      <trkpt lat="37.445176000" lon="-4.071619000">
        <ele>610.1</ele>
        <time>2020-10-14T09:03:22Z</time>
      </trkpt>
      <trkpt lat="37.445170000" lon="-4.071500000">
        <ele>610.6</ele>
        <time>2020-10-14T09:03:26Z</time>
      </trkpt>
      <trkpt lat="37.445164000" lon="-4.071379000">
        <ele>611.1</ele>
        <time>2020-10-14T09:03:30Z</time>
      </trkpt>
      <trkpt lat="37.445146000" lon="-4.071249000">
        <ele>611.5</ele>
        <time>2020-10-14T09:03:34Z</time>
      </trkpt>
      <trkpt lat="37.445126000" lon="-4.071122000">
        <ele>612.0</ele>
        <time>2020-10-14T09:03:38Z</time>
      </trkpt>
      <trkpt lat="37.445108000" lon="-4.071008000">
        <ele>612.5</ele>
        <time>2020-10-14T09:03:42Z</time>
      </trkpt>
      <trkpt lat="37.445085000" lon="-4.070897000">
        <ele>613.0</ele>
        <time>2020-10-14T09:03:46Z</time>
      </trkpt>
      <trkpt lat="37.445055000" lon="-4.070793000">
        <ele>613.5</ele>
        <time>2020-10-14T09:03:50Z</time>
      </trkpt>
      <trkpt lat="37.445024000" lon="-4.070680000">
        <ele>614.2</ele>
        <time>2020-10-14T09:03:54Z</time>
      </trkpt>
      <trkpt lat="37.444988000" lon="-4.070575000">
        <ele>614.8</ele>
        <time>2020-10-14T09:03:58Z</time>
      </trkpt>
      <trkpt lat="37.444951000" lon="-4.070469000">
        <ele>615.5</ele>
        <time>2020-10-14T09:04:02Z</time>
      </trkpt>
      <trkpt lat="37.444901000" lon="-4.070375000">
        <ele>616.0</ele>
        <time>2020-10-14T09:04:06Z</time>
      </trkpt>
      <trkpt lat="37.444853000" lon="-4.070271000">
        <ele>616.5</ele>
        <time>2020-10-14T09:04:10Z</time>
      </trkpt>
      <trkpt lat="37.444793000" lon="-4.070162000">
        <ele>617.2</ele>
        <time>2020-10-14T09:04:14Z</time>
      </trkpt>
      <trkpt lat="37.444721000" lon="-4.070063000">
        <ele>617.8</ele>
        <time>2020-10-14T09:04:18Z</time>
      </trkpt>
      <trkpt lat="37.444661000" lon="-4.069981000">
        <ele>618.6</ele>
        <time>2020-10-14T09:04:21Z</time>
      </trkpt>
      <trkpt lat="37.444603000" lon="-4.069895000">
        <ele>619.5</ele>
        <time>2020-10-14T09:04:24Z</time>
      </trkpt>
      <trkpt lat="37.444545000" lon="-4.069816000">
        <ele>620.3</ele>
        <time>2020-10-14T09:04:27Z</time>
      </trkpt>
      <trkpt lat="37.444486000" lon="-4.069744000">
        <ele>621.1</ele>
        <time>2020-10-14T09:04:30Z</time>
      </trkpt>
      <trkpt lat="37.444411000" lon="-4.069655000">
        <ele>621.9</ele>
        <time>2020-10-14T09:04:34Z</time>
      </trkpt>
      <trkpt lat="37.444353000" lon="-4.069582000">
        <ele>622.7</ele>
        <time>2020-10-14T09:04:37Z</time>
      </trkpt>
      <trkpt lat="37.444273000" lon="-4.069495000">
        <ele>623.5</ele>
        <time>2020-10-14T09:04:41Z</time>
      </trkpt>
      <trkpt lat="37.444207000" lon="-4.069415000">
        <ele>624.5</ele>
        <time>2020-10-14T09:04:45Z</time>
      </trkpt>
      <trkpt lat="37.444132000" lon="-4.069326000">
        <ele>625.3</ele>
        <time>2020-10-14T09:04:50Z</time>
      </trkpt>
      <trkpt lat="37.444066000" lon="-4.069246000">
        <ele>626.0</ele>
        <time>2020-10-14T09:04:54Z</time>
      </trkpt>
      <trkpt lat="37.444000000" lon="-4.069154000">
        <ele>626.6</ele>
        <time>2020-10-14T09:04:58Z</time>
      </trkpt>
      <trkpt lat="37.443944000" lon="-4.069062000">
        <ele>627.1</ele>
        <time>2020-10-14T09:05:02Z</time>
      </trkpt>
      <trkpt lat="37.443889000" lon="-4.068967000">
        <ele>627.5</ele>
        <time>2020-10-14T09:05:06Z</time>
      </trkpt>
      <trkpt lat="37.443828000" lon="-4.068871000">
        <ele>627.7</ele>
        <time>2020-10-14T09:05:10Z</time>
      </trkpt>
      <trkpt lat="37.443777000" lon="-4.068763000">
        <ele>628.0</ele>
        <time>2020-10-14T09:05:14Z</time>
      </trkpt>
      <trkpt lat="37.443726000" lon="-4.068651000">
        <ele>628.2</ele>
        <time>2020-10-14T09:05:18Z</time>
      </trkpt>
      <trkpt lat="37.443689000" lon="-4.068557000">
        <ele>628.5</ele>
        <time>2020-10-14T09:05:21Z</time>
      </trkpt>
      <trkpt lat="37.443642000" lon="-4.068439000">
        <ele>628.6</ele>
        <time>2020-10-14T09:05:25Z</time>
      </trkpt>
      <trkpt lat="37.443608000" lon="-4.068332000">
        <ele>628.8</ele>
        <time>2020-10-14T09:05:29Z</time>
      </trkpt>
      <trkpt lat="37.443575000" lon="-4.068229000">
        <ele>629.0</ele>
        <time>2020-10-14T09:05:33Z</time>
      </trkpt>
      <trkpt lat="37.443544000" lon="-4.068125000">
        <ele>629.2</ele>
        <time>2020-10-14T09:05:37Z</time>
      </trkpt>
      <trkpt lat="37.443517000" lon="-4.068017000">
        <ele>629.4</ele>
        <time>2020-10-14T09:05:41Z</time>
      </trkpt>
      <trkpt lat="37.443497000" lon="-4.067902000">
        <ele>629.5</ele>
        <time>2020-10-14T09:05:45Z</time>
      </trkpt>
      <trkpt lat="37.443481000" lon="-4.067784000">
        <ele>629.7</ele>
        <time>2020-10-14T09:05:49Z</time>
      </trkpt>
      <trkpt lat="37.443463000" lon="-4.067672000">
        <ele>629.9</ele>
        <time>2020-10-14T09:05:53Z</time>
      </trkpt>
      <trkpt lat="37.443448000" lon="-4.067559000">
        <ele>630.1</ele>
        <time>2020-10-14T09:05:57Z</time>
      </trkpt>
      <trkpt lat="37.443441000" lon="-4.067439000">
        <ele>630.4</ele>
        <time>2020-10-14T09:06:01Z</time>
      </trkpt>
      <trkpt lat="37.443431000" lon="-4.067318000">
        <ele>630.6</ele>
        <time>2020-10-14T09:06:05Z</time>
      </trkpt>
      <trkpt lat="37.443428000" lon="-4.067198000">
        <ele>631.0</ele>
        <time>2020-10-14T09:06:09Z</time>
      </trkpt>
      <trkpt lat="37.443435000" lon="-4.067078000">
        <ele>631.4</ele>
        <time>2020-10-14T09:06:13Z</time>
      </trkpt>
      <trkpt lat="37.443441000" lon="-4.066950000">
        <ele>631.9</ele>
        <time>2020-10-14T09:06:17Z</time>
      </trkpt>
      <trkpt lat="37.443449000" lon="-4.066845000">
        <ele>632.5</ele>
        <time>2020-10-14T09:06:20Z</time>
      </trkpt>
      <trkpt lat="37.443462000" lon="-4.066743000">
        <ele>633.1</ele>
        <time>2020-10-14T09:06:23Z</time>
      </trkpt>
      <trkpt lat="37.443487000" lon="-4.066612000">
        <ele>633.6</ele>
        <time>2020-10-14T09:06:27Z</time>
      </trkpt>
      <trkpt lat="37.443504000" lon="-4.066511000">
        <ele>634.1</ele>
        <time>2020-10-14T09:06:30Z</time>
      </trkpt>
      <trkpt lat="37.443518000" lon="-4.066392000">
        <ele>634.5</ele>
        <time>2020-10-14T09:06:34Z</time>
      </trkpt>
      <trkpt lat="37.443548000" lon="-4.066277000">
        <ele>635.0</ele>
        <time>2020-10-14T09:06:38Z</time>
      </trkpt>
      <trkpt lat="37.443583000" lon="-4.066155000">
        <ele>635.4</ele>
        <time>2020-10-14T09:06:42Z</time>
      </trkpt>
      <trkpt lat="37.443617000" lon="-4.066029000">
        <ele>635.8</ele>
        <time>2020-10-14T09:06:46Z</time>
      </trkpt>
      <trkpt lat="37.443647000" lon="-4.065901000">
        <ele>636.3</ele>
        <time>2020-10-14T09:06:50Z</time>
      </trkpt>
      <trkpt lat="37.443687000" lon="-4.065776000">
        <ele>636.8</ele>
        <time>2020-10-14T09:06:54Z</time>
      </trkpt>
      <trkpt lat="37.443729000" lon="-4.065656000">
        <ele>637.5</ele>
        <time>2020-10-14T09:06:58Z</time>
      </trkpt>
      <trkpt lat="37.443764000" lon="-4.065536000">
        <ele>638.4</ele>
        <time>2020-10-14T09:07:02Z</time>
      </trkpt>
      <trkpt lat="37.443804000" lon="-4.065414000">
        <ele>639.4</ele>
        <time>2020-10-14T09:07:06Z</time>
      </trkpt>
      <trkpt lat="37.443828000" lon="-4.065315000">
        <ele>640.6</ele>
        <time>2020-10-14T09:07:09Z</time>
      </trkpt>
      <trkpt lat="37.443864000" lon="-4.065187000">
        <ele>642.1</ele>
        <time>2020-10-14T09:07:13Z</time>
      </trkpt>
      <trkpt lat="37.443897000" lon="-4.065064000">
        <ele>643.6</ele>
        <time>2020-10-14T09:07:17Z</time>
      </trkpt>
      <trkpt lat="37.443929000" lon="-4.064945000">
        <ele>645.1</ele>
        <time>2020-10-14T09:07:21Z</time>
      </trkpt>
      <trkpt lat="37.443953000" lon="-4.064817000">
        <ele>646.6</ele>
        <time>2020-10-14T09:07:25Z</time>
      </trkpt>
      <trkpt lat="37.443976000" lon="-4.064700000">
        <ele>648.0</ele>
        <time>2020-10-14T09:07:29Z</time>
      </trkpt>
      <trkpt lat="37.444004000" lon="-4.064582000">
        <ele>649.3</ele>
        <time>2020-10-14T09:07:33Z</time>
      </trkpt>
      <trkpt lat="37.444027000" lon="-4.064461000">
        <ele>650.4</ele>
        <time>2020-10-14T09:07:37Z</time>
      </trkpt>
      <trkpt lat="37.444053000" lon="-4.064341000">
        <ele>651.4</ele>
        <time>2020-10-14T09:07:41Z</time>
      </trkpt>
      <trkpt lat="37.444080000" lon="-4.064222000">
        <ele>652.2</ele>
        <time>2020-10-14T09:07:45Z</time>
      </trkpt>
      <trkpt lat="37.444097000" lon="-4.064099000">
        <ele>653.0</ele>
        <time>2020-10-14T09:07:49Z</time>
      </trkpt>
      <trkpt lat="37.444115000" lon="-4.063978000">
        <ele>653.7</ele>
        <time>2020-10-14T09:07:53Z</time>
      </trkpt>
      <trkpt lat="37.444133000" lon="-4.063849000">
        <ele>654.5</ele>
        <time>2020-10-14T09:07:57Z</time>
      </trkpt>
      <trkpt lat="37.444149000" lon="-4.063725000">
        <ele>655.4</ele>
        <time>2020-10-14T09:08:01Z</time>
      </trkpt>
      <trkpt lat="37.444158000" lon="-4.063610000">
        <ele>656.4</ele>
        <time>2020-10-14T09:08:05Z</time>
      </trkpt>
      <trkpt lat="37.444174000" lon="-4.063491000">
        <ele>657.4</ele>
        <time>2020-10-14T09:08:09Z</time>
      </trkpt>
      <trkpt lat="37.444186000" lon="-4.063372000">
        <ele>658.4</ele>
        <time>2020-10-14T09:08:13Z</time>
      </trkpt>
      <trkpt lat="37.444196000" lon="-4.063254000">
        <ele>659.4</ele>
        <time>2020-10-14T09:08:17Z</time>
      </trkpt>
      <trkpt lat="37.444216000" lon="-4.063135000">
        <ele>660.3</ele>
        <time>2020-10-14T09:08:21Z</time>
      </trkpt>
      <trkpt lat="37.444236000" lon="-4.063018000">
        <ele>661.1</ele>
        <time>2020-10-14T09:08:25Z</time>
      </trkpt>
      <trkpt lat="37.444246000" lon="-4.062904000">
        <ele>661.7</ele>
        <time>2020-10-14T09:08:29Z</time>
      </trkpt>
      <trkpt lat="37.444262000" lon="-4.062787000">
        <ele>662.2</ele>
        <time>2020-10-14T09:08:33Z</time>
      </trkpt>
      <trkpt lat="37.444276000" lon="-4.062666000">
        <ele>662.5</ele>
        <time>2020-10-14T09:08:37Z</time>
      </trkpt>
      <trkpt lat="37.444285000" lon="-4.062550000">
        <ele>662.7</ele>
        <time>2020-10-14T09:08:41Z</time>
      </trkpt>
      <trkpt lat="37.444297000" lon="-4.062433000">
        <ele>662.9</ele>
        <time>2020-10-14T09:08:45Z</time>
      </trkpt>
      <trkpt lat="37.444319000" lon="-4.062314000">
        <ele>663.1</ele>
        <time>2020-10-14T09:08:49Z</time>
      </trkpt>
      <trkpt lat="37.444341000" lon="-4.062197000">
        <ele>663.4</ele>
        <time>2020-10-14T09:08:53Z</time>
      </trkpt>
      <trkpt lat="37.444351000" lon="-4.062084000">
        <ele>663.8</ele>
        <time>2020-10-14T09:08:57Z</time>
      </trkpt>
      <trkpt lat="37.444366000" lon="-4.061970000">
        <ele>664.5</ele>
        <time>2020-10-14T09:09:01Z</time>
      </trkpt>
      <trkpt lat="37.444375000" lon="-4.061856000">
        <ele>665.5</ele>
        <time>2020-10-14T09:09:05Z</time>
      </trkpt>
      <trkpt lat="37.444388000" lon="-4.061748000">
        <ele>666.5</ele>
        <time>2020-10-14T09:09:09Z</time>
      </trkpt>
      <trkpt lat="37.444402000" lon="-4.061637000">
        <ele>667.6</ele>
        <time>2020-10-14T09:09:13Z</time>
      </trkpt>
      <trkpt lat="37.444420000" lon="-4.061522000">
        <ele>668.8</ele>
        <time>2020-10-14T09:09:17Z</time>
      </trkpt>
      <trkpt lat="37.444434000" lon="-4.061405000">
        <ele>670.0</ele>
        <time>2020-10-14T09:09:21Z</time>
      </trkpt>
      <trkpt lat="37.444446000" lon="-4.061296000">
        <ele>671.3</ele>
        <time>2020-10-14T09:09:25Z</time>
      </trkpt>
      <trkpt lat="37.444461000" lon="-4.061187000">
        <ele>672.5</ele>
        <time>2020-10-14T09:09:29Z</time>
      </trkpt>
      <trkpt lat="37.444471000" lon="-4.061066000">
        <ele>673.5</ele>
        <time>2020-10-14T09:09:33Z</time>
      </trkpt>
      <trkpt lat="37.444482000" lon="-4.060944000">
        <ele>674.5</ele>
        <time>2020-10-14T09:09:37Z</time>
      </trkpt>
      <trkpt lat="37.444504000" lon="-4.060824000">
        <ele>675.5</ele>
        <time>2020-10-14T09:09:41Z</time>
      </trkpt>
      <trkpt lat="37.444523000" lon="-4.060710000">
        <ele>676.1</ele>
        <time>2020-10-14T09:09:45Z</time>
      </trkpt>
      <trkpt lat="37.444533000" lon="-4.060598000">
        <ele>676.7</ele>
        <time>2020-10-14T09:09:49Z</time>
      </trkpt>
      <trkpt lat="37.444549000" lon="-4.060487000">
        <ele>677.3</ele>
        <time>2020-10-14T09:09:53Z</time>
      </trkpt>
      <trkpt lat="37.444566000" lon="-4.060379000">
        <ele>677.7</ele>
        <time>2020-10-14T09:09:57Z</time>
      </trkpt>
      <trkpt lat="37.444586000" lon="-4.060271000">
        <ele>678.3</ele>
        <time>2020-10-14T09:10:01Z</time>
      </trkpt>
      <trkpt lat="37.444601000" lon="-4.060163000">
        <ele>678.8</ele>
        <time>2020-10-14T09:10:05Z</time>
      </trkpt>
      <trkpt lat="37.444611000" lon="-4.060052000">
        <ele>679.3</ele>
        <time>2020-10-14T09:10:09Z</time>
      </trkpt>
      <trkpt lat="37.444617000" lon="-4.059936000">
        <ele>679.8</ele>
        <time>2020-10-14T09:10:13Z</time>
      </trkpt>
      <trkpt lat="37.444627000" lon="-4.059818000">
        <ele>680.4</ele>
        <time>2020-10-14T09:10:17Z</time>
      </trkpt>
      <trkpt lat="37.444641000" lon="-4.059695000">
        <ele>680.9</ele>
        <time>2020-10-14T09:10:21Z</time>
      </trkpt>
      <trkpt lat="37.444648000" lon="-4.059573000">
        <ele>681.4</ele>
        <time>2020-10-14T09:10:25Z</time>
      </trkpt>
      <trkpt lat="37.444653000" lon="-4.059456000">
        <ele>681.9</ele>
        <time>2020-10-14T09:10:29Z</time>
      </trkpt>
      <trkpt lat="37.444654000" lon="-4.059338000">
        <ele>682.3</ele>
        <time>2020-10-14T09:10:33Z</time>
      </trkpt>
      <trkpt lat="37.444650000" lon="-4.059228000">
        <ele>682.5</ele>
        <time>2020-10-14T09:10:37Z</time>
      </trkpt>
      <trkpt lat="37.444645000" lon="-4.059112000">
        <ele>682.8</ele>
        <time>2020-10-14T09:10:41Z</time>
      </trkpt>
      <trkpt lat="37.444637000" lon="-4.058991000">
        <ele>682.9</ele>
        <time>2020-10-14T09:10:45Z</time>
      </trkpt>
      <trkpt lat="37.444610000" lon="-4.058882000">
        <ele>683.0</ele>
        <time>2020-10-14T09:10:49Z</time>
      </trkpt>
      <trkpt lat="37.444591000" lon="-4.058769000">
        <ele>683.1</ele>
        <time>2020-10-14T09:10:53Z</time>
      </trkpt>
      <trkpt lat="37.444568000" lon="-4.058662000">
        <ele>683.2</ele>
        <time>2020-10-14T09:10:57Z</time>
      </trkpt>
      <trkpt lat="37.444543000" lon="-4.058545000">
        <ele>683.2</ele>
        <time>2020-10-14T09:11:01Z</time>
      </trkpt>
      <trkpt lat="37.444513000" lon="-4.058429000">
        <ele>683.2</ele>
        <time>2020-10-14T09:11:05Z</time>
      </trkpt>
      <trkpt lat="37.444485000" lon="-4.058317000">
        <ele>683.2</ele>
        <time>2020-10-14T09:11:09Z</time>
      </trkpt>
      <trkpt lat="37.444444000" lon="-4.058218000">
        <ele>683.2</ele>
        <time>2020-10-14T09:11:13Z</time>
      </trkpt>
      <trkpt lat="37.444406000" lon="-4.058118000">
        <ele>683.3</ele>
        <time>2020-10-14T09:11:17Z</time>
      </trkpt>
      <trkpt lat="37.444364000" lon="-4.058030000">
        <ele>683.5</ele>
        <time>2020-10-14T09:11:21Z</time>
      </trkpt>
      <trkpt lat="37.444317000" lon="-4.057942000">
        <ele>683.7</ele>
        <time>2020-10-14T09:11:25Z</time>
      </trkpt>
      <trkpt lat="37.444266000" lon="-4.057849000">
        <ele>684.1</ele>
        <time>2020-10-14T09:11:29Z</time>
      </trkpt>
      <trkpt lat="37.444214000" lon="-4.057760000">
        <ele>684.5</ele>
        <time>2020-10-14T09:11:33Z</time>
      </trkpt>
      <trkpt lat="37.444163000" lon="-4.057674000">
        <ele>685.2</ele>
        <time>2020-10-14T09:11:37Z</time>
      </trkpt>
      <trkpt lat="37.444106000" lon="-4.057591000">
        <ele>685.8</ele>
        <time>2020-10-14T09:11:41Z</time>
      </trkpt>
      <trkpt lat="37.444050000" lon="-4.057514000">
        <ele>686.5</ele>
        <time>2020-10-14T09:11:45Z</time>
      </trkpt>
      <trkpt lat="37.443994000" lon="-4.057437000">
        <ele>687.4</ele>
        <time>2020-10-14T09:11:49Z</time>
      </trkpt>
      <trkpt lat="37.443937000" lon="-4.057358000">
        <ele>688.3</ele>
        <time>2020-10-14T09:11:53Z</time>
      </trkpt>
      <trkpt lat="37.443864000" lon="-4.057288000">
        <ele>689.2</ele>
        <time>2020-10-14T09:11:57Z</time>
      </trkpt>
      <trkpt lat="37.443799000" lon="-4.057221000">
        <ele>690.1</ele>
        <time>2020-10-14T09:12:01Z</time>
      </trkpt>
      <trkpt lat="37.443726000" lon="-4.057164000">
        <ele>691.1</ele>
        <time>2020-10-14T09:12:05Z</time>
      </trkpt>
      <trkpt lat="37.443649000" lon="-4.057097000">
        <ele>692.0</ele>
        <time>2020-10-14T09:12:09Z</time>
      </trkpt>
      <trkpt lat="37.443574000" lon="-4.057031000">
        <ele>692.9</ele>
        <time>2020-10-14T09:12:13Z</time>
      </trkpt>
      <trkpt lat="37.443496000" lon="-4.056956000">
        <ele>693.8</ele>
        <time>2020-10-14T09:12:18Z</time>
      </trkpt>
      <trkpt lat="37.443425000" lon="-4.056903000">
        <ele>694.6</ele>
        <time>2020-10-14T09:12:22Z</time>
      </trkpt>
      <trkpt lat="37.443357000" lon="-4.056837000">
        <ele>695.4</ele>
        <time>2020-10-14T09:12:26Z</time>
      </trkpt>
      <trkpt lat="37.443287000" lon="-4.056777000">
        <ele>696.1</ele>
        <time>2020-10-14T09:12:30Z</time>
      </trkpt>
      <trkpt lat="37.443215000" lon="-4.056714000">
        <ele>696.7</ele>
        <time>2020-10-14T09:12:34Z</time>
      </trkpt>
      <trkpt lat="37.443141000" lon="-4.056651000">
        <ele>697.5</ele>
        <time>2020-10-14T09:12:38Z</time>
      </trkpt>
      <trkpt lat="37.443069000" lon="-4.056582000">
        <ele>698.2</ele>
        <time>2020-10-14T09:12:42Z</time>
      </trkpt>
      <trkpt lat="37.442988000" lon="-4.056503000">
        <ele>698.9</ele>
        <time>2020-10-14T09:12:46Z</time>
      </trkpt>
      <trkpt lat="37.442922000" lon="-4.056421000">
        <ele>699.5</ele>
        <time>2020-10-14T09:12:50Z</time>
      </trkpt>
      <trkpt lat="37.442858000" lon="-4.056338000">
        <ele>700.2</ele>
        <time>2020-10-14T09:12:54Z</time>
      </trkpt>
      <trkpt lat="37.442790000" lon="-4.056259000">
        <ele>700.8</ele>
        <time>2020-10-14T09:12:58Z</time>
      </trkpt>
      <trkpt lat="37.442728000" lon="-4.056177000">
        <ele>701.4</ele>
        <time>2020-10-14T09:13:02Z</time>
      </trkpt>
      <trkpt lat="37.442665000" lon="-4.056093000">
        <ele>701.8</ele>
        <time>2020-10-14T09:13:06Z</time>
      </trkpt>
      <trkpt lat="37.442608000" lon="-4.056001000">
        <ele>702.3</ele>
        <time>2020-10-14T09:13:10Z</time>
      </trkpt>
      <trkpt lat="37.442553000" lon="-4.055910000">
        <ele>702.7</ele>
        <time>2020-10-14T09:13:14Z</time>
      </trkpt>
      <trkpt lat="37.442502000" lon="-4.055822000">
        <ele>703.1</ele>
        <time>2020-10-14T09:13:18Z</time>
      </trkpt>
      <trkpt lat="37.442456000" lon="-4.055722000">
        <ele>703.4</ele>
        <time>2020-10-14T09:13:22Z</time>
      </trkpt>
      <trkpt lat="37.442410000" lon="-4.055621000">
        <ele>703.5</ele>
        <time>2020-10-14T09:13:26Z</time>
      </trkpt>
      <trkpt lat="37.442375000" lon="-4.055525000">
        <ele>703.8</ele>
        <time>2020-10-14T09:13:30Z</time>
      </trkpt>
      <trkpt lat="37.442338000" lon="-4.055427000">
        <ele>704.2</ele>
        <time>2020-10-14T09:13:34Z</time>
      </trkpt>
      <trkpt lat="37.442304000" lon="-4.055320000">
        <ele>704.6</ele>
        <time>2020-10-14T09:13:38Z</time>
      </trkpt>
      <trkpt lat="37.442267000" lon="-4.055216000">
        <ele>705.2</ele>
        <time>2020-10-14T09:13:42Z</time>
      </trkpt>
      <trkpt lat="37.442241000" lon="-4.055111000">
        <ele>705.9</ele>
        <time>2020-10-14T09:13:46Z</time>
      </trkpt>
      <trkpt lat="37.442218000" lon="-4.054999000">
        <ele>706.8</ele>
        <time>2020-10-14T09:13:50Z</time>
      </trkpt>
      <trkpt lat="37.442192000" lon="-4.054884000">
        <ele>707.8</ele>
        <time>2020-10-14T09:13:54Z</time>
      </trkpt>
      <trkpt lat="37.442178000" lon="-4.054764000">
        <ele>708.9</ele>
        <time>2020-10-14T09:13:58Z</time>
      </trkpt>
      <trkpt lat="37.442160000" lon="-4.054638000">
        <ele>710.1</ele>
        <time>2020-10-14T09:14:02Z</time>
      </trkpt>
      <trkpt lat="37.442150000" lon="-4.054535000">
        <ele>711.3</ele>
        <time>2020-10-14T09:14:05Z</time>
      </trkpt>
      <trkpt lat="37.442135000" lon="-4.054425000">
        <ele>712.5</ele>
        <time>2020-10-14T09:14:08Z</time>
      </trkpt>
      <trkpt lat="37.442118000" lon="-4.054319000">
        <ele>713.7</ele>
        <time>2020-10-14T09:14:11Z</time>
      </trkpt>
      <trkpt lat="37.442096000" lon="-4.054184000">
        <ele>714.9</ele>
        <time>2020-10-14T09:14:15Z</time>
      </trkpt>
      <trkpt lat="37.442079000" lon="-4.054081000">
        <ele>716.0</ele>
        <time>2020-10-14T09:14:18Z</time>
      </trkpt>
      <trkpt lat="37.442061000" lon="-4.053976000">
        <ele>717.1</ele>
        <time>2020-10-14T09:14:21Z</time>
      </trkpt>
      <trkpt lat="37.442043000" lon="-4.053868000">
        <ele>718.0</ele>
        <time>2020-10-14T09:14:24Z</time>
      </trkpt>
      <trkpt lat="37.442035000" lon="-4.053764000">
        <ele>718.7</ele>
        <time>2020-10-14T09:14:27Z</time>
      </trkpt>
      <trkpt lat="37.442028000" lon="-4.053662000">
        <ele>719.5</ele>
        <time>2020-10-14T09:14:30Z</time>
      </trkpt>
      <trkpt lat="37.442013000" lon="-4.053531000">
        <ele>720.0</ele>
        <time>2020-10-14T09:14:34Z</time>
      </trkpt>
      <trkpt lat="37.442001000" lon="-4.053400000">
        <ele>720.4</ele>
        <time>2020-10-14T09:14:38Z</time>
      </trkpt>
      <trkpt lat="37.441988000" lon="-4.053266000">
        <ele>720.6</ele>
        <time>2020-10-14T09:14:42Z</time>
      </trkpt>
      <trkpt lat="37.441979000" lon="-4.053163000">
        <ele>720.8</ele>
        <time>2020-10-14T09:14:45Z</time>
      </trkpt>
      <trkpt lat="37.441972000" lon="-4.053058000">
        <ele>721.0</ele>
        <time>2020-10-14T09:14:48Z</time>
      </trkpt>
      <trkpt lat="37.441965000" lon="-4.052948000">
        <ele>721.0</ele>
        <time>2020-10-14T09:14:51Z</time>
      </trkpt>
      <trkpt lat="37.441958000" lon="-4.052834000">
        <ele>720.9</ele>
        <time>2020-10-14T09:14:54Z</time>
      </trkpt>
      <trkpt lat="37.441964000" lon="-4.052715000">
        <ele>720.6</ele>
        <time>2020-10-14T09:14:57Z</time>
      </trkpt>
      <trkpt lat="37.441968000" lon="-4.052591000">
        <ele>720.3</ele>
        <time>2020-10-14T09:15:00Z</time>
      </trkpt>
      <trkpt lat="37.441976000" lon="-4.052462000">
        <ele>720.0</ele>
        <time>2020-10-14T09:15:03Z</time>
      </trkpt>
      <trkpt lat="37.441992000" lon="-4.052330000">
        <ele>719.5</ele>
        <time>2020-10-14T09:15:06Z</time>
      </trkpt>
      <trkpt lat="37.442018000" lon="-4.052188000">
        <ele>719.1</ele>
        <time>2020-10-14T09:15:09Z</time>
      </trkpt>
      <trkpt lat="37.442045000" lon="-4.052042000">
        <ele>718.7</ele>
        <time>2020-10-14T09:15:12Z</time>
      </trkpt>
      <trkpt lat="37.442080000" lon="-4.051903000">
        <ele>718.4</ele>
        <time>2020-10-14T09:15:15Z</time>
      </trkpt>
      <trkpt lat="37.442125000" lon="-4.051769000">
        <ele>718.0</ele>
        <time>2020-10-14T09:15:18Z</time>
      </trkpt>
      <trkpt lat="37.442173000" lon="-4.051633000">
        <ele>717.6</ele>
        <time>2020-10-14T09:15:21Z</time>
      </trkpt>
      <trkpt lat="37.442220000" lon="-4.051500000">
        <ele>717.5</ele>
        <time>2020-10-14T09:15:24Z</time>
      </trkpt>
      <trkpt lat="37.442267000" lon="-4.051390000">
        <ele>717.5</ele>
        <time>2020-10-14T09:15:27Z</time>
      </trkpt>
      <trkpt lat="37.442313000" lon="-4.051294000">
        <ele>717.5</ele>
        <time>2020-10-14T09:15:30Z</time>
      </trkpt>
      <trkpt lat="37.442368000" lon="-4.051194000">
        <ele>717.6</ele>
        <time>2020-10-14T09:15:33Z</time>
      </trkpt>
      <trkpt lat="37.442394000" lon="-4.051088000">
        <ele>717.6</ele>
        <time>2020-10-14T09:16:13Z</time>
      </trkpt>
      <trkpt lat="37.442444000" lon="-4.050992000">
        <ele>717.6</ele>
        <time>2020-10-14T09:16:17Z</time>
      </trkpt>
      <trkpt lat="37.442500000" lon="-4.050899000">
        <ele>717.6</ele>
        <time>2020-10-14T09:16:20Z</time>
      </trkpt>
      <trkpt lat="37.442568000" lon="-4.050789000">
        <ele>717.5</ele>
        <time>2020-10-14T09:16:23Z</time>
      </trkpt>
      <trkpt lat="37.442618000" lon="-4.050708000">
        <ele>717.4</ele>
        <time>2020-10-14T09:16:25Z</time>
      </trkpt>
      <trkpt lat="37.442687000" lon="-4.050592000">
        <ele>717.1</ele>
        <time>2020-10-14T09:16:28Z</time>
      </trkpt>
      <trkpt lat="37.442744000" lon="-4.050496000">
        <ele>716.6</ele>
        <time>2020-10-14T09:16:31Z</time>
      </trkpt>
      <trkpt lat="37.442792000" lon="-4.050402000">
        <ele>716.0</ele>
        <time>2020-10-14T09:16:40Z</time>
      </trkpt>
      <trkpt lat="37.442847000" lon="-4.050326000">
        <ele>715.1</ele>
        <time>2020-10-14T09:18:07Z</time>
      </trkpt>
      <trkpt lat="37.442903000" lon="-4.050225000">
        <ele>714.1</ele>
        <time>2020-10-14T09:18:10Z</time>
      </trkpt>
      <trkpt lat="37.442951000" lon="-4.050135000">
        <ele>713.1</ele>
        <time>2020-10-14T09:18:12Z</time>
      </trkpt>
      <trkpt lat="37.443011000" lon="-4.050026000">
        <ele>712.0</ele>
        <time>2020-10-14T09:18:14Z</time>
      </trkpt>
      <trkpt lat="37.443076000" lon="-4.049911000">
        <ele>710.9</ele>
        <time>2020-10-14T09:18:16Z</time>
      </trkpt>
      <trkpt lat="37.443149000" lon="-4.049778000">
        <ele>709.6</ele>
        <time>2020-10-14T09:18:18Z</time>
      </trkpt>
      <trkpt lat="37.443225000" lon="-4.049640000">
        <ele>708.2</ele>
        <time>2020-10-14T09:18:20Z</time>
      </trkpt>
      <trkpt lat="37.443306000" lon="-4.049491000">
        <ele>706.7</ele>
        <time>2020-10-14T09:18:22Z</time>
      </trkpt>
      <trkpt lat="37.443392000" lon="-4.049338000">
        <ele>705.2</ele>
        <time>2020-10-14T09:18:24Z</time>
      </trkpt>
      <trkpt lat="37.443481000" lon="-4.049183000">
        <ele>703.8</ele>
        <time>2020-10-14T09:18:26Z</time>
      </trkpt>
      <trkpt lat="37.443574000" lon="-4.049027000">
        <ele>702.5</ele>
        <time>2020-10-14T09:18:28Z</time>
      </trkpt>
      <trkpt lat="37.443664000" lon="-4.048863000">
        <ele>701.5</ele>
        <time>2020-10-14T09:18:30Z</time>
      </trkpt>
      <trkpt lat="37.443711000" lon="-4.048778000">
        <ele>700.4</ele>
        <time>2020-10-14T09:18:31Z</time>
      </trkpt>
      <trkpt lat="37.443807000" lon="-4.048611000">
        <ele>699.4</ele>
        <time>2020-10-14T09:18:33Z</time>
      </trkpt>
      <trkpt lat="37.443857000" lon="-4.048522000">
        <ele>698.5</ele>
        <time>2020-10-14T09:18:34Z</time>
      </trkpt>
      <trkpt lat="37.443909000" lon="-4.048441000">
        <ele>697.5</ele>
        <time>2020-10-14T09:18:35Z</time>
      </trkpt>
      <trkpt lat="37.443960000" lon="-4.048353000">
        <ele>696.7</ele>
        <time>2020-10-14T09:18:36Z</time>
      </trkpt>
      <trkpt lat="37.444010000" lon="-4.048262000">
        <ele>696.0</ele>
        <time>2020-10-14T09:18:37Z</time>
      </trkpt>
      <trkpt lat="37.444061000" lon="-4.048176000">
        <ele>695.3</ele>
        <time>2020-10-14T09:18:38Z</time>
      </trkpt>
      <trkpt lat="37.444110000" lon="-4.048089000">
        <ele>694.7</ele>
        <time>2020-10-14T09:18:39Z</time>
      </trkpt>
      <trkpt lat="37.444160000" lon="-4.048005000">
        <ele>694.1</ele>
        <time>2020-10-14T09:18:40Z</time>
      </trkpt>
      <trkpt lat="37.444208000" lon="-4.047920000">
        <ele>693.5</ele>
        <time>2020-10-14T09:18:41Z</time>
      </trkpt>
      <trkpt lat="37.444308000" lon="-4.047753000">
        <ele>692.8</ele>
        <time>2020-10-14T09:18:43Z</time>
      </trkpt>
      <trkpt lat="37.444360000" lon="-4.047668000">
        <ele>692.2</ele>
        <time>2020-10-14T09:18:44Z</time>
      </trkpt>
      <trkpt lat="37.444411000" lon="-4.047581000">
        <ele>691.5</ele>
        <time>2020-10-14T09:18:45Z</time>
      </trkpt>
      <trkpt lat="37.444462000" lon="-4.047495000">
        <ele>690.9</ele>
        <time>2020-10-14T09:18:46Z</time>
      </trkpt>
      <trkpt lat="37.444512000" lon="-4.047405000">
        <ele>690.3</ele>
        <time>2020-10-14T09:18:47Z</time>
      </trkpt>
      <trkpt lat="37.444565000" lon="-4.047312000">
        <ele>689.6</ele>
        <time>2020-10-14T09:18:48Z</time>
      </trkpt>
      <trkpt lat="37.444619000" lon="-4.047219000">
        <ele>689.1</ele>
        <time>2020-10-14T09:18:49Z</time>
      </trkpt>
      <trkpt lat="37.444672000" lon="-4.047126000">
        <ele>688.6</ele>
        <time>2020-10-14T09:18:50Z</time>
      </trkpt>
      <trkpt lat="37.444729000" lon="-4.047029000">
        <ele>688.2</ele>
        <time>2020-10-14T09:18:51Z</time>
      </trkpt>
      <trkpt lat="37.444783000" lon="-4.046931000">
        <ele>687.8</ele>
        <time>2020-10-14T09:18:52Z</time>
      </trkpt>
      <trkpt lat="37.444841000" lon="-4.046833000">
        <ele>687.5</ele>
        <time>2020-10-14T09:18:53Z</time>
      </trkpt>
      <trkpt lat="37.444897000" lon="-4.046739000">
        <ele>687.1</ele>
        <time>2020-10-14T09:18:54Z</time>
      </trkpt>
      <trkpt lat="37.444955000" lon="-4.046648000">
        <ele>686.8</ele>
        <time>2020-10-14T09:18:55Z</time>
      </trkpt>
      <trkpt lat="37.445014000" lon="-4.046558000">
        <ele>686.5</ele>
        <time>2020-10-14T09:18:56Z</time>
      </trkpt>
      <trkpt lat="37.445078000" lon="-4.046469000">
        <ele>686.3</ele>
        <time>2020-10-14T09:18:57Z</time>
      </trkpt>
      <trkpt lat="37.445145000" lon="-4.046382000">
        <ele>686.1</ele>
        <time>2020-10-14T09:18:58Z</time>
      </trkpt>
      <trkpt lat="37.445215000" lon="-4.046300000">
        <ele>685.9</ele>
        <time>2020-10-14T09:18:59Z</time>
      </trkpt>
      <trkpt lat="37.445288000" lon="-4.046223000">
        <ele>685.7</ele>
        <time>2020-10-14T09:19:00Z</time>
      </trkpt>
      <trkpt lat="37.445359000" lon="-4.046149000">
        <ele>685.5</ele>
        <time>2020-10-14T09:19:01Z</time>
      </trkpt>
      <trkpt lat="37.445427000" lon="-4.046081000">
        <ele>685.0</ele>
        <time>2020-10-14T09:19:02Z</time>
      </trkpt>
      <trkpt lat="37.445492000" lon="-4.046020000">
        <ele>684.5</ele>
        <time>2020-10-14T09:19:03Z</time>
      </trkpt>
      <trkpt lat="37.445619000" lon="-4.045916000">
        <ele>683.9</ele>
        <time>2020-10-14T09:19:05Z</time>
      </trkpt>
      <trkpt lat="37.445752000" lon="-4.045823000">
        <ele>683.3</ele>
        <time>2020-10-14T09:19:07Z</time>
      </trkpt>
      <trkpt lat="37.445878000" lon="-4.045733000">
        <ele>682.6</ele>
        <time>2020-10-14T09:19:09Z</time>
      </trkpt>
      <trkpt lat="37.446007000" lon="-4.045647000">
        <ele>682.0</ele>
        <time>2020-10-14T09:19:11Z</time>
      </trkpt>
      <trkpt lat="37.446139000" lon="-4.045557000">
        <ele>681.3</ele>
        <time>2020-10-14T09:19:13Z</time>
      </trkpt>
      <trkpt lat="37.446270000" lon="-4.045473000">
        <ele>680.4</ele>
        <time>2020-10-14T09:19:15Z</time>
      </trkpt>
      <trkpt lat="37.446401000" lon="-4.045389000">
        <ele>679.5</ele>
        <time>2020-10-14T09:19:17Z</time>
      </trkpt>
      <trkpt lat="37.446533000" lon="-4.045293000">
        <ele>678.5</ele>
        <time>2020-10-14T09:19:19Z</time>
      </trkpt>
      <trkpt lat="37.446666000" lon="-4.045197000">
        <ele>677.5</ele>
        <time>2020-10-14T09:19:21Z</time>
      </trkpt>
      <trkpt lat="37.446799000" lon="-4.045091000">
        <ele>676.5</ele>
        <time>2020-10-14T09:19:23Z</time>
      </trkpt>
      <trkpt lat="37.446930000" lon="-4.044981000">
        <ele>675.5</ele>
        <time>2020-10-14T09:19:25Z</time>
      </trkpt>
      <trkpt lat="37.447052000" lon="-4.044864000">
        <ele>674.6</ele>
        <time>2020-10-14T09:19:27Z</time>
      </trkpt>
      <trkpt lat="37.447175000" lon="-4.044744000">
        <ele>673.8</ele>
        <time>2020-10-14T09:19:29Z</time>
      </trkpt>
      <trkpt lat="37.447300000" lon="-4.044617000">
        <ele>673.0</ele>
        <time>2020-10-14T09:19:31Z</time>
      </trkpt>
      <trkpt lat="37.447419000" lon="-4.044485000">
        <ele>672.1</ele>
        <time>2020-10-14T09:19:33Z</time>
      </trkpt>
      <trkpt lat="37.447484000" lon="-4.044420000">
        <ele>671.2</ele>
        <time>2020-10-14T09:19:34Z</time>
      </trkpt>
      <trkpt lat="37.447612000" lon="-4.044289000">
        <ele>670.4</ele>
        <time>2020-10-14T09:19:36Z</time>
      </trkpt>
      <trkpt lat="37.447679000" lon="-4.044226000">
        <ele>669.5</ele>
        <time>2020-10-14T09:19:37Z</time>
      </trkpt>
      <trkpt lat="37.447743000" lon="-4.044163000">
        <ele>668.9</ele>
        <time>2020-10-14T09:19:38Z</time>
      </trkpt>
      <trkpt lat="37.447870000" lon="-4.044038000">
        <ele>668.4</ele>
        <time>2020-10-14T09:19:40Z</time>
      </trkpt>
      <trkpt lat="37.447932000" lon="-4.043972000">
        <ele>667.9</ele>
        <time>2020-10-14T09:19:41Z</time>
      </trkpt>
      <trkpt lat="37.447997000" lon="-4.043907000">
        <ele>667.4</ele>
        <time>2020-10-14T09:19:42Z</time>
      </trkpt>
      <trkpt lat="37.448059000" lon="-4.043839000">
        <ele>666.8</ele>
        <time>2020-10-14T09:19:43Z</time>
      </trkpt>
      <trkpt lat="37.448123000" lon="-4.043773000">
        <ele>666.1</ele>
        <time>2020-10-14T09:19:44Z</time>
      </trkpt>
      <trkpt lat="37.448190000" lon="-4.043709000">
        <ele>665.2</ele>
        <time>2020-10-14T09:19:45Z</time>
      </trkpt>
      <trkpt lat="37.448255000" lon="-4.043642000">
        <ele>664.3</ele>
        <time>2020-10-14T09:19:46Z</time>
      </trkpt>
      <trkpt lat="37.448376000" lon="-4.043514000">
        <ele>663.4</ele>
        <time>2020-10-14T09:19:48Z</time>
      </trkpt>
      <trkpt lat="37.448495000" lon="-4.043397000">
        <ele>662.5</ele>
        <time>2020-10-14T09:19:50Z</time>
      </trkpt>
      <trkpt lat="37.448619000" lon="-4.043283000">
        <ele>661.7</ele>
        <time>2020-10-14T09:19:52Z</time>
      </trkpt>
      <trkpt lat="37.448736000" lon="-4.043166000">
        <ele>660.9</ele>
        <time>2020-10-14T09:19:54Z</time>
      </trkpt>
      <trkpt lat="37.448854000" lon="-4.043046000">
        <ele>659.9</ele>
        <time>2020-10-14T09:19:56Z</time>
      </trkpt>
      <trkpt lat="37.448973000" lon="-4.042925000">
        <ele>658.9</ele>
        <time>2020-10-14T09:19:58Z</time>
      </trkpt>
      <trkpt lat="37.449096000" lon="-4.042808000">
        <ele>658.0</ele>
        <time>2020-10-14T09:20:00Z</time>
      </trkpt>
      <trkpt lat="37.449226000" lon="-4.042695000">
        <ele>656.9</ele>
        <time>2020-10-14T09:20:02Z</time>
      </trkpt>
      <trkpt lat="37.449296000" lon="-4.042642000">
        <ele>655.9</ele>
        <time>2020-10-14T09:20:03Z</time>
      </trkpt>
      <trkpt lat="37.449432000" lon="-4.042546000">
        <ele>655.0</ele>
        <time>2020-10-14T09:20:05Z</time>
      </trkpt>
      <trkpt lat="37.449567000" lon="-4.042458000">
        <ele>654.2</ele>
        <time>2020-10-14T09:20:07Z</time>
      </trkpt>
      <trkpt lat="37.449708000" lon="-4.042386000">
        <ele>653.5</ele>
        <time>2020-10-14T09:20:09Z</time>
      </trkpt>
      <trkpt lat="37.449853000" lon="-4.042325000">
        <ele>652.7</ele>
        <time>2020-10-14T09:20:11Z</time>
      </trkpt>
      <trkpt lat="37.449995000" lon="-4.042273000">
        <ele>651.9</ele>
        <time>2020-10-14T09:20:13Z</time>
      </trkpt>
      <trkpt lat="37.450145000" lon="-4.042222000">
        <ele>651.0</ele>
        <time>2020-10-14T09:20:15Z</time>
      </trkpt>
      <trkpt lat="37.450224000" lon="-4.042197000">
        <ele>650.2</ele>
        <time>2020-10-14T09:20:16Z</time>
      </trkpt>
      <trkpt lat="37.450382000" lon="-4.042149000">
        <ele>649.2</ele>
        <time>2020-10-14T09:20:18Z</time>
      </trkpt>
      <trkpt lat="37.450461000" lon="-4.042124000">
        <ele>647.9</ele>
        <time>2020-10-14T09:20:19Z</time>
      </trkpt>
      <trkpt lat="37.450620000" lon="-4.042074000">
        <ele>646.7</ele>
        <time>2020-10-14T09:20:21Z</time>
      </trkpt>
      <trkpt lat="37.450700000" lon="-4.042048000">
        <ele>645.5</ele>
        <time>2020-10-14T09:20:22Z</time>
      </trkpt>
      <trkpt lat="37.450779000" lon="-4.042023000">
        <ele>644.5</ele>
        <time>2020-10-14T09:20:23Z</time>
      </trkpt>
      <trkpt lat="37.450934000" lon="-4.041971000">
        <ele>643.4</ele>
        <time>2020-10-14T09:20:25Z</time>
      </trkpt>
      <trkpt lat="37.451090000" lon="-4.041922000">
        <ele>642.3</ele>
        <time>2020-10-14T09:20:27Z</time>
      </trkpt>
      <trkpt lat="37.451248000" lon="-4.041875000">
        <ele>641.2</ele>
        <time>2020-10-14T09:20:29Z</time>
      </trkpt>
      <trkpt lat="37.451408000" lon="-4.041825000">
        <ele>640.2</ele>
        <time>2020-10-14T09:20:31Z</time>
      </trkpt>
      <trkpt lat="37.451487000" lon="-4.041800000">
        <ele>639.2</ele>
        <time>2020-10-14T09:20:32Z</time>
      </trkpt>
      <trkpt lat="37.451568000" lon="-4.041769000">
        <ele>638.2</ele>
        <time>2020-10-14T09:20:33Z</time>
      </trkpt>
      <trkpt lat="37.451646000" lon="-4.041736000">
        <ele>637.3</ele>
        <time>2020-10-14T09:20:34Z</time>
      </trkpt>
      <trkpt lat="37.451723000" lon="-4.041699000">
        <ele>636.5</ele>
        <time>2020-10-14T09:20:35Z</time>
      </trkpt>
      <trkpt lat="37.451799000" lon="-4.041662000">
        <ele>635.7</ele>
        <time>2020-10-14T09:20:36Z</time>
      </trkpt>
      <trkpt lat="37.451944000" lon="-4.041573000">
        <ele>634.8</ele>
        <time>2020-10-14T09:20:38Z</time>
      </trkpt>
      <trkpt lat="37.452083000" lon="-4.041473000">
        <ele>633.7</ele>
        <time>2020-10-14T09:20:40Z</time>
      </trkpt>
      <trkpt lat="37.452218000" lon="-4.041369000">
        <ele>632.5</ele>
        <time>2020-10-14T09:20:42Z</time>
      </trkpt>
      <trkpt lat="37.452339000" lon="-4.041253000">
        <ele>631.0</ele>
        <time>2020-10-14T09:20:44Z</time>
      </trkpt>
      <trkpt lat="37.452455000" lon="-4.041132000">
        <ele>629.5</ele>
        <time>2020-10-14T09:20:46Z</time>
      </trkpt>
      <trkpt lat="37.452566000" lon="-4.041009000">
        <ele>627.9</ele>
        <time>2020-10-14T09:20:48Z</time>
      </trkpt>
      <trkpt lat="37.452674000" lon="-4.040884000">
        <ele>626.3</ele>
        <time>2020-10-14T09:20:50Z</time>
      </trkpt>
      <trkpt lat="37.452776000" lon="-4.040753000">
        <ele>624.6</ele>
        <time>2020-10-14T09:20:52Z</time>
      </trkpt>
      <trkpt lat="37.452887000" lon="-4.040621000">
        <ele>623.1</ele>
        <time>2020-10-14T09:20:54Z</time>
      </trkpt>
      <trkpt lat="37.453006000" lon="-4.040483000">
        <ele>621.5</ele>
        <time>2020-10-14T09:20:56Z</time>
      </trkpt>
      <trkpt lat="37.453064000" lon="-4.040412000">
        <ele>619.9</ele>
        <time>2020-10-14T09:20:57Z</time>
      </trkpt>
      <trkpt lat="37.453127000" lon="-4.040337000">
        <ele>618.5</ele>
        <time>2020-10-14T09:20:58Z</time>
      </trkpt>
      <trkpt lat="37.453193000" lon="-4.040261000">
        <ele>617.1</ele>
        <time>2020-10-14T09:20:59Z</time>
      </trkpt>
      <trkpt lat="37.453258000" lon="-4.040181000">
        <ele>615.7</ele>
        <time>2020-10-14T09:21:00Z</time>
      </trkpt>
      <trkpt lat="37.453326000" lon="-4.040100000">
        <ele>614.5</ele>
        <time>2020-10-14T09:21:01Z</time>
      </trkpt>
      <trkpt lat="37.453394000" lon="-4.040015000">
        <ele>613.3</ele>
        <time>2020-10-14T09:21:02Z</time>
      </trkpt>
      <trkpt lat="37.453465000" lon="-4.039930000">
        <ele>612.1</ele>
        <time>2020-10-14T09:21:03Z</time>
      </trkpt>
      <trkpt lat="37.453538000" lon="-4.039842000">
        <ele>611.0</ele>
        <time>2020-10-14T09:21:04Z</time>
      </trkpt>
      <trkpt lat="37.453611000" lon="-4.039755000">
        <ele>609.9</ele>
        <time>2020-10-14T09:21:05Z</time>
      </trkpt>
      <trkpt lat="37.453685000" lon="-4.039664000">
        <ele>608.9</ele>
        <time>2020-10-14T09:21:06Z</time>
      </trkpt>
      <trkpt lat="37.453761000" lon="-4.039573000">
        <ele>608.0</ele>
        <time>2020-10-14T09:21:07Z</time>
      </trkpt>
      <trkpt lat="37.453835000" lon="-4.039482000">
        <ele>607.2</ele>
        <time>2020-10-14T09:21:08Z</time>
      </trkpt>
      <trkpt lat="37.453910000" lon="-4.039392000">
        <ele>606.4</ele>
        <time>2020-10-14T09:21:09Z</time>
      </trkpt>
      <trkpt lat="37.453986000" lon="-4.039300000">
        <ele>605.6</ele>
        <time>2020-10-14T09:21:10Z</time>
      </trkpt>
      <trkpt lat="37.454064000" lon="-4.039208000">
        <ele>605.1</ele>
        <time>2020-10-14T09:21:11Z</time>
      </trkpt>
      <trkpt lat="37.454140000" lon="-4.039117000">
        <ele>604.6</ele>
        <time>2020-10-14T09:21:12Z</time>
      </trkpt>
      <trkpt lat="37.454215000" lon="-4.039026000">
        <ele>604.2</ele>
        <time>2020-10-14T09:21:13Z</time>
      </trkpt>
      <trkpt lat="37.454291000" lon="-4.038936000">
        <ele>603.7</ele>
        <time>2020-10-14T09:21:14Z</time>
      </trkpt>
      <trkpt lat="37.454363000" lon="-4.038847000">
        <ele>603.4</ele>
        <time>2020-10-14T09:21:15Z</time>
      </trkpt>
      <trkpt lat="37.454437000" lon="-4.038761000">
        <ele>603.1</ele>
        <time>2020-10-14T09:21:16Z</time>
      </trkpt>
      <trkpt lat="37.454505000" lon="-4.038674000">
        <ele>602.7</ele>
        <time>2020-10-14T09:21:17Z</time>
      </trkpt>
      <trkpt lat="37.454573000" lon="-4.038593000">
        <ele>602.5</ele>
        <time>2020-10-14T09:21:18Z</time>
      </trkpt>
      <trkpt lat="37.454641000" lon="-4.038509000">
        <ele>602.3</ele>
        <time>2020-10-14T09:21:19Z</time>
      </trkpt>
      <trkpt lat="37.454706000" lon="-4.038429000">
        <ele>602.2</ele>
        <time>2020-10-14T09:21:20Z</time>
      </trkpt>
      <trkpt lat="37.454769000" lon="-4.038349000">
        <ele>602.2</ele>
        <time>2020-10-14T09:21:21Z</time>
      </trkpt>
      <trkpt lat="37.454830000" lon="-4.038270000">
        <ele>602.2</ele>
        <time>2020-10-14T09:21:22Z</time>
      </trkpt>
      <trkpt lat="37.454895000" lon="-4.038193000">
        <ele>602.2</ele>
        <time>2020-10-14T09:21:23Z</time>
      </trkpt>
      <trkpt lat="37.454956000" lon="-4.038120000">
        <ele>602.4</ele>
        <time>2020-10-14T09:21:24Z</time>
      </trkpt>
      <trkpt lat="37.455018000" lon="-4.038046000">
        <ele>602.7</ele>
        <time>2020-10-14T09:21:25Z</time>
      </trkpt>
      <trkpt lat="37.455134000" lon="-4.037907000">
        <ele>603.2</ele>
        <time>2020-10-14T09:21:27Z</time>
      </trkpt>
      <trkpt lat="37.455246000" lon="-4.037771000">
        <ele>603.7</ele>
        <time>2020-10-14T09:21:29Z</time>
      </trkpt>
      <trkpt lat="37.455347000" lon="-4.037646000">
        <ele>604.5</ele>
        <time>2020-10-14T09:21:31Z</time>
      </trkpt>
      <trkpt lat="37.455431000" lon="-4.037526000">
        <ele>605.4</ele>
        <time>2020-10-14T09:21:33Z</time>
      </trkpt>
      <trkpt lat="37.455500000" lon="-4.037413000">
        <ele>606.4</ele>
        <time>2020-10-14T09:21:35Z</time>
      </trkpt>
      <trkpt lat="37.455559000" lon="-4.037313000">
        <ele>607.5</ele>
        <time>2020-10-14T09:21:37Z</time>
      </trkpt>
      <trkpt lat="37.455612000" lon="-4.037218000">
        <ele>608.5</ele>
        <time>2020-10-14T09:21:39Z</time>
      </trkpt>
      <trkpt lat="37.455658000" lon="-4.037123000">
        <ele>609.7</ele>
        <time>2020-10-14T09:21:41Z</time>
      </trkpt>
      <trkpt lat="37.455716000" lon="-4.036992000">
        <ele>611.0</ele>
        <time>2020-10-14T09:21:44Z</time>
      </trkpt>
      <trkpt lat="37.455765000" lon="-4.036880000">
        <ele>612.2</ele>
        <time>2020-10-14T09:21:47Z</time>
      </trkpt>
      <trkpt lat="37.455801000" lon="-4.036764000">
        <ele>613.5</ele>
        <time>2020-10-14T09:21:50Z</time>
      </trkpt>
      <trkpt lat="37.455833000" lon="-4.036664000">
        <ele>614.8</ele>
        <time>2020-10-14T09:21:53Z</time>
      </trkpt>
      <trkpt lat="37.455865000" lon="-4.036534000">
        <ele>616.2</ele>
        <time>2020-10-14T09:21:57Z</time>
      </trkpt>
      <trkpt lat="37.455883000" lon="-4.036433000">
        <ele>617.6</ele>
        <time>2020-10-14T09:22:00Z</time>
      </trkpt>
      <trkpt lat="37.455907000" lon="-4.036304000">
        <ele>619.0</ele>
        <time>2020-10-14T09:22:04Z</time>
      </trkpt>
      <trkpt lat="37.455938000" lon="-4.036182000">
        <ele>620.3</ele>
        <time>2020-10-14T09:22:08Z</time>
      </trkpt>
      <trkpt lat="37.455953000" lon="-4.036053000">
        <ele>621.5</ele>
        <time>2020-10-14T09:22:12Z</time>
      </trkpt>
      <trkpt lat="37.455963000" lon="-4.035934000">
        <ele>622.8</ele>
        <time>2020-10-14T09:22:16Z</time>
      </trkpt>
      <trkpt lat="37.455978000" lon="-4.035815000">
        <ele>624.0</ele>
        <time>2020-10-14T09:22:20Z</time>
      </trkpt>
      <trkpt lat="37.455981000" lon="-4.035696000">
        <ele>625.1</ele>
        <time>2020-10-14T09:22:24Z</time>
      </trkpt>
      <trkpt lat="37.455978000" lon="-4.035577000">
        <ele>626.1</ele>
        <time>2020-10-14T09:22:28Z</time>
      </trkpt>
      <trkpt lat="37.455970000" lon="-4.035466000">
        <ele>626.9</ele>
        <time>2020-10-14T09:22:32Z</time>
      </trkpt>
      <trkpt lat="37.455965000" lon="-4.035351000">
        <ele>627.5</ele>
        <time>2020-10-14T09:22:36Z</time>
      </trkpt>
      <trkpt lat="37.455958000" lon="-4.035234000">
        <ele>628.2</ele>
        <time>2020-10-14T09:22:40Z</time>
      </trkpt>
      <trkpt lat="37.455940000" lon="-4.035112000">
        <ele>628.7</ele>
        <time>2020-10-14T09:22:44Z</time>
      </trkpt>
      <trkpt lat="37.455923000" lon="-4.034985000">
        <ele>629.4</ele>
        <time>2020-10-14T09:22:48Z</time>
      </trkpt>
      <trkpt lat="37.455905000" lon="-4.034867000">
        <ele>630.0</ele>
        <time>2020-10-14T09:22:52Z</time>
      </trkpt>
      <trkpt lat="37.455881000" lon="-4.034754000">
        <ele>630.7</ele>
        <time>2020-10-14T09:22:56Z</time>
      </trkpt>
      <trkpt lat="37.455858000" lon="-4.034633000">
        <ele>631.4</ele>
        <time>2020-10-14T09:23:00Z</time>
      </trkpt>
      <trkpt lat="37.455832000" lon="-4.034513000">
        <ele>632.0</ele>
        <time>2020-10-14T09:23:04Z</time>
      </trkpt>
      <trkpt lat="37.455793000" lon="-4.034391000">
        <ele>632.6</ele>
        <time>2020-10-14T09:23:08Z</time>
      </trkpt>
      <trkpt lat="37.455771000" lon="-4.034281000">
        <ele>633.3</ele>
        <time>2020-10-14T09:23:12Z</time>
      </trkpt>
      <trkpt lat="37.455751000" lon="-4.034164000">
        <ele>633.9</ele>
        <time>2020-10-14T09:23:16Z</time>
      </trkpt>
      <trkpt lat="37.455736000" lon="-4.034045000">
        <ele>634.5</ele>
        <time>2020-10-14T09:23:20Z</time>
      </trkpt>
      <trkpt lat="37.455722000" lon="-4.033922000">
        <ele>635.1</ele>
        <time>2020-10-14T09:23:24Z</time>
      </trkpt>
      <trkpt lat="37.455710000" lon="-4.033800000">
        <ele>635.5</ele>
        <time>2020-10-14T09:23:28Z</time>
      </trkpt>
      <trkpt lat="37.455705000" lon="-4.033676000">
        <ele>635.9</ele>
        <time>2020-10-14T09:23:32Z</time>
      </trkpt>
      <trkpt lat="37.455702000" lon="-4.033553000">
        <ele>636.4</ele>
        <time>2020-10-14T09:23:36Z</time>
      </trkpt>
      <trkpt lat="37.455703000" lon="-4.033433000">
        <ele>636.7</ele>
        <time>2020-10-14T09:23:40Z</time>
      </trkpt>
      <trkpt lat="37.455704000" lon="-4.033313000">
        <ele>637.2</ele>
        <time>2020-10-14T09:23:44Z</time>
      </trkpt>
      <trkpt lat="37.455707000" lon="-4.033190000">
        <ele>637.6</ele>
        <time>2020-10-14T09:23:48Z</time>
      </trkpt>
      <trkpt lat="37.455715000" lon="-4.033061000">
        <ele>638.1</ele>
        <time>2020-10-14T09:23:52Z</time>
      </trkpt>
      <trkpt lat="37.455736000" lon="-4.032929000">
        <ele>638.5</ele>
        <time>2020-10-14T09:23:56Z</time>
      </trkpt>
      <trkpt lat="37.455753000" lon="-4.032800000">
        <ele>639.0</ele>
        <time>2020-10-14T09:24:00Z</time>
      </trkpt>
      <trkpt lat="37.455768000" lon="-4.032677000">
        <ele>639.5</ele>
        <time>2020-10-14T09:24:04Z</time>
      </trkpt>
      <trkpt lat="37.455783000" lon="-4.032563000">
        <ele>640.1</ele>
        <time>2020-10-14T09:24:08Z</time>
      </trkpt>
      <trkpt lat="37.455800000" lon="-4.032442000">
        <ele>640.8</ele>
        <time>2020-10-14T09:24:12Z</time>
      </trkpt>
      <trkpt lat="37.455814000" lon="-4.032315000">
        <ele>641.5</ele>
        <time>2020-10-14T09:24:16Z</time>
      </trkpt>
      <trkpt lat="37.455833000" lon="-4.032198000">
        <ele>642.1</ele>
        <time>2020-10-14T09:24:20Z</time>
      </trkpt>
      <trkpt lat="37.455853000" lon="-4.032080000">
        <ele>642.5</ele>
        <time>2020-10-14T09:24:24Z</time>
      </trkpt>
      <trkpt lat="37.455877000" lon="-4.031955000">
        <ele>643.0</ele>
        <time>2020-10-14T09:24:28Z</time>
      </trkpt>
      <trkpt lat="37.455891000" lon="-4.031833000">
        <ele>643.4</ele>
        <time>2020-10-14T09:24:32Z</time>
      </trkpt>
      <trkpt lat="37.455913000" lon="-4.031710000">
        <ele>643.8</ele>
        <time>2020-10-14T09:24:36Z</time>
      </trkpt>
      <trkpt lat="37.455926000" lon="-4.031583000">
        <ele>644.3</ele>
        <time>2020-10-14T09:24:40Z</time>
      </trkpt>
      <trkpt lat="37.455948000" lon="-4.031455000">
        <ele>644.7</ele>
        <time>2020-10-14T09:24:44Z</time>
      </trkpt>
      <trkpt lat="37.455961000" lon="-4.031324000">
        <ele>645.1</ele>
        <time>2020-10-14T09:24:48Z</time>
      </trkpt>
      <trkpt lat="37.455978000" lon="-4.031196000">
        <ele>645.5</ele>
        <time>2020-10-14T09:24:52Z</time>
      </trkpt>
      <trkpt lat="37.455996000" lon="-4.031061000">
        <ele>645.8</ele>
        <time>2020-10-14T09:24:56Z</time>
      </trkpt>
      <trkpt lat="37.456011000" lon="-4.030955000">
        <ele>646.1</ele>
        <time>2020-10-14T09:24:59Z</time>
      </trkpt>
      <trkpt lat="37.456028000" lon="-4.030853000">
        <ele>646.4</ele>
        <time>2020-10-14T09:25:02Z</time>
      </trkpt>
      <trkpt lat="37.456041000" lon="-4.030749000">
        <ele>646.6</ele>
        <time>2020-10-14T09:25:05Z</time>
      </trkpt>
      <trkpt lat="37.456047000" lon="-4.030646000">
        <ele>646.9</ele>
        <time>2020-10-14T09:25:08Z</time>
      </trkpt>
      <trkpt lat="37.456062000" lon="-4.030543000">
        <ele>647.4</ele>
        <time>2020-10-14T09:25:11Z</time>
      </trkpt>
      <trkpt lat="37.456079000" lon="-4.030442000">
        <ele>647.8</ele>
        <time>2020-10-14T09:25:14Z</time>
      </trkpt>
      <trkpt lat="37.456094000" lon="-4.030309000">
        <ele>648.4</ele>
        <time>2020-10-14T09:25:18Z</time>
      </trkpt>
      <trkpt lat="37.456106000" lon="-4.030178000">
        <ele>649.0</ele>
        <time>2020-10-14T09:25:22Z</time>
      </trkpt>
      <trkpt lat="37.456119000" lon="-4.030045000">
        <ele>649.6</ele>
        <time>2020-10-14T09:25:26Z</time>
      </trkpt>
      <trkpt lat="37.456134000" lon="-4.029917000">
        <ele>650.3</ele>
        <time>2020-10-14T09:25:30Z</time>
      </trkpt>
      <trkpt lat="37.456152000" lon="-4.029790000">
        <ele>650.9</ele>
        <time>2020-10-14T09:25:34Z</time>
      </trkpt>
      <trkpt lat="37.456165000" lon="-4.029666000">
        <ele>651.5</ele>
        <time>2020-10-14T09:25:38Z</time>
      </trkpt>
      <trkpt lat="37.456182000" lon="-4.029547000">
        <ele>652.3</ele>
        <time>2020-10-14T09:25:42Z</time>
      </trkpt>
      <trkpt lat="37.456198000" lon="-4.029435000">
        <ele>653.0</ele>
        <time>2020-10-14T09:25:46Z</time>
      </trkpt>
      <trkpt lat="37.456218000" lon="-4.029329000">
        <ele>653.6</ele>
        <time>2020-10-14T09:25:50Z</time>
      </trkpt>
      <trkpt lat="37.456237000" lon="-4.029217000">
        <ele>654.3</ele>
        <time>2020-10-14T09:25:54Z</time>
      </trkpt>
      <trkpt lat="37.456251000" lon="-4.029107000">
        <ele>654.8</ele>
        <time>2020-10-14T09:25:58Z</time>
      </trkpt>
      <trkpt lat="37.456266000" lon="-4.028999000">
        <ele>655.3</ele>
        <time>2020-10-14T09:26:02Z</time>
      </trkpt>
      <trkpt lat="37.456290000" lon="-4.028898000">
        <ele>655.7</ele>
        <time>2020-10-14T09:26:06Z</time>
      </trkpt>
      <trkpt lat="37.456304000" lon="-4.028792000">
        <ele>656.2</ele>
        <time>2020-10-14T09:26:10Z</time>
      </trkpt>
      <trkpt lat="37.456321000" lon="-4.028685000">
        <ele>656.6</ele>
        <time>2020-10-14T09:26:14Z</time>
      </trkpt>
      <trkpt lat="37.456340000" lon="-4.028569000">
        <ele>657.1</ele>
        <time>2020-10-14T09:26:18Z</time>
      </trkpt>
      <trkpt lat="37.456361000" lon="-4.028465000">
        <ele>657.5</ele>
        <time>2020-10-14T09:26:22Z</time>
      </trkpt>
      <trkpt lat="37.456406000" lon="-4.028356000">
        <ele>658.0</ele>
        <time>2020-10-14T09:26:27Z</time>
      </trkpt>
      <trkpt lat="37.456428000" lon="-4.028248000">
        <ele>658.5</ele>
        <time>2020-10-14T09:26:31Z</time>
      </trkpt>
      <trkpt lat="37.456450000" lon="-4.028138000">
        <ele>658.9</ele>
        <time>2020-10-14T09:26:35Z</time>
      </trkpt>
      <trkpt lat="37.456457000" lon="-4.028034000">
        <ele>659.4</ele>
        <time>2020-10-14T09:26:39Z</time>
      </trkpt>
      <trkpt lat="37.456464000" lon="-4.027927000">
        <ele>659.8</ele>
        <time>2020-10-14T09:26:43Z</time>
      </trkpt>
      <trkpt lat="37.456455000" lon="-4.027822000">
        <ele>660.3</ele>
        <time>2020-10-14T09:26:47Z</time>
      </trkpt>
      <trkpt lat="37.456459000" lon="-4.027697000">
        <ele>660.6</ele>
        <time>2020-10-14T09:26:52Z</time>
      </trkpt>
      <trkpt lat="37.456477000" lon="-4.027578000">
        <ele>661.0</ele>
        <time>2020-10-14T09:26:57Z</time>
      </trkpt>
      <trkpt lat="37.456493000" lon="-4.027478000">
        <ele>661.3</ele>
        <time>2020-10-14T09:27:01Z</time>
      </trkpt>
      <trkpt lat="37.456508000" lon="-4.027361000">
        <ele>661.6</ele>
        <time>2020-10-14T09:27:06Z</time>
      </trkpt>
      <trkpt lat="37.456526000" lon="-4.027239000">
        <ele>662.0</ele>
        <time>2020-10-14T09:27:11Z</time>
      </trkpt>
      <trkpt lat="37.456542000" lon="-4.027122000">
        <ele>662.5</ele>
        <time>2020-10-14T09:27:16Z</time>
      </trkpt>
      <trkpt lat="37.456561000" lon="-4.027019000">
        <ele>663.0</ele>
        <time>2020-10-14T09:27:20Z</time>
      </trkpt>
      <trkpt lat="37.456580000" lon="-4.026917000">
        <ele>663.7</ele>
        <time>2020-10-14T09:27:24Z</time>
      </trkpt>
      <trkpt lat="37.456597000" lon="-4.026792000">
        <ele>664.4</ele>
        <time>2020-10-14T09:27:29Z</time>
      </trkpt>
      <trkpt lat="37.456605000" lon="-4.026690000">
        <ele>665.1</ele>
        <time>2020-10-14T09:27:33Z</time>
      </trkpt>
      <trkpt lat="37.456624000" lon="-4.026566000">
        <ele>665.9</ele>
        <time>2020-10-14T09:27:38Z</time>
      </trkpt>
      <trkpt lat="37.456637000" lon="-4.026463000">
        <ele>666.8</ele>
        <time>2020-10-14T09:27:42Z</time>
      </trkpt>
      <trkpt lat="37.456651000" lon="-4.026360000">
        <ele>667.8</ele>
        <time>2020-10-14T09:27:46Z</time>
      </trkpt>
      <trkpt lat="37.456665000" lon="-4.026259000">
        <ele>668.9</ele>
        <time>2020-10-14T09:27:50Z</time>
      </trkpt>
      <trkpt lat="37.456684000" lon="-4.026135000">
        <ele>670.0</ele>
        <time>2020-10-14T09:27:55Z</time>
      </trkpt>
      <trkpt lat="37.456710000" lon="-4.026036000">
        <ele>671.1</ele>
        <time>2020-10-14T09:27:59Z</time>
      </trkpt>
      <trkpt lat="37.456734000" lon="-4.025937000">
        <ele>672.1</ele>
        <time>2020-10-14T09:28:03Z</time>
      </trkpt>
      <trkpt lat="37.456762000" lon="-4.025837000">
        <ele>673.1</ele>
        <time>2020-10-14T09:28:07Z</time>
      </trkpt>
      <trkpt lat="37.456805000" lon="-4.025738000">
        <ele>674.0</ele>
        <time>2020-10-14T09:28:11Z</time>
      </trkpt>
      <trkpt lat="37.456844000" lon="-4.025641000">
        <ele>674.9</ele>
        <time>2020-10-14T09:28:15Z</time>
      </trkpt>
      <trkpt lat="37.456884000" lon="-4.025543000">
        <ele>675.7</ele>
        <time>2020-10-14T09:28:19Z</time>
      </trkpt>
      <trkpt lat="37.456931000" lon="-4.025450000">
        <ele>676.5</ele>
        <time>2020-10-14T09:28:23Z</time>
      </trkpt>
      <trkpt lat="37.456982000" lon="-4.025358000">
        <ele>677.1</ele>
        <time>2020-10-14T09:28:27Z</time>
      </trkpt>
      <trkpt lat="37.457033000" lon="-4.025276000">
        <ele>677.7</ele>
        <time>2020-10-14T09:28:31Z</time>
      </trkpt>
      <trkpt lat="37.457081000" lon="-4.025193000">
        <ele>678.3</ele>
        <time>2020-10-14T09:28:35Z</time>
      </trkpt>
      <trkpt lat="37.457127000" lon="-4.025107000">
        <ele>678.7</ele>
        <time>2020-10-14T09:28:39Z</time>
      </trkpt>
      <trkpt lat="37.457183000" lon="-4.025033000">
        <ele>679.1</ele>
        <time>2020-10-14T09:28:43Z</time>
      </trkpt>
      <trkpt lat="37.457237000" lon="-4.024950000">
        <ele>679.4</ele>
        <time>2020-10-14T09:28:47Z</time>
      </trkpt>
      <trkpt lat="37.457288000" lon="-4.024870000">
        <ele>679.7</ele>
        <time>2020-10-14T09:28:51Z</time>
      </trkpt>
      <trkpt lat="37.457343000" lon="-4.024788000">
        <ele>680.0</ele>
        <time>2020-10-14T09:28:55Z</time>
      </trkpt>
      <trkpt lat="37.457393000" lon="-4.024701000">
        <ele>680.4</ele>
        <time>2020-10-14T09:28:59Z</time>
      </trkpt>
      <trkpt lat="37.457450000" lon="-4.024618000">
        <ele>680.7</ele>
        <time>2020-10-14T09:29:03Z</time>
      </trkpt>
      <trkpt lat="37.457506000" lon="-4.024539000">
        <ele>681.1</ele>
        <time>2020-10-14T09:29:07Z</time>
      </trkpt>
      <trkpt lat="37.457560000" lon="-4.024461000">
        <ele>681.6</ele>
        <time>2020-10-14T09:29:11Z</time>
      </trkpt>
      <trkpt lat="37.457616000" lon="-4.024382000">
        <ele>682.2</ele>
        <time>2020-10-14T09:29:15Z</time>
      </trkpt>
      <trkpt lat="37.457673000" lon="-4.024301000">
        <ele>682.7</ele>
        <time>2020-10-14T09:29:19Z</time>
      </trkpt>
      <trkpt lat="37.457730000" lon="-4.024218000">
        <ele>683.4</ele>
        <time>2020-10-14T09:29:23Z</time>
      </trkpt>
      <trkpt lat="37.457786000" lon="-4.024134000">
        <ele>684.1</ele>
        <time>2020-10-14T09:29:27Z</time>
      </trkpt>
      <trkpt lat="37.457843000" lon="-4.024051000">
        <ele>684.9</ele>
        <time>2020-10-14T09:29:31Z</time>
      </trkpt>
      <trkpt lat="37.457900000" lon="-4.023971000">
        <ele>685.6</ele>
        <time>2020-10-14T09:29:35Z</time>
      </trkpt>
      <trkpt lat="37.457956000" lon="-4.023896000">
        <ele>686.4</ele>
        <time>2020-10-14T09:29:39Z</time>
      </trkpt>
      <trkpt lat="37.458007000" lon="-4.023812000">
        <ele>687.0</ele>
        <time>2020-10-14T09:29:43Z</time>
      </trkpt>
      <trkpt lat="37.458062000" lon="-4.023727000">
        <ele>687.6</ele>
        <time>2020-10-14T09:29:47Z</time>
      </trkpt>
      <trkpt lat="37.458119000" lon="-4.023649000">
        <ele>688.5</ele>
        <time>2020-10-14T09:29:51Z</time>
      </trkpt>
      <trkpt lat="37.458176000" lon="-4.023572000">
        <ele>689.2</ele>
        <time>2020-10-14T09:29:55Z</time>
      </trkpt>
      <trkpt lat="37.458235000" lon="-4.023496000">
        <ele>689.8</ele>
        <time>2020-10-14T09:29:59Z</time>
      </trkpt>
      <trkpt lat="37.458289000" lon="-4.023415000">
        <ele>690.5</ele>
        <time>2020-10-14T09:30:03Z</time>
      </trkpt>
      <trkpt lat="37.458358000" lon="-4.023322000">
        <ele>691.3</ele>
        <time>2020-10-14T09:30:08Z</time>
      </trkpt>
      <trkpt lat="37.458421000" lon="-4.023224000">
        <ele>691.9</ele>
        <time>2020-10-14T09:30:13Z</time>
      </trkpt>
      <trkpt lat="37.458486000" lon="-4.023130000">
        <ele>692.5</ele>
        <time>2020-10-14T09:30:18Z</time>
      </trkpt>
      <trkpt lat="37.458553000" lon="-4.023035000">
        <ele>693.2</ele>
        <time>2020-10-14T09:30:23Z</time>
      </trkpt>
      <trkpt lat="37.458611000" lon="-4.022937000">
        <ele>693.9</ele>
        <time>2020-10-14T09:30:28Z</time>
      </trkpt>
      <trkpt lat="37.458686000" lon="-4.022857000">
        <ele>694.8</ele>
        <time>2020-10-14T09:30:33Z</time>
      </trkpt>
      <trkpt lat="37.458753000" lon="-4.022762000">
        <ele>695.8</ele>
        <time>2020-10-14T09:30:38Z</time>
      </trkpt>
      <trkpt lat="37.458813000" lon="-4.022662000">
        <ele>696.7</ele>
        <time>2020-10-14T09:30:43Z</time>
      </trkpt>
      <trkpt lat="37.458866000" lon="-4.022583000">
        <ele>697.6</ele>
        <time>2020-10-14T09:30:47Z</time>
      </trkpt>
      <trkpt lat="37.458921000" lon="-4.022479000">
        <ele>698.6</ele>
        <time>2020-10-14T09:30:52Z</time>
      </trkpt>
      <trkpt lat="37.458961000" lon="-4.022390000">
        <ele>699.5</ele>
        <time>2020-10-14T09:30:56Z</time>
      </trkpt>
      <trkpt lat="37.459003000" lon="-4.022300000">
        <ele>700.5</ele>
        <time>2020-10-14T09:31:00Z</time>
      </trkpt>
      <trkpt lat="37.459050000" lon="-4.022212000">
        <ele>701.5</ele>
        <time>2020-10-14T09:31:04Z</time>
      </trkpt>
      <trkpt lat="37.459092000" lon="-4.022120000">
        <ele>702.5</ele>
        <time>2020-10-14T09:31:08Z</time>
      </trkpt>
      <trkpt lat="37.459138000" lon="-4.022008000">
        <ele>703.4</ele>
        <time>2020-10-14T09:31:13Z</time>
      </trkpt>
      <trkpt lat="37.459173000" lon="-4.021911000">
        <ele>704.1</ele>
        <time>2020-10-14T09:31:17Z</time>
      </trkpt>
      <trkpt lat="37.459207000" lon="-4.021810000">
        <ele>704.6</ele>
        <time>2020-10-14T09:31:21Z</time>
      </trkpt>
      <trkpt lat="37.459241000" lon="-4.021710000">
        <ele>705.1</ele>
        <time>2020-10-14T09:31:25Z</time>
      </trkpt>
      <trkpt lat="37.459273000" lon="-4.021609000">
        <ele>705.5</ele>
        <time>2020-10-14T09:31:29Z</time>
      </trkpt>
      <trkpt lat="37.459304000" lon="-4.021513000">
        <ele>705.8</ele>
        <time>2020-10-14T09:31:33Z</time>
      </trkpt>
      <trkpt lat="37.459341000" lon="-4.021416000">
        <ele>706.1</ele>
        <time>2020-10-14T09:31:37Z</time>
      </trkpt>
      <trkpt lat="37.459373000" lon="-4.021314000">
        <ele>706.5</ele>
        <time>2020-10-14T09:31:41Z</time>
      </trkpt>
      <trkpt lat="37.459411000" lon="-4.021210000">
        <ele>706.8</ele>
        <time>2020-10-14T09:31:45Z</time>
      </trkpt>
      <trkpt lat="37.459446000" lon="-4.021108000">
        <ele>707.1</ele>
        <time>2020-10-14T09:31:49Z</time>
      </trkpt>
      <trkpt lat="37.459472000" lon="-4.021010000">
        <ele>707.3</ele>
        <time>2020-10-14T09:31:53Z</time>
      </trkpt>
      <trkpt lat="37.459506000" lon="-4.020888000">
        <ele>707.5</ele>
        <time>2020-10-14T09:31:58Z</time>
      </trkpt>
      <trkpt lat="37.459542000" lon="-4.020788000">
        <ele>707.7</ele>
        <time>2020-10-14T09:32:02Z</time>
      </trkpt>
      <trkpt lat="37.459583000" lon="-4.020681000">
        <ele>708.0</ele>
        <time>2020-10-14T09:32:07Z</time>
      </trkpt>
      <trkpt lat="37.459624000" lon="-4.020576000">
        <ele>708.3</ele>
        <time>2020-10-14T09:32:12Z</time>
      </trkpt>
      <trkpt lat="37.459657000" lon="-4.020459000">
        <ele>708.6</ele>
        <time>2020-10-14T09:32:17Z</time>
      </trkpt>
      <trkpt lat="37.459695000" lon="-4.020351000">
        <ele>709.0</ele>
        <time>2020-10-14T09:32:22Z</time>
      </trkpt>
      <trkpt lat="37.459739000" lon="-4.020244000">
        <ele>709.5</ele>
        <time>2020-10-14T09:32:27Z</time>
      </trkpt>
      <trkpt lat="37.459787000" lon="-4.020139000">
        <ele>710.0</ele>
        <time>2020-10-14T09:32:32Z</time>
      </trkpt>
      <trkpt lat="37.459830000" lon="-4.020028000">
        <ele>710.6</ele>
        <time>2020-10-14T09:32:37Z</time>
      </trkpt>
      <trkpt lat="37.459880000" lon="-4.019920000">
        <ele>711.5</ele>
        <time>2020-10-14T09:32:42Z</time>
      </trkpt>
      <trkpt lat="37.459927000" lon="-4.019812000">
        <ele>712.4</ele>
        <time>2020-10-14T09:32:47Z</time>
      </trkpt>
      <trkpt lat="37.459962000" lon="-4.019720000">
        <ele>713.4</ele>
        <time>2020-10-14T09:32:51Z</time>
      </trkpt>
      <trkpt lat="37.460003000" lon="-4.019625000">
        <ele>714.4</ele>
        <time>2020-10-14T09:32:55Z</time>
      </trkpt>
      <trkpt lat="37.460039000" lon="-4.019533000">
        <ele>715.5</ele>
        <time>2020-10-14T09:32:59Z</time>
      </trkpt>
      <trkpt lat="37.460088000" lon="-4.019429000">
        <ele>716.5</ele>
        <time>2020-10-14T09:33:04Z</time>
      </trkpt>
      <trkpt lat="37.460136000" lon="-4.019321000">
        <ele>717.5</ele>
        <time>2020-10-14T09:33:09Z</time>
      </trkpt>
      <trkpt lat="37.460183000" lon="-4.019214000">
        <ele>718.5</ele>
        <time>2020-10-14T09:33:14Z</time>
      </trkpt>
      <trkpt lat="37.460232000" lon="-4.019110000">
        <ele>719.5</ele>
        <time>2020-10-14T09:33:19Z</time>
      </trkpt>
      <trkpt lat="37.460271000" lon="-4.019011000">
        <ele>720.3</ele>
        <time>2020-10-14T09:33:23Z</time>
      </trkpt>
      <trkpt lat="37.460318000" lon="-4.018898000">
        <ele>721.0</ele>
        <time>2020-10-14T09:33:28Z</time>
      </trkpt>
      <trkpt lat="37.460356000" lon="-4.018808000">
        <ele>721.6</ele>
        <time>2020-10-14T09:33:32Z</time>
      </trkpt>
      <trkpt lat="37.460401000" lon="-4.018697000">
        <ele>722.2</ele>
        <time>2020-10-14T09:33:37Z</time>
      </trkpt>
      <trkpt lat="37.460448000" lon="-4.018605000">
        <ele>722.7</ele>
        <time>2020-10-14T09:33:41Z</time>
      </trkpt>
      <trkpt lat="37.460492000" lon="-4.018507000">
        <ele>723.3</ele>
        <time>2020-10-14T09:33:45Z</time>
      </trkpt>
      <trkpt lat="37.460534000" lon="-4.018411000">
        <ele>723.8</ele>
        <time>2020-10-14T09:33:49Z</time>
      </trkpt>
      <trkpt lat="37.460571000" lon="-4.018317000">
        <ele>724.5</ele>
        <time>2020-10-14T09:33:53Z</time>
      </trkpt>
      <trkpt lat="37.460600000" lon="-4.018220000">
        <ele>725.2</ele>
        <time>2020-10-14T09:33:57Z</time>
      </trkpt>
      <trkpt lat="37.460619000" lon="-4.018119000">
        <ele>726.0</ele>
        <time>2020-10-14T09:34:05Z</time>
      </trkpt>
      <trkpt lat="37.460641000" lon="-4.018019000">
        <ele>726.8</ele>
        <time>2020-10-14T09:34:05Z</time>
      </trkpt>
      <trkpt lat="37.460668000" lon="-4.017915000">
        <ele>727.7</ele>
        <time>2020-10-14T09:34:09Z</time>
      </trkpt>
      <trkpt lat="37.460701000" lon="-4.017810000">
        <ele>728.6</ele>
        <time>2020-10-14T09:34:13Z</time>
      </trkpt>
      <trkpt lat="37.460735000" lon="-4.017694000">
        <ele>729.5</ele>
        <time>2020-10-14T09:34:18Z</time>
      </trkpt>
      <trkpt lat="37.460774000" lon="-4.017575000">
        <ele>730.5</ele>
        <time>2020-10-14T09:34:23Z</time>
      </trkpt>
      <trkpt lat="37.460813000" lon="-4.017478000">
        <ele>731.4</ele>
        <time>2020-10-14T09:34:27Z</time>
      </trkpt>
      <trkpt lat="37.460854000" lon="-4.017368000">
        <ele>732.3</ele>
        <time>2020-10-14T09:34:31Z</time>
      </trkpt>
      <trkpt lat="37.460892000" lon="-4.017258000">
        <ele>733.2</ele>
        <time>2020-10-14T09:34:36Z</time>
      </trkpt>
      <trkpt lat="37.460931000" lon="-4.017160000">
        <ele>734.1</ele>
        <time>2020-10-14T09:34:40Z</time>
      </trkpt>
      <trkpt lat="37.460959000" lon="-4.017061000">
        <ele>734.9</ele>
        <time>2020-10-14T09:34:44Z</time>
      </trkpt>
      <trkpt lat="37.460991000" lon="-4.016961000">
        <ele>735.5</ele>
        <time>2020-10-14T09:34:48Z</time>
      </trkpt>
      <trkpt lat="37.461031000" lon="-4.016848000">
        <ele>736.2</ele>
        <time>2020-10-14T09:34:53Z</time>
      </trkpt>
      <trkpt lat="37.461036000" lon="-4.016730000">
        <ele>736.6</ele>
        <time>2020-10-14T09:34:58Z</time>
      </trkpt>
      <trkpt lat="37.461074000" lon="-4.016636000">
        <ele>737.0</ele>
        <time>2020-10-14T09:35:02Z</time>
      </trkpt>
      <trkpt lat="37.461112000" lon="-4.016535000">
        <ele>737.3</ele>
        <time>2020-10-14T09:35:06Z</time>
      </trkpt>
      <trkpt lat="37.461147000" lon="-4.016434000">
        <ele>737.5</ele>
        <time>2020-10-14T09:35:10Z</time>
      </trkpt>
      <trkpt lat="37.461186000" lon="-4.016330000">
        <ele>737.8</ele>
        <time>2020-10-14T09:35:14Z</time>
      </trkpt>
      <trkpt lat="37.461215000" lon="-4.016214000">
        <ele>738.2</ele>
        <time>2020-10-14T09:35:18Z</time>
      </trkpt>
      <trkpt lat="37.461246000" lon="-4.016098000">
        <ele>738.5</ele>
        <time>2020-10-14T09:35:22Z</time>
      </trkpt>
      <trkpt lat="37.461280000" lon="-4.015985000">
        <ele>738.7</ele>
        <time>2020-10-14T09:35:26Z</time>
      </trkpt>
      <trkpt lat="37.461308000" lon="-4.015867000">
        <ele>739.1</ele>
        <time>2020-10-14T09:35:30Z</time>
      </trkpt>
      <trkpt lat="37.461339000" lon="-4.015745000">
        <ele>739.5</ele>
        <time>2020-10-14T09:35:34Z</time>
      </trkpt>
      <trkpt lat="37.461370000" lon="-4.015626000">
        <ele>740.2</ele>
        <time>2020-10-14T09:35:38Z</time>
      </trkpt>
      <trkpt lat="37.461396000" lon="-4.015512000">
        <ele>740.8</ele>
        <time>2020-10-14T09:35:42Z</time>
      </trkpt>
      <trkpt lat="37.461425000" lon="-4.015402000">
        <ele>741.5</ele>
        <time>2020-10-14T09:35:46Z</time>
      </trkpt>
      <trkpt lat="37.461450000" lon="-4.015278000">
        <ele>742.1</ele>
        <time>2020-10-14T09:35:50Z</time>
      </trkpt>
      <trkpt lat="37.461468000" lon="-4.015177000">
        <ele>742.7</ele>
        <time>2020-10-14T09:35:53Z</time>
      </trkpt>
      <trkpt lat="37.461491000" lon="-4.015066000">
        <ele>743.3</ele>
        <time>2020-10-14T09:35:56Z</time>
      </trkpt>
      <trkpt lat="37.461515000" lon="-4.014945000">
        <ele>743.7</ele>
        <time>2020-10-14T09:35:59Z</time>
      </trkpt>
      <trkpt lat="37.461543000" lon="-4.014823000">
        <ele>744.2</ele>
        <time>2020-10-14T09:36:02Z</time>
      </trkpt>
      <trkpt lat="37.461569000" lon="-4.014694000">
        <ele>744.5</ele>
        <time>2020-10-14T09:36:05Z</time>
      </trkpt>
      <trkpt lat="37.461594000" lon="-4.014554000">
        <ele>744.8</ele>
        <time>2020-10-14T09:36:08Z</time>
      </trkpt>
      <trkpt lat="37.461619000" lon="-4.014408000">
        <ele>744.9</ele>
        <time>2020-10-14T09:36:11Z</time>
      </trkpt>
      <trkpt lat="37.461638000" lon="-4.014308000">
        <ele>744.8</ele>
        <time>2020-10-14T09:36:13Z</time>
      </trkpt>
      <trkpt lat="37.461656000" lon="-4.014208000">
        <ele>744.7</ele>
        <time>2020-10-14T09:36:15Z</time>
      </trkpt>
      <trkpt lat="37.461674000" lon="-4.014108000">
        <ele>744.6</ele>
        <time>2020-10-14T09:36:17Z</time>
      </trkpt>
      <trkpt lat="37.461691000" lon="-4.014006000">
        <ele>744.5</ele>
        <time>2020-10-14T09:36:19Z</time>
      </trkpt>
      <trkpt lat="37.461708000" lon="-4.013904000">
        <ele>744.3</ele>
        <time>2020-10-14T09:36:21Z</time>
      </trkpt>
      <trkpt lat="37.461724000" lon="-4.013799000">
        <ele>744.1</ele>
        <time>2020-10-14T09:36:23Z</time>
      </trkpt>
      <trkpt lat="37.461742000" lon="-4.013692000">
        <ele>743.9</ele>
        <time>2020-10-14T09:36:25Z</time>
      </trkpt>
      <trkpt lat="37.461760000" lon="-4.013584000">
        <ele>743.7</ele>
        <time>2020-10-14T09:36:27Z</time>
      </trkpt>
      <trkpt lat="37.461782000" lon="-4.013475000">
        <ele>743.5</ele>
        <time>2020-10-14T09:36:29Z</time>
      </trkpt>
      <trkpt lat="37.461805000" lon="-4.013363000">
        <ele>743.4</ele>
        <time>2020-10-14T09:36:31Z</time>
      </trkpt>
      <trkpt lat="37.461824000" lon="-4.013243000">
        <ele>743.4</ele>
        <time>2020-10-14T09:36:33Z</time>
      </trkpt>
      <trkpt lat="37.461845000" lon="-4.013124000">
        <ele>743.5</ele>
        <time>2020-10-14T09:36:35Z</time>
      </trkpt>
      <trkpt lat="37.461863000" lon="-4.013013000">
        <ele>743.5</ele>
        <time>2020-10-14T09:36:37Z</time>
      </trkpt>
      <trkpt lat="37.461879000" lon="-4.012890000">
        <ele>743.5</ele>
        <time>2020-10-14T09:36:39Z</time>
      </trkpt>
      <trkpt lat="37.461895000" lon="-4.012767000">
        <ele>743.5</ele>
        <time>2020-10-14T09:36:41Z</time>
      </trkpt>
      <trkpt lat="37.461916000" lon="-4.012648000">
        <ele>743.4</ele>
        <time>2020-10-14T09:36:43Z</time>
      </trkpt>
      <trkpt lat="37.461934000" lon="-4.012524000">
        <ele>743.2</ele>
        <time>2020-10-14T09:36:45Z</time>
      </trkpt>
      <trkpt lat="37.461953000" lon="-4.012400000">
        <ele>742.8</ele>
        <time>2020-10-14T09:36:47Z</time>
      </trkpt>
      <trkpt lat="37.461962000" lon="-4.012289000">
        <ele>742.4</ele>
        <time>2020-10-14T09:36:49Z</time>
      </trkpt>
      <trkpt lat="37.461973000" lon="-4.012171000">
        <ele>741.8</ele>
        <time>2020-10-14T09:36:51Z</time>
      </trkpt>
      <trkpt lat="37.461983000" lon="-4.012051000">
        <ele>741.3</ele>
        <time>2020-10-14T09:36:53Z</time>
      </trkpt>
      <trkpt lat="37.461991000" lon="-4.011933000">
        <ele>740.6</ele>
        <time>2020-10-14T09:36:55Z</time>
      </trkpt>
      <trkpt lat="37.461996000" lon="-4.011813000">
        <ele>740.0</ele>
        <time>2020-10-14T09:36:57Z</time>
      </trkpt>
      <trkpt lat="37.462003000" lon="-4.011687000">
        <ele>739.5</ele>
        <time>2020-10-14T09:36:59Z</time>
      </trkpt>
      <trkpt lat="37.462010000" lon="-4.011563000">
        <ele>739.3</ele>
        <time>2020-10-14T09:37:01Z</time>
      </trkpt>
      <trkpt lat="37.462014000" lon="-4.011436000">
        <ele>739.3</ele>
        <time>2020-10-14T09:37:03Z</time>
      </trkpt>
      <trkpt lat="37.462015000" lon="-4.011314000">
        <ele>739.5</ele>
        <time>2020-10-14T09:37:05Z</time>
      </trkpt>
      <trkpt lat="37.462019000" lon="-4.011193000">
        <ele>739.8</ele>
        <time>2020-10-14T09:37:07Z</time>
      </trkpt>
      <trkpt lat="37.462015000" lon="-4.011076000">
        <ele>740.5</ele>
        <time>2020-10-14T09:37:09Z</time>
      </trkpt>
      <trkpt lat="37.462008000" lon="-4.010962000">
        <ele>741.2</ele>
        <time>2020-10-14T09:37:11Z</time>
      </trkpt>
      <trkpt lat="37.462007000" lon="-4.010852000">
        <ele>742.1</ele>
        <time>2020-10-14T09:37:13Z</time>
      </trkpt>
      <trkpt lat="37.462004000" lon="-4.010747000">
        <ele>743.0</ele>
        <time>2020-10-14T09:37:15Z</time>
      </trkpt>
      <trkpt lat="37.461999000" lon="-4.010599000">
        <ele>743.9</ele>
        <time>2020-10-14T09:37:18Z</time>
      </trkpt>
      <trkpt lat="37.461991000" lon="-4.010462000">
        <ele>744.7</ele>
        <time>2020-10-14T09:37:21Z</time>
      </trkpt>
      <trkpt lat="37.461980000" lon="-4.010337000">
        <ele>745.5</ele>
        <time>2020-10-14T09:37:24Z</time>
      </trkpt>
      <trkpt lat="37.461975000" lon="-4.010218000">
        <ele>746.0</ele>
        <time>2020-10-14T09:37:27Z</time>
      </trkpt>
      <trkpt lat="37.461966000" lon="-4.010109000">
        <ele>746.3</ele>
        <time>2020-10-14T09:37:30Z</time>
      </trkpt>
      <trkpt lat="37.461954000" lon="-4.010002000">
        <ele>746.4</ele>
        <time>2020-10-14T09:37:33Z</time>
      </trkpt>
      <trkpt lat="37.461940000" lon="-4.009893000">
        <ele>746.4</ele>
        <time>2020-10-14T09:37:36Z</time>
      </trkpt>
      <trkpt lat="37.461933000" lon="-4.009787000">
        <ele>746.3</ele>
        <time>2020-10-14T09:37:39Z</time>
      </trkpt>
      <trkpt lat="37.461919000" lon="-4.009685000">
        <ele>746.2</ele>
        <time>2020-10-14T09:37:42Z</time>
      </trkpt>
      <trkpt lat="37.461904000" lon="-4.009564000">
        <ele>746.0</ele>
        <time>2020-10-14T09:37:46Z</time>
      </trkpt>
      <trkpt lat="37.461887000" lon="-4.009436000">
        <ele>745.9</ele>
        <time>2020-10-14T09:37:50Z</time>
      </trkpt>
      <trkpt lat="37.461870000" lon="-4.009319000">
        <ele>745.8</ele>
        <time>2020-10-14T09:37:54Z</time>
      </trkpt>
      <trkpt lat="37.461858000" lon="-4.009204000">
        <ele>745.8</ele>
        <time>2020-10-14T09:37:58Z</time>
      </trkpt>
      <trkpt lat="37.461844000" lon="-4.009091000">
        <ele>745.9</ele>
        <time>2020-10-14T09:38:02Z</time>
      </trkpt>
      <trkpt lat="37.461824000" lon="-4.008978000">
        <ele>746.1</ele>
        <time>2020-10-14T09:38:06Z</time>
      </trkpt>
      <trkpt lat="37.461807000" lon="-4.008863000">
        <ele>746.5</ele>
        <time>2020-10-14T09:38:10Z</time>
      </trkpt>
      <trkpt lat="37.461787000" lon="-4.008747000">
        <ele>747.2</ele>
        <time>2020-10-14T09:38:14Z</time>
      </trkpt>
      <trkpt lat="37.461766000" lon="-4.008642000">
        <ele>748.0</ele>
        <time>2020-10-14T09:38:18Z</time>
      </trkpt>
      <trkpt lat="37.461752000" lon="-4.008533000">
        <ele>748.9</ele>
        <time>2020-10-14T09:38:22Z</time>
      </trkpt>
      <trkpt lat="37.461731000" lon="-4.008425000">
        <ele>749.9</ele>
        <time>2020-10-14T09:38:26Z</time>
      </trkpt>
      <trkpt lat="37.461708000" lon="-4.008320000">
        <ele>751.0</ele>
        <time>2020-10-14T09:38:30Z</time>
      </trkpt>
      <trkpt lat="37.461685000" lon="-4.008218000">
        <ele>752.0</ele>
        <time>2020-10-14T09:38:34Z</time>
      </trkpt>
      <trkpt lat="37.461658000" lon="-4.008097000">
        <ele>753.1</ele>
        <time>2020-10-14T09:38:39Z</time>
      </trkpt>
      <trkpt lat="37.461634000" lon="-4.007996000">
        <ele>754.1</ele>
        <time>2020-10-14T09:38:43Z</time>
      </trkpt>
      <trkpt lat="37.461608000" lon="-4.007896000">
        <ele>755.0</ele>
        <time>2020-10-14T09:38:47Z</time>
      </trkpt>
      <trkpt lat="37.461575000" lon="-4.007776000">
        <ele>755.9</ele>
        <time>2020-10-14T09:38:52Z</time>
      </trkpt>
      <trkpt lat="37.461538000" lon="-4.007658000">
        <ele>756.6</ele>
        <time>2020-10-14T09:38:57Z</time>
      </trkpt>
      <trkpt lat="37.461508000" lon="-4.007539000">
        <ele>757.4</ele>
        <time>2020-10-14T09:39:02Z</time>
      </trkpt>
      <trkpt lat="37.461475000" lon="-4.007422000">
        <ele>758.0</ele>
        <time>2020-10-14T09:39:07Z</time>
      </trkpt>
      <trkpt lat="37.461450000" lon="-4.007324000">
        <ele>758.5</ele>
        <time>2020-10-14T09:39:11Z</time>
      </trkpt>
      <trkpt lat="37.461419000" lon="-4.007204000">
        <ele>759.1</ele>
        <time>2020-10-14T09:39:16Z</time>
      </trkpt>
      <trkpt lat="37.461392000" lon="-4.007107000">
        <ele>759.6</ele>
        <time>2020-10-14T09:39:20Z</time>
      </trkpt>
      <trkpt lat="37.461362000" lon="-4.007007000">
        <ele>760.4</ele>
        <time>2020-10-14T09:39:24Z</time>
      </trkpt>
      <trkpt lat="37.461335000" lon="-4.006908000">
        <ele>761.2</ele>
        <time>2020-10-14T09:39:28Z</time>
      </trkpt>
      <trkpt lat="37.461303000" lon="-4.006809000">
        <ele>762.2</ele>
        <time>2020-10-14T09:39:32Z</time>
      </trkpt>
      <trkpt lat="37.461271000" lon="-4.006709000">
        <ele>763.4</ele>
        <time>2020-10-14T09:39:36Z</time>
      </trkpt>
      <trkpt lat="37.461239000" lon="-4.006607000">
        <ele>764.6</ele>
        <time>2020-10-14T09:39:40Z</time>
      </trkpt>
      <trkpt lat="37.461209000" lon="-4.006506000">
        <ele>766.0</ele>
        <time>2020-10-14T09:39:44Z</time>
      </trkpt>
      <trkpt lat="37.461176000" lon="-4.006401000">
        <ele>767.4</ele>
        <time>2020-10-14T09:39:48Z</time>
      </trkpt>
      <trkpt lat="37.461140000" lon="-4.006296000">
        <ele>768.7</ele>
        <time>2020-10-14T09:39:52Z</time>
      </trkpt>
      <trkpt lat="37.461106000" lon="-4.006185000">
        <ele>770.2</ele>
        <time>2020-10-14T09:39:56Z</time>
      </trkpt>
      <trkpt lat="37.461069000" lon="-4.006079000">
        <ele>771.7</ele>
        <time>2020-10-14T09:40:00Z</time>
      </trkpt>
      <trkpt lat="37.461036000" lon="-4.005970000">
        <ele>773.3</ele>
        <time>2020-10-14T09:40:04Z</time>
      </trkpt>
      <trkpt lat="37.461004000" lon="-4.005865000">
        <ele>774.7</ele>
        <time>2020-10-14T09:40:08Z</time>
      </trkpt>
      <trkpt lat="37.460971000" lon="-4.005759000">
        <ele>776.1</ele>
        <time>2020-10-14T09:40:12Z</time>
      </trkpt>
      <trkpt lat="37.460943000" lon="-4.005652000">
        <ele>777.4</ele>
        <time>2020-10-14T09:40:16Z</time>
      </trkpt>
      <trkpt lat="37.460914000" lon="-4.005550000">
        <ele>778.5</ele>
        <time>2020-10-14T09:40:20Z</time>
      </trkpt>
      <trkpt lat="37.460882000" lon="-4.005454000">
        <ele>779.5</ele>
        <time>2020-10-14T09:40:24Z</time>
      </trkpt>
      <trkpt lat="37.460861000" lon="-4.005353000">
        <ele>780.5</ele>
        <time>2020-10-14T09:40:28Z</time>
      </trkpt>
      <trkpt lat="37.460831000" lon="-4.005241000">
        <ele>781.3</ele>
        <time>2020-10-14T09:40:33Z</time>
      </trkpt>
      <trkpt lat="37.460803000" lon="-4.005123000">
        <ele>782.0</ele>
        <time>2020-10-14T09:40:38Z</time>
      </trkpt>
      <trkpt lat="37.460779000" lon="-4.005006000">
        <ele>782.6</ele>
        <time>2020-10-14T09:40:43Z</time>
      </trkpt>
      <trkpt lat="37.460757000" lon="-4.004895000">
        <ele>783.2</ele>
        <time>2020-10-14T09:40:48Z</time>
      </trkpt>
      <trkpt lat="37.460732000" lon="-4.004781000">
        <ele>783.6</ele>
        <time>2020-10-14T09:40:53Z</time>
      </trkpt>
      <trkpt lat="37.460711000" lon="-4.004660000">
        <ele>784.2</ele>
        <time>2020-10-14T09:40:58Z</time>
      </trkpt>
      <trkpt lat="37.460697000" lon="-4.004540000">
        <ele>784.7</ele>
        <time>2020-10-14T09:41:03Z</time>
      </trkpt>
      <trkpt lat="37.460677000" lon="-4.004414000">
        <ele>785.3</ele>
        <time>2020-10-14T09:41:08Z</time>
      </trkpt>
      <trkpt lat="37.460656000" lon="-4.004291000">
        <ele>785.8</ele>
        <time>2020-10-14T09:41:13Z</time>
      </trkpt>
      <trkpt lat="37.460645000" lon="-4.004171000">
        <ele>786.5</ele>
        <time>2020-10-14T09:41:18Z</time>
      </trkpt>
      <trkpt lat="37.460633000" lon="-4.004054000">
        <ele>787.2</ele>
        <time>2020-10-14T09:41:23Z</time>
      </trkpt>
      <trkpt lat="37.460623000" lon="-4.003940000">
        <ele>788.1</ele>
        <time>2020-10-14T09:41:28Z</time>
      </trkpt>
      <trkpt lat="37.460618000" lon="-4.003813000">
        <ele>789.0</ele>
        <time>2020-10-14T09:41:33Z</time>
      </trkpt>
      <trkpt lat="37.460607000" lon="-4.003705000">
        <ele>789.9</ele>
        <time>2020-10-14T09:41:37Z</time>
      </trkpt>
      <trkpt lat="37.460598000" lon="-4.003595000">
        <ele>790.7</ele>
        <time>2020-10-14T09:41:41Z</time>
      </trkpt>
      <trkpt lat="37.460590000" lon="-4.003481000">
        <ele>791.5</ele>
        <time>2020-10-14T09:41:45Z</time>
      </trkpt>
      <trkpt lat="37.460584000" lon="-4.003364000">
        <ele>792.2</ele>
        <time>2020-10-14T09:41:49Z</time>
      </trkpt>
      <trkpt lat="37.460585000" lon="-4.003250000">
        <ele>792.7</ele>
        <time>2020-10-14T09:41:53Z</time>
      </trkpt>
      <trkpt lat="37.460585000" lon="-4.003136000">
        <ele>793.3</ele>
        <time>2020-10-14T09:41:57Z</time>
      </trkpt>
      <trkpt lat="37.460590000" lon="-4.003022000">
        <ele>793.7</ele>
        <time>2020-10-14T09:42:01Z</time>
      </trkpt>
      <trkpt lat="37.460595000" lon="-4.002915000">
        <ele>794.3</ele>
        <time>2020-10-14T09:42:05Z</time>
      </trkpt>
      <trkpt lat="37.460596000" lon="-4.002811000">
        <ele>794.9</ele>
        <time>2020-10-14T09:42:09Z</time>
      </trkpt>
      <trkpt lat="37.460600000" lon="-4.002685000">
        <ele>795.5</ele>
        <time>2020-10-14T09:42:14Z</time>
      </trkpt>
      <trkpt lat="37.460606000" lon="-4.002583000">
        <ele>796.1</ele>
        <time>2020-10-14T09:42:18Z</time>
      </trkpt>
      <trkpt lat="37.460611000" lon="-4.002479000">
        <ele>796.9</ele>
        <time>2020-10-14T09:42:22Z</time>
      </trkpt>
      <trkpt lat="37.460621000" lon="-4.002374000">
        <ele>797.8</ele>
        <time>2020-10-14T09:42:26Z</time>
      </trkpt>
      <trkpt lat="37.460630000" lon="-4.002271000">
        <ele>798.8</ele>
        <time>2020-10-14T09:42:30Z</time>
      </trkpt>
      <trkpt lat="37.460641000" lon="-4.002166000">
        <ele>799.9</ele>
        <time>2020-10-14T09:42:34Z</time>
      </trkpt>
      <trkpt lat="37.460650000" lon="-4.002061000">
        <ele>801.1</ele>
        <time>2020-10-14T09:42:38Z</time>
      </trkpt>
      <trkpt lat="37.460664000" lon="-4.001951000">
        <ele>802.2</ele>
        <time>2020-10-14T09:42:42Z</time>
      </trkpt>
      <trkpt lat="37.460684000" lon="-4.001841000">
        <ele>803.4</ele>
        <time>2020-10-14T09:42:46Z</time>
      </trkpt>
      <trkpt lat="37.460703000" lon="-4.001732000">
        <ele>804.4</ele>
        <time>2020-10-14T09:42:50Z</time>
      </trkpt>
      <trkpt lat="37.460721000" lon="-4.001625000">
        <ele>805.2</ele>
        <time>2020-10-14T09:42:54Z</time>
      </trkpt>
      <trkpt lat="37.460737000" lon="-4.001520000">
        <ele>805.9</ele>
        <time>2020-10-14T09:42:58Z</time>
      </trkpt>
      <trkpt lat="37.460756000" lon="-4.001412000">
        <ele>806.6</ele>
        <time>2020-10-14T09:43:02Z</time>
      </trkpt>
      <trkpt lat="37.460773000" lon="-4.001306000">
        <ele>807.3</ele>
        <time>2020-10-14T09:43:06Z</time>
      </trkpt>
      <trkpt lat="37.460792000" lon="-4.001200000">
        <ele>807.9</ele>
        <time>2020-10-14T09:43:10Z</time>
      </trkpt>
      <trkpt lat="37.460810000" lon="-4.001095000">
        <ele>808.5</ele>
        <time>2020-10-14T09:43:14Z</time>
      </trkpt>
      <trkpt lat="37.460830000" lon="-4.000985000">
        <ele>809.1</ele>
        <time>2020-10-14T09:43:18Z</time>
      </trkpt>
      <trkpt lat="37.460851000" lon="-4.000865000">
        <ele>809.6</ele>
        <time>2020-10-14T09:43:22Z</time>
      </trkpt>
      <trkpt lat="37.460879000" lon="-4.000755000">
        <ele>810.2</ele>
        <time>2020-10-14T09:43:26Z</time>
      </trkpt>
      <trkpt lat="37.460891000" lon="-4.000654000">
        <ele>810.7</ele>
        <time>2020-10-14T09:43:30Z</time>
      </trkpt>
      <trkpt lat="37.460912000" lon="-4.000547000">
        <ele>811.3</ele>
        <time>2020-10-14T09:43:34Z</time>
      </trkpt>
      <trkpt lat="37.460935000" lon="-4.000445000">
        <ele>811.9</ele>
        <time>2020-10-14T09:43:38Z</time>
      </trkpt>
      <trkpt lat="37.460956000" lon="-4.000339000">
        <ele>812.5</ele>
        <time>2020-10-14T09:43:42Z</time>
      </trkpt>
      <trkpt lat="37.460981000" lon="-4.000237000">
        <ele>813.2</ele>
        <time>2020-10-14T09:43:46Z</time>
      </trkpt>
      <trkpt lat="37.461005000" lon="-4.000131000">
        <ele>813.8</ele>
        <time>2020-10-14T09:43:50Z</time>
      </trkpt>
      <trkpt lat="37.461023000" lon="-4.000026000">
        <ele>814.5</ele>
        <time>2020-10-14T09:43:54Z</time>
      </trkpt>
      <trkpt lat="37.461042000" lon="-3.999920000">
        <ele>815.0</ele>
        <time>2020-10-14T09:43:58Z</time>
      </trkpt>
      <trkpt lat="37.461056000" lon="-3.999811000">
        <ele>815.6</ele>
        <time>2020-10-14T09:44:02Z</time>
      </trkpt>
      <trkpt lat="37.461073000" lon="-3.999708000">
        <ele>816.2</ele>
        <time>2020-10-14T09:44:06Z</time>
      </trkpt>
      <trkpt lat="37.461079000" lon="-3.999601000">
        <ele>816.8</ele>
        <time>2020-10-14T09:44:10Z</time>
      </trkpt>
      <trkpt lat="37.461088000" lon="-3.999490000">
        <ele>817.5</ele>
        <time>2020-10-14T09:44:14Z</time>
      </trkpt>
      <trkpt lat="37.461092000" lon="-3.999380000">
        <ele>818.1</ele>
        <time>2020-10-14T09:44:18Z</time>
      </trkpt>
      <trkpt lat="37.461100000" lon="-3.999269000">
        <ele>818.7</ele>
        <time>2020-10-14T09:44:22Z</time>
      </trkpt>
      <trkpt lat="37.461100000" lon="-3.999154000">
        <ele>819.5</ele>
        <time>2020-10-14T09:44:26Z</time>
      </trkpt>
      <trkpt lat="37.461109000" lon="-3.999043000">
        <ele>820.1</ele>
        <time>2020-10-14T09:44:30Z</time>
      </trkpt>
      <trkpt lat="37.461105000" lon="-3.998938000">
        <ele>820.7</ele>
        <time>2020-10-14T09:44:34Z</time>
      </trkpt>
      <trkpt lat="37.461099000" lon="-3.998832000">
        <ele>821.3</ele>
        <time>2020-10-14T09:44:38Z</time>
      </trkpt>
      <trkpt lat="37.461085000" lon="-3.998722000">
        <ele>821.9</ele>
        <time>2020-10-14T09:44:42Z</time>
      </trkpt>
      <trkpt lat="37.461078000" lon="-3.998612000">
        <ele>822.5</ele>
        <time>2020-10-14T09:44:46Z</time>
      </trkpt>
      <trkpt lat="37.461061000" lon="-3.998502000">
        <ele>823.0</ele>
        <time>2020-10-14T09:44:50Z</time>
      </trkpt>
      <trkpt lat="37.461049000" lon="-3.998387000">
        <ele>823.5</ele>
        <time>2020-10-14T09:44:54Z</time>
      </trkpt>
      <trkpt lat="37.461033000" lon="-3.998279000">
        <ele>824.0</ele>
        <time>2020-10-14T09:44:58Z</time>
      </trkpt>
      <trkpt lat="37.461013000" lon="-3.998175000">
        <ele>824.5</ele>
        <time>2020-10-14T09:45:02Z</time>
      </trkpt>
      <trkpt lat="37.460988000" lon="-3.998066000">
        <ele>825.0</ele>
        <time>2020-10-14T09:45:06Z</time>
      </trkpt>
      <trkpt lat="37.460964000" lon="-3.997962000">
        <ele>825.5</ele>
        <time>2020-10-14T09:45:10Z</time>
      </trkpt>
      <trkpt lat="37.460936000" lon="-3.997842000">
        <ele>826.2</ele>
        <time>2020-10-14T09:45:15Z</time>
      </trkpt>
      <trkpt lat="37.460905000" lon="-3.997736000">
        <ele>826.8</ele>
        <time>2020-10-14T09:45:20Z</time>
      </trkpt>
      <trkpt lat="37.460873000" lon="-3.997623000">
        <ele>827.5</ele>
        <time>2020-10-14T09:45:25Z</time>
      </trkpt>
      <trkpt lat="37.460832000" lon="-3.997511000">
        <ele>828.2</ele>
        <time>2020-10-14T09:45:30Z</time>
      </trkpt>
      <trkpt lat="37.460786000" lon="-3.997401000">
        <ele>828.9</ele>
        <time>2020-10-14T09:45:35Z</time>
      </trkpt>
      <trkpt lat="37.460742000" lon="-3.997315000">
        <ele>829.7</ele>
        <time>2020-10-14T09:45:39Z</time>
      </trkpt>
      <trkpt lat="37.460703000" lon="-3.997225000">
        <ele>830.5</ele>
        <time>2020-10-14T09:45:43Z</time>
      </trkpt>
      <trkpt lat="37.460661000" lon="-3.997134000">
        <ele>831.5</ele>
        <time>2020-10-14T09:45:47Z</time>
      </trkpt>
      <trkpt lat="37.460615000" lon="-3.997046000">
        <ele>832.4</ele>
        <time>2020-10-14T09:45:51Z</time>
      </trkpt>
      <trkpt lat="37.460572000" lon="-3.996959000">
        <ele>833.4</ele>
        <time>2020-10-14T09:45:55Z</time>
      </trkpt>
      <trkpt lat="37.460518000" lon="-3.996858000">
        <ele>834.2</ele>
        <time>2020-10-14T09:46:00Z</time>
      </trkpt>
      <trkpt lat="37.460458000" lon="-3.996759000">
        <ele>834.9</ele>
        <time>2020-10-14T09:46:05Z</time>
      </trkpt>
      <trkpt lat="37.460402000" lon="-3.996657000">
        <ele>835.5</ele>
        <time>2020-10-14T09:46:10Z</time>
      </trkpt>
      <trkpt lat="37.460340000" lon="-3.996555000">
        <ele>836.1</ele>
        <time>2020-10-14T09:46:15Z</time>
      </trkpt>
      <trkpt lat="37.460287000" lon="-3.996448000">
        <ele>836.6</ele>
        <time>2020-10-14T09:46:20Z</time>
      </trkpt>
      <trkpt lat="37.460240000" lon="-3.996364000">
        <ele>837.1</ele>
        <time>2020-10-14T09:46:28Z</time>
      </trkpt>
      <trkpt lat="37.460175000" lon="-3.996257000">
        <ele>837.5</ele>
        <time>2020-10-14T09:46:29Z</time>
      </trkpt>
      <trkpt lat="37.460129000" lon="-3.996167000">
        <ele>837.8</ele>
        <time>2020-10-14T09:46:33Z</time>
      </trkpt>
      <trkpt lat="37.460072000" lon="-3.996065000">
        <ele>838.2</ele>
        <time>2020-10-14T09:46:38Z</time>
      </trkpt>
      <trkpt lat="37.460015000" lon="-3.995966000">
        <ele>838.5</ele>
        <time>2020-10-14T09:46:43Z</time>
      </trkpt>
      <trkpt lat="37.459967000" lon="-3.995878000">
        <ele>838.9</ele>
        <time>2020-10-14T09:46:47Z</time>
      </trkpt>
      <trkpt lat="37.459918000" lon="-3.995793000">
        <ele>839.4</ele>
        <time>2020-10-14T09:46:51Z</time>
      </trkpt>
      <trkpt lat="37.459864000" lon="-3.995704000">
        <ele>839.9</ele>
        <time>2020-10-14T09:46:55Z</time>
      </trkpt>
      <trkpt lat="37.459813000" lon="-3.995614000">
        <ele>840.5</ele>
        <time>2020-10-14T09:46:59Z</time>
      </trkpt>
      <trkpt lat="37.459764000" lon="-3.995520000">
        <ele>841.0</ele>
        <time>2020-10-14T09:47:03Z</time>
      </trkpt>
      <trkpt lat="37.459704000" lon="-3.995423000">
        <ele>841.5</ele>
        <time>2020-10-14T09:47:07Z</time>
      </trkpt>
      <trkpt lat="37.459652000" lon="-3.995330000">
        <ele>842.2</ele>
        <time>2020-10-14T09:47:11Z</time>
      </trkpt>
      <trkpt lat="37.459599000" lon="-3.995239000">
        <ele>842.9</ele>
        <time>2020-10-14T09:47:15Z</time>
      </trkpt>
      <trkpt lat="37.459547000" lon="-3.995148000">
        <ele>843.5</ele>
        <time>2020-10-14T09:47:19Z</time>
      </trkpt>
      <trkpt lat="37.459496000" lon="-3.995053000">
        <ele>844.2</ele>
        <time>2020-10-14T09:47:23Z</time>
      </trkpt>
      <trkpt lat="37.459443000" lon="-3.994959000">
        <ele>844.7</ele>
        <time>2020-10-14T09:47:27Z</time>
      </trkpt>
      <trkpt lat="37.459391000" lon="-3.994869000">
        <ele>845.3</ele>
        <time>2020-10-14T09:47:31Z</time>
      </trkpt>
      <trkpt lat="37.459339000" lon="-3.994768000">
        <ele>845.7</ele>
        <time>2020-10-14T09:47:35Z</time>
      </trkpt>
      <trkpt lat="37.459278000" lon="-3.994661000">
        <ele>846.2</ele>
        <time>2020-10-14T09:47:39Z</time>
      </trkpt>
      <trkpt lat="37.459211000" lon="-3.994557000">
        <ele>846.6</ele>
        <time>2020-10-14T09:47:43Z</time>
      </trkpt>
      <trkpt lat="37.459157000" lon="-3.994461000">
        <ele>847.2</ele>
        <time>2020-10-14T09:47:47Z</time>
      </trkpt>
      <trkpt lat="37.459099000" lon="-3.994369000">
        <ele>847.9</ele>
        <time>2020-10-14T09:47:51Z</time>
      </trkpt>
      <trkpt lat="37.459040000" lon="-3.994274000">
        <ele>848.7</ele>
        <time>2020-10-14T09:47:55Z</time>
      </trkpt>
      <trkpt lat="37.458989000" lon="-3.994180000">
        <ele>849.5</ele>
        <time>2020-10-14T09:47:59Z</time>
      </trkpt>
      <trkpt lat="37.458933000" lon="-3.994083000">
        <ele>850.5</ele>
        <time>2020-10-14T09:48:03Z</time>
      </trkpt>
      <trkpt lat="37.458877000" lon="-3.993983000">
        <ele>851.4</ele>
        <time>2020-10-14T09:48:07Z</time>
      </trkpt>
      <trkpt lat="37.458821000" lon="-3.993879000">
        <ele>852.4</ele>
        <time>2020-10-14T09:48:11Z</time>
      </trkpt>
      <trkpt lat="37.458758000" lon="-3.993770000">
        <ele>853.4</ele>
        <time>2020-10-14T09:48:15Z</time>
      </trkpt>
      <trkpt lat="37.458694000" lon="-3.993674000">
        <ele>854.5</ele>
        <time>2020-10-14T09:48:19Z</time>
      </trkpt>
      <trkpt lat="37.458637000" lon="-3.993574000">
        <ele>855.5</ele>
        <time>2020-10-14T09:48:23Z</time>
      </trkpt>
      <trkpt lat="37.458579000" lon="-3.993473000">
        <ele>856.6</ele>
        <time>2020-10-14T09:48:27Z</time>
      </trkpt>
      <trkpt lat="37.458527000" lon="-3.993366000">
        <ele>857.7</ele>
        <time>2020-10-14T09:48:31Z</time>
      </trkpt>
      <trkpt lat="37.458476000" lon="-3.993260000">
        <ele>858.6</ele>
        <time>2020-10-14T09:48:35Z</time>
      </trkpt>
      <trkpt lat="37.458426000" lon="-3.993153000">
        <ele>859.4</ele>
        <time>2020-10-14T09:48:39Z</time>
      </trkpt>
      <trkpt lat="37.458386000" lon="-3.993040000">
        <ele>859.9</ele>
        <time>2020-10-14T09:48:43Z</time>
      </trkpt>
      <trkpt lat="37.458343000" lon="-3.992918000">
        <ele>860.3</ele>
        <time>2020-10-14T09:48:47Z</time>
      </trkpt>
      <trkpt lat="37.458304000" lon="-3.992799000">
        <ele>860.5</ele>
        <time>2020-10-14T09:48:51Z</time>
      </trkpt>
      <trkpt lat="37.458270000" lon="-3.992671000">
        <ele>860.5</ele>
        <time>2020-10-14T09:48:55Z</time>
      </trkpt>
      <trkpt lat="37.458242000" lon="-3.992575000">
        <ele>860.5</ele>
        <time>2020-10-14T09:48:58Z</time>
      </trkpt>
      <trkpt lat="37.458217000" lon="-3.992454000">
        <ele>860.5</ele>
        <time>2020-10-14T09:49:02Z</time>
      </trkpt>
      <trkpt lat="37.458197000" lon="-3.992323000">
        <ele>860.4</ele>
        <time>2020-10-14T09:49:06Z</time>
      </trkpt>
      <trkpt lat="37.458176000" lon="-3.992198000">
        <ele>860.3</ele>
        <time>2020-10-14T09:49:10Z</time>
      </trkpt>
      <trkpt lat="37.458163000" lon="-3.992070000">
        <ele>860.2</ele>
        <time>2020-10-14T09:49:14Z</time>
      </trkpt>
      <trkpt lat="37.458155000" lon="-3.991950000">
        <ele>860.1</ele>
        <time>2020-10-14T09:49:18Z</time>
      </trkpt>
      <trkpt lat="37.458156000" lon="-3.991832000">
        <ele>860.1</ele>
        <time>2020-10-14T09:49:22Z</time>
      </trkpt>
      <trkpt lat="37.458160000" lon="-3.991724000">
        <ele>860.3</ele>
        <time>2020-10-14T09:49:25Z</time>
      </trkpt>
      <trkpt lat="37.458161000" lon="-3.991589000">
        <ele>860.6</ele>
        <time>2020-10-14T09:49:29Z</time>
      </trkpt>
      <trkpt lat="37.458169000" lon="-3.991466000">
        <ele>861.1</ele>
        <time>2020-10-14T09:49:33Z</time>
      </trkpt>
      <trkpt lat="37.458178000" lon="-3.991345000">
        <ele>861.6</ele>
        <time>2020-10-14T09:49:37Z</time>
      </trkpt>
      <trkpt lat="37.458192000" lon="-3.991223000">
        <ele>862.3</ele>
        <time>2020-10-14T09:49:41Z</time>
      </trkpt>
      <trkpt lat="37.458206000" lon="-3.991096000">
        <ele>862.9</ele>
        <time>2020-10-14T09:49:45Z</time>
      </trkpt>
      <trkpt lat="37.458212000" lon="-3.990991000">
        <ele>863.5</ele>
        <time>2020-10-14T09:49:48Z</time>
      </trkpt>
      <trkpt lat="37.458224000" lon="-3.990887000">
        <ele>864.2</ele>
        <time>2020-10-14T09:49:51Z</time>
      </trkpt>
      <trkpt lat="37.458235000" lon="-3.990784000">
        <ele>864.7</ele>
        <time>2020-10-14T09:49:54Z</time>
      </trkpt>
      <trkpt lat="37.458245000" lon="-3.990648000">
        <ele>865.3</ele>
        <time>2020-10-14T09:49:58Z</time>
      </trkpt>
      <trkpt lat="37.458258000" lon="-3.990518000">
        <ele>865.7</ele>
        <time>2020-10-14T09:50:02Z</time>
      </trkpt>
      <trkpt lat="37.458270000" lon="-3.990401000">
        <ele>866.1</ele>
        <time>2020-10-14T09:50:06Z</time>
      </trkpt>
      <trkpt lat="37.458279000" lon="-3.990286000">
        <ele>866.4</ele>
        <time>2020-10-14T09:50:10Z</time>
      </trkpt>
      <trkpt lat="37.458290000" lon="-3.990170000">
        <ele>866.6</ele>
        <time>2020-10-14T09:50:14Z</time>
      </trkpt>
      <trkpt lat="37.458302000" lon="-3.990051000">
        <ele>866.9</ele>
        <time>2020-10-14T09:50:18Z</time>
      </trkpt>
      <trkpt lat="37.458313000" lon="-3.989929000">
        <ele>867.1</ele>
        <time>2020-10-14T09:50:22Z</time>
      </trkpt>
      <trkpt lat="37.458321000" lon="-3.989804000">
        <ele>867.3</ele>
        <time>2020-10-14T09:50:26Z</time>
      </trkpt>
      <trkpt lat="37.458331000" lon="-3.989700000">
        <ele>867.5</ele>
        <time>2020-10-14T09:50:29Z</time>
      </trkpt>
      <trkpt lat="37.458345000" lon="-3.989594000">
        <ele>867.6</ele>
        <time>2020-10-14T09:50:32Z</time>
      </trkpt>
      <trkpt lat="37.458362000" lon="-3.989485000">
        <ele>867.8</ele>
        <time>2020-10-14T09:50:35Z</time>
      </trkpt>
      <trkpt lat="37.458373000" lon="-3.989376000">
        <ele>868.1</ele>
        <time>2020-10-14T09:50:38Z</time>
      </trkpt>
      <trkpt lat="37.458392000" lon="-3.989260000">
        <ele>868.5</ele>
        <time>2020-10-14T09:50:42Z</time>
      </trkpt>
      <trkpt lat="37.458414000" lon="-3.989152000">
        <ele>868.8</ele>
        <time>2020-10-14T09:50:45Z</time>
      </trkpt>
      <trkpt lat="37.458437000" lon="-3.989027000">
        <ele>869.2</ele>
        <time>2020-10-14T09:50:48Z</time>
      </trkpt>
      <trkpt lat="37.458459000" lon="-3.988898000">
        <ele>869.5</ele>
        <time>2020-10-14T09:50:51Z</time>
      </trkpt>
      <trkpt lat="37.458483000" lon="-3.988765000">
        <ele>869.5</ele>
        <time>2020-10-14T09:50:54Z</time>
      </trkpt>
      <trkpt lat="37.458515000" lon="-3.988630000">
        <ele>869.5</ele>
        <time>2020-10-14T09:50:57Z</time>
      </trkpt>
      <trkpt lat="37.458555000" lon="-3.988486000">
        <ele>869.2</ele>
        <time>2020-10-14T09:51:00Z</time>
      </trkpt>
      <trkpt lat="37.458589000" lon="-3.988389000">
        <ele>868.7</ele>
        <time>2020-10-14T09:51:02Z</time>
      </trkpt>
      <trkpt lat="37.458624000" lon="-3.988292000">
        <ele>868.2</ele>
        <time>2020-10-14T09:51:04Z</time>
      </trkpt>
      <trkpt lat="37.458663000" lon="-3.988193000">
        <ele>867.6</ele>
        <time>2020-10-14T09:51:06Z</time>
      </trkpt>
      <trkpt lat="37.458706000" lon="-3.988088000">
        <ele>867.0</ele>
        <time>2020-10-14T09:51:08Z</time>
      </trkpt>
      <trkpt lat="37.458745000" lon="-3.987985000">
        <ele>866.3</ele>
        <time>2020-10-14T09:51:10Z</time>
      </trkpt>
      <trkpt lat="37.458785000" lon="-3.987881000">
        <ele>865.5</ele>
        <time>2020-10-14T09:51:12Z</time>
      </trkpt>
      <trkpt lat="37.458832000" lon="-3.987773000">
        <ele>864.7</ele>
        <time>2020-10-14T09:51:14Z</time>
      </trkpt>
      <trkpt lat="37.458873000" lon="-3.987666000">
        <ele>864.1</ele>
        <time>2020-10-14T09:51:16Z</time>
      </trkpt>
      <trkpt lat="37.458915000" lon="-3.987557000">
        <ele>863.5</ele>
        <time>2020-10-14T09:51:18Z</time>
      </trkpt>
      <trkpt lat="37.458967000" lon="-3.987449000">
        <ele>863.3</ele>
        <time>2020-10-14T09:51:20Z</time>
      </trkpt>
      <trkpt lat="37.459014000" lon="-3.987341000">
        <ele>863.3</ele>
        <time>2020-10-14T09:51:22Z</time>
      </trkpt>
      <trkpt lat="37.459059000" lon="-3.987234000">
        <ele>863.5</ele>
        <time>2020-10-14T09:51:24Z</time>
      </trkpt>
      <trkpt lat="37.459106000" lon="-3.987124000">
        <ele>864.0</ele>
        <time>2020-10-14T09:51:26Z</time>
      </trkpt>
      <trkpt lat="37.459155000" lon="-3.987019000">
        <ele>864.5</ele>
        <time>2020-10-14T09:51:28Z</time>
      </trkpt>
      <trkpt lat="37.459205000" lon="-3.986909000">
        <ele>865.3</ele>
        <time>2020-10-14T09:51:30Z</time>
      </trkpt>
      <trkpt lat="37.459252000" lon="-3.986799000">
        <ele>866.0</ele>
        <time>2020-10-14T09:51:32Z</time>
      </trkpt>
      <trkpt lat="37.459302000" lon="-3.986694000">
        <ele>866.9</ele>
        <time>2020-10-14T09:51:34Z</time>
      </trkpt>
      <trkpt lat="37.459349000" lon="-3.986593000">
        <ele>867.8</ele>
        <time>2020-10-14T09:51:36Z</time>
      </trkpt>
      <trkpt lat="37.459389000" lon="-3.986496000">
        <ele>868.7</ele>
        <time>2020-10-14T09:51:38Z</time>
      </trkpt>
      <trkpt lat="37.459435000" lon="-3.986397000">
        <ele>869.7</ele>
        <time>2020-10-14T09:51:40Z</time>
      </trkpt>
      <trkpt lat="37.459471000" lon="-3.986297000">
        <ele>870.6</ele>
        <time>2020-10-14T09:51:42Z</time>
      </trkpt>
      <trkpt lat="37.459522000" lon="-3.986157000">
        <ele>871.5</ele>
        <time>2020-10-14T09:51:45Z</time>
      </trkpt>
      <trkpt lat="37.459561000" lon="-3.986063000">
        <ele>872.4</ele>
        <time>2020-10-14T09:51:47Z</time>
      </trkpt>
      <trkpt lat="37.459600000" lon="-3.985971000">
        <ele>873.1</ele>
        <time>2020-10-14T09:51:49Z</time>
      </trkpt>
      <trkpt lat="37.459640000" lon="-3.985882000">
        <ele>873.7</ele>
        <time>2020-10-14T09:51:51Z</time>
      </trkpt>
      <trkpt lat="37.459693000" lon="-3.985757000">
        <ele>874.2</ele>
        <time>2020-10-14T09:51:54Z</time>
      </trkpt>
      <trkpt lat="37.459742000" lon="-3.985641000">
        <ele>874.7</ele>
        <time>2020-10-14T09:51:57Z</time>
      </trkpt>
      <trkpt lat="37.459797000" lon="-3.985516000">
        <ele>875.3</ele>
        <time>2020-10-14T09:52:00Z</time>
      </trkpt>
      <trkpt lat="37.459843000" lon="-3.985415000">
        <ele>875.8</ele>
        <time>2020-10-14T09:52:03Z</time>
      </trkpt>
      <trkpt lat="37.459886000" lon="-3.985309000">
        <ele>876.5</ele>
        <time>2020-10-14T09:52:06Z</time>
      </trkpt>
      <trkpt lat="37.459932000" lon="-3.985200000">
        <ele>877.1</ele>
        <time>2020-10-14T09:52:09Z</time>
      </trkpt>
      <trkpt lat="37.459979000" lon="-3.985090000">
        <ele>877.7</ele>
        <time>2020-10-14T09:52:13Z</time>
      </trkpt>
      <trkpt lat="37.460024000" lon="-3.984981000">
        <ele>878.4</ele>
        <time>2020-10-14T09:52:17Z</time>
      </trkpt>
      <trkpt lat="37.460068000" lon="-3.984879000">
        <ele>878.9</ele>
        <time>2020-10-14T09:52:21Z</time>
      </trkpt>
      <trkpt lat="37.460109000" lon="-3.984778000">
        <ele>879.5</ele>
        <time>2020-10-14T09:52:25Z</time>
      </trkpt>
      <trkpt lat="37.460147000" lon="-3.984683000">
        <ele>880.1</ele>
        <time>2020-10-14T09:52:29Z</time>
      </trkpt>
      <trkpt lat="37.460193000" lon="-3.984583000">
        <ele>880.8</ele>
        <time>2020-10-14T09:52:33Z</time>
      </trkpt>
      <trkpt lat="37.460234000" lon="-3.984491000">
        <ele>881.5</ele>
        <time>2020-10-14T09:52:36Z</time>
      </trkpt>
      <trkpt lat="37.460282000" lon="-3.984380000">
        <ele>882.3</ele>
        <time>2020-10-14T09:52:41Z</time>
      </trkpt>
      <trkpt lat="37.460328000" lon="-3.984271000">
        <ele>883.0</ele>
        <time>2020-10-14T09:52:46Z</time>
      </trkpt>
      <trkpt lat="37.460364000" lon="-3.984180000">
        <ele>883.7</ele>
        <time>2020-10-14T09:52:50Z</time>
      </trkpt>
      <trkpt lat="37.460404000" lon="-3.984079000">
        <ele>884.5</ele>
        <time>2020-10-14T09:52:54Z</time>
      </trkpt>
      <trkpt lat="37.460451000" lon="-3.983972000">
        <ele>885.2</ele>
        <time>2020-10-14T09:52:58Z</time>
      </trkpt>
      <trkpt lat="37.460508000" lon="-3.983863000">
        <ele>885.9</ele>
        <time>2020-10-14T09:53:02Z</time>
      </trkpt>
      <trkpt lat="37.460560000" lon="-3.983759000">
        <ele>886.7</ele>
        <time>2020-10-14T09:53:06Z</time>
      </trkpt>
      <trkpt lat="37.460606000" lon="-3.983659000">
        <ele>887.6</ele>
        <time>2020-10-14T09:53:10Z</time>
      </trkpt>
      <trkpt lat="37.460662000" lon="-3.983564000">
        <ele>888.5</ele>
        <time>2020-10-14T09:53:14Z</time>
      </trkpt>
      <trkpt lat="37.460715000" lon="-3.983473000">
        <ele>889.5</ele>
        <time>2020-10-14T09:53:18Z</time>
      </trkpt>
      <trkpt lat="37.460765000" lon="-3.983381000">
        <ele>890.4</ele>
        <time>2020-10-14T09:53:22Z</time>
      </trkpt>
      <trkpt lat="37.460827000" lon="-3.983286000">
        <ele>891.3</ele>
        <time>2020-10-14T09:53:26Z</time>
      </trkpt>
      <trkpt lat="37.460892000" lon="-3.983193000">
        <ele>892.1</ele>
        <time>2020-10-14T09:53:30Z</time>
      </trkpt>
      <trkpt lat="37.460954000" lon="-3.983099000">
        <ele>892.8</ele>
        <time>2020-10-14T09:53:34Z</time>
      </trkpt>
      <trkpt lat="37.461014000" lon="-3.983008000">
        <ele>893.5</ele>
        <time>2020-10-14T09:53:38Z</time>
      </trkpt>
      <trkpt lat="37.461080000" lon="-3.982920000">
        <ele>894.1</ele>
        <time>2020-10-14T09:53:42Z</time>
      </trkpt>
      <trkpt lat="37.461145000" lon="-3.982826000">
        <ele>894.6</ele>
        <time>2020-10-14T09:53:46Z</time>
      </trkpt>
      <trkpt lat="37.461212000" lon="-3.982730000">
        <ele>895.1</ele>
        <time>2020-10-14T09:53:50Z</time>
      </trkpt>
      <trkpt lat="37.461283000" lon="-3.982636000">
        <ele>895.5</ele>
        <time>2020-10-14T09:53:54Z</time>
      </trkpt>
      <trkpt lat="37.461355000" lon="-3.982537000">
        <ele>896.0</ele>
        <time>2020-10-14T09:53:58Z</time>
      </trkpt>
      <trkpt lat="37.461412000" lon="-3.982461000">
        <ele>896.4</ele>
        <time>2020-10-14T09:54:01Z</time>
      </trkpt>
      <trkpt lat="37.461480000" lon="-3.982366000">
        <ele>896.7</ele>
        <time>2020-10-14T09:54:05Z</time>
      </trkpt>
      <trkpt lat="37.461545000" lon="-3.982275000">
        <ele>897.1</ele>
        <time>2020-10-14T09:54:09Z</time>
      </trkpt>
      <trkpt lat="37.461612000" lon="-3.982180000">
        <ele>897.5</ele>
        <time>2020-10-14T09:54:13Z</time>
      </trkpt>
      <trkpt lat="37.461670000" lon="-3.982094000">
        <ele>898.0</ele>
        <time>2020-10-14T09:54:17Z</time>
      </trkpt>
      <trkpt lat="37.461722000" lon="-3.982011000">
        <ele>898.5</ele>
        <time>2020-10-14T09:54:21Z</time>
      </trkpt>
      <trkpt lat="37.461778000" lon="-3.981936000">
        <ele>899.0</ele>
        <time>2020-10-14T09:54:25Z</time>
      </trkpt>
      <trkpt lat="37.461831000" lon="-3.981854000">
        <ele>899.5</ele>
        <time>2020-10-14T09:54:29Z</time>
      </trkpt>
      <trkpt lat="37.461883000" lon="-3.981769000">
        <ele>900.2</ele>
        <time>2020-10-14T09:54:33Z</time>
      </trkpt>
      <trkpt lat="37.461937000" lon="-3.981682000">
        <ele>900.8</ele>
        <time>2020-10-14T09:54:37Z</time>
      </trkpt>
      <trkpt lat="37.461993000" lon="-3.981593000">
        <ele>901.4</ele>
        <time>2020-10-14T09:54:41Z</time>
      </trkpt>
      <trkpt lat="37.462041000" lon="-3.981501000">
        <ele>902.1</ele>
        <time>2020-10-14T09:54:45Z</time>
      </trkpt>
      <trkpt lat="37.462097000" lon="-3.981406000">
        <ele>902.8</ele>
        <time>2020-10-14T09:54:49Z</time>
      </trkpt>
      <trkpt lat="37.462148000" lon="-3.981301000">
        <ele>903.5</ele>
        <time>2020-10-14T09:54:53Z</time>
      </trkpt>
      <trkpt lat="37.462194000" lon="-3.981202000">
        <ele>904.3</ele>
        <time>2020-10-14T09:54:57Z</time>
      </trkpt>
      <trkpt lat="37.462239000" lon="-3.981099000">
        <ele>905.0</ele>
        <time>2020-10-14T09:55:01Z</time>
      </trkpt>
      <trkpt lat="37.462273000" lon="-3.980994000">
        <ele>905.8</ele>
        <time>2020-10-14T09:55:05Z</time>
      </trkpt>
      <trkpt lat="37.462305000" lon="-3.980884000">
        <ele>906.5</ele>
        <time>2020-10-14T09:55:09Z</time>
      </trkpt>
      <trkpt lat="37.462334000" lon="-3.980753000">
        <ele>907.3</ele>
        <time>2020-10-14T09:55:13Z</time>
      </trkpt>
      <trkpt lat="37.462361000" lon="-3.980636000">
        <ele>908.0</ele>
        <time>2020-10-14T09:55:17Z</time>
      </trkpt>
      <trkpt lat="37.462378000" lon="-3.980519000">
        <ele>908.6</ele>
        <time>2020-10-14T09:55:21Z</time>
      </trkpt>
      <trkpt lat="37.462396000" lon="-3.980408000">
        <ele>909.3</ele>
        <time>2020-10-14T09:55:25Z</time>
      </trkpt>
      <trkpt lat="37.462410000" lon="-3.980292000">
        <ele>909.7</ele>
        <time>2020-10-14T09:55:29Z</time>
      </trkpt>
      <trkpt lat="37.462425000" lon="-3.980179000">
        <ele>910.2</ele>
        <time>2020-10-14T09:55:33Z</time>
      </trkpt>
      <trkpt lat="37.462442000" lon="-3.980062000">
        <ele>910.6</ele>
        <time>2020-10-14T09:55:37Z</time>
      </trkpt>
      <trkpt lat="37.462450000" lon="-3.979941000">
        <ele>911.1</ele>
        <time>2020-10-14T09:55:41Z</time>
      </trkpt>
      <trkpt lat="37.462466000" lon="-3.979828000">
        <ele>911.6</ele>
        <time>2020-10-14T09:55:45Z</time>
      </trkpt>
      <trkpt lat="37.462479000" lon="-3.979707000">
        <ele>912.1</ele>
        <time>2020-10-14T09:55:49Z</time>
      </trkpt>
      <trkpt lat="37.462488000" lon="-3.979592000">
        <ele>912.5</ele>
        <time>2020-10-14T09:55:53Z</time>
      </trkpt>
      <trkpt lat="37.462495000" lon="-3.979473000">
        <ele>913.0</ele>
        <time>2020-10-14T09:55:57Z</time>
      </trkpt>
      <trkpt lat="37.462508000" lon="-3.979349000">
        <ele>913.5</ele>
        <time>2020-10-14T09:56:01Z</time>
      </trkpt>
      <trkpt lat="37.462527000" lon="-3.979228000">
        <ele>914.0</ele>
        <time>2020-10-14T09:56:05Z</time>
      </trkpt>
      <trkpt lat="37.462547000" lon="-3.979105000">
        <ele>914.6</ele>
        <time>2020-10-14T09:56:09Z</time>
      </trkpt>
      <trkpt lat="37.462564000" lon="-3.978987000">
        <ele>915.4</ele>
        <time>2020-10-14T09:56:13Z</time>
      </trkpt>
      <trkpt lat="37.462585000" lon="-3.978865000">
        <ele>916.1</ele>
        <time>2020-10-14T09:56:17Z</time>
      </trkpt>
      <trkpt lat="37.462600000" lon="-3.978748000">
        <ele>916.9</ele>
        <time>2020-10-14T09:56:21Z</time>
      </trkpt>
      <trkpt lat="37.462620000" lon="-3.978631000">
        <ele>917.7</ele>
        <time>2020-10-14T09:56:25Z</time>
      </trkpt>
      <trkpt lat="37.462638000" lon="-3.978511000">
        <ele>918.5</ele>
        <time>2020-10-14T09:56:29Z</time>
      </trkpt>
      <trkpt lat="37.462650000" lon="-3.978389000">
        <ele>919.2</ele>
        <time>2020-10-14T09:56:33Z</time>
      </trkpt>
      <trkpt lat="37.462667000" lon="-3.978267000">
        <ele>919.9</ele>
        <time>2020-10-14T09:56:37Z</time>
      </trkpt>
      <trkpt lat="37.462686000" lon="-3.978146000">
        <ele>920.6</ele>
        <time>2020-10-14T09:56:41Z</time>
      </trkpt>
      <trkpt lat="37.462702000" lon="-3.978018000">
        <ele>921.3</ele>
        <time>2020-10-14T09:56:45Z</time>
      </trkpt>
      <trkpt lat="37.462720000" lon="-3.977887000">
        <ele>921.9</ele>
        <time>2020-10-14T09:56:49Z</time>
      </trkpt>
      <trkpt lat="37.462732000" lon="-3.977786000">
        <ele>922.5</ele>
        <time>2020-10-14T09:56:52Z</time>
      </trkpt>
      <trkpt lat="37.462745000" lon="-3.977680000">
        <ele>922.9</ele>
        <time>2020-10-14T09:56:55Z</time>
      </trkpt>
      <trkpt lat="37.462761000" lon="-3.977572000">
        <ele>923.3</ele>
        <time>2020-10-14T09:56:58Z</time>
      </trkpt>
      <trkpt lat="37.462775000" lon="-3.977464000">
        <ele>923.5</ele>
        <time>2020-10-14T09:57:01Z</time>
      </trkpt>
      <trkpt lat="37.462786000" lon="-3.977360000">
        <ele>923.5</ele>
        <time>2020-10-14T09:57:04Z</time>
      </trkpt>
      <trkpt lat="37.462805000" lon="-3.977257000">
        <ele>923.6</ele>
        <time>2020-10-14T09:57:07Z</time>
      </trkpt>
      <trkpt lat="37.462813000" lon="-3.977123000">
        <ele>923.8</ele>
        <time>2020-10-14T09:57:11Z</time>
      </trkpt>
      <trkpt lat="37.462822000" lon="-3.977020000">
        <ele>924.0</ele>
        <time>2020-10-14T09:57:14Z</time>
      </trkpt>
      <trkpt lat="37.462833000" lon="-3.976915000">
        <ele>924.3</ele>
        <time>2020-10-14T09:57:17Z</time>
      </trkpt>
      <trkpt lat="37.462860000" lon="-3.976805000">
        <ele>924.5</ele>
        <time>2020-10-14T09:57:21Z</time>
      </trkpt>
      <trkpt lat="37.462890000" lon="-3.976683000">
        <ele>924.8</ele>
        <time>2020-10-14T09:57:25Z</time>
      </trkpt>
      <trkpt lat="37.462901000" lon="-3.976580000">
        <ele>925.1</ele>
        <time>2020-10-14T09:57:28Z</time>
      </trkpt>
      <trkpt lat="37.462923000" lon="-3.976450000">
        <ele>925.5</ele>
        <time>2020-10-14T09:57:32Z</time>
      </trkpt>
      <trkpt lat="37.462937000" lon="-3.976348000">
        <ele>925.8</ele>
        <time>2020-10-14T09:57:35Z</time>
      </trkpt>
      <trkpt lat="37.462957000" lon="-3.976218000">
        <ele>926.3</ele>
        <time>2020-10-14T09:57:39Z</time>
      </trkpt>
      <trkpt lat="37.462976000" lon="-3.976118000">
        <ele>926.7</ele>
        <time>2020-10-14T09:57:42Z</time>
      </trkpt>
      <trkpt lat="37.462996000" lon="-3.975997000">
        <ele>927.2</ele>
        <time>2020-10-14T09:57:46Z</time>
      </trkpt>
      <trkpt lat="37.463009000" lon="-3.975877000">
        <ele>927.5</ele>
        <time>2020-10-14T09:57:50Z</time>
      </trkpt>
      <trkpt lat="37.463021000" lon="-3.975751000">
        <ele>927.9</ele>
        <time>2020-10-14T09:57:55Z</time>
      </trkpt>
      <trkpt lat="37.463032000" lon="-3.975650000">
        <ele>928.2</ele>
        <time>2020-10-14T09:58:00Z</time>
      </trkpt>
      <trkpt lat="37.463045000" lon="-3.975549000">
        <ele>928.4</ele>
        <time>2020-10-14T09:58:01Z</time>
      </trkpt>
      <trkpt lat="37.463058000" lon="-3.975441000">
        <ele>928.5</ele>
        <time>2020-10-14T09:58:04Z</time>
      </trkpt>
      <trkpt lat="37.463072000" lon="-3.975330000">
        <ele>928.5</ele>
        <time>2020-10-14T09:58:07Z</time>
      </trkpt>
      <trkpt lat="37.463087000" lon="-3.975214000">
        <ele>928.5</ele>
        <time>2020-10-14T09:58:10Z</time>
      </trkpt>
      <trkpt lat="37.463104000" lon="-3.975098000">
        <ele>928.5</ele>
        <time>2020-10-14T09:58:13Z</time>
      </trkpt>
      <trkpt lat="37.463124000" lon="-3.974991000">
        <ele>928.4</ele>
        <time>2020-10-14T09:58:16Z</time>
      </trkpt>
      <trkpt lat="37.463139000" lon="-3.974880000">
        <ele>928.2</ele>
        <time>2020-10-14T09:58:19Z</time>
      </trkpt>
      <trkpt lat="37.463160000" lon="-3.974760000">
        <ele>927.9</ele>
        <time>2020-10-14T09:58:22Z</time>
      </trkpt>
      <trkpt lat="37.463177000" lon="-3.974628000">
        <ele>927.5</ele>
        <time>2020-10-14T09:58:25Z</time>
      </trkpt>
      <trkpt lat="37.463193000" lon="-3.974480000">
        <ele>927.1</ele>
        <time>2020-10-14T09:58:28Z</time>
      </trkpt>
      <trkpt lat="37.463205000" lon="-3.974376000">
        <ele>926.6</ele>
        <time>2020-10-14T09:58:30Z</time>
      </trkpt>
      <trkpt lat="37.463216000" lon="-3.974265000">
        <ele>926.2</ele>
        <time>2020-10-14T09:58:32Z</time>
      </trkpt>
      <trkpt lat="37.463234000" lon="-3.974145000">
        <ele>925.6</ele>
        <time>2020-10-14T09:58:34Z</time>
      </trkpt>
      <trkpt lat="37.463247000" lon="-3.974029000">
        <ele>925.1</ele>
        <time>2020-10-14T09:58:36Z</time>
      </trkpt>
      <trkpt lat="37.463261000" lon="-3.973907000">
        <ele>924.5</ele>
        <time>2020-10-14T09:58:38Z</time>
      </trkpt>
      <trkpt lat="37.463265000" lon="-3.973790000">
        <ele>923.8</ele>
        <time>2020-10-14T09:58:40Z</time>
      </trkpt>
      <trkpt lat="37.463279000" lon="-3.973668000">
        <ele>923.1</ele>
        <time>2020-10-14T09:58:42Z</time>
      </trkpt>
      <trkpt lat="37.463290000" lon="-3.973538000">
        <ele>922.4</ele>
        <time>2020-10-14T09:58:44Z</time>
      </trkpt>
      <trkpt lat="37.463309000" lon="-3.973396000">
        <ele>921.7</ele>
        <time>2020-10-14T09:58:46Z</time>
      </trkpt>
      <trkpt lat="37.463308000" lon="-3.973232000">
        <ele>921.1</ele>
        <time>2020-10-14T09:58:48Z</time>
      </trkpt>
      <trkpt lat="37.463317000" lon="-3.973058000">
        <ele>920.5</ele>
        <time>2020-10-14T09:58:50Z</time>
      </trkpt>
      <trkpt lat="37.463326000" lon="-3.972869000">
        <ele>919.9</ele>
        <time>2020-10-14T09:58:52Z</time>
      </trkpt>
      <trkpt lat="37.463333000" lon="-3.972765000">
        <ele>919.4</ele>
        <time>2020-10-14T09:58:53Z</time>
      </trkpt>
      <trkpt lat="37.463335000" lon="-3.972658000">
        <ele>918.8</ele>
        <time>2020-10-14T09:58:54Z</time>
      </trkpt>
      <trkpt lat="37.463334000" lon="-3.972544000">
        <ele>918.3</ele>
        <time>2020-10-14T09:58:55Z</time>
      </trkpt>
      <trkpt lat="37.463338000" lon="-3.972430000">
        <ele>917.6</ele>
        <time>2020-10-14T09:58:56Z</time>
      </trkpt>
      <trkpt lat="37.463336000" lon="-3.972313000">
        <ele>917.1</ele>
        <time>2020-10-14T09:58:57Z</time>
      </trkpt>
      <trkpt lat="37.463336000" lon="-3.972193000">
        <ele>916.5</ele>
        <time>2020-10-14T09:58:58Z</time>
      </trkpt>
      <trkpt lat="37.463335000" lon="-3.972071000">
        <ele>915.9</ele>
        <time>2020-10-14T09:58:59Z</time>
      </trkpt>
      <trkpt lat="37.463333000" lon="-3.971946000">
        <ele>915.3</ele>
        <time>2020-10-14T09:59:00Z</time>
      </trkpt>
      <trkpt lat="37.463334000" lon="-3.971816000">
        <ele>914.8</ele>
        <time>2020-10-14T09:59:01Z</time>
      </trkpt>
      <trkpt lat="37.463334000" lon="-3.971688000">
        <ele>914.4</ele>
        <time>2020-10-14T09:59:02Z</time>
      </trkpt>
      <trkpt lat="37.463329000" lon="-3.971561000">
        <ele>914.0</ele>
        <time>2020-10-14T09:59:03Z</time>
      </trkpt>
      <trkpt lat="37.463327000" lon="-3.971430000">
        <ele>913.6</ele>
        <time>2020-10-14T09:59:04Z</time>
      </trkpt>
      <trkpt lat="37.463323000" lon="-3.971294000">
        <ele>913.3</ele>
        <time>2020-10-14T09:59:05Z</time>
      </trkpt>
      <trkpt lat="37.463317000" lon="-3.971164000">
        <ele>912.9</ele>
        <time>2020-10-14T09:59:06Z</time>
      </trkpt>
      <trkpt lat="37.463312000" lon="-3.971033000">
        <ele>912.6</ele>
        <time>2020-10-14T09:59:07Z</time>
      </trkpt>
      <trkpt lat="37.463303000" lon="-3.970903000">
        <ele>912.5</ele>
        <time>2020-10-14T09:59:08Z</time>
      </trkpt>
      <trkpt lat="37.463292000" lon="-3.970775000">
        <ele>912.4</ele>
        <time>2020-10-14T09:59:09Z</time>
      </trkpt>
      <trkpt lat="37.463284000" lon="-3.970641000">
        <ele>912.4</ele>
        <time>2020-10-14T09:59:10Z</time>
      </trkpt>
      <trkpt lat="37.463274000" lon="-3.970513000">
        <ele>912.4</ele>
        <time>2020-10-14T09:59:11Z</time>
      </trkpt>
      <trkpt lat="37.463264000" lon="-3.970385000">
        <ele>912.3</ele>
        <time>2020-10-14T09:59:12Z</time>
      </trkpt>
      <trkpt lat="37.463254000" lon="-3.970256000">
        <ele>912.2</ele>
        <time>2020-10-14T09:59:13Z</time>
      </trkpt>
      <trkpt lat="37.463243000" lon="-3.970131000">
        <ele>912.1</ele>
        <time>2020-10-14T09:59:14Z</time>
      </trkpt>
      <trkpt lat="37.463229000" lon="-3.970008000">
        <ele>912.0</ele>
        <time>2020-10-14T09:59:15Z</time>
      </trkpt>
      <trkpt lat="37.463216000" lon="-3.969890000">
        <ele>912.0</ele>
        <time>2020-10-14T09:59:16Z</time>
      </trkpt>
      <trkpt lat="37.463201000" lon="-3.969773000">
        <ele>911.9</ele>
        <time>2020-10-14T09:59:17Z</time>
      </trkpt>
      <trkpt lat="37.463188000" lon="-3.969658000">
        <ele>911.8</ele>
        <time>2020-10-14T09:59:18Z</time>
      </trkpt>
      <trkpt lat="37.463173000" lon="-3.969546000">
        <ele>911.8</ele>
        <time>2020-10-14T09:59:19Z</time>
      </trkpt>
      <trkpt lat="37.463161000" lon="-3.969434000">
        <ele>911.9</ele>
        <time>2020-10-14T09:59:20Z</time>
      </trkpt>
      <trkpt lat="37.463146000" lon="-3.969327000">
        <ele>912.1</ele>
        <time>2020-10-14T09:59:21Z</time>
      </trkpt>
      <trkpt lat="37.463132000" lon="-3.969220000">
        <ele>912.3</ele>
        <time>2020-10-14T09:59:22Z</time>
      </trkpt>
      <trkpt lat="37.463101000" lon="-3.969023000">
        <ele>912.5</ele>
        <time>2020-10-14T09:59:24Z</time>
      </trkpt>
      <trkpt lat="37.463071000" lon="-3.968837000">
        <ele>912.6</ele>
        <time>2020-10-14T09:59:26Z</time>
      </trkpt>
      <trkpt lat="37.463039000" lon="-3.968663000">
        <ele>912.9</ele>
        <time>2020-10-14T09:59:28Z</time>
      </trkpt>
      <trkpt lat="37.463011000" lon="-3.968490000">
        <ele>913.3</ele>
        <time>2020-10-14T09:59:30Z</time>
      </trkpt>
      <trkpt lat="37.462981000" lon="-3.968321000">
        <ele>913.7</ele>
        <time>2020-10-14T09:59:32Z</time>
      </trkpt>
      <trkpt lat="37.462950000" lon="-3.968150000">
        <ele>914.4</ele>
        <time>2020-10-14T09:59:34Z</time>
      </trkpt>
      <trkpt lat="37.462923000" lon="-3.967976000">
        <ele>914.9</ele>
        <time>2020-10-14T09:59:36Z</time>
      </trkpt>
      <trkpt lat="37.462899000" lon="-3.967804000">
        <ele>915.3</ele>
        <time>2020-10-14T09:59:38Z</time>
      </trkpt>
      <trkpt lat="37.462870000" lon="-3.967637000">
        <ele>915.5</ele>
        <time>2020-10-14T09:59:40Z</time>
      </trkpt>
      <trkpt lat="37.462836000" lon="-3.967473000">
        <ele>915.5</ele>
        <time>2020-10-14T09:59:42Z</time>
      </trkpt>
      <trkpt lat="37.462810000" lon="-3.967307000">
        <ele>915.3</ele>
        <time>2020-10-14T09:59:44Z</time>
      </trkpt>
      <trkpt lat="37.462787000" lon="-3.967144000">
        <ele>915.0</ele>
        <time>2020-10-14T09:59:46Z</time>
      </trkpt>
      <trkpt lat="37.462761000" lon="-3.966980000">
        <ele>914.7</ele>
        <time>2020-10-14T09:59:48Z</time>
      </trkpt>
      <trkpt lat="37.462732000" lon="-3.966819000">
        <ele>914.5</ele>
        <time>2020-10-14T09:59:50Z</time>
      </trkpt>
      <trkpt lat="37.462708000" lon="-3.966665000">
        <ele>914.1</ele>
        <time>2020-10-14T09:59:52Z</time>
      </trkpt>
      <trkpt lat="37.462687000" lon="-3.966517000">
        <ele>913.7</ele>
        <time>2020-10-14T09:59:54Z</time>
      </trkpt>
      <trkpt lat="37.462668000" lon="-3.966378000">
        <ele>913.3</ele>
        <time>2020-10-14T09:59:56Z</time>
      </trkpt>
      <trkpt lat="37.462645000" lon="-3.966240000">
        <ele>912.9</ele>
        <time>2020-10-14T09:59:58Z</time>
      </trkpt>
      <trkpt lat="37.462624000" lon="-3.966103000">
        <ele>912.6</ele>
        <time>2020-10-14T10:00:00Z</time>
      </trkpt>
      <trkpt lat="37.462603000" lon="-3.965963000">
        <ele>912.5</ele>
        <time>2020-10-14T10:00:02Z</time>
      </trkpt>
      <trkpt lat="37.462585000" lon="-3.965827000">
        <ele>912.6</ele>
        <time>2020-10-14T10:00:04Z</time>
      </trkpt>
      <trkpt lat="37.462564000" lon="-3.965692000">
        <ele>912.9</ele>
        <time>2020-10-14T10:00:06Z</time>
      </trkpt>
      <trkpt lat="37.462544000" lon="-3.965553000">
        <ele>913.3</ele>
        <time>2020-10-14T10:00:08Z</time>
      </trkpt>
      <trkpt lat="37.462529000" lon="-3.965411000">
        <ele>913.6</ele>
        <time>2020-10-14T10:00:10Z</time>
      </trkpt>
      <trkpt lat="37.462517000" lon="-3.965266000">
        <ele>913.8</ele>
        <time>2020-10-14T10:00:12Z</time>
      </trkpt>
      <trkpt lat="37.462498000" lon="-3.965126000">
        <ele>913.9</ele>
        <time>2020-10-14T10:00:14Z</time>
      </trkpt>
      <trkpt lat="37.462486000" lon="-3.964992000">
        <ele>913.9</ele>
        <time>2020-10-14T10:00:16Z</time>
      </trkpt>
      <trkpt lat="37.462473000" lon="-3.964866000">
        <ele>913.9</ele>
        <time>2020-10-14T10:00:18Z</time>
      </trkpt>
      <trkpt lat="37.462458000" lon="-3.964729000">
        <ele>913.9</ele>
        <time>2020-10-14T10:00:20Z</time>
      </trkpt>
      <trkpt lat="37.462451000" lon="-3.964590000">
        <ele>914.0</ele>
        <time>2020-10-14T10:00:22Z</time>
      </trkpt>
      <trkpt lat="37.462440000" lon="-3.964450000">
        <ele>914.0</ele>
        <time>2020-10-14T10:00:24Z</time>
      </trkpt>
      <trkpt lat="37.462429000" lon="-3.964314000">
        <ele>913.9</ele>
        <time>2020-10-14T10:00:26Z</time>
      </trkpt>
      <trkpt lat="37.462420000" lon="-3.964178000">
        <ele>913.7</ele>
        <time>2020-10-14T10:00:28Z</time>
      </trkpt>
      <trkpt lat="37.462405000" lon="-3.964046000">
        <ele>913.5</ele>
        <time>2020-10-14T10:00:30Z</time>
      </trkpt>
      <trkpt lat="37.462394000" lon="-3.963914000">
        <ele>913.1</ele>
        <time>2020-10-14T10:00:32Z</time>
      </trkpt>
      <trkpt lat="37.462387000" lon="-3.963778000">
        <ele>912.6</ele>
        <time>2020-10-14T10:00:34Z</time>
      </trkpt>
      <trkpt lat="37.462382000" lon="-3.963637000">
        <ele>912.3</ele>
        <time>2020-10-14T10:00:36Z</time>
      </trkpt>
      <trkpt lat="37.462366000" lon="-3.963502000">
        <ele>911.8</ele>
        <time>2020-10-14T10:00:38Z</time>
      </trkpt>
      <trkpt lat="37.462358000" lon="-3.963356000">
        <ele>911.4</ele>
        <time>2020-10-14T10:00:40Z</time>
      </trkpt>
      <trkpt lat="37.462353000" lon="-3.963210000">
        <ele>910.8</ele>
        <time>2020-10-14T10:00:42Z</time>
      </trkpt>
      <trkpt lat="37.462348000" lon="-3.963063000">
        <ele>910.2</ele>
        <time>2020-10-14T10:00:44Z</time>
      </trkpt>
      <trkpt lat="37.462337000" lon="-3.962914000">
        <ele>909.5</ele>
        <time>2020-10-14T10:00:46Z</time>
      </trkpt>
      <trkpt lat="37.462330000" lon="-3.962761000">
        <ele>908.9</ele>
        <time>2020-10-14T10:00:48Z</time>
      </trkpt>
      <trkpt lat="37.462320000" lon="-3.962610000">
        <ele>908.4</ele>
        <time>2020-10-14T10:00:50Z</time>
      </trkpt>
      <trkpt lat="37.462318000" lon="-3.962459000">
        <ele>907.8</ele>
        <time>2020-10-14T10:00:52Z</time>
      </trkpt>
      <trkpt lat="37.462305000" lon="-3.962307000">
        <ele>907.3</ele>
        <time>2020-10-14T10:00:54Z</time>
      </trkpt>
      <trkpt lat="37.462298000" lon="-3.962144000">
        <ele>906.8</ele>
        <time>2020-10-14T10:00:56Z</time>
      </trkpt>
      <trkpt lat="37.462291000" lon="-3.961976000">
        <ele>906.4</ele>
        <time>2020-10-14T10:00:58Z</time>
      </trkpt>
      <trkpt lat="37.462285000" lon="-3.961808000">
        <ele>905.9</ele>
        <time>2020-10-14T10:01:00Z</time>
      </trkpt>
      <trkpt lat="37.462272000" lon="-3.961631000">
        <ele>905.5</ele>
        <time>2020-10-14T10:01:02Z</time>
      </trkpt>
      <trkpt lat="37.462264000" lon="-3.961450000">
        <ele>905.2</ele>
        <time>2020-10-14T10:01:04Z</time>
      </trkpt>
      <trkpt lat="37.462256000" lon="-3.961267000">
        <ele>904.7</ele>
        <time>2020-10-14T10:01:06Z</time>
      </trkpt>
      <trkpt lat="37.462246000" lon="-3.961082000">
        <ele>904.2</ele>
        <time>2020-10-14T10:01:08Z</time>
      </trkpt>
      <trkpt lat="37.462240000" lon="-3.960890000">
        <ele>903.6</ele>
        <time>2020-10-14T10:01:10Z</time>
      </trkpt>
      <trkpt lat="37.462229000" lon="-3.960696000">
        <ele>903.0</ele>
        <time>2020-10-14T10:01:12Z</time>
      </trkpt>
      <trkpt lat="37.462219000" lon="-3.960499000">
        <ele>902.5</ele>
        <time>2020-10-14T10:01:14Z</time>
      </trkpt>
      <trkpt lat="37.462212000" lon="-3.960300000">
        <ele>902.0</ele>
        <time>2020-10-14T10:01:16Z</time>
      </trkpt>
      <trkpt lat="37.462202000" lon="-3.960099000">
        <ele>901.6</ele>
        <time>2020-10-14T10:01:18Z</time>
      </trkpt>
      <trkpt lat="37.462197000" lon="-3.959994000">
        <ele>901.4</ele>
        <time>2020-10-14T10:01:19Z</time>
      </trkpt>
      <trkpt lat="37.462188000" lon="-3.959795000">
        <ele>901.2</ele>
        <time>2020-10-14T10:01:21Z</time>
      </trkpt>
      <trkpt lat="37.462170000" lon="-3.959595000">
        <ele>901.0</ele>
        <time>2020-10-14T10:01:23Z</time>
      </trkpt>
      <trkpt lat="37.462165000" lon="-3.959491000">
        <ele>900.6</ele>
        <time>2020-10-14T10:01:24Z</time>
      </trkpt>
      <trkpt lat="37.462160000" lon="-3.959387000">
        <ele>900.4</ele>
        <time>2020-10-14T10:01:25Z</time>
      </trkpt>
      <trkpt lat="37.462155000" lon="-3.959283000">
        <ele>900.1</ele>
        <time>2020-10-14T10:01:26Z</time>
      </trkpt>
      <trkpt lat="37.462146000" lon="-3.959080000">
        <ele>899.8</ele>
        <time>2020-10-14T10:01:28Z</time>
      </trkpt>
      <trkpt lat="37.462135000" lon="-3.958882000">
        <ele>899.6</ele>
        <time>2020-10-14T10:01:30Z</time>
      </trkpt>
      <trkpt lat="37.462125000" lon="-3.958681000">
        <ele>899.5</ele>
        <time>2020-10-14T10:01:32Z</time>
      </trkpt>
      <trkpt lat="37.462121000" lon="-3.958477000">
        <ele>899.5</ele>
        <time>2020-10-14T10:01:34Z</time>
      </trkpt>
      <trkpt lat="37.462121000" lon="-3.958273000">
        <ele>899.3</ele>
        <time>2020-10-14T10:01:36Z</time>
      </trkpt>
      <trkpt lat="37.462124000" lon="-3.958068000">
        <ele>899.0</ele>
        <time>2020-10-14T10:01:38Z</time>
      </trkpt>
      <trkpt lat="37.462133000" lon="-3.957863000">
        <ele>898.6</ele>
        <time>2020-10-14T10:01:40Z</time>
      </trkpt>
      <trkpt lat="37.462146000" lon="-3.957657000">
        <ele>898.2</ele>
        <time>2020-10-14T10:01:42Z</time>
      </trkpt>
      <trkpt lat="37.462153000" lon="-3.957554000">
        <ele>897.8</ele>
        <time>2020-10-14T10:01:43Z</time>
      </trkpt>
      <trkpt lat="37.462163000" lon="-3.957448000">
        <ele>897.5</ele>
        <time>2020-10-14T10:01:44Z</time>
      </trkpt>
      <trkpt lat="37.462176000" lon="-3.957342000">
        <ele>897.3</ele>
        <time>2020-10-14T10:01:45Z</time>
      </trkpt>
      <trkpt lat="37.462189000" lon="-3.957239000">
        <ele>896.9</ele>
        <time>2020-10-14T10:01:46Z</time>
      </trkpt>
      <trkpt lat="37.462215000" lon="-3.957044000">
        <ele>896.5</ele>
        <time>2020-10-14T10:01:48Z</time>
      </trkpt>
      <trkpt lat="37.462234000" lon="-3.956943000">
        <ele>896.0</ele>
        <time>2020-10-14T10:01:49Z</time>
      </trkpt>
      <trkpt lat="37.462251000" lon="-3.956842000">
        <ele>895.5</ele>
        <time>2020-10-14T10:01:50Z</time>
      </trkpt>
      <trkpt lat="37.462271000" lon="-3.956742000">
        <ele>895.0</ele>
        <time>2020-10-14T10:01:51Z</time>
      </trkpt>
      <trkpt lat="37.462311000" lon="-3.956552000">
        <ele>894.5</ele>
        <time>2020-10-14T10:01:53Z</time>
      </trkpt>
      <trkpt lat="37.462337000" lon="-3.956455000">
        <ele>894.0</ele>
        <time>2020-10-14T10:01:54Z</time>
      </trkpt>
      <trkpt lat="37.462382000" lon="-3.956268000">
        <ele>893.6</ele>
        <time>2020-10-14T10:01:56Z</time>
      </trkpt>
      <trkpt lat="37.462435000" lon="-3.956079000">
        <ele>893.2</ele>
        <time>2020-10-14T10:01:58Z</time>
      </trkpt>
      <trkpt lat="37.462467000" lon="-3.955984000">
        <ele>892.7</ele>
        <time>2020-10-14T10:01:59Z</time>
      </trkpt>
      <trkpt lat="37.462497000" lon="-3.955888000">
        <ele>892.3</ele>
        <time>2020-10-14T10:02:00Z</time>
      </trkpt>
      <trkpt lat="37.462530000" lon="-3.955792000">
        <ele>891.9</ele>
        <time>2020-10-14T10:02:01Z</time>
      </trkpt>
      <trkpt lat="37.462596000" lon="-3.955610000">
        <ele>891.5</ele>
        <time>2020-10-14T10:02:03Z</time>
      </trkpt>
      <trkpt lat="37.462667000" lon="-3.955431000">
        <ele>891.3</ele>
        <time>2020-10-14T10:02:05Z</time>
      </trkpt>
      <trkpt lat="37.462704000" lon="-3.955339000">
        <ele>890.9</ele>
        <time>2020-10-14T10:02:06Z</time>
      </trkpt>
      <trkpt lat="37.462742000" lon="-3.955247000">
        <ele>890.5</ele>
        <time>2020-10-14T10:02:07Z</time>
      </trkpt>
      <trkpt lat="37.462827000" lon="-3.955077000">
        <ele>890.2</ele>
        <time>2020-10-14T10:02:09Z</time>
      </trkpt>
      <trkpt lat="37.462868000" lon="-3.954986000">
        <ele>889.7</ele>
        <time>2020-10-14T10:02:10Z</time>
      </trkpt>
      <trkpt lat="37.462903000" lon="-3.954893000">
        <ele>889.1</ele>
        <time>2020-10-14T10:02:11Z</time>
      </trkpt>
      <trkpt lat="37.462973000" lon="-3.954715000">
        <ele>888.4</ele>
        <time>2020-10-14T10:02:13Z</time>
      </trkpt>
      <trkpt lat="37.463009000" lon="-3.954623000">
        <ele>887.5</ele>
        <time>2020-10-14T10:02:14Z</time>
      </trkpt>
      <trkpt lat="37.463078000" lon="-3.954439000">
        <ele>886.5</ele>
        <time>2020-10-14T10:02:16Z</time>
      </trkpt>
      <trkpt lat="37.463111000" lon="-3.954345000">
        <ele>885.5</ele>
        <time>2020-10-14T10:02:17Z</time>
      </trkpt>
      <trkpt lat="37.463177000" lon="-3.954162000">
        <ele>884.5</ele>
        <time>2020-10-14T10:02:19Z</time>
      </trkpt>
      <trkpt lat="37.463246000" lon="-3.953979000">
        <ele>883.5</ele>
        <time>2020-10-14T10:02:21Z</time>
      </trkpt>
      <trkpt lat="37.463310000" lon="-3.953799000">
        <ele>882.5</ele>
        <time>2020-10-14T10:02:23Z</time>
      </trkpt>
      <trkpt lat="37.463347000" lon="-3.953708000">
        <ele>881.5</ele>
        <time>2020-10-14T10:02:24Z</time>
      </trkpt>
      <trkpt lat="37.463406000" lon="-3.953528000">
        <ele>880.5</ele>
        <time>2020-10-14T10:02:26Z</time>
      </trkpt>
      <trkpt lat="37.463463000" lon="-3.953343000">
        <ele>879.6</ele>
        <time>2020-10-14T10:02:28Z</time>
      </trkpt>
      <trkpt lat="37.463514000" lon="-3.953160000">
        <ele>878.8</ele>
        <time>2020-10-14T10:02:30Z</time>
      </trkpt>
      <trkpt lat="37.463543000" lon="-3.953062000">
        <ele>878.2</ele>
        <time>2020-10-14T10:02:31Z</time>
      </trkpt>
      <trkpt lat="37.463583000" lon="-3.952870000">
        <ele>877.7</ele>
        <time>2020-10-14T10:02:33Z</time>
      </trkpt>
      <trkpt lat="37.463602000" lon="-3.952769000">
        <ele>877.4</ele>
        <time>2020-10-14T10:02:34Z</time>
      </trkpt>
      <trkpt lat="37.463621000" lon="-3.952669000">
        <ele>877.1</ele>
        <time>2020-10-14T10:02:35Z</time>
      </trkpt>
      <trkpt lat="37.463644000" lon="-3.952470000">
        <ele>876.7</ele>
        <time>2020-10-14T10:02:37Z</time>
      </trkpt>
      <trkpt lat="37.463651000" lon="-3.952365000">
        <ele>876.3</ele>
        <time>2020-10-14T10:02:38Z</time>
      </trkpt>
      <trkpt lat="37.463660000" lon="-3.952259000">
        <ele>875.7</ele>
        <time>2020-10-14T10:02:39Z</time>
      </trkpt>
      <trkpt lat="37.463664000" lon="-3.952151000">
        <ele>875.1</ele>
        <time>2020-10-14T10:02:40Z</time>
      </trkpt>
      <trkpt lat="37.463667000" lon="-3.952046000">
        <ele>874.5</ele>
        <time>2020-10-14T10:02:41Z</time>
      </trkpt>
      <trkpt lat="37.463667000" lon="-3.951942000">
        <ele>873.9</ele>
        <time>2020-10-14T10:02:42Z</time>
      </trkpt>
      <trkpt lat="37.463654000" lon="-3.951758000">
        <ele>873.2</ele>
        <time>2020-10-14T10:02:44Z</time>
      </trkpt>
      <trkpt lat="37.463628000" lon="-3.951609000">
        <ele>872.4</ele>
        <time>2020-10-14T10:02:46Z</time>
      </trkpt>
      <trkpt lat="37.463592000" lon="-3.951493000">
        <ele>871.5</ele>
        <time>2020-10-14T10:02:48Z</time>
      </trkpt>
      <trkpt lat="37.463559000" lon="-3.951396000">
        <ele>870.5</ele>
        <time>2020-10-14T10:02:50Z</time>
      </trkpt>
      <trkpt lat="37.463533000" lon="-3.951289000">
        <ele>869.4</ele>
        <time>2020-10-14T10:02:54Z</time>
      </trkpt>
      <trkpt lat="37.463551000" lon="-3.951178000">
        <ele>868.3</ele>
        <time>2020-10-14T10:03:42Z</time>
      </trkpt>
      <trkpt lat="37.463555000" lon="-3.951057000">
        <ele>867.2</ele>
        <time>2020-10-14T10:03:45Z</time>
      </trkpt>
      <trkpt lat="37.463525000" lon="-3.950946000">
        <ele>866.3</ele>
        <time>2020-10-14T10:03:47Z</time>
      </trkpt>
      <trkpt lat="37.463499000" lon="-3.950814000">
        <ele>865.4</ele>
        <time>2020-10-14T10:03:49Z</time>
      </trkpt>
      <trkpt lat="37.463462000" lon="-3.950668000">
        <ele>864.4</ele>
        <time>2020-10-14T10:03:51Z</time>
      </trkpt>
      <trkpt lat="37.463424000" lon="-3.950503000">
        <ele>863.4</ele>
        <time>2020-10-14T10:03:53Z</time>
      </trkpt>
      <trkpt lat="37.463385000" lon="-3.950327000">
        <ele>862.5</ele>
        <time>2020-10-14T10:03:55Z</time>
      </trkpt>
      <trkpt lat="37.463349000" lon="-3.950151000">
        <ele>861.5</ele>
        <time>2020-10-14T10:03:57Z</time>
      </trkpt>
      <trkpt lat="37.463310000" lon="-3.949976000">
        <ele>860.6</ele>
        <time>2020-10-14T10:03:59Z</time>
      </trkpt>
      <trkpt lat="37.463276000" lon="-3.949810000">
        <ele>859.8</ele>
        <time>2020-10-14T10:04:01Z</time>
      </trkpt>
      <trkpt lat="37.463240000" lon="-3.949656000">
        <ele>859.0</ele>
        <time>2020-10-14T10:04:03Z</time>
      </trkpt>
      <trkpt lat="37.463206000" lon="-3.949512000">
        <ele>858.3</ele>
        <time>2020-10-14T10:04:05Z</time>
      </trkpt>
      <trkpt lat="37.463155000" lon="-3.949383000">
        <ele>857.5</ele>
        <time>2020-10-14T10:04:07Z</time>
      </trkpt>
      <trkpt lat="37.463083000" lon="-3.949257000">
        <ele>856.7</ele>
        <time>2020-10-14T10:04:09Z</time>
      </trkpt>
      <trkpt lat="37.462995000" lon="-3.949149000">
        <ele>855.9</ele>
        <time>2020-10-14T10:04:11Z</time>
      </trkpt>
      <trkpt lat="37.462934000" lon="-3.949015000">
        <ele>855.1</ele>
        <time>2020-10-14T10:04:13Z</time>
      </trkpt>
      <trkpt lat="37.462926000" lon="-3.948870000">
        <ele>854.4</ele>
        <time>2020-10-14T10:04:15Z</time>
      </trkpt>
      <trkpt lat="37.462977000" lon="-3.948739000">
        <ele>853.7</ele>
        <time>2020-10-14T10:04:17Z</time>
      </trkpt>
      <trkpt lat="37.463033000" lon="-3.948623000">
        <ele>853.2</ele>
        <time>2020-10-14T10:04:19Z</time>
      </trkpt>
      <trkpt lat="37.463075000" lon="-3.948507000">
        <ele>852.7</ele>
        <time>2020-10-14T10:04:21Z</time>
      </trkpt>
      <trkpt lat="37.463103000" lon="-3.948378000">
        <ele>852.3</ele>
        <time>2020-10-14T10:04:23Z</time>
      </trkpt>
      <trkpt lat="37.463121000" lon="-3.948252000">
        <ele>852.0</ele>
        <time>2020-10-14T10:04:25Z</time>
      </trkpt>
      <trkpt lat="37.463152000" lon="-3.948123000">
        <ele>851.8</ele>
        <time>2020-10-14T10:04:27Z</time>
      </trkpt>
      <trkpt lat="37.463185000" lon="-3.947994000">
        <ele>851.8</ele>
        <time>2020-10-14T10:04:29Z</time>
      </trkpt>
      <trkpt lat="37.463238000" lon="-3.947882000">
        <ele>852.0</ele>
        <time>2020-10-14T10:04:31Z</time>
      </trkpt>
      <trkpt lat="37.463306000" lon="-3.947796000">
        <ele>852.3</ele>
        <time>2020-10-14T10:04:33Z</time>
      </trkpt>
      <trkpt lat="37.463370000" lon="-3.947723000">
        <ele>852.6</ele>
        <time>2020-10-14T10:04:35Z</time>
      </trkpt>
      <trkpt lat="37.463459000" lon="-3.947636000">
        <ele>853.0</ele>
        <time>2020-10-14T10:04:38Z</time>
      </trkpt>
      <trkpt lat="37.463526000" lon="-3.947556000">
        <ele>853.5</ele>
        <time>2020-10-14T10:04:41Z</time>
      </trkpt>
      <trkpt lat="37.463591000" lon="-3.947488000">
        <ele>853.9</ele>
        <time>2020-10-14T10:04:44Z</time>
      </trkpt>
      <trkpt lat="37.463669000" lon="-3.947399000">
        <ele>854.4</ele>
        <time>2020-10-14T10:04:48Z</time>
      </trkpt>
      <trkpt lat="37.463741000" lon="-3.947319000">
        <ele>854.9</ele>
        <time>2020-10-14T10:04:52Z</time>
      </trkpt>
      <trkpt lat="37.463810000" lon="-3.947236000">
        <ele>855.5</ele>
        <time>2020-10-14T10:04:56Z</time>
      </trkpt>
      <trkpt lat="37.463880000" lon="-3.947152000">
        <ele>856.0</ele>
        <time>2020-10-14T10:05:00Z</time>
      </trkpt>
      <trkpt lat="37.463941000" lon="-3.947055000">
        <ele>856.5</ele>
        <time>2020-10-14T10:05:04Z</time>
      </trkpt>
      <trkpt lat="37.463996000" lon="-3.946943000">
        <ele>857.1</ele>
        <time>2020-10-14T10:05:08Z</time>
      </trkpt>
      <trkpt lat="37.464044000" lon="-3.946824000">
        <ele>857.7</ele>
        <time>2020-10-14T10:05:12Z</time>
      </trkpt>
      <trkpt lat="37.464080000" lon="-3.946714000">
        <ele>858.4</ele>
        <time>2020-10-14T10:05:16Z</time>
      </trkpt>
      <trkpt lat="37.464114000" lon="-3.946601000">
        <ele>859.1</ele>
        <time>2020-10-14T10:05:20Z</time>
      </trkpt>
      <trkpt lat="37.464147000" lon="-3.946495000">
        <ele>859.7</ele>
        <time>2020-10-14T10:05:24Z</time>
      </trkpt>
      <trkpt lat="37.464179000" lon="-3.946377000">
        <ele>860.5</ele>
        <time>2020-10-14T10:05:28Z</time>
      </trkpt>
      <trkpt lat="37.464215000" lon="-3.946267000">
        <ele>861.3</ele>
        <time>2020-10-14T10:05:32Z</time>
      </trkpt>
      <trkpt lat="37.464247000" lon="-3.946165000">
        <ele>862.0</ele>
        <time>2020-10-14T10:05:36Z</time>
      </trkpt>
      <trkpt lat="37.464273000" lon="-3.946059000">
        <ele>862.6</ele>
        <time>2020-10-14T10:05:40Z</time>
      </trkpt>
      <trkpt lat="37.464303000" lon="-3.945956000">
        <ele>863.2</ele>
        <time>2020-10-14T10:05:44Z</time>
      </trkpt>
      <trkpt lat="37.464335000" lon="-3.945838000">
        <ele>863.6</ele>
        <time>2020-10-14T10:05:48Z</time>
      </trkpt>
      <trkpt lat="37.464367000" lon="-3.945716000">
        <ele>863.9</ele>
        <time>2020-10-14T10:05:52Z</time>
      </trkpt>
      <trkpt lat="37.464400000" lon="-3.945601000">
        <ele>864.0</ele>
        <time>2020-10-14T10:05:56Z</time>
      </trkpt>
      <trkpt lat="37.464428000" lon="-3.945499000">
        <ele>864.1</ele>
        <time>2020-10-14T10:06:00Z</time>
      </trkpt>
      <trkpt lat="37.464459000" lon="-3.945398000">
        <ele>864.1</ele>
        <time>2020-10-14T10:06:04Z</time>
      </trkpt>
      <trkpt lat="37.464488000" lon="-3.945283000">
        <ele>864.1</ele>
        <time>2020-10-14T10:06:08Z</time>
      </trkpt>
      <trkpt lat="37.464506000" lon="-3.945163000">
        <ele>864.1</ele>
        <time>2020-10-14T10:06:12Z</time>
      </trkpt>
      <trkpt lat="37.464526000" lon="-3.945044000">
        <ele>864.1</ele>
        <time>2020-10-14T10:06:16Z</time>
      </trkpt>
      <trkpt lat="37.464526000" lon="-3.944918000">
        <ele>864.2</ele>
        <time>2020-10-14T10:06:20Z</time>
      </trkpt>
      <trkpt lat="37.464520000" lon="-3.944786000">
        <ele>864.3</ele>
        <time>2020-10-14T10:06:24Z</time>
      </trkpt>
      <trkpt lat="37.464504000" lon="-3.944661000">
        <ele>864.5</ele>
        <time>2020-10-14T10:06:28Z</time>
      </trkpt>
      <trkpt lat="37.464471000" lon="-3.944538000">
        <ele>864.6</ele>
        <time>2020-10-14T10:06:32Z</time>
      </trkpt>
      <trkpt lat="37.464437000" lon="-3.944438000">
        <ele>865.0</ele>
        <time>2020-10-14T10:06:35Z</time>
      </trkpt>
      <trkpt lat="37.464400000" lon="-3.944334000">
        <ele>865.5</ele>
        <time>2020-10-14T10:06:38Z</time>
      </trkpt>
      <trkpt lat="37.464365000" lon="-3.944227000">
        <ele>865.9</ele>
        <time>2020-10-14T10:06:41Z</time>
      </trkpt>
      <trkpt lat="37.464323000" lon="-3.944113000">
        <ele>866.4</ele>
        <time>2020-10-14T10:06:44Z</time>
      </trkpt>
      <trkpt lat="37.464283000" lon="-3.943997000">
        <ele>866.9</ele>
        <time>2020-10-14T10:06:47Z</time>
      </trkpt>
      <trkpt lat="37.464240000" lon="-3.943879000">
        <ele>867.5</ele>
        <time>2020-10-14T10:06:50Z</time>
      </trkpt>
      <trkpt lat="37.464207000" lon="-3.943764000">
        <ele>867.9</ele>
        <time>2020-10-14T10:06:53Z</time>
      </trkpt>
      <trkpt lat="37.464175000" lon="-3.943655000">
        <ele>868.3</ele>
        <time>2020-10-14T10:06:56Z</time>
      </trkpt>
      <trkpt lat="37.464140000" lon="-3.943548000">
        <ele>868.6</ele>
        <time>2020-10-14T10:06:59Z</time>
      </trkpt>
      <trkpt lat="37.464105000" lon="-3.943435000">
        <ele>868.9</ele>
        <time>2020-10-14T10:07:02Z</time>
      </trkpt>
      <trkpt lat="37.464069000" lon="-3.943320000">
        <ele>869.2</ele>
        <time>2020-10-14T10:07:05Z</time>
      </trkpt>
      <trkpt lat="37.464034000" lon="-3.943204000">
        <ele>869.5</ele>
        <time>2020-10-14T10:07:08Z</time>
      </trkpt>
      <trkpt lat="37.463999000" lon="-3.943091000">
        <ele>869.7</ele>
        <time>2020-10-14T10:07:11Z</time>
      </trkpt>
      <trkpt lat="37.463967000" lon="-3.942983000">
        <ele>870.1</ele>
        <time>2020-10-14T10:07:14Z</time>
      </trkpt>
      <trkpt lat="37.463931000" lon="-3.942876000">
        <ele>870.5</ele>
        <time>2020-10-14T10:07:17Z</time>
      </trkpt>
      <trkpt lat="37.463902000" lon="-3.942766000">
        <ele>870.7</ele>
        <time>2020-10-14T10:07:20Z</time>
      </trkpt>
      <trkpt lat="37.463865000" lon="-3.942657000">
        <ele>870.8</ele>
        <time>2020-10-14T10:07:23Z</time>
      </trkpt>
      <trkpt lat="37.463827000" lon="-3.942549000">
        <ele>870.8</ele>
        <time>2020-10-14T10:07:26Z</time>
      </trkpt>
      <trkpt lat="37.463786000" lon="-3.942444000">
        <ele>870.8</ele>
        <time>2020-10-14T10:07:29Z</time>
      </trkpt>
      <trkpt lat="37.463746000" lon="-3.942332000">
        <ele>870.8</ele>
        <time>2020-10-14T10:07:32Z</time>
      </trkpt>
      <trkpt lat="37.463707000" lon="-3.942219000">
        <ele>870.8</ele>
        <time>2020-10-14T10:07:35Z</time>
      </trkpt>
      <trkpt lat="37.463666000" lon="-3.942105000">
        <ele>871.0</ele>
        <time>2020-10-14T10:07:38Z</time>
      </trkpt>
      <trkpt lat="37.463635000" lon="-3.941990000">
        <ele>871.2</ele>
        <time>2020-10-14T10:07:41Z</time>
      </trkpt>
      <trkpt lat="37.463604000" lon="-3.941883000">
        <ele>871.5</ele>
        <time>2020-10-14T10:07:44Z</time>
      </trkpt>
      <trkpt lat="37.463572000" lon="-3.941786000">
        <ele>871.8</ele>
        <time>2020-10-14T10:07:47Z</time>
      </trkpt>
      <trkpt lat="37.463530000" lon="-3.941671000">
        <ele>872.3</ele>
        <time>2020-10-14T10:07:51Z</time>
      </trkpt>
      <trkpt lat="37.463493000" lon="-3.941572000">
        <ele>872.7</ele>
        <time>2020-10-14T10:07:54Z</time>
      </trkpt>
      <trkpt lat="37.463452000" lon="-3.941450000">
        <ele>873.3</ele>
        <time>2020-10-14T10:07:57Z</time>
      </trkpt>
      <trkpt lat="37.463421000" lon="-3.941354000">
        <ele>874.0</ele>
        <time>2020-10-14T10:08:00Z</time>
      </trkpt>
      <trkpt lat="37.463384000" lon="-3.941236000">
        <ele>874.7</ele>
        <time>2020-10-14T10:08:04Z</time>
      </trkpt>
      <trkpt lat="37.463349000" lon="-3.941123000">
        <ele>875.5</ele>
        <time>2020-10-14T10:08:08Z</time>
      </trkpt>
      <trkpt lat="37.463308000" lon="-3.941006000">
        <ele>876.4</ele>
        <time>2020-10-14T10:08:12Z</time>
      </trkpt>
      <trkpt lat="37.463268000" lon="-3.940882000">
        <ele>877.0</ele>
        <time>2020-10-14T10:08:16Z</time>
      </trkpt>
      <trkpt lat="37.463227000" lon="-3.940757000">
        <ele>877.5</ele>
        <time>2020-10-14T10:08:20Z</time>
      </trkpt>
      <trkpt lat="37.463196000" lon="-3.940660000">
        <ele>878.0</ele>
        <time>2020-10-14T10:08:23Z</time>
      </trkpt>
      <trkpt lat="37.463165000" lon="-3.940564000">
        <ele>878.3</ele>
        <time>2020-10-14T10:08:26Z</time>
      </trkpt>
      <trkpt lat="37.463136000" lon="-3.940469000">
        <ele>878.5</ele>
        <time>2020-10-14T10:08:29Z</time>
      </trkpt>
      <trkpt lat="37.463094000" lon="-3.940362000">
        <ele>878.9</ele>
        <time>2020-10-14T10:08:33Z</time>
      </trkpt>
      <trkpt lat="37.463056000" lon="-3.940246000">
        <ele>879.4</ele>
        <time>2020-10-14T10:08:37Z</time>
      </trkpt>
      <trkpt lat="37.463013000" lon="-3.940127000">
        <ele>879.9</ele>
        <time>2020-10-14T10:08:41Z</time>
      </trkpt>
      <trkpt lat="37.462972000" lon="-3.940009000">
        <ele>880.5</ele>
        <time>2020-10-14T10:08:45Z</time>
      </trkpt>
      <trkpt lat="37.462934000" lon="-3.939891000">
        <ele>881.1</ele>
        <time>2020-10-14T10:08:49Z</time>
      </trkpt>
      <trkpt lat="37.462894000" lon="-3.939770000">
        <ele>881.6</ele>
        <time>2020-10-14T10:08:53Z</time>
      </trkpt>
      <trkpt lat="37.462850000" lon="-3.939648000">
        <ele>882.2</ele>
        <time>2020-10-14T10:08:57Z</time>
      </trkpt>
      <trkpt lat="37.462818000" lon="-3.939546000">
        <ele>882.7</ele>
        <time>2020-10-14T10:09:00Z</time>
      </trkpt>
      <trkpt lat="37.462790000" lon="-3.939449000">
        <ele>883.4</ele>
        <time>2020-10-14T10:09:03Z</time>
      </trkpt>
      <trkpt lat="37.462753000" lon="-3.939329000">
        <ele>884.1</ele>
        <time>2020-10-14T10:09:07Z</time>
      </trkpt>
      <trkpt lat="37.462713000" lon="-3.939220000">
        <ele>884.8</ele>
        <time>2020-10-14T10:09:11Z</time>
      </trkpt>
      <trkpt lat="37.462682000" lon="-3.939113000">
        <ele>885.5</ele>
        <time>2020-10-14T10:09:15Z</time>
      </trkpt>
      <trkpt lat="37.462658000" lon="-3.938992000">
        <ele>886.1</ele>
        <time>2020-10-14T10:09:58Z</time>
      </trkpt>
      <trkpt lat="37.462622000" lon="-3.938894000">
        <ele>886.5</ele>
        <time>2020-10-14T10:10:01Z</time>
      </trkpt>
      <trkpt lat="37.462583000" lon="-3.938796000">
        <ele>886.6</ele>
        <time>2020-10-14T10:10:04Z</time>
      </trkpt>
      <trkpt lat="37.462534000" lon="-3.938670000">
        <ele>886.8</ele>
        <time>2020-10-14T10:10:08Z</time>
      </trkpt>
      <trkpt lat="37.462508000" lon="-3.938557000">
        <ele>886.9</ele>
        <time>2020-10-14T10:10:11Z</time>
      </trkpt>
      <trkpt lat="37.462497000" lon="-3.938424000">
        <ele>886.9</ele>
        <time>2020-10-14T10:10:14Z</time>
      </trkpt>
      <trkpt lat="37.462508000" lon="-3.938278000">
        <ele>886.9</ele>
        <time>2020-10-14T10:10:17Z</time>
      </trkpt>
      <trkpt lat="37.462539000" lon="-3.938180000">
        <ele>886.8</ele>
        <time>2020-10-14T10:10:19Z</time>
      </trkpt>
      <trkpt lat="37.462595000" lon="-3.938097000">
        <ele>886.7</ele>
        <time>2020-10-14T10:10:21Z</time>
      </trkpt>
      <trkpt lat="37.462665000" lon="-3.938034000">
        <ele>886.5</ele>
        <time>2020-10-14T10:10:23Z</time>
      </trkpt>
      <trkpt lat="37.462737000" lon="-3.937985000">
        <ele>886.0</ele>
        <time>2020-10-14T10:10:25Z</time>
      </trkpt>
      <trkpt lat="37.462846000" lon="-3.937931000">
        <ele>885.6</ele>
        <time>2020-10-14T10:10:28Z</time>
      </trkpt>
      <trkpt lat="37.462955000" lon="-3.937876000">
        <ele>885.3</ele>
        <time>2020-10-14T10:10:31Z</time>
      </trkpt>
      <trkpt lat="37.463068000" lon="-3.937837000">
        <ele>885.0</ele>
        <time>2020-10-14T10:10:34Z</time>
      </trkpt>
      <trkpt lat="37.463185000" lon="-3.937800000">
        <ele>884.7</ele>
        <time>2020-10-14T10:10:37Z</time>
      </trkpt>
      <trkpt lat="37.463303000" lon="-3.937772000">
        <ele>884.5</ele>
        <time>2020-10-14T10:10:40Z</time>
      </trkpt>
      <trkpt lat="37.463384000" lon="-3.937754000">
        <ele>884.5</ele>
        <time>2020-10-14T10:10:42Z</time>
      </trkpt>
      <trkpt lat="37.463465000" lon="-3.937736000">
        <ele>884.5</ele>
        <time>2020-10-14T10:10:44Z</time>
      </trkpt>
      <trkpt lat="37.463546000" lon="-3.937707000">
        <ele>884.5</ele>
        <time>2020-10-14T10:10:46Z</time>
      </trkpt>
      <trkpt lat="37.463631000" lon="-3.937687000">
        <ele>884.4</ele>
        <time>2020-10-14T10:10:48Z</time>
      </trkpt>
      <trkpt lat="37.463715000" lon="-3.937666000">
        <ele>884.4</ele>
        <time>2020-10-14T10:10:50Z</time>
      </trkpt>
      <trkpt lat="37.463800000" lon="-3.937640000">
        <ele>884.5</ele>
        <time>2020-10-14T10:10:52Z</time>
      </trkpt>
      <trkpt lat="37.463883000" lon="-3.937613000">
        <ele>884.6</ele>
        <time>2020-10-14T10:10:54Z</time>
      </trkpt>
      <trkpt lat="37.463965000" lon="-3.937590000">
        <ele>885.0</ele>
        <time>2020-10-14T10:10:56Z</time>
      </trkpt>
      <trkpt lat="37.464048000" lon="-3.937564000">
        <ele>885.4</ele>
        <time>2020-10-14T10:10:58Z</time>
      </trkpt>
      <trkpt lat="37.464128000" lon="-3.937533000">
        <ele>885.7</ele>
        <time>2020-10-14T10:11:00Z</time>
      </trkpt>
      <trkpt lat="37.464204000" lon="-3.937493000">
        <ele>886.0</ele>
        <time>2020-10-14T10:11:02Z</time>
      </trkpt>
      <trkpt lat="37.464310000" lon="-3.937420000">
        <ele>886.3</ele>
        <time>2020-10-14T10:11:05Z</time>
      </trkpt>
      <trkpt lat="37.464401000" lon="-3.937325000">
        <ele>886.5</ele>
        <time>2020-10-14T10:11:08Z</time>
      </trkpt>
      <trkpt lat="37.464483000" lon="-3.937217000">
        <ele>886.7</ele>
        <time>2020-10-14T10:11:11Z</time>
      </trkpt>
      <trkpt lat="37.464562000" lon="-3.937111000">
        <ele>887.0</ele>
        <time>2020-10-14T10:11:14Z</time>
      </trkpt>
      <trkpt lat="37.464642000" lon="-3.937013000">
        <ele>887.2</ele>
        <time>2020-10-14T10:11:17Z</time>
      </trkpt>
      <trkpt lat="37.464718000" lon="-3.936916000">
        <ele>887.3</ele>
        <time>2020-10-14T10:11:20Z</time>
      </trkpt>
      <trkpt lat="37.464794000" lon="-3.936814000">
        <ele>887.3</ele>
        <time>2020-10-14T10:11:23Z</time>
      </trkpt>
      <trkpt lat="37.464875000" lon="-3.936703000">
        <ele>887.2</ele>
        <time>2020-10-14T10:11:26Z</time>
      </trkpt>
      <trkpt lat="37.464935000" lon="-3.936628000">
        <ele>887.2</ele>
        <time>2020-10-14T10:11:44Z</time>
      </trkpt>
      <trkpt lat="37.464991000" lon="-3.936547000">
        <ele>887.4</ele>
        <time>2020-10-14T10:11:45Z</time>
      </trkpt>
      <trkpt lat="37.465067000" lon="-3.936411000">
        <ele>887.8</ele>
        <time>2020-10-14T10:11:45Z</time>
      </trkpt>
      <trkpt lat="37.465130000" lon="-3.936266000">
        <ele>888.4</ele>
        <time>2020-10-14T10:11:45Z</time>
      </trkpt>
      <trkpt lat="37.465199000" lon="-3.936066000">
        <ele>888.9</ele>
        <time>2020-10-14T10:11:46Z</time>
      </trkpt>
      <trkpt lat="37.465252000" lon="-3.935910000">
        <ele>889.4</ele>
        <time>2020-10-14T10:11:47Z</time>
      </trkpt>
      <trkpt lat="37.465301000" lon="-3.935754000">
        <ele>889.8</ele>
        <time>2020-10-14T10:11:47Z</time>
      </trkpt>
      <trkpt lat="37.465333000" lon="-3.935653000">
        <ele>890.4</ele>
        <time>2020-10-14T10:11:50Z</time>
      </trkpt>
      <trkpt lat="37.465392000" lon="-3.935505000">
        <ele>891.0</ele>
        <time>2020-10-14T10:11:51Z</time>
      </trkpt>
      <trkpt lat="37.465429000" lon="-3.935411000">
        <ele>891.5</ele>
        <time>2020-10-14T10:11:53Z</time>
      </trkpt>
      <trkpt lat="37.465463000" lon="-3.935314000">
        <ele>891.9</ele>
        <time>2020-10-14T10:11:55Z</time>
      </trkpt>
      <trkpt lat="37.465497000" lon="-3.935220000">
        <ele>892.2</ele>
        <time>2020-10-14T10:11:57Z</time>
      </trkpt>
      <trkpt lat="37.465528000" lon="-3.935126000">
        <ele>892.2</ele>
        <time>2020-10-14T10:11:59Z</time>
      </trkpt>
      <trkpt lat="37.465557000" lon="-3.935028000">
        <ele>892.0</ele>
        <time>2020-10-14T10:12:01Z</time>
      </trkpt>
      <trkpt lat="37.465588000" lon="-3.934931000">
        <ele>891.7</ele>
        <time>2020-10-14T10:12:03Z</time>
      </trkpt>
      <trkpt lat="37.465623000" lon="-3.934834000">
        <ele>891.5</ele>
        <time>2020-10-14T10:12:05Z</time>
      </trkpt>
      <trkpt lat="37.465652000" lon="-3.934735000">
        <ele>891.2</ele>
        <time>2020-10-14T10:12:07Z</time>
      </trkpt>
      <trkpt lat="37.465674000" lon="-3.934631000">
        <ele>890.9</ele>
        <time>2020-10-14T10:12:09Z</time>
      </trkpt>
      <trkpt lat="37.465695000" lon="-3.934528000">
        <ele>890.6</ele>
        <time>2020-10-14T10:12:11Z</time>
      </trkpt>
      <trkpt lat="37.465719000" lon="-3.934427000">
        <ele>890.4</ele>
        <time>2020-10-14T10:12:13Z</time>
      </trkpt>
      <trkpt lat="37.465740000" lon="-3.934328000">
        <ele>890.3</ele>
        <time>2020-10-14T10:12:15Z</time>
      </trkpt>
      <trkpt lat="37.465758000" lon="-3.934228000">
        <ele>890.3</ele>
        <time>2020-10-14T10:12:17Z</time>
      </trkpt>
      <trkpt lat="37.465774000" lon="-3.934125000">
        <ele>890.4</ele>
        <time>2020-10-14T10:12:19Z</time>
      </trkpt>
      <trkpt lat="37.465789000" lon="-3.934019000">
        <ele>890.5</ele>
        <time>2020-10-14T10:12:21Z</time>
      </trkpt>
      <trkpt lat="37.465805000" lon="-3.933912000">
        <ele>890.7</ele>
        <time>2020-10-14T10:12:23Z</time>
      </trkpt>
      <trkpt lat="37.465819000" lon="-3.933805000">
        <ele>890.9</ele>
        <time>2020-10-14T10:12:25Z</time>
      </trkpt>
      <trkpt lat="37.465831000" lon="-3.933697000">
        <ele>891.1</ele>
        <time>2020-10-14T10:12:27Z</time>
      </trkpt>
      <trkpt lat="37.465845000" lon="-3.933588000">
        <ele>891.3</ele>
        <time>2020-10-14T10:12:29Z</time>
      </trkpt>
      <trkpt lat="37.465857000" lon="-3.933479000">
        <ele>891.4</ele>
        <time>2020-10-14T10:12:31Z</time>
      </trkpt>
      <trkpt lat="37.465875000" lon="-3.933369000">
        <ele>891.4</ele>
        <time>2020-10-14T10:12:33Z</time>
      </trkpt>
      <trkpt lat="37.465893000" lon="-3.933262000">
        <ele>891.4</ele>
        <time>2020-10-14T10:12:35Z</time>
      </trkpt>
      <trkpt lat="37.465907000" lon="-3.933152000">
        <ele>891.2</ele>
        <time>2020-10-14T10:12:37Z</time>
      </trkpt>
      <trkpt lat="37.465927000" lon="-3.933042000">
        <ele>891.0</ele>
        <time>2020-10-14T10:12:39Z</time>
      </trkpt>
      <trkpt lat="37.465947000" lon="-3.932935000">
        <ele>890.9</ele>
        <time>2020-10-14T10:12:41Z</time>
      </trkpt>
      <trkpt lat="37.465960000" lon="-3.932827000">
        <ele>890.8</ele>
        <time>2020-10-14T10:12:43Z</time>
      </trkpt>
      <trkpt lat="37.465977000" lon="-3.932720000">
        <ele>890.6</ele>
        <time>2020-10-14T10:12:45Z</time>
      </trkpt>
      <trkpt lat="37.465990000" lon="-3.932611000">
        <ele>890.4</ele>
        <time>2020-10-14T10:12:47Z</time>
      </trkpt>
      <trkpt lat="37.465990000" lon="-3.932611000">
        <ele>890.2</ele>
        <time>2020-10-14T10:12:47Z</time>
      </trkpt>
      <trkpt lat="37.465303000" lon="-3.926934000">
        <ele>914.0</ele>
        <time>2020-10-14T10:17:23Z</time>
      </trkpt>
      <trkpt lat="37.465293000" lon="-3.926831000">
        <ele>914.6</ele>
        <time>2020-10-14T10:17:35Z</time>
      </trkpt>
      <trkpt lat="37.465275000" lon="-3.926728000">
        <ele>915.1</ele>
        <time>2020-10-14T10:17:38Z</time>
      </trkpt>
      <trkpt lat="37.465258000" lon="-3.926608000">
        <ele>915.6</ele>
        <time>2020-10-14T10:17:41Z</time>
      </trkpt>
      <trkpt lat="37.465236000" lon="-3.926491000">
        <ele>915.9</ele>
        <time>2020-10-14T10:17:44Z</time>
      </trkpt>
      <trkpt lat="37.465208000" lon="-3.926372000">
        <ele>916.2</ele>
        <time>2020-10-14T10:17:48Z</time>
      </trkpt>
      <trkpt lat="37.465186000" lon="-3.926272000">
        <ele>916.9</ele>
        <time>2020-10-14T10:17:51Z</time>
      </trkpt>
      <trkpt lat="37.465168000" lon="-3.926170000">
        <ele>917.5</ele>
        <time>2020-10-14T10:17:55Z</time>
      </trkpt>
      <trkpt lat="37.465181000" lon="-3.926058000">
        <ele>918.1</ele>
        <time>2020-10-14T10:17:59Z</time>
      </trkpt>
      <trkpt lat="37.465226000" lon="-3.925949000">
        <ele>918.5</ele>
        <time>2020-10-14T10:18:03Z</time>
      </trkpt>
      <trkpt lat="37.465305000" lon="-3.925841000">
        <ele>918.7</ele>
        <time>2020-10-14T10:18:06Z</time>
      </trkpt>
      <trkpt lat="37.465362000" lon="-3.925764000">
        <ele>918.9</ele>
        <time>2020-10-14T10:18:08Z</time>
      </trkpt>
      <trkpt lat="37.465415000" lon="-3.925686000">
        <ele>919.1</ele>
        <time>2020-10-14T10:18:10Z</time>
      </trkpt>
      <trkpt lat="37.465481000" lon="-3.925558000">
        <ele>919.3</ele>
        <time>2020-10-14T10:18:13Z</time>
      </trkpt>
      <trkpt lat="37.465446000" lon="-3.925436000">
        <ele>919.5</ele>
        <time>2020-10-14T10:18:16Z</time>
      </trkpt>
      <trkpt lat="37.465361000" lon="-3.925395000">
        <ele>919.6</ele>
        <time>2020-10-14T10:18:19Z</time>
      </trkpt>
      <trkpt lat="37.465259000" lon="-3.925351000">
        <ele>919.9</ele>
        <time>2020-10-14T10:18:22Z</time>
      </trkpt>
      <trkpt lat="37.465154000" lon="-3.925310000">
        <ele>920.2</ele>
        <time>2020-10-14T10:18:26Z</time>
      </trkpt>
      <trkpt lat="37.465064000" lon="-3.925280000">
        <ele>920.5</ele>
        <time>2020-10-14T10:18:29Z</time>
      </trkpt>
      <trkpt lat="37.464981000" lon="-3.925265000">
        <ele>921.0</ele>
        <time>2020-10-14T10:18:33Z</time>
      </trkpt>
      <trkpt lat="37.464897000" lon="-3.925234000">
        <ele>921.5</ele>
        <time>2020-10-14T10:18:36Z</time>
      </trkpt>
      <trkpt lat="37.464808000" lon="-3.925186000">
        <ele>922.1</ele>
        <time>2020-10-14T10:18:39Z</time>
      </trkpt>
      <trkpt lat="37.464729000" lon="-3.925129000">
        <ele>922.7</ele>
        <time>2020-10-14T10:18:42Z</time>
      </trkpt>
      <trkpt lat="37.464675000" lon="-3.925047000">
        <ele>923.3</ele>
        <time>2020-10-14T10:18:45Z</time>
      </trkpt>
      <trkpt lat="37.464618000" lon="-3.924958000">
        <ele>923.8</ele>
        <time>2020-10-14T10:18:48Z</time>
      </trkpt>
      <trkpt lat="37.464574000" lon="-3.924842000">
        <ele>924.4</ele>
        <time>2020-10-14T10:18:52Z</time>
      </trkpt>
      <trkpt lat="37.464543000" lon="-3.924726000">
        <ele>924.9</ele>
        <time>2020-10-14T10:18:56Z</time>
      </trkpt>
      <trkpt lat="37.464515000" lon="-3.924624000">
        <ele>925.4</ele>
        <time>2020-10-14T10:18:59Z</time>
      </trkpt>
      <trkpt lat="37.464475000" lon="-3.924523000">
        <ele>925.8</ele>
        <time>2020-10-14T10:19:02Z</time>
      </trkpt>
      <trkpt lat="37.464430000" lon="-3.924418000">
        <ele>926.1</ele>
        <time>2020-10-14T10:19:05Z</time>
      </trkpt>
      <trkpt lat="37.464369000" lon="-3.924313000">
        <ele>926.3</ele>
        <time>2020-10-14T10:19:08Z</time>
      </trkpt>
      <trkpt lat="37.464301000" lon="-3.924206000">
        <ele>926.4</ele>
        <time>2020-10-14T10:19:11Z</time>
      </trkpt>
      <trkpt lat="37.464212000" lon="-3.924113000">
        <ele>926.5</ele>
        <time>2020-10-14T10:19:14Z</time>
      </trkpt>
      <trkpt lat="37.464143000" lon="-3.924055000">
        <ele>926.5</ele>
        <time>2020-10-14T10:19:16Z</time>
      </trkpt>
      <trkpt lat="37.464070000" lon="-3.923997000">
        <ele>926.4</ele>
        <time>2020-10-14T10:19:18Z</time>
      </trkpt>
      <trkpt lat="37.464001000" lon="-3.923938000">
        <ele>926.2</ele>
        <time>2020-10-14T10:19:20Z</time>
      </trkpt>
      <trkpt lat="37.463930000" lon="-3.923879000">
        <ele>926.0</ele>
        <time>2020-10-14T10:19:22Z</time>
      </trkpt>
      <trkpt lat="37.463837000" lon="-3.923794000">
        <ele>925.8</ele>
        <time>2020-10-14T10:19:25Z</time>
      </trkpt>
      <trkpt lat="37.463750000" lon="-3.923719000">
        <ele>925.6</ele>
        <time>2020-10-14T10:19:28Z</time>
      </trkpt>
      <trkpt lat="37.463684000" lon="-3.923645000">
        <ele>925.5</ele>
        <time>2020-10-14T10:19:31Z</time>
      </trkpt>
      <trkpt lat="37.463608000" lon="-3.923572000">
        <ele>925.4</ele>
        <time>2020-10-14T10:19:34Z</time>
      </trkpt>
      <trkpt lat="37.463525000" lon="-3.923503000">
        <ele>925.2</ele>
        <time>2020-10-14T10:19:37Z</time>
      </trkpt>
      <trkpt lat="37.463434000" lon="-3.923425000">
        <ele>925.0</ele>
        <time>2020-10-14T10:19:40Z</time>
      </trkpt>
      <trkpt lat="37.463328000" lon="-3.923356000">
        <ele>924.8</ele>
        <time>2020-10-14T10:19:43Z</time>
      </trkpt>
      <trkpt lat="37.463241000" lon="-3.923299000">
        <ele>924.5</ele>
        <time>2020-10-14T10:19:45Z</time>
      </trkpt>
      <trkpt lat="37.463151000" lon="-3.923248000">
        <ele>924.2</ele>
        <time>2020-10-14T10:19:47Z</time>
      </trkpt>
      <trkpt lat="37.463071000" lon="-3.923191000">
        <ele>923.7</ele>
        <time>2020-10-14T10:19:49Z</time>
      </trkpt>
      <trkpt lat="37.463006000" lon="-3.923122000">
        <ele>923.2</ele>
        <time>2020-10-14T10:19:51Z</time>
      </trkpt>
      <trkpt lat="37.462936000" lon="-3.923050000">
        <ele>922.6</ele>
        <time>2020-10-14T10:19:53Z</time>
      </trkpt>
      <trkpt lat="37.462865000" lon="-3.922970000">
        <ele>922.0</ele>
        <time>2020-10-14T10:19:55Z</time>
      </trkpt>
      <trkpt lat="37.462792000" lon="-3.922895000">
        <ele>921.4</ele>
        <time>2020-10-14T10:19:57Z</time>
      </trkpt>
      <trkpt lat="37.462718000" lon="-3.922819000">
        <ele>920.7</ele>
        <time>2020-10-14T10:19:59Z</time>
      </trkpt>
      <trkpt lat="37.462651000" lon="-3.922731000">
        <ele>920.1</ele>
        <time>2020-10-14T10:20:01Z</time>
      </trkpt>
      <trkpt lat="37.462589000" lon="-3.922651000">
        <ele>919.5</ele>
        <time>2020-10-14T10:20:03Z</time>
      </trkpt>
      <trkpt lat="37.462490000" lon="-3.922575000">
        <ele>919.0</ele>
        <time>2020-10-14T10:20:06Z</time>
      </trkpt>
      <trkpt lat="37.462398000" lon="-3.922591000">
        <ele>918.5</ele>
        <time>2020-10-14T10:20:09Z</time>
      </trkpt>
      <trkpt lat="37.462331000" lon="-3.922652000">
        <ele>918.3</ele>
        <time>2020-10-14T10:20:12Z</time>
      </trkpt>
      <trkpt lat="37.462246000" lon="-3.922726000">
        <ele>918.1</ele>
        <time>2020-10-14T10:20:16Z</time>
      </trkpt>
      <trkpt lat="37.462210000" lon="-3.922819000">
        <ele>918.1</ele>
        <time>2020-10-14T10:20:22Z</time>
      </trkpt>
      <trkpt lat="37.462286000" lon="-3.922874000">
        <ele>918.1</ele>
        <time>2020-10-14T10:20:35Z</time>
      </trkpt>
      <trkpt lat="37.462361000" lon="-3.922796000">
        <ele>918.1</ele>
        <time>2020-10-14T10:20:41Z</time>
      </trkpt>
      <trkpt lat="37.462429000" lon="-3.922739000">
        <ele>918.0</ele>
        <time>2020-10-14T10:20:46Z</time>
      </trkpt>
      <trkpt lat="37.462355000" lon="-3.922822000">
        <ele>917.8</ele>
        <time>2020-10-14T10:21:06Z</time>
      </trkpt>
      <trkpt lat="37.462308000" lon="-3.922910000">
        <ele>917.7</ele>
        <time>2020-10-14T10:21:09Z</time>
      </trkpt>
      <trkpt lat="37.462226000" lon="-3.922928000">
        <ele>917.6</ele>
        <time>2020-10-14T10:21:18Z</time>
      </trkpt>
      <trkpt lat="37.462135000" lon="-3.922889000">
        <ele>917.5</ele>
        <time>2020-10-14T10:21:25Z</time>
      </trkpt>
      <trkpt lat="37.462038000" lon="-3.922844000">
        <ele>917.3</ele>
        <time>2020-10-14T10:21:29Z</time>
      </trkpt>
      <trkpt lat="37.461952000" lon="-3.922835000">
        <ele>917.1</ele>
        <time>2020-10-14T10:22:03Z</time>
      </trkpt>
      <trkpt lat="37.461868000" lon="-3.922841000">
        <ele>916.8</ele>
        <time>2020-10-14T10:22:07Z</time>
      </trkpt>
      <trkpt lat="37.461766000" lon="-3.922842000">
        <ele>916.5</ele>
        <time>2020-10-14T10:22:11Z</time>
      </trkpt>
      <trkpt lat="37.461680000" lon="-3.922849000">
        <ele>916.1</ele>
        <time>2020-10-14T10:22:15Z</time>
      </trkpt>
      <trkpt lat="37.461599000" lon="-3.922843000">
        <ele>915.7</ele>
        <time>2020-10-14T10:22:19Z</time>
      </trkpt>
      <trkpt lat="37.461508000" lon="-3.922836000">
        <ele>915.5</ele>
        <time>2020-10-14T10:22:23Z</time>
      </trkpt>
      <trkpt lat="37.461421000" lon="-3.922844000">
        <ele>915.4</ele>
        <time>2020-10-14T10:22:29Z</time>
      </trkpt>
      <trkpt lat="37.461336000" lon="-3.922832000">
        <ele>915.3</ele>
        <time>2020-10-14T10:22:34Z</time>
      </trkpt>
      <trkpt lat="37.461243000" lon="-3.922820000">
        <ele>915.2</ele>
        <time>2020-10-14T10:22:38Z</time>
      </trkpt>
      <trkpt lat="37.461150000" lon="-3.922822000">
        <ele>915.0</ele>
        <time>2020-10-14T10:22:42Z</time>
      </trkpt>
      <trkpt lat="37.461058000" lon="-3.922816000">
        <ele>914.9</ele>
        <time>2020-10-14T10:22:47Z</time>
      </trkpt>
      <trkpt lat="37.460965000" lon="-3.922825000">
        <ele>914.7</ele>
        <time>2020-10-14T10:22:51Z</time>
      </trkpt>
      <trkpt lat="37.460878000" lon="-3.922825000">
        <ele>914.6</ele>
        <time>2020-10-14T10:22:55Z</time>
      </trkpt>
      <trkpt lat="37.460809000" lon="-3.922746000">
        <ele>914.5</ele>
        <time>2020-10-14T10:23:01Z</time>
      </trkpt>
      <trkpt lat="37.460730000" lon="-3.922702000">
        <ele>914.5</ele>
        <time>2020-10-14T10:23:08Z</time>
      </trkpt>
      <trkpt lat="37.460705000" lon="-3.922599000">
        <ele>914.5</ele>
        <time>2020-10-14T10:23:14Z</time>
      </trkpt>
      <trkpt lat="37.460722000" lon="-3.922490000">
        <ele>914.6</ele>
        <time>2020-10-14T10:23:18Z</time>
      </trkpt>
      <trkpt lat="37.460743000" lon="-3.922391000">
        <ele>914.6</ele>
        <time>2020-10-14T10:23:21Z</time>
      </trkpt>
      <trkpt lat="37.460781000" lon="-3.922299000">
        <ele>914.5</ele>
        <time>2020-10-14T10:23:24Z</time>
      </trkpt>
      <trkpt lat="37.460809000" lon="-3.922176000">
        <ele>914.5</ele>
        <time>2020-10-14T10:23:28Z</time>
      </trkpt>
      <trkpt lat="37.460830000" lon="-3.922067000">
        <ele>914.4</ele>
        <time>2020-10-14T10:23:33Z</time>
      </trkpt>
      <trkpt lat="37.460835000" lon="-3.921960000">
        <ele>914.3</ele>
        <time>2020-10-14T10:23:39Z</time>
      </trkpt>
      <trkpt lat="37.460918000" lon="-3.921929000">
        <ele>914.2</ele>
        <time>2020-10-14T10:23:52Z</time>
      </trkpt>
      <trkpt lat="37.461021000" lon="-3.921960000">
        <ele>914.2</ele>
        <time>2020-10-14T10:23:57Z</time>
      </trkpt>
      <trkpt lat="37.461108000" lon="-3.922006000">
        <ele>914.2</ele>
        <time>2020-10-14T10:24:01Z</time>
      </trkpt>
      <trkpt lat="37.461186000" lon="-3.922043000">
        <ele>914.2</ele>
        <time>2020-10-14T10:24:05Z</time>
      </trkpt>
      <trkpt lat="37.461267000" lon="-3.922081000">
        <ele>914.1</ele>
        <time>2020-10-14T10:24:09Z</time>
      </trkpt>
      <trkpt lat="37.461295000" lon="-3.922177000">
        <ele>914.0</ele>
        <time>2020-10-14T10:24:24Z</time>
      </trkpt>
      <trkpt lat="37.461349000" lon="-3.922101000">
        <ele>913.9</ele>
        <time>2020-10-14T10:24:52Z</time>
      </trkpt>
      <trkpt lat="37.461427000" lon="-3.922134000">
        <ele>914.0</ele>
        <time>2020-10-14T10:24:55Z</time>
      </trkpt>
      <trkpt lat="37.461516000" lon="-3.922169000">
        <ele>914.1</ele>
        <time>2020-10-14T10:24:58Z</time>
      </trkpt>
      <trkpt lat="37.461605000" lon="-3.922197000">
        <ele>914.3</ele>
        <time>2020-10-14T10:25:02Z</time>
      </trkpt>
      <trkpt lat="37.461685000" lon="-3.922232000">
        <ele>914.5</ele>
        <time>2020-10-14T10:25:06Z</time>
      </trkpt>
      <trkpt lat="37.461780000" lon="-3.922267000">
        <ele>914.8</ele>
        <time>2020-10-14T10:25:10Z</time>
      </trkpt>
      <trkpt lat="37.461861000" lon="-3.922316000">
        <ele>915.0</ele>
        <time>2020-10-14T10:25:15Z</time>
      </trkpt>
      <trkpt lat="37.461951000" lon="-3.922345000">
        <ele>915.2</ele>
        <time>2020-10-14T10:25:19Z</time>
      </trkpt>
      <trkpt lat="37.462034000" lon="-3.922382000">
        <ele>915.3</ele>
        <time>2020-10-14T10:25:24Z</time>
      </trkpt>
      <trkpt lat="37.462108000" lon="-3.922431000">
        <ele>915.4</ele>
        <time>2020-10-14T10:25:29Z</time>
      </trkpt>
      <trkpt lat="37.462121000" lon="-3.922535000">
        <ele>915.4</ele>
        <time>2020-10-14T10:25:42Z</time>
      </trkpt>
      <trkpt lat="37.462039000" lon="-3.922498000">
        <ele>915.4</ele>
        <time>2020-10-14T10:26:01Z</time>
      </trkpt>
      <trkpt lat="37.461980000" lon="-3.922418000">
        <ele>915.3</ele>
        <time>2020-10-14T10:26:06Z</time>
      </trkpt>
      <trkpt lat="37.461899000" lon="-3.922384000">
        <ele>915.2</ele>
        <time>2020-10-14T10:26:10Z</time>
      </trkpt>
      <trkpt lat="37.461809000" lon="-3.922339000">
        <ele>915.0</ele>
        <time>2020-10-14T10:26:14Z</time>
      </trkpt>
      <trkpt lat="37.461718000" lon="-3.922278000">
        <ele>914.8</ele>
        <time>2020-10-14T10:26:18Z</time>
      </trkpt>
      <trkpt lat="37.461621000" lon="-3.922225000">
        <ele>914.5</ele>
        <time>2020-10-14T10:26:22Z</time>
      </trkpt>
      <trkpt lat="37.461535000" lon="-3.922181000">
        <ele>914.4</ele>
        <time>2020-10-14T10:26:25Z</time>
      </trkpt>
      <trkpt lat="37.461436000" lon="-3.922145000">
        <ele>914.3</ele>
        <time>2020-10-14T10:26:29Z</time>
      </trkpt>
      <trkpt lat="37.461346000" lon="-3.922131000">
        <ele>914.3</ele>
        <time>2020-10-14T10:26:33Z</time>
      </trkpt>
      <trkpt lat="37.461265000" lon="-3.922093000">
        <ele>914.4</ele>
        <time>2020-10-14T10:26:37Z</time>
      </trkpt>
      <trkpt lat="37.461176000" lon="-3.922082000">
        <ele>914.5</ele>
        <time>2020-10-14T10:26:42Z</time>
      </trkpt>
      <trkpt lat="37.461094000" lon="-3.922004000">
        <ele>914.6</ele>
        <time>2020-10-14T10:26:46Z</time>
      </trkpt>
      <trkpt lat="37.461051000" lon="-3.921896000">
        <ele>914.7</ele>
        <time>2020-10-14T10:26:50Z</time>
      </trkpt>
      <trkpt lat="37.461060000" lon="-3.921783000">
        <ele>914.8</ele>
        <time>2020-10-14T10:26:54Z</time>
      </trkpt>
      <trkpt lat="37.461106000" lon="-3.921699000">
        <ele>914.9</ele>
        <time>2020-10-14T10:27:08Z</time>
      </trkpt>
      <trkpt lat="37.461116000" lon="-3.921728000">
        <ele>915.0</ele>
        <time>2020-10-14T10:27:33Z</time>
      </trkpt>
      <trkpt lat="37.461106000" lon="-3.921732000">
        <ele>915.8</ele>
        <time>2020-10-14T10:36:33Z</time>
      </trkpt>
      <trkpt lat="37.461022000" lon="-3.921722000">
        <ele>915.7</ele>
        <time>2020-10-14T10:36:58Z</time>
      </trkpt>
      <trkpt lat="37.460940000" lon="-3.921700000">
        <ele>915.6</ele>
        <time>2020-10-14T10:37:27Z</time>
      </trkpt>
      <trkpt lat="37.460863000" lon="-3.921738000">
        <ele>915.6</ele>
        <time>2020-10-14T10:37:43Z</time>
      </trkpt>
      <trkpt lat="37.460836000" lon="-3.921837000">
        <ele>915.6</ele>
        <time>2020-10-14T10:37:50Z</time>
      </trkpt>
      <trkpt lat="37.460770000" lon="-3.921919000">
        <ele>915.6</ele>
        <time>2020-10-14T10:37:54Z</time>
      </trkpt>
      <trkpt lat="37.460667000" lon="-3.921884000">
        <ele>915.6</ele>
        <time>2020-10-14T10:37:58Z</time>
      </trkpt>
      <trkpt lat="37.460563000" lon="-3.921853000">
        <ele>915.6</ele>
        <time>2020-10-14T10:38:02Z</time>
      </trkpt>
      <trkpt lat="37.460486000" lon="-3.921813000">
        <ele>915.7</ele>
        <time>2020-10-14T10:38:05Z</time>
      </trkpt>
      <trkpt lat="37.460403000" lon="-3.921798000">
        <ele>915.8</ele>
        <time>2020-10-14T10:38:08Z</time>
      </trkpt>
      <trkpt lat="37.460315000" lon="-3.921778000">
        <ele>915.9</ele>
        <time>2020-10-14T10:38:13Z</time>
      </trkpt>
      <trkpt lat="37.460231000" lon="-3.921733000">
        <ele>916.0</ele>
        <time>2020-10-14T10:38:20Z</time>
      </trkpt>
      <trkpt lat="37.460187000" lon="-3.921637000">
        <ele>916.1</ele>
        <time>2020-10-14T10:38:24Z</time>
      </trkpt>
      <trkpt lat="37.460190000" lon="-3.921515000">
        <ele>916.1</ele>
        <time>2020-10-14T10:38:28Z</time>
      </trkpt>
      <trkpt lat="37.460220000" lon="-3.921419000">
        <ele>916.1</ele>
        <time>2020-10-14T10:38:31Z</time>
      </trkpt>
      <trkpt lat="37.460256000" lon="-3.921320000">
        <ele>916.0</ele>
        <time>2020-10-14T10:38:34Z</time>
      </trkpt>
      <trkpt lat="37.460291000" lon="-3.921223000">
        <ele>915.9</ele>
        <time>2020-10-14T10:38:37Z</time>
      </trkpt>
      <trkpt lat="37.460329000" lon="-3.921128000">
        <ele>915.7</ele>
        <time>2020-10-14T10:38:40Z</time>
      </trkpt>
      <trkpt lat="37.460369000" lon="-3.921016000">
        <ele>915.5</ele>
        <time>2020-10-14T10:38:44Z</time>
      </trkpt>
      <trkpt lat="37.460287000" lon="-3.920966000">
        <ele>915.2</ele>
        <time>2020-10-14T10:38:48Z</time>
      </trkpt>
      <trkpt lat="37.460193000" lon="-3.920936000">
        <ele>914.8</ele>
        <time>2020-10-14T10:38:51Z</time>
      </trkpt>
      <trkpt lat="37.460111000" lon="-3.920907000">
        <ele>914.5</ele>
        <time>2020-10-14T10:38:54Z</time>
      </trkpt>
      <trkpt lat="37.460030000" lon="-3.920888000">
        <ele>914.2</ele>
        <time>2020-10-14T10:38:57Z</time>
      </trkpt>
      <trkpt lat="37.459930000" lon="-3.920858000">
        <ele>913.8</ele>
        <time>2020-10-14T10:39:00Z</time>
      </trkpt>
      <trkpt lat="37.459827000" lon="-3.920833000">
        <ele>913.6</ele>
        <time>2020-10-14T10:39:03Z</time>
      </trkpt>
      <trkpt lat="37.459724000" lon="-3.920798000">
        <ele>913.5</ele>
        <time>2020-10-14T10:39:06Z</time>
      </trkpt>
      <trkpt lat="37.459615000" lon="-3.920762000">
        <ele>913.3</ele>
        <time>2020-10-14T10:39:09Z</time>
      </trkpt>
      <trkpt lat="37.459536000" lon="-3.920734000">
        <ele>913.1</ele>
        <time>2020-10-14T10:39:11Z</time>
      </trkpt>
      <trkpt lat="37.459453000" lon="-3.920703000">
        <ele>913.0</ele>
        <time>2020-10-14T10:39:13Z</time>
      </trkpt>
      <trkpt lat="37.459372000" lon="-3.920676000">
        <ele>912.9</ele>
        <time>2020-10-14T10:39:15Z</time>
      </trkpt>
      <trkpt lat="37.459255000" lon="-3.920638000">
        <ele>912.9</ele>
        <time>2020-10-14T10:39:18Z</time>
      </trkpt>
      <trkpt lat="37.459176000" lon="-3.920611000">
        <ele>913.0</ele>
        <time>2020-10-14T10:39:20Z</time>
      </trkpt>
      <trkpt lat="37.459097000" lon="-3.920578000">
        <ele>913.1</ele>
        <time>2020-10-14T10:39:22Z</time>
      </trkpt>
      <trkpt lat="37.459015000" lon="-3.920545000">
        <ele>913.2</ele>
        <time>2020-10-14T10:39:24Z</time>
      </trkpt>
      <trkpt lat="37.458935000" lon="-3.920503000">
        <ele>913.4</ele>
        <time>2020-10-14T10:39:26Z</time>
      </trkpt>
      <trkpt lat="37.458857000" lon="-3.920456000">
        <ele>913.4</ele>
        <time>2020-10-14T10:39:28Z</time>
      </trkpt>
      <trkpt lat="37.458782000" lon="-3.920402000">
        <ele>913.4</ele>
        <time>2020-10-14T10:39:30Z</time>
      </trkpt>
      <trkpt lat="37.458679000" lon="-3.920327000">
        <ele>913.4</ele>
        <time>2020-10-14T10:39:33Z</time>
      </trkpt>
      <trkpt lat="37.458605000" lon="-3.920265000">
        <ele>913.4</ele>
        <time>2020-10-14T10:39:35Z</time>
      </trkpt>
      <trkpt lat="37.458530000" lon="-3.920195000">
        <ele>913.3</ele>
        <time>2020-10-14T10:39:37Z</time>
      </trkpt>
      <trkpt lat="37.458463000" lon="-3.920134000">
        <ele>913.2</ele>
        <time>2020-10-14T10:39:39Z</time>
      </trkpt>
      <trkpt lat="37.458395000" lon="-3.920071000">
        <ele>913.1</ele>
        <time>2020-10-14T10:39:41Z</time>
      </trkpt>
      <trkpt lat="37.458317000" lon="-3.919994000">
        <ele>913.0</ele>
        <time>2020-10-14T10:39:43Z</time>
      </trkpt>
      <trkpt lat="37.458246000" lon="-3.919934000">
        <ele>912.9</ele>
        <time>2020-10-14T10:39:45Z</time>
      </trkpt>
      <trkpt lat="37.458150000" lon="-3.919841000">
        <ele>912.9</ele>
        <time>2020-10-14T10:39:48Z</time>
      </trkpt>
      <trkpt lat="37.458082000" lon="-3.919782000">
        <ele>913.0</ele>
        <time>2020-10-14T10:39:50Z</time>
      </trkpt>
      <trkpt lat="37.458010000" lon="-3.919718000">
        <ele>913.3</ele>
        <time>2020-10-14T10:39:52Z</time>
      </trkpt>
      <trkpt lat="37.457937000" lon="-3.919657000">
        <ele>913.6</ele>
        <time>2020-10-14T10:39:54Z</time>
      </trkpt>
      <trkpt lat="37.457865000" lon="-3.919599000">
        <ele>914.0</ele>
        <time>2020-10-14T10:39:56Z</time>
      </trkpt>
      <trkpt lat="37.457792000" lon="-3.919547000">
        <ele>914.5</ele>
        <time>2020-10-14T10:39:58Z</time>
      </trkpt>
      <trkpt lat="37.457686000" lon="-3.919476000">
        <ele>915.1</ele>
        <time>2020-10-14T10:40:01Z</time>
      </trkpt>
      <trkpt lat="37.457594000" lon="-3.919397000">
        <ele>915.8</ele>
        <time>2020-10-14T10:40:04Z</time>
      </trkpt>
      <trkpt lat="37.457506000" lon="-3.919325000">
        <ele>916.5</ele>
        <time>2020-10-14T10:40:07Z</time>
      </trkpt>
      <trkpt lat="37.457421000" lon="-3.919248000">
        <ele>917.2</ele>
        <time>2020-10-14T10:40:10Z</time>
      </trkpt>
      <trkpt lat="37.457331000" lon="-3.919166000">
        <ele>917.8</ele>
        <time>2020-10-14T10:40:13Z</time>
      </trkpt>
      <trkpt lat="37.457246000" lon="-3.919090000">
        <ele>918.3</ele>
        <time>2020-10-14T10:40:16Z</time>
      </trkpt>
      <trkpt lat="37.457170000" lon="-3.919020000">
        <ele>918.6</ele>
        <time>2020-10-14T10:40:19Z</time>
      </trkpt>
      <trkpt lat="37.457098000" lon="-3.918955000">
        <ele>918.9</ele>
        <time>2020-10-14T10:40:22Z</time>
      </trkpt>
      <trkpt lat="37.457018000" lon="-3.918877000">
        <ele>919.0</ele>
        <time>2020-10-14T10:40:26Z</time>
      </trkpt>
      <trkpt lat="37.456945000" lon="-3.918805000">
        <ele>919.2</ele>
        <time>2020-10-14T10:40:30Z</time>
      </trkpt>
      <trkpt lat="37.456867000" lon="-3.918725000">
        <ele>919.3</ele>
        <time>2020-10-14T10:40:34Z</time>
      </trkpt>
      <trkpt lat="37.456794000" lon="-3.918647000">
        <ele>919.3</ele>
        <time>2020-10-14T10:40:38Z</time>
      </trkpt>
      <trkpt lat="37.456719000" lon="-3.918557000">
        <ele>919.3</ele>
        <time>2020-10-14T10:40:42Z</time>
      </trkpt>
      <trkpt lat="37.456658000" lon="-3.918483000">
        <ele>919.4</ele>
        <time>2020-10-14T10:40:45Z</time>
      </trkpt>
      <trkpt lat="37.456592000" lon="-3.918417000">
        <ele>919.5</ele>
        <time>2020-10-14T10:40:48Z</time>
      </trkpt>
      <trkpt lat="37.456508000" lon="-3.918336000">
        <ele>919.9</ele>
        <time>2020-10-14T10:40:52Z</time>
      </trkpt>
      <trkpt lat="37.456419000" lon="-3.918261000">
        <ele>920.5</ele>
        <time>2020-10-14T10:40:56Z</time>
      </trkpt>
      <trkpt lat="37.456356000" lon="-3.918196000">
        <ele>921.1</ele>
        <time>2020-10-14T10:40:59Z</time>
      </trkpt>
      <trkpt lat="37.456273000" lon="-3.918120000">
        <ele>921.8</ele>
        <time>2020-10-14T10:41:03Z</time>
      </trkpt>
      <trkpt lat="37.456192000" lon="-3.918032000">
        <ele>922.6</ele>
        <time>2020-10-14T10:41:07Z</time>
      </trkpt>
      <trkpt lat="37.456119000" lon="-3.917948000">
        <ele>923.3</ele>
        <time>2020-10-14T10:41:11Z</time>
      </trkpt>
      <trkpt lat="37.456058000" lon="-3.917881000">
        <ele>923.7</ele>
        <time>2020-10-14T10:41:14Z</time>
      </trkpt>
      <trkpt lat="37.455976000" lon="-3.917804000">
        <ele>924.0</ele>
        <time>2020-10-14T10:41:18Z</time>
      </trkpt>
      <trkpt lat="37.455909000" lon="-3.917731000">
        <ele>924.0</ele>
        <time>2020-10-14T10:41:22Z</time>
      </trkpt>
      <trkpt lat="37.455822000" lon="-3.917732000">
        <ele>923.7</ele>
        <time>2020-10-14T10:41:28Z</time>
      </trkpt>
      <trkpt lat="37.455820000" lon="-3.917852000">
        <ele>923.3</ele>
        <time>2020-10-14T10:41:33Z</time>
      </trkpt>
      <trkpt lat="37.455844000" lon="-3.917989000">
        <ele>922.5</ele>
        <time>2020-10-14T10:41:37Z</time>
      </trkpt>
      <trkpt lat="37.455863000" lon="-3.918121000">
        <ele>921.5</ele>
        <time>2020-10-14T10:41:40Z</time>
      </trkpt>
      <trkpt lat="37.455890000" lon="-3.918252000">
        <ele>920.3</ele>
        <time>2020-10-14T10:41:43Z</time>
      </trkpt>
      <trkpt lat="37.455918000" lon="-3.918372000">
        <ele>918.9</ele>
        <time>2020-10-14T10:41:47Z</time>
      </trkpt>
      <trkpt lat="37.455949000" lon="-3.918493000">
        <ele>917.5</ele>
        <time>2020-10-14T10:41:52Z</time>
      </trkpt>
      <trkpt lat="37.455962000" lon="-3.918594000">
        <ele>916.2</ele>
        <time>2020-10-14T10:42:06Z</time>
      </trkpt>
      <trkpt lat="37.456015000" lon="-3.918674000">
        <ele>914.9</ele>
        <time>2020-10-14T10:43:53Z</time>
      </trkpt>
      <trkpt lat="37.456076000" lon="-3.918779000">
        <ele>913.7</ele>
        <time>2020-10-14T10:43:56Z</time>
      </trkpt>
      <trkpt lat="37.456114000" lon="-3.918894000">
        <ele>912.7</ele>
        <time>2020-10-14T10:43:58Z</time>
      </trkpt>
      <trkpt lat="37.456145000" lon="-3.919031000">
        <ele>912.0</ele>
        <time>2020-10-14T10:44:01Z</time>
      </trkpt>
      <trkpt lat="37.456088000" lon="-3.919118000">
        <ele>911.4</ele>
        <time>2020-10-14T10:44:06Z</time>
      </trkpt>
      <trkpt lat="37.456009000" lon="-3.919164000">
        <ele>911.0</ele>
        <time>2020-10-14T10:44:10Z</time>
      </trkpt>
      <trkpt lat="37.455922000" lon="-3.919178000">
        <ele>910.9</ele>
        <time>2020-10-14T10:44:13Z</time>
      </trkpt>
      <trkpt lat="37.455856000" lon="-3.919098000">
        <ele>911.0</ele>
        <time>2020-10-14T10:44:16Z</time>
      </trkpt>
      <trkpt lat="37.455822000" lon="-3.919005000">
        <ele>911.3</ele>
        <time>2020-10-14T10:44:19Z</time>
      </trkpt>
      <trkpt lat="37.455784000" lon="-3.918900000">
        <ele>911.6</ele>
        <time>2020-10-14T10:44:23Z</time>
      </trkpt>
      <trkpt lat="37.455737000" lon="-3.918798000">
        <ele>912.2</ele>
        <time>2020-10-14T10:44:28Z</time>
      </trkpt>
      <trkpt lat="37.455692000" lon="-3.918681000">
        <ele>912.8</ele>
        <time>2020-10-14T10:44:32Z</time>
      </trkpt>
      <trkpt lat="37.455652000" lon="-3.918583000">
        <ele>913.6</ele>
        <time>2020-10-14T10:44:35Z</time>
      </trkpt>
      <trkpt lat="37.455612000" lon="-3.918477000">
        <ele>914.4</ele>
        <time>2020-10-14T10:44:38Z</time>
      </trkpt>
      <trkpt lat="37.455571000" lon="-3.918375000">
        <ele>915.0</ele>
        <time>2020-10-14T10:44:41Z</time>
      </trkpt>
      <trkpt lat="37.455523000" lon="-3.918272000">
        <ele>915.7</ele>
        <time>2020-10-14T10:44:45Z</time>
      </trkpt>
      <trkpt lat="37.455482000" lon="-3.918170000">
        <ele>916.4</ele>
        <time>2020-10-14T10:44:49Z</time>
      </trkpt>
      <trkpt lat="37.455448000" lon="-3.918068000">
        <ele>916.9</ele>
        <time>2020-10-14T10:44:53Z</time>
      </trkpt>
      <trkpt lat="37.455410000" lon="-3.917974000">
        <ele>917.5</ele>
        <time>2020-10-14T10:44:58Z</time>
      </trkpt>
      <trkpt lat="37.455372000" lon="-3.917863000">
        <ele>918.4</ele>
        <time>2020-10-14T10:45:03Z</time>
      </trkpt>
      <trkpt lat="37.455341000" lon="-3.917750000">
        <ele>919.3</ele>
        <time>2020-10-14T10:45:08Z</time>
      </trkpt>
      <trkpt lat="37.455298000" lon="-3.917638000">
        <ele>920.3</ele>
        <time>2020-10-14T10:45:13Z</time>
      </trkpt>
      <trkpt lat="37.455260000" lon="-3.917539000">
        <ele>921.4</ele>
        <time>2020-10-14T10:45:18Z</time>
      </trkpt>
      <trkpt lat="37.455229000" lon="-3.917430000">
        <ele>922.5</ele>
        <time>2020-10-14T10:45:24Z</time>
      </trkpt>
      <trkpt lat="37.455200000" lon="-3.917318000">
        <ele>923.7</ele>
        <time>2020-10-14T10:45:30Z</time>
      </trkpt>
      <trkpt lat="37.455179000" lon="-3.917217000">
        <ele>925.1</ele>
        <time>2020-10-14T10:45:35Z</time>
      </trkpt>
      <trkpt lat="37.455165000" lon="-3.917103000">
        <ele>926.4</ele>
        <time>2020-10-14T10:45:40Z</time>
      </trkpt>
      <trkpt lat="37.455148000" lon="-3.916986000">
        <ele>927.6</ele>
        <time>2020-10-14T10:45:45Z</time>
      </trkpt>
      <trkpt lat="37.455131000" lon="-3.916870000">
        <ele>928.9</ele>
        <time>2020-10-14T10:45:50Z</time>
      </trkpt>
      <trkpt lat="37.455120000" lon="-3.916765000">
        <ele>930.1</ele>
        <time>2020-10-14T10:45:55Z</time>
      </trkpt>
      <trkpt lat="37.455105000" lon="-3.916655000">
        <ele>931.1</ele>
        <time>2020-10-14T10:46:00Z</time>
      </trkpt>
      <trkpt lat="37.455082000" lon="-3.916547000">
        <ele>932.0</ele>
        <time>2020-10-14T10:46:05Z</time>
      </trkpt>
      <trkpt lat="37.455055000" lon="-3.916431000">
        <ele>932.8</ele>
        <time>2020-10-14T10:46:10Z</time>
      </trkpt>
      <trkpt lat="37.455027000" lon="-3.916313000">
        <ele>933.6</ele>
        <time>2020-10-14T10:46:15Z</time>
      </trkpt>
      <trkpt lat="37.455009000" lon="-3.916196000">
        <ele>934.4</ele>
        <time>2020-10-14T10:46:20Z</time>
      </trkpt>
      <trkpt lat="37.454988000" lon="-3.916086000">
        <ele>935.0</ele>
        <time>2020-10-14T10:46:26Z</time>
      </trkpt>
      <trkpt lat="37.454972000" lon="-3.915972000">
        <ele>935.5</ele>
        <time>2020-10-14T10:46:31Z</time>
      </trkpt>
      <trkpt lat="37.454965000" lon="-3.915869000">
        <ele>935.8</ele>
        <time>2020-10-14T10:46:35Z</time>
      </trkpt>
      <trkpt lat="37.454952000" lon="-3.915760000">
        <ele>936.2</ele>
        <time>2020-10-14T10:46:39Z</time>
      </trkpt>
      <trkpt lat="37.454951000" lon="-3.915653000">
        <ele>936.5</ele>
        <time>2020-10-14T10:46:44Z</time>
      </trkpt>
      <trkpt lat="37.454931000" lon="-3.915548000">
        <ele>936.8</ele>
        <time>2020-10-14T10:46:49Z</time>
      </trkpt>
      <trkpt lat="37.454930000" lon="-3.915424000">
        <ele>937.1</ele>
        <time>2020-10-14T10:46:54Z</time>
      </trkpt>
      <trkpt lat="37.454943000" lon="-3.915312000">
        <ele>937.3</ele>
        <time>2020-10-14T10:46:59Z</time>
      </trkpt>
      <trkpt lat="37.454953000" lon="-3.915200000">
        <ele>937.5</ele>
        <time>2020-10-14T10:47:04Z</time>
      </trkpt>
      <trkpt lat="37.454953000" lon="-3.915085000">
        <ele>937.7</ele>
        <time>2020-10-14T10:47:08Z</time>
      </trkpt>
      <trkpt lat="37.454950000" lon="-3.914981000">
        <ele>938.1</ele>
        <time>2020-10-14T10:47:11Z</time>
      </trkpt>
      <trkpt lat="37.454953000" lon="-3.914873000">
        <ele>938.5</ele>
        <time>2020-10-14T10:47:14Z</time>
      </trkpt>
      <trkpt lat="37.454957000" lon="-3.914769000">
        <ele>939.2</ele>
        <time>2020-10-14T10:47:17Z</time>
      </trkpt>
      <trkpt lat="37.454963000" lon="-3.914666000">
        <ele>940.0</ele>
        <time>2020-10-14T10:47:20Z</time>
      </trkpt>
      <trkpt lat="37.454980000" lon="-3.914535000">
        <ele>940.9</ele>
        <time>2020-10-14T10:47:24Z</time>
      </trkpt>
      <trkpt lat="37.454989000" lon="-3.914401000">
        <ele>941.7</ele>
        <time>2020-10-14T10:47:28Z</time>
      </trkpt>
      <trkpt lat="37.454987000" lon="-3.914267000">
        <ele>942.5</ele>
        <time>2020-10-14T10:47:32Z</time>
      </trkpt>
      <trkpt lat="37.454976000" lon="-3.914132000">
        <ele>943.3</ele>
        <time>2020-10-14T10:47:36Z</time>
      </trkpt>
      <trkpt lat="37.454967000" lon="-3.914003000">
        <ele>944.0</ele>
        <time>2020-10-14T10:47:40Z</time>
      </trkpt>
      <trkpt lat="37.454970000" lon="-3.913870000">
        <ele>944.6</ele>
        <time>2020-10-14T10:47:44Z</time>
      </trkpt>
      <trkpt lat="37.454968000" lon="-3.913735000">
        <ele>945.1</ele>
        <time>2020-10-14T10:47:48Z</time>
      </trkpt>
      <trkpt lat="37.454958000" lon="-3.913628000">
        <ele>945.5</ele>
        <time>2020-10-14T10:47:51Z</time>
      </trkpt>
      <trkpt lat="37.454954000" lon="-3.913522000">
        <ele>945.9</ele>
        <time>2020-10-14T10:47:54Z</time>
      </trkpt>
      <trkpt lat="37.454939000" lon="-3.913387000">
        <ele>946.2</ele>
        <time>2020-10-14T10:47:58Z</time>
      </trkpt>
      <trkpt lat="37.454933000" lon="-3.913256000">
        <ele>946.5</ele>
        <time>2020-10-14T10:48:02Z</time>
      </trkpt>
      <trkpt lat="37.454929000" lon="-3.913126000">
        <ele>946.8</ele>
        <time>2020-10-14T10:48:06Z</time>
      </trkpt>
      <trkpt lat="37.454928000" lon="-3.912994000">
        <ele>947.4</ele>
        <time>2020-10-14T10:48:10Z</time>
      </trkpt>
      <trkpt lat="37.454952000" lon="-3.912876000">
        <ele>948.2</ele>
        <time>2020-10-14T10:48:14Z</time>
      </trkpt>
      <trkpt lat="37.454981000" lon="-3.912765000">
        <ele>949.2</ele>
        <time>2020-10-14T10:48:19Z</time>
      </trkpt>
      <trkpt lat="37.455008000" lon="-3.912652000">
        <ele>950.2</ele>
        <time>2020-10-14T10:48:25Z</time>
      </trkpt>
      <trkpt lat="37.454987000" lon="-3.912528000">
        <ele>951.1</ele>
        <time>2020-10-14T10:48:29Z</time>
      </trkpt>
      <trkpt lat="37.454978000" lon="-3.912413000">
        <ele>951.9</ele>
        <time>2020-10-14T10:48:32Z</time>
      </trkpt>
      <trkpt lat="37.454989000" lon="-3.912282000">
        <ele>952.5</ele>
        <time>2020-10-14T10:48:35Z</time>
      </trkpt>
      <trkpt lat="37.455008000" lon="-3.912150000">
        <ele>953.2</ele>
        <time>2020-10-14T10:48:38Z</time>
      </trkpt>
      <trkpt lat="37.455091000" lon="-3.912057000">
        <ele>953.7</ele>
        <time>2020-10-14T10:48:41Z</time>
      </trkpt>
      <trkpt lat="37.455185000" lon="-3.911978000">
        <ele>954.1</ele>
        <time>2020-10-14T10:48:44Z</time>
      </trkpt>
      <trkpt lat="37.455268000" lon="-3.911886000">
        <ele>954.3</ele>
        <time>2020-10-14T10:48:47Z</time>
      </trkpt>
      <trkpt lat="37.455344000" lon="-3.911787000">
        <ele>954.2</ele>
        <time>2020-10-14T10:48:50Z</time>
      </trkpt>
      <trkpt lat="37.455417000" lon="-3.911687000">
        <ele>953.7</ele>
        <time>2020-10-14T10:48:53Z</time>
      </trkpt>
      <trkpt lat="37.455484000" lon="-3.911591000">
        <ele>952.9</ele>
        <time>2020-10-14T10:48:56Z</time>
      </trkpt>
      <trkpt lat="37.455555000" lon="-3.911489000">
        <ele>952.0</ele>
        <time>2020-10-14T10:48:59Z</time>
      </trkpt>
      <trkpt lat="37.455627000" lon="-3.911367000">
        <ele>951.0</ele>
        <time>2020-10-14T10:49:02Z</time>
      </trkpt>
      <trkpt lat="37.455676000" lon="-3.911282000">
        <ele>950.0</ele>
        <time>2020-10-14T10:49:04Z</time>
      </trkpt>
      <trkpt lat="37.455731000" lon="-3.911193000">
        <ele>949.0</ele>
        <time>2020-10-14T10:49:06Z</time>
      </trkpt>
      <trkpt lat="37.455795000" lon="-3.911079000">
        <ele>947.9</ele>
        <time>2020-10-14T10:49:08Z</time>
      </trkpt>
      <trkpt lat="37.455875000" lon="-3.910948000">
        <ele>946.9</ele>
        <time>2020-10-14T10:49:10Z</time>
      </trkpt>
      <trkpt lat="37.455963000" lon="-3.910796000">
        <ele>946.0</ele>
        <time>2020-10-14T10:49:12Z</time>
      </trkpt>
      <trkpt lat="37.456050000" lon="-3.910626000">
        <ele>945.0</ele>
        <time>2020-10-14T10:49:14Z</time>
      </trkpt>
      <trkpt lat="37.456094000" lon="-3.910540000">
        <ele>944.1</ele>
        <time>2020-10-14T10:49:15Z</time>
      </trkpt>
      <trkpt lat="37.456138000" lon="-3.910450000">
        <ele>943.2</ele>
        <time>2020-10-14T10:49:16Z</time>
      </trkpt>
      <trkpt lat="37.456183000" lon="-3.910362000">
        <ele>942.4</ele>
        <time>2020-10-14T10:49:17Z</time>
      </trkpt>
      <trkpt lat="37.456229000" lon="-3.910275000">
        <ele>941.5</ele>
        <time>2020-10-14T10:49:18Z</time>
      </trkpt>
      <trkpt lat="37.456273000" lon="-3.910186000">
        <ele>940.9</ele>
        <time>2020-10-14T10:49:19Z</time>
      </trkpt>
      <trkpt lat="37.456317000" lon="-3.910093000">
        <ele>940.3</ele>
        <time>2020-10-14T10:49:20Z</time>
      </trkpt>
      <trkpt lat="37.456351000" lon="-3.909999000">
        <ele>939.6</ele>
        <time>2020-10-14T10:49:21Z</time>
      </trkpt>
      <trkpt lat="37.456389000" lon="-3.909896000">
        <ele>939.0</ele>
        <time>2020-10-14T10:49:22Z</time>
      </trkpt>
      <trkpt lat="37.456431000" lon="-3.909794000">
        <ele>938.4</ele>
        <time>2020-10-14T10:49:23Z</time>
      </trkpt>
      <trkpt lat="37.456478000" lon="-3.909695000">
        <ele>937.6</ele>
        <time>2020-10-14T10:49:24Z</time>
      </trkpt>
      <trkpt lat="37.456528000" lon="-3.909595000">
        <ele>936.9</ele>
        <time>2020-10-14T10:49:25Z</time>
      </trkpt>
      <trkpt lat="37.456582000" lon="-3.909501000">
        <ele>936.2</ele>
        <time>2020-10-14T10:49:26Z</time>
      </trkpt>
      <trkpt lat="37.456639000" lon="-3.909421000">
        <ele>935.5</ele>
        <time>2020-10-14T10:49:27Z</time>
      </trkpt>
      <trkpt lat="37.456734000" lon="-3.909265000">
        <ele>935.0</ele>
        <time>2020-10-14T10:49:29Z</time>
      </trkpt>
      <trkpt lat="37.456812000" lon="-3.909100000">
        <ele>934.5</ele>
        <time>2020-10-14T10:49:31Z</time>
      </trkpt>
      <trkpt lat="37.456891000" lon="-3.908927000">
        <ele>933.9</ele>
        <time>2020-10-14T10:49:33Z</time>
      </trkpt>
      <trkpt lat="37.456933000" lon="-3.908837000">
        <ele>933.4</ele>
        <time>2020-10-14T10:49:34Z</time>
      </trkpt>
      <trkpt lat="37.456973000" lon="-3.908748000">
        <ele>932.8</ele>
        <time>2020-10-14T10:49:35Z</time>
      </trkpt>
      <trkpt lat="37.457013000" lon="-3.908658000">
        <ele>932.4</ele>
        <time>2020-10-14T10:49:36Z</time>
      </trkpt>
      <trkpt lat="37.457052000" lon="-3.908567000">
        <ele>931.8</ele>
        <time>2020-10-14T10:49:37Z</time>
      </trkpt>
      <trkpt lat="37.457090000" lon="-3.908475000">
        <ele>931.3</ele>
        <time>2020-10-14T10:49:38Z</time>
      </trkpt>
      <trkpt lat="37.457161000" lon="-3.908304000">
        <ele>930.6</ele>
        <time>2020-10-14T10:49:40Z</time>
      </trkpt>
      <trkpt lat="37.457219000" lon="-3.908141000">
        <ele>929.8</ele>
        <time>2020-10-14T10:49:42Z</time>
      </trkpt>
      <trkpt lat="37.457266000" lon="-3.907964000">
        <ele>929.0</ele>
        <time>2020-10-14T10:49:44Z</time>
      </trkpt>
      <trkpt lat="37.457306000" lon="-3.907781000">
        <ele>928.2</ele>
        <time>2020-10-14T10:49:46Z</time>
      </trkpt>
      <trkpt lat="37.457347000" lon="-3.907599000">
        <ele>927.4</ele>
        <time>2020-10-14T10:49:48Z</time>
      </trkpt>
      <trkpt lat="37.457387000" lon="-3.907420000">
        <ele>926.5</ele>
        <time>2020-10-14T10:49:50Z</time>
      </trkpt>
      <trkpt lat="37.457422000" lon="-3.907239000">
        <ele>925.7</ele>
        <time>2020-10-14T10:49:52Z</time>
      </trkpt>
      <trkpt lat="37.457463000" lon="-3.907073000">
        <ele>924.9</ele>
        <time>2020-10-14T10:49:54Z</time>
      </trkpt>
      <trkpt lat="37.457498000" lon="-3.906904000">
        <ele>924.0</ele>
        <time>2020-10-14T10:49:56Z</time>
      </trkpt>
      <trkpt lat="37.457521000" lon="-3.906724000">
        <ele>923.2</ele>
        <time>2020-10-14T10:49:58Z</time>
      </trkpt>
      <trkpt lat="37.457540000" lon="-3.906539000">
        <ele>922.4</ele>
        <time>2020-10-14T10:50:00Z</time>
      </trkpt>
      <trkpt lat="37.457556000" lon="-3.906373000">
        <ele>921.7</ele>
        <time>2020-10-14T10:50:02Z</time>
      </trkpt>
      <trkpt lat="37.457564000" lon="-3.906196000">
        <ele>921.3</ele>
        <time>2020-10-14T10:50:04Z</time>
      </trkpt>
      <trkpt lat="37.457569000" lon="-3.906006000">
        <ele>920.7</ele>
        <time>2020-10-14T10:50:06Z</time>
      </trkpt>
      <trkpt lat="37.457573000" lon="-3.905808000">
        <ele>920.2</ele>
        <time>2020-10-14T10:50:08Z</time>
      </trkpt>
      <trkpt lat="37.457574000" lon="-3.905706000">
        <ele>919.6</ele>
        <time>2020-10-14T10:50:09Z</time>
      </trkpt>
      <trkpt lat="37.457575000" lon="-3.905601000">
        <ele>919.0</ele>
        <time>2020-10-14T10:50:10Z</time>
      </trkpt>
      <trkpt lat="37.457577000" lon="-3.905488000">
        <ele>918.4</ele>
        <time>2020-10-14T10:50:11Z</time>
      </trkpt>
      <trkpt lat="37.457571000" lon="-3.905371000">
        <ele>917.8</ele>
        <time>2020-10-14T10:50:12Z</time>
      </trkpt>
      <trkpt lat="37.457570000" lon="-3.905253000">
        <ele>917.3</ele>
        <time>2020-10-14T10:50:13Z</time>
      </trkpt>
      <trkpt lat="37.457564000" lon="-3.905135000">
        <ele>916.7</ele>
        <time>2020-10-14T10:50:14Z</time>
      </trkpt>
      <trkpt lat="37.457561000" lon="-3.905013000">
        <ele>916.3</ele>
        <time>2020-10-14T10:50:15Z</time>
      </trkpt>
      <trkpt lat="37.457561000" lon="-3.904892000">
        <ele>915.8</ele>
        <time>2020-10-14T10:50:16Z</time>
      </trkpt>
      <trkpt lat="37.457558000" lon="-3.904771000">
        <ele>915.4</ele>
        <time>2020-10-14T10:50:17Z</time>
      </trkpt>
      <trkpt lat="37.457554000" lon="-3.904650000">
        <ele>914.9</ele>
        <time>2020-10-14T10:50:18Z</time>
      </trkpt>
      <trkpt lat="37.457549000" lon="-3.904529000">
        <ele>914.4</ele>
        <time>2020-10-14T10:50:19Z</time>
      </trkpt>
      <trkpt lat="37.457545000" lon="-3.904409000">
        <ele>913.8</ele>
        <time>2020-10-14T10:50:20Z</time>
      </trkpt>
      <trkpt lat="37.457541000" lon="-3.904288000">
        <ele>913.3</ele>
        <time>2020-10-14T10:50:21Z</time>
      </trkpt>
      <trkpt lat="37.457538000" lon="-3.904164000">
        <ele>912.7</ele>
        <time>2020-10-14T10:50:22Z</time>
      </trkpt>
      <trkpt lat="37.457536000" lon="-3.904044000">
        <ele>912.1</ele>
        <time>2020-10-14T10:50:23Z</time>
      </trkpt>
      <trkpt lat="37.457533000" lon="-3.903921000">
        <ele>911.5</ele>
        <time>2020-10-14T10:50:24Z</time>
      </trkpt>
      <trkpt lat="37.457528000" lon="-3.903798000">
        <ele>910.8</ele>
        <time>2020-10-14T10:50:25Z</time>
      </trkpt>
      <trkpt lat="37.457524000" lon="-3.903679000">
        <ele>910.1</ele>
        <time>2020-10-14T10:50:26Z</time>
      </trkpt>
      <trkpt lat="37.457521000" lon="-3.903558000">
        <ele>909.4</ele>
        <time>2020-10-14T10:50:27Z</time>
      </trkpt>
      <trkpt lat="37.457515000" lon="-3.903442000">
        <ele>908.5</ele>
        <time>2020-10-14T10:50:28Z</time>
      </trkpt>
      <trkpt lat="37.457510000" lon="-3.903325000">
        <ele>907.7</ele>
        <time>2020-10-14T10:50:29Z</time>
      </trkpt>
      <trkpt lat="37.457504000" lon="-3.903214000">
        <ele>907.1</ele>
        <time>2020-10-14T10:50:30Z</time>
      </trkpt>
      <trkpt lat="37.457497000" lon="-3.903111000">
        <ele>906.7</ele>
        <time>2020-10-14T10:50:31Z</time>
      </trkpt>
      <trkpt lat="37.457494000" lon="-3.903004000">
        <ele>906.6</ele>
        <time>2020-10-14T10:50:32Z</time>
      </trkpt>
      <trkpt lat="37.457491000" lon="-3.902813000">
        <ele>906.7</ele>
        <time>2020-10-14T10:50:34Z</time>
      </trkpt>
      <trkpt lat="37.457487000" lon="-3.902644000">
        <ele>906.9</ele>
        <time>2020-10-14T10:50:36Z</time>
      </trkpt>
      <trkpt lat="37.457437000" lon="-3.902503000">
        <ele>907.1</ele>
        <time>2020-10-14T10:50:38Z</time>
      </trkpt>
      <trkpt lat="37.457378000" lon="-3.902366000">
        <ele>907.3</ele>
        <time>2020-10-14T10:50:40Z</time>
      </trkpt>
      <trkpt lat="37.457374000" lon="-3.902215000">
        <ele>907.5</ele>
        <time>2020-10-14T10:50:42Z</time>
      </trkpt>
      <trkpt lat="37.457415000" lon="-3.902080000">
        <ele>907.8</ele>
        <time>2020-10-14T10:50:44Z</time>
      </trkpt>
      <trkpt lat="37.457448000" lon="-3.901956000">
        <ele>908.3</ele>
        <time>2020-10-14T10:50:46Z</time>
      </trkpt>
      <trkpt lat="37.457446000" lon="-3.901826000">
        <ele>908.6</ele>
        <time>2020-10-14T10:50:48Z</time>
      </trkpt>
      <trkpt lat="37.457439000" lon="-3.901695000">
        <ele>909.0</ele>
        <time>2020-10-14T10:50:50Z</time>
      </trkpt>
      <trkpt lat="37.457427000" lon="-3.901569000">
        <ele>909.2</ele>
        <time>2020-10-14T10:50:52Z</time>
      </trkpt>
      <trkpt lat="37.457417000" lon="-3.901435000">
        <ele>909.2</ele>
        <time>2020-10-14T10:50:54Z</time>
      </trkpt>
      <trkpt lat="37.457400000" lon="-3.901317000">
        <ele>909.2</ele>
        <time>2020-10-14T10:50:56Z</time>
      </trkpt>
      <trkpt lat="37.457402000" lon="-3.901426000">
        <ele>909.2</ele>
        <time>2020-10-14T10:51:22Z</time>
      </trkpt>
      <trkpt lat="37.457418000" lon="-3.901533000">
        <ele>909.2</ele>
        <time>2020-10-14T10:51:27Z</time>
      </trkpt>
      <trkpt lat="37.457429000" lon="-3.901657000">
        <ele>909.1</ele>
        <time>2020-10-14T10:51:31Z</time>
      </trkpt>
      <trkpt lat="37.457435000" lon="-3.901779000">
        <ele>908.9</ele>
        <time>2020-10-14T10:51:34Z</time>
      </trkpt>
      <trkpt lat="37.457441000" lon="-3.901905000">
        <ele>908.5</ele>
        <time>2020-10-14T10:51:37Z</time>
      </trkpt>
      <trkpt lat="37.457425000" lon="-3.902036000">
        <ele>908.2</ele>
        <time>2020-10-14T10:51:40Z</time>
      </trkpt>
      <trkpt lat="37.457377000" lon="-3.902153000">
        <ele>907.7</ele>
        <time>2020-10-14T10:51:43Z</time>
      </trkpt>
      <trkpt lat="37.457352000" lon="-3.902279000">
        <ele>907.4</ele>
        <time>2020-10-14T10:51:46Z</time>
      </trkpt>
      <trkpt lat="37.457372000" lon="-3.902412000">
        <ele>907.1</ele>
        <time>2020-10-14T10:51:49Z</time>
      </trkpt>
      <trkpt lat="37.457431000" lon="-3.902522000">
        <ele>906.8</ele>
        <time>2020-10-14T10:51:52Z</time>
      </trkpt>
      <trkpt lat="37.457473000" lon="-3.902628000">
        <ele>906.5</ele>
        <time>2020-10-14T10:51:55Z</time>
      </trkpt>
      <trkpt lat="37.457480000" lon="-3.902753000">
        <ele>906.4</ele>
        <time>2020-10-14T10:51:58Z</time>
      </trkpt>
      <trkpt lat="37.457484000" lon="-3.902886000">
        <ele>906.3</ele>
        <time>2020-10-14T10:52:01Z</time>
      </trkpt>
      <trkpt lat="37.457489000" lon="-3.903018000">
        <ele>906.3</ele>
        <time>2020-10-14T10:52:04Z</time>
      </trkpt>
      <trkpt lat="37.457493000" lon="-3.903153000">
        <ele>906.3</ele>
        <time>2020-10-14T10:52:07Z</time>
      </trkpt>
      <trkpt lat="37.457495000" lon="-3.903292000">
        <ele>906.4</ele>
        <time>2020-10-14T10:52:10Z</time>
      </trkpt>
      <trkpt lat="37.457491000" lon="-3.903427000">
        <ele>906.5</ele>
        <time>2020-10-14T10:52:13Z</time>
      </trkpt>
      <trkpt lat="37.457571000" lon="-3.903471000">
        <ele>906.5</ele>
        <time>2020-10-14T10:52:18Z</time>
      </trkpt>
      <trkpt lat="37.457581000" lon="-3.903356000">
        <ele>906.5</ele>
        <time>2020-10-14T10:52:21Z</time>
      </trkpt>
      <trkpt lat="37.457587000" lon="-3.903200000">
        <ele>906.5</ele>
        <time>2020-10-14T10:52:24Z</time>
      </trkpt>
      <trkpt lat="37.457584000" lon="-3.903067000">
        <ele>906.5</ele>
        <time>2020-10-14T10:52:26Z</time>
      </trkpt>
      <trkpt lat="37.457587000" lon="-3.902932000">
        <ele>906.6</ele>
        <time>2020-10-14T10:52:28Z</time>
      </trkpt>
      <trkpt lat="37.457583000" lon="-3.902790000">
        <ele>906.6</ele>
        <time>2020-10-14T10:52:30Z</time>
      </trkpt>
      <trkpt lat="37.457570000" lon="-3.902644000">
        <ele>906.6</ele>
        <time>2020-10-14T10:52:32Z</time>
      </trkpt>
      <trkpt lat="37.457527000" lon="-3.902503000">
        <ele>906.5</ele>
        <time>2020-10-14T10:52:34Z</time>
      </trkpt>
      <trkpt lat="37.457497000" lon="-3.902350000">
        <ele>906.5</ele>
        <time>2020-10-14T10:52:36Z</time>
      </trkpt>
      <trkpt lat="37.457513000" lon="-3.902204000">
        <ele>906.6</ele>
        <time>2020-10-14T10:52:38Z</time>
      </trkpt>
      <trkpt lat="37.457595000" lon="-3.902113000">
        <ele>906.6</ele>
        <time>2020-10-14T10:52:40Z</time>
      </trkpt>
      <trkpt lat="37.457693000" lon="-3.902085000">
        <ele>906.6</ele>
        <time>2020-10-14T10:52:42Z</time>
      </trkpt>
      <trkpt lat="37.457794000" lon="-3.902067000">
        <ele>906.7</ele>
        <time>2020-10-14T10:52:44Z</time>
      </trkpt>
      <trkpt lat="37.457890000" lon="-3.902021000">
        <ele>906.8</ele>
        <time>2020-10-14T10:52:46Z</time>
      </trkpt>
      <trkpt lat="37.457978000" lon="-3.901928000">
        <ele>906.8</ele>
        <time>2020-10-14T10:52:48Z</time>
      </trkpt>
      <trkpt lat="37.458039000" lon="-3.901797000">
        <ele>906.7</ele>
        <time>2020-10-14T10:52:50Z</time>
      </trkpt>
      <trkpt lat="37.458079000" lon="-3.901646000">
        <ele>906.6</ele>
        <time>2020-10-14T10:52:52Z</time>
      </trkpt>
      <trkpt lat="37.458120000" lon="-3.901485000">
        <ele>906.5</ele>
        <time>2020-10-14T10:52:54Z</time>
      </trkpt>
      <trkpt lat="37.458167000" lon="-3.901319000">
        <ele>906.2</ele>
        <time>2020-10-14T10:52:56Z</time>
      </trkpt>
      <trkpt lat="37.458232000" lon="-3.901150000">
        <ele>905.9</ele>
        <time>2020-10-14T10:52:58Z</time>
      </trkpt>
      <trkpt lat="37.458314000" lon="-3.900990000">
        <ele>905.6</ele>
        <time>2020-10-14T10:53:00Z</time>
      </trkpt>
      <trkpt lat="37.458411000" lon="-3.900843000">
        <ele>905.5</ele>
        <time>2020-10-14T10:53:02Z</time>
      </trkpt>
      <trkpt lat="37.458517000" lon="-3.900703000">
        <ele>905.4</ele>
        <time>2020-10-14T10:53:04Z</time>
      </trkpt>
      <trkpt lat="37.458617000" lon="-3.900566000">
        <ele>905.3</ele>
        <time>2020-10-14T10:53:06Z</time>
      </trkpt>
      <trkpt lat="37.458698000" lon="-3.900447000">
        <ele>905.2</ele>
        <time>2020-10-14T10:53:08Z</time>
      </trkpt>
      <trkpt lat="37.458775000" lon="-3.900344000">
        <ele>905.0</ele>
        <time>2020-10-14T10:53:10Z</time>
      </trkpt>
      <trkpt lat="37.458865000" lon="-3.900265000">
        <ele>904.8</ele>
        <time>2020-10-14T10:53:12Z</time>
      </trkpt>
      <trkpt lat="37.458933000" lon="-3.900172000">
        <ele>904.6</ele>
        <time>2020-10-14T10:53:14Z</time>
      </trkpt>
      <trkpt lat="37.458998000" lon="-3.900073000">
        <ele>904.5</ele>
        <time>2020-10-14T10:53:16Z</time>
      </trkpt>
      <trkpt lat="37.459054000" lon="-3.899983000">
        <ele>904.5</ele>
        <time>2020-10-14T10:53:18Z</time>
      </trkpt>
      <trkpt lat="37.459103000" lon="-3.899882000">
        <ele>904.5</ele>
        <time>2020-10-14T10:53:20Z</time>
      </trkpt>
      <trkpt lat="37.459145000" lon="-3.899775000">
        <ele>904.5</ele>
        <time>2020-10-14T10:53:22Z</time>
      </trkpt>
      <trkpt lat="37.459189000" lon="-3.899669000">
        <ele>904.5</ele>
        <time>2020-10-14T10:53:24Z</time>
      </trkpt>
      <trkpt lat="37.459228000" lon="-3.899564000">
        <ele>904.5</ele>
        <time>2020-10-14T10:53:26Z</time>
      </trkpt>
      <trkpt lat="37.459267000" lon="-3.899456000">
        <ele>904.4</ele>
        <time>2020-10-14T10:53:28Z</time>
      </trkpt>
      <trkpt lat="37.459309000" lon="-3.899354000">
        <ele>904.2</ele>
        <time>2020-10-14T10:53:30Z</time>
      </trkpt>
      <trkpt lat="37.459348000" lon="-3.899245000">
        <ele>904.0</ele>
        <time>2020-10-14T10:53:32Z</time>
      </trkpt>
      <trkpt lat="37.459386000" lon="-3.899140000">
        <ele>903.8</ele>
        <time>2020-10-14T10:53:34Z</time>
      </trkpt>
      <trkpt lat="37.459427000" lon="-3.899041000">
        <ele>903.6</ele>
        <time>2020-10-14T10:53:36Z</time>
      </trkpt>
      <trkpt lat="37.459469000" lon="-3.898949000">
        <ele>903.5</ele>
        <time>2020-10-14T10:53:38Z</time>
      </trkpt>
      <trkpt lat="37.459515000" lon="-3.898857000">
        <ele>903.5</ele>
        <time>2020-10-14T10:53:40Z</time>
      </trkpt>
      <trkpt lat="37.459569000" lon="-3.898773000">
        <ele>903.5</ele>
        <time>2020-10-14T10:53:42Z</time>
      </trkpt>
      <trkpt lat="37.459619000" lon="-3.898676000">
        <ele>903.5</ele>
        <time>2020-10-14T10:53:44Z</time>
      </trkpt>
      <trkpt lat="37.459674000" lon="-3.898583000">
        <ele>903.6</ele>
        <time>2020-10-14T10:53:46Z</time>
      </trkpt>
      <trkpt lat="37.459731000" lon="-3.898486000">
        <ele>903.7</ele>
        <time>2020-10-14T10:53:48Z</time>
      </trkpt>
      <trkpt lat="37.459787000" lon="-3.898387000">
        <ele>904.0</ele>
        <time>2020-10-14T10:53:50Z</time>
      </trkpt>
      <trkpt lat="37.459841000" lon="-3.898286000">
        <ele>904.3</ele>
        <time>2020-10-14T10:53:52Z</time>
      </trkpt>
      <trkpt lat="37.459887000" lon="-3.898192000">
        <ele>904.5</ele>
        <time>2020-10-14T10:53:54Z</time>
      </trkpt>
      <trkpt lat="37.459929000" lon="-3.898087000">
        <ele>904.8</ele>
        <time>2020-10-14T10:53:56Z</time>
      </trkpt>
      <trkpt lat="37.459967000" lon="-3.897987000">
        <ele>905.1</ele>
        <time>2020-10-14T10:53:58Z</time>
      </trkpt>
      <trkpt lat="37.459995000" lon="-3.897883000">
        <ele>905.4</ele>
        <time>2020-10-14T10:54:00Z</time>
      </trkpt>
      <trkpt lat="37.460014000" lon="-3.897779000">
        <ele>905.5</ele>
        <time>2020-10-14T10:54:02Z</time>
      </trkpt>
      <trkpt lat="37.460035000" lon="-3.897671000">
        <ele>905.6</ele>
        <time>2020-10-14T10:54:04Z</time>
      </trkpt>
      <trkpt lat="37.460064000" lon="-3.897530000">
        <ele>905.6</ele>
        <time>2020-10-14T10:54:07Z</time>
      </trkpt>
      <trkpt lat="37.460086000" lon="-3.897389000">
        <ele>905.6</ele>
        <time>2020-10-14T10:54:10Z</time>
      </trkpt>
      <trkpt lat="37.460106000" lon="-3.897241000">
        <ele>905.5</ele>
        <time>2020-10-14T10:54:13Z</time>
      </trkpt>
      <trkpt lat="37.460131000" lon="-3.897094000">
        <ele>905.5</ele>
        <time>2020-10-14T10:54:16Z</time>
      </trkpt>
      <trkpt lat="37.460157000" lon="-3.896947000">
        <ele>905.4</ele>
        <time>2020-10-14T10:54:19Z</time>
      </trkpt>
      <trkpt lat="37.460181000" lon="-3.896849000">
        <ele>905.3</ele>
        <time>2020-10-14T10:54:21Z</time>
      </trkpt>
      <trkpt lat="37.460200000" lon="-3.896746000">
        <ele>905.3</ele>
        <time>2020-10-14T10:54:23Z</time>
      </trkpt>
      <trkpt lat="37.460219000" lon="-3.896638000">
        <ele>905.4</ele>
        <time>2020-10-14T10:54:25Z</time>
      </trkpt>
      <trkpt lat="37.460241000" lon="-3.896520000">
        <ele>905.5</ele>
        <time>2020-10-14T10:54:27Z</time>
      </trkpt>
      <trkpt lat="37.460267000" lon="-3.896411000">
        <ele>905.8</ele>
        <time>2020-10-14T10:54:29Z</time>
      </trkpt>
      <trkpt lat="37.460291000" lon="-3.896301000">
        <ele>906.2</ele>
        <time>2020-10-14T10:54:31Z</time>
      </trkpt>
      <trkpt lat="37.460313000" lon="-3.896186000">
        <ele>906.5</ele>
        <time>2020-10-14T10:54:33Z</time>
      </trkpt>
      <trkpt lat="37.460329000" lon="-3.896080000">
        <ele>906.9</ele>
        <time>2020-10-14T10:54:35Z</time>
      </trkpt>
      <trkpt lat="37.460351000" lon="-3.895970000">
        <ele>907.4</ele>
        <time>2020-10-14T10:54:37Z</time>
      </trkpt>
      <trkpt lat="37.460368000" lon="-3.895858000">
        <ele>907.7</ele>
        <time>2020-10-14T10:54:39Z</time>
      </trkpt>
      <trkpt lat="37.460386000" lon="-3.895742000">
        <ele>908.2</ele>
        <time>2020-10-14T10:54:41Z</time>
      </trkpt>
      <trkpt lat="37.460406000" lon="-3.895632000">
        <ele>908.7</ele>
        <time>2020-10-14T10:54:43Z</time>
      </trkpt>
      <trkpt lat="37.460422000" lon="-3.895521000">
        <ele>909.3</ele>
        <time>2020-10-14T10:54:45Z</time>
      </trkpt>
      <trkpt lat="37.460444000" lon="-3.895413000">
        <ele>909.7</ele>
        <time>2020-10-14T10:54:47Z</time>
      </trkpt>
      <trkpt lat="37.460462000" lon="-3.895263000">
        <ele>910.2</ele>
        <time>2020-10-14T10:54:50Z</time>
      </trkpt>
      <trkpt lat="37.460478000" lon="-3.895129000">
        <ele>910.6</ele>
        <time>2020-10-14T10:54:53Z</time>
      </trkpt>
      <trkpt lat="37.460492000" lon="-3.895002000">
        <ele>911.1</ele>
        <time>2020-10-14T10:54:56Z</time>
      </trkpt>
      <trkpt lat="37.460503000" lon="-3.894882000">
        <ele>911.5</ele>
        <time>2020-10-14T10:54:59Z</time>
      </trkpt>
      <trkpt lat="37.460519000" lon="-3.894751000">
        <ele>912.0</ele>
        <time>2020-10-14T10:55:02Z</time>
      </trkpt>
      <trkpt lat="37.460538000" lon="-3.894621000">
        <ele>912.5</ele>
        <time>2020-10-14T10:55:05Z</time>
      </trkpt>
      <trkpt lat="37.460546000" lon="-3.894510000">
        <ele>912.9</ele>
        <time>2020-10-14T10:55:08Z</time>
      </trkpt>
      <trkpt lat="37.460561000" lon="-3.894405000">
        <ele>913.4</ele>
        <time>2020-10-14T10:55:11Z</time>
      </trkpt>
      <trkpt lat="37.460571000" lon="-3.894273000">
        <ele>913.8</ele>
        <time>2020-10-14T10:55:15Z</time>
      </trkpt>
      <trkpt lat="37.460573000" lon="-3.894141000">
        <ele>914.3</ele>
        <time>2020-10-14T10:55:19Z</time>
      </trkpt>
      <trkpt lat="37.460581000" lon="-3.894010000">
        <ele>914.7</ele>
        <time>2020-10-14T10:55:23Z</time>
      </trkpt>
      <trkpt lat="37.460581000" lon="-3.893874000">
        <ele>915.2</ele>
        <time>2020-10-14T10:55:27Z</time>
      </trkpt>
      <trkpt lat="37.460592000" lon="-3.893742000">
        <ele>915.6</ele>
        <time>2020-10-14T10:55:31Z</time>
      </trkpt>
      <trkpt lat="37.460596000" lon="-3.893616000">
        <ele>916.2</ele>
        <time>2020-10-14T10:55:35Z</time>
      </trkpt>
      <trkpt lat="37.460605000" lon="-3.893496000">
        <ele>916.8</ele>
        <time>2020-10-14T10:55:39Z</time>
      </trkpt>
      <trkpt lat="37.460605000" lon="-3.893384000">
        <ele>917.5</ele>
        <time>2020-10-14T10:55:43Z</time>
      </trkpt>
      <trkpt lat="37.460608000" lon="-3.893266000">
        <ele>918.1</ele>
        <time>2020-10-14T10:55:47Z</time>
      </trkpt>
      <trkpt lat="37.460612000" lon="-3.893159000">
        <ele>918.7</ele>
        <time>2020-10-14T10:55:51Z</time>
      </trkpt>
      <trkpt lat="37.460606000" lon="-3.893039000">
        <ele>919.4</ele>
        <time>2020-10-14T10:55:55Z</time>
      </trkpt>
      <trkpt lat="37.460611000" lon="-3.892916000">
        <ele>919.9</ele>
        <time>2020-10-14T10:55:59Z</time>
      </trkpt>
      <trkpt lat="37.460615000" lon="-3.892790000">
        <ele>920.4</ele>
        <time>2020-10-14T10:56:03Z</time>
      </trkpt>
      <trkpt lat="37.460617000" lon="-3.892682000">
        <ele>920.8</ele>
        <time>2020-10-14T10:56:06Z</time>
      </trkpt>
      <trkpt lat="37.460621000" lon="-3.892579000">
        <ele>921.3</ele>
        <time>2020-10-14T10:56:09Z</time>
      </trkpt>
      <trkpt lat="37.460629000" lon="-3.892444000">
        <ele>921.6</ele>
        <time>2020-10-14T10:56:13Z</time>
      </trkpt>
      <trkpt lat="37.460642000" lon="-3.892333000">
        <ele>921.8</ele>
        <time>2020-10-14T10:56:16Z</time>
      </trkpt>
      <trkpt lat="37.460663000" lon="-3.892209000">
        <ele>921.9</ele>
        <time>2020-10-14T10:56:19Z</time>
      </trkpt>
      <trkpt lat="37.460695000" lon="-3.892084000">
        <ele>922.0</ele>
        <time>2020-10-14T10:56:22Z</time>
      </trkpt>
      <trkpt lat="37.460743000" lon="-3.891961000">
        <ele>922.1</ele>
        <time>2020-10-14T10:56:25Z</time>
      </trkpt>
      <trkpt lat="37.460809000" lon="-3.891834000">
        <ele>922.2</ele>
        <time>2020-10-14T10:56:28Z</time>
      </trkpt>
      <trkpt lat="37.460859000" lon="-3.891751000">
        <ele>922.2</ele>
        <time>2020-10-14T10:56:30Z</time>
      </trkpt>
      <trkpt lat="37.460916000" lon="-3.891667000">
        <ele>922.2</ele>
        <time>2020-10-14T10:56:32Z</time>
      </trkpt>
      <trkpt lat="37.460978000" lon="-3.891579000">
        <ele>922.2</ele>
        <time>2020-10-14T10:56:34Z</time>
      </trkpt>
      <trkpt lat="37.461041000" lon="-3.891484000">
        <ele>922.2</ele>
        <time>2020-10-14T10:56:36Z</time>
      </trkpt>
      <trkpt lat="37.461103000" lon="-3.891382000">
        <ele>922.0</ele>
        <time>2020-10-14T10:56:38Z</time>
      </trkpt>
      <trkpt lat="37.461158000" lon="-3.891282000">
        <ele>921.7</ele>
        <time>2020-10-14T10:56:40Z</time>
      </trkpt>
      <trkpt lat="37.461207000" lon="-3.891179000">
        <ele>921.5</ele>
        <time>2020-10-14T10:56:42Z</time>
      </trkpt>
      <trkpt lat="37.461251000" lon="-3.891066000">
        <ele>921.4</ele>
        <time>2020-10-14T10:56:44Z</time>
      </trkpt>
      <trkpt lat="37.461291000" lon="-3.890949000">
        <ele>921.2</ele>
        <time>2020-10-14T10:56:46Z</time>
      </trkpt>
      <trkpt lat="37.461328000" lon="-3.890829000">
        <ele>921.0</ele>
        <time>2020-10-14T10:56:48Z</time>
      </trkpt>
      <trkpt lat="37.461361000" lon="-3.890697000">
        <ele>920.7</ele>
        <time>2020-10-14T10:56:50Z</time>
      </trkpt>
      <trkpt lat="37.461390000" lon="-3.890555000">
        <ele>920.5</ele>
        <time>2020-10-14T10:56:52Z</time>
      </trkpt>
      <trkpt lat="37.461418000" lon="-3.890411000">
        <ele>920.2</ele>
        <time>2020-10-14T10:56:54Z</time>
      </trkpt>
      <trkpt lat="37.461447000" lon="-3.890260000">
        <ele>919.8</ele>
        <time>2020-10-14T10:56:56Z</time>
      </trkpt>
      <trkpt lat="37.461476000" lon="-3.890113000">
        <ele>919.5</ele>
        <time>2020-10-14T10:56:58Z</time>
      </trkpt>
      <trkpt lat="37.461502000" lon="-3.889960000">
        <ele>919.2</ele>
        <time>2020-10-14T10:57:00Z</time>
      </trkpt>
      <trkpt lat="37.461541000" lon="-3.889812000">
        <ele>919.1</ele>
        <time>2020-10-14T10:57:02Z</time>
      </trkpt>
      <trkpt lat="37.461576000" lon="-3.889663000">
        <ele>919.0</ele>
        <time>2020-10-14T10:57:04Z</time>
      </trkpt>
      <trkpt lat="37.461613000" lon="-3.889505000">
        <ele>919.0</ele>
        <time>2020-10-14T10:57:06Z</time>
      </trkpt>
      <trkpt lat="37.461649000" lon="-3.889345000">
        <ele>919.0</ele>
        <time>2020-10-14T10:57:08Z</time>
      </trkpt>
      <trkpt lat="37.461679000" lon="-3.889190000">
        <ele>919.1</ele>
        <time>2020-10-14T10:57:10Z</time>
      </trkpt>
      <trkpt lat="37.461713000" lon="-3.889041000">
        <ele>919.3</ele>
        <time>2020-10-14T10:57:12Z</time>
      </trkpt>
      <trkpt lat="37.461736000" lon="-3.888895000">
        <ele>919.5</ele>
        <time>2020-10-14T10:57:14Z</time>
      </trkpt>
      <trkpt lat="37.461765000" lon="-3.888756000">
        <ele>919.8</ele>
        <time>2020-10-14T10:57:16Z</time>
      </trkpt>
      <trkpt lat="37.461795000" lon="-3.888633000">
        <ele>920.2</ele>
        <time>2020-10-14T10:57:18Z</time>
      </trkpt>
      <trkpt lat="37.461832000" lon="-3.888523000">
        <ele>920.6</ele>
        <time>2020-10-14T10:57:20Z</time>
      </trkpt>
      <trkpt lat="37.461874000" lon="-3.888424000">
        <ele>921.1</ele>
        <time>2020-10-14T10:57:22Z</time>
      </trkpt>
      <trkpt lat="37.461922000" lon="-3.888338000">
        <ele>921.5</ele>
        <time>2020-10-14T10:57:24Z</time>
      </trkpt>
      <trkpt lat="37.461989000" lon="-3.888211000">
        <ele>921.9</ele>
        <time>2020-10-14T10:57:27Z</time>
      </trkpt>
      <trkpt lat="37.462065000" lon="-3.888097000">
        <ele>922.3</ele>
        <time>2020-10-14T10:57:30Z</time>
      </trkpt>
      <trkpt lat="37.462140000" lon="-3.887990000">
        <ele>922.7</ele>
        <time>2020-10-14T10:57:33Z</time>
      </trkpt>
      <trkpt lat="37.462222000" lon="-3.887891000">
        <ele>923.1</ele>
        <time>2020-10-14T10:57:36Z</time>
      </trkpt>
      <trkpt lat="37.462306000" lon="-3.887800000">
        <ele>923.5</ele>
        <time>2020-10-14T10:57:39Z</time>
      </trkpt>
      <trkpt lat="37.462386000" lon="-3.887709000">
        <ele>923.7</ele>
        <time>2020-10-14T10:57:42Z</time>
      </trkpt>
      <trkpt lat="37.462470000" lon="-3.887619000">
        <ele>924.0</ele>
        <time>2020-10-14T10:57:45Z</time>
      </trkpt>
      <trkpt lat="37.462557000" lon="-3.887532000">
        <ele>924.3</ele>
        <time>2020-10-14T10:57:48Z</time>
      </trkpt>
      <trkpt lat="37.462648000" lon="-3.887443000">
        <ele>924.4</ele>
        <time>2020-10-14T10:57:51Z</time>
      </trkpt>
      <trkpt lat="37.462740000" lon="-3.887343000">
        <ele>924.5</ele>
        <time>2020-10-14T10:57:54Z</time>
      </trkpt>
      <trkpt lat="37.462805000" lon="-3.887279000">
        <ele>924.5</ele>
        <time>2020-10-14T10:57:56Z</time>
      </trkpt>
      <trkpt lat="37.462871000" lon="-3.887208000">
        <ele>924.5</ele>
        <time>2020-10-14T10:57:58Z</time>
      </trkpt>
      <trkpt lat="37.462940000" lon="-3.887139000">
        <ele>924.5</ele>
        <time>2020-10-14T10:58:00Z</time>
      </trkpt>
      <trkpt lat="37.463006000" lon="-3.887070000">
        <ele>924.3</ele>
        <time>2020-10-14T10:58:02Z</time>
      </trkpt>
      <trkpt lat="37.463071000" lon="-3.887007000">
        <ele>924.1</ele>
        <time>2020-10-14T10:58:04Z</time>
      </trkpt>
      <trkpt lat="37.463136000" lon="-3.886939000">
        <ele>924.0</ele>
        <time>2020-10-14T10:58:06Z</time>
      </trkpt>
      <trkpt lat="37.463206000" lon="-3.886862000">
        <ele>923.9</ele>
        <time>2020-10-14T10:58:08Z</time>
      </trkpt>
      <trkpt lat="37.463287000" lon="-3.886789000">
        <ele>923.8</ele>
        <time>2020-10-14T10:58:10Z</time>
      </trkpt>
      <trkpt lat="37.463362000" lon="-3.886713000">
        <ele>923.7</ele>
        <time>2020-10-14T10:58:12Z</time>
      </trkpt>
      <trkpt lat="37.463443000" lon="-3.886628000">
        <ele>923.7</ele>
        <time>2020-10-14T10:58:14Z</time>
      </trkpt>
      <trkpt lat="37.463521000" lon="-3.886548000">
        <ele>923.8</ele>
        <time>2020-10-14T10:58:16Z</time>
      </trkpt>
      <trkpt lat="37.463601000" lon="-3.886466000">
        <ele>923.9</ele>
        <time>2020-10-14T10:58:18Z</time>
      </trkpt>
      <trkpt lat="37.463676000" lon="-3.886375000">
        <ele>924.0</ele>
        <time>2020-10-14T10:58:20Z</time>
      </trkpt>
      <trkpt lat="37.463753000" lon="-3.886288000">
        <ele>924.2</ele>
        <time>2020-10-14T10:58:22Z</time>
      </trkpt>
      <trkpt lat="37.463822000" lon="-3.886194000">
        <ele>924.4</ele>
        <time>2020-10-14T10:58:24Z</time>
      </trkpt>
      <trkpt lat="37.463882000" lon="-3.886105000">
        <ele>924.5</ele>
        <time>2020-10-14T10:58:26Z</time>
      </trkpt>
      <trkpt lat="37.463928000" lon="-3.886001000">
        <ele>924.6</ele>
        <time>2020-10-14T10:58:28Z</time>
      </trkpt>
      <trkpt lat="37.463972000" lon="-3.885897000">
        <ele>924.7</ele>
        <time>2020-10-14T10:58:30Z</time>
      </trkpt>
      <trkpt lat="37.463999000" lon="-3.885792000">
        <ele>924.8</ele>
        <time>2020-10-14T10:58:32Z</time>
      </trkpt>
      <trkpt lat="37.464018000" lon="-3.885691000">
        <ele>925.0</ele>
        <time>2020-10-14T10:58:34Z</time>
      </trkpt>
      <trkpt lat="37.464025000" lon="-3.885586000">
        <ele>925.1</ele>
        <time>2020-10-14T10:58:36Z</time>
      </trkpt>
      <trkpt lat="37.464027000" lon="-3.885480000">
        <ele>925.1</ele>
        <time>2020-10-14T10:58:38Z</time>
      </trkpt>
      <trkpt lat="37.464025000" lon="-3.885330000">
        <ele>925.0</ele>
        <time>2020-10-14T10:58:41Z</time>
      </trkpt>
      <trkpt lat="37.464017000" lon="-3.885180000">
        <ele>924.9</ele>
        <time>2020-10-14T10:58:44Z</time>
      </trkpt>
      <trkpt lat="37.464012000" lon="-3.885027000">
        <ele>924.8</ele>
        <time>2020-10-14T10:58:47Z</time>
      </trkpt>
      <trkpt lat="37.464005000" lon="-3.884924000">
        <ele>924.7</ele>
        <time>2020-10-14T10:58:49Z</time>
      </trkpt>
      <trkpt lat="37.464002000" lon="-3.884821000">
        <ele>924.6</ele>
        <time>2020-10-14T10:58:51Z</time>
      </trkpt>
      <trkpt lat="37.463996000" lon="-3.884671000">
        <ele>924.5</ele>
        <time>2020-10-14T10:58:54Z</time>
      </trkpt>
      <trkpt lat="37.463993000" lon="-3.884568000">
        <ele>924.5</ele>
        <time>2020-10-14T10:58:56Z</time>
      </trkpt>
      <trkpt lat="37.463991000" lon="-3.884462000">
        <ele>924.6</ele>
        <time>2020-10-14T10:58:58Z</time>
      </trkpt>
      <trkpt lat="37.463986000" lon="-3.884355000">
        <ele>924.6</ele>
        <time>2020-10-14T10:59:00Z</time>
      </trkpt>
      <trkpt lat="37.463983000" lon="-3.884245000">
        <ele>924.8</ele>
        <time>2020-10-14T10:59:02Z</time>
      </trkpt>
      <trkpt lat="37.463986000" lon="-3.884128000">
        <ele>925.0</ele>
        <time>2020-10-14T10:59:04Z</time>
      </trkpt>
      <trkpt lat="37.463984000" lon="-3.884011000">
        <ele>925.4</ele>
        <time>2020-10-14T10:59:06Z</time>
      </trkpt>
      <trkpt lat="37.463983000" lon="-3.883901000">
        <ele>925.8</ele>
        <time>2020-10-14T10:59:08Z</time>
      </trkpt>
      <trkpt lat="37.463982000" lon="-3.883785000">
        <ele>926.3</ele>
        <time>2020-10-14T10:59:10Z</time>
      </trkpt>
      <trkpt lat="37.463977000" lon="-3.883670000">
        <ele>926.6</ele>
        <time>2020-10-14T10:59:12Z</time>
      </trkpt>
      <trkpt lat="37.463969000" lon="-3.883553000">
        <ele>927.0</ele>
        <time>2020-10-14T10:59:14Z</time>
      </trkpt>
      <trkpt lat="37.463965000" lon="-3.883441000">
        <ele>927.3</ele>
        <time>2020-10-14T10:59:16Z</time>
      </trkpt>
      <trkpt lat="37.463964000" lon="-3.883330000">
        <ele>927.4</ele>
        <time>2020-10-14T10:59:18Z</time>
      </trkpt>
      <trkpt lat="37.463963000" lon="-3.883219000">
        <ele>927.4</ele>
        <time>2020-10-14T10:59:20Z</time>
      </trkpt>
      <trkpt lat="37.463961000" lon="-3.883101000">
        <ele>927.3</ele>
        <time>2020-10-14T10:59:22Z</time>
      </trkpt>
      <trkpt lat="37.463962000" lon="-3.882980000">
        <ele>927.2</ele>
        <time>2020-10-14T10:59:24Z</time>
      </trkpt>
      <trkpt lat="37.463956000" lon="-3.882860000">
        <ele>927.1</ele>
        <time>2020-10-14T10:59:26Z</time>
      </trkpt>
      <trkpt lat="37.463953000" lon="-3.882739000">
        <ele>927.0</ele>
        <time>2020-10-14T10:59:28Z</time>
      </trkpt>
      <trkpt lat="37.463953000" lon="-3.882617000">
        <ele>926.8</ele>
        <time>2020-10-14T10:59:30Z</time>
      </trkpt>
      <trkpt lat="37.463947000" lon="-3.882494000">
        <ele>926.6</ele>
        <time>2020-10-14T10:59:32Z</time>
      </trkpt>
      <trkpt lat="37.463943000" lon="-3.882369000">
        <ele>926.6</ele>
        <time>2020-10-14T10:59:34Z</time>
      </trkpt>
      <trkpt lat="37.463941000" lon="-3.882245000">
        <ele>926.7</ele>
        <time>2020-10-14T10:59:36Z</time>
      </trkpt>
      <trkpt lat="37.463935000" lon="-3.882116000">
        <ele>927.1</ele>
        <time>2020-10-14T10:59:38Z</time>
      </trkpt>
      <trkpt lat="37.463930000" lon="-3.881987000">
        <ele>927.6</ele>
        <time>2020-10-14T10:59:40Z</time>
      </trkpt>
      <trkpt lat="37.463928000" lon="-3.881857000">
        <ele>928.2</ele>
        <time>2020-10-14T10:59:42Z</time>
      </trkpt>
      <trkpt lat="37.463924000" lon="-3.881725000">
        <ele>928.8</ele>
        <time>2020-10-14T10:59:44Z</time>
      </trkpt>
      <trkpt lat="37.463916000" lon="-3.881596000">
        <ele>929.3</ele>
        <time>2020-10-14T10:59:46Z</time>
      </trkpt>
      <trkpt lat="37.463913000" lon="-3.881470000">
        <ele>929.7</ele>
        <time>2020-10-14T10:59:48Z</time>
      </trkpt>
      <trkpt lat="37.463908000" lon="-3.881349000">
        <ele>930.1</ele>
        <time>2020-10-14T10:59:50Z</time>
      </trkpt>
      <trkpt lat="37.463909000" lon="-3.881228000">
        <ele>930.4</ele>
        <time>2020-10-14T10:59:52Z</time>
      </trkpt>
      <trkpt lat="37.463925000" lon="-3.881107000">
        <ele>930.6</ele>
        <time>2020-10-14T10:59:54Z</time>
      </trkpt>
      <trkpt lat="37.463952000" lon="-3.880987000">
        <ele>930.8</ele>
        <time>2020-10-14T10:59:56Z</time>
      </trkpt>
      <trkpt lat="37.463980000" lon="-3.880871000">
        <ele>930.9</ele>
        <time>2020-10-14T10:59:58Z</time>
      </trkpt>
      <trkpt lat="37.464006000" lon="-3.880764000">
        <ele>930.8</ele>
        <time>2020-10-14T11:00:00Z</time>
      </trkpt>
      <trkpt lat="37.464030000" lon="-3.880646000">
        <ele>930.6</ele>
        <time>2020-10-14T11:00:02Z</time>
      </trkpt>
      <trkpt lat="37.464056000" lon="-3.880536000">
        <ele>930.5</ele>
        <time>2020-10-14T11:00:04Z</time>
      </trkpt>
      <trkpt lat="37.464081000" lon="-3.880429000">
        <ele>930.3</ele>
        <time>2020-10-14T11:00:06Z</time>
      </trkpt>
      <trkpt lat="37.464110000" lon="-3.880327000">
        <ele>930.2</ele>
        <time>2020-10-14T11:00:08Z</time>
      </trkpt>
      <trkpt lat="37.464146000" lon="-3.880186000">
        <ele>930.1</ele>
        <time>2020-10-14T11:00:11Z</time>
      </trkpt>
      <trkpt lat="37.464170000" lon="-3.880053000">
        <ele>930.0</ele>
        <time>2020-10-14T11:00:14Z</time>
      </trkpt>
      <trkpt lat="37.464198000" lon="-3.879922000">
        <ele>930.0</ele>
        <time>2020-10-14T11:00:17Z</time>
      </trkpt>
      <trkpt lat="37.464222000" lon="-3.879821000">
        <ele>930.0</ele>
        <time>2020-10-14T11:00:19Z</time>
      </trkpt>
      <trkpt lat="37.464248000" lon="-3.879720000">
        <ele>930.0</ele>
        <time>2020-10-14T11:00:21Z</time>
      </trkpt>
      <trkpt lat="37.464286000" lon="-3.879583000">
        <ele>929.9</ele>
        <time>2020-10-14T11:00:24Z</time>
      </trkpt>
      <trkpt lat="37.464322000" lon="-3.879459000">
        <ele>929.7</ele>
        <time>2020-10-14T11:00:27Z</time>
      </trkpt>
      <trkpt lat="37.464349000" lon="-3.879336000">
        <ele>929.5</ele>
        <time>2020-10-14T11:00:30Z</time>
      </trkpt>
      <trkpt lat="37.464348000" lon="-3.879189000">
        <ele>929.2</ele>
        <time>2020-10-14T11:00:33Z</time>
      </trkpt>
      <trkpt lat="37.464359000" lon="-3.879055000">
        <ele>928.9</ele>
        <time>2020-10-14T11:00:36Z</time>
      </trkpt>
      <trkpt lat="37.464401000" lon="-3.878933000">
        <ele>928.5</ele>
        <time>2020-10-14T11:00:39Z</time>
      </trkpt>
      <trkpt lat="37.464481000" lon="-3.878841000">
        <ele>928.2</ele>
        <time>2020-10-14T11:00:42Z</time>
      </trkpt>
      <trkpt lat="37.464558000" lon="-3.878748000">
        <ele>927.8</ele>
        <time>2020-10-14T11:00:45Z</time>
      </trkpt>
      <trkpt lat="37.464602000" lon="-3.878645000">
        <ele>927.5</ele>
        <time>2020-10-14T11:00:47Z</time>
      </trkpt>
      <trkpt lat="37.464649000" lon="-3.878513000">
        <ele>927.0</ele>
        <time>2020-10-14T11:00:49Z</time>
      </trkpt>
      <trkpt lat="37.464706000" lon="-3.878363000">
        <ele>926.5</ele>
        <time>2020-10-14T11:00:51Z</time>
      </trkpt>
      <trkpt lat="37.464766000" lon="-3.878199000">
        <ele>926.1</ele>
        <time>2020-10-14T11:00:53Z</time>
      </trkpt>
      <trkpt lat="37.464820000" lon="-3.878031000">
        <ele>925.7</ele>
        <time>2020-10-14T11:00:55Z</time>
      </trkpt>
      <trkpt lat="37.464876000" lon="-3.877855000">
        <ele>925.5</ele>
        <time>2020-10-14T11:00:57Z</time>
      </trkpt>
      <trkpt lat="37.464933000" lon="-3.877679000">
        <ele>925.2</ele>
        <time>2020-10-14T11:00:59Z</time>
      </trkpt>
      <trkpt lat="37.464985000" lon="-3.877489000">
        <ele>924.9</ele>
        <time>2020-10-14T11:01:01Z</time>
      </trkpt>
      <trkpt lat="37.465022000" lon="-3.877300000">
        <ele>924.6</ele>
        <time>2020-10-14T11:01:03Z</time>
      </trkpt>
      <trkpt lat="37.465042000" lon="-3.877199000">
        <ele>924.3</ele>
        <time>2020-10-14T11:01:04Z</time>
      </trkpt>
      <trkpt lat="37.465067000" lon="-3.876996000">
        <ele>923.9</ele>
        <time>2020-10-14T11:01:06Z</time>
      </trkpt>
      <trkpt lat="37.465075000" lon="-3.876889000">
        <ele>923.5</ele>
        <time>2020-10-14T11:01:07Z</time>
      </trkpt>
      <trkpt lat="37.465085000" lon="-3.876783000">
        <ele>923.0</ele>
        <time>2020-10-14T11:01:08Z</time>
      </trkpt>
      <trkpt lat="37.465095000" lon="-3.876671000">
        <ele>922.5</ele>
        <time>2020-10-14T11:01:09Z</time>
      </trkpt>
      <trkpt lat="37.465104000" lon="-3.876561000">
        <ele>922.1</ele>
        <time>2020-10-14T11:01:10Z</time>
      </trkpt>
      <trkpt lat="37.465115000" lon="-3.876451000">
        <ele>921.5</ele>
        <time>2020-10-14T11:01:11Z</time>
      </trkpt>
      <trkpt lat="37.465124000" lon="-3.876340000">
        <ele>921.0</ele>
        <time>2020-10-14T11:01:12Z</time>
      </trkpt>
      <trkpt lat="37.465134000" lon="-3.876230000">
        <ele>920.4</ele>
        <time>2020-10-14T11:01:13Z</time>
      </trkpt>
      <trkpt lat="37.465143000" lon="-3.876122000">
        <ele>919.5</ele>
        <time>2020-10-14T11:01:14Z</time>
      </trkpt>
      <trkpt lat="37.465151000" lon="-3.876014000">
        <ele>918.8</ele>
        <time>2020-10-14T11:01:15Z</time>
      </trkpt>
      <trkpt lat="37.465162000" lon="-3.875906000">
        <ele>918.1</ele>
        <time>2020-10-14T11:01:16Z</time>
      </trkpt>
      <trkpt lat="37.465172000" lon="-3.875803000">
        <ele>917.4</ele>
        <time>2020-10-14T11:01:17Z</time>
      </trkpt>
      <trkpt lat="37.465185000" lon="-3.875699000">
        <ele>916.6</ele>
        <time>2020-10-14T11:01:18Z</time>
      </trkpt>
      <trkpt lat="37.465206000" lon="-3.875501000">
        <ele>916.0</ele>
        <time>2020-10-14T11:01:20Z</time>
      </trkpt>
      <trkpt lat="37.465211000" lon="-3.875300000">
        <ele>915.4</ele>
        <time>2020-10-14T11:01:22Z</time>
      </trkpt>
      <trkpt lat="37.465202000" lon="-3.875196000">
        <ele>914.9</ele>
        <time>2020-10-14T11:01:23Z</time>
      </trkpt>
      <trkpt lat="37.465191000" lon="-3.875094000">
        <ele>914.5</ele>
        <time>2020-10-14T11:01:24Z</time>
      </trkpt>
      <trkpt lat="37.465172000" lon="-3.874989000">
        <ele>914.2</ele>
        <time>2020-10-14T11:01:25Z</time>
      </trkpt>
      <trkpt lat="37.465152000" lon="-3.874883000">
        <ele>913.9</ele>
        <time>2020-10-14T11:01:26Z</time>
      </trkpt>
      <trkpt lat="37.465126000" lon="-3.874782000">
        <ele>913.8</ele>
        <time>2020-10-14T11:01:27Z</time>
      </trkpt>
      <trkpt lat="37.465095000" lon="-3.874678000">
        <ele>913.6</ele>
        <time>2020-10-14T11:01:28Z</time>
      </trkpt>
      <trkpt lat="37.465061000" lon="-3.874573000">
        <ele>913.5</ele>
        <time>2020-10-14T11:01:29Z</time>
      </trkpt>
      <trkpt lat="37.465029000" lon="-3.874471000">
        <ele>913.3</ele>
        <time>2020-10-14T11:01:30Z</time>
      </trkpt>
      <trkpt lat="37.464997000" lon="-3.874368000">
        <ele>913.1</ele>
        <time>2020-10-14T11:01:31Z</time>
      </trkpt>
      <trkpt lat="37.464965000" lon="-3.874267000">
        <ele>912.7</ele>
        <time>2020-10-14T11:01:32Z</time>
      </trkpt>
      <trkpt lat="37.464934000" lon="-3.874166000">
        <ele>912.2</ele>
        <time>2020-10-14T11:01:33Z</time>
      </trkpt>
      <trkpt lat="37.464902000" lon="-3.874068000">
        <ele>911.5</ele>
        <time>2020-10-14T11:01:34Z</time>
      </trkpt>
      <trkpt lat="37.464873000" lon="-3.873970000">
        <ele>910.8</ele>
        <time>2020-10-14T11:01:35Z</time>
      </trkpt>
      <trkpt lat="37.464844000" lon="-3.873874000">
        <ele>909.9</ele>
        <time>2020-10-14T11:01:36Z</time>
      </trkpt>
      <trkpt lat="37.464816000" lon="-3.873776000">
        <ele>908.8</ele>
        <time>2020-10-14T11:01:37Z</time>
      </trkpt>
      <trkpt lat="37.464762000" lon="-3.873590000">
        <ele>907.6</ele>
        <time>2020-10-14T11:01:39Z</time>
      </trkpt>
      <trkpt lat="37.464708000" lon="-3.873404000">
        <ele>906.5</ele>
        <time>2020-10-14T11:01:41Z</time>
      </trkpt>
      <trkpt lat="37.464681000" lon="-3.873306000">
        <ele>905.4</ele>
        <time>2020-10-14T11:01:42Z</time>
      </trkpt>
      <trkpt lat="37.464627000" lon="-3.873113000">
        <ele>904.2</ele>
        <time>2020-10-14T11:01:44Z</time>
      </trkpt>
      <trkpt lat="37.464573000" lon="-3.872919000">
        <ele>903.0</ele>
        <time>2020-10-14T11:01:46Z</time>
      </trkpt>
      <trkpt lat="37.464544000" lon="-3.872817000">
        <ele>902.0</ele>
        <time>2020-10-14T11:01:47Z</time>
      </trkpt>
      <trkpt lat="37.464512000" lon="-3.872715000">
        <ele>901.1</ele>
        <time>2020-10-14T11:01:48Z</time>
      </trkpt>
      <trkpt lat="37.464481000" lon="-3.872616000">
        <ele>900.1</ele>
        <time>2020-10-14T11:01:49Z</time>
      </trkpt>
      <trkpt lat="37.464452000" lon="-3.872517000">
        <ele>899.1</ele>
        <time>2020-10-14T11:01:50Z</time>
      </trkpt>
      <trkpt lat="37.464422000" lon="-3.872417000">
        <ele>898.2</ele>
        <time>2020-10-14T11:01:51Z</time>
      </trkpt>
      <trkpt lat="37.464395000" lon="-3.872317000">
        <ele>897.4</ele>
        <time>2020-10-14T11:01:52Z</time>
      </trkpt>
      <trkpt lat="37.464369000" lon="-3.872210000">
        <ele>896.5</ele>
        <time>2020-10-14T11:01:53Z</time>
      </trkpt>
      <trkpt lat="37.464342000" lon="-3.872101000">
        <ele>895.8</ele>
        <time>2020-10-14T11:01:54Z</time>
      </trkpt>
      <trkpt lat="37.464316000" lon="-3.871995000">
        <ele>895.0</ele>
        <time>2020-10-14T11:01:55Z</time>
      </trkpt>
      <trkpt lat="37.464297000" lon="-3.871881000">
        <ele>894.3</ele>
        <time>2020-10-14T11:01:56Z</time>
      </trkpt>
      <trkpt lat="37.464284000" lon="-3.871772000">
        <ele>893.7</ele>
        <time>2020-10-14T11:01:57Z</time>
      </trkpt>
      <trkpt lat="37.464279000" lon="-3.871658000">
        <ele>893.2</ele>
        <time>2020-10-14T11:01:58Z</time>
      </trkpt>
      <trkpt lat="37.464279000" lon="-3.871550000">
        <ele>892.6</ele>
        <time>2020-10-14T11:01:59Z</time>
      </trkpt>
      <trkpt lat="37.464288000" lon="-3.871439000">
        <ele>892.2</ele>
        <time>2020-10-14T11:02:00Z</time>
      </trkpt>
      <trkpt lat="37.464299000" lon="-3.871329000">
        <ele>891.8</ele>
        <time>2020-10-14T11:02:01Z</time>
      </trkpt>
      <trkpt lat="37.464311000" lon="-3.871217000">
        <ele>891.5</ele>
        <time>2020-10-14T11:02:02Z</time>
      </trkpt>
      <trkpt lat="37.464326000" lon="-3.871102000">
        <ele>891.1</ele>
        <time>2020-10-14T11:02:03Z</time>
      </trkpt>
      <trkpt lat="37.464340000" lon="-3.870991000">
        <ele>890.8</ele>
        <time>2020-10-14T11:02:04Z</time>
      </trkpt>
      <trkpt lat="37.464358000" lon="-3.870878000">
        <ele>890.5</ele>
        <time>2020-10-14T11:02:05Z</time>
      </trkpt>
      <trkpt lat="37.464378000" lon="-3.870769000">
        <ele>890.1</ele>
        <time>2020-10-14T11:02:06Z</time>
      </trkpt>
      <trkpt lat="37.464396000" lon="-3.870658000">
        <ele>889.7</ele>
        <time>2020-10-14T11:02:07Z</time>
      </trkpt>
      <trkpt lat="37.464418000" lon="-3.870548000">
        <ele>889.2</ele>
        <time>2020-10-14T11:02:08Z</time>
      </trkpt>
      <trkpt lat="37.464439000" lon="-3.870440000">
        <ele>888.6</ele>
        <time>2020-10-14T11:02:09Z</time>
      </trkpt>
      <trkpt lat="37.464464000" lon="-3.870331000">
        <ele>888.3</ele>
        <time>2020-10-14T11:02:10Z</time>
      </trkpt>
      <trkpt lat="37.464487000" lon="-3.870226000">
        <ele>887.9</ele>
        <time>2020-10-14T11:02:11Z</time>
      </trkpt>
      <trkpt lat="37.464510000" lon="-3.870123000">
        <ele>887.5</ele>
        <time>2020-10-14T11:02:12Z</time>
      </trkpt>
      <trkpt lat="37.464528000" lon="-3.870013000">
        <ele>887.3</ele>
        <time>2020-10-14T11:02:13Z</time>
      </trkpt>
      <trkpt lat="37.464554000" lon="-3.869903000">
        <ele>887.1</ele>
        <time>2020-10-14T11:02:14Z</time>
      </trkpt>
      <trkpt lat="37.464576000" lon="-3.869794000">
        <ele>886.8</ele>
        <time>2020-10-14T11:02:15Z</time>
      </trkpt>
      <trkpt lat="37.464591000" lon="-3.869684000">
        <ele>886.5</ele>
        <time>2020-10-14T11:02:16Z</time>
      </trkpt>
      <trkpt lat="37.464601000" lon="-3.869576000">
        <ele>886.3</ele>
        <time>2020-10-14T11:02:17Z</time>
      </trkpt>
      <trkpt lat="37.464601000" lon="-3.869464000">
        <ele>885.8</ele>
        <time>2020-10-14T11:02:18Z</time>
      </trkpt>
      <trkpt lat="37.464587000" lon="-3.869358000">
        <ele>885.4</ele>
        <time>2020-10-14T11:02:19Z</time>
      </trkpt>
      <trkpt lat="37.464566000" lon="-3.869253000">
        <ele>884.9</ele>
        <time>2020-10-14T11:02:20Z</time>
      </trkpt>
      <trkpt lat="37.464541000" lon="-3.869153000">
        <ele>884.3</ele>
        <time>2020-10-14T11:02:21Z</time>
      </trkpt>
      <trkpt lat="37.464505000" lon="-3.869060000">
        <ele>883.5</ele>
        <time>2020-10-14T11:02:22Z</time>
      </trkpt>
      <trkpt lat="37.464411000" lon="-3.868902000">
        <ele>882.6</ele>
        <time>2020-10-14T11:02:24Z</time>
      </trkpt>
      <trkpt lat="37.464353000" lon="-3.868830000">
        <ele>881.6</ele>
        <time>2020-10-14T11:02:25Z</time>
      </trkpt>
      <trkpt lat="37.464222000" lon="-3.868728000">
        <ele>880.5</ele>
        <time>2020-10-14T11:02:27Z</time>
      </trkpt>
      <trkpt lat="37.464069000" lon="-3.868672000">
        <ele>879.3</ele>
        <time>2020-10-14T11:02:29Z</time>
      </trkpt>
      <trkpt lat="37.463911000" lon="-3.868641000">
        <ele>878.2</ele>
        <time>2020-10-14T11:02:31Z</time>
      </trkpt>
      <trkpt lat="37.463753000" lon="-3.868617000">
        <ele>877.2</ele>
        <time>2020-10-14T11:02:33Z</time>
      </trkpt>
      <trkpt lat="37.463601000" lon="-3.868575000">
        <ele>876.4</ele>
        <time>2020-10-14T11:02:35Z</time>
      </trkpt>
      <trkpt lat="37.463457000" lon="-3.868500000">
        <ele>875.6</ele>
        <time>2020-10-14T11:02:37Z</time>
      </trkpt>
      <trkpt lat="37.463327000" lon="-3.868387000">
        <ele>874.9</ele>
        <time>2020-10-14T11:02:39Z</time>
      </trkpt>
      <trkpt lat="37.463227000" lon="-3.868242000">
        <ele>874.3</ele>
        <time>2020-10-14T11:02:41Z</time>
      </trkpt>
      <trkpt lat="37.463139000" lon="-3.868063000">
        <ele>873.7</ele>
        <time>2020-10-14T11:02:43Z</time>
      </trkpt>
      <trkpt lat="37.463103000" lon="-3.867967000">
        <ele>873.4</ele>
        <time>2020-10-14T11:02:44Z</time>
      </trkpt>
      <trkpt lat="37.463066000" lon="-3.867866000">
        <ele>873.1</ele>
        <time>2020-10-14T11:02:45Z</time>
      </trkpt>
      <trkpt lat="37.463034000" lon="-3.867765000">
        <ele>873.0</ele>
        <time>2020-10-14T11:02:46Z</time>
      </trkpt>
      <trkpt lat="37.463003000" lon="-3.867663000">
        <ele>872.9</ele>
        <time>2020-10-14T11:02:47Z</time>
      </trkpt>
      <trkpt lat="37.462971000" lon="-3.867559000">
        <ele>872.7</ele>
        <time>2020-10-14T11:02:48Z</time>
      </trkpt>
      <trkpt lat="37.462942000" lon="-3.867452000">
        <ele>872.5</ele>
        <time>2020-10-14T11:02:49Z</time>
      </trkpt>
      <trkpt lat="37.462914000" lon="-3.867340000">
        <ele>872.2</ele>
        <time>2020-10-14T11:02:50Z</time>
      </trkpt>
      <trkpt lat="37.462882000" lon="-3.867230000">
        <ele>871.8</ele>
        <time>2020-10-14T11:02:51Z</time>
      </trkpt>
      <trkpt lat="37.462851000" lon="-3.867123000">
        <ele>871.4</ele>
        <time>2020-10-14T11:02:52Z</time>
      </trkpt>
      <trkpt lat="37.462821000" lon="-3.867012000">
        <ele>870.8</ele>
        <time>2020-10-14T11:02:53Z</time>
      </trkpt>
      <trkpt lat="37.462786000" lon="-3.866897000">
        <ele>870.3</ele>
        <time>2020-10-14T11:02:54Z</time>
      </trkpt>
      <trkpt lat="37.462754000" lon="-3.866782000">
        <ele>869.7</ele>
        <time>2020-10-14T11:02:55Z</time>
      </trkpt>
      <trkpt lat="37.462721000" lon="-3.866666000">
        <ele>869.2</ele>
        <time>2020-10-14T11:02:56Z</time>
      </trkpt>
      <trkpt lat="37.462683000" lon="-3.866545000">
        <ele>868.6</ele>
        <time>2020-10-14T11:02:57Z</time>
      </trkpt>
      <trkpt lat="37.462649000" lon="-3.866430000">
        <ele>868.3</ele>
        <time>2020-10-14T11:02:58Z</time>
      </trkpt>
      <trkpt lat="37.462617000" lon="-3.866312000">
        <ele>868.1</ele>
        <time>2020-10-14T11:02:59Z</time>
      </trkpt>
      <trkpt lat="37.462584000" lon="-3.866190000">
        <ele>868.1</ele>
        <time>2020-10-14T11:03:00Z</time>
      </trkpt>
      <trkpt lat="37.462549000" lon="-3.866070000">
        <ele>868.1</ele>
        <time>2020-10-14T11:03:01Z</time>
      </trkpt>
      <trkpt lat="37.462516000" lon="-3.865946000">
        <ele>868.1</ele>
        <time>2020-10-14T11:03:02Z</time>
      </trkpt>
      <trkpt lat="37.462482000" lon="-3.865824000">
        <ele>868.1</ele>
        <time>2020-10-14T11:03:03Z</time>
      </trkpt>
      <trkpt lat="37.462443000" lon="-3.865698000">
        <ele>868.0</ele>
        <time>2020-10-14T11:03:04Z</time>
      </trkpt>
      <trkpt lat="37.462408000" lon="-3.865572000">
        <ele>867.8</ele>
        <time>2020-10-14T11:03:05Z</time>
      </trkpt>
      <trkpt lat="37.462372000" lon="-3.865446000">
        <ele>867.5</ele>
        <time>2020-10-14T11:03:06Z</time>
      </trkpt>
      <trkpt lat="37.462334000" lon="-3.865321000">
        <ele>867.0</ele>
        <time>2020-10-14T11:03:07Z</time>
      </trkpt>
      <trkpt lat="37.462298000" lon="-3.865196000">
        <ele>866.5</ele>
        <time>2020-10-14T11:03:08Z</time>
      </trkpt>
      <trkpt lat="37.462263000" lon="-3.865072000">
        <ele>865.8</ele>
        <time>2020-10-14T11:03:09Z</time>
      </trkpt>
      <trkpt lat="37.462231000" lon="-3.864955000">
        <ele>865.1</ele>
        <time>2020-10-14T11:03:10Z</time>
      </trkpt>
      <trkpt lat="37.462199000" lon="-3.864838000">
        <ele>864.3</ele>
        <time>2020-10-14T11:03:11Z</time>
      </trkpt>
      <trkpt lat="37.462172000" lon="-3.864718000">
        <ele>863.5</ele>
        <time>2020-10-14T11:03:12Z</time>
      </trkpt>
      <trkpt lat="37.462145000" lon="-3.864602000">
        <ele>862.7</ele>
        <time>2020-10-14T11:03:13Z</time>
      </trkpt>
      <trkpt lat="37.462122000" lon="-3.864485000">
        <ele>862.1</ele>
        <time>2020-10-14T11:03:14Z</time>
      </trkpt>
      <trkpt lat="37.462100000" lon="-3.864370000">
        <ele>861.6</ele>
        <time>2020-10-14T11:03:15Z</time>
      </trkpt>
      <trkpt lat="37.462079000" lon="-3.864253000">
        <ele>861.3</ele>
        <time>2020-10-14T11:03:16Z</time>
      </trkpt>
      <trkpt lat="37.462057000" lon="-3.864135000">
        <ele>861.1</ele>
        <time>2020-10-14T11:03:17Z</time>
      </trkpt>
      <trkpt lat="37.462038000" lon="-3.864020000">
        <ele>861.1</ele>
        <time>2020-10-14T11:03:18Z</time>
      </trkpt>
      <trkpt lat="37.462018000" lon="-3.863903000">
        <ele>861.2</ele>
        <time>2020-10-14T11:03:19Z</time>
      </trkpt>
      <trkpt lat="37.461998000" lon="-3.863788000">
        <ele>861.3</ele>
        <time>2020-10-14T11:03:20Z</time>
      </trkpt>
      <trkpt lat="37.461977000" lon="-3.863678000">
        <ele>861.4</ele>
        <time>2020-10-14T11:03:21Z</time>
      </trkpt>
      <trkpt lat="37.461956000" lon="-3.863570000">
        <ele>861.5</ele>
        <time>2020-10-14T11:03:22Z</time>
      </trkpt>
      <trkpt lat="37.461932000" lon="-3.863462000">
        <ele>861.5</ele>
        <time>2020-10-14T11:03:23Z</time>
      </trkpt>
      <trkpt lat="37.461908000" lon="-3.863355000">
        <ele>861.7</ele>
        <time>2020-10-14T11:03:24Z</time>
      </trkpt>
      <trkpt lat="37.461880000" lon="-3.863255000">
        <ele>861.9</ele>
        <time>2020-10-14T11:03:25Z</time>
      </trkpt>
      <trkpt lat="37.461845000" lon="-3.863160000">
        <ele>862.1</ele>
        <time>2020-10-14T11:03:26Z</time>
      </trkpt>
      <trkpt lat="37.461808000" lon="-3.863063000">
        <ele>862.3</ele>
        <time>2020-10-14T11:03:27Z</time>
      </trkpt>
      <trkpt lat="37.461770000" lon="-3.862971000">
        <ele>862.5</ele>
        <time>2020-10-14T11:03:28Z</time>
      </trkpt>
      <trkpt lat="37.461728000" lon="-3.862881000">
        <ele>862.5</ele>
        <time>2020-10-14T11:03:29Z</time>
      </trkpt>
      <trkpt lat="37.461639000" lon="-3.862707000">
        <ele>862.5</ele>
        <time>2020-10-14T11:03:31Z</time>
      </trkpt>
      <trkpt lat="37.461549000" lon="-3.862543000">
        <ele>862.6</ele>
        <time>2020-10-14T11:03:33Z</time>
      </trkpt>
      <trkpt lat="37.461457000" lon="-3.862382000">
        <ele>862.7</ele>
        <time>2020-10-14T11:03:35Z</time>
      </trkpt>
      <trkpt lat="37.461361000" lon="-3.862232000">
        <ele>862.9</ele>
        <time>2020-10-14T11:03:37Z</time>
      </trkpt>
      <trkpt lat="37.461266000" lon="-3.862084000">
        <ele>863.1</ele>
        <time>2020-10-14T11:03:39Z</time>
      </trkpt>
      <trkpt lat="37.461168000" lon="-3.861946000">
        <ele>863.2</ele>
        <time>2020-10-14T11:03:41Z</time>
      </trkpt>
      <trkpt lat="37.461069000" lon="-3.861818000">
        <ele>863.3</ele>
        <time>2020-10-14T11:03:43Z</time>
      </trkpt>
      <trkpt lat="37.460968000" lon="-3.861681000">
        <ele>863.4</ele>
        <time>2020-10-14T11:03:45Z</time>
      </trkpt>
      <trkpt lat="37.460875000" lon="-3.861553000">
        <ele>863.5</ele>
        <time>2020-10-14T11:03:47Z</time>
      </trkpt>
      <trkpt lat="37.460785000" lon="-3.861428000">
        <ele>863.8</ele>
        <time>2020-10-14T11:03:49Z</time>
      </trkpt>
      <trkpt lat="37.460698000" lon="-3.861297000">
        <ele>864.1</ele>
        <time>2020-10-14T11:03:51Z</time>
      </trkpt>
      <trkpt lat="37.460614000" lon="-3.861178000">
        <ele>864.5</ele>
        <time>2020-10-14T11:03:53Z</time>
      </trkpt>
      <trkpt lat="37.460522000" lon="-3.861061000">
        <ele>864.7</ele>
        <time>2020-10-14T11:03:55Z</time>
      </trkpt>
      <trkpt lat="37.460425000" lon="-3.860964000">
        <ele>865.1</ele>
        <time>2020-10-14T11:03:57Z</time>
      </trkpt>
      <trkpt lat="37.460335000" lon="-3.860876000">
        <ele>865.5</ele>
        <time>2020-10-14T11:03:59Z</time>
      </trkpt>
      <trkpt lat="37.460248000" lon="-3.860811000">
        <ele>865.9</ele>
        <time>2020-10-14T11:04:01Z</time>
      </trkpt>
      <trkpt lat="37.460164000" lon="-3.860761000">
        <ele>866.4</ele>
        <time>2020-10-14T11:04:03Z</time>
      </trkpt>
      <trkpt lat="37.460092000" lon="-3.860712000">
        <ele>866.9</ele>
        <time>2020-10-14T11:04:05Z</time>
      </trkpt>
      <trkpt lat="37.460005000" lon="-3.860641000">
        <ele>867.5</ele>
        <time>2020-10-14T11:04:09Z</time>
      </trkpt>
      <trkpt lat="37.459921000" lon="-3.860580000">
        <ele>868.0</ele>
        <time>2020-10-14T11:04:11Z</time>
      </trkpt>
      <trkpt lat="37.459832000" lon="-3.860511000">
        <ele>868.5</ele>
        <time>2020-10-14T11:04:15Z</time>
      </trkpt>
      <trkpt lat="37.459759000" lon="-3.860455000">
        <ele>869.0</ele>
        <time>2020-10-14T11:04:18Z</time>
      </trkpt>
      <trkpt lat="37.459691000" lon="-3.860388000">
        <ele>869.6</ele>
        <time>2020-10-14T11:04:21Z</time>
      </trkpt>
      <trkpt lat="37.459619000" lon="-3.860312000">
        <ele>870.3</ele>
        <time>2020-10-14T11:04:24Z</time>
      </trkpt>
      <trkpt lat="37.459552000" lon="-3.860228000">
        <ele>870.9</ele>
        <time>2020-10-14T11:04:27Z</time>
      </trkpt>
      <trkpt lat="37.459488000" lon="-3.860139000">
        <ele>871.5</ele>
        <time>2020-10-14T11:04:30Z</time>
      </trkpt>
      <trkpt lat="37.459428000" lon="-3.860043000">
        <ele>871.9</ele>
        <time>2020-10-14T11:04:33Z</time>
      </trkpt>
      <trkpt lat="37.459377000" lon="-3.859942000">
        <ele>872.4</ele>
        <time>2020-10-14T11:04:36Z</time>
      </trkpt>
      <trkpt lat="37.459326000" lon="-3.859837000">
        <ele>872.8</ele>
        <time>2020-10-14T11:04:39Z</time>
      </trkpt>
      <trkpt lat="37.459283000" lon="-3.859726000">
        <ele>873.4</ele>
        <time>2020-10-14T11:04:42Z</time>
      </trkpt>
      <trkpt lat="37.459250000" lon="-3.859615000">
        <ele>873.9</ele>
        <time>2020-10-14T11:04:45Z</time>
      </trkpt>
      <trkpt lat="37.459224000" lon="-3.859504000">
        <ele>874.5</ele>
        <time>2020-10-14T11:04:48Z</time>
      </trkpt>
      <trkpt lat="37.459202000" lon="-3.859399000">
        <ele>875.1</ele>
        <time>2020-10-14T11:04:51Z</time>
      </trkpt>
      <trkpt lat="37.459190000" lon="-3.859286000">
        <ele>875.5</ele>
        <time>2020-10-14T11:04:54Z</time>
      </trkpt>
      <trkpt lat="37.459184000" lon="-3.859166000">
        <ele>876.0</ele>
        <time>2020-10-14T11:04:57Z</time>
      </trkpt>
      <trkpt lat="37.459175000" lon="-3.859059000">
        <ele>876.4</ele>
        <time>2020-10-14T11:05:00Z</time>
      </trkpt>
      <trkpt lat="37.459175000" lon="-3.858925000">
        <ele>876.8</ele>
        <time>2020-10-14T11:05:04Z</time>
      </trkpt>
      <trkpt lat="37.459186000" lon="-3.858797000">
        <ele>877.3</ele>
        <time>2020-10-14T11:05:08Z</time>
      </trkpt>
      <trkpt lat="37.459207000" lon="-3.858665000">
        <ele>877.6</ele>
        <time>2020-10-14T11:05:12Z</time>
      </trkpt>
      <trkpt lat="37.459227000" lon="-3.858533000">
        <ele>878.0</ele>
        <time>2020-10-14T11:05:16Z</time>
      </trkpt>
      <trkpt lat="37.459248000" lon="-3.858433000">
        <ele>878.3</ele>
        <time>2020-10-14T11:05:19Z</time>
      </trkpt>
      <trkpt lat="37.459277000" lon="-3.858337000">
        <ele>878.5</ele>
        <time>2020-10-14T11:05:22Z</time>
      </trkpt>
      <trkpt lat="37.459304000" lon="-3.858207000">
        <ele>878.5</ele>
        <time>2020-10-14T11:05:26Z</time>
      </trkpt>
      <trkpt lat="37.459327000" lon="-3.858101000">
        <ele>878.6</ele>
        <time>2020-10-14T11:05:29Z</time>
      </trkpt>
      <trkpt lat="37.459351000" lon="-3.857999000">
        <ele>878.8</ele>
        <time>2020-10-14T11:05:32Z</time>
      </trkpt>
      <trkpt lat="37.459369000" lon="-3.857898000">
        <ele>879.1</ele>
        <time>2020-10-14T11:05:35Z</time>
      </trkpt>
      <trkpt lat="37.459383000" lon="-3.857795000">
        <ele>879.5</ele>
        <time>2020-10-14T11:05:38Z</time>
      </trkpt>
      <trkpt lat="37.459390000" lon="-3.857687000">
        <ele>879.7</ele>
        <time>2020-10-14T11:05:41Z</time>
      </trkpt>
      <trkpt lat="37.459390000" lon="-3.857583000">
        <ele>880.1</ele>
        <time>2020-10-14T11:05:44Z</time>
      </trkpt>
      <trkpt lat="37.459371000" lon="-3.857454000">
        <ele>880.6</ele>
        <time>2020-10-14T11:05:48Z</time>
      </trkpt>
      <trkpt lat="37.459357000" lon="-3.857323000">
        <ele>881.1</ele>
        <time>2020-10-14T11:05:52Z</time>
      </trkpt>
      <trkpt lat="37.459333000" lon="-3.857195000">
        <ele>881.6</ele>
        <time>2020-10-14T11:05:56Z</time>
      </trkpt>
      <trkpt lat="37.459307000" lon="-3.857073000">
        <ele>882.2</ele>
        <time>2020-10-14T11:06:00Z</time>
      </trkpt>
      <trkpt lat="37.459279000" lon="-3.856944000">
        <ele>882.7</ele>
        <time>2020-10-14T11:06:04Z</time>
      </trkpt>
      <trkpt lat="37.459253000" lon="-3.856816000">
        <ele>883.3</ele>
        <time>2020-10-14T11:06:08Z</time>
      </trkpt>
      <trkpt lat="37.459232000" lon="-3.856685000">
        <ele>883.7</ele>
        <time>2020-10-14T11:06:12Z</time>
      </trkpt>
      <trkpt lat="37.459208000" lon="-3.856554000">
        <ele>884.2</ele>
        <time>2020-10-14T11:06:16Z</time>
      </trkpt>
      <trkpt lat="37.459185000" lon="-3.856423000">
        <ele>884.5</ele>
        <time>2020-10-14T11:06:20Z</time>
      </trkpt>
      <trkpt lat="37.459158000" lon="-3.856294000">
        <ele>884.9</ele>
        <time>2020-10-14T11:06:24Z</time>
      </trkpt>
      <trkpt lat="37.459133000" lon="-3.856164000">
        <ele>885.2</ele>
        <time>2020-10-14T11:06:28Z</time>
      </trkpt>
      <trkpt lat="37.459112000" lon="-3.856040000">
        <ele>885.5</ele>
        <time>2020-10-14T11:06:32Z</time>
      </trkpt>
      <trkpt lat="37.459089000" lon="-3.855917000">
        <ele>885.7</ele>
        <time>2020-10-14T11:06:36Z</time>
      </trkpt>
      <trkpt lat="37.459062000" lon="-3.855787000">
        <ele>886.0</ele>
        <time>2020-10-14T11:06:40Z</time>
      </trkpt>
      <trkpt lat="37.459043000" lon="-3.855687000">
        <ele>886.4</ele>
        <time>2020-10-14T11:06:43Z</time>
      </trkpt>
      <trkpt lat="37.459022000" lon="-3.855584000">
        <ele>886.8</ele>
        <time>2020-10-14T11:06:46Z</time>
      </trkpt>
      <trkpt lat="37.459001000" lon="-3.855485000">
        <ele>887.4</ele>
        <time>2020-10-14T11:06:49Z</time>
      </trkpt>
      <trkpt lat="37.458981000" lon="-3.855361000">
        <ele>887.9</ele>
        <time>2020-10-14T11:06:53Z</time>
      </trkpt>
      <trkpt lat="37.458961000" lon="-3.855261000">
        <ele>888.4</ele>
        <time>2020-10-14T11:06:56Z</time>
      </trkpt>
      <trkpt lat="37.458942000" lon="-3.855157000">
        <ele>888.8</ele>
        <time>2020-10-14T11:06:59Z</time>
      </trkpt>
      <trkpt lat="37.458922000" lon="-3.855047000">
        <ele>889.4</ele>
        <time>2020-10-14T11:07:02Z</time>
      </trkpt>
      <trkpt lat="37.458903000" lon="-3.854940000">
        <ele>889.9</ele>
        <time>2020-10-14T11:07:05Z</time>
      </trkpt>
      <trkpt lat="37.458882000" lon="-3.854833000">
        <ele>890.5</ele>
        <time>2020-10-14T11:07:08Z</time>
      </trkpt>
      <trkpt lat="37.458863000" lon="-3.854729000">
        <ele>891.1</ele>
        <time>2020-10-14T11:07:11Z</time>
      </trkpt>
      <trkpt lat="37.458845000" lon="-3.854621000">
        <ele>891.7</ele>
        <time>2020-10-14T11:07:14Z</time>
      </trkpt>
      <trkpt lat="37.458828000" lon="-3.854511000">
        <ele>892.3</ele>
        <time>2020-10-14T11:07:17Z</time>
      </trkpt>
      <trkpt lat="37.458806000" lon="-3.854401000">
        <ele>892.7</ele>
        <time>2020-10-14T11:07:20Z</time>
      </trkpt>
      <trkpt lat="37.458786000" lon="-3.854292000">
        <ele>893.1</ele>
        <time>2020-10-14T11:07:23Z</time>
      </trkpt>
      <trkpt lat="37.458755000" lon="-3.854183000">
        <ele>893.5</ele>
        <time>2020-10-14T11:07:26Z</time>
      </trkpt>
      <trkpt lat="37.458725000" lon="-3.854078000">
        <ele>894.0</ele>
        <time>2020-10-14T11:07:29Z</time>
      </trkpt>
      <trkpt lat="37.458684000" lon="-3.853954000">
        <ele>894.5</ele>
        <time>2020-10-14T11:07:33Z</time>
      </trkpt>
      <trkpt lat="37.458654000" lon="-3.853855000">
        <ele>895.1</ele>
        <time>2020-10-14T11:07:36Z</time>
      </trkpt>
      <trkpt lat="37.458621000" lon="-3.853750000">
        <ele>895.6</ele>
        <time>2020-10-14T11:07:39Z</time>
      </trkpt>
      <trkpt lat="37.458588000" lon="-3.853637000">
        <ele>896.1</ele>
        <time>2020-10-14T11:07:42Z</time>
      </trkpt>
      <trkpt lat="37.458561000" lon="-3.853540000">
        <ele>896.6</ele>
        <time>2020-10-14T11:07:45Z</time>
      </trkpt>
      <trkpt lat="37.458528000" lon="-3.853420000">
        <ele>897.2</ele>
        <time>2020-10-14T11:07:49Z</time>
      </trkpt>
      <trkpt lat="37.458494000" lon="-3.853304000">
        <ele>897.7</ele>
        <time>2020-10-14T11:07:53Z</time>
      </trkpt>
      <trkpt lat="37.458462000" lon="-3.853182000">
        <ele>898.3</ele>
        <time>2020-10-14T11:07:57Z</time>
      </trkpt>
      <trkpt lat="37.458437000" lon="-3.853065000">
        <ele>898.7</ele>
        <time>2020-10-14T11:08:01Z</time>
      </trkpt>
      <trkpt lat="37.458408000" lon="-3.852937000">
        <ele>899.1</ele>
        <time>2020-10-14T11:08:05Z</time>
      </trkpt>
      <trkpt lat="37.458384000" lon="-3.852821000">
        <ele>899.5</ele>
        <time>2020-10-14T11:08:09Z</time>
      </trkpt>
      <trkpt lat="37.458356000" lon="-3.852707000">
        <ele>899.7</ele>
        <time>2020-10-14T11:08:13Z</time>
      </trkpt>
      <trkpt lat="37.458326000" lon="-3.852591000">
        <ele>900.0</ele>
        <time>2020-10-14T11:08:17Z</time>
      </trkpt>
      <trkpt lat="37.458295000" lon="-3.852470000">
        <ele>900.4</ele>
        <time>2020-10-14T11:08:21Z</time>
      </trkpt>
      <trkpt lat="37.458265000" lon="-3.852346000">
        <ele>900.8</ele>
        <time>2020-10-14T11:08:25Z</time>
      </trkpt>
      <trkpt lat="37.458238000" lon="-3.852220000">
        <ele>901.3</ele>
        <time>2020-10-14T11:08:29Z</time>
      </trkpt>
      <trkpt lat="37.458208000" lon="-3.852099000">
        <ele>901.7</ele>
        <time>2020-10-14T11:08:33Z</time>
      </trkpt>
      <trkpt lat="37.458179000" lon="-3.851980000">
        <ele>902.3</ele>
        <time>2020-10-14T11:08:37Z</time>
      </trkpt>
      <trkpt lat="37.458148000" lon="-3.851853000">
        <ele>902.9</ele>
        <time>2020-10-14T11:08:41Z</time>
      </trkpt>
      <trkpt lat="37.458120000" lon="-3.851756000">
        <ele>903.6</ele>
        <time>2020-10-14T11:08:44Z</time>
      </trkpt>
      <trkpt lat="37.458088000" lon="-3.851622000">
        <ele>904.5</ele>
        <time>2020-10-14T11:08:48Z</time>
      </trkpt>
      <trkpt lat="37.458057000" lon="-3.851501000">
        <ele>905.5</ele>
        <time>2020-10-14T11:08:51Z</time>
      </trkpt>
      <trkpt lat="37.458028000" lon="-3.851368000">
        <ele>906.5</ele>
        <time>2020-10-14T11:08:55Z</time>
      </trkpt>
      <trkpt lat="37.458008000" lon="-3.851248000">
        <ele>907.4</ele>
        <time>2020-10-14T11:08:58Z</time>
      </trkpt>
      <trkpt lat="37.457992000" lon="-3.851146000">
        <ele>908.2</ele>
        <time>2020-10-14T11:09:01Z</time>
      </trkpt>
      <trkpt lat="37.457980000" lon="-3.851030000">
        <ele>908.9</ele>
        <time>2020-10-14T11:09:05Z</time>
      </trkpt>
      <trkpt lat="37.457965000" lon="-3.850928000">
        <ele>909.4</ele>
        <time>2020-10-14T11:09:08Z</time>
      </trkpt>
      <trkpt lat="37.457959000" lon="-3.850821000">
        <ele>909.7</ele>
        <time>2020-10-14T11:09:11Z</time>
      </trkpt>
      <trkpt lat="37.457953000" lon="-3.850709000">
        <ele>910.0</ele>
        <time>2020-10-14T11:09:14Z</time>
      </trkpt>
      <trkpt lat="37.457945000" lon="-3.850593000">
        <ele>910.1</ele>
        <time>2020-10-14T11:09:17Z</time>
      </trkpt>
      <trkpt lat="37.457939000" lon="-3.850476000">
        <ele>910.3</ele>
        <time>2020-10-14T11:09:20Z</time>
      </trkpt>
      <trkpt lat="37.457931000" lon="-3.850360000">
        <ele>910.4</ele>
        <time>2020-10-14T11:09:23Z</time>
      </trkpt>
      <trkpt lat="37.457913000" lon="-3.850241000">
        <ele>910.4</ele>
        <time>2020-10-14T11:09:26Z</time>
      </trkpt>
      <trkpt lat="37.457898000" lon="-3.850113000">
        <ele>910.4</ele>
        <time>2020-10-14T11:09:29Z</time>
      </trkpt>
      <trkpt lat="37.457885000" lon="-3.849980000">
        <ele>910.4</ele>
        <time>2020-10-14T11:09:32Z</time>
      </trkpt>
      <trkpt lat="37.457878000" lon="-3.849844000">
        <ele>910.4</ele>
        <time>2020-10-14T11:09:35Z</time>
      </trkpt>
      <trkpt lat="37.457873000" lon="-3.849708000">
        <ele>910.3</ele>
        <time>2020-10-14T11:09:38Z</time>
      </trkpt>
      <trkpt lat="37.457866000" lon="-3.849575000">
        <ele>910.3</ele>
        <time>2020-10-14T11:09:41Z</time>
      </trkpt>
      <trkpt lat="37.457862000" lon="-3.849440000">
        <ele>910.4</ele>
        <time>2020-10-14T11:09:44Z</time>
      </trkpt>
      <trkpt lat="37.457855000" lon="-3.849309000">
        <ele>910.5</ele>
        <time>2020-10-14T11:09:47Z</time>
      </trkpt>
      <trkpt lat="37.457845000" lon="-3.849177000">
        <ele>910.8</ele>
        <time>2020-10-14T11:09:50Z</time>
      </trkpt>
      <trkpt lat="37.457839000" lon="-3.849049000">
        <ele>911.1</ele>
        <time>2020-10-14T11:09:53Z</time>
      </trkpt>
      <trkpt lat="37.457831000" lon="-3.848919000">
        <ele>911.4</ele>
        <time>2020-10-14T11:09:56Z</time>
      </trkpt>
      <trkpt lat="37.457823000" lon="-3.848786000">
        <ele>911.5</ele>
        <time>2020-10-14T11:09:59Z</time>
      </trkpt>
      <trkpt lat="37.457811000" lon="-3.848655000">
        <ele>911.7</ele>
        <time>2020-10-14T11:10:02Z</time>
      </trkpt>
      <trkpt lat="37.457803000" lon="-3.848530000">
        <ele>911.8</ele>
        <time>2020-10-14T11:10:05Z</time>
      </trkpt>
      <trkpt lat="37.457797000" lon="-3.848411000">
        <ele>911.9</ele>
        <time>2020-10-14T11:10:08Z</time>
      </trkpt>
      <trkpt lat="37.457789000" lon="-3.848309000">
        <ele>912.0</ele>
        <time>2020-10-14T11:10:11Z</time>
      </trkpt>
      <trkpt lat="37.457784000" lon="-3.848206000">
        <ele>912.0</ele>
        <time>2020-10-14T11:10:14Z</time>
      </trkpt>
      <trkpt lat="37.457775000" lon="-3.848094000">
        <ele>911.8</ele>
        <time>2020-10-14T11:10:17Z</time>
      </trkpt>
      <trkpt lat="37.457767000" lon="-3.847956000">
        <ele>911.5</ele>
        <time>2020-10-14T11:10:20Z</time>
      </trkpt>
      <trkpt lat="37.457752000" lon="-3.847836000">
        <ele>911.2</ele>
        <time>2020-10-14T11:10:22Z</time>
      </trkpt>
      <trkpt lat="37.457745000" lon="-3.847699000">
        <ele>910.8</ele>
        <time>2020-10-14T11:10:24Z</time>
      </trkpt>
      <trkpt lat="37.457739000" lon="-3.847550000">
        <ele>910.5</ele>
        <time>2020-10-14T11:10:26Z</time>
      </trkpt>
      <trkpt lat="37.457733000" lon="-3.847384000">
        <ele>910.1</ele>
        <time>2020-10-14T11:10:28Z</time>
      </trkpt>
      <trkpt lat="37.457736000" lon="-3.847213000">
        <ele>909.4</ele>
        <time>2020-10-14T11:10:30Z</time>
      </trkpt>
      <trkpt lat="37.457744000" lon="-3.847043000">
        <ele>908.5</ele>
        <time>2020-10-14T11:10:32Z</time>
      </trkpt>
      <trkpt lat="37.457767000" lon="-3.846871000">
        <ele>907.3</ele>
        <time>2020-10-14T11:10:34Z</time>
      </trkpt>
      <trkpt lat="37.457805000" lon="-3.846694000">
        <ele>906.0</ele>
        <time>2020-10-14T11:10:36Z</time>
      </trkpt>
      <trkpt lat="37.457854000" lon="-3.846525000">
        <ele>904.8</ele>
        <time>2020-10-14T11:10:38Z</time>
      </trkpt>
      <trkpt lat="37.457915000" lon="-3.846355000">
        <ele>903.6</ele>
        <time>2020-10-14T11:10:40Z</time>
      </trkpt>
      <trkpt lat="37.457981000" lon="-3.846188000">
        <ele>902.5</ele>
        <time>2020-10-14T11:10:42Z</time>
      </trkpt>
      <trkpt lat="37.458058000" lon="-3.846023000">
        <ele>901.1</ele>
        <time>2020-10-14T11:10:44Z</time>
      </trkpt>
      <trkpt lat="37.458135000" lon="-3.845851000">
        <ele>899.6</ele>
        <time>2020-10-14T11:10:46Z</time>
      </trkpt>
      <trkpt lat="37.458223000" lon="-3.845688000">
        <ele>898.0</ele>
        <time>2020-10-14T11:10:48Z</time>
      </trkpt>
      <trkpt lat="37.458308000" lon="-3.845518000">
        <ele>896.5</ele>
        <time>2020-10-14T11:10:50Z</time>
      </trkpt>
      <trkpt lat="37.458396000" lon="-3.845342000">
        <ele>895.2</ele>
        <time>2020-10-14T11:10:52Z</time>
      </trkpt>
      <trkpt lat="37.458445000" lon="-3.845246000">
        <ele>894.1</ele>
        <time>2020-10-14T11:10:53Z</time>
      </trkpt>
      <trkpt lat="37.458491000" lon="-3.845148000">
        <ele>893.3</ele>
        <time>2020-10-14T11:10:54Z</time>
      </trkpt>
      <trkpt lat="37.458540000" lon="-3.845048000">
        <ele>892.6</ele>
        <time>2020-10-14T11:10:55Z</time>
      </trkpt>
      <trkpt lat="37.458592000" lon="-3.844944000">
        <ele>891.9</ele>
        <time>2020-10-14T11:10:56Z</time>
      </trkpt>
      <trkpt lat="37.458644000" lon="-3.844843000">
        <ele>891.3</ele>
        <time>2020-10-14T11:10:57Z</time>
      </trkpt>
      <trkpt lat="37.458696000" lon="-3.844732000">
        <ele>890.7</ele>
        <time>2020-10-14T11:10:58Z</time>
      </trkpt>
      <trkpt lat="37.458751000" lon="-3.844618000">
        <ele>890.2</ele>
        <time>2020-10-14T11:10:59Z</time>
      </trkpt>
      <trkpt lat="37.458802000" lon="-3.844508000">
        <ele>889.6</ele>
        <time>2020-10-14T11:11:00Z</time>
      </trkpt>
      <trkpt lat="37.458855000" lon="-3.844400000">
        <ele>889.1</ele>
        <time>2020-10-14T11:11:01Z</time>
      </trkpt>
      <trkpt lat="37.458906000" lon="-3.844294000">
        <ele>888.5</ele>
        <time>2020-10-14T11:11:02Z</time>
      </trkpt>
      <trkpt lat="37.458958000" lon="-3.844191000">
        <ele>887.8</ele>
        <time>2020-10-14T11:11:03Z</time>
      </trkpt>
      <trkpt lat="37.459007000" lon="-3.844090000">
        <ele>887.2</ele>
        <time>2020-10-14T11:11:04Z</time>
      </trkpt>
      <trkpt lat="37.459055000" lon="-3.843991000">
        <ele>886.5</ele>
        <time>2020-10-14T11:11:05Z</time>
      </trkpt>
      <trkpt lat="37.459107000" lon="-3.843887000">
        <ele>885.6</ele>
        <time>2020-10-14T11:11:06Z</time>
      </trkpt>
      <trkpt lat="37.459159000" lon="-3.843779000">
        <ele>884.9</ele>
        <time>2020-10-14T11:11:07Z</time>
      </trkpt>
      <trkpt lat="37.459214000" lon="-3.843669000">
        <ele>884.1</ele>
        <time>2020-10-14T11:11:08Z</time>
      </trkpt>
      <trkpt lat="37.459267000" lon="-3.843558000">
        <ele>883.3</ele>
        <time>2020-10-14T11:11:09Z</time>
      </trkpt>
      <trkpt lat="37.459320000" lon="-3.843455000">
        <ele>882.5</ele>
        <time>2020-10-14T11:11:10Z</time>
      </trkpt>
      <trkpt lat="37.459373000" lon="-3.843348000">
        <ele>881.6</ele>
        <time>2020-10-14T11:11:11Z</time>
      </trkpt>
      <trkpt lat="37.459429000" lon="-3.843234000">
        <ele>880.9</ele>
        <time>2020-10-14T11:11:12Z</time>
      </trkpt>
      <trkpt lat="37.459490000" lon="-3.843116000">
        <ele>880.2</ele>
        <time>2020-10-14T11:11:13Z</time>
      </trkpt>
      <trkpt lat="37.459549000" lon="-3.842998000">
        <ele>879.6</ele>
        <time>2020-10-14T11:11:14Z</time>
      </trkpt>
      <trkpt lat="37.459609000" lon="-3.842873000">
        <ele>879.1</ele>
        <time>2020-10-14T11:11:15Z</time>
      </trkpt>
      <trkpt lat="37.459667000" lon="-3.842749000">
        <ele>878.6</ele>
        <time>2020-10-14T11:11:16Z</time>
      </trkpt>
      <trkpt lat="37.459724000" lon="-3.842625000">
        <ele>878.3</ele>
        <time>2020-10-14T11:11:17Z</time>
      </trkpt>
      <trkpt lat="37.459783000" lon="-3.842503000">
        <ele>877.9</ele>
        <time>2020-10-14T11:11:18Z</time>
      </trkpt>
      <trkpt lat="37.459839000" lon="-3.842384000">
        <ele>877.5</ele>
        <time>2020-10-14T11:11:19Z</time>
      </trkpt>
      <trkpt lat="37.459896000" lon="-3.842264000">
        <ele>877.1</ele>
        <time>2020-10-14T11:11:20Z</time>
      </trkpt>
      <trkpt lat="37.459953000" lon="-3.842147000">
        <ele>876.7</ele>
        <time>2020-10-14T11:11:21Z</time>
      </trkpt>
      <trkpt lat="37.460008000" lon="-3.842032000">
        <ele>876.4</ele>
        <time>2020-10-14T11:11:22Z</time>
      </trkpt>
      <trkpt lat="37.460065000" lon="-3.841919000">
        <ele>876.0</ele>
        <time>2020-10-14T11:11:23Z</time>
      </trkpt>
      <trkpt lat="37.460120000" lon="-3.841807000">
        <ele>875.6</ele>
        <time>2020-10-14T11:11:24Z</time>
      </trkpt>
      <trkpt lat="37.460176000" lon="-3.841698000">
        <ele>875.2</ele>
        <time>2020-10-14T11:11:25Z</time>
      </trkpt>
      <trkpt lat="37.460232000" lon="-3.841588000">
        <ele>874.6</ele>
        <time>2020-10-14T11:11:26Z</time>
      </trkpt>
      <trkpt lat="37.460286000" lon="-3.841476000">
        <ele>874.1</ele>
        <time>2020-10-14T11:11:27Z</time>
      </trkpt>
      <trkpt lat="37.460341000" lon="-3.841367000">
        <ele>873.5</ele>
        <time>2020-10-14T11:11:28Z</time>
      </trkpt>
      <trkpt lat="37.460394000" lon="-3.841257000">
        <ele>872.7</ele>
        <time>2020-10-14T11:11:29Z</time>
      </trkpt>
      <trkpt lat="37.460447000" lon="-3.841145000">
        <ele>872.0</ele>
        <time>2020-10-14T11:11:30Z</time>
      </trkpt>
      <trkpt lat="37.460499000" lon="-3.841037000">
        <ele>871.4</ele>
        <time>2020-10-14T11:11:31Z</time>
      </trkpt>
      <trkpt lat="37.460551000" lon="-3.840931000">
        <ele>870.6</ele>
        <time>2020-10-14T11:11:32Z</time>
      </trkpt>
      <trkpt lat="37.460602000" lon="-3.840829000">
        <ele>870.0</ele>
        <time>2020-10-14T11:11:33Z</time>
      </trkpt>
      <trkpt lat="37.460652000" lon="-3.840727000">
        <ele>869.4</ele>
        <time>2020-10-14T11:11:34Z</time>
      </trkpt>
      <trkpt lat="37.460702000" lon="-3.840626000">
        <ele>868.9</ele>
        <time>2020-10-14T11:11:35Z</time>
      </trkpt>
      <trkpt lat="37.460752000" lon="-3.840525000">
        <ele>868.5</ele>
        <time>2020-10-14T11:11:36Z</time>
      </trkpt>
      <trkpt lat="37.460803000" lon="-3.840426000">
        <ele>868.3</ele>
        <time>2020-10-14T11:11:37Z</time>
      </trkpt>
      <trkpt lat="37.460851000" lon="-3.840328000">
        <ele>867.9</ele>
        <time>2020-10-14T11:11:38Z</time>
      </trkpt>
      <trkpt lat="37.460899000" lon="-3.840234000">
        <ele>867.6</ele>
        <time>2020-10-14T11:11:39Z</time>
      </trkpt>
      <trkpt lat="37.460942000" lon="-3.840142000">
        <ele>867.5</ele>
        <time>2020-10-14T11:11:40Z</time>
      </trkpt>
      <trkpt lat="37.460988000" lon="-3.840053000">
        <ele>867.5</ele>
        <time>2020-10-14T11:11:41Z</time>
      </trkpt>
      <trkpt lat="37.461028000" lon="-3.839961000">
        <ele>867.5</ele>
        <time>2020-10-14T11:11:42Z</time>
      </trkpt>
      <trkpt lat="37.461111000" lon="-3.839787000">
        <ele>867.6</ele>
        <time>2020-10-14T11:11:44Z</time>
      </trkpt>
      <trkpt lat="37.461183000" lon="-3.839629000">
        <ele>867.9</ele>
        <time>2020-10-14T11:11:46Z</time>
      </trkpt>
      <trkpt lat="37.461251000" lon="-3.839466000">
        <ele>868.4</ele>
        <time>2020-10-14T11:11:48Z</time>
      </trkpt>
      <trkpt lat="37.461319000" lon="-3.839312000">
        <ele>869.0</ele>
        <time>2020-10-14T11:11:50Z</time>
      </trkpt>
      <trkpt lat="37.461389000" lon="-3.839168000">
        <ele>869.8</ele>
        <time>2020-10-14T11:11:52Z</time>
      </trkpt>
      <trkpt lat="37.461453000" lon="-3.839026000">
        <ele>870.7</ele>
        <time>2020-10-14T11:11:54Z</time>
      </trkpt>
      <trkpt lat="37.461520000" lon="-3.838894000">
        <ele>871.7</ele>
        <time>2020-10-14T11:11:56Z</time>
      </trkpt>
      <trkpt lat="37.461575000" lon="-3.838756000">
        <ele>872.7</ele>
        <time>2020-10-14T11:11:58Z</time>
      </trkpt>
      <trkpt lat="37.461592000" lon="-3.838605000">
        <ele>873.6</ele>
        <time>2020-10-14T11:12:00Z</time>
      </trkpt>
      <trkpt lat="37.461576000" lon="-3.838455000">
        <ele>874.5</ele>
        <time>2020-10-14T11:12:02Z</time>
      </trkpt>
      <trkpt lat="37.461543000" lon="-3.838330000">
        <ele>875.2</ele>
        <time>2020-10-14T11:12:04Z</time>
      </trkpt>
      <trkpt lat="37.461500000" lon="-3.838224000">
        <ele>875.7</ele>
        <time>2020-10-14T11:12:06Z</time>
      </trkpt>
      <trkpt lat="37.461446000" lon="-3.838132000">
        <ele>876.2</ele>
        <time>2020-10-14T11:12:08Z</time>
      </trkpt>
      <trkpt lat="37.461390000" lon="-3.838055000">
        <ele>876.5</ele>
        <time>2020-10-14T11:12:10Z</time>
      </trkpt>
      <trkpt lat="37.461333000" lon="-3.837977000">
        <ele>876.5</ele>
        <time>2020-10-14T11:12:12Z</time>
      </trkpt>
      <trkpt lat="37.461257000" lon="-3.837871000">
        <ele>876.3</ele>
        <time>2020-10-14T11:12:15Z</time>
      </trkpt>
      <trkpt lat="37.461182000" lon="-3.837764000">
        <ele>875.9</ele>
        <time>2020-10-14T11:12:18Z</time>
      </trkpt>
      <trkpt lat="37.461112000" lon="-3.837662000">
        <ele>875.5</ele>
        <time>2020-10-14T11:12:21Z</time>
      </trkpt>
      <trkpt lat="37.461044000" lon="-3.837564000">
        <ele>875.3</ele>
        <time>2020-10-14T11:12:24Z</time>
      </trkpt>
      <trkpt lat="37.460981000" lon="-3.837468000">
        <ele>875.1</ele>
        <time>2020-10-14T11:12:27Z</time>
      </trkpt>
      <trkpt lat="37.460921000" lon="-3.837373000">
        <ele>874.9</ele>
        <time>2020-10-14T11:12:30Z</time>
      </trkpt>
      <trkpt lat="37.460859000" lon="-3.837273000">
        <ele>874.9</ele>
        <time>2020-10-14T11:12:33Z</time>
      </trkpt>
      <trkpt lat="37.460805000" lon="-3.837164000">
        <ele>875.1</ele>
        <time>2020-10-14T11:12:36Z</time>
      </trkpt>
      <trkpt lat="37.460770000" lon="-3.837045000">
        <ele>875.4</ele>
        <time>2020-10-14T11:12:39Z</time>
      </trkpt>
      <trkpt lat="37.460748000" lon="-3.836919000">
        <ele>875.7</ele>
        <time>2020-10-14T11:12:42Z</time>
      </trkpt>
      <trkpt lat="37.460750000" lon="-3.836795000">
        <ele>876.2</ele>
        <time>2020-10-14T11:12:45Z</time>
      </trkpt>
      <trkpt lat="37.460765000" lon="-3.836676000">
        <ele>876.7</ele>
        <time>2020-10-14T11:12:48Z</time>
      </trkpt>
      <trkpt lat="37.460797000" lon="-3.836572000">
        <ele>877.5</ele>
        <time>2020-10-14T11:12:51Z</time>
      </trkpt>
      <trkpt lat="37.460854000" lon="-3.836488000">
        <ele>878.5</ele>
        <time>2020-10-14T11:12:54Z</time>
      </trkpt>
      <trkpt lat="37.460916000" lon="-3.836414000">
        <ele>879.6</ele>
        <time>2020-10-14T11:12:57Z</time>
      </trkpt>
      <trkpt lat="37.460992000" lon="-3.836364000">
        <ele>880.8</ele>
        <time>2020-10-14T11:13:00Z</time>
      </trkpt>
      <trkpt lat="37.461083000" lon="-3.836337000">
        <ele>882.0</ele>
        <time>2020-10-14T11:13:03Z</time>
      </trkpt>
      <trkpt lat="37.461184000" lon="-3.836333000">
        <ele>883.1</ele>
        <time>2020-10-14T11:13:06Z</time>
      </trkpt>
      <trkpt lat="37.461298000" lon="-3.836348000">
        <ele>884.1</ele>
        <time>2020-10-14T11:13:09Z</time>
      </trkpt>
      <trkpt lat="37.461417000" lon="-3.836374000">
        <ele>885.0</ele>
        <time>2020-10-14T11:13:12Z</time>
      </trkpt>
      <trkpt lat="37.461535000" lon="-3.836391000">
        <ele>885.8</ele>
        <time>2020-10-14T11:13:15Z</time>
      </trkpt>
      <trkpt lat="37.461652000" lon="-3.836409000">
        <ele>886.5</ele>
        <time>2020-10-14T11:13:18Z</time>
      </trkpt>
      <trkpt lat="37.461767000" lon="-3.836426000">
        <ele>887.2</ele>
        <time>2020-10-14T11:13:21Z</time>
      </trkpt>
      <trkpt lat="37.461868000" lon="-3.836445000">
        <ele>887.6</ele>
        <time>2020-10-14T11:13:24Z</time>
      </trkpt>
      <trkpt lat="37.461959000" lon="-3.836464000">
        <ele>887.9</ele>
        <time>2020-10-14T11:13:27Z</time>
      </trkpt>
      <trkpt lat="37.462050000" lon="-3.836480000">
        <ele>888.1</ele>
        <time>2020-10-14T11:13:31Z</time>
      </trkpt>
      <trkpt lat="37.462137000" lon="-3.836493000">
        <ele>888.2</ele>
        <time>2020-10-14T11:13:34Z</time>
      </trkpt>
      <trkpt lat="37.462218000" lon="-3.836509000">
        <ele>888.3</ele>
        <time>2020-10-14T11:13:37Z</time>
      </trkpt>
      <trkpt lat="37.462316000" lon="-3.836531000">
        <ele>888.4</ele>
        <time>2020-10-14T11:13:41Z</time>
      </trkpt>
      <trkpt lat="37.462413000" lon="-3.836558000">
        <ele>888.5</ele>
        <time>2020-10-14T11:13:45Z</time>
      </trkpt>
      <trkpt lat="37.462509000" lon="-3.836596000">
        <ele>888.7</ele>
        <time>2020-10-14T11:13:49Z</time>
      </trkpt>
      <trkpt lat="37.462604000" lon="-3.836644000">
        <ele>889.0</ele>
        <time>2020-10-14T11:13:53Z</time>
      </trkpt>
      <trkpt lat="37.462688000" lon="-3.836690000">
        <ele>889.4</ele>
        <time>2020-10-14T11:13:57Z</time>
      </trkpt>
      <trkpt lat="37.462767000" lon="-3.836734000">
        <ele>889.8</ele>
        <time>2020-10-14T11:14:01Z</time>
      </trkpt>
      <trkpt lat="37.462841000" lon="-3.836791000">
        <ele>890.3</ele>
        <time>2020-10-14T11:14:05Z</time>
      </trkpt>
      <trkpt lat="37.462919000" lon="-3.836848000">
        <ele>890.7</ele>
        <time>2020-10-14T11:14:09Z</time>
      </trkpt>
      <trkpt lat="37.462998000" lon="-3.836907000">
        <ele>891.1</ele>
        <time>2020-10-14T11:14:13Z</time>
      </trkpt>
      <trkpt lat="37.463079000" lon="-3.836960000">
        <ele>891.5</ele>
        <time>2020-10-14T11:14:17Z</time>
      </trkpt>
      <trkpt lat="37.463163000" lon="-3.837009000">
        <ele>891.9</ele>
        <time>2020-10-14T11:14:21Z</time>
      </trkpt>
      <trkpt lat="37.463249000" lon="-3.837051000">
        <ele>892.4</ele>
        <time>2020-10-14T11:14:25Z</time>
      </trkpt>
      <trkpt lat="37.463337000" lon="-3.837083000">
        <ele>892.8</ele>
        <time>2020-10-14T11:14:29Z</time>
      </trkpt>
      <trkpt lat="37.463427000" lon="-3.837092000">
        <ele>893.3</ele>
        <time>2020-10-14T11:14:33Z</time>
      </trkpt>
      <trkpt lat="37.463527000" lon="-3.837093000">
        <ele>893.7</ele>
        <time>2020-10-14T11:14:37Z</time>
      </trkpt>
      <trkpt lat="37.463621000" lon="-3.837094000">
        <ele>894.1</ele>
        <time>2020-10-14T11:14:41Z</time>
      </trkpt>
      <trkpt lat="37.463714000" lon="-3.837081000">
        <ele>894.4</ele>
        <time>2020-10-14T11:14:45Z</time>
      </trkpt>
      <trkpt lat="37.463808000" lon="-3.837074000">
        <ele>894.7</ele>
        <time>2020-10-14T11:14:49Z</time>
      </trkpt>
      <trkpt lat="37.463891000" lon="-3.837072000">
        <ele>895.2</ele>
        <time>2020-10-14T11:14:53Z</time>
      </trkpt>
      <trkpt lat="37.463989000" lon="-3.837069000">
        <ele>895.6</ele>
        <time>2020-10-14T11:14:57Z</time>
      </trkpt>
      <trkpt lat="37.464084000" lon="-3.837066000">
        <ele>896.2</ele>
        <time>2020-10-14T11:15:01Z</time>
      </trkpt>
      <trkpt lat="37.464181000" lon="-3.837055000">
        <ele>896.8</ele>
        <time>2020-10-14T11:15:05Z</time>
      </trkpt>
      <trkpt lat="37.464287000" lon="-3.837055000">
        <ele>897.5</ele>
        <time>2020-10-14T11:15:09Z</time>
      </trkpt>
      <trkpt lat="37.464392000" lon="-3.837054000">
        <ele>898.3</ele>
        <time>2020-10-14T11:15:13Z</time>
      </trkpt>
      <trkpt lat="37.464494000" lon="-3.837048000">
        <ele>899.1</ele>
        <time>2020-10-14T11:15:17Z</time>
      </trkpt>
      <trkpt lat="37.464585000" lon="-3.837042000">
        <ele>899.9</ele>
        <time>2020-10-14T11:15:21Z</time>
      </trkpt>
      <trkpt lat="37.464680000" lon="-3.837045000">
        <ele>900.8</ele>
        <time>2020-10-14T11:15:25Z</time>
      </trkpt>
      <trkpt lat="37.464773000" lon="-3.837041000">
        <ele>901.7</ele>
        <time>2020-10-14T11:15:29Z</time>
      </trkpt>
      <trkpt lat="37.464861000" lon="-3.837051000">
        <ele>902.6</ele>
        <time>2020-10-14T11:15:33Z</time>
      </trkpt>
      <trkpt lat="37.464945000" lon="-3.837065000">
        <ele>903.5</ele>
        <time>2020-10-14T11:15:37Z</time>
      </trkpt>
      <trkpt lat="37.465028000" lon="-3.837080000">
        <ele>904.5</ele>
        <time>2020-10-14T11:15:41Z</time>
      </trkpt>
      <trkpt lat="37.465121000" lon="-3.837111000">
        <ele>905.4</ele>
        <time>2020-10-14T11:15:45Z</time>
      </trkpt>
      <trkpt lat="37.465210000" lon="-3.837156000">
        <ele>906.1</ele>
        <time>2020-10-14T11:15:49Z</time>
      </trkpt>
      <trkpt lat="37.465296000" lon="-3.837209000">
        <ele>906.7</ele>
        <time>2020-10-14T11:15:53Z</time>
      </trkpt>
      <trkpt lat="37.465366000" lon="-3.837264000">
        <ele>907.3</ele>
        <time>2020-10-14T11:15:57Z</time>
      </trkpt>
      <trkpt lat="37.465449000" lon="-3.837335000">
        <ele>907.7</ele>
        <time>2020-10-14T11:16:02Z</time>
      </trkpt>
      <trkpt lat="37.465522000" lon="-3.837389000">
        <ele>908.2</ele>
        <time>2020-10-14T11:16:06Z</time>
      </trkpt>
      <trkpt lat="37.465593000" lon="-3.837450000">
        <ele>908.5</ele>
        <time>2020-10-14T11:16:10Z</time>
      </trkpt>
      <trkpt lat="37.465665000" lon="-3.837506000">
        <ele>908.9</ele>
        <time>2020-10-14T11:16:14Z</time>
      </trkpt>
      <trkpt lat="37.465740000" lon="-3.837565000">
        <ele>909.2</ele>
        <time>2020-10-14T11:16:18Z</time>
      </trkpt>
      <trkpt lat="37.465812000" lon="-3.837625000">
        <ele>909.4</ele>
        <time>2020-10-14T11:16:22Z</time>
      </trkpt>
      <trkpt lat="37.465885000" lon="-3.837681000">
        <ele>909.5</ele>
        <time>2020-10-14T11:16:26Z</time>
      </trkpt>
      <trkpt lat="37.465964000" lon="-3.837732000">
        <ele>909.6</ele>
        <time>2020-10-14T11:16:30Z</time>
      </trkpt>
      <trkpt lat="37.466053000" lon="-3.837780000">
        <ele>909.8</ele>
        <time>2020-10-14T11:16:34Z</time>
      </trkpt>
      <trkpt lat="37.466142000" lon="-3.837819000">
        <ele>910.1</ele>
        <time>2020-10-14T11:16:38Z</time>
      </trkpt>
      <trkpt lat="37.466226000" lon="-3.837851000">
        <ele>910.4</ele>
        <time>2020-10-14T11:16:42Z</time>
      </trkpt>
      <trkpt lat="37.466313000" lon="-3.837878000">
        <ele>910.7</ele>
        <time>2020-10-14T11:16:46Z</time>
      </trkpt>
      <trkpt lat="37.466397000" lon="-3.837906000">
        <ele>911.0</ele>
        <time>2020-10-14T11:16:50Z</time>
      </trkpt>
      <trkpt lat="37.466491000" lon="-3.837929000">
        <ele>911.4</ele>
        <time>2020-10-14T11:16:54Z</time>
      </trkpt>
      <trkpt lat="37.466592000" lon="-3.837952000">
        <ele>911.8</ele>
        <time>2020-10-14T11:16:58Z</time>
      </trkpt>
      <trkpt lat="37.466675000" lon="-3.837976000">
        <ele>912.3</ele>
        <time>2020-10-14T11:17:01Z</time>
      </trkpt>
      <trkpt lat="37.466756000" lon="-3.838000000">
        <ele>912.8</ele>
        <time>2020-10-14T11:17:04Z</time>
      </trkpt>
      <trkpt lat="37.466839000" lon="-3.838021000">
        <ele>913.4</ele>
        <time>2020-10-14T11:17:07Z</time>
      </trkpt>
      <trkpt lat="37.466937000" lon="-3.838049000">
        <ele>914.0</ele>
        <time>2020-10-14T11:17:11Z</time>
      </trkpt>
      <trkpt lat="37.467040000" lon="-3.838078000">
        <ele>914.5</ele>
        <time>2020-10-14T11:17:15Z</time>
      </trkpt>
      <trkpt lat="37.467142000" lon="-3.838109000">
        <ele>915.1</ele>
        <time>2020-10-14T11:17:19Z</time>
      </trkpt>
      <trkpt lat="37.467247000" lon="-3.838140000">
        <ele>915.6</ele>
        <time>2020-10-14T11:17:23Z</time>
      </trkpt>
      <trkpt lat="37.467353000" lon="-3.838169000">
        <ele>916.2</ele>
        <time>2020-10-14T11:17:27Z</time>
      </trkpt>
      <trkpt lat="37.467443000" lon="-3.838190000">
        <ele>916.7</ele>
        <time>2020-10-14T11:17:31Z</time>
      </trkpt>
      <trkpt lat="37.467539000" lon="-3.838219000">
        <ele>917.3</ele>
        <time>2020-10-14T11:17:35Z</time>
      </trkpt>
      <trkpt lat="37.467637000" lon="-3.838241000">
        <ele>917.8</ele>
        <time>2020-10-14T11:17:39Z</time>
      </trkpt>
      <trkpt lat="37.467736000" lon="-3.838271000">
        <ele>918.4</ele>
        <time>2020-10-14T11:17:43Z</time>
      </trkpt>
      <trkpt lat="37.467834000" lon="-3.838284000">
        <ele>918.8</ele>
        <time>2020-10-14T11:17:47Z</time>
      </trkpt>
      <trkpt lat="37.467929000" lon="-3.838290000">
        <ele>919.4</ele>
        <time>2020-10-14T11:17:51Z</time>
      </trkpt>
      <trkpt lat="37.468023000" lon="-3.838280000">
        <ele>919.8</ele>
        <time>2020-10-14T11:17:55Z</time>
      </trkpt>
      <trkpt lat="37.468116000" lon="-3.838257000">
        <ele>920.3</ele>
        <time>2020-10-14T11:17:59Z</time>
      </trkpt>
      <trkpt lat="37.468209000" lon="-3.838212000">
        <ele>920.7</ele>
        <time>2020-10-14T11:18:03Z</time>
      </trkpt>
      <trkpt lat="37.468287000" lon="-3.838148000">
        <ele>921.2</ele>
        <time>2020-10-14T11:18:07Z</time>
      </trkpt>
      <trkpt lat="37.468367000" lon="-3.838082000">
        <ele>921.6</ele>
        <time>2020-10-14T11:18:11Z</time>
      </trkpt>
      <trkpt lat="37.468453000" lon="-3.838011000">
        <ele>922.1</ele>
        <time>2020-10-14T11:18:15Z</time>
      </trkpt>
      <trkpt lat="37.468528000" lon="-3.837951000">
        <ele>922.5</ele>
        <time>2020-10-14T11:18:18Z</time>
      </trkpt>
      <trkpt lat="37.468606000" lon="-3.837881000">
        <ele>922.7</ele>
        <time>2020-10-14T11:18:22Z</time>
      </trkpt>
      <trkpt lat="37.468693000" lon="-3.837811000">
        <ele>923.1</ele>
        <time>2020-10-14T11:18:26Z</time>
      </trkpt>
      <trkpt lat="37.468773000" lon="-3.837745000">
        <ele>923.5</ele>
        <time>2020-10-14T11:18:30Z</time>
      </trkpt>
      <trkpt lat="37.468848000" lon="-3.837676000">
        <ele>923.8</ele>
        <time>2020-10-14T11:18:34Z</time>
      </trkpt>
      <trkpt lat="37.468921000" lon="-3.837617000">
        <ele>924.2</ele>
        <time>2020-10-14T11:18:38Z</time>
      </trkpt>
      <trkpt lat="37.469013000" lon="-3.837551000">
        <ele>924.5</ele>
        <time>2020-10-14T11:18:42Z</time>
      </trkpt>
      <trkpt lat="37.469094000" lon="-3.837507000">
        <ele>924.8</ele>
        <time>2020-10-14T11:18:45Z</time>
      </trkpt>
      <trkpt lat="37.469179000" lon="-3.837472000">
        <ele>925.0</ele>
        <time>2020-10-14T11:18:48Z</time>
      </trkpt>
      <trkpt lat="37.469268000" lon="-3.837446000">
        <ele>925.1</ele>
        <time>2020-10-14T11:18:51Z</time>
      </trkpt>
      <trkpt lat="37.469357000" lon="-3.837419000">
        <ele>925.2</ele>
        <time>2020-10-14T11:18:54Z</time>
      </trkpt>
      <trkpt lat="37.469447000" lon="-3.837395000">
        <ele>925.2</ele>
        <time>2020-10-14T11:18:57Z</time>
      </trkpt>
      <trkpt lat="37.469540000" lon="-3.837379000">
        <ele>925.2</ele>
        <time>2020-10-14T11:19:00Z</time>
      </trkpt>
      <trkpt lat="37.469634000" lon="-3.837362000">
        <ele>925.1</ele>
        <time>2020-10-14T11:19:03Z</time>
      </trkpt>
      <trkpt lat="37.469726000" lon="-3.837349000">
        <ele>925.1</ele>
        <time>2020-10-14T11:19:06Z</time>
      </trkpt>
      <trkpt lat="37.469818000" lon="-3.837333000">
        <ele>925.0</ele>
        <time>2020-10-14T11:19:09Z</time>
      </trkpt>
      <trkpt lat="37.469909000" lon="-3.837318000">
        <ele>925.0</ele>
        <time>2020-10-14T11:19:12Z</time>
      </trkpt>
      <trkpt lat="37.470002000" lon="-3.837297000">
        <ele>925.0</ele>
        <time>2020-10-14T11:19:15Z</time>
      </trkpt>
      <trkpt lat="37.470093000" lon="-3.837281000">
        <ele>925.1</ele>
        <time>2020-10-14T11:19:18Z</time>
      </trkpt>
      <trkpt lat="37.470179000" lon="-3.837268000">
        <ele>925.3</ele>
        <time>2020-10-14T11:19:21Z</time>
      </trkpt>
      <trkpt lat="37.470262000" lon="-3.837253000">
        <ele>925.5</ele>
        <time>2020-10-14T11:19:24Z</time>
      </trkpt>
      <trkpt lat="37.470351000" lon="-3.837241000">
        <ele>925.6</ele>
        <time>2020-10-14T11:19:27Z</time>
      </trkpt>
      <trkpt lat="37.470438000" lon="-3.837209000">
        <ele>925.9</ele>
        <time>2020-10-14T11:19:30Z</time>
      </trkpt>
      <trkpt lat="37.470529000" lon="-3.837184000">
        <ele>926.2</ele>
        <time>2020-10-14T11:19:33Z</time>
      </trkpt>
      <trkpt lat="37.470618000" lon="-3.837178000">
        <ele>926.5</ele>
        <time>2020-10-14T11:19:36Z</time>
      </trkpt>
      <trkpt lat="37.470703000" lon="-3.837163000">
        <ele>926.6</ele>
        <time>2020-10-14T11:19:39Z</time>
      </trkpt>
      <trkpt lat="37.470805000" lon="-3.837152000">
        <ele>926.9</ele>
        <time>2020-10-14T11:19:42Z</time>
      </trkpt>
      <trkpt lat="37.470914000" lon="-3.837155000">
        <ele>927.1</ele>
        <time>2020-10-14T11:19:45Z</time>
      </trkpt>
      <trkpt lat="37.470999000" lon="-3.837160000">
        <ele>927.3</ele>
        <time>2020-10-14T11:19:48Z</time>
      </trkpt>
      <trkpt lat="37.471108000" lon="-3.837147000">
        <ele>927.4</ele>
        <time>2020-10-14T11:19:51Z</time>
      </trkpt>
      <trkpt lat="37.471204000" lon="-3.837140000">
        <ele>927.5</ele>
        <time>2020-10-14T11:19:54Z</time>
      </trkpt>
      <trkpt lat="37.471309000" lon="-3.837133000">
        <ele>927.5</ele>
        <time>2020-10-14T11:19:57Z</time>
      </trkpt>
      <trkpt lat="37.471408000" lon="-3.837129000">
        <ele>927.5</ele>
        <time>2020-10-14T11:20:00Z</time>
      </trkpt>
      <trkpt lat="37.471501000" lon="-3.837124000">
        <ele>927.5</ele>
        <time>2020-10-14T11:20:03Z</time>
      </trkpt>
      <trkpt lat="37.471594000" lon="-3.837118000">
        <ele>927.5</ele>
        <time>2020-10-14T11:20:06Z</time>
      </trkpt>
      <trkpt lat="37.471686000" lon="-3.837110000">
        <ele>927.5</ele>
        <time>2020-10-14T11:20:09Z</time>
      </trkpt>
      <trkpt lat="37.471775000" lon="-3.837099000">
        <ele>927.5</ele>
        <time>2020-10-14T11:20:12Z</time>
      </trkpt>
      <trkpt lat="37.471864000" lon="-3.837084000">
        <ele>927.5</ele>
        <time>2020-10-14T11:20:15Z</time>
      </trkpt>
      <trkpt lat="37.471956000" lon="-3.837067000">
        <ele>927.5</ele>
        <time>2020-10-14T11:20:18Z</time>
      </trkpt>
      <trkpt lat="37.472052000" lon="-3.837048000">
        <ele>927.5</ele>
        <time>2020-10-14T11:20:21Z</time>
      </trkpt>
      <trkpt lat="37.472151000" lon="-3.837032000">
        <ele>927.5</ele>
        <time>2020-10-14T11:20:24Z</time>
      </trkpt>
      <trkpt lat="37.472251000" lon="-3.837018000">
        <ele>927.5</ele>
        <time>2020-10-14T11:20:27Z</time>
      </trkpt>
      <trkpt lat="37.472352000" lon="-3.837009000">
        <ele>927.5</ele>
        <time>2020-10-14T11:20:30Z</time>
      </trkpt>
      <trkpt lat="37.472449000" lon="-3.836995000">
        <ele>927.5</ele>
        <time>2020-10-14T11:20:33Z</time>
      </trkpt>
      <trkpt lat="37.472548000" lon="-3.836988000">
        <ele>927.5</ele>
        <time>2020-10-14T11:20:36Z</time>
      </trkpt>
      <trkpt lat="37.472650000" lon="-3.836972000">
        <ele>927.5</ele>
        <time>2020-10-14T11:20:39Z</time>
      </trkpt>
      <trkpt lat="37.472757000" lon="-3.836959000">
        <ele>927.7</ele>
        <time>2020-10-14T11:20:42Z</time>
      </trkpt>
      <trkpt lat="37.472863000" lon="-3.836947000">
        <ele>927.9</ele>
        <time>2020-10-14T11:20:45Z</time>
      </trkpt>
      <trkpt lat="37.472971000" lon="-3.836933000">
        <ele>928.1</ele>
        <time>2020-10-14T11:20:48Z</time>
      </trkpt>
      <trkpt lat="37.473082000" lon="-3.836916000">
        <ele>928.2</ele>
        <time>2020-10-14T11:20:51Z</time>
      </trkpt>
      <trkpt lat="37.473198000" lon="-3.836902000">
        <ele>928.3</ele>
        <time>2020-10-14T11:20:54Z</time>
      </trkpt>
      <trkpt lat="37.473318000" lon="-3.836879000">
        <ele>928.3</ele>
        <time>2020-10-14T11:20:57Z</time>
      </trkpt>
      <trkpt lat="37.473400000" lon="-3.836866000">
        <ele>928.3</ele>
        <time>2020-10-14T11:20:59Z</time>
      </trkpt>
      <trkpt lat="37.473482000" lon="-3.836852000">
        <ele>928.3</ele>
        <time>2020-10-14T11:21:01Z</time>
      </trkpt>
      <trkpt lat="37.473564000" lon="-3.836840000">
        <ele>928.4</ele>
        <time>2020-10-14T11:21:03Z</time>
      </trkpt>
      <trkpt lat="37.473645000" lon="-3.836831000">
        <ele>928.5</ele>
        <time>2020-10-14T11:21:05Z</time>
      </trkpt>
      <trkpt lat="37.473760000" lon="-3.836810000">
        <ele>928.6</ele>
        <time>2020-10-14T11:21:08Z</time>
      </trkpt>
      <trkpt lat="37.473879000" lon="-3.836796000">
        <ele>928.7</ele>
        <time>2020-10-14T11:21:11Z</time>
      </trkpt>
      <trkpt lat="37.473960000" lon="-3.836788000">
        <ele>928.8</ele>
        <time>2020-10-14T11:21:13Z</time>
      </trkpt>
      <trkpt lat="37.474079000" lon="-3.836774000">
        <ele>929.0</ele>
        <time>2020-10-14T11:21:16Z</time>
      </trkpt>
      <trkpt lat="37.474160000" lon="-3.836771000">
        <ele>929.2</ele>
        <time>2020-10-14T11:21:18Z</time>
      </trkpt>
      <trkpt lat="37.474280000" lon="-3.836781000">
        <ele>929.4</ele>
        <time>2020-10-14T11:21:21Z</time>
      </trkpt>
      <trkpt lat="37.474360000" lon="-3.836798000">
        <ele>929.6</ele>
        <time>2020-10-14T11:21:23Z</time>
      </trkpt>
      <trkpt lat="37.474444000" lon="-3.836824000">
        <ele>929.8</ele>
        <time>2020-10-14T11:21:25Z</time>
      </trkpt>
      <trkpt lat="37.474529000" lon="-3.836862000">
        <ele>929.9</ele>
        <time>2020-10-14T11:21:27Z</time>
      </trkpt>
      <trkpt lat="37.474611000" lon="-3.836915000">
        <ele>930.0</ele>
        <time>2020-10-14T11:21:29Z</time>
      </trkpt>
      <trkpt lat="37.474695000" lon="-3.836976000">
        <ele>929.9</ele>
        <time>2020-10-14T11:21:31Z</time>
      </trkpt>
      <trkpt lat="37.474774000" lon="-3.837041000">
        <ele>929.8</ele>
        <time>2020-10-14T11:21:33Z</time>
      </trkpt>
      <trkpt lat="37.474853000" lon="-3.837114000">
        <ele>929.5</ele>
        <time>2020-10-14T11:21:35Z</time>
      </trkpt>
      <trkpt lat="37.474921000" lon="-3.837198000">
        <ele>929.3</ele>
        <time>2020-10-14T11:21:37Z</time>
      </trkpt>
      <trkpt lat="37.474983000" lon="-3.837299000">
        <ele>928.9</ele>
        <time>2020-10-14T11:21:39Z</time>
      </trkpt>
      <trkpt lat="37.475038000" lon="-3.837406000">
        <ele>928.5</ele>
        <time>2020-10-14T11:21:41Z</time>
      </trkpt>
      <trkpt lat="37.475096000" lon="-3.837522000">
        <ele>928.0</ele>
        <time>2020-10-14T11:21:43Z</time>
      </trkpt>
      <trkpt lat="37.475151000" lon="-3.837643000">
        <ele>927.5</ele>
        <time>2020-10-14T11:21:45Z</time>
      </trkpt>
      <trkpt lat="37.475205000" lon="-3.837760000">
        <ele>927.2</ele>
        <time>2020-10-14T11:21:47Z</time>
      </trkpt>
      <trkpt lat="37.475258000" lon="-3.837878000">
        <ele>926.9</ele>
        <time>2020-10-14T11:21:49Z</time>
      </trkpt>
      <trkpt lat="37.475309000" lon="-3.837996000">
        <ele>926.5</ele>
        <time>2020-10-14T11:21:51Z</time>
      </trkpt>
      <trkpt lat="37.475354000" lon="-3.838120000">
        <ele>926.3</ele>
        <time>2020-10-14T11:21:53Z</time>
      </trkpt>
      <trkpt lat="37.475404000" lon="-3.838239000">
        <ele>925.9</ele>
        <time>2020-10-14T11:21:55Z</time>
      </trkpt>
      <trkpt lat="37.475464000" lon="-3.838358000">
        <ele>925.5</ele>
        <time>2020-10-14T11:21:57Z</time>
      </trkpt>
      <trkpt lat="37.475538000" lon="-3.838476000">
        <ele>925.1</ele>
        <time>2020-10-14T11:21:59Z</time>
      </trkpt>
      <trkpt lat="37.475626000" lon="-3.838579000">
        <ele>924.6</ele>
        <time>2020-10-14T11:22:01Z</time>
      </trkpt>
      <trkpt lat="37.475723000" lon="-3.838659000">
        <ele>924.4</ele>
        <time>2020-10-14T11:22:03Z</time>
      </trkpt>
      <trkpt lat="37.475840000" lon="-3.838721000">
        <ele>924.1</ele>
        <time>2020-10-14T11:22:05Z</time>
      </trkpt>
      <trkpt lat="37.475970000" lon="-3.838761000">
        <ele>923.8</ele>
        <time>2020-10-14T11:22:07Z</time>
      </trkpt>
      <trkpt lat="37.476113000" lon="-3.838774000">
        <ele>923.5</ele>
        <time>2020-10-14T11:22:09Z</time>
      </trkpt>
      <trkpt lat="37.476258000" lon="-3.838792000">
        <ele>923.1</ele>
        <time>2020-10-14T11:22:11Z</time>
      </trkpt>
      <trkpt lat="37.476408000" lon="-3.838809000">
        <ele>922.7</ele>
        <time>2020-10-14T11:22:13Z</time>
      </trkpt>
      <trkpt lat="37.476557000" lon="-3.838827000">
        <ele>922.4</ele>
        <time>2020-10-14T11:22:15Z</time>
      </trkpt>
      <trkpt lat="37.476708000" lon="-3.838847000">
        <ele>922.0</ele>
        <time>2020-10-14T11:22:17Z</time>
      </trkpt>
      <trkpt lat="37.476856000" lon="-3.838865000">
        <ele>921.6</ele>
        <time>2020-10-14T11:22:19Z</time>
      </trkpt>
      <trkpt lat="37.476997000" lon="-3.838887000">
        <ele>921.4</ele>
        <time>2020-10-14T11:22:21Z</time>
      </trkpt>
      <trkpt lat="37.477137000" lon="-3.838904000">
        <ele>921.0</ele>
        <time>2020-10-14T11:22:23Z</time>
      </trkpt>
      <trkpt lat="37.477268000" lon="-3.838921000">
        <ele>920.7</ele>
        <time>2020-10-14T11:22:25Z</time>
      </trkpt>
      <trkpt lat="37.477398000" lon="-3.838938000">
        <ele>920.5</ele>
        <time>2020-10-14T11:22:27Z</time>
      </trkpt>
      <trkpt lat="37.477525000" lon="-3.838961000">
        <ele>920.5</ele>
        <time>2020-10-14T11:22:29Z</time>
      </trkpt>
      <trkpt lat="37.477644000" lon="-3.838977000">
        <ele>920.7</ele>
        <time>2020-10-14T11:22:31Z</time>
      </trkpt>
      <trkpt lat="37.477765000" lon="-3.838987000">
        <ele>921.0</ele>
        <time>2020-10-14T11:22:33Z</time>
      </trkpt>
      <trkpt lat="37.477876000" lon="-3.839002000">
        <ele>921.5</ele>
        <time>2020-10-14T11:22:35Z</time>
      </trkpt>
      <trkpt lat="37.477983000" lon="-3.839018000">
        <ele>922.0</ele>
        <time>2020-10-14T11:22:37Z</time>
      </trkpt>
      <trkpt lat="37.478084000" lon="-3.839030000">
        <ele>922.7</ele>
        <time>2020-10-14T11:22:39Z</time>
      </trkpt>
      <trkpt lat="37.478174000" lon="-3.839040000">
        <ele>923.5</ele>
        <time>2020-10-14T11:22:41Z</time>
      </trkpt>
      <trkpt lat="37.478295000" lon="-3.839063000">
        <ele>924.5</ele>
        <time>2020-10-14T11:22:44Z</time>
      </trkpt>
      <trkpt lat="37.478410000" lon="-3.839080000">
        <ele>925.5</ele>
        <time>2020-10-14T11:22:47Z</time>
      </trkpt>
      <trkpt lat="37.478519000" lon="-3.839096000">
        <ele>926.2</ele>
        <time>2020-10-14T11:22:50Z</time>
      </trkpt>
      <trkpt lat="37.478618000" lon="-3.839108000">
        <ele>926.7</ele>
        <time>2020-10-14T11:22:53Z</time>
      </trkpt>
      <trkpt lat="37.478718000" lon="-3.839126000">
        <ele>927.0</ele>
        <time>2020-10-14T11:22:56Z</time>
      </trkpt>
      <trkpt lat="37.478816000" lon="-3.839147000">
        <ele>927.1</ele>
        <time>2020-10-14T11:22:59Z</time>
      </trkpt>
      <trkpt lat="37.478910000" lon="-3.839163000">
        <ele>927.0</ele>
        <time>2020-10-14T11:23:02Z</time>
      </trkpt>
      <trkpt lat="37.479003000" lon="-3.839187000">
        <ele>926.7</ele>
        <time>2020-10-14T11:23:05Z</time>
      </trkpt>
      <trkpt lat="37.479094000" lon="-3.839230000">
        <ele>926.3</ele>
        <time>2020-10-14T11:23:08Z</time>
      </trkpt>
      <trkpt lat="37.479182000" lon="-3.839293000">
        <ele>925.6</ele>
        <time>2020-10-14T11:23:11Z</time>
      </trkpt>
      <trkpt lat="37.479267000" lon="-3.839387000">
        <ele>924.9</ele>
        <time>2020-10-14T11:23:14Z</time>
      </trkpt>
      <trkpt lat="37.479326000" lon="-3.839469000">
        <ele>924.1</ele>
        <time>2020-10-14T11:23:16Z</time>
      </trkpt>
      <trkpt lat="37.479377000" lon="-3.839568000">
        <ele>923.3</ele>
        <time>2020-10-14T11:23:18Z</time>
      </trkpt>
      <trkpt lat="37.479432000" lon="-3.839674000">
        <ele>922.5</ele>
        <time>2020-10-14T11:23:20Z</time>
      </trkpt>
      <trkpt lat="37.479489000" lon="-3.839790000">
        <ele>921.9</ele>
        <time>2020-10-14T11:23:22Z</time>
      </trkpt>
      <trkpt lat="37.479542000" lon="-3.839907000">
        <ele>921.4</ele>
        <time>2020-10-14T11:23:24Z</time>
      </trkpt>
      <trkpt lat="37.479589000" lon="-3.840028000">
        <ele>920.9</ele>
        <time>2020-10-14T11:23:26Z</time>
      </trkpt>
      <trkpt lat="37.479639000" lon="-3.840151000">
        <ele>920.5</ele>
        <time>2020-10-14T11:23:28Z</time>
      </trkpt>
      <trkpt lat="37.479686000" lon="-3.840267000">
        <ele>920.3</ele>
        <time>2020-10-14T11:23:30Z</time>
      </trkpt>
      <trkpt lat="37.479735000" lon="-3.840375000">
        <ele>920.1</ele>
        <time>2020-10-14T11:23:32Z</time>
      </trkpt>
      <trkpt lat="37.479782000" lon="-3.840485000">
        <ele>920.0</ele>
        <time>2020-10-14T11:23:34Z</time>
      </trkpt>
      <trkpt lat="37.479830000" lon="-3.840594000">
        <ele>920.0</ele>
        <time>2020-10-14T11:23:36Z</time>
      </trkpt>
      <trkpt lat="37.479875000" lon="-3.840706000">
        <ele>920.0</ele>
        <time>2020-10-14T11:23:38Z</time>
      </trkpt>
      <trkpt lat="37.479914000" lon="-3.840813000">
        <ele>920.0</ele>
        <time>2020-10-14T11:23:40Z</time>
      </trkpt>
      <trkpt lat="37.479947000" lon="-3.840906000">
        <ele>920.1</ele>
        <time>2020-10-14T11:23:42Z</time>
      </trkpt>
      <trkpt lat="37.479984000" lon="-3.841004000">
        <ele>920.1</ele>
        <time>2020-10-14T11:23:44Z</time>
      </trkpt>
      <trkpt lat="37.480024000" lon="-3.841098000">
        <ele>920.1</ele>
        <time>2020-10-14T11:23:46Z</time>
      </trkpt>
      <trkpt lat="37.480060000" lon="-3.841192000">
        <ele>920.1</ele>
        <time>2020-10-14T11:23:48Z</time>
      </trkpt>
      <trkpt lat="37.480100000" lon="-3.841289000">
        <ele>920.1</ele>
        <time>2020-10-14T11:23:50Z</time>
      </trkpt>
      <trkpt lat="37.480144000" lon="-3.841386000">
        <ele>920.1</ele>
        <time>2020-10-14T11:23:52Z</time>
      </trkpt>
      <trkpt lat="37.480181000" lon="-3.841486000">
        <ele>920.1</ele>
        <time>2020-10-14T11:23:54Z</time>
      </trkpt>
      <trkpt lat="37.480223000" lon="-3.841582000">
        <ele>920.2</ele>
        <time>2020-10-14T11:23:56Z</time>
      </trkpt>
      <trkpt lat="37.480279000" lon="-3.841713000">
        <ele>920.3</ele>
        <time>2020-10-14T11:23:59Z</time>
      </trkpt>
      <trkpt lat="37.480331000" lon="-3.841842000">
        <ele>920.5</ele>
        <time>2020-10-14T11:24:02Z</time>
      </trkpt>
      <trkpt lat="37.480382000" lon="-3.841952000">
        <ele>920.7</ele>
        <time>2020-10-14T11:24:05Z</time>
      </trkpt>
      <trkpt lat="37.480431000" lon="-3.842070000">
        <ele>921.0</ele>
        <time>2020-10-14T11:24:08Z</time>
      </trkpt>
      <trkpt lat="37.480494000" lon="-3.842186000">
        <ele>921.5</ele>
        <time>2020-10-14T11:24:11Z</time>
      </trkpt>
      <trkpt lat="37.480570000" lon="-3.842290000">
        <ele>922.0</ele>
        <time>2020-10-14T11:24:14Z</time>
      </trkpt>
      <trkpt lat="37.480637000" lon="-3.842368000">
        <ele>922.6</ele>
        <time>2020-10-14T11:24:17Z</time>
      </trkpt>
      <trkpt lat="37.480705000" lon="-3.842433000">
        <ele>923.4</ele>
        <time>2020-10-14T11:24:20Z</time>
      </trkpt>
      <trkpt lat="37.480779000" lon="-3.842486000">
        <ele>924.1</ele>
        <time>2020-10-14T11:24:23Z</time>
      </trkpt>
      <trkpt lat="37.480880000" lon="-3.842526000">
        <ele>924.8</ele>
        <time>2020-10-14T11:24:27Z</time>
      </trkpt>
      <trkpt lat="37.480978000" lon="-3.842544000">
        <ele>925.5</ele>
        <time>2020-10-14T11:24:31Z</time>
      </trkpt>
      <trkpt lat="37.481060000" lon="-3.842550000">
        <ele>926.1</ele>
        <time>2020-10-14T11:24:34Z</time>
      </trkpt>
      <trkpt lat="37.481146000" lon="-3.842543000">
        <ele>926.5</ele>
        <time>2020-10-14T11:24:37Z</time>
      </trkpt>
      <trkpt lat="37.481233000" lon="-3.842533000">
        <ele>926.9</ele>
        <time>2020-10-14T11:24:40Z</time>
      </trkpt>
      <trkpt lat="37.481317000" lon="-3.842518000">
        <ele>927.3</ele>
        <time>2020-10-14T11:24:43Z</time>
      </trkpt>
      <trkpt lat="37.481403000" lon="-3.842513000">
        <ele>927.5</ele>
        <time>2020-10-14T11:24:46Z</time>
      </trkpt>
      <trkpt lat="37.481511000" lon="-3.842494000">
        <ele>927.8</ele>
        <time>2020-10-14T11:24:50Z</time>
      </trkpt>
      <trkpt lat="37.481596000" lon="-3.842476000">
        <ele>928.0</ele>
        <time>2020-10-14T11:24:53Z</time>
      </trkpt>
      <trkpt lat="37.481677000" lon="-3.842461000">
        <ele>928.2</ele>
        <time>2020-10-14T11:24:56Z</time>
      </trkpt>
      <trkpt lat="37.481776000" lon="-3.842435000">
        <ele>928.5</ele>
        <time>2020-10-14T11:25:00Z</time>
      </trkpt>
      <trkpt lat="37.481880000" lon="-3.842416000">
        <ele>928.7</ele>
        <time>2020-10-14T11:25:04Z</time>
      </trkpt>
      <trkpt lat="37.481984000" lon="-3.842397000">
        <ele>929.1</ele>
        <time>2020-10-14T11:25:08Z</time>
      </trkpt>
      <trkpt lat="37.482081000" lon="-3.842373000">
        <ele>929.5</ele>
        <time>2020-10-14T11:25:12Z</time>
      </trkpt>
      <trkpt lat="37.482176000" lon="-3.842360000">
        <ele>930.2</ele>
        <time>2020-10-14T11:25:16Z</time>
      </trkpt>
      <trkpt lat="37.482285000" lon="-3.842342000">
        <ele>930.9</ele>
        <time>2020-10-14T11:25:20Z</time>
      </trkpt>
      <trkpt lat="37.482366000" lon="-3.842322000">
        <ele>931.5</ele>
        <time>2020-10-14T11:25:23Z</time>
      </trkpt>
      <trkpt lat="37.482467000" lon="-3.842309000">
        <ele>932.3</ele>
        <time>2020-10-14T11:25:29Z</time>
      </trkpt>
      <trkpt lat="37.482569000" lon="-3.842306000">
        <ele>932.9</ele>
        <time>2020-10-14T11:25:31Z</time>
      </trkpt>
      <trkpt lat="37.482665000" lon="-3.842299000">
        <ele>933.6</ele>
        <time>2020-10-14T11:25:35Z</time>
      </trkpt>
      <trkpt lat="37.482771000" lon="-3.842298000">
        <ele>934.3</ele>
        <time>2020-10-14T11:25:39Z</time>
      </trkpt>
      <trkpt lat="37.482854000" lon="-3.842296000">
        <ele>934.8</ele>
        <time>2020-10-14T11:25:42Z</time>
      </trkpt>
      <trkpt lat="37.482942000" lon="-3.842293000">
        <ele>935.3</ele>
        <time>2020-10-14T11:25:45Z</time>
      </trkpt>
      <trkpt lat="37.483030000" lon="-3.842293000">
        <ele>935.6</ele>
        <time>2020-10-14T11:25:48Z</time>
      </trkpt>
      <trkpt lat="37.483120000" lon="-3.842286000">
        <ele>935.8</ele>
        <time>2020-10-14T11:25:51Z</time>
      </trkpt>
      <trkpt lat="37.483211000" lon="-3.842284000">
        <ele>935.9</ele>
        <time>2020-10-14T11:25:54Z</time>
      </trkpt>
      <trkpt lat="37.483307000" lon="-3.842285000">
        <ele>935.8</ele>
        <time>2020-10-14T11:25:57Z</time>
      </trkpt>
      <trkpt lat="37.483410000" lon="-3.842278000">
        <ele>935.7</ele>
        <time>2020-10-14T11:26:00Z</time>
      </trkpt>
      <trkpt lat="37.483512000" lon="-3.842284000">
        <ele>935.5</ele>
        <time>2020-10-14T11:26:03Z</time>
      </trkpt>
      <trkpt lat="37.483610000" lon="-3.842281000">
        <ele>935.5</ele>
        <time>2020-10-14T11:26:06Z</time>
      </trkpt>
      <trkpt lat="37.483720000" lon="-3.842278000">
        <ele>935.3</ele>
        <time>2020-10-14T11:26:09Z</time>
      </trkpt>
      <trkpt lat="37.483830000" lon="-3.842276000">
        <ele>935.1</ele>
        <time>2020-10-14T11:26:12Z</time>
      </trkpt>
      <trkpt lat="37.483931000" lon="-3.842275000">
        <ele>935.0</ele>
        <time>2020-10-14T11:26:15Z</time>
      </trkpt>
      <trkpt lat="37.484033000" lon="-3.842265000">
        <ele>935.0</ele>
        <time>2020-10-14T11:26:18Z</time>
      </trkpt>
      <trkpt lat="37.484139000" lon="-3.842239000">
        <ele>935.0</ele>
        <time>2020-10-14T11:26:21Z</time>
      </trkpt>
      <trkpt lat="37.484239000" lon="-3.842195000">
        <ele>935.2</ele>
        <time>2020-10-14T11:26:24Z</time>
      </trkpt>
      <trkpt lat="37.484335000" lon="-3.842125000">
        <ele>935.4</ele>
        <time>2020-10-14T11:26:27Z</time>
      </trkpt>
      <trkpt lat="37.484415000" lon="-3.842034000">
        <ele>935.6</ele>
        <time>2020-10-14T11:26:30Z</time>
      </trkpt>
      <trkpt lat="37.484483000" lon="-3.841945000">
        <ele>935.9</ele>
        <time>2020-10-14T11:26:33Z</time>
      </trkpt>
      <trkpt lat="37.484541000" lon="-3.841853000">
        <ele>936.3</ele>
        <time>2020-10-14T11:26:36Z</time>
      </trkpt>
      <trkpt lat="37.484599000" lon="-3.841758000">
        <ele>936.5</ele>
        <time>2020-10-14T11:26:39Z</time>
      </trkpt>
      <trkpt lat="37.484645000" lon="-3.841657000">
        <ele>936.9</ele>
        <time>2020-10-14T11:26:42Z</time>
      </trkpt>
      <trkpt lat="37.484667000" lon="-3.841555000">
        <ele>937.3</ele>
        <time>2020-10-14T11:26:45Z</time>
      </trkpt>
      <trkpt lat="37.484664000" lon="-3.841447000">
        <ele>937.5</ele>
        <time>2020-10-14T11:26:48Z</time>
      </trkpt>
      <trkpt lat="37.484658000" lon="-3.841333000">
        <ele>937.8</ele>
        <time>2020-10-14T11:26:51Z</time>
      </trkpt>
      <trkpt lat="37.484646000" lon="-3.841207000">
        <ele>938.1</ele>
        <time>2020-10-14T11:26:54Z</time>
      </trkpt>
      <trkpt lat="37.484628000" lon="-3.841084000">
        <ele>938.4</ele>
        <time>2020-10-14T11:26:57Z</time>
      </trkpt>
      <trkpt lat="37.484608000" lon="-3.840968000">
        <ele>938.7</ele>
        <time>2020-10-14T11:27:00Z</time>
      </trkpt>
      <trkpt lat="37.484595000" lon="-3.840858000">
        <ele>939.2</ele>
        <time>2020-10-14T11:27:03Z</time>
      </trkpt>
      <trkpt lat="37.484574000" lon="-3.840746000">
        <ele>939.7</ele>
        <time>2020-10-14T11:27:06Z</time>
      </trkpt>
      <trkpt lat="37.484559000" lon="-3.840619000">
        <ele>940.3</ele>
        <time>2020-10-14T11:27:09Z</time>
      </trkpt>
      <trkpt lat="37.484546000" lon="-3.840482000">
        <ele>940.8</ele>
        <time>2020-10-14T11:27:12Z</time>
      </trkpt>
      <trkpt lat="37.484536000" lon="-3.840373000">
        <ele>941.4</ele>
        <time>2020-10-14T11:27:14Z</time>
      </trkpt>
      <trkpt lat="37.484516000" lon="-3.840224000">
        <ele>941.7</ele>
        <time>2020-10-14T11:27:17Z</time>
      </trkpt>
      <trkpt lat="37.484499000" lon="-3.840086000">
        <ele>942.1</ele>
        <time>2020-10-14T11:27:20Z</time>
      </trkpt>
      <trkpt lat="37.484487000" lon="-3.839962000">
        <ele>942.4</ele>
        <time>2020-10-14T11:27:23Z</time>
      </trkpt>
      <trkpt lat="37.484480000" lon="-3.839829000">
        <ele>942.7</ele>
        <time>2020-10-14T11:27:26Z</time>
      </trkpt>
      <trkpt lat="37.484462000" lon="-3.839706000">
        <ele>943.0</ele>
        <time>2020-10-14T11:27:29Z</time>
      </trkpt>
      <trkpt lat="37.484443000" lon="-3.839560000">
        <ele>943.3</ele>
        <time>2020-10-14T11:27:32Z</time>
      </trkpt>
      <trkpt lat="37.484423000" lon="-3.839425000">
        <ele>943.5</ele>
        <time>2020-10-14T11:27:34Z</time>
      </trkpt>
      <trkpt lat="37.484406000" lon="-3.839293000">
        <ele>943.5</ele>
        <time>2020-10-14T11:27:36Z</time>
      </trkpt>
      <trkpt lat="37.484392000" lon="-3.839173000">
        <ele>943.6</ele>
        <time>2020-10-14T11:27:38Z</time>
      </trkpt>
      <trkpt lat="37.484384000" lon="-3.839035000">
        <ele>943.6</ele>
        <time>2020-10-14T11:27:41Z</time>
      </trkpt>
      <trkpt lat="37.484372000" lon="-3.838916000">
        <ele>943.5</ele>
        <time>2020-10-14T11:27:44Z</time>
      </trkpt>
      <trkpt lat="37.484347000" lon="-3.838810000">
        <ele>943.6</ele>
        <time>2020-10-14T11:27:47Z</time>
      </trkpt>
      <trkpt lat="37.484324000" lon="-3.838667000">
        <ele>943.8</ele>
        <time>2020-10-14T11:27:50Z</time>
      </trkpt>
      <trkpt lat="37.484320000" lon="-3.838540000">
        <ele>944.0</ele>
        <time>2020-10-14T11:27:52Z</time>
      </trkpt>
      <trkpt lat="37.484306000" lon="-3.838424000">
        <ele>944.0</ele>
        <time>2020-10-14T11:27:54Z</time>
      </trkpt>
      <trkpt lat="37.484306000" lon="-3.838318000">
        <ele>944.0</ele>
        <time>2020-10-14T11:27:57Z</time>
      </trkpt>
      <trkpt lat="37.484310000" lon="-3.838429000">
        <ele>943.8</ele>
        <time>2020-10-14T11:28:03Z</time>
      </trkpt>
      <trkpt lat="37.484329000" lon="-3.838539000">
        <ele>943.5</ele>
        <time>2020-10-14T11:28:07Z</time>
      </trkpt>
      <trkpt lat="37.484291000" lon="-3.838412000">
        <ele>943.2</ele>
        <time>2020-10-14T11:38:31Z</time>
      </trkpt>
      <trkpt lat="37.484295000" lon="-3.838298000">
        <ele>942.7</ele>
        <time>2020-10-14T11:38:34Z</time>
      </trkpt>
      <trkpt lat="37.484315000" lon="-3.838166000">
        <ele>942.5</ele>
        <time>2020-10-14T11:38:38Z</time>
      </trkpt>
      <trkpt lat="37.484349000" lon="-3.838048000">
        <ele>942.4</ele>
        <time>2020-10-14T11:38:42Z</time>
      </trkpt>
      <trkpt lat="37.484372000" lon="-3.837933000">
        <ele>942.4</ele>
        <time>2020-10-14T11:38:46Z</time>
      </trkpt>
      <trkpt lat="37.484403000" lon="-3.837811000">
        <ele>942.3</ele>
        <time>2020-10-14T11:38:50Z</time>
      </trkpt>
      <trkpt lat="37.484440000" lon="-3.837701000">
        <ele>942.4</ele>
        <time>2020-10-14T11:38:54Z</time>
      </trkpt>
      <trkpt lat="37.484484000" lon="-3.837604000">
        <ele>942.5</ele>
        <time>2020-10-14T11:38:58Z</time>
      </trkpt>
      <trkpt lat="37.484546000" lon="-3.837497000">
        <ele>942.8</ele>
        <time>2020-10-14T11:39:02Z</time>
      </trkpt>
      <trkpt lat="37.484608000" lon="-3.837419000">
        <ele>943.2</ele>
        <time>2020-10-14T11:39:05Z</time>
      </trkpt>
      <trkpt lat="37.484669000" lon="-3.837338000">
        <ele>943.7</ele>
        <time>2020-10-14T11:39:08Z</time>
      </trkpt>
      <trkpt lat="37.484737000" lon="-3.837254000">
        <ele>944.4</ele>
        <time>2020-10-14T11:39:11Z</time>
      </trkpt>
      <trkpt lat="37.484804000" lon="-3.837174000">
        <ele>945.1</ele>
        <time>2020-10-14T11:39:14Z</time>
      </trkpt>
      <trkpt lat="37.484881000" lon="-3.837104000">
        <ele>945.7</ele>
        <time>2020-10-14T11:39:17Z</time>
      </trkpt>
      <trkpt lat="37.484962000" lon="-3.837037000">
        <ele>946.3</ele>
        <time>2020-10-14T11:39:20Z</time>
      </trkpt>
      <trkpt lat="37.485040000" lon="-3.836973000">
        <ele>946.8</ele>
        <time>2020-10-14T11:39:23Z</time>
      </trkpt>
      <trkpt lat="37.485111000" lon="-3.836908000">
        <ele>947.5</ele>
        <time>2020-10-14T11:39:26Z</time>
      </trkpt>
      <trkpt lat="37.485194000" lon="-3.836839000">
        <ele>948.0</ele>
        <time>2020-10-14T11:39:30Z</time>
      </trkpt>
      <trkpt lat="37.485265000" lon="-3.836791000">
        <ele>948.5</ele>
        <time>2020-10-14T11:39:33Z</time>
      </trkpt>
      <trkpt lat="37.485349000" lon="-3.836727000">
        <ele>948.9</ele>
        <time>2020-10-14T11:39:36Z</time>
      </trkpt>
      <trkpt lat="37.485444000" lon="-3.836661000">
        <ele>949.3</ele>
        <time>2020-10-14T11:39:39Z</time>
      </trkpt>
      <trkpt lat="37.485537000" lon="-3.836588000">
        <ele>949.5</ele>
        <time>2020-10-14T11:39:42Z</time>
      </trkpt>
      <trkpt lat="37.485638000" lon="-3.836525000">
        <ele>949.5</ele>
        <time>2020-10-14T11:39:45Z</time>
      </trkpt>
      <trkpt lat="37.485732000" lon="-3.836449000">
        <ele>949.5</ele>
        <time>2020-10-14T11:39:48Z</time>
      </trkpt>
      <trkpt lat="37.485816000" lon="-3.836379000">
        <ele>949.4</ele>
        <time>2020-10-14T11:39:51Z</time>
      </trkpt>
      <trkpt lat="37.485900000" lon="-3.836311000">
        <ele>949.2</ele>
        <time>2020-10-14T11:39:54Z</time>
      </trkpt>
      <trkpt lat="37.485975000" lon="-3.836245000">
        <ele>948.8</ele>
        <time>2020-10-14T11:39:57Z</time>
      </trkpt>
      <trkpt lat="37.486055000" lon="-3.836175000">
        <ele>948.4</ele>
        <time>2020-10-14T11:40:00Z</time>
      </trkpt>
      <trkpt lat="37.486138000" lon="-3.836107000">
        <ele>947.9</ele>
        <time>2020-10-14T11:40:03Z</time>
      </trkpt>
      <trkpt lat="37.486224000" lon="-3.836042000">
        <ele>947.5</ele>
        <time>2020-10-14T11:40:06Z</time>
      </trkpt>
      <trkpt lat="37.486311000" lon="-3.835987000">
        <ele>947.4</ele>
        <time>2020-10-14T11:40:09Z</time>
      </trkpt>
      <trkpt lat="37.486405000" lon="-3.835930000">
        <ele>947.2</ele>
        <time>2020-10-14T11:40:12Z</time>
      </trkpt>
      <trkpt lat="37.486495000" lon="-3.835864000">
        <ele>947.2</ele>
        <time>2020-10-14T11:40:15Z</time>
      </trkpt>
      <trkpt lat="37.486574000" lon="-3.835787000">
        <ele>947.3</ele>
        <time>2020-10-14T11:40:18Z</time>
      </trkpt>
      <trkpt lat="37.486647000" lon="-3.835725000">
        <ele>947.5</ele>
        <time>2020-10-14T11:40:21Z</time>
      </trkpt>
      <trkpt lat="37.486727000" lon="-3.835662000">
        <ele>947.8</ele>
        <time>2020-10-14T11:40:24Z</time>
      </trkpt>
      <trkpt lat="37.486817000" lon="-3.835581000">
        <ele>948.1</ele>
        <time>2020-10-14T11:40:28Z</time>
      </trkpt>
      <trkpt lat="37.486897000" lon="-3.835509000">
        <ele>948.5</ele>
        <time>2020-10-14T11:40:31Z</time>
      </trkpt>
      <trkpt lat="37.486982000" lon="-3.835446000">
        <ele>949.0</ele>
        <time>2020-10-14T11:40:34Z</time>
      </trkpt>
      <trkpt lat="37.487060000" lon="-3.835366000">
        <ele>949.5</ele>
        <time>2020-10-14T11:40:37Z</time>
      </trkpt>
      <trkpt lat="37.487137000" lon="-3.835267000">
        <ele>950.1</ele>
        <time>2020-10-14T11:40:40Z</time>
      </trkpt>
      <trkpt lat="37.487193000" lon="-3.835137000">
        <ele>950.5</ele>
        <time>2020-10-14T11:40:43Z</time>
      </trkpt>
      <trkpt lat="37.487247000" lon="-3.835014000">
        <ele>951.1</ele>
        <time>2020-10-14T11:40:46Z</time>
      </trkpt>
      <trkpt lat="37.487275000" lon="-3.834892000">
        <ele>951.5</ele>
        <time>2020-10-14T11:40:49Z</time>
      </trkpt>
      <trkpt lat="37.487324000" lon="-3.834774000">
        <ele>952.1</ele>
        <time>2020-10-14T11:40:52Z</time>
      </trkpt>
      <trkpt lat="37.487356000" lon="-3.834660000">
        <ele>952.5</ele>
        <time>2020-10-14T11:40:55Z</time>
      </trkpt>
      <trkpt lat="37.487398000" lon="-3.834550000">
        <ele>953.0</ele>
        <time>2020-10-14T11:40:58Z</time>
      </trkpt>
      <trkpt lat="37.487456000" lon="-3.834460000">
        <ele>953.5</ele>
        <time>2020-10-14T11:41:01Z</time>
      </trkpt>
      <trkpt lat="37.487543000" lon="-3.834393000">
        <ele>954.0</ele>
        <time>2020-10-14T11:41:04Z</time>
      </trkpt>
      <trkpt lat="37.487622000" lon="-3.834348000">
        <ele>954.5</ele>
        <time>2020-10-14T11:41:07Z</time>
      </trkpt>
      <trkpt lat="37.487702000" lon="-3.834303000">
        <ele>955.1</ele>
        <time>2020-10-14T11:41:11Z</time>
      </trkpt>
      <trkpt lat="37.487782000" lon="-3.834251000">
        <ele>955.6</ele>
        <time>2020-10-14T11:41:15Z</time>
      </trkpt>
      <trkpt lat="37.487860000" lon="-3.834209000">
        <ele>956.3</ele>
        <time>2020-10-14T11:41:18Z</time>
      </trkpt>
      <trkpt lat="37.487943000" lon="-3.834159000">
        <ele>957.0</ele>
        <time>2020-10-14T11:41:22Z</time>
      </trkpt>
      <trkpt lat="37.488041000" lon="-3.834122000">
        <ele>957.8</ele>
        <time>2020-10-14T11:41:26Z</time>
      </trkpt>
      <trkpt lat="37.488126000" lon="-3.834065000">
        <ele>958.6</ele>
        <time>2020-10-14T11:41:30Z</time>
      </trkpt>
      <trkpt lat="37.488180000" lon="-3.833970000">
        <ele>959.5</ele>
        <time>2020-10-14T11:41:33Z</time>
      </trkpt>
      <trkpt lat="37.488226000" lon="-3.833878000">
        <ele>960.5</ele>
        <time>2020-10-14T11:41:36Z</time>
      </trkpt>
      <trkpt lat="37.488264000" lon="-3.833772000">
        <ele>961.5</ele>
        <time>2020-10-14T11:41:40Z</time>
      </trkpt>
      <trkpt lat="37.488293000" lon="-3.833662000">
        <ele>962.4</ele>
        <time>2020-10-14T11:41:44Z</time>
      </trkpt>
      <trkpt lat="37.488304000" lon="-3.833558000">
        <ele>963.2</ele>
        <time>2020-10-14T11:41:48Z</time>
      </trkpt>
      <trkpt lat="37.488319000" lon="-3.833432000">
        <ele>963.9</ele>
        <time>2020-10-14T11:41:53Z</time>
      </trkpt>
      <trkpt lat="37.488331000" lon="-3.833315000">
        <ele>964.5</ele>
        <time>2020-10-14T11:41:57Z</time>
      </trkpt>
      <trkpt lat="37.488326000" lon="-3.833209000">
        <ele>965.2</ele>
        <time>2020-10-14T11:42:01Z</time>
      </trkpt>
      <trkpt lat="37.488314000" lon="-3.833106000">
        <ele>965.7</ele>
        <time>2020-10-14T11:42:05Z</time>
      </trkpt>
      <trkpt lat="37.488291000" lon="-3.832988000">
        <ele>966.2</ele>
        <time>2020-10-14T11:42:10Z</time>
      </trkpt>
      <trkpt lat="37.488253000" lon="-3.832876000">
        <ele>966.6</ele>
        <time>2020-10-14T11:42:14Z</time>
      </trkpt>
      <trkpt lat="37.488199000" lon="-3.832769000">
        <ele>967.0</ele>
        <time>2020-10-14T11:42:18Z</time>
      </trkpt>
      <trkpt lat="37.488154000" lon="-3.832655000">
        <ele>967.3</ele>
        <time>2020-10-14T11:42:22Z</time>
      </trkpt>
      <trkpt lat="37.488109000" lon="-3.832540000">
        <ele>967.5</ele>
        <time>2020-10-14T11:42:26Z</time>
      </trkpt>
      <trkpt lat="37.488076000" lon="-3.832422000">
        <ele>967.8</ele>
        <time>2020-10-14T11:42:30Z</time>
      </trkpt>
      <trkpt lat="37.488038000" lon="-3.832303000">
        <ele>968.1</ele>
        <time>2020-10-14T11:42:34Z</time>
      </trkpt>
      <trkpt lat="37.488008000" lon="-3.832183000">
        <ele>968.5</ele>
        <time>2020-10-14T11:42:38Z</time>
      </trkpt>
      <trkpt lat="37.488010000" lon="-3.832057000">
        <ele>968.7</ele>
        <time>2020-10-14T11:42:42Z</time>
      </trkpt>
      <trkpt lat="37.488032000" lon="-3.831956000">
        <ele>969.0</ele>
        <time>2020-10-14T11:42:45Z</time>
      </trkpt>
      <trkpt lat="37.488078000" lon="-3.831837000">
        <ele>969.2</ele>
        <time>2020-10-14T11:42:49Z</time>
      </trkpt>
      <trkpt lat="37.488123000" lon="-3.831747000">
        <ele>969.5</ele>
        <time>2020-10-14T11:42:52Z</time>
      </trkpt>
      <trkpt lat="37.488163000" lon="-3.831658000">
        <ele>969.6</ele>
        <time>2020-10-14T11:42:55Z</time>
      </trkpt>
      <trkpt lat="37.488205000" lon="-3.831534000">
        <ele>969.8</ele>
        <time>2020-10-14T11:42:59Z</time>
      </trkpt>
      <trkpt lat="37.488261000" lon="-3.831416000">
        <ele>970.0</ele>
        <time>2020-10-14T11:43:03Z</time>
      </trkpt>
      <trkpt lat="37.488313000" lon="-3.831301000">
        <ele>970.2</ele>
        <time>2020-10-14T11:43:07Z</time>
      </trkpt>
      <trkpt lat="37.488361000" lon="-3.831218000">
        <ele>970.3</ele>
        <time>2020-10-14T11:43:10Z</time>
      </trkpt>
      <trkpt lat="37.488413000" lon="-3.831133000">
        <ele>970.4</ele>
        <time>2020-10-14T11:43:13Z</time>
      </trkpt>
      <trkpt lat="37.488462000" lon="-3.831046000">
        <ele>970.3</ele>
        <time>2020-10-14T11:43:16Z</time>
      </trkpt>
      <trkpt lat="37.488511000" lon="-3.830953000">
        <ele>970.3</ele>
        <time>2020-10-14T11:43:19Z</time>
      </trkpt>
      <trkpt lat="37.488561000" lon="-3.830865000">
        <ele>970.2</ele>
        <time>2020-10-14T11:43:22Z</time>
      </trkpt>
      <trkpt lat="37.488613000" lon="-3.830783000">
        <ele>970.1</ele>
        <time>2020-10-14T11:43:25Z</time>
      </trkpt>
      <trkpt lat="37.488667000" lon="-3.830702000">
        <ele>970.0</ele>
        <time>2020-10-14T11:43:28Z</time>
      </trkpt>
      <trkpt lat="37.488729000" lon="-3.830616000">
        <ele>969.9</ele>
        <time>2020-10-14T11:43:31Z</time>
      </trkpt>
      <trkpt lat="37.488789000" lon="-3.830529000">
        <ele>969.9</ele>
        <time>2020-10-14T11:43:34Z</time>
      </trkpt>
      <trkpt lat="37.488850000" lon="-3.830442000">
        <ele>969.9</ele>
        <time>2020-10-14T11:43:37Z</time>
      </trkpt>
      <trkpt lat="37.488908000" lon="-3.830362000">
        <ele>969.9</ele>
        <time>2020-10-14T11:43:40Z</time>
      </trkpt>
      <trkpt lat="37.488984000" lon="-3.830267000">
        <ele>970.1</ele>
        <time>2020-10-14T11:43:44Z</time>
      </trkpt>
      <trkpt lat="37.489038000" lon="-3.830183000">
        <ele>970.3</ele>
        <time>2020-10-14T11:43:47Z</time>
      </trkpt>
      <trkpt lat="37.489096000" lon="-3.830099000">
        <ele>970.5</ele>
        <time>2020-10-14T11:43:51Z</time>
      </trkpt>
      <trkpt lat="37.489159000" lon="-3.829994000">
        <ele>970.9</ele>
        <time>2020-10-14T11:43:55Z</time>
      </trkpt>
      <trkpt lat="37.489211000" lon="-3.829906000">
        <ele>971.3</ele>
        <time>2020-10-14T11:43:58Z</time>
      </trkpt>
      <trkpt lat="37.489255000" lon="-3.829814000">
        <ele>971.7</ele>
        <time>2020-10-14T11:44:01Z</time>
      </trkpt>
      <trkpt lat="37.489304000" lon="-3.829709000">
        <ele>972.2</ele>
        <time>2020-10-14T11:44:04Z</time>
      </trkpt>
      <trkpt lat="37.489347000" lon="-3.829606000">
        <ele>972.7</ele>
        <time>2020-10-14T11:44:07Z</time>
      </trkpt>
      <trkpt lat="37.489382000" lon="-3.829497000">
        <ele>973.3</ele>
        <time>2020-10-14T11:44:10Z</time>
      </trkpt>
      <trkpt lat="37.489408000" lon="-3.829389000">
        <ele>973.9</ele>
        <time>2020-10-14T11:44:13Z</time>
      </trkpt>
      <trkpt lat="37.489440000" lon="-3.829281000">
        <ele>974.6</ele>
        <time>2020-10-14T11:44:16Z</time>
      </trkpt>
      <trkpt lat="37.489470000" lon="-3.829177000">
        <ele>975.3</ele>
        <time>2020-10-14T11:44:19Z</time>
      </trkpt>
      <trkpt lat="37.489506000" lon="-3.829075000">
        <ele>975.9</ele>
        <time>2020-10-14T11:44:22Z</time>
      </trkpt>
      <trkpt lat="37.489548000" lon="-3.828980000">
        <ele>976.5</ele>
        <time>2020-10-14T11:44:25Z</time>
      </trkpt>
      <trkpt lat="37.489602000" lon="-3.828895000">
        <ele>977.1</ele>
        <time>2020-10-14T11:44:28Z</time>
      </trkpt>
      <trkpt lat="37.489670000" lon="-3.828816000">
        <ele>977.7</ele>
        <time>2020-10-14T11:44:31Z</time>
      </trkpt>
      <trkpt lat="37.489740000" lon="-3.828751000">
        <ele>978.3</ele>
        <time>2020-10-14T11:44:34Z</time>
      </trkpt>
      <trkpt lat="37.489815000" lon="-3.828690000">
        <ele>978.8</ele>
        <time>2020-10-14T11:44:37Z</time>
      </trkpt>
      <trkpt lat="37.489892000" lon="-3.828639000">
        <ele>979.3</ele>
        <time>2020-10-14T11:44:40Z</time>
      </trkpt>
      <trkpt lat="37.489970000" lon="-3.828587000">
        <ele>979.7</ele>
        <time>2020-10-14T11:44:43Z</time>
      </trkpt>
      <trkpt lat="37.490043000" lon="-3.828527000">
        <ele>980.2</ele>
        <time>2020-10-14T11:44:46Z</time>
      </trkpt>
      <trkpt lat="37.490110000" lon="-3.828463000">
        <ele>980.6</ele>
        <time>2020-10-14T11:44:49Z</time>
      </trkpt>
      <trkpt lat="37.490172000" lon="-3.828391000">
        <ele>981.1</ele>
        <time>2020-10-14T11:44:52Z</time>
      </trkpt>
      <trkpt lat="37.490226000" lon="-3.828312000">
        <ele>981.5</ele>
        <time>2020-10-14T11:44:55Z</time>
      </trkpt>
      <trkpt lat="37.490279000" lon="-3.828228000">
        <ele>982.0</ele>
        <time>2020-10-14T11:44:58Z</time>
      </trkpt>
      <trkpt lat="37.490327000" lon="-3.828140000">
        <ele>982.5</ele>
        <time>2020-10-14T11:45:01Z</time>
      </trkpt>
      <trkpt lat="37.490371000" lon="-3.828054000">
        <ele>983.1</ele>
        <time>2020-10-14T11:45:04Z</time>
      </trkpt>
      <trkpt lat="37.490407000" lon="-3.827935000">
        <ele>983.6</ele>
        <time>2020-10-14T11:45:08Z</time>
      </trkpt>
      <trkpt lat="37.490443000" lon="-3.827815000">
        <ele>984.1</ele>
        <time>2020-10-14T11:45:12Z</time>
      </trkpt>
      <trkpt lat="37.490476000" lon="-3.827694000">
        <ele>984.6</ele>
        <time>2020-10-14T11:45:16Z</time>
      </trkpt>
      <trkpt lat="37.490512000" lon="-3.827577000">
        <ele>985.1</ele>
        <time>2020-10-14T11:45:20Z</time>
      </trkpt>
      <trkpt lat="37.490526000" lon="-3.827469000">
        <ele>985.5</ele>
        <time>2020-10-14T11:45:24Z</time>
      </trkpt>
      <trkpt lat="37.490544000" lon="-3.827346000">
        <ele>985.8</ele>
        <time>2020-10-14T11:45:28Z</time>
      </trkpt>
      <trkpt lat="37.490568000" lon="-3.827230000">
        <ele>986.2</ele>
        <time>2020-10-14T11:45:32Z</time>
      </trkpt>
      <trkpt lat="37.490583000" lon="-3.827104000">
        <ele>986.5</ele>
        <time>2020-10-14T11:45:36Z</time>
      </trkpt>
      <trkpt lat="37.490594000" lon="-3.826976000">
        <ele>986.9</ele>
        <time>2020-10-14T11:45:40Z</time>
      </trkpt>
      <trkpt lat="37.490595000" lon="-3.826869000">
        <ele>987.2</ele>
        <time>2020-10-14T11:45:44Z</time>
      </trkpt>
      <trkpt lat="37.490600000" lon="-3.826754000">
        <ele>987.5</ele>
        <time>2020-10-14T11:45:49Z</time>
      </trkpt>
      <trkpt lat="37.490595000" lon="-3.826648000">
        <ele>987.7</ele>
        <time>2020-10-14T11:45:53Z</time>
      </trkpt>
      <trkpt lat="37.490584000" lon="-3.826544000">
        <ele>988.1</ele>
        <time>2020-10-14T11:45:57Z</time>
      </trkpt>
      <trkpt lat="37.490582000" lon="-3.826437000">
        <ele>988.5</ele>
        <time>2020-10-14T11:46:01Z</time>
      </trkpt>
      <trkpt lat="37.490584000" lon="-3.826316000">
        <ele>988.9</ele>
        <time>2020-10-14T11:46:06Z</time>
      </trkpt>
      <trkpt lat="37.490593000" lon="-3.826189000">
        <ele>989.5</ele>
        <time>2020-10-14T11:46:11Z</time>
      </trkpt>
      <trkpt lat="37.490600000" lon="-3.826087000">
        <ele>990.0</ele>
        <time>2020-10-14T11:46:15Z</time>
      </trkpt>
      <trkpt lat="37.490623000" lon="-3.825988000">
        <ele>990.6</ele>
        <time>2020-10-14T11:46:19Z</time>
      </trkpt>
      <trkpt lat="37.490637000" lon="-3.825876000">
        <ele>991.5</ele>
        <time>2020-10-14T11:46:23Z</time>
      </trkpt>
      <trkpt lat="37.490660000" lon="-3.825767000">
        <ele>992.4</ele>
        <time>2020-10-14T11:46:27Z</time>
      </trkpt>
      <trkpt lat="37.490684000" lon="-3.825656000">
        <ele>993.4</ele>
        <time>2020-10-14T11:46:31Z</time>
      </trkpt>
      <trkpt lat="37.490706000" lon="-3.825549000">
        <ele>994.3</ele>
        <time>2020-10-14T11:46:35Z</time>
      </trkpt>
      <trkpt lat="37.490732000" lon="-3.825443000">
        <ele>995.2</ele>
        <time>2020-10-14T11:46:39Z</time>
      </trkpt>
      <trkpt lat="37.490768000" lon="-3.825348000">
        <ele>996.1</ele>
        <time>2020-10-14T11:46:43Z</time>
      </trkpt>
      <trkpt lat="37.490800000" lon="-3.825237000">
        <ele>996.8</ele>
        <time>2020-10-14T11:46:47Z</time>
      </trkpt>
      <trkpt lat="37.490839000" lon="-3.825134000">
        <ele>997.5</ele>
        <time>2020-10-14T11:46:51Z</time>
      </trkpt>
      <trkpt lat="37.490895000" lon="-3.825041000">
        <ele>998.1</ele>
        <time>2020-10-14T11:46:55Z</time>
      </trkpt>
      <trkpt lat="37.490954000" lon="-3.824956000">
        <ele>998.6</ele>
        <time>2020-10-14T11:46:59Z</time>
      </trkpt>
      <trkpt lat="37.491018000" lon="-3.824875000">
        <ele>999.2</ele>
        <time>2020-10-14T11:47:03Z</time>
      </trkpt>
      <trkpt lat="37.491084000" lon="-3.824810000">
        <ele>999.6</ele>
        <time>2020-10-14T11:47:07Z</time>
      </trkpt>
      <trkpt lat="37.491166000" lon="-3.824748000">
        <ele>1000.1</ele>
        <time>2020-10-14T11:47:11Z</time>
      </trkpt>
      <trkpt lat="37.491254000" lon="-3.824694000">
        <ele>1000.5</ele>
        <time>2020-10-14T11:47:15Z</time>
      </trkpt>
      <trkpt lat="37.491342000" lon="-3.824663000">
        <ele>1001.2</ele>
        <time>2020-10-14T11:47:19Z</time>
      </trkpt>
      <trkpt lat="37.491431000" lon="-3.824669000">
        <ele>1001.9</ele>
        <time>2020-10-14T11:47:23Z</time>
      </trkpt>
      <trkpt lat="37.491522000" lon="-3.824694000">
        <ele>1002.7</ele>
        <time>2020-10-14T11:47:27Z</time>
      </trkpt>
      <trkpt lat="37.491597000" lon="-3.824744000">
        <ele>1003.7</ele>
        <time>2020-10-14T11:47:31Z</time>
      </trkpt>
      <trkpt lat="37.491666000" lon="-3.824803000">
        <ele>1004.9</ele>
        <time>2020-10-14T11:47:35Z</time>
      </trkpt>
      <trkpt lat="37.491737000" lon="-3.824874000">
        <ele>1006.1</ele>
        <time>2020-10-14T11:47:40Z</time>
      </trkpt>
      <trkpt lat="37.491805000" lon="-3.824958000">
        <ele>1007.5</ele>
        <time>2020-10-14T11:47:46Z</time>
      </trkpt>
      <trkpt lat="37.491883000" lon="-3.825007000">
        <ele>1008.7</ele>
        <time>2020-10-14T11:47:51Z</time>
      </trkpt>
      <trkpt lat="37.491966000" lon="-3.825046000">
        <ele>1010.0</ele>
        <time>2020-10-14T11:47:56Z</time>
      </trkpt>
      <trkpt lat="37.492056000" lon="-3.825091000">
        <ele>1011.2</ele>
        <time>2020-10-14T11:48:01Z</time>
      </trkpt>
      <trkpt lat="37.492149000" lon="-3.825104000">
        <ele>1012.4</ele>
        <time>2020-10-14T11:48:06Z</time>
      </trkpt>
      <trkpt lat="37.492243000" lon="-3.825116000">
        <ele>1013.4</ele>
        <time>2020-10-14T11:48:11Z</time>
      </trkpt>
      <trkpt lat="37.492343000" lon="-3.825117000">
        <ele>1014.3</ele>
        <time>2020-10-14T11:48:16Z</time>
      </trkpt>
      <trkpt lat="37.492430000" lon="-3.825103000">
        <ele>1015.2</ele>
        <time>2020-10-14T11:48:20Z</time>
      </trkpt>
      <trkpt lat="37.492511000" lon="-3.825093000">
        <ele>1016.1</ele>
        <time>2020-10-14T11:48:24Z</time>
      </trkpt>
      <trkpt lat="37.492602000" lon="-3.825077000">
        <ele>1016.9</ele>
        <time>2020-10-14T11:48:28Z</time>
      </trkpt>
      <trkpt lat="37.492702000" lon="-3.825072000">
        <ele>1017.6</ele>
        <time>2020-10-14T11:48:33Z</time>
      </trkpt>
      <trkpt lat="37.492783000" lon="-3.825059000">
        <ele>1018.2</ele>
        <time>2020-10-14T11:48:37Z</time>
      </trkpt>
      <trkpt lat="37.492876000" lon="-3.825057000">
        <ele>1018.7</ele>
        <time>2020-10-14T11:48:42Z</time>
      </trkpt>
      <trkpt lat="37.492961000" lon="-3.825035000">
        <ele>1019.2</ele>
        <time>2020-10-14T11:48:46Z</time>
      </trkpt>
      <trkpt lat="37.493046000" lon="-3.825025000">
        <ele>1019.6</ele>
        <time>2020-10-14T11:48:50Z</time>
      </trkpt>
      <trkpt lat="37.493135000" lon="-3.825009000">
        <ele>1020.1</ele>
        <time>2020-10-14T11:48:54Z</time>
      </trkpt>
      <trkpt lat="37.493228000" lon="-3.824999000">
        <ele>1020.5</ele>
        <time>2020-10-14T11:48:59Z</time>
      </trkpt>
      <trkpt lat="37.493313000" lon="-3.824996000">
        <ele>1021.0</ele>
        <time>2020-10-14T11:49:03Z</time>
      </trkpt>
      <trkpt lat="37.493396000" lon="-3.824990000">
        <ele>1021.3</ele>
        <time>2020-10-14T11:49:07Z</time>
      </trkpt>
      <trkpt lat="37.493482000" lon="-3.824986000">
        <ele>1021.5</ele>
        <time>2020-10-14T11:49:11Z</time>
      </trkpt>
      <trkpt lat="37.493565000" lon="-3.824985000">
        <ele>1021.5</ele>
        <time>2020-10-14T11:49:15Z</time>
      </trkpt>
      <trkpt lat="37.493650000" lon="-3.824974000">
        <ele>1021.6</ele>
        <time>2020-10-14T11:49:20Z</time>
      </trkpt>
      <trkpt lat="37.493744000" lon="-3.824988000">
        <ele>1021.7</ele>
        <time>2020-10-14T11:50:17Z</time>
      </trkpt>
      <trkpt lat="37.493827000" lon="-3.824975000">
        <ele>1021.7</ele>
        <time>2020-10-14T11:50:20Z</time>
      </trkpt>
      <trkpt lat="37.493917000" lon="-3.824961000">
        <ele>1021.6</ele>
        <time>2020-10-14T11:50:23Z</time>
      </trkpt>
      <trkpt lat="37.494007000" lon="-3.824944000">
        <ele>1021.5</ele>
        <time>2020-10-14T11:50:26Z</time>
      </trkpt>
      <trkpt lat="37.494104000" lon="-3.824932000">
        <ele>1021.4</ele>
        <time>2020-10-14T11:50:29Z</time>
      </trkpt>
      <trkpt lat="37.494212000" lon="-3.824917000">
        <ele>1021.2</ele>
        <time>2020-10-14T11:50:32Z</time>
      </trkpt>
      <trkpt lat="37.494317000" lon="-3.824913000">
        <ele>1021.0</ele>
        <time>2020-10-14T11:50:35Z</time>
      </trkpt>
      <trkpt lat="37.494423000" lon="-3.824910000">
        <ele>1020.8</ele>
        <time>2020-10-14T11:50:38Z</time>
      </trkpt>
      <trkpt lat="37.494538000" lon="-3.824907000">
        <ele>1020.6</ele>
        <time>2020-10-14T11:50:41Z</time>
      </trkpt>
      <trkpt lat="37.494620000" lon="-3.824902000">
        <ele>1020.5</ele>
        <time>2020-10-14T11:50:43Z</time>
      </trkpt>
      <trkpt lat="37.494703000" lon="-3.824900000">
        <ele>1020.3</ele>
        <time>2020-10-14T11:50:45Z</time>
      </trkpt>
      <trkpt lat="37.494787000" lon="-3.824906000">
        <ele>1020.1</ele>
        <time>2020-10-14T11:50:47Z</time>
      </trkpt>
      <trkpt lat="37.494873000" lon="-3.824912000">
        <ele>1020.0</ele>
        <time>2020-10-14T11:50:49Z</time>
      </trkpt>
      <trkpt lat="37.494960000" lon="-3.824929000">
        <ele>1019.9</ele>
        <time>2020-10-14T11:50:51Z</time>
      </trkpt>
      <trkpt lat="37.495047000" lon="-3.824950000">
        <ele>1019.8</ele>
        <time>2020-10-14T11:50:53Z</time>
      </trkpt>
      <trkpt lat="37.495129000" lon="-3.824980000">
        <ele>1019.6</ele>
        <time>2020-10-14T11:50:55Z</time>
      </trkpt>
      <trkpt lat="37.495206000" lon="-3.825016000">
        <ele>1019.5</ele>
        <time>2020-10-14T11:50:57Z</time>
      </trkpt>
      <trkpt lat="37.495317000" lon="-3.825064000">
        <ele>1019.5</ele>
        <time>2020-10-14T11:51:00Z</time>
      </trkpt>
      <trkpt lat="37.495426000" lon="-3.825131000">
        <ele>1019.6</ele>
        <time>2020-10-14T11:51:03Z</time>
      </trkpt>
      <trkpt lat="37.495501000" lon="-3.825174000">
        <ele>1019.8</ele>
        <time>2020-10-14T11:51:05Z</time>
      </trkpt>
      <trkpt lat="37.495574000" lon="-3.825220000">
        <ele>1020.1</ele>
        <time>2020-10-14T11:51:07Z</time>
      </trkpt>
      <trkpt lat="37.495683000" lon="-3.825287000">
        <ele>1020.3</ele>
        <time>2020-10-14T11:51:10Z</time>
      </trkpt>
      <trkpt lat="37.495787000" lon="-3.825357000">
        <ele>1020.5</ele>
        <time>2020-10-14T11:51:13Z</time>
      </trkpt>
      <trkpt lat="37.495889000" lon="-3.825417000">
        <ele>1020.6</ele>
        <time>2020-10-14T11:51:16Z</time>
      </trkpt>
      <trkpt lat="37.495994000" lon="-3.825469000">
        <ele>1021.0</ele>
        <time>2020-10-14T11:51:19Z</time>
      </trkpt>
      <trkpt lat="37.496110000" lon="-3.825482000">
        <ele>1021.4</ele>
        <time>2020-10-14T11:51:22Z</time>
      </trkpt>
      <trkpt lat="37.496193000" lon="-3.825470000">
        <ele>1021.8</ele>
        <time>2020-10-14T11:51:24Z</time>
      </trkpt>
      <trkpt lat="37.496275000" lon="-3.825449000">
        <ele>1022.2</ele>
        <time>2020-10-14T11:51:26Z</time>
      </trkpt>
      <trkpt lat="37.496357000" lon="-3.825429000">
        <ele>1022.5</ele>
        <time>2020-10-14T11:51:28Z</time>
      </trkpt>
      <trkpt lat="37.496442000" lon="-3.825406000">
        <ele>1022.6</ele>
        <time>2020-10-14T11:51:30Z</time>
      </trkpt>
      <trkpt lat="37.496527000" lon="-3.825378000">
        <ele>1022.8</ele>
        <time>2020-10-14T11:51:32Z</time>
      </trkpt>
      <trkpt lat="37.496614000" lon="-3.825355000">
        <ele>1022.9</ele>
        <time>2020-10-14T11:51:34Z</time>
      </trkpt>
      <trkpt lat="37.496700000" lon="-3.825355000">
        <ele>1023.2</ele>
        <time>2020-10-14T11:51:36Z</time>
      </trkpt>
      <trkpt lat="37.496817000" lon="-3.825371000">
        <ele>1023.5</ele>
        <time>2020-10-14T11:51:39Z</time>
      </trkpt>
      <trkpt lat="37.496911000" lon="-3.825415000">
        <ele>1023.9</ele>
        <time>2020-10-14T11:51:42Z</time>
      </trkpt>
      <trkpt lat="37.496987000" lon="-3.825467000">
        <ele>1024.4</ele>
        <time>2020-10-14T11:51:45Z</time>
      </trkpt>
      <trkpt lat="37.497074000" lon="-3.825538000">
        <ele>1024.9</ele>
        <time>2020-10-14T11:51:49Z</time>
      </trkpt>
      <trkpt lat="37.497134000" lon="-3.825637000">
        <ele>1025.5</ele>
        <time>2020-10-14T11:51:53Z</time>
      </trkpt>
      <trkpt lat="37.497189000" lon="-3.825739000">
        <ele>1026.3</ele>
        <time>2020-10-14T11:51:57Z</time>
      </trkpt>
      <trkpt lat="37.497247000" lon="-3.825835000">
        <ele>1027.1</ele>
        <time>2020-10-14T11:52:01Z</time>
      </trkpt>
      <trkpt lat="37.497304000" lon="-3.825938000">
        <ele>1028.0</ele>
        <time>2020-10-14T11:52:05Z</time>
      </trkpt>
      <trkpt lat="37.497362000" lon="-3.826041000">
        <ele>1028.9</ele>
        <time>2020-10-14T11:52:09Z</time>
      </trkpt>
      <trkpt lat="37.497416000" lon="-3.826137000">
        <ele>1029.9</ele>
        <time>2020-10-14T11:52:13Z</time>
      </trkpt>
      <trkpt lat="37.497458000" lon="-3.826245000">
        <ele>1030.8</ele>
        <time>2020-10-14T11:52:17Z</time>
      </trkpt>
      <trkpt lat="37.497489000" lon="-3.826357000">
        <ele>1031.5</ele>
        <time>2020-10-14T11:52:21Z</time>
      </trkpt>
      <trkpt lat="37.497501000" lon="-3.826473000">
        <ele>1032.3</ele>
        <time>2020-10-14T11:52:25Z</time>
      </trkpt>
      <trkpt lat="37.497485000" lon="-3.826589000">
        <ele>1032.8</ele>
        <time>2020-10-14T11:52:29Z</time>
      </trkpt>
      <trkpt lat="37.497443000" lon="-3.826694000">
        <ele>1033.3</ele>
        <time>2020-10-14T11:52:33Z</time>
      </trkpt>
      <trkpt lat="37.497378000" lon="-3.826781000">
        <ele>1033.7</ele>
        <time>2020-10-14T11:52:37Z</time>
      </trkpt>
      <trkpt lat="37.497296000" lon="-3.826848000">
        <ele>1034.1</ele>
        <time>2020-10-14T11:52:41Z</time>
      </trkpt>
      <trkpt lat="37.497210000" lon="-3.826903000">
        <ele>1034.3</ele>
        <time>2020-10-14T11:52:45Z</time>
      </trkpt>
      <trkpt lat="37.497126000" lon="-3.826949000">
        <ele>1034.4</ele>
        <time>2020-10-14T11:52:49Z</time>
      </trkpt>
      <trkpt lat="37.497045000" lon="-3.827003000">
        <ele>1034.4</ele>
        <time>2020-10-14T11:52:53Z</time>
      </trkpt>
      <trkpt lat="37.496974000" lon="-3.827067000">
        <ele>1034.3</ele>
        <time>2020-10-14T11:52:57Z</time>
      </trkpt>
      <trkpt lat="37.496905000" lon="-3.827137000">
        <ele>1034.3</ele>
        <time>2020-10-14T11:53:01Z</time>
      </trkpt>
      <trkpt lat="37.496847000" lon="-3.827209000">
        <ele>1034.5</ele>
        <time>2020-10-14T11:53:05Z</time>
      </trkpt>
      <trkpt lat="37.496812000" lon="-3.827327000">
        <ele>1034.8</ele>
        <time>2020-10-14T11:53:10Z</time>
      </trkpt>
      <trkpt lat="37.496792000" lon="-3.827451000">
        <ele>1035.4</ele>
        <time>2020-10-14T11:53:15Z</time>
      </trkpt>
      <trkpt lat="37.496788000" lon="-3.827555000">
        <ele>1036.1</ele>
        <time>2020-10-14T11:53:19Z</time>
      </trkpt>
      <trkpt lat="37.496799000" lon="-3.827665000">
        <ele>1036.8</ele>
        <time>2020-10-14T11:53:23Z</time>
      </trkpt>
      <trkpt lat="37.496822000" lon="-3.827770000">
        <ele>1037.6</ele>
        <time>2020-10-14T11:53:27Z</time>
      </trkpt>
      <trkpt lat="37.496840000" lon="-3.827871000">
        <ele>1038.5</ele>
        <time>2020-10-14T11:53:31Z</time>
      </trkpt>
      <trkpt lat="37.496881000" lon="-3.827984000">
        <ele>1039.3</ele>
        <time>2020-10-14T11:53:36Z</time>
      </trkpt>
      <trkpt lat="37.496925000" lon="-3.828094000">
        <ele>1039.9</ele>
        <time>2020-10-14T11:53:41Z</time>
      </trkpt>
      <trkpt lat="37.496970000" lon="-3.828194000">
        <ele>1040.4</ele>
        <time>2020-10-14T11:53:46Z</time>
      </trkpt>
      <trkpt lat="37.497019000" lon="-3.828297000">
        <ele>1040.8</ele>
        <time>2020-10-14T11:53:51Z</time>
      </trkpt>
      <trkpt lat="37.497067000" lon="-3.828398000">
        <ele>1041.3</ele>
        <time>2020-10-14T11:53:56Z</time>
      </trkpt>
      <trkpt lat="37.497122000" lon="-3.828493000">
        <ele>1041.6</ele>
        <time>2020-10-14T11:54:01Z</time>
      </trkpt>
      <trkpt lat="37.497182000" lon="-3.828582000">
        <ele>1041.9</ele>
        <time>2020-10-14T11:54:06Z</time>
      </trkpt>
      <trkpt lat="37.497261000" lon="-3.828654000">
        <ele>1042.2</ele>
        <time>2020-10-14T11:54:11Z</time>
      </trkpt>
      <trkpt lat="37.497352000" lon="-3.828707000">
        <ele>1042.5</ele>
        <time>2020-10-14T11:54:16Z</time>
      </trkpt>
      <trkpt lat="37.497432000" lon="-3.828735000">
        <ele>1042.9</ele>
        <time>2020-10-14T11:54:20Z</time>
      </trkpt>
      <trkpt lat="37.497514000" lon="-3.828738000">
        <ele>1043.3</ele>
        <time>2020-10-14T11:54:24Z</time>
      </trkpt>
      <trkpt lat="37.497597000" lon="-3.828739000">
        <ele>1043.8</ele>
        <time>2020-10-14T11:54:28Z</time>
      </trkpt>
      <trkpt lat="37.497682000" lon="-3.828727000">
        <ele>1044.5</ele>
        <time>2020-10-14T11:54:32Z</time>
      </trkpt>
      <trkpt lat="37.497778000" lon="-3.828693000">
        <ele>1045.4</ele>
        <time>2020-10-14T11:54:36Z</time>
      </trkpt>
      <trkpt lat="37.497877000" lon="-3.828658000">
        <ele>1046.3</ele>
        <time>2020-10-14T11:54:40Z</time>
      </trkpt>
      <trkpt lat="37.497971000" lon="-3.828604000">
        <ele>1047.3</ele>
        <time>2020-10-14T11:54:44Z</time>
      </trkpt>
      <trkpt lat="37.498041000" lon="-3.828548000">
        <ele>1048.3</ele>
        <time>2020-10-14T11:54:47Z</time>
      </trkpt>
      <trkpt lat="37.498114000" lon="-3.828476000">
        <ele>1049.3</ele>
        <time>2020-10-14T11:54:50Z</time>
      </trkpt>
      <trkpt lat="37.498190000" lon="-3.828394000">
        <ele>1050.2</ele>
        <time>2020-10-14T11:54:53Z</time>
      </trkpt>
      <trkpt lat="37.498271000" lon="-3.828312000">
        <ele>1051.0</ele>
        <time>2020-10-14T11:54:56Z</time>
      </trkpt>
      <trkpt lat="37.498361000" lon="-3.828235000">
        <ele>1051.7</ele>
        <time>2020-10-14T11:54:59Z</time>
      </trkpt>
      <trkpt lat="37.498458000" lon="-3.828178000">
        <ele>1052.5</ele>
        <time>2020-10-14T11:55:02Z</time>
      </trkpt>
      <trkpt lat="37.498560000" lon="-3.828158000">
        <ele>1053.2</ele>
        <time>2020-10-14T11:55:05Z</time>
      </trkpt>
      <trkpt lat="37.498664000" lon="-3.828170000">
        <ele>1053.8</ele>
        <time>2020-10-14T11:55:08Z</time>
      </trkpt>
      <trkpt lat="37.498756000" lon="-3.828202000">
        <ele>1054.4</ele>
        <time>2020-10-14T11:55:11Z</time>
      </trkpt>
      <trkpt lat="37.498842000" lon="-3.828246000">
        <ele>1054.8</ele>
        <time>2020-10-14T11:55:14Z</time>
      </trkpt>
      <trkpt lat="37.498928000" lon="-3.828297000">
        <ele>1055.1</ele>
        <time>2020-10-14T11:55:17Z</time>
      </trkpt>
      <trkpt lat="37.499012000" lon="-3.828357000">
        <ele>1055.2</ele>
        <time>2020-10-14T11:55:20Z</time>
      </trkpt>
      <trkpt lat="37.499091000" lon="-3.828441000">
        <ele>1055.3</ele>
        <time>2020-10-14T11:55:23Z</time>
      </trkpt>
      <trkpt lat="37.499153000" lon="-3.828571000">
        <ele>1055.3</ele>
        <time>2020-10-14T11:55:26Z</time>
      </trkpt>
      <trkpt lat="37.499175000" lon="-3.828672000">
        <ele>1055.4</ele>
        <time>2020-10-14T11:55:28Z</time>
      </trkpt>
      <trkpt lat="37.499180000" lon="-3.828817000">
        <ele>1055.6</ele>
        <time>2020-10-14T11:55:31Z</time>
      </trkpt>
      <trkpt lat="37.499171000" lon="-3.828933000">
        <ele>1056.0</ele>
        <time>2020-10-14T11:55:34Z</time>
      </trkpt>
      <trkpt lat="37.499157000" lon="-3.829036000">
        <ele>1056.5</ele>
        <time>2020-10-14T11:55:37Z</time>
      </trkpt>
      <trkpt lat="37.499139000" lon="-3.829137000">
        <ele>1057.1</ele>
        <time>2020-10-14T11:55:40Z</time>
      </trkpt>
      <trkpt lat="37.499107000" lon="-3.829267000">
        <ele>1057.7</ele>
        <time>2020-10-14T11:55:44Z</time>
      </trkpt>
      <trkpt lat="37.499076000" lon="-3.829370000">
        <ele>1058.4</ele>
        <time>2020-10-14T11:55:47Z</time>
      </trkpt>
      <trkpt lat="37.499036000" lon="-3.829471000">
        <ele>1059.0</ele>
        <time>2020-10-14T11:55:50Z</time>
      </trkpt>
      <trkpt lat="37.498986000" lon="-3.829556000">
        <ele>1059.7</ele>
        <time>2020-10-14T11:55:53Z</time>
      </trkpt>
      <trkpt lat="37.498919000" lon="-3.829648000">
        <ele>1060.5</ele>
        <time>2020-10-14T11:55:57Z</time>
      </trkpt>
      <trkpt lat="37.498843000" lon="-3.829728000">
        <ele>1061.3</ele>
        <time>2020-10-14T11:56:01Z</time>
      </trkpt>
      <trkpt lat="37.498759000" lon="-3.829785000">
        <ele>1062.1</ele>
        <time>2020-10-14T11:56:05Z</time>
      </trkpt>
      <trkpt lat="37.498673000" lon="-3.829848000">
        <ele>1062.8</ele>
        <time>2020-10-14T11:56:09Z</time>
      </trkpt>
      <trkpt lat="37.498587000" lon="-3.829923000">
        <ele>1063.5</ele>
        <time>2020-10-14T11:56:13Z</time>
      </trkpt>
      <trkpt lat="37.498516000" lon="-3.829992000">
        <ele>1064.5</ele>
        <time>2020-10-14T11:56:17Z</time>
      </trkpt>
      <trkpt lat="37.498449000" lon="-3.830060000">
        <ele>1065.3</ele>
        <time>2020-10-14T11:56:21Z</time>
      </trkpt>
      <trkpt lat="37.498381000" lon="-3.830130000">
        <ele>1066.3</ele>
        <time>2020-10-14T11:56:25Z</time>
      </trkpt>
      <trkpt lat="37.498306000" lon="-3.830179000">
        <ele>1067.5</ele>
        <time>2020-10-14T11:56:29Z</time>
      </trkpt>
      <trkpt lat="37.498213000" lon="-3.830206000">
        <ele>1068.7</ele>
        <time>2020-10-14T11:56:33Z</time>
      </trkpt>
      <trkpt lat="37.498136000" lon="-3.830274000">
        <ele>1069.8</ele>
        <time>2020-10-14T11:56:37Z</time>
      </trkpt>
      <trkpt lat="37.498049000" lon="-3.830294000">
        <ele>1070.6</ele>
        <time>2020-10-14T11:56:41Z</time>
      </trkpt>
      <trkpt lat="37.497960000" lon="-3.830310000">
        <ele>1071.3</ele>
        <time>2020-10-14T11:56:45Z</time>
      </trkpt>
      <trkpt lat="37.497873000" lon="-3.830327000">
        <ele>1071.6</ele>
        <time>2020-10-14T11:56:49Z</time>
      </trkpt>
      <trkpt lat="37.497774000" lon="-3.830312000">
        <ele>1071.9</ele>
        <time>2020-10-14T11:56:54Z</time>
      </trkpt>
      <trkpt lat="37.497693000" lon="-3.830288000">
        <ele>1072.1</ele>
        <time>2020-10-14T11:56:58Z</time>
      </trkpt>
      <trkpt lat="37.497608000" lon="-3.830285000">
        <ele>1072.0</ele>
        <time>2020-10-14T11:57:02Z</time>
      </trkpt>
      <trkpt lat="37.497525000" lon="-3.830284000">
        <ele>1072.0</ele>
        <time>2020-10-14T11:57:06Z</time>
      </trkpt>
      <trkpt lat="37.497445000" lon="-3.830309000">
        <ele>1071.8</ele>
        <time>2020-10-14T11:57:10Z</time>
      </trkpt>
      <trkpt lat="37.497365000" lon="-3.830368000">
        <ele>1071.4</ele>
        <time>2020-10-14T11:57:14Z</time>
      </trkpt>
      <trkpt lat="37.497286000" lon="-3.830425000">
        <ele>1070.8</ele>
        <time>2020-10-14T11:57:18Z</time>
      </trkpt>
      <trkpt lat="37.497218000" lon="-3.830484000">
        <ele>1070.5</ele>
        <time>2020-10-14T11:57:22Z</time>
      </trkpt>
      <trkpt lat="37.497146000" lon="-3.830547000">
        <ele>1070.3</ele>
        <time>2020-10-14T11:57:26Z</time>
      </trkpt>
      <trkpt lat="37.497075000" lon="-3.830609000">
        <ele>1070.3</ele>
        <time>2020-10-14T11:57:30Z</time>
      </trkpt>
      <trkpt lat="37.497016000" lon="-3.830684000">
        <ele>1070.5</ele>
        <time>2020-10-14T11:57:34Z</time>
      </trkpt>
      <trkpt lat="37.496972000" lon="-3.830781000">
        <ele>1070.7</ele>
        <time>2020-10-14T11:57:38Z</time>
      </trkpt>
      <trkpt lat="37.496984000" lon="-3.830883000">
        <ele>1071.0</ele>
        <time>2020-10-14T11:57:42Z</time>
      </trkpt>
      <trkpt lat="37.497029000" lon="-3.830997000">
        <ele>1071.5</ele>
        <time>2020-10-14T11:57:47Z</time>
      </trkpt>
      <trkpt lat="37.497093000" lon="-3.831074000">
        <ele>1072.0</ele>
        <time>2020-10-14T11:57:51Z</time>
      </trkpt>
      <trkpt lat="37.497158000" lon="-3.831147000">
        <ele>1072.7</ele>
        <time>2020-10-14T11:57:55Z</time>
      </trkpt>
      <trkpt lat="37.497223000" lon="-3.831221000">
        <ele>1073.7</ele>
        <time>2020-10-14T11:57:59Z</time>
      </trkpt>
      <trkpt lat="37.497295000" lon="-3.831284000">
        <ele>1074.9</ele>
        <time>2020-10-14T11:58:03Z</time>
      </trkpt>
      <trkpt lat="37.497383000" lon="-3.831339000">
        <ele>1076.3</ele>
        <time>2020-10-14T11:58:08Z</time>
      </trkpt>
      <trkpt lat="37.497461000" lon="-3.831396000">
        <ele>1077.5</ele>
        <time>2020-10-14T11:58:13Z</time>
      </trkpt>
      <trkpt lat="37.497546000" lon="-3.831385000">
        <ele>1078.7</ele>
        <time>2020-10-14T11:58:17Z</time>
      </trkpt>
      <trkpt lat="37.497627000" lon="-3.831406000">
        <ele>1079.7</ele>
        <time>2020-10-14T11:58:21Z</time>
      </trkpt>
      <trkpt lat="37.497710000" lon="-3.831423000">
        <ele>1080.6</ele>
        <time>2020-10-14T11:58:25Z</time>
      </trkpt>
      <trkpt lat="37.497799000" lon="-3.831385000">
        <ele>1081.5</ele>
        <time>2020-10-14T11:58:30Z</time>
      </trkpt>
      <trkpt lat="37.497893000" lon="-3.831364000">
        <ele>1082.3</ele>
        <time>2020-10-14T11:58:35Z</time>
      </trkpt>
      <trkpt lat="37.497979000" lon="-3.831341000">
        <ele>1082.9</ele>
        <time>2020-10-14T11:58:41Z</time>
      </trkpt>
      <trkpt lat="37.498057000" lon="-3.831275000">
        <ele>1083.5</ele>
        <time>2020-10-14T11:58:46Z</time>
      </trkpt>
      <trkpt lat="37.498139000" lon="-3.831212000">
        <ele>1083.9</ele>
        <time>2020-10-14T11:58:51Z</time>
      </trkpt>
      <trkpt lat="37.498227000" lon="-3.831154000">
        <ele>1084.3</ele>
        <time>2020-10-14T11:58:56Z</time>
      </trkpt>
      <trkpt lat="37.498319000" lon="-3.831110000">
        <ele>1084.6</ele>
        <time>2020-10-14T11:59:01Z</time>
      </trkpt>
      <trkpt lat="37.498408000" lon="-3.831107000">
        <ele>1085.3</ele>
        <time>2020-10-14T11:59:05Z</time>
      </trkpt>
      <trkpt lat="37.498486000" lon="-3.831141000">
        <ele>1086.1</ele>
        <time>2020-10-14T11:59:09Z</time>
      </trkpt>
      <trkpt lat="37.498560000" lon="-3.831203000">
        <ele>1087.2</ele>
        <time>2020-10-14T11:59:14Z</time>
      </trkpt>
      <trkpt lat="37.498593000" lon="-3.831318000">
        <ele>1088.5</ele>
        <time>2020-10-14T11:59:19Z</time>
      </trkpt>
      <trkpt lat="37.498639000" lon="-3.831422000">
        <ele>1090.0</ele>
        <time>2020-10-14T11:59:24Z</time>
      </trkpt>
      <trkpt lat="37.498647000" lon="-3.831541000">
        <ele>1091.5</ele>
        <time>2020-10-14T11:59:29Z</time>
      </trkpt>
      <trkpt lat="37.498670000" lon="-3.831650000">
        <ele>1092.8</ele>
        <time>2020-10-14T11:59:34Z</time>
      </trkpt>
      <trkpt lat="37.498682000" lon="-3.831772000">
        <ele>1094.0</ele>
        <time>2020-10-14T11:59:39Z</time>
      </trkpt>
      <trkpt lat="37.498689000" lon="-3.831897000">
        <ele>1095.0</ele>
        <time>2020-10-14T11:59:44Z</time>
      </trkpt>
      <trkpt lat="37.498699000" lon="-3.831999000">
        <ele>1095.9</ele>
        <time>2020-10-14T11:59:48Z</time>
      </trkpt>
      <trkpt lat="37.498673000" lon="-3.832113000">
        <ele>1096.6</ele>
        <time>2020-10-14T11:59:53Z</time>
      </trkpt>
      <trkpt lat="37.498662000" lon="-3.832216000">
        <ele>1097.3</ele>
        <time>2020-10-14T11:59:57Z</time>
      </trkpt>
      <trkpt lat="37.498638000" lon="-3.832323000">
        <ele>1097.8</ele>
        <time>2020-10-14T12:00:02Z</time>
      </trkpt>
      <trkpt lat="37.498584000" lon="-3.832403000">
        <ele>1098.3</ele>
        <time>2020-10-14T12:00:06Z</time>
      </trkpt>
      <trkpt lat="37.498571000" lon="-3.832517000">
        <ele>1098.5</ele>
        <time>2020-10-14T12:00:11Z</time>
      </trkpt>
      <trkpt lat="37.498538000" lon="-3.832628000">
        <ele>1098.8</ele>
        <time>2020-10-14T12:00:16Z</time>
      </trkpt>
      <trkpt lat="37.498537000" lon="-3.832733000">
        <ele>1099.2</ele>
        <time>2020-10-14T12:00:20Z</time>
      </trkpt>
      <trkpt lat="37.498538000" lon="-3.832841000">
        <ele>1099.5</ele>
        <time>2020-10-14T12:00:24Z</time>
      </trkpt>
      <trkpt lat="37.498548000" lon="-3.832967000">
        <ele>1100.0</ele>
        <time>2020-10-14T12:00:29Z</time>
      </trkpt>
      <trkpt lat="37.498574000" lon="-3.833066000">
        <ele>1100.6</ele>
        <time>2020-10-14T12:00:33Z</time>
      </trkpt>
      <trkpt lat="37.498588000" lon="-3.833191000">
        <ele>1101.4</ele>
        <time>2020-10-14T12:00:38Z</time>
      </trkpt>
      <trkpt lat="37.498605000" lon="-3.833311000">
        <ele>1102.2</ele>
        <time>2020-10-14T12:00:43Z</time>
      </trkpt>
      <trkpt lat="37.498647000" lon="-3.833415000">
        <ele>1102.9</ele>
        <time>2020-10-14T12:00:49Z</time>
      </trkpt>
      <trkpt lat="37.498725000" lon="-3.833449000">
        <ele>1103.5</ele>
        <time>2020-10-14T12:03:40Z</time>
      </trkpt>
      <trkpt lat="37.498794000" lon="-3.833515000">
        <ele>1103.9</ele>
        <time>2020-10-14T12:03:45Z</time>
      </trkpt>
      <trkpt lat="37.498882000" lon="-3.833566000">
        <ele>1104.4</ele>
        <time>2020-10-14T12:03:49Z</time>
      </trkpt>
      <trkpt lat="37.498982000" lon="-3.833604000">
        <ele>1104.7</ele>
        <time>2020-10-14T12:03:53Z</time>
      </trkpt>
      <trkpt lat="37.499075000" lon="-3.833644000">
        <ele>1105.2</ele>
        <time>2020-10-14T12:03:57Z</time>
      </trkpt>
      <trkpt lat="37.499167000" lon="-3.833682000">
        <ele>1105.8</ele>
        <time>2020-10-14T12:04:01Z</time>
      </trkpt>
      <trkpt lat="37.499255000" lon="-3.833709000">
        <ele>1106.3</ele>
        <time>2020-10-14T12:04:05Z</time>
      </trkpt>
      <trkpt lat="37.499345000" lon="-3.833746000">
        <ele>1106.7</ele>
        <time>2020-10-14T12:04:09Z</time>
      </trkpt>
      <trkpt lat="37.499426000" lon="-3.833794000">
        <ele>1107.2</ele>
        <time>2020-10-14T12:04:13Z</time>
      </trkpt>
      <trkpt lat="37.499509000" lon="-3.833815000">
        <ele>1107.6</ele>
        <time>2020-10-14T12:04:17Z</time>
      </trkpt>
      <trkpt lat="37.499592000" lon="-3.833858000">
        <ele>1108.2</ele>
        <time>2020-10-14T12:04:21Z</time>
      </trkpt>
      <trkpt lat="37.499678000" lon="-3.833918000">
        <ele>1108.8</ele>
        <time>2020-10-14T12:04:26Z</time>
      </trkpt>
      <trkpt lat="37.499768000" lon="-3.833975000">
        <ele>1109.5</ele>
        <time>2020-10-14T12:04:31Z</time>
      </trkpt>
      <trkpt lat="37.499841000" lon="-3.834028000">
        <ele>1110.3</ele>
        <time>2020-10-14T12:04:35Z</time>
      </trkpt>
      <trkpt lat="37.499929000" lon="-3.834088000">
        <ele>1111.1</ele>
        <time>2020-10-14T12:04:40Z</time>
      </trkpt>
      <trkpt lat="37.500008000" lon="-3.834147000">
        <ele>1111.7</ele>
        <time>2020-10-14T12:04:44Z</time>
      </trkpt>
      <trkpt lat="37.500092000" lon="-3.834196000">
        <ele>1112.3</ele>
        <time>2020-10-14T12:04:48Z</time>
      </trkpt>
      <trkpt lat="37.500181000" lon="-3.834259000">
        <ele>1112.7</ele>
        <time>2020-10-14T12:04:53Z</time>
      </trkpt>
      <trkpt lat="37.500262000" lon="-3.834309000">
        <ele>1113.1</ele>
        <time>2020-10-14T12:04:57Z</time>
      </trkpt>
      <trkpt lat="37.500340000" lon="-3.834363000">
        <ele>1113.3</ele>
        <time>2020-10-14T12:05:01Z</time>
      </trkpt>
      <trkpt lat="37.500418000" lon="-3.834422000">
        <ele>1113.3</ele>
        <time>2020-10-14T12:05:05Z</time>
      </trkpt>
      <trkpt lat="37.500501000" lon="-3.834479000">
        <ele>1113.2</ele>
        <time>2020-10-14T12:05:09Z</time>
      </trkpt>
      <trkpt lat="37.500589000" lon="-3.834536000">
        <ele>1113.2</ele>
        <time>2020-10-14T12:05:13Z</time>
      </trkpt>
      <trkpt lat="37.500677000" lon="-3.834602000">
        <ele>1113.2</ele>
        <time>2020-10-14T12:05:17Z</time>
      </trkpt>
      <trkpt lat="37.500750000" lon="-3.834647000">
        <ele>1113.2</ele>
        <time>2020-10-14T12:05:20Z</time>
      </trkpt>
      <trkpt lat="37.500848000" lon="-3.834701000">
        <ele>1113.3</ele>
        <time>2020-10-14T12:05:24Z</time>
      </trkpt>
      <trkpt lat="37.500927000" lon="-3.834731000">
        <ele>1113.5</ele>
        <time>2020-10-14T12:05:27Z</time>
      </trkpt>
      <trkpt lat="37.501013000" lon="-3.834755000">
        <ele>1113.8</ele>
        <time>2020-10-14T12:05:30Z</time>
      </trkpt>
      <trkpt lat="37.501103000" lon="-3.834768000">
        <ele>1114.2</ele>
        <time>2020-10-14T12:05:33Z</time>
      </trkpt>
      <trkpt lat="37.501198000" lon="-3.834783000">
        <ele>1114.7</ele>
        <time>2020-10-14T12:05:36Z</time>
      </trkpt>
      <trkpt lat="37.501291000" lon="-3.834790000">
        <ele>1115.5</ele>
        <time>2020-10-14T12:05:39Z</time>
      </trkpt>
      <trkpt lat="37.501380000" lon="-3.834797000">
        <ele>1116.3</ele>
        <time>2020-10-14T12:05:42Z</time>
      </trkpt>
      <trkpt lat="37.501485000" lon="-3.834799000">
        <ele>1117.1</ele>
        <time>2020-10-14T12:05:46Z</time>
      </trkpt>
      <trkpt lat="37.501591000" lon="-3.834787000">
        <ele>1117.9</ele>
        <time>2020-10-14T12:05:50Z</time>
      </trkpt>
      <trkpt lat="37.501672000" lon="-3.834775000">
        <ele>1118.7</ele>
        <time>2020-10-14T12:05:53Z</time>
      </trkpt>
      <trkpt lat="37.501752000" lon="-3.834757000">
        <ele>1119.5</ele>
        <time>2020-10-14T12:05:56Z</time>
      </trkpt>
      <trkpt lat="37.501836000" lon="-3.834739000">
        <ele>1120.1</ele>
        <time>2020-10-14T12:05:59Z</time>
      </trkpt>
      <trkpt lat="37.501920000" lon="-3.834728000">
        <ele>1120.4</ele>
        <time>2020-10-14T12:06:02Z</time>
      </trkpt>
      <trkpt lat="37.502007000" lon="-3.834725000">
        <ele>1120.5</ele>
        <time>2020-10-14T12:06:05Z</time>
      </trkpt>
      <trkpt lat="37.502104000" lon="-3.834729000">
        <ele>1120.6</ele>
        <time>2020-10-14T12:06:08Z</time>
      </trkpt>
      <trkpt lat="37.502193000" lon="-3.834740000">
        <ele>1120.5</ele>
        <time>2020-10-14T12:06:11Z</time>
      </trkpt>
      <trkpt lat="37.502281000" lon="-3.834755000">
        <ele>1120.4</ele>
        <time>2020-10-14T12:06:14Z</time>
      </trkpt>
      <trkpt lat="37.502363000" lon="-3.834768000">
        <ele>1120.3</ele>
        <time>2020-10-14T12:06:17Z</time>
      </trkpt>
      <trkpt lat="37.502454000" lon="-3.834776000">
        <ele>1120.5</ele>
        <time>2020-10-14T12:06:21Z</time>
      </trkpt>
      <trkpt lat="37.502536000" lon="-3.834779000">
        <ele>1121.2</ele>
        <time>2020-10-14T12:06:25Z</time>
      </trkpt>
      <trkpt lat="37.502618000" lon="-3.834783000">
        <ele>1122.1</ele>
        <time>2020-10-14T12:06:29Z</time>
      </trkpt>
      <trkpt lat="37.502702000" lon="-3.834772000">
        <ele>1122.8</ele>
        <time>2020-10-14T12:06:33Z</time>
      </trkpt>
      <trkpt lat="37.502790000" lon="-3.834756000">
        <ele>1123.5</ele>
        <time>2020-10-14T12:06:37Z</time>
      </trkpt>
      <trkpt lat="37.502881000" lon="-3.834733000">
        <ele>1124.3</ele>
        <time>2020-10-14T12:06:41Z</time>
      </trkpt>
      <trkpt lat="37.502971000" lon="-3.834721000">
        <ele>1125.2</ele>
        <time>2020-10-14T12:06:45Z</time>
      </trkpt>
      <trkpt lat="37.503065000" lon="-3.834715000">
        <ele>1126.4</ele>
        <time>2020-10-14T12:06:49Z</time>
      </trkpt>
      <trkpt lat="37.503158000" lon="-3.834732000">
        <ele>1127.7</ele>
        <time>2020-10-14T12:06:53Z</time>
      </trkpt>
      <trkpt lat="37.503245000" lon="-3.834754000">
        <ele>1129.2</ele>
        <time>2020-10-14T12:06:57Z</time>
      </trkpt>
      <trkpt lat="37.503331000" lon="-3.834772000">
        <ele>1130.5</ele>
        <time>2020-10-14T12:07:01Z</time>
      </trkpt>
      <trkpt lat="37.503414000" lon="-3.834759000">
        <ele>1131.5</ele>
        <time>2020-10-14T12:07:05Z</time>
      </trkpt>
      <trkpt lat="37.503506000" lon="-3.834736000">
        <ele>1132.2</ele>
        <time>2020-10-14T12:07:10Z</time>
      </trkpt>
      <trkpt lat="37.503597000" lon="-3.834716000">
        <ele>1132.4</ele>
        <time>2020-10-14T12:07:15Z</time>
      </trkpt>
      <trkpt lat="37.503688000" lon="-3.834708000">
        <ele>1132.6</ele>
        <time>2020-10-14T12:07:20Z</time>
      </trkpt>
      <trkpt lat="37.503787000" lon="-3.834709000">
        <ele>1132.8</ele>
        <time>2020-10-14T12:07:25Z</time>
      </trkpt>
      <trkpt lat="37.503867000" lon="-3.834727000">
        <ele>1133.1</ele>
        <time>2020-10-14T12:07:29Z</time>
      </trkpt>
      <trkpt lat="37.503964000" lon="-3.834727000">
        <ele>1133.2</ele>
        <time>2020-10-14T12:07:34Z</time>
      </trkpt>
      <trkpt lat="37.504047000" lon="-3.834754000">
        <ele>1133.0</ele>
        <time>2020-10-14T12:07:38Z</time>
      </trkpt>
      <trkpt lat="37.504130000" lon="-3.834788000">
        <ele>1132.6</ele>
        <time>2020-10-14T12:07:42Z</time>
      </trkpt>
      <trkpt lat="37.504215000" lon="-3.834843000">
        <ele>1132.2</ele>
        <time>2020-10-14T12:07:46Z</time>
      </trkpt>
      <trkpt lat="37.504298000" lon="-3.834884000">
        <ele>1131.7</ele>
        <time>2020-10-14T12:07:50Z</time>
      </trkpt>
      <trkpt lat="37.504378000" lon="-3.834943000">
        <ele>1131.4</ele>
        <time>2020-10-14T12:07:54Z</time>
      </trkpt>
      <trkpt lat="37.504456000" lon="-3.835011000">
        <ele>1131.1</ele>
        <time>2020-10-14T12:07:58Z</time>
      </trkpt>
      <trkpt lat="37.504544000" lon="-3.835074000">
        <ele>1131.1</ele>
        <time>2020-10-14T12:08:02Z</time>
      </trkpt>
      <trkpt lat="37.504630000" lon="-3.835139000">
        <ele>1131.2</ele>
        <time>2020-10-14T12:08:06Z</time>
      </trkpt>
      <trkpt lat="37.504719000" lon="-3.835197000">
        <ele>1131.5</ele>
        <time>2020-10-14T12:08:10Z</time>
      </trkpt>
      <trkpt lat="37.504804000" lon="-3.835248000">
        <ele>1132.0</ele>
        <time>2020-10-14T12:08:14Z</time>
      </trkpt>
      <trkpt lat="37.504889000" lon="-3.835303000">
        <ele>1132.6</ele>
        <time>2020-10-14T12:08:18Z</time>
      </trkpt>
      <trkpt lat="37.504975000" lon="-3.835346000">
        <ele>1133.5</ele>
        <time>2020-10-14T12:08:22Z</time>
      </trkpt>
      <trkpt lat="37.505056000" lon="-3.835374000">
        <ele>1134.5</ele>
        <time>2020-10-14T12:08:26Z</time>
      </trkpt>
      <trkpt lat="37.505136000" lon="-3.835392000">
        <ele>1135.6</ele>
        <time>2020-10-14T12:08:30Z</time>
      </trkpt>
      <trkpt lat="37.505227000" lon="-3.835402000">
        <ele>1136.8</ele>
        <time>2020-10-14T12:08:34Z</time>
      </trkpt>
      <trkpt lat="37.505312000" lon="-3.835397000">
        <ele>1138.0</ele>
        <time>2020-10-14T12:08:38Z</time>
      </trkpt>
      <trkpt lat="37.505411000" lon="-3.835369000">
        <ele>1139.0</ele>
        <time>2020-10-14T12:08:43Z</time>
      </trkpt>
      <trkpt lat="37.505491000" lon="-3.835333000">
        <ele>1139.9</ele>
        <time>2020-10-14T12:08:47Z</time>
      </trkpt>
      <trkpt lat="37.505571000" lon="-3.835275000">
        <ele>1140.7</ele>
        <time>2020-10-14T12:08:51Z</time>
      </trkpt>
      <trkpt lat="37.505657000" lon="-3.835227000">
        <ele>1141.5</ele>
        <time>2020-10-14T12:08:55Z</time>
      </trkpt>
      <trkpt lat="37.505740000" lon="-3.835163000">
        <ele>1142.3</ele>
        <time>2020-10-14T12:08:59Z</time>
      </trkpt>
      <trkpt lat="37.505825000" lon="-3.835087000">
        <ele>1142.9</ele>
        <time>2020-10-14T12:09:03Z</time>
      </trkpt>
      <trkpt lat="37.505908000" lon="-3.835000000">
        <ele>1143.4</ele>
        <time>2020-10-14T12:09:07Z</time>
      </trkpt>
      <trkpt lat="37.505971000" lon="-3.834923000">
        <ele>1143.7</ele>
        <time>2020-10-14T12:09:10Z</time>
      </trkpt>
      <trkpt lat="37.506030000" lon="-3.834848000">
        <ele>1143.9</ele>
        <time>2020-10-14T12:09:13Z</time>
      </trkpt>
      <trkpt lat="37.506087000" lon="-3.834773000">
        <ele>1144.4</ele>
        <time>2020-10-14T12:09:16Z</time>
      </trkpt>
      <trkpt lat="37.506146000" lon="-3.834694000">
        <ele>1144.8</ele>
        <time>2020-10-14T12:09:19Z</time>
      </trkpt>
      <trkpt lat="37.506204000" lon="-3.834609000">
        <ele>1145.4</ele>
        <time>2020-10-14T12:09:26Z</time>
      </trkpt>
      <trkpt lat="37.506261000" lon="-3.834524000">
        <ele>1145.8</ele>
        <time>2020-10-14T12:09:27Z</time>
      </trkpt>
      <trkpt lat="37.506366000" lon="-3.834364000">
        <ele>1146.2</ele>
        <time>2020-10-14T12:09:36Z</time>
      </trkpt>
      <trkpt lat="37.506513000" lon="-3.834114000">
        <ele>1146.4</ele>
        <time>2020-10-14T12:09:37Z</time>
      </trkpt>
      <trkpt lat="37.506584000" lon="-3.834016000">
        <ele>1146.3</ele>
        <time>2020-10-14T12:09:40Z</time>
      </trkpt>
      <trkpt lat="37.506639000" lon="-3.833924000">
        <ele>1146.3</ele>
        <time>2020-10-14T12:09:43Z</time>
      </trkpt>
      <trkpt lat="37.506709000" lon="-3.833840000">
        <ele>1146.4</ele>
        <time>2020-10-14T12:09:46Z</time>
      </trkpt>
      <trkpt lat="37.506795000" lon="-3.833750000">
        <ele>1146.4</ele>
        <time>2020-10-14T12:09:49Z</time>
      </trkpt>
      <trkpt lat="37.506871000" lon="-3.833658000">
        <ele>1146.4</ele>
        <time>2020-10-14T12:09:52Z</time>
      </trkpt>
      <trkpt lat="37.506952000" lon="-3.833561000">
        <ele>1146.2</ele>
        <time>2020-10-14T12:09:55Z</time>
      </trkpt>
      <trkpt lat="37.507030000" lon="-3.833451000">
        <ele>1146.1</ele>
        <time>2020-10-14T12:09:58Z</time>
      </trkpt>
      <trkpt lat="37.507107000" lon="-3.833337000">
        <ele>1145.9</ele>
        <time>2020-10-14T12:10:01Z</time>
      </trkpt>
      <trkpt lat="37.507190000" lon="-3.833227000">
        <ele>1145.8</ele>
        <time>2020-10-14T12:10:04Z</time>
      </trkpt>
      <trkpt lat="37.507271000" lon="-3.833116000">
        <ele>1145.8</ele>
        <time>2020-10-14T12:10:07Z</time>
      </trkpt>
      <trkpt lat="37.507349000" lon="-3.833004000">
        <ele>1145.9</ele>
        <time>2020-10-14T12:10:10Z</time>
      </trkpt>
      <trkpt lat="37.507420000" lon="-3.832893000">
        <ele>1146.3</ele>
        <time>2020-10-14T12:10:13Z</time>
      </trkpt>
      <trkpt lat="37.507495000" lon="-3.832792000">
        <ele>1146.5</ele>
        <time>2020-10-14T12:10:16Z</time>
      </trkpt>
      <trkpt lat="37.507564000" lon="-3.832699000">
        <ele>1146.9</ele>
        <time>2020-10-14T12:10:19Z</time>
      </trkpt>
      <trkpt lat="37.507626000" lon="-3.832616000">
        <ele>1147.3</ele>
        <time>2020-10-14T12:10:22Z</time>
      </trkpt>
      <trkpt lat="37.507699000" lon="-3.832551000">
        <ele>1147.6</ele>
        <time>2020-10-14T12:10:25Z</time>
      </trkpt>
      <trkpt lat="37.507781000" lon="-3.832488000">
        <ele>1147.9</ele>
        <time>2020-10-14T12:10:28Z</time>
      </trkpt>
      <trkpt lat="37.507874000" lon="-3.832418000">
        <ele>1147.9</ele>
        <time>2020-10-14T12:10:32Z</time>
      </trkpt>
      <trkpt lat="37.507945000" lon="-3.832367000">
        <ele>1147.9</ele>
        <time>2020-10-14T12:10:35Z</time>
      </trkpt>
      <trkpt lat="37.508025000" lon="-3.832329000">
        <ele>1147.8</ele>
        <time>2020-10-14T12:10:38Z</time>
      </trkpt>
      <trkpt lat="37.508106000" lon="-3.832285000">
        <ele>1147.8</ele>
        <time>2020-10-14T12:10:41Z</time>
      </trkpt>
      <trkpt lat="37.508198000" lon="-3.832250000">
        <ele>1147.9</ele>
        <time>2020-10-14T12:10:44Z</time>
      </trkpt>
      <trkpt lat="37.508293000" lon="-3.832209000">
        <ele>1148.1</ele>
        <time>2020-10-14T12:10:47Z</time>
      </trkpt>
      <trkpt lat="37.508386000" lon="-3.832175000">
        <ele>1148.4</ele>
        <time>2020-10-14T12:10:50Z</time>
      </trkpt>
      <trkpt lat="37.508480000" lon="-3.832146000">
        <ele>1148.6</ele>
        <time>2020-10-14T12:10:53Z</time>
      </trkpt>
      <trkpt lat="37.508572000" lon="-3.832126000">
        <ele>1149.1</ele>
        <time>2020-10-14T12:10:56Z</time>
      </trkpt>
      <trkpt lat="37.508663000" lon="-3.832121000">
        <ele>1149.7</ele>
        <time>2020-10-14T12:10:59Z</time>
      </trkpt>
      <trkpt lat="37.508761000" lon="-3.832120000">
        <ele>1150.5</ele>
        <time>2020-10-14T12:11:02Z</time>
      </trkpt>
      <trkpt lat="37.508854000" lon="-3.832120000">
        <ele>1151.5</ele>
        <time>2020-10-14T12:11:05Z</time>
      </trkpt>
      <trkpt lat="37.508958000" lon="-3.832129000">
        <ele>1152.7</ele>
        <time>2020-10-14T12:11:08Z</time>
      </trkpt>
      <trkpt lat="37.509074000" lon="-3.832138000">
        <ele>1154.0</ele>
        <time>2020-10-14T12:11:11Z</time>
      </trkpt>
      <trkpt lat="37.509177000" lon="-3.832136000">
        <ele>1155.3</ele>
        <time>2020-10-14T12:11:14Z</time>
      </trkpt>
      <trkpt lat="37.509270000" lon="-3.832124000">
        <ele>1156.5</ele>
        <time>2020-10-14T12:11:17Z</time>
      </trkpt>
      <trkpt lat="37.509350000" lon="-3.832096000">
        <ele>1157.7</ele>
        <time>2020-10-14T12:11:20Z</time>
      </trkpt>
      <trkpt lat="37.509443000" lon="-3.832057000">
        <ele>1158.8</ele>
        <time>2020-10-14T12:11:24Z</time>
      </trkpt>
      <trkpt lat="37.509538000" lon="-3.831995000">
        <ele>1159.8</ele>
        <time>2020-10-14T12:11:28Z</time>
      </trkpt>
      <trkpt lat="37.509632000" lon="-3.831934000">
        <ele>1160.7</ele>
        <time>2020-10-14T12:11:32Z</time>
      </trkpt>
      <trkpt lat="37.509714000" lon="-3.831857000">
        <ele>1161.5</ele>
        <time>2020-10-14T12:11:36Z</time>
      </trkpt>
      <trkpt lat="37.509791000" lon="-3.831771000">
        <ele>1162.1</ele>
        <time>2020-10-14T12:11:40Z</time>
      </trkpt>
      <trkpt lat="37.509848000" lon="-3.831691000">
        <ele>1162.6</ele>
        <time>2020-10-14T12:11:44Z</time>
      </trkpt>
      <trkpt lat="37.509912000" lon="-3.831624000">
        <ele>1162.9</ele>
        <time>2020-10-14T12:11:47Z</time>
      </trkpt>
      <trkpt lat="37.509986000" lon="-3.831558000">
        <ele>1163.1</ele>
        <time>2020-10-14T12:11:51Z</time>
      </trkpt>
      <trkpt lat="37.510072000" lon="-3.831498000">
        <ele>1163.1</ele>
        <time>2020-10-14T12:11:55Z</time>
      </trkpt>
      <trkpt lat="37.510153000" lon="-3.831433000">
        <ele>1163.0</ele>
        <time>2020-10-14T12:11:59Z</time>
      </trkpt>
      <trkpt lat="37.510229000" lon="-3.831370000">
        <ele>1163.0</ele>
        <time>2020-10-14T12:12:03Z</time>
      </trkpt>
      <trkpt lat="37.510294000" lon="-3.831287000">
        <ele>1163.0</ele>
        <time>2020-10-14T12:12:07Z</time>
      </trkpt>
      <trkpt lat="37.510349000" lon="-3.831200000">
        <ele>1163.1</ele>
        <time>2020-10-14T12:12:11Z</time>
      </trkpt>
      <trkpt lat="37.510409000" lon="-3.831111000">
        <ele>1163.3</ele>
        <time>2020-10-14T12:12:15Z</time>
      </trkpt>
      <trkpt lat="37.510479000" lon="-3.831041000">
        <ele>1163.5</ele>
        <time>2020-10-14T12:12:19Z</time>
      </trkpt>
      <trkpt lat="37.510563000" lon="-3.831004000">
        <ele>1163.8</ele>
        <time>2020-10-14T12:12:23Z</time>
      </trkpt>
      <trkpt lat="37.510649000" lon="-3.831011000">
        <ele>1164.2</ele>
        <time>2020-10-14T12:12:27Z</time>
      </trkpt>
      <trkpt lat="37.510728000" lon="-3.831054000">
        <ele>1164.7</ele>
        <time>2020-10-14T12:12:31Z</time>
      </trkpt>
      <trkpt lat="37.510813000" lon="-3.831110000">
        <ele>1165.4</ele>
        <time>2020-10-14T12:12:36Z</time>
      </trkpt>
      <trkpt lat="37.510877000" lon="-3.831174000">
        <ele>1166.2</ele>
        <time>2020-10-14T12:12:40Z</time>
      </trkpt>
      <trkpt lat="37.510953000" lon="-3.831247000">
        <ele>1167.0</ele>
        <time>2020-10-14T12:12:45Z</time>
      </trkpt>
      <trkpt lat="37.511038000" lon="-3.831311000">
        <ele>1167.7</ele>
        <time>2020-10-14T12:12:50Z</time>
      </trkpt>
      <trkpt lat="37.511106000" lon="-3.831380000">
        <ele>1168.5</ele>
        <time>2020-10-14T12:12:55Z</time>
      </trkpt>
      <trkpt lat="37.511179000" lon="-3.831437000">
        <ele>1169.1</ele>
        <time>2020-10-14T12:13:00Z</time>
      </trkpt>
      <trkpt lat="37.511254000" lon="-3.831490000">
        <ele>1169.5</ele>
        <time>2020-10-14T12:13:05Z</time>
      </trkpt>
      <trkpt lat="37.511343000" lon="-3.831539000">
        <ele>1170.0</ele>
        <time>2020-10-14T12:13:10Z</time>
      </trkpt>
      <trkpt lat="37.511440000" lon="-3.831546000">
        <ele>1170.4</ele>
        <time>2020-10-14T12:13:15Z</time>
      </trkpt>
      <trkpt lat="37.511526000" lon="-3.831493000">
        <ele>1170.6</ele>
        <time>2020-10-14T12:13:20Z</time>
      </trkpt>
      <trkpt lat="37.511588000" lon="-3.831400000">
        <ele>1170.8</ele>
        <time>2020-10-14T12:13:25Z</time>
      </trkpt>
      <trkpt lat="37.511633000" lon="-3.831308000">
        <ele>1171.0</ele>
        <time>2020-10-14T12:13:29Z</time>
      </trkpt>
      <trkpt lat="37.511685000" lon="-3.831221000">
        <ele>1171.2</ele>
        <time>2020-10-14T12:13:33Z</time>
      </trkpt>
      <trkpt lat="37.511751000" lon="-3.831158000">
        <ele>1171.4</ele>
        <time>2020-10-14T12:13:37Z</time>
      </trkpt>
      <trkpt lat="37.511828000" lon="-3.831107000">
        <ele>1171.6</ele>
        <time>2020-10-14T12:13:41Z</time>
      </trkpt>
      <trkpt lat="37.511912000" lon="-3.831072000">
        <ele>1171.9</ele>
        <time>2020-10-14T12:13:45Z</time>
      </trkpt>
      <trkpt lat="37.511997000" lon="-3.831073000">
        <ele>1172.3</ele>
        <time>2020-10-14T12:13:49Z</time>
      </trkpt>
      <trkpt lat="37.512082000" lon="-3.831072000">
        <ele>1172.7</ele>
        <time>2020-10-14T12:13:53Z</time>
      </trkpt>
      <trkpt lat="37.512166000" lon="-3.831064000">
        <ele>1173.1</ele>
        <time>2020-10-14T12:13:57Z</time>
      </trkpt>
      <trkpt lat="37.512249000" lon="-3.831068000">
        <ele>1173.5</ele>
        <time>2020-10-14T12:14:01Z</time>
      </trkpt>
      <trkpt lat="37.512331000" lon="-3.831071000">
        <ele>1173.9</ele>
        <time>2020-10-14T12:14:05Z</time>
      </trkpt>
      <trkpt lat="37.512417000" lon="-3.831068000">
        <ele>1174.5</ele>
        <time>2020-10-14T12:14:09Z</time>
      </trkpt>
      <trkpt lat="37.512506000" lon="-3.831077000">
        <ele>1175.0</ele>
        <time>2020-10-14T12:14:13Z</time>
      </trkpt>
      <trkpt lat="37.512593000" lon="-3.831095000">
        <ele>1175.5</ele>
        <time>2020-10-14T12:14:17Z</time>
      </trkpt>
      <trkpt lat="37.512679000" lon="-3.831127000">
        <ele>1176.0</ele>
        <time>2020-10-14T12:14:21Z</time>
      </trkpt>
      <trkpt lat="37.512756000" lon="-3.831173000">
        <ele>1176.6</ele>
        <time>2020-10-14T12:14:25Z</time>
      </trkpt>
      <trkpt lat="37.512833000" lon="-3.831218000">
        <ele>1177.4</ele>
        <time>2020-10-14T12:14:29Z</time>
      </trkpt>
      <trkpt lat="37.512909000" lon="-3.831274000">
        <ele>1178.1</ele>
        <time>2020-10-14T12:14:33Z</time>
      </trkpt>
      <trkpt lat="37.512980000" lon="-3.831331000">
        <ele>1179.0</ele>
        <time>2020-10-14T12:14:37Z</time>
      </trkpt>
      <trkpt lat="37.513063000" lon="-3.831403000">
        <ele>1180.0</ele>
        <time>2020-10-14T12:14:42Z</time>
      </trkpt>
      <trkpt lat="37.513146000" lon="-3.831472000">
        <ele>1181.2</ele>
        <time>2020-10-14T12:14:53Z</time>
      </trkpt>
      <trkpt lat="37.513228000" lon="-3.831542000">
        <ele>1182.4</ele>
        <time>2020-10-14T12:14:53Z</time>
      </trkpt>
      <trkpt lat="37.513314000" lon="-3.831599000">
        <ele>1183.5</ele>
        <time>2020-10-14T12:14:57Z</time>
      </trkpt>
      <trkpt lat="37.513395000" lon="-3.831667000">
        <ele>1184.5</ele>
        <time>2020-10-14T12:15:02Z</time>
      </trkpt>
      <trkpt lat="37.513463000" lon="-3.831743000">
        <ele>1185.6</ele>
        <time>2020-10-14T12:15:07Z</time>
      </trkpt>
      <trkpt lat="37.513537000" lon="-3.831818000">
        <ele>1186.7</ele>
        <time>2020-10-14T12:15:12Z</time>
      </trkpt>
      <trkpt lat="37.513604000" lon="-3.831884000">
        <ele>1187.7</ele>
        <time>2020-10-14T12:15:16Z</time>
      </trkpt>
      <trkpt lat="37.513690000" lon="-3.831946000">
        <ele>1188.7</ele>
        <time>2020-10-14T12:15:21Z</time>
      </trkpt>
      <trkpt lat="37.513765000" lon="-3.831991000">
        <ele>1189.7</ele>
        <time>2020-10-14T12:15:25Z</time>
      </trkpt>
      <trkpt lat="37.513858000" lon="-3.832042000">
        <ele>1190.6</ele>
        <time>2020-10-14T12:15:30Z</time>
      </trkpt>
      <trkpt lat="37.513936000" lon="-3.832083000">
        <ele>1191.5</ele>
        <time>2020-10-14T12:15:34Z</time>
      </trkpt>
      <trkpt lat="37.514026000" lon="-3.832133000">
        <ele>1192.2</ele>
        <time>2020-10-14T12:15:39Z</time>
      </trkpt>
      <trkpt lat="37.514124000" lon="-3.832157000">
        <ele>1192.9</ele>
        <time>2020-10-14T12:15:44Z</time>
      </trkpt>
      <trkpt lat="37.514200000" lon="-3.832191000">
        <ele>1193.6</ele>
        <time>2020-10-14T12:15:48Z</time>
      </trkpt>
      <trkpt lat="37.514279000" lon="-3.832225000">
        <ele>1194.3</ele>
        <time>2020-10-14T12:15:52Z</time>
      </trkpt>
      <trkpt lat="37.514356000" lon="-3.832263000">
        <ele>1195.0</ele>
        <time>2020-10-14T12:15:56Z</time>
      </trkpt>
      <trkpt lat="37.514430000" lon="-3.832306000">
        <ele>1195.6</ele>
        <time>2020-10-14T12:16:00Z</time>
      </trkpt>
      <trkpt lat="37.514512000" lon="-3.832324000">
        <ele>1196.2</ele>
        <time>2020-10-14T12:16:04Z</time>
      </trkpt>
      <trkpt lat="37.514609000" lon="-3.832348000">
        <ele>1196.6</ele>
        <time>2020-10-14T12:16:09Z</time>
      </trkpt>
      <trkpt lat="37.514705000" lon="-3.832373000">
        <ele>1197.0</ele>
        <time>2020-10-14T12:16:14Z</time>
      </trkpt>
      <trkpt lat="37.514802000" lon="-3.832396000">
        <ele>1197.4</ele>
        <time>2020-10-14T12:16:19Z</time>
      </trkpt>
      <trkpt lat="37.514901000" lon="-3.832414000">
        <ele>1197.7</ele>
        <time>2020-10-14T12:16:24Z</time>
      </trkpt>
      <trkpt lat="37.514993000" lon="-3.832439000">
        <ele>1198.0</ele>
        <time>2020-10-14T12:16:29Z</time>
      </trkpt>
      <trkpt lat="37.515091000" lon="-3.832467000">
        <ele>1198.2</ele>
        <time>2020-10-14T12:16:34Z</time>
      </trkpt>
      <trkpt lat="37.515169000" lon="-3.832498000">
        <ele>1198.5</ele>
        <time>2020-10-14T12:16:38Z</time>
      </trkpt>
      <trkpt lat="37.515247000" lon="-3.832527000">
        <ele>1198.8</ele>
        <time>2020-10-14T12:16:42Z</time>
      </trkpt>
      <trkpt lat="37.515324000" lon="-3.832565000">
        <ele>1199.1</ele>
        <time>2020-10-14T12:16:46Z</time>
      </trkpt>
      <trkpt lat="37.515400000" lon="-3.832601000">
        <ele>1199.5</ele>
        <time>2020-10-14T12:16:50Z</time>
      </trkpt>
      <trkpt lat="37.515492000" lon="-3.832638000">
        <ele>1200.0</ele>
        <time>2020-10-14T12:16:55Z</time>
      </trkpt>
      <trkpt lat="37.515570000" lon="-3.832697000">
        <ele>1200.6</ele>
        <time>2020-10-14T12:17:00Z</time>
      </trkpt>
      <trkpt lat="37.515633000" lon="-3.832776000">
        <ele>1201.4</ele>
        <time>2020-10-14T12:17:05Z</time>
      </trkpt>
      <trkpt lat="37.515722000" lon="-3.832820000">
        <ele>1202.2</ele>
        <time>2020-10-14T12:17:10Z</time>
      </trkpt>
      <trkpt lat="37.515791000" lon="-3.832907000">
        <ele>1203.1</ele>
        <time>2020-10-14T12:17:15Z</time>
      </trkpt>
      <trkpt lat="37.515878000" lon="-3.832947000">
        <ele>1204.0</ele>
        <time>2020-10-14T12:17:20Z</time>
      </trkpt>
      <trkpt lat="37.515949000" lon="-3.833004000">
        <ele>1205.0</ele>
        <time>2020-10-14T12:17:24Z</time>
      </trkpt>
      <trkpt lat="37.516015000" lon="-3.833067000">
        <ele>1205.9</ele>
        <time>2020-10-14T12:17:28Z</time>
      </trkpt>
      <trkpt lat="37.516066000" lon="-3.833149000">
        <ele>1206.7</ele>
        <time>2020-10-14T12:17:32Z</time>
      </trkpt>
      <trkpt lat="37.516140000" lon="-3.833196000">
        <ele>1207.5</ele>
        <time>2020-10-14T12:17:36Z</time>
      </trkpt>
      <trkpt lat="37.516214000" lon="-3.833253000">
        <ele>1208.2</ele>
        <time>2020-10-14T12:17:40Z</time>
      </trkpt>
      <trkpt lat="37.516269000" lon="-3.833340000">
        <ele>1208.9</ele>
        <time>2020-10-14T12:17:44Z</time>
      </trkpt>
      <trkpt lat="37.516323000" lon="-3.833435000">
        <ele>1209.5</ele>
        <time>2020-10-14T12:17:49Z</time>
      </trkpt>
      <trkpt lat="37.516387000" lon="-3.833509000">
        <ele>1210.2</ele>
        <time>2020-10-14T12:17:54Z</time>
      </trkpt>
      <trkpt lat="37.516441000" lon="-3.833609000">
        <ele>1210.7</ele>
        <time>2020-10-14T12:17:59Z</time>
      </trkpt>
      <trkpt lat="37.516489000" lon="-3.833721000">
        <ele>1211.3</ele>
        <time>2020-10-14T12:18:04Z</time>
      </trkpt>
      <trkpt lat="37.516528000" lon="-3.833811000">
        <ele>1212.1</ele>
        <time>2020-10-14T12:18:08Z</time>
      </trkpt>
      <trkpt lat="37.516569000" lon="-3.833919000">
        <ele>1212.9</ele>
        <time>2020-10-14T12:18:13Z</time>
      </trkpt>
      <trkpt lat="37.516618000" lon="-3.834025000">
        <ele>1213.7</ele>
        <time>2020-10-14T12:18:18Z</time>
      </trkpt>
      <trkpt lat="37.516662000" lon="-3.834130000">
        <ele>1214.6</ele>
        <time>2020-10-14T12:18:22Z</time>
      </trkpt>
      <trkpt lat="37.516701000" lon="-3.834245000">
        <ele>1215.5</ele>
        <time>2020-10-14T12:18:27Z</time>
      </trkpt>
      <trkpt lat="37.516738000" lon="-3.834355000">
        <ele>1216.5</ele>
        <time>2020-10-14T12:18:31Z</time>
      </trkpt>
      <trkpt lat="37.516776000" lon="-3.834466000">
        <ele>1217.2</ele>
        <time>2020-10-14T12:18:35Z</time>
      </trkpt>
      <trkpt lat="37.516806000" lon="-3.834564000">
        <ele>1217.8</ele>
        <time>2020-10-14T12:18:39Z</time>
      </trkpt>
      <trkpt lat="37.516827000" lon="-3.834663000">
        <ele>1218.4</ele>
        <time>2020-10-14T12:18:43Z</time>
      </trkpt>
      <trkpt lat="37.516854000" lon="-3.834776000">
        <ele>1218.8</ele>
        <time>2020-10-14T12:18:48Z</time>
      </trkpt>
      <trkpt lat="37.516872000" lon="-3.834888000">
        <ele>1219.4</ele>
        <time>2020-10-14T12:18:53Z</time>
      </trkpt>
      <trkpt lat="37.516907000" lon="-3.834995000">
        <ele>1219.7</ele>
        <time>2020-10-14T12:18:58Z</time>
      </trkpt>
      <trkpt lat="37.516923000" lon="-3.835118000">
        <ele>1220.3</ele>
        <time>2020-10-14T12:19:03Z</time>
      </trkpt>
      <trkpt lat="37.516948000" lon="-3.835231000">
        <ele>1221.1</ele>
        <time>2020-10-14T12:19:08Z</time>
      </trkpt>
      <trkpt lat="37.516972000" lon="-3.835346000">
        <ele>1222.0</ele>
        <time>2020-10-14T12:19:13Z</time>
      </trkpt>
      <trkpt lat="37.516996000" lon="-3.835445000">
        <ele>1223.0</ele>
        <time>2020-10-14T12:19:17Z</time>
      </trkpt>
      <trkpt lat="37.517034000" lon="-3.835538000">
        <ele>1224.0</ele>
        <time>2020-10-14T12:19:21Z</time>
      </trkpt>
      <trkpt lat="37.517089000" lon="-3.835640000">
        <ele>1225.1</ele>
        <time>2020-10-14T12:19:26Z</time>
      </trkpt>
      <trkpt lat="37.517162000" lon="-3.835726000">
        <ele>1226.1</ele>
        <time>2020-10-14T12:19:31Z</time>
      </trkpt>
      <trkpt lat="37.517228000" lon="-3.835791000">
        <ele>1227.0</ele>
        <time>2020-10-14T12:19:35Z</time>
      </trkpt>
      <trkpt lat="37.517321000" lon="-3.835844000">
        <ele>1227.7</ele>
        <time>2020-10-14T12:19:40Z</time>
      </trkpt>
      <trkpt lat="37.517399000" lon="-3.835876000">
        <ele>1228.1</ele>
        <time>2020-10-14T12:19:44Z</time>
      </trkpt>
      <trkpt lat="37.517494000" lon="-3.835902000">
        <ele>1228.3</ele>
        <time>2020-10-14T12:19:49Z</time>
      </trkpt>
      <trkpt lat="37.517589000" lon="-3.835870000">
        <ele>1228.1</ele>
        <time>2020-10-14T12:19:54Z</time>
      </trkpt>
      <trkpt lat="37.517674000" lon="-3.835816000">
        <ele>1227.6</ele>
        <time>2020-10-14T12:19:59Z</time>
      </trkpt>
      <trkpt lat="37.517726000" lon="-3.835731000">
        <ele>1227.1</ele>
        <time>2020-10-14T12:20:03Z</time>
      </trkpt>
      <trkpt lat="37.517756000" lon="-3.835631000">
        <ele>1226.6</ele>
        <time>2020-10-14T12:20:09Z</time>
      </trkpt>
      <trkpt lat="37.517796000" lon="-3.835526000">
        <ele>1226.4</ele>
        <time>2020-10-14T12:20:11Z</time>
      </trkpt>
      <trkpt lat="37.517850000" lon="-3.835419000">
        <ele>1226.3</ele>
        <time>2020-10-14T12:20:15Z</time>
      </trkpt>
      <trkpt lat="37.517921000" lon="-3.835332000">
        <ele>1226.5</ele>
        <time>2020-10-14T12:20:19Z</time>
      </trkpt>
      <trkpt lat="37.518002000" lon="-3.835280000">
        <ele>1226.9</ele>
        <time>2020-10-14T12:20:23Z</time>
      </trkpt>
      <trkpt lat="37.518089000" lon="-3.835306000">
        <ele>1227.7</ele>
        <time>2020-10-14T12:20:27Z</time>
      </trkpt>
      <trkpt lat="37.518164000" lon="-3.835366000">
        <ele>1228.9</ele>
        <time>2020-10-14T12:20:32Z</time>
      </trkpt>
      <trkpt lat="37.518242000" lon="-3.835427000">
        <ele>1230.5</ele>
        <time>2020-10-14T12:20:38Z</time>
      </trkpt>
      <trkpt lat="37.518322000" lon="-3.835492000">
        <ele>1232.3</ele>
        <time>2020-10-14T12:20:44Z</time>
      </trkpt>
      <trkpt lat="37.518387000" lon="-3.835581000">
        <ele>1234.2</ele>
        <time>2020-10-14T12:20:49Z</time>
      </trkpt>
      <trkpt lat="37.518441000" lon="-3.835664000">
        <ele>1236.1</ele>
        <time>2020-10-14T12:20:54Z</time>
      </trkpt>
      <trkpt lat="37.518486000" lon="-3.835751000">
        <ele>1237.7</ele>
        <time>2020-10-14T12:20:59Z</time>
      </trkpt>
      <trkpt lat="37.518546000" lon="-3.835824000">
        <ele>1239.2</ele>
        <time>2020-10-14T12:21:04Z</time>
      </trkpt>
      <trkpt lat="37.518609000" lon="-3.835904000">
        <ele>1240.5</ele>
        <time>2020-10-14T12:21:09Z</time>
      </trkpt>
      <trkpt lat="37.518680000" lon="-3.835971000">
        <ele>1241.4</ele>
        <time>2020-10-14T12:21:14Z</time>
      </trkpt>
      <trkpt lat="37.518777000" lon="-3.836012000">
        <ele>1242.3</ele>
        <time>2020-10-14T12:21:19Z</time>
      </trkpt>
      <trkpt lat="37.518878000" lon="-3.835994000">
        <ele>1243.0</ele>
        <time>2020-10-14T12:21:23Z</time>
      </trkpt>
      <trkpt lat="37.518966000" lon="-3.835948000">
        <ele>1243.5</ele>
        <time>2020-10-14T12:21:27Z</time>
      </trkpt>
      <trkpt lat="37.519057000" lon="-3.835920000">
        <ele>1243.6</ele>
        <time>2020-10-14T12:21:31Z</time>
      </trkpt>
      <trkpt lat="37.519125000" lon="-3.835831000">
        <ele>1243.6</ele>
        <time>2020-10-14T12:21:35Z</time>
      </trkpt>
      <trkpt lat="37.519212000" lon="-3.835783000">
        <ele>1243.5</ele>
        <time>2020-10-14T12:21:39Z</time>
      </trkpt>
      <trkpt lat="37.519267000" lon="-3.835702000">
        <ele>1243.5</ele>
        <time>2020-10-14T12:21:43Z</time>
      </trkpt>
      <trkpt lat="37.519320000" lon="-3.835621000">
        <ele>1243.8</ele>
        <time>2020-10-14T12:21:47Z</time>
      </trkpt>
      <trkpt lat="37.519386000" lon="-3.835547000">
        <ele>1244.3</ele>
        <time>2020-10-14T12:21:51Z</time>
      </trkpt>
      <trkpt lat="37.519435000" lon="-3.835459000">
        <ele>1244.8</ele>
        <time>2020-10-14T12:21:55Z</time>
      </trkpt>
      <trkpt lat="37.519488000" lon="-3.835358000">
        <ele>1245.8</ele>
        <time>2020-10-14T12:21:59Z</time>
      </trkpt>
      <trkpt lat="37.519548000" lon="-3.835270000">
        <ele>1246.6</ele>
        <time>2020-10-14T12:22:03Z</time>
      </trkpt>
      <trkpt lat="37.519618000" lon="-3.835202000">
        <ele>1247.5</ele>
        <time>2020-10-14T12:22:07Z</time>
      </trkpt>
      <trkpt lat="37.519664000" lon="-3.835105000">
        <ele>1248.6</ele>
        <time>2020-10-14T12:22:11Z</time>
      </trkpt>
      <trkpt lat="37.519721000" lon="-3.835015000">
        <ele>1249.7</ele>
        <time>2020-10-14T12:22:15Z</time>
      </trkpt>
      <trkpt lat="37.519780000" lon="-3.834942000">
        <ele>1250.8</ele>
        <time>2020-10-14T12:22:19Z</time>
      </trkpt>
      <trkpt lat="37.519811000" lon="-3.834842000">
        <ele>1252.0</ele>
        <time>2020-10-14T12:22:23Z</time>
      </trkpt>
      <trkpt lat="37.519853000" lon="-3.834744000">
        <ele>1253.2</ele>
        <time>2020-10-14T12:22:27Z</time>
      </trkpt>
      <trkpt lat="37.519905000" lon="-3.834656000">
        <ele>1254.1</ele>
        <time>2020-10-14T12:22:31Z</time>
      </trkpt>
      <trkpt lat="37.519957000" lon="-3.834561000">
        <ele>1255.0</ele>
        <time>2020-10-14T12:22:35Z</time>
      </trkpt>
      <trkpt lat="37.520006000" lon="-3.834467000">
        <ele>1255.9</ele>
        <time>2020-10-14T12:22:39Z</time>
      </trkpt>
      <trkpt lat="37.520050000" lon="-3.834377000">
        <ele>1256.5</ele>
        <time>2020-10-14T12:22:43Z</time>
      </trkpt>
      <trkpt lat="37.520109000" lon="-3.834286000">
        <ele>1257.3</ele>
        <time>2020-10-14T12:22:48Z</time>
      </trkpt>
      <trkpt lat="37.520175000" lon="-3.834206000">
        <ele>1257.9</ele>
        <time>2020-10-14T12:22:53Z</time>
      </trkpt>
      <trkpt lat="37.520224000" lon="-3.834123000">
        <ele>1258.5</ele>
        <time>2020-10-14T12:22:58Z</time>
      </trkpt>
      <trkpt lat="37.520285000" lon="-3.834034000">
        <ele>1259.1</ele>
        <time>2020-10-14T12:23:04Z</time>
      </trkpt>
      <trkpt lat="37.520319000" lon="-3.833928000">
        <ele>1259.7</ele>
        <time>2020-10-14T12:23:09Z</time>
      </trkpt>
      <trkpt lat="37.520362000" lon="-3.833841000">
        <ele>1260.3</ele>
        <time>2020-10-14T12:23:14Z</time>
      </trkpt>
      <trkpt lat="37.520418000" lon="-3.833761000">
        <ele>1260.7</ele>
        <time>2020-10-14T12:23:19Z</time>
      </trkpt>
      <trkpt lat="37.520460000" lon="-3.833659000">
        <ele>1261.1</ele>
        <time>2020-10-14T12:23:24Z</time>
      </trkpt>
      <trkpt lat="37.520547000" lon="-3.833596000">
        <ele>1261.3</ele>
        <time>2020-10-14T12:23:29Z</time>
      </trkpt>
      <trkpt lat="37.520597000" lon="-3.833500000">
        <ele>1261.5</ele>
        <time>2020-10-14T12:23:34Z</time>
      </trkpt>
      <trkpt lat="37.520654000" lon="-3.833408000">
        <ele>1262.0</ele>
        <time>2020-10-14T12:23:39Z</time>
      </trkpt>
      <trkpt lat="37.520723000" lon="-3.833330000">
        <ele>1262.6</ele>
        <time>2020-10-14T12:23:44Z</time>
      </trkpt>
      <trkpt lat="37.520783000" lon="-3.833248000">
        <ele>1263.5</ele>
        <time>2020-10-14T12:23:49Z</time>
      </trkpt>
      <trkpt lat="37.520847000" lon="-3.833156000">
        <ele>1264.5</ele>
        <time>2020-10-14T12:23:54Z</time>
      </trkpt>
      <trkpt lat="37.520930000" lon="-3.833096000">
        <ele>1265.5</ele>
        <time>2020-10-14T12:23:59Z</time>
      </trkpt>
      <trkpt lat="37.521021000" lon="-3.833053000">
        <ele>1266.8</ele>
        <time>2020-10-14T12:24:04Z</time>
      </trkpt>
      <trkpt lat="37.521113000" lon="-3.833020000">
        <ele>1268.2</ele>
        <time>2020-10-14T12:24:09Z</time>
      </trkpt>
      <trkpt lat="37.521196000" lon="-3.832974000">
        <ele>1269.4</ele>
        <time>2020-10-14T12:24:14Z</time>
      </trkpt>
      <trkpt lat="37.521277000" lon="-3.832927000">
        <ele>1270.3</ele>
        <time>2020-10-14T12:24:19Z</time>
      </trkpt>
      <trkpt lat="37.521354000" lon="-3.832879000">
        <ele>1271.0</ele>
        <time>2020-10-14T12:24:24Z</time>
      </trkpt>
      <trkpt lat="37.521426000" lon="-3.832812000">
        <ele>1271.4</ele>
        <time>2020-10-14T12:24:29Z</time>
      </trkpt>
      <trkpt lat="37.521488000" lon="-3.832727000">
        <ele>1271.3</ele>
        <time>2020-10-14T12:24:34Z</time>
      </trkpt>
      <trkpt lat="37.521463000" lon="-3.832614000">
        <ele>1270.7</ele>
        <time>2020-10-14T12:24:39Z</time>
      </trkpt>
      <trkpt lat="37.521416000" lon="-3.832527000">
        <ele>1269.8</ele>
        <time>2020-10-14T12:24:43Z</time>
      </trkpt>
      <trkpt lat="37.521358000" lon="-3.832421000">
        <ele>1268.6</ele>
        <time>2020-10-14T12:24:48Z</time>
      </trkpt>
      <trkpt lat="37.521314000" lon="-3.832327000">
        <ele>1267.3</ele>
        <time>2020-10-14T12:24:52Z</time>
      </trkpt>
      <trkpt lat="37.521248000" lon="-3.832239000">
        <ele>1265.8</ele>
        <time>2020-10-14T12:24:57Z</time>
      </trkpt>
      <trkpt lat="37.521199000" lon="-3.832154000">
        <ele>1264.5</ele>
        <time>2020-10-14T12:25:01Z</time>
      </trkpt>
      <trkpt lat="37.521165000" lon="-3.832057000">
        <ele>1263.5</ele>
        <time>2020-10-14T12:25:05Z</time>
      </trkpt>
      <trkpt lat="37.521143000" lon="-3.831935000">
        <ele>1263.0</ele>
        <time>2020-10-14T12:25:10Z</time>
      </trkpt>
      <trkpt lat="37.521157000" lon="-3.831826000">
        <ele>1263.0</ele>
        <time>2020-10-14T12:25:14Z</time>
      </trkpt>
      <trkpt lat="37.521195000" lon="-3.831709000">
        <ele>1263.4</ele>
        <time>2020-10-14T12:25:18Z</time>
      </trkpt>
      <trkpt lat="37.521237000" lon="-3.831616000">
        <ele>1264.2</ele>
        <time>2020-10-14T12:25:21Z</time>
      </trkpt>
      <trkpt lat="37.521300000" lon="-3.831515000">
        <ele>1265.3</ele>
        <time>2020-10-14T12:25:25Z</time>
      </trkpt>
      <trkpt lat="37.521369000" lon="-3.831421000">
        <ele>1266.5</ele>
        <time>2020-10-14T12:25:29Z</time>
      </trkpt>
      <trkpt lat="37.521436000" lon="-3.831340000">
        <ele>1267.9</ele>
        <time>2020-10-14T12:25:33Z</time>
      </trkpt>
      <trkpt lat="37.521503000" lon="-3.831265000">
        <ele>1269.4</ele>
        <time>2020-10-14T12:25:37Z</time>
      </trkpt>
      <trkpt lat="37.521567000" lon="-3.831197000">
        <ele>1270.8</ele>
        <time>2020-10-14T12:25:41Z</time>
      </trkpt>
      <trkpt lat="37.521636000" lon="-3.831107000">
        <ele>1272.2</ele>
        <time>2020-10-14T12:25:46Z</time>
      </trkpt>
      <trkpt lat="37.521703000" lon="-3.831041000">
        <ele>1273.5</ele>
        <time>2020-10-14T12:25:50Z</time>
      </trkpt>
      <trkpt lat="37.521791000" lon="-3.830979000">
        <ele>1274.5</ele>
        <time>2020-10-14T12:25:55Z</time>
      </trkpt>
      <trkpt lat="37.521876000" lon="-3.830942000">
        <ele>1275.6</ele>
        <time>2020-10-14T12:25:59Z</time>
      </trkpt>
      <trkpt lat="37.521965000" lon="-3.830911000">
        <ele>1276.5</ele>
        <time>2020-10-14T12:26:03Z</time>
      </trkpt>
      <trkpt lat="37.522055000" lon="-3.830903000">
        <ele>1277.3</ele>
        <time>2020-10-14T12:26:07Z</time>
      </trkpt>
      <trkpt lat="37.522144000" lon="-3.830913000">
        <ele>1278.0</ele>
        <time>2020-10-14T12:26:12Z</time>
      </trkpt>
      <trkpt lat="37.522235000" lon="-3.830907000">
        <ele>1278.7</ele>
        <time>2020-10-14T12:26:17Z</time>
      </trkpt>
      <trkpt lat="37.522319000" lon="-3.830952000">
        <ele>1279.5</ele>
        <time>2020-10-14T12:26:23Z</time>
      </trkpt>
      <trkpt lat="37.522402000" lon="-3.830944000">
        <ele>1280.2</ele>
        <time>2020-10-14T12:26:29Z</time>
      </trkpt>
      <trkpt lat="37.522484000" lon="-3.830994000">
        <ele>1280.8</ele>
        <time>2020-10-14T12:26:36Z</time>
      </trkpt>
      <trkpt lat="37.522567000" lon="-3.831000000">
        <ele>1281.5</ele>
        <time>2020-10-14T12:26:42Z</time>
      </trkpt>
      <trkpt lat="37.522652000" lon="-3.831034000">
        <ele>1282.2</ele>
        <time>2020-10-14T12:26:48Z</time>
      </trkpt>
      <trkpt lat="37.522742000" lon="-3.831063000">
        <ele>1283.0</ele>
        <time>2020-10-14T12:26:54Z</time>
      </trkpt>
      <trkpt lat="37.522813000" lon="-3.831138000">
        <ele>1283.8</ele>
        <time>2020-10-14T12:27:00Z</time>
      </trkpt>
      <trkpt lat="37.522902000" lon="-3.831145000">
        <ele>1285.0</ele>
        <time>2020-10-14T12:27:05Z</time>
      </trkpt>
      <trkpt lat="37.522980000" lon="-3.831192000">
        <ele>1286.2</ele>
        <time>2020-10-14T12:27:10Z</time>
      </trkpt>
      <trkpt lat="37.523063000" lon="-3.831236000">
        <ele>1287.5</ele>
        <time>2020-10-14T12:27:15Z</time>
      </trkpt>
      <trkpt lat="37.523152000" lon="-3.831252000">
        <ele>1288.9</ele>
        <time>2020-10-14T12:27:20Z</time>
      </trkpt>
      <trkpt lat="37.523236000" lon="-3.831303000">
        <ele>1290.5</ele>
        <time>2020-10-14T12:27:25Z</time>
      </trkpt>
      <trkpt lat="37.523316000" lon="-3.831342000">
        <ele>1292.0</ele>
        <time>2020-10-14T12:27:30Z</time>
      </trkpt>
      <trkpt lat="37.523405000" lon="-3.831353000">
        <ele>1293.5</ele>
        <time>2020-10-14T12:27:35Z</time>
      </trkpt>
      <trkpt lat="37.523492000" lon="-3.831324000">
        <ele>1295.0</ele>
        <time>2020-10-14T12:27:39Z</time>
      </trkpt>
      <trkpt lat="37.523576000" lon="-3.831321000">
        <ele>1296.3</ele>
        <time>2020-10-14T12:27:43Z</time>
      </trkpt>
      <trkpt lat="37.523663000" lon="-3.831305000">
        <ele>1297.4</ele>
        <time>2020-10-14T12:27:47Z</time>
      </trkpt>
      <trkpt lat="37.523762000" lon="-3.831280000">
        <ele>1298.3</ele>
        <time>2020-10-14T12:27:52Z</time>
      </trkpt>
      <trkpt lat="37.523838000" lon="-3.831229000">
        <ele>1298.9</ele>
        <time>2020-10-14T12:27:56Z</time>
      </trkpt>
      <trkpt lat="37.523912000" lon="-3.831149000">
        <ele>1299.3</ele>
        <time>2020-10-14T12:28:01Z</time>
      </trkpt>
      <trkpt lat="37.523943000" lon="-3.831036000">
        <ele>1299.4</ele>
        <time>2020-10-14T12:28:06Z</time>
      </trkpt>
      <trkpt lat="37.523956000" lon="-3.830919000">
        <ele>1299.3</ele>
        <time>2020-10-14T12:28:11Z</time>
      </trkpt>
      <trkpt lat="37.523948000" lon="-3.830806000">
        <ele>1299.1</ele>
        <time>2020-10-14T12:28:16Z</time>
      </trkpt>
      <trkpt lat="37.523911000" lon="-3.830707000">
        <ele>1298.9</ele>
        <time>2020-10-14T12:28:21Z</time>
      </trkpt>
      <trkpt lat="37.523838000" lon="-3.830661000">
        <ele>1298.8</ele>
        <time>2020-10-14T12:28:25Z</time>
      </trkpt>
      <trkpt lat="37.523756000" lon="-3.830607000">
        <ele>1298.8</ele>
        <time>2020-10-14T12:28:30Z</time>
      </trkpt>
      <trkpt lat="37.523704000" lon="-3.830528000">
        <ele>1299.0</ele>
        <time>2020-10-14T12:28:34Z</time>
      </trkpt>
      <trkpt lat="37.523673000" lon="-3.830431000">
        <ele>1299.3</ele>
        <time>2020-10-14T12:28:38Z</time>
      </trkpt>
      <trkpt lat="37.523664000" lon="-3.830325000">
        <ele>1299.6</ele>
        <time>2020-10-14T12:28:42Z</time>
      </trkpt>
      <trkpt lat="37.523687000" lon="-3.830222000">
        <ele>1300.2</ele>
        <time>2020-10-14T12:28:46Z</time>
      </trkpt>
      <trkpt lat="37.523736000" lon="-3.830136000">
        <ele>1300.9</ele>
        <time>2020-10-14T12:28:50Z</time>
      </trkpt>
      <trkpt lat="37.523817000" lon="-3.830066000">
        <ele>1301.9</ele>
        <time>2020-10-14T12:28:55Z</time>
      </trkpt>
      <trkpt lat="37.523910000" lon="-3.830033000">
        <ele>1303.0</ele>
        <time>2020-10-14T12:29:00Z</time>
      </trkpt>
      <trkpt lat="37.523993000" lon="-3.830012000">
        <ele>1304.1</ele>
        <time>2020-10-14T12:29:05Z</time>
      </trkpt>
      <trkpt lat="37.524090000" lon="-3.830010000">
        <ele>1305.3</ele>
        <time>2020-10-14T12:29:10Z</time>
      </trkpt>
      <trkpt lat="37.524172000" lon="-3.829983000">
        <ele>1306.4</ele>
        <time>2020-10-14T12:29:15Z</time>
      </trkpt>
      <trkpt lat="37.524266000" lon="-3.829954000">
        <ele>1307.5</ele>
        <time>2020-10-14T12:29:20Z</time>
      </trkpt>
      <trkpt lat="37.524355000" lon="-3.829938000">
        <ele>1308.5</ele>
        <time>2020-10-14T12:29:25Z</time>
      </trkpt>
      <trkpt lat="37.524425000" lon="-3.829877000">
        <ele>1309.6</ele>
        <time>2020-10-14T12:29:29Z</time>
      </trkpt>
      <trkpt lat="37.524503000" lon="-3.829848000">
        <ele>1310.8</ele>
        <time>2020-10-14T12:29:34Z</time>
      </trkpt>
      <trkpt lat="37.524575000" lon="-3.829794000">
        <ele>1311.8</ele>
        <time>2020-10-14T12:29:39Z</time>
      </trkpt>
      <trkpt lat="37.524646000" lon="-3.829718000">
        <ele>1312.8</ele>
        <time>2020-10-14T12:29:45Z</time>
      </trkpt>
      <trkpt lat="37.524734000" lon="-3.829684000">
        <ele>1313.8</ele>
        <time>2020-10-14T12:29:52Z</time>
      </trkpt>
      <trkpt lat="37.524814000" lon="-3.829624000">
        <ele>1314.9</ele>
        <time>2020-10-14T12:29:58Z</time>
      </trkpt>
      <trkpt lat="37.524886000" lon="-3.829577000">
        <ele>1315.9</ele>
        <time>2020-10-14T12:30:03Z</time>
      </trkpt>
      <trkpt lat="37.524950000" lon="-3.829489000">
        <ele>1316.7</ele>
        <time>2020-10-14T12:30:08Z</time>
      </trkpt>
      <trkpt lat="37.525022000" lon="-3.829418000">
        <ele>1317.5</ele>
        <time>2020-10-14T12:30:12Z</time>
      </trkpt>
      <trkpt lat="37.525105000" lon="-3.829349000">
        <ele>1318.2</ele>
        <time>2020-10-14T12:30:17Z</time>
      </trkpt>
      <trkpt lat="37.525185000" lon="-3.829311000">
        <ele>1318.5</ele>
        <time>2020-10-14T12:30:22Z</time>
      </trkpt>
      <trkpt lat="37.525242000" lon="-3.829207000">
        <ele>1318.9</ele>
        <time>2020-10-14T12:30:27Z</time>
      </trkpt>
      <trkpt lat="37.525305000" lon="-3.829137000">
        <ele>1319.0</ele>
        <time>2020-10-14T12:30:31Z</time>
      </trkpt>
      <trkpt lat="37.525365000" lon="-3.829051000">
        <ele>1319.2</ele>
        <time>2020-10-14T12:30:35Z</time>
      </trkpt>
      <trkpt lat="37.525417000" lon="-3.828959000">
        <ele>1319.4</ele>
        <time>2020-10-14T12:30:39Z</time>
      </trkpt>
      <trkpt lat="37.525475000" lon="-3.828872000">
        <ele>1319.5</ele>
        <time>2020-10-14T12:30:43Z</time>
      </trkpt>
      <trkpt lat="37.525535000" lon="-3.828801000">
        <ele>1319.6</ele>
        <time>2020-10-14T12:30:47Z</time>
      </trkpt>
      <trkpt lat="37.525462000" lon="-3.828745000">
        <ele>1320.0</ele>
        <time>2020-10-14T12:31:12Z</time>
      </trkpt>
      <trkpt lat="37.525549000" lon="-3.828756000">
        <ele>1320.4</ele>
        <time>2020-10-14T12:33:37Z</time>
      </trkpt>
      <trkpt lat="37.525637000" lon="-3.828729000">
        <ele>1320.5</ele>
        <time>2020-10-14T12:33:44Z</time>
      </trkpt>
      <trkpt lat="37.525720000" lon="-3.828727000">
        <ele>1320.6</ele>
        <time>2020-10-14T12:33:52Z</time>
      </trkpt>
      <trkpt lat="37.525783000" lon="-3.828798000">
        <ele>1320.7</ele>
        <time>2020-10-14T12:35:00Z</time>
      </trkpt>
      <trkpt lat="37.525950000" lon="-3.828965000">
        <ele>1320.5</ele>
        <time>2020-10-14T12:35:01Z</time>
      </trkpt>
      <trkpt lat="37.526035000" lon="-3.829053000">
        <ele>1320.5</ele>
        <time>2020-10-14T12:35:05Z</time>
      </trkpt>
      <trkpt lat="37.526179000" lon="-3.829194000">
        <ele>1320.2</ele>
        <time>2020-10-14T12:35:06Z</time>
      </trkpt>
      <trkpt lat="37.526282000" lon="-3.829273000">
        <ele>1319.6</ele>
        <time>2020-10-14T12:35:08Z</time>
      </trkpt>
      <trkpt lat="37.526401000" lon="-3.829341000">
        <ele>1318.9</ele>
        <time>2020-10-14T12:35:10Z</time>
      </trkpt>
      <trkpt lat="37.526532000" lon="-3.829395000">
        <ele>1318.0</ele>
        <time>2020-10-14T12:35:12Z</time>
      </trkpt>
      <trkpt lat="37.526657000" lon="-3.829461000">
        <ele>1316.6</ele>
        <time>2020-10-14T12:35:14Z</time>
      </trkpt>
      <trkpt lat="37.526782000" lon="-3.829543000">
        <ele>1315.2</ele>
        <time>2020-10-14T12:35:16Z</time>
      </trkpt>
      <trkpt lat="37.526905000" lon="-3.829618000">
        <ele>1313.8</ele>
        <time>2020-10-14T12:35:18Z</time>
      </trkpt>
      <trkpt lat="37.527040000" lon="-3.829696000">
        <ele>1312.6</ele>
        <time>2020-10-14T12:35:20Z</time>
      </trkpt>
      <trkpt lat="37.527179000" lon="-3.829755000">
        <ele>1311.4</ele>
        <time>2020-10-14T12:35:22Z</time>
      </trkpt>
      <trkpt lat="37.527297000" lon="-3.829817000">
        <ele>1310.1</ele>
        <time>2020-10-14T12:35:24Z</time>
      </trkpt>
      <trkpt lat="37.527385000" lon="-3.829908000">
        <ele>1308.6</ele>
        <time>2020-10-14T12:35:26Z</time>
      </trkpt>
      <trkpt lat="37.527452000" lon="-3.830037000">
        <ele>1307.1</ele>
        <time>2020-10-14T12:35:28Z</time>
      </trkpt>
      <trkpt lat="37.527504000" lon="-3.830186000">
        <ele>1305.6</ele>
        <time>2020-10-14T12:35:30Z</time>
      </trkpt>
      <trkpt lat="37.527571000" lon="-3.830325000">
        <ele>1304.4</ele>
        <time>2020-10-14T12:35:32Z</time>
      </trkpt>
      <trkpt lat="37.527653000" lon="-3.830460000">
        <ele>1303.2</ele>
        <time>2020-10-14T12:35:34Z</time>
      </trkpt>
      <trkpt lat="37.527742000" lon="-3.830584000">
        <ele>1302.3</ele>
        <time>2020-10-14T12:35:36Z</time>
      </trkpt>
      <trkpt lat="37.527831000" lon="-3.830708000">
        <ele>1301.3</ele>
        <time>2020-10-14T12:35:38Z</time>
      </trkpt>
      <trkpt lat="37.527914000" lon="-3.830831000">
        <ele>1300.2</ele>
        <time>2020-10-14T12:35:40Z</time>
      </trkpt>
      <trkpt lat="37.528013000" lon="-3.830947000">
        <ele>1298.9</ele>
        <time>2020-10-14T12:35:42Z</time>
      </trkpt>
      <trkpt lat="37.528120000" lon="-3.831023000">
        <ele>1297.9</ele>
        <time>2020-10-14T12:35:44Z</time>
      </trkpt>
      <trkpt lat="37.528238000" lon="-3.831072000">
        <ele>1297.2</ele>
        <time>2020-10-14T12:35:46Z</time>
      </trkpt>
      <trkpt lat="37.528360000" lon="-3.831078000">
        <ele>1296.7</ele>
        <time>2020-10-14T12:35:48Z</time>
      </trkpt>
      <trkpt lat="37.528483000" lon="-3.831055000">
        <ele>1296.6</ele>
        <time>2020-10-14T12:35:50Z</time>
      </trkpt>
      <trkpt lat="37.528609000" lon="-3.831042000">
        <ele>1296.5</ele>
        <time>2020-10-14T12:35:52Z</time>
      </trkpt>
      <trkpt lat="37.528739000" lon="-3.831016000">
        <ele>1296.2</ele>
        <time>2020-10-14T12:35:54Z</time>
      </trkpt>
      <trkpt lat="37.528874000" lon="-3.830986000">
        <ele>1295.5</ele>
        <time>2020-10-14T12:35:56Z</time>
      </trkpt>
      <trkpt lat="37.529004000" lon="-3.830938000">
        <ele>1294.7</ele>
        <time>2020-10-14T12:35:58Z</time>
      </trkpt>
      <trkpt lat="37.529131000" lon="-3.830875000">
        <ele>1294.0</ele>
        <time>2020-10-14T12:36:00Z</time>
      </trkpt>
      <trkpt lat="37.529257000" lon="-3.830801000">
        <ele>1293.4</ele>
        <time>2020-10-14T12:36:02Z</time>
      </trkpt>
      <trkpt lat="37.529381000" lon="-3.830706000">
        <ele>1292.8</ele>
        <time>2020-10-14T12:36:04Z</time>
      </trkpt>
      <trkpt lat="37.529509000" lon="-3.830618000">
        <ele>1292.1</ele>
        <time>2020-10-14T12:36:06Z</time>
      </trkpt>
      <trkpt lat="37.529627000" lon="-3.830570000">
        <ele>1291.3</ele>
        <time>2020-10-14T12:36:08Z</time>
      </trkpt>
      <trkpt lat="37.529739000" lon="-3.830571000">
        <ele>1290.4</ele>
        <time>2020-10-14T12:36:10Z</time>
      </trkpt>
      <trkpt lat="37.529844000" lon="-3.830611000">
        <ele>1289.3</ele>
        <time>2020-10-14T12:36:12Z</time>
      </trkpt>
      <trkpt lat="37.529950000" lon="-3.830694000">
        <ele>1288.4</ele>
        <time>2020-10-14T12:36:14Z</time>
      </trkpt>
      <trkpt lat="37.530041000" lon="-3.830802000">
        <ele>1287.7</ele>
        <time>2020-10-14T12:36:16Z</time>
      </trkpt>
      <trkpt lat="37.530120000" lon="-3.830927000">
        <ele>1287.4</ele>
        <time>2020-10-14T12:36:18Z</time>
      </trkpt>
      <trkpt lat="37.530198000" lon="-3.831052000">
        <ele>1287.1</ele>
        <time>2020-10-14T12:36:20Z</time>
      </trkpt>
      <trkpt lat="37.530278000" lon="-3.831167000">
        <ele>1286.8</ele>
        <time>2020-10-14T12:36:22Z</time>
      </trkpt>
      <trkpt lat="37.530371000" lon="-3.831273000">
        <ele>1286.4</ele>
        <time>2020-10-14T12:36:24Z</time>
      </trkpt>
      <trkpt lat="37.530476000" lon="-3.831361000">
        <ele>1285.8</ele>
        <time>2020-10-14T12:36:26Z</time>
      </trkpt>
      <trkpt lat="37.530590000" lon="-3.831426000">
        <ele>1285.3</ele>
        <time>2020-10-14T12:36:28Z</time>
      </trkpt>
      <trkpt lat="37.530713000" lon="-3.831463000">
        <ele>1284.7</ele>
        <time>2020-10-14T12:36:30Z</time>
      </trkpt>
      <trkpt lat="37.530831000" lon="-3.831475000">
        <ele>1284.2</ele>
        <time>2020-10-14T12:36:32Z</time>
      </trkpt>
      <trkpt lat="37.530946000" lon="-3.831503000">
        <ele>1283.6</ele>
        <time>2020-10-14T12:36:34Z</time>
      </trkpt>
      <trkpt lat="37.531051000" lon="-3.831559000">
        <ele>1283.0</ele>
        <time>2020-10-14T12:36:36Z</time>
      </trkpt>
      <trkpt lat="37.531154000" lon="-3.831626000">
        <ele>1282.3</ele>
        <time>2020-10-14T12:36:38Z</time>
      </trkpt>
      <trkpt lat="37.531247000" lon="-3.831705000">
        <ele>1281.5</ele>
        <time>2020-10-14T12:36:40Z</time>
      </trkpt>
      <trkpt lat="37.531345000" lon="-3.831800000">
        <ele>1280.6</ele>
        <time>2020-10-14T12:36:42Z</time>
      </trkpt>
      <trkpt lat="37.531433000" lon="-3.831907000">
        <ele>1279.8</ele>
        <time>2020-10-14T12:36:44Z</time>
      </trkpt>
      <trkpt lat="37.531530000" lon="-3.832002000">
        <ele>1279.1</ele>
        <time>2020-10-14T12:36:46Z</time>
      </trkpt>
      <trkpt lat="37.531632000" lon="-3.832099000">
        <ele>1278.4</ele>
        <time>2020-10-14T12:36:48Z</time>
      </trkpt>
      <trkpt lat="37.531742000" lon="-3.832188000">
        <ele>1277.5</ele>
        <time>2020-10-14T12:36:50Z</time>
      </trkpt>
      <trkpt lat="37.531856000" lon="-3.832280000">
        <ele>1276.8</ele>
        <time>2020-10-14T12:36:52Z</time>
      </trkpt>
      <trkpt lat="37.531970000" lon="-3.832366000">
        <ele>1276.1</ele>
        <time>2020-10-14T12:36:54Z</time>
      </trkpt>
      <trkpt lat="37.532085000" lon="-3.832449000">
        <ele>1275.4</ele>
        <time>2020-10-14T12:36:56Z</time>
      </trkpt>
      <trkpt lat="37.532202000" lon="-3.832547000">
        <ele>1274.5</ele>
        <time>2020-10-14T12:36:58Z</time>
      </trkpt>
      <trkpt lat="37.532319000" lon="-3.832643000">
        <ele>1273.5</ele>
        <time>2020-10-14T12:37:00Z</time>
      </trkpt>
      <trkpt lat="37.532424000" lon="-3.832756000">
        <ele>1272.6</ele>
        <time>2020-10-14T12:37:02Z</time>
      </trkpt>
      <trkpt lat="37.532516000" lon="-3.832865000">
        <ele>1271.8</ele>
        <time>2020-10-14T12:37:04Z</time>
      </trkpt>
      <trkpt lat="37.532608000" lon="-3.832985000">
        <ele>1271.0</ele>
        <time>2020-10-14T12:37:06Z</time>
      </trkpt>
      <trkpt lat="37.532692000" lon="-3.833105000">
        <ele>1270.3</ele>
        <time>2020-10-14T12:37:08Z</time>
      </trkpt>
      <trkpt lat="37.532781000" lon="-3.833228000">
        <ele>1269.4</ele>
        <time>2020-10-14T12:37:10Z</time>
      </trkpt>
      <trkpt lat="37.532867000" lon="-3.833348000">
        <ele>1268.2</ele>
        <time>2020-10-14T12:37:12Z</time>
      </trkpt>
      <trkpt lat="37.532949000" lon="-3.833461000">
        <ele>1266.7</ele>
        <time>2020-10-14T12:37:14Z</time>
      </trkpt>
      <trkpt lat="37.533036000" lon="-3.833578000">
        <ele>1265.1</ele>
        <time>2020-10-14T12:37:16Z</time>
      </trkpt>
      <trkpt lat="37.533124000" lon="-3.833689000">
        <ele>1263.4</ele>
        <time>2020-10-14T12:37:18Z</time>
      </trkpt>
      <trkpt lat="37.533232000" lon="-3.833764000">
        <ele>1261.7</ele>
        <time>2020-10-14T12:37:20Z</time>
      </trkpt>
      <trkpt lat="37.533354000" lon="-3.833828000">
        <ele>1260.3</ele>
        <time>2020-10-14T12:37:22Z</time>
      </trkpt>
      <trkpt lat="37.533482000" lon="-3.833886000">
        <ele>1258.8</ele>
        <time>2020-10-14T12:37:24Z</time>
      </trkpt>
      <trkpt lat="37.533589000" lon="-3.833949000">
        <ele>1257.5</ele>
        <time>2020-10-14T12:37:26Z</time>
      </trkpt>
      <trkpt lat="37.533682000" lon="-3.834020000">
        <ele>1256.2</ele>
        <time>2020-10-14T12:37:28Z</time>
      </trkpt>
      <trkpt lat="37.533754000" lon="-3.834111000">
        <ele>1255.1</ele>
        <time>2020-10-14T12:37:30Z</time>
      </trkpt>
      <trkpt lat="37.533805000" lon="-3.834214000">
        <ele>1254.4</ele>
        <time>2020-10-14T12:37:32Z</time>
      </trkpt>
      <trkpt lat="37.533840000" lon="-3.834333000">
        <ele>1254.1</ele>
        <time>2020-10-14T12:37:34Z</time>
      </trkpt>
      <trkpt lat="37.533851000" lon="-3.834456000">
        <ele>1253.8</ele>
        <time>2020-10-14T12:37:36Z</time>
      </trkpt>
      <trkpt lat="37.533843000" lon="-3.834595000">
        <ele>1253.6</ele>
        <time>2020-10-14T12:37:38Z</time>
      </trkpt>
      <trkpt lat="37.533812000" lon="-3.834733000">
        <ele>1253.4</ele>
        <time>2020-10-14T12:37:40Z</time>
      </trkpt>
      <trkpt lat="37.533779000" lon="-3.834875000">
        <ele>1252.9</ele>
        <time>2020-10-14T12:37:42Z</time>
      </trkpt>
      <trkpt lat="37.533750000" lon="-3.835026000">
        <ele>1252.4</ele>
        <time>2020-10-14T12:37:44Z</time>
      </trkpt>
      <trkpt lat="37.533728000" lon="-3.835175000">
        <ele>1251.7</ele>
        <time>2020-10-14T12:37:46Z</time>
      </trkpt>
      <trkpt lat="37.533715000" lon="-3.835313000">
        <ele>1251.0</ele>
        <time>2020-10-14T12:37:48Z</time>
      </trkpt>
      <trkpt lat="37.533709000" lon="-3.835430000">
        <ele>1250.3</ele>
        <time>2020-10-14T12:37:50Z</time>
      </trkpt>
      <trkpt lat="37.533692000" lon="-3.835557000">
        <ele>1249.5</ele>
        <time>2020-10-14T12:37:53Z</time>
      </trkpt>
      <trkpt lat="37.533676000" lon="-3.835667000">
        <ele>1248.5</ele>
        <time>2020-10-14T12:37:57Z</time>
      </trkpt>
      <trkpt lat="37.533638000" lon="-3.835762000">
        <ele>1247.5</ele>
        <time>2020-10-14T12:39:19Z</time>
      </trkpt>
      <trkpt lat="37.533603000" lon="-3.835880000">
        <ele>1246.6</ele>
        <time>2020-10-14T12:39:22Z</time>
      </trkpt>
      <trkpt lat="37.533569000" lon="-3.835981000">
        <ele>1245.7</ele>
        <time>2020-10-14T12:39:24Z</time>
      </trkpt>
      <trkpt lat="37.533529000" lon="-3.836115000">
        <ele>1244.9</ele>
        <time>2020-10-14T12:39:26Z</time>
      </trkpt>
      <trkpt lat="37.533489000" lon="-3.836260000">
        <ele>1244.1</ele>
        <time>2020-10-14T12:39:28Z</time>
      </trkpt>
      <trkpt lat="37.533466000" lon="-3.836419000">
        <ele>1243.2</ele>
        <time>2020-10-14T12:39:30Z</time>
      </trkpt>
      <trkpt lat="37.533438000" lon="-3.836574000">
        <ele>1242.3</ele>
        <time>2020-10-14T12:39:32Z</time>
      </trkpt>
      <trkpt lat="37.533391000" lon="-3.836721000">
        <ele>1241.3</ele>
        <time>2020-10-14T12:39:34Z</time>
      </trkpt>
      <trkpt lat="37.533332000" lon="-3.836855000">
        <ele>1240.4</ele>
        <time>2020-10-14T12:39:36Z</time>
      </trkpt>
      <trkpt lat="37.533265000" lon="-3.836987000">
        <ele>1239.6</ele>
        <time>2020-10-14T12:39:38Z</time>
      </trkpt>
      <trkpt lat="37.533190000" lon="-3.837122000">
        <ele>1239.1</ele>
        <time>2020-10-14T12:39:40Z</time>
      </trkpt>
      <trkpt lat="37.533093000" lon="-3.837235000">
        <ele>1238.6</ele>
        <time>2020-10-14T12:39:42Z</time>
      </trkpt>
      <trkpt lat="37.533005000" lon="-3.837339000">
        <ele>1238.3</ele>
        <time>2020-10-14T12:39:44Z</time>
      </trkpt>
      <trkpt lat="37.532897000" lon="-3.837411000">
        <ele>1238.1</ele>
        <time>2020-10-14T12:39:46Z</time>
      </trkpt>
      <trkpt lat="37.532773000" lon="-3.837447000">
        <ele>1238.0</ele>
        <time>2020-10-14T12:39:48Z</time>
      </trkpt>
      <trkpt lat="37.532666000" lon="-3.837479000">
        <ele>1238.1</ele>
        <time>2020-10-14T12:39:50Z</time>
      </trkpt>
      <trkpt lat="37.532551000" lon="-3.837524000">
        <ele>1238.4</ele>
        <time>2020-10-14T12:39:52Z</time>
      </trkpt>
      <trkpt lat="37.532447000" lon="-3.837614000">
        <ele>1238.7</ele>
        <time>2020-10-14T12:39:54Z</time>
      </trkpt>
      <trkpt lat="37.532368000" lon="-3.837736000">
        <ele>1239.1</ele>
        <time>2020-10-14T12:39:56Z</time>
      </trkpt>
      <trkpt lat="37.532345000" lon="-3.837885000">
        <ele>1239.3</ele>
        <time>2020-10-14T12:39:58Z</time>
      </trkpt>
      <trkpt lat="37.532368000" lon="-3.838011000">
        <ele>1239.1</ele>
        <time>2020-10-14T12:40:00Z</time>
      </trkpt>
      <trkpt lat="37.532423000" lon="-3.838112000">
        <ele>1238.8</ele>
        <time>2020-10-14T12:40:02Z</time>
      </trkpt>
      <trkpt lat="37.532507000" lon="-3.838184000">
        <ele>1238.5</ele>
        <time>2020-10-14T12:40:04Z</time>
      </trkpt>
      <trkpt lat="37.532599000" lon="-3.838226000">
        <ele>1238.3</ele>
        <time>2020-10-14T12:40:06Z</time>
      </trkpt>
      <trkpt lat="37.532702000" lon="-3.838246000">
        <ele>1237.8</ele>
        <time>2020-10-14T12:40:08Z</time>
      </trkpt>
      <trkpt lat="37.532815000" lon="-3.838259000">
        <ele>1237.3</ele>
        <time>2020-10-14T12:40:10Z</time>
      </trkpt>
      <trkpt lat="37.532929000" lon="-3.838257000">
        <ele>1236.6</ele>
        <time>2020-10-14T12:40:12Z</time>
      </trkpt>
      <trkpt lat="37.533030000" lon="-3.838230000">
        <ele>1235.9</ele>
        <time>2020-10-14T12:40:14Z</time>
      </trkpt>
      <trkpt lat="37.533128000" lon="-3.838176000">
        <ele>1235.1</ele>
        <time>2020-10-14T12:40:16Z</time>
      </trkpt>
      <trkpt lat="37.533235000" lon="-3.838090000">
        <ele>1234.3</ele>
        <time>2020-10-14T12:40:18Z</time>
      </trkpt>
      <trkpt lat="37.533342000" lon="-3.837990000">
        <ele>1233.5</ele>
        <time>2020-10-14T12:40:20Z</time>
      </trkpt>
      <trkpt lat="37.533465000" lon="-3.837907000">
        <ele>1232.8</ele>
        <time>2020-10-14T12:40:22Z</time>
      </trkpt>
      <trkpt lat="37.533596000" lon="-3.837847000">
        <ele>1231.9</ele>
        <time>2020-10-14T12:40:24Z</time>
      </trkpt>
      <trkpt lat="37.533734000" lon="-3.837778000">
        <ele>1231.0</ele>
        <time>2020-10-14T12:40:26Z</time>
      </trkpt>
      <trkpt lat="37.533870000" lon="-3.837690000">
        <ele>1230.1</ele>
        <time>2020-10-14T12:40:28Z</time>
      </trkpt>
      <trkpt lat="37.533970000" lon="-3.837635000">
        <ele>1229.2</ele>
        <time>2020-10-14T12:40:30Z</time>
      </trkpt>
      <trkpt lat="37.534044000" lon="-3.837563000">
        <ele>1228.3</ele>
        <time>2020-10-14T12:40:33Z</time>
      </trkpt>
      <trkpt lat="37.534126000" lon="-3.837501000">
        <ele>1227.5</ele>
        <time>2020-10-14T12:41:08Z</time>
      </trkpt>
      <trkpt lat="37.534214000" lon="-3.837437000">
        <ele>1226.8</ele>
        <time>2020-10-14T12:41:11Z</time>
      </trkpt>
      <trkpt lat="37.534305000" lon="-3.837372000">
        <ele>1226.1</ele>
        <time>2020-10-14T12:41:13Z</time>
      </trkpt>
      <trkpt lat="37.534403000" lon="-3.837305000">
        <ele>1225.5</ele>
        <time>2020-10-14T12:41:15Z</time>
      </trkpt>
      <trkpt lat="37.534512000" lon="-3.837225000">
        <ele>1224.8</ele>
        <time>2020-10-14T12:41:17Z</time>
      </trkpt>
      <trkpt lat="37.534623000" lon="-3.837130000">
        <ele>1224.4</ele>
        <time>2020-10-14T12:41:19Z</time>
      </trkpt>
      <trkpt lat="37.534723000" lon="-3.837014000">
        <ele>1224.0</ele>
        <time>2020-10-14T12:41:21Z</time>
      </trkpt>
      <trkpt lat="37.534815000" lon="-3.836893000">
        <ele>1223.6</ele>
        <time>2020-10-14T12:41:23Z</time>
      </trkpt>
      <trkpt lat="37.534912000" lon="-3.836790000">
        <ele>1222.9</ele>
        <time>2020-10-14T12:41:25Z</time>
      </trkpt>
      <trkpt lat="37.535024000" lon="-3.836680000">
        <ele>1222.1</ele>
        <time>2020-10-14T12:41:27Z</time>
      </trkpt>
      <trkpt lat="37.535155000" lon="-3.836572000">
        <ele>1221.3</ele>
        <time>2020-10-14T12:41:29Z</time>
      </trkpt>
      <trkpt lat="37.535294000" lon="-3.836466000">
        <ele>1220.3</ele>
        <time>2020-10-14T12:41:31Z</time>
      </trkpt>
      <trkpt lat="37.535366000" lon="-3.836412000">
        <ele>1219.4</ele>
        <time>2020-10-14T12:41:32Z</time>
      </trkpt>
      <trkpt lat="37.535502000" lon="-3.836316000">
        <ele>1218.5</ele>
        <time>2020-10-14T12:41:34Z</time>
      </trkpt>
      <trkpt lat="37.535638000" lon="-3.836212000">
        <ele>1217.5</ele>
        <time>2020-10-14T12:41:36Z</time>
      </trkpt>
      <trkpt lat="37.535708000" lon="-3.836155000">
        <ele>1216.5</ele>
        <time>2020-10-14T12:41:37Z</time>
      </trkpt>
      <trkpt lat="37.535777000" lon="-3.836099000">
        <ele>1215.5</ele>
        <time>2020-10-14T12:41:38Z</time>
      </trkpt>
      <trkpt lat="37.535846000" lon="-3.836042000">
        <ele>1214.6</ele>
        <time>2020-10-14T12:41:39Z</time>
      </trkpt>
      <trkpt lat="37.535917000" lon="-3.835985000">
        <ele>1213.6</ele>
        <time>2020-10-14T12:41:40Z</time>
      </trkpt>
      <trkpt lat="37.535987000" lon="-3.835929000">
        <ele>1212.9</ele>
        <time>2020-10-14T12:41:41Z</time>
      </trkpt>
      <trkpt lat="37.536057000" lon="-3.835866000">
        <ele>1212.3</ele>
        <time>2020-10-14T12:41:42Z</time>
      </trkpt>
      <trkpt lat="37.536126000" lon="-3.835806000">
        <ele>1211.6</ele>
        <time>2020-10-14T12:41:43Z</time>
      </trkpt>
      <trkpt lat="37.536192000" lon="-3.835741000">
        <ele>1211.1</ele>
        <time>2020-10-14T12:41:44Z</time>
      </trkpt>
      <trkpt lat="37.536258000" lon="-3.835678000">
        <ele>1210.5</ele>
        <time>2020-10-14T12:41:45Z</time>
      </trkpt>
      <trkpt lat="37.536330000" lon="-3.835613000">
        <ele>1209.8</ele>
        <time>2020-10-14T12:41:46Z</time>
      </trkpt>
      <trkpt lat="37.536402000" lon="-3.835550000">
        <ele>1209.3</ele>
        <time>2020-10-14T12:41:47Z</time>
      </trkpt>
      <trkpt lat="37.536474000" lon="-3.835486000">
        <ele>1208.8</ele>
        <time>2020-10-14T12:41:48Z</time>
      </trkpt>
      <trkpt lat="37.536544000" lon="-3.835422000">
        <ele>1208.4</ele>
        <time>2020-10-14T12:41:49Z</time>
      </trkpt>
      <trkpt lat="37.536610000" lon="-3.835354000">
        <ele>1207.9</ele>
        <time>2020-10-14T12:41:50Z</time>
      </trkpt>
      <trkpt lat="37.536681000" lon="-3.835287000">
        <ele>1207.6</ele>
        <time>2020-10-14T12:41:51Z</time>
      </trkpt>
      <trkpt lat="37.536814000" lon="-3.835148000">
        <ele>1207.4</ele>
        <time>2020-10-14T12:41:53Z</time>
      </trkpt>
      <trkpt lat="37.536874000" lon="-3.835066000">
        <ele>1207.1</ele>
        <time>2020-10-14T12:41:54Z</time>
      </trkpt>
      <trkpt lat="37.536931000" lon="-3.834982000">
        <ele>1206.7</ele>
        <time>2020-10-14T12:41:55Z</time>
      </trkpt>
      <trkpt lat="37.536984000" lon="-3.834899000">
        <ele>1206.3</ele>
        <time>2020-10-14T12:41:56Z</time>
      </trkpt>
      <trkpt lat="37.537037000" lon="-3.834821000">
        <ele>1205.9</ele>
        <time>2020-10-14T12:41:57Z</time>
      </trkpt>
      <trkpt lat="37.537142000" lon="-3.834679000">
        <ele>1205.5</ele>
        <time>2020-10-14T12:41:59Z</time>
      </trkpt>
      <trkpt lat="37.537195000" lon="-3.834602000">
        <ele>1205.0</ele>
        <time>2020-10-14T12:42:00Z</time>
      </trkpt>
      <trkpt lat="37.537246000" lon="-3.834523000">
        <ele>1204.5</ele>
        <time>2020-10-14T12:42:01Z</time>
      </trkpt>
      <trkpt lat="37.537303000" lon="-3.834448000">
        <ele>1203.9</ele>
        <time>2020-10-14T12:42:02Z</time>
      </trkpt>
      <trkpt lat="37.537422000" lon="-3.834299000">
        <ele>1203.4</ele>
        <time>2020-10-14T12:42:04Z</time>
      </trkpt>
      <trkpt lat="37.537482000" lon="-3.834230000">
        <ele>1202.7</ele>
        <time>2020-10-14T12:42:05Z</time>
      </trkpt>
      <trkpt lat="37.537544000" lon="-3.834160000">
        <ele>1202.2</ele>
        <time>2020-10-14T12:42:06Z</time>
      </trkpt>
      <trkpt lat="37.537603000" lon="-3.834088000">
        <ele>1201.7</ele>
        <time>2020-10-14T12:42:07Z</time>
      </trkpt>
      <trkpt lat="37.537668000" lon="-3.834024000">
        <ele>1201.5</ele>
        <time>2020-10-14T12:42:08Z</time>
      </trkpt>
      <trkpt lat="37.537734000" lon="-3.833959000">
        <ele>1201.3</ele>
        <time>2020-10-14T12:42:09Z</time>
      </trkpt>
      <trkpt lat="37.537805000" lon="-3.833897000">
        <ele>1201.1</ele>
        <time>2020-10-14T12:42:10Z</time>
      </trkpt>
      <trkpt lat="37.537880000" lon="-3.833837000">
        <ele>1200.9</ele>
        <time>2020-10-14T12:42:11Z</time>
      </trkpt>
      <trkpt lat="37.537954000" lon="-3.833777000">
        <ele>1200.8</ele>
        <time>2020-10-14T12:42:12Z</time>
      </trkpt>
      <trkpt lat="37.538029000" lon="-3.833720000">
        <ele>1200.5</ele>
        <time>2020-10-14T12:42:13Z</time>
      </trkpt>
      <trkpt lat="37.538105000" lon="-3.833666000">
        <ele>1200.0</ele>
        <time>2020-10-14T12:42:14Z</time>
      </trkpt>
      <trkpt lat="37.538177000" lon="-3.833605000">
        <ele>1199.3</ele>
        <time>2020-10-14T12:42:15Z</time>
      </trkpt>
      <trkpt lat="37.538244000" lon="-3.833546000">
        <ele>1198.5</ele>
        <time>2020-10-14T12:42:16Z</time>
      </trkpt>
      <trkpt lat="37.538316000" lon="-3.833490000">
        <ele>1197.6</ele>
        <time>2020-10-14T12:42:17Z</time>
      </trkpt>
      <trkpt lat="37.538382000" lon="-3.833428000">
        <ele>1196.8</ele>
        <time>2020-10-14T12:42:18Z</time>
      </trkpt>
      <trkpt lat="37.538513000" lon="-3.833327000">
        <ele>1196.0</ele>
        <time>2020-10-14T12:42:20Z</time>
      </trkpt>
      <trkpt lat="37.538635000" lon="-3.833234000">
        <ele>1195.1</ele>
        <time>2020-10-14T12:42:22Z</time>
      </trkpt>
      <trkpt lat="37.538750000" lon="-3.833157000">
        <ele>1194.0</ele>
        <time>2020-10-14T12:42:24Z</time>
      </trkpt>
      <trkpt lat="37.538875000" lon="-3.833102000">
        <ele>1192.8</ele>
        <time>2020-10-14T12:42:26Z</time>
      </trkpt>
      <trkpt lat="37.539013000" lon="-3.833101000">
        <ele>1191.5</ele>
        <time>2020-10-14T12:42:28Z</time>
      </trkpt>
      <trkpt lat="37.539165000" lon="-3.833119000">
        <ele>1190.4</ele>
        <time>2020-10-14T12:42:30Z</time>
      </trkpt>
      <trkpt lat="37.539246000" lon="-3.833133000">
        <ele>1189.4</ele>
        <time>2020-10-14T12:42:31Z</time>
      </trkpt>
      <trkpt lat="37.539330000" lon="-3.833148000">
        <ele>1188.7</ele>
        <time>2020-10-14T12:42:32Z</time>
      </trkpt>
      <trkpt lat="37.539412000" lon="-3.833161000">
        <ele>1188.3</ele>
        <time>2020-10-14T12:42:33Z</time>
      </trkpt>
      <trkpt lat="37.539494000" lon="-3.833176000">
        <ele>1188.1</ele>
        <time>2020-10-14T12:42:34Z</time>
      </trkpt>
      <trkpt lat="37.539576000" lon="-3.833191000">
        <ele>1188.2</ele>
        <time>2020-10-14T12:42:35Z</time>
      </trkpt>
      <trkpt lat="37.539734000" lon="-3.833210000">
        <ele>1188.4</ele>
        <time>2020-10-14T12:42:37Z</time>
      </trkpt>
      <trkpt lat="37.539875000" lon="-3.833232000">
        <ele>1188.6</ele>
        <time>2020-10-14T12:42:39Z</time>
      </trkpt>
      <trkpt lat="37.540003000" lon="-3.833274000">
        <ele>1189.2</ele>
        <time>2020-10-14T12:42:41Z</time>
      </trkpt>
      <trkpt lat="37.540106000" lon="-3.833340000">
        <ele>1189.8</ele>
        <time>2020-10-14T12:42:43Z</time>
      </trkpt>
      <trkpt lat="37.540208000" lon="-3.833416000">
        <ele>1190.5</ele>
        <time>2020-10-14T12:42:45Z</time>
      </trkpt>
      <trkpt lat="37.540305000" lon="-3.833488000">
        <ele>1191.0</ele>
        <time>2020-10-14T12:42:47Z</time>
      </trkpt>
      <trkpt lat="37.540400000" lon="-3.833553000">
        <ele>1191.6</ele>
        <time>2020-10-14T12:42:49Z</time>
      </trkpt>
      <trkpt lat="37.540494000" lon="-3.833595000">
        <ele>1192.1</ele>
        <time>2020-10-14T12:42:51Z</time>
      </trkpt>
      <trkpt lat="37.540599000" lon="-3.833622000">
        <ele>1192.5</ele>
        <time>2020-10-14T12:42:53Z</time>
      </trkpt>
      <trkpt lat="37.540704000" lon="-3.833617000">
        <ele>1192.5</ele>
        <time>2020-10-14T12:42:55Z</time>
      </trkpt>
      <trkpt lat="37.540808000" lon="-3.833598000">
        <ele>1192.5</ele>
        <time>2020-10-14T12:42:57Z</time>
      </trkpt>
      <trkpt lat="37.540906000" lon="-3.833555000">
        <ele>1192.4</ele>
        <time>2020-10-14T12:42:59Z</time>
      </trkpt>
      <trkpt lat="37.541003000" lon="-3.833511000">
        <ele>1192.3</ele>
        <time>2020-10-14T12:43:01Z</time>
      </trkpt>
      <trkpt lat="37.541097000" lon="-3.833462000">
        <ele>1192.2</ele>
        <time>2020-10-14T12:43:03Z</time>
      </trkpt>
      <trkpt lat="37.541193000" lon="-3.833417000">
        <ele>1192.2</ele>
        <time>2020-10-14T12:43:05Z</time>
      </trkpt>
      <trkpt lat="37.541286000" lon="-3.833350000">
        <ele>1192.3</ele>
        <time>2020-10-14T12:43:07Z</time>
      </trkpt>
      <trkpt lat="37.541379000" lon="-3.833305000">
        <ele>1192.5</ele>
        <time>2020-10-14T12:43:09Z</time>
      </trkpt>
      <trkpt lat="37.541470000" lon="-3.833254000">
        <ele>1192.8</ele>
        <time>2020-10-14T12:43:11Z</time>
      </trkpt>
      <trkpt lat="37.541567000" lon="-3.833198000">
        <ele>1193.1</ele>
        <time>2020-10-14T12:43:13Z</time>
      </trkpt>
      <trkpt lat="37.541653000" lon="-3.833154000">
        <ele>1193.3</ele>
        <time>2020-10-14T12:43:15Z</time>
      </trkpt>
      <trkpt lat="37.541732000" lon="-3.833111000">
        <ele>1193.5</ele>
        <time>2020-10-14T12:43:17Z</time>
      </trkpt>
      <trkpt lat="37.541817000" lon="-3.833070000">
        <ele>1193.5</ele>
        <time>2020-10-14T12:43:19Z</time>
      </trkpt>
      <trkpt lat="37.541901000" lon="-3.833029000">
        <ele>1193.6</ele>
        <time>2020-10-14T12:43:21Z</time>
      </trkpt>
      <trkpt lat="37.541987000" lon="-3.833006000">
        <ele>1193.8</ele>
        <time>2020-10-14T12:43:23Z</time>
      </trkpt>
      <trkpt lat="37.542077000" lon="-3.832993000">
        <ele>1194.0</ele>
        <time>2020-10-14T12:43:25Z</time>
      </trkpt>
      <trkpt lat="37.542168000" lon="-3.832993000">
        <ele>1194.3</ele>
        <time>2020-10-14T12:43:27Z</time>
      </trkpt>
      <trkpt lat="37.542260000" lon="-3.832990000">
        <ele>1194.6</ele>
        <time>2020-10-14T12:43:29Z</time>
      </trkpt>
      <trkpt lat="37.542353000" lon="-3.832991000">
        <ele>1195.1</ele>
        <time>2020-10-14T12:43:31Z</time>
      </trkpt>
      <trkpt lat="37.542441000" lon="-3.832995000">
        <ele>1195.6</ele>
        <time>2020-10-14T12:43:33Z</time>
      </trkpt>
      <trkpt lat="37.542529000" lon="-3.833007000">
        <ele>1196.2</ele>
        <time>2020-10-14T12:43:35Z</time>
      </trkpt>
      <trkpt lat="37.542613000" lon="-3.833041000">
        <ele>1196.9</ele>
        <time>2020-10-14T12:43:37Z</time>
      </trkpt>
      <trkpt lat="37.542699000" lon="-3.833080000">
        <ele>1197.6</ele>
        <time>2020-10-14T12:43:39Z</time>
      </trkpt>
      <trkpt lat="37.542781000" lon="-3.833124000">
        <ele>1198.3</ele>
        <time>2020-10-14T12:43:41Z</time>
      </trkpt>
      <trkpt lat="37.542857000" lon="-3.833172000">
        <ele>1198.8</ele>
        <time>2020-10-14T12:43:43Z</time>
      </trkpt>
      <trkpt lat="37.542937000" lon="-3.833221000">
        <ele>1199.3</ele>
        <time>2020-10-14T12:43:45Z</time>
      </trkpt>
      <trkpt lat="37.543016000" lon="-3.833277000">
        <ele>1199.5</ele>
        <time>2020-10-14T12:43:47Z</time>
      </trkpt>
      <trkpt lat="37.543093000" lon="-3.833330000">
        <ele>1199.7</ele>
        <time>2020-10-14T12:43:49Z</time>
      </trkpt>
      <trkpt lat="37.543171000" lon="-3.833385000">
        <ele>1199.7</ele>
        <time>2020-10-14T12:43:51Z</time>
      </trkpt>
      <trkpt lat="37.543255000" lon="-3.833441000">
        <ele>1199.5</ele>
        <time>2020-10-14T12:43:53Z</time>
      </trkpt>
      <trkpt lat="37.543326000" lon="-3.833505000">
        <ele>1199.1</ele>
        <time>2020-10-14T12:43:55Z</time>
      </trkpt>
      <trkpt lat="37.543393000" lon="-3.833577000">
        <ele>1198.5</ele>
        <time>2020-10-14T12:43:57Z</time>
      </trkpt>
      <trkpt lat="37.543460000" lon="-3.833660000">
        <ele>1197.9</ele>
        <time>2020-10-14T12:43:59Z</time>
      </trkpt>
      <trkpt lat="37.543520000" lon="-3.833745000">
        <ele>1197.2</ele>
        <time>2020-10-14T12:44:01Z</time>
      </trkpt>
      <trkpt lat="37.543581000" lon="-3.833840000">
        <ele>1196.5</ele>
        <time>2020-10-14T12:44:03Z</time>
      </trkpt>
      <trkpt lat="37.543642000" lon="-3.833934000">
        <ele>1195.9</ele>
        <time>2020-10-14T12:44:05Z</time>
      </trkpt>
      <trkpt lat="37.543702000" lon="-3.834017000">
        <ele>1195.4</ele>
        <time>2020-10-14T12:44:07Z</time>
      </trkpt>
      <trkpt lat="37.543768000" lon="-3.834084000">
        <ele>1195.0</ele>
        <time>2020-10-14T12:44:09Z</time>
      </trkpt>
      <trkpt lat="37.543837000" lon="-3.834141000">
        <ele>1194.7</ele>
        <time>2020-10-14T12:44:11Z</time>
      </trkpt>
      <trkpt lat="37.543915000" lon="-3.834180000">
        <ele>1194.6</ele>
        <time>2020-10-14T12:44:13Z</time>
      </trkpt>
      <trkpt lat="37.543998000" lon="-3.834196000">
        <ele>1194.7</ele>
        <time>2020-10-14T12:44:15Z</time>
      </trkpt>
      <trkpt lat="37.544080000" lon="-3.834213000">
        <ele>1195.0</ele>
        <time>2020-10-14T12:44:17Z</time>
      </trkpt>
      <trkpt lat="37.544162000" lon="-3.834220000">
        <ele>1195.4</ele>
        <time>2020-10-14T12:44:19Z</time>
      </trkpt>
      <trkpt lat="37.544281000" lon="-3.834226000">
        <ele>1195.8</ele>
        <time>2020-10-14T12:44:22Z</time>
      </trkpt>
      <trkpt lat="37.544385000" lon="-3.834232000">
        <ele>1196.4</ele>
        <time>2020-10-14T12:44:25Z</time>
      </trkpt>
      <trkpt lat="37.544470000" lon="-3.834235000">
        <ele>1196.9</ele>
        <time>2020-10-14T12:44:28Z</time>
      </trkpt>
      <trkpt lat="37.544554000" lon="-3.834237000">
        <ele>1197.5</ele>
        <time>2020-10-14T12:44:31Z</time>
      </trkpt>
      <trkpt lat="37.544638000" lon="-3.834243000">
        <ele>1198.2</ele>
        <time>2020-10-14T12:44:34Z</time>
      </trkpt>
      <trkpt lat="37.544724000" lon="-3.834232000">
        <ele>1198.8</ele>
        <time>2020-10-14T12:44:37Z</time>
      </trkpt>
      <trkpt lat="37.544803000" lon="-3.834207000">
        <ele>1199.5</ele>
        <time>2020-10-14T12:44:40Z</time>
      </trkpt>
      <trkpt lat="37.544881000" lon="-3.834170000">
        <ele>1200.0</ele>
        <time>2020-10-14T12:44:43Z</time>
      </trkpt>
      <trkpt lat="37.544962000" lon="-3.834103000">
        <ele>1200.5</ele>
        <time>2020-10-14T12:44:47Z</time>
      </trkpt>
      <trkpt lat="37.545022000" lon="-3.834006000">
        <ele>1201.0</ele>
        <time>2020-10-14T12:44:52Z</time>
      </trkpt>
      <trkpt lat="37.545061000" lon="-3.833913000">
        <ele>1201.5</ele>
        <time>2020-10-14T12:44:56Z</time>
      </trkpt>
      <trkpt lat="37.545107000" lon="-3.833800000">
        <ele>1202.1</ele>
        <time>2020-10-14T12:45:01Z</time>
      </trkpt>
      <trkpt lat="37.545149000" lon="-3.833707000">
        <ele>1202.5</ele>
        <time>2020-10-14T12:45:05Z</time>
      </trkpt>
      <trkpt lat="37.545194000" lon="-3.833598000">
        <ele>1203.1</ele>
        <time>2020-10-14T12:45:10Z</time>
      </trkpt>
      <trkpt lat="37.545240000" lon="-3.833497000">
        <ele>1203.5</ele>
        <time>2020-10-14T12:45:15Z</time>
      </trkpt>
      <trkpt lat="37.545280000" lon="-3.833381000">
        <ele>1204.0</ele>
        <time>2020-10-14T12:45:20Z</time>
      </trkpt>
      <trkpt lat="37.545283000" lon="-3.833254000">
        <ele>1204.6</ele>
        <time>2020-10-14T12:45:25Z</time>
      </trkpt>
      <trkpt lat="37.545318000" lon="-3.833141000">
        <ele>1205.4</ele>
        <time>2020-10-14T12:45:30Z</time>
      </trkpt>
      <trkpt lat="37.545306000" lon="-3.833030000">
        <ele>1206.4</ele>
        <time>2020-10-14T12:45:35Z</time>
      </trkpt>
      <trkpt lat="37.545342000" lon="-3.832919000">
        <ele>1207.7</ele>
        <time>2020-10-14T12:45:40Z</time>
      </trkpt>
      <trkpt lat="37.545338000" lon="-3.832799000">
        <ele>1209.4</ele>
        <time>2020-10-14T12:45:45Z</time>
      </trkpt>
      <trkpt lat="37.545351000" lon="-3.832685000">
        <ele>1211.2</ele>
        <time>2020-10-14T12:45:50Z</time>
      </trkpt>
      <trkpt lat="37.545346000" lon="-3.832568000">
        <ele>1212.8</ele>
        <time>2020-10-14T12:45:56Z</time>
      </trkpt>
      <trkpt lat="37.545374000" lon="-3.832455000">
        <ele>1214.4</ele>
        <time>2020-10-14T12:46:01Z</time>
      </trkpt>
      <trkpt lat="37.545414000" lon="-3.832349000">
        <ele>1215.7</ele>
        <time>2020-10-14T12:46:06Z</time>
      </trkpt>
      <trkpt lat="37.545477000" lon="-3.832260000">
        <ele>1216.9</ele>
        <time>2020-10-14T12:46:11Z</time>
      </trkpt>
      <trkpt lat="37.545569000" lon="-3.832228000">
        <ele>1217.8</ele>
        <time>2020-10-14T12:46:16Z</time>
      </trkpt>
      <trkpt lat="37.545651000" lon="-3.832237000">
        <ele>1218.6</ele>
        <time>2020-10-14T12:46:20Z</time>
      </trkpt>
      <trkpt lat="37.545750000" lon="-3.832257000">
        <ele>1219.4</ele>
        <time>2020-10-14T12:46:25Z</time>
      </trkpt>
      <trkpt lat="37.545848000" lon="-3.832285000">
        <ele>1219.8</ele>
        <time>2020-10-14T12:46:29Z</time>
      </trkpt>
      <trkpt lat="37.545945000" lon="-3.832301000">
        <ele>1220.2</ele>
        <time>2020-10-14T12:46:33Z</time>
      </trkpt>
      <trkpt lat="37.546039000" lon="-3.832310000">
        <ele>1220.4</ele>
        <time>2020-10-14T12:46:38Z</time>
      </trkpt>
      <trkpt lat="37.546126000" lon="-3.832242000">
        <ele>1220.5</ele>
        <time>2020-10-14T12:46:43Z</time>
      </trkpt>
      <trkpt lat="37.546208000" lon="-3.832182000">
        <ele>1220.7</ele>
        <time>2020-10-14T12:46:47Z</time>
      </trkpt>
      <trkpt lat="37.546291000" lon="-3.832141000">
        <ele>1221.1</ele>
        <time>2020-10-14T12:46:51Z</time>
      </trkpt>
      <trkpt lat="37.546359000" lon="-3.832046000">
        <ele>1221.6</ele>
        <time>2020-10-14T12:46:56Z</time>
      </trkpt>
      <trkpt lat="37.546422000" lon="-3.831967000">
        <ele>1222.4</ele>
        <time>2020-10-14T12:47:00Z</time>
      </trkpt>
      <trkpt lat="37.546489000" lon="-3.831905000">
        <ele>1223.4</ele>
        <time>2020-10-14T12:47:04Z</time>
      </trkpt>
      <trkpt lat="37.546565000" lon="-3.831872000">
        <ele>1224.3</ele>
        <time>2020-10-14T12:47:08Z</time>
      </trkpt>
      <trkpt lat="37.546660000" lon="-3.831859000">
        <ele>1225.0</ele>
        <time>2020-10-14T12:47:12Z</time>
      </trkpt>
      <trkpt lat="37.546756000" lon="-3.831888000">
        <ele>1225.6</ele>
        <time>2020-10-14T12:47:16Z</time>
      </trkpt>
      <trkpt lat="37.546828000" lon="-3.831975000">
        <ele>1225.9</ele>
        <time>2020-10-14T12:47:20Z</time>
      </trkpt>
      <trkpt lat="37.546856000" lon="-3.832102000">
        <ele>1225.9</ele>
        <time>2020-10-14T12:47:24Z</time>
      </trkpt>
      <trkpt lat="37.546869000" lon="-3.832208000">
        <ele>1225.7</ele>
        <time>2020-10-14T12:47:27Z</time>
      </trkpt>
      <trkpt lat="37.546853000" lon="-3.832320000">
        <ele>1225.5</ele>
        <time>2020-10-14T12:47:30Z</time>
      </trkpt>
      <trkpt lat="37.546822000" lon="-3.832431000">
        <ele>1225.3</ele>
        <time>2020-10-14T12:47:33Z</time>
      </trkpt>
      <trkpt lat="37.546795000" lon="-3.832542000">
        <ele>1225.0</ele>
        <time>2020-10-14T12:47:36Z</time>
      </trkpt>
      <trkpt lat="37.546759000" lon="-3.832647000">
        <ele>1224.8</ele>
        <time>2020-10-14T12:47:39Z</time>
      </trkpt>
      <trkpt lat="37.546723000" lon="-3.832757000">
        <ele>1224.5</ele>
        <time>2020-10-14T12:47:42Z</time>
      </trkpt>
      <trkpt lat="37.546691000" lon="-3.832867000">
        <ele>1224.2</ele>
        <time>2020-10-14T12:47:45Z</time>
      </trkpt>
      <trkpt lat="37.546663000" lon="-3.832977000">
        <ele>1223.9</ele>
        <time>2020-10-14T12:47:48Z</time>
      </trkpt>
      <trkpt lat="37.546640000" lon="-3.833085000">
        <ele>1223.7</ele>
        <time>2020-10-14T12:47:51Z</time>
      </trkpt>
      <trkpt lat="37.546618000" lon="-3.833194000">
        <ele>1223.6</ele>
        <time>2020-10-14T12:47:54Z</time>
      </trkpt>
      <trkpt lat="37.546606000" lon="-3.833304000">
        <ele>1223.5</ele>
        <time>2020-10-14T12:47:57Z</time>
      </trkpt>
      <trkpt lat="37.546598000" lon="-3.833408000">
        <ele>1223.6</ele>
        <time>2020-10-14T12:48:00Z</time>
      </trkpt>
      <trkpt lat="37.546596000" lon="-3.833510000">
        <ele>1223.9</ele>
        <time>2020-10-14T12:48:03Z</time>
      </trkpt>
      <trkpt lat="37.546588000" lon="-3.833616000">
        <ele>1224.3</ele>
        <time>2020-10-14T12:48:06Z</time>
      </trkpt>
      <trkpt lat="37.546584000" lon="-3.833722000">
        <ele>1224.7</ele>
        <time>2020-10-14T12:48:09Z</time>
      </trkpt>
      <trkpt lat="37.546580000" lon="-3.833854000">
        <ele>1225.2</ele>
        <time>2020-10-14T12:48:13Z</time>
      </trkpt>
      <trkpt lat="37.546584000" lon="-3.833988000">
        <ele>1225.8</ele>
        <time>2020-10-14T12:48:17Z</time>
      </trkpt>
      <trkpt lat="37.546596000" lon="-3.834124000">
        <ele>1226.6</ele>
        <time>2020-10-14T12:48:21Z</time>
      </trkpt>
      <trkpt lat="37.546607000" lon="-3.834231000">
        <ele>1227.6</ele>
        <time>2020-10-14T12:48:24Z</time>
      </trkpt>
      <trkpt lat="37.546627000" lon="-3.834338000">
        <ele>1228.6</ele>
        <time>2020-10-14T12:48:27Z</time>
      </trkpt>
      <trkpt lat="37.546651000" lon="-3.834442000">
        <ele>1229.7</ele>
        <time>2020-10-14T12:48:30Z</time>
      </trkpt>
      <trkpt lat="37.546688000" lon="-3.834537000">
        <ele>1231.0</ele>
        <time>2020-10-14T12:48:33Z</time>
      </trkpt>
      <trkpt lat="37.546725000" lon="-3.834629000">
        <ele>1232.1</ele>
        <time>2020-10-14T12:48:36Z</time>
      </trkpt>
      <trkpt lat="37.546767000" lon="-3.834719000">
        <ele>1232.8</ele>
        <time>2020-10-14T12:48:39Z</time>
      </trkpt>
      <trkpt lat="37.546812000" lon="-3.834812000">
        <ele>1233.3</ele>
        <time>2020-10-14T12:48:42Z</time>
      </trkpt>
      <trkpt lat="37.546859000" lon="-3.834903000">
        <ele>1233.5</ele>
        <time>2020-10-14T12:48:45Z</time>
      </trkpt>
      <trkpt lat="37.546903000" lon="-3.834997000">
        <ele>1233.4</ele>
        <time>2020-10-14T12:48:48Z</time>
      </trkpt>
      <trkpt lat="37.546948000" lon="-3.835088000">
        <ele>1232.9</ele>
        <time>2020-10-14T12:48:51Z</time>
      </trkpt>
      <trkpt lat="37.546994000" lon="-3.835179000">
        <ele>1232.3</ele>
        <time>2020-10-14T12:48:54Z</time>
      </trkpt>
      <trkpt lat="37.547057000" lon="-3.835281000">
        <ele>1231.5</ele>
        <time>2020-10-14T12:48:58Z</time>
      </trkpt>
      <trkpt lat="37.547134000" lon="-3.835346000">
        <ele>1231.1</ele>
        <time>2020-10-14T12:49:02Z</time>
      </trkpt>
      <trkpt lat="37.547225000" lon="-3.835380000">
        <ele>1230.6</ele>
        <time>2020-10-14T12:49:06Z</time>
      </trkpt>
      <trkpt lat="37.547323000" lon="-3.835386000">
        <ele>1230.3</ele>
        <time>2020-10-14T12:49:10Z</time>
      </trkpt>
      <trkpt lat="37.547421000" lon="-3.835355000">
        <ele>1230.0</ele>
        <time>2020-10-14T12:49:14Z</time>
      </trkpt>
      <trkpt lat="37.547516000" lon="-3.835300000">
        <ele>1229.9</ele>
        <time>2020-10-14T12:49:17Z</time>
      </trkpt>
      <trkpt lat="37.547596000" lon="-3.835259000">
        <ele>1229.9</ele>
        <time>2020-10-14T12:49:19Z</time>
      </trkpt>
      <trkpt lat="37.547682000" lon="-3.835254000">
        <ele>1230.0</ele>
        <time>2020-10-14T12:49:29Z</time>
      </trkpt>
      <trkpt lat="37.547772000" lon="-3.835220000">
        <ele>1230.3</ele>
        <time>2020-10-14T12:49:33Z</time>
      </trkpt>
      <trkpt lat="37.547874000" lon="-3.835200000">
        <ele>1230.7</ele>
        <time>2020-10-14T12:49:36Z</time>
      </trkpt>
      <trkpt lat="37.547964000" lon="-3.835158000">
        <ele>1230.9</ele>
        <time>2020-10-14T12:49:38Z</time>
      </trkpt>
      <trkpt lat="37.548069000" lon="-3.835143000">
        <ele>1230.8</ele>
        <time>2020-10-14T12:49:40Z</time>
      </trkpt>
      <trkpt lat="37.548173000" lon="-3.835123000">
        <ele>1230.3</ele>
        <time>2020-10-14T12:49:42Z</time>
      </trkpt>
      <trkpt lat="37.548289000" lon="-3.835081000">
        <ele>1229.5</ele>
        <time>2020-10-14T12:49:44Z</time>
      </trkpt>
      <trkpt lat="37.548407000" lon="-3.835019000">
        <ele>1228.5</ele>
        <time>2020-10-14T12:49:46Z</time>
      </trkpt>
      <trkpt lat="37.548530000" lon="-3.834957000">
        <ele>1227.4</ele>
        <time>2020-10-14T12:49:48Z</time>
      </trkpt>
      <trkpt lat="37.548646000" lon="-3.834890000">
        <ele>1226.2</ele>
        <time>2020-10-14T12:49:50Z</time>
      </trkpt>
      <trkpt lat="37.548764000" lon="-3.834810000">
        <ele>1225.0</ele>
        <time>2020-10-14T12:49:52Z</time>
      </trkpt>
      <trkpt lat="37.548877000" lon="-3.834713000">
        <ele>1223.8</ele>
        <time>2020-10-14T12:49:54Z</time>
      </trkpt>
      <trkpt lat="37.548976000" lon="-3.834603000">
        <ele>1222.5</ele>
        <time>2020-10-14T12:49:56Z</time>
      </trkpt>
      <trkpt lat="37.549073000" lon="-3.834487000">
        <ele>1221.3</ele>
        <time>2020-10-14T12:49:58Z</time>
      </trkpt>
      <trkpt lat="37.549182000" lon="-3.834395000">
        <ele>1220.3</ele>
        <time>2020-10-14T12:50:00Z</time>
      </trkpt>
      <trkpt lat="37.549307000" lon="-3.834356000">
        <ele>1219.5</ele>
        <time>2020-10-14T12:50:02Z</time>
      </trkpt>
      <trkpt lat="37.549427000" lon="-3.834368000">
        <ele>1219.2</ele>
        <time>2020-10-14T12:50:04Z</time>
      </trkpt>
      <trkpt lat="37.549536000" lon="-3.834415000">
        <ele>1219.2</ele>
        <time>2020-10-14T12:50:06Z</time>
      </trkpt>
      <trkpt lat="37.549646000" lon="-3.834455000">
        <ele>1219.5</ele>
        <time>2020-10-14T12:50:08Z</time>
      </trkpt>
      <trkpt lat="37.549756000" lon="-3.834471000">
        <ele>1220.1</ele>
        <time>2020-10-14T12:50:10Z</time>
      </trkpt>
      <trkpt lat="37.549869000" lon="-3.834465000">
        <ele>1221.0</ele>
        <time>2020-10-14T12:50:12Z</time>
      </trkpt>
      <trkpt lat="37.549977000" lon="-3.834437000">
        <ele>1222.0</ele>
        <time>2020-10-14T12:50:14Z</time>
      </trkpt>
      <trkpt lat="37.550073000" lon="-3.834373000">
        <ele>1223.2</ele>
        <time>2020-10-14T12:50:16Z</time>
      </trkpt>
      <trkpt lat="37.550162000" lon="-3.834294000">
        <ele>1224.5</ele>
        <time>2020-10-14T12:50:18Z</time>
      </trkpt>
      <trkpt lat="37.550233000" lon="-3.834204000">
        <ele>1226.0</ele>
        <time>2020-10-14T12:50:20Z</time>
      </trkpt>
      <trkpt lat="37.550293000" lon="-3.834119000">
        <ele>1227.2</ele>
        <time>2020-10-14T12:50:22Z</time>
      </trkpt>
      <trkpt lat="37.550346000" lon="-3.834035000">
        <ele>1227.9</ele>
        <time>2020-10-14T12:50:24Z</time>
      </trkpt>
      <trkpt lat="37.550409000" lon="-3.833957000">
        <ele>1228.1</ele>
        <time>2020-10-14T12:50:26Z</time>
      </trkpt>
      <trkpt lat="37.550478000" lon="-3.833895000">
        <ele>1227.7</ele>
        <time>2020-10-14T12:50:28Z</time>
      </trkpt>
      <trkpt lat="37.550557000" lon="-3.833837000">
        <ele>1226.8</ele>
        <time>2020-10-14T12:50:30Z</time>
      </trkpt>
      <trkpt lat="37.550646000" lon="-3.833806000">
        <ele>1225.4</ele>
        <time>2020-10-14T12:50:32Z</time>
      </trkpt>
      <trkpt lat="37.550735000" lon="-3.833798000">
        <ele>1223.5</ele>
        <time>2020-10-14T12:50:34Z</time>
      </trkpt>
      <trkpt lat="37.550822000" lon="-3.833810000">
        <ele>1221.3</ele>
        <time>2020-10-14T12:50:38Z</time>
      </trkpt>
      <trkpt lat="37.550912000" lon="-3.833885000">
        <ele>1219.0</ele>
        <time>2020-10-14T12:51:08Z</time>
      </trkpt>
      <trkpt lat="37.550984000" lon="-3.833939000">
        <ele>1216.9</ele>
        <time>2020-10-14T12:51:10Z</time>
      </trkpt>
      <trkpt lat="37.551075000" lon="-3.834013000">
        <ele>1215.1</ele>
        <time>2020-10-14T12:51:12Z</time>
      </trkpt>
      <trkpt lat="37.551178000" lon="-3.834080000">
        <ele>1213.5</ele>
        <time>2020-10-14T12:51:14Z</time>
      </trkpt>
      <trkpt lat="37.551298000" lon="-3.834142000">
        <ele>1212.4</ele>
        <time>2020-10-14T12:51:16Z</time>
      </trkpt>
      <trkpt lat="37.551436000" lon="-3.834161000">
        <ele>1211.5</ele>
        <time>2020-10-14T12:51:18Z</time>
      </trkpt>
      <trkpt lat="37.551572000" lon="-3.834134000">
        <ele>1210.9</ele>
        <time>2020-10-14T12:51:20Z</time>
      </trkpt>
      <trkpt lat="37.551703000" lon="-3.834095000">
        <ele>1210.3</ele>
        <time>2020-10-14T12:51:22Z</time>
      </trkpt>
      <trkpt lat="37.551836000" lon="-3.834113000">
        <ele>1209.6</ele>
        <time>2020-10-14T12:51:24Z</time>
      </trkpt>
      <trkpt lat="37.551974000" lon="-3.834160000">
        <ele>1209.2</ele>
        <time>2020-10-14T12:51:26Z</time>
      </trkpt>
      <trkpt lat="37.552111000" lon="-3.834228000">
        <ele>1209.0</ele>
        <time>2020-10-14T12:51:28Z</time>
      </trkpt>
      <trkpt lat="37.552248000" lon="-3.834299000">
        <ele>1209.1</ele>
        <time>2020-10-14T12:51:30Z</time>
      </trkpt>
      <trkpt lat="37.552387000" lon="-3.834370000">
        <ele>1209.1</ele>
        <time>2020-10-14T12:51:32Z</time>
      </trkpt>
      <trkpt lat="37.552530000" lon="-3.834435000">
        <ele>1208.8</ele>
        <time>2020-10-14T12:51:34Z</time>
      </trkpt>
      <trkpt lat="37.552673000" lon="-3.834509000">
        <ele>1208.6</ele>
        <time>2020-10-14T12:51:36Z</time>
      </trkpt>
      <trkpt lat="37.552816000" lon="-3.834576000">
        <ele>1208.5</ele>
        <time>2020-10-14T12:51:38Z</time>
      </trkpt>
      <trkpt lat="37.552961000" lon="-3.834635000">
        <ele>1208.3</ele>
        <time>2020-10-14T12:51:40Z</time>
      </trkpt>
      <trkpt lat="37.553097000" lon="-3.834707000">
        <ele>1208.1</ele>
        <time>2020-10-14T12:51:42Z</time>
      </trkpt>
      <trkpt lat="37.553218000" lon="-3.834788000">
        <ele>1208.3</ele>
        <time>2020-10-14T12:51:44Z</time>
      </trkpt>
      <trkpt lat="37.553335000" lon="-3.834883000">
        <ele>1208.8</ele>
        <time>2020-10-14T12:51:46Z</time>
      </trkpt>
      <trkpt lat="37.553447000" lon="-3.834982000">
        <ele>1209.3</ele>
        <time>2020-10-14T12:51:48Z</time>
      </trkpt>
      <trkpt lat="37.553556000" lon="-3.835086000">
        <ele>1209.5</ele>
        <time>2020-10-14T12:51:50Z</time>
      </trkpt>
      <trkpt lat="37.553664000" lon="-3.835172000">
        <ele>1209.4</ele>
        <time>2020-10-14T12:51:52Z</time>
      </trkpt>
      <trkpt lat="37.553783000" lon="-3.835215000">
        <ele>1209.0</ele>
        <time>2020-10-14T12:51:54Z</time>
      </trkpt>
      <trkpt lat="37.553905000" lon="-3.835238000">
        <ele>1208.5</ele>
        <time>2020-10-14T12:51:56Z</time>
      </trkpt>
      <trkpt lat="37.554035000" lon="-3.835261000">
        <ele>1207.7</ele>
        <time>2020-10-14T12:51:58Z</time>
      </trkpt>
      <trkpt lat="37.554154000" lon="-3.835311000">
        <ele>1207.0</ele>
        <time>2020-10-14T12:52:00Z</time>
      </trkpt>
      <trkpt lat="37.554273000" lon="-3.835384000">
        <ele>1206.3</ele>
        <time>2020-10-14T12:52:02Z</time>
      </trkpt>
      <trkpt lat="37.554394000" lon="-3.835463000">
        <ele>1205.5</ele>
        <time>2020-10-14T12:52:04Z</time>
      </trkpt>
      <trkpt lat="37.554511000" lon="-3.835540000">
        <ele>1205.0</ele>
        <time>2020-10-14T12:52:06Z</time>
      </trkpt>
      <trkpt lat="37.554627000" lon="-3.835626000">
        <ele>1204.4</ele>
        <time>2020-10-14T12:52:08Z</time>
      </trkpt>
      <trkpt lat="37.554748000" lon="-3.835693000">
        <ele>1203.9</ele>
        <time>2020-10-14T12:52:10Z</time>
      </trkpt>
      <trkpt lat="37.554882000" lon="-3.835726000">
        <ele>1203.5</ele>
        <time>2020-10-14T12:52:12Z</time>
      </trkpt>
      <trkpt lat="37.555024000" lon="-3.835736000">
        <ele>1203.2</ele>
        <time>2020-10-14T12:52:14Z</time>
      </trkpt>
      <trkpt lat="37.555148000" lon="-3.835781000">
        <ele>1202.9</ele>
        <time>2020-10-14T12:52:16Z</time>
      </trkpt>
      <trkpt lat="37.555257000" lon="-3.835861000">
        <ele>1202.7</ele>
        <time>2020-10-14T12:52:18Z</time>
      </trkpt>
      <trkpt lat="37.555314000" lon="-3.836005000">
        <ele>1202.6</ele>
        <time>2020-10-14T12:52:20Z</time>
      </trkpt>
      <trkpt lat="37.555337000" lon="-3.836171000">
        <ele>1202.5</ele>
        <time>2020-10-14T12:52:22Z</time>
      </trkpt>
      <trkpt lat="37.555379000" lon="-3.836333000">
        <ele>1202.5</ele>
        <time>2020-10-14T12:52:24Z</time>
      </trkpt>
      <trkpt lat="37.555427000" lon="-3.836491000">
        <ele>1202.3</ele>
        <time>2020-10-14T12:52:26Z</time>
      </trkpt>
      <trkpt lat="37.555474000" lon="-3.836647000">
        <ele>1201.8</ele>
        <time>2020-10-14T12:52:28Z</time>
      </trkpt>
      <trkpt lat="37.555518000" lon="-3.836812000">
        <ele>1201.4</ele>
        <time>2020-10-14T12:52:30Z</time>
      </trkpt>
      <trkpt lat="37.555558000" lon="-3.836968000">
        <ele>1200.8</ele>
        <time>2020-10-14T12:52:32Z</time>
      </trkpt>
      <trkpt lat="37.555575000" lon="-3.837137000">
        <ele>1200.5</ele>
        <time>2020-10-14T12:52:34Z</time>
      </trkpt>
      <trkpt lat="37.555570000" lon="-3.837305000">
        <ele>1200.1</ele>
        <time>2020-10-14T12:52:36Z</time>
      </trkpt>
      <trkpt lat="37.555558000" lon="-3.837472000">
        <ele>1199.7</ele>
        <time>2020-10-14T12:52:38Z</time>
      </trkpt>
      <trkpt lat="37.555548000" lon="-3.837639000">
        <ele>1199.4</ele>
        <time>2020-10-14T12:52:40Z</time>
      </trkpt>
      <trkpt lat="37.555532000" lon="-3.837809000">
        <ele>1199.0</ele>
        <time>2020-10-14T12:52:42Z</time>
      </trkpt>
      <trkpt lat="37.555521000" lon="-3.837980000">
        <ele>1198.6</ele>
        <time>2020-10-14T12:52:44Z</time>
      </trkpt>
      <trkpt lat="37.555502000" lon="-3.838165000">
        <ele>1198.2</ele>
        <time>2020-10-14T12:52:46Z</time>
      </trkpt>
      <trkpt lat="37.555481000" lon="-3.838352000">
        <ele>1197.6</ele>
        <time>2020-10-14T12:52:48Z</time>
      </trkpt>
      <trkpt lat="37.555472000" lon="-3.838457000">
        <ele>1197.0</ele>
        <time>2020-10-14T12:52:49Z</time>
      </trkpt>
      <trkpt lat="37.555454000" lon="-3.838562000">
        <ele>1196.3</ele>
        <time>2020-10-14T12:52:50Z</time>
      </trkpt>
      <trkpt lat="37.555438000" lon="-3.838671000">
        <ele>1195.5</ele>
        <time>2020-10-14T12:52:51Z</time>
      </trkpt>
      <trkpt lat="37.555406000" lon="-3.838869000">
        <ele>1194.7</ele>
        <time>2020-10-14T12:52:53Z</time>
      </trkpt>
      <trkpt lat="37.555376000" lon="-3.839064000">
        <ele>1193.8</ele>
        <time>2020-10-14T12:52:55Z</time>
      </trkpt>
      <trkpt lat="37.555348000" lon="-3.839268000">
        <ele>1192.9</ele>
        <time>2020-10-14T12:52:57Z</time>
      </trkpt>
      <trkpt lat="37.555335000" lon="-3.839369000">
        <ele>1192.0</ele>
        <time>2020-10-14T12:52:58Z</time>
      </trkpt>
      <trkpt lat="37.555326000" lon="-3.839482000">
        <ele>1191.1</ele>
        <time>2020-10-14T12:52:59Z</time>
      </trkpt>
      <trkpt lat="37.555315000" lon="-3.839591000">
        <ele>1190.2</ele>
        <time>2020-10-14T12:53:00Z</time>
      </trkpt>
      <trkpt lat="37.555303000" lon="-3.839702000">
        <ele>1189.5</ele>
        <time>2020-10-14T12:53:01Z</time>
      </trkpt>
      <trkpt lat="37.555293000" lon="-3.839807000">
        <ele>1189.1</ele>
        <time>2020-10-14T12:53:02Z</time>
      </trkpt>
      <trkpt lat="37.555283000" lon="-3.839911000">
        <ele>1188.7</ele>
        <time>2020-10-14T12:53:03Z</time>
      </trkpt>
      <trkpt lat="37.555278000" lon="-3.840019000">
        <ele>1188.5</ele>
        <time>2020-10-14T12:53:04Z</time>
      </trkpt>
      <trkpt lat="37.555275000" lon="-3.840124000">
        <ele>1188.2</ele>
        <time>2020-10-14T12:53:05Z</time>
      </trkpt>
      <trkpt lat="37.555272000" lon="-3.840230000">
        <ele>1187.9</ele>
        <time>2020-10-14T12:53:06Z</time>
      </trkpt>
      <trkpt lat="37.555267000" lon="-3.840340000">
        <ele>1187.6</ele>
        <time>2020-10-14T12:53:07Z</time>
      </trkpt>
      <trkpt lat="37.555264000" lon="-3.840451000">
        <ele>1187.3</ele>
        <time>2020-10-14T12:53:08Z</time>
      </trkpt>
      <trkpt lat="37.555268000" lon="-3.840560000">
        <ele>1186.8</ele>
        <time>2020-10-14T12:53:09Z</time>
      </trkpt>
      <trkpt lat="37.555268000" lon="-3.840673000">
        <ele>1186.4</ele>
        <time>2020-10-14T12:53:10Z</time>
      </trkpt>
      <trkpt lat="37.555268000" lon="-3.840780000">
        <ele>1185.8</ele>
        <time>2020-10-14T12:53:11Z</time>
      </trkpt>
      <trkpt lat="37.555270000" lon="-3.840892000">
        <ele>1185.2</ele>
        <time>2020-10-14T12:53:12Z</time>
      </trkpt>
      <trkpt lat="37.555270000" lon="-3.841002000">
        <ele>1184.5</ele>
        <time>2020-10-14T12:53:13Z</time>
      </trkpt>
      <trkpt lat="37.555272000" lon="-3.841112000">
        <ele>1183.7</ele>
        <time>2020-10-14T12:53:14Z</time>
      </trkpt>
      <trkpt lat="37.555271000" lon="-3.841220000">
        <ele>1182.9</ele>
        <time>2020-10-14T12:53:15Z</time>
      </trkpt>
      <trkpt lat="37.555269000" lon="-3.841328000">
        <ele>1182.0</ele>
        <time>2020-10-14T12:53:16Z</time>
      </trkpt>
      <trkpt lat="37.555271000" lon="-3.841433000">
        <ele>1181.0</ele>
        <time>2020-10-14T12:53:17Z</time>
      </trkpt>
      <trkpt lat="37.555263000" lon="-3.841643000">
        <ele>1179.9</ele>
        <time>2020-10-14T12:53:19Z</time>
      </trkpt>
      <trkpt lat="37.555251000" lon="-3.841753000">
        <ele>1178.7</ele>
        <time>2020-10-14T12:53:20Z</time>
      </trkpt>
      <trkpt lat="37.555238000" lon="-3.841859000">
        <ele>1177.5</ele>
        <time>2020-10-14T12:53:21Z</time>
      </trkpt>
      <trkpt lat="37.555219000" lon="-3.841971000">
        <ele>1176.3</ele>
        <time>2020-10-14T12:53:22Z</time>
      </trkpt>
      <trkpt lat="37.555202000" lon="-3.842082000">
        <ele>1175.2</ele>
        <time>2020-10-14T12:53:23Z</time>
      </trkpt>
      <trkpt lat="37.555185000" lon="-3.842189000">
        <ele>1174.2</ele>
        <time>2020-10-14T12:53:24Z</time>
      </trkpt>
      <trkpt lat="37.555168000" lon="-3.842299000">
        <ele>1173.4</ele>
        <time>2020-10-14T12:53:25Z</time>
      </trkpt>
      <trkpt lat="37.555152000" lon="-3.842415000">
        <ele>1172.7</ele>
        <time>2020-10-14T12:53:26Z</time>
      </trkpt>
      <trkpt lat="37.555134000" lon="-3.842526000">
        <ele>1172.2</ele>
        <time>2020-10-14T12:53:27Z</time>
      </trkpt>
      <trkpt lat="37.555127000" lon="-3.842639000">
        <ele>1171.7</ele>
        <time>2020-10-14T12:53:28Z</time>
      </trkpt>
      <trkpt lat="37.555121000" lon="-3.842747000">
        <ele>1171.4</ele>
        <time>2020-10-14T12:53:29Z</time>
      </trkpt>
      <trkpt lat="37.555121000" lon="-3.842851000">
        <ele>1171.0</ele>
        <time>2020-10-14T12:53:30Z</time>
      </trkpt>
      <trkpt lat="37.555118000" lon="-3.842965000">
        <ele>1170.5</ele>
        <time>2020-10-14T12:53:31Z</time>
      </trkpt>
      <trkpt lat="37.555112000" lon="-3.843076000">
        <ele>1169.7</ele>
        <time>2020-10-14T12:53:32Z</time>
      </trkpt>
      <trkpt lat="37.555105000" lon="-3.843186000">
        <ele>1168.9</ele>
        <time>2020-10-14T12:53:33Z</time>
      </trkpt>
      <trkpt lat="37.555093000" lon="-3.843294000">
        <ele>1168.1</ele>
        <time>2020-10-14T12:53:34Z</time>
      </trkpt>
      <trkpt lat="37.555081000" lon="-3.843401000">
        <ele>1167.3</ele>
        <time>2020-10-14T12:53:35Z</time>
      </trkpt>
      <trkpt lat="37.555056000" lon="-3.843591000">
        <ele>1166.5</ele>
        <time>2020-10-14T12:53:37Z</time>
      </trkpt>
      <trkpt lat="37.555034000" lon="-3.843768000">
        <ele>1165.7</ele>
        <time>2020-10-14T12:53:39Z</time>
      </trkpt>
      <trkpt lat="37.555019000" lon="-3.843928000">
        <ele>1165.0</ele>
        <time>2020-10-14T12:53:41Z</time>
      </trkpt>
      <trkpt lat="37.555053000" lon="-3.844075000">
        <ele>1164.5</ele>
        <time>2020-10-14T12:53:43Z</time>
      </trkpt>
      <trkpt lat="37.555105000" lon="-3.844215000">
        <ele>1163.9</ele>
        <time>2020-10-14T12:53:45Z</time>
      </trkpt>
      <trkpt lat="37.555178000" lon="-3.844341000">
        <ele>1163.5</ele>
        <time>2020-10-14T12:53:47Z</time>
      </trkpt>
      <trkpt lat="37.555276000" lon="-3.844450000">
        <ele>1163.4</ele>
        <time>2020-10-14T12:53:49Z</time>
      </trkpt>
      <trkpt lat="37.555395000" lon="-3.844531000">
        <ele>1163.5</ele>
        <time>2020-10-14T12:53:51Z</time>
      </trkpt>
      <trkpt lat="37.555517000" lon="-3.844601000">
        <ele>1163.7</ele>
        <time>2020-10-14T12:53:53Z</time>
      </trkpt>
      <trkpt lat="37.555650000" lon="-3.844675000">
        <ele>1163.8</ele>
        <time>2020-10-14T12:53:55Z</time>
      </trkpt>
      <trkpt lat="37.555786000" lon="-3.844753000">
        <ele>1163.6</ele>
        <time>2020-10-14T12:53:57Z</time>
      </trkpt>
      <trkpt lat="37.555906000" lon="-3.844858000">
        <ele>1163.3</ele>
        <time>2020-10-14T12:53:59Z</time>
      </trkpt>
      <trkpt lat="37.555992000" lon="-3.845011000">
        <ele>1162.9</ele>
        <time>2020-10-14T12:54:01Z</time>
      </trkpt>
      <trkpt lat="37.556026000" lon="-3.845105000">
        <ele>1162.4</ele>
        <time>2020-10-14T12:54:02Z</time>
      </trkpt>
      <trkpt lat="37.556069000" lon="-3.845294000">
        <ele>1161.7</ele>
        <time>2020-10-14T12:54:04Z</time>
      </trkpt>
      <trkpt lat="37.556116000" lon="-3.845493000">
        <ele>1161.3</ele>
        <time>2020-10-14T12:54:06Z</time>
      </trkpt>
      <trkpt lat="37.556139000" lon="-3.845595000">
        <ele>1161.0</ele>
        <time>2020-10-14T12:54:07Z</time>
      </trkpt>
      <trkpt lat="37.556160000" lon="-3.845697000">
        <ele>1160.8</ele>
        <time>2020-10-14T12:54:08Z</time>
      </trkpt>
      <trkpt lat="37.556181000" lon="-3.845799000">
        <ele>1160.7</ele>
        <time>2020-10-14T12:54:09Z</time>
      </trkpt>
      <trkpt lat="37.556202000" lon="-3.845900000">
        <ele>1160.6</ele>
        <time>2020-10-14T12:54:10Z</time>
      </trkpt>
      <trkpt lat="37.556242000" lon="-3.846094000">
        <ele>1160.5</ele>
        <time>2020-10-14T12:54:12Z</time>
      </trkpt>
      <trkpt lat="37.556277000" lon="-3.846273000">
        <ele>1160.5</ele>
        <time>2020-10-14T12:54:14Z</time>
      </trkpt>
      <trkpt lat="37.556317000" lon="-3.846431000">
        <ele>1160.5</ele>
        <time>2020-10-14T12:54:16Z</time>
      </trkpt>
      <trkpt lat="37.556366000" lon="-3.846586000">
        <ele>1160.5</ele>
        <time>2020-10-14T12:54:18Z</time>
      </trkpt>
      <trkpt lat="37.556424000" lon="-3.846732000">
        <ele>1160.6</ele>
        <time>2020-10-14T12:54:20Z</time>
      </trkpt>
      <trkpt lat="37.556478000" lon="-3.846881000">
        <ele>1160.8</ele>
        <time>2020-10-14T12:54:22Z</time>
      </trkpt>
      <trkpt lat="37.556528000" lon="-3.847021000">
        <ele>1160.8</ele>
        <time>2020-10-14T12:54:24Z</time>
      </trkpt>
      <trkpt lat="37.556575000" lon="-3.847148000">
        <ele>1160.6</ele>
        <time>2020-10-14T12:54:26Z</time>
      </trkpt>
      <trkpt lat="37.556615000" lon="-3.847256000">
        <ele>1160.2</ele>
        <time>2020-10-14T12:54:28Z</time>
      </trkpt>
      <trkpt lat="37.556656000" lon="-3.847353000">
        <ele>1159.6</ele>
        <time>2020-10-14T12:54:31Z</time>
      </trkpt>
      <trkpt lat="37.556678000" lon="-3.847455000">
        <ele>1158.9</ele>
        <time>2020-10-14T12:55:11Z</time>
      </trkpt>
      <trkpt lat="37.556692000" lon="-3.847578000">
        <ele>1158.4</ele>
        <time>2020-10-14T12:55:15Z</time>
      </trkpt>
      <trkpt lat="37.556705000" lon="-3.847682000">
        <ele>1157.9</ele>
        <time>2020-10-14T12:55:18Z</time>
      </trkpt>
      <trkpt lat="37.556698000" lon="-3.847801000">
        <ele>1157.3</ele>
        <time>2020-10-14T12:55:21Z</time>
      </trkpt>
      <trkpt lat="37.556691000" lon="-3.847908000">
        <ele>1156.5</ele>
        <time>2020-10-14T12:55:23Z</time>
      </trkpt>
      <trkpt lat="37.556677000" lon="-3.848054000">
        <ele>1155.5</ele>
        <time>2020-10-14T12:55:25Z</time>
      </trkpt>
      <trkpt lat="37.556669000" lon="-3.848200000">
        <ele>1154.6</ele>
        <time>2020-10-14T12:55:27Z</time>
      </trkpt>
      <trkpt lat="37.556657000" lon="-3.848354000">
        <ele>1154.0</ele>
        <time>2020-10-14T12:55:29Z</time>
      </trkpt>
      <trkpt lat="37.556658000" lon="-3.848503000">
        <ele>1153.5</ele>
        <time>2020-10-14T12:55:31Z</time>
      </trkpt>
      <trkpt lat="37.556674000" lon="-3.848665000">
        <ele>1153.4</ele>
        <time>2020-10-14T12:55:33Z</time>
      </trkpt>
      <trkpt lat="37.556720000" lon="-3.848848000">
        <ele>1153.5</ele>
        <time>2020-10-14T12:55:35Z</time>
      </trkpt>
      <trkpt lat="37.556779000" lon="-3.849027000">
        <ele>1153.6</ele>
        <time>2020-10-14T12:55:37Z</time>
      </trkpt>
      <trkpt lat="37.556837000" lon="-3.849210000">
        <ele>1153.4</ele>
        <time>2020-10-14T12:55:39Z</time>
      </trkpt>
      <trkpt lat="37.556870000" lon="-3.849305000">
        <ele>1152.9</ele>
        <time>2020-10-14T12:55:40Z</time>
      </trkpt>
      <trkpt lat="37.556932000" lon="-3.849480000">
        <ele>1152.5</ele>
        <time>2020-10-14T12:55:42Z</time>
      </trkpt>
      <trkpt lat="37.556990000" lon="-3.849654000">
        <ele>1152.0</ele>
        <time>2020-10-14T12:55:44Z</time>
      </trkpt>
      <trkpt lat="37.557044000" lon="-3.849827000">
        <ele>1151.5</ele>
        <time>2020-10-14T12:55:46Z</time>
      </trkpt>
      <trkpt lat="37.557098000" lon="-3.849993000">
        <ele>1150.9</ele>
        <time>2020-10-14T12:55:48Z</time>
      </trkpt>
      <trkpt lat="37.557126000" lon="-3.850165000">
        <ele>1150.0</ele>
        <time>2020-10-14T12:55:50Z</time>
      </trkpt>
      <trkpt lat="37.557128000" lon="-3.850351000">
        <ele>1148.9</ele>
        <time>2020-10-14T12:55:52Z</time>
      </trkpt>
      <trkpt lat="37.557113000" lon="-3.850548000">
        <ele>1147.6</ele>
        <time>2020-10-14T12:55:54Z</time>
      </trkpt>
      <trkpt lat="37.557094000" lon="-3.850657000">
        <ele>1146.0</ele>
        <time>2020-10-14T12:55:55Z</time>
      </trkpt>
      <trkpt lat="37.557083000" lon="-3.850762000">
        <ele>1144.3</ele>
        <time>2020-10-14T12:55:56Z</time>
      </trkpt>
      <trkpt lat="37.557066000" lon="-3.850866000">
        <ele>1142.9</ele>
        <time>2020-10-14T12:55:57Z</time>
      </trkpt>
      <trkpt lat="37.557051000" lon="-3.850970000">
        <ele>1141.6</ele>
        <time>2020-10-14T12:55:58Z</time>
      </trkpt>
      <trkpt lat="37.557036000" lon="-3.851076000">
        <ele>1140.5</ele>
        <time>2020-10-14T12:55:59Z</time>
      </trkpt>
      <trkpt lat="37.557023000" lon="-3.851185000">
        <ele>1139.7</ele>
        <time>2020-10-14T12:56:00Z</time>
      </trkpt>
      <trkpt lat="37.557030000" lon="-3.851387000">
        <ele>1139.1</ele>
        <time>2020-10-14T12:56:02Z</time>
      </trkpt>
      <trkpt lat="37.557058000" lon="-3.851578000">
        <ele>1138.5</ele>
        <time>2020-10-14T12:56:04Z</time>
      </trkpt>
      <trkpt lat="37.557095000" lon="-3.851751000">
        <ele>1138.1</ele>
        <time>2020-10-14T12:56:06Z</time>
      </trkpt>
      <trkpt lat="37.557140000" lon="-3.851895000">
        <ele>1137.7</ele>
        <time>2020-10-14T12:56:08Z</time>
      </trkpt>
      <trkpt lat="37.557190000" lon="-3.852012000">
        <ele>1137.5</ele>
        <time>2020-10-14T12:56:10Z</time>
      </trkpt>
      <trkpt lat="37.557230000" lon="-3.852108000">
        <ele>1137.4</ele>
        <time>2020-10-14T12:56:12Z</time>
      </trkpt>
      <trkpt lat="37.557285000" lon="-3.852225000">
        <ele>1137.4</ele>
        <time>2020-10-14T12:56:15Z</time>
      </trkpt>
      <trkpt lat="37.557318000" lon="-3.852337000">
        <ele>1137.4</ele>
        <time>2020-10-14T12:56:18Z</time>
      </trkpt>
      <trkpt lat="37.557367000" lon="-3.852421000">
        <ele>1137.5</ele>
        <time>2020-10-14T12:56:21Z</time>
      </trkpt>
      <trkpt lat="37.557412000" lon="-3.852507000">
        <ele>1137.5</ele>
        <time>2020-10-14T12:56:24Z</time>
      </trkpt>
      <trkpt lat="37.557451000" lon="-3.852615000">
        <ele>1137.7</ele>
        <time>2020-10-14T12:56:28Z</time>
      </trkpt>
      <trkpt lat="37.557491000" lon="-3.852707000">
        <ele>1137.8</ele>
        <time>2020-10-14T12:56:32Z</time>
      </trkpt>
      <trkpt lat="37.557550000" lon="-3.852784000">
        <ele>1138.0</ele>
        <time>2020-10-14T12:56:36Z</time>
      </trkpt>
      <trkpt lat="37.557610000" lon="-3.852865000">
        <ele>1138.1</ele>
        <time>2020-10-14T12:56:41Z</time>
      </trkpt>
      <trkpt lat="37.557688000" lon="-3.852949000">
        <ele>1138.4</ele>
        <time>2020-10-14T12:56:46Z</time>
      </trkpt>
      <trkpt lat="37.557767000" lon="-3.853017000">
        <ele>1138.7</ele>
        <time>2020-10-14T12:56:51Z</time>
      </trkpt>
      <trkpt lat="37.557826000" lon="-3.853109000">
        <ele>1139.3</ele>
        <time>2020-10-14T12:56:57Z</time>
      </trkpt>
      <trkpt lat="37.557882000" lon="-3.853188000">
        <ele>1140.0</ele>
        <time>2020-10-14T12:57:02Z</time>
      </trkpt>
      <trkpt lat="37.557910000" lon="-3.853288000">
        <ele>1140.8</ele>
        <time>2020-10-14T12:57:07Z</time>
      </trkpt>
      <trkpt lat="37.557970000" lon="-3.853379000">
        <ele>1141.8</ele>
        <time>2020-10-14T12:57:13Z</time>
      </trkpt>
      <trkpt lat="37.558018000" lon="-3.853464000">
        <ele>1142.8</ele>
        <time>2020-10-14T12:57:18Z</time>
      </trkpt>
      <trkpt lat="37.558090000" lon="-3.853518000">
        <ele>1143.7</ele>
        <time>2020-10-14T12:57:23Z</time>
      </trkpt>
      <trkpt lat="37.558185000" lon="-3.853560000">
        <ele>1144.8</ele>
        <time>2020-10-14T12:57:28Z</time>
      </trkpt>
      <trkpt lat="37.558277000" lon="-3.853596000">
        <ele>1146.0</ele>
        <time>2020-10-14T12:57:33Z</time>
      </trkpt>
      <trkpt lat="37.558372000" lon="-3.853619000">
        <ele>1147.3</ele>
        <time>2020-10-14T12:57:38Z</time>
      </trkpt>
      <trkpt lat="37.558467000" lon="-3.853654000">
        <ele>1148.5</ele>
        <time>2020-10-14T12:57:43Z</time>
      </trkpt>
      <trkpt lat="37.558563000" lon="-3.853687000">
        <ele>1149.7</ele>
        <time>2020-10-14T12:57:48Z</time>
      </trkpt>
      <trkpt lat="37.558650000" lon="-3.853713000">
        <ele>1150.8</ele>
        <time>2020-10-14T12:57:53Z</time>
      </trkpt>
      <trkpt lat="37.558741000" lon="-3.853743000">
        <ele>1151.9</ele>
        <time>2020-10-14T12:57:58Z</time>
      </trkpt>
      <trkpt lat="37.558819000" lon="-3.853796000">
        <ele>1152.9</ele>
        <time>2020-10-14T12:58:03Z</time>
      </trkpt>
      <trkpt lat="37.558898000" lon="-3.853856000">
        <ele>1153.8</ele>
        <time>2020-10-14T12:58:08Z</time>
      </trkpt>
      <trkpt lat="37.558969000" lon="-3.853929000">
        <ele>1154.8</ele>
        <time>2020-10-14T12:58:13Z</time>
      </trkpt>
      <trkpt lat="37.558998000" lon="-3.854040000">
        <ele>1155.6</ele>
        <time>2020-10-14T12:58:18Z</time>
      </trkpt>
      <trkpt lat="37.559043000" lon="-3.854148000">
        <ele>1156.5</ele>
        <time>2020-10-14T12:58:23Z</time>
      </trkpt>
      <trkpt lat="37.559067000" lon="-3.854268000">
        <ele>1157.2</ele>
        <time>2020-10-14T12:58:29Z</time>
      </trkpt>
      <trkpt lat="37.559099000" lon="-3.854363000">
        <ele>1158.2</ele>
        <time>2020-10-14T12:58:34Z</time>
      </trkpt>
      <trkpt lat="37.559140000" lon="-3.854458000">
        <ele>1159.1</ele>
        <time>2020-10-14T12:58:39Z</time>
      </trkpt>
      <trkpt lat="37.559154000" lon="-3.854562000">
        <ele>1160.0</ele>
        <time>2020-10-14T12:58:44Z</time>
      </trkpt>
      <trkpt lat="37.559201000" lon="-3.854654000">
        <ele>1160.7</ele>
        <time>2020-10-14T12:58:49Z</time>
      </trkpt>
      <trkpt lat="37.559218000" lon="-3.854762000">
        <ele>1161.5</ele>
        <time>2020-10-14T12:58:54Z</time>
      </trkpt>
      <trkpt lat="37.559269000" lon="-3.854863000">
        <ele>1162.3</ele>
        <time>2020-10-14T12:59:00Z</time>
      </trkpt>
      <trkpt lat="37.559280000" lon="-3.854971000">
        <ele>1162.9</ele>
        <time>2020-10-14T12:59:05Z</time>
      </trkpt>
      <trkpt lat="37.559320000" lon="-3.855067000">
        <ele>1163.5</ele>
        <time>2020-10-14T12:59:10Z</time>
      </trkpt>
      <trkpt lat="37.559302000" lon="-3.855175000">
        <ele>1164.4</ele>
        <time>2020-10-14T12:59:15Z</time>
      </trkpt>
      <trkpt lat="37.559323000" lon="-3.855282000">
        <ele>1165.1</ele>
        <time>2020-10-14T12:59:20Z</time>
      </trkpt>
      <trkpt lat="37.559350000" lon="-3.855390000">
        <ele>1165.9</ele>
        <time>2020-10-14T12:59:25Z</time>
      </trkpt>
      <trkpt lat="37.559349000" lon="-3.855512000">
        <ele>1166.5</ele>
        <time>2020-10-14T12:59:31Z</time>
      </trkpt>
      <trkpt lat="37.559376000" lon="-3.855625000">
        <ele>1167.3</ele>
        <time>2020-10-14T12:59:37Z</time>
      </trkpt>
      <trkpt lat="37.559381000" lon="-3.855740000">
        <ele>1168.0</ele>
        <time>2020-10-14T12:59:43Z</time>
      </trkpt>
      <trkpt lat="37.559398000" lon="-3.855862000">
        <ele>1168.9</ele>
        <time>2020-10-14T12:59:48Z</time>
      </trkpt>
      <trkpt lat="37.559419000" lon="-3.855962000">
        <ele>1169.6</ele>
        <time>2020-10-14T12:59:52Z</time>
      </trkpt>
      <trkpt lat="37.559418000" lon="-3.856070000">
        <ele>1170.3</ele>
        <time>2020-10-14T12:59:57Z</time>
      </trkpt>
      <trkpt lat="37.559419000" lon="-3.856185000">
        <ele>1171.0</ele>
        <time>2020-10-14T13:00:02Z</time>
      </trkpt>
      <trkpt lat="37.559438000" lon="-3.856288000">
        <ele>1171.6</ele>
        <time>2020-10-14T13:00:07Z</time>
      </trkpt>
      <trkpt lat="37.559418000" lon="-3.856407000">
        <ele>1172.3</ele>
        <time>2020-10-14T13:00:13Z</time>
      </trkpt>
      <trkpt lat="37.559418000" lon="-3.856523000">
        <ele>1172.9</ele>
        <time>2020-10-14T13:00:18Z</time>
      </trkpt>
      <trkpt lat="37.559411000" lon="-3.856631000">
        <ele>1173.5</ele>
        <time>2020-10-14T13:00:23Z</time>
      </trkpt>
      <trkpt lat="37.559409000" lon="-3.856738000">
        <ele>1174.0</ele>
        <time>2020-10-14T13:00:28Z</time>
      </trkpt>
      <trkpt lat="37.559393000" lon="-3.856849000">
        <ele>1174.5</ele>
        <time>2020-10-14T13:00:33Z</time>
      </trkpt>
      <trkpt lat="37.559397000" lon="-3.856972000">
        <ele>1174.7</ele>
        <time>2020-10-14T13:00:38Z</time>
      </trkpt>
      <trkpt lat="37.559406000" lon="-3.857084000">
        <ele>1175.0</ele>
        <time>2020-10-14T13:00:43Z</time>
      </trkpt>
      <trkpt lat="37.559418000" lon="-3.857185000">
        <ele>1175.5</ele>
        <time>2020-10-14T13:00:47Z</time>
      </trkpt>
      <trkpt lat="37.559421000" lon="-3.857291000">
        <ele>1175.9</ele>
        <time>2020-10-14T13:00:51Z</time>
      </trkpt>
      <trkpt lat="37.559417000" lon="-3.857417000">
        <ele>1176.5</ele>
        <time>2020-10-14T13:00:55Z</time>
      </trkpt>
      <trkpt lat="37.559413000" lon="-3.857535000">
        <ele>1177.0</ele>
        <time>2020-10-14T13:00:59Z</time>
      </trkpt>
      <trkpt lat="37.559422000" lon="-3.857655000">
        <ele>1177.5</ele>
        <time>2020-10-14T13:01:03Z</time>
      </trkpt>
      <trkpt lat="37.559429000" lon="-3.857764000">
        <ele>1177.8</ele>
        <time>2020-10-14T13:01:07Z</time>
      </trkpt>
      <trkpt lat="37.559447000" lon="-3.857885000">
        <ele>1178.1</ele>
        <time>2020-10-14T13:01:12Z</time>
      </trkpt>
      <trkpt lat="37.559463000" lon="-3.858012000">
        <ele>1178.3</ele>
        <time>2020-10-14T13:01:17Z</time>
      </trkpt>
      <trkpt lat="37.559482000" lon="-3.858116000">
        <ele>1178.3</ele>
        <time>2020-10-14T13:01:21Z</time>
      </trkpt>
      <trkpt lat="37.559510000" lon="-3.858229000">
        <ele>1178.2</ele>
        <time>2020-10-14T13:01:26Z</time>
      </trkpt>
      <trkpt lat="37.559556000" lon="-3.858334000">
        <ele>1177.9</ele>
        <time>2020-10-14T13:01:30Z</time>
      </trkpt>
      <trkpt lat="37.559600000" lon="-3.858447000">
        <ele>1177.4</ele>
        <time>2020-10-14T13:01:34Z</time>
      </trkpt>
      <trkpt lat="37.559639000" lon="-3.858550000">
        <ele>1176.5</ele>
        <time>2020-10-14T13:01:38Z</time>
      </trkpt>
      <trkpt lat="37.559688000" lon="-3.858672000">
        <ele>1175.5</ele>
        <time>2020-10-14T13:01:42Z</time>
      </trkpt>
      <trkpt lat="37.559737000" lon="-3.858803000">
        <ele>1174.3</ele>
        <time>2020-10-14T13:01:45Z</time>
      </trkpt>
      <trkpt lat="37.559785000" lon="-3.858924000">
        <ele>1173.2</ele>
        <time>2020-10-14T13:01:47Z</time>
      </trkpt>
      <trkpt lat="37.559837000" lon="-3.859049000">
        <ele>1172.0</ele>
        <time>2020-10-14T13:01:49Z</time>
      </trkpt>
      <trkpt lat="37.559890000" lon="-3.859181000">
        <ele>1170.5</ele>
        <time>2020-10-14T13:01:51Z</time>
      </trkpt>
      <trkpt lat="37.559947000" lon="-3.859327000">
        <ele>1168.9</ele>
        <time>2020-10-14T13:01:53Z</time>
      </trkpt>
      <trkpt lat="37.560007000" lon="-3.859479000">
        <ele>1167.3</ele>
        <time>2020-10-14T13:01:55Z</time>
      </trkpt>
      <trkpt lat="37.560065000" lon="-3.859639000">
        <ele>1165.5</ele>
        <time>2020-10-14T13:01:57Z</time>
      </trkpt>
      <trkpt lat="37.560095000" lon="-3.859804000">
        <ele>1163.8</ele>
        <time>2020-10-14T13:01:59Z</time>
      </trkpt>
      <trkpt lat="37.560101000" lon="-3.859986000">
        <ele>1162.1</ele>
        <time>2020-10-14T13:02:01Z</time>
      </trkpt>
      <trkpt lat="37.560089000" lon="-3.860176000">
        <ele>1160.5</ele>
        <time>2020-10-14T13:02:03Z</time>
      </trkpt>
      <trkpt lat="37.560054000" lon="-3.860361000">
        <ele>1159.2</ele>
        <time>2020-10-14T13:02:05Z</time>
      </trkpt>
      <trkpt lat="37.560022000" lon="-3.860547000">
        <ele>1157.9</ele>
        <time>2020-10-14T13:02:07Z</time>
      </trkpt>
      <trkpt lat="37.559998000" lon="-3.860731000">
        <ele>1156.5</ele>
        <time>2020-10-14T13:02:09Z</time>
      </trkpt>
      <trkpt lat="37.559976000" lon="-3.860930000">
        <ele>1155.3</ele>
        <time>2020-10-14T13:02:11Z</time>
      </trkpt>
      <trkpt lat="37.559965000" lon="-3.861132000">
        <ele>1154.3</ele>
        <time>2020-10-14T13:02:13Z</time>
      </trkpt>
      <trkpt lat="37.559960000" lon="-3.861235000">
        <ele>1153.5</ele>
        <time>2020-10-14T13:02:14Z</time>
      </trkpt>
      <trkpt lat="37.559947000" lon="-3.861431000">
        <ele>1152.8</ele>
        <time>2020-10-14T13:02:16Z</time>
      </trkpt>
      <trkpt lat="37.559941000" lon="-3.861622000">
        <ele>1152.4</ele>
        <time>2020-10-14T13:02:18Z</time>
      </trkpt>
      <trkpt lat="37.559936000" lon="-3.861724000">
        <ele>1152.1</ele>
        <time>2020-10-14T13:02:19Z</time>
      </trkpt>
      <trkpt lat="37.559928000" lon="-3.861830000">
        <ele>1152.1</ele>
        <time>2020-10-14T13:02:20Z</time>
      </trkpt>
      <trkpt lat="37.559919000" lon="-3.861940000">
        <ele>1152.4</ele>
        <time>2020-10-14T13:02:21Z</time>
      </trkpt>
      <trkpt lat="37.559908000" lon="-3.862048000">
        <ele>1152.6</ele>
        <time>2020-10-14T13:02:22Z</time>
      </trkpt>
      <trkpt lat="37.559902000" lon="-3.862154000">
        <ele>1152.8</ele>
        <time>2020-10-14T13:02:23Z</time>
      </trkpt>
      <trkpt lat="37.559886000" lon="-3.862353000">
        <ele>1152.8</ele>
        <time>2020-10-14T13:02:25Z</time>
      </trkpt>
      <trkpt lat="37.559875000" lon="-3.862537000">
        <ele>1152.6</ele>
        <time>2020-10-14T13:02:27Z</time>
      </trkpt>
      <trkpt lat="37.559895000" lon="-3.862719000">
        <ele>1152.3</ele>
        <time>2020-10-14T13:02:29Z</time>
      </trkpt>
      <trkpt lat="37.559953000" lon="-3.862875000">
        <ele>1151.5</ele>
        <time>2020-10-14T13:02:31Z</time>
      </trkpt>
      <trkpt lat="37.560033000" lon="-3.863021000">
        <ele>1150.5</ele>
        <time>2020-10-14T13:02:33Z</time>
      </trkpt>
      <trkpt lat="37.560106000" lon="-3.863174000">
        <ele>1149.4</ele>
        <time>2020-10-14T13:02:35Z</time>
      </trkpt>
      <trkpt lat="37.560158000" lon="-3.863349000">
        <ele>1148.4</ele>
        <time>2020-10-14T13:02:37Z</time>
      </trkpt>
      <trkpt lat="37.560204000" lon="-3.863519000">
        <ele>1147.3</ele>
        <time>2020-10-14T13:02:39Z</time>
      </trkpt>
      <trkpt lat="37.560275000" lon="-3.863658000">
        <ele>1145.9</ele>
        <time>2020-10-14T13:02:41Z</time>
      </trkpt>
      <trkpt lat="37.560352000" lon="-3.863785000">
        <ele>1144.5</ele>
        <time>2020-10-14T13:02:43Z</time>
      </trkpt>
      <trkpt lat="37.560410000" lon="-3.863893000">
        <ele>1142.9</ele>
        <time>2020-10-14T13:02:45Z</time>
      </trkpt>
      <trkpt lat="37.560450000" lon="-3.863982000">
        <ele>1141.4</ele>
        <time>2020-10-14T13:02:48Z</time>
      </trkpt>
      <trkpt lat="37.560515000" lon="-3.864086000">
        <ele>1139.8</ele>
        <time>2020-10-14T13:02:51Z</time>
      </trkpt>
      <trkpt lat="37.560579000" lon="-3.864162000">
        <ele>1138.5</ele>
        <time>2020-10-14T13:02:53Z</time>
      </trkpt>
      <trkpt lat="37.560661000" lon="-3.864249000">
        <ele>1137.6</ele>
        <time>2020-10-14T13:02:56Z</time>
      </trkpt>
      <trkpt lat="37.560733000" lon="-3.864305000">
        <ele>1137.0</ele>
        <time>2020-10-14T13:03:00Z</time>
      </trkpt>
      <trkpt lat="37.560799000" lon="-3.864371000">
        <ele>1136.2</ele>
        <time>2020-10-14T13:03:58Z</time>
      </trkpt>
      <trkpt lat="37.560884000" lon="-3.864432000">
        <ele>1135.1</ele>
        <time>2020-10-14T13:04:01Z</time>
      </trkpt>
      <trkpt lat="37.560948000" lon="-3.864502000">
        <ele>1133.7</ele>
        <time>2020-10-14T13:04:03Z</time>
      </trkpt>
      <trkpt lat="37.561021000" lon="-3.864601000">
        <ele>1132.2</ele>
        <time>2020-10-14T13:04:05Z</time>
      </trkpt>
      <trkpt lat="37.561102000" lon="-3.864695000">
        <ele>1130.5</ele>
        <time>2020-10-14T13:04:07Z</time>
      </trkpt>
      <trkpt lat="37.561182000" lon="-3.864784000">
        <ele>1129.3</ele>
        <time>2020-10-14T13:04:09Z</time>
      </trkpt>
      <trkpt lat="37.561249000" lon="-3.864881000">
        <ele>1128.6</ele>
        <time>2020-10-14T13:04:11Z</time>
      </trkpt>
      <trkpt lat="37.561320000" lon="-3.864980000">
        <ele>1128.3</ele>
        <time>2020-10-14T13:04:13Z</time>
      </trkpt>
      <trkpt lat="37.561372000" lon="-3.865112000">
        <ele>1127.9</ele>
        <time>2020-10-14T13:04:15Z</time>
      </trkpt>
      <trkpt lat="37.561403000" lon="-3.865271000">
        <ele>1127.4</ele>
        <time>2020-10-14T13:04:17Z</time>
      </trkpt>
      <trkpt lat="37.561419000" lon="-3.865461000">
        <ele>1126.5</ele>
        <time>2020-10-14T13:04:19Z</time>
      </trkpt>
      <trkpt lat="37.561438000" lon="-3.865645000">
        <ele>1125.8</ele>
        <time>2020-10-14T13:04:21Z</time>
      </trkpt>
      <trkpt lat="37.561483000" lon="-3.865822000">
        <ele>1125.2</ele>
        <time>2020-10-14T13:04:23Z</time>
      </trkpt>
      <trkpt lat="37.561545000" lon="-3.865977000">
        <ele>1124.8</ele>
        <time>2020-10-14T13:04:25Z</time>
      </trkpt>
      <trkpt lat="37.561628000" lon="-3.866137000">
        <ele>1124.7</ele>
        <time>2020-10-14T13:04:27Z</time>
      </trkpt>
      <trkpt lat="37.561723000" lon="-3.866272000">
        <ele>1124.8</ele>
        <time>2020-10-14T13:04:29Z</time>
      </trkpt>
      <trkpt lat="37.561832000" lon="-3.866411000">
        <ele>1124.6</ele>
        <time>2020-10-14T13:04:31Z</time>
      </trkpt>
      <trkpt lat="37.561910000" lon="-3.866575000">
        <ele>1123.8</ele>
        <time>2020-10-14T13:04:33Z</time>
      </trkpt>
      <trkpt lat="37.561949000" lon="-3.866666000">
        <ele>1122.8</ele>
        <time>2020-10-14T13:04:34Z</time>
      </trkpt>
      <trkpt lat="37.562012000" lon="-3.866842000">
        <ele>1121.7</ele>
        <time>2020-10-14T13:04:36Z</time>
      </trkpt>
      <trkpt lat="37.562093000" lon="-3.867014000">
        <ele>1120.8</ele>
        <time>2020-10-14T13:04:38Z</time>
      </trkpt>
      <trkpt lat="37.562189000" lon="-3.867165000">
        <ele>1120.3</ele>
        <time>2020-10-14T13:04:40Z</time>
      </trkpt>
      <trkpt lat="37.562301000" lon="-3.867301000">
        <ele>1120.1</ele>
        <time>2020-10-14T13:04:42Z</time>
      </trkpt>
      <trkpt lat="37.562407000" lon="-3.867435000">
        <ele>1120.0</ele>
        <time>2020-10-14T13:04:44Z</time>
      </trkpt>
      <trkpt lat="37.562512000" lon="-3.867553000">
        <ele>1119.6</ele>
        <time>2020-10-14T13:04:46Z</time>
      </trkpt>
      <trkpt lat="37.562614000" lon="-3.867675000">
        <ele>1119.2</ele>
        <time>2020-10-14T13:04:48Z</time>
      </trkpt>
      <trkpt lat="37.562693000" lon="-3.867804000">
        <ele>1118.6</ele>
        <time>2020-10-14T13:04:50Z</time>
      </trkpt>
      <trkpt lat="37.562752000" lon="-3.867953000">
        <ele>1117.7</ele>
        <time>2020-10-14T13:04:52Z</time>
      </trkpt>
      <trkpt lat="37.562801000" lon="-3.868122000">
        <ele>1117.0</ele>
        <time>2020-10-14T13:04:54Z</time>
      </trkpt>
      <trkpt lat="37.562841000" lon="-3.868299000">
        <ele>1116.3</ele>
        <time>2020-10-14T13:04:56Z</time>
      </trkpt>
      <trkpt lat="37.562880000" lon="-3.868481000">
        <ele>1115.5</ele>
        <time>2020-10-14T13:04:58Z</time>
      </trkpt>
      <trkpt lat="37.562925000" lon="-3.868657000">
        <ele>1114.3</ele>
        <time>2020-10-14T13:05:00Z</time>
      </trkpt>
      <trkpt lat="37.562963000" lon="-3.868842000">
        <ele>1112.9</ele>
        <time>2020-10-14T13:05:02Z</time>
      </trkpt>
      <trkpt lat="37.563007000" lon="-3.869026000">
        <ele>1111.4</ele>
        <time>2020-10-14T13:05:04Z</time>
      </trkpt>
      <trkpt lat="37.563076000" lon="-3.869176000">
        <ele>1109.8</ele>
        <time>2020-10-14T13:05:06Z</time>
      </trkpt>
      <trkpt lat="37.563189000" lon="-3.869279000">
        <ele>1108.6</ele>
        <time>2020-10-14T13:05:08Z</time>
      </trkpt>
      <trkpt lat="37.563319000" lon="-3.869366000">
        <ele>1107.5</ele>
        <time>2020-10-14T13:05:10Z</time>
      </trkpt>
      <trkpt lat="37.563460000" lon="-3.869445000">
        <ele>1106.5</ele>
        <time>2020-10-14T13:05:12Z</time>
      </trkpt>
      <trkpt lat="37.563533000" lon="-3.869488000">
        <ele>1105.6</ele>
        <time>2020-10-14T13:05:13Z</time>
      </trkpt>
      <trkpt lat="37.563678000" lon="-3.869552000">
        <ele>1104.6</ele>
        <time>2020-10-14T13:05:15Z</time>
      </trkpt>
      <trkpt lat="37.563825000" lon="-3.869637000">
        <ele>1103.7</ele>
        <time>2020-10-14T13:05:17Z</time>
      </trkpt>
      <trkpt lat="37.563957000" lon="-3.869702000">
        <ele>1102.9</ele>
        <time>2020-10-14T13:05:19Z</time>
      </trkpt>
      <trkpt lat="37.564081000" lon="-3.869777000">
        <ele>1102.3</ele>
        <time>2020-10-14T13:05:21Z</time>
      </trkpt>
      <trkpt lat="37.564200000" lon="-3.869860000">
        <ele>1101.6</ele>
        <time>2020-10-14T13:05:23Z</time>
      </trkpt>
      <trkpt lat="37.564314000" lon="-3.869967000">
        <ele>1100.8</ele>
        <time>2020-10-14T13:05:25Z</time>
      </trkpt>
      <trkpt lat="37.564432000" lon="-3.870059000">
        <ele>1100.0</ele>
        <time>2020-10-14T13:05:27Z</time>
      </trkpt>
      <trkpt lat="37.564558000" lon="-3.870148000">
        <ele>1099.2</ele>
        <time>2020-10-14T13:05:29Z</time>
      </trkpt>
      <trkpt lat="37.564690000" lon="-3.870202000">
        <ele>1098.4</ele>
        <time>2020-10-14T13:05:31Z</time>
      </trkpt>
      <trkpt lat="37.564829000" lon="-3.870245000">
        <ele>1097.6</ele>
        <time>2020-10-14T13:05:33Z</time>
      </trkpt>
      <trkpt lat="37.564968000" lon="-3.870306000">
        <ele>1097.1</ele>
        <time>2020-10-14T13:05:35Z</time>
      </trkpt>
      <trkpt lat="37.565090000" lon="-3.870384000">
        <ele>1096.7</ele>
        <time>2020-10-14T13:05:37Z</time>
      </trkpt>
      <trkpt lat="37.565198000" lon="-3.870488000">
        <ele>1096.4</ele>
        <time>2020-10-14T13:05:39Z</time>
      </trkpt>
      <trkpt lat="37.565297000" lon="-3.870604000">
        <ele>1096.0</ele>
        <time>2020-10-14T13:05:41Z</time>
      </trkpt>
      <trkpt lat="37.565396000" lon="-3.870717000">
        <ele>1095.8</ele>
        <time>2020-10-14T13:05:43Z</time>
      </trkpt>
      <trkpt lat="37.565489000" lon="-3.870796000">
        <ele>1095.7</ele>
        <time>2020-10-14T13:05:45Z</time>
      </trkpt>
      <trkpt lat="37.565572000" lon="-3.870823000">
        <ele>1095.8</ele>
        <time>2020-10-14T13:05:47Z</time>
      </trkpt>
      <trkpt lat="37.565665000" lon="-3.870807000">
        <ele>1095.8</ele>
        <time>2020-10-14T13:05:50Z</time>
      </trkpt>
      <trkpt lat="37.565735000" lon="-3.870740000">
        <ele>1095.7</ele>
        <time>2020-10-14T13:06:17Z</time>
      </trkpt>
      <trkpt lat="37.565734000" lon="-3.870624000">
        <ele>1095.5</ele>
        <time>2020-10-14T13:06:21Z</time>
      </trkpt>
      <trkpt lat="37.565718000" lon="-3.870514000">
        <ele>1095.3</ele>
        <time>2020-10-14T13:06:24Z</time>
      </trkpt>
      <trkpt lat="37.565701000" lon="-3.870382000">
        <ele>1094.8</ele>
        <time>2020-10-14T13:06:27Z</time>
      </trkpt>
      <trkpt lat="37.565678000" lon="-3.870236000">
        <ele>1094.3</ele>
        <time>2020-10-14T13:06:30Z</time>
      </trkpt>
      <trkpt lat="37.565670000" lon="-3.870131000">
        <ele>1093.6</ele>
        <time>2020-10-14T13:06:32Z</time>
      </trkpt>
      <trkpt lat="37.565656000" lon="-3.870023000">
        <ele>1092.9</ele>
        <time>2020-10-14T13:06:34Z</time>
      </trkpt>
      <trkpt lat="37.565644000" lon="-3.869906000">
        <ele>1092.0</ele>
        <time>2020-10-14T13:06:36Z</time>
      </trkpt>
      <trkpt lat="37.565624000" lon="-3.869778000">
        <ele>1090.9</ele>
        <time>2020-10-14T13:06:38Z</time>
      </trkpt>
      <trkpt lat="37.565595000" lon="-3.869645000">
        <ele>1089.7</ele>
        <time>2020-10-14T13:06:40Z</time>
      </trkpt>
      <trkpt lat="37.565550000" lon="-3.869516000">
        <ele>1088.5</ele>
        <time>2020-10-14T13:06:42Z</time>
      </trkpt>
      <trkpt lat="37.565485000" lon="-3.869393000">
        <ele>1087.0</ele>
        <time>2020-10-14T13:06:44Z</time>
      </trkpt>
      <trkpt lat="37.565410000" lon="-3.869281000">
        <ele>1085.5</ele>
        <time>2020-10-14T13:06:46Z</time>
      </trkpt>
      <trkpt lat="37.565326000" lon="-3.869168000">
        <ele>1083.8</ele>
        <time>2020-10-14T13:06:48Z</time>
      </trkpt>
      <trkpt lat="37.565253000" lon="-3.869036000">
        <ele>1082.2</ele>
        <time>2020-10-14T13:06:50Z</time>
      </trkpt>
      <trkpt lat="37.565222000" lon="-3.868871000">
        <ele>1080.5</ele>
        <time>2020-10-14T13:06:52Z</time>
      </trkpt>
      <trkpt lat="37.565223000" lon="-3.868690000">
        <ele>1078.9</ele>
        <time>2020-10-14T13:06:54Z</time>
      </trkpt>
      <trkpt lat="37.565240000" lon="-3.868525000">
        <ele>1077.4</ele>
        <time>2020-10-14T13:06:56Z</time>
      </trkpt>
      <trkpt lat="37.565257000" lon="-3.868365000">
        <ele>1075.8</ele>
        <time>2020-10-14T13:06:58Z</time>
      </trkpt>
      <trkpt lat="37.565252000" lon="-3.868212000">
        <ele>1074.4</ele>
        <time>2020-10-14T13:07:00Z</time>
      </trkpt>
      <trkpt lat="37.565226000" lon="-3.868051000">
        <ele>1073.1</ele>
        <time>2020-10-14T13:07:02Z</time>
      </trkpt>
      <trkpt lat="37.565179000" lon="-3.867899000">
        <ele>1072.2</ele>
        <time>2020-10-14T13:07:04Z</time>
      </trkpt>
      <trkpt lat="37.565115000" lon="-3.867767000">
        <ele>1071.5</ele>
        <time>2020-10-14T13:07:06Z</time>
      </trkpt>
      <trkpt lat="37.565020000" lon="-3.867638000">
        <ele>1071.1</ele>
        <time>2020-10-14T13:07:08Z</time>
      </trkpt>
      <trkpt lat="37.564925000" lon="-3.867530000">
        <ele>1070.9</ele>
        <time>2020-10-14T13:07:10Z</time>
      </trkpt>
      <trkpt lat="37.564816000" lon="-3.867446000">
        <ele>1070.8</ele>
        <time>2020-10-14T13:07:12Z</time>
      </trkpt>
      <trkpt lat="37.564703000" lon="-3.867412000">
        <ele>1070.7</ele>
        <time>2020-10-14T13:07:14Z</time>
      </trkpt>
      <trkpt lat="37.564591000" lon="-3.867435000">
        <ele>1070.8</ele>
        <time>2020-10-14T13:07:16Z</time>
      </trkpt>
      <trkpt lat="37.564493000" lon="-3.867464000">
        <ele>1070.9</ele>
        <time>2020-10-14T13:07:18Z</time>
      </trkpt>
      <trkpt lat="37.564383000" lon="-3.867491000">
        <ele>1070.9</ele>
        <time>2020-10-14T13:07:20Z</time>
      </trkpt>
      <trkpt lat="37.564274000" lon="-3.867481000">
        <ele>1070.7</ele>
        <time>2020-10-14T13:07:22Z</time>
      </trkpt>
      <trkpt lat="37.564166000" lon="-3.867445000">
        <ele>1070.3</ele>
        <time>2020-10-14T13:07:24Z</time>
      </trkpt>
      <trkpt lat="37.564083000" lon="-3.867370000">
        <ele>1069.5</ele>
        <time>2020-10-14T13:07:26Z</time>
      </trkpt>
      <trkpt lat="37.564043000" lon="-3.867248000">
        <ele>1068.5</ele>
        <time>2020-10-14T13:07:28Z</time>
      </trkpt>
      <trkpt lat="37.564020000" lon="-3.867118000">
        <ele>1067.5</ele>
        <time>2020-10-14T13:07:30Z</time>
      </trkpt>
      <trkpt lat="37.564006000" lon="-3.866971000">
        <ele>1066.5</ele>
        <time>2020-10-14T13:07:32Z</time>
      </trkpt>
      <trkpt lat="37.563981000" lon="-3.866812000">
        <ele>1065.4</ele>
        <time>2020-10-14T13:07:34Z</time>
      </trkpt>
      <trkpt lat="37.563954000" lon="-3.866648000">
        <ele>1064.2</ele>
        <time>2020-10-14T13:07:36Z</time>
      </trkpt>
      <trkpt lat="37.563904000" lon="-3.866496000">
        <ele>1062.7</ele>
        <time>2020-10-14T13:07:38Z</time>
      </trkpt>
      <trkpt lat="37.563828000" lon="-3.866365000">
        <ele>1061.3</ele>
        <time>2020-10-14T13:07:40Z</time>
      </trkpt>
      <trkpt lat="37.563765000" lon="-3.866232000">
        <ele>1059.9</ele>
        <time>2020-10-14T13:07:42Z</time>
      </trkpt>
      <trkpt lat="37.563759000" lon="-3.866072000">
        <ele>1059.0</ele>
        <time>2020-10-14T13:07:44Z</time>
      </trkpt>
      <trkpt lat="37.563790000" lon="-3.865910000">
        <ele>1058.1</ele>
        <time>2020-10-14T13:07:46Z</time>
      </trkpt>
      <trkpt lat="37.563797000" lon="-3.865764000">
        <ele>1057.4</ele>
        <time>2020-10-14T13:07:48Z</time>
      </trkpt>
      <trkpt lat="37.563759000" lon="-3.865637000">
        <ele>1056.7</ele>
        <time>2020-10-14T13:07:50Z</time>
      </trkpt>
      <trkpt lat="37.563723000" lon="-3.865544000">
        <ele>1056.1</ele>
        <time>2020-10-14T13:07:52Z</time>
      </trkpt>
      <trkpt lat="37.563632000" lon="-3.865492000">
        <ele>1055.5</ele>
        <time>2020-10-14T13:07:57Z</time>
      </trkpt>
      <trkpt lat="37.563726000" lon="-3.865513000">
        <ele>1055.3</ele>
        <time>2020-10-14T13:08:07Z</time>
      </trkpt>
      <trkpt lat="37.563794000" lon="-3.865595000">
        <ele>1055.2</ele>
        <time>2020-10-14T13:08:12Z</time>
      </trkpt>
      <trkpt lat="37.563822000" lon="-3.865695000">
        <ele>1055.3</ele>
        <time>2020-10-14T13:08:17Z</time>
      </trkpt>
      <trkpt lat="37.563750000" lon="-3.865645000">
        <ele>1055.5</ele>
        <time>2020-10-14T13:09:06Z</time>
      </trkpt>
      <trkpt lat="37.563684000" lon="-3.865545000">
        <ele>1055.8</ele>
        <time>2020-10-14T13:09:09Z</time>
      </trkpt>
      <trkpt lat="37.563578000" lon="-3.865493000">
        <ele>1055.9</ele>
        <time>2020-10-14T13:09:12Z</time>
      </trkpt>
      <trkpt lat="37.563494000" lon="-3.865465000">
        <ele>1056.1</ele>
        <time>2020-10-14T13:09:14Z</time>
      </trkpt>
      <trkpt lat="37.563402000" lon="-3.865431000">
        <ele>1056.2</ele>
        <time>2020-10-14T13:09:16Z</time>
      </trkpt>
      <trkpt lat="37.563315000" lon="-3.865374000">
        <ele>1056.1</ele>
        <time>2020-10-14T13:09:18Z</time>
      </trkpt>
      <trkpt lat="37.563235000" lon="-3.865269000">
        <ele>1055.7</ele>
        <time>2020-10-14T13:09:20Z</time>
      </trkpt>
      <trkpt lat="37.563179000" lon="-3.865136000">
        <ele>1055.1</ele>
        <time>2020-10-14T13:09:22Z</time>
      </trkpt>
      <trkpt lat="37.563153000" lon="-3.864989000">
        <ele>1054.0</ele>
        <time>2020-10-14T13:09:24Z</time>
      </trkpt>
      <trkpt lat="37.563149000" lon="-3.864839000">
        <ele>1052.5</ele>
        <time>2020-10-14T13:09:26Z</time>
      </trkpt>
      <trkpt lat="37.563156000" lon="-3.864677000">
        <ele>1050.9</ele>
        <time>2020-10-14T13:09:28Z</time>
      </trkpt>
      <trkpt lat="37.563171000" lon="-3.864514000">
        <ele>1049.4</ele>
        <time>2020-10-14T13:09:30Z</time>
      </trkpt>
      <trkpt lat="37.563190000" lon="-3.864362000">
        <ele>1047.9</ele>
        <time>2020-10-14T13:09:32Z</time>
      </trkpt>
      <trkpt lat="37.563218000" lon="-3.864211000">
        <ele>1046.7</ele>
        <time>2020-10-14T13:09:34Z</time>
      </trkpt>
      <trkpt lat="37.563241000" lon="-3.864058000">
        <ele>1045.5</ele>
        <time>2020-10-14T13:09:36Z</time>
      </trkpt>
      <trkpt lat="37.563234000" lon="-3.863900000">
        <ele>1044.4</ele>
        <time>2020-10-14T13:09:38Z</time>
      </trkpt>
      <trkpt lat="37.563182000" lon="-3.863744000">
        <ele>1043.5</ele>
        <time>2020-10-14T13:09:40Z</time>
      </trkpt>
      <trkpt lat="37.563119000" lon="-3.863579000">
        <ele>1042.8</ele>
        <time>2020-10-14T13:09:42Z</time>
      </trkpt>
      <trkpt lat="37.563051000" lon="-3.863407000">
        <ele>1042.4</ele>
        <time>2020-10-14T13:09:44Z</time>
      </trkpt>
      <trkpt lat="37.562983000" lon="-3.863240000">
        <ele>1041.8</ele>
        <time>2020-10-14T13:09:46Z</time>
      </trkpt>
      <trkpt lat="37.562930000" lon="-3.863079000">
        <ele>1041.5</ele>
        <time>2020-10-14T13:09:48Z</time>
      </trkpt>
      <trkpt lat="37.562892000" lon="-3.862915000">
        <ele>1041.3</ele>
        <time>2020-10-14T13:09:50Z</time>
      </trkpt>
      <trkpt lat="37.562888000" lon="-3.862754000">
        <ele>1040.6</ele>
        <time>2020-10-14T13:09:52Z</time>
      </trkpt>
      <trkpt lat="37.562953000" lon="-3.862615000">
        <ele>1039.6</ele>
        <time>2020-10-14T13:09:54Z</time>
      </trkpt>
      <trkpt lat="37.563060000" lon="-3.862499000">
        <ele>1038.3</ele>
        <time>2020-10-14T13:09:56Z</time>
      </trkpt>
      <trkpt lat="37.563196000" lon="-3.862420000">
        <ele>1036.7</ele>
        <time>2020-10-14T13:09:58Z</time>
      </trkpt>
      <trkpt lat="37.563341000" lon="-3.862345000">
        <ele>1035.1</ele>
        <time>2020-10-14T13:10:00Z</time>
      </trkpt>
      <trkpt lat="37.563487000" lon="-3.862268000">
        <ele>1033.4</ele>
        <time>2020-10-14T13:10:02Z</time>
      </trkpt>
      <trkpt lat="37.563631000" lon="-3.862189000">
        <ele>1031.5</ele>
        <time>2020-10-14T13:10:04Z</time>
      </trkpt>
      <trkpt lat="37.563769000" lon="-3.862110000">
        <ele>1029.9</ele>
        <time>2020-10-14T13:10:06Z</time>
      </trkpt>
      <trkpt lat="37.563905000" lon="-3.862026000">
        <ele>1028.5</ele>
        <time>2020-10-14T13:10:08Z</time>
      </trkpt>
      <trkpt lat="37.564027000" lon="-3.861915000">
        <ele>1027.1</ele>
        <time>2020-10-14T13:10:10Z</time>
      </trkpt>
      <trkpt lat="37.564140000" lon="-3.861793000">
        <ele>1025.5</ele>
        <time>2020-10-14T13:10:12Z</time>
      </trkpt>
      <trkpt lat="37.564251000" lon="-3.861661000">
        <ele>1024.1</ele>
        <time>2020-10-14T13:10:14Z</time>
      </trkpt>
      <trkpt lat="37.564365000" lon="-3.861531000">
        <ele>1022.6</ele>
        <time>2020-10-14T13:10:16Z</time>
      </trkpt>
      <trkpt lat="37.564480000" lon="-3.861395000">
        <ele>1021.3</ele>
        <time>2020-10-14T13:10:18Z</time>
      </trkpt>
      <trkpt lat="37.564590000" lon="-3.861252000">
        <ele>1020.4</ele>
        <time>2020-10-14T13:10:20Z</time>
      </trkpt>
      <trkpt lat="37.564696000" lon="-3.861102000">
        <ele>1019.8</ele>
        <time>2020-10-14T13:10:22Z</time>
      </trkpt>
      <trkpt lat="37.564781000" lon="-3.860946000">
        <ele>1019.5</ele>
        <time>2020-10-14T13:10:24Z</time>
      </trkpt>
      <trkpt lat="37.564853000" lon="-3.860772000">
        <ele>1019.3</ele>
        <time>2020-10-14T13:10:26Z</time>
      </trkpt>
      <trkpt lat="37.564908000" lon="-3.860593000">
        <ele>1018.9</ele>
        <time>2020-10-14T13:10:28Z</time>
      </trkpt>
      <trkpt lat="37.564935000" lon="-3.860406000">
        <ele>1018.4</ele>
        <time>2020-10-14T13:10:30Z</time>
      </trkpt>
      <trkpt lat="37.564955000" lon="-3.860227000">
        <ele>1017.7</ele>
        <time>2020-10-14T13:10:32Z</time>
      </trkpt>
      <trkpt lat="37.564975000" lon="-3.860057000">
        <ele>1017.0</ele>
        <time>2020-10-14T13:10:34Z</time>
      </trkpt>
      <trkpt lat="37.565015000" lon="-3.859889000">
        <ele>1016.3</ele>
        <time>2020-10-14T13:10:36Z</time>
      </trkpt>
      <trkpt lat="37.565094000" lon="-3.859764000">
        <ele>1015.7</ele>
        <time>2020-10-14T13:10:38Z</time>
      </trkpt>
      <trkpt lat="37.565212000" lon="-3.859681000">
        <ele>1015.2</ele>
        <time>2020-10-14T13:10:40Z</time>
      </trkpt>
      <trkpt lat="37.565336000" lon="-3.859631000">
        <ele>1014.5</ele>
        <time>2020-10-14T13:10:42Z</time>
      </trkpt>
      <trkpt lat="37.565467000" lon="-3.859551000">
        <ele>1013.5</ele>
        <time>2020-10-14T13:10:44Z</time>
      </trkpt>
      <trkpt lat="37.565591000" lon="-3.859434000">
        <ele>1012.4</ele>
        <time>2020-10-14T13:10:46Z</time>
      </trkpt>
      <trkpt lat="37.565652000" lon="-3.859367000">
        <ele>1011.0</ele>
        <time>2020-10-14T13:10:47Z</time>
      </trkpt>
      <trkpt lat="37.565713000" lon="-3.859296000">
        <ele>1009.5</ele>
        <time>2020-10-14T13:10:48Z</time>
      </trkpt>
      <trkpt lat="37.565776000" lon="-3.859219000">
        <ele>1008.0</ele>
        <time>2020-10-14T13:10:49Z</time>
      </trkpt>
      <trkpt lat="37.565840000" lon="-3.859145000">
        <ele>1006.6</ele>
        <time>2020-10-14T13:10:50Z</time>
      </trkpt>
      <trkpt lat="37.565903000" lon="-3.859074000">
        <ele>1005.8</ele>
        <time>2020-10-14T13:10:51Z</time>
      </trkpt>
      <trkpt lat="37.565966000" lon="-3.859004000">
        <ele>1005.3</ele>
        <time>2020-10-14T13:10:52Z</time>
      </trkpt>
      <trkpt lat="37.566076000" lon="-3.858878000">
        <ele>1004.6</ele>
        <time>2020-10-14T13:10:54Z</time>
      </trkpt>
      <trkpt lat="37.566168000" lon="-3.858745000">
        <ele>1004.0</ele>
        <time>2020-10-14T13:10:56Z</time>
      </trkpt>
      <trkpt lat="37.566229000" lon="-3.858580000">
        <ele>1003.4</ele>
        <time>2020-10-14T13:10:58Z</time>
      </trkpt>
      <trkpt lat="37.566250000" lon="-3.858404000">
        <ele>1002.7</ele>
        <time>2020-10-14T13:11:00Z</time>
      </trkpt>
      <trkpt lat="37.566278000" lon="-3.858224000">
        <ele>1002.2</ele>
        <time>2020-10-14T13:11:02Z</time>
      </trkpt>
      <trkpt lat="37.566346000" lon="-3.858048000">
        <ele>1001.6</ele>
        <time>2020-10-14T13:11:04Z</time>
      </trkpt>
      <trkpt lat="37.566422000" lon="-3.857865000">
        <ele>1001.4</ele>
        <time>2020-10-14T13:11:06Z</time>
      </trkpt>
      <trkpt lat="37.566462000" lon="-3.857773000">
        <ele>1001.5</ele>
        <time>2020-10-14T13:11:07Z</time>
      </trkpt>
      <trkpt lat="37.566499000" lon="-3.857679000">
        <ele>1001.6</ele>
        <time>2020-10-14T13:11:08Z</time>
      </trkpt>
      <trkpt lat="37.566565000" lon="-3.857499000">
        <ele>1001.5</ele>
        <time>2020-10-14T13:11:10Z</time>
      </trkpt>
      <trkpt lat="37.566585000" lon="-3.857305000">
        <ele>1001.1</ele>
        <time>2020-10-14T13:11:12Z</time>
      </trkpt>
      <trkpt lat="37.566567000" lon="-3.857107000">
        <ele>1000.5</ele>
        <time>2020-10-14T13:11:14Z</time>
      </trkpt>
      <trkpt lat="37.566542000" lon="-3.856910000">
        <ele>999.9</ele>
        <time>2020-10-14T13:11:16Z</time>
      </trkpt>
      <trkpt lat="37.566547000" lon="-3.856709000">
        <ele>999.3</ele>
        <time>2020-10-14T13:11:18Z</time>
      </trkpt>
      <trkpt lat="37.566611000" lon="-3.856549000">
        <ele>998.7</ele>
        <time>2020-10-14T13:11:20Z</time>
      </trkpt>
      <trkpt lat="37.566715000" lon="-3.856469000">
        <ele>998.3</ele>
        <time>2020-10-14T13:11:22Z</time>
      </trkpt>
      <trkpt lat="37.566823000" lon="-3.856416000">
        <ele>997.8</ele>
        <time>2020-10-14T13:11:24Z</time>
      </trkpt>
      <trkpt lat="37.566908000" lon="-3.856366000">
        <ele>997.2</ele>
        <time>2020-10-14T13:11:26Z</time>
      </trkpt>
      <trkpt lat="37.566993000" lon="-3.856277000">
        <ele>996.4</ele>
        <time>2020-10-14T13:11:29Z</time>
      </trkpt>
      <trkpt lat="37.567029000" lon="-3.856161000">
        <ele>995.4</ele>
        <time>2020-10-14T13:11:32Z</time>
      </trkpt>
      <trkpt lat="37.567049000" lon="-3.856051000">
        <ele>994.4</ele>
        <time>2020-10-14T13:11:34Z</time>
      </trkpt>
      <trkpt lat="37.567070000" lon="-3.855927000">
        <ele>993.5</ele>
        <time>2020-10-14T13:11:36Z</time>
      </trkpt>
      <trkpt lat="37.567125000" lon="-3.855796000">
        <ele>992.8</ele>
        <time>2020-10-14T13:11:38Z</time>
      </trkpt>
      <trkpt lat="37.567202000" lon="-3.855661000">
        <ele>992.2</ele>
        <time>2020-10-14T13:11:40Z</time>
      </trkpt>
      <trkpt lat="37.567294000" lon="-3.855516000">
        <ele>991.4</ele>
        <time>2020-10-14T13:11:42Z</time>
      </trkpt>
      <trkpt lat="37.567380000" lon="-3.855364000">
        <ele>990.2</ele>
        <time>2020-10-14T13:11:44Z</time>
      </trkpt>
      <trkpt lat="37.567458000" lon="-3.855210000">
        <ele>988.9</ele>
        <time>2020-10-14T13:11:46Z</time>
      </trkpt>
      <trkpt lat="37.567514000" lon="-3.855049000">
        <ele>987.5</ele>
        <time>2020-10-14T13:11:48Z</time>
      </trkpt>
      <trkpt lat="37.567561000" lon="-3.854889000">
        <ele>986.4</ele>
        <time>2020-10-14T13:11:50Z</time>
      </trkpt>
      <trkpt lat="37.567651000" lon="-3.854775000">
        <ele>985.3</ele>
        <time>2020-10-14T13:11:52Z</time>
      </trkpt>
      <trkpt lat="37.567778000" lon="-3.854703000">
        <ele>984.1</ele>
        <time>2020-10-14T13:11:54Z</time>
      </trkpt>
      <trkpt lat="37.567928000" lon="-3.854693000">
        <ele>982.8</ele>
        <time>2020-10-14T13:11:56Z</time>
      </trkpt>
      <trkpt lat="37.568083000" lon="-3.854713000">
        <ele>981.5</ele>
        <time>2020-10-14T13:11:58Z</time>
      </trkpt>
      <trkpt lat="37.568238000" lon="-3.854735000">
        <ele>980.3</ele>
        <time>2020-10-14T13:12:00Z</time>
      </trkpt>
      <trkpt lat="37.568397000" lon="-3.854760000">
        <ele>979.0</ele>
        <time>2020-10-14T13:12:02Z</time>
      </trkpt>
      <trkpt lat="37.568549000" lon="-3.854775000">
        <ele>977.9</ele>
        <time>2020-10-14T13:12:04Z</time>
      </trkpt>
      <trkpt lat="37.568702000" lon="-3.854769000">
        <ele>976.9</ele>
        <time>2020-10-14T13:12:06Z</time>
      </trkpt>
      <trkpt lat="37.568842000" lon="-3.854737000">
        <ele>975.9</ele>
        <time>2020-10-14T13:12:09Z</time>
      </trkpt>
      <trkpt lat="37.568977000" lon="-3.854668000">
        <ele>974.6</ele>
        <time>2020-10-14T13:12:10Z</time>
      </trkpt>
      <trkpt lat="37.569094000" lon="-3.854566000">
        <ele>973.0</ele>
        <time>2020-10-14T13:12:12Z</time>
      </trkpt>
      <trkpt lat="37.569207000" lon="-3.854443000">
        <ele>971.2</ele>
        <time>2020-10-14T13:12:14Z</time>
      </trkpt>
      <trkpt lat="37.569313000" lon="-3.854316000">
        <ele>969.5</ele>
        <time>2020-10-14T13:12:16Z</time>
      </trkpt>
      <trkpt lat="37.569418000" lon="-3.854192000">
        <ele>968.1</ele>
        <time>2020-10-14T13:12:18Z</time>
      </trkpt>
      <trkpt lat="37.569530000" lon="-3.854074000">
        <ele>966.9</ele>
        <time>2020-10-14T13:12:20Z</time>
      </trkpt>
      <trkpt lat="37.569622000" lon="-3.853953000">
        <ele>966.0</ele>
        <time>2020-10-14T13:12:22Z</time>
      </trkpt>
      <trkpt lat="37.569672000" lon="-3.853804000">
        <ele>965.3</ele>
        <time>2020-10-14T13:12:24Z</time>
      </trkpt>
      <trkpt lat="37.569672000" lon="-3.853648000">
        <ele>964.6</ele>
        <time>2020-10-14T13:12:26Z</time>
      </trkpt>
      <trkpt lat="37.569607000" lon="-3.853513000">
        <ele>964.2</ele>
        <time>2020-10-14T13:12:28Z</time>
      </trkpt>
      <trkpt lat="37.569495000" lon="-3.853448000">
        <ele>963.8</ele>
        <time>2020-10-14T13:12:30Z</time>
      </trkpt>
      <trkpt lat="37.569377000" lon="-3.853443000">
        <ele>963.8</ele>
        <time>2020-10-14T13:12:32Z</time>
      </trkpt>
      <trkpt lat="37.569261000" lon="-3.853455000">
        <ele>964.1</ele>
        <time>2020-10-14T13:12:34Z</time>
      </trkpt>
      <trkpt lat="37.569142000" lon="-3.853472000">
        <ele>964.7</ele>
        <time>2020-10-14T13:12:36Z</time>
      </trkpt>
      <trkpt lat="37.569031000" lon="-3.853485000">
        <ele>965.5</ele>
        <time>2020-10-14T13:12:38Z</time>
      </trkpt>
      <trkpt lat="37.568924000" lon="-3.853498000">
        <ele>966.2</ele>
        <time>2020-10-14T13:12:40Z</time>
      </trkpt>
      <trkpt lat="37.568810000" lon="-3.853496000">
        <ele>966.8</ele>
        <time>2020-10-14T13:12:42Z</time>
      </trkpt>
      <trkpt lat="37.568699000" lon="-3.853481000">
        <ele>967.2</ele>
        <time>2020-10-14T13:12:44Z</time>
      </trkpt>
      <trkpt lat="37.568584000" lon="-3.853464000">
        <ele>967.4</ele>
        <time>2020-10-14T13:12:46Z</time>
      </trkpt>
      <trkpt lat="37.568471000" lon="-3.853435000">
        <ele>967.5</ele>
        <time>2020-10-14T13:12:48Z</time>
      </trkpt>
      <trkpt lat="37.568358000" lon="-3.853368000">
        <ele>967.5</ele>
        <time>2020-10-14T13:12:50Z</time>
      </trkpt>
      <trkpt lat="37.568266000" lon="-3.853264000">
        <ele>967.2</ele>
        <time>2020-10-14T13:12:52Z</time>
      </trkpt>
      <trkpt lat="37.568216000" lon="-3.853112000">
        <ele>966.7</ele>
        <time>2020-10-14T13:12:54Z</time>
      </trkpt>
      <trkpt lat="37.568216000" lon="-3.852948000">
        <ele>966.0</ele>
        <time>2020-10-14T13:12:56Z</time>
      </trkpt>
      <trkpt lat="37.568231000" lon="-3.852772000">
        <ele>965.0</ele>
        <time>2020-10-14T13:12:58Z</time>
      </trkpt>
      <trkpt lat="37.568270000" lon="-3.852601000">
        <ele>963.7</ele>
        <time>2020-10-14T13:13:00Z</time>
      </trkpt>
      <trkpt lat="37.568337000" lon="-3.852454000">
        <ele>962.3</ele>
        <time>2020-10-14T13:13:02Z</time>
      </trkpt>
      <trkpt lat="37.568433000" lon="-3.852325000">
        <ele>960.6</ele>
        <time>2020-10-14T13:13:04Z</time>
      </trkpt>
      <trkpt lat="37.568539000" lon="-3.852225000">
        <ele>959.1</ele>
        <time>2020-10-14T13:13:06Z</time>
      </trkpt>
      <trkpt lat="37.568646000" lon="-3.852137000">
        <ele>957.8</ele>
        <time>2020-10-14T13:13:08Z</time>
      </trkpt>
      <trkpt lat="37.568754000" lon="-3.852042000">
        <ele>956.7</ele>
        <time>2020-10-14T13:13:10Z</time>
      </trkpt>
      <trkpt lat="37.568825000" lon="-3.851922000">
        <ele>955.6</ele>
        <time>2020-10-14T13:13:12Z</time>
      </trkpt>
      <trkpt lat="37.568849000" lon="-3.851763000">
        <ele>954.7</ele>
        <time>2020-10-14T13:13:14Z</time>
      </trkpt>
      <trkpt lat="37.568845000" lon="-3.851589000">
        <ele>953.7</ele>
        <time>2020-10-14T13:13:16Z</time>
      </trkpt>
      <trkpt lat="37.568824000" lon="-3.851408000">
        <ele>952.8</ele>
        <time>2020-10-14T13:13:18Z</time>
      </trkpt>
      <trkpt lat="37.568838000" lon="-3.851219000">
        <ele>951.9</ele>
        <time>2020-10-14T13:13:20Z</time>
      </trkpt>
      <trkpt lat="37.568901000" lon="-3.851040000">
        <ele>951.3</ele>
        <time>2020-10-14T13:13:22Z</time>
      </trkpt>
      <trkpt lat="37.569011000" lon="-3.850907000">
        <ele>950.8</ele>
        <time>2020-10-14T13:13:24Z</time>
      </trkpt>
      <trkpt lat="37.569158000" lon="-3.850825000">
        <ele>950.5</ele>
        <time>2020-10-14T13:13:26Z</time>
      </trkpt>
      <trkpt lat="37.569317000" lon="-3.850804000">
        <ele>950.1</ele>
        <time>2020-10-14T13:13:28Z</time>
      </trkpt>
      <trkpt lat="37.569473000" lon="-3.850807000">
        <ele>949.5</ele>
        <time>2020-10-14T13:13:30Z</time>
      </trkpt>
      <trkpt lat="37.569622000" lon="-3.850814000">
        <ele>948.8</ele>
        <time>2020-10-14T13:13:32Z</time>
      </trkpt>
      <trkpt lat="37.569763000" lon="-3.850777000">
        <ele>948.1</ele>
        <time>2020-10-14T13:13:34Z</time>
      </trkpt>
      <trkpt lat="37.569883000" lon="-3.850692000">
        <ele>947.4</ele>
        <time>2020-10-14T13:13:36Z</time>
      </trkpt>
      <trkpt lat="37.569979000" lon="-3.850582000">
        <ele>947.0</ele>
        <time>2020-10-14T13:13:38Z</time>
      </trkpt>
      <trkpt lat="37.570059000" lon="-3.850432000">
        <ele>946.7</ele>
        <time>2020-10-14T13:13:40Z</time>
      </trkpt>
      <trkpt lat="37.570117000" lon="-3.850262000">
        <ele>946.5</ele>
        <time>2020-10-14T13:13:42Z</time>
      </trkpt>
      <trkpt lat="37.570167000" lon="-3.850092000">
        <ele>946.1</ele>
        <time>2020-10-14T13:13:44Z</time>
      </trkpt>
      <trkpt lat="37.570211000" lon="-3.849926000">
        <ele>945.5</ele>
        <time>2020-10-14T13:13:46Z</time>
      </trkpt>
      <trkpt lat="37.570255000" lon="-3.849749000">
        <ele>944.9</ele>
        <time>2020-10-14T13:13:48Z</time>
      </trkpt>
      <trkpt lat="37.570316000" lon="-3.849592000">
        <ele>944.2</ele>
        <time>2020-10-14T13:13:50Z</time>
      </trkpt>
      <trkpt lat="37.570409000" lon="-3.849460000">
        <ele>943.4</ele>
        <time>2020-10-14T13:13:52Z</time>
      </trkpt>
      <trkpt lat="37.570535000" lon="-3.849380000">
        <ele>942.4</ele>
        <time>2020-10-14T13:13:54Z</time>
      </trkpt>
      <trkpt lat="37.570678000" lon="-3.849332000">
        <ele>941.3</ele>
        <time>2020-10-14T13:13:56Z</time>
      </trkpt>
      <trkpt lat="37.570822000" lon="-3.849285000">
        <ele>940.0</ele>
        <time>2020-10-14T13:13:58Z</time>
      </trkpt>
      <trkpt lat="37.570976000" lon="-3.849242000">
        <ele>938.5</ele>
        <time>2020-10-14T13:14:00Z</time>
      </trkpt>
      <trkpt lat="37.571133000" lon="-3.849215000">
        <ele>937.0</ele>
        <time>2020-10-14T13:14:02Z</time>
      </trkpt>
      <trkpt lat="37.571286000" lon="-3.849219000">
        <ele>935.7</ele>
        <time>2020-10-14T13:14:04Z</time>
      </trkpt>
      <trkpt lat="37.571425000" lon="-3.849211000">
        <ele>934.7</ele>
        <time>2020-10-14T13:14:06Z</time>
      </trkpt>
      <trkpt lat="37.571558000" lon="-3.849154000">
        <ele>933.8</ele>
        <time>2020-10-14T13:14:08Z</time>
      </trkpt>
      <trkpt lat="37.571685000" lon="-3.849056000">
        <ele>932.9</ele>
        <time>2020-10-14T13:14:10Z</time>
      </trkpt>
      <trkpt lat="37.571796000" lon="-3.848911000">
        <ele>932.1</ele>
        <time>2020-10-14T13:14:12Z</time>
      </trkpt>
      <trkpt lat="37.571898000" lon="-3.848749000">
        <ele>931.5</ele>
        <time>2020-10-14T13:14:14Z</time>
      </trkpt>
      <trkpt lat="37.572000000" lon="-3.848585000">
        <ele>931.1</ele>
        <time>2020-10-14T13:14:16Z</time>
      </trkpt>
      <trkpt lat="37.572092000" lon="-3.848425000">
        <ele>930.8</ele>
        <time>2020-10-14T13:14:18Z</time>
      </trkpt>
      <trkpt lat="37.572191000" lon="-3.848281000">
        <ele>930.5</ele>
        <time>2020-10-14T13:14:20Z</time>
      </trkpt>
      <trkpt lat="37.572283000" lon="-3.848147000">
        <ele>930.2</ele>
        <time>2020-10-14T13:14:22Z</time>
      </trkpt>
      <trkpt lat="37.572385000" lon="-3.848018000">
        <ele>929.5</ele>
        <time>2020-10-14T13:14:24Z</time>
      </trkpt>
      <trkpt lat="37.572526000" lon="-3.847914000">
        <ele>928.7</ele>
        <time>2020-10-14T13:14:26Z</time>
      </trkpt>
      <trkpt lat="37.572606000" lon="-3.847891000">
        <ele>927.9</ele>
        <time>2020-10-14T13:14:27Z</time>
      </trkpt>
      <trkpt lat="37.572766000" lon="-3.847861000">
        <ele>927.1</ele>
        <time>2020-10-14T13:14:29Z</time>
      </trkpt>
      <trkpt lat="37.572928000" lon="-3.847843000">
        <ele>926.4</ele>
        <time>2020-10-14T13:14:31Z</time>
      </trkpt>
      <trkpt lat="37.573082000" lon="-3.847863000">
        <ele>925.6</ele>
        <time>2020-10-14T13:14:33Z</time>
      </trkpt>
      <trkpt lat="37.573230000" lon="-3.847935000">
        <ele>924.7</ele>
        <time>2020-10-14T13:14:35Z</time>
      </trkpt>
      <trkpt lat="37.573300000" lon="-3.847988000">
        <ele>923.6</ele>
        <time>2020-10-14T13:14:36Z</time>
      </trkpt>
      <trkpt lat="37.573371000" lon="-3.848043000">
        <ele>922.6</ele>
        <time>2020-10-14T13:14:37Z</time>
      </trkpt>
      <trkpt lat="37.573440000" lon="-3.848102000">
        <ele>921.7</ele>
        <time>2020-10-14T13:14:38Z</time>
      </trkpt>
      <trkpt lat="37.573510000" lon="-3.848164000">
        <ele>921.2</ele>
        <time>2020-10-14T13:14:39Z</time>
      </trkpt>
      <trkpt lat="37.573575000" lon="-3.848227000">
        <ele>920.9</ele>
        <time>2020-10-14T13:14:40Z</time>
      </trkpt>
      <trkpt lat="37.573697000" lon="-3.848335000">
        <ele>920.8</ele>
        <time>2020-10-14T13:14:42Z</time>
      </trkpt>
      <trkpt lat="37.573824000" lon="-3.848401000">
        <ele>920.7</ele>
        <time>2020-10-14T13:14:44Z</time>
      </trkpt>
      <trkpt lat="37.573954000" lon="-3.848415000">
        <ele>920.6</ele>
        <time>2020-10-14T13:14:46Z</time>
      </trkpt>
      <trkpt lat="37.574063000" lon="-3.848347000">
        <ele>920.5</ele>
        <time>2020-10-14T13:14:48Z</time>
      </trkpt>
      <trkpt lat="37.574137000" lon="-3.848206000">
        <ele>920.4</ele>
        <time>2020-10-14T13:14:50Z</time>
      </trkpt>
      <trkpt lat="37.574185000" lon="-3.848037000">
        <ele>920.2</ele>
        <time>2020-10-14T13:14:52Z</time>
      </trkpt>
      <trkpt lat="37.574237000" lon="-3.847856000">
        <ele>920.0</ele>
        <time>2020-10-14T13:14:54Z</time>
      </trkpt>
      <trkpt lat="37.574264000" lon="-3.847760000">
        <ele>919.8</ele>
        <time>2020-10-14T13:14:55Z</time>
      </trkpt>
      <trkpt lat="37.574317000" lon="-3.847577000">
        <ele>919.7</ele>
        <time>2020-10-14T13:14:57Z</time>
      </trkpt>
      <trkpt lat="37.574380000" lon="-3.847388000">
        <ele>919.5</ele>
        <time>2020-10-14T13:14:59Z</time>
      </trkpt>
      <trkpt lat="37.574412000" lon="-3.847291000">
        <ele>919.5</ele>
        <time>2020-10-14T13:15:00Z</time>
      </trkpt>
      <trkpt lat="37.574439000" lon="-3.847193000">
        <ele>919.4</ele>
        <time>2020-10-14T13:15:01Z</time>
      </trkpt>
      <trkpt lat="37.574510000" lon="-3.847023000">
        <ele>919.3</ele>
        <time>2020-10-14T13:15:03Z</time>
      </trkpt>
      <trkpt lat="37.574625000" lon="-3.846910000">
        <ele>919.3</ele>
        <time>2020-10-14T13:15:05Z</time>
      </trkpt>
      <trkpt lat="37.574769000" lon="-3.846891000">
        <ele>919.3</ele>
        <time>2020-10-14T13:15:07Z</time>
      </trkpt>
      <trkpt lat="37.574883000" lon="-3.846955000">
        <ele>919.5</ele>
        <time>2020-10-14T13:15:09Z</time>
      </trkpt>
      <trkpt lat="37.574976000" lon="-3.847032000">
        <ele>919.7</ele>
        <time>2020-10-14T13:15:11Z</time>
      </trkpt>
      <trkpt lat="37.575052000" lon="-3.847109000">
        <ele>920.1</ele>
        <time>2020-10-14T13:15:13Z</time>
      </trkpt>
      <trkpt lat="37.575118000" lon="-3.847174000">
        <ele>920.4</ele>
        <time>2020-10-14T13:15:15Z</time>
      </trkpt>
      <trkpt lat="37.575206000" lon="-3.847244000">
        <ele>920.6</ele>
        <time>2020-10-14T13:15:18Z</time>
      </trkpt>
      <trkpt lat="37.575276000" lon="-3.847297000">
        <ele>920.9</ele>
        <time>2020-10-14T13:15:21Z</time>
      </trkpt>
      <trkpt lat="37.575351000" lon="-3.847341000">
        <ele>921.0</ele>
        <time>2020-10-14T13:15:24Z</time>
      </trkpt>
      <trkpt lat="37.575436000" lon="-3.847387000">
        <ele>921.0</ele>
        <time>2020-10-14T13:15:27Z</time>
      </trkpt>
      <trkpt lat="37.575533000" lon="-3.847438000">
        <ele>921.1</ele>
        <time>2020-10-14T13:15:30Z</time>
      </trkpt>
      <trkpt lat="37.575615000" lon="-3.847458000">
        <ele>921.2</ele>
        <time>2020-10-14T13:15:33Z</time>
      </trkpt>
      <trkpt lat="37.575706000" lon="-3.847475000">
        <ele>921.4</ele>
        <time>2020-10-14T13:15:37Z</time>
      </trkpt>
      <trkpt lat="37.575787000" lon="-3.847507000">
        <ele>921.5</ele>
        <time>2020-10-14T13:15:41Z</time>
      </trkpt>
      <trkpt lat="37.575869000" lon="-3.847494000">
        <ele>921.7</ele>
        <time>2020-10-14T13:15:45Z</time>
      </trkpt>
      <trkpt lat="37.575950000" lon="-3.847469000">
        <ele>922.1</ele>
        <time>2020-10-14T13:15:49Z</time>
      </trkpt>
      <trkpt lat="37.576031000" lon="-3.847454000">
        <ele>922.5</ele>
        <time>2020-10-14T13:15:53Z</time>
      </trkpt>
      <trkpt lat="37.576111000" lon="-3.847475000">
        <ele>923.1</ele>
        <time>2020-10-14T13:15:57Z</time>
      </trkpt>
      <trkpt lat="37.576192000" lon="-3.847482000">
        <ele>923.6</ele>
        <time>2020-10-14T13:16:01Z</time>
      </trkpt>
      <trkpt lat="37.576276000" lon="-3.847443000">
        <ele>924.4</ele>
        <time>2020-10-14T13:16:05Z</time>
      </trkpt>
      <trkpt lat="37.576368000" lon="-3.847433000">
        <ele>925.1</ele>
        <time>2020-10-14T13:16:09Z</time>
      </trkpt>
      <trkpt lat="37.576461000" lon="-3.847432000">
        <ele>925.7</ele>
        <time>2020-10-14T13:16:13Z</time>
      </trkpt>
      <trkpt lat="37.576554000" lon="-3.847437000">
        <ele>926.4</ele>
        <time>2020-10-14T13:16:17Z</time>
      </trkpt>
      <trkpt lat="37.576651000" lon="-3.847462000">
        <ele>927.0</ele>
        <time>2020-10-14T13:16:21Z</time>
      </trkpt>
      <trkpt lat="37.576741000" lon="-3.847503000">
        <ele>927.6</ele>
        <time>2020-10-14T13:16:25Z</time>
      </trkpt>
      <trkpt lat="37.576828000" lon="-3.847551000">
        <ele>928.1</ele>
        <time>2020-10-14T13:16:29Z</time>
      </trkpt>
      <trkpt lat="37.576917000" lon="-3.847593000">
        <ele>928.4</ele>
        <time>2020-10-14T13:16:33Z</time>
      </trkpt>
      <trkpt lat="37.577002000" lon="-3.847638000">
        <ele>928.5</ele>
        <time>2020-10-14T13:16:37Z</time>
      </trkpt>
      <trkpt lat="37.577088000" lon="-3.847691000">
        <ele>928.6</ele>
        <time>2020-10-14T13:16:41Z</time>
      </trkpt>
      <trkpt lat="37.577169000" lon="-3.847739000">
        <ele>928.7</ele>
        <time>2020-10-14T13:16:45Z</time>
      </trkpt>
      <trkpt lat="37.577252000" lon="-3.847790000">
        <ele>928.7</ele>
        <time>2020-10-14T13:16:49Z</time>
      </trkpt>
      <trkpt lat="37.577350000" lon="-3.847820000">
        <ele>928.7</ele>
        <time>2020-10-14T13:16:53Z</time>
      </trkpt>
      <trkpt lat="37.577431000" lon="-3.847809000">
        <ele>928.8</ele>
        <time>2020-10-14T13:16:56Z</time>
      </trkpt>
      <trkpt lat="37.577512000" lon="-3.847773000">
        <ele>928.9</ele>
        <time>2020-10-14T13:16:59Z</time>
      </trkpt>
      <trkpt lat="37.577585000" lon="-3.847712000">
        <ele>929.0</ele>
        <time>2020-10-14T13:17:02Z</time>
      </trkpt>
      <trkpt lat="37.577656000" lon="-3.847635000">
        <ele>929.2</ele>
        <time>2020-10-14T13:17:05Z</time>
      </trkpt>
      <trkpt lat="37.577718000" lon="-3.847551000">
        <ele>929.5</ele>
        <time>2020-10-14T13:17:08Z</time>
      </trkpt>
      <trkpt lat="37.577779000" lon="-3.847456000">
        <ele>929.7</ele>
        <time>2020-10-14T13:17:11Z</time>
      </trkpt>
      <trkpt lat="37.577845000" lon="-3.847350000">
        <ele>930.1</ele>
        <time>2020-10-14T13:17:14Z</time>
      </trkpt>
      <trkpt lat="37.577919000" lon="-3.847245000">
        <ele>930.5</ele>
        <time>2020-10-14T13:17:17Z</time>
      </trkpt>
      <trkpt lat="37.577997000" lon="-3.847140000">
        <ele>930.7</ele>
        <time>2020-10-14T13:17:20Z</time>
      </trkpt>
      <trkpt lat="37.578080000" lon="-3.847038000">
        <ele>931.0</ele>
        <time>2020-10-14T13:17:23Z</time>
      </trkpt>
      <trkpt lat="37.578180000" lon="-3.846967000">
        <ele>931.2</ele>
        <time>2020-10-14T13:17:26Z</time>
      </trkpt>
      <trkpt lat="37.578286000" lon="-3.846897000">
        <ele>931.1</ele>
        <time>2020-10-14T13:17:29Z</time>
      </trkpt>
      <trkpt lat="37.578387000" lon="-3.846821000">
        <ele>930.8</ele>
        <time>2020-10-14T13:17:32Z</time>
      </trkpt>
      <trkpt lat="37.578499000" lon="-3.846763000">
        <ele>930.4</ele>
        <time>2020-10-14T13:17:35Z</time>
      </trkpt>
      <trkpt lat="37.578572000" lon="-3.846715000">
        <ele>929.7</ele>
        <time>2020-10-14T13:17:37Z</time>
      </trkpt>
      <trkpt lat="37.578646000" lon="-3.846659000">
        <ele>928.9</ele>
        <time>2020-10-14T13:17:39Z</time>
      </trkpt>
      <trkpt lat="37.578719000" lon="-3.846597000">
        <ele>928.1</ele>
        <time>2020-10-14T13:17:41Z</time>
      </trkpt>
      <trkpt lat="37.578781000" lon="-3.846515000">
        <ele>927.3</ele>
        <time>2020-10-14T13:17:43Z</time>
      </trkpt>
      <trkpt lat="37.578834000" lon="-3.846422000">
        <ele>926.5</ele>
        <time>2020-10-14T13:17:45Z</time>
      </trkpt>
      <trkpt lat="37.578881000" lon="-3.846309000">
        <ele>926.0</ele>
        <time>2020-10-14T13:17:47Z</time>
      </trkpt>
      <trkpt lat="37.578929000" lon="-3.846197000">
        <ele>925.6</ele>
        <time>2020-10-14T13:17:49Z</time>
      </trkpt>
      <trkpt lat="37.578971000" lon="-3.846076000">
        <ele>925.7</ele>
        <time>2020-10-14T13:17:51Z</time>
      </trkpt>
      <trkpt lat="37.579008000" lon="-3.845935000">
        <ele>925.9</ele>
        <time>2020-10-14T13:17:53Z</time>
      </trkpt>
      <trkpt lat="37.579038000" lon="-3.845783000">
        <ele>926.0</ele>
        <time>2020-10-14T13:17:55Z</time>
      </trkpt>
      <trkpt lat="37.579064000" lon="-3.845618000">
        <ele>925.8</ele>
        <time>2020-10-14T13:17:57Z</time>
      </trkpt>
      <trkpt lat="37.579098000" lon="-3.845456000">
        <ele>925.5</ele>
        <time>2020-10-14T13:17:59Z</time>
      </trkpt>
      <trkpt lat="37.579134000" lon="-3.845292000">
        <ele>925.3</ele>
        <time>2020-10-14T13:18:01Z</time>
      </trkpt>
      <trkpt lat="37.579167000" lon="-3.845118000">
        <ele>925.0</ele>
        <time>2020-10-14T13:18:03Z</time>
      </trkpt>
      <trkpt lat="37.579203000" lon="-3.844934000">
        <ele>924.7</ele>
        <time>2020-10-14T13:18:05Z</time>
      </trkpt>
      <trkpt lat="37.579244000" lon="-3.844756000">
        <ele>924.5</ele>
        <time>2020-10-14T13:18:07Z</time>
      </trkpt>
      <trkpt lat="37.579281000" lon="-3.844576000">
        <ele>924.1</ele>
        <time>2020-10-14T13:18:09Z</time>
      </trkpt>
      <trkpt lat="37.579321000" lon="-3.844394000">
        <ele>923.5</ele>
        <time>2020-10-14T13:18:11Z</time>
      </trkpt>
      <trkpt lat="37.579372000" lon="-3.844215000">
        <ele>922.5</ele>
        <time>2020-10-14T13:18:13Z</time>
      </trkpt>
      <trkpt lat="37.579437000" lon="-3.844039000">
        <ele>921.5</ele>
        <time>2020-10-14T13:18:15Z</time>
      </trkpt>
      <trkpt lat="37.579506000" lon="-3.843872000">
        <ele>920.5</ele>
        <time>2020-10-14T13:18:17Z</time>
      </trkpt>
      <trkpt lat="37.579579000" lon="-3.843712000">
        <ele>919.6</ele>
        <time>2020-10-14T13:18:19Z</time>
      </trkpt>
      <trkpt lat="37.579646000" lon="-3.843553000">
        <ele>918.9</ele>
        <time>2020-10-14T13:18:21Z</time>
      </trkpt>
      <trkpt lat="37.579712000" lon="-3.843394000">
        <ele>918.1</ele>
        <time>2020-10-14T13:18:23Z</time>
      </trkpt>
      <trkpt lat="37.579781000" lon="-3.843236000">
        <ele>917.2</ele>
        <time>2020-10-14T13:18:25Z</time>
      </trkpt>
      <trkpt lat="37.579850000" lon="-3.843071000">
        <ele>916.2</ele>
        <time>2020-10-14T13:18:27Z</time>
      </trkpt>
      <trkpt lat="37.579919000" lon="-3.842914000">
        <ele>915.1</ele>
        <time>2020-10-14T13:18:29Z</time>
      </trkpt>
      <trkpt lat="37.580003000" lon="-3.842771000">
        <ele>914.0</ele>
        <time>2020-10-14T13:18:31Z</time>
      </trkpt>
      <trkpt lat="37.580100000" lon="-3.842651000">
        <ele>912.9</ele>
        <time>2020-10-14T13:18:33Z</time>
      </trkpt>
      <trkpt lat="37.580209000" lon="-3.842567000">
        <ele>912.0</ele>
        <time>2020-10-14T13:18:35Z</time>
      </trkpt>
      <trkpt lat="37.580330000" lon="-3.842526000">
        <ele>911.3</ele>
        <time>2020-10-14T13:18:37Z</time>
      </trkpt>
      <trkpt lat="37.580460000" lon="-3.842528000">
        <ele>910.5</ele>
        <time>2020-10-14T13:18:39Z</time>
      </trkpt>
      <trkpt lat="37.580602000" lon="-3.842541000">
        <ele>909.9</ele>
        <time>2020-10-14T13:18:41Z</time>
      </trkpt>
      <trkpt lat="37.580753000" lon="-3.842546000">
        <ele>909.3</ele>
        <time>2020-10-14T13:18:43Z</time>
      </trkpt>
      <trkpt lat="37.580892000" lon="-3.842515000">
        <ele>908.7</ele>
        <time>2020-10-14T13:18:45Z</time>
      </trkpt>
      <trkpt lat="37.581021000" lon="-3.842442000">
        <ele>908.3</ele>
        <time>2020-10-14T13:18:47Z</time>
      </trkpt>
      <trkpt lat="37.581132000" lon="-3.842323000">
        <ele>907.9</ele>
        <time>2020-10-14T13:18:49Z</time>
      </trkpt>
      <trkpt lat="37.581225000" lon="-3.842159000">
        <ele>907.5</ele>
        <time>2020-10-14T13:18:51Z</time>
      </trkpt>
      <trkpt lat="37.581270000" lon="-3.842065000">
        <ele>907.2</ele>
        <time>2020-10-14T13:18:52Z</time>
      </trkpt>
      <trkpt lat="37.581355000" lon="-3.841895000">
        <ele>906.7</ele>
        <time>2020-10-14T13:18:54Z</time>
      </trkpt>
      <trkpt lat="37.581451000" lon="-3.841746000">
        <ele>906.2</ele>
        <time>2020-10-14T13:18:56Z</time>
      </trkpt>
      <trkpt lat="37.581572000" lon="-3.841619000">
        <ele>905.5</ele>
        <time>2020-10-14T13:18:58Z</time>
      </trkpt>
      <trkpt lat="37.581640000" lon="-3.841559000">
        <ele>904.8</ele>
        <time>2020-10-14T13:18:59Z</time>
      </trkpt>
      <trkpt lat="37.581713000" lon="-3.841502000">
        <ele>904.1</ele>
        <time>2020-10-14T13:19:00Z</time>
      </trkpt>
      <trkpt lat="37.581789000" lon="-3.841445000">
        <ele>903.3</ele>
        <time>2020-10-14T13:19:01Z</time>
      </trkpt>
      <trkpt lat="37.581870000" lon="-3.841391000">
        <ele>902.5</ele>
        <time>2020-10-14T13:19:02Z</time>
      </trkpt>
      <trkpt lat="37.581946000" lon="-3.841335000">
        <ele>901.6</ele>
        <time>2020-10-14T13:19:03Z</time>
      </trkpt>
      <trkpt lat="37.582024000" lon="-3.841283000">
        <ele>900.8</ele>
        <time>2020-10-14T13:19:04Z</time>
      </trkpt>
      <trkpt lat="37.582101000" lon="-3.841223000">
        <ele>900.0</ele>
        <time>2020-10-14T13:19:05Z</time>
      </trkpt>
      <trkpt lat="37.582178000" lon="-3.841169000">
        <ele>899.2</ele>
        <time>2020-10-14T13:19:06Z</time>
      </trkpt>
      <trkpt lat="37.582254000" lon="-3.841118000">
        <ele>898.5</ele>
        <time>2020-10-14T13:19:07Z</time>
      </trkpt>
      <trkpt lat="37.582333000" lon="-3.841070000">
        <ele>897.6</ele>
        <time>2020-10-14T13:19:08Z</time>
      </trkpt>
      <trkpt lat="37.582408000" lon="-3.841021000">
        <ele>896.8</ele>
        <time>2020-10-14T13:19:09Z</time>
      </trkpt>
      <trkpt lat="37.582482000" lon="-3.840976000">
        <ele>895.8</ele>
        <time>2020-10-14T13:19:10Z</time>
      </trkpt>
      <trkpt lat="37.582561000" lon="-3.840926000">
        <ele>894.5</ele>
        <time>2020-10-14T13:19:11Z</time>
      </trkpt>
      <trkpt lat="37.582705000" lon="-3.840860000">
        <ele>893.4</ele>
        <time>2020-10-14T13:19:13Z</time>
      </trkpt>
      <trkpt lat="37.582863000" lon="-3.840813000">
        <ele>892.3</ele>
        <time>2020-10-14T13:19:15Z</time>
      </trkpt>
      <trkpt lat="37.583019000" lon="-3.840771000">
        <ele>891.3</ele>
        <time>2020-10-14T13:19:17Z</time>
      </trkpt>
      <trkpt lat="37.583175000" lon="-3.840726000">
        <ele>890.2</ele>
        <time>2020-10-14T13:19:19Z</time>
      </trkpt>
      <trkpt lat="37.583322000" lon="-3.840646000">
        <ele>889.1</ele>
        <time>2020-10-14T13:19:21Z</time>
      </trkpt>
      <trkpt lat="37.583397000" lon="-3.840599000">
        <ele>887.9</ele>
        <time>2020-10-14T13:19:22Z</time>
      </trkpt>
      <trkpt lat="37.583471000" lon="-3.840550000">
        <ele>886.6</ele>
        <time>2020-10-14T13:19:23Z</time>
      </trkpt>
      <trkpt lat="37.583545000" lon="-3.840498000">
        <ele>885.4</ele>
        <time>2020-10-14T13:19:24Z</time>
      </trkpt>
      <trkpt lat="37.583623000" lon="-3.840455000">
        <ele>884.0</ele>
        <time>2020-10-14T13:19:25Z</time>
      </trkpt>
      <trkpt lat="37.583705000" lon="-3.840408000">
        <ele>882.8</ele>
        <time>2020-10-14T13:19:26Z</time>
      </trkpt>
      <trkpt lat="37.583789000" lon="-3.840359000">
        <ele>881.9</ele>
        <time>2020-10-14T13:19:27Z</time>
      </trkpt>
      <trkpt lat="37.583867000" lon="-3.840317000">
        <ele>881.1</ele>
        <time>2020-10-14T13:19:28Z</time>
      </trkpt>
      <trkpt lat="37.584009000" lon="-3.840242000">
        <ele>880.3</ele>
        <time>2020-10-14T13:19:30Z</time>
      </trkpt>
      <trkpt lat="37.584138000" lon="-3.840165000">
        <ele>879.5</ele>
        <time>2020-10-14T13:19:32Z</time>
      </trkpt>
      <trkpt lat="37.584243000" lon="-3.840066000">
        <ele>878.8</ele>
        <time>2020-10-14T13:19:34Z</time>
      </trkpt>
      <trkpt lat="37.584305000" lon="-3.839927000">
        <ele>878.2</ele>
        <time>2020-10-14T13:19:36Z</time>
      </trkpt>
      <trkpt lat="37.584319000" lon="-3.839765000">
        <ele>877.7</ele>
        <time>2020-10-14T13:19:38Z</time>
      </trkpt>
      <trkpt lat="37.584317000" lon="-3.839584000">
        <ele>877.4</ele>
        <time>2020-10-14T13:19:40Z</time>
      </trkpt>
      <trkpt lat="37.584310000" lon="-3.839394000">
        <ele>877.1</ele>
        <time>2020-10-14T13:19:42Z</time>
      </trkpt>
      <trkpt lat="37.584307000" lon="-3.839291000">
        <ele>877.0</ele>
        <time>2020-10-14T13:19:43Z</time>
      </trkpt>
      <trkpt lat="37.584302000" lon="-3.839189000">
        <ele>877.1</ele>
        <time>2020-10-14T13:19:44Z</time>
      </trkpt>
      <trkpt lat="37.584299000" lon="-3.839080000">
        <ele>877.3</ele>
        <time>2020-10-14T13:19:45Z</time>
      </trkpt>
      <trkpt lat="37.584292000" lon="-3.838975000">
        <ele>877.4</ele>
        <time>2020-10-14T13:19:46Z</time>
      </trkpt>
      <trkpt lat="37.584291000" lon="-3.838864000">
        <ele>877.4</ele>
        <time>2020-10-14T13:19:47Z</time>
      </trkpt>
      <trkpt lat="37.584293000" lon="-3.838757000">
        <ele>877.2</ele>
        <time>2020-10-14T13:19:48Z</time>
      </trkpt>
      <trkpt lat="37.584298000" lon="-3.838649000">
        <ele>876.7</ele>
        <time>2020-10-14T13:19:49Z</time>
      </trkpt>
      <trkpt lat="37.584306000" lon="-3.838538000">
        <ele>876.3</ele>
        <time>2020-10-14T13:19:50Z</time>
      </trkpt>
      <trkpt lat="37.584314000" lon="-3.838435000">
        <ele>875.6</ele>
        <time>2020-10-14T13:19:51Z</time>
      </trkpt>
      <trkpt lat="37.584324000" lon="-3.838329000">
        <ele>874.9</ele>
        <time>2020-10-14T13:19:52Z</time>
      </trkpt>
      <trkpt lat="37.584351000" lon="-3.838128000">
        <ele>874.0</ele>
        <time>2020-10-14T13:19:54Z</time>
      </trkpt>
      <trkpt lat="37.584369000" lon="-3.837949000">
        <ele>873.0</ele>
        <time>2020-10-14T13:19:56Z</time>
      </trkpt>
      <trkpt lat="37.584371000" lon="-3.837766000">
        <ele>871.9</ele>
        <time>2020-10-14T13:19:58Z</time>
      </trkpt>
      <trkpt lat="37.584373000" lon="-3.837597000">
        <ele>870.9</ele>
        <time>2020-10-14T13:20:00Z</time>
      </trkpt>
      <trkpt lat="37.584370000" lon="-3.837434000">
        <ele>870.1</ele>
        <time>2020-10-14T13:20:02Z</time>
      </trkpt>
      <trkpt lat="37.584371000" lon="-3.837271000">
        <ele>869.4</ele>
        <time>2020-10-14T13:20:04Z</time>
      </trkpt>
      <trkpt lat="37.584359000" lon="-3.837112000">
        <ele>868.8</ele>
        <time>2020-10-14T13:20:06Z</time>
      </trkpt>
      <trkpt lat="37.584331000" lon="-3.836956000">
        <ele>868.5</ele>
        <time>2020-10-14T13:20:08Z</time>
      </trkpt>
      <trkpt lat="37.584280000" lon="-3.836826000">
        <ele>868.3</ele>
        <time>2020-10-14T13:20:10Z</time>
      </trkpt>
      <trkpt lat="37.584230000" lon="-3.836700000">
        <ele>868.1</ele>
        <time>2020-10-14T13:20:12Z</time>
      </trkpt>
      <trkpt lat="37.584179000" lon="-3.836582000">
        <ele>868.0</ele>
        <time>2020-10-14T13:20:14Z</time>
      </trkpt>
      <trkpt lat="37.584133000" lon="-3.836473000">
        <ele>868.1</ele>
        <time>2020-10-14T13:20:16Z</time>
      </trkpt>
      <trkpt lat="37.584100000" lon="-3.836365000">
        <ele>868.3</ele>
        <time>2020-10-14T13:20:18Z</time>
      </trkpt>
      <trkpt lat="37.584098000" lon="-3.836255000">
        <ele>868.5</ele>
        <time>2020-10-14T13:20:20Z</time>
      </trkpt>
      <trkpt lat="37.584111000" lon="-3.836148000">
        <ele>868.8</ele>
        <time>2020-10-14T13:20:22Z</time>
      </trkpt>
      <trkpt lat="37.584144000" lon="-3.836046000">
        <ele>869.0</ele>
        <time>2020-10-14T13:20:24Z</time>
      </trkpt>
      <trkpt lat="37.584184000" lon="-3.835956000">
        <ele>869.3</ele>
        <time>2020-10-14T13:20:26Z</time>
      </trkpt>
      <trkpt lat="37.584241000" lon="-3.835878000">
        <ele>869.6</ele>
        <time>2020-10-14T13:20:28Z</time>
      </trkpt>
      <trkpt lat="37.584302000" lon="-3.835790000">
        <ele>870.0</ele>
        <time>2020-10-14T13:20:30Z</time>
      </trkpt>
      <trkpt lat="37.584371000" lon="-3.835705000">
        <ele>870.3</ele>
        <time>2020-10-14T13:20:32Z</time>
      </trkpt>
      <trkpt lat="37.584442000" lon="-3.835615000">
        <ele>870.5</ele>
        <time>2020-10-14T13:20:34Z</time>
      </trkpt>
      <trkpt lat="37.584513000" lon="-3.835517000">
        <ele>870.5</ele>
        <time>2020-10-14T13:20:36Z</time>
      </trkpt>
      <trkpt lat="37.584583000" lon="-3.835411000">
        <ele>870.5</ele>
        <time>2020-10-14T13:20:38Z</time>
      </trkpt>
      <trkpt lat="37.584649000" lon="-3.835288000">
        <ele>870.5</ele>
        <time>2020-10-14T13:20:40Z</time>
      </trkpt>
      <trkpt lat="37.584702000" lon="-3.835159000">
        <ele>870.4</ele>
        <time>2020-10-14T13:20:42Z</time>
      </trkpt>
      <trkpt lat="37.584757000" lon="-3.835027000">
        <ele>870.2</ele>
        <time>2020-10-14T13:20:44Z</time>
      </trkpt>
      <trkpt lat="37.584798000" lon="-3.834891000">
        <ele>870.0</ele>
        <time>2020-10-14T13:20:46Z</time>
      </trkpt>
      <trkpt lat="37.584837000" lon="-3.834763000">
        <ele>869.8</ele>
        <time>2020-10-14T13:20:48Z</time>
      </trkpt>
      <trkpt lat="37.584873000" lon="-3.834629000">
        <ele>869.7</ele>
        <time>2020-10-14T13:20:50Z</time>
      </trkpt>
      <trkpt lat="37.584917000" lon="-3.834501000">
        <ele>869.6</ele>
        <time>2020-10-14T13:20:52Z</time>
      </trkpt>
      <trkpt lat="37.584950000" lon="-3.834358000">
        <ele>869.7</ele>
        <time>2020-10-14T13:20:54Z</time>
      </trkpt>
      <trkpt lat="37.584983000" lon="-3.834214000">
        <ele>869.9</ele>
        <time>2020-10-14T13:20:56Z</time>
      </trkpt>
      <trkpt lat="37.585005000" lon="-3.834068000">
        <ele>870.2</ele>
        <time>2020-10-14T13:20:58Z</time>
      </trkpt>
      <trkpt lat="37.585021000" lon="-3.833925000">
        <ele>870.5</ele>
        <time>2020-10-14T13:21:00Z</time>
      </trkpt>
      <trkpt lat="37.585038000" lon="-3.833795000">
        <ele>871.1</ele>
        <time>2020-10-14T13:21:02Z</time>
      </trkpt>
      <trkpt lat="37.585056000" lon="-3.833673000">
        <ele>871.5</ele>
        <time>2020-10-14T13:21:04Z</time>
      </trkpt>
      <trkpt lat="37.585069000" lon="-3.833536000">
        <ele>872.0</ele>
        <time>2020-10-14T13:21:06Z</time>
      </trkpt>
      <trkpt lat="37.585088000" lon="-3.833394000">
        <ele>872.4</ele>
        <time>2020-10-14T13:21:08Z</time>
      </trkpt>
      <trkpt lat="37.585097000" lon="-3.833247000">
        <ele>872.6</ele>
        <time>2020-10-14T13:21:10Z</time>
      </trkpt>
      <trkpt lat="37.585108000" lon="-3.833100000">
        <ele>872.7</ele>
        <time>2020-10-14T13:21:12Z</time>
      </trkpt>
      <trkpt lat="37.585125000" lon="-3.832974000">
        <ele>872.7</ele>
        <time>2020-10-14T13:21:14Z</time>
      </trkpt>
      <trkpt lat="37.585139000" lon="-3.832854000">
        <ele>872.6</ele>
        <time>2020-10-14T13:21:16Z</time>
      </trkpt>
      <trkpt lat="37.585156000" lon="-3.832739000">
        <ele>872.5</ele>
        <time>2020-10-14T13:21:18Z</time>
      </trkpt>
      <trkpt lat="37.585162000" lon="-3.832627000">
        <ele>872.4</ele>
        <time>2020-10-14T13:21:20Z</time>
      </trkpt>
      <trkpt lat="37.585179000" lon="-3.832519000">
        <ele>872.2</ele>
        <time>2020-10-14T13:21:22Z</time>
      </trkpt>
      <trkpt lat="37.585196000" lon="-3.832402000">
        <ele>872.0</ele>
        <time>2020-10-14T13:21:24Z</time>
      </trkpt>
      <trkpt lat="37.585214000" lon="-3.832286000">
        <ele>872.0</ele>
        <time>2020-10-14T13:21:26Z</time>
      </trkpt>
      <trkpt lat="37.585241000" lon="-3.832167000">
        <ele>872.0</ele>
        <time>2020-10-14T13:21:28Z</time>
      </trkpt>
      <trkpt lat="37.585269000" lon="-3.832056000">
        <ele>872.1</ele>
        <time>2020-10-14T13:21:30Z</time>
      </trkpt>
      <trkpt lat="37.585298000" lon="-3.831949000">
        <ele>872.2</ele>
        <time>2020-10-14T13:21:32Z</time>
      </trkpt>
      <trkpt lat="37.585332000" lon="-3.831840000">
        <ele>872.2</ele>
        <time>2020-10-14T13:21:34Z</time>
      </trkpt>
      <trkpt lat="37.585360000" lon="-3.831731000">
        <ele>872.2</ele>
        <time>2020-10-14T13:21:36Z</time>
      </trkpt>
      <trkpt lat="37.585383000" lon="-3.831626000">
        <ele>872.1</ele>
        <time>2020-10-14T13:21:38Z</time>
      </trkpt>
      <trkpt lat="37.585407000" lon="-3.831526000">
        <ele>872.0</ele>
        <time>2020-10-14T13:21:40Z</time>
      </trkpt>
      <trkpt lat="37.585428000" lon="-3.831425000">
        <ele>872.0</ele>
        <time>2020-10-14T13:21:42Z</time>
      </trkpt>
      <trkpt lat="37.585458000" lon="-3.831290000">
        <ele>872.0</ele>
        <time>2020-10-14T13:21:45Z</time>
      </trkpt>
      <trkpt lat="37.585476000" lon="-3.831164000">
        <ele>871.8</ele>
        <time>2020-10-14T13:21:48Z</time>
      </trkpt>
      <trkpt lat="37.585486000" lon="-3.831053000">
        <ele>871.6</ele>
        <time>2020-10-14T13:21:51Z</time>
      </trkpt>
      <trkpt lat="37.585495000" lon="-3.830945000">
        <ele>871.5</ele>
        <time>2020-10-14T13:21:54Z</time>
      </trkpt>
      <trkpt lat="37.585508000" lon="-3.830807000">
        <ele>871.5</ele>
        <time>2020-10-14T13:21:58Z</time>
      </trkpt>
      <trkpt lat="37.585518000" lon="-3.830693000">
        <ele>871.6</ele>
        <time>2020-10-14T13:22:01Z</time>
      </trkpt>
      <trkpt lat="37.585524000" lon="-3.830579000">
        <ele>871.8</ele>
        <time>2020-10-14T13:22:04Z</time>
      </trkpt>
      <trkpt lat="37.585516000" lon="-3.830466000">
        <ele>872.0</ele>
        <time>2020-10-14T13:22:07Z</time>
      </trkpt>
      <trkpt lat="37.585501000" lon="-3.830352000">
        <ele>872.3</ele>
        <time>2020-10-14T13:22:10Z</time>
      </trkpt>
      <trkpt lat="37.585473000" lon="-3.830248000">
        <ele>872.5</ele>
        <time>2020-10-14T13:22:13Z</time>
      </trkpt>
      <trkpt lat="37.585433000" lon="-3.830152000">
        <ele>872.6</ele>
        <time>2020-10-14T13:22:16Z</time>
      </trkpt>
      <trkpt lat="37.585393000" lon="-3.830045000">
        <ele>872.8</ele>
        <time>2020-10-14T13:22:20Z</time>
      </trkpt>
      <trkpt lat="37.585363000" lon="-3.829935000">
        <ele>873.1</ele>
        <time>2020-10-14T13:22:24Z</time>
      </trkpt>
      <trkpt lat="37.585355000" lon="-3.829828000">
        <ele>873.4</ele>
        <time>2020-10-14T13:22:27Z</time>
      </trkpt>
      <trkpt lat="37.585365000" lon="-3.829714000">
        <ele>873.5</ele>
        <time>2020-10-14T13:22:30Z</time>
      </trkpt>
      <trkpt lat="37.585368000" lon="-3.829586000">
        <ele>873.7</ele>
        <time>2020-10-14T13:22:33Z</time>
      </trkpt>
      <trkpt lat="37.585391000" lon="-3.829466000">
        <ele>873.8</ele>
        <time>2020-10-14T13:22:36Z</time>
      </trkpt>
      <trkpt lat="37.585425000" lon="-3.829344000">
        <ele>873.9</ele>
        <time>2020-10-14T13:22:39Z</time>
      </trkpt>
      <trkpt lat="37.585483000" lon="-3.829231000">
        <ele>874.1</ele>
        <time>2020-10-14T13:22:42Z</time>
      </trkpt>
      <trkpt lat="37.585552000" lon="-3.829127000">
        <ele>874.3</ele>
        <time>2020-10-14T13:22:45Z</time>
      </trkpt>
      <trkpt lat="37.585639000" lon="-3.829034000">
        <ele>874.5</ele>
        <time>2020-10-14T13:22:48Z</time>
      </trkpt>
      <trkpt lat="37.585696000" lon="-3.828961000">
        <ele>874.9</ele>
        <time>2020-10-14T13:22:50Z</time>
      </trkpt>
      <trkpt lat="37.585753000" lon="-3.828881000">
        <ele>875.4</ele>
        <time>2020-10-14T13:22:52Z</time>
      </trkpt>
      <trkpt lat="37.585800000" lon="-3.828789000">
        <ele>875.8</ele>
        <time>2020-10-14T13:22:54Z</time>
      </trkpt>
      <trkpt lat="37.585835000" lon="-3.828693000">
        <ele>876.2</ele>
        <time>2020-10-14T13:22:56Z</time>
      </trkpt>
      <trkpt lat="37.585880000" lon="-3.828556000">
        <ele>876.5</ele>
        <time>2020-10-14T13:22:59Z</time>
      </trkpt>
      <trkpt lat="37.585920000" lon="-3.828432000">
        <ele>876.8</ele>
        <time>2020-10-14T13:23:02Z</time>
      </trkpt>
      <trkpt lat="37.585955000" lon="-3.828312000">
        <ele>877.1</ele>
        <time>2020-10-14T13:23:05Z</time>
      </trkpt>
      <trkpt lat="37.585992000" lon="-3.828193000">
        <ele>877.5</ele>
        <time>2020-10-14T13:23:08Z</time>
      </trkpt>
      <trkpt lat="37.586023000" lon="-3.828075000">
        <ele>877.7</ele>
        <time>2020-10-14T13:23:11Z</time>
      </trkpt>
      <trkpt lat="37.586055000" lon="-3.827967000">
        <ele>878.1</ele>
        <time>2020-10-14T13:23:14Z</time>
      </trkpt>
      <trkpt lat="37.586081000" lon="-3.827861000">
        <ele>878.5</ele>
        <time>2020-10-14T13:23:17Z</time>
      </trkpt>
      <trkpt lat="37.586105000" lon="-3.827753000">
        <ele>878.9</ele>
        <time>2020-10-14T13:23:20Z</time>
      </trkpt>
      <trkpt lat="37.586123000" lon="-3.827645000">
        <ele>879.2</ele>
        <time>2020-10-14T13:23:23Z</time>
      </trkpt>
      <trkpt lat="37.586138000" lon="-3.827537000">
        <ele>879.5</ele>
        <time>2020-10-14T13:23:26Z</time>
      </trkpt>
      <trkpt lat="37.586147000" lon="-3.827426000">
        <ele>879.9</ele>
        <time>2020-10-14T13:23:29Z</time>
      </trkpt>
      <trkpt lat="37.586159000" lon="-3.827320000">
        <ele>880.4</ele>
        <time>2020-10-14T13:23:32Z</time>
      </trkpt>
      <trkpt lat="37.586176000" lon="-3.827193000">
        <ele>880.9</ele>
        <time>2020-10-14T13:23:36Z</time>
      </trkpt>
      <trkpt lat="37.586186000" lon="-3.827071000">
        <ele>881.5</ele>
        <time>2020-10-14T13:23:40Z</time>
      </trkpt>
      <trkpt lat="37.586199000" lon="-3.826965000">
        <ele>882.2</ele>
        <time>2020-10-14T13:23:44Z</time>
      </trkpt>
      <trkpt lat="37.586217000" lon="-3.826833000">
        <ele>882.9</ele>
        <time>2020-10-14T13:23:49Z</time>
      </trkpt>
      <trkpt lat="37.586243000" lon="-3.826705000">
        <ele>883.7</ele>
        <time>2020-10-14T13:23:53Z</time>
      </trkpt>
      <trkpt lat="37.586268000" lon="-3.826574000">
        <ele>884.5</ele>
        <time>2020-10-14T13:23:57Z</time>
      </trkpt>
      <trkpt lat="37.586295000" lon="-3.826449000">
        <ele>885.5</ele>
        <time>2020-10-14T13:24:01Z</time>
      </trkpt>
      <trkpt lat="37.586325000" lon="-3.826339000">
        <ele>886.5</ele>
        <time>2020-10-14T13:24:06Z</time>
      </trkpt>
      <trkpt lat="37.586346000" lon="-3.826238000">
        <ele>887.5</ele>
        <time>2020-10-14T13:24:10Z</time>
      </trkpt>
      <trkpt lat="37.586370000" lon="-3.826133000">
        <ele>888.7</ele>
        <time>2020-10-14T13:24:14Z</time>
      </trkpt>
      <trkpt lat="37.586401000" lon="-3.826022000">
        <ele>889.9</ele>
        <time>2020-10-14T13:24:19Z</time>
      </trkpt>
      <trkpt lat="37.586420000" lon="-3.825903000">
        <ele>891.1</ele>
        <time>2020-10-14T13:24:24Z</time>
      </trkpt>
      <trkpt lat="37.586452000" lon="-3.825782000">
        <ele>892.2</ele>
        <time>2020-10-14T13:24:29Z</time>
      </trkpt>
      <trkpt lat="37.586480000" lon="-3.825678000">
        <ele>893.2</ele>
        <time>2020-10-14T13:24:33Z</time>
      </trkpt>
      <trkpt lat="37.586519000" lon="-3.825572000">
        <ele>894.0</ele>
        <time>2020-10-14T13:24:37Z</time>
      </trkpt>
      <trkpt lat="37.586562000" lon="-3.825457000">
        <ele>894.6</ele>
        <time>2020-10-14T13:24:41Z</time>
      </trkpt>
      <trkpt lat="37.586603000" lon="-3.825362000">
        <ele>895.2</ele>
        <time>2020-10-14T13:24:45Z</time>
      </trkpt>
      <trkpt lat="37.586643000" lon="-3.825270000">
        <ele>895.7</ele>
        <time>2020-10-14T13:24:49Z</time>
      </trkpt>
      <trkpt lat="37.586674000" lon="-3.825164000">
        <ele>896.2</ele>
        <time>2020-10-14T13:24:54Z</time>
      </trkpt>
      <trkpt lat="37.586710000" lon="-3.825057000">
        <ele>896.5</ele>
        <time>2020-10-14T13:24:59Z</time>
      </trkpt>
      <trkpt lat="37.586759000" lon="-3.824959000">
        <ele>896.5</ele>
        <time>2020-10-14T13:25:03Z</time>
      </trkpt>
      <trkpt lat="37.586805000" lon="-3.824867000">
        <ele>896.5</ele>
        <time>2020-10-14T13:25:07Z</time>
      </trkpt>
      <trkpt lat="37.586849000" lon="-3.824768000">
        <ele>896.5</ele>
        <time>2020-10-14T13:25:11Z</time>
      </trkpt>
      <trkpt lat="37.586900000" lon="-3.824672000">
        <ele>896.3</ele>
        <time>2020-10-14T13:25:15Z</time>
      </trkpt>
      <trkpt lat="37.586949000" lon="-3.824573000">
        <ele>896.2</ele>
        <time>2020-10-14T13:25:19Z</time>
      </trkpt>
      <trkpt lat="37.587003000" lon="-3.824466000">
        <ele>896.2</ele>
        <time>2020-10-14T13:25:23Z</time>
      </trkpt>
      <trkpt lat="37.587055000" lon="-3.824357000">
        <ele>896.3</ele>
        <time>2020-10-14T13:25:27Z</time>
      </trkpt>
      <trkpt lat="37.587108000" lon="-3.824244000">
        <ele>896.5</ele>
        <time>2020-10-14T13:25:31Z</time>
      </trkpt>
      <trkpt lat="37.587150000" lon="-3.824154000">
        <ele>896.6</ele>
        <time>2020-10-14T13:25:34Z</time>
      </trkpt>
      <trkpt lat="37.587191000" lon="-3.824030000">
        <ele>896.8</ele>
        <time>2020-10-14T13:25:38Z</time>
      </trkpt>
      <trkpt lat="37.587226000" lon="-3.823933000">
        <ele>897.1</ele>
        <time>2020-10-14T13:25:41Z</time>
      </trkpt>
      <trkpt lat="37.587260000" lon="-3.823828000">
        <ele>897.5</ele>
        <time>2020-10-14T13:25:44Z</time>
      </trkpt>
      <trkpt lat="37.587287000" lon="-3.823716000">
        <ele>897.8</ele>
        <time>2020-10-14T13:25:47Z</time>
      </trkpt>
      <trkpt lat="37.587310000" lon="-3.823597000">
        <ele>898.2</ele>
        <time>2020-10-14T13:25:50Z</time>
      </trkpt>
      <trkpt lat="37.587335000" lon="-3.823478000">
        <ele>898.6</ele>
        <time>2020-10-14T13:25:53Z</time>
      </trkpt>
      <trkpt lat="37.587353000" lon="-3.823364000">
        <ele>899.1</ele>
        <time>2020-10-14T13:25:56Z</time>
      </trkpt>
      <trkpt lat="37.587368000" lon="-3.823253000">
        <ele>899.5</ele>
        <time>2020-10-14T13:25:59Z</time>
      </trkpt>
      <trkpt lat="37.587390000" lon="-3.823130000">
        <ele>900.0</ele>
        <time>2020-10-14T13:26:02Z</time>
      </trkpt>
      <trkpt lat="37.587410000" lon="-3.823015000">
        <ele>900.5</ele>
        <time>2020-10-14T13:26:05Z</time>
      </trkpt>
      <trkpt lat="37.587426000" lon="-3.822905000">
        <ele>900.8</ele>
        <time>2020-10-14T13:26:08Z</time>
      </trkpt>
      <trkpt lat="37.587446000" lon="-3.822800000">
        <ele>901.3</ele>
        <time>2020-10-14T13:26:11Z</time>
      </trkpt>
      <trkpt lat="37.587469000" lon="-3.822669000">
        <ele>901.7</ele>
        <time>2020-10-14T13:26:15Z</time>
      </trkpt>
      <trkpt lat="37.587492000" lon="-3.822535000">
        <ele>902.2</ele>
        <time>2020-10-14T13:26:19Z</time>
      </trkpt>
      <trkpt lat="37.587514000" lon="-3.822405000">
        <ele>902.8</ele>
        <time>2020-10-14T13:26:23Z</time>
      </trkpt>
      <trkpt lat="37.587533000" lon="-3.822270000">
        <ele>903.5</ele>
        <time>2020-10-14T13:26:27Z</time>
      </trkpt>
      <trkpt lat="37.587560000" lon="-3.822167000">
        <ele>904.4</ele>
        <time>2020-10-14T13:26:30Z</time>
      </trkpt>
      <trkpt lat="37.587583000" lon="-3.822060000">
        <ele>905.1</ele>
        <time>2020-10-14T13:26:33Z</time>
      </trkpt>
      <trkpt lat="37.587608000" lon="-3.821956000">
        <ele>905.9</ele>
        <time>2020-10-14T13:26:36Z</time>
      </trkpt>
      <trkpt lat="37.587622000" lon="-3.821851000">
        <ele>906.6</ele>
        <time>2020-10-14T13:26:39Z</time>
      </trkpt>
      <trkpt lat="37.587643000" lon="-3.821741000">
        <ele>907.3</ele>
        <time>2020-10-14T13:26:42Z</time>
      </trkpt>
      <trkpt lat="37.587665000" lon="-3.821632000">
        <ele>907.9</ele>
        <time>2020-10-14T13:26:45Z</time>
      </trkpt>
      <trkpt lat="37.587690000" lon="-3.821521000">
        <ele>908.5</ele>
        <time>2020-10-14T13:26:48Z</time>
      </trkpt>
      <trkpt lat="37.587713000" lon="-3.821410000">
        <ele>909.2</ele>
        <time>2020-10-14T13:26:51Z</time>
      </trkpt>
      <trkpt lat="37.587739000" lon="-3.821298000">
        <ele>909.8</ele>
        <time>2020-10-14T13:26:54Z</time>
      </trkpt>
      <trkpt lat="37.587762000" lon="-3.821186000">
        <ele>910.3</ele>
        <time>2020-10-14T13:26:57Z</time>
      </trkpt>
      <trkpt lat="37.587780000" lon="-3.821074000">
        <ele>910.7</ele>
        <time>2020-10-14T13:27:00Z</time>
      </trkpt>
      <trkpt lat="37.587801000" lon="-3.820965000">
        <ele>911.0</ele>
        <time>2020-10-14T13:27:03Z</time>
      </trkpt>
      <trkpt lat="37.587816000" lon="-3.820862000">
        <ele>911.3</ele>
        <time>2020-10-14T13:27:06Z</time>
      </trkpt>
      <trkpt lat="37.587816000" lon="-3.820759000">
        <ele>911.5</ele>
        <time>2020-10-14T13:27:09Z</time>
      </trkpt>
      <trkpt lat="37.587811000" lon="-3.820632000">
        <ele>911.5</ele>
        <time>2020-10-14T13:27:13Z</time>
      </trkpt>
      <trkpt lat="37.587819000" lon="-3.820529000">
        <ele>911.6</ele>
        <time>2020-10-14T13:27:16Z</time>
      </trkpt>
      <trkpt lat="37.587841000" lon="-3.820396000">
        <ele>911.6</ele>
        <time>2020-10-14T13:27:20Z</time>
      </trkpt>
      <trkpt lat="37.587861000" lon="-3.820296000">
        <ele>911.5</ele>
        <time>2020-10-14T13:27:23Z</time>
      </trkpt>
      <trkpt lat="37.587879000" lon="-3.820165000">
        <ele>911.1</ele>
        <time>2020-10-14T13:27:27Z</time>
      </trkpt>
      <trkpt lat="37.587887000" lon="-3.820043000">
        <ele>910.6</ele>
        <time>2020-10-14T13:27:30Z</time>
      </trkpt>
      <trkpt lat="37.587891000" lon="-3.819939000">
        <ele>910.1</ele>
        <time>2020-10-14T13:27:32Z</time>
      </trkpt>
      <trkpt lat="37.587908000" lon="-3.819804000">
        <ele>909.5</ele>
        <time>2020-10-14T13:27:34Z</time>
      </trkpt>
      <trkpt lat="37.587916000" lon="-3.819660000">
        <ele>909.1</ele>
        <time>2020-10-14T13:27:36Z</time>
      </trkpt>
      <trkpt lat="37.587975000" lon="-3.819530000">
        <ele>908.6</ele>
        <time>2020-10-14T13:27:38Z</time>
      </trkpt>
      <trkpt lat="37.588076000" lon="-3.819416000">
        <ele>908.2</ele>
        <time>2020-10-14T13:27:40Z</time>
      </trkpt>
      <trkpt lat="37.588172000" lon="-3.819303000">
        <ele>907.8</ele>
        <time>2020-10-14T13:27:42Z</time>
      </trkpt>
      <trkpt lat="37.588270000" lon="-3.819202000">
        <ele>907.5</ele>
        <time>2020-10-14T13:27:44Z</time>
      </trkpt>
      <trkpt lat="37.588374000" lon="-3.819097000">
        <ele>907.5</ele>
        <time>2020-10-14T13:27:46Z</time>
      </trkpt>
      <trkpt lat="37.588479000" lon="-3.818998000">
        <ele>907.5</ele>
        <time>2020-10-14T13:27:48Z</time>
      </trkpt>
      <trkpt lat="37.588576000" lon="-3.818902000">
        <ele>908.0</ele>
        <time>2020-10-14T13:27:50Z</time>
      </trkpt>
      <trkpt lat="37.588667000" lon="-3.818803000">
        <ele>908.7</ele>
        <time>2020-10-14T13:27:52Z</time>
      </trkpt>
      <trkpt lat="37.588750000" lon="-3.818732000">
        <ele>909.7</ele>
        <time>2020-10-14T13:27:54Z</time>
      </trkpt>
      <trkpt lat="37.588825000" lon="-3.818630000">
        <ele>910.8</ele>
        <time>2020-10-14T13:27:57Z</time>
      </trkpt>
      <trkpt lat="37.588887000" lon="-3.818556000">
        <ele>912.0</ele>
        <time>2020-10-14T13:28:01Z</time>
      </trkpt>
      <trkpt lat="37.588941000" lon="-3.818463000">
        <ele>913.4</ele>
        <time>2020-10-14T13:28:06Z</time>
      </trkpt>
      <trkpt lat="37.589016000" lon="-3.818373000">
        <ele>914.7</ele>
        <time>2020-10-14T13:28:11Z</time>
      </trkpt>
      <trkpt lat="37.589075000" lon="-3.818293000">
        <ele>916.2</ele>
        <time>2020-10-14T13:28:15Z</time>
      </trkpt>
      <trkpt lat="37.589140000" lon="-3.818219000">
        <ele>917.5</ele>
        <time>2020-10-14T13:28:19Z</time>
      </trkpt>
      <trkpt lat="37.589202000" lon="-3.818149000">
        <ele>918.8</ele>
        <time>2020-10-14T13:28:23Z</time>
      </trkpt>
      <trkpt lat="37.589252000" lon="-3.818068000">
        <ele>920.1</ele>
        <time>2020-10-14T13:28:28Z</time>
      </trkpt>
      <trkpt lat="37.589321000" lon="-3.817999000">
        <ele>921.1</ele>
        <time>2020-10-14T13:28:34Z</time>
      </trkpt>
      <trkpt lat="37.589391000" lon="-3.817938000">
        <ele>922.0</ele>
        <time>2020-10-14T13:28:41Z</time>
      </trkpt>
      <trkpt lat="37.589464000" lon="-3.818004000">
        <ele>922.8</ele>
        <time>2020-10-14T13:28:48Z</time>
      </trkpt>
      <trkpt lat="37.589520000" lon="-3.818081000">
        <ele>923.5</ele>
        <time>2020-10-14T13:28:59Z</time>
      </trkpt>
      <trkpt lat="37.589585000" lon="-3.818151000">
        <ele>924.3</ele>
        <time>2020-10-14T13:29:04Z</time>
      </trkpt>
      <trkpt lat="37.589646000" lon="-3.818246000">
        <ele>924.9</ele>
        <time>2020-10-14T13:29:11Z</time>
      </trkpt>
      <trkpt lat="37.589721000" lon="-3.818318000">
        <ele>925.5</ele>
        <time>2020-10-14T13:29:17Z</time>
      </trkpt>
      <trkpt lat="37.589793000" lon="-3.818375000">
        <ele>926.2</ele>
        <time>2020-10-14T13:29:22Z</time>
      </trkpt>
      <trkpt lat="37.589878000" lon="-3.818442000">
        <ele>926.8</ele>
        <time>2020-10-14T13:29:27Z</time>
      </trkpt>
      <trkpt lat="37.589951000" lon="-3.818497000">
        <ele>927.5</ele>
        <time>2020-10-14T13:29:31Z</time>
      </trkpt>
      <trkpt lat="37.590033000" lon="-3.818496000">
        <ele>928.0</ele>
        <time>2020-10-14T13:29:36Z</time>
      </trkpt>
      <trkpt lat="37.590080000" lon="-3.818403000">
        <ele>928.5</ele>
        <time>2020-10-14T13:29:40Z</time>
      </trkpt>
      <trkpt lat="37.590125000" lon="-3.818280000">
        <ele>929.0</ele>
        <time>2020-10-14T13:29:44Z</time>
      </trkpt>
      <trkpt lat="37.590172000" lon="-3.818166000">
        <ele>929.5</ele>
        <time>2020-10-14T13:29:48Z</time>
      </trkpt>
      <trkpt lat="37.590217000" lon="-3.818067000">
        <ele>929.8</ele>
        <time>2020-10-14T13:29:52Z</time>
      </trkpt>
      <trkpt lat="37.590259000" lon="-3.817976000">
        <ele>930.2</ele>
        <time>2020-10-14T13:29:56Z</time>
      </trkpt>
      <trkpt lat="37.590297000" lon="-3.817883000">
        <ele>930.5</ele>
        <time>2020-10-14T13:30:00Z</time>
      </trkpt>
      <trkpt lat="37.590331000" lon="-3.817782000">
        <ele>930.8</ele>
        <time>2020-10-14T13:30:03Z</time>
      </trkpt>
      <trkpt lat="37.590377000" lon="-3.817662000">
        <ele>930.9</ele>
        <time>2020-10-14T13:30:07Z</time>
      </trkpt>
      <trkpt lat="37.590440000" lon="-3.817560000">
        <ele>930.9</ele>
        <time>2020-10-14T13:30:11Z</time>
      </trkpt>
      <trkpt lat="37.590488000" lon="-3.817464000">
        <ele>930.8</ele>
        <time>2020-10-14T13:30:15Z</time>
      </trkpt>
      <trkpt lat="37.590570000" lon="-3.817428000">
        <ele>930.7</ele>
        <time>2020-10-14T13:30:23Z</time>
      </trkpt>
      <trkpt lat="37.590669000" lon="-3.817455000">
        <ele>930.5</ele>
        <time>2020-10-14T13:30:27Z</time>
      </trkpt>
      <trkpt lat="37.590766000" lon="-3.817483000">
        <ele>930.4</ele>
        <time>2020-10-14T13:30:30Z</time>
      </trkpt>
      <trkpt lat="37.590868000" lon="-3.817524000">
        <ele>930.0</ele>
        <time>2020-10-14T13:30:33Z</time>
      </trkpt>
      <trkpt lat="37.590955000" lon="-3.817525000">
        <ele>929.5</ele>
        <time>2020-10-14T13:30:36Z</time>
      </trkpt>
      <trkpt lat="37.590995000" lon="-3.817417000">
        <ele>928.9</ele>
        <time>2020-10-14T13:30:40Z</time>
      </trkpt>
      <trkpt lat="37.591060000" lon="-3.817329000">
        <ele>928.1</ele>
        <time>2020-10-14T13:30:44Z</time>
      </trkpt>
      <trkpt lat="37.591128000" lon="-3.817265000">
        <ele>927.3</ele>
        <time>2020-10-14T13:30:47Z</time>
      </trkpt>
      <trkpt lat="37.591187000" lon="-3.817184000">
        <ele>926.5</ele>
        <time>2020-10-14T13:30:49Z</time>
      </trkpt>
      <trkpt lat="37.591259000" lon="-3.817090000">
        <ele>925.7</ele>
        <time>2020-10-14T13:30:52Z</time>
      </trkpt>
      <trkpt lat="37.591343000" lon="-3.817012000">
        <ele>924.9</ele>
        <time>2020-10-14T13:30:55Z</time>
      </trkpt>
      <trkpt lat="37.591402000" lon="-3.816901000">
        <ele>924.1</ele>
        <time>2020-10-14T13:30:58Z</time>
      </trkpt>
      <trkpt lat="37.591438000" lon="-3.816809000">
        <ele>923.4</ele>
        <time>2020-10-14T13:31:00Z</time>
      </trkpt>
      <trkpt lat="37.591489000" lon="-3.816689000">
        <ele>922.5</ele>
        <time>2020-10-14T13:31:02Z</time>
      </trkpt>
      <trkpt lat="37.591512000" lon="-3.816556000">
        <ele>921.8</ele>
        <time>2020-10-14T13:31:04Z</time>
      </trkpt>
      <trkpt lat="37.591558000" lon="-3.816442000">
        <ele>921.1</ele>
        <time>2020-10-14T13:31:06Z</time>
      </trkpt>
      <trkpt lat="37.591587000" lon="-3.816307000">
        <ele>920.3</ele>
        <time>2020-10-14T13:31:08Z</time>
      </trkpt>
      <trkpt lat="37.591620000" lon="-3.816185000">
        <ele>919.5</ele>
        <time>2020-10-14T13:31:10Z</time>
      </trkpt>
      <trkpt lat="37.591693000" lon="-3.816073000">
        <ele>918.6</ele>
        <time>2020-10-14T13:31:13Z</time>
      </trkpt>
      <trkpt lat="37.591776000" lon="-3.816034000">
        <ele>917.7</ele>
        <time>2020-10-14T13:31:15Z</time>
      </trkpt>
      <trkpt lat="37.591858000" lon="-3.816003000">
        <ele>916.6</ele>
        <time>2020-10-14T13:31:17Z</time>
      </trkpt>
      <trkpt lat="37.591956000" lon="-3.815976000">
        <ele>915.6</ele>
        <time>2020-10-14T13:31:19Z</time>
      </trkpt>
      <trkpt lat="37.592066000" lon="-3.815963000">
        <ele>914.5</ele>
        <time>2020-10-14T13:31:21Z</time>
      </trkpt>
      <trkpt lat="37.592185000" lon="-3.815956000">
        <ele>913.4</ele>
        <time>2020-10-14T13:31:23Z</time>
      </trkpt>
      <trkpt lat="37.592310000" lon="-3.815946000">
        <ele>912.2</ele>
        <time>2020-10-14T13:31:25Z</time>
      </trkpt>
      <trkpt lat="37.592441000" lon="-3.815942000">
        <ele>911.0</ele>
        <time>2020-10-14T13:31:27Z</time>
      </trkpt>
      <trkpt lat="37.592560000" lon="-3.815934000">
        <ele>909.9</ele>
        <time>2020-10-14T13:31:29Z</time>
      </trkpt>
      <trkpt lat="37.592656000" lon="-3.815918000">
        <ele>908.9</ele>
        <time>2020-10-14T13:31:31Z</time>
      </trkpt>
      <trkpt lat="37.592748000" lon="-3.815900000">
        <ele>907.9</ele>
        <time>2020-10-14T13:31:33Z</time>
      </trkpt>
      <trkpt lat="37.592833000" lon="-3.815853000">
        <ele>907.0</ele>
        <time>2020-10-14T13:31:35Z</time>
      </trkpt>
      <trkpt lat="37.592903000" lon="-3.815780000">
        <ele>906.2</ele>
        <time>2020-10-14T13:31:37Z</time>
      </trkpt>
      <trkpt lat="37.592964000" lon="-3.815709000">
        <ele>905.5</ele>
        <time>2020-10-14T13:31:39Z</time>
      </trkpt>
      <trkpt lat="37.593028000" lon="-3.815642000">
        <ele>904.8</ele>
        <time>2020-10-14T13:31:41Z</time>
      </trkpt>
      <trkpt lat="37.593105000" lon="-3.815548000">
        <ele>904.4</ele>
        <time>2020-10-14T13:31:44Z</time>
      </trkpt>
      <trkpt lat="37.593175000" lon="-3.815451000">
        <ele>904.1</ele>
        <time>2020-10-14T13:31:47Z</time>
      </trkpt>
      <trkpt lat="37.593233000" lon="-3.815369000">
        <ele>903.9</ele>
        <time>2020-10-14T13:31:51Z</time>
      </trkpt>
      <trkpt lat="37.593285000" lon="-3.815471000">
        <ele>903.6</ele>
        <time>2020-10-14T13:35:07Z</time>
      </trkpt>
      <trkpt lat="37.593289000" lon="-3.815589000">
        <ele>903.3</ele>
        <time>2020-10-14T13:35:10Z</time>
      </trkpt>
      <trkpt lat="37.593216000" lon="-3.815621000">
        <ele>903.0</ele>
        <time>2020-10-14T13:36:16Z</time>
      </trkpt>
      <trkpt lat="37.593215000" lon="-3.815630000">
        <ele>902.3</ele>
        <time>2020-10-14T13:46:35Z</time>
      </trkpt>
      <trkpt lat="37.593227000" lon="-3.815516000">
        <ele>902.3</ele>
        <time>2020-10-14T13:47:51Z</time>
      </trkpt>
      <trkpt lat="37.593202000" lon="-3.815408000">
        <ele>902.1</ele>
        <time>2020-10-14T13:47:58Z</time>
      </trkpt>
      <trkpt lat="37.593251000" lon="-3.815312000">
        <ele>902.0</ele>
        <time>2020-10-14T13:48:01Z</time>
      </trkpt>
      <trkpt lat="37.593330000" lon="-3.815213000">
        <ele>901.9</ele>
        <time>2020-10-14T13:48:04Z</time>
      </trkpt>
      <trkpt lat="37.593424000" lon="-3.815112000">
        <ele>901.8</ele>
        <time>2020-10-14T13:48:07Z</time>
      </trkpt>
      <trkpt lat="37.593500000" lon="-3.815043000">
        <ele>901.5</ele>
        <time>2020-10-14T13:48:10Z</time>
      </trkpt>
      <trkpt lat="37.593600000" lon="-3.814981000">
        <ele>901.0</ele>
        <time>2020-10-14T13:48:11Z</time>
      </trkpt>
      <trkpt lat="37.593687000" lon="-3.814934000">
        <ele>900.5</ele>
        <time>2020-10-14T13:48:13Z</time>
      </trkpt>
      <trkpt lat="37.593775000" lon="-3.814894000">
        <ele>900.0</ele>
        <time>2020-10-14T13:48:15Z</time>
      </trkpt>
      <trkpt lat="37.593859000" lon="-3.814866000">
        <ele>899.7</ele>
        <time>2020-10-14T13:48:19Z</time>
      </trkpt>
      <trkpt lat="37.593949000" lon="-3.814833000">
        <ele>899.5</ele>
        <time>2020-10-14T13:48:19Z</time>
      </trkpt>
      <trkpt lat="37.594211000" lon="-3.814777000">
        <ele>899.2</ele>
        <time>2020-10-14T13:48:25Z</time>
      </trkpt>
      <trkpt lat="37.594302000" lon="-3.814764000">
        <ele>899.0</ele>
        <time>2020-10-14T13:48:28Z</time>
      </trkpt>
      <trkpt lat="37.594395000" lon="-3.814730000">
        <ele>898.9</ele>
        <time>2020-10-14T13:48:30Z</time>
      </trkpt>
      <trkpt lat="37.594628000" lon="-3.814664000">
        <ele>898.9</ele>
        <time>2020-10-14T13:48:36Z</time>
      </trkpt>
      <trkpt lat="37.594739000" lon="-3.814627000">
        <ele>899.0</ele>
        <time>2020-10-14T13:48:39Z</time>
      </trkpt>
      <trkpt lat="37.594840000" lon="-3.814576000">
        <ele>899.2</ele>
        <time>2020-10-14T13:48:42Z</time>
      </trkpt>
      <trkpt lat="37.594935000" lon="-3.814524000">
        <ele>899.6</ele>
        <time>2020-10-14T13:48:45Z</time>
      </trkpt>
      <trkpt lat="37.595031000" lon="-3.814472000">
        <ele>900.0</ele>
        <time>2020-10-14T13:48:48Z</time>
      </trkpt>
      <trkpt lat="37.595127000" lon="-3.814406000">
        <ele>900.2</ele>
        <time>2020-10-14T13:48:54Z</time>
      </trkpt>
      <trkpt lat="37.595227000" lon="-3.814338000">
        <ele>900.4</ele>
        <time>2020-10-14T13:48:54Z</time>
      </trkpt>
      <trkpt lat="37.595327000" lon="-3.814270000">
        <ele>900.8</ele>
        <time>2020-10-14T13:48:57Z</time>
      </trkpt>
      <trkpt lat="37.595428000" lon="-3.814198000">
        <ele>901.4</ele>
        <time>2020-10-14T13:49:16Z</time>
      </trkpt>
      <trkpt lat="37.595636000" lon="-3.814058000">
        <ele>902.0</ele>
        <time>2020-10-14T13:49:17Z</time>
      </trkpt>
      <trkpt lat="37.595790000" lon="-3.813886000">
        <ele>902.5</ele>
        <time>2020-10-14T13:49:17Z</time>
      </trkpt>
      <trkpt lat="37.595841000" lon="-3.813799000">
        <ele>903.0</ele>
        <time>2020-10-14T13:49:18Z</time>
      </trkpt>
      <trkpt lat="37.595937000" lon="-3.813617000">
        <ele>903.4</ele>
        <time>2020-10-14T13:49:18Z</time>
      </trkpt>
      <trkpt lat="37.596058000" lon="-3.813467000">
        <ele>903.6</ele>
        <time>2020-10-14T13:49:21Z</time>
      </trkpt>
      <trkpt lat="37.596136000" lon="-3.813405000">
        <ele>903.8</ele>
        <time>2020-10-14T13:49:23Z</time>
      </trkpt>
      <trkpt lat="37.596223000" lon="-3.813359000">
        <ele>904.1</ele>
        <time>2020-10-14T13:49:25Z</time>
      </trkpt>
      <trkpt lat="37.596300000" lon="-3.813324000">
        <ele>904.5</ele>
        <time>2020-10-14T13:49:27Z</time>
      </trkpt>
      <trkpt lat="37.596408000" lon="-3.813277000">
        <ele>904.9</ele>
        <time>2020-10-14T13:49:30Z</time>
      </trkpt>
      <trkpt lat="37.596515000" lon="-3.813250000">
        <ele>905.0</ele>
        <time>2020-10-14T13:49:33Z</time>
      </trkpt>
      <trkpt lat="37.596622000" lon="-3.813211000">
        <ele>905.0</ele>
        <time>2020-10-14T13:49:36Z</time>
      </trkpt>
      <trkpt lat="37.596729000" lon="-3.813177000">
        <ele>904.9</ele>
        <time>2020-10-14T13:49:39Z</time>
      </trkpt>
      <trkpt lat="37.596838000" lon="-3.813142000">
        <ele>904.8</ele>
        <time>2020-10-14T13:49:42Z</time>
      </trkpt>
      <trkpt lat="37.596947000" lon="-3.813106000">
        <ele>904.7</ele>
        <time>2020-10-14T13:49:45Z</time>
      </trkpt>
      <trkpt lat="37.597059000" lon="-3.813077000">
        <ele>904.6</ele>
        <time>2020-10-14T13:49:48Z</time>
      </trkpt>
      <trkpt lat="37.597169000" lon="-3.813039000">
        <ele>904.7</ele>
        <time>2020-10-14T13:49:51Z</time>
      </trkpt>
      <trkpt lat="37.597269000" lon="-3.812987000">
        <ele>904.9</ele>
        <time>2020-10-14T13:49:54Z</time>
      </trkpt>
      <trkpt lat="37.597363000" lon="-3.812934000">
        <ele>905.1</ele>
        <time>2020-10-14T13:49:57Z</time>
      </trkpt>
      <trkpt lat="37.597452000" lon="-3.812867000">
        <ele>905.4</ele>
        <time>2020-10-14T13:50:01Z</time>
      </trkpt>
      <trkpt lat="37.597535000" lon="-3.812792000">
        <ele>905.6</ele>
        <time>2020-10-14T13:50:03Z</time>
      </trkpt>
      <trkpt lat="37.597606000" lon="-3.812702000">
        <ele>905.8</ele>
        <time>2020-10-14T13:50:06Z</time>
      </trkpt>
      <trkpt lat="37.597676000" lon="-3.812602000">
        <ele>906.0</ele>
        <time>2020-10-14T13:50:09Z</time>
      </trkpt>
      <trkpt lat="37.597747000" lon="-3.812502000">
        <ele>906.2</ele>
        <time>2020-10-14T13:50:12Z</time>
      </trkpt>
      <trkpt lat="37.597816000" lon="-3.812399000">
        <ele>906.4</ele>
        <time>2020-10-14T13:50:15Z</time>
      </trkpt>
      <trkpt lat="37.597883000" lon="-3.812295000">
        <ele>906.5</ele>
        <time>2020-10-14T13:50:18Z</time>
      </trkpt>
      <trkpt lat="37.597959000" lon="-3.812200000">
        <ele>906.7</ele>
        <time>2020-10-14T13:50:21Z</time>
      </trkpt>
      <trkpt lat="37.598040000" lon="-3.812117000">
        <ele>906.8</ele>
        <time>2020-10-14T13:50:24Z</time>
      </trkpt>
      <trkpt lat="37.598132000" lon="-3.812041000">
        <ele>906.9</ele>
        <time>2020-10-14T13:50:27Z</time>
      </trkpt>
      <trkpt lat="37.598240000" lon="-3.811987000">
        <ele>907.0</ele>
        <time>2020-10-14T13:50:30Z</time>
      </trkpt>
      <trkpt lat="37.598355000" lon="-3.811942000">
        <ele>907.1</ele>
        <time>2020-10-14T13:50:33Z</time>
      </trkpt>
      <trkpt lat="37.598470000" lon="-3.811898000">
        <ele>907.2</ele>
        <time>2020-10-14T13:50:36Z</time>
      </trkpt>
      <trkpt lat="37.598549000" lon="-3.811870000">
        <ele>907.3</ele>
        <time>2020-10-14T13:50:38Z</time>
      </trkpt>
      <trkpt lat="37.598633000" lon="-3.811849000">
        <ele>907.5</ele>
        <time>2020-10-14T13:50:40Z</time>
      </trkpt>
      <trkpt lat="37.598718000" lon="-3.811826000">
        <ele>907.6</ele>
        <time>2020-10-14T13:50:42Z</time>
      </trkpt>
      <trkpt lat="37.598804000" lon="-3.811802000">
        <ele>907.8</ele>
        <time>2020-10-14T13:50:44Z</time>
      </trkpt>
      <trkpt lat="37.598889000" lon="-3.811773000">
        <ele>908.0</ele>
        <time>2020-10-14T13:50:46Z</time>
      </trkpt>
      <trkpt lat="37.598974000" lon="-3.811738000">
        <ele>908.2</ele>
        <time>2020-10-14T13:50:48Z</time>
      </trkpt>
      <trkpt lat="37.599054000" lon="-3.811701000">
        <ele>908.3</ele>
        <time>2020-10-14T13:50:50Z</time>
      </trkpt>
      <trkpt lat="37.599132000" lon="-3.811664000">
        <ele>908.3</ele>
        <time>2020-10-14T13:50:52Z</time>
      </trkpt>
      <trkpt lat="37.599239000" lon="-3.811621000">
        <ele>908.2</ele>
        <time>2020-10-14T13:50:55Z</time>
      </trkpt>
      <trkpt lat="37.599344000" lon="-3.811594000">
        <ele>907.9</ele>
        <time>2020-10-14T13:50:58Z</time>
      </trkpt>
      <trkpt lat="37.599457000" lon="-3.811589000">
        <ele>907.5</ele>
        <time>2020-10-14T13:51:01Z</time>
      </trkpt>
      <trkpt lat="37.599541000" lon="-3.811594000">
        <ele>907.1</ele>
        <time>2020-10-14T13:51:03Z</time>
      </trkpt>
      <trkpt lat="37.599628000" lon="-3.811603000">
        <ele>906.5</ele>
        <time>2020-10-14T13:51:05Z</time>
      </trkpt>
      <trkpt lat="37.599721000" lon="-3.811619000">
        <ele>906.1</ele>
        <time>2020-10-14T13:51:07Z</time>
      </trkpt>
      <trkpt lat="37.599819000" lon="-3.811634000">
        <ele>905.6</ele>
        <time>2020-10-14T13:51:09Z</time>
      </trkpt>
      <trkpt lat="37.599920000" lon="-3.811650000">
        <ele>905.3</ele>
        <time>2020-10-14T13:51:11Z</time>
      </trkpt>
      <trkpt lat="37.600020000" lon="-3.811668000">
        <ele>904.9</ele>
        <time>2020-10-14T13:51:13Z</time>
      </trkpt>
      <trkpt lat="37.600124000" lon="-3.811686000">
        <ele>904.7</ele>
        <time>2020-10-14T13:51:15Z</time>
      </trkpt>
      <trkpt lat="37.600227000" lon="-3.811708000">
        <ele>904.7</ele>
        <time>2020-10-14T13:51:17Z</time>
      </trkpt>
      <trkpt lat="37.600328000" lon="-3.811724000">
        <ele>904.8</ele>
        <time>2020-10-14T13:51:19Z</time>
      </trkpt>
      <trkpt lat="37.600439000" lon="-3.811736000">
        <ele>905.1</ele>
        <time>2020-10-14T13:51:21Z</time>
      </trkpt>
      <trkpt lat="37.600549000" lon="-3.811745000">
        <ele>905.5</ele>
        <time>2020-10-14T13:51:23Z</time>
      </trkpt>
      <trkpt lat="37.600660000" lon="-3.811734000">
        <ele>906.0</ele>
        <time>2020-10-14T13:51:25Z</time>
      </trkpt>
      <trkpt lat="37.600772000" lon="-3.811700000">
        <ele>906.6</ele>
        <time>2020-10-14T13:51:27Z</time>
      </trkpt>
      <trkpt lat="37.600873000" lon="-3.811668000">
        <ele>907.2</ele>
        <time>2020-10-14T13:51:29Z</time>
      </trkpt>
      <trkpt lat="37.600967000" lon="-3.811644000">
        <ele>907.8</ele>
        <time>2020-10-14T13:51:31Z</time>
      </trkpt>
      <trkpt lat="37.601049000" lon="-3.811614000">
        <ele>908.4</ele>
        <time>2020-10-14T13:51:33Z</time>
      </trkpt>
      <trkpt lat="37.601134000" lon="-3.811589000">
        <ele>909.0</ele>
        <time>2020-10-14T13:51:35Z</time>
      </trkpt>
      <trkpt lat="37.601240000" lon="-3.811569000">
        <ele>909.5</ele>
        <time>2020-10-14T13:51:39Z</time>
      </trkpt>
      <trkpt lat="37.601337000" lon="-3.811528000">
        <ele>910.2</ele>
        <time>2020-10-14T13:51:41Z</time>
      </trkpt>
      <trkpt lat="37.601430000" lon="-3.811486000">
        <ele>910.9</ele>
        <time>2020-10-14T13:51:44Z</time>
      </trkpt>
      <trkpt lat="37.601518000" lon="-3.811429000">
        <ele>911.6</ele>
        <time>2020-10-14T13:51:47Z</time>
      </trkpt>
      <trkpt lat="37.601592000" lon="-3.811373000">
        <ele>912.4</ele>
        <time>2020-10-14T13:51:50Z</time>
      </trkpt>
      <trkpt lat="37.601661000" lon="-3.811313000">
        <ele>913.1</ele>
        <time>2020-10-14T13:51:53Z</time>
      </trkpt>
      <trkpt lat="37.601743000" lon="-3.811241000">
        <ele>913.7</ele>
        <time>2020-10-14T13:52:01Z</time>
      </trkpt>
      <trkpt lat="37.601821000" lon="-3.811168000">
        <ele>914.4</ele>
        <time>2020-10-14T13:52:02Z</time>
      </trkpt>
      <trkpt lat="37.601899000" lon="-3.811087000">
        <ele>915.0</ele>
        <time>2020-10-14T13:52:05Z</time>
      </trkpt>
      <trkpt lat="37.601969000" lon="-3.811014000">
        <ele>915.6</ele>
        <time>2020-10-14T13:52:09Z</time>
      </trkpt>
      <trkpt lat="37.602036000" lon="-3.810946000">
        <ele>916.3</ele>
        <time>2020-10-14T13:52:14Z</time>
      </trkpt>
      <trkpt lat="37.602116000" lon="-3.810865000">
        <ele>916.9</ele>
        <time>2020-10-14T13:52:18Z</time>
      </trkpt>
      <trkpt lat="37.602187000" lon="-3.810798000">
        <ele>917.4</ele>
        <time>2020-10-14T13:52:22Z</time>
      </trkpt>
      <trkpt lat="37.602267000" lon="-3.810736000">
        <ele>917.8</ele>
        <time>2020-10-14T13:52:26Z</time>
      </trkpt>
      <trkpt lat="37.602355000" lon="-3.810683000">
        <ele>918.2</ele>
        <time>2020-10-14T13:52:30Z</time>
      </trkpt>
      <trkpt lat="37.602442000" lon="-3.810642000">
        <ele>918.6</ele>
        <time>2020-10-14T13:52:34Z</time>
      </trkpt>
      <trkpt lat="37.602533000" lon="-3.810602000">
        <ele>919.1</ele>
        <time>2020-10-14T13:52:38Z</time>
      </trkpt>
      <trkpt lat="37.602627000" lon="-3.810575000">
        <ele>919.6</ele>
        <time>2020-10-14T13:52:42Z</time>
      </trkpt>
      <trkpt lat="37.602721000" lon="-3.810557000">
        <ele>920.2</ele>
        <time>2020-10-14T13:52:46Z</time>
      </trkpt>
      <trkpt lat="37.602810000" lon="-3.810532000">
        <ele>920.6</ele>
        <time>2020-10-14T13:52:50Z</time>
      </trkpt>
      <trkpt lat="37.602904000" lon="-3.810512000">
        <ele>921.1</ele>
        <time>2020-10-14T13:52:54Z</time>
      </trkpt>
      <trkpt lat="37.602999000" lon="-3.810491000">
        <ele>921.5</ele>
        <time>2020-10-14T13:52:58Z</time>
      </trkpt>
      <trkpt lat="37.603097000" lon="-3.810474000">
        <ele>921.9</ele>
        <time>2020-10-14T13:53:02Z</time>
      </trkpt>
      <trkpt lat="37.603191000" lon="-3.810456000">
        <ele>922.4</ele>
        <time>2020-10-14T13:53:06Z</time>
      </trkpt>
      <trkpt lat="37.603275000" lon="-3.810440000">
        <ele>922.7</ele>
        <time>2020-10-14T13:53:10Z</time>
      </trkpt>
      <trkpt lat="37.603363000" lon="-3.810424000">
        <ele>923.2</ele>
        <time>2020-10-14T13:53:14Z</time>
      </trkpt>
      <trkpt lat="37.603448000" lon="-3.810415000">
        <ele>923.5</ele>
        <time>2020-10-14T13:53:18Z</time>
      </trkpt>
      <trkpt lat="37.603534000" lon="-3.810409000">
        <ele>923.9</ele>
        <time>2020-10-14T13:53:23Z</time>
      </trkpt>
      <trkpt lat="37.603630000" lon="-3.810410000">
        <ele>924.2</ele>
        <time>2020-10-14T13:53:26Z</time>
      </trkpt>
      <trkpt lat="37.603719000" lon="-3.810415000">
        <ele>924.5</ele>
        <time>2020-10-14T13:53:30Z</time>
      </trkpt>
      <trkpt lat="37.603803000" lon="-3.810427000">
        <ele>924.8</ele>
        <time>2020-10-14T13:53:34Z</time>
      </trkpt>
      <trkpt lat="37.603886000" lon="-3.810446000">
        <ele>925.2</ele>
        <time>2020-10-14T13:53:38Z</time>
      </trkpt>
      <trkpt lat="37.603970000" lon="-3.810481000">
        <ele>925.6</ele>
        <time>2020-10-14T13:53:42Z</time>
      </trkpt>
      <trkpt lat="37.604051000" lon="-3.810512000">
        <ele>926.0</ele>
        <time>2020-10-14T13:53:46Z</time>
      </trkpt>
      <trkpt lat="37.604134000" lon="-3.810556000">
        <ele>926.5</ele>
        <time>2020-10-14T13:53:50Z</time>
      </trkpt>
      <trkpt lat="37.604212000" lon="-3.810596000">
        <ele>927.0</ele>
        <time>2020-10-14T13:53:54Z</time>
      </trkpt>
      <trkpt lat="37.604292000" lon="-3.810636000">
        <ele>927.5</ele>
        <time>2020-10-14T13:53:58Z</time>
      </trkpt>
      <trkpt lat="37.604369000" lon="-3.810684000">
        <ele>928.2</ele>
        <time>2020-10-14T13:54:02Z</time>
      </trkpt>
      <trkpt lat="37.604449000" lon="-3.810730000">
        <ele>928.8</ele>
        <time>2020-10-14T13:54:06Z</time>
      </trkpt>
      <trkpt lat="37.604533000" lon="-3.810784000">
        <ele>929.6</ele>
        <time>2020-10-14T13:54:10Z</time>
      </trkpt>
      <trkpt lat="37.604616000" lon="-3.810838000">
        <ele>930.5</ele>
        <time>2020-10-14T13:54:14Z</time>
      </trkpt>
      <trkpt lat="37.604700000" lon="-3.810889000">
        <ele>931.5</ele>
        <time>2020-10-14T13:54:18Z</time>
      </trkpt>
      <trkpt lat="37.604786000" lon="-3.810943000">
        <ele>932.4</ele>
        <time>2020-10-14T13:54:22Z</time>
      </trkpt>
      <trkpt lat="37.604872000" lon="-3.811001000">
        <ele>933.2</ele>
        <time>2020-10-14T13:54:26Z</time>
      </trkpt>
      <trkpt lat="37.604961000" lon="-3.811058000">
        <ele>934.0</ele>
        <time>2020-10-14T13:54:30Z</time>
      </trkpt>
      <trkpt lat="37.605046000" lon="-3.811110000">
        <ele>934.6</ele>
        <time>2020-10-14T13:54:34Z</time>
      </trkpt>
      <trkpt lat="37.605133000" lon="-3.811168000">
        <ele>935.2</ele>
        <time>2020-10-14T13:54:38Z</time>
      </trkpt>
      <trkpt lat="37.605220000" lon="-3.811228000">
        <ele>935.5</ele>
        <time>2020-10-14T13:54:42Z</time>
      </trkpt>
      <trkpt lat="37.605304000" lon="-3.811281000">
        <ele>935.8</ele>
        <time>2020-10-14T13:54:46Z</time>
      </trkpt>
      <trkpt lat="37.605385000" lon="-3.811326000">
        <ele>936.0</ele>
        <time>2020-10-14T13:54:50Z</time>
      </trkpt>
      <trkpt lat="37.605463000" lon="-3.811385000">
        <ele>936.0</ele>
        <time>2020-10-14T13:54:54Z</time>
      </trkpt>
      <trkpt lat="37.605544000" lon="-3.811430000">
        <ele>936.0</ele>
        <time>2020-10-14T13:54:58Z</time>
      </trkpt>
      <trkpt lat="37.605623000" lon="-3.811484000">
        <ele>936.0</ele>
        <time>2020-10-14T13:55:02Z</time>
      </trkpt>
      <trkpt lat="37.605705000" lon="-3.811533000">
        <ele>936.1</ele>
        <time>2020-10-14T13:55:06Z</time>
      </trkpt>
      <trkpt lat="37.605785000" lon="-3.811581000">
        <ele>936.3</ele>
        <time>2020-10-14T13:55:10Z</time>
      </trkpt>
      <trkpt lat="37.605864000" lon="-3.811637000">
        <ele>936.5</ele>
        <time>2020-10-14T13:55:14Z</time>
      </trkpt>
      <trkpt lat="37.605947000" lon="-3.811684000">
        <ele>936.8</ele>
        <time>2020-10-14T13:55:18Z</time>
      </trkpt>
      <trkpt lat="37.606026000" lon="-3.811736000">
        <ele>937.3</ele>
        <time>2020-10-14T13:55:22Z</time>
      </trkpt>
      <trkpt lat="37.606108000" lon="-3.811782000">
        <ele>937.9</ele>
        <time>2020-10-14T13:55:26Z</time>
      </trkpt>
      <trkpt lat="37.606190000" lon="-3.811834000">
        <ele>938.5</ele>
        <time>2020-10-14T13:55:30Z</time>
      </trkpt>
      <trkpt lat="37.606272000" lon="-3.811887000">
        <ele>939.2</ele>
        <time>2020-10-14T13:55:34Z</time>
      </trkpt>
      <trkpt lat="37.606358000" lon="-3.811936000">
        <ele>939.7</ele>
        <time>2020-10-14T13:55:38Z</time>
      </trkpt>
      <trkpt lat="37.606438000" lon="-3.811986000">
        <ele>940.2</ele>
        <time>2020-10-14T13:55:42Z</time>
      </trkpt>
      <trkpt lat="37.606519000" lon="-3.812033000">
        <ele>940.5</ele>
        <time>2020-10-14T13:55:46Z</time>
      </trkpt>
      <trkpt lat="37.606600000" lon="-3.812080000">
        <ele>940.6</ele>
        <time>2020-10-14T13:55:50Z</time>
      </trkpt>
      <trkpt lat="37.606685000" lon="-3.812124000">
        <ele>940.8</ele>
        <time>2020-10-14T13:55:54Z</time>
      </trkpt>
      <trkpt lat="37.606763000" lon="-3.812180000">
        <ele>941.1</ele>
        <time>2020-10-14T13:55:58Z</time>
      </trkpt>
      <trkpt lat="37.606839000" lon="-3.812234000">
        <ele>941.4</ele>
        <time>2020-10-14T13:56:02Z</time>
      </trkpt>
      <trkpt lat="37.606913000" lon="-3.812291000">
        <ele>941.6</ele>
        <time>2020-10-14T13:56:06Z</time>
      </trkpt>
      <trkpt lat="37.606986000" lon="-3.812352000">
        <ele>942.0</ele>
        <time>2020-10-14T13:56:10Z</time>
      </trkpt>
      <trkpt lat="37.607055000" lon="-3.812418000">
        <ele>942.5</ele>
        <time>2020-10-14T13:56:14Z</time>
      </trkpt>
      <trkpt lat="37.607115000" lon="-3.812494000">
        <ele>943.0</ele>
        <time>2020-10-14T13:56:18Z</time>
      </trkpt>
      <trkpt lat="37.607182000" lon="-3.812572000">
        <ele>943.7</ele>
        <time>2020-10-14T13:56:22Z</time>
      </trkpt>
      <trkpt lat="37.607238000" lon="-3.812661000">
        <ele>944.6</ele>
        <time>2020-10-14T13:56:26Z</time>
      </trkpt>
      <trkpt lat="37.607290000" lon="-3.812751000">
        <ele>945.8</ele>
        <time>2020-10-14T13:56:30Z</time>
      </trkpt>
      <trkpt lat="37.607342000" lon="-3.812845000">
        <ele>947.1</ele>
        <time>2020-10-14T13:56:34Z</time>
      </trkpt>
      <trkpt lat="37.607394000" lon="-3.812939000">
        <ele>948.4</ele>
        <time>2020-10-14T13:56:38Z</time>
      </trkpt>
      <trkpt lat="37.607452000" lon="-3.813058000">
        <ele>949.5</ele>
        <time>2020-10-14T13:56:42Z</time>
      </trkpt>
      <trkpt lat="37.607506000" lon="-3.813152000">
        <ele>950.6</ele>
        <time>2020-10-14T13:56:45Z</time>
      </trkpt>
      <trkpt lat="37.607566000" lon="-3.813259000">
        <ele>951.7</ele>
        <time>2020-10-14T13:56:49Z</time>
      </trkpt>
      <trkpt lat="37.607618000" lon="-3.813347000">
        <ele>952.6</ele>
        <time>2020-10-14T13:56:54Z</time>
      </trkpt>
      <trkpt lat="37.607684000" lon="-3.813440000">
        <ele>953.5</ele>
        <time>2020-10-14T13:57:35Z</time>
      </trkpt>
      <trkpt lat="37.607738000" lon="-3.813541000">
        <ele>954.4</ele>
        <time>2020-10-14T13:57:40Z</time>
      </trkpt>
      <trkpt lat="37.607791000" lon="-3.813643000">
        <ele>955.1</ele>
        <time>2020-10-14T13:57:45Z</time>
      </trkpt>
      <trkpt lat="37.607841000" lon="-3.813752000">
        <ele>955.6</ele>
        <time>2020-10-14T13:57:50Z</time>
      </trkpt>
      <trkpt lat="37.607894000" lon="-3.813856000">
        <ele>956.0</ele>
        <time>2020-10-14T13:57:55Z</time>
      </trkpt>
      <trkpt lat="37.607947000" lon="-3.813962000">
        <ele>956.4</ele>
        <time>2020-10-14T13:58:00Z</time>
      </trkpt>
      <trkpt lat="37.608001000" lon="-3.814059000">
        <ele>956.7</ele>
        <time>2020-10-14T13:58:05Z</time>
      </trkpt>
      <trkpt lat="37.608050000" lon="-3.814157000">
        <ele>957.2</ele>
        <time>2020-10-14T13:58:10Z</time>
      </trkpt>
      <trkpt lat="37.608106000" lon="-3.814259000">
        <ele>957.7</ele>
        <time>2020-10-14T13:58:15Z</time>
      </trkpt>
      <trkpt lat="37.608160000" lon="-3.814357000">
        <ele>958.4</ele>
        <time>2020-10-14T13:58:20Z</time>
      </trkpt>
      <trkpt lat="37.608208000" lon="-3.814456000">
        <ele>959.1</ele>
        <time>2020-10-14T13:58:25Z</time>
      </trkpt>
      <trkpt lat="37.608260000" lon="-3.814548000">
        <ele>959.9</ele>
        <time>2020-10-14T13:58:30Z</time>
      </trkpt>
      <trkpt lat="37.608312000" lon="-3.814645000">
        <ele>960.8</ele>
        <time>2020-10-14T13:58:35Z</time>
      </trkpt>
      <trkpt lat="37.608362000" lon="-3.814740000">
        <ele>961.9</ele>
        <time>2020-10-14T13:58:40Z</time>
      </trkpt>
      <trkpt lat="37.608394000" lon="-3.814846000">
        <ele>963.1</ele>
        <time>2020-10-14T13:58:46Z</time>
      </trkpt>
      <trkpt lat="37.608432000" lon="-3.814942000">
        <ele>964.5</ele>
        <time>2020-10-14T13:58:51Z</time>
      </trkpt>
      <trkpt lat="37.608470000" lon="-3.815045000">
        <ele>965.8</ele>
        <time>2020-10-14T13:58:56Z</time>
      </trkpt>
      <trkpt lat="37.608486000" lon="-3.815163000">
        <ele>967.2</ele>
        <time>2020-10-14T13:59:01Z</time>
      </trkpt>
      <trkpt lat="37.608500000" lon="-3.815288000">
        <ele>968.6</ele>
        <time>2020-10-14T13:59:06Z</time>
      </trkpt>
      <trkpt lat="37.608489000" lon="-3.815413000">
        <ele>970.1</ele>
        <time>2020-10-14T13:59:11Z</time>
      </trkpt>
      <trkpt lat="37.608478000" lon="-3.815536000">
        <ele>971.5</ele>
        <time>2020-10-14T13:59:16Z</time>
      </trkpt>
      <trkpt lat="37.608451000" lon="-3.815655000">
        <ele>973.0</ele>
        <time>2020-10-14T13:59:21Z</time>
      </trkpt>
      <trkpt lat="37.608422000" lon="-3.815771000">
        <ele>974.4</ele>
        <time>2020-10-14T13:59:26Z</time>
      </trkpt>
      <trkpt lat="37.608382000" lon="-3.815883000">
        <ele>975.6</ele>
        <time>2020-10-14T13:59:31Z</time>
      </trkpt>
      <trkpt lat="37.608352000" lon="-3.815979000">
        <ele>976.9</ele>
        <time>2020-10-14T13:59:35Z</time>
      </trkpt>
      <trkpt lat="37.608309000" lon="-3.816088000">
        <ele>978.2</ele>
        <time>2020-10-14T13:59:40Z</time>
      </trkpt>
      <trkpt lat="37.608266000" lon="-3.816199000">
        <ele>979.5</ele>
        <time>2020-10-14T13:59:45Z</time>
      </trkpt>
      <trkpt lat="37.608222000" lon="-3.816306000">
        <ele>980.7</ele>
        <time>2020-10-14T13:59:50Z</time>
      </trkpt>
      <trkpt lat="37.608184000" lon="-3.816417000">
        <ele>982.0</ele>
        <time>2020-10-14T13:59:55Z</time>
      </trkpt>
      <trkpt lat="37.608150000" lon="-3.816535000">
        <ele>983.2</ele>
        <time>2020-10-14T14:00:00Z</time>
      </trkpt>
      <trkpt lat="37.608131000" lon="-3.816657000">
        <ele>984.5</ele>
        <time>2020-10-14T14:00:05Z</time>
      </trkpt>
      <trkpt lat="37.608128000" lon="-3.816780000">
        <ele>985.5</ele>
        <time>2020-10-14T14:00:10Z</time>
      </trkpt>
      <trkpt lat="37.608137000" lon="-3.816900000">
        <ele>986.5</ele>
        <time>2020-10-14T14:00:15Z</time>
      </trkpt>
      <trkpt lat="37.608158000" lon="-3.817022000">
        <ele>987.4</ele>
        <time>2020-10-14T14:00:20Z</time>
      </trkpt>
      <trkpt lat="37.608204000" lon="-3.817122000">
        <ele>988.1</ele>
        <time>2020-10-14T14:00:25Z</time>
      </trkpt>
      <trkpt lat="37.608242000" lon="-3.817220000">
        <ele>988.5</ele>
        <time>2020-10-14T14:00:30Z</time>
      </trkpt>
      <trkpt lat="37.608291000" lon="-3.817327000">
        <ele>988.8</ele>
        <time>2020-10-14T14:00:35Z</time>
      </trkpt>
      <trkpt lat="37.608345000" lon="-3.817422000">
        <ele>988.9</ele>
        <time>2020-10-14T14:00:40Z</time>
      </trkpt>
      <trkpt lat="37.608415000" lon="-3.817501000">
        <ele>988.9</ele>
        <time>2020-10-14T14:00:45Z</time>
      </trkpt>
      <trkpt lat="37.608494000" lon="-3.817574000">
        <ele>988.8</ele>
        <time>2020-10-14T14:00:50Z</time>
      </trkpt>
      <trkpt lat="37.608570000" lon="-3.817652000">
        <ele>988.6</ele>
        <time>2020-10-14T14:00:55Z</time>
      </trkpt>
      <trkpt lat="37.608646000" lon="-3.817720000">
        <ele>988.4</ele>
        <time>2020-10-14T14:01:00Z</time>
      </trkpt>
      <trkpt lat="37.608716000" lon="-3.817779000">
        <ele>988.2</ele>
        <time>2020-10-14T14:01:05Z</time>
      </trkpt>
      <trkpt lat="37.608780000" lon="-3.817849000">
        <ele>988.2</ele>
        <time>2020-10-14T14:01:10Z</time>
      </trkpt>
      <trkpt lat="37.608843000" lon="-3.817916000">
        <ele>988.4</ele>
        <time>2020-10-14T14:01:15Z</time>
      </trkpt>
      <trkpt lat="37.608891000" lon="-3.818012000">
        <ele>988.8</ele>
        <time>2020-10-14T14:01:20Z</time>
      </trkpt>
      <trkpt lat="37.608962000" lon="-3.818084000">
        <ele>989.5</ele>
        <time>2020-10-14T14:01:25Z</time>
      </trkpt>
      <trkpt lat="37.609019000" lon="-3.818169000">
        <ele>990.3</ele>
        <time>2020-10-14T14:01:30Z</time>
      </trkpt>
      <trkpt lat="37.609077000" lon="-3.818256000">
        <ele>991.2</ele>
        <time>2020-10-14T14:01:35Z</time>
      </trkpt>
      <trkpt lat="37.609127000" lon="-3.818359000">
        <ele>992.2</ele>
        <time>2020-10-14T14:01:40Z</time>
      </trkpt>
      <trkpt lat="37.609162000" lon="-3.818477000">
        <ele>993.3</ele>
        <time>2020-10-14T14:01:45Z</time>
      </trkpt>
      <trkpt lat="37.609204000" lon="-3.818585000">
        <ele>994.5</ele>
        <time>2020-10-14T14:01:50Z</time>
      </trkpt>
      <trkpt lat="37.609227000" lon="-3.818684000">
        <ele>995.6</ele>
        <time>2020-10-14T14:01:54Z</time>
      </trkpt>
      <trkpt lat="37.609259000" lon="-3.818804000">
        <ele>996.7</ele>
        <time>2020-10-14T14:01:59Z</time>
      </trkpt>
      <trkpt lat="37.609283000" lon="-3.818919000">
        <ele>997.7</ele>
        <time>2020-10-14T14:02:04Z</time>
      </trkpt>
      <trkpt lat="37.609300000" lon="-3.819028000">
        <ele>998.7</ele>
        <time>2020-10-14T14:02:09Z</time>
      </trkpt>
      <trkpt lat="37.609325000" lon="-3.819139000">
        <ele>999.6</ele>
        <time>2020-10-14T14:02:14Z</time>
      </trkpt>
      <trkpt lat="37.609346000" lon="-3.819252000">
        <ele>1000.5</ele>
        <time>2020-10-14T14:02:19Z</time>
      </trkpt>
      <trkpt lat="37.609367000" lon="-3.819362000">
        <ele>1001.4</ele>
        <time>2020-10-14T14:02:24Z</time>
      </trkpt>
      <trkpt lat="37.609392000" lon="-3.819474000">
        <ele>1002.2</ele>
        <time>2020-10-14T14:02:29Z</time>
      </trkpt>
      <trkpt lat="37.609416000" lon="-3.819590000">
        <ele>1003.0</ele>
        <time>2020-10-14T14:02:34Z</time>
      </trkpt>
      <trkpt lat="37.609440000" lon="-3.819704000">
        <ele>1003.8</ele>
        <time>2020-10-14T14:02:39Z</time>
      </trkpt>
      <trkpt lat="37.609473000" lon="-3.819816000">
        <ele>1004.7</ele>
        <time>2020-10-14T14:02:44Z</time>
      </trkpt>
      <trkpt lat="37.609507000" lon="-3.819929000">
        <ele>1005.6</ele>
        <time>2020-10-14T14:02:49Z</time>
      </trkpt>
      <trkpt lat="37.609548000" lon="-3.820042000">
        <ele>1006.5</ele>
        <time>2020-10-14T14:02:54Z</time>
      </trkpt>
      <trkpt lat="37.609591000" lon="-3.820146000">
        <ele>1007.5</ele>
        <time>2020-10-14T14:02:59Z</time>
      </trkpt>
      <trkpt lat="37.609643000" lon="-3.820245000">
        <ele>1008.4</ele>
        <time>2020-10-14T14:03:04Z</time>
      </trkpt>
      <trkpt lat="37.609701000" lon="-3.820343000">
        <ele>1009.3</ele>
        <time>2020-10-14T14:03:09Z</time>
      </trkpt>
      <trkpt lat="37.609756000" lon="-3.820419000">
        <ele>1010.2</ele>
        <time>2020-10-14T14:03:13Z</time>
      </trkpt>
      <trkpt lat="37.609818000" lon="-3.820496000">
        <ele>1011.1</ele>
        <time>2020-10-14T14:03:17Z</time>
      </trkpt>
      <trkpt lat="37.609887000" lon="-3.820569000">
        <ele>1012.0</ele>
        <time>2020-10-14T14:03:21Z</time>
      </trkpt>
      <trkpt lat="37.609956000" lon="-3.820631000">
        <ele>1012.9</ele>
        <time>2020-10-14T14:03:25Z</time>
      </trkpt>
      <trkpt lat="37.610037000" lon="-3.820703000">
        <ele>1013.8</ele>
        <time>2020-10-14T14:03:30Z</time>
      </trkpt>
      <trkpt lat="37.610110000" lon="-3.820754000">
        <ele>1014.5</ele>
        <time>2020-10-14T14:03:34Z</time>
      </trkpt>
      <trkpt lat="37.610184000" lon="-3.820796000">
        <ele>1015.4</ele>
        <time>2020-10-14T14:03:38Z</time>
      </trkpt>
      <trkpt lat="37.610262000" lon="-3.820851000">
        <ele>1016.2</ele>
        <time>2020-10-14T14:03:43Z</time>
      </trkpt>
      <trkpt lat="37.610340000" lon="-3.820894000">
        <ele>1017.0</ele>
        <time>2020-10-14T14:03:48Z</time>
      </trkpt>
      <trkpt lat="37.610429000" lon="-3.820943000">
        <ele>1017.8</ele>
        <time>2020-10-14T14:03:54Z</time>
      </trkpt>
      <trkpt lat="37.610520000" lon="-3.820958000">
        <ele>1018.6</ele>
        <time>2020-10-14T14:03:59Z</time>
      </trkpt>
      <trkpt lat="37.610595000" lon="-3.821021000">
        <ele>1019.4</ele>
        <time>2020-10-14T14:04:04Z</time>
      </trkpt>
      <trkpt lat="37.610681000" lon="-3.821030000">
        <ele>1020.2</ele>
        <time>2020-10-14T14:04:09Z</time>
      </trkpt>
      <trkpt lat="37.610766000" lon="-3.821051000">
        <ele>1020.9</ele>
        <time>2020-10-14T14:04:14Z</time>
      </trkpt>
      <trkpt lat="37.610843000" lon="-3.821103000">
        <ele>1021.5</ele>
        <time>2020-10-14T14:04:19Z</time>
      </trkpt>
      <trkpt lat="37.610921000" lon="-3.821138000">
        <ele>1022.1</ele>
        <time>2020-10-14T14:04:24Z</time>
      </trkpt>
      <trkpt lat="37.611000000" lon="-3.821195000">
        <ele>1022.7</ele>
        <time>2020-10-14T14:04:29Z</time>
      </trkpt>
      <trkpt lat="37.611090000" lon="-3.821222000">
        <ele>1023.1</ele>
        <time>2020-10-14T14:04:34Z</time>
      </trkpt>
      <trkpt lat="37.611170000" lon="-3.821272000">
        <ele>1023.5</ele>
        <time>2020-10-14T14:04:39Z</time>
      </trkpt>
      <trkpt lat="37.611254000" lon="-3.821267000">
        <ele>1023.8</ele>
        <time>2020-10-14T14:04:44Z</time>
      </trkpt>
      <trkpt lat="37.611341000" lon="-3.821313000">
        <ele>1023.9</ele>
        <time>2020-10-14T14:04:49Z</time>
      </trkpt>
      <trkpt lat="37.611412000" lon="-3.821398000">
        <ele>1023.9</ele>
        <time>2020-10-14T14:04:54Z</time>
      </trkpt>
      <trkpt lat="37.611510000" lon="-3.821408000">
        <ele>1023.8</ele>
        <time>2020-10-14T14:04:59Z</time>
      </trkpt>
      <trkpt lat="37.611593000" lon="-3.821479000">
        <ele>1023.6</ele>
        <time>2020-10-14T14:05:04Z</time>
      </trkpt>
      <trkpt lat="37.611687000" lon="-3.821512000">
        <ele>1023.5</ele>
        <time>2020-10-14T14:05:09Z</time>
      </trkpt>
      <trkpt lat="37.611782000" lon="-3.821519000">
        <ele>1023.5</ele>
        <time>2020-10-14T14:05:14Z</time>
      </trkpt>
      <trkpt lat="37.611866000" lon="-3.821576000">
        <ele>1023.6</ele>
        <time>2020-10-14T14:05:19Z</time>
      </trkpt>
      <trkpt lat="37.611947000" lon="-3.821612000">
        <ele>1023.9</ele>
        <time>2020-10-14T14:05:24Z</time>
      </trkpt>
      <trkpt lat="37.612038000" lon="-3.821622000">
        <ele>1024.5</ele>
        <time>2020-10-14T14:05:29Z</time>
      </trkpt>
      <trkpt lat="37.612127000" lon="-3.821666000">
        <ele>1025.1</ele>
        <time>2020-10-14T14:05:34Z</time>
      </trkpt>
      <trkpt lat="37.612210000" lon="-3.821738000">
        <ele>1025.8</ele>
        <time>2020-10-14T14:05:39Z</time>
      </trkpt>
      <trkpt lat="37.612298000" lon="-3.821777000">
        <ele>1026.8</ele>
        <time>2020-10-14T14:05:45Z</time>
      </trkpt>
      <trkpt lat="37.612382000" lon="-3.821835000">
        <ele>1027.8</ele>
        <time>2020-10-14T14:05:51Z</time>
      </trkpt>
      <trkpt lat="37.612458000" lon="-3.821893000">
        <ele>1028.9</ele>
        <time>2020-10-14T14:05:56Z</time>
      </trkpt>
      <trkpt lat="37.612548000" lon="-3.821887000">
        <ele>1030.0</ele>
        <time>2020-10-14T14:06:01Z</time>
      </trkpt>
      <trkpt lat="37.612639000" lon="-3.821902000">
        <ele>1031.1</ele>
        <time>2020-10-14T14:06:06Z</time>
      </trkpt>
      <trkpt lat="37.612724000" lon="-3.821942000">
        <ele>1032.1</ele>
        <time>2020-10-14T14:06:11Z</time>
      </trkpt>
      <trkpt lat="37.612813000" lon="-3.821919000">
        <ele>1033.0</ele>
        <time>2020-10-14T14:06:16Z</time>
      </trkpt>
      <trkpt lat="37.612910000" lon="-3.821907000">
        <ele>1033.8</ele>
        <time>2020-10-14T14:06:21Z</time>
      </trkpt>
      <trkpt lat="37.612992000" lon="-3.821894000">
        <ele>1034.5</ele>
        <time>2020-10-14T14:06:25Z</time>
      </trkpt>
      <trkpt lat="37.613074000" lon="-3.821874000">
        <ele>1035.3</ele>
        <time>2020-10-14T14:06:29Z</time>
      </trkpt>
      <trkpt lat="37.613173000" lon="-3.821848000">
        <ele>1036.1</ele>
        <time>2020-10-14T14:06:34Z</time>
      </trkpt>
      <trkpt lat="37.613254000" lon="-3.821818000">
        <ele>1036.8</ele>
        <time>2020-10-14T14:06:38Z</time>
      </trkpt>
      <trkpt lat="37.613345000" lon="-3.821775000">
        <ele>1037.7</ele>
        <time>2020-10-14T14:06:43Z</time>
      </trkpt>
      <trkpt lat="37.613441000" lon="-3.821726000">
        <ele>1038.8</ele>
        <time>2020-10-14T14:06:48Z</time>
      </trkpt>
      <trkpt lat="37.613528000" lon="-3.821685000">
        <ele>1040.0</ele>
        <time>2020-10-14T14:06:53Z</time>
      </trkpt>
      <trkpt lat="37.613617000" lon="-3.821644000">
        <ele>1041.4</ele>
        <time>2020-10-14T14:06:59Z</time>
      </trkpt>
      <trkpt lat="37.613702000" lon="-3.821616000">
        <ele>1042.7</ele>
        <time>2020-10-14T14:07:04Z</time>
      </trkpt>
      <trkpt lat="37.613785000" lon="-3.821579000">
        <ele>1044.1</ele>
        <time>2020-10-14T14:07:09Z</time>
      </trkpt>
      <trkpt lat="37.613880000" lon="-3.821560000">
        <ele>1045.4</ele>
        <time>2020-10-14T14:07:15Z</time>
      </trkpt>
      <trkpt lat="37.613976000" lon="-3.821549000">
        <ele>1046.5</ele>
        <time>2020-10-14T14:07:21Z</time>
      </trkpt>
      <trkpt lat="37.614061000" lon="-3.821548000">
        <ele>1047.5</ele>
        <time>2020-10-14T14:07:26Z</time>
      </trkpt>
      <trkpt lat="37.614148000" lon="-3.821565000">
        <ele>1048.5</ele>
        <time>2020-10-14T14:07:31Z</time>
      </trkpt>
      <trkpt lat="37.614224000" lon="-3.821607000">
        <ele>1049.5</ele>
        <time>2020-10-14T14:07:36Z</time>
      </trkpt>
      <trkpt lat="37.614306000" lon="-3.821613000">
        <ele>1050.2</ele>
        <time>2020-10-14T14:07:41Z</time>
      </trkpt>
      <trkpt lat="37.614378000" lon="-3.821671000">
        <ele>1050.8</ele>
        <time>2020-10-14T14:07:46Z</time>
      </trkpt>
      <trkpt lat="37.614458000" lon="-3.821710000">
        <ele>1051.5</ele>
        <time>2020-10-14T14:07:51Z</time>
      </trkpt>
      <trkpt lat="37.614544000" lon="-3.821763000">
        <ele>1052.1</ele>
        <time>2020-10-14T14:07:57Z</time>
      </trkpt>
      <trkpt lat="37.614614000" lon="-3.821839000">
        <ele>1052.7</ele>
        <time>2020-10-14T14:08:02Z</time>
      </trkpt>
      <trkpt lat="37.614683000" lon="-3.821912000">
        <ele>1053.4</ele>
        <time>2020-10-14T14:08:07Z</time>
      </trkpt>
      <trkpt lat="37.614746000" lon="-3.821998000">
        <ele>1054.2</ele>
        <time>2020-10-14T14:08:12Z</time>
      </trkpt>
      <trkpt lat="37.614802000" lon="-3.822090000">
        <ele>1055.1</ele>
        <time>2020-10-14T14:08:17Z</time>
      </trkpt>
      <trkpt lat="37.614844000" lon="-3.822199000">
        <ele>1056.0</ele>
        <time>2020-10-14T14:08:23Z</time>
      </trkpt>
      <trkpt lat="37.614881000" lon="-3.822298000">
        <ele>1056.9</ele>
        <time>2020-10-14T14:08:29Z</time>
      </trkpt>
      <trkpt lat="37.614913000" lon="-3.822402000">
        <ele>1058.0</ele>
        <time>2020-10-14T14:08:35Z</time>
      </trkpt>
      <trkpt lat="37.614935000" lon="-3.822511000">
        <ele>1059.2</ele>
        <time>2020-10-14T14:08:41Z</time>
      </trkpt>
      <trkpt lat="37.614943000" lon="-3.822616000">
        <ele>1060.5</ele>
        <time>2020-10-14T14:08:46Z</time>
      </trkpt>
      <trkpt lat="37.614950000" lon="-3.822722000">
        <ele>1061.7</ele>
        <time>2020-10-14T14:08:51Z</time>
      </trkpt>
      <trkpt lat="37.614954000" lon="-3.822829000">
        <ele>1063.0</ele>
        <time>2020-10-14T14:08:56Z</time>
      </trkpt>
      <trkpt lat="37.614955000" lon="-3.822941000">
        <ele>1064.3</ele>
        <time>2020-10-14T14:09:01Z</time>
      </trkpt>
      <trkpt lat="37.614968000" lon="-3.823060000">
        <ele>1065.6</ele>
        <time>2020-10-14T14:09:06Z</time>
      </trkpt>
      <trkpt lat="37.614967000" lon="-3.823165000">
        <ele>1067.0</ele>
        <time>2020-10-14T14:09:11Z</time>
      </trkpt>
      <trkpt lat="37.614969000" lon="-3.823286000">
        <ele>1068.5</ele>
        <time>2020-10-14T14:09:16Z</time>
      </trkpt>
      <trkpt lat="37.614971000" lon="-3.823395000">
        <ele>1070.1</ele>
        <time>2020-10-14T14:09:21Z</time>
      </trkpt>
      <trkpt lat="37.614973000" lon="-3.823501000">
        <ele>1071.8</ele>
        <time>2020-10-14T14:09:26Z</time>
      </trkpt>
      <trkpt lat="37.614984000" lon="-3.823617000">
        <ele>1073.5</ele>
        <time>2020-10-14T14:09:31Z</time>
      </trkpt>
      <trkpt lat="37.615016000" lon="-3.823726000">
        <ele>1075.2</ele>
        <time>2020-10-14T14:09:36Z</time>
      </trkpt>
      <trkpt lat="37.615053000" lon="-3.823826000">
        <ele>1076.8</ele>
        <time>2020-10-14T14:09:41Z</time>
      </trkpt>
      <trkpt lat="37.615095000" lon="-3.823930000">
        <ele>1078.5</ele>
        <time>2020-10-14T14:09:46Z</time>
      </trkpt>
      <trkpt lat="37.615149000" lon="-3.824015000">
        <ele>1080.2</ele>
        <time>2020-10-14T14:09:51Z</time>
      </trkpt>
      <trkpt lat="37.615220000" lon="-3.824080000">
        <ele>1081.8</ele>
        <time>2020-10-14T14:09:56Z</time>
      </trkpt>
      <trkpt lat="37.615303000" lon="-3.824144000">
        <ele>1083.4</ele>
        <time>2020-10-14T14:10:02Z</time>
      </trkpt>
      <trkpt lat="37.615382000" lon="-3.824195000">
        <ele>1084.8</ele>
        <time>2020-10-14T14:10:07Z</time>
      </trkpt>
      <trkpt lat="37.615456000" lon="-3.824239000">
        <ele>1086.1</ele>
        <time>2020-10-14T14:10:11Z</time>
      </trkpt>
      <trkpt lat="37.615544000" lon="-3.824284000">
        <ele>1087.3</ele>
        <time>2020-10-14T14:10:16Z</time>
      </trkpt>
      <trkpt lat="37.615639000" lon="-3.824311000">
        <ele>1088.3</ele>
        <time>2020-10-14T14:10:21Z</time>
      </trkpt>
      <trkpt lat="37.615729000" lon="-3.824317000">
        <ele>1089.3</ele>
        <time>2020-10-14T14:10:27Z</time>
      </trkpt>
      <trkpt lat="37.615816000" lon="-3.824318000">
        <ele>1090.1</ele>
        <time>2020-10-14T14:10:33Z</time>
      </trkpt>
      <trkpt lat="37.615906000" lon="-3.824310000">
        <ele>1090.9</ele>
        <time>2020-10-14T14:10:40Z</time>
      </trkpt>
      <trkpt lat="37.615997000" lon="-3.824296000">
        <ele>1091.6</ele>
        <time>2020-10-14T14:10:46Z</time>
      </trkpt>
      <trkpt lat="37.616078000" lon="-3.824294000">
        <ele>1092.3</ele>
        <time>2020-10-14T14:10:51Z</time>
      </trkpt>
      <trkpt lat="37.616172000" lon="-3.824288000">
        <ele>1092.9</ele>
        <time>2020-10-14T14:10:57Z</time>
      </trkpt>
      <trkpt lat="37.616262000" lon="-3.824280000">
        <ele>1093.5</ele>
        <time>2020-10-14T14:11:03Z</time>
      </trkpt>
      <trkpt lat="37.616344000" lon="-3.824281000">
        <ele>1094.2</ele>
        <time>2020-10-14T14:11:09Z</time>
      </trkpt>
      <trkpt lat="37.616428000" lon="-3.824270000">
        <ele>1094.9</ele>
        <time>2020-10-14T14:11:16Z</time>
      </trkpt>
      <trkpt lat="37.616519000" lon="-3.824260000">
        <ele>1095.5</ele>
        <time>2020-10-14T14:11:23Z</time>
      </trkpt>
      <trkpt lat="37.616602000" lon="-3.824259000">
        <ele>1096.2</ele>
        <time>2020-10-14T14:11:29Z</time>
      </trkpt>
      <trkpt lat="37.616686000" lon="-3.824255000">
        <ele>1096.7</ele>
        <time>2020-10-14T14:11:35Z</time>
      </trkpt>
      <trkpt lat="37.616769000" lon="-3.824246000">
        <ele>1097.3</ele>
        <time>2020-10-14T14:11:41Z</time>
      </trkpt>
      <trkpt lat="37.616860000" lon="-3.824243000">
        <ele>1097.6</ele>
        <time>2020-10-14T14:11:47Z</time>
      </trkpt>
      <trkpt lat="37.616954000" lon="-3.824233000">
        <ele>1097.8</ele>
        <time>2020-10-14T14:11:53Z</time>
      </trkpt>
      <trkpt lat="37.617049000" lon="-3.824216000">
        <ele>1097.9</ele>
        <time>2020-10-14T14:11:59Z</time>
      </trkpt>
      <trkpt lat="37.617142000" lon="-3.824200000">
        <ele>1097.9</ele>
        <time>2020-10-14T14:12:05Z</time>
      </trkpt>
      <trkpt lat="37.617234000" lon="-3.824191000">
        <ele>1097.8</ele>
        <time>2020-10-14T14:12:11Z</time>
      </trkpt>
      <trkpt lat="37.617315000" lon="-3.824184000">
        <ele>1097.6</ele>
        <time>2020-10-14T14:12:17Z</time>
      </trkpt>
      <trkpt lat="37.617400000" lon="-3.824176000">
        <ele>1097.5</ele>
        <time>2020-10-14T14:12:22Z</time>
      </trkpt>
      <trkpt lat="37.617484000" lon="-3.824174000">
        <ele>1097.5</ele>
        <time>2020-10-14T14:12:27Z</time>
      </trkpt>
      <trkpt lat="37.617568000" lon="-3.824165000">
        <ele>1097.5</ele>
        <time>2020-10-14T14:12:32Z</time>
      </trkpt>
      <trkpt lat="37.617649000" lon="-3.824160000">
        <ele>1097.7</ele>
        <time>2020-10-14T14:12:37Z</time>
      </trkpt>
      <trkpt lat="37.617744000" lon="-3.824149000">
        <ele>1098.0</ele>
        <time>2020-10-14T14:12:43Z</time>
      </trkpt>
      <trkpt lat="37.617837000" lon="-3.824133000">
        <ele>1098.5</ele>
        <time>2020-10-14T14:12:49Z</time>
      </trkpt>
      <trkpt lat="37.617929000" lon="-3.824129000">
        <ele>1099.1</ele>
        <time>2020-10-14T14:12:55Z</time>
      </trkpt>
      <trkpt lat="37.618022000" lon="-3.824116000">
        <ele>1099.8</ele>
        <time>2020-10-14T14:13:01Z</time>
      </trkpt>
      <trkpt lat="37.618115000" lon="-3.824109000">
        <ele>1100.6</ele>
        <time>2020-10-14T14:13:07Z</time>
      </trkpt>
      <trkpt lat="37.618197000" lon="-3.824110000">
        <ele>1101.5</ele>
        <time>2020-10-14T14:13:12Z</time>
      </trkpt>
      <trkpt lat="37.618293000" lon="-3.824098000">
        <ele>1102.5</ele>
        <time>2020-10-14T14:13:18Z</time>
      </trkpt>
      <trkpt lat="37.618386000" lon="-3.824095000">
        <ele>1103.5</ele>
        <time>2020-10-14T14:13:24Z</time>
      </trkpt>
      <trkpt lat="37.618482000" lon="-3.824099000">
        <ele>1104.3</ele>
        <time>2020-10-14T14:13:30Z</time>
      </trkpt>
      <trkpt lat="37.618574000" lon="-3.824111000">
        <ele>1105.0</ele>
        <time>2020-10-14T14:13:36Z</time>
      </trkpt>
      <trkpt lat="37.618665000" lon="-3.824119000">
        <ele>1105.8</ele>
        <time>2020-10-14T14:13:41Z</time>
      </trkpt>
      <trkpt lat="37.618759000" lon="-3.824127000">
        <ele>1106.6</ele>
        <time>2020-10-14T14:13:47Z</time>
      </trkpt>
      <trkpt lat="37.618850000" lon="-3.824163000">
        <ele>1107.5</ele>
        <time>2020-10-14T14:13:53Z</time>
      </trkpt>
      <trkpt lat="37.618939000" lon="-3.824168000">
        <ele>1108.2</ele>
        <time>2020-10-14T14:13:59Z</time>
      </trkpt>
      <trkpt lat="37.619031000" lon="-3.824189000">
        <ele>1109.1</ele>
        <time>2020-10-14T14:14:05Z</time>
      </trkpt>
      <trkpt lat="37.619118000" lon="-3.824219000">
        <ele>1110.0</ele>
        <time>2020-10-14T14:14:11Z</time>
      </trkpt>
      <trkpt lat="37.619209000" lon="-3.824248000">
        <ele>1110.8</ele>
        <time>2020-10-14T14:14:17Z</time>
      </trkpt>
      <trkpt lat="37.619292000" lon="-3.824282000">
        <ele>1111.7</ele>
        <time>2020-10-14T14:14:23Z</time>
      </trkpt>
      <trkpt lat="37.619372000" lon="-3.824319000">
        <ele>1112.4</ele>
        <time>2020-10-14T14:14:29Z</time>
      </trkpt>
      <trkpt lat="37.619451000" lon="-3.824377000">
        <ele>1113.1</ele>
        <time>2020-10-14T14:14:35Z</time>
      </trkpt>
      <trkpt lat="37.619531000" lon="-3.824428000">
        <ele>1113.8</ele>
        <time>2020-10-14T14:14:41Z</time>
      </trkpt>
      <trkpt lat="37.619618000" lon="-3.824456000">
        <ele>1114.4</ele>
        <time>2020-10-14T14:14:47Z</time>
      </trkpt>
      <trkpt lat="37.619671000" lon="-3.824539000">
        <ele>1115.0</ele>
        <time>2020-10-14T14:14:53Z</time>
      </trkpt>
      <trkpt lat="37.619762000" lon="-3.824542000">
        <ele>1115.5</ele>
        <time>2020-10-14T14:14:59Z</time>
      </trkpt>
      <trkpt lat="37.619837000" lon="-3.824589000">
        <ele>1116.1</ele>
        <time>2020-10-14T14:15:05Z</time>
      </trkpt>
      <trkpt lat="37.619917000" lon="-3.824638000">
        <ele>1116.5</ele>
        <time>2020-10-14T14:15:11Z</time>
      </trkpt>
      <trkpt lat="37.619997000" lon="-3.824685000">
        <ele>1117.1</ele>
        <time>2020-10-14T14:15:17Z</time>
      </trkpt>
      <trkpt lat="37.620064000" lon="-3.824764000">
        <ele>1117.8</ele>
        <time>2020-10-14T14:15:23Z</time>
      </trkpt>
      <trkpt lat="37.620149000" lon="-3.824812000">
        <ele>1118.5</ele>
        <time>2020-10-14T14:15:29Z</time>
      </trkpt>
      <trkpt lat="37.620232000" lon="-3.824824000">
        <ele>1119.5</ele>
        <time>2020-10-14T14:15:34Z</time>
      </trkpt>
      <trkpt lat="37.620319000" lon="-3.824869000">
        <ele>1120.5</ele>
        <time>2020-10-14T14:15:40Z</time>
      </trkpt>
      <trkpt lat="37.620401000" lon="-3.824922000">
        <ele>1121.6</ele>
        <time>2020-10-14T14:15:46Z</time>
      </trkpt>
      <trkpt lat="37.620482000" lon="-3.824972000">
        <ele>1122.8</ele>
        <time>2020-10-14T14:15:52Z</time>
      </trkpt>
      <trkpt lat="37.620554000" lon="-3.825022000">
        <ele>1123.8</ele>
        <time>2020-10-14T14:15:58Z</time>
      </trkpt>
      <trkpt lat="37.620638000" lon="-3.825072000">
        <ele>1125.0</ele>
        <time>2020-10-14T14:16:04Z</time>
      </trkpt>
      <trkpt lat="37.620708000" lon="-3.825134000">
        <ele>1126.2</ele>
        <time>2020-10-14T14:16:10Z</time>
      </trkpt>
      <trkpt lat="37.620768000" lon="-3.825224000">
        <ele>1127.4</ele>
        <time>2020-10-14T14:16:16Z</time>
      </trkpt>
      <trkpt lat="37.620854000" lon="-3.825223000">
        <ele>1128.6</ele>
        <time>2020-10-14T14:16:21Z</time>
      </trkpt>
      <trkpt lat="37.620936000" lon="-3.825265000">
        <ele>1129.9</ele>
        <time>2020-10-14T14:16:27Z</time>
      </trkpt>
      <trkpt lat="37.621004000" lon="-3.825337000">
        <ele>1131.4</ele>
        <time>2020-10-14T14:16:34Z</time>
      </trkpt>
      <trkpt lat="37.621091000" lon="-3.825338000">
        <ele>1133.0</ele>
        <time>2020-10-14T14:16:41Z</time>
      </trkpt>
      <trkpt lat="37.621170000" lon="-3.825388000">
        <ele>1134.7</ele>
        <time>2020-10-14T14:16:48Z</time>
      </trkpt>
      <trkpt lat="37.621244000" lon="-3.825460000">
        <ele>1136.5</ele>
        <time>2020-10-14T14:16:55Z</time>
      </trkpt>
      <trkpt lat="37.621338000" lon="-3.825474000">
        <ele>1138.4</ele>
        <time>2020-10-14T14:17:01Z</time>
      </trkpt>
      <trkpt lat="37.621425000" lon="-3.825525000">
        <ele>1140.5</ele>
        <time>2020-10-14T14:17:07Z</time>
      </trkpt>
      <trkpt lat="37.621507000" lon="-3.825581000">
        <ele>1142.5</ele>
        <time>2020-10-14T14:17:13Z</time>
      </trkpt>
      <trkpt lat="37.621586000" lon="-3.825616000">
        <ele>1144.6</ele>
        <time>2020-10-14T14:17:18Z</time>
      </trkpt>
      <trkpt lat="37.621665000" lon="-3.825638000">
        <ele>1146.8</ele>
        <time>2020-10-14T14:17:24Z</time>
      </trkpt>
      <trkpt lat="37.621757000" lon="-3.825661000">
        <ele>1148.9</ele>
        <time>2020-10-14T14:17:31Z</time>
      </trkpt>
      <trkpt lat="37.621839000" lon="-3.825691000">
        <ele>1150.9</ele>
        <time>2020-10-14T14:17:37Z</time>
      </trkpt>
      <trkpt lat="37.621926000" lon="-3.825693000">
        <ele>1152.7</ele>
        <time>2020-10-14T14:17:43Z</time>
      </trkpt>
      <trkpt lat="37.622018000" lon="-3.825700000">
        <ele>1154.4</ele>
        <time>2020-10-14T14:17:49Z</time>
      </trkpt>
      <trkpt lat="37.622110000" lon="-3.825709000">
        <ele>1155.8</ele>
        <time>2020-10-14T14:17:55Z</time>
      </trkpt>
      <trkpt lat="37.622206000" lon="-3.825714000">
        <ele>1157.2</ele>
        <time>2020-10-14T14:18:02Z</time>
      </trkpt>
      <trkpt lat="37.622299000" lon="-3.825705000">
        <ele>1158.4</ele>
        <time>2020-10-14T14:18:08Z</time>
      </trkpt>
      <trkpt lat="37.622386000" lon="-3.825694000">
        <ele>1159.4</ele>
        <time>2020-10-14T14:18:13Z</time>
      </trkpt>
      <trkpt lat="37.622476000" lon="-3.825673000">
        <ele>1160.3</ele>
        <time>2020-10-14T14:18:20Z</time>
      </trkpt>
      <trkpt lat="37.622558000" lon="-3.825651000">
        <ele>1160.9</ele>
        <time>2020-10-14T14:18:27Z</time>
      </trkpt>
      <trkpt lat="37.622644000" lon="-3.825621000">
        <ele>1161.4</ele>
        <time>2020-10-14T14:18:32Z</time>
      </trkpt>
      <trkpt lat="37.622724000" lon="-3.825600000">
        <ele>1161.6</ele>
        <time>2020-10-14T14:18:38Z</time>
      </trkpt>
      <trkpt lat="37.622812000" lon="-3.825571000">
        <ele>1161.8</ele>
        <time>2020-10-14T14:18:44Z</time>
      </trkpt>
      <trkpt lat="37.622897000" lon="-3.825545000">
        <ele>1161.9</ele>
        <time>2020-10-14T14:18:50Z</time>
      </trkpt>
      <trkpt lat="37.622990000" lon="-3.825513000">
        <ele>1161.9</ele>
        <time>2020-10-14T14:18:56Z</time>
      </trkpt>
      <trkpt lat="37.623070000" lon="-3.825489000">
        <ele>1161.9</ele>
        <time>2020-10-14T14:19:01Z</time>
      </trkpt>
      <trkpt lat="37.623163000" lon="-3.825463000">
        <ele>1161.8</ele>
        <time>2020-10-14T14:19:06Z</time>
      </trkpt>
      <trkpt lat="37.623244000" lon="-3.825433000">
        <ele>1161.9</ele>
        <time>2020-10-14T14:19:10Z</time>
      </trkpt>
      <trkpt lat="37.623336000" lon="-3.825406000">
        <ele>1162.2</ele>
        <time>2020-10-14T14:19:16Z</time>
      </trkpt>
      <trkpt lat="37.623424000" lon="-3.825367000">
        <ele>1162.6</ele>
        <time>2020-10-14T14:19:22Z</time>
      </trkpt>
      <trkpt lat="37.623515000" lon="-3.825338000">
        <ele>1163.2</ele>
        <time>2020-10-14T14:19:28Z</time>
      </trkpt>
      <trkpt lat="37.623598000" lon="-3.825301000">
        <ele>1163.9</ele>
        <time>2020-10-14T14:19:34Z</time>
      </trkpt>
      <trkpt lat="37.623677000" lon="-3.825266000">
        <ele>1164.7</ele>
        <time>2020-10-14T14:19:39Z</time>
      </trkpt>
      <trkpt lat="37.623771000" lon="-3.825239000">
        <ele>1165.5</ele>
        <time>2020-10-14T14:19:45Z</time>
      </trkpt>
      <trkpt lat="37.623857000" lon="-3.825212000">
        <ele>1166.3</ele>
        <time>2020-10-14T14:19:50Z</time>
      </trkpt>
      <trkpt lat="37.623944000" lon="-3.825180000">
        <ele>1166.9</ele>
        <time>2020-10-14T14:19:55Z</time>
      </trkpt>
      <trkpt lat="37.624031000" lon="-3.825145000">
        <ele>1167.5</ele>
        <time>2020-10-14T14:20:00Z</time>
      </trkpt>
      <trkpt lat="37.624120000" lon="-3.825116000">
        <ele>1168.1</ele>
        <time>2020-10-14T14:20:05Z</time>
      </trkpt>
      <trkpt lat="37.624200000" lon="-3.825078000">
        <ele>1168.5</ele>
        <time>2020-10-14T14:20:09Z</time>
      </trkpt>
      <trkpt lat="37.624282000" lon="-3.825055000">
        <ele>1168.9</ele>
        <time>2020-10-14T14:20:13Z</time>
      </trkpt>
      <trkpt lat="37.624375000" lon="-3.825017000">
        <ele>1169.1</ele>
        <time>2020-10-14T14:20:18Z</time>
      </trkpt>
      <trkpt lat="37.624462000" lon="-3.825003000">
        <ele>1169.2</ele>
        <time>2020-10-14T14:20:23Z</time>
      </trkpt>
      <trkpt lat="37.624548000" lon="-3.824971000">
        <ele>1169.4</ele>
        <time>2020-10-14T14:20:28Z</time>
      </trkpt>
      <trkpt lat="37.624642000" lon="-3.824942000">
        <ele>1169.5</ele>
        <time>2020-10-14T14:20:33Z</time>
      </trkpt>
      <trkpt lat="37.624729000" lon="-3.824905000">
        <ele>1169.7</ele>
        <time>2020-10-14T14:20:38Z</time>
      </trkpt>
      <trkpt lat="37.624809000" lon="-3.824859000">
        <ele>1170.1</ele>
        <time>2020-10-14T14:20:43Z</time>
      </trkpt>
      <trkpt lat="37.624843000" lon="-3.824765000">
        <ele>1170.5</ele>
        <time>2020-10-14T14:21:04Z</time>
      </trkpt>
      <trkpt lat="37.624939000" lon="-3.824787000">
        <ele>1171.1</ele>
        <time>2020-10-14T14:22:46Z</time>
      </trkpt>
      <trkpt lat="37.625024000" lon="-3.824763000">
        <ele>1171.6</ele>
        <time>2020-10-14T14:22:50Z</time>
      </trkpt>
      <trkpt lat="37.625106000" lon="-3.824739000">
        <ele>1172.3</ele>
        <time>2020-10-14T14:22:54Z</time>
      </trkpt>
      <trkpt lat="37.625189000" lon="-3.824729000">
        <ele>1172.8</ele>
        <time>2020-10-14T14:22:58Z</time>
      </trkpt>
      <trkpt lat="37.625274000" lon="-3.824715000">
        <ele>1173.4</ele>
        <time>2020-10-14T14:23:02Z</time>
      </trkpt>
      <trkpt lat="37.625359000" lon="-3.824693000">
        <ele>1174.1</ele>
        <time>2020-10-14T14:23:06Z</time>
      </trkpt>
      <trkpt lat="37.625443000" lon="-3.824665000">
        <ele>1174.6</ele>
        <time>2020-10-14T14:23:10Z</time>
      </trkpt>
      <trkpt lat="37.625528000" lon="-3.824624000">
        <ele>1175.2</ele>
        <time>2020-10-14T14:23:14Z</time>
      </trkpt>
      <trkpt lat="37.625613000" lon="-3.824590000">
        <ele>1175.7</ele>
        <time>2020-10-14T14:23:18Z</time>
      </trkpt>
      <trkpt lat="37.625692000" lon="-3.824554000">
        <ele>1176.3</ele>
        <time>2020-10-14T14:23:22Z</time>
      </trkpt>
      <trkpt lat="37.625770000" lon="-3.824524000">
        <ele>1177.0</ele>
        <time>2020-10-14T14:23:26Z</time>
      </trkpt>
      <trkpt lat="37.625851000" lon="-3.824487000">
        <ele>1177.8</ele>
        <time>2020-10-14T14:23:30Z</time>
      </trkpt>
      <trkpt lat="37.625938000" lon="-3.824453000">
        <ele>1178.6</ele>
        <time>2020-10-14T14:23:34Z</time>
      </trkpt>
      <trkpt lat="37.626026000" lon="-3.824416000">
        <ele>1179.5</ele>
        <time>2020-10-14T14:23:38Z</time>
      </trkpt>
      <trkpt lat="37.626115000" lon="-3.824385000">
        <ele>1180.4</ele>
        <time>2020-10-14T14:23:42Z</time>
      </trkpt>
      <trkpt lat="37.626210000" lon="-3.824348000">
        <ele>1181.5</ele>
        <time>2020-10-14T14:23:46Z</time>
      </trkpt>
      <trkpt lat="37.626313000" lon="-3.824304000">
        <ele>1182.1</ele>
        <time>2020-10-14T14:23:50Z</time>
      </trkpt>
      <trkpt lat="37.626393000" lon="-3.824272000">
        <ele>1182.4</ele>
        <time>2020-10-14T14:23:53Z</time>
      </trkpt>
      <trkpt lat="37.626480000" lon="-3.824243000">
        <ele>1182.4</ele>
        <time>2020-10-14T14:23:56Z</time>
      </trkpt>
      <trkpt lat="37.626571000" lon="-3.824214000">
        <ele>1182.2</ele>
        <time>2020-10-14T14:23:59Z</time>
      </trkpt>
      <trkpt lat="37.626673000" lon="-3.824177000">
        <ele>1181.7</ele>
        <time>2020-10-14T14:24:02Z</time>
      </trkpt>
      <trkpt lat="37.626782000" lon="-3.824149000">
        <ele>1181.0</ele>
        <time>2020-10-14T14:24:05Z</time>
      </trkpt>
      <trkpt lat="37.626906000" lon="-3.824130000">
        <ele>1180.1</ele>
        <time>2020-10-14T14:24:08Z</time>
      </trkpt>
      <trkpt lat="37.627007000" lon="-3.824131000">
        <ele>1178.9</ele>
        <time>2020-10-14T14:24:10Z</time>
      </trkpt>
      <trkpt lat="37.627113000" lon="-3.824153000">
        <ele>1177.5</ele>
        <time>2020-10-14T14:24:12Z</time>
      </trkpt>
      <trkpt lat="37.627223000" lon="-3.824180000">
        <ele>1176.0</ele>
        <time>2020-10-14T14:24:14Z</time>
      </trkpt>
      <trkpt lat="37.627337000" lon="-3.824206000">
        <ele>1174.2</ele>
        <time>2020-10-14T14:24:16Z</time>
      </trkpt>
      <trkpt lat="37.627457000" lon="-3.824237000">
        <ele>1172.7</ele>
        <time>2020-10-14T14:24:18Z</time>
      </trkpt>
      <trkpt lat="37.627580000" lon="-3.824263000">
        <ele>1171.5</ele>
        <time>2020-10-14T14:24:20Z</time>
      </trkpt>
      <trkpt lat="37.627723000" lon="-3.824283000">
        <ele>1170.2</ele>
        <time>2020-10-14T14:24:22Z</time>
      </trkpt>
      <trkpt lat="37.627860000" lon="-3.824273000">
        <ele>1169.1</ele>
        <time>2020-10-14T14:24:24Z</time>
      </trkpt>
      <trkpt lat="37.627991000" lon="-3.824240000">
        <ele>1168.1</ele>
        <time>2020-10-14T14:24:26Z</time>
      </trkpt>
      <trkpt lat="37.628116000" lon="-3.824172000">
        <ele>1167.1</ele>
        <time>2020-10-14T14:24:28Z</time>
      </trkpt>
      <trkpt lat="37.628226000" lon="-3.824070000">
        <ele>1165.8</ele>
        <time>2020-10-14T14:24:30Z</time>
      </trkpt>
      <trkpt lat="37.628327000" lon="-3.823943000">
        <ele>1164.3</ele>
        <time>2020-10-14T14:24:32Z</time>
      </trkpt>
      <trkpt lat="37.628422000" lon="-3.823801000">
        <ele>1162.3</ele>
        <time>2020-10-14T14:24:34Z</time>
      </trkpt>
      <trkpt lat="37.628506000" lon="-3.823649000">
        <ele>1160.3</ele>
        <time>2020-10-14T14:24:36Z</time>
      </trkpt>
      <trkpt lat="37.628593000" lon="-3.823495000">
        <ele>1158.3</ele>
        <time>2020-10-14T14:24:38Z</time>
      </trkpt>
      <trkpt lat="37.628684000" lon="-3.823361000">
        <ele>1156.5</ele>
        <time>2020-10-14T14:24:40Z</time>
      </trkpt>
      <trkpt lat="37.628785000" lon="-3.823247000">
        <ele>1155.2</ele>
        <time>2020-10-14T14:24:42Z</time>
      </trkpt>
      <trkpt lat="37.628906000" lon="-3.823151000">
        <ele>1154.2</ele>
        <time>2020-10-14T14:24:44Z</time>
      </trkpt>
      <trkpt lat="37.629032000" lon="-3.823080000">
        <ele>1153.4</ele>
        <time>2020-10-14T14:24:46Z</time>
      </trkpt>
      <trkpt lat="37.629160000" lon="-3.823032000">
        <ele>1152.8</ele>
        <time>2020-10-14T14:24:48Z</time>
      </trkpt>
      <trkpt lat="37.629284000" lon="-3.823020000">
        <ele>1152.5</ele>
        <time>2020-10-14T14:24:50Z</time>
      </trkpt>
      <trkpt lat="37.629401000" lon="-3.823024000">
        <ele>1152.5</ele>
        <time>2020-10-14T14:24:52Z</time>
      </trkpt>
      <trkpt lat="37.629515000" lon="-3.823052000">
        <ele>1153.1</ele>
        <time>2020-10-14T14:24:54Z</time>
      </trkpt>
      <trkpt lat="37.629613000" lon="-3.823091000">
        <ele>1154.2</ele>
        <time>2020-10-14T14:24:56Z</time>
      </trkpt>
      <trkpt lat="37.629700000" lon="-3.823141000">
        <ele>1155.4</ele>
        <time>2020-10-14T14:24:58Z</time>
      </trkpt>
      <trkpt lat="37.629780000" lon="-3.823203000">
        <ele>1156.6</ele>
        <time>2020-10-14T14:25:00Z</time>
      </trkpt>
      <trkpt lat="37.629851000" lon="-3.823270000">
        <ele>1157.6</ele>
        <time>2020-10-14T14:25:02Z</time>
      </trkpt>
      <trkpt lat="37.629921000" lon="-3.823341000">
        <ele>1158.5</ele>
        <time>2020-10-14T14:25:04Z</time>
      </trkpt>
      <trkpt lat="37.629989000" lon="-3.823404000">
        <ele>1159.2</ele>
        <time>2020-10-14T14:25:06Z</time>
      </trkpt>
      <trkpt lat="37.630053000" lon="-3.823476000">
        <ele>1159.8</ele>
        <time>2020-10-14T14:25:08Z</time>
      </trkpt>
      <trkpt lat="37.630116000" lon="-3.823547000">
        <ele>1160.4</ele>
        <time>2020-10-14T14:25:10Z</time>
      </trkpt>
      <trkpt lat="37.630182000" lon="-3.823610000">
        <ele>1160.7</ele>
        <time>2020-10-14T14:25:12Z</time>
      </trkpt>
      <trkpt lat="37.630276000" lon="-3.823706000">
        <ele>1161.0</ele>
        <time>2020-10-14T14:25:15Z</time>
      </trkpt>
      <trkpt lat="37.630338000" lon="-3.823771000">
        <ele>1161.1</ele>
        <time>2020-10-14T14:25:17Z</time>
      </trkpt>
      <trkpt lat="37.630401000" lon="-3.823838000">
        <ele>1161.1</ele>
        <time>2020-10-14T14:25:19Z</time>
      </trkpt>
      <trkpt lat="37.630491000" lon="-3.823935000">
        <ele>1161.1</ele>
        <time>2020-10-14T14:25:22Z</time>
      </trkpt>
      <trkpt lat="37.630576000" lon="-3.824027000">
        <ele>1161.1</ele>
        <time>2020-10-14T14:25:25Z</time>
      </trkpt>
      <trkpt lat="37.630661000" lon="-3.824113000">
        <ele>1161.2</ele>
        <time>2020-10-14T14:25:28Z</time>
      </trkpt>
      <trkpt lat="37.630743000" lon="-3.824194000">
        <ele>1161.4</ele>
        <time>2020-10-14T14:25:31Z</time>
      </trkpt>
      <trkpt lat="37.630822000" lon="-3.824279000">
        <ele>1161.6</ele>
        <time>2020-10-14T14:25:34Z</time>
      </trkpt>
      <trkpt lat="37.630901000" lon="-3.824358000">
        <ele>1162.0</ele>
        <time>2020-10-14T14:25:37Z</time>
      </trkpt>
      <trkpt lat="37.630979000" lon="-3.824435000">
        <ele>1162.5</ele>
        <time>2020-10-14T14:25:40Z</time>
      </trkpt>
      <trkpt lat="37.631053000" lon="-3.824513000">
        <ele>1163.0</ele>
        <time>2020-10-14T14:25:43Z</time>
      </trkpt>
      <trkpt lat="37.631117000" lon="-3.824591000">
        <ele>1163.7</ele>
        <time>2020-10-14T14:25:46Z</time>
      </trkpt>
      <trkpt lat="37.631176000" lon="-3.824677000">
        <ele>1164.6</ele>
        <time>2020-10-14T14:25:49Z</time>
      </trkpt>
      <trkpt lat="37.631229000" lon="-3.824776000">
        <ele>1165.6</ele>
        <time>2020-10-14T14:25:52Z</time>
      </trkpt>
      <trkpt lat="37.631277000" lon="-3.824880000">
        <ele>1166.5</ele>
        <time>2020-10-14T14:25:55Z</time>
      </trkpt>
      <trkpt lat="37.631313000" lon="-3.824986000">
        <ele>1167.5</ele>
        <time>2020-10-14T14:25:58Z</time>
      </trkpt>
      <trkpt lat="37.631342000" lon="-3.825098000">
        <ele>1168.3</ele>
        <time>2020-10-14T14:26:01Z</time>
      </trkpt>
      <trkpt lat="37.631366000" lon="-3.825222000">
        <ele>1169.0</ele>
        <time>2020-10-14T14:26:04Z</time>
      </trkpt>
      <trkpt lat="37.631376000" lon="-3.825346000">
        <ele>1169.5</ele>
        <time>2020-10-14T14:26:07Z</time>
      </trkpt>
      <trkpt lat="37.631370000" lon="-3.825466000">
        <ele>1169.7</ele>
        <time>2020-10-14T14:26:10Z</time>
      </trkpt>
      <trkpt lat="37.631358000" lon="-3.825581000">
        <ele>1169.8</ele>
        <time>2020-10-14T14:26:13Z</time>
      </trkpt>
      <trkpt lat="37.631340000" lon="-3.825696000">
        <ele>1169.8</ele>
        <time>2020-10-14T14:26:16Z</time>
      </trkpt>
      <trkpt lat="37.631317000" lon="-3.825812000">
        <ele>1169.7</ele>
        <time>2020-10-14T14:26:19Z</time>
      </trkpt>
      <trkpt lat="37.631288000" lon="-3.825923000">
        <ele>1169.5</ele>
        <time>2020-10-14T14:26:22Z</time>
      </trkpt>
      <trkpt lat="37.631265000" lon="-3.826030000">
        <ele>1169.3</ele>
        <time>2020-10-14T14:26:25Z</time>
      </trkpt>
      <trkpt lat="37.631237000" lon="-3.826137000">
        <ele>1169.1</ele>
        <time>2020-10-14T14:26:28Z</time>
      </trkpt>
      <trkpt lat="37.631217000" lon="-3.826244000">
        <ele>1168.8</ele>
        <time>2020-10-14T14:26:31Z</time>
      </trkpt>
      <trkpt lat="37.631203000" lon="-3.826354000">
        <ele>1168.5</ele>
        <time>2020-10-14T14:26:34Z</time>
      </trkpt>
      <trkpt lat="37.631199000" lon="-3.826466000">
        <ele>1168.1</ele>
        <time>2020-10-14T14:26:37Z</time>
      </trkpt>
      <trkpt lat="37.631204000" lon="-3.826579000">
        <ele>1167.8</ele>
        <time>2020-10-14T14:26:40Z</time>
      </trkpt>
      <trkpt lat="37.631213000" lon="-3.826695000">
        <ele>1167.5</ele>
        <time>2020-10-14T14:26:43Z</time>
      </trkpt>
      <trkpt lat="37.631239000" lon="-3.826808000">
        <ele>1167.3</ele>
        <time>2020-10-14T14:26:46Z</time>
      </trkpt>
      <trkpt lat="37.631274000" lon="-3.826922000">
        <ele>1167.0</ele>
        <time>2020-10-14T14:26:49Z</time>
      </trkpt>
      <trkpt lat="37.631328000" lon="-3.827031000">
        <ele>1166.8</ele>
        <time>2020-10-14T14:26:52Z</time>
      </trkpt>
      <trkpt lat="37.631396000" lon="-3.827145000">
        <ele>1166.6</ele>
        <time>2020-10-14T14:26:55Z</time>
      </trkpt>
      <trkpt lat="37.631480000" lon="-3.827251000">
        <ele>1166.5</ele>
        <time>2020-10-14T14:26:58Z</time>
      </trkpt>
      <trkpt lat="37.631548000" lon="-3.827310000">
        <ele>1166.5</ele>
        <time>2020-10-14T14:27:00Z</time>
      </trkpt>
      <trkpt lat="37.631621000" lon="-3.827362000">
        <ele>1166.4</ele>
        <time>2020-10-14T14:27:02Z</time>
      </trkpt>
      <trkpt lat="37.631699000" lon="-3.827409000">
        <ele>1166.4</ele>
        <time>2020-10-14T14:27:04Z</time>
      </trkpt>
      <trkpt lat="37.631787000" lon="-3.827449000">
        <ele>1166.2</ele>
        <time>2020-10-14T14:27:06Z</time>
      </trkpt>
      <trkpt lat="37.631879000" lon="-3.827473000">
        <ele>1165.7</ele>
        <time>2020-10-14T14:27:08Z</time>
      </trkpt>
      <trkpt lat="37.631978000" lon="-3.827486000">
        <ele>1165.1</ele>
        <time>2020-10-14T14:27:10Z</time>
      </trkpt>
      <trkpt lat="37.632084000" lon="-3.827476000">
        <ele>1164.4</ele>
        <time>2020-10-14T14:27:12Z</time>
      </trkpt>
      <trkpt lat="37.632191000" lon="-3.827460000">
        <ele>1163.5</ele>
        <time>2020-10-14T14:27:14Z</time>
      </trkpt>
      <trkpt lat="37.632299000" lon="-3.827435000">
        <ele>1162.6</ele>
        <time>2020-10-14T14:27:16Z</time>
      </trkpt>
      <trkpt lat="37.632415000" lon="-3.827416000">
        <ele>1161.6</ele>
        <time>2020-10-14T14:27:18Z</time>
      </trkpt>
      <trkpt lat="37.632535000" lon="-3.827389000">
        <ele>1160.5</ele>
        <time>2020-10-14T14:27:20Z</time>
      </trkpt>
      <trkpt lat="37.632668000" lon="-3.827360000">
        <ele>1159.5</ele>
        <time>2020-10-14T14:27:22Z</time>
      </trkpt>
      <trkpt lat="37.632797000" lon="-3.827352000">
        <ele>1158.5</ele>
        <time>2020-10-14T14:27:24Z</time>
      </trkpt>
      <trkpt lat="37.632929000" lon="-3.827354000">
        <ele>1157.5</ele>
        <time>2020-10-14T14:27:26Z</time>
      </trkpt>
      <trkpt lat="37.633063000" lon="-3.827368000">
        <ele>1156.9</ele>
        <time>2020-10-14T14:27:28Z</time>
      </trkpt>
      <trkpt lat="37.633195000" lon="-3.827407000">
        <ele>1156.5</ele>
        <time>2020-10-14T14:27:30Z</time>
      </trkpt>
      <trkpt lat="37.633317000" lon="-3.827462000">
        <ele>1156.2</ele>
        <time>2020-10-14T14:27:32Z</time>
      </trkpt>
      <trkpt lat="37.633425000" lon="-3.827529000">
        <ele>1155.9</ele>
        <time>2020-10-14T14:27:34Z</time>
      </trkpt>
      <trkpt lat="37.633518000" lon="-3.827600000">
        <ele>1155.6</ele>
        <time>2020-10-14T14:27:36Z</time>
      </trkpt>
      <trkpt lat="37.633612000" lon="-3.827678000">
        <ele>1155.4</ele>
        <time>2020-10-14T14:27:38Z</time>
      </trkpt>
      <trkpt lat="37.633692000" lon="-3.827768000">
        <ele>1155.2</ele>
        <time>2020-10-14T14:27:40Z</time>
      </trkpt>
      <trkpt lat="37.633763000" lon="-3.827856000">
        <ele>1155.1</ele>
        <time>2020-10-14T14:27:42Z</time>
      </trkpt>
      <trkpt lat="37.633828000" lon="-3.827955000">
        <ele>1155.0</ele>
        <time>2020-10-14T14:27:44Z</time>
      </trkpt>
      <trkpt lat="37.633887000" lon="-3.828056000">
        <ele>1154.9</ele>
        <time>2020-10-14T14:27:46Z</time>
      </trkpt>
      <trkpt lat="37.633940000" lon="-3.828153000">
        <ele>1154.7</ele>
        <time>2020-10-14T14:27:48Z</time>
      </trkpt>
      <trkpt lat="37.633994000" lon="-3.828243000">
        <ele>1154.6</ele>
        <time>2020-10-14T14:27:50Z</time>
      </trkpt>
      <trkpt lat="37.634043000" lon="-3.828337000">
        <ele>1154.7</ele>
        <time>2020-10-14T14:27:52Z</time>
      </trkpt>
      <trkpt lat="37.634086000" lon="-3.828424000">
        <ele>1155.0</ele>
        <time>2020-10-14T14:27:54Z</time>
      </trkpt>
      <trkpt lat="37.634134000" lon="-3.828509000">
        <ele>1155.5</ele>
        <time>2020-10-14T14:27:56Z</time>
      </trkpt>
      <trkpt lat="37.634202000" lon="-3.828629000">
        <ele>1156.4</ele>
        <time>2020-10-14T14:27:59Z</time>
      </trkpt>
      <trkpt lat="37.634266000" lon="-3.828748000">
        <ele>1157.4</ele>
        <time>2020-10-14T14:28:02Z</time>
      </trkpt>
      <trkpt lat="37.634327000" lon="-3.828874000">
        <ele>1158.4</ele>
        <time>2020-10-14T14:28:05Z</time>
      </trkpt>
      <trkpt lat="37.634393000" lon="-3.828996000">
        <ele>1159.4</ele>
        <time>2020-10-14T14:28:08Z</time>
      </trkpt>
      <trkpt lat="37.634460000" lon="-3.829116000">
        <ele>1160.5</ele>
        <time>2020-10-14T14:28:11Z</time>
      </trkpt>
      <trkpt lat="37.634526000" lon="-3.829234000">
        <ele>1161.5</ele>
        <time>2020-10-14T14:28:14Z</time>
      </trkpt>
      <trkpt lat="37.634590000" lon="-3.829351000">
        <ele>1162.5</ele>
        <time>2020-10-14T14:28:17Z</time>
      </trkpt>
      <trkpt lat="37.634656000" lon="-3.829463000">
        <ele>1163.3</ele>
        <time>2020-10-14T14:28:20Z</time>
      </trkpt>
      <trkpt lat="37.634720000" lon="-3.829583000">
        <ele>1163.7</ele>
        <time>2020-10-14T14:28:23Z</time>
      </trkpt>
      <trkpt lat="37.634788000" lon="-3.829702000">
        <ele>1163.9</ele>
        <time>2020-10-14T14:28:26Z</time>
      </trkpt>
      <trkpt lat="37.634842000" lon="-3.829792000">
        <ele>1163.8</ele>
        <time>2020-10-14T14:28:28Z</time>
      </trkpt>
      <trkpt lat="37.634898000" lon="-3.829893000">
        <ele>1163.5</ele>
        <time>2020-10-14T14:28:30Z</time>
      </trkpt>
      <trkpt lat="37.634949000" lon="-3.829988000">
        <ele>1162.9</ele>
        <time>2020-10-14T14:28:32Z</time>
      </trkpt>
      <trkpt lat="37.635003000" lon="-3.830089000">
        <ele>1162.4</ele>
        <time>2020-10-14T14:28:34Z</time>
      </trkpt>
      <trkpt lat="37.635056000" lon="-3.830189000">
        <ele>1161.8</ele>
        <time>2020-10-14T14:28:36Z</time>
      </trkpt>
      <trkpt lat="37.635108000" lon="-3.830292000">
        <ele>1161.3</ele>
        <time>2020-10-14T14:28:38Z</time>
      </trkpt>
      <trkpt lat="37.635169000" lon="-3.830396000">
        <ele>1160.7</ele>
        <time>2020-10-14T14:28:40Z</time>
      </trkpt>
      <trkpt lat="37.635228000" lon="-3.830497000">
        <ele>1160.3</ele>
        <time>2020-10-14T14:28:42Z</time>
      </trkpt>
      <trkpt lat="37.635281000" lon="-3.830605000">
        <ele>1159.9</ele>
        <time>2020-10-14T14:28:44Z</time>
      </trkpt>
      <trkpt lat="37.635337000" lon="-3.830714000">
        <ele>1159.7</ele>
        <time>2020-10-14T14:28:46Z</time>
      </trkpt>
      <trkpt lat="37.635397000" lon="-3.830816000">
        <ele>1159.6</ele>
        <time>2020-10-14T14:28:48Z</time>
      </trkpt>
      <trkpt lat="37.635454000" lon="-3.830920000">
        <ele>1159.5</ele>
        <time>2020-10-14T14:28:50Z</time>
      </trkpt>
      <trkpt lat="37.635510000" lon="-3.831026000">
        <ele>1159.5</ele>
        <time>2020-10-14T14:28:52Z</time>
      </trkpt>
      <trkpt lat="37.635568000" lon="-3.831141000">
        <ele>1159.5</ele>
        <time>2020-10-14T14:28:54Z</time>
      </trkpt>
      <trkpt lat="37.635629000" lon="-3.831255000">
        <ele>1159.3</ele>
        <time>2020-10-14T14:28:56Z</time>
      </trkpt>
      <trkpt lat="37.635690000" lon="-3.831364000">
        <ele>1159.0</ele>
        <time>2020-10-14T14:28:58Z</time>
      </trkpt>
      <trkpt lat="37.635767000" lon="-3.831457000">
        <ele>1158.5</ele>
        <time>2020-10-14T14:29:00Z</time>
      </trkpt>
      <trkpt lat="37.635849000" lon="-3.831550000">
        <ele>1157.8</ele>
        <time>2020-10-14T14:29:02Z</time>
      </trkpt>
      <trkpt lat="37.635931000" lon="-3.831627000">
        <ele>1157.1</ele>
        <time>2020-10-14T14:29:04Z</time>
      </trkpt>
      <trkpt lat="37.636024000" lon="-3.831697000">
        <ele>1156.4</ele>
        <time>2020-10-14T14:29:06Z</time>
      </trkpt>
      <trkpt lat="37.636118000" lon="-3.831759000">
        <ele>1155.7</ele>
        <time>2020-10-14T14:29:08Z</time>
      </trkpt>
      <trkpt lat="37.636220000" lon="-3.831815000">
        <ele>1155.3</ele>
        <time>2020-10-14T14:29:10Z</time>
      </trkpt>
      <trkpt lat="37.636316000" lon="-3.831862000">
        <ele>1155.0</ele>
        <time>2020-10-14T14:29:12Z</time>
      </trkpt>
      <trkpt lat="37.636415000" lon="-3.831908000">
        <ele>1154.9</ele>
        <time>2020-10-14T14:29:14Z</time>
      </trkpt>
      <trkpt lat="37.636509000" lon="-3.831958000">
        <ele>1155.0</ele>
        <time>2020-10-14T14:29:16Z</time>
      </trkpt>
      <trkpt lat="37.636603000" lon="-3.831996000">
        <ele>1155.2</ele>
        <time>2020-10-14T14:29:18Z</time>
      </trkpt>
      <trkpt lat="37.636704000" lon="-3.832043000">
        <ele>1155.3</ele>
        <time>2020-10-14T14:29:20Z</time>
      </trkpt>
      <trkpt lat="37.636807000" lon="-3.832096000">
        <ele>1155.4</ele>
        <time>2020-10-14T14:29:22Z</time>
      </trkpt>
      <trkpt lat="37.636913000" lon="-3.832150000">
        <ele>1155.4</ele>
        <time>2020-10-14T14:29:24Z</time>
      </trkpt>
      <trkpt lat="37.637020000" lon="-3.832205000">
        <ele>1155.4</ele>
        <time>2020-10-14T14:29:26Z</time>
      </trkpt>
      <trkpt lat="37.637141000" lon="-3.832250000">
        <ele>1155.2</ele>
        <time>2020-10-14T14:29:28Z</time>
      </trkpt>
      <trkpt lat="37.637256000" lon="-3.832307000">
        <ele>1154.7</ele>
        <time>2020-10-14T14:29:30Z</time>
      </trkpt>
      <trkpt lat="37.637376000" lon="-3.832367000">
        <ele>1154.0</ele>
        <time>2020-10-14T14:29:32Z</time>
      </trkpt>
      <trkpt lat="37.637504000" lon="-3.832430000">
        <ele>1153.4</ele>
        <time>2020-10-14T14:29:34Z</time>
      </trkpt>
      <trkpt lat="37.637627000" lon="-3.832494000">
        <ele>1152.6</ele>
        <time>2020-10-14T14:29:36Z</time>
      </trkpt>
      <trkpt lat="37.637739000" lon="-3.832583000">
        <ele>1152.0</ele>
        <time>2020-10-14T14:29:38Z</time>
      </trkpt>
      <trkpt lat="37.637839000" lon="-3.832698000">
        <ele>1151.5</ele>
        <time>2020-10-14T14:29:40Z</time>
      </trkpt>
      <trkpt lat="37.637929000" lon="-3.832826000">
        <ele>1151.2</ele>
        <time>2020-10-14T14:29:42Z</time>
      </trkpt>
      <trkpt lat="37.638001000" lon="-3.832970000">
        <ele>1151.2</ele>
        <time>2020-10-14T14:29:44Z</time>
      </trkpt>
      <trkpt lat="37.638047000" lon="-3.833109000">
        <ele>1151.5</ele>
        <time>2020-10-14T14:29:46Z</time>
      </trkpt>
      <trkpt lat="37.638080000" lon="-3.833257000">
        <ele>1151.8</ele>
        <time>2020-10-14T14:29:48Z</time>
      </trkpt>
      <trkpt lat="37.638108000" lon="-3.833396000">
        <ele>1152.4</ele>
        <time>2020-10-14T14:29:50Z</time>
      </trkpt>
      <trkpt lat="37.638126000" lon="-3.833545000">
        <ele>1153.0</ele>
        <time>2020-10-14T14:29:52Z</time>
      </trkpt>
      <trkpt lat="37.638141000" lon="-3.833675000">
        <ele>1153.7</ele>
        <time>2020-10-14T14:29:54Z</time>
      </trkpt>
      <trkpt lat="37.638153000" lon="-3.833801000">
        <ele>1154.2</ele>
        <time>2020-10-14T14:29:56Z</time>
      </trkpt>
      <trkpt lat="37.638164000" lon="-3.833930000">
        <ele>1154.5</ele>
        <time>2020-10-14T14:29:58Z</time>
      </trkpt>
      <trkpt lat="37.638180000" lon="-3.834052000">
        <ele>1154.5</ele>
        <time>2020-10-14T14:30:00Z</time>
      </trkpt>
      <trkpt lat="37.638192000" lon="-3.834174000">
        <ele>1154.3</ele>
        <time>2020-10-14T14:30:02Z</time>
      </trkpt>
      <trkpt lat="37.638208000" lon="-3.834322000">
        <ele>1154.0</ele>
        <time>2020-10-14T14:30:05Z</time>
      </trkpt>
      <trkpt lat="37.638223000" lon="-3.834458000">
        <ele>1153.5</ele>
        <time>2020-10-14T14:30:08Z</time>
      </trkpt>
      <trkpt lat="37.638232000" lon="-3.834603000">
        <ele>1153.0</ele>
        <time>2020-10-14T14:30:11Z</time>
      </trkpt>
      <trkpt lat="37.638251000" lon="-3.834740000">
        <ele>1152.4</ele>
        <time>2020-10-14T14:30:14Z</time>
      </trkpt>
      <trkpt lat="37.638263000" lon="-3.834875000">
        <ele>1151.7</ele>
        <time>2020-10-14T14:30:17Z</time>
      </trkpt>
      <trkpt lat="37.638271000" lon="-3.835007000">
        <ele>1151.1</ele>
        <time>2020-10-14T14:30:20Z</time>
      </trkpt>
      <trkpt lat="37.638282000" lon="-3.835140000">
        <ele>1150.5</ele>
        <time>2020-10-14T14:30:23Z</time>
      </trkpt>
      <trkpt lat="37.638295000" lon="-3.835272000">
        <ele>1150.0</ele>
        <time>2020-10-14T14:30:26Z</time>
      </trkpt>
      <trkpt lat="37.638307000" lon="-3.835406000">
        <ele>1149.6</ele>
        <time>2020-10-14T14:30:29Z</time>
      </trkpt>
      <trkpt lat="37.638319000" lon="-3.835541000">
        <ele>1149.4</ele>
        <time>2020-10-14T14:30:32Z</time>
      </trkpt>
      <trkpt lat="37.638328000" lon="-3.835674000">
        <ele>1149.3</ele>
        <time>2020-10-14T14:30:35Z</time>
      </trkpt>
      <trkpt lat="37.638342000" lon="-3.835814000">
        <ele>1149.3</ele>
        <time>2020-10-14T14:30:38Z</time>
      </trkpt>
      <trkpt lat="37.638362000" lon="-3.835950000">
        <ele>1149.4</ele>
        <time>2020-10-14T14:30:41Z</time>
      </trkpt>
      <trkpt lat="37.638376000" lon="-3.836086000">
        <ele>1149.5</ele>
        <time>2020-10-14T14:30:44Z</time>
      </trkpt>
      <trkpt lat="37.638389000" lon="-3.836222000">
        <ele>1149.8</ele>
        <time>2020-10-14T14:30:47Z</time>
      </trkpt>
      <trkpt lat="37.638403000" lon="-3.836365000">
        <ele>1150.2</ele>
        <time>2020-10-14T14:30:50Z</time>
      </trkpt>
      <trkpt lat="37.638424000" lon="-3.836516000">
        <ele>1150.7</ele>
        <time>2020-10-14T14:30:53Z</time>
      </trkpt>
      <trkpt lat="37.638440000" lon="-3.836619000">
        <ele>1151.3</ele>
        <time>2020-10-14T14:30:55Z</time>
      </trkpt>
      <trkpt lat="37.638462000" lon="-3.836721000">
        <ele>1151.7</ele>
        <time>2020-10-14T14:30:57Z</time>
      </trkpt>
      <trkpt lat="37.638496000" lon="-3.836819000">
        <ele>1152.2</ele>
        <time>2020-10-14T14:30:59Z</time>
      </trkpt>
      <trkpt lat="37.638537000" lon="-3.836913000">
        <ele>1152.7</ele>
        <time>2020-10-14T14:31:01Z</time>
      </trkpt>
      <trkpt lat="37.638588000" lon="-3.837000000">
        <ele>1153.2</ele>
        <time>2020-10-14T14:31:03Z</time>
      </trkpt>
      <trkpt lat="37.638643000" lon="-3.837085000">
        <ele>1153.5</ele>
        <time>2020-10-14T14:31:05Z</time>
      </trkpt>
      <trkpt lat="37.638705000" lon="-3.837159000">
        <ele>1153.9</ele>
        <time>2020-10-14T14:31:07Z</time>
      </trkpt>
      <trkpt lat="37.638778000" lon="-3.837219000">
        <ele>1154.3</ele>
        <time>2020-10-14T14:31:09Z</time>
      </trkpt>
      <trkpt lat="37.638859000" lon="-3.837267000">
        <ele>1154.6</ele>
        <time>2020-10-14T14:31:11Z</time>
      </trkpt>
      <trkpt lat="37.638945000" lon="-3.837308000">
        <ele>1154.9</ele>
        <time>2020-10-14T14:31:13Z</time>
      </trkpt>
      <trkpt lat="37.639033000" lon="-3.837336000">
        <ele>1155.0</ele>
        <time>2020-10-14T14:31:15Z</time>
      </trkpt>
      <trkpt lat="37.639133000" lon="-3.837353000">
        <ele>1155.0</ele>
        <time>2020-10-14T14:31:17Z</time>
      </trkpt>
      <trkpt lat="37.639230000" lon="-3.837354000">
        <ele>1154.8</ele>
        <time>2020-10-14T14:31:19Z</time>
      </trkpt>
      <trkpt lat="37.639328000" lon="-3.837357000">
        <ele>1154.5</ele>
        <time>2020-10-14T14:31:21Z</time>
      </trkpt>
      <trkpt lat="37.639420000" lon="-3.837345000">
        <ele>1154.1</ele>
        <time>2020-10-14T14:31:23Z</time>
      </trkpt>
      <trkpt lat="37.639513000" lon="-3.837341000">
        <ele>1153.5</ele>
        <time>2020-10-14T14:31:25Z</time>
      </trkpt>
      <trkpt lat="37.639605000" lon="-3.837327000">
        <ele>1152.8</ele>
        <time>2020-10-14T14:31:27Z</time>
      </trkpt>
      <trkpt lat="37.639701000" lon="-3.837321000">
        <ele>1152.1</ele>
        <time>2020-10-14T14:31:29Z</time>
      </trkpt>
      <trkpt lat="37.639794000" lon="-3.837322000">
        <ele>1151.2</ele>
        <time>2020-10-14T14:31:31Z</time>
      </trkpt>
      <trkpt lat="37.639889000" lon="-3.837321000">
        <ele>1150.4</ele>
        <time>2020-10-14T14:31:33Z</time>
      </trkpt>
      <trkpt lat="37.639982000" lon="-3.837331000">
        <ele>1149.6</ele>
        <time>2020-10-14T14:31:35Z</time>
      </trkpt>
      <trkpt lat="37.640070000" lon="-3.837356000">
        <ele>1149.2</ele>
        <time>2020-10-14T14:31:37Z</time>
      </trkpt>
      <trkpt lat="37.640159000" lon="-3.837394000">
        <ele>1148.9</ele>
        <time>2020-10-14T14:31:39Z</time>
      </trkpt>
      <trkpt lat="37.640248000" lon="-3.837428000">
        <ele>1148.9</ele>
        <time>2020-10-14T14:31:41Z</time>
      </trkpt>
      <trkpt lat="37.640332000" lon="-3.837474000">
        <ele>1149.1</ele>
        <time>2020-10-14T14:31:43Z</time>
      </trkpt>
      <trkpt lat="37.640412000" lon="-3.837515000">
        <ele>1149.5</ele>
        <time>2020-10-14T14:31:45Z</time>
      </trkpt>
      <trkpt lat="37.640520000" lon="-3.837575000">
        <ele>1150.0</ele>
        <time>2020-10-14T14:31:48Z</time>
      </trkpt>
      <trkpt lat="37.640624000" lon="-3.837641000">
        <ele>1150.6</ele>
        <time>2020-10-14T14:31:51Z</time>
      </trkpt>
      <trkpt lat="37.640727000" lon="-3.837714000">
        <ele>1151.5</ele>
        <time>2020-10-14T14:31:54Z</time>
      </trkpt>
      <trkpt lat="37.640826000" lon="-3.837773000">
        <ele>1152.6</ele>
        <time>2020-10-14T14:31:57Z</time>
      </trkpt>
      <trkpt lat="37.640923000" lon="-3.837831000">
        <ele>1153.7</ele>
        <time>2020-10-14T14:32:00Z</time>
      </trkpt>
      <trkpt lat="37.641003000" lon="-3.837879000">
        <ele>1154.6</ele>
        <time>2020-10-14T14:32:02Z</time>
      </trkpt>
      <trkpt lat="37.641084000" lon="-3.837930000">
        <ele>1155.3</ele>
        <time>2020-10-14T14:32:04Z</time>
      </trkpt>
      <trkpt lat="37.641189000" lon="-3.837994000">
        <ele>1155.7</ele>
        <time>2020-10-14T14:32:07Z</time>
      </trkpt>
      <trkpt lat="37.641291000" lon="-3.838060000">
        <ele>1156.1</ele>
        <time>2020-10-14T14:32:10Z</time>
      </trkpt>
      <trkpt lat="37.641389000" lon="-3.838122000">
        <ele>1156.4</ele>
        <time>2020-10-14T14:32:13Z</time>
      </trkpt>
      <trkpt lat="37.641483000" lon="-3.838181000">
        <ele>1156.5</ele>
        <time>2020-10-14T14:32:16Z</time>
      </trkpt>
      <trkpt lat="37.641573000" lon="-3.838239000">
        <ele>1156.7</ele>
        <time>2020-10-14T14:32:19Z</time>
      </trkpt>
      <trkpt lat="37.641661000" lon="-3.838291000">
        <ele>1156.7</ele>
        <time>2020-10-14T14:32:22Z</time>
      </trkpt>
      <trkpt lat="37.641746000" lon="-3.838346000">
        <ele>1156.5</ele>
        <time>2020-10-14T14:32:25Z</time>
      </trkpt>
      <trkpt lat="37.641830000" lon="-3.838398000">
        <ele>1156.3</ele>
        <time>2020-10-14T14:32:28Z</time>
      </trkpt>
      <trkpt lat="37.641913000" lon="-3.838448000">
        <ele>1155.8</ele>
        <time>2020-10-14T14:32:31Z</time>
      </trkpt>
      <trkpt lat="37.641995000" lon="-3.838503000">
        <ele>1155.5</ele>
        <time>2020-10-14T14:32:34Z</time>
      </trkpt>
      <trkpt lat="37.642079000" lon="-3.838544000">
        <ele>1155.1</ele>
        <time>2020-10-14T14:32:37Z</time>
      </trkpt>
      <trkpt lat="37.642165000" lon="-3.838581000">
        <ele>1154.8</ele>
        <time>2020-10-14T14:32:40Z</time>
      </trkpt>
      <trkpt lat="37.642257000" lon="-3.838617000">
        <ele>1154.5</ele>
        <time>2020-10-14T14:32:43Z</time>
      </trkpt>
      <trkpt lat="37.642348000" lon="-3.838650000">
        <ele>1154.4</ele>
        <time>2020-10-14T14:32:46Z</time>
      </trkpt>
      <trkpt lat="37.642442000" lon="-3.838671000">
        <ele>1154.2</ele>
        <time>2020-10-14T14:32:49Z</time>
      </trkpt>
      <trkpt lat="37.642539000" lon="-3.838693000">
        <ele>1154.0</ele>
        <time>2020-10-14T14:32:52Z</time>
      </trkpt>
      <trkpt lat="37.642639000" lon="-3.838704000">
        <ele>1153.9</ele>
        <time>2020-10-14T14:32:55Z</time>
      </trkpt>
      <trkpt lat="37.642741000" lon="-3.838702000">
        <ele>1153.9</ele>
        <time>2020-10-14T14:32:58Z</time>
      </trkpt>
      <trkpt lat="37.642843000" lon="-3.838699000">
        <ele>1153.9</ele>
        <time>2020-10-14T14:33:01Z</time>
      </trkpt>
      <trkpt lat="37.642942000" lon="-3.838691000">
        <ele>1154.0</ele>
        <time>2020-10-14T14:33:04Z</time>
      </trkpt>
      <trkpt lat="37.643040000" lon="-3.838684000">
        <ele>1154.1</ele>
        <time>2020-10-14T14:33:07Z</time>
      </trkpt>
      <trkpt lat="37.643137000" lon="-3.838682000">
        <ele>1154.3</ele>
        <time>2020-10-14T14:33:10Z</time>
      </trkpt>
      <trkpt lat="37.643237000" lon="-3.838677000">
        <ele>1154.5</ele>
        <time>2020-10-14T14:33:13Z</time>
      </trkpt>
      <trkpt lat="37.643336000" lon="-3.838668000">
        <ele>1154.8</ele>
        <time>2020-10-14T14:33:16Z</time>
      </trkpt>
      <trkpt lat="37.643437000" lon="-3.838658000">
        <ele>1155.0</ele>
        <time>2020-10-14T14:33:19Z</time>
      </trkpt>
      <trkpt lat="37.643542000" lon="-3.838641000">
        <ele>1155.2</ele>
        <time>2020-10-14T14:33:22Z</time>
      </trkpt>
      <trkpt lat="37.643648000" lon="-3.838635000">
        <ele>1155.4</ele>
        <time>2020-10-14T14:33:25Z</time>
      </trkpt>
      <trkpt lat="37.643754000" lon="-3.838626000">
        <ele>1155.6</ele>
        <time>2020-10-14T14:33:28Z</time>
      </trkpt>
      <trkpt lat="37.643856000" lon="-3.838621000">
        <ele>1155.8</ele>
        <time>2020-10-14T14:33:31Z</time>
      </trkpt>
      <trkpt lat="37.643958000" lon="-3.838615000">
        <ele>1156.1</ele>
        <time>2020-10-14T14:33:34Z</time>
      </trkpt>
      <trkpt lat="37.644064000" lon="-3.838607000">
        <ele>1156.5</ele>
        <time>2020-10-14T14:33:37Z</time>
      </trkpt>
      <trkpt lat="37.644175000" lon="-3.838602000">
        <ele>1156.8</ele>
        <time>2020-10-14T14:33:40Z</time>
      </trkpt>
      <trkpt lat="37.644283000" lon="-3.838587000">
        <ele>1157.2</ele>
        <time>2020-10-14T14:33:43Z</time>
      </trkpt>
      <trkpt lat="37.644389000" lon="-3.838574000">
        <ele>1157.4</ele>
        <time>2020-10-14T14:33:46Z</time>
      </trkpt>
      <trkpt lat="37.644494000" lon="-3.838566000">
        <ele>1157.5</ele>
        <time>2020-10-14T14:33:49Z</time>
      </trkpt>
      <trkpt lat="37.644599000" lon="-3.838553000">
        <ele>1157.7</ele>
        <time>2020-10-14T14:33:52Z</time>
      </trkpt>
      <trkpt lat="37.644702000" lon="-3.838540000">
        <ele>1158.1</ele>
        <time>2020-10-14T14:33:55Z</time>
      </trkpt>
      <trkpt lat="37.644802000" lon="-3.838525000">
        <ele>1158.5</ele>
        <time>2020-10-14T14:33:58Z</time>
      </trkpt>
      <trkpt lat="37.644901000" lon="-3.838511000">
        <ele>1159.0</ele>
        <time>2020-10-14T14:34:01Z</time>
      </trkpt>
      <trkpt lat="37.645002000" lon="-3.838489000">
        <ele>1159.5</ele>
        <time>2020-10-14T14:34:04Z</time>
      </trkpt>
      <trkpt lat="37.645106000" lon="-3.838462000">
        <ele>1160.0</ele>
        <time>2020-10-14T14:34:07Z</time>
      </trkpt>
      <trkpt lat="37.645207000" lon="-3.838429000">
        <ele>1160.4</ele>
        <time>2020-10-14T14:34:10Z</time>
      </trkpt>
      <trkpt lat="37.645308000" lon="-3.838394000">
        <ele>1160.7</ele>
        <time>2020-10-14T14:34:13Z</time>
      </trkpt>
      <trkpt lat="37.645404000" lon="-3.838348000">
        <ele>1161.0</ele>
        <time>2020-10-14T14:34:16Z</time>
      </trkpt>
      <trkpt lat="37.645502000" lon="-3.838299000">
        <ele>1161.4</ele>
        <time>2020-10-14T14:34:19Z</time>
      </trkpt>
      <trkpt lat="37.645601000" lon="-3.838247000">
        <ele>1161.8</ele>
        <time>2020-10-14T14:34:22Z</time>
      </trkpt>
      <trkpt lat="37.645697000" lon="-3.838184000">
        <ele>1162.0</ele>
        <time>2020-10-14T14:34:25Z</time>
      </trkpt>
      <trkpt lat="37.645791000" lon="-3.838118000">
        <ele>1162.2</ele>
        <time>2020-10-14T14:34:28Z</time>
      </trkpt>
      <trkpt lat="37.645881000" lon="-3.838047000">
        <ele>1162.4</ele>
        <time>2020-10-14T14:34:31Z</time>
      </trkpt>
      <trkpt lat="37.645973000" lon="-3.837968000">
        <ele>1162.5</ele>
        <time>2020-10-14T14:34:34Z</time>
      </trkpt>
      <trkpt lat="37.646061000" lon="-3.837884000">
        <ele>1162.5</ele>
        <time>2020-10-14T14:34:37Z</time>
      </trkpt>
      <trkpt lat="37.646145000" lon="-3.837802000">
        <ele>1162.6</ele>
        <time>2020-10-14T14:34:40Z</time>
      </trkpt>
      <trkpt lat="37.646225000" lon="-3.837715000">
        <ele>1162.7</ele>
        <time>2020-10-14T14:34:43Z</time>
      </trkpt>
      <trkpt lat="37.646308000" lon="-3.837625000">
        <ele>1162.7</ele>
        <time>2020-10-14T14:34:46Z</time>
      </trkpt>
      <trkpt lat="37.646372000" lon="-3.837552000">
        <ele>1162.7</ele>
        <time>2020-10-14T14:34:48Z</time>
      </trkpt>
      <trkpt lat="37.646458000" lon="-3.837448000">
        <ele>1162.6</ele>
        <time>2020-10-14T14:34:51Z</time>
      </trkpt>
      <trkpt lat="37.646517000" lon="-3.837378000">
        <ele>1162.5</ele>
        <time>2020-10-14T14:34:53Z</time>
      </trkpt>
      <trkpt lat="37.646577000" lon="-3.837305000">
        <ele>1162.3</ele>
        <time>2020-10-14T14:34:55Z</time>
      </trkpt>
      <trkpt lat="37.646638000" lon="-3.837230000">
        <ele>1162.0</ele>
        <time>2020-10-14T14:34:57Z</time>
      </trkpt>
      <trkpt lat="37.646701000" lon="-3.837157000">
        <ele>1161.6</ele>
        <time>2020-10-14T14:34:59Z</time>
      </trkpt>
      <trkpt lat="37.646761000" lon="-3.837082000">
        <ele>1161.4</ele>
        <time>2020-10-14T14:35:01Z</time>
      </trkpt>
      <trkpt lat="37.646823000" lon="-3.837006000">
        <ele>1161.1</ele>
        <time>2020-10-14T14:35:03Z</time>
      </trkpt>
      <trkpt lat="37.646886000" lon="-3.836930000">
        <ele>1161.0</ele>
        <time>2020-10-14T14:35:05Z</time>
      </trkpt>
      <trkpt lat="37.646949000" lon="-3.836853000">
        <ele>1161.1</ele>
        <time>2020-10-14T14:35:07Z</time>
      </trkpt>
      <trkpt lat="37.647014000" lon="-3.836774000">
        <ele>1161.4</ele>
        <time>2020-10-14T14:35:09Z</time>
      </trkpt>
      <trkpt lat="37.647087000" lon="-3.836694000">
        <ele>1161.8</ele>
        <time>2020-10-14T14:35:11Z</time>
      </trkpt>
      <trkpt lat="37.647153000" lon="-3.836616000">
        <ele>1162.5</ele>
        <time>2020-10-14T14:35:13Z</time>
      </trkpt>
      <trkpt lat="37.647223000" lon="-3.836536000">
        <ele>1163.2</ele>
        <time>2020-10-14T14:35:15Z</time>
      </trkpt>
      <trkpt lat="37.647286000" lon="-3.836461000">
        <ele>1164.0</ele>
        <time>2020-10-14T14:35:17Z</time>
      </trkpt>
      <trkpt lat="37.647351000" lon="-3.836377000">
        <ele>1164.7</ele>
        <time>2020-10-14T14:35:19Z</time>
      </trkpt>
      <trkpt lat="37.647423000" lon="-3.836297000">
        <ele>1165.4</ele>
        <time>2020-10-14T14:35:21Z</time>
      </trkpt>
      <trkpt lat="37.647493000" lon="-3.836216000">
        <ele>1166.0</ele>
        <time>2020-10-14T14:35:23Z</time>
      </trkpt>
      <trkpt lat="37.647564000" lon="-3.836132000">
        <ele>1166.5</ele>
        <time>2020-10-14T14:35:25Z</time>
      </trkpt>
      <trkpt lat="37.647636000" lon="-3.836054000">
        <ele>1166.9</ele>
        <time>2020-10-14T14:35:27Z</time>
      </trkpt>
      <trkpt lat="37.647705000" lon="-3.835976000">
        <ele>1167.1</ele>
        <time>2020-10-14T14:35:29Z</time>
      </trkpt>
      <trkpt lat="37.647769000" lon="-3.835896000">
        <ele>1167.2</ele>
        <time>2020-10-14T14:35:31Z</time>
      </trkpt>
      <trkpt lat="37.647834000" lon="-3.835817000">
        <ele>1167.1</ele>
        <time>2020-10-14T14:35:33Z</time>
      </trkpt>
      <trkpt lat="37.647894000" lon="-3.835738000">
        <ele>1166.8</ele>
        <time>2020-10-14T14:35:35Z</time>
      </trkpt>
      <trkpt lat="37.647982000" lon="-3.835634000">
        <ele>1166.5</ele>
        <time>2020-10-14T14:35:38Z</time>
      </trkpt>
      <trkpt lat="37.648065000" lon="-3.835535000">
        <ele>1166.4</ele>
        <time>2020-10-14T14:35:41Z</time>
      </trkpt>
      <trkpt lat="37.648140000" lon="-3.835446000">
        <ele>1166.3</ele>
        <time>2020-10-14T14:35:44Z</time>
      </trkpt>
      <trkpt lat="37.648215000" lon="-3.835361000">
        <ele>1166.4</ele>
        <time>2020-10-14T14:35:47Z</time>
      </trkpt>
      <trkpt lat="37.648287000" lon="-3.835276000">
        <ele>1166.5</ele>
        <time>2020-10-14T14:35:50Z</time>
      </trkpt>
      <trkpt lat="37.648351000" lon="-3.835193000">
        <ele>1166.6</ele>
        <time>2020-10-14T14:35:53Z</time>
      </trkpt>
      <trkpt lat="37.648416000" lon="-3.835115000">
        <ele>1166.8</ele>
        <time>2020-10-14T14:35:56Z</time>
      </trkpt>
      <trkpt lat="37.648482000" lon="-3.835040000">
        <ele>1167.1</ele>
        <time>2020-10-14T14:35:59Z</time>
      </trkpt>
      <trkpt lat="37.648544000" lon="-3.834956000">
        <ele>1167.4</ele>
        <time>2020-10-14T14:36:02Z</time>
      </trkpt>
      <trkpt lat="37.648608000" lon="-3.834873000">
        <ele>1167.8</ele>
        <time>2020-10-14T14:36:05Z</time>
      </trkpt>
      <trkpt lat="37.648675000" lon="-3.834802000">
        <ele>1168.4</ele>
        <time>2020-10-14T14:36:08Z</time>
      </trkpt>
      <trkpt lat="37.648749000" lon="-3.834722000">
        <ele>1168.9</ele>
        <time>2020-10-14T14:36:11Z</time>
      </trkpt>
      <trkpt lat="37.648829000" lon="-3.834632000">
        <ele>1169.5</ele>
        <time>2020-10-14T14:36:14Z</time>
      </trkpt>
      <trkpt lat="37.648892000" lon="-3.834558000">
        <ele>1170.1</ele>
        <time>2020-10-14T14:36:17Z</time>
      </trkpt>
      <trkpt lat="37.648968000" lon="-3.834468000">
        <ele>1170.8</ele>
        <time>2020-10-14T14:36:21Z</time>
      </trkpt>
      <trkpt lat="37.649035000" lon="-3.834383000">
        <ele>1171.6</ele>
        <time>2020-10-14T14:36:25Z</time>
      </trkpt>
      <trkpt lat="37.649104000" lon="-3.834296000">
        <ele>1172.5</ele>
        <time>2020-10-14T14:36:29Z</time>
      </trkpt>
      <trkpt lat="37.649175000" lon="-3.834213000">
        <ele>1173.5</ele>
        <time>2020-10-14T14:36:33Z</time>
      </trkpt>
      <trkpt lat="37.649246000" lon="-3.834125000">
        <ele>1174.5</ele>
        <time>2020-10-14T14:36:37Z</time>
      </trkpt>
      <trkpt lat="37.649315000" lon="-3.834042000">
        <ele>1175.5</ele>
        <time>2020-10-14T14:36:41Z</time>
      </trkpt>
      <trkpt lat="37.649379000" lon="-3.833956000">
        <ele>1176.6</ele>
        <time>2020-10-14T14:36:45Z</time>
      </trkpt>
      <trkpt lat="37.649441000" lon="-3.833861000">
        <ele>1177.8</ele>
        <time>2020-10-14T14:36:49Z</time>
      </trkpt>
      <trkpt lat="37.649503000" lon="-3.833766000">
        <ele>1179.1</ele>
        <time>2020-10-14T14:36:53Z</time>
      </trkpt>
      <trkpt lat="37.649559000" lon="-3.833666000">
        <ele>1180.3</ele>
        <time>2020-10-14T14:36:57Z</time>
      </trkpt>
      <trkpt lat="37.649609000" lon="-3.833556000">
        <ele>1181.5</ele>
        <time>2020-10-14T14:37:01Z</time>
      </trkpt>
      <trkpt lat="37.649662000" lon="-3.833444000">
        <ele>1182.5</ele>
        <time>2020-10-14T14:37:05Z</time>
      </trkpt>
      <trkpt lat="37.649705000" lon="-3.833329000">
        <ele>1183.3</ele>
        <time>2020-10-14T14:37:09Z</time>
      </trkpt>
      <trkpt lat="37.649748000" lon="-3.833214000">
        <ele>1184.1</ele>
        <time>2020-10-14T14:37:13Z</time>
      </trkpt>
      <trkpt lat="37.649781000" lon="-3.833098000">
        <ele>1184.7</ele>
        <time>2020-10-14T14:37:17Z</time>
      </trkpt>
      <trkpt lat="37.649817000" lon="-3.832989000">
        <ele>1185.4</ele>
        <time>2020-10-14T14:37:21Z</time>
      </trkpt>
      <trkpt lat="37.649853000" lon="-3.832862000">
        <ele>1186.0</ele>
        <time>2020-10-14T14:37:25Z</time>
      </trkpt>
      <trkpt lat="37.649887000" lon="-3.832736000">
        <ele>1186.7</ele>
        <time>2020-10-14T14:37:29Z</time>
      </trkpt>
      <trkpt lat="37.649922000" lon="-3.832611000">
        <ele>1187.4</ele>
        <time>2020-10-14T14:37:33Z</time>
      </trkpt>
      <trkpt lat="37.649951000" lon="-3.832513000">
        <ele>1188.0</ele>
        <time>2020-10-14T14:37:36Z</time>
      </trkpt>
      <trkpt lat="37.649982000" lon="-3.832416000">
        <ele>1188.6</ele>
        <time>2020-10-14T14:37:39Z</time>
      </trkpt>
      <trkpt lat="37.650010000" lon="-3.832317000">
        <ele>1189.3</ele>
        <time>2020-10-14T14:37:42Z</time>
      </trkpt>
      <trkpt lat="37.650046000" lon="-3.832189000">
        <ele>1189.9</ele>
        <time>2020-10-14T14:37:46Z</time>
      </trkpt>
      <trkpt lat="37.650083000" lon="-3.832094000">
        <ele>1190.6</ele>
        <time>2020-10-14T14:37:49Z</time>
      </trkpt>
      <trkpt lat="37.650132000" lon="-3.831976000">
        <ele>1191.3</ele>
        <time>2020-10-14T14:37:53Z</time>
      </trkpt>
      <trkpt lat="37.650173000" lon="-3.831881000">
        <ele>1191.9</ele>
        <time>2020-10-14T14:37:56Z</time>
      </trkpt>
      <trkpt lat="37.650226000" lon="-3.831778000">
        <ele>1192.5</ele>
        <time>2020-10-14T14:38:00Z</time>
      </trkpt>
      <trkpt lat="37.650285000" lon="-3.831668000">
        <ele>1192.9</ele>
        <time>2020-10-14T14:38:04Z</time>
      </trkpt>
      <trkpt lat="37.650343000" lon="-3.831575000">
        <ele>1193.2</ele>
        <time>2020-10-14T14:38:08Z</time>
      </trkpt>
      <trkpt lat="37.650403000" lon="-3.831488000">
        <ele>1193.5</ele>
        <time>2020-10-14T14:38:12Z</time>
      </trkpt>
      <trkpt lat="37.650472000" lon="-3.831400000">
        <ele>1193.6</ele>
        <time>2020-10-14T14:38:16Z</time>
      </trkpt>
      <trkpt lat="37.650547000" lon="-3.831324000">
        <ele>1193.8</ele>
        <time>2020-10-14T14:38:20Z</time>
      </trkpt>
      <trkpt lat="37.650627000" lon="-3.831241000">
        <ele>1193.9</ele>
        <time>2020-10-14T14:38:24Z</time>
      </trkpt>
      <trkpt lat="37.650691000" lon="-3.831177000">
        <ele>1194.0</ele>
        <time>2020-10-14T14:38:27Z</time>
      </trkpt>
      <trkpt lat="37.650757000" lon="-3.831109000">
        <ele>1194.0</ele>
        <time>2020-10-14T14:38:30Z</time>
      </trkpt>
      <trkpt lat="37.650831000" lon="-3.831045000">
        <ele>1194.0</ele>
        <time>2020-10-14T14:38:33Z</time>
      </trkpt>
      <trkpt lat="37.650905000" lon="-3.830971000">
        <ele>1194.0</ele>
        <time>2020-10-14T14:38:36Z</time>
      </trkpt>
      <trkpt lat="37.650988000" lon="-3.830893000">
        <ele>1194.0</ele>
        <time>2020-10-14T14:38:39Z</time>
      </trkpt>
      <trkpt lat="37.651069000" lon="-3.830812000">
        <ele>1194.0</ele>
        <time>2020-10-14T14:38:42Z</time>
      </trkpt>
      <trkpt lat="37.651154000" lon="-3.830734000">
        <ele>1193.9</ele>
        <time>2020-10-14T14:38:45Z</time>
      </trkpt>
      <trkpt lat="37.651240000" lon="-3.830650000">
        <ele>1193.9</ele>
        <time>2020-10-14T14:38:48Z</time>
      </trkpt>
      <trkpt lat="37.651326000" lon="-3.830565000">
        <ele>1193.9</ele>
        <time>2020-10-14T14:38:51Z</time>
      </trkpt>
      <trkpt lat="37.651419000" lon="-3.830477000">
        <ele>1194.0</ele>
        <time>2020-10-14T14:38:54Z</time>
      </trkpt>
      <trkpt lat="37.651512000" lon="-3.830390000">
        <ele>1194.1</ele>
        <time>2020-10-14T14:38:57Z</time>
      </trkpt>
      <trkpt lat="37.651601000" lon="-3.830303000">
        <ele>1194.3</ele>
        <time>2020-10-14T14:39:00Z</time>
      </trkpt>
      <trkpt lat="37.651686000" lon="-3.830215000">
        <ele>1194.5</ele>
        <time>2020-10-14T14:39:03Z</time>
      </trkpt>
      <trkpt lat="37.651780000" lon="-3.830128000">
        <ele>1194.6</ele>
        <time>2020-10-14T14:39:06Z</time>
      </trkpt>
      <trkpt lat="37.651849000" lon="-3.830061000">
        <ele>1194.8</ele>
        <time>2020-10-14T14:39:08Z</time>
      </trkpt>
      <trkpt lat="37.651921000" lon="-3.829986000">
        <ele>1195.0</ele>
        <time>2020-10-14T14:39:10Z</time>
      </trkpt>
      <trkpt lat="37.651997000" lon="-3.829913000">
        <ele>1195.1</ele>
        <time>2020-10-14T14:39:12Z</time>
      </trkpt>
      <trkpt lat="37.652078000" lon="-3.829837000">
        <ele>1195.1</ele>
        <time>2020-10-14T14:39:14Z</time>
      </trkpt>
      <trkpt lat="37.652164000" lon="-3.829753000">
        <ele>1194.8</ele>
        <time>2020-10-14T14:39:16Z</time>
      </trkpt>
      <trkpt lat="37.652252000" lon="-3.829663000">
        <ele>1194.4</ele>
        <time>2020-10-14T14:39:18Z</time>
      </trkpt>
      <trkpt lat="37.652350000" lon="-3.829575000">
        <ele>1193.6</ele>
        <time>2020-10-14T14:39:21Z</time>
      </trkpt>
      <trkpt lat="37.652451000" lon="-3.829481000">
        <ele>1192.7</ele>
        <time>2020-10-14T14:39:22Z</time>
      </trkpt>
      <trkpt lat="37.652550000" lon="-3.829388000">
        <ele>1191.5</ele>
        <time>2020-10-14T14:39:24Z</time>
      </trkpt>
      <trkpt lat="37.652642000" lon="-3.829307000">
        <ele>1190.2</ele>
        <time>2020-10-14T14:39:26Z</time>
      </trkpt>
      <trkpt lat="37.652729000" lon="-3.829223000">
        <ele>1188.6</ele>
        <time>2020-10-14T14:39:28Z</time>
      </trkpt>
      <trkpt lat="37.652814000" lon="-3.829140000">
        <ele>1186.9</ele>
        <time>2020-10-14T14:39:30Z</time>
      </trkpt>
      <trkpt lat="37.652892000" lon="-3.829058000">
        <ele>1185.0</ele>
        <time>2020-10-14T14:39:32Z</time>
      </trkpt>
      <trkpt lat="37.652967000" lon="-3.828976000">
        <ele>1183.1</ele>
        <time>2020-10-14T14:39:34Z</time>
      </trkpt>
      <trkpt lat="37.653044000" lon="-3.828885000">
        <ele>1181.2</ele>
        <time>2020-10-14T14:39:36Z</time>
      </trkpt>
      <trkpt lat="37.653133000" lon="-3.828781000">
        <ele>1179.3</ele>
        <time>2020-10-14T14:39:38Z</time>
      </trkpt>
      <trkpt lat="37.653205000" lon="-3.828660000">
        <ele>1177.4</ele>
        <time>2020-10-14T14:39:40Z</time>
      </trkpt>
      <trkpt lat="37.653262000" lon="-3.828537000">
        <ele>1175.5</ele>
        <time>2020-10-14T14:39:42Z</time>
      </trkpt>
      <trkpt lat="37.653309000" lon="-3.828428000">
        <ele>1174.0</ele>
        <time>2020-10-14T14:39:44Z</time>
      </trkpt>
      <trkpt lat="37.653346000" lon="-3.828334000">
        <ele>1172.5</ele>
        <time>2020-10-14T14:39:46Z</time>
      </trkpt>
      <trkpt lat="37.653381000" lon="-3.828223000">
        <ele>1171.0</ele>
        <time>2020-10-14T14:39:50Z</time>
      </trkpt>
      <trkpt lat="37.653434000" lon="-3.828131000">
        <ele>1169.5</ele>
        <time>2020-10-14T14:39:54Z</time>
      </trkpt>
      <trkpt lat="37.653492000" lon="-3.828208000">
        <ele>1168.2</ele>
        <time>2020-10-14T14:39:58Z</time>
      </trkpt>
      <trkpt lat="37.653452000" lon="-3.828087000">
        <ele>1167.0</ele>
        <time>2020-10-14T14:41:04Z</time>
      </trkpt>
      <trkpt lat="37.653484000" lon="-3.827949000">
        <ele>1165.8</ele>
        <time>2020-10-14T14:41:07Z</time>
      </trkpt>
      <trkpt lat="37.653521000" lon="-3.827827000">
        <ele>1164.7</ele>
        <time>2020-10-14T14:41:09Z</time>
      </trkpt>
      <trkpt lat="37.653570000" lon="-3.827690000">
        <ele>1163.8</ele>
        <time>2020-10-14T14:41:11Z</time>
      </trkpt>
      <trkpt lat="37.653633000" lon="-3.827535000">
        <ele>1163.0</ele>
        <time>2020-10-14T14:41:13Z</time>
      </trkpt>
      <trkpt lat="37.653719000" lon="-3.827372000">
        <ele>1162.2</ele>
        <time>2020-10-14T14:41:15Z</time>
      </trkpt>
      <trkpt lat="37.653768000" lon="-3.827291000">
        <ele>1161.2</ele>
        <time>2020-10-14T14:41:16Z</time>
      </trkpt>
      <trkpt lat="37.653878000" lon="-3.827128000">
        <ele>1160.5</ele>
        <time>2020-10-14T14:41:18Z</time>
      </trkpt>
      <trkpt lat="37.653942000" lon="-3.827046000">
        <ele>1159.9</ele>
        <time>2020-10-14T14:41:19Z</time>
      </trkpt>
      <trkpt lat="37.654010000" lon="-3.826969000">
        <ele>1159.5</ele>
        <time>2020-10-14T14:41:20Z</time>
      </trkpt>
      <trkpt lat="37.654079000" lon="-3.826889000">
        <ele>1159.3</ele>
        <time>2020-10-14T14:41:21Z</time>
      </trkpt>
      <trkpt lat="37.654150000" lon="-3.826806000">
        <ele>1159.0</ele>
        <time>2020-10-14T14:41:22Z</time>
      </trkpt>
      <trkpt lat="37.654223000" lon="-3.826719000">
        <ele>1158.8</ele>
        <time>2020-10-14T14:41:23Z</time>
      </trkpt>
      <trkpt lat="37.654296000" lon="-3.826637000">
        <ele>1158.5</ele>
        <time>2020-10-14T14:41:24Z</time>
      </trkpt>
      <trkpt lat="37.654368000" lon="-3.826557000">
        <ele>1158.2</ele>
        <time>2020-10-14T14:41:25Z</time>
      </trkpt>
      <trkpt lat="37.654439000" lon="-3.826475000">
        <ele>1157.8</ele>
        <time>2020-10-14T14:41:26Z</time>
      </trkpt>
      <trkpt lat="37.654512000" lon="-3.826394000">
        <ele>1157.5</ele>
        <time>2020-10-14T14:41:27Z</time>
      </trkpt>
      <trkpt lat="37.654583000" lon="-3.826312000">
        <ele>1157.1</ele>
        <time>2020-10-14T14:41:28Z</time>
      </trkpt>
      <trkpt lat="37.654653000" lon="-3.826234000">
        <ele>1156.5</ele>
        <time>2020-10-14T14:41:29Z</time>
      </trkpt>
      <trkpt lat="37.654721000" lon="-3.826160000">
        <ele>1155.9</ele>
        <time>2020-10-14T14:41:30Z</time>
      </trkpt>
      <trkpt lat="37.654785000" lon="-3.826084000">
        <ele>1155.3</ele>
        <time>2020-10-14T14:41:31Z</time>
      </trkpt>
      <trkpt lat="37.654844000" lon="-3.826009000">
        <ele>1154.6</ele>
        <time>2020-10-14T14:41:32Z</time>
      </trkpt>
      <trkpt lat="37.654902000" lon="-3.825937000">
        <ele>1154.0</ele>
        <time>2020-10-14T14:41:33Z</time>
      </trkpt>
      <trkpt lat="37.655023000" lon="-3.825797000">
        <ele>1153.3</ele>
        <time>2020-10-14T14:41:35Z</time>
      </trkpt>
      <trkpt lat="37.655085000" lon="-3.825729000">
        <ele>1152.6</ele>
        <time>2020-10-14T14:41:36Z</time>
      </trkpt>
      <trkpt lat="37.655147000" lon="-3.825660000">
        <ele>1152.0</ele>
        <time>2020-10-14T14:41:37Z</time>
      </trkpt>
      <trkpt lat="37.655208000" lon="-3.825591000">
        <ele>1151.4</ele>
        <time>2020-10-14T14:41:38Z</time>
      </trkpt>
      <trkpt lat="37.655263000" lon="-3.825515000">
        <ele>1150.8</ele>
        <time>2020-10-14T14:41:39Z</time>
      </trkpt>
      <trkpt lat="37.655373000" lon="-3.825364000">
        <ele>1150.3</ele>
        <time>2020-10-14T14:41:41Z</time>
      </trkpt>
      <trkpt lat="37.655463000" lon="-3.825196000">
        <ele>1149.8</ele>
        <time>2020-10-14T14:41:43Z</time>
      </trkpt>
      <trkpt lat="37.655531000" lon="-3.825020000">
        <ele>1149.3</ele>
        <time>2020-10-14T14:41:45Z</time>
      </trkpt>
      <trkpt lat="37.655574000" lon="-3.824843000">
        <ele>1148.5</ele>
        <time>2020-10-14T14:41:47Z</time>
      </trkpt>
      <trkpt lat="37.655585000" lon="-3.824655000">
        <ele>1147.6</ele>
        <time>2020-10-14T14:41:49Z</time>
      </trkpt>
      <trkpt lat="37.655579000" lon="-3.824459000">
        <ele>1146.7</ele>
        <time>2020-10-14T14:41:51Z</time>
      </trkpt>
      <trkpt lat="37.655566000" lon="-3.824260000">
        <ele>1145.9</ele>
        <time>2020-10-14T14:41:53Z</time>
      </trkpt>
      <trkpt lat="37.655555000" lon="-3.824071000">
        <ele>1145.2</ele>
        <time>2020-10-14T14:41:55Z</time>
      </trkpt>
      <trkpt lat="37.655544000" lon="-3.823886000">
        <ele>1144.5</ele>
        <time>2020-10-14T14:41:57Z</time>
      </trkpt>
      <trkpt lat="37.655507000" lon="-3.823720000">
        <ele>1143.9</ele>
        <time>2020-10-14T14:41:59Z</time>
      </trkpt>
      <trkpt lat="37.655425000" lon="-3.823583000">
        <ele>1143.1</ele>
        <time>2020-10-14T14:42:01Z</time>
      </trkpt>
      <trkpt lat="37.655319000" lon="-3.823473000">
        <ele>1142.0</ele>
        <time>2020-10-14T14:42:03Z</time>
      </trkpt>
      <trkpt lat="37.655228000" lon="-3.823347000">
        <ele>1140.7</ele>
        <time>2020-10-14T14:42:05Z</time>
      </trkpt>
      <trkpt lat="37.655179000" lon="-3.823182000">
        <ele>1139.5</ele>
        <time>2020-10-14T14:42:07Z</time>
      </trkpt>
      <trkpt lat="37.655201000" lon="-3.823010000">
        <ele>1138.3</ele>
        <time>2020-10-14T14:42:09Z</time>
      </trkpt>
      <trkpt lat="37.655265000" lon="-3.822837000">
        <ele>1137.3</ele>
        <time>2020-10-14T14:42:11Z</time>
      </trkpt>
      <trkpt lat="37.655338000" lon="-3.822659000">
        <ele>1136.3</ele>
        <time>2020-10-14T14:42:13Z</time>
      </trkpt>
      <trkpt lat="37.655410000" lon="-3.822478000">
        <ele>1135.2</ele>
        <time>2020-10-14T14:42:15Z</time>
      </trkpt>
      <trkpt lat="37.655451000" lon="-3.822388000">
        <ele>1134.1</ele>
        <time>2020-10-14T14:42:16Z</time>
      </trkpt>
      <trkpt lat="37.655532000" lon="-3.822209000">
        <ele>1132.9</ele>
        <time>2020-10-14T14:42:18Z</time>
      </trkpt>
      <trkpt lat="37.655621000" lon="-3.822053000">
        <ele>1131.7</ele>
        <time>2020-10-14T14:42:20Z</time>
      </trkpt>
      <trkpt lat="37.655734000" lon="-3.821914000">
        <ele>1130.5</ele>
        <time>2020-10-14T14:42:22Z</time>
      </trkpt>
      <trkpt lat="37.655799000" lon="-3.821848000">
        <ele>1129.6</ele>
        <time>2020-10-14T14:42:23Z</time>
      </trkpt>
      <trkpt lat="37.655869000" lon="-3.821789000">
        <ele>1128.9</ele>
        <time>2020-10-14T14:42:24Z</time>
      </trkpt>
      <trkpt lat="37.655938000" lon="-3.821736000">
        <ele>1128.5</ele>
        <time>2020-10-14T14:42:25Z</time>
      </trkpt>
      <trkpt lat="37.656079000" lon="-3.821652000">
        <ele>1128.1</ele>
        <time>2020-10-14T14:42:27Z</time>
      </trkpt>
      <trkpt lat="37.656200000" lon="-3.821573000">
        <ele>1127.7</ele>
        <time>2020-10-14T14:42:29Z</time>
      </trkpt>
      <trkpt lat="37.656295000" lon="-3.821452000">
        <ele>1127.5</ele>
        <time>2020-10-14T14:42:31Z</time>
      </trkpt>
      <trkpt lat="37.656336000" lon="-3.821293000">
        <ele>1127.2</ele>
        <time>2020-10-14T14:42:33Z</time>
      </trkpt>
      <trkpt lat="37.656358000" lon="-3.821118000">
        <ele>1126.6</ele>
        <time>2020-10-14T14:42:35Z</time>
      </trkpt>
      <trkpt lat="37.656378000" lon="-3.820947000">
        <ele>1126.1</ele>
        <time>2020-10-14T14:42:37Z</time>
      </trkpt>
      <trkpt lat="37.656420000" lon="-3.820782000">
        <ele>1125.5</ele>
        <time>2020-10-14T14:42:39Z</time>
      </trkpt>
      <trkpt lat="37.656467000" lon="-3.820620000">
        <ele>1125.2</ele>
        <time>2020-10-14T14:42:41Z</time>
      </trkpt>
      <trkpt lat="37.656538000" lon="-3.820457000">
        <ele>1124.8</ele>
        <time>2020-10-14T14:42:43Z</time>
      </trkpt>
      <trkpt lat="37.656630000" lon="-3.820321000">
        <ele>1124.4</ele>
        <time>2020-10-14T14:42:45Z</time>
      </trkpt>
      <trkpt lat="37.656745000" lon="-3.820217000">
        <ele>1123.5</ele>
        <time>2020-10-14T14:42:47Z</time>
      </trkpt>
      <trkpt lat="37.656877000" lon="-3.820113000">
        <ele>1122.5</ele>
        <time>2020-10-14T14:42:49Z</time>
      </trkpt>
      <trkpt lat="37.657011000" lon="-3.820006000">
        <ele>1121.3</ele>
        <time>2020-10-14T14:42:51Z</time>
      </trkpt>
      <trkpt lat="37.657143000" lon="-3.819904000">
        <ele>1119.8</ele>
        <time>2020-10-14T14:42:53Z</time>
      </trkpt>
      <trkpt lat="37.657265000" lon="-3.819804000">
        <ele>1118.5</ele>
        <time>2020-10-14T14:42:55Z</time>
      </trkpt>
      <trkpt lat="37.657370000" lon="-3.819705000">
        <ele>1117.5</ele>
        <time>2020-10-14T14:42:57Z</time>
      </trkpt>
      <trkpt lat="37.657454000" lon="-3.819589000">
        <ele>1116.8</ele>
        <time>2020-10-14T14:42:59Z</time>
      </trkpt>
      <trkpt lat="37.657519000" lon="-3.819444000">
        <ele>1116.2</ele>
        <time>2020-10-14T14:43:01Z</time>
      </trkpt>
      <trkpt lat="37.657548000" lon="-3.819276000">
        <ele>1115.5</ele>
        <time>2020-10-14T14:43:03Z</time>
      </trkpt>
      <trkpt lat="37.657548000" lon="-3.819092000">
        <ele>1114.8</ele>
        <time>2020-10-14T14:43:05Z</time>
      </trkpt>
      <trkpt lat="37.657530000" lon="-3.818892000">
        <ele>1114.1</ele>
        <time>2020-10-14T14:43:07Z</time>
      </trkpt>
      <trkpt lat="37.657512000" lon="-3.818790000">
        <ele>1113.4</ele>
        <time>2020-10-14T14:43:08Z</time>
      </trkpt>
      <trkpt lat="37.657497000" lon="-3.818680000">
        <ele>1112.7</ele>
        <time>2020-10-14T14:43:09Z</time>
      </trkpt>
      <trkpt lat="37.657483000" lon="-3.818573000">
        <ele>1112.4</ele>
        <time>2020-10-14T14:43:10Z</time>
      </trkpt>
      <trkpt lat="37.657469000" lon="-3.818465000">
        <ele>1112.1</ele>
        <time>2020-10-14T14:43:11Z</time>
      </trkpt>
      <trkpt lat="37.657459000" lon="-3.818362000">
        <ele>1111.8</ele>
        <time>2020-10-14T14:43:12Z</time>
      </trkpt>
      <trkpt lat="37.657443000" lon="-3.818159000">
        <ele>1111.3</ele>
        <time>2020-10-14T14:43:14Z</time>
      </trkpt>
      <trkpt lat="37.657434000" lon="-3.818054000">
        <ele>1110.6</ele>
        <time>2020-10-14T14:43:15Z</time>
      </trkpt>
      <trkpt lat="37.657433000" lon="-3.817846000">
        <ele>1109.9</ele>
        <time>2020-10-14T14:43:17Z</time>
      </trkpt>
      <trkpt lat="37.657441000" lon="-3.817735000">
        <ele>1109.1</ele>
        <time>2020-10-14T14:43:18Z</time>
      </trkpt>
      <trkpt lat="37.657452000" lon="-3.817628000">
        <ele>1108.4</ele>
        <time>2020-10-14T14:43:19Z</time>
      </trkpt>
      <trkpt lat="37.657475000" lon="-3.817523000">
        <ele>1107.5</ele>
        <time>2020-10-14T14:43:20Z</time>
      </trkpt>
      <trkpt lat="37.657502000" lon="-3.817426000">
        <ele>1106.7</ele>
        <time>2020-10-14T14:43:21Z</time>
      </trkpt>
      <trkpt lat="37.657527000" lon="-3.817326000">
        <ele>1105.9</ele>
        <time>2020-10-14T14:43:22Z</time>
      </trkpt>
      <trkpt lat="37.657553000" lon="-3.817225000">
        <ele>1105.1</ele>
        <time>2020-10-14T14:43:23Z</time>
      </trkpt>
      <trkpt lat="37.657582000" lon="-3.817129000">
        <ele>1104.3</ele>
        <time>2020-10-14T14:43:24Z</time>
      </trkpt>
      <trkpt lat="37.657630000" lon="-3.816946000">
        <ele>1103.5</ele>
        <time>2020-10-14T14:43:26Z</time>
      </trkpt>
      <trkpt lat="37.657675000" lon="-3.816765000">
        <ele>1102.7</ele>
        <time>2020-10-14T14:43:28Z</time>
      </trkpt>
      <trkpt lat="37.657694000" lon="-3.816574000">
        <ele>1102.0</ele>
        <time>2020-10-14T14:43:30Z</time>
      </trkpt>
      <trkpt lat="37.657675000" lon="-3.816378000">
        <ele>1101.3</ele>
        <time>2020-10-14T14:43:32Z</time>
      </trkpt>
      <trkpt lat="37.657657000" lon="-3.816276000">
        <ele>1100.5</ele>
        <time>2020-10-14T14:43:33Z</time>
      </trkpt>
      <trkpt lat="37.657639000" lon="-3.816171000">
        <ele>1099.8</ele>
        <time>2020-10-14T14:43:34Z</time>
      </trkpt>
      <trkpt lat="37.657625000" lon="-3.816068000">
        <ele>1099.3</ele>
        <time>2020-10-14T14:43:35Z</time>
      </trkpt>
      <trkpt lat="37.657619000" lon="-3.815859000">
        <ele>1098.8</ele>
        <time>2020-10-14T14:43:37Z</time>
      </trkpt>
      <trkpt lat="37.657630000" lon="-3.815755000">
        <ele>1098.4</ele>
        <time>2020-10-14T14:43:38Z</time>
      </trkpt>
      <trkpt lat="37.657648000" lon="-3.815651000">
        <ele>1097.9</ele>
        <time>2020-10-14T14:43:39Z</time>
      </trkpt>
      <trkpt lat="37.657672000" lon="-3.815545000">
        <ele>1097.5</ele>
        <time>2020-10-14T14:43:40Z</time>
      </trkpt>
      <trkpt lat="37.657699000" lon="-3.815442000">
        <ele>1096.7</ele>
        <time>2020-10-14T14:43:41Z</time>
      </trkpt>
      <trkpt lat="37.657733000" lon="-3.815339000">
        <ele>1095.7</ele>
        <time>2020-10-14T14:43:42Z</time>
      </trkpt>
      <trkpt lat="37.657765000" lon="-3.815237000">
        <ele>1094.6</ele>
        <time>2020-10-14T14:43:43Z</time>
      </trkpt>
      <trkpt lat="37.657800000" lon="-3.815136000">
        <ele>1093.5</ele>
        <time>2020-10-14T14:43:44Z</time>
      </trkpt>
      <trkpt lat="37.657834000" lon="-3.815040000">
        <ele>1092.5</ele>
        <time>2020-10-14T14:43:45Z</time>
      </trkpt>
      <trkpt lat="37.657902000" lon="-3.814855000">
        <ele>1091.5</ele>
        <time>2020-10-14T14:43:47Z</time>
      </trkpt>
      <trkpt lat="37.657937000" lon="-3.814656000">
        <ele>1090.6</ele>
        <time>2020-10-14T14:43:49Z</time>
      </trkpt>
      <trkpt lat="37.657938000" lon="-3.814549000">
        <ele>1089.8</ele>
        <time>2020-10-14T14:43:50Z</time>
      </trkpt>
      <trkpt lat="37.657930000" lon="-3.814447000">
        <ele>1089.0</ele>
        <time>2020-10-14T14:43:51Z</time>
      </trkpt>
      <trkpt lat="37.657908000" lon="-3.814258000">
        <ele>1088.1</ele>
        <time>2020-10-14T14:43:53Z</time>
      </trkpt>
      <trkpt lat="37.657903000" lon="-3.814073000">
        <ele>1087.2</ele>
        <time>2020-10-14T14:43:55Z</time>
      </trkpt>
      <trkpt lat="37.657945000" lon="-3.813889000">
        <ele>1086.5</ele>
        <time>2020-10-14T14:43:57Z</time>
      </trkpt>
      <trkpt lat="37.658016000" lon="-3.813730000">
        <ele>1086.2</ele>
        <time>2020-10-14T14:43:59Z</time>
      </trkpt>
      <trkpt lat="37.658083000" lon="-3.813581000">
        <ele>1085.8</ele>
        <time>2020-10-14T14:44:01Z</time>
      </trkpt>
      <trkpt lat="37.658098000" lon="-3.813425000">
        <ele>1085.5</ele>
        <time>2020-10-14T14:44:03Z</time>
      </trkpt>
      <trkpt lat="37.658050000" lon="-3.813263000">
        <ele>1085.5</ele>
        <time>2020-10-14T14:44:05Z</time>
      </trkpt>
      <trkpt lat="37.657970000" lon="-3.813107000">
        <ele>1085.2</ele>
        <time>2020-10-14T14:44:07Z</time>
      </trkpt>
      <trkpt lat="37.657893000" lon="-3.812941000">
        <ele>1084.8</ele>
        <time>2020-10-14T14:44:09Z</time>
      </trkpt>
      <trkpt lat="37.657840000" lon="-3.812759000">
        <ele>1084.4</ele>
        <time>2020-10-14T14:44:11Z</time>
      </trkpt>
      <trkpt lat="37.657801000" lon="-3.812569000">
        <ele>1084.0</ele>
        <time>2020-10-14T14:44:13Z</time>
      </trkpt>
      <trkpt lat="37.657780000" lon="-3.812462000">
        <ele>1083.6</ele>
        <time>2020-10-14T14:44:14Z</time>
      </trkpt>
      <trkpt lat="37.657757000" lon="-3.812355000">
        <ele>1083.1</ele>
        <time>2020-10-14T14:44:15Z</time>
      </trkpt>
      <trkpt lat="37.657734000" lon="-3.812244000">
        <ele>1082.4</ele>
        <time>2020-10-14T14:44:16Z</time>
      </trkpt>
      <trkpt lat="37.657712000" lon="-3.812128000">
        <ele>1081.5</ele>
        <time>2020-10-14T14:44:17Z</time>
      </trkpt>
      <trkpt lat="37.657689000" lon="-3.812017000">
        <ele>1080.8</ele>
        <time>2020-10-14T14:44:18Z</time>
      </trkpt>
      <trkpt lat="37.657662000" lon="-3.811905000">
        <ele>1080.0</ele>
        <time>2020-10-14T14:44:19Z</time>
      </trkpt>
      <trkpt lat="37.657637000" lon="-3.811796000">
        <ele>1079.0</ele>
        <time>2020-10-14T14:44:20Z</time>
      </trkpt>
      <trkpt lat="37.657609000" lon="-3.811686000">
        <ele>1078.0</ele>
        <time>2020-10-14T14:44:21Z</time>
      </trkpt>
      <trkpt lat="37.657583000" lon="-3.811576000">
        <ele>1077.1</ele>
        <time>2020-10-14T14:44:22Z</time>
      </trkpt>
      <trkpt lat="37.657558000" lon="-3.811469000">
        <ele>1076.2</ele>
        <time>2020-10-14T14:44:23Z</time>
      </trkpt>
      <trkpt lat="37.657526000" lon="-3.811368000">
        <ele>1075.2</ele>
        <time>2020-10-14T14:44:24Z</time>
      </trkpt>
      <trkpt lat="37.657501000" lon="-3.811266000">
        <ele>1074.3</ele>
        <time>2020-10-14T14:44:25Z</time>
      </trkpt>
      <trkpt lat="37.657476000" lon="-3.811165000">
        <ele>1073.5</ele>
        <time>2020-10-14T14:44:26Z</time>
      </trkpt>
      <trkpt lat="37.657455000" lon="-3.811066000">
        <ele>1072.8</ele>
        <time>2020-10-14T14:44:27Z</time>
      </trkpt>
      <trkpt lat="37.657431000" lon="-3.810965000">
        <ele>1072.2</ele>
        <time>2020-10-14T14:44:28Z</time>
      </trkpt>
      <trkpt lat="37.657407000" lon="-3.810862000">
        <ele>1071.6</ele>
        <time>2020-10-14T14:44:29Z</time>
      </trkpt>
      <trkpt lat="37.657384000" lon="-3.810758000">
        <ele>1071.2</ele>
        <time>2020-10-14T14:44:30Z</time>
      </trkpt>
      <trkpt lat="37.657361000" lon="-3.810659000">
        <ele>1070.8</ele>
        <time>2020-10-14T14:44:31Z</time>
      </trkpt>
      <trkpt lat="37.657316000" lon="-3.810471000">
        <ele>1070.5</ele>
        <time>2020-10-14T14:44:33Z</time>
      </trkpt>
      <trkpt lat="37.657266000" lon="-3.810296000">
        <ele>1070.2</ele>
        <time>2020-10-14T14:44:35Z</time>
      </trkpt>
      <trkpt lat="37.657193000" lon="-3.810146000">
        <ele>1069.8</ele>
        <time>2020-10-14T14:44:37Z</time>
      </trkpt>
      <trkpt lat="37.657113000" lon="-3.810009000">
        <ele>1069.5</ele>
        <time>2020-10-14T14:44:39Z</time>
      </trkpt>
      <trkpt lat="37.657029000" lon="-3.809860000">
        <ele>1069.2</ele>
        <time>2020-10-14T14:44:41Z</time>
      </trkpt>
      <trkpt lat="37.656953000" lon="-3.809708000">
        <ele>1068.8</ele>
        <time>2020-10-14T14:44:43Z</time>
      </trkpt>
      <trkpt lat="37.656871000" lon="-3.809553000">
        <ele>1068.5</ele>
        <time>2020-10-14T14:44:45Z</time>
      </trkpt>
      <trkpt lat="37.656792000" lon="-3.809399000">
        <ele>1068.1</ele>
        <time>2020-10-14T14:44:47Z</time>
      </trkpt>
      <trkpt lat="37.656714000" lon="-3.809245000">
        <ele>1067.5</ele>
        <time>2020-10-14T14:44:49Z</time>
      </trkpt>
      <trkpt lat="37.656635000" lon="-3.809101000">
        <ele>1066.7</ele>
        <time>2020-10-14T14:44:51Z</time>
      </trkpt>
      <trkpt lat="37.656557000" lon="-3.808951000">
        <ele>1065.8</ele>
        <time>2020-10-14T14:44:53Z</time>
      </trkpt>
      <trkpt lat="37.656480000" lon="-3.808807000">
        <ele>1064.7</ele>
        <time>2020-10-14T14:44:55Z</time>
      </trkpt>
      <trkpt lat="37.656405000" lon="-3.808651000">
        <ele>1063.6</ele>
        <time>2020-10-14T14:44:57Z</time>
      </trkpt>
      <trkpt lat="37.656374000" lon="-3.808466000">
        <ele>1062.6</ele>
        <time>2020-10-14T14:44:59Z</time>
      </trkpt>
      <trkpt lat="37.656364000" lon="-3.808273000">
        <ele>1061.6</ele>
        <time>2020-10-14T14:45:01Z</time>
      </trkpt>
      <trkpt lat="37.656391000" lon="-3.808082000">
        <ele>1060.7</ele>
        <time>2020-10-14T14:45:03Z</time>
      </trkpt>
      <trkpt lat="37.656462000" lon="-3.807891000">
        <ele>1059.8</ele>
        <time>2020-10-14T14:45:05Z</time>
      </trkpt>
      <trkpt lat="37.656509000" lon="-3.807803000">
        <ele>1058.7</ele>
        <time>2020-10-14T14:45:06Z</time>
      </trkpt>
      <trkpt lat="37.656557000" lon="-3.807717000">
        <ele>1057.5</ele>
        <time>2020-10-14T14:45:07Z</time>
      </trkpt>
      <trkpt lat="37.656610000" lon="-3.807634000">
        <ele>1056.5</ele>
        <time>2020-10-14T14:45:08Z</time>
      </trkpt>
      <trkpt lat="37.656660000" lon="-3.807552000">
        <ele>1055.6</ele>
        <time>2020-10-14T14:45:09Z</time>
      </trkpt>
      <trkpt lat="37.656709000" lon="-3.807466000">
        <ele>1055.2</ele>
        <time>2020-10-14T14:45:10Z</time>
      </trkpt>
      <trkpt lat="37.656784000" lon="-3.807291000">
        <ele>1055.1</ele>
        <time>2020-10-14T14:45:12Z</time>
      </trkpt>
      <trkpt lat="37.656826000" lon="-3.807104000">
        <ele>1055.2</ele>
        <time>2020-10-14T14:45:14Z</time>
      </trkpt>
      <trkpt lat="37.656836000" lon="-3.806917000">
        <ele>1055.3</ele>
        <time>2020-10-14T14:45:16Z</time>
      </trkpt>
      <trkpt lat="37.656802000" lon="-3.806744000">
        <ele>1055.1</ele>
        <time>2020-10-14T14:45:18Z</time>
      </trkpt>
      <trkpt lat="37.656743000" lon="-3.806595000">
        <ele>1054.5</ele>
        <time>2020-10-14T14:45:20Z</time>
      </trkpt>
      <trkpt lat="37.656671000" lon="-3.806452000">
        <ele>1053.8</ele>
        <time>2020-10-14T14:45:22Z</time>
      </trkpt>
      <trkpt lat="37.656612000" lon="-3.806328000">
        <ele>1053.2</ele>
        <time>2020-10-14T14:45:24Z</time>
      </trkpt>
      <trkpt lat="37.656578000" lon="-3.806198000">
        <ele>1052.7</ele>
        <time>2020-10-14T14:45:26Z</time>
      </trkpt>
      <trkpt lat="37.656622000" lon="-3.806082000">
        <ele>1052.1</ele>
        <time>2020-10-14T14:45:28Z</time>
      </trkpt>
      <trkpt lat="37.656724000" lon="-3.806045000">
        <ele>1051.1</ele>
        <time>2020-10-14T14:45:30Z</time>
      </trkpt>
      <trkpt lat="37.656806000" lon="-3.806112000">
        <ele>1049.8</ele>
        <time>2020-10-14T14:45:32Z</time>
      </trkpt>
      <trkpt lat="37.656872000" lon="-3.806221000">
        <ele>1048.4</ele>
        <time>2020-10-14T14:45:34Z</time>
      </trkpt>
      <trkpt lat="37.656939000" lon="-3.806366000">
        <ele>1046.8</ele>
        <time>2020-10-14T14:45:36Z</time>
      </trkpt>
      <trkpt lat="37.657010000" lon="-3.806523000">
        <ele>1045.4</ele>
        <time>2020-10-14T14:45:38Z</time>
      </trkpt>
      <trkpt lat="37.657078000" lon="-3.806685000">
        <ele>1044.1</ele>
        <time>2020-10-14T14:45:40Z</time>
      </trkpt>
      <trkpt lat="37.657109000" lon="-3.806860000">
        <ele>1043.0</ele>
        <time>2020-10-14T14:45:42Z</time>
      </trkpt>
      <trkpt lat="37.657115000" lon="-3.807046000">
        <ele>1042.2</ele>
        <time>2020-10-14T14:45:44Z</time>
      </trkpt>
      <trkpt lat="37.657110000" lon="-3.807236000">
        <ele>1041.4</ele>
        <time>2020-10-14T14:45:46Z</time>
      </trkpt>
      <trkpt lat="37.657120000" lon="-3.807423000">
        <ele>1040.5</ele>
        <time>2020-10-14T14:45:48Z</time>
      </trkpt>
      <trkpt lat="37.657156000" lon="-3.807604000">
        <ele>1039.9</ele>
        <time>2020-10-14T14:45:50Z</time>
      </trkpt>
      <trkpt lat="37.657216000" lon="-3.807790000">
        <ele>1039.5</ele>
        <time>2020-10-14T14:45:52Z</time>
      </trkpt>
      <trkpt lat="37.657281000" lon="-3.807969000">
        <ele>1039.0</ele>
        <time>2020-10-14T14:45:54Z</time>
      </trkpt>
      <trkpt lat="37.657348000" lon="-3.808154000">
        <ele>1038.4</ele>
        <time>2020-10-14T14:45:56Z</time>
      </trkpt>
      <trkpt lat="37.657385000" lon="-3.808249000">
        <ele>1037.6</ele>
        <time>2020-10-14T14:45:57Z</time>
      </trkpt>
      <trkpt lat="37.657418000" lon="-3.808347000">
        <ele>1036.7</ele>
        <time>2020-10-14T14:45:58Z</time>
      </trkpt>
      <trkpt lat="37.657453000" lon="-3.808445000">
        <ele>1035.8</ele>
        <time>2020-10-14T14:45:59Z</time>
      </trkpt>
      <trkpt lat="37.657483000" lon="-3.808542000">
        <ele>1035.1</ele>
        <time>2020-10-14T14:46:00Z</time>
      </trkpt>
      <trkpt lat="37.657547000" lon="-3.808730000">
        <ele>1034.3</ele>
        <time>2020-10-14T14:46:02Z</time>
      </trkpt>
      <trkpt lat="37.657608000" lon="-3.808913000">
        <ele>1033.5</ele>
        <time>2020-10-14T14:46:04Z</time>
      </trkpt>
      <trkpt lat="37.657691000" lon="-3.809077000">
        <ele>1032.6</ele>
        <time>2020-10-14T14:46:06Z</time>
      </trkpt>
      <trkpt lat="37.657800000" lon="-3.809221000">
        <ele>1031.7</ele>
        <time>2020-10-14T14:46:08Z</time>
      </trkpt>
      <trkpt lat="37.657863000" lon="-3.809289000">
        <ele>1030.6</ele>
        <time>2020-10-14T14:46:09Z</time>
      </trkpt>
      <trkpt lat="37.657928000" lon="-3.809361000">
        <ele>1029.5</ele>
        <time>2020-10-14T14:46:10Z</time>
      </trkpt>
      <trkpt lat="37.657995000" lon="-3.809434000">
        <ele>1028.5</ele>
        <time>2020-10-14T14:46:11Z</time>
      </trkpt>
      <trkpt lat="37.658062000" lon="-3.809507000">
        <ele>1027.5</ele>
        <time>2020-10-14T14:46:12Z</time>
      </trkpt>
      <trkpt lat="37.658130000" lon="-3.809578000">
        <ele>1026.7</ele>
        <time>2020-10-14T14:46:13Z</time>
      </trkpt>
      <trkpt lat="37.658200000" lon="-3.809650000">
        <ele>1026.0</ele>
        <time>2020-10-14T14:46:14Z</time>
      </trkpt>
      <trkpt lat="37.658266000" lon="-3.809724000">
        <ele>1025.3</ele>
        <time>2020-10-14T14:46:15Z</time>
      </trkpt>
      <trkpt lat="37.658335000" lon="-3.809796000">
        <ele>1024.6</ele>
        <time>2020-10-14T14:46:16Z</time>
      </trkpt>
      <trkpt lat="37.658402000" lon="-3.809865000">
        <ele>1024.0</ele>
        <time>2020-10-14T14:46:17Z</time>
      </trkpt>
      <trkpt lat="37.658471000" lon="-3.809937000">
        <ele>1023.5</ele>
        <time>2020-10-14T14:46:18Z</time>
      </trkpt>
      <trkpt lat="37.658538000" lon="-3.809995000">
        <ele>1022.9</ele>
        <time>2020-10-14T14:46:19Z</time>
      </trkpt>
      <trkpt lat="37.658608000" lon="-3.810054000">
        <ele>1022.6</ele>
        <time>2020-10-14T14:46:20Z</time>
      </trkpt>
      <trkpt lat="37.658675000" lon="-3.810115000">
        <ele>1022.5</ele>
        <time>2020-10-14T14:46:21Z</time>
      </trkpt>
      <trkpt lat="37.658744000" lon="-3.810175000">
        <ele>1022.5</ele>
        <time>2020-10-14T14:46:22Z</time>
      </trkpt>
      <trkpt lat="37.658814000" lon="-3.810236000">
        <ele>1022.3</ele>
        <time>2020-10-14T14:46:23Z</time>
      </trkpt>
      <trkpt lat="37.658888000" lon="-3.810293000">
        <ele>1022.1</ele>
        <time>2020-10-14T14:46:24Z</time>
      </trkpt>
      <trkpt lat="37.658959000" lon="-3.810351000">
        <ele>1021.9</ele>
        <time>2020-10-14T14:46:25Z</time>
      </trkpt>
      <trkpt lat="37.659031000" lon="-3.810409000">
        <ele>1021.6</ele>
        <time>2020-10-14T14:46:26Z</time>
      </trkpt>
      <trkpt lat="37.659100000" lon="-3.810467000">
        <ele>1021.4</ele>
        <time>2020-10-14T14:46:27Z</time>
      </trkpt>
      <trkpt lat="37.659231000" lon="-3.810573000">
        <ele>1021.1</ele>
        <time>2020-10-14T14:46:29Z</time>
      </trkpt>
      <trkpt lat="37.659374000" lon="-3.810673000">
        <ele>1020.6</ele>
        <time>2020-10-14T14:46:31Z</time>
      </trkpt>
      <trkpt lat="37.659450000" lon="-3.810719000">
        <ele>1020.1</ele>
        <time>2020-10-14T14:46:32Z</time>
      </trkpt>
      <trkpt lat="37.659528000" lon="-3.810764000">
        <ele>1019.4</ele>
        <time>2020-10-14T14:46:33Z</time>
      </trkpt>
      <trkpt lat="37.659602000" lon="-3.810813000">
        <ele>1018.5</ele>
        <time>2020-10-14T14:46:34Z</time>
      </trkpt>
      <trkpt lat="37.659674000" lon="-3.810859000">
        <ele>1017.3</ele>
        <time>2020-10-14T14:46:35Z</time>
      </trkpt>
      <trkpt lat="37.659801000" lon="-3.810935000">
        <ele>1016.0</ele>
        <time>2020-10-14T14:46:37Z</time>
      </trkpt>
      <trkpt lat="37.659916000" lon="-3.811011000">
        <ele>1014.6</ele>
        <time>2020-10-14T14:46:39Z</time>
      </trkpt>
      <trkpt lat="37.660023000" lon="-3.811077000">
        <ele>1013.3</ele>
        <time>2020-10-14T14:46:41Z</time>
      </trkpt>
      <trkpt lat="37.660117000" lon="-3.811119000">
        <ele>1012.0</ele>
        <time>2020-10-14T14:46:43Z</time>
      </trkpt>
      <trkpt lat="37.660211000" lon="-3.811097000">
        <ele>1010.9</ele>
        <time>2020-10-14T14:46:45Z</time>
      </trkpt>
      <trkpt lat="37.660265000" lon="-3.811016000">
        <ele>1010.1</ele>
        <time>2020-10-14T14:46:47Z</time>
      </trkpt>
      <trkpt lat="37.660210000" lon="-3.810877000">
        <ele>1009.5</ele>
        <time>2020-10-14T14:46:50Z</time>
      </trkpt>
      <trkpt lat="37.660111000" lon="-3.810814000">
        <ele>1009.2</ele>
        <time>2020-10-14T14:46:52Z</time>
      </trkpt>
      <trkpt lat="37.659996000" lon="-3.810746000">
        <ele>1008.8</ele>
        <time>2020-10-14T14:46:54Z</time>
      </trkpt>
      <trkpt lat="37.659877000" lon="-3.810663000">
        <ele>1008.5</ele>
        <time>2020-10-14T14:46:56Z</time>
      </trkpt>
      <trkpt lat="37.659751000" lon="-3.810579000">
        <ele>1008.3</ele>
        <time>2020-10-14T14:46:58Z</time>
      </trkpt>
      <trkpt lat="37.659621000" lon="-3.810486000">
        <ele>1008.2</ele>
        <time>2020-10-14T14:47:00Z</time>
      </trkpt>
      <trkpt lat="37.659509000" lon="-3.810370000">
        <ele>1008.2</ele>
        <time>2020-10-14T14:47:02Z</time>
      </trkpt>
      <trkpt lat="37.659415000" lon="-3.810234000">
        <ele>1008.0</ele>
        <time>2020-10-14T14:47:04Z</time>
      </trkpt>
      <trkpt lat="37.659327000" lon="-3.810085000">
        <ele>1007.6</ele>
        <time>2020-10-14T14:47:06Z</time>
      </trkpt>
      <trkpt lat="37.659244000" lon="-3.809923000">
        <ele>1006.8</ele>
        <time>2020-10-14T14:47:08Z</time>
      </trkpt>
      <trkpt lat="37.659163000" lon="-3.809761000">
        <ele>1005.5</ele>
        <time>2020-10-14T14:47:10Z</time>
      </trkpt>
      <trkpt lat="37.659083000" lon="-3.809599000">
        <ele>1003.8</ele>
        <time>2020-10-14T14:47:12Z</time>
      </trkpt>
      <trkpt lat="37.659013000" lon="-3.809440000">
        <ele>1002.1</ele>
        <time>2020-10-14T14:47:14Z</time>
      </trkpt>
      <trkpt lat="37.658957000" lon="-3.809270000">
        <ele>1000.4</ele>
        <time>2020-10-14T14:47:16Z</time>
      </trkpt>
      <trkpt lat="37.658937000" lon="-3.809079000">
        <ele>998.7</ele>
        <time>2020-10-14T14:47:18Z</time>
      </trkpt>
      <trkpt lat="37.658934000" lon="-3.808879000">
        <ele>997.2</ele>
        <time>2020-10-14T14:47:20Z</time>
      </trkpt>
      <trkpt lat="37.658939000" lon="-3.808674000">
        <ele>995.7</ele>
        <time>2020-10-14T14:47:22Z</time>
      </trkpt>
      <trkpt lat="37.658945000" lon="-3.808572000">
        <ele>994.2</ele>
        <time>2020-10-14T14:47:23Z</time>
      </trkpt>
      <trkpt lat="37.658949000" lon="-3.808469000">
        <ele>992.6</ele>
        <time>2020-10-14T14:47:24Z</time>
      </trkpt>
      <trkpt lat="37.658952000" lon="-3.808363000">
        <ele>991.1</ele>
        <time>2020-10-14T14:47:25Z</time>
      </trkpt>
      <trkpt lat="37.658955000" lon="-3.808162000">
        <ele>989.7</ele>
        <time>2020-10-14T14:47:27Z</time>
      </trkpt>
      <trkpt lat="37.658959000" lon="-3.807965000">
        <ele>988.6</ele>
        <time>2020-10-14T14:47:29Z</time>
      </trkpt>
      <trkpt lat="37.658967000" lon="-3.807777000">
        <ele>987.7</ele>
        <time>2020-10-14T14:47:31Z</time>
      </trkpt>
      <trkpt lat="37.658969000" lon="-3.807593000">
        <ele>986.9</ele>
        <time>2020-10-14T14:47:33Z</time>
      </trkpt>
      <trkpt lat="37.658947000" lon="-3.807407000">
        <ele>986.2</ele>
        <time>2020-10-14T14:47:35Z</time>
      </trkpt>
      <trkpt lat="37.658907000" lon="-3.807216000">
        <ele>985.6</ele>
        <time>2020-10-14T14:47:37Z</time>
      </trkpt>
      <trkpt lat="37.658874000" lon="-3.807122000">
        <ele>985.2</ele>
        <time>2020-10-14T14:47:38Z</time>
      </trkpt>
      <trkpt lat="37.658837000" lon="-3.807029000">
        <ele>984.6</ele>
        <time>2020-10-14T14:47:39Z</time>
      </trkpt>
      <trkpt lat="37.658798000" lon="-3.806937000">
        <ele>984.1</ele>
        <time>2020-10-14T14:47:40Z</time>
      </trkpt>
      <trkpt lat="37.658723000" lon="-3.806770000">
        <ele>983.6</ele>
        <time>2020-10-14T14:47:42Z</time>
      </trkpt>
      <trkpt lat="37.658647000" lon="-3.806614000">
        <ele>983.4</ele>
        <time>2020-10-14T14:47:44Z</time>
      </trkpt>
      <trkpt lat="37.658569000" lon="-3.806453000">
        <ele>983.1</ele>
        <time>2020-10-14T14:47:46Z</time>
      </trkpt>
      <trkpt lat="37.658495000" lon="-3.806281000">
        <ele>982.8</ele>
        <time>2020-10-14T14:47:48Z</time>
      </trkpt>
      <trkpt lat="37.658432000" lon="-3.806105000">
        <ele>982.5</ele>
        <time>2020-10-14T14:47:50Z</time>
      </trkpt>
      <trkpt lat="37.658377000" lon="-3.805922000">
        <ele>982.0</ele>
        <time>2020-10-14T14:47:52Z</time>
      </trkpt>
      <trkpt lat="37.658331000" lon="-3.805743000">
        <ele>981.2</ele>
        <time>2020-10-14T14:47:54Z</time>
      </trkpt>
      <trkpt lat="37.658293000" lon="-3.805569000">
        <ele>980.1</ele>
        <time>2020-10-14T14:47:56Z</time>
      </trkpt>
      <trkpt lat="37.658286000" lon="-3.805393000">
        <ele>978.7</ele>
        <time>2020-10-14T14:47:58Z</time>
      </trkpt>
      <trkpt lat="37.658313000" lon="-3.805213000">
        <ele>977.4</ele>
        <time>2020-10-14T14:48:00Z</time>
      </trkpt>
      <trkpt lat="37.658372000" lon="-3.805032000">
        <ele>975.9</ele>
        <time>2020-10-14T14:48:02Z</time>
      </trkpt>
      <trkpt lat="37.658442000" lon="-3.804855000">
        <ele>974.5</ele>
        <time>2020-10-14T14:48:04Z</time>
      </trkpt>
      <trkpt lat="37.658478000" lon="-3.804761000">
        <ele>972.9</ele>
        <time>2020-10-14T14:48:05Z</time>
      </trkpt>
      <trkpt lat="37.658510000" lon="-3.804660000">
        <ele>971.4</ele>
        <time>2020-10-14T14:48:06Z</time>
      </trkpt>
      <trkpt lat="37.658535000" lon="-3.804556000">
        <ele>969.9</ele>
        <time>2020-10-14T14:48:07Z</time>
      </trkpt>
      <trkpt lat="37.658558000" lon="-3.804455000">
        <ele>968.6</ele>
        <time>2020-10-14T14:48:08Z</time>
      </trkpt>
      <trkpt lat="37.658577000" lon="-3.804354000">
        <ele>967.7</ele>
        <time>2020-10-14T14:48:09Z</time>
      </trkpt>
      <trkpt lat="37.658594000" lon="-3.804251000">
        <ele>967.1</ele>
        <time>2020-10-14T14:48:10Z</time>
      </trkpt>
      <trkpt lat="37.658611000" lon="-3.804145000">
        <ele>966.6</ele>
        <time>2020-10-14T14:48:11Z</time>
      </trkpt>
      <trkpt lat="37.658625000" lon="-3.804036000">
        <ele>966.4</ele>
        <time>2020-10-14T14:48:12Z</time>
      </trkpt>
      <trkpt lat="37.658639000" lon="-3.803934000">
        <ele>966.1</ele>
        <time>2020-10-14T14:48:13Z</time>
      </trkpt>
      <trkpt lat="37.658651000" lon="-3.803833000">
        <ele>965.9</ele>
        <time>2020-10-14T14:48:14Z</time>
      </trkpt>
      <trkpt lat="37.658660000" lon="-3.803730000">
        <ele>965.7</ele>
        <time>2020-10-14T14:48:15Z</time>
      </trkpt>
      <trkpt lat="37.658672000" lon="-3.803627000">
        <ele>965.5</ele>
        <time>2020-10-14T14:48:16Z</time>
      </trkpt>
      <trkpt lat="37.658689000" lon="-3.803527000">
        <ele>965.1</ele>
        <time>2020-10-14T14:48:17Z</time>
      </trkpt>
      <trkpt lat="37.658720000" lon="-3.803333000">
        <ele>964.6</ele>
        <time>2020-10-14T14:48:19Z</time>
      </trkpt>
      <trkpt lat="37.658764000" lon="-3.803150000">
        <ele>963.9</ele>
        <time>2020-10-14T14:48:21Z</time>
      </trkpt>
      <trkpt lat="37.658814000" lon="-3.802984000">
        <ele>963.0</ele>
        <time>2020-10-14T14:48:23Z</time>
      </trkpt>
      <trkpt lat="37.658842000" lon="-3.802824000">
        <ele>962.0</ele>
        <time>2020-10-14T14:48:25Z</time>
      </trkpt>
      <trkpt lat="37.658833000" lon="-3.802655000">
        <ele>960.8</ele>
        <time>2020-10-14T14:48:27Z</time>
      </trkpt>
      <trkpt lat="37.658788000" lon="-3.802492000">
        <ele>959.5</ele>
        <time>2020-10-14T14:48:29Z</time>
      </trkpt>
      <trkpt lat="37.658701000" lon="-3.802351000">
        <ele>958.3</ele>
        <time>2020-10-14T14:48:31Z</time>
      </trkpt>
      <trkpt lat="37.658605000" lon="-3.802211000">
        <ele>957.0</ele>
        <time>2020-10-14T14:48:33Z</time>
      </trkpt>
      <trkpt lat="37.658510000" lon="-3.802074000">
        <ele>955.7</ele>
        <time>2020-10-14T14:48:35Z</time>
      </trkpt>
      <trkpt lat="37.658427000" lon="-3.801933000">
        <ele>954.6</ele>
        <time>2020-10-14T14:48:37Z</time>
      </trkpt>
      <trkpt lat="37.658356000" lon="-3.801782000">
        <ele>953.7</ele>
        <time>2020-10-14T14:48:39Z</time>
      </trkpt>
      <trkpt lat="37.658307000" lon="-3.801623000">
        <ele>952.9</ele>
        <time>2020-10-14T14:48:41Z</time>
      </trkpt>
      <trkpt lat="37.658286000" lon="-3.801464000">
        <ele>952.4</ele>
        <time>2020-10-14T14:48:43Z</time>
      </trkpt>
      <trkpt lat="37.658286000" lon="-3.801305000">
        <ele>951.8</ele>
        <time>2020-10-14T14:48:45Z</time>
      </trkpt>
      <trkpt lat="37.658284000" lon="-3.801154000">
        <ele>951.3</ele>
        <time>2020-10-14T14:48:47Z</time>
      </trkpt>
      <trkpt lat="37.658253000" lon="-3.801017000">
        <ele>950.8</ele>
        <time>2020-10-14T14:48:49Z</time>
      </trkpt>
      <trkpt lat="37.658188000" lon="-3.800903000">
        <ele>950.4</ele>
        <time>2020-10-14T14:48:51Z</time>
      </trkpt>
      <trkpt lat="37.658076000" lon="-3.800836000">
        <ele>949.9</ele>
        <time>2020-10-14T14:48:53Z</time>
      </trkpt>
      <trkpt lat="37.657941000" lon="-3.800820000">
        <ele>949.5</ele>
        <time>2020-10-14T14:48:55Z</time>
      </trkpt>
      <trkpt lat="37.657796000" lon="-3.800802000">
        <ele>949.2</ele>
        <time>2020-10-14T14:48:57Z</time>
      </trkpt>
      <trkpt lat="37.657654000" lon="-3.800728000">
        <ele>948.6</ele>
        <time>2020-10-14T14:48:59Z</time>
      </trkpt>
      <trkpt lat="37.657539000" lon="-3.800596000">
        <ele>947.8</ele>
        <time>2020-10-14T14:49:01Z</time>
      </trkpt>
      <trkpt lat="37.657445000" lon="-3.800447000">
        <ele>946.7</ele>
        <time>2020-10-14T14:49:03Z</time>
      </trkpt>
      <trkpt lat="37.657362000" lon="-3.800306000">
        <ele>945.5</ele>
        <time>2020-10-14T14:49:05Z</time>
      </trkpt>
      <trkpt lat="37.657297000" lon="-3.800148000">
        <ele>944.2</ele>
        <time>2020-10-14T14:49:07Z</time>
      </trkpt>
      <trkpt lat="37.657256000" lon="-3.799962000">
        <ele>942.9</ele>
        <time>2020-10-14T14:49:09Z</time>
      </trkpt>
      <trkpt lat="37.657243000" lon="-3.799783000">
        <ele>941.8</ele>
        <time>2020-10-14T14:49:11Z</time>
      </trkpt>
      <trkpt lat="37.657232000" lon="-3.799615000">
        <ele>940.9</ele>
        <time>2020-10-14T14:49:13Z</time>
      </trkpt>
      <trkpt lat="37.657199000" lon="-3.799459000">
        <ele>940.0</ele>
        <time>2020-10-14T14:49:15Z</time>
      </trkpt>
      <trkpt lat="37.657126000" lon="-3.799320000">
        <ele>939.1</ele>
        <time>2020-10-14T14:49:17Z</time>
      </trkpt>
      <trkpt lat="37.657018000" lon="-3.799224000">
        <ele>938.2</ele>
        <time>2020-10-14T14:49:19Z</time>
      </trkpt>
      <trkpt lat="37.656893000" lon="-3.799153000">
        <ele>937.4</ele>
        <time>2020-10-14T14:49:21Z</time>
      </trkpt>
      <trkpt lat="37.656782000" lon="-3.799063000">
        <ele>936.6</ele>
        <time>2020-10-14T14:49:23Z</time>
      </trkpt>
      <trkpt lat="37.656697000" lon="-3.798943000">
        <ele>936.0</ele>
        <time>2020-10-14T14:49:25Z</time>
      </trkpt>
      <trkpt lat="37.656637000" lon="-3.798796000">
        <ele>935.4</ele>
        <time>2020-10-14T14:49:27Z</time>
      </trkpt>
      <trkpt lat="37.656629000" lon="-3.798628000">
        <ele>934.6</ele>
        <time>2020-10-14T14:49:29Z</time>
      </trkpt>
      <trkpt lat="37.656642000" lon="-3.798465000">
        <ele>933.8</ele>
        <time>2020-10-14T14:49:31Z</time>
      </trkpt>
      <trkpt lat="37.656646000" lon="-3.798291000">
        <ele>932.8</ele>
        <time>2020-10-14T14:49:33Z</time>
      </trkpt>
      <trkpt lat="37.656629000" lon="-3.798112000">
        <ele>931.8</ele>
        <time>2020-10-14T14:49:35Z</time>
      </trkpt>
      <trkpt lat="37.656585000" lon="-3.797933000">
        <ele>930.8</ele>
        <time>2020-10-14T14:49:37Z</time>
      </trkpt>
      <trkpt lat="37.656534000" lon="-3.797759000">
        <ele>929.9</ele>
        <time>2020-10-14T14:49:39Z</time>
      </trkpt>
      <trkpt lat="37.656468000" lon="-3.797609000">
        <ele>929.0</ele>
        <time>2020-10-14T14:49:41Z</time>
      </trkpt>
      <trkpt lat="37.656379000" lon="-3.797458000">
        <ele>928.2</ele>
        <time>2020-10-14T14:49:43Z</time>
      </trkpt>
      <trkpt lat="37.656258000" lon="-3.797330000">
        <ele>927.5</ele>
        <time>2020-10-14T14:49:45Z</time>
      </trkpt>
      <trkpt lat="37.656126000" lon="-3.797205000">
        <ele>927.0</ele>
        <time>2020-10-14T14:49:47Z</time>
      </trkpt>
      <trkpt lat="37.656060000" lon="-3.797145000">
        <ele>926.5</ele>
        <time>2020-10-14T14:49:48Z</time>
      </trkpt>
      <trkpt lat="37.655933000" lon="-3.797037000">
        <ele>926.0</ele>
        <time>2020-10-14T14:49:50Z</time>
      </trkpt>
      <trkpt lat="37.655809000" lon="-3.796929000">
        <ele>925.6</ele>
        <time>2020-10-14T14:49:52Z</time>
      </trkpt>
      <trkpt lat="37.655701000" lon="-3.796786000">
        <ele>925.3</ele>
        <time>2020-10-14T14:49:54Z</time>
      </trkpt>
      <trkpt lat="37.655616000" lon="-3.796626000">
        <ele>924.8</ele>
        <time>2020-10-14T14:49:56Z</time>
      </trkpt>
      <trkpt lat="37.655534000" lon="-3.796464000">
        <ele>924.4</ele>
        <time>2020-10-14T14:49:58Z</time>
      </trkpt>
      <trkpt lat="37.655445000" lon="-3.796307000">
        <ele>923.7</ele>
        <time>2020-10-14T14:50:00Z</time>
      </trkpt>
      <trkpt lat="37.655335000" lon="-3.796159000">
        <ele>923.1</ele>
        <time>2020-10-14T14:50:02Z</time>
      </trkpt>
      <trkpt lat="37.655228000" lon="-3.796030000">
        <ele>922.4</ele>
        <time>2020-10-14T14:50:04Z</time>
      </trkpt>
      <trkpt lat="37.655113000" lon="-3.795909000">
        <ele>921.6</ele>
        <time>2020-10-14T14:50:06Z</time>
      </trkpt>
      <trkpt lat="37.654993000" lon="-3.795793000">
        <ele>920.9</ele>
        <time>2020-10-14T14:50:08Z</time>
      </trkpt>
      <trkpt lat="37.654886000" lon="-3.795680000">
        <ele>920.4</ele>
        <time>2020-10-14T14:50:10Z</time>
      </trkpt>
      <trkpt lat="37.654792000" lon="-3.795575000">
        <ele>920.0</ele>
        <time>2020-10-14T14:50:12Z</time>
      </trkpt>
      <trkpt lat="37.654704000" lon="-3.795464000">
        <ele>919.7</ele>
        <time>2020-10-14T14:50:14Z</time>
      </trkpt>
      <trkpt lat="37.654633000" lon="-3.795324000">
        <ele>919.6</ele>
        <time>2020-10-14T14:50:16Z</time>
      </trkpt>
      <trkpt lat="37.654597000" lon="-3.795166000">
        <ele>919.5</ele>
        <time>2020-10-14T14:50:18Z</time>
      </trkpt>
      <trkpt lat="37.654591000" lon="-3.795014000">
        <ele>919.5</ele>
        <time>2020-10-14T14:50:20Z</time>
      </trkpt>
      <trkpt lat="37.654609000" lon="-3.794858000">
        <ele>919.2</ele>
        <time>2020-10-14T14:50:22Z</time>
      </trkpt>
      <trkpt lat="37.654643000" lon="-3.794718000">
        <ele>918.8</ele>
        <time>2020-10-14T14:50:24Z</time>
      </trkpt>
      <trkpt lat="37.654701000" lon="-3.794563000">
        <ele>918.4</ele>
        <time>2020-10-14T14:50:26Z</time>
      </trkpt>
      <trkpt lat="37.654793000" lon="-3.794429000">
        <ele>917.7</ele>
        <time>2020-10-14T14:50:28Z</time>
      </trkpt>
      <trkpt lat="37.654910000" lon="-3.794335000">
        <ele>917.0</ele>
        <time>2020-10-14T14:50:30Z</time>
      </trkpt>
      <trkpt lat="37.655059000" lon="-3.794261000">
        <ele>916.1</ele>
        <time>2020-10-14T14:50:32Z</time>
      </trkpt>
      <trkpt lat="37.655138000" lon="-3.794218000">
        <ele>915.0</ele>
        <time>2020-10-14T14:50:33Z</time>
      </trkpt>
      <trkpt lat="37.655218000" lon="-3.794178000">
        <ele>914.0</ele>
        <time>2020-10-14T14:50:34Z</time>
      </trkpt>
      <trkpt lat="37.655295000" lon="-3.794140000">
        <ele>912.9</ele>
        <time>2020-10-14T14:50:35Z</time>
      </trkpt>
      <trkpt lat="37.655374000" lon="-3.794098000">
        <ele>911.8</ele>
        <time>2020-10-14T14:50:36Z</time>
      </trkpt>
      <trkpt lat="37.655460000" lon="-3.794061000">
        <ele>910.8</ele>
        <time>2020-10-14T14:50:37Z</time>
      </trkpt>
      <trkpt lat="37.655549000" lon="-3.794024000">
        <ele>910.1</ele>
        <time>2020-10-14T14:50:38Z</time>
      </trkpt>
      <trkpt lat="37.655640000" lon="-3.793985000">
        <ele>909.5</ele>
        <time>2020-10-14T14:50:39Z</time>
      </trkpt>
      <trkpt lat="37.655730000" lon="-3.793948000">
        <ele>909.0</ele>
        <time>2020-10-14T14:50:40Z</time>
      </trkpt>
      <trkpt lat="37.655814000" lon="-3.793912000">
        <ele>908.6</ele>
        <time>2020-10-14T14:50:41Z</time>
      </trkpt>
      <trkpt lat="37.655896000" lon="-3.793877000">
        <ele>908.2</ele>
        <time>2020-10-14T14:50:42Z</time>
      </trkpt>
      <trkpt lat="37.655981000" lon="-3.793849000">
        <ele>907.8</ele>
        <time>2020-10-14T14:50:43Z</time>
      </trkpt>
      <trkpt lat="37.656137000" lon="-3.793810000">
        <ele>907.5</ele>
        <time>2020-10-14T14:50:45Z</time>
      </trkpt>
      <trkpt lat="37.656223000" lon="-3.793802000">
        <ele>906.9</ele>
        <time>2020-10-14T14:50:46Z</time>
      </trkpt>
      <trkpt lat="37.656305000" lon="-3.793806000">
        <ele>906.3</ele>
        <time>2020-10-14T14:50:47Z</time>
      </trkpt>
      <trkpt lat="37.656392000" lon="-3.793819000">
        <ele>905.5</ele>
        <time>2020-10-14T14:50:48Z</time>
      </trkpt>
      <trkpt lat="37.656474000" lon="-3.793840000">
        <ele>904.6</ele>
        <time>2020-10-14T14:50:49Z</time>
      </trkpt>
      <trkpt lat="37.656555000" lon="-3.793868000">
        <ele>903.6</ele>
        <time>2020-10-14T14:50:50Z</time>
      </trkpt>
      <trkpt lat="37.656633000" lon="-3.793923000">
        <ele>902.6</ele>
        <time>2020-10-14T14:50:51Z</time>
      </trkpt>
      <trkpt lat="37.656704000" lon="-3.793988000">
        <ele>901.5</ele>
        <time>2020-10-14T14:50:52Z</time>
      </trkpt>
      <trkpt lat="37.656779000" lon="-3.794046000">
        <ele>900.4</ele>
        <time>2020-10-14T14:50:53Z</time>
      </trkpt>
      <trkpt lat="37.656852000" lon="-3.794106000">
        <ele>899.1</ele>
        <time>2020-10-14T14:50:54Z</time>
      </trkpt>
      <trkpt lat="37.656923000" lon="-3.794163000">
        <ele>897.6</ele>
        <time>2020-10-14T14:50:55Z</time>
      </trkpt>
      <trkpt lat="37.657044000" lon="-3.794272000">
        <ele>896.1</ele>
        <time>2020-10-14T14:50:57Z</time>
      </trkpt>
      <trkpt lat="37.657143000" lon="-3.794390000">
        <ele>894.5</ele>
        <time>2020-10-14T14:50:59Z</time>
      </trkpt>
      <trkpt lat="37.657233000" lon="-3.794533000">
        <ele>893.1</ele>
        <time>2020-10-14T14:51:01Z</time>
      </trkpt>
      <trkpt lat="37.657319000" lon="-3.794674000">
        <ele>891.6</ele>
        <time>2020-10-14T14:51:03Z</time>
      </trkpt>
      <trkpt lat="37.657417000" lon="-3.794792000">
        <ele>890.3</ele>
        <time>2020-10-14T14:51:05Z</time>
      </trkpt>
      <trkpt lat="37.657534000" lon="-3.794879000">
        <ele>888.9</ele>
        <time>2020-10-14T14:51:07Z</time>
      </trkpt>
      <trkpt lat="37.657672000" lon="-3.794942000">
        <ele>887.5</ele>
        <time>2020-10-14T14:51:09Z</time>
      </trkpt>
      <trkpt lat="37.657813000" lon="-3.794977000">
        <ele>886.2</ele>
        <time>2020-10-14T14:51:11Z</time>
      </trkpt>
      <trkpt lat="37.657966000" lon="-3.794988000">
        <ele>885.0</ele>
        <time>2020-10-14T14:51:13Z</time>
      </trkpt>
      <trkpt lat="37.658120000" lon="-3.795008000">
        <ele>884.0</ele>
        <time>2020-10-14T14:51:15Z</time>
      </trkpt>
      <trkpt lat="37.658274000" lon="-3.795015000">
        <ele>883.0</ele>
        <time>2020-10-14T14:51:17Z</time>
      </trkpt>
      <trkpt lat="37.658417000" lon="-3.794976000">
        <ele>882.0</ele>
        <time>2020-10-14T14:51:19Z</time>
      </trkpt>
      <trkpt lat="37.658544000" lon="-3.794887000">
        <ele>881.0</ele>
        <time>2020-10-14T14:51:21Z</time>
      </trkpt>
      <trkpt lat="37.658667000" lon="-3.794787000">
        <ele>879.7</ele>
        <time>2020-10-14T14:51:23Z</time>
      </trkpt>
      <trkpt lat="37.658794000" lon="-3.794710000">
        <ele>878.3</ele>
        <time>2020-10-14T14:51:25Z</time>
      </trkpt>
      <trkpt lat="37.658945000" lon="-3.794703000">
        <ele>876.7</ele>
        <time>2020-10-14T14:51:27Z</time>
      </trkpt>
      <trkpt lat="37.659087000" lon="-3.794783000">
        <ele>875.2</ele>
        <time>2020-10-14T14:51:29Z</time>
      </trkpt>
      <trkpt lat="37.659200000" lon="-3.794918000">
        <ele>873.8</ele>
        <time>2020-10-14T14:51:31Z</time>
      </trkpt>
      <trkpt lat="37.659302000" lon="-3.795046000">
        <ele>872.6</ele>
        <time>2020-10-14T14:51:33Z</time>
      </trkpt>
      <trkpt lat="37.659402000" lon="-3.795157000">
        <ele>871.5</ele>
        <time>2020-10-14T14:51:35Z</time>
      </trkpt>
      <trkpt lat="37.659519000" lon="-3.795235000">
        <ele>870.3</ele>
        <time>2020-10-14T14:51:37Z</time>
      </trkpt>
      <trkpt lat="37.659651000" lon="-3.795264000">
        <ele>869.1</ele>
        <time>2020-10-14T14:51:39Z</time>
      </trkpt>
      <trkpt lat="37.659794000" lon="-3.795243000">
        <ele>867.9</ele>
        <time>2020-10-14T14:51:41Z</time>
      </trkpt>
      <trkpt lat="37.659941000" lon="-3.795219000">
        <ele>866.6</ele>
        <time>2020-10-14T14:51:43Z</time>
      </trkpt>
      <trkpt lat="37.660082000" lon="-3.795239000">
        <ele>865.5</ele>
        <time>2020-10-14T14:51:45Z</time>
      </trkpt>
      <trkpt lat="37.660215000" lon="-3.795290000">
        <ele>864.3</ele>
        <time>2020-10-14T14:51:47Z</time>
      </trkpt>
      <trkpt lat="37.660343000" lon="-3.795359000">
        <ele>863.1</ele>
        <time>2020-10-14T14:51:49Z</time>
      </trkpt>
      <trkpt lat="37.660465000" lon="-3.795428000">
        <ele>861.7</ele>
        <time>2020-10-14T14:51:51Z</time>
      </trkpt>
      <trkpt lat="37.660569000" lon="-3.795519000">
        <ele>859.9</ele>
        <time>2020-10-14T14:51:53Z</time>
      </trkpt>
      <trkpt lat="37.660645000" lon="-3.795638000">
        <ele>857.8</ele>
        <time>2020-10-14T14:51:55Z</time>
      </trkpt>
      <trkpt lat="37.660698000" lon="-3.795776000">
        <ele>855.7</ele>
        <time>2020-10-14T14:51:57Z</time>
      </trkpt>
      <trkpt lat="37.660749000" lon="-3.795900000">
        <ele>853.8</ele>
        <time>2020-10-14T14:51:59Z</time>
      </trkpt>
      <trkpt lat="37.660830000" lon="-3.795993000">
        <ele>852.2</ele>
        <time>2020-10-14T14:52:01Z</time>
      </trkpt>
      <trkpt lat="37.660932000" lon="-3.796025000">
        <ele>850.9</ele>
        <time>2020-10-14T14:52:03Z</time>
      </trkpt>
      <trkpt lat="37.661036000" lon="-3.795968000">
        <ele>850.0</ele>
        <time>2020-10-14T14:52:05Z</time>
      </trkpt>
      <trkpt lat="37.661125000" lon="-3.795873000">
        <ele>849.4</ele>
        <time>2020-10-14T14:52:07Z</time>
      </trkpt>
      <trkpt lat="37.661215000" lon="-3.795759000">
        <ele>849.1</ele>
        <time>2020-10-14T14:52:09Z</time>
      </trkpt>
      <trkpt lat="37.661314000" lon="-3.795642000">
        <ele>849.1</ele>
        <time>2020-10-14T14:52:11Z</time>
      </trkpt>
      <trkpt lat="37.661417000" lon="-3.795524000">
        <ele>849.4</ele>
        <time>2020-10-14T14:52:13Z</time>
      </trkpt>
      <trkpt lat="37.661533000" lon="-3.795404000">
        <ele>849.9</ele>
        <time>2020-10-14T14:52:15Z</time>
      </trkpt>
      <trkpt lat="37.661646000" lon="-3.795304000">
        <ele>850.4</ele>
        <time>2020-10-14T14:52:17Z</time>
      </trkpt>
      <trkpt lat="37.661767000" lon="-3.795250000">
        <ele>850.5</ele>
        <time>2020-10-14T14:52:19Z</time>
      </trkpt>
      <trkpt lat="37.661891000" lon="-3.795281000">
        <ele>850.4</ele>
        <time>2020-10-14T14:52:21Z</time>
      </trkpt>
      <trkpt lat="37.661975000" lon="-3.795378000">
        <ele>849.9</ele>
        <time>2020-10-14T14:52:23Z</time>
      </trkpt>
      <trkpt lat="37.662018000" lon="-3.795522000">
        <ele>849.3</ele>
        <time>2020-10-14T14:52:25Z</time>
      </trkpt>
      <trkpt lat="37.662066000" lon="-3.795693000">
        <ele>848.5</ele>
        <time>2020-10-14T14:52:27Z</time>
      </trkpt>
      <trkpt lat="37.662110000" lon="-3.795872000">
        <ele>847.5</ele>
        <time>2020-10-14T14:52:29Z</time>
      </trkpt>
      <trkpt lat="37.662164000" lon="-3.796039000">
        <ele>846.4</ele>
        <time>2020-10-14T14:52:31Z</time>
      </trkpt>
      <trkpt lat="37.662239000" lon="-3.796204000">
        <ele>845.1</ele>
        <time>2020-10-14T14:52:33Z</time>
      </trkpt>
      <trkpt lat="37.662341000" lon="-3.796333000">
        <ele>843.5</ele>
        <time>2020-10-14T14:52:35Z</time>
      </trkpt>
      <trkpt lat="37.662470000" lon="-3.796450000">
        <ele>841.9</ele>
        <time>2020-10-14T14:52:37Z</time>
      </trkpt>
      <trkpt lat="37.662608000" lon="-3.796550000">
        <ele>840.4</ele>
        <time>2020-10-14T14:52:39Z</time>
      </trkpt>
      <trkpt lat="37.662752000" lon="-3.796624000">
        <ele>839.1</ele>
        <time>2020-10-14T14:52:41Z</time>
      </trkpt>
      <trkpt lat="37.662830000" lon="-3.796655000">
        <ele>838.1</ele>
        <time>2020-10-14T14:52:42Z</time>
      </trkpt>
      <trkpt lat="37.662987000" lon="-3.796692000">
        <ele>837.3</ele>
        <time>2020-10-14T14:52:44Z</time>
      </trkpt>
      <trkpt lat="37.663143000" lon="-3.796726000">
        <ele>836.4</ele>
        <time>2020-10-14T14:52:46Z</time>
      </trkpt>
      <trkpt lat="37.663296000" lon="-3.796748000">
        <ele>835.2</ele>
        <time>2020-10-14T14:52:48Z</time>
      </trkpt>
      <trkpt lat="37.663458000" lon="-3.796754000">
        <ele>833.8</ele>
        <time>2020-10-14T14:52:50Z</time>
      </trkpt>
      <trkpt lat="37.663610000" lon="-3.796740000">
        <ele>832.4</ele>
        <time>2020-10-14T14:52:52Z</time>
      </trkpt>
      <trkpt lat="37.663753000" lon="-3.796732000">
        <ele>830.9</ele>
        <time>2020-10-14T14:52:54Z</time>
      </trkpt>
      <trkpt lat="37.663891000" lon="-3.796753000">
        <ele>829.6</ele>
        <time>2020-10-14T14:52:56Z</time>
      </trkpt>
      <trkpt lat="37.664019000" lon="-3.796830000">
        <ele>828.5</ele>
        <time>2020-10-14T14:52:58Z</time>
      </trkpt>
      <trkpt lat="37.664133000" lon="-3.796956000">
        <ele>827.6</ele>
        <time>2020-10-14T14:53:00Z</time>
      </trkpt>
      <trkpt lat="37.664190000" lon="-3.797034000">
        <ele>826.6</ele>
        <time>2020-10-14T14:53:01Z</time>
      </trkpt>
      <trkpt lat="37.664248000" lon="-3.797114000">
        <ele>825.5</ele>
        <time>2020-10-14T14:53:02Z</time>
      </trkpt>
      <trkpt lat="37.664308000" lon="-3.797193000">
        <ele>824.4</ele>
        <time>2020-10-14T14:53:03Z</time>
      </trkpt>
      <trkpt lat="37.664411000" lon="-3.797334000">
        <ele>823.2</ele>
        <time>2020-10-14T14:53:05Z</time>
      </trkpt>
      <trkpt lat="37.664504000" lon="-3.797459000">
        <ele>822.3</ele>
        <time>2020-10-14T14:53:07Z</time>
      </trkpt>
      <trkpt lat="37.664586000" lon="-3.797565000">
        <ele>821.6</ele>
        <time>2020-10-14T14:53:09Z</time>
      </trkpt>
      <trkpt lat="37.664684000" lon="-3.797660000">
        <ele>820.9</ele>
        <time>2020-10-14T14:53:11Z</time>
      </trkpt>
      <trkpt lat="37.664814000" lon="-3.797698000">
        <ele>820.0</ele>
        <time>2020-10-14T14:53:13Z</time>
      </trkpt>
      <trkpt lat="37.664958000" lon="-3.797678000">
        <ele>819.0</ele>
        <time>2020-10-14T14:53:15Z</time>
      </trkpt>
      <trkpt lat="37.665099000" lon="-3.797634000">
        <ele>817.9</ele>
        <time>2020-10-14T14:53:17Z</time>
      </trkpt>
      <trkpt lat="37.665233000" lon="-3.797615000">
        <ele>816.8</ele>
        <time>2020-10-14T14:53:19Z</time>
      </trkpt>
      <trkpt lat="37.665354000" lon="-3.797660000">
        <ele>815.7</ele>
        <time>2020-10-14T14:53:21Z</time>
      </trkpt>
      <trkpt lat="37.665447000" lon="-3.797776000">
        <ele>814.5</ele>
        <time>2020-10-14T14:53:23Z</time>
      </trkpt>
      <trkpt lat="37.665503000" lon="-3.797944000">
        <ele>813.3</ele>
        <time>2020-10-14T14:53:25Z</time>
      </trkpt>
      <trkpt lat="37.665545000" lon="-3.798137000">
        <ele>811.9</ele>
        <time>2020-10-14T14:53:27Z</time>
      </trkpt>
      <trkpt lat="37.665571000" lon="-3.798238000">
        <ele>810.4</ele>
        <time>2020-10-14T14:53:28Z</time>
      </trkpt>
      <trkpt lat="37.665618000" lon="-3.798426000">
        <ele>808.7</ele>
        <time>2020-10-14T14:53:30Z</time>
      </trkpt>
      <trkpt lat="37.665658000" lon="-3.798609000">
        <ele>807.0</ele>
        <time>2020-10-14T14:53:32Z</time>
      </trkpt>
      <trkpt lat="37.665700000" lon="-3.798782000">
        <ele>805.4</ele>
        <time>2020-10-14T14:53:34Z</time>
      </trkpt>
      <trkpt lat="37.665737000" lon="-3.798940000">
        <ele>804.0</ele>
        <time>2020-10-14T14:53:36Z</time>
      </trkpt>
      <trkpt lat="37.665770000" lon="-3.799087000">
        <ele>802.8</ele>
        <time>2020-10-14T14:53:38Z</time>
      </trkpt>
      <trkpt lat="37.665834000" lon="-3.799184000">
        <ele>801.8</ele>
        <time>2020-10-14T14:53:40Z</time>
      </trkpt>
      <trkpt lat="37.665938000" lon="-3.799225000">
        <ele>801.0</ele>
        <time>2020-10-14T14:53:42Z</time>
      </trkpt>
      <trkpt lat="37.666042000" lon="-3.799180000">
        <ele>800.3</ele>
        <time>2020-10-14T14:53:44Z</time>
      </trkpt>
      <trkpt lat="37.666111000" lon="-3.799046000">
        <ele>799.7</ele>
        <time>2020-10-14T14:53:46Z</time>
      </trkpt>
      <trkpt lat="37.666169000" lon="-3.798888000">
        <ele>799.2</ele>
        <time>2020-10-14T14:53:48Z</time>
      </trkpt>
      <trkpt lat="37.666232000" lon="-3.798724000">
        <ele>798.6</ele>
        <time>2020-10-14T14:53:50Z</time>
      </trkpt>
      <trkpt lat="37.666301000" lon="-3.798573000">
        <ele>798.0</ele>
        <time>2020-10-14T14:53:52Z</time>
      </trkpt>
      <trkpt lat="37.666385000" lon="-3.798470000">
        <ele>797.6</ele>
        <time>2020-10-14T14:53:54Z</time>
      </trkpt>
      <trkpt lat="37.666507000" lon="-3.798445000">
        <ele>797.5</ele>
        <time>2020-10-14T14:53:56Z</time>
      </trkpt>
      <trkpt lat="37.666611000" lon="-3.798516000">
        <ele>797.2</ele>
        <time>2020-10-14T14:53:58Z</time>
      </trkpt>
      <trkpt lat="37.666656000" lon="-3.798670000">
        <ele>796.8</ele>
        <time>2020-10-14T14:54:00Z</time>
      </trkpt>
      <trkpt lat="37.666661000" lon="-3.798861000">
        <ele>796.3</ele>
        <time>2020-10-14T14:54:02Z</time>
      </trkpt>
      <trkpt lat="37.666660000" lon="-3.798967000">
        <ele>795.5</ele>
        <time>2020-10-14T14:54:03Z</time>
      </trkpt>
      <trkpt lat="37.666663000" lon="-3.799073000">
        <ele>794.5</ele>
        <time>2020-10-14T14:54:04Z</time>
      </trkpt>
      <trkpt lat="37.666662000" lon="-3.799182000">
        <ele>793.5</ele>
        <time>2020-10-14T14:54:05Z</time>
      </trkpt>
      <trkpt lat="37.666661000" lon="-3.799288000">
        <ele>792.4</ele>
        <time>2020-10-14T14:54:06Z</time>
      </trkpt>
      <trkpt lat="37.666661000" lon="-3.799393000">
        <ele>791.4</ele>
        <time>2020-10-14T14:54:07Z</time>
      </trkpt>
      <trkpt lat="37.666658000" lon="-3.799582000">
        <ele>790.4</ele>
        <time>2020-10-14T14:54:09Z</time>
      </trkpt>
      <trkpt lat="37.666656000" lon="-3.799769000">
        <ele>789.2</ele>
        <time>2020-10-14T14:54:11Z</time>
      </trkpt>
      <trkpt lat="37.666657000" lon="-3.799961000">
        <ele>787.7</ele>
        <time>2020-10-14T14:54:13Z</time>
      </trkpt>
      <trkpt lat="37.666671000" lon="-3.800154000">
        <ele>786.1</ele>
        <time>2020-10-14T14:54:15Z</time>
      </trkpt>
      <trkpt lat="37.666711000" lon="-3.800342000">
        <ele>784.3</ele>
        <time>2020-10-14T14:54:17Z</time>
      </trkpt>
      <trkpt lat="37.666768000" lon="-3.800527000">
        <ele>782.4</ele>
        <time>2020-10-14T14:54:19Z</time>
      </trkpt>
      <trkpt lat="37.666847000" lon="-3.800692000">
        <ele>780.5</ele>
        <time>2020-10-14T14:54:21Z</time>
      </trkpt>
      <trkpt lat="37.666933000" lon="-3.800855000">
        <ele>778.9</ele>
        <time>2020-10-14T14:54:23Z</time>
      </trkpt>
      <trkpt lat="37.667044000" lon="-3.800997000">
        <ele>777.5</ele>
        <time>2020-10-14T14:54:25Z</time>
      </trkpt>
      <trkpt lat="37.667169000" lon="-3.801113000">
        <ele>776.3</ele>
        <time>2020-10-14T14:54:27Z</time>
      </trkpt>
      <trkpt lat="37.667302000" lon="-3.801226000">
        <ele>775.2</ele>
        <time>2020-10-14T14:54:29Z</time>
      </trkpt>
      <trkpt lat="37.667424000" lon="-3.801350000">
        <ele>774.4</ele>
        <time>2020-10-14T14:54:31Z</time>
      </trkpt>
      <trkpt lat="37.667488000" lon="-3.801419000">
        <ele>773.8</ele>
        <time>2020-10-14T14:54:32Z</time>
      </trkpt>
      <trkpt lat="37.667553000" lon="-3.801489000">
        <ele>773.5</ele>
        <time>2020-10-14T14:54:33Z</time>
      </trkpt>
      <trkpt lat="37.667615000" lon="-3.801557000">
        <ele>773.2</ele>
        <time>2020-10-14T14:54:34Z</time>
      </trkpt>
      <trkpt lat="37.667677000" lon="-3.801627000">
        <ele>772.7</ele>
        <time>2020-10-14T14:54:35Z</time>
      </trkpt>
      <trkpt lat="37.667736000" lon="-3.801700000">
        <ele>772.1</ele>
        <time>2020-10-14T14:54:36Z</time>
      </trkpt>
      <trkpt lat="37.667842000" lon="-3.801845000">
        <ele>771.5</ele>
        <time>2020-10-14T14:54:38Z</time>
      </trkpt>
      <trkpt lat="37.667933000" lon="-3.802003000">
        <ele>770.7</ele>
        <time>2020-10-14T14:54:40Z</time>
      </trkpt>
      <trkpt lat="37.668007000" lon="-3.802167000">
        <ele>769.9</ele>
        <time>2020-10-14T14:54:42Z</time>
      </trkpt>
      <trkpt lat="37.668067000" lon="-3.802333000">
        <ele>769.0</ele>
        <time>2020-10-14T14:54:44Z</time>
      </trkpt>
      <trkpt lat="37.668108000" lon="-3.802512000">
        <ele>768.0</ele>
        <time>2020-10-14T14:54:46Z</time>
      </trkpt>
      <trkpt lat="37.668108000" lon="-3.802705000">
        <ele>766.8</ele>
        <time>2020-10-14T14:54:48Z</time>
      </trkpt>
      <trkpt lat="37.668086000" lon="-3.802907000">
        <ele>765.5</ele>
        <time>2020-10-14T14:54:50Z</time>
      </trkpt>
      <trkpt lat="37.668073000" lon="-3.803015000">
        <ele>764.0</ele>
        <time>2020-10-14T14:54:51Z</time>
      </trkpt>
      <trkpt lat="37.668063000" lon="-3.803125000">
        <ele>762.7</ele>
        <time>2020-10-14T14:54:52Z</time>
      </trkpt>
      <trkpt lat="37.668049000" lon="-3.803239000">
        <ele>761.6</ele>
        <time>2020-10-14T14:54:53Z</time>
      </trkpt>
      <trkpt lat="37.668037000" lon="-3.803349000">
        <ele>760.7</ele>
        <time>2020-10-14T14:54:54Z</time>
      </trkpt>
      <trkpt lat="37.668025000" lon="-3.803459000">
        <ele>759.9</ele>
        <time>2020-10-14T14:54:55Z</time>
      </trkpt>
      <trkpt lat="37.668011000" lon="-3.803565000">
        <ele>759.1</ele>
        <time>2020-10-14T14:54:56Z</time>
      </trkpt>
      <trkpt lat="37.667997000" lon="-3.803670000">
        <ele>758.3</ele>
        <time>2020-10-14T14:54:57Z</time>
      </trkpt>
      <trkpt lat="37.667985000" lon="-3.803773000">
        <ele>757.5</ele>
        <time>2020-10-14T14:54:58Z</time>
      </trkpt>
      <trkpt lat="37.667974000" lon="-3.803878000">
        <ele>756.6</ele>
        <time>2020-10-14T14:54:59Z</time>
      </trkpt>
      <trkpt lat="37.667963000" lon="-3.803982000">
        <ele>755.8</ele>
        <time>2020-10-14T14:55:00Z</time>
      </trkpt>
      <trkpt lat="37.667934000" lon="-3.804182000">
        <ele>755.0</ele>
        <time>2020-10-14T14:55:02Z</time>
      </trkpt>
      <trkpt lat="37.667921000" lon="-3.804284000">
        <ele>754.1</ele>
        <time>2020-10-14T14:55:03Z</time>
      </trkpt>
      <trkpt lat="37.667914000" lon="-3.804387000">
        <ele>753.1</ele>
        <time>2020-10-14T14:55:04Z</time>
      </trkpt>
      <trkpt lat="37.667916000" lon="-3.804585000">
        <ele>752.0</ele>
        <time>2020-10-14T14:55:06Z</time>
      </trkpt>
      <trkpt lat="37.667922000" lon="-3.804779000">
        <ele>750.9</ele>
        <time>2020-10-14T14:55:08Z</time>
      </trkpt>
      <trkpt lat="37.667932000" lon="-3.804973000">
        <ele>749.6</ele>
        <time>2020-10-14T14:55:10Z</time>
      </trkpt>
      <trkpt lat="37.667937000" lon="-3.805161000">
        <ele>748.4</ele>
        <time>2020-10-14T14:55:12Z</time>
      </trkpt>
      <trkpt lat="37.667970000" lon="-3.805328000">
        <ele>747.1</ele>
        <time>2020-10-14T14:55:14Z</time>
      </trkpt>
      <trkpt lat="37.668035000" lon="-3.805482000">
        <ele>745.7</ele>
        <time>2020-10-14T14:55:16Z</time>
      </trkpt>
      <trkpt lat="37.668139000" lon="-3.805601000">
        <ele>744.4</ele>
        <time>2020-10-14T14:55:18Z</time>
      </trkpt>
      <trkpt lat="37.668262000" lon="-3.805718000">
        <ele>743.0</ele>
        <time>2020-10-14T14:55:20Z</time>
      </trkpt>
      <trkpt lat="37.668390000" lon="-3.805832000">
        <ele>741.7</ele>
        <time>2020-10-14T14:55:22Z</time>
      </trkpt>
      <trkpt lat="37.668516000" lon="-3.805955000">
        <ele>740.5</ele>
        <time>2020-10-14T14:55:24Z</time>
      </trkpt>
      <trkpt lat="37.668644000" lon="-3.806075000">
        <ele>739.5</ele>
        <time>2020-10-14T14:55:26Z</time>
      </trkpt>
      <trkpt lat="37.668711000" lon="-3.806143000">
        <ele>738.6</ele>
        <time>2020-10-14T14:55:27Z</time>
      </trkpt>
      <trkpt lat="37.668777000" lon="-3.806214000">
        <ele>737.7</ele>
        <time>2020-10-14T14:55:28Z</time>
      </trkpt>
      <trkpt lat="37.668846000" lon="-3.806279000">
        <ele>736.9</ele>
        <time>2020-10-14T14:55:29Z</time>
      </trkpt>
      <trkpt lat="37.668914000" lon="-3.806350000">
        <ele>736.2</ele>
        <time>2020-10-14T14:55:30Z</time>
      </trkpt>
      <trkpt lat="37.668984000" lon="-3.806420000">
        <ele>735.5</ele>
        <time>2020-10-14T14:55:31Z</time>
      </trkpt>
      <trkpt lat="37.669052000" lon="-3.806487000">
        <ele>734.9</ele>
        <time>2020-10-14T14:55:32Z</time>
      </trkpt>
      <trkpt lat="37.669123000" lon="-3.806553000">
        <ele>734.3</ele>
        <time>2020-10-14T14:55:33Z</time>
      </trkpt>
      <trkpt lat="37.669193000" lon="-3.806622000">
        <ele>733.7</ele>
        <time>2020-10-14T14:55:34Z</time>
      </trkpt>
      <trkpt lat="37.669258000" lon="-3.806686000">
        <ele>733.1</ele>
        <time>2020-10-14T14:55:35Z</time>
      </trkpt>
      <trkpt lat="37.669328000" lon="-3.806750000">
        <ele>732.4</ele>
        <time>2020-10-14T14:55:36Z</time>
      </trkpt>
      <trkpt lat="37.669396000" lon="-3.806812000">
        <ele>731.5</ele>
        <time>2020-10-14T14:55:37Z</time>
      </trkpt>
      <trkpt lat="37.669538000" lon="-3.806917000">
        <ele>730.5</ele>
        <time>2020-10-14T14:55:39Z</time>
      </trkpt>
      <trkpt lat="37.669615000" lon="-3.806965000">
        <ele>729.7</ele>
        <time>2020-10-14T14:55:40Z</time>
      </trkpt>
      <trkpt lat="37.669692000" lon="-3.807013000">
        <ele>729.0</ele>
        <time>2020-10-14T14:55:41Z</time>
      </trkpt>
      <trkpt lat="37.669770000" lon="-3.807058000">
        <ele>728.3</ele>
        <time>2020-10-14T14:55:42Z</time>
      </trkpt>
      <trkpt lat="37.669910000" lon="-3.807129000">
        <ele>727.5</ele>
        <time>2020-10-14T14:55:44Z</time>
      </trkpt>
      <trkpt lat="37.670056000" lon="-3.807174000">
        <ele>726.6</ele>
        <time>2020-10-14T14:55:46Z</time>
      </trkpt>
      <trkpt lat="37.670201000" lon="-3.807192000">
        <ele>725.7</ele>
        <time>2020-10-14T14:55:48Z</time>
      </trkpt>
      <trkpt lat="37.670348000" lon="-3.807224000">
        <ele>724.8</ele>
        <time>2020-10-14T14:55:50Z</time>
      </trkpt>
      <trkpt lat="37.670485000" lon="-3.807301000">
        <ele>723.9</ele>
        <time>2020-10-14T14:55:52Z</time>
      </trkpt>
      <trkpt lat="37.670603000" lon="-3.807432000">
        <ele>723.2</ele>
        <time>2020-10-14T14:55:54Z</time>
      </trkpt>
      <trkpt lat="37.670715000" lon="-3.807575000">
        <ele>722.5</ele>
        <time>2020-10-14T14:55:56Z</time>
      </trkpt>
      <trkpt lat="37.670821000" lon="-3.807723000">
        <ele>721.7</ele>
        <time>2020-10-14T14:55:58Z</time>
      </trkpt>
      <trkpt lat="37.670877000" lon="-3.807799000">
        <ele>720.9</ele>
        <time>2020-10-14T14:55:59Z</time>
      </trkpt>
      <trkpt lat="37.670983000" lon="-3.807934000">
        <ele>719.9</ele>
        <time>2020-10-14T14:56:01Z</time>
      </trkpt>
      <trkpt lat="37.671077000" lon="-3.808044000">
        <ele>718.8</ele>
        <time>2020-10-14T14:56:03Z</time>
      </trkpt>
      <trkpt lat="37.671170000" lon="-3.808154000">
        <ele>717.9</ele>
        <time>2020-10-14T14:56:05Z</time>
      </trkpt>
      <trkpt lat="37.671288000" lon="-3.808249000">
        <ele>717.1</ele>
        <time>2020-10-14T14:56:07Z</time>
      </trkpt>
      <trkpt lat="37.671402000" lon="-3.808344000">
        <ele>716.4</ele>
        <time>2020-10-14T14:56:09Z</time>
      </trkpt>
      <trkpt lat="37.671514000" lon="-3.808450000">
        <ele>715.5</ele>
        <time>2020-10-14T14:56:11Z</time>
      </trkpt>
      <trkpt lat="37.671640000" lon="-3.808564000">
        <ele>714.7</ele>
        <time>2020-10-14T14:56:13Z</time>
      </trkpt>
      <trkpt lat="37.671772000" lon="-3.808663000">
        <ele>713.9</ele>
        <time>2020-10-14T14:56:15Z</time>
      </trkpt>
      <trkpt lat="37.671905000" lon="-3.808769000">
        <ele>713.4</ele>
        <time>2020-10-14T14:56:17Z</time>
      </trkpt>
      <trkpt lat="37.672037000" lon="-3.808868000">
        <ele>713.0</ele>
        <time>2020-10-14T14:56:19Z</time>
      </trkpt>
      <trkpt lat="37.672163000" lon="-3.808969000">
        <ele>712.6</ele>
        <time>2020-10-14T14:56:21Z</time>
      </trkpt>
      <trkpt lat="37.672291000" lon="-3.809063000">
        <ele>712.3</ele>
        <time>2020-10-14T14:56:23Z</time>
      </trkpt>
      <trkpt lat="37.672422000" lon="-3.809141000">
        <ele>711.8</ele>
        <time>2020-10-14T14:56:25Z</time>
      </trkpt>
      <trkpt lat="37.672560000" lon="-3.809219000">
        <ele>711.2</ele>
        <time>2020-10-14T14:56:27Z</time>
      </trkpt>
      <trkpt lat="37.672698000" lon="-3.809280000">
        <ele>710.5</ele>
        <time>2020-10-14T14:56:29Z</time>
      </trkpt>
      <trkpt lat="37.672845000" lon="-3.809351000">
        <ele>709.5</ele>
        <time>2020-10-14T14:56:31Z</time>
      </trkpt>
      <trkpt lat="37.672991000" lon="-3.809424000">
        <ele>708.3</ele>
        <time>2020-10-14T14:56:33Z</time>
      </trkpt>
      <trkpt lat="37.673069000" lon="-3.809463000">
        <ele>706.8</ele>
        <time>2020-10-14T14:56:34Z</time>
      </trkpt>
      <trkpt lat="37.673146000" lon="-3.809498000">
        <ele>705.3</ele>
        <time>2020-10-14T14:56:35Z</time>
      </trkpt>
      <trkpt lat="37.673226000" lon="-3.809533000">
        <ele>703.6</ele>
        <time>2020-10-14T14:56:36Z</time>
      </trkpt>
      <trkpt lat="37.673371000" lon="-3.809607000">
        <ele>702.0</ele>
        <time>2020-10-14T14:56:38Z</time>
      </trkpt>
      <trkpt lat="37.673508000" lon="-3.809670000">
        <ele>700.5</ele>
        <time>2020-10-14T14:56:40Z</time>
      </trkpt>
      <trkpt lat="37.673653000" lon="-3.809699000">
        <ele>699.4</ele>
        <time>2020-10-14T14:56:42Z</time>
      </trkpt>
      <trkpt lat="37.673804000" lon="-3.809684000">
        <ele>698.4</ele>
        <time>2020-10-14T14:56:44Z</time>
      </trkpt>
      <trkpt lat="37.673954000" lon="-3.809626000">
        <ele>697.5</ele>
        <time>2020-10-14T14:56:46Z</time>
      </trkpt>
      <trkpt lat="37.674093000" lon="-3.809565000">
        <ele>696.6</ele>
        <time>2020-10-14T14:56:48Z</time>
      </trkpt>
      <trkpt lat="37.674232000" lon="-3.809537000">
        <ele>695.8</ele>
        <time>2020-10-14T14:56:50Z</time>
      </trkpt>
      <trkpt lat="37.674361000" lon="-3.809561000">
        <ele>695.4</ele>
        <time>2020-10-14T14:56:52Z</time>
      </trkpt>
      <trkpt lat="37.674482000" lon="-3.809661000">
        <ele>695.0</ele>
        <time>2020-10-14T14:56:54Z</time>
      </trkpt>
      <trkpt lat="37.674593000" lon="-3.809798000">
        <ele>694.6</ele>
        <time>2020-10-14T14:56:56Z</time>
      </trkpt>
      <trkpt lat="37.674652000" lon="-3.809868000">
        <ele>694.3</ele>
        <time>2020-10-14T14:56:57Z</time>
      </trkpt>
      <trkpt lat="37.674768000" lon="-3.810016000">
        <ele>693.7</ele>
        <time>2020-10-14T14:56:59Z</time>
      </trkpt>
      <trkpt lat="37.674829000" lon="-3.810087000">
        <ele>693.1</ele>
        <time>2020-10-14T14:57:00Z</time>
      </trkpt>
      <trkpt lat="37.674958000" lon="-3.810199000">
        <ele>692.3</ele>
        <time>2020-10-14T14:57:02Z</time>
      </trkpt>
      <trkpt lat="37.675107000" lon="-3.810264000">
        <ele>691.5</ele>
        <time>2020-10-14T14:57:04Z</time>
      </trkpt>
      <trkpt lat="37.675256000" lon="-3.810283000">
        <ele>690.6</ele>
        <time>2020-10-14T14:57:06Z</time>
      </trkpt>
      <trkpt lat="37.675339000" lon="-3.810284000">
        <ele>689.6</ele>
        <time>2020-10-14T14:57:07Z</time>
      </trkpt>
      <trkpt lat="37.675425000" lon="-3.810288000">
        <ele>688.8</ele>
        <time>2020-10-14T14:57:08Z</time>
      </trkpt>
      <trkpt lat="37.675512000" lon="-3.810292000">
        <ele>687.9</ele>
        <time>2020-10-14T14:57:09Z</time>
      </trkpt>
      <trkpt lat="37.675679000" lon="-3.810291000">
        <ele>687.1</ele>
        <time>2020-10-14T14:57:11Z</time>
      </trkpt>
      <trkpt lat="37.675837000" lon="-3.810290000">
        <ele>686.4</ele>
        <time>2020-10-14T14:57:13Z</time>
      </trkpt>
      <trkpt lat="37.675919000" lon="-3.810295000">
        <ele>685.5</ele>
        <time>2020-10-14T14:57:14Z</time>
      </trkpt>
      <trkpt lat="37.676007000" lon="-3.810296000">
        <ele>684.8</ele>
        <time>2020-10-14T14:57:15Z</time>
      </trkpt>
      <trkpt lat="37.676095000" lon="-3.810299000">
        <ele>684.0</ele>
        <time>2020-10-14T14:57:16Z</time>
      </trkpt>
      <trkpt lat="37.676184000" lon="-3.810302000">
        <ele>683.3</ele>
        <time>2020-10-14T14:57:17Z</time>
      </trkpt>
      <trkpt lat="37.676266000" lon="-3.810309000">
        <ele>682.5</ele>
        <time>2020-10-14T14:57:18Z</time>
      </trkpt>
      <trkpt lat="37.676348000" lon="-3.810312000">
        <ele>681.7</ele>
        <time>2020-10-14T14:57:19Z</time>
      </trkpt>
      <trkpt lat="37.676437000" lon="-3.810312000">
        <ele>681.0</ele>
        <time>2020-10-14T14:57:20Z</time>
      </trkpt>
      <trkpt lat="37.676523000" lon="-3.810313000">
        <ele>680.3</ele>
        <time>2020-10-14T14:57:21Z</time>
      </trkpt>
      <trkpt lat="37.676612000" lon="-3.810316000">
        <ele>679.6</ele>
        <time>2020-10-14T14:57:24Z</time>
      </trkpt>
      <trkpt lat="37.676856000" lon="-3.810321000">
        <ele>679.1</ele>
        <time>2020-10-14T14:57:25Z</time>
      </trkpt>
      <trkpt lat="37.676941000" lon="-3.810327000">
        <ele>678.5</ele>
        <time>2020-10-14T14:57:26Z</time>
      </trkpt>
      <trkpt lat="37.677092000" lon="-3.810329000">
        <ele>678.2</ele>
        <time>2020-10-14T14:57:28Z</time>
      </trkpt>
      <trkpt lat="37.677244000" lon="-3.810305000">
        <ele>677.9</ele>
        <time>2020-10-14T14:57:30Z</time>
      </trkpt>
      <trkpt lat="37.677389000" lon="-3.810244000">
        <ele>677.9</ele>
        <time>2020-10-14T14:57:32Z</time>
      </trkpt>
      <trkpt lat="37.677511000" lon="-3.810161000">
        <ele>678.0</ele>
        <time>2020-10-14T14:57:34Z</time>
      </trkpt>
      <trkpt lat="37.677618000" lon="-3.810066000">
        <ele>678.1</ele>
        <time>2020-10-14T14:57:36Z</time>
      </trkpt>
      <trkpt lat="37.677722000" lon="-3.809974000">
        <ele>678.3</ele>
        <time>2020-10-14T14:57:38Z</time>
      </trkpt>
      <trkpt lat="37.677829000" lon="-3.809892000">
        <ele>678.5</ele>
        <time>2020-10-14T14:57:40Z</time>
      </trkpt>
      <trkpt lat="37.677943000" lon="-3.809834000">
        <ele>678.6</ele>
        <time>2020-10-14T14:57:42Z</time>
      </trkpt>
      <trkpt lat="37.678048000" lon="-3.809795000">
        <ele>678.9</ele>
        <time>2020-10-14T14:57:44Z</time>
      </trkpt>
      <trkpt lat="37.678166000" lon="-3.809786000">
        <ele>679.2</ele>
        <time>2020-10-14T14:57:46Z</time>
      </trkpt>
      <trkpt lat="37.678278000" lon="-3.809779000">
        <ele>679.4</ele>
        <time>2020-10-14T14:57:48Z</time>
      </trkpt>
      <trkpt lat="37.678392000" lon="-3.809800000">
        <ele>679.3</ele>
        <time>2020-10-14T14:57:50Z</time>
      </trkpt>
      <trkpt lat="37.678508000" lon="-3.809839000">
        <ele>678.9</ele>
        <time>2020-10-14T14:57:52Z</time>
      </trkpt>
      <trkpt lat="37.678621000" lon="-3.809875000">
        <ele>678.3</ele>
        <time>2020-10-14T14:57:54Z</time>
      </trkpt>
      <trkpt lat="37.678730000" lon="-3.809921000">
        <ele>677.5</ele>
        <time>2020-10-14T14:57:56Z</time>
      </trkpt>
      <trkpt lat="37.678848000" lon="-3.809968000">
        <ele>676.7</ele>
        <time>2020-10-14T14:57:58Z</time>
      </trkpt>
      <trkpt lat="37.678967000" lon="-3.810019000">
        <ele>676.0</ele>
        <time>2020-10-14T14:58:00Z</time>
      </trkpt>
      <trkpt lat="37.679078000" lon="-3.810068000">
        <ele>675.4</ele>
        <time>2020-10-14T14:58:02Z</time>
      </trkpt>
      <trkpt lat="37.679195000" lon="-3.810114000">
        <ele>674.8</ele>
        <time>2020-10-14T14:58:04Z</time>
      </trkpt>
      <trkpt lat="37.679314000" lon="-3.810166000">
        <ele>674.3</ele>
        <time>2020-10-14T14:58:06Z</time>
      </trkpt>
      <trkpt lat="37.679433000" lon="-3.810217000">
        <ele>673.5</ele>
        <time>2020-10-14T14:58:08Z</time>
      </trkpt>
      <trkpt lat="37.679558000" lon="-3.810254000">
        <ele>672.8</ele>
        <time>2020-10-14T14:58:10Z</time>
      </trkpt>
      <trkpt lat="37.679673000" lon="-3.810310000">
        <ele>672.2</ele>
        <time>2020-10-14T14:58:12Z</time>
      </trkpt>
      <trkpt lat="37.679771000" lon="-3.810379000">
        <ele>671.7</ele>
        <time>2020-10-14T14:58:14Z</time>
      </trkpt>
      <trkpt lat="37.679869000" lon="-3.810483000">
        <ele>671.4</ele>
        <time>2020-10-14T14:58:16Z</time>
      </trkpt>
      <trkpt lat="37.679956000" lon="-3.810602000">
        <ele>671.1</ele>
        <time>2020-10-14T14:58:18Z</time>
      </trkpt>
      <trkpt lat="37.680034000" lon="-3.810724000">
        <ele>670.9</ele>
        <time>2020-10-14T14:58:20Z</time>
      </trkpt>
      <trkpt lat="37.680121000" lon="-3.810836000">
        <ele>670.5</ele>
        <time>2020-10-14T14:58:22Z</time>
      </trkpt>
      <trkpt lat="37.680234000" lon="-3.810917000">
        <ele>670.2</ele>
        <time>2020-10-14T14:58:24Z</time>
      </trkpt>
      <trkpt lat="37.680352000" lon="-3.810987000">
        <ele>669.7</ele>
        <time>2020-10-14T14:58:26Z</time>
      </trkpt>
      <trkpt lat="37.680474000" lon="-3.811037000">
        <ele>669.2</ele>
        <time>2020-10-14T14:58:28Z</time>
      </trkpt>
      <trkpt lat="37.680593000" lon="-3.811120000">
        <ele>668.7</ele>
        <time>2020-10-14T14:58:30Z</time>
      </trkpt>
      <trkpt lat="37.680707000" lon="-3.811208000">
        <ele>668.4</ele>
        <time>2020-10-14T14:58:32Z</time>
      </trkpt>
      <trkpt lat="37.680820000" lon="-3.811290000">
        <ele>668.1</ele>
        <time>2020-10-14T14:58:34Z</time>
      </trkpt>
      <trkpt lat="37.680932000" lon="-3.811385000">
        <ele>667.7</ele>
        <time>2020-10-14T14:58:36Z</time>
      </trkpt>
      <trkpt lat="37.681039000" lon="-3.811478000">
        <ele>667.4</ele>
        <time>2020-10-14T14:58:38Z</time>
      </trkpt>
      <trkpt lat="37.681150000" lon="-3.811553000">
        <ele>666.8</ele>
        <time>2020-10-14T14:58:40Z</time>
      </trkpt>
      <trkpt lat="37.681270000" lon="-3.811620000">
        <ele>666.1</ele>
        <time>2020-10-14T14:58:42Z</time>
      </trkpt>
      <trkpt lat="37.681393000" lon="-3.811682000">
        <ele>665.4</ele>
        <time>2020-10-14T14:58:44Z</time>
      </trkpt>
      <trkpt lat="37.681519000" lon="-3.811745000">
        <ele>664.5</ele>
        <time>2020-10-14T14:58:46Z</time>
      </trkpt>
      <trkpt lat="37.681643000" lon="-3.811804000">
        <ele>663.7</ele>
        <time>2020-10-14T14:58:48Z</time>
      </trkpt>
      <trkpt lat="37.681764000" lon="-3.811873000">
        <ele>663.0</ele>
        <time>2020-10-14T14:58:50Z</time>
      </trkpt>
      <trkpt lat="37.681881000" lon="-3.811942000">
        <ele>662.4</ele>
        <time>2020-10-14T14:58:52Z</time>
      </trkpt>
      <trkpt lat="37.682011000" lon="-3.811984000">
        <ele>661.6</ele>
        <time>2020-10-14T14:58:54Z</time>
      </trkpt>
      <trkpt lat="37.682150000" lon="-3.811987000">
        <ele>660.9</ele>
        <time>2020-10-14T14:58:56Z</time>
      </trkpt>
      <trkpt lat="37.682288000" lon="-3.811979000">
        <ele>660.2</ele>
        <time>2020-10-14T14:58:58Z</time>
      </trkpt>
      <trkpt lat="37.682422000" lon="-3.811966000">
        <ele>659.5</ele>
        <time>2020-10-14T14:59:00Z</time>
      </trkpt>
      <trkpt lat="37.682549000" lon="-3.811937000">
        <ele>659.0</ele>
        <time>2020-10-14T14:59:02Z</time>
      </trkpt>
      <trkpt lat="37.682669000" lon="-3.811897000">
        <ele>658.7</ele>
        <time>2020-10-14T14:59:04Z</time>
      </trkpt>
      <trkpt lat="37.682774000" lon="-3.811822000">
        <ele>658.6</ele>
        <time>2020-10-14T14:59:06Z</time>
      </trkpt>
      <trkpt lat="37.682867000" lon="-3.811716000">
        <ele>658.6</ele>
        <time>2020-10-14T14:59:08Z</time>
      </trkpt>
      <trkpt lat="37.682952000" lon="-3.811590000">
        <ele>658.8</ele>
        <time>2020-10-14T14:59:10Z</time>
      </trkpt>
      <trkpt lat="37.683042000" lon="-3.811471000">
        <ele>659.0</ele>
        <time>2020-10-14T14:59:12Z</time>
      </trkpt>
      <trkpt lat="37.683153000" lon="-3.811396000">
        <ele>659.1</ele>
        <time>2020-10-14T14:59:14Z</time>
      </trkpt>
      <trkpt lat="37.683275000" lon="-3.811403000">
        <ele>659.3</ele>
        <time>2020-10-14T14:59:16Z</time>
      </trkpt>
      <trkpt lat="37.683391000" lon="-3.811471000">
        <ele>659.4</ele>
        <time>2020-10-14T14:59:18Z</time>
      </trkpt>
      <trkpt lat="37.683480000" lon="-3.811586000">
        <ele>659.5</ele>
        <time>2020-10-14T14:59:20Z</time>
      </trkpt>
      <trkpt lat="37.683550000" lon="-3.811716000">
        <ele>659.4</ele>
        <time>2020-10-14T14:59:22Z</time>
      </trkpt>
      <trkpt lat="37.683614000" lon="-3.811851000">
        <ele>659.2</ele>
        <time>2020-10-14T14:59:24Z</time>
      </trkpt>
      <trkpt lat="37.683676000" lon="-3.811975000">
        <ele>658.8</ele>
        <time>2020-10-14T14:59:26Z</time>
      </trkpt>
      <trkpt lat="37.683751000" lon="-3.812094000">
        <ele>658.3</ele>
        <time>2020-10-14T14:59:28Z</time>
      </trkpt>
      <trkpt lat="37.683827000" lon="-3.812211000">
        <ele>657.7</ele>
        <time>2020-10-14T14:59:30Z</time>
      </trkpt>
      <trkpt lat="37.683921000" lon="-3.812322000">
        <ele>657.1</ele>
        <time>2020-10-14T14:59:32Z</time>
      </trkpt>
      <trkpt lat="37.684030000" lon="-3.812425000">
        <ele>656.4</ele>
        <time>2020-10-14T14:59:34Z</time>
      </trkpt>
      <trkpt lat="37.684150000" lon="-3.812517000">
        <ele>655.5</ele>
        <time>2020-10-14T14:59:36Z</time>
      </trkpt>
      <trkpt lat="37.684280000" lon="-3.812595000">
        <ele>654.5</ele>
        <time>2020-10-14T14:59:38Z</time>
      </trkpt>
      <trkpt lat="37.684413000" lon="-3.812642000">
        <ele>653.5</ele>
        <time>2020-10-14T14:59:40Z</time>
      </trkpt>
      <trkpt lat="37.684555000" lon="-3.812668000">
        <ele>652.5</ele>
        <time>2020-10-14T14:59:42Z</time>
      </trkpt>
      <trkpt lat="37.684692000" lon="-3.812695000">
        <ele>651.5</ele>
        <time>2020-10-14T14:59:44Z</time>
      </trkpt>
      <trkpt lat="37.684813000" lon="-3.812728000">
        <ele>650.7</ele>
        <time>2020-10-14T14:59:46Z</time>
      </trkpt>
      <trkpt lat="37.684928000" lon="-3.812757000">
        <ele>650.2</ele>
        <time>2020-10-14T14:59:48Z</time>
      </trkpt>
      <trkpt lat="37.685039000" lon="-3.812795000">
        <ele>649.9</ele>
        <time>2020-10-14T14:59:50Z</time>
      </trkpt>
      <trkpt lat="37.685149000" lon="-3.812861000">
        <ele>649.6</ele>
        <time>2020-10-14T14:59:52Z</time>
      </trkpt>
      <trkpt lat="37.685259000" lon="-3.812920000">
        <ele>649.4</ele>
        <time>2020-10-14T14:59:54Z</time>
      </trkpt>
      <trkpt lat="37.685373000" lon="-3.812978000">
        <ele>649.2</ele>
        <time>2020-10-14T14:59:56Z</time>
      </trkpt>
      <trkpt lat="37.685486000" lon="-3.813043000">
        <ele>649.2</ele>
        <time>2020-10-14T14:59:58Z</time>
      </trkpt>
      <trkpt lat="37.685585000" lon="-3.813096000">
        <ele>649.4</ele>
        <time>2020-10-14T15:00:00Z</time>
      </trkpt>
      <trkpt lat="37.685686000" lon="-3.813144000">
        <ele>649.6</ele>
        <time>2020-10-14T15:00:02Z</time>
      </trkpt>
      <trkpt lat="37.685781000" lon="-3.813203000">
        <ele>650.2</ele>
        <time>2020-10-14T15:00:04Z</time>
      </trkpt>
      <trkpt lat="37.685881000" lon="-3.813242000">
        <ele>651.0</ele>
        <time>2020-10-14T15:00:06Z</time>
      </trkpt>
      <trkpt lat="37.685981000" lon="-3.813262000">
        <ele>651.7</ele>
        <time>2020-10-14T15:00:08Z</time>
      </trkpt>
      <trkpt lat="37.686068000" lon="-3.813273000">
        <ele>652.3</ele>
        <time>2020-10-14T15:00:10Z</time>
      </trkpt>
      <trkpt lat="37.686164000" lon="-3.813274000">
        <ele>652.6</ele>
        <time>2020-10-14T15:00:12Z</time>
      </trkpt>
      <trkpt lat="37.686267000" lon="-3.813248000">
        <ele>653.0</ele>
        <time>2020-10-14T15:00:14Z</time>
      </trkpt>
      <trkpt lat="37.686369000" lon="-3.813218000">
        <ele>653.2</ele>
        <time>2020-10-14T15:00:16Z</time>
      </trkpt>
      <trkpt lat="37.686473000" lon="-3.813178000">
        <ele>653.3</ele>
        <time>2020-10-14T15:00:18Z</time>
      </trkpt>
      <trkpt lat="37.686565000" lon="-3.813152000">
        <ele>653.4</ele>
        <time>2020-10-14T15:00:20Z</time>
      </trkpt>
      <trkpt lat="37.686652000" lon="-3.813142000">
        <ele>653.5</ele>
        <time>2020-10-14T15:00:22Z</time>
      </trkpt>
      <trkpt lat="37.686745000" lon="-3.813151000">
        <ele>653.5</ele>
        <time>2020-10-14T15:00:24Z</time>
      </trkpt>
      <trkpt lat="37.686835000" lon="-3.813176000">
        <ele>653.5</ele>
        <time>2020-10-14T15:00:26Z</time>
      </trkpt>
      <trkpt lat="37.686924000" lon="-3.813207000">
        <ele>653.1</ele>
        <time>2020-10-14T15:00:28Z</time>
      </trkpt>
      <trkpt lat="37.687013000" lon="-3.813244000">
        <ele>652.6</ele>
        <time>2020-10-14T15:00:30Z</time>
      </trkpt>
      <trkpt lat="37.687099000" lon="-3.813276000">
        <ele>652.0</ele>
        <time>2020-10-14T15:00:32Z</time>
      </trkpt>
      <trkpt lat="37.687183000" lon="-3.813309000">
        <ele>651.3</ele>
        <time>2020-10-14T15:00:34Z</time>
      </trkpt>
      <trkpt lat="37.687261000" lon="-3.813352000">
        <ele>650.5</ele>
        <time>2020-10-14T15:00:36Z</time>
      </trkpt>
      <trkpt lat="37.687360000" lon="-3.813385000">
        <ele>649.8</ele>
        <time>2020-10-14T15:00:38Z</time>
      </trkpt>
      <trkpt lat="37.687473000" lon="-3.813424000">
        <ele>649.3</ele>
        <time>2020-10-14T15:00:40Z</time>
      </trkpt>
      <trkpt lat="37.687585000" lon="-3.813465000">
        <ele>648.6</ele>
        <time>2020-10-14T15:00:42Z</time>
      </trkpt>
      <trkpt lat="37.687689000" lon="-3.813505000">
        <ele>648.0</ele>
        <time>2020-10-14T15:00:44Z</time>
      </trkpt>
      <trkpt lat="37.687793000" lon="-3.813527000">
        <ele>647.3</ele>
        <time>2020-10-14T15:00:46Z</time>
      </trkpt>
      <trkpt lat="37.687902000" lon="-3.813549000">
        <ele>646.5</ele>
        <time>2020-10-14T15:00:48Z</time>
      </trkpt>
      <trkpt lat="37.688005000" lon="-3.813565000">
        <ele>645.5</ele>
        <time>2020-10-14T15:00:50Z</time>
      </trkpt>
      <trkpt lat="37.688099000" lon="-3.813575000">
        <ele>644.6</ele>
        <time>2020-10-14T15:00:52Z</time>
      </trkpt>
      <trkpt lat="37.688199000" lon="-3.813583000">
        <ele>643.8</ele>
        <time>2020-10-14T15:00:54Z</time>
      </trkpt>
      <trkpt lat="37.688298000" lon="-3.813595000">
        <ele>643.0</ele>
        <time>2020-10-14T15:00:56Z</time>
      </trkpt>
      <trkpt lat="37.688392000" lon="-3.813618000">
        <ele>642.3</ele>
        <time>2020-10-14T15:00:58Z</time>
      </trkpt>
      <trkpt lat="37.688477000" lon="-3.813667000">
        <ele>641.5</ele>
        <time>2020-10-14T15:01:00Z</time>
      </trkpt>
      <trkpt lat="37.688567000" lon="-3.813724000">
        <ele>640.8</ele>
        <time>2020-10-14T15:01:02Z</time>
      </trkpt>
      <trkpt lat="37.688673000" lon="-3.813796000">
        <ele>640.2</ele>
        <time>2020-10-14T15:01:04Z</time>
      </trkpt>
      <trkpt lat="37.688792000" lon="-3.813873000">
        <ele>639.5</ele>
        <time>2020-10-14T15:01:06Z</time>
      </trkpt>
      <trkpt lat="37.688912000" lon="-3.813941000">
        <ele>638.9</ele>
        <time>2020-10-14T15:01:08Z</time>
      </trkpt>
      <trkpt lat="37.689038000" lon="-3.814020000">
        <ele>638.3</ele>
        <time>2020-10-14T15:01:10Z</time>
      </trkpt>
      <trkpt lat="37.689167000" lon="-3.814110000">
        <ele>637.7</ele>
        <time>2020-10-14T15:01:12Z</time>
      </trkpt>
      <trkpt lat="37.689296000" lon="-3.814185000">
        <ele>637.2</ele>
        <time>2020-10-14T15:01:14Z</time>
      </trkpt>
      <trkpt lat="37.689433000" lon="-3.814265000">
        <ele>636.6</ele>
        <time>2020-10-14T15:01:16Z</time>
      </trkpt>
      <trkpt lat="37.689569000" lon="-3.814348000">
        <ele>636.2</ele>
        <time>2020-10-14T15:01:18Z</time>
      </trkpt>
      <trkpt lat="37.689715000" lon="-3.814433000">
        <ele>635.5</ele>
        <time>2020-10-14T15:01:20Z</time>
      </trkpt>
      <trkpt lat="37.689789000" lon="-3.814482000">
        <ele>634.8</ele>
        <time>2020-10-14T15:01:21Z</time>
      </trkpt>
      <trkpt lat="37.689866000" lon="-3.814535000">
        <ele>633.9</ele>
        <time>2020-10-14T15:01:22Z</time>
      </trkpt>
      <trkpt lat="37.689945000" lon="-3.814580000">
        <ele>633.0</ele>
        <time>2020-10-14T15:01:23Z</time>
      </trkpt>
      <trkpt lat="37.690020000" lon="-3.814625000">
        <ele>632.0</ele>
        <time>2020-10-14T15:01:24Z</time>
      </trkpt>
      <trkpt lat="37.690095000" lon="-3.814673000">
        <ele>631.1</ele>
        <time>2020-10-14T15:01:25Z</time>
      </trkpt>
      <trkpt lat="37.690172000" lon="-3.814722000">
        <ele>630.4</ele>
        <time>2020-10-14T15:01:26Z</time>
      </trkpt>
      <trkpt lat="37.690324000" lon="-3.814809000">
        <ele>629.8</ele>
        <time>2020-10-14T15:01:28Z</time>
      </trkpt>
      <trkpt lat="37.690406000" lon="-3.814863000">
        <ele>629.4</ele>
        <time>2020-10-14T15:01:29Z</time>
      </trkpt>
      <trkpt lat="37.690488000" lon="-3.814916000">
        <ele>629.1</ele>
        <time>2020-10-14T15:01:30Z</time>
      </trkpt>
      <trkpt lat="37.690568000" lon="-3.814968000">
        <ele>628.9</ele>
        <time>2020-10-14T15:01:31Z</time>
      </trkpt>
      <trkpt lat="37.690650000" lon="-3.815017000">
        <ele>628.8</ele>
        <time>2020-10-14T15:01:32Z</time>
      </trkpt>
      <trkpt lat="37.690726000" lon="-3.815064000">
        <ele>628.7</ele>
        <time>2020-10-14T15:01:33Z</time>
      </trkpt>
      <trkpt lat="37.690862000" lon="-3.815155000">
        <ele>628.9</ele>
        <time>2020-10-14T15:01:35Z</time>
      </trkpt>
      <trkpt lat="37.690986000" lon="-3.815235000">
        <ele>629.2</ele>
        <time>2020-10-14T15:01:37Z</time>
      </trkpt>
      <trkpt lat="37.691104000" lon="-3.815310000">
        <ele>629.5</ele>
        <time>2020-10-14T15:01:39Z</time>
      </trkpt>
      <trkpt lat="37.691215000" lon="-3.815366000">
        <ele>629.8</ele>
        <time>2020-10-14T15:01:41Z</time>
      </trkpt>
      <trkpt lat="37.691294000" lon="-3.815393000">
        <ele>630.0</ele>
        <time>2020-10-14T15:01:43Z</time>
      </trkpt>
      <trkpt lat="37.691246000" lon="-3.815308000">
        <ele>630.1</ele>
        <time>2020-10-14T15:03:06Z</time>
      </trkpt>
      <trkpt lat="37.691204000" lon="-3.815216000">
        <ele>630.2</ele>
        <time>2020-10-14T15:03:16Z</time>
      </trkpt>
      <trkpt lat="37.691286000" lon="-3.815199000">
        <ele>630.3</ele>
        <time>2020-10-14T15:03:28Z</time>
      </trkpt>
      <trkpt lat="37.691325000" lon="-3.815280000">
        <ele>630.2</ele>
        <time>2020-10-14T15:04:31Z</time>
      </trkpt>
      <trkpt lat="37.691338000" lon="-3.815298000">
        <ele>630.0</ele>
        <time>2020-10-14T15:24:19Z</time>
      </trkpt>
      <trkpt lat="37.691257000" lon="-3.815224000">
        <ele>630.0</ele>
        <time>2020-10-14T15:25:07Z</time>
      </trkpt>
      <trkpt lat="37.691184000" lon="-3.815268000">
        <ele>630.0</ele>
        <time>2020-10-14T15:25:17Z</time>
      </trkpt>
      <trkpt lat="37.691241000" lon="-3.815376000">
        <ele>630.0</ele>
        <time>2020-10-14T15:25:23Z</time>
      </trkpt>
      <trkpt lat="37.691318000" lon="-3.815442000">
        <ele>630.0</ele>
        <time>2020-10-14T15:25:26Z</time>
      </trkpt>
      <trkpt lat="37.691318000" lon="-3.815442000">
        <ele>630.0</ele>
        <time>2020-10-14T15:25:26Z</time>
      </trkpt>
      <trkpt lat="37.767129000" lon="-3.790771000">
        <ele>572.7</ele>
        <time>2020-10-15T07:37:21Z</time>
      </trkpt>
      <trkpt lat="37.767048000" lon="-3.790761000">
        <ele>572.6</ele>
        <time>2020-10-15T07:37:24Z</time>
      </trkpt>
      <trkpt lat="37.766963000" lon="-3.790730000">
        <ele>572.6</ele>
        <time>2020-10-15T07:37:27Z</time>
      </trkpt>
      <trkpt lat="37.766852000" lon="-3.790683000">
        <ele>572.7</ele>
        <time>2020-10-15T07:37:31Z</time>
      </trkpt>
      <trkpt lat="37.766755000" lon="-3.790612000">
        <ele>572.7</ele>
        <time>2020-10-15T07:37:34Z</time>
      </trkpt>
      <trkpt lat="37.766677000" lon="-3.790561000">
        <ele>572.7</ele>
        <time>2020-10-15T07:37:37Z</time>
      </trkpt>
      <trkpt lat="37.766603000" lon="-3.790493000">
        <ele>572.8</ele>
        <time>2020-10-15T07:37:40Z</time>
      </trkpt>
      <trkpt lat="37.766515000" lon="-3.790427000">
        <ele>572.9</ele>
        <time>2020-10-15T07:37:44Z</time>
      </trkpt>
      <trkpt lat="37.766422000" lon="-3.790377000">
        <ele>572.9</ele>
        <time>2020-10-15T07:37:50Z</time>
      </trkpt>
      <trkpt lat="37.766340000" lon="-3.790341000">
        <ele>572.9</ele>
        <time>2020-10-15T07:37:53Z</time>
      </trkpt>
      <trkpt lat="37.766256000" lon="-3.790277000">
        <ele>573.0</ele>
        <time>2020-10-15T07:37:57Z</time>
      </trkpt>
      <trkpt lat="37.766190000" lon="-3.790212000">
        <ele>573.1</ele>
        <time>2020-10-15T07:38:00Z</time>
      </trkpt>
      <trkpt lat="37.766121000" lon="-3.790116000">
        <ele>573.2</ele>
        <time>2020-10-15T07:38:04Z</time>
      </trkpt>
      <trkpt lat="37.766084000" lon="-3.790013000">
        <ele>573.2</ele>
        <time>2020-10-15T07:38:07Z</time>
      </trkpt>
      <trkpt lat="37.766049000" lon="-3.789911000">
        <ele>573.3</ele>
        <time>2020-10-15T07:38:10Z</time>
      </trkpt>
      <trkpt lat="37.766017000" lon="-3.789804000">
        <ele>573.5</ele>
        <time>2020-10-15T07:38:13Z</time>
      </trkpt>
      <trkpt lat="37.765966000" lon="-3.789676000">
        <ele>573.6</ele>
        <time>2020-10-15T07:38:16Z</time>
      </trkpt>
      <trkpt lat="37.765922000" lon="-3.789545000">
        <ele>573.6</ele>
        <time>2020-10-15T07:38:19Z</time>
      </trkpt>
      <trkpt lat="37.765885000" lon="-3.789425000">
        <ele>573.6</ele>
        <time>2020-10-15T07:38:22Z</time>
      </trkpt>
      <trkpt lat="37.765862000" lon="-3.789313000">
        <ele>573.6</ele>
        <time>2020-10-15T07:38:25Z</time>
      </trkpt>
      <trkpt lat="37.765860000" lon="-3.789209000">
        <ele>573.6</ele>
        <time>2020-10-15T07:38:28Z</time>
      </trkpt>
      <trkpt lat="37.765906000" lon="-3.789119000">
        <ele>573.4</ele>
        <time>2020-10-15T07:38:33Z</time>
      </trkpt>
      <trkpt lat="37.765972000" lon="-3.789029000">
        <ele>573.1</ele>
        <time>2020-10-15T07:39:06Z</time>
      </trkpt>
      <trkpt lat="37.766014000" lon="-3.788916000">
        <ele>572.7</ele>
        <time>2020-10-15T07:39:09Z</time>
      </trkpt>
      <trkpt lat="37.766065000" lon="-3.788787000">
        <ele>572.4</ele>
        <time>2020-10-15T07:39:12Z</time>
      </trkpt>
      <trkpt lat="37.766128000" lon="-3.788686000">
        <ele>571.8</ele>
        <time>2020-10-15T07:39:14Z</time>
      </trkpt>
      <trkpt lat="37.766298000" lon="-3.788665000">
        <ele>571.2</ele>
        <time>2020-10-15T07:39:15Z</time>
      </trkpt>
      <trkpt lat="37.766357000" lon="-3.788554000">
        <ele>570.5</ele>
        <time>2020-10-15T07:39:17Z</time>
      </trkpt>
      <trkpt lat="37.766421000" lon="-3.788462000">
        <ele>570.1</ele>
        <time>2020-10-15T07:39:19Z</time>
      </trkpt>
      <trkpt lat="37.766484000" lon="-3.788358000">
        <ele>569.6</ele>
        <time>2020-10-15T07:39:21Z</time>
      </trkpt>
      <trkpt lat="37.766542000" lon="-3.788260000">
        <ele>569.4</ele>
        <time>2020-10-15T07:39:23Z</time>
      </trkpt>
      <trkpt lat="37.766605000" lon="-3.788164000">
        <ele>569.1</ele>
        <time>2020-10-15T07:39:25Z</time>
      </trkpt>
      <trkpt lat="37.766658000" lon="-3.788065000">
        <ele>569.1</ele>
        <time>2020-10-15T07:39:27Z</time>
      </trkpt>
      <trkpt lat="37.766710000" lon="-3.787980000">
        <ele>568.9</ele>
        <time>2020-10-15T07:39:29Z</time>
      </trkpt>
      <trkpt lat="37.766761000" lon="-3.787880000">
        <ele>568.7</ele>
        <time>2020-10-15T07:39:31Z</time>
      </trkpt>
      <trkpt lat="37.766839000" lon="-3.787765000">
        <ele>568.4</ele>
        <time>2020-10-15T07:39:34Z</time>
      </trkpt>
      <trkpt lat="37.766883000" lon="-3.787674000">
        <ele>567.9</ele>
        <time>2020-10-15T07:39:36Z</time>
      </trkpt>
      <trkpt lat="37.766951000" lon="-3.787550000">
        <ele>567.2</ele>
        <time>2020-10-15T07:39:39Z</time>
      </trkpt>
      <trkpt lat="37.766996000" lon="-3.787465000">
        <ele>566.3</ele>
        <time>2020-10-15T07:39:41Z</time>
      </trkpt>
      <trkpt lat="37.767055000" lon="-3.787376000">
        <ele>565.2</ele>
        <time>2020-10-15T07:39:43Z</time>
      </trkpt>
      <trkpt lat="37.767144000" lon="-3.787329000">
        <ele>564.0</ele>
        <time>2020-10-15T07:39:46Z</time>
      </trkpt>
      <trkpt lat="37.767244000" lon="-3.787353000">
        <ele>562.6</ele>
        <time>2020-10-15T07:39:49Z</time>
      </trkpt>
      <trkpt lat="37.767346000" lon="-3.787374000">
        <ele>561.3</ele>
        <time>2020-10-15T07:39:51Z</time>
      </trkpt>
      <trkpt lat="37.767434000" lon="-3.787376000">
        <ele>560.0</ele>
        <time>2020-10-15T07:39:53Z</time>
      </trkpt>
      <trkpt lat="37.767515000" lon="-3.787377000">
        <ele>559.0</ele>
        <time>2020-10-15T07:39:55Z</time>
      </trkpt>
      <trkpt lat="37.767598000" lon="-3.787387000">
        <ele>558.2</ele>
        <time>2020-10-15T07:39:57Z</time>
      </trkpt>
      <trkpt lat="37.767696000" lon="-3.787371000">
        <ele>557.6</ele>
        <time>2020-10-15T07:40:00Z</time>
      </trkpt>
      <trkpt lat="37.767792000" lon="-3.787345000">
        <ele>557.4</ele>
        <time>2020-10-15T07:40:03Z</time>
      </trkpt>
      <trkpt lat="37.767896000" lon="-3.787289000">
        <ele>557.4</ele>
        <time>2020-10-15T07:40:07Z</time>
      </trkpt>
      <trkpt lat="37.767986000" lon="-3.787244000">
        <ele>557.5</ele>
        <time>2020-10-15T07:40:10Z</time>
      </trkpt>
      <trkpt lat="37.768083000" lon="-3.787210000">
        <ele>557.9</ele>
        <time>2020-10-15T07:40:13Z</time>
      </trkpt>
      <trkpt lat="37.768193000" lon="-3.787164000">
        <ele>558.4</ele>
        <time>2020-10-15T07:40:16Z</time>
      </trkpt>
      <trkpt lat="37.768299000" lon="-3.787125000">
        <ele>559.0</ele>
        <time>2020-10-15T07:40:19Z</time>
      </trkpt>
      <trkpt lat="37.768377000" lon="-3.787084000">
        <ele>559.6</ele>
        <time>2020-10-15T07:40:22Z</time>
      </trkpt>
      <trkpt lat="37.768462000" lon="-3.787029000">
        <ele>560.3</ele>
        <time>2020-10-15T07:40:26Z</time>
      </trkpt>
      <trkpt lat="37.768535000" lon="-3.786979000">
        <ele>560.9</ele>
        <time>2020-10-15T07:40:31Z</time>
      </trkpt>
      <trkpt lat="37.768622000" lon="-3.786943000">
        <ele>561.5</ele>
        <time>2020-10-15T07:40:36Z</time>
      </trkpt>
      <trkpt lat="37.768710000" lon="-3.786926000">
        <ele>562.0</ele>
        <time>2020-10-15T07:40:39Z</time>
      </trkpt>
      <trkpt lat="37.768796000" lon="-3.786901000">
        <ele>562.5</ele>
        <time>2020-10-15T07:40:41Z</time>
      </trkpt>
      <trkpt lat="37.768885000" lon="-3.786872000">
        <ele>562.9</ele>
        <time>2020-10-15T07:40:43Z</time>
      </trkpt>
      <trkpt lat="37.768972000" lon="-3.786845000">
        <ele>563.4</ele>
        <time>2020-10-15T07:40:45Z</time>
      </trkpt>
      <trkpt lat="37.769062000" lon="-3.786818000">
        <ele>563.6</ele>
        <time>2020-10-15T07:40:47Z</time>
      </trkpt>
      <trkpt lat="37.769148000" lon="-3.786795000">
        <ele>563.8</ele>
        <time>2020-10-15T07:40:49Z</time>
      </trkpt>
      <trkpt lat="37.769253000" lon="-3.786772000">
        <ele>563.8</ele>
        <time>2020-10-15T07:40:52Z</time>
      </trkpt>
      <trkpt lat="37.769370000" lon="-3.786764000">
        <ele>563.6</ele>
        <time>2020-10-15T07:40:55Z</time>
      </trkpt>
      <trkpt lat="37.769458000" lon="-3.786763000">
        <ele>563.3</ele>
        <time>2020-10-15T07:40:56Z</time>
      </trkpt>
      <trkpt lat="37.769578000" lon="-3.786735000">
        <ele>562.7</ele>
        <time>2020-10-15T07:40:58Z</time>
      </trkpt>
      <trkpt lat="37.769702000" lon="-3.786686000">
        <ele>562.0</ele>
        <time>2020-10-15T07:41:00Z</time>
      </trkpt>
      <trkpt lat="37.769833000" lon="-3.786646000">
        <ele>561.2</ele>
        <time>2020-10-15T07:41:02Z</time>
      </trkpt>
      <trkpt lat="37.769951000" lon="-3.786620000">
        <ele>560.3</ele>
        <time>2020-10-15T07:41:04Z</time>
      </trkpt>
      <trkpt lat="37.770051000" lon="-3.786587000">
        <ele>559.4</ele>
        <time>2020-10-15T07:41:06Z</time>
      </trkpt>
      <trkpt lat="37.770148000" lon="-3.786574000">
        <ele>558.4</ele>
        <time>2020-10-15T07:41:08Z</time>
      </trkpt>
      <trkpt lat="37.770233000" lon="-3.786564000">
        <ele>557.5</ele>
        <time>2020-10-15T07:41:10Z</time>
      </trkpt>
      <trkpt lat="37.770315000" lon="-3.786548000">
        <ele>556.6</ele>
        <time>2020-10-15T07:41:13Z</time>
      </trkpt>
      <trkpt lat="37.770409000" lon="-3.786551000">
        <ele>555.7</ele>
        <time>2020-10-15T07:41:18Z</time>
      </trkpt>
      <trkpt lat="37.770516000" lon="-3.786538000">
        <ele>554.9</ele>
        <time>2020-10-15T07:41:20Z</time>
      </trkpt>
      <trkpt lat="37.770611000" lon="-3.786536000">
        <ele>554.0</ele>
        <time>2020-10-15T07:41:23Z</time>
      </trkpt>
      <trkpt lat="37.770693000" lon="-3.786497000">
        <ele>553.1</ele>
        <time>2020-10-15T07:41:24Z</time>
      </trkpt>
      <trkpt lat="37.770844000" lon="-3.786471000">
        <ele>552.1</ele>
        <time>2020-10-15T07:41:26Z</time>
      </trkpt>
      <trkpt lat="37.770975000" lon="-3.786446000">
        <ele>550.9</ele>
        <time>2020-10-15T07:41:28Z</time>
      </trkpt>
      <trkpt lat="37.771062000" lon="-3.786446000">
        <ele>549.5</ele>
        <time>2020-10-15T07:41:29Z</time>
      </trkpt>
      <trkpt lat="37.771214000" lon="-3.786440000">
        <ele>548.0</ele>
        <time>2020-10-15T07:41:31Z</time>
      </trkpt>
      <trkpt lat="37.771298000" lon="-3.786434000">
        <ele>546.4</ele>
        <time>2020-10-15T07:41:32Z</time>
      </trkpt>
      <trkpt lat="37.771449000" lon="-3.786407000">
        <ele>544.6</ele>
        <time>2020-10-15T07:41:34Z</time>
      </trkpt>
      <trkpt lat="37.771602000" lon="-3.786378000">
        <ele>542.8</ele>
        <time>2020-10-15T07:41:36Z</time>
      </trkpt>
      <trkpt lat="37.771762000" lon="-3.786324000">
        <ele>541.2</ele>
        <time>2020-10-15T07:41:38Z</time>
      </trkpt>
      <trkpt lat="37.771924000" lon="-3.786291000">
        <ele>539.5</ele>
        <time>2020-10-15T07:41:40Z</time>
      </trkpt>
      <trkpt lat="37.772085000" lon="-3.786267000">
        <ele>538.0</ele>
        <time>2020-10-15T07:41:42Z</time>
      </trkpt>
      <trkpt lat="37.772174000" lon="-3.786266000">
        <ele>536.4</ele>
        <time>2020-10-15T07:41:43Z</time>
      </trkpt>
      <trkpt lat="37.772259000" lon="-3.786264000">
        <ele>534.7</ele>
        <time>2020-10-15T07:41:44Z</time>
      </trkpt>
      <trkpt lat="37.772421000" lon="-3.786244000">
        <ele>533.2</ele>
        <time>2020-10-15T07:41:46Z</time>
      </trkpt>
      <trkpt lat="37.772583000" lon="-3.786216000">
        <ele>532.0</ele>
        <time>2020-10-15T07:41:48Z</time>
      </trkpt>
      <trkpt lat="37.772664000" lon="-3.786208000">
        <ele>531.1</ele>
        <time>2020-10-15T07:41:49Z</time>
      </trkpt>
      <trkpt lat="37.772824000" lon="-3.786194000">
        <ele>530.4</ele>
        <time>2020-10-15T07:41:51Z</time>
      </trkpt>
      <trkpt lat="37.772987000" lon="-3.786176000">
        <ele>529.6</ele>
        <time>2020-10-15T07:41:53Z</time>
      </trkpt>
      <trkpt lat="37.773140000" lon="-3.786148000">
        <ele>528.9</ele>
        <time>2020-10-15T07:41:55Z</time>
      </trkpt>
      <trkpt lat="37.773285000" lon="-3.786123000">
        <ele>528.0</ele>
        <time>2020-10-15T07:41:57Z</time>
      </trkpt>
      <trkpt lat="37.773435000" lon="-3.786085000">
        <ele>527.1</ele>
        <time>2020-10-15T07:41:59Z</time>
      </trkpt>
      <trkpt lat="37.773579000" lon="-3.786061000">
        <ele>526.3</ele>
        <time>2020-10-15T07:42:01Z</time>
      </trkpt>
      <trkpt lat="37.773729000" lon="-3.786041000">
        <ele>525.5</ele>
        <time>2020-10-15T07:42:03Z</time>
      </trkpt>
      <trkpt lat="37.773862000" lon="-3.786017000">
        <ele>525.1</ele>
        <time>2020-10-15T07:42:05Z</time>
      </trkpt>
      <trkpt lat="37.774004000" lon="-3.785998000">
        <ele>524.7</ele>
        <time>2020-10-15T07:42:07Z</time>
      </trkpt>
      <trkpt lat="37.774145000" lon="-3.785966000">
        <ele>524.4</ele>
        <time>2020-10-15T07:42:09Z</time>
      </trkpt>
      <trkpt lat="37.774278000" lon="-3.785942000">
        <ele>523.9</ele>
        <time>2020-10-15T07:42:11Z</time>
      </trkpt>
      <trkpt lat="37.774408000" lon="-3.785916000">
        <ele>523.5</ele>
        <time>2020-10-15T07:42:13Z</time>
      </trkpt>
      <trkpt lat="37.774524000" lon="-3.785895000">
        <ele>522.9</ele>
        <time>2020-10-15T07:42:15Z</time>
      </trkpt>
      <trkpt lat="37.774653000" lon="-3.785874000">
        <ele>522.3</ele>
        <time>2020-10-15T07:42:17Z</time>
      </trkpt>
      <trkpt lat="37.774772000" lon="-3.785846000">
        <ele>521.6</ele>
        <time>2020-10-15T07:42:19Z</time>
      </trkpt>
      <trkpt lat="37.774895000" lon="-3.785840000">
        <ele>521.0</ele>
        <time>2020-10-15T07:42:21Z</time>
      </trkpt>
      <trkpt lat="37.774996000" lon="-3.785828000">
        <ele>520.2</ele>
        <time>2020-10-15T07:42:23Z</time>
      </trkpt>
      <trkpt lat="37.775099000" lon="-3.785817000">
        <ele>519.3</ele>
        <time>2020-10-15T07:42:26Z</time>
      </trkpt>
      <trkpt lat="37.775180000" lon="-3.785856000">
        <ele>518.2</ele>
        <time>2020-10-15T07:42:56Z</time>
      </trkpt>
      <trkpt lat="37.775268000" lon="-3.785792000">
        <ele>517.0</ele>
        <time>2020-10-15T07:42:59Z</time>
      </trkpt>
      <trkpt lat="37.775362000" lon="-3.785784000">
        <ele>515.5</ele>
        <time>2020-10-15T07:43:01Z</time>
      </trkpt>
      <trkpt lat="37.775480000" lon="-3.785770000">
        <ele>514.0</ele>
        <time>2020-10-15T07:43:03Z</time>
      </trkpt>
      <trkpt lat="37.775612000" lon="-3.785755000">
        <ele>512.5</ele>
        <time>2020-10-15T07:43:05Z</time>
      </trkpt>
      <trkpt lat="37.775756000" lon="-3.785746000">
        <ele>511.1</ele>
        <time>2020-10-15T07:43:07Z</time>
      </trkpt>
      <trkpt lat="37.775907000" lon="-3.785732000">
        <ele>509.9</ele>
        <time>2020-10-15T07:43:09Z</time>
      </trkpt>
      <trkpt lat="37.776068000" lon="-3.785714000">
        <ele>508.9</ele>
        <time>2020-10-15T07:43:11Z</time>
      </trkpt>
      <trkpt lat="37.776152000" lon="-3.785705000">
        <ele>507.9</ele>
        <time>2020-10-15T07:43:12Z</time>
      </trkpt>
      <trkpt lat="37.776241000" lon="-3.785694000">
        <ele>507.1</ele>
        <time>2020-10-15T07:43:13Z</time>
      </trkpt>
      <trkpt lat="37.776322000" lon="-3.785679000">
        <ele>506.5</ele>
        <time>2020-10-15T07:43:14Z</time>
      </trkpt>
      <trkpt lat="37.776410000" lon="-3.785666000">
        <ele>505.9</ele>
        <time>2020-10-15T07:43:15Z</time>
      </trkpt>
      <trkpt lat="37.776498000" lon="-3.785649000">
        <ele>505.4</ele>
        <time>2020-10-15T07:43:16Z</time>
      </trkpt>
      <trkpt lat="37.776579000" lon="-3.785632000">
        <ele>504.9</ele>
        <time>2020-10-15T07:43:17Z</time>
      </trkpt>
      <trkpt lat="37.776725000" lon="-3.785578000">
        <ele>504.5</ele>
        <time>2020-10-15T07:43:19Z</time>
      </trkpt>
      <trkpt lat="37.776877000" lon="-3.785547000">
        <ele>503.9</ele>
        <time>2020-10-15T07:43:22Z</time>
      </trkpt>
      <trkpt lat="37.777019000" lon="-3.785507000">
        <ele>503.4</ele>
        <time>2020-10-15T07:43:23Z</time>
      </trkpt>
      <trkpt lat="37.777141000" lon="-3.785477000">
        <ele>502.8</ele>
        <time>2020-10-15T07:43:25Z</time>
      </trkpt>
      <trkpt lat="37.777285000" lon="-3.785451000">
        <ele>502.4</ele>
        <time>2020-10-15T07:43:27Z</time>
      </trkpt>
      <trkpt lat="37.777432000" lon="-3.785417000">
        <ele>502.1</ele>
        <time>2020-10-15T07:43:29Z</time>
      </trkpt>
      <trkpt lat="37.777577000" lon="-3.785394000">
        <ele>501.7</ele>
        <time>2020-10-15T07:43:31Z</time>
      </trkpt>
      <trkpt lat="37.777720000" lon="-3.785370000">
        <ele>501.4</ele>
        <time>2020-10-15T07:43:33Z</time>
      </trkpt>
      <trkpt lat="37.777854000" lon="-3.785341000">
        <ele>501.1</ele>
        <time>2020-10-15T07:43:35Z</time>
      </trkpt>
      <trkpt lat="37.777976000" lon="-3.785313000">
        <ele>500.7</ele>
        <time>2020-10-15T07:43:37Z</time>
      </trkpt>
      <trkpt lat="37.778105000" lon="-3.785296000">
        <ele>500.5</ele>
        <time>2020-10-15T07:43:39Z</time>
      </trkpt>
      <trkpt lat="37.778213000" lon="-3.785271000">
        <ele>500.1</ele>
        <time>2020-10-15T07:43:41Z</time>
      </trkpt>
      <trkpt lat="37.778301000" lon="-3.785248000">
        <ele>499.6</ele>
        <time>2020-10-15T07:43:44Z</time>
      </trkpt>
      <trkpt lat="37.778379000" lon="-3.785186000">
        <ele>499.2</ele>
        <time>2020-10-15T07:43:56Z</time>
      </trkpt>
      <trkpt lat="37.778460000" lon="-3.785123000">
        <ele>498.6</ele>
        <time>2020-10-15T07:44:00Z</time>
      </trkpt>
      <trkpt lat="37.778505000" lon="-3.785034000">
        <ele>497.8</ele>
        <time>2020-10-15T07:44:09Z</time>
      </trkpt>
      <trkpt lat="37.778591000" lon="-3.785077000">
        <ele>496.8</ele>
        <time>2020-10-15T07:44:14Z</time>
      </trkpt>
      <trkpt lat="37.778669000" lon="-3.785102000">
        <ele>495.8</ele>
        <time>2020-10-15T07:44:46Z</time>
      </trkpt>
      <trkpt lat="37.778709000" lon="-3.785199000">
        <ele>494.6</ele>
        <time>2020-10-15T07:45:05Z</time>
      </trkpt>
      <trkpt lat="37.778820000" lon="-3.785204000">
        <ele>493.5</ele>
        <time>2020-10-15T07:45:10Z</time>
      </trkpt>
      <trkpt lat="37.778923000" lon="-3.785193000">
        <ele>492.4</ele>
        <time>2020-10-15T07:45:13Z</time>
      </trkpt>
      <trkpt lat="37.779013000" lon="-3.785192000">
        <ele>491.3</ele>
        <time>2020-10-15T07:45:16Z</time>
      </trkpt>
      <trkpt lat="37.779104000" lon="-3.785194000">
        <ele>490.4</ele>
        <time>2020-10-15T07:45:19Z</time>
      </trkpt>
      <trkpt lat="37.779202000" lon="-3.785188000">
        <ele>489.6</ele>
        <time>2020-10-15T07:45:22Z</time>
      </trkpt>
      <trkpt lat="37.779299000" lon="-3.785144000">
        <ele>489.0</ele>
        <time>2020-10-15T07:45:25Z</time>
      </trkpt>
      <trkpt lat="37.779402000" lon="-3.785135000">
        <ele>488.5</ele>
        <time>2020-10-15T07:45:28Z</time>
      </trkpt>
      <trkpt lat="37.779493000" lon="-3.785166000">
        <ele>488.2</ele>
        <time>2020-10-15T07:45:31Z</time>
      </trkpt>
      <trkpt lat="37.779595000" lon="-3.785211000">
        <ele>488.1</ele>
        <time>2020-10-15T07:45:34Z</time>
      </trkpt>
      <trkpt lat="37.779672000" lon="-3.785257000">
        <ele>488.1</ele>
        <time>2020-10-15T07:45:37Z</time>
      </trkpt>
      <trkpt lat="37.779691000" lon="-3.785366000">
        <ele>488.4</ele>
        <time>2020-10-15T07:45:41Z</time>
      </trkpt>
      <trkpt lat="37.779652000" lon="-3.785491000">
        <ele>488.8</ele>
        <time>2020-10-15T07:45:44Z</time>
      </trkpt>
      <trkpt lat="37.779605000" lon="-3.785593000">
        <ele>489.5</ele>
        <time>2020-10-15T07:45:47Z</time>
      </trkpt>
      <trkpt lat="37.779552000" lon="-3.785710000">
        <ele>490.2</ele>
        <time>2020-10-15T07:45:50Z</time>
      </trkpt>
      <trkpt lat="37.779516000" lon="-3.785803000">
        <ele>491.0</ele>
        <time>2020-10-15T07:45:52Z</time>
      </trkpt>
      <trkpt lat="37.779484000" lon="-3.785903000">
        <ele>491.9</ele>
        <time>2020-10-15T07:45:54Z</time>
      </trkpt>
      <trkpt lat="37.779466000" lon="-3.786017000">
        <ele>492.6</ele>
        <time>2020-10-15T07:45:56Z</time>
      </trkpt>
      <trkpt lat="37.779447000" lon="-3.786129000">
        <ele>493.5</ele>
        <time>2020-10-15T07:45:58Z</time>
      </trkpt>
      <trkpt lat="37.779438000" lon="-3.786246000">
        <ele>494.2</ele>
        <time>2020-10-15T07:46:00Z</time>
      </trkpt>
      <trkpt lat="37.779416000" lon="-3.786359000">
        <ele>494.8</ele>
        <time>2020-10-15T07:46:02Z</time>
      </trkpt>
      <trkpt lat="37.779401000" lon="-3.786482000">
        <ele>495.5</ele>
        <time>2020-10-15T07:46:04Z</time>
      </trkpt>
      <trkpt lat="37.779380000" lon="-3.786594000">
        <ele>496.2</ele>
        <time>2020-10-15T07:46:06Z</time>
      </trkpt>
      <trkpt lat="37.779361000" lon="-3.786710000">
        <ele>496.6</ele>
        <time>2020-10-15T07:46:08Z</time>
      </trkpt>
      <trkpt lat="37.779352000" lon="-3.786823000">
        <ele>497.0</ele>
        <time>2020-10-15T07:46:10Z</time>
      </trkpt>
      <trkpt lat="37.779344000" lon="-3.786933000">
        <ele>497.3</ele>
        <time>2020-10-15T07:46:12Z</time>
      </trkpt>
      <trkpt lat="37.779347000" lon="-3.787046000">
        <ele>497.4</ele>
        <time>2020-10-15T07:46:14Z</time>
      </trkpt>
      <trkpt lat="37.779349000" lon="-3.787153000">
        <ele>497.4</ele>
        <time>2020-10-15T07:46:16Z</time>
      </trkpt>
      <trkpt lat="37.779353000" lon="-3.787297000">
        <ele>497.4</ele>
        <time>2020-10-15T07:46:19Z</time>
      </trkpt>
      <trkpt lat="37.779363000" lon="-3.787415000">
        <ele>497.3</ele>
        <time>2020-10-15T07:46:22Z</time>
      </trkpt>
      <trkpt lat="37.779380000" lon="-3.787543000">
        <ele>497.1</ele>
        <time>2020-10-15T07:46:26Z</time>
      </trkpt>
      <trkpt lat="37.779390000" lon="-3.787661000">
        <ele>496.8</ele>
        <time>2020-10-15T07:46:30Z</time>
      </trkpt>
      <trkpt lat="37.779407000" lon="-3.787796000">
        <ele>496.5</ele>
        <time>2020-10-15T07:46:34Z</time>
      </trkpt>
      <trkpt lat="37.779434000" lon="-3.787911000">
        <ele>496.1</ele>
        <time>2020-10-15T07:46:37Z</time>
      </trkpt>
      <trkpt lat="37.779468000" lon="-3.788038000">
        <ele>495.6</ele>
        <time>2020-10-15T07:46:40Z</time>
      </trkpt>
      <trkpt lat="37.779507000" lon="-3.788168000">
        <ele>495.1</ele>
        <time>2020-10-15T07:46:43Z</time>
      </trkpt>
      <trkpt lat="37.779550000" lon="-3.788300000">
        <ele>494.5</ele>
        <time>2020-10-15T07:46:46Z</time>
      </trkpt>
      <trkpt lat="37.779601000" lon="-3.788434000">
        <ele>493.9</ele>
        <time>2020-10-15T07:46:49Z</time>
      </trkpt>
      <trkpt lat="37.779657000" lon="-3.788564000">
        <ele>493.3</ele>
        <time>2020-10-15T07:46:52Z</time>
      </trkpt>
      <trkpt lat="37.779706000" lon="-3.788687000">
        <ele>492.7</ele>
        <time>2020-10-15T07:46:55Z</time>
      </trkpt>
      <trkpt lat="37.779754000" lon="-3.788812000">
        <ele>492.1</ele>
        <time>2020-10-15T07:46:58Z</time>
      </trkpt>
      <trkpt lat="37.779808000" lon="-3.788926000">
        <ele>491.5</ele>
        <time>2020-10-15T07:47:01Z</time>
      </trkpt>
      <trkpt lat="37.779872000" lon="-3.789055000">
        <ele>490.8</ele>
        <time>2020-10-15T07:47:04Z</time>
      </trkpt>
      <trkpt lat="37.779916000" lon="-3.789147000">
        <ele>490.2</ele>
        <time>2020-10-15T07:47:06Z</time>
      </trkpt>
      <trkpt lat="37.779965000" lon="-3.789239000">
        <ele>489.5</ele>
        <time>2020-10-15T07:47:08Z</time>
      </trkpt>
      <trkpt lat="37.780012000" lon="-3.789329000">
        <ele>488.8</ele>
        <time>2020-10-15T07:47:10Z</time>
      </trkpt>
      <trkpt lat="37.780060000" lon="-3.789414000">
        <ele>488.2</ele>
        <time>2020-10-15T07:47:12Z</time>
      </trkpt>
      <trkpt lat="37.780113000" lon="-3.789491000">
        <ele>487.6</ele>
        <time>2020-10-15T07:47:14Z</time>
      </trkpt>
      <trkpt lat="37.780182000" lon="-3.789556000">
        <ele>487.1</ele>
        <time>2020-10-15T07:47:16Z</time>
      </trkpt>
      <trkpt lat="37.780271000" lon="-3.789618000">
        <ele>486.6</ele>
        <time>2020-10-15T07:47:18Z</time>
      </trkpt>
      <trkpt lat="37.780336000" lon="-3.789708000">
        <ele>486.3</ele>
        <time>2020-10-15T07:47:20Z</time>
      </trkpt>
      <trkpt lat="37.780393000" lon="-3.789804000">
        <ele>486.0</ele>
        <time>2020-10-15T07:47:22Z</time>
      </trkpt>
      <trkpt lat="37.780411000" lon="-3.789920000">
        <ele>485.8</ele>
        <time>2020-10-15T07:47:24Z</time>
      </trkpt>
      <trkpt lat="37.780395000" lon="-3.790034000">
        <ele>485.8</ele>
        <time>2020-10-15T07:47:26Z</time>
      </trkpt>
      <trkpt lat="37.780339000" lon="-3.790132000">
        <ele>485.8</ele>
        <time>2020-10-15T07:47:28Z</time>
      </trkpt>
      <trkpt lat="37.780267000" lon="-3.790196000">
        <ele>485.9</ele>
        <time>2020-10-15T07:47:30Z</time>
      </trkpt>
      <trkpt lat="37.780200000" lon="-3.790257000">
        <ele>486.1</ele>
        <time>2020-10-15T07:47:32Z</time>
      </trkpt>
      <trkpt lat="37.780122000" lon="-3.790347000">
        <ele>486.4</ele>
        <time>2020-10-15T07:47:35Z</time>
      </trkpt>
      <trkpt lat="37.780067000" lon="-3.790436000">
        <ele>486.7</ele>
        <time>2020-10-15T07:47:38Z</time>
      </trkpt>
      <trkpt lat="37.780008000" lon="-3.790515000">
        <ele>487.1</ele>
        <time>2020-10-15T07:47:41Z</time>
      </trkpt>
      <trkpt lat="37.779912000" lon="-3.790556000">
        <ele>487.5</ele>
        <time>2020-10-15T07:47:45Z</time>
      </trkpt>
      <trkpt lat="37.779806000" lon="-3.790592000">
        <ele>487.6</ele>
        <time>2020-10-15T07:47:49Z</time>
      </trkpt>
      <trkpt lat="37.779710000" lon="-3.790628000">
        <ele>487.7</ele>
        <time>2020-10-15T07:47:52Z</time>
      </trkpt>
      <trkpt lat="37.779598000" lon="-3.790646000">
        <ele>487.7</ele>
        <time>2020-10-15T07:47:55Z</time>
      </trkpt>
      <trkpt lat="37.779487000" lon="-3.790645000">
        <ele>487.6</ele>
        <time>2020-10-15T07:47:58Z</time>
      </trkpt>
      <trkpt lat="37.779442000" lon="-3.790542000">
        <ele>487.5</ele>
        <time>2020-10-15T07:48:01Z</time>
      </trkpt>
      <trkpt lat="37.779483000" lon="-3.790433000">
        <ele>487.5</ele>
        <time>2020-10-15T07:48:04Z</time>
      </trkpt>
      <trkpt lat="37.779552000" lon="-3.790348000">
        <ele>487.3</ele>
        <time>2020-10-15T07:48:07Z</time>
      </trkpt>
      <trkpt lat="37.779640000" lon="-3.790286000">
        <ele>487.1</ele>
        <time>2020-10-15T07:48:10Z</time>
      </trkpt>
      <trkpt lat="37.779735000" lon="-3.790232000">
        <ele>486.9</ele>
        <time>2020-10-15T07:48:13Z</time>
      </trkpt>
      <trkpt lat="37.779817000" lon="-3.790179000">
        <ele>486.7</ele>
        <time>2020-10-15T07:48:16Z</time>
      </trkpt>
      <trkpt lat="37.779886000" lon="-3.790099000">
        <ele>486.5</ele>
        <time>2020-10-15T07:48:19Z</time>
      </trkpt>
      <trkpt lat="37.779903000" lon="-3.789996000">
        <ele>486.5</ele>
        <time>2020-10-15T07:48:22Z</time>
      </trkpt>
      <trkpt lat="37.779853000" lon="-3.789872000">
        <ele>486.6</ele>
        <time>2020-10-15T07:48:26Z</time>
      </trkpt>
      <trkpt lat="37.779771000" lon="-3.789822000">
        <ele>486.9</ele>
        <time>2020-10-15T07:48:29Z</time>
      </trkpt>
      <trkpt lat="37.779684000" lon="-3.789808000">
        <ele>487.3</ele>
        <time>2020-10-15T07:48:32Z</time>
      </trkpt>
      <trkpt lat="37.779596000" lon="-3.789786000">
        <ele>487.8</ele>
        <time>2020-10-15T07:48:35Z</time>
      </trkpt>
      <trkpt lat="37.779513000" lon="-3.789771000">
        <ele>488.5</ele>
        <time>2020-10-15T07:48:38Z</time>
      </trkpt>
      <trkpt lat="37.779432000" lon="-3.789804000">
        <ele>489.1</ele>
        <time>2020-10-15T07:48:42Z</time>
      </trkpt>
      <trkpt lat="37.779377000" lon="-3.789881000">
        <ele>489.6</ele>
        <time>2020-10-15T07:48:46Z</time>
      </trkpt>
      <trkpt lat="37.779284000" lon="-3.789934000">
        <ele>490.1</ele>
        <time>2020-10-15T07:48:50Z</time>
      </trkpt>
      <trkpt lat="37.779190000" lon="-3.789947000">
        <ele>490.5</ele>
        <time>2020-10-15T07:48:53Z</time>
      </trkpt>
      <trkpt lat="37.779092000" lon="-3.789968000">
        <ele>491.0</ele>
        <time>2020-10-15T07:48:57Z</time>
      </trkpt>
      <trkpt lat="37.779090000" lon="-3.790101000">
        <ele>491.4</ele>
        <time>2020-10-15T07:49:02Z</time>
      </trkpt>
      <trkpt lat="37.779128000" lon="-3.790222000">
        <ele>491.8</ele>
        <time>2020-10-15T07:49:05Z</time>
      </trkpt>
      <trkpt lat="37.779161000" lon="-3.790358000">
        <ele>492.3</ele>
        <time>2020-10-15T07:49:08Z</time>
      </trkpt>
      <trkpt lat="37.779192000" lon="-3.790479000">
        <ele>492.8</ele>
        <time>2020-10-15T07:49:11Z</time>
      </trkpt>
      <trkpt lat="37.779225000" lon="-3.790612000">
        <ele>493.2</ele>
        <time>2020-10-15T07:49:14Z</time>
      </trkpt>
      <trkpt lat="37.779249000" lon="-3.790730000">
        <ele>493.5</ele>
        <time>2020-10-15T07:49:17Z</time>
      </trkpt>
      <trkpt lat="37.779211000" lon="-3.790844000">
        <ele>493.7</ele>
        <time>2020-10-15T07:49:21Z</time>
      </trkpt>
      <trkpt lat="37.779120000" lon="-3.790877000">
        <ele>494.0</ele>
        <time>2020-10-15T07:49:56Z</time>
      </trkpt>
      <trkpt lat="37.779045000" lon="-3.790933000">
        <ele>494.3</ele>
        <time>2020-10-15T07:50:00Z</time>
      </trkpt>
      <trkpt lat="37.779060000" lon="-3.791036000">
        <ele>494.5</ele>
        <time>2020-10-15T07:50:07Z</time>
      </trkpt>
      <trkpt lat="37.779095000" lon="-3.791135000">
        <ele>495.0</ele>
        <time>2020-10-15T07:50:10Z</time>
      </trkpt>
      <trkpt lat="37.779163000" lon="-3.791257000">
        <ele>495.5</ele>
        <time>2020-10-15T07:50:12Z</time>
      </trkpt>
      <trkpt lat="37.779211000" lon="-3.791382000">
        <ele>496.1</ele>
        <time>2020-10-15T07:50:14Z</time>
      </trkpt>
      <trkpt lat="37.779243000" lon="-3.791485000">
        <ele>496.6</ele>
        <time>2020-10-15T07:50:16Z</time>
      </trkpt>
      <trkpt lat="37.779169000" lon="-3.791562000">
        <ele>497.2</ele>
        <time>2020-10-15T07:50:20Z</time>
      </trkpt>
      <trkpt lat="37.779078000" lon="-3.791627000">
        <ele>497.5</ele>
        <time>2020-10-15T07:50:22Z</time>
      </trkpt>
      <trkpt lat="37.778980000" lon="-3.791704000">
        <ele>497.7</ele>
        <time>2020-10-15T07:50:25Z</time>
      </trkpt>
      <trkpt lat="37.778897000" lon="-3.791803000">
        <ele>497.6</ele>
        <time>2020-10-15T07:50:28Z</time>
      </trkpt>
      <trkpt lat="37.778826000" lon="-3.791854000">
        <ele>497.5</ele>
        <time>2020-10-15T07:50:30Z</time>
      </trkpt>
      <trkpt lat="37.778749000" lon="-3.791905000">
        <ele>497.4</ele>
        <time>2020-10-15T07:50:33Z</time>
      </trkpt>
      <trkpt lat="37.778771000" lon="-3.792016000">
        <ele>497.2</ele>
        <time>2020-10-15T07:50:36Z</time>
      </trkpt>
      <trkpt lat="37.778820000" lon="-3.792157000">
        <ele>496.8</ele>
        <time>2020-10-15T07:50:39Z</time>
      </trkpt>
      <trkpt lat="37.778875000" lon="-3.792281000">
        <ele>496.4</ele>
        <time>2020-10-15T07:50:42Z</time>
      </trkpt>
      <trkpt lat="37.778912000" lon="-3.792376000">
        <ele>495.9</ele>
        <time>2020-10-15T07:50:44Z</time>
      </trkpt>
      <trkpt lat="37.778952000" lon="-3.792469000">
        <ele>495.5</ele>
        <time>2020-10-15T07:50:46Z</time>
      </trkpt>
      <trkpt lat="37.778988000" lon="-3.792571000">
        <ele>494.9</ele>
        <time>2020-10-15T07:50:48Z</time>
      </trkpt>
      <trkpt lat="37.779028000" lon="-3.792662000">
        <ele>494.6</ele>
        <time>2020-10-15T07:50:50Z</time>
      </trkpt>
      <trkpt lat="37.779084000" lon="-3.792793000">
        <ele>494.6</ele>
        <time>2020-10-15T07:50:53Z</time>
      </trkpt>
      <trkpt lat="37.779141000" lon="-3.792921000">
        <ele>494.9</ele>
        <time>2020-10-15T07:50:56Z</time>
      </trkpt>
      <trkpt lat="37.779179000" lon="-3.793013000">
        <ele>495.3</ele>
        <time>2020-10-15T07:50:58Z</time>
      </trkpt>
      <trkpt lat="37.779217000" lon="-3.793114000">
        <ele>495.6</ele>
        <time>2020-10-15T07:51:00Z</time>
      </trkpt>
      <trkpt lat="37.779259000" lon="-3.793208000">
        <ele>495.9</ele>
        <time>2020-10-15T07:51:02Z</time>
      </trkpt>
      <trkpt lat="37.779298000" lon="-3.793302000">
        <ele>496.1</ele>
        <time>2020-10-15T07:51:04Z</time>
      </trkpt>
      <trkpt lat="37.779335000" lon="-3.793394000">
        <ele>496.3</ele>
        <time>2020-10-15T07:51:06Z</time>
      </trkpt>
      <trkpt lat="37.779372000" lon="-3.793490000">
        <ele>496.4</ele>
        <time>2020-10-15T07:51:08Z</time>
      </trkpt>
      <trkpt lat="37.779422000" lon="-3.793612000">
        <ele>496.4</ele>
        <time>2020-10-15T07:51:11Z</time>
      </trkpt>
      <trkpt lat="37.779466000" lon="-3.793748000">
        <ele>496.4</ele>
        <time>2020-10-15T07:51:14Z</time>
      </trkpt>
      <trkpt lat="37.779514000" lon="-3.793885000">
        <ele>496.3</ele>
        <time>2020-10-15T07:51:17Z</time>
      </trkpt>
      <trkpt lat="37.779548000" lon="-3.793980000">
        <ele>496.1</ele>
        <time>2020-10-15T07:51:19Z</time>
      </trkpt>
      <trkpt lat="37.779586000" lon="-3.794075000">
        <ele>496.0</ele>
        <time>2020-10-15T07:51:21Z</time>
      </trkpt>
      <trkpt lat="37.779640000" lon="-3.794208000">
        <ele>495.9</ele>
        <time>2020-10-15T07:51:24Z</time>
      </trkpt>
      <trkpt lat="37.779690000" lon="-3.794342000">
        <ele>495.9</ele>
        <time>2020-10-15T07:51:27Z</time>
      </trkpt>
      <trkpt lat="37.779736000" lon="-3.794461000">
        <ele>496.0</ele>
        <time>2020-10-15T07:51:30Z</time>
      </trkpt>
      <trkpt lat="37.779788000" lon="-3.794601000">
        <ele>496.3</ele>
        <time>2020-10-15T07:51:33Z</time>
      </trkpt>
      <trkpt lat="37.779823000" lon="-3.794704000">
        <ele>496.5</ele>
        <time>2020-10-15T07:51:35Z</time>
      </trkpt>
      <trkpt lat="37.779852000" lon="-3.794807000">
        <ele>496.8</ele>
        <time>2020-10-15T07:51:37Z</time>
      </trkpt>
      <trkpt lat="37.779882000" lon="-3.794907000">
        <ele>497.1</ele>
        <time>2020-10-15T07:51:39Z</time>
      </trkpt>
      <trkpt lat="37.779911000" lon="-3.795005000">
        <ele>497.4</ele>
        <time>2020-10-15T07:51:41Z</time>
      </trkpt>
      <trkpt lat="37.779939000" lon="-3.795102000">
        <ele>497.6</ele>
        <time>2020-10-15T07:51:43Z</time>
      </trkpt>
      <trkpt lat="37.779967000" lon="-3.795199000">
        <ele>498.0</ele>
        <time>2020-10-15T07:51:45Z</time>
      </trkpt>
      <trkpt lat="37.780016000" lon="-3.795335000">
        <ele>498.3</ele>
        <time>2020-10-15T07:51:48Z</time>
      </trkpt>
      <trkpt lat="37.780047000" lon="-3.795436000">
        <ele>498.5</ele>
        <time>2020-10-15T07:51:50Z</time>
      </trkpt>
      <trkpt lat="37.780079000" lon="-3.795530000">
        <ele>498.8</ele>
        <time>2020-10-15T07:51:52Z</time>
      </trkpt>
      <trkpt lat="37.780125000" lon="-3.795667000">
        <ele>499.2</ele>
        <time>2020-10-15T07:51:55Z</time>
      </trkpt>
      <trkpt lat="37.780171000" lon="-3.795796000">
        <ele>499.5</ele>
        <time>2020-10-15T07:51:58Z</time>
      </trkpt>
      <trkpt lat="37.780210000" lon="-3.795919000">
        <ele>499.8</ele>
        <time>2020-10-15T07:52:01Z</time>
      </trkpt>
      <trkpt lat="37.780236000" lon="-3.796043000">
        <ele>500.2</ele>
        <time>2020-10-15T07:52:04Z</time>
      </trkpt>
      <trkpt lat="37.780255000" lon="-3.796174000">
        <ele>500.5</ele>
        <time>2020-10-15T07:52:07Z</time>
      </trkpt>
      <trkpt lat="37.780272000" lon="-3.796296000">
        <ele>500.8</ele>
        <time>2020-10-15T07:52:10Z</time>
      </trkpt>
      <trkpt lat="37.780276000" lon="-3.796423000">
        <ele>501.1</ele>
        <time>2020-10-15T07:52:13Z</time>
      </trkpt>
      <trkpt lat="37.780287000" lon="-3.796564000">
        <ele>501.4</ele>
        <time>2020-10-15T07:52:16Z</time>
      </trkpt>
      <trkpt lat="37.780297000" lon="-3.796702000">
        <ele>501.6</ele>
        <time>2020-10-15T07:52:19Z</time>
      </trkpt>
      <trkpt lat="37.780304000" lon="-3.796833000">
        <ele>501.8</ele>
        <time>2020-10-15T07:52:22Z</time>
      </trkpt>
      <trkpt lat="37.780308000" lon="-3.796950000">
        <ele>502.0</ele>
        <time>2020-10-15T07:52:25Z</time>
      </trkpt>
      <trkpt lat="37.780262000" lon="-3.797047000">
        <ele>502.0</ele>
        <time>2020-10-15T07:53:17Z</time>
      </trkpt>
      <trkpt lat="37.780261000" lon="-3.797194000">
        <ele>502.0</ele>
        <time>2020-10-15T07:53:21Z</time>
      </trkpt>
      <trkpt lat="37.780274000" lon="-3.797299000">
        <ele>501.9</ele>
        <time>2020-10-15T07:53:23Z</time>
      </trkpt>
      <trkpt lat="37.780298000" lon="-3.797443000">
        <ele>501.8</ele>
        <time>2020-10-15T07:53:25Z</time>
      </trkpt>
      <trkpt lat="37.780310000" lon="-3.797587000">
        <ele>501.7</ele>
        <time>2020-10-15T07:53:27Z</time>
      </trkpt>
      <trkpt lat="37.780327000" lon="-3.797734000">
        <ele>501.7</ele>
        <time>2020-10-15T07:53:29Z</time>
      </trkpt>
      <trkpt lat="37.780338000" lon="-3.797865000">
        <ele>501.7</ele>
        <time>2020-10-15T07:53:31Z</time>
      </trkpt>
      <trkpt lat="37.780346000" lon="-3.798002000">
        <ele>501.7</ele>
        <time>2020-10-15T07:53:33Z</time>
      </trkpt>
      <trkpt lat="37.780349000" lon="-3.798120000">
        <ele>501.8</ele>
        <time>2020-10-15T07:53:35Z</time>
      </trkpt>
      <trkpt lat="37.780354000" lon="-3.798245000">
        <ele>502.2</ele>
        <time>2020-10-15T07:53:37Z</time>
      </trkpt>
      <trkpt lat="37.780354000" lon="-3.798363000">
        <ele>502.6</ele>
        <time>2020-10-15T07:53:39Z</time>
      </trkpt>
      <trkpt lat="37.780370000" lon="-3.798470000">
        <ele>503.3</ele>
        <time>2020-10-15T07:53:41Z</time>
      </trkpt>
      <trkpt lat="37.780388000" lon="-3.798624000">
        <ele>503.9</ele>
        <time>2020-10-15T07:53:44Z</time>
      </trkpt>
      <trkpt lat="37.780385000" lon="-3.798773000">
        <ele>504.5</ele>
        <time>2020-10-15T07:53:47Z</time>
      </trkpt>
      <trkpt lat="37.780384000" lon="-3.798923000">
        <ele>505.2</ele>
        <time>2020-10-15T07:53:50Z</time>
      </trkpt>
      <trkpt lat="37.780392000" lon="-3.799059000">
        <ele>505.8</ele>
        <time>2020-10-15T07:53:53Z</time>
      </trkpt>
      <trkpt lat="37.780399000" lon="-3.799199000">
        <ele>506.4</ele>
        <time>2020-10-15T07:53:56Z</time>
      </trkpt>
      <trkpt lat="37.780401000" lon="-3.799324000">
        <ele>506.9</ele>
        <time>2020-10-15T07:53:59Z</time>
      </trkpt>
      <trkpt lat="37.780415000" lon="-3.799461000">
        <ele>507.4</ele>
        <time>2020-10-15T07:54:02Z</time>
      </trkpt>
      <trkpt lat="37.780424000" lon="-3.799600000">
        <ele>507.8</ele>
        <time>2020-10-15T07:54:05Z</time>
      </trkpt>
      <trkpt lat="37.780443000" lon="-3.799725000">
        <ele>508.1</ele>
        <time>2020-10-15T07:54:08Z</time>
      </trkpt>
      <trkpt lat="37.780459000" lon="-3.799828000">
        <ele>508.4</ele>
        <time>2020-10-15T07:54:10Z</time>
      </trkpt>
      <trkpt lat="37.780478000" lon="-3.799971000">
        <ele>508.6</ele>
        <time>2020-10-15T07:54:13Z</time>
      </trkpt>
      <trkpt lat="37.780493000" lon="-3.800088000">
        <ele>509.0</ele>
        <time>2020-10-15T07:54:16Z</time>
      </trkpt>
      <trkpt lat="37.780500000" lon="-3.800237000">
        <ele>509.5</ele>
        <time>2020-10-15T07:54:19Z</time>
      </trkpt>
      <trkpt lat="37.780506000" lon="-3.800341000">
        <ele>510.0</ele>
        <time>2020-10-15T07:54:21Z</time>
      </trkpt>
      <trkpt lat="37.780510000" lon="-3.800485000">
        <ele>510.5</ele>
        <time>2020-10-15T07:54:24Z</time>
      </trkpt>
      <trkpt lat="37.780513000" lon="-3.800637000">
        <ele>511.1</ele>
        <time>2020-10-15T07:54:27Z</time>
      </trkpt>
      <trkpt lat="37.780509000" lon="-3.800787000">
        <ele>511.6</ele>
        <time>2020-10-15T07:54:30Z</time>
      </trkpt>
      <trkpt lat="37.780504000" lon="-3.800911000">
        <ele>512.1</ele>
        <time>2020-10-15T07:54:33Z</time>
      </trkpt>
      <trkpt lat="37.780508000" lon="-3.801049000">
        <ele>512.4</ele>
        <time>2020-10-15T07:54:36Z</time>
      </trkpt>
      <trkpt lat="37.780508000" lon="-3.801200000">
        <ele>512.6</ele>
        <time>2020-10-15T07:54:39Z</time>
      </trkpt>
      <trkpt lat="37.780513000" lon="-3.801328000">
        <ele>512.8</ele>
        <time>2020-10-15T07:54:42Z</time>
      </trkpt>
      <trkpt lat="37.780512000" lon="-3.801431000">
        <ele>512.9</ele>
        <time>2020-10-15T07:54:44Z</time>
      </trkpt>
      <trkpt lat="37.780518000" lon="-3.801538000">
        <ele>512.9</ele>
        <time>2020-10-15T07:54:46Z</time>
      </trkpt>
      <trkpt lat="37.780522000" lon="-3.801683000">
        <ele>512.9</ele>
        <time>2020-10-15T07:54:49Z</time>
      </trkpt>
      <trkpt lat="37.780523000" lon="-3.801790000">
        <ele>512.8</ele>
        <time>2020-10-15T07:54:51Z</time>
      </trkpt>
      <trkpt lat="37.780534000" lon="-3.801942000">
        <ele>512.7</ele>
        <time>2020-10-15T07:54:54Z</time>
      </trkpt>
      <trkpt lat="37.780533000" lon="-3.802091000">
        <ele>512.6</ele>
        <time>2020-10-15T07:54:57Z</time>
      </trkpt>
      <trkpt lat="37.780547000" lon="-3.802239000">
        <ele>512.5</ele>
        <time>2020-10-15T07:55:00Z</time>
      </trkpt>
      <trkpt lat="37.780556000" lon="-3.802376000">
        <ele>512.5</ele>
        <time>2020-10-15T07:55:03Z</time>
      </trkpt>
      <trkpt lat="37.780568000" lon="-3.802512000">
        <ele>512.5</ele>
        <time>2020-10-15T07:55:06Z</time>
      </trkpt>
      <trkpt lat="37.780581000" lon="-3.802652000">
        <ele>512.5</ele>
        <time>2020-10-15T07:55:09Z</time>
      </trkpt>
      <trkpt lat="37.780599000" lon="-3.802788000">
        <ele>512.4</ele>
        <time>2020-10-15T07:55:12Z</time>
      </trkpt>
      <trkpt lat="37.780606000" lon="-3.802894000">
        <ele>512.1</ele>
        <time>2020-10-15T07:55:14Z</time>
      </trkpt>
      <trkpt lat="37.780611000" lon="-3.803001000">
        <ele>511.8</ele>
        <time>2020-10-15T07:55:16Z</time>
      </trkpt>
      <trkpt lat="37.780616000" lon="-3.803149000">
        <ele>511.4</ele>
        <time>2020-10-15T07:55:19Z</time>
      </trkpt>
      <trkpt lat="37.780656000" lon="-3.803281000">
        <ele>510.7</ele>
        <time>2020-10-15T07:55:22Z</time>
      </trkpt>
      <trkpt lat="37.780759000" lon="-3.803359000">
        <ele>510.0</ele>
        <time>2020-10-15T07:55:25Z</time>
      </trkpt>
      <trkpt lat="37.780833000" lon="-3.803410000">
        <ele>509.3</ele>
        <time>2020-10-15T07:55:27Z</time>
      </trkpt>
      <trkpt lat="37.780914000" lon="-3.803458000">
        <ele>508.5</ele>
        <time>2020-10-15T07:55:29Z</time>
      </trkpt>
      <trkpt lat="37.781005000" lon="-3.803531000">
        <ele>507.5</ele>
        <time>2020-10-15T07:55:31Z</time>
      </trkpt>
      <trkpt lat="37.781101000" lon="-3.803596000">
        <ele>506.5</ele>
        <time>2020-10-15T07:55:33Z</time>
      </trkpt>
      <trkpt lat="37.781199000" lon="-3.803666000">
        <ele>505.5</ele>
        <time>2020-10-15T07:55:35Z</time>
      </trkpt>
      <trkpt lat="37.781297000" lon="-3.803722000">
        <ele>504.7</ele>
        <time>2020-10-15T07:55:37Z</time>
      </trkpt>
      <trkpt lat="37.781394000" lon="-3.803776000">
        <ele>504.0</ele>
        <time>2020-10-15T07:55:39Z</time>
      </trkpt>
      <trkpt lat="37.781472000" lon="-3.803822000">
        <ele>503.3</ele>
        <time>2020-10-15T07:55:41Z</time>
      </trkpt>
      <trkpt lat="37.781549000" lon="-3.803923000">
        <ele>502.6</ele>
        <time>2020-10-15T07:55:44Z</time>
      </trkpt>
      <trkpt lat="37.781584000" lon="-3.804070000">
        <ele>502.3</ele>
        <time>2020-10-15T07:55:47Z</time>
      </trkpt>
      <trkpt lat="37.781601000" lon="-3.804186000">
        <ele>502.0</ele>
        <time>2020-10-15T07:55:49Z</time>
      </trkpt>
      <trkpt lat="37.781630000" lon="-3.804294000">
        <ele>501.8</ele>
        <time>2020-10-15T07:55:51Z</time>
      </trkpt>
      <trkpt lat="37.781659000" lon="-3.804410000">
        <ele>501.7</ele>
        <time>2020-10-15T07:55:53Z</time>
      </trkpt>
      <trkpt lat="37.781681000" lon="-3.804528000">
        <ele>501.7</ele>
        <time>2020-10-15T07:55:55Z</time>
      </trkpt>
      <trkpt lat="37.781713000" lon="-3.804659000">
        <ele>502.0</ele>
        <time>2020-10-15T07:55:57Z</time>
      </trkpt>
      <trkpt lat="37.781741000" lon="-3.804781000">
        <ele>502.2</ele>
        <time>2020-10-15T07:55:59Z</time>
      </trkpt>
      <trkpt lat="37.781760000" lon="-3.804908000">
        <ele>502.3</ele>
        <time>2020-10-15T07:56:01Z</time>
      </trkpt>
      <trkpt lat="37.781786000" lon="-3.805027000">
        <ele>502.4</ele>
        <time>2020-10-15T07:56:03Z</time>
      </trkpt>
      <trkpt lat="37.781814000" lon="-3.805153000">
        <ele>502.4</ele>
        <time>2020-10-15T07:56:05Z</time>
      </trkpt>
      <trkpt lat="37.781839000" lon="-3.805282000">
        <ele>502.4</ele>
        <time>2020-10-15T07:56:07Z</time>
      </trkpt>
      <trkpt lat="37.781876000" lon="-3.805407000">
        <ele>502.3</ele>
        <time>2020-10-15T07:56:09Z</time>
      </trkpt>
      <trkpt lat="37.781912000" lon="-3.805527000">
        <ele>502.2</ele>
        <time>2020-10-15T07:56:11Z</time>
      </trkpt>
      <trkpt lat="37.781951000" lon="-3.805647000">
        <ele>502.0</ele>
        <time>2020-10-15T07:56:13Z</time>
      </trkpt>
      <trkpt lat="37.781996000" lon="-3.805766000">
        <ele>501.8</ele>
        <time>2020-10-15T07:56:15Z</time>
      </trkpt>
      <trkpt lat="37.782031000" lon="-3.805879000">
        <ele>501.6</ele>
        <time>2020-10-15T07:56:17Z</time>
      </trkpt>
      <trkpt lat="37.782083000" lon="-3.805993000">
        <ele>501.4</ele>
        <time>2020-10-15T07:56:19Z</time>
      </trkpt>
      <trkpt lat="37.782131000" lon="-3.806103000">
        <ele>501.1</ele>
        <time>2020-10-15T07:56:21Z</time>
      </trkpt>
      <trkpt lat="37.782181000" lon="-3.806216000">
        <ele>500.9</ele>
        <time>2020-10-15T07:56:23Z</time>
      </trkpt>
      <trkpt lat="37.782243000" lon="-3.806320000">
        <ele>500.8</ele>
        <time>2020-10-15T07:56:25Z</time>
      </trkpt>
      <trkpt lat="37.782297000" lon="-3.806429000">
        <ele>500.8</ele>
        <time>2020-10-15T07:56:27Z</time>
      </trkpt>
      <trkpt lat="37.782351000" lon="-3.806531000">
        <ele>500.8</ele>
        <time>2020-10-15T07:56:29Z</time>
      </trkpt>
      <trkpt lat="37.782401000" lon="-3.806628000">
        <ele>500.9</ele>
        <time>2020-10-15T07:56:31Z</time>
      </trkpt>
      <trkpt lat="37.782452000" lon="-3.806720000">
        <ele>501.0</ele>
        <time>2020-10-15T07:56:33Z</time>
      </trkpt>
      <trkpt lat="37.782538000" lon="-3.806845000">
        <ele>501.1</ele>
        <time>2020-10-15T07:56:36Z</time>
      </trkpt>
      <trkpt lat="37.782601000" lon="-3.806917000">
        <ele>501.3</ele>
        <time>2020-10-15T07:56:38Z</time>
      </trkpt>
      <trkpt lat="37.782675000" lon="-3.807013000">
        <ele>501.5</ele>
        <time>2020-10-15T07:56:40Z</time>
      </trkpt>
      <trkpt lat="37.782735000" lon="-3.807091000">
        <ele>501.7</ele>
        <time>2020-10-15T07:56:42Z</time>
      </trkpt>
      <trkpt lat="37.782810000" lon="-3.807156000">
        <ele>502.1</ele>
        <time>2020-10-15T07:56:44Z</time>
      </trkpt>
      <trkpt lat="37.782879000" lon="-3.807226000">
        <ele>502.4</ele>
        <time>2020-10-15T07:56:46Z</time>
      </trkpt>
      <trkpt lat="37.782945000" lon="-3.807316000">
        <ele>502.5</ele>
        <time>2020-10-15T07:56:48Z</time>
      </trkpt>
      <trkpt lat="37.783006000" lon="-3.807395000">
        <ele>502.7</ele>
        <time>2020-10-15T07:56:50Z</time>
      </trkpt>
      <trkpt lat="37.783072000" lon="-3.807472000">
        <ele>502.9</ele>
        <time>2020-10-15T07:56:52Z</time>
      </trkpt>
      <trkpt lat="37.783135000" lon="-3.807540000">
        <ele>503.0</ele>
        <time>2020-10-15T07:56:54Z</time>
      </trkpt>
      <trkpt lat="37.783200000" lon="-3.807620000">
        <ele>503.0</ele>
        <time>2020-10-15T07:56:56Z</time>
      </trkpt>
      <trkpt lat="37.783261000" lon="-3.807704000">
        <ele>503.0</ele>
        <time>2020-10-15T07:56:58Z</time>
      </trkpt>
      <trkpt lat="37.783325000" lon="-3.807778000">
        <ele>502.9</ele>
        <time>2020-10-15T07:57:00Z</time>
      </trkpt>
      <trkpt lat="37.783389000" lon="-3.807851000">
        <ele>502.9</ele>
        <time>2020-10-15T07:57:02Z</time>
      </trkpt>
      <trkpt lat="37.783454000" lon="-3.807930000">
        <ele>502.8</ele>
        <time>2020-10-15T07:57:04Z</time>
      </trkpt>
      <trkpt lat="37.783539000" lon="-3.808041000">
        <ele>502.8</ele>
        <time>2020-10-15T07:57:07Z</time>
      </trkpt>
      <trkpt lat="37.783593000" lon="-3.808123000">
        <ele>502.9</ele>
        <time>2020-10-15T07:57:09Z</time>
      </trkpt>
      <trkpt lat="37.783645000" lon="-3.808204000">
        <ele>503.1</ele>
        <time>2020-10-15T07:57:11Z</time>
      </trkpt>
      <trkpt lat="37.783695000" lon="-3.808291000">
        <ele>503.4</ele>
        <time>2020-10-15T07:57:13Z</time>
      </trkpt>
      <trkpt lat="37.783753000" lon="-3.808368000">
        <ele>503.6</ele>
        <time>2020-10-15T07:57:15Z</time>
      </trkpt>
      <trkpt lat="37.783832000" lon="-3.808471000">
        <ele>504.0</ele>
        <time>2020-10-15T07:57:18Z</time>
      </trkpt>
      <trkpt lat="37.783913000" lon="-3.808561000">
        <ele>504.5</ele>
        <time>2020-10-15T07:57:21Z</time>
      </trkpt>
      <trkpt lat="37.783987000" lon="-3.808648000">
        <ele>505.3</ele>
        <time>2020-10-15T07:57:24Z</time>
      </trkpt>
      <trkpt lat="37.784053000" lon="-3.808734000">
        <ele>506.2</ele>
        <time>2020-10-15T07:57:27Z</time>
      </trkpt>
      <trkpt lat="37.784117000" lon="-3.808813000">
        <ele>507.1</ele>
        <time>2020-10-15T07:57:30Z</time>
      </trkpt>
      <trkpt lat="37.784186000" lon="-3.808913000">
        <ele>508.0</ele>
        <time>2020-10-15T07:57:34Z</time>
      </trkpt>
      <trkpt lat="37.784244000" lon="-3.809005000">
        <ele>508.8</ele>
        <time>2020-10-15T07:57:38Z</time>
      </trkpt>
      <trkpt lat="37.784305000" lon="-3.809106000">
        <ele>509.6</ele>
        <time>2020-10-15T07:57:43Z</time>
      </trkpt>
      <trkpt lat="37.784364000" lon="-3.809186000">
        <ele>510.4</ele>
        <time>2020-10-15T07:57:47Z</time>
      </trkpt>
      <trkpt lat="37.784433000" lon="-3.809277000">
        <ele>511.0</ele>
        <time>2020-10-15T07:57:52Z</time>
      </trkpt>
      <trkpt lat="37.784500000" lon="-3.809362000">
        <ele>511.6</ele>
        <time>2020-10-15T07:57:56Z</time>
      </trkpt>
      <trkpt lat="37.784558000" lon="-3.809449000">
        <ele>512.2</ele>
        <time>2020-10-15T07:58:00Z</time>
      </trkpt>
      <trkpt lat="37.784589000" lon="-3.809563000">
        <ele>512.6</ele>
        <time>2020-10-15T07:58:04Z</time>
      </trkpt>
      <trkpt lat="37.784620000" lon="-3.809677000">
        <ele>513.0</ele>
        <time>2020-10-15T07:58:08Z</time>
      </trkpt>
      <trkpt lat="37.784650000" lon="-3.809780000">
        <ele>513.2</ele>
        <time>2020-10-15T07:58:12Z</time>
      </trkpt>
      <trkpt lat="37.784667000" lon="-3.809894000">
        <ele>513.3</ele>
        <time>2020-10-15T07:58:16Z</time>
      </trkpt>
      <trkpt lat="37.784688000" lon="-3.810009000">
        <ele>513.4</ele>
        <time>2020-10-15T07:58:20Z</time>
      </trkpt>
      <trkpt lat="37.784719000" lon="-3.810123000">
        <ele>513.4</ele>
        <time>2020-10-15T07:58:24Z</time>
      </trkpt>
      <trkpt lat="37.784746000" lon="-3.810228000">
        <ele>513.4</ele>
        <time>2020-10-15T07:58:28Z</time>
      </trkpt>
      <trkpt lat="37.784776000" lon="-3.810357000">
        <ele>513.4</ele>
        <time>2020-10-15T07:58:32Z</time>
      </trkpt>
      <trkpt lat="37.784802000" lon="-3.810467000">
        <ele>513.4</ele>
        <time>2020-10-15T07:58:35Z</time>
      </trkpt>
      <trkpt lat="37.784835000" lon="-3.810585000">
        <ele>513.4</ele>
        <time>2020-10-15T07:58:38Z</time>
      </trkpt>
      <trkpt lat="37.784863000" lon="-3.810705000">
        <ele>513.5</ele>
        <time>2020-10-15T07:58:41Z</time>
      </trkpt>
      <trkpt lat="37.784889000" lon="-3.810825000">
        <ele>513.5</ele>
        <time>2020-10-15T07:58:44Z</time>
      </trkpt>
      <trkpt lat="37.784922000" lon="-3.810954000">
        <ele>513.5</ele>
        <time>2020-10-15T07:58:47Z</time>
      </trkpt>
      <trkpt lat="37.784959000" lon="-3.811082000">
        <ele>513.5</ele>
        <time>2020-10-15T07:58:50Z</time>
      </trkpt>
      <trkpt lat="37.784995000" lon="-3.811207000">
        <ele>513.4</ele>
        <time>2020-10-15T07:58:53Z</time>
      </trkpt>
      <trkpt lat="37.785031000" lon="-3.811331000">
        <ele>513.3</ele>
        <time>2020-10-15T07:58:56Z</time>
      </trkpt>
      <trkpt lat="37.785066000" lon="-3.811445000">
        <ele>513.3</ele>
        <time>2020-10-15T07:58:59Z</time>
      </trkpt>
      <trkpt lat="37.785099000" lon="-3.811546000">
        <ele>513.2</ele>
        <time>2020-10-15T07:59:02Z</time>
      </trkpt>
      <trkpt lat="37.785157000" lon="-3.811664000">
        <ele>513.2</ele>
        <time>2020-10-15T07:59:06Z</time>
      </trkpt>
      <trkpt lat="37.785218000" lon="-3.811776000">
        <ele>513.2</ele>
        <time>2020-10-15T07:59:09Z</time>
      </trkpt>
      <trkpt lat="37.785276000" lon="-3.811883000">
        <ele>513.2</ele>
        <time>2020-10-15T07:59:12Z</time>
      </trkpt>
      <trkpt lat="37.785321000" lon="-3.811981000">
        <ele>513.1</ele>
        <time>2020-10-15T07:59:15Z</time>
      </trkpt>
      <trkpt lat="37.785323000" lon="-3.812090000">
        <ele>513.0</ele>
        <time>2020-10-15T07:59:18Z</time>
      </trkpt>
      <trkpt lat="37.785303000" lon="-3.812205000">
        <ele>512.9</ele>
        <time>2020-10-15T07:59:22Z</time>
      </trkpt>
      <trkpt lat="37.785322000" lon="-3.812318000">
        <ele>512.8</ele>
        <time>2020-10-15T08:00:23Z</time>
      </trkpt>
      <trkpt lat="37.785332000" lon="-3.812420000">
        <ele>512.8</ele>
        <time>2020-10-15T08:00:31Z</time>
      </trkpt>
      <trkpt lat="37.785306000" lon="-3.812307000">
        <ele>512.8</ele>
        <time>2020-10-15T08:01:04Z</time>
      </trkpt>
      <trkpt lat="37.785306000" lon="-3.812199000">
        <ele>512.8</ele>
        <time>2020-10-15T08:01:09Z</time>
      </trkpt>
      <trkpt lat="37.785311000" lon="-3.812092000">
        <ele>513.0</ele>
        <time>2020-10-15T08:01:18Z</time>
      </trkpt>
      <trkpt lat="37.785322000" lon="-3.812194000">
        <ele>513.1</ele>
        <time>2020-10-15T08:01:39Z</time>
      </trkpt>
      <trkpt lat="37.785309000" lon="-3.812297000">
        <ele>513.2</ele>
        <time>2020-10-15T08:02:09Z</time>
      </trkpt>
      <trkpt lat="37.785305000" lon="-3.812403000">
        <ele>513.4</ele>
        <time>2020-10-15T08:02:54Z</time>
      </trkpt>
      <trkpt lat="37.785324000" lon="-3.812505000">
        <ele>513.5</ele>
        <time>2020-10-15T08:04:05Z</time>
      </trkpt>
      <trkpt lat="37.785335000" lon="-3.812635000">
        <ele>513.7</ele>
        <time>2020-10-15T08:04:09Z</time>
      </trkpt>
      <trkpt lat="37.785366000" lon="-3.812764000">
        <ele>513.8</ele>
        <time>2020-10-15T08:04:12Z</time>
      </trkpt>
      <trkpt lat="37.785412000" lon="-3.812891000">
        <ele>513.9</ele>
        <time>2020-10-15T08:04:15Z</time>
      </trkpt>
      <trkpt lat="37.785454000" lon="-3.813005000">
        <ele>513.8</ele>
        <time>2020-10-15T08:04:18Z</time>
      </trkpt>
      <trkpt lat="37.785475000" lon="-3.813105000">
        <ele>513.7</ele>
        <time>2020-10-15T08:04:20Z</time>
      </trkpt>
      <trkpt lat="37.785503000" lon="-3.813207000">
        <ele>513.5</ele>
        <time>2020-10-15T08:04:22Z</time>
      </trkpt>
      <trkpt lat="37.785537000" lon="-3.813315000">
        <ele>513.2</ele>
        <time>2020-10-15T08:04:24Z</time>
      </trkpt>
      <trkpt lat="37.785567000" lon="-3.813425000">
        <ele>512.8</ele>
        <time>2020-10-15T08:04:26Z</time>
      </trkpt>
      <trkpt lat="37.785598000" lon="-3.813539000">
        <ele>512.4</ele>
        <time>2020-10-15T08:04:28Z</time>
      </trkpt>
      <trkpt lat="37.785630000" lon="-3.813652000">
        <ele>511.8</ele>
        <time>2020-10-15T08:04:30Z</time>
      </trkpt>
      <trkpt lat="37.785665000" lon="-3.813771000">
        <ele>511.3</ele>
        <time>2020-10-15T08:04:32Z</time>
      </trkpt>
      <trkpt lat="37.785709000" lon="-3.813892000">
        <ele>510.7</ele>
        <time>2020-10-15T08:04:34Z</time>
      </trkpt>
      <trkpt lat="37.785757000" lon="-3.814021000">
        <ele>510.2</ele>
        <time>2020-10-15T08:04:36Z</time>
      </trkpt>
      <trkpt lat="37.785815000" lon="-3.814163000">
        <ele>509.7</ele>
        <time>2020-10-15T08:04:38Z</time>
      </trkpt>
      <trkpt lat="37.785873000" lon="-3.814292000">
        <ele>509.3</ele>
        <time>2020-10-15T08:04:40Z</time>
      </trkpt>
      <trkpt lat="37.785924000" lon="-3.814406000">
        <ele>508.7</ele>
        <time>2020-10-15T08:04:42Z</time>
      </trkpt>
      <trkpt lat="37.785976000" lon="-3.814511000">
        <ele>508.3</ele>
        <time>2020-10-15T08:04:44Z</time>
      </trkpt>
      <trkpt lat="37.786041000" lon="-3.814602000">
        <ele>507.9</ele>
        <time>2020-10-15T08:04:46Z</time>
      </trkpt>
      <trkpt lat="37.786118000" lon="-3.814703000">
        <ele>507.5</ele>
        <time>2020-10-15T08:04:48Z</time>
      </trkpt>
      <trkpt lat="37.786193000" lon="-3.814803000">
        <ele>507.3</ele>
        <time>2020-10-15T08:04:50Z</time>
      </trkpt>
      <trkpt lat="37.786275000" lon="-3.814914000">
        <ele>507.0</ele>
        <time>2020-10-15T08:04:52Z</time>
      </trkpt>
      <trkpt lat="37.786363000" lon="-3.815033000">
        <ele>506.7</ele>
        <time>2020-10-15T08:04:54Z</time>
      </trkpt>
      <trkpt lat="37.786464000" lon="-3.815145000">
        <ele>506.5</ele>
        <time>2020-10-15T08:04:56Z</time>
      </trkpt>
      <trkpt lat="37.786561000" lon="-3.815248000">
        <ele>506.3</ele>
        <time>2020-10-15T08:04:58Z</time>
      </trkpt>
      <trkpt lat="37.786656000" lon="-3.815334000">
        <ele>506.2</ele>
        <time>2020-10-15T08:05:00Z</time>
      </trkpt>
      <trkpt lat="37.786741000" lon="-3.815419000">
        <ele>506.2</ele>
        <time>2020-10-15T08:05:02Z</time>
      </trkpt>
      <trkpt lat="37.786837000" lon="-3.815502000">
        <ele>506.4</ele>
        <time>2020-10-15T08:05:04Z</time>
      </trkpt>
      <trkpt lat="37.786930000" lon="-3.815582000">
        <ele>506.6</ele>
        <time>2020-10-15T08:05:06Z</time>
      </trkpt>
      <trkpt lat="37.787027000" lon="-3.815656000">
        <ele>506.9</ele>
        <time>2020-10-15T08:05:08Z</time>
      </trkpt>
      <trkpt lat="37.787119000" lon="-3.815729000">
        <ele>507.2</ele>
        <time>2020-10-15T08:05:10Z</time>
      </trkpt>
      <trkpt lat="37.787217000" lon="-3.815793000">
        <ele>507.4</ele>
        <time>2020-10-15T08:05:12Z</time>
      </trkpt>
      <trkpt lat="37.787316000" lon="-3.815846000">
        <ele>507.5</ele>
        <time>2020-10-15T08:05:14Z</time>
      </trkpt>
      <trkpt lat="37.787403000" lon="-3.815902000">
        <ele>507.7</ele>
        <time>2020-10-15T08:05:16Z</time>
      </trkpt>
      <trkpt lat="37.787496000" lon="-3.815945000">
        <ele>507.9</ele>
        <time>2020-10-15T08:05:18Z</time>
      </trkpt>
      <trkpt lat="37.787592000" lon="-3.815992000">
        <ele>508.1</ele>
        <time>2020-10-15T08:05:20Z</time>
      </trkpt>
      <trkpt lat="37.787685000" lon="-3.816039000">
        <ele>508.2</ele>
        <time>2020-10-15T08:05:22Z</time>
      </trkpt>
      <trkpt lat="37.787774000" lon="-3.816080000">
        <ele>508.3</ele>
        <time>2020-10-15T08:05:24Z</time>
      </trkpt>
      <trkpt lat="37.787872000" lon="-3.816118000">
        <ele>508.3</ele>
        <time>2020-10-15T08:05:26Z</time>
      </trkpt>
      <trkpt lat="37.787965000" lon="-3.816160000">
        <ele>508.1</ele>
        <time>2020-10-15T08:05:28Z</time>
      </trkpt>
      <trkpt lat="37.788062000" lon="-3.816193000">
        <ele>507.9</ele>
        <time>2020-10-15T08:05:30Z</time>
      </trkpt>
      <trkpt lat="37.788157000" lon="-3.816219000">
        <ele>507.6</ele>
        <time>2020-10-15T08:05:32Z</time>
      </trkpt>
      <trkpt lat="37.788253000" lon="-3.816247000">
        <ele>507.5</ele>
        <time>2020-10-15T08:05:34Z</time>
      </trkpt>
      <trkpt lat="37.788349000" lon="-3.816266000">
        <ele>507.2</ele>
        <time>2020-10-15T08:05:36Z</time>
      </trkpt>
      <trkpt lat="37.788443000" lon="-3.816282000">
        <ele>506.9</ele>
        <time>2020-10-15T08:05:38Z</time>
      </trkpt>
      <trkpt lat="37.788532000" lon="-3.816299000">
        <ele>506.6</ele>
        <time>2020-10-15T08:05:40Z</time>
      </trkpt>
      <trkpt lat="37.788625000" lon="-3.816323000">
        <ele>506.3</ele>
        <time>2020-10-15T08:05:42Z</time>
      </trkpt>
      <trkpt lat="37.788718000" lon="-3.816343000">
        <ele>505.9</ele>
        <time>2020-10-15T08:05:44Z</time>
      </trkpt>
      <trkpt lat="37.788809000" lon="-3.816359000">
        <ele>505.6</ele>
        <time>2020-10-15T08:05:46Z</time>
      </trkpt>
      <trkpt lat="37.788896000" lon="-3.816377000">
        <ele>505.4</ele>
        <time>2020-10-15T08:05:48Z</time>
      </trkpt>
      <trkpt lat="37.788990000" lon="-3.816382000">
        <ele>505.2</ele>
        <time>2020-10-15T08:05:50Z</time>
      </trkpt>
      <trkpt lat="37.789084000" lon="-3.816381000">
        <ele>505.1</ele>
        <time>2020-10-15T08:05:52Z</time>
      </trkpt>
      <trkpt lat="37.789181000" lon="-3.816381000">
        <ele>505.2</ele>
        <time>2020-10-15T08:05:54Z</time>
      </trkpt>
      <trkpt lat="37.789284000" lon="-3.816398000">
        <ele>505.4</ele>
        <time>2020-10-15T08:05:56Z</time>
      </trkpt>
      <trkpt lat="37.789374000" lon="-3.816406000">
        <ele>505.6</ele>
        <time>2020-10-15T08:05:58Z</time>
      </trkpt>
      <trkpt lat="37.789458000" lon="-3.816419000">
        <ele>505.9</ele>
        <time>2020-10-15T08:06:00Z</time>
      </trkpt>
      <trkpt lat="37.789546000" lon="-3.816432000">
        <ele>506.2</ele>
        <time>2020-10-15T08:06:02Z</time>
      </trkpt>
      <trkpt lat="37.789634000" lon="-3.816462000">
        <ele>506.5</ele>
        <time>2020-10-15T08:06:04Z</time>
      </trkpt>
      <trkpt lat="37.789723000" lon="-3.816463000">
        <ele>506.9</ele>
        <time>2020-10-15T08:06:06Z</time>
      </trkpt>
      <trkpt lat="37.789820000" lon="-3.816457000">
        <ele>507.3</ele>
        <time>2020-10-15T08:06:08Z</time>
      </trkpt>
      <trkpt lat="37.789918000" lon="-3.816462000">
        <ele>507.6</ele>
        <time>2020-10-15T08:06:10Z</time>
      </trkpt>
      <trkpt lat="37.790016000" lon="-3.816472000">
        <ele>508.0</ele>
        <time>2020-10-15T08:06:12Z</time>
      </trkpt>
      <trkpt lat="37.790120000" lon="-3.816478000">
        <ele>508.3</ele>
        <time>2020-10-15T08:06:14Z</time>
      </trkpt>
      <trkpt lat="37.790226000" lon="-3.816489000">
        <ele>508.4</ele>
        <time>2020-10-15T08:06:16Z</time>
      </trkpt>
      <trkpt lat="37.790333000" lon="-3.816512000">
        <ele>508.4</ele>
        <time>2020-10-15T08:06:18Z</time>
      </trkpt>
      <trkpt lat="37.790435000" lon="-3.816523000">
        <ele>508.4</ele>
        <time>2020-10-15T08:06:20Z</time>
      </trkpt>
      <trkpt lat="37.790536000" lon="-3.816525000">
        <ele>508.4</ele>
        <time>2020-10-15T08:06:22Z</time>
      </trkpt>
      <trkpt lat="37.790634000" lon="-3.816538000">
        <ele>508.4</ele>
        <time>2020-10-15T08:06:24Z</time>
      </trkpt>
      <trkpt lat="37.790730000" lon="-3.816547000">
        <ele>508.3</ele>
        <time>2020-10-15T08:06:26Z</time>
      </trkpt>
      <trkpt lat="37.790833000" lon="-3.816555000">
        <ele>508.2</ele>
        <time>2020-10-15T08:06:28Z</time>
      </trkpt>
      <trkpt lat="37.790939000" lon="-3.816566000">
        <ele>508.0</ele>
        <time>2020-10-15T08:06:30Z</time>
      </trkpt>
      <trkpt lat="37.791045000" lon="-3.816572000">
        <ele>507.7</ele>
        <time>2020-10-15T08:06:33Z</time>
      </trkpt>
      <trkpt lat="37.791156000" lon="-3.816578000">
        <ele>507.5</ele>
        <time>2020-10-15T08:06:34Z</time>
      </trkpt>
      <trkpt lat="37.791265000" lon="-3.816594000">
        <ele>507.1</ele>
        <time>2020-10-15T08:06:36Z</time>
      </trkpt>
      <trkpt lat="37.791374000" lon="-3.816612000">
        <ele>506.8</ele>
        <time>2020-10-15T08:06:38Z</time>
      </trkpt>
      <trkpt lat="37.791486000" lon="-3.816633000">
        <ele>506.5</ele>
        <time>2020-10-15T08:06:40Z</time>
      </trkpt>
      <trkpt lat="37.791604000" lon="-3.816658000">
        <ele>506.2</ele>
        <time>2020-10-15T08:06:42Z</time>
      </trkpt>
      <trkpt lat="37.791721000" lon="-3.816676000">
        <ele>505.8</ele>
        <time>2020-10-15T08:06:44Z</time>
      </trkpt>
      <trkpt lat="37.791837000" lon="-3.816707000">
        <ele>505.5</ele>
        <time>2020-10-15T08:06:46Z</time>
      </trkpt>
      <trkpt lat="37.791954000" lon="-3.816743000">
        <ele>505.4</ele>
        <time>2020-10-15T08:06:48Z</time>
      </trkpt>
      <trkpt lat="37.792073000" lon="-3.816769000">
        <ele>505.3</ele>
        <time>2020-10-15T08:06:50Z</time>
      </trkpt>
      <trkpt lat="37.792188000" lon="-3.816800000">
        <ele>505.2</ele>
        <time>2020-10-15T08:06:52Z</time>
      </trkpt>
      <trkpt lat="37.792300000" lon="-3.816842000">
        <ele>505.3</ele>
        <time>2020-10-15T08:06:54Z</time>
      </trkpt>
      <trkpt lat="37.792406000" lon="-3.816887000">
        <ele>505.4</ele>
        <time>2020-10-15T08:06:56Z</time>
      </trkpt>
      <trkpt lat="37.792502000" lon="-3.816947000">
        <ele>505.5</ele>
        <time>2020-10-15T08:06:58Z</time>
      </trkpt>
      <trkpt lat="37.792593000" lon="-3.817007000">
        <ele>505.7</ele>
        <time>2020-10-15T08:07:00Z</time>
      </trkpt>
      <trkpt lat="37.792673000" lon="-3.817077000">
        <ele>506.0</ele>
        <time>2020-10-15T08:07:02Z</time>
      </trkpt>
      <trkpt lat="37.792750000" lon="-3.817157000">
        <ele>506.5</ele>
        <time>2020-10-15T08:07:04Z</time>
      </trkpt>
      <trkpt lat="37.792828000" lon="-3.817236000">
        <ele>507.1</ele>
        <time>2020-10-15T08:07:06Z</time>
      </trkpt>
      <trkpt lat="37.792909000" lon="-3.817306000">
        <ele>507.7</ele>
        <time>2020-10-15T08:07:08Z</time>
      </trkpt>
      <trkpt lat="37.792990000" lon="-3.817382000">
        <ele>508.5</ele>
        <time>2020-10-15T08:07:10Z</time>
      </trkpt>
      <trkpt lat="37.793067000" lon="-3.817455000">
        <ele>509.4</ele>
        <time>2020-10-15T08:07:12Z</time>
      </trkpt>
      <trkpt lat="37.793138000" lon="-3.817532000">
        <ele>510.3</ele>
        <time>2020-10-15T08:07:14Z</time>
      </trkpt>
      <trkpt lat="37.793212000" lon="-3.817606000">
        <ele>511.1</ele>
        <time>2020-10-15T08:07:16Z</time>
      </trkpt>
      <trkpt lat="37.793283000" lon="-3.817684000">
        <ele>511.9</ele>
        <time>2020-10-15T08:07:18Z</time>
      </trkpt>
      <trkpt lat="37.793354000" lon="-3.817769000">
        <ele>512.6</ele>
        <time>2020-10-15T08:07:20Z</time>
      </trkpt>
      <trkpt lat="37.793424000" lon="-3.817857000">
        <ele>513.4</ele>
        <time>2020-10-15T08:07:22Z</time>
      </trkpt>
      <trkpt lat="37.793496000" lon="-3.817941000">
        <ele>513.9</ele>
        <time>2020-10-15T08:07:24Z</time>
      </trkpt>
      <trkpt lat="37.793567000" lon="-3.818034000">
        <ele>514.4</ele>
        <time>2020-10-15T08:07:26Z</time>
      </trkpt>
      <trkpt lat="37.793634000" lon="-3.818130000">
        <ele>514.5</ele>
        <time>2020-10-15T08:07:28Z</time>
      </trkpt>
      <trkpt lat="37.793704000" lon="-3.818229000">
        <ele>514.5</ele>
        <time>2020-10-15T08:07:30Z</time>
      </trkpt>
      <trkpt lat="37.793771000" lon="-3.818333000">
        <ele>514.3</ele>
        <time>2020-10-15T08:07:32Z</time>
      </trkpt>
      <trkpt lat="37.793835000" lon="-3.818442000">
        <ele>513.8</ele>
        <time>2020-10-15T08:07:34Z</time>
      </trkpt>
      <trkpt lat="37.793896000" lon="-3.818548000">
        <ele>513.3</ele>
        <time>2020-10-15T08:07:36Z</time>
      </trkpt>
      <trkpt lat="37.793950000" lon="-3.818662000">
        <ele>512.7</ele>
        <time>2020-10-15T08:07:38Z</time>
      </trkpt>
      <trkpt lat="37.794002000" lon="-3.818777000">
        <ele>512.2</ele>
        <time>2020-10-15T08:07:40Z</time>
      </trkpt>
      <trkpt lat="37.794053000" lon="-3.818892000">
        <ele>511.7</ele>
        <time>2020-10-15T08:07:42Z</time>
      </trkpt>
      <trkpt lat="37.794106000" lon="-3.819001000">
        <ele>511.1</ele>
        <time>2020-10-15T08:07:44Z</time>
      </trkpt>
      <trkpt lat="37.794162000" lon="-3.819113000">
        <ele>510.5</ele>
        <time>2020-10-15T08:07:46Z</time>
      </trkpt>
      <trkpt lat="37.794208000" lon="-3.819228000">
        <ele>509.9</ele>
        <time>2020-10-15T08:07:48Z</time>
      </trkpt>
      <trkpt lat="37.794246000" lon="-3.819352000">
        <ele>509.3</ele>
        <time>2020-10-15T08:07:50Z</time>
      </trkpt>
      <trkpt lat="37.794283000" lon="-3.819480000">
        <ele>508.7</ele>
        <time>2020-10-15T08:07:52Z</time>
      </trkpt>
      <trkpt lat="37.794331000" lon="-3.819610000">
        <ele>508.2</ele>
        <time>2020-10-15T08:07:54Z</time>
      </trkpt>
      <trkpt lat="37.794364000" lon="-3.819738000">
        <ele>507.7</ele>
        <time>2020-10-15T08:07:56Z</time>
      </trkpt>
      <trkpt lat="37.794398000" lon="-3.819870000">
        <ele>507.2</ele>
        <time>2020-10-15T08:07:58Z</time>
      </trkpt>
      <trkpt lat="37.794431000" lon="-3.820001000">
        <ele>506.7</ele>
        <time>2020-10-15T08:08:00Z</time>
      </trkpt>
      <trkpt lat="37.794461000" lon="-3.820133000">
        <ele>506.4</ele>
        <time>2020-10-15T08:08:02Z</time>
      </trkpt>
      <trkpt lat="37.794493000" lon="-3.820268000">
        <ele>506.0</ele>
        <time>2020-10-15T08:08:04Z</time>
      </trkpt>
      <trkpt lat="37.794524000" lon="-3.820404000">
        <ele>505.8</ele>
        <time>2020-10-15T08:08:06Z</time>
      </trkpt>
      <trkpt lat="37.794551000" lon="-3.820541000">
        <ele>505.5</ele>
        <time>2020-10-15T08:08:08Z</time>
      </trkpt>
      <trkpt lat="37.794576000" lon="-3.820672000">
        <ele>505.3</ele>
        <time>2020-10-15T08:08:10Z</time>
      </trkpt>
      <trkpt lat="37.794608000" lon="-3.820808000">
        <ele>505.1</ele>
        <time>2020-10-15T08:08:12Z</time>
      </trkpt>
      <trkpt lat="37.794637000" lon="-3.820938000">
        <ele>504.9</ele>
        <time>2020-10-15T08:08:14Z</time>
      </trkpt>
      <trkpt lat="37.794667000" lon="-3.821074000">
        <ele>504.8</ele>
        <time>2020-10-15T08:08:16Z</time>
      </trkpt>
      <trkpt lat="37.794700000" lon="-3.821203000">
        <ele>504.8</ele>
        <time>2020-10-15T08:08:18Z</time>
      </trkpt>
      <trkpt lat="37.794738000" lon="-3.821337000">
        <ele>504.9</ele>
        <time>2020-10-15T08:08:20Z</time>
      </trkpt>
      <trkpt lat="37.794774000" lon="-3.821456000">
        <ele>504.9</ele>
        <time>2020-10-15T08:08:22Z</time>
      </trkpt>
      <trkpt lat="37.794807000" lon="-3.821578000">
        <ele>504.8</ele>
        <time>2020-10-15T08:08:24Z</time>
      </trkpt>
      <trkpt lat="37.794851000" lon="-3.821690000">
        <ele>504.7</ele>
        <time>2020-10-15T08:08:26Z</time>
      </trkpt>
      <trkpt lat="37.794897000" lon="-3.821803000">
        <ele>504.6</ele>
        <time>2020-10-15T08:08:28Z</time>
      </trkpt>
      <trkpt lat="37.794936000" lon="-3.821912000">
        <ele>504.6</ele>
        <time>2020-10-15T08:08:30Z</time>
      </trkpt>
      <trkpt lat="37.794983000" lon="-3.822015000">
        <ele>504.7</ele>
        <time>2020-10-15T08:08:32Z</time>
      </trkpt>
      <trkpt lat="37.795029000" lon="-3.822111000">
        <ele>504.8</ele>
        <time>2020-10-15T08:08:34Z</time>
      </trkpt>
      <trkpt lat="37.795076000" lon="-3.822212000">
        <ele>505.0</ele>
        <time>2020-10-15T08:08:36Z</time>
      </trkpt>
      <trkpt lat="37.795116000" lon="-3.822312000">
        <ele>505.3</ele>
        <time>2020-10-15T08:08:38Z</time>
      </trkpt>
      <trkpt lat="37.795172000" lon="-3.822399000">
        <ele>505.5</ele>
        <time>2020-10-15T08:08:40Z</time>
      </trkpt>
      <trkpt lat="37.795223000" lon="-3.822490000">
        <ele>505.7</ele>
        <time>2020-10-15T08:08:42Z</time>
      </trkpt>
      <trkpt lat="37.795280000" lon="-3.822576000">
        <ele>506.1</ele>
        <time>2020-10-15T08:08:44Z</time>
      </trkpt>
      <trkpt lat="37.795336000" lon="-3.822670000">
        <ele>506.5</ele>
        <time>2020-10-15T08:08:46Z</time>
      </trkpt>
      <trkpt lat="37.795385000" lon="-3.822753000">
        <ele>506.9</ele>
        <time>2020-10-15T08:08:48Z</time>
      </trkpt>
      <trkpt lat="37.795437000" lon="-3.822840000">
        <ele>507.4</ele>
        <time>2020-10-15T08:08:50Z</time>
      </trkpt>
      <trkpt lat="37.795493000" lon="-3.822919000">
        <ele>507.8</ele>
        <time>2020-10-15T08:08:52Z</time>
      </trkpt>
      <trkpt lat="37.795554000" lon="-3.822996000">
        <ele>508.3</ele>
        <time>2020-10-15T08:08:54Z</time>
      </trkpt>
      <trkpt lat="37.795616000" lon="-3.823072000">
        <ele>508.7</ele>
        <time>2020-10-15T08:08:56Z</time>
      </trkpt>
      <trkpt lat="37.795678000" lon="-3.823148000">
        <ele>509.1</ele>
        <time>2020-10-15T08:08:58Z</time>
      </trkpt>
      <trkpt lat="37.795741000" lon="-3.823221000">
        <ele>509.5</ele>
        <time>2020-10-15T08:09:00Z</time>
      </trkpt>
      <trkpt lat="37.795805000" lon="-3.823292000">
        <ele>509.8</ele>
        <time>2020-10-15T08:09:02Z</time>
      </trkpt>
      <trkpt lat="37.795871000" lon="-3.823362000">
        <ele>510.1</ele>
        <time>2020-10-15T08:09:04Z</time>
      </trkpt>
      <trkpt lat="37.795941000" lon="-3.823430000">
        <ele>510.3</ele>
        <time>2020-10-15T08:09:06Z</time>
      </trkpt>
      <trkpt lat="37.796012000" lon="-3.823495000">
        <ele>510.5</ele>
        <time>2020-10-15T08:09:08Z</time>
      </trkpt>
      <trkpt lat="37.796085000" lon="-3.823556000">
        <ele>510.7</ele>
        <time>2020-10-15T08:09:10Z</time>
      </trkpt>
      <trkpt lat="37.796159000" lon="-3.823618000">
        <ele>510.8</ele>
        <time>2020-10-15T08:09:12Z</time>
      </trkpt>
      <trkpt lat="37.796235000" lon="-3.823678000">
        <ele>510.9</ele>
        <time>2020-10-15T08:09:14Z</time>
      </trkpt>
      <trkpt lat="37.796309000" lon="-3.823738000">
        <ele>511.0</ele>
        <time>2020-10-15T08:09:16Z</time>
      </trkpt>
      <trkpt lat="37.796384000" lon="-3.823795000">
        <ele>511.1</ele>
        <time>2020-10-15T08:09:18Z</time>
      </trkpt>
      <trkpt lat="37.796459000" lon="-3.823846000">
        <ele>511.2</ele>
        <time>2020-10-15T08:09:20Z</time>
      </trkpt>
      <trkpt lat="37.796534000" lon="-3.823895000">
        <ele>511.2</ele>
        <time>2020-10-15T08:09:22Z</time>
      </trkpt>
      <trkpt lat="37.796610000" lon="-3.823941000">
        <ele>511.1</ele>
        <time>2020-10-15T08:09:24Z</time>
      </trkpt>
      <trkpt lat="37.796708000" lon="-3.824002000">
        <ele>511.0</ele>
        <time>2020-10-15T08:09:27Z</time>
      </trkpt>
      <trkpt lat="37.796788000" lon="-3.824057000">
        <ele>510.8</ele>
        <time>2020-10-15T08:09:30Z</time>
      </trkpt>
      <trkpt lat="37.796873000" lon="-3.824071000">
        <ele>510.5</ele>
        <time>2020-10-15T08:09:33Z</time>
      </trkpt>
      <trkpt lat="37.796957000" lon="-3.824021000">
        <ele>510.3</ele>
        <time>2020-10-15T08:09:37Z</time>
      </trkpt>
      <trkpt lat="37.797057000" lon="-3.823971000">
        <ele>510.1</ele>
        <time>2020-10-15T08:09:39Z</time>
      </trkpt>
      <trkpt lat="37.797139000" lon="-3.823950000">
        <ele>509.9</ele>
        <time>2020-10-15T08:09:41Z</time>
      </trkpt>
      <trkpt lat="37.797243000" lon="-3.823934000">
        <ele>509.6</ele>
        <time>2020-10-15T08:09:43Z</time>
      </trkpt>
      <trkpt lat="37.797340000" lon="-3.823899000">
        <ele>509.3</ele>
        <time>2020-10-15T08:09:45Z</time>
      </trkpt>
      <trkpt lat="37.797414000" lon="-3.823857000">
        <ele>508.7</ele>
        <time>2020-10-15T08:09:47Z</time>
      </trkpt>
      <trkpt lat="37.797508000" lon="-3.823778000">
        <ele>508.1</ele>
        <time>2020-10-15T08:09:50Z</time>
      </trkpt>
      <trkpt lat="37.797589000" lon="-3.823692000">
        <ele>507.5</ele>
        <time>2020-10-15T08:09:53Z</time>
      </trkpt>
      <trkpt lat="37.797653000" lon="-3.823605000">
        <ele>506.7</ele>
        <time>2020-10-15T08:09:56Z</time>
      </trkpt>
      <trkpt lat="37.797757000" lon="-3.823539000">
        <ele>506.1</ele>
        <time>2020-10-15T08:09:59Z</time>
      </trkpt>
      <trkpt lat="37.797827000" lon="-3.823476000">
        <ele>505.5</ele>
        <time>2020-10-15T08:10:01Z</time>
      </trkpt>
      <trkpt lat="37.797897000" lon="-3.823397000">
        <ele>504.8</ele>
        <time>2020-10-15T08:10:03Z</time>
      </trkpt>
      <trkpt lat="37.797963000" lon="-3.823334000">
        <ele>504.2</ele>
        <time>2020-10-15T08:10:05Z</time>
      </trkpt>
      <trkpt lat="37.798040000" lon="-3.823232000">
        <ele>503.5</ele>
        <time>2020-10-15T08:10:08Z</time>
      </trkpt>
      <trkpt lat="37.798138000" lon="-3.823146000">
        <ele>503.1</ele>
        <time>2020-10-15T08:10:11Z</time>
      </trkpt>
      <trkpt lat="37.798200000" lon="-3.823076000">
        <ele>502.7</ele>
        <time>2020-10-15T08:10:13Z</time>
      </trkpt>
      <trkpt lat="37.798304000" lon="-3.823034000">
        <ele>502.6</ele>
        <time>2020-10-15T08:10:16Z</time>
      </trkpt>
      <trkpt lat="37.798395000" lon="-3.823124000">
        <ele>502.6</ele>
        <time>2020-10-15T08:10:19Z</time>
      </trkpt>
      <trkpt lat="37.798460000" lon="-3.823246000">
        <ele>502.7</ele>
        <time>2020-10-15T08:10:22Z</time>
      </trkpt>
      <trkpt lat="37.798528000" lon="-3.823371000">
        <ele>502.8</ele>
        <time>2020-10-15T08:10:25Z</time>
      </trkpt>
      <trkpt lat="37.798592000" lon="-3.823491000">
        <ele>503.0</ele>
        <time>2020-10-15T08:10:28Z</time>
      </trkpt>
      <trkpt lat="37.798593000" lon="-3.823622000">
        <ele>503.3</ele>
        <time>2020-10-15T08:10:31Z</time>
      </trkpt>
      <trkpt lat="37.798536000" lon="-3.823704000">
        <ele>503.6</ele>
        <time>2020-10-15T08:10:34Z</time>
      </trkpt>
      <trkpt lat="37.798446000" lon="-3.823756000">
        <ele>504.2</ele>
        <time>2020-10-15T08:10:38Z</time>
      </trkpt>
      <trkpt lat="37.798371000" lon="-3.823792000">
        <ele>504.8</ele>
        <time>2020-10-15T08:10:41Z</time>
      </trkpt>
      <trkpt lat="37.798280000" lon="-3.823858000">
        <ele>505.5</ele>
        <time>2020-10-15T08:10:45Z</time>
      </trkpt>
      <trkpt lat="37.798188000" lon="-3.823916000">
        <ele>506.4</ele>
        <time>2020-10-15T08:10:49Z</time>
      </trkpt>
      <trkpt lat="37.798116000" lon="-3.823971000">
        <ele>507.2</ele>
        <time>2020-10-15T08:10:53Z</time>
      </trkpt>
      <trkpt lat="37.798032000" lon="-3.824016000">
        <ele>508.0</ele>
        <time>2020-10-15T08:10:57Z</time>
      </trkpt>
      <trkpt lat="37.797942000" lon="-3.824065000">
        <ele>508.9</ele>
        <time>2020-10-15T08:11:02Z</time>
      </trkpt>
      <trkpt lat="37.797861000" lon="-3.824093000">
        <ele>510.1</ele>
        <time>2020-10-15T08:11:06Z</time>
      </trkpt>
      <trkpt lat="37.797776000" lon="-3.824151000">
        <ele>511.4</ele>
        <time>2020-10-15T08:11:11Z</time>
      </trkpt>
      <trkpt lat="37.797708000" lon="-3.824229000">
        <ele>512.6</ele>
        <time>2020-10-15T08:11:16Z</time>
      </trkpt>
      <trkpt lat="37.797642000" lon="-3.824293000">
        <ele>513.9</ele>
        <time>2020-10-15T08:11:22Z</time>
      </trkpt>
      <trkpt lat="37.797600000" lon="-3.824383000">
        <ele>515.0</ele>
        <time>2020-10-15T08:11:28Z</time>
      </trkpt>
      <trkpt lat="37.797590000" lon="-3.824495000">
        <ele>516.0</ele>
        <time>2020-10-15T08:11:35Z</time>
      </trkpt>
      <trkpt lat="37.797633000" lon="-3.824595000">
        <ele>516.7</ele>
        <time>2020-10-15T08:11:40Z</time>
      </trkpt>
      <trkpt lat="37.797716000" lon="-3.824667000">
        <ele>517.4</ele>
        <time>2020-10-15T08:11:45Z</time>
      </trkpt>
      <trkpt lat="37.797789000" lon="-3.824724000">
        <ele>518.0</ele>
        <time>2020-10-15T08:11:49Z</time>
      </trkpt>
      <trkpt lat="37.797863000" lon="-3.824771000">
        <ele>518.6</ele>
        <time>2020-10-15T08:11:53Z</time>
      </trkpt>
      <trkpt lat="37.797934000" lon="-3.824822000">
        <ele>519.1</ele>
        <time>2020-10-15T08:11:57Z</time>
      </trkpt>
      <trkpt lat="37.798013000" lon="-3.824896000">
        <ele>519.4</ele>
        <time>2020-10-15T08:12:02Z</time>
      </trkpt>
      <trkpt lat="37.798075000" lon="-3.824968000">
        <ele>519.5</ele>
        <time>2020-10-15T08:12:06Z</time>
      </trkpt>
      <trkpt lat="37.798142000" lon="-3.825037000">
        <ele>519.5</ele>
        <time>2020-10-15T08:12:10Z</time>
      </trkpt>
      <trkpt lat="37.798202000" lon="-3.825106000">
        <ele>519.3</ele>
        <time>2020-10-15T08:12:13Z</time>
      </trkpt>
      <trkpt lat="37.798272000" lon="-3.825182000">
        <ele>519.1</ele>
        <time>2020-10-15T08:12:16Z</time>
      </trkpt>
      <trkpt lat="37.798345000" lon="-3.825272000">
        <ele>518.9</ele>
        <time>2020-10-15T08:12:19Z</time>
      </trkpt>
      <trkpt lat="37.798429000" lon="-3.825362000">
        <ele>518.7</ele>
        <time>2020-10-15T08:12:22Z</time>
      </trkpt>
      <trkpt lat="37.798515000" lon="-3.825456000">
        <ele>518.5</ele>
        <time>2020-10-15T08:12:25Z</time>
      </trkpt>
      <trkpt lat="37.798603000" lon="-3.825553000">
        <ele>518.3</ele>
        <time>2020-10-15T08:12:28Z</time>
      </trkpt>
      <trkpt lat="37.798666000" lon="-3.825621000">
        <ele>518.0</ele>
        <time>2020-10-15T08:12:30Z</time>
      </trkpt>
      <trkpt lat="37.798726000" lon="-3.825693000">
        <ele>517.8</ele>
        <time>2020-10-15T08:12:32Z</time>
      </trkpt>
      <trkpt lat="37.798788000" lon="-3.825773000">
        <ele>517.6</ele>
        <time>2020-10-15T08:12:34Z</time>
      </trkpt>
      <trkpt lat="37.798851000" lon="-3.825870000">
        <ele>517.5</ele>
        <time>2020-10-15T08:12:36Z</time>
      </trkpt>
      <trkpt lat="37.798914000" lon="-3.825957000">
        <ele>517.4</ele>
        <time>2020-10-15T08:12:38Z</time>
      </trkpt>
      <trkpt lat="37.798982000" lon="-3.826038000">
        <ele>517.4</ele>
        <time>2020-10-15T08:12:40Z</time>
      </trkpt>
      <trkpt lat="37.799035000" lon="-3.826134000">
        <ele>517.4</ele>
        <time>2020-10-15T08:12:42Z</time>
      </trkpt>
      <trkpt lat="37.799074000" lon="-3.826231000">
        <ele>517.4</ele>
        <time>2020-10-15T08:12:44Z</time>
      </trkpt>
      <trkpt lat="37.799109000" lon="-3.826339000">
        <ele>517.5</ele>
        <time>2020-10-15T08:12:46Z</time>
      </trkpt>
      <trkpt lat="37.799126000" lon="-3.826448000">
        <ele>517.5</ele>
        <time>2020-10-15T08:12:48Z</time>
      </trkpt>
      <trkpt lat="37.799148000" lon="-3.826557000">
        <ele>517.6</ele>
        <time>2020-10-15T08:12:50Z</time>
      </trkpt>
      <trkpt lat="37.799176000" lon="-3.826675000">
        <ele>517.7</ele>
        <time>2020-10-15T08:12:52Z</time>
      </trkpt>
      <trkpt lat="37.799204000" lon="-3.826798000">
        <ele>517.8</ele>
        <time>2020-10-15T08:12:54Z</time>
      </trkpt>
      <trkpt lat="37.799232000" lon="-3.826916000">
        <ele>517.9</ele>
        <time>2020-10-15T08:12:56Z</time>
      </trkpt>
      <trkpt lat="37.799261000" lon="-3.827032000">
        <ele>518.0</ele>
        <time>2020-10-15T08:12:58Z</time>
      </trkpt>
      <trkpt lat="37.799284000" lon="-3.827140000">
        <ele>518.0</ele>
        <time>2020-10-15T08:13:00Z</time>
      </trkpt>
      <trkpt lat="37.799328000" lon="-3.827282000">
        <ele>518.0</ele>
        <time>2020-10-15T08:13:03Z</time>
      </trkpt>
      <trkpt lat="37.799359000" lon="-3.827432000">
        <ele>518.0</ele>
        <time>2020-10-15T08:13:06Z</time>
      </trkpt>
      <trkpt lat="37.799387000" lon="-3.827583000">
        <ele>518.0</ele>
        <time>2020-10-15T08:13:09Z</time>
      </trkpt>
      <trkpt lat="37.799412000" lon="-3.827732000">
        <ele>518.0</ele>
        <time>2020-10-15T08:13:12Z</time>
      </trkpt>
      <trkpt lat="37.799426000" lon="-3.827837000">
        <ele>518.0</ele>
        <time>2020-10-15T08:13:14Z</time>
      </trkpt>
      <trkpt lat="37.799435000" lon="-3.827945000">
        <ele>518.1</ele>
        <time>2020-10-15T08:13:16Z</time>
      </trkpt>
      <trkpt lat="37.799449000" lon="-3.828054000">
        <ele>518.2</ele>
        <time>2020-10-15T08:13:18Z</time>
      </trkpt>
      <trkpt lat="37.799462000" lon="-3.828161000">
        <ele>518.3</ele>
        <time>2020-10-15T08:13:20Z</time>
      </trkpt>
      <trkpt lat="37.799468000" lon="-3.828272000">
        <ele>518.5</ele>
        <time>2020-10-15T08:13:22Z</time>
      </trkpt>
      <trkpt lat="37.799473000" lon="-3.828384000">
        <ele>518.6</ele>
        <time>2020-10-15T08:13:24Z</time>
      </trkpt>
      <trkpt lat="37.799476000" lon="-3.828494000">
        <ele>518.9</ele>
        <time>2020-10-15T08:13:26Z</time>
      </trkpt>
      <trkpt lat="37.799473000" lon="-3.828604000">
        <ele>519.2</ele>
        <time>2020-10-15T08:13:28Z</time>
      </trkpt>
      <trkpt lat="37.799469000" lon="-3.828713000">
        <ele>519.5</ele>
        <time>2020-10-15T08:13:30Z</time>
      </trkpt>
      <trkpt lat="37.799469000" lon="-3.828822000">
        <ele>519.8</ele>
        <time>2020-10-15T08:13:32Z</time>
      </trkpt>
      <trkpt lat="37.799467000" lon="-3.828932000">
        <ele>520.2</ele>
        <time>2020-10-15T08:13:34Z</time>
      </trkpt>
      <trkpt lat="37.799465000" lon="-3.829040000">
        <ele>520.5</ele>
        <time>2020-10-15T08:13:36Z</time>
      </trkpt>
      <trkpt lat="37.799462000" lon="-3.829148000">
        <ele>520.9</ele>
        <time>2020-10-15T08:13:38Z</time>
      </trkpt>
      <trkpt lat="37.799455000" lon="-3.829255000">
        <ele>521.4</ele>
        <time>2020-10-15T08:13:40Z</time>
      </trkpt>
      <trkpt lat="37.799451000" lon="-3.829360000">
        <ele>521.8</ele>
        <time>2020-10-15T08:13:42Z</time>
      </trkpt>
      <trkpt lat="37.799446000" lon="-3.829468000">
        <ele>522.3</ele>
        <time>2020-10-15T08:13:44Z</time>
      </trkpt>
      <trkpt lat="37.799441000" lon="-3.829578000">
        <ele>522.8</ele>
        <time>2020-10-15T08:13:46Z</time>
      </trkpt>
      <trkpt lat="37.799437000" lon="-3.829688000">
        <ele>523.3</ele>
        <time>2020-10-15T08:13:48Z</time>
      </trkpt>
      <trkpt lat="37.799428000" lon="-3.829796000">
        <ele>523.7</ele>
        <time>2020-10-15T08:13:50Z</time>
      </trkpt>
      <trkpt lat="37.799422000" lon="-3.829904000">
        <ele>524.2</ele>
        <time>2020-10-15T08:13:52Z</time>
      </trkpt>
      <trkpt lat="37.799421000" lon="-3.830012000">
        <ele>524.6</ele>
        <time>2020-10-15T08:13:54Z</time>
      </trkpt>
      <trkpt lat="37.799412000" lon="-3.830120000">
        <ele>525.1</ele>
        <time>2020-10-15T08:13:56Z</time>
      </trkpt>
      <trkpt lat="37.799404000" lon="-3.830229000">
        <ele>525.6</ele>
        <time>2020-10-15T08:13:58Z</time>
      </trkpt>
      <trkpt lat="37.799400000" lon="-3.830343000">
        <ele>526.2</ele>
        <time>2020-10-15T08:14:00Z</time>
      </trkpt>
      <trkpt lat="37.799395000" lon="-3.830464000">
        <ele>526.7</ele>
        <time>2020-10-15T08:14:02Z</time>
      </trkpt>
      <trkpt lat="37.799390000" lon="-3.830577000">
        <ele>527.3</ele>
        <time>2020-10-15T08:14:04Z</time>
      </trkpt>
      <trkpt lat="37.799383000" lon="-3.830697000">
        <ele>527.7</ele>
        <time>2020-10-15T08:14:06Z</time>
      </trkpt>
      <trkpt lat="37.799386000" lon="-3.830815000">
        <ele>528.2</ele>
        <time>2020-10-15T08:14:08Z</time>
      </trkpt>
      <trkpt lat="37.799376000" lon="-3.830942000">
        <ele>528.6</ele>
        <time>2020-10-15T08:14:10Z</time>
      </trkpt>
      <trkpt lat="37.799370000" lon="-3.831064000">
        <ele>529.2</ele>
        <time>2020-10-15T08:14:12Z</time>
      </trkpt>
      <trkpt lat="37.799367000" lon="-3.831190000">
        <ele>529.7</ele>
        <time>2020-10-15T08:14:14Z</time>
      </trkpt>
      <trkpt lat="37.799358000" lon="-3.831315000">
        <ele>530.2</ele>
        <time>2020-10-15T08:14:16Z</time>
      </trkpt>
      <trkpt lat="37.799356000" lon="-3.831437000">
        <ele>530.5</ele>
        <time>2020-10-15T08:14:18Z</time>
      </trkpt>
      <trkpt lat="37.799347000" lon="-3.831561000">
        <ele>530.8</ele>
        <time>2020-10-15T08:14:20Z</time>
      </trkpt>
      <trkpt lat="37.799339000" lon="-3.831686000">
        <ele>530.9</ele>
        <time>2020-10-15T08:14:22Z</time>
      </trkpt>
      <trkpt lat="37.799330000" lon="-3.831811000">
        <ele>530.8</ele>
        <time>2020-10-15T08:14:24Z</time>
      </trkpt>
      <trkpt lat="37.799323000" lon="-3.831935000">
        <ele>530.6</ele>
        <time>2020-10-15T08:14:26Z</time>
      </trkpt>
      <trkpt lat="37.799311000" lon="-3.832053000">
        <ele>530.4</ele>
        <time>2020-10-15T08:14:28Z</time>
      </trkpt>
      <trkpt lat="37.799311000" lon="-3.832173000">
        <ele>529.9</ele>
        <time>2020-10-15T08:14:30Z</time>
      </trkpt>
      <trkpt lat="37.799312000" lon="-3.832295000">
        <ele>529.5</ele>
        <time>2020-10-15T08:14:32Z</time>
      </trkpt>
      <trkpt lat="37.799309000" lon="-3.832419000">
        <ele>529.0</ele>
        <time>2020-10-15T08:14:34Z</time>
      </trkpt>
      <trkpt lat="37.799301000" lon="-3.832539000">
        <ele>528.5</ele>
        <time>2020-10-15T08:14:36Z</time>
      </trkpt>
      <trkpt lat="37.799295000" lon="-3.832663000">
        <ele>528.1</ele>
        <time>2020-10-15T08:14:38Z</time>
      </trkpt>
      <trkpt lat="37.799295000" lon="-3.832793000">
        <ele>527.6</ele>
        <time>2020-10-15T08:14:40Z</time>
      </trkpt>
      <trkpt lat="37.799294000" lon="-3.832925000">
        <ele>527.2</ele>
        <time>2020-10-15T08:14:42Z</time>
      </trkpt>
      <trkpt lat="37.799286000" lon="-3.833056000">
        <ele>526.8</ele>
        <time>2020-10-15T08:14:44Z</time>
      </trkpt>
      <trkpt lat="37.799276000" lon="-3.833183000">
        <ele>526.5</ele>
        <time>2020-10-15T08:14:46Z</time>
      </trkpt>
      <trkpt lat="37.799271000" lon="-3.833315000">
        <ele>526.2</ele>
        <time>2020-10-15T08:14:48Z</time>
      </trkpt>
      <trkpt lat="37.799265000" lon="-3.833444000">
        <ele>525.9</ele>
        <time>2020-10-15T08:14:50Z</time>
      </trkpt>
      <trkpt lat="37.799261000" lon="-3.833573000">
        <ele>525.7</ele>
        <time>2020-10-15T08:14:52Z</time>
      </trkpt>
      <trkpt lat="37.799255000" lon="-3.833708000">
        <ele>525.5</ele>
        <time>2020-10-15T08:14:54Z</time>
      </trkpt>
      <trkpt lat="37.799246000" lon="-3.833839000">
        <ele>525.2</ele>
        <time>2020-10-15T08:14:56Z</time>
      </trkpt>
      <trkpt lat="37.799248000" lon="-3.833968000">
        <ele>524.8</ele>
        <time>2020-10-15T08:14:58Z</time>
      </trkpt>
      <trkpt lat="37.799242000" lon="-3.834090000">
        <ele>524.5</ele>
        <time>2020-10-15T08:15:00Z</time>
      </trkpt>
      <trkpt lat="37.799239000" lon="-3.834222000">
        <ele>524.4</ele>
        <time>2020-10-15T08:15:02Z</time>
      </trkpt>
      <trkpt lat="37.799233000" lon="-3.834351000">
        <ele>524.2</ele>
        <time>2020-10-15T08:15:04Z</time>
      </trkpt>
      <trkpt lat="37.799231000" lon="-3.834479000">
        <ele>524.1</ele>
        <time>2020-10-15T08:15:06Z</time>
      </trkpt>
      <trkpt lat="37.799223000" lon="-3.834609000">
        <ele>524.1</ele>
        <time>2020-10-15T08:15:08Z</time>
      </trkpt>
      <trkpt lat="37.799211000" lon="-3.834729000">
        <ele>524.1</ele>
        <time>2020-10-15T08:15:10Z</time>
      </trkpt>
      <trkpt lat="37.799212000" lon="-3.834844000">
        <ele>524.2</ele>
        <time>2020-10-15T08:15:12Z</time>
      </trkpt>
      <trkpt lat="37.799211000" lon="-3.834954000">
        <ele>524.2</ele>
        <time>2020-10-15T08:15:14Z</time>
      </trkpt>
      <trkpt lat="37.799206000" lon="-3.835071000">
        <ele>524.1</ele>
        <time>2020-10-15T08:15:16Z</time>
      </trkpt>
      <trkpt lat="37.799210000" lon="-3.835182000">
        <ele>524.0</ele>
        <time>2020-10-15T08:15:18Z</time>
      </trkpt>
      <trkpt lat="37.799219000" lon="-3.835288000">
        <ele>523.9</ele>
        <time>2020-10-15T08:15:20Z</time>
      </trkpt>
      <trkpt lat="37.799233000" lon="-3.835407000">
        <ele>523.7</ele>
        <time>2020-10-15T08:15:22Z</time>
      </trkpt>
      <trkpt lat="37.799251000" lon="-3.835522000">
        <ele>523.5</ele>
        <time>2020-10-15T08:15:24Z</time>
      </trkpt>
      <trkpt lat="37.799268000" lon="-3.835640000">
        <ele>523.1</ele>
        <time>2020-10-15T08:15:26Z</time>
      </trkpt>
      <trkpt lat="37.799288000" lon="-3.835763000">
        <ele>522.5</ele>
        <time>2020-10-15T08:15:28Z</time>
      </trkpt>
      <trkpt lat="37.799309000" lon="-3.835886000">
        <ele>522.0</ele>
        <time>2020-10-15T08:15:30Z</time>
      </trkpt>
      <trkpt lat="37.799334000" lon="-3.835999000">
        <ele>521.4</ele>
        <time>2020-10-15T08:15:32Z</time>
      </trkpt>
      <trkpt lat="37.799362000" lon="-3.836114000">
        <ele>520.7</ele>
        <time>2020-10-15T08:15:34Z</time>
      </trkpt>
      <trkpt lat="37.799392000" lon="-3.836235000">
        <ele>520.1</ele>
        <time>2020-10-15T08:15:36Z</time>
      </trkpt>
      <trkpt lat="37.799430000" lon="-3.836357000">
        <ele>519.5</ele>
        <time>2020-10-15T08:15:38Z</time>
      </trkpt>
      <trkpt lat="37.799470000" lon="-3.836477000">
        <ele>518.9</ele>
        <time>2020-10-15T08:15:40Z</time>
      </trkpt>
      <trkpt lat="37.799510000" lon="-3.836595000">
        <ele>518.4</ele>
        <time>2020-10-15T08:15:42Z</time>
      </trkpt>
      <trkpt lat="37.799556000" lon="-3.836712000">
        <ele>517.8</ele>
        <time>2020-10-15T08:15:44Z</time>
      </trkpt>
      <trkpt lat="37.799597000" lon="-3.836816000">
        <ele>517.4</ele>
        <time>2020-10-15T08:15:46Z</time>
      </trkpt>
      <trkpt lat="37.799638000" lon="-3.836917000">
        <ele>517.1</ele>
        <time>2020-10-15T08:15:48Z</time>
      </trkpt>
      <trkpt lat="37.799674000" lon="-3.837012000">
        <ele>516.9</ele>
        <time>2020-10-15T08:15:50Z</time>
      </trkpt>
      <trkpt lat="37.799725000" lon="-3.837143000">
        <ele>516.8</ele>
        <time>2020-10-15T08:15:53Z</time>
      </trkpt>
      <trkpt lat="37.799780000" lon="-3.837272000">
        <ele>516.9</ele>
        <time>2020-10-15T08:15:56Z</time>
      </trkpt>
      <trkpt lat="37.799820000" lon="-3.837365000">
        <ele>517.0</ele>
        <time>2020-10-15T08:15:58Z</time>
      </trkpt>
      <trkpt lat="37.799865000" lon="-3.837456000">
        <ele>517.2</ele>
        <time>2020-10-15T08:16:00Z</time>
      </trkpt>
      <trkpt lat="37.799909000" lon="-3.837548000">
        <ele>517.5</ele>
        <time>2020-10-15T08:16:02Z</time>
      </trkpt>
      <trkpt lat="37.799952000" lon="-3.837642000">
        <ele>517.7</ele>
        <time>2020-10-15T08:16:04Z</time>
      </trkpt>
      <trkpt lat="37.799994000" lon="-3.837738000">
        <ele>518.1</ele>
        <time>2020-10-15T08:16:06Z</time>
      </trkpt>
      <trkpt lat="37.800039000" lon="-3.837834000">
        <ele>518.5</ele>
        <time>2020-10-15T08:16:08Z</time>
      </trkpt>
      <trkpt lat="37.800081000" lon="-3.837930000">
        <ele>519.0</ele>
        <time>2020-10-15T08:16:10Z</time>
      </trkpt>
      <trkpt lat="37.800123000" lon="-3.838020000">
        <ele>519.5</ele>
        <time>2020-10-15T08:16:12Z</time>
      </trkpt>
      <trkpt lat="37.800165000" lon="-3.838111000">
        <ele>520.0</ele>
        <time>2020-10-15T08:16:14Z</time>
      </trkpt>
      <trkpt lat="37.800208000" lon="-3.838202000">
        <ele>520.5</ele>
        <time>2020-10-15T08:16:16Z</time>
      </trkpt>
      <trkpt lat="37.800249000" lon="-3.838296000">
        <ele>521.1</ele>
        <time>2020-10-15T08:16:18Z</time>
      </trkpt>
      <trkpt lat="37.800290000" lon="-3.838386000">
        <ele>521.7</ele>
        <time>2020-10-15T08:16:20Z</time>
      </trkpt>
      <trkpt lat="37.800331000" lon="-3.838475000">
        <ele>522.4</ele>
        <time>2020-10-15T08:16:22Z</time>
      </trkpt>
      <trkpt lat="37.800389000" lon="-3.838605000">
        <ele>523.1</ele>
        <time>2020-10-15T08:16:25Z</time>
      </trkpt>
      <trkpt lat="37.800447000" lon="-3.838735000">
        <ele>523.9</ele>
        <time>2020-10-15T08:16:28Z</time>
      </trkpt>
      <trkpt lat="37.800505000" lon="-3.838857000">
        <ele>524.7</ele>
        <time>2020-10-15T08:16:31Z</time>
      </trkpt>
      <trkpt lat="37.800563000" lon="-3.838983000">
        <ele>525.5</ele>
        <time>2020-10-15T08:16:34Z</time>
      </trkpt>
      <trkpt lat="37.800607000" lon="-3.839071000">
        <ele>526.2</ele>
        <time>2020-10-15T08:16:36Z</time>
      </trkpt>
      <trkpt lat="37.800650000" lon="-3.839161000">
        <ele>526.8</ele>
        <time>2020-10-15T08:16:38Z</time>
      </trkpt>
      <trkpt lat="37.800692000" lon="-3.839252000">
        <ele>527.4</ele>
        <time>2020-10-15T08:16:40Z</time>
      </trkpt>
      <trkpt lat="37.800730000" lon="-3.839342000">
        <ele>527.8</ele>
        <time>2020-10-15T08:16:42Z</time>
      </trkpt>
      <trkpt lat="37.800772000" lon="-3.839431000">
        <ele>528.2</ele>
        <time>2020-10-15T08:16:44Z</time>
      </trkpt>
      <trkpt lat="37.800829000" lon="-3.839567000">
        <ele>528.5</ele>
        <time>2020-10-15T08:16:47Z</time>
      </trkpt>
      <trkpt lat="37.800885000" lon="-3.839701000">
        <ele>528.9</ele>
        <time>2020-10-15T08:16:50Z</time>
      </trkpt>
      <trkpt lat="37.800940000" lon="-3.839837000">
        <ele>529.2</ele>
        <time>2020-10-15T08:16:53Z</time>
      </trkpt>
      <trkpt lat="37.800976000" lon="-3.839931000">
        <ele>529.5</ele>
        <time>2020-10-15T08:16:55Z</time>
      </trkpt>
      <trkpt lat="37.801008000" lon="-3.840027000">
        <ele>529.7</ele>
        <time>2020-10-15T08:16:57Z</time>
      </trkpt>
      <trkpt lat="37.801042000" lon="-3.840125000">
        <ele>530.0</ele>
        <time>2020-10-15T08:16:59Z</time>
      </trkpt>
      <trkpt lat="37.801072000" lon="-3.840222000">
        <ele>530.2</ele>
        <time>2020-10-15T08:17:01Z</time>
      </trkpt>
      <trkpt lat="37.801101000" lon="-3.840319000">
        <ele>530.3</ele>
        <time>2020-10-15T08:17:03Z</time>
      </trkpt>
      <trkpt lat="37.801139000" lon="-3.840461000">
        <ele>530.4</ele>
        <time>2020-10-15T08:17:06Z</time>
      </trkpt>
      <trkpt lat="37.801173000" lon="-3.840605000">
        <ele>530.4</ele>
        <time>2020-10-15T08:17:09Z</time>
      </trkpt>
      <trkpt lat="37.801191000" lon="-3.840706000">
        <ele>530.4</ele>
        <time>2020-10-15T08:17:11Z</time>
      </trkpt>
      <trkpt lat="37.801208000" lon="-3.840806000">
        <ele>530.3</ele>
        <time>2020-10-15T08:17:13Z</time>
      </trkpt>
      <trkpt lat="37.801232000" lon="-3.840954000">
        <ele>530.3</ele>
        <time>2020-10-15T08:17:16Z</time>
      </trkpt>
      <trkpt lat="37.801251000" lon="-3.841102000">
        <ele>530.4</ele>
        <time>2020-10-15T08:17:19Z</time>
      </trkpt>
      <trkpt lat="37.801260000" lon="-3.841205000">
        <ele>530.4</ele>
        <time>2020-10-15T08:17:21Z</time>
      </trkpt>
      <trkpt lat="37.801268000" lon="-3.841310000">
        <ele>530.3</ele>
        <time>2020-10-15T08:17:23Z</time>
      </trkpt>
      <trkpt lat="37.801285000" lon="-3.841455000">
        <ele>530.2</ele>
        <time>2020-10-15T08:17:26Z</time>
      </trkpt>
      <trkpt lat="37.801295000" lon="-3.841601000">
        <ele>530.2</ele>
        <time>2020-10-15T08:17:29Z</time>
      </trkpt>
      <trkpt lat="37.801297000" lon="-3.841746000">
        <ele>530.4</ele>
        <time>2020-10-15T08:17:32Z</time>
      </trkpt>
      <trkpt lat="37.801298000" lon="-3.841900000">
        <ele>530.5</ele>
        <time>2020-10-15T08:17:35Z</time>
      </trkpt>
      <trkpt lat="37.801298000" lon="-3.842003000">
        <ele>530.8</ele>
        <time>2020-10-15T08:17:37Z</time>
      </trkpt>
      <trkpt lat="37.801291000" lon="-3.842105000">
        <ele>531.1</ele>
        <time>2020-10-15T08:17:39Z</time>
      </trkpt>
      <trkpt lat="37.801281000" lon="-3.842207000">
        <ele>531.3</ele>
        <time>2020-10-15T08:17:41Z</time>
      </trkpt>
      <trkpt lat="37.801274000" lon="-3.842313000">
        <ele>531.4</ele>
        <time>2020-10-15T08:17:43Z</time>
      </trkpt>
      <trkpt lat="37.801265000" lon="-3.842420000">
        <ele>531.4</ele>
        <time>2020-10-15T08:17:45Z</time>
      </trkpt>
      <trkpt lat="37.801252000" lon="-3.842527000">
        <ele>531.3</ele>
        <time>2020-10-15T08:17:47Z</time>
      </trkpt>
      <trkpt lat="37.801234000" lon="-3.842635000">
        <ele>531.2</ele>
        <time>2020-10-15T08:17:49Z</time>
      </trkpt>
      <trkpt lat="37.801217000" lon="-3.842742000">
        <ele>531.1</ele>
        <time>2020-10-15T08:17:51Z</time>
      </trkpt>
      <trkpt lat="37.801201000" lon="-3.842847000">
        <ele>531.0</ele>
        <time>2020-10-15T08:17:53Z</time>
      </trkpt>
      <trkpt lat="37.801181000" lon="-3.842954000">
        <ele>530.9</ele>
        <time>2020-10-15T08:17:55Z</time>
      </trkpt>
      <trkpt lat="37.801153000" lon="-3.843070000">
        <ele>530.8</ele>
        <time>2020-10-15T08:17:57Z</time>
      </trkpt>
      <trkpt lat="37.801126000" lon="-3.843178000">
        <ele>530.7</ele>
        <time>2020-10-15T08:17:59Z</time>
      </trkpt>
      <trkpt lat="37.801101000" lon="-3.843290000">
        <ele>530.6</ele>
        <time>2020-10-15T08:18:01Z</time>
      </trkpt>
      <trkpt lat="37.801073000" lon="-3.843404000">
        <ele>530.6</ele>
        <time>2020-10-15T08:18:03Z</time>
      </trkpt>
      <trkpt lat="37.801044000" lon="-3.843513000">
        <ele>530.6</ele>
        <time>2020-10-15T08:18:05Z</time>
      </trkpt>
      <trkpt lat="37.801008000" lon="-3.843612000">
        <ele>530.7</ele>
        <time>2020-10-15T08:18:07Z</time>
      </trkpt>
      <trkpt lat="37.800967000" lon="-3.843716000">
        <ele>530.9</ele>
        <time>2020-10-15T08:18:09Z</time>
      </trkpt>
      <trkpt lat="37.800925000" lon="-3.843819000">
        <ele>531.0</ele>
        <time>2020-10-15T08:18:11Z</time>
      </trkpt>
      <trkpt lat="37.800878000" lon="-3.843922000">
        <ele>531.1</ele>
        <time>2020-10-15T08:18:13Z</time>
      </trkpt>
      <trkpt lat="37.800832000" lon="-3.844027000">
        <ele>531.2</ele>
        <time>2020-10-15T08:18:15Z</time>
      </trkpt>
      <trkpt lat="37.800785000" lon="-3.844136000">
        <ele>531.2</ele>
        <time>2020-10-15T08:18:17Z</time>
      </trkpt>
      <trkpt lat="37.800730000" lon="-3.844246000">
        <ele>531.1</ele>
        <time>2020-10-15T08:18:19Z</time>
      </trkpt>
      <trkpt lat="37.800675000" lon="-3.844348000">
        <ele>530.9</ele>
        <time>2020-10-15T08:18:21Z</time>
      </trkpt>
      <trkpt lat="37.800619000" lon="-3.844454000">
        <ele>530.6</ele>
        <time>2020-10-15T08:18:23Z</time>
      </trkpt>
      <trkpt lat="37.800563000" lon="-3.844564000">
        <ele>530.3</ele>
        <time>2020-10-15T08:18:25Z</time>
      </trkpt>
      <trkpt lat="37.800500000" lon="-3.844668000">
        <ele>529.8</ele>
        <time>2020-10-15T08:18:27Z</time>
      </trkpt>
      <trkpt lat="37.800433000" lon="-3.844765000">
        <ele>529.3</ele>
        <time>2020-10-15T08:18:29Z</time>
      </trkpt>
      <trkpt lat="37.800366000" lon="-3.844857000">
        <ele>528.6</ele>
        <time>2020-10-15T08:18:31Z</time>
      </trkpt>
      <trkpt lat="37.800299000" lon="-3.844946000">
        <ele>528.2</ele>
        <time>2020-10-15T08:18:33Z</time>
      </trkpt>
      <trkpt lat="37.800235000" lon="-3.845034000">
        <ele>527.7</ele>
        <time>2020-10-15T08:18:35Z</time>
      </trkpt>
      <trkpt lat="37.800159000" lon="-3.845131000">
        <ele>527.4</ele>
        <time>2020-10-15T08:18:37Z</time>
      </trkpt>
      <trkpt lat="37.800082000" lon="-3.845217000">
        <ele>527.0</ele>
        <time>2020-10-15T08:18:39Z</time>
      </trkpt>
      <trkpt lat="37.800002000" lon="-3.845296000">
        <ele>526.8</ele>
        <time>2020-10-15T08:18:41Z</time>
      </trkpt>
      <trkpt lat="37.799920000" lon="-3.845384000">
        <ele>526.7</ele>
        <time>2020-10-15T08:18:43Z</time>
      </trkpt>
      <trkpt lat="37.799840000" lon="-3.845467000">
        <ele>526.8</ele>
        <time>2020-10-15T08:18:45Z</time>
      </trkpt>
      <trkpt lat="37.799763000" lon="-3.845538000">
        <ele>527.1</ele>
        <time>2020-10-15T08:18:47Z</time>
      </trkpt>
      <trkpt lat="37.799680000" lon="-3.845607000">
        <ele>527.5</ele>
        <time>2020-10-15T08:18:49Z</time>
      </trkpt>
      <trkpt lat="37.799601000" lon="-3.845676000">
        <ele>527.9</ele>
        <time>2020-10-15T08:18:51Z</time>
      </trkpt>
      <trkpt lat="37.799520000" lon="-3.845735000">
        <ele>528.5</ele>
        <time>2020-10-15T08:18:53Z</time>
      </trkpt>
      <trkpt lat="37.799445000" lon="-3.845796000">
        <ele>529.0</ele>
        <time>2020-10-15T08:18:55Z</time>
      </trkpt>
      <trkpt lat="37.799364000" lon="-3.845854000">
        <ele>529.5</ele>
        <time>2020-10-15T08:18:57Z</time>
      </trkpt>
      <trkpt lat="37.799278000" lon="-3.845912000">
        <ele>530.0</ele>
        <time>2020-10-15T08:18:59Z</time>
      </trkpt>
      <trkpt lat="37.799187000" lon="-3.845967000">
        <ele>530.5</ele>
        <time>2020-10-15T08:19:01Z</time>
      </trkpt>
      <trkpt lat="37.799097000" lon="-3.846012000">
        <ele>531.0</ele>
        <time>2020-10-15T08:19:03Z</time>
      </trkpt>
      <trkpt lat="37.799007000" lon="-3.846059000">
        <ele>531.4</ele>
        <time>2020-10-15T08:19:05Z</time>
      </trkpt>
      <trkpt lat="37.798934000" lon="-3.846128000">
        <ele>531.6</ele>
        <time>2020-10-15T08:19:07Z</time>
      </trkpt>
      <trkpt lat="37.798845000" lon="-3.846177000">
        <ele>531.7</ele>
        <time>2020-10-15T08:19:09Z</time>
      </trkpt>
      <trkpt lat="37.798754000" lon="-3.846224000">
        <ele>531.7</ele>
        <time>2020-10-15T08:19:11Z</time>
      </trkpt>
      <trkpt lat="37.798665000" lon="-3.846271000">
        <ele>531.5</ele>
        <time>2020-10-15T08:19:13Z</time>
      </trkpt>
      <trkpt lat="37.798569000" lon="-3.846313000">
        <ele>531.3</ele>
        <time>2020-10-15T08:19:15Z</time>
      </trkpt>
      <trkpt lat="37.798477000" lon="-3.846362000">
        <ele>530.8</ele>
        <time>2020-10-15T08:19:17Z</time>
      </trkpt>
      <trkpt lat="37.798387000" lon="-3.846405000">
        <ele>530.4</ele>
        <time>2020-10-15T08:19:19Z</time>
      </trkpt>
      <trkpt lat="37.798290000" lon="-3.846436000">
        <ele>529.8</ele>
        <time>2020-10-15T08:19:21Z</time>
      </trkpt>
      <trkpt lat="37.798203000" lon="-3.846479000">
        <ele>529.2</ele>
        <time>2020-10-15T08:19:23Z</time>
      </trkpt>
      <trkpt lat="37.798122000" lon="-3.846530000">
        <ele>528.5</ele>
        <time>2020-10-15T08:19:25Z</time>
      </trkpt>
      <trkpt lat="37.798043000" lon="-3.846566000">
        <ele>528.0</ele>
        <time>2020-10-15T08:19:27Z</time>
      </trkpt>
      <trkpt lat="37.797963000" lon="-3.846608000">
        <ele>527.5</ele>
        <time>2020-10-15T08:19:29Z</time>
      </trkpt>
      <trkpt lat="37.797879000" lon="-3.846648000">
        <ele>527.0</ele>
        <time>2020-10-15T08:19:31Z</time>
      </trkpt>
      <trkpt lat="37.797802000" lon="-3.846698000">
        <ele>526.7</ele>
        <time>2020-10-15T08:19:33Z</time>
      </trkpt>
      <trkpt lat="37.797722000" lon="-3.846747000">
        <ele>526.5</ele>
        <time>2020-10-15T08:19:35Z</time>
      </trkpt>
      <trkpt lat="37.797639000" lon="-3.846803000">
        <ele>526.5</ele>
        <time>2020-10-15T08:19:37Z</time>
      </trkpt>
      <trkpt lat="37.797552000" lon="-3.846861000">
        <ele>526.7</ele>
        <time>2020-10-15T08:19:39Z</time>
      </trkpt>
      <trkpt lat="37.797464000" lon="-3.846923000">
        <ele>527.0</ele>
        <time>2020-10-15T08:19:41Z</time>
      </trkpt>
      <trkpt lat="37.797386000" lon="-3.846989000">
        <ele>527.5</ele>
        <time>2020-10-15T08:19:43Z</time>
      </trkpt>
      <trkpt lat="37.797306000" lon="-3.847062000">
        <ele>527.9</ele>
        <time>2020-10-15T08:19:45Z</time>
      </trkpt>
      <trkpt lat="37.797229000" lon="-3.847136000">
        <ele>528.5</ele>
        <time>2020-10-15T08:19:47Z</time>
      </trkpt>
      <trkpt lat="37.797150000" lon="-3.847210000">
        <ele>529.1</ele>
        <time>2020-10-15T08:19:49Z</time>
      </trkpt>
      <trkpt lat="37.797072000" lon="-3.847286000">
        <ele>529.7</ele>
        <time>2020-10-15T08:19:51Z</time>
      </trkpt>
      <trkpt lat="37.796995000" lon="-3.847361000">
        <ele>530.4</ele>
        <time>2020-10-15T08:19:53Z</time>
      </trkpt>
      <trkpt lat="37.796922000" lon="-3.847442000">
        <ele>531.0</ele>
        <time>2020-10-15T08:19:55Z</time>
      </trkpt>
      <trkpt lat="37.796849000" lon="-3.847526000">
        <ele>531.7</ele>
        <time>2020-10-15T08:19:57Z</time>
      </trkpt>
      <trkpt lat="37.796780000" lon="-3.847616000">
        <ele>532.4</ele>
        <time>2020-10-15T08:19:59Z</time>
      </trkpt>
      <trkpt lat="37.796715000" lon="-3.847703000">
        <ele>532.9</ele>
        <time>2020-10-15T08:20:01Z</time>
      </trkpt>
      <trkpt lat="37.796649000" lon="-3.847783000">
        <ele>533.5</ele>
        <time>2020-10-15T08:20:03Z</time>
      </trkpt>
      <trkpt lat="37.796596000" lon="-3.847877000">
        <ele>534.0</ele>
        <time>2020-10-15T08:20:05Z</time>
      </trkpt>
      <trkpt lat="37.796537000" lon="-3.847965000">
        <ele>534.5</ele>
        <time>2020-10-15T08:20:07Z</time>
      </trkpt>
      <trkpt lat="37.796480000" lon="-3.848053000">
        <ele>535.1</ele>
        <time>2020-10-15T08:20:09Z</time>
      </trkpt>
      <trkpt lat="37.796430000" lon="-3.848145000">
        <ele>535.5</ele>
        <time>2020-10-15T08:20:11Z</time>
      </trkpt>
      <trkpt lat="37.796370000" lon="-3.848237000">
        <ele>535.9</ele>
        <time>2020-10-15T08:20:13Z</time>
      </trkpt>
      <trkpt lat="37.796318000" lon="-3.848338000">
        <ele>536.3</ele>
        <time>2020-10-15T08:20:15Z</time>
      </trkpt>
      <trkpt lat="37.796266000" lon="-3.848432000">
        <ele>536.5</ele>
        <time>2020-10-15T08:20:17Z</time>
      </trkpt>
      <trkpt lat="37.796220000" lon="-3.848531000">
        <ele>536.6</ele>
        <time>2020-10-15T08:20:19Z</time>
      </trkpt>
      <trkpt lat="37.796176000" lon="-3.848632000">
        <ele>536.7</ele>
        <time>2020-10-15T08:20:21Z</time>
      </trkpt>
      <trkpt lat="37.796130000" lon="-3.848736000">
        <ele>536.7</ele>
        <time>2020-10-15T08:20:23Z</time>
      </trkpt>
      <trkpt lat="37.796079000" lon="-3.848834000">
        <ele>536.5</ele>
        <time>2020-10-15T08:20:25Z</time>
      </trkpt>
      <trkpt lat="37.796035000" lon="-3.848926000">
        <ele>536.2</ele>
        <time>2020-10-15T08:20:27Z</time>
      </trkpt>
      <trkpt lat="37.795993000" lon="-3.849019000">
        <ele>535.8</ele>
        <time>2020-10-15T08:20:29Z</time>
      </trkpt>
      <trkpt lat="37.795941000" lon="-3.849110000">
        <ele>535.4</ele>
        <time>2020-10-15T08:20:31Z</time>
      </trkpt>
      <trkpt lat="37.795896000" lon="-3.849209000">
        <ele>534.9</ele>
        <time>2020-10-15T08:20:33Z</time>
      </trkpt>
      <trkpt lat="37.795857000" lon="-3.849308000">
        <ele>534.5</ele>
        <time>2020-10-15T08:20:35Z</time>
      </trkpt>
      <trkpt lat="37.795810000" lon="-3.849401000">
        <ele>534.1</ele>
        <time>2020-10-15T08:20:37Z</time>
      </trkpt>
      <trkpt lat="37.795767000" lon="-3.849490000">
        <ele>533.6</ele>
        <time>2020-10-15T08:20:39Z</time>
      </trkpt>
      <trkpt lat="37.795714000" lon="-3.849582000">
        <ele>533.3</ele>
        <time>2020-10-15T08:20:41Z</time>
      </trkpt>
      <trkpt lat="37.795667000" lon="-3.849669000">
        <ele>533.0</ele>
        <time>2020-10-15T08:20:43Z</time>
      </trkpt>
      <trkpt lat="37.795625000" lon="-3.849767000">
        <ele>532.8</ele>
        <time>2020-10-15T08:20:45Z</time>
      </trkpt>
      <trkpt lat="37.795590000" lon="-3.849871000">
        <ele>532.8</ele>
        <time>2020-10-15T08:20:47Z</time>
      </trkpt>
      <trkpt lat="37.795545000" lon="-3.849974000">
        <ele>533.0</ele>
        <time>2020-10-15T08:20:49Z</time>
      </trkpt>
      <trkpt lat="37.795495000" lon="-3.850073000">
        <ele>533.2</ele>
        <time>2020-10-15T08:20:51Z</time>
      </trkpt>
      <trkpt lat="37.795450000" lon="-3.850175000">
        <ele>533.4</ele>
        <time>2020-10-15T08:20:53Z</time>
      </trkpt>
      <trkpt lat="37.795405000" lon="-3.850272000">
        <ele>533.5</ele>
        <time>2020-10-15T08:20:55Z</time>
      </trkpt>
      <trkpt lat="37.795341000" lon="-3.850404000">
        <ele>533.7</ele>
        <time>2020-10-15T08:20:58Z</time>
      </trkpt>
      <trkpt lat="37.795298000" lon="-3.850498000">
        <ele>534.0</ele>
        <time>2020-10-15T08:21:00Z</time>
      </trkpt>
      <trkpt lat="37.795251000" lon="-3.850592000">
        <ele>534.3</ele>
        <time>2020-10-15T08:21:02Z</time>
      </trkpt>
      <trkpt lat="37.795212000" lon="-3.850684000">
        <ele>534.5</ele>
        <time>2020-10-15T08:21:04Z</time>
      </trkpt>
      <trkpt lat="37.795167000" lon="-3.850775000">
        <ele>534.7</ele>
        <time>2020-10-15T08:21:06Z</time>
      </trkpt>
      <trkpt lat="37.795123000" lon="-3.850868000">
        <ele>534.9</ele>
        <time>2020-10-15T08:21:08Z</time>
      </trkpt>
      <trkpt lat="37.795075000" lon="-3.850973000">
        <ele>535.0</ele>
        <time>2020-10-15T08:21:10Z</time>
      </trkpt>
      <trkpt lat="37.795032000" lon="-3.851071000">
        <ele>535.0</ele>
        <time>2020-10-15T08:21:12Z</time>
      </trkpt>
      <trkpt lat="37.794984000" lon="-3.851164000">
        <ele>535.1</ele>
        <time>2020-10-15T08:21:14Z</time>
      </trkpt>
      <trkpt lat="37.794939000" lon="-3.851253000">
        <ele>535.2</ele>
        <time>2020-10-15T08:21:16Z</time>
      </trkpt>
      <trkpt lat="37.794899000" lon="-3.851344000">
        <ele>535.3</ele>
        <time>2020-10-15T08:21:18Z</time>
      </trkpt>
      <trkpt lat="37.794859000" lon="-3.851438000">
        <ele>535.5</ele>
        <time>2020-10-15T08:21:20Z</time>
      </trkpt>
      <trkpt lat="37.794817000" lon="-3.851534000">
        <ele>535.6</ele>
        <time>2020-10-15T08:21:22Z</time>
      </trkpt>
      <trkpt lat="37.794773000" lon="-3.851627000">
        <ele>535.8</ele>
        <time>2020-10-15T08:21:24Z</time>
      </trkpt>
      <trkpt lat="37.794728000" lon="-3.851719000">
        <ele>536.1</ele>
        <time>2020-10-15T08:21:26Z</time>
      </trkpt>
      <trkpt lat="37.794688000" lon="-3.851814000">
        <ele>536.4</ele>
        <time>2020-10-15T08:21:28Z</time>
      </trkpt>
      <trkpt lat="37.794643000" lon="-3.851906000">
        <ele>536.6</ele>
        <time>2020-10-15T08:21:30Z</time>
      </trkpt>
      <trkpt lat="37.794599000" lon="-3.851998000">
        <ele>536.9</ele>
        <time>2020-10-15T08:21:32Z</time>
      </trkpt>
      <trkpt lat="37.794555000" lon="-3.852093000">
        <ele>537.2</ele>
        <time>2020-10-15T08:21:34Z</time>
      </trkpt>
      <trkpt lat="37.794515000" lon="-3.852186000">
        <ele>537.4</ele>
        <time>2020-10-15T08:21:36Z</time>
      </trkpt>
      <trkpt lat="37.794476000" lon="-3.852279000">
        <ele>537.5</ele>
        <time>2020-10-15T08:21:38Z</time>
      </trkpt>
      <trkpt lat="37.794437000" lon="-3.852373000">
        <ele>537.8</ele>
        <time>2020-10-15T08:21:40Z</time>
      </trkpt>
      <trkpt lat="37.794397000" lon="-3.852467000">
        <ele>538.0</ele>
        <time>2020-10-15T08:21:42Z</time>
      </trkpt>
      <trkpt lat="37.794357000" lon="-3.852563000">
        <ele>538.2</ele>
        <time>2020-10-15T08:21:44Z</time>
      </trkpt>
      <trkpt lat="37.794319000" lon="-3.852659000">
        <ele>538.4</ele>
        <time>2020-10-15T08:21:46Z</time>
      </trkpt>
      <trkpt lat="37.794286000" lon="-3.852758000">
        <ele>538.5</ele>
        <time>2020-10-15T08:21:48Z</time>
      </trkpt>
      <trkpt lat="37.794254000" lon="-3.852858000">
        <ele>538.6</ele>
        <time>2020-10-15T08:21:50Z</time>
      </trkpt>
      <trkpt lat="37.794224000" lon="-3.852961000">
        <ele>538.8</ele>
        <time>2020-10-15T08:21:52Z</time>
      </trkpt>
      <trkpt lat="37.794197000" lon="-3.853066000">
        <ele>539.0</ele>
        <time>2020-10-15T08:21:54Z</time>
      </trkpt>
      <trkpt lat="37.794168000" lon="-3.853171000">
        <ele>539.2</ele>
        <time>2020-10-15T08:21:56Z</time>
      </trkpt>
      <trkpt lat="37.794141000" lon="-3.853276000">
        <ele>539.4</ele>
        <time>2020-10-15T08:21:58Z</time>
      </trkpt>
      <trkpt lat="37.794113000" lon="-3.853380000">
        <ele>539.6</ele>
        <time>2020-10-15T08:22:00Z</time>
      </trkpt>
      <trkpt lat="37.794085000" lon="-3.853483000">
        <ele>539.8</ele>
        <time>2020-10-15T08:22:02Z</time>
      </trkpt>
      <trkpt lat="37.794057000" lon="-3.853586000">
        <ele>540.0</ele>
        <time>2020-10-15T08:22:04Z</time>
      </trkpt>
      <trkpt lat="37.794030000" lon="-3.853687000">
        <ele>540.2</ele>
        <time>2020-10-15T08:22:06Z</time>
      </trkpt>
      <trkpt lat="37.794003000" lon="-3.853790000">
        <ele>540.3</ele>
        <time>2020-10-15T08:22:08Z</time>
      </trkpt>
      <trkpt lat="37.793980000" lon="-3.853896000">
        <ele>540.4</ele>
        <time>2020-10-15T08:22:10Z</time>
      </trkpt>
      <trkpt lat="37.793951000" lon="-3.854001000">
        <ele>540.4</ele>
        <time>2020-10-15T08:22:12Z</time>
      </trkpt>
      <trkpt lat="37.793926000" lon="-3.854108000">
        <ele>540.4</ele>
        <time>2020-10-15T08:22:14Z</time>
      </trkpt>
      <trkpt lat="37.793902000" lon="-3.854218000">
        <ele>540.5</ele>
        <time>2020-10-15T08:22:16Z</time>
      </trkpt>
      <trkpt lat="37.793875000" lon="-3.854324000">
        <ele>540.5</ele>
        <time>2020-10-15T08:22:18Z</time>
      </trkpt>
      <trkpt lat="37.793848000" lon="-3.854429000">
        <ele>540.7</ele>
        <time>2020-10-15T08:22:20Z</time>
      </trkpt>
      <trkpt lat="37.793821000" lon="-3.854533000">
        <ele>540.8</ele>
        <time>2020-10-15T08:22:22Z</time>
      </trkpt>
      <trkpt lat="37.793797000" lon="-3.854640000">
        <ele>541.0</ele>
        <time>2020-10-15T08:22:24Z</time>
      </trkpt>
      <trkpt lat="37.793775000" lon="-3.854747000">
        <ele>541.2</ele>
        <time>2020-10-15T08:22:26Z</time>
      </trkpt>
      <trkpt lat="37.793746000" lon="-3.854849000">
        <ele>541.4</ele>
        <time>2020-10-15T08:22:28Z</time>
      </trkpt>
      <trkpt lat="37.793717000" lon="-3.854956000">
        <ele>541.6</ele>
        <time>2020-10-15T08:22:30Z</time>
      </trkpt>
      <trkpt lat="37.793690000" lon="-3.855072000">
        <ele>541.9</ele>
        <time>2020-10-15T08:22:32Z</time>
      </trkpt>
      <trkpt lat="37.793659000" lon="-3.855182000">
        <ele>542.2</ele>
        <time>2020-10-15T08:22:34Z</time>
      </trkpt>
      <trkpt lat="37.793632000" lon="-3.855292000">
        <ele>542.5</ele>
        <time>2020-10-15T08:22:36Z</time>
      </trkpt>
      <trkpt lat="37.793597000" lon="-3.855403000">
        <ele>542.6</ele>
        <time>2020-10-15T08:22:38Z</time>
      </trkpt>
      <trkpt lat="37.793569000" lon="-3.855509000">
        <ele>542.9</ele>
        <time>2020-10-15T08:22:40Z</time>
      </trkpt>
      <trkpt lat="37.793547000" lon="-3.855610000">
        <ele>543.1</ele>
        <time>2020-10-15T08:22:42Z</time>
      </trkpt>
      <trkpt lat="37.793522000" lon="-3.855716000">
        <ele>543.4</ele>
        <time>2020-10-15T08:22:44Z</time>
      </trkpt>
      <trkpt lat="37.793493000" lon="-3.855821000">
        <ele>543.5</ele>
        <time>2020-10-15T08:22:47Z</time>
      </trkpt>
      <trkpt lat="37.793463000" lon="-3.855927000">
        <ele>543.7</ele>
        <time>2020-10-15T08:22:48Z</time>
      </trkpt>
      <trkpt lat="37.793435000" lon="-3.856032000">
        <ele>543.9</ele>
        <time>2020-10-15T08:22:50Z</time>
      </trkpt>
      <trkpt lat="37.793406000" lon="-3.856147000">
        <ele>544.1</ele>
        <time>2020-10-15T08:22:52Z</time>
      </trkpt>
      <trkpt lat="37.793376000" lon="-3.856258000">
        <ele>544.4</ele>
        <time>2020-10-15T08:22:54Z</time>
      </trkpt>
      <trkpt lat="37.793349000" lon="-3.856372000">
        <ele>544.6</ele>
        <time>2020-10-15T08:22:56Z</time>
      </trkpt>
      <trkpt lat="37.793316000" lon="-3.856484000">
        <ele>544.9</ele>
        <time>2020-10-15T08:22:58Z</time>
      </trkpt>
      <trkpt lat="37.793290000" lon="-3.856595000">
        <ele>545.2</ele>
        <time>2020-10-15T08:23:00Z</time>
      </trkpt>
      <trkpt lat="37.793267000" lon="-3.856701000">
        <ele>545.4</ele>
        <time>2020-10-15T08:23:02Z</time>
      </trkpt>
      <trkpt lat="37.793244000" lon="-3.856805000">
        <ele>545.5</ele>
        <time>2020-10-15T08:23:04Z</time>
      </trkpt>
      <trkpt lat="37.793221000" lon="-3.856911000">
        <ele>545.6</ele>
        <time>2020-10-15T08:23:06Z</time>
      </trkpt>
      <trkpt lat="37.793195000" lon="-3.857010000">
        <ele>545.7</ele>
        <time>2020-10-15T08:23:08Z</time>
      </trkpt>
      <trkpt lat="37.793167000" lon="-3.857112000">
        <ele>545.8</ele>
        <time>2020-10-15T08:23:10Z</time>
      </trkpt>
      <trkpt lat="37.793142000" lon="-3.857214000">
        <ele>545.8</ele>
        <time>2020-10-15T08:23:12Z</time>
      </trkpt>
      <trkpt lat="37.793115000" lon="-3.857315000">
        <ele>545.9</ele>
        <time>2020-10-15T08:23:14Z</time>
      </trkpt>
      <trkpt lat="37.793090000" lon="-3.857419000">
        <ele>545.9</ele>
        <time>2020-10-15T08:23:16Z</time>
      </trkpt>
      <trkpt lat="37.793066000" lon="-3.857526000">
        <ele>545.9</ele>
        <time>2020-10-15T08:23:18Z</time>
      </trkpt>
      <trkpt lat="37.793044000" lon="-3.857635000">
        <ele>545.9</ele>
        <time>2020-10-15T08:23:20Z</time>
      </trkpt>
      <trkpt lat="37.793012000" lon="-3.857741000">
        <ele>545.9</ele>
        <time>2020-10-15T08:23:22Z</time>
      </trkpt>
      <trkpt lat="37.792982000" lon="-3.857845000">
        <ele>545.9</ele>
        <time>2020-10-15T08:23:24Z</time>
      </trkpt>
      <trkpt lat="37.792954000" lon="-3.857952000">
        <ele>546.0</ele>
        <time>2020-10-15T08:23:26Z</time>
      </trkpt>
      <trkpt lat="37.792927000" lon="-3.858062000">
        <ele>546.1</ele>
        <time>2020-10-15T08:23:28Z</time>
      </trkpt>
      <trkpt lat="37.792902000" lon="-3.858164000">
        <ele>546.2</ele>
        <time>2020-10-15T08:23:30Z</time>
      </trkpt>
      <trkpt lat="37.792873000" lon="-3.858271000">
        <ele>546.3</ele>
        <time>2020-10-15T08:23:32Z</time>
      </trkpt>
      <trkpt lat="37.792846000" lon="-3.858378000">
        <ele>546.5</ele>
        <time>2020-10-15T08:23:34Z</time>
      </trkpt>
      <trkpt lat="37.792819000" lon="-3.858484000">
        <ele>546.7</ele>
        <time>2020-10-15T08:23:36Z</time>
      </trkpt>
      <trkpt lat="37.792790000" lon="-3.858594000">
        <ele>546.9</ele>
        <time>2020-10-15T08:23:38Z</time>
      </trkpt>
      <trkpt lat="37.792762000" lon="-3.858698000">
        <ele>547.2</ele>
        <time>2020-10-15T08:23:40Z</time>
      </trkpt>
      <trkpt lat="37.792730000" lon="-3.858808000">
        <ele>547.5</ele>
        <time>2020-10-15T08:23:42Z</time>
      </trkpt>
      <trkpt lat="37.792702000" lon="-3.858915000">
        <ele>547.7</ele>
        <time>2020-10-15T08:23:44Z</time>
      </trkpt>
      <trkpt lat="37.792674000" lon="-3.859025000">
        <ele>547.9</ele>
        <time>2020-10-15T08:23:46Z</time>
      </trkpt>
      <trkpt lat="37.792645000" lon="-3.859128000">
        <ele>548.0</ele>
        <time>2020-10-15T08:23:48Z</time>
      </trkpt>
      <trkpt lat="37.792621000" lon="-3.859235000">
        <ele>548.1</ele>
        <time>2020-10-15T08:23:50Z</time>
      </trkpt>
      <trkpt lat="37.792595000" lon="-3.859344000">
        <ele>548.2</ele>
        <time>2020-10-15T08:23:52Z</time>
      </trkpt>
      <trkpt lat="37.792567000" lon="-3.859450000">
        <ele>548.3</ele>
        <time>2020-10-15T08:23:54Z</time>
      </trkpt>
      <trkpt lat="37.792544000" lon="-3.859559000">
        <ele>548.4</ele>
        <time>2020-10-15T08:23:56Z</time>
      </trkpt>
      <trkpt lat="37.792516000" lon="-3.859666000">
        <ele>548.5</ele>
        <time>2020-10-15T08:23:58Z</time>
      </trkpt>
      <trkpt lat="37.792481000" lon="-3.859771000">
        <ele>548.6</ele>
        <time>2020-10-15T08:24:00Z</time>
      </trkpt>
      <trkpt lat="37.792454000" lon="-3.859878000">
        <ele>548.7</ele>
        <time>2020-10-15T08:24:02Z</time>
      </trkpt>
      <trkpt lat="37.792430000" lon="-3.859993000">
        <ele>548.8</ele>
        <time>2020-10-15T08:24:04Z</time>
      </trkpt>
      <trkpt lat="37.792401000" lon="-3.860097000">
        <ele>548.9</ele>
        <time>2020-10-15T08:24:06Z</time>
      </trkpt>
      <trkpt lat="37.792376000" lon="-3.860209000">
        <ele>549.0</ele>
        <time>2020-10-15T08:24:08Z</time>
      </trkpt>
      <trkpt lat="37.792350000" lon="-3.860306000">
        <ele>549.1</ele>
        <time>2020-10-15T08:24:10Z</time>
      </trkpt>
      <trkpt lat="37.792324000" lon="-3.860409000">
        <ele>549.2</ele>
        <time>2020-10-15T08:24:12Z</time>
      </trkpt>
      <trkpt lat="37.792297000" lon="-3.860507000">
        <ele>549.3</ele>
        <time>2020-10-15T08:24:14Z</time>
      </trkpt>
      <trkpt lat="37.792275000" lon="-3.860610000">
        <ele>549.4</ele>
        <time>2020-10-15T08:24:16Z</time>
      </trkpt>
      <trkpt lat="37.792251000" lon="-3.860708000">
        <ele>549.3</ele>
        <time>2020-10-15T08:24:18Z</time>
      </trkpt>
      <trkpt lat="37.792224000" lon="-3.860809000">
        <ele>549.3</ele>
        <time>2020-10-15T08:24:20Z</time>
      </trkpt>
      <trkpt lat="37.792198000" lon="-3.860914000">
        <ele>549.2</ele>
        <time>2020-10-15T08:24:22Z</time>
      </trkpt>
      <trkpt lat="37.792171000" lon="-3.861019000">
        <ele>549.1</ele>
        <time>2020-10-15T08:24:24Z</time>
      </trkpt>
      <trkpt lat="37.792144000" lon="-3.861126000">
        <ele>549.0</ele>
        <time>2020-10-15T08:24:26Z</time>
      </trkpt>
      <trkpt lat="37.792116000" lon="-3.861230000">
        <ele>548.9</ele>
        <time>2020-10-15T08:24:28Z</time>
      </trkpt>
      <trkpt lat="37.792089000" lon="-3.861334000">
        <ele>548.9</ele>
        <time>2020-10-15T08:24:30Z</time>
      </trkpt>
      <trkpt lat="37.792061000" lon="-3.861437000">
        <ele>548.9</ele>
        <time>2020-10-15T08:24:32Z</time>
      </trkpt>
      <trkpt lat="37.792035000" lon="-3.861540000">
        <ele>548.9</ele>
        <time>2020-10-15T08:24:34Z</time>
      </trkpt>
      <trkpt lat="37.792008000" lon="-3.861641000">
        <ele>548.9</ele>
        <time>2020-10-15T08:24:36Z</time>
      </trkpt>
      <trkpt lat="37.791980000" lon="-3.861743000">
        <ele>548.9</ele>
        <time>2020-10-15T08:24:38Z</time>
      </trkpt>
      <trkpt lat="37.791952000" lon="-3.861845000">
        <ele>549.0</ele>
        <time>2020-10-15T08:24:40Z</time>
      </trkpt>
      <trkpt lat="37.791926000" lon="-3.861947000">
        <ele>549.1</ele>
        <time>2020-10-15T08:24:42Z</time>
      </trkpt>
      <trkpt lat="37.791900000" lon="-3.862048000">
        <ele>549.2</ele>
        <time>2020-10-15T08:24:44Z</time>
      </trkpt>
      <trkpt lat="37.791876000" lon="-3.862149000">
        <ele>549.4</ele>
        <time>2020-10-15T08:24:46Z</time>
      </trkpt>
      <trkpt lat="37.791853000" lon="-3.862250000">
        <ele>549.5</ele>
        <time>2020-10-15T08:24:48Z</time>
      </trkpt>
      <trkpt lat="37.791822000" lon="-3.862345000">
        <ele>549.5</ele>
        <time>2020-10-15T08:24:50Z</time>
      </trkpt>
      <trkpt lat="37.791791000" lon="-3.862474000">
        <ele>549.6</ele>
        <time>2020-10-15T08:24:53Z</time>
      </trkpt>
      <trkpt lat="37.791761000" lon="-3.862604000">
        <ele>549.7</ele>
        <time>2020-10-15T08:24:56Z</time>
      </trkpt>
      <trkpt lat="37.791727000" lon="-3.862744000">
        <ele>549.9</ele>
        <time>2020-10-15T08:24:59Z</time>
      </trkpt>
      <trkpt lat="37.791693000" lon="-3.862888000">
        <ele>550.1</ele>
        <time>2020-10-15T08:25:02Z</time>
      </trkpt>
      <trkpt lat="37.791670000" lon="-3.862987000">
        <ele>550.3</ele>
        <time>2020-10-15T08:25:04Z</time>
      </trkpt>
      <trkpt lat="37.791635000" lon="-3.863131000">
        <ele>550.5</ele>
        <time>2020-10-15T08:25:07Z</time>
      </trkpt>
      <trkpt lat="37.791598000" lon="-3.863275000">
        <ele>550.7</ele>
        <time>2020-10-15T08:25:10Z</time>
      </trkpt>
      <trkpt lat="37.791560000" lon="-3.863419000">
        <ele>550.9</ele>
        <time>2020-10-15T08:25:13Z</time>
      </trkpt>
      <trkpt lat="37.791520000" lon="-3.863562000">
        <ele>551.1</ele>
        <time>2020-10-15T08:25:16Z</time>
      </trkpt>
      <trkpt lat="37.791480000" lon="-3.863706000">
        <ele>551.4</ele>
        <time>2020-10-15T08:25:19Z</time>
      </trkpt>
      <trkpt lat="37.791458000" lon="-3.863808000">
        <ele>551.6</ele>
        <time>2020-10-15T08:25:21Z</time>
      </trkpt>
      <trkpt lat="37.791432000" lon="-3.863915000">
        <ele>552.0</ele>
        <time>2020-10-15T08:25:23Z</time>
      </trkpt>
      <trkpt lat="37.791405000" lon="-3.864024000">
        <ele>552.4</ele>
        <time>2020-10-15T08:25:25Z</time>
      </trkpt>
      <trkpt lat="37.791377000" lon="-3.864131000">
        <ele>552.7</ele>
        <time>2020-10-15T08:25:27Z</time>
      </trkpt>
      <trkpt lat="37.791351000" lon="-3.864238000">
        <ele>553.1</ele>
        <time>2020-10-15T08:25:29Z</time>
      </trkpt>
      <trkpt lat="37.791323000" lon="-3.864344000">
        <ele>553.5</ele>
        <time>2020-10-15T08:25:31Z</time>
      </trkpt>
      <trkpt lat="37.791296000" lon="-3.864453000">
        <ele>553.7</ele>
        <time>2020-10-15T08:25:33Z</time>
      </trkpt>
      <trkpt lat="37.791269000" lon="-3.864559000">
        <ele>554.0</ele>
        <time>2020-10-15T08:25:35Z</time>
      </trkpt>
      <trkpt lat="37.791240000" lon="-3.864664000">
        <ele>554.3</ele>
        <time>2020-10-15T08:25:37Z</time>
      </trkpt>
      <trkpt lat="37.791212000" lon="-3.864771000">
        <ele>554.5</ele>
        <time>2020-10-15T08:25:39Z</time>
      </trkpt>
      <trkpt lat="37.791186000" lon="-3.864879000">
        <ele>554.6</ele>
        <time>2020-10-15T08:25:41Z</time>
      </trkpt>
      <trkpt lat="37.791161000" lon="-3.864987000">
        <ele>554.9</ele>
        <time>2020-10-15T08:25:43Z</time>
      </trkpt>
      <trkpt lat="37.791141000" lon="-3.865093000">
        <ele>555.1</ele>
        <time>2020-10-15T08:25:45Z</time>
      </trkpt>
      <trkpt lat="37.791124000" lon="-3.865199000">
        <ele>555.3</ele>
        <time>2020-10-15T08:25:47Z</time>
      </trkpt>
      <trkpt lat="37.791104000" lon="-3.865304000">
        <ele>555.3</ele>
        <time>2020-10-15T08:25:49Z</time>
      </trkpt>
      <trkpt lat="37.791083000" lon="-3.865412000">
        <ele>555.3</ele>
        <time>2020-10-15T08:25:51Z</time>
      </trkpt>
      <trkpt lat="37.791065000" lon="-3.865523000">
        <ele>555.2</ele>
        <time>2020-10-15T08:25:53Z</time>
      </trkpt>
      <trkpt lat="37.791047000" lon="-3.865634000">
        <ele>555.2</ele>
        <time>2020-10-15T08:25:55Z</time>
      </trkpt>
      <trkpt lat="37.791029000" lon="-3.865745000">
        <ele>555.2</ele>
        <time>2020-10-15T08:25:57Z</time>
      </trkpt>
      <trkpt lat="37.791012000" lon="-3.865852000">
        <ele>555.3</ele>
        <time>2020-10-15T08:25:59Z</time>
      </trkpt>
      <trkpt lat="37.791002000" lon="-3.865956000">
        <ele>555.5</ele>
        <time>2020-10-15T08:26:01Z</time>
      </trkpt>
      <trkpt lat="37.790994000" lon="-3.866064000">
        <ele>555.7</ele>
        <time>2020-10-15T08:26:03Z</time>
      </trkpt>
      <trkpt lat="37.790983000" lon="-3.866210000">
        <ele>555.9</ele>
        <time>2020-10-15T08:26:06Z</time>
      </trkpt>
      <trkpt lat="37.790974000" lon="-3.866355000">
        <ele>556.1</ele>
        <time>2020-10-15T08:26:09Z</time>
      </trkpt>
      <trkpt lat="37.790969000" lon="-3.866497000">
        <ele>556.3</ele>
        <time>2020-10-15T08:26:12Z</time>
      </trkpt>
      <trkpt lat="37.790969000" lon="-3.866644000">
        <ele>556.5</ele>
        <time>2020-10-15T08:26:15Z</time>
      </trkpt>
      <trkpt lat="37.790974000" lon="-3.866748000">
        <ele>556.8</ele>
        <time>2020-10-15T08:26:17Z</time>
      </trkpt>
      <trkpt lat="37.790977000" lon="-3.866852000">
        <ele>557.1</ele>
        <time>2020-10-15T08:26:19Z</time>
      </trkpt>
      <trkpt lat="37.790991000" lon="-3.867002000">
        <ele>557.3</ele>
        <time>2020-10-15T08:26:22Z</time>
      </trkpt>
      <trkpt lat="37.791004000" lon="-3.867154000">
        <ele>557.5</ele>
        <time>2020-10-15T08:26:25Z</time>
      </trkpt>
      <trkpt lat="37.791012000" lon="-3.867258000">
        <ele>557.5</ele>
        <time>2020-10-15T08:26:27Z</time>
      </trkpt>
      <trkpt lat="37.791033000" lon="-3.867406000">
        <ele>557.6</ele>
        <time>2020-10-15T08:26:30Z</time>
      </trkpt>
      <trkpt lat="37.791050000" lon="-3.867509000">
        <ele>557.6</ele>
        <time>2020-10-15T08:26:32Z</time>
      </trkpt>
      <trkpt lat="37.791061000" lon="-3.867612000">
        <ele>557.6</ele>
        <time>2020-10-15T08:26:34Z</time>
      </trkpt>
      <trkpt lat="37.791080000" lon="-3.867717000">
        <ele>557.7</ele>
        <time>2020-10-15T08:26:36Z</time>
      </trkpt>
      <trkpt lat="37.791096000" lon="-3.867823000">
        <ele>557.9</ele>
        <time>2020-10-15T08:26:38Z</time>
      </trkpt>
      <trkpt lat="37.791116000" lon="-3.867927000">
        <ele>558.1</ele>
        <time>2020-10-15T08:26:40Z</time>
      </trkpt>
      <trkpt lat="37.791139000" lon="-3.868030000">
        <ele>558.3</ele>
        <time>2020-10-15T08:26:42Z</time>
      </trkpt>
      <trkpt lat="37.791160000" lon="-3.868134000">
        <ele>558.5</ele>
        <time>2020-10-15T08:26:44Z</time>
      </trkpt>
      <trkpt lat="37.791182000" lon="-3.868242000">
        <ele>558.8</ele>
        <time>2020-10-15T08:26:46Z</time>
      </trkpt>
      <trkpt lat="37.791205000" lon="-3.868346000">
        <ele>559.1</ele>
        <time>2020-10-15T08:26:48Z</time>
      </trkpt>
      <trkpt lat="37.791232000" lon="-3.868453000">
        <ele>559.5</ele>
        <time>2020-10-15T08:26:50Z</time>
      </trkpt>
      <trkpt lat="37.791254000" lon="-3.868564000">
        <ele>559.7</ele>
        <time>2020-10-15T08:26:52Z</time>
      </trkpt>
      <trkpt lat="37.791280000" lon="-3.868671000">
        <ele>560.0</ele>
        <time>2020-10-15T08:26:54Z</time>
      </trkpt>
      <trkpt lat="37.791306000" lon="-3.868777000">
        <ele>560.4</ele>
        <time>2020-10-15T08:26:56Z</time>
      </trkpt>
      <trkpt lat="37.791328000" lon="-3.868884000">
        <ele>560.7</ele>
        <time>2020-10-15T08:26:58Z</time>
      </trkpt>
      <trkpt lat="37.791349000" lon="-3.868989000">
        <ele>561.0</ele>
        <time>2020-10-15T08:27:00Z</time>
      </trkpt>
      <trkpt lat="37.791374000" lon="-3.869093000">
        <ele>561.3</ele>
        <time>2020-10-15T08:27:02Z</time>
      </trkpt>
      <trkpt lat="37.791396000" lon="-3.869199000">
        <ele>561.5</ele>
        <time>2020-10-15T08:27:04Z</time>
      </trkpt>
      <trkpt lat="37.791422000" lon="-3.869302000">
        <ele>561.8</ele>
        <time>2020-10-15T08:27:06Z</time>
      </trkpt>
      <trkpt lat="37.791447000" lon="-3.869404000">
        <ele>562.1</ele>
        <time>2020-10-15T08:27:08Z</time>
      </trkpt>
      <trkpt lat="37.791468000" lon="-3.869509000">
        <ele>562.3</ele>
        <time>2020-10-15T08:27:10Z</time>
      </trkpt>
      <trkpt lat="37.791490000" lon="-3.869612000">
        <ele>562.4</ele>
        <time>2020-10-15T08:27:12Z</time>
      </trkpt>
      <trkpt lat="37.791513000" lon="-3.869712000">
        <ele>562.4</ele>
        <time>2020-10-15T08:27:14Z</time>
      </trkpt>
      <trkpt lat="37.791536000" lon="-3.869814000">
        <ele>562.5</ele>
        <time>2020-10-15T08:27:16Z</time>
      </trkpt>
      <trkpt lat="37.791560000" lon="-3.869918000">
        <ele>562.5</ele>
        <time>2020-10-15T08:27:18Z</time>
      </trkpt>
      <trkpt lat="37.791584000" lon="-3.870023000">
        <ele>562.5</ele>
        <time>2020-10-15T08:27:20Z</time>
      </trkpt>
      <trkpt lat="37.791608000" lon="-3.870132000">
        <ele>562.5</ele>
        <time>2020-10-15T08:27:22Z</time>
      </trkpt>
      <trkpt lat="37.791634000" lon="-3.870244000">
        <ele>562.5</ele>
        <time>2020-10-15T08:27:24Z</time>
      </trkpt>
      <trkpt lat="37.791657000" lon="-3.870356000">
        <ele>562.6</ele>
        <time>2020-10-15T08:27:26Z</time>
      </trkpt>
      <trkpt lat="37.791674000" lon="-3.870462000">
        <ele>562.7</ele>
        <time>2020-10-15T08:27:28Z</time>
      </trkpt>
      <trkpt lat="37.791695000" lon="-3.870570000">
        <ele>562.9</ele>
        <time>2020-10-15T08:27:30Z</time>
      </trkpt>
      <trkpt lat="37.791724000" lon="-3.870675000">
        <ele>563.2</ele>
        <time>2020-10-15T08:27:32Z</time>
      </trkpt>
      <trkpt lat="37.791745000" lon="-3.870781000">
        <ele>563.5</ele>
        <time>2020-10-15T08:27:34Z</time>
      </trkpt>
      <trkpt lat="37.791767000" lon="-3.870886000">
        <ele>563.8</ele>
        <time>2020-10-15T08:27:36Z</time>
      </trkpt>
      <trkpt lat="37.791790000" lon="-3.870991000">
        <ele>564.1</ele>
        <time>2020-10-15T08:27:38Z</time>
      </trkpt>
      <trkpt lat="37.791816000" lon="-3.871095000">
        <ele>564.4</ele>
        <time>2020-10-15T08:27:40Z</time>
      </trkpt>
      <trkpt lat="37.791839000" lon="-3.871199000">
        <ele>564.5</ele>
        <time>2020-10-15T08:27:42Z</time>
      </trkpt>
      <trkpt lat="37.791857000" lon="-3.871303000">
        <ele>564.5</ele>
        <time>2020-10-15T08:27:44Z</time>
      </trkpt>
      <trkpt lat="37.791881000" lon="-3.871405000">
        <ele>564.3</ele>
        <time>2020-10-15T08:27:46Z</time>
      </trkpt>
      <trkpt lat="37.791910000" lon="-3.871508000">
        <ele>564.0</ele>
        <time>2020-10-15T08:27:48Z</time>
      </trkpt>
      <trkpt lat="37.791938000" lon="-3.871610000">
        <ele>563.7</ele>
        <time>2020-10-15T08:27:50Z</time>
      </trkpt>
      <trkpt lat="37.791961000" lon="-3.871717000">
        <ele>563.4</ele>
        <time>2020-10-15T08:27:52Z</time>
      </trkpt>
      <trkpt lat="37.791986000" lon="-3.871825000">
        <ele>563.0</ele>
        <time>2020-10-15T08:27:54Z</time>
      </trkpt>
      <trkpt lat="37.792012000" lon="-3.871933000">
        <ele>562.6</ele>
        <time>2020-10-15T08:27:56Z</time>
      </trkpt>
      <trkpt lat="37.792033000" lon="-3.872043000">
        <ele>562.4</ele>
        <time>2020-10-15T08:27:58Z</time>
      </trkpt>
      <trkpt lat="37.792057000" lon="-3.872154000">
        <ele>562.2</ele>
        <time>2020-10-15T08:28:00Z</time>
      </trkpt>
      <trkpt lat="37.792081000" lon="-3.872261000">
        <ele>562.0</ele>
        <time>2020-10-15T08:28:02Z</time>
      </trkpt>
      <trkpt lat="37.792109000" lon="-3.872368000">
        <ele>562.0</ele>
        <time>2020-10-15T08:28:04Z</time>
      </trkpt>
      <trkpt lat="37.792129000" lon="-3.872482000">
        <ele>562.1</ele>
        <time>2020-10-15T08:28:06Z</time>
      </trkpt>
      <trkpt lat="37.792152000" lon="-3.872590000">
        <ele>562.4</ele>
        <time>2020-10-15T08:28:08Z</time>
      </trkpt>
      <trkpt lat="37.792172000" lon="-3.872705000">
        <ele>562.7</ele>
        <time>2020-10-15T08:28:10Z</time>
      </trkpt>
      <trkpt lat="37.792190000" lon="-3.872817000">
        <ele>563.2</ele>
        <time>2020-10-15T08:28:12Z</time>
      </trkpt>
      <trkpt lat="37.792204000" lon="-3.872927000">
        <ele>563.7</ele>
        <time>2020-10-15T08:28:14Z</time>
      </trkpt>
      <trkpt lat="37.792214000" lon="-3.873038000">
        <ele>564.3</ele>
        <time>2020-10-15T08:28:16Z</time>
      </trkpt>
      <trkpt lat="37.792224000" lon="-3.873145000">
        <ele>564.8</ele>
        <time>2020-10-15T08:28:18Z</time>
      </trkpt>
      <trkpt lat="37.792230000" lon="-3.873252000">
        <ele>565.3</ele>
        <time>2020-10-15T08:28:20Z</time>
      </trkpt>
      <trkpt lat="37.792238000" lon="-3.873366000">
        <ele>565.5</ele>
        <time>2020-10-15T08:28:22Z</time>
      </trkpt>
      <trkpt lat="37.792242000" lon="-3.873477000">
        <ele>565.8</ele>
        <time>2020-10-15T08:28:24Z</time>
      </trkpt>
      <trkpt lat="37.792245000" lon="-3.873583000">
        <ele>566.0</ele>
        <time>2020-10-15T08:28:26Z</time>
      </trkpt>
      <trkpt lat="37.792243000" lon="-3.873735000">
        <ele>566.3</ele>
        <time>2020-10-15T08:28:29Z</time>
      </trkpt>
      <trkpt lat="37.792242000" lon="-3.873879000">
        <ele>566.5</ele>
        <time>2020-10-15T08:28:32Z</time>
      </trkpt>
      <trkpt lat="37.792242000" lon="-3.874003000">
        <ele>566.9</ele>
        <time>2020-10-15T08:28:35Z</time>
      </trkpt>
      <trkpt lat="37.792232000" lon="-3.874112000">
        <ele>567.3</ele>
        <time>2020-10-15T08:28:38Z</time>
      </trkpt>
      <trkpt lat="37.792216000" lon="-3.874252000">
        <ele>567.6</ele>
        <time>2020-10-15T08:28:42Z</time>
      </trkpt>
      <trkpt lat="37.792198000" lon="-3.874388000">
        <ele>568.0</ele>
        <time>2020-10-15T08:28:45Z</time>
      </trkpt>
      <trkpt lat="37.792181000" lon="-3.874530000">
        <ele>568.4</ele>
        <time>2020-10-15T08:28:48Z</time>
      </trkpt>
      <trkpt lat="37.792157000" lon="-3.874682000">
        <ele>568.6</ele>
        <time>2020-10-15T08:28:51Z</time>
      </trkpt>
      <trkpt lat="37.792129000" lon="-3.874827000">
        <ele>569.1</ele>
        <time>2020-10-15T08:28:54Z</time>
      </trkpt>
      <trkpt lat="37.792097000" lon="-3.874967000">
        <ele>569.5</ele>
        <time>2020-10-15T08:28:57Z</time>
      </trkpt>
      <trkpt lat="37.792063000" lon="-3.875107000">
        <ele>570.1</ele>
        <time>2020-10-15T08:29:00Z</time>
      </trkpt>
      <trkpt lat="37.792035000" lon="-3.875212000">
        <ele>570.5</ele>
        <time>2020-10-15T08:29:02Z</time>
      </trkpt>
      <trkpt lat="37.791989000" lon="-3.875348000">
        <ele>571.0</ele>
        <time>2020-10-15T08:29:05Z</time>
      </trkpt>
      <trkpt lat="37.791949000" lon="-3.875466000">
        <ele>571.4</ele>
        <time>2020-10-15T08:29:08Z</time>
      </trkpt>
      <trkpt lat="37.791914000" lon="-3.875559000">
        <ele>571.6</ele>
        <time>2020-10-15T08:29:10Z</time>
      </trkpt>
      <trkpt lat="37.791872000" lon="-3.875671000">
        <ele>571.9</ele>
        <time>2020-10-15T08:29:12Z</time>
      </trkpt>
      <trkpt lat="37.791828000" lon="-3.875767000">
        <ele>572.2</ele>
        <time>2020-10-15T08:29:14Z</time>
      </trkpt>
      <trkpt lat="37.791772000" lon="-3.875883000">
        <ele>572.5</ele>
        <time>2020-10-15T08:29:17Z</time>
      </trkpt>
      <trkpt lat="37.791713000" lon="-3.876003000">
        <ele>572.8</ele>
        <time>2020-10-15T08:29:20Z</time>
      </trkpt>
      <trkpt lat="37.791668000" lon="-3.876101000">
        <ele>573.1</ele>
        <time>2020-10-15T08:29:22Z</time>
      </trkpt>
      <trkpt lat="37.791617000" lon="-3.876201000">
        <ele>573.3</ele>
        <time>2020-10-15T08:29:24Z</time>
      </trkpt>
      <trkpt lat="37.791554000" lon="-3.876327000">
        <ele>573.3</ele>
        <time>2020-10-15T08:29:27Z</time>
      </trkpt>
      <trkpt lat="37.791488000" lon="-3.876440000">
        <ele>573.3</ele>
        <time>2020-10-15T08:29:30Z</time>
      </trkpt>
      <trkpt lat="37.791415000" lon="-3.876565000">
        <ele>573.1</ele>
        <time>2020-10-15T08:29:33Z</time>
      </trkpt>
      <trkpt lat="37.791362000" lon="-3.876651000">
        <ele>572.9</ele>
        <time>2020-10-15T08:29:35Z</time>
      </trkpt>
      <trkpt lat="37.791306000" lon="-3.876733000">
        <ele>572.7</ele>
        <time>2020-10-15T08:29:37Z</time>
      </trkpt>
      <trkpt lat="37.791249000" lon="-3.876818000">
        <ele>572.5</ele>
        <time>2020-10-15T08:29:39Z</time>
      </trkpt>
      <trkpt lat="37.791188000" lon="-3.876897000">
        <ele>572.2</ele>
        <time>2020-10-15T08:29:41Z</time>
      </trkpt>
      <trkpt lat="37.791130000" lon="-3.876973000">
        <ele>572.0</ele>
        <time>2020-10-15T08:29:43Z</time>
      </trkpt>
      <trkpt lat="37.791071000" lon="-3.877051000">
        <ele>571.8</ele>
        <time>2020-10-15T08:29:45Z</time>
      </trkpt>
      <trkpt lat="37.791012000" lon="-3.877130000">
        <ele>571.6</ele>
        <time>2020-10-15T08:29:47Z</time>
      </trkpt>
      <trkpt lat="37.790951000" lon="-3.877208000">
        <ele>571.5</ele>
        <time>2020-10-15T08:29:49Z</time>
      </trkpt>
      <trkpt lat="37.790890000" lon="-3.877292000">
        <ele>571.5</ele>
        <time>2020-10-15T08:29:51Z</time>
      </trkpt>
      <trkpt lat="37.790831000" lon="-3.877374000">
        <ele>571.5</ele>
        <time>2020-10-15T08:29:53Z</time>
      </trkpt>
      <trkpt lat="37.790773000" lon="-3.877460000">
        <ele>571.6</ele>
        <time>2020-10-15T08:29:55Z</time>
      </trkpt>
      <trkpt lat="37.790713000" lon="-3.877545000">
        <ele>571.7</ele>
        <time>2020-10-15T08:29:57Z</time>
      </trkpt>
      <trkpt lat="37.790654000" lon="-3.877628000">
        <ele>571.8</ele>
        <time>2020-10-15T08:29:59Z</time>
      </trkpt>
      <trkpt lat="37.790596000" lon="-3.877714000">
        <ele>572.0</ele>
        <time>2020-10-15T08:30:01Z</time>
      </trkpt>
      <trkpt lat="37.790543000" lon="-3.877806000">
        <ele>572.2</ele>
        <time>2020-10-15T08:30:03Z</time>
      </trkpt>
      <trkpt lat="37.790484000" lon="-3.877891000">
        <ele>572.3</ele>
        <time>2020-10-15T08:30:05Z</time>
      </trkpt>
      <trkpt lat="37.790433000" lon="-3.877973000">
        <ele>572.4</ele>
        <time>2020-10-15T08:30:07Z</time>
      </trkpt>
      <trkpt lat="37.790378000" lon="-3.878060000">
        <ele>572.5</ele>
        <time>2020-10-15T08:30:09Z</time>
      </trkpt>
      <trkpt lat="37.790310000" lon="-3.878183000">
        <ele>572.7</ele>
        <time>2020-10-15T08:30:12Z</time>
      </trkpt>
      <trkpt lat="37.790270000" lon="-3.878292000">
        <ele>572.9</ele>
        <time>2020-10-15T08:30:16Z</time>
      </trkpt>
      <trkpt lat="37.790206000" lon="-3.878363000">
        <ele>573.1</ele>
        <time>2020-10-15T08:32:46Z</time>
      </trkpt>
      <trkpt lat="37.790135000" lon="-3.878434000">
        <ele>573.3</ele>
        <time>2020-10-15T08:32:50Z</time>
      </trkpt>
      <trkpt lat="37.790070000" lon="-3.878503000">
        <ele>573.5</ele>
        <time>2020-10-15T08:32:53Z</time>
      </trkpt>
      <trkpt lat="37.790012000" lon="-3.878598000">
        <ele>573.6</ele>
        <time>2020-10-15T08:32:56Z</time>
      </trkpt>
      <trkpt lat="37.789960000" lon="-3.878720000">
        <ele>573.7</ele>
        <time>2020-10-15T08:32:59Z</time>
      </trkpt>
      <trkpt lat="37.789926000" lon="-3.878813000">
        <ele>573.8</ele>
        <time>2020-10-15T08:33:01Z</time>
      </trkpt>
      <trkpt lat="37.789897000" lon="-3.878913000">
        <ele>573.9</ele>
        <time>2020-10-15T08:33:03Z</time>
      </trkpt>
      <trkpt lat="37.789871000" lon="-3.879017000">
        <ele>573.9</ele>
        <time>2020-10-15T08:33:05Z</time>
      </trkpt>
      <trkpt lat="37.789848000" lon="-3.879120000">
        <ele>573.8</ele>
        <time>2020-10-15T08:33:07Z</time>
      </trkpt>
      <trkpt lat="37.789819000" lon="-3.879219000">
        <ele>573.7</ele>
        <time>2020-10-15T08:33:09Z</time>
      </trkpt>
      <trkpt lat="37.789794000" lon="-3.879317000">
        <ele>573.6</ele>
        <time>2020-10-15T08:33:11Z</time>
      </trkpt>
      <trkpt lat="37.789765000" lon="-3.879417000">
        <ele>573.5</ele>
        <time>2020-10-15T08:33:13Z</time>
      </trkpt>
      <trkpt lat="37.789743000" lon="-3.879521000">
        <ele>573.5</ele>
        <time>2020-10-15T08:33:15Z</time>
      </trkpt>
      <trkpt lat="37.789720000" lon="-3.879622000">
        <ele>573.4</ele>
        <time>2020-10-15T08:33:17Z</time>
      </trkpt>
      <trkpt lat="37.789703000" lon="-3.879723000">
        <ele>573.4</ele>
        <time>2020-10-15T08:33:19Z</time>
      </trkpt>
      <trkpt lat="37.789674000" lon="-3.879867000">
        <ele>573.4</ele>
        <time>2020-10-15T08:33:22Z</time>
      </trkpt>
      <trkpt lat="37.789656000" lon="-3.880014000">
        <ele>573.4</ele>
        <time>2020-10-15T08:33:25Z</time>
      </trkpt>
      <trkpt lat="37.789641000" lon="-3.880160000">
        <ele>573.5</ele>
        <time>2020-10-15T08:33:28Z</time>
      </trkpt>
      <trkpt lat="37.789633000" lon="-3.880303000">
        <ele>573.7</ele>
        <time>2020-10-15T08:33:31Z</time>
      </trkpt>
      <trkpt lat="37.789625000" lon="-3.880442000">
        <ele>574.0</ele>
        <time>2020-10-15T08:33:34Z</time>
      </trkpt>
      <trkpt lat="37.789627000" lon="-3.880590000">
        <ele>574.3</ele>
        <time>2020-10-15T08:33:37Z</time>
      </trkpt>
      <trkpt lat="37.789621000" lon="-3.880739000">
        <ele>574.5</ele>
        <time>2020-10-15T08:33:40Z</time>
      </trkpt>
      <trkpt lat="37.789625000" lon="-3.880889000">
        <ele>574.8</ele>
        <time>2020-10-15T08:33:43Z</time>
      </trkpt>
      <trkpt lat="37.789629000" lon="-3.881034000">
        <ele>575.1</ele>
        <time>2020-10-15T08:33:46Z</time>
      </trkpt>
      <trkpt lat="37.789637000" lon="-3.881186000">
        <ele>575.5</ele>
        <time>2020-10-15T08:33:49Z</time>
      </trkpt>
      <trkpt lat="37.789652000" lon="-3.881338000">
        <ele>575.8</ele>
        <time>2020-10-15T08:33:52Z</time>
      </trkpt>
      <trkpt lat="37.789666000" lon="-3.881439000">
        <ele>576.3</ele>
        <time>2020-10-15T08:33:54Z</time>
      </trkpt>
      <trkpt lat="37.789683000" lon="-3.881587000">
        <ele>576.8</ele>
        <time>2020-10-15T08:33:57Z</time>
      </trkpt>
      <trkpt lat="37.789705000" lon="-3.881712000">
        <ele>577.3</ele>
        <time>2020-10-15T08:34:00Z</time>
      </trkpt>
      <trkpt lat="37.789710000" lon="-3.881817000">
        <ele>577.7</ele>
        <time>2020-10-15T08:34:36Z</time>
      </trkpt>
      <trkpt lat="37.789721000" lon="-3.881947000">
        <ele>578.2</ele>
        <time>2020-10-15T08:34:40Z</time>
      </trkpt>
      <trkpt lat="37.789738000" lon="-3.882096000">
        <ele>578.7</ele>
        <time>2020-10-15T08:34:43Z</time>
      </trkpt>
      <trkpt lat="37.789753000" lon="-3.882202000">
        <ele>579.3</ele>
        <time>2020-10-15T08:34:45Z</time>
      </trkpt>
      <trkpt lat="37.789771000" lon="-3.882305000">
        <ele>579.9</ele>
        <time>2020-10-15T08:34:47Z</time>
      </trkpt>
      <trkpt lat="37.789789000" lon="-3.882413000">
        <ele>580.5</ele>
        <time>2020-10-15T08:34:49Z</time>
      </trkpt>
      <trkpt lat="37.789804000" lon="-3.882519000">
        <ele>581.1</ele>
        <time>2020-10-15T08:34:51Z</time>
      </trkpt>
      <trkpt lat="37.789818000" lon="-3.882622000">
        <ele>581.6</ele>
        <time>2020-10-15T08:34:53Z</time>
      </trkpt>
      <trkpt lat="37.789834000" lon="-3.882726000">
        <ele>582.1</ele>
        <time>2020-10-15T08:34:55Z</time>
      </trkpt>
      <trkpt lat="37.789848000" lon="-3.882830000">
        <ele>582.5</ele>
        <time>2020-10-15T08:34:57Z</time>
      </trkpt>
      <trkpt lat="37.789862000" lon="-3.882937000">
        <ele>582.8</ele>
        <time>2020-10-15T08:34:59Z</time>
      </trkpt>
      <trkpt lat="37.789880000" lon="-3.883041000">
        <ele>583.1</ele>
        <time>2020-10-15T08:35:01Z</time>
      </trkpt>
      <trkpt lat="37.789893000" lon="-3.883150000">
        <ele>583.3</ele>
        <time>2020-10-15T08:35:03Z</time>
      </trkpt>
      <trkpt lat="37.789907000" lon="-3.883257000">
        <ele>583.3</ele>
        <time>2020-10-15T08:35:05Z</time>
      </trkpt>
      <trkpt lat="37.789926000" lon="-3.883366000">
        <ele>583.2</ele>
        <time>2020-10-15T08:35:07Z</time>
      </trkpt>
      <trkpt lat="37.789940000" lon="-3.883474000">
        <ele>583.0</ele>
        <time>2020-10-15T08:35:09Z</time>
      </trkpt>
      <trkpt lat="37.789956000" lon="-3.883583000">
        <ele>582.7</ele>
        <time>2020-10-15T08:35:11Z</time>
      </trkpt>
      <trkpt lat="37.789968000" lon="-3.883692000">
        <ele>582.5</ele>
        <time>2020-10-15T08:35:13Z</time>
      </trkpt>
      <trkpt lat="37.789976000" lon="-3.883802000">
        <ele>582.0</ele>
        <time>2020-10-15T08:35:15Z</time>
      </trkpt>
      <trkpt lat="37.789985000" lon="-3.883912000">
        <ele>581.5</ele>
        <time>2020-10-15T08:35:17Z</time>
      </trkpt>
      <trkpt lat="37.789993000" lon="-3.884024000">
        <ele>581.1</ele>
        <time>2020-10-15T08:35:19Z</time>
      </trkpt>
      <trkpt lat="37.789996000" lon="-3.884136000">
        <ele>580.5</ele>
        <time>2020-10-15T08:35:21Z</time>
      </trkpt>
      <trkpt lat="37.789998000" lon="-3.884246000">
        <ele>580.0</ele>
        <time>2020-10-15T08:35:23Z</time>
      </trkpt>
      <trkpt lat="37.790001000" lon="-3.884356000">
        <ele>579.6</ele>
        <time>2020-10-15T08:35:25Z</time>
      </trkpt>
      <trkpt lat="37.790000000" lon="-3.884467000">
        <ele>579.4</ele>
        <time>2020-10-15T08:35:27Z</time>
      </trkpt>
      <trkpt lat="37.789994000" lon="-3.884577000">
        <ele>579.3</ele>
        <time>2020-10-15T08:35:29Z</time>
      </trkpt>
      <trkpt lat="37.789985000" lon="-3.884686000">
        <ele>579.3</ele>
        <time>2020-10-15T08:35:31Z</time>
      </trkpt>
      <trkpt lat="37.789976000" lon="-3.884794000">
        <ele>579.5</ele>
        <time>2020-10-15T08:35:33Z</time>
      </trkpt>
      <trkpt lat="37.789967000" lon="-3.884902000">
        <ele>579.7</ele>
        <time>2020-10-15T08:35:35Z</time>
      </trkpt>
      <trkpt lat="37.789957000" lon="-3.885007000">
        <ele>580.1</ele>
        <time>2020-10-15T08:35:37Z</time>
      </trkpt>
      <trkpt lat="37.789944000" lon="-3.885112000">
        <ele>580.5</ele>
        <time>2020-10-15T08:35:39Z</time>
      </trkpt>
      <trkpt lat="37.789930000" lon="-3.885218000">
        <ele>580.8</ele>
        <time>2020-10-15T08:35:41Z</time>
      </trkpt>
      <trkpt lat="37.789914000" lon="-3.885325000">
        <ele>581.2</ele>
        <time>2020-10-15T08:35:43Z</time>
      </trkpt>
      <trkpt lat="37.789896000" lon="-3.885432000">
        <ele>581.5</ele>
        <time>2020-10-15T08:35:45Z</time>
      </trkpt>
      <trkpt lat="37.789878000" lon="-3.885538000">
        <ele>581.8</ele>
        <time>2020-10-15T08:35:47Z</time>
      </trkpt>
      <trkpt lat="37.789858000" lon="-3.885639000">
        <ele>582.1</ele>
        <time>2020-10-15T08:35:49Z</time>
      </trkpt>
      <trkpt lat="37.789835000" lon="-3.885740000">
        <ele>582.3</ele>
        <time>2020-10-15T08:35:51Z</time>
      </trkpt>
      <trkpt lat="37.789799000" lon="-3.885884000">
        <ele>582.5</ele>
        <time>2020-10-15T08:35:54Z</time>
      </trkpt>
      <trkpt lat="37.789766000" lon="-3.886023000">
        <ele>582.5</ele>
        <time>2020-10-15T08:35:57Z</time>
      </trkpt>
      <trkpt lat="37.789729000" lon="-3.886161000">
        <ele>582.5</ele>
        <time>2020-10-15T08:36:00Z</time>
      </trkpt>
      <trkpt lat="37.789687000" lon="-3.886290000">
        <ele>582.5</ele>
        <time>2020-10-15T08:36:03Z</time>
      </trkpt>
      <trkpt lat="37.789639000" lon="-3.886416000">
        <ele>582.5</ele>
        <time>2020-10-15T08:36:06Z</time>
      </trkpt>
      <trkpt lat="37.789583000" lon="-3.886544000">
        <ele>582.5</ele>
        <time>2020-10-15T08:36:09Z</time>
      </trkpt>
      <trkpt lat="37.789526000" lon="-3.886673000">
        <ele>582.4</ele>
        <time>2020-10-15T08:36:12Z</time>
      </trkpt>
      <trkpt lat="37.789469000" lon="-3.886808000">
        <ele>582.3</ele>
        <time>2020-10-15T08:36:15Z</time>
      </trkpt>
      <trkpt lat="37.789428000" lon="-3.886898000">
        <ele>582.1</ele>
        <time>2020-10-15T08:36:17Z</time>
      </trkpt>
      <trkpt lat="37.789383000" lon="-3.886988000">
        <ele>581.9</ele>
        <time>2020-10-15T08:36:19Z</time>
      </trkpt>
      <trkpt lat="37.789335000" lon="-3.887079000">
        <ele>581.8</ele>
        <time>2020-10-15T08:36:21Z</time>
      </trkpt>
      <trkpt lat="37.789278000" lon="-3.887165000">
        <ele>581.7</ele>
        <time>2020-10-15T08:36:23Z</time>
      </trkpt>
      <trkpt lat="37.789221000" lon="-3.887247000">
        <ele>581.7</ele>
        <time>2020-10-15T08:36:25Z</time>
      </trkpt>
      <trkpt lat="37.789168000" lon="-3.887332000">
        <ele>581.7</ele>
        <time>2020-10-15T08:36:27Z</time>
      </trkpt>
      <trkpt lat="37.789111000" lon="-3.887415000">
        <ele>581.8</ele>
        <time>2020-10-15T08:36:29Z</time>
      </trkpt>
      <trkpt lat="37.789048000" lon="-3.887495000">
        <ele>581.8</ele>
        <time>2020-10-15T08:36:31Z</time>
      </trkpt>
      <trkpt lat="37.788986000" lon="-3.887580000">
        <ele>581.9</ele>
        <time>2020-10-15T08:36:33Z</time>
      </trkpt>
      <trkpt lat="37.788924000" lon="-3.887656000">
        <ele>582.1</ele>
        <time>2020-10-15T08:36:35Z</time>
      </trkpt>
      <trkpt lat="37.788863000" lon="-3.887739000">
        <ele>582.3</ele>
        <time>2020-10-15T08:36:37Z</time>
      </trkpt>
      <trkpt lat="37.788808000" lon="-3.887821000">
        <ele>582.5</ele>
        <time>2020-10-15T08:36:39Z</time>
      </trkpt>
      <trkpt lat="37.788746000" lon="-3.887897000">
        <ele>582.9</ele>
        <time>2020-10-15T08:36:41Z</time>
      </trkpt>
      <trkpt lat="37.788684000" lon="-3.887972000">
        <ele>583.3</ele>
        <time>2020-10-15T08:36:43Z</time>
      </trkpt>
      <trkpt lat="37.788621000" lon="-3.888050000">
        <ele>583.5</ele>
        <time>2020-10-15T08:36:45Z</time>
      </trkpt>
      <trkpt lat="37.788558000" lon="-3.888127000">
        <ele>583.8</ele>
        <time>2020-10-15T08:36:47Z</time>
      </trkpt>
      <trkpt lat="37.788491000" lon="-3.888194000">
        <ele>584.2</ele>
        <time>2020-10-15T08:36:49Z</time>
      </trkpt>
      <trkpt lat="37.788426000" lon="-3.888259000">
        <ele>584.5</ele>
        <time>2020-10-15T08:36:51Z</time>
      </trkpt>
      <trkpt lat="37.788359000" lon="-3.888319000">
        <ele>585.0</ele>
        <time>2020-10-15T08:36:53Z</time>
      </trkpt>
      <trkpt lat="37.788290000" lon="-3.888381000">
        <ele>585.5</ele>
        <time>2020-10-15T08:36:55Z</time>
      </trkpt>
      <trkpt lat="37.788220000" lon="-3.888443000">
        <ele>585.9</ele>
        <time>2020-10-15T08:36:57Z</time>
      </trkpt>
      <trkpt lat="37.788140000" lon="-3.888505000">
        <ele>586.4</ele>
        <time>2020-10-15T08:36:59Z</time>
      </trkpt>
      <trkpt lat="37.788063000" lon="-3.888569000">
        <ele>586.9</ele>
        <time>2020-10-15T08:37:01Z</time>
      </trkpt>
      <trkpt lat="37.787987000" lon="-3.888615000">
        <ele>587.4</ele>
        <time>2020-10-15T08:37:03Z</time>
      </trkpt>
      <trkpt lat="37.787884000" lon="-3.888686000">
        <ele>587.8</ele>
        <time>2020-10-15T08:37:06Z</time>
      </trkpt>
      <trkpt lat="37.787782000" lon="-3.888738000">
        <ele>588.4</ele>
        <time>2020-10-15T08:37:09Z</time>
      </trkpt>
      <trkpt lat="37.787679000" lon="-3.888790000">
        <ele>588.9</ele>
        <time>2020-10-15T08:37:12Z</time>
      </trkpt>
      <trkpt lat="37.787570000" lon="-3.888845000">
        <ele>589.3</ele>
        <time>2020-10-15T08:37:15Z</time>
      </trkpt>
      <trkpt lat="37.787457000" lon="-3.888901000">
        <ele>589.5</ele>
        <time>2020-10-15T08:37:18Z</time>
      </trkpt>
      <trkpt lat="37.787380000" lon="-3.888935000">
        <ele>589.8</ele>
        <time>2020-10-15T08:37:20Z</time>
      </trkpt>
      <trkpt lat="37.787301000" lon="-3.888968000">
        <ele>590.1</ele>
        <time>2020-10-15T08:37:22Z</time>
      </trkpt>
      <trkpt lat="37.787223000" lon="-3.888997000">
        <ele>590.3</ele>
        <time>2020-10-15T08:37:24Z</time>
      </trkpt>
      <trkpt lat="37.787141000" lon="-3.889022000">
        <ele>590.5</ele>
        <time>2020-10-15T08:37:26Z</time>
      </trkpt>
      <trkpt lat="37.787058000" lon="-3.889043000">
        <ele>590.5</ele>
        <time>2020-10-15T08:37:28Z</time>
      </trkpt>
      <trkpt lat="37.786972000" lon="-3.889066000">
        <ele>590.6</ele>
        <time>2020-10-15T08:37:30Z</time>
      </trkpt>
      <trkpt lat="37.786884000" lon="-3.889090000">
        <ele>590.6</ele>
        <time>2020-10-15T08:37:32Z</time>
      </trkpt>
      <trkpt lat="37.786798000" lon="-3.889115000">
        <ele>590.5</ele>
        <time>2020-10-15T08:37:34Z</time>
      </trkpt>
      <trkpt lat="37.786712000" lon="-3.889131000">
        <ele>590.4</ele>
        <time>2020-10-15T08:37:36Z</time>
      </trkpt>
      <trkpt lat="37.786625000" lon="-3.889137000">
        <ele>590.3</ele>
        <time>2020-10-15T08:37:38Z</time>
      </trkpt>
      <trkpt lat="37.786535000" lon="-3.889150000">
        <ele>590.2</ele>
        <time>2020-10-15T08:37:40Z</time>
      </trkpt>
      <trkpt lat="37.786451000" lon="-3.889165000">
        <ele>590.1</ele>
        <time>2020-10-15T08:37:42Z</time>
      </trkpt>
      <trkpt lat="37.786367000" lon="-3.889170000">
        <ele>590.0</ele>
        <time>2020-10-15T08:37:44Z</time>
      </trkpt>
      <trkpt lat="37.786278000" lon="-3.889174000">
        <ele>590.0</ele>
        <time>2020-10-15T08:37:46Z</time>
      </trkpt>
      <trkpt lat="37.786178000" lon="-3.889180000">
        <ele>589.9</ele>
        <time>2020-10-15T08:37:48Z</time>
      </trkpt>
      <trkpt lat="37.786087000" lon="-3.889191000">
        <ele>589.8</ele>
        <time>2020-10-15T08:37:50Z</time>
      </trkpt>
      <trkpt lat="37.785993000" lon="-3.889199000">
        <ele>589.6</ele>
        <time>2020-10-15T08:37:52Z</time>
      </trkpt>
      <trkpt lat="37.785905000" lon="-3.889209000">
        <ele>589.5</ele>
        <time>2020-10-15T08:37:54Z</time>
      </trkpt>
      <trkpt lat="37.785818000" lon="-3.889218000">
        <ele>589.4</ele>
        <time>2020-10-15T08:37:56Z</time>
      </trkpt>
      <trkpt lat="37.785727000" lon="-3.889226000">
        <ele>589.3</ele>
        <time>2020-10-15T08:37:58Z</time>
      </trkpt>
      <trkpt lat="37.785642000" lon="-3.889238000">
        <ele>589.3</ele>
        <time>2020-10-15T08:38:00Z</time>
      </trkpt>
      <trkpt lat="37.785557000" lon="-3.889242000">
        <ele>589.4</ele>
        <time>2020-10-15T08:38:02Z</time>
      </trkpt>
      <trkpt lat="37.785439000" lon="-3.889244000">
        <ele>589.5</ele>
        <time>2020-10-15T08:38:05Z</time>
      </trkpt>
      <trkpt lat="37.785324000" lon="-3.889256000">
        <ele>589.5</ele>
        <time>2020-10-15T08:38:08Z</time>
      </trkpt>
      <trkpt lat="37.785211000" lon="-3.889265000">
        <ele>589.7</ele>
        <time>2020-10-15T08:38:11Z</time>
      </trkpt>
      <trkpt lat="37.785094000" lon="-3.889272000">
        <ele>590.0</ele>
        <time>2020-10-15T08:38:14Z</time>
      </trkpt>
      <trkpt lat="37.784975000" lon="-3.889277000">
        <ele>590.4</ele>
        <time>2020-10-15T08:38:17Z</time>
      </trkpt>
      <trkpt lat="37.784857000" lon="-3.889290000">
        <ele>590.8</ele>
        <time>2020-10-15T08:38:20Z</time>
      </trkpt>
      <trkpt lat="37.784739000" lon="-3.889305000">
        <ele>591.4</ele>
        <time>2020-10-15T08:38:23Z</time>
      </trkpt>
      <trkpt lat="37.784658000" lon="-3.889315000">
        <ele>591.8</ele>
        <time>2020-10-15T08:38:25Z</time>
      </trkpt>
      <trkpt lat="37.784575000" lon="-3.889324000">
        <ele>592.4</ele>
        <time>2020-10-15T08:38:27Z</time>
      </trkpt>
      <trkpt lat="37.784493000" lon="-3.889335000">
        <ele>592.8</ele>
        <time>2020-10-15T08:38:29Z</time>
      </trkpt>
      <trkpt lat="37.784411000" lon="-3.889345000">
        <ele>593.3</ele>
        <time>2020-10-15T08:38:31Z</time>
      </trkpt>
      <trkpt lat="37.784329000" lon="-3.889355000">
        <ele>593.7</ele>
        <time>2020-10-15T08:38:33Z</time>
      </trkpt>
      <trkpt lat="37.784244000" lon="-3.889362000">
        <ele>594.3</ele>
        <time>2020-10-15T08:38:35Z</time>
      </trkpt>
      <trkpt lat="37.784161000" lon="-3.889364000">
        <ele>594.7</ele>
        <time>2020-10-15T08:38:37Z</time>
      </trkpt>
      <trkpt lat="37.784077000" lon="-3.889367000">
        <ele>595.3</ele>
        <time>2020-10-15T08:38:39Z</time>
      </trkpt>
      <trkpt lat="37.783995000" lon="-3.889366000">
        <ele>595.7</ele>
        <time>2020-10-15T08:38:41Z</time>
      </trkpt>
      <trkpt lat="37.783889000" lon="-3.889367000">
        <ele>596.3</ele>
        <time>2020-10-15T08:38:44Z</time>
      </trkpt>
      <trkpt lat="37.783807000" lon="-3.889380000">
        <ele>596.7</ele>
        <time>2020-10-15T08:38:47Z</time>
      </trkpt>
      <trkpt lat="37.783711000" lon="-3.889384000">
        <ele>597.2</ele>
        <time>2020-10-15T08:38:51Z</time>
      </trkpt>
      <trkpt lat="37.783619000" lon="-3.889386000">
        <ele>597.5</ele>
        <time>2020-10-15T08:38:55Z</time>
      </trkpt>
      <trkpt lat="37.783530000" lon="-3.889396000">
        <ele>597.9</ele>
        <time>2020-10-15T08:38:59Z</time>
      </trkpt>
      <trkpt lat="37.783446000" lon="-3.889402000">
        <ele>598.2</ele>
        <time>2020-10-15T08:39:04Z</time>
      </trkpt>
      <trkpt lat="37.783361000" lon="-3.889414000">
        <ele>598.5</ele>
        <time>2020-10-15T08:39:09Z</time>
      </trkpt>
      <trkpt lat="37.783439000" lon="-3.889368000">
        <ele>598.6</ele>
        <time>2020-10-15T08:39:23Z</time>
      </trkpt>
      <trkpt lat="37.783350000" lon="-3.889386000">
        <ele>598.8</ele>
        <time>2020-10-15T08:41:48Z</time>
      </trkpt>
      <trkpt lat="37.783264000" lon="-3.889396000">
        <ele>598.8</ele>
        <time>2020-10-15T08:41:51Z</time>
      </trkpt>
      <trkpt lat="37.783163000" lon="-3.889404000">
        <ele>598.8</ele>
        <time>2020-10-15T08:41:56Z</time>
      </trkpt>
      <trkpt lat="37.783079000" lon="-3.889416000">
        <ele>598.7</ele>
        <time>2020-10-15T08:42:00Z</time>
      </trkpt>
      <trkpt lat="37.782998000" lon="-3.889411000">
        <ele>598.7</ele>
        <time>2020-10-15T08:42:04Z</time>
      </trkpt>
      <trkpt lat="37.782898000" lon="-3.889420000">
        <ele>598.7</ele>
        <time>2020-10-15T08:42:08Z</time>
      </trkpt>
      <trkpt lat="37.782802000" lon="-3.889445000">
        <ele>598.8</ele>
        <time>2020-10-15T08:42:12Z</time>
      </trkpt>
      <trkpt lat="37.782724000" lon="-3.889500000">
        <ele>598.9</ele>
        <time>2020-10-15T08:42:16Z</time>
      </trkpt>
      <trkpt lat="37.782657000" lon="-3.889600000">
        <ele>599.0</ele>
        <time>2020-10-15T08:42:19Z</time>
      </trkpt>
      <trkpt lat="37.782613000" lon="-3.889711000">
        <ele>599.1</ele>
        <time>2020-10-15T08:42:22Z</time>
      </trkpt>
      <trkpt lat="37.782601000" lon="-3.889866000">
        <ele>599.2</ele>
        <time>2020-10-15T08:42:25Z</time>
      </trkpt>
      <trkpt lat="37.782590000" lon="-3.889973000">
        <ele>599.3</ele>
        <time>2020-10-15T08:42:27Z</time>
      </trkpt>
      <trkpt lat="37.782579000" lon="-3.890123000">
        <ele>599.5</ele>
        <time>2020-10-15T08:42:30Z</time>
      </trkpt>
      <trkpt lat="37.782562000" lon="-3.890253000">
        <ele>599.8</ele>
        <time>2020-10-15T08:42:32Z</time>
      </trkpt>
      <trkpt lat="37.782543000" lon="-3.890381000">
        <ele>600.1</ele>
        <time>2020-10-15T08:42:34Z</time>
      </trkpt>
      <trkpt lat="37.782522000" lon="-3.890512000">
        <ele>600.2</ele>
        <time>2020-10-15T08:42:36Z</time>
      </trkpt>
      <trkpt lat="37.782499000" lon="-3.890640000">
        <ele>600.3</ele>
        <time>2020-10-15T08:42:38Z</time>
      </trkpt>
      <trkpt lat="37.782460000" lon="-3.890773000">
        <ele>600.3</ele>
        <time>2020-10-15T08:42:40Z</time>
      </trkpt>
      <trkpt lat="37.782422000" lon="-3.890908000">
        <ele>600.2</ele>
        <time>2020-10-15T08:42:42Z</time>
      </trkpt>
      <trkpt lat="37.782385000" lon="-3.891047000">
        <ele>600.1</ele>
        <time>2020-10-15T08:42:44Z</time>
      </trkpt>
      <trkpt lat="37.782349000" lon="-3.891184000">
        <ele>600.0</ele>
        <time>2020-10-15T08:42:46Z</time>
      </trkpt>
      <trkpt lat="37.782307000" lon="-3.891323000">
        <ele>599.9</ele>
        <time>2020-10-15T08:42:48Z</time>
      </trkpt>
      <trkpt lat="37.782265000" lon="-3.891451000">
        <ele>599.8</ele>
        <time>2020-10-15T08:42:50Z</time>
      </trkpt>
      <trkpt lat="37.782216000" lon="-3.891586000">
        <ele>599.6</ele>
        <time>2020-10-15T08:42:52Z</time>
      </trkpt>
      <trkpt lat="37.782165000" lon="-3.891728000">
        <ele>599.5</ele>
        <time>2020-10-15T08:42:54Z</time>
      </trkpt>
      <trkpt lat="37.782112000" lon="-3.891855000">
        <ele>599.3</ele>
        <time>2020-10-15T08:42:56Z</time>
      </trkpt>
      <trkpt lat="37.782052000" lon="-3.891993000">
        <ele>599.2</ele>
        <time>2020-10-15T08:42:58Z</time>
      </trkpt>
      <trkpt lat="37.781993000" lon="-3.892130000">
        <ele>599.1</ele>
        <time>2020-10-15T08:43:00Z</time>
      </trkpt>
      <trkpt lat="37.781932000" lon="-3.892267000">
        <ele>599.0</ele>
        <time>2020-10-15T08:43:02Z</time>
      </trkpt>
      <trkpt lat="37.781872000" lon="-3.892403000">
        <ele>599.0</ele>
        <time>2020-10-15T08:43:04Z</time>
      </trkpt>
      <trkpt lat="37.781802000" lon="-3.892531000">
        <ele>598.9</ele>
        <time>2020-10-15T08:43:06Z</time>
      </trkpt>
      <trkpt lat="37.781735000" lon="-3.892655000">
        <ele>598.8</ele>
        <time>2020-10-15T08:43:08Z</time>
      </trkpt>
      <trkpt lat="37.781669000" lon="-3.892787000">
        <ele>598.7</ele>
        <time>2020-10-15T08:43:10Z</time>
      </trkpt>
      <trkpt lat="37.781601000" lon="-3.892915000">
        <ele>598.6</ele>
        <time>2020-10-15T08:43:12Z</time>
      </trkpt>
      <trkpt lat="37.781533000" lon="-3.893037000">
        <ele>598.5</ele>
        <time>2020-10-15T08:43:14Z</time>
      </trkpt>
      <trkpt lat="37.781460000" lon="-3.893164000">
        <ele>598.5</ele>
        <time>2020-10-15T08:43:16Z</time>
      </trkpt>
      <trkpt lat="37.781381000" lon="-3.893277000">
        <ele>598.4</ele>
        <time>2020-10-15T08:43:18Z</time>
      </trkpt>
      <trkpt lat="37.781305000" lon="-3.893398000">
        <ele>598.3</ele>
        <time>2020-10-15T08:43:20Z</time>
      </trkpt>
      <trkpt lat="37.781229000" lon="-3.893526000">
        <ele>598.2</ele>
        <time>2020-10-15T08:43:22Z</time>
      </trkpt>
      <trkpt lat="37.781157000" lon="-3.893647000">
        <ele>598.1</ele>
        <time>2020-10-15T08:43:24Z</time>
      </trkpt>
      <trkpt lat="37.781089000" lon="-3.893764000">
        <ele>598.1</ele>
        <time>2020-10-15T08:43:26Z</time>
      </trkpt>
      <trkpt lat="37.781024000" lon="-3.893878000">
        <ele>598.3</ele>
        <time>2020-10-15T08:43:28Z</time>
      </trkpt>
      <trkpt lat="37.780959000" lon="-3.893981000">
        <ele>598.5</ele>
        <time>2020-10-15T08:43:30Z</time>
      </trkpt>
      <trkpt lat="37.780893000" lon="-3.894079000">
        <ele>598.7</ele>
        <time>2020-10-15T08:43:32Z</time>
      </trkpt>
      <trkpt lat="37.780833000" lon="-3.894179000">
        <ele>599.1</ele>
        <time>2020-10-15T08:43:34Z</time>
      </trkpt>
      <trkpt lat="37.780769000" lon="-3.894274000">
        <ele>599.5</ele>
        <time>2020-10-15T08:43:36Z</time>
      </trkpt>
      <trkpt lat="37.780711000" lon="-3.894369000">
        <ele>599.8</ele>
        <time>2020-10-15T08:43:38Z</time>
      </trkpt>
      <trkpt lat="37.780656000" lon="-3.894464000">
        <ele>600.3</ele>
        <time>2020-10-15T08:43:40Z</time>
      </trkpt>
      <trkpt lat="37.780604000" lon="-3.894558000">
        <ele>600.7</ele>
        <time>2020-10-15T08:43:42Z</time>
      </trkpt>
      <trkpt lat="37.780555000" lon="-3.894652000">
        <ele>601.2</ele>
        <time>2020-10-15T08:43:44Z</time>
      </trkpt>
      <trkpt lat="37.780508000" lon="-3.894748000">
        <ele>601.7</ele>
        <time>2020-10-15T08:43:46Z</time>
      </trkpt>
      <trkpt lat="37.780462000" lon="-3.894842000">
        <ele>602.2</ele>
        <time>2020-10-15T08:43:48Z</time>
      </trkpt>
      <trkpt lat="37.780417000" lon="-3.894931000">
        <ele>602.5</ele>
        <time>2020-10-15T08:43:50Z</time>
      </trkpt>
      <trkpt lat="37.780372000" lon="-3.895031000">
        <ele>602.7</ele>
        <time>2020-10-15T08:43:52Z</time>
      </trkpt>
      <trkpt lat="37.780333000" lon="-3.895133000">
        <ele>602.9</ele>
        <time>2020-10-15T08:43:54Z</time>
      </trkpt>
      <trkpt lat="37.780293000" lon="-3.895234000">
        <ele>602.9</ele>
        <time>2020-10-15T08:43:56Z</time>
      </trkpt>
      <trkpt lat="37.780257000" lon="-3.895336000">
        <ele>602.9</ele>
        <time>2020-10-15T08:43:59Z</time>
      </trkpt>
      <trkpt lat="37.780220000" lon="-3.895431000">
        <ele>603.0</ele>
        <time>2020-10-15T08:44:00Z</time>
      </trkpt>
      <trkpt lat="37.780162000" lon="-3.895561000">
        <ele>603.0</ele>
        <time>2020-10-15T08:44:03Z</time>
      </trkpt>
      <trkpt lat="37.780072000" lon="-3.895657000">
        <ele>603.0</ele>
        <time>2020-10-15T08:44:06Z</time>
      </trkpt>
      <trkpt lat="37.779966000" lon="-3.895721000">
        <ele>603.1</ele>
        <time>2020-10-15T08:44:09Z</time>
      </trkpt>
      <trkpt lat="37.779860000" lon="-3.895759000">
        <ele>603.1</ele>
        <time>2020-10-15T08:44:12Z</time>
      </trkpt>
      <trkpt lat="37.779761000" lon="-3.895773000">
        <ele>603.2</ele>
        <time>2020-10-15T08:44:15Z</time>
      </trkpt>
      <trkpt lat="37.779671000" lon="-3.895766000">
        <ele>603.4</ele>
        <time>2020-10-15T08:44:18Z</time>
      </trkpt>
      <trkpt lat="37.779589000" lon="-3.895774000">
        <ele>603.5</ele>
        <time>2020-10-15T08:44:21Z</time>
      </trkpt>
      <trkpt lat="37.779485000" lon="-3.895766000">
        <ele>603.8</ele>
        <time>2020-10-15T08:44:25Z</time>
      </trkpt>
      <trkpt lat="37.779397000" lon="-3.895749000">
        <ele>604.2</ele>
        <time>2020-10-15T08:44:29Z</time>
      </trkpt>
      <trkpt lat="37.779317000" lon="-3.895717000">
        <ele>604.6</ele>
        <time>2020-10-15T08:44:38Z</time>
      </trkpt>
      <trkpt lat="37.779236000" lon="-3.895747000">
        <ele>605.0</ele>
        <time>2020-10-15T08:44:40Z</time>
      </trkpt>
      <trkpt lat="37.779252000" lon="-3.895855000">
        <ele>605.4</ele>
        <time>2020-10-15T08:44:45Z</time>
      </trkpt>
      <trkpt lat="37.779268000" lon="-3.895989000">
        <ele>605.7</ele>
        <time>2020-10-15T08:44:48Z</time>
      </trkpt>
      <trkpt lat="37.779237000" lon="-3.896116000">
        <ele>606.1</ele>
        <time>2020-10-15T08:44:52Z</time>
      </trkpt>
      <trkpt lat="37.779184000" lon="-3.896200000">
        <ele>606.5</ele>
        <time>2020-10-15T08:44:55Z</time>
      </trkpt>
      <trkpt lat="37.779108000" lon="-3.896260000">
        <ele>606.7</ele>
        <time>2020-10-15T08:44:58Z</time>
      </trkpt>
      <trkpt lat="37.779028000" lon="-3.896329000">
        <ele>607.1</ele>
        <time>2020-10-15T08:45:01Z</time>
      </trkpt>
      <trkpt lat="37.778951000" lon="-3.896414000">
        <ele>607.5</ele>
        <time>2020-10-15T08:45:04Z</time>
      </trkpt>
      <trkpt lat="37.778876000" lon="-3.896488000">
        <ele>607.8</ele>
        <time>2020-10-15T08:45:07Z</time>
      </trkpt>
      <trkpt lat="37.778801000" lon="-3.896554000">
        <ele>608.2</ele>
        <time>2020-10-15T08:45:10Z</time>
      </trkpt>
      <trkpt lat="37.778731000" lon="-3.896615000">
        <ele>608.5</ele>
        <time>2020-10-15T08:45:13Z</time>
      </trkpt>
      <trkpt lat="37.778663000" lon="-3.896686000">
        <ele>608.7</ele>
        <time>2020-10-15T08:45:16Z</time>
      </trkpt>
      <trkpt lat="37.778595000" lon="-3.896776000">
        <ele>609.0</ele>
        <time>2020-10-15T08:45:19Z</time>
      </trkpt>
      <trkpt lat="37.778530000" lon="-3.896884000">
        <ele>609.4</ele>
        <time>2020-10-15T08:45:22Z</time>
      </trkpt>
      <trkpt lat="37.778461000" lon="-3.896982000">
        <ele>609.6</ele>
        <time>2020-10-15T08:45:28Z</time>
      </trkpt>
      <trkpt lat="37.778391000" lon="-3.897092000">
        <ele>610.0</ele>
        <time>2020-10-15T08:45:28Z</time>
      </trkpt>
      <trkpt lat="37.778329000" lon="-3.897206000">
        <ele>610.4</ele>
        <time>2020-10-15T08:45:31Z</time>
      </trkpt>
      <trkpt lat="37.778254000" lon="-3.897318000">
        <ele>610.6</ele>
        <time>2020-10-15T08:45:34Z</time>
      </trkpt>
      <trkpt lat="37.778175000" lon="-3.897432000">
        <ele>610.9</ele>
        <time>2020-10-15T08:45:37Z</time>
      </trkpt>
      <trkpt lat="37.778123000" lon="-3.897511000">
        <ele>611.1</ele>
        <time>2020-10-15T08:45:39Z</time>
      </trkpt>
      <trkpt lat="37.778074000" lon="-3.897593000">
        <ele>611.3</ele>
        <time>2020-10-15T08:45:41Z</time>
      </trkpt>
      <trkpt lat="37.778023000" lon="-3.897672000">
        <ele>611.5</ele>
        <time>2020-10-15T08:45:43Z</time>
      </trkpt>
      <trkpt lat="37.777969000" lon="-3.897752000">
        <ele>611.6</ele>
        <time>2020-10-15T08:45:45Z</time>
      </trkpt>
      <trkpt lat="37.777911000" lon="-3.897829000">
        <ele>611.7</ele>
        <time>2020-10-15T08:45:47Z</time>
      </trkpt>
      <trkpt lat="37.777858000" lon="-3.897911000">
        <ele>611.7</ele>
        <time>2020-10-15T08:45:49Z</time>
      </trkpt>
      <trkpt lat="37.777805000" lon="-3.897995000">
        <ele>611.7</ele>
        <time>2020-10-15T08:45:51Z</time>
      </trkpt>
      <trkpt lat="37.777751000" lon="-3.898077000">
        <ele>611.6</ele>
        <time>2020-10-15T08:45:53Z</time>
      </trkpt>
      <trkpt lat="37.777696000" lon="-3.898160000">
        <ele>611.5</ele>
        <time>2020-10-15T08:45:55Z</time>
      </trkpt>
      <trkpt lat="37.777639000" lon="-3.898242000">
        <ele>611.3</ele>
        <time>2020-10-15T08:45:57Z</time>
      </trkpt>
      <trkpt lat="37.777586000" lon="-3.898324000">
        <ele>611.0</ele>
        <time>2020-10-15T08:45:59Z</time>
      </trkpt>
      <trkpt lat="37.777535000" lon="-3.898404000">
        <ele>610.7</ele>
        <time>2020-10-15T08:46:01Z</time>
      </trkpt>
      <trkpt lat="37.777483000" lon="-3.898487000">
        <ele>610.5</ele>
        <time>2020-10-15T08:46:03Z</time>
      </trkpt>
      <trkpt lat="37.777427000" lon="-3.898571000">
        <ele>610.2</ele>
        <time>2020-10-15T08:46:05Z</time>
      </trkpt>
      <trkpt lat="37.777374000" lon="-3.898656000">
        <ele>609.9</ele>
        <time>2020-10-15T08:46:07Z</time>
      </trkpt>
      <trkpt lat="37.777323000" lon="-3.898738000">
        <ele>609.7</ele>
        <time>2020-10-15T08:46:09Z</time>
      </trkpt>
      <trkpt lat="37.777271000" lon="-3.898821000">
        <ele>609.5</ele>
        <time>2020-10-15T08:46:11Z</time>
      </trkpt>
      <trkpt lat="37.777218000" lon="-3.898903000">
        <ele>609.4</ele>
        <time>2020-10-15T08:46:13Z</time>
      </trkpt>
      <trkpt lat="37.777164000" lon="-3.898982000">
        <ele>609.2</ele>
        <time>2020-10-15T08:46:15Z</time>
      </trkpt>
      <trkpt lat="37.777107000" lon="-3.899064000">
        <ele>609.2</ele>
        <time>2020-10-15T08:46:17Z</time>
      </trkpt>
      <trkpt lat="37.777054000" lon="-3.899148000">
        <ele>609.2</ele>
        <time>2020-10-15T08:46:19Z</time>
      </trkpt>
      <trkpt lat="37.776999000" lon="-3.899232000">
        <ele>609.4</ele>
        <time>2020-10-15T08:46:21Z</time>
      </trkpt>
      <trkpt lat="37.776944000" lon="-3.899314000">
        <ele>609.5</ele>
        <time>2020-10-15T08:46:23Z</time>
      </trkpt>
      <trkpt lat="37.776890000" lon="-3.899401000">
        <ele>609.7</ele>
        <time>2020-10-15T08:46:25Z</time>
      </trkpt>
      <trkpt lat="37.776835000" lon="-3.899489000">
        <ele>609.9</ele>
        <time>2020-10-15T08:46:27Z</time>
      </trkpt>
      <trkpt lat="37.776781000" lon="-3.899579000">
        <ele>610.2</ele>
        <time>2020-10-15T08:46:29Z</time>
      </trkpt>
      <trkpt lat="37.776728000" lon="-3.899667000">
        <ele>610.5</ele>
        <time>2020-10-15T08:46:31Z</time>
      </trkpt>
      <trkpt lat="37.776677000" lon="-3.899751000">
        <ele>610.7</ele>
        <time>2020-10-15T08:46:33Z</time>
      </trkpt>
      <trkpt lat="37.776625000" lon="-3.899831000">
        <ele>611.1</ele>
        <time>2020-10-15T08:46:35Z</time>
      </trkpt>
      <trkpt lat="37.776550000" lon="-3.899946000">
        <ele>611.5</ele>
        <time>2020-10-15T08:46:38Z</time>
      </trkpt>
      <trkpt lat="37.776495000" lon="-3.900028000">
        <ele>611.9</ele>
        <time>2020-10-15T08:46:40Z</time>
      </trkpt>
      <trkpt lat="37.776440000" lon="-3.900113000">
        <ele>612.4</ele>
        <time>2020-10-15T08:46:42Z</time>
      </trkpt>
      <trkpt lat="37.776386000" lon="-3.900197000">
        <ele>612.7</ele>
        <time>2020-10-15T08:46:44Z</time>
      </trkpt>
      <trkpt lat="37.776330000" lon="-3.900282000">
        <ele>613.1</ele>
        <time>2020-10-15T08:46:46Z</time>
      </trkpt>
      <trkpt lat="37.776268000" lon="-3.900370000">
        <ele>613.5</ele>
        <time>2020-10-15T08:46:48Z</time>
      </trkpt>
      <trkpt lat="37.776215000" lon="-3.900459000">
        <ele>614.0</ele>
        <time>2020-10-15T08:46:50Z</time>
      </trkpt>
      <trkpt lat="37.776159000" lon="-3.900541000">
        <ele>614.3</ele>
        <time>2020-10-15T08:46:52Z</time>
      </trkpt>
      <trkpt lat="37.776101000" lon="-3.900624000">
        <ele>614.5</ele>
        <time>2020-10-15T08:46:54Z</time>
      </trkpt>
      <trkpt lat="37.776039000" lon="-3.900714000">
        <ele>614.8</ele>
        <time>2020-10-15T08:46:56Z</time>
      </trkpt>
      <trkpt lat="37.775981000" lon="-3.900811000">
        <ele>615.0</ele>
        <time>2020-10-15T08:46:58Z</time>
      </trkpt>
      <trkpt lat="37.775921000" lon="-3.900904000">
        <ele>615.0</ele>
        <time>2020-10-15T08:47:00Z</time>
      </trkpt>
      <trkpt lat="37.775862000" lon="-3.900999000">
        <ele>615.0</ele>
        <time>2020-10-15T08:47:02Z</time>
      </trkpt>
      <trkpt lat="37.775806000" lon="-3.901094000">
        <ele>615.0</ele>
        <time>2020-10-15T08:47:04Z</time>
      </trkpt>
      <trkpt lat="37.775750000" lon="-3.901182000">
        <ele>615.1</ele>
        <time>2020-10-15T08:47:06Z</time>
      </trkpt>
      <trkpt lat="37.775686000" lon="-3.901275000">
        <ele>615.2</ele>
        <time>2020-10-15T08:47:08Z</time>
      </trkpt>
      <trkpt lat="37.775628000" lon="-3.901361000">
        <ele>615.2</ele>
        <time>2020-10-15T08:47:10Z</time>
      </trkpt>
      <trkpt lat="37.775569000" lon="-3.901460000">
        <ele>615.2</ele>
        <time>2020-10-15T08:47:12Z</time>
      </trkpt>
      <trkpt lat="37.775509000" lon="-3.901558000">
        <ele>615.3</ele>
        <time>2020-10-15T08:47:14Z</time>
      </trkpt>
      <trkpt lat="37.775450000" lon="-3.901656000">
        <ele>615.5</ele>
        <time>2020-10-15T08:47:16Z</time>
      </trkpt>
      <trkpt lat="37.775389000" lon="-3.901748000">
        <ele>615.6</ele>
        <time>2020-10-15T08:47:18Z</time>
      </trkpt>
      <trkpt lat="37.775332000" lon="-3.901843000">
        <ele>615.8</ele>
        <time>2020-10-15T08:47:20Z</time>
      </trkpt>
      <trkpt lat="37.775273000" lon="-3.901932000">
        <ele>616.1</ele>
        <time>2020-10-15T08:47:22Z</time>
      </trkpt>
      <trkpt lat="37.775210000" lon="-3.902021000">
        <ele>616.4</ele>
        <time>2020-10-15T08:47:24Z</time>
      </trkpt>
      <trkpt lat="37.775152000" lon="-3.902114000">
        <ele>616.6</ele>
        <time>2020-10-15T08:47:26Z</time>
      </trkpt>
      <trkpt lat="37.775091000" lon="-3.902207000">
        <ele>616.8</ele>
        <time>2020-10-15T08:47:28Z</time>
      </trkpt>
      <trkpt lat="37.775027000" lon="-3.902296000">
        <ele>617.0</ele>
        <time>2020-10-15T08:47:30Z</time>
      </trkpt>
      <trkpt lat="37.774969000" lon="-3.902379000">
        <ele>617.2</ele>
        <time>2020-10-15T08:47:32Z</time>
      </trkpt>
      <trkpt lat="37.774912000" lon="-3.902458000">
        <ele>617.5</ele>
        <time>2020-10-15T08:47:34Z</time>
      </trkpt>
      <trkpt lat="37.774855000" lon="-3.902549000">
        <ele>617.8</ele>
        <time>2020-10-15T08:47:36Z</time>
      </trkpt>
      <trkpt lat="37.774812000" lon="-3.902635000">
        <ele>618.2</ele>
        <time>2020-10-15T08:47:38Z</time>
      </trkpt>
      <trkpt lat="37.774754000" lon="-3.902715000">
        <ele>618.5</ele>
        <time>2020-10-15T08:47:40Z</time>
      </trkpt>
      <trkpt lat="37.774686000" lon="-3.902828000">
        <ele>619.0</ele>
        <time>2020-10-15T08:47:43Z</time>
      </trkpt>
      <trkpt lat="37.774626000" lon="-3.902936000">
        <ele>619.5</ele>
        <time>2020-10-15T08:47:46Z</time>
      </trkpt>
      <trkpt lat="37.774549000" lon="-3.903056000">
        <ele>620.0</ele>
        <time>2020-10-15T08:47:49Z</time>
      </trkpt>
      <trkpt lat="37.774486000" lon="-3.903139000">
        <ele>620.5</ele>
        <time>2020-10-15T08:47:51Z</time>
      </trkpt>
      <trkpt lat="37.774429000" lon="-3.903230000">
        <ele>621.1</ele>
        <time>2020-10-15T08:47:53Z</time>
      </trkpt>
      <trkpt lat="37.774368000" lon="-3.903319000">
        <ele>621.6</ele>
        <time>2020-10-15T08:47:55Z</time>
      </trkpt>
      <trkpt lat="37.774309000" lon="-3.903406000">
        <ele>622.2</ele>
        <time>2020-10-15T08:47:57Z</time>
      </trkpt>
      <trkpt lat="37.774251000" lon="-3.903504000">
        <ele>622.5</ele>
        <time>2020-10-15T08:47:59Z</time>
      </trkpt>
      <trkpt lat="37.774191000" lon="-3.903598000">
        <ele>622.8</ele>
        <time>2020-10-15T08:48:01Z</time>
      </trkpt>
      <trkpt lat="37.774127000" lon="-3.903695000">
        <ele>623.0</ele>
        <time>2020-10-15T08:48:03Z</time>
      </trkpt>
      <trkpt lat="37.774055000" lon="-3.903790000">
        <ele>623.1</ele>
        <time>2020-10-15T08:48:05Z</time>
      </trkpt>
      <trkpt lat="37.773989000" lon="-3.903890000">
        <ele>623.0</ele>
        <time>2020-10-15T08:48:07Z</time>
      </trkpt>
      <trkpt lat="37.773921000" lon="-3.903990000">
        <ele>622.9</ele>
        <time>2020-10-15T08:48:09Z</time>
      </trkpt>
      <trkpt lat="37.773853000" lon="-3.904085000">
        <ele>622.7</ele>
        <time>2020-10-15T08:48:11Z</time>
      </trkpt>
      <trkpt lat="37.773788000" lon="-3.904189000">
        <ele>622.4</ele>
        <time>2020-10-15T08:48:13Z</time>
      </trkpt>
      <trkpt lat="37.773726000" lon="-3.904290000">
        <ele>622.0</ele>
        <time>2020-10-15T08:48:15Z</time>
      </trkpt>
      <trkpt lat="37.773667000" lon="-3.904396000">
        <ele>621.5</ele>
        <time>2020-10-15T08:48:17Z</time>
      </trkpt>
      <trkpt lat="37.773604000" lon="-3.904504000">
        <ele>621.2</ele>
        <time>2020-10-15T08:48:19Z</time>
      </trkpt>
      <trkpt lat="37.773544000" lon="-3.904614000">
        <ele>620.9</ele>
        <time>2020-10-15T08:48:21Z</time>
      </trkpt>
      <trkpt lat="37.773475000" lon="-3.904722000">
        <ele>620.6</ele>
        <time>2020-10-15T08:48:23Z</time>
      </trkpt>
      <trkpt lat="37.773404000" lon="-3.904830000">
        <ele>620.4</ele>
        <time>2020-10-15T08:48:25Z</time>
      </trkpt>
      <trkpt lat="37.773336000" lon="-3.904940000">
        <ele>620.3</ele>
        <time>2020-10-15T08:48:27Z</time>
      </trkpt>
      <trkpt lat="37.773272000" lon="-3.905050000">
        <ele>620.4</ele>
        <time>2020-10-15T08:48:29Z</time>
      </trkpt>
      <trkpt lat="37.773203000" lon="-3.905154000">
        <ele>620.5</ele>
        <time>2020-10-15T08:48:31Z</time>
      </trkpt>
      <trkpt lat="37.773135000" lon="-3.905258000">
        <ele>620.5</ele>
        <time>2020-10-15T08:48:33Z</time>
      </trkpt>
      <trkpt lat="37.773065000" lon="-3.905362000">
        <ele>620.6</ele>
        <time>2020-10-15T08:48:35Z</time>
      </trkpt>
      <trkpt lat="37.772996000" lon="-3.905467000">
        <ele>620.9</ele>
        <time>2020-10-15T08:48:37Z</time>
      </trkpt>
      <trkpt lat="37.772931000" lon="-3.905577000">
        <ele>621.4</ele>
        <time>2020-10-15T08:48:39Z</time>
      </trkpt>
      <trkpt lat="37.772868000" lon="-3.905677000">
        <ele>621.9</ele>
        <time>2020-10-15T08:48:41Z</time>
      </trkpt>
      <trkpt lat="37.772802000" lon="-3.905775000">
        <ele>622.6</ele>
        <time>2020-10-15T08:48:43Z</time>
      </trkpt>
      <trkpt lat="37.772741000" lon="-3.905872000">
        <ele>623.5</ele>
        <time>2020-10-15T08:48:45Z</time>
      </trkpt>
      <trkpt lat="37.772678000" lon="-3.905963000">
        <ele>623.3</ele>
        <time>2020-10-15T08:48:47Z</time>
      </trkpt>
      <trkpt lat="37.772620000" lon="-3.906058000">
        <ele>622.7</ele>
        <time>2020-10-15T08:48:49Z</time>
      </trkpt>
      <trkpt lat="37.772559000" lon="-3.906158000">
        <ele>622.0</ele>
        <time>2020-10-15T08:48:51Z</time>
      </trkpt>
      <trkpt lat="37.772493000" lon="-3.906255000">
        <ele>621.2</ele>
        <time>2020-10-15T08:48:53Z</time>
      </trkpt>
      <trkpt lat="37.772431000" lon="-3.906355000">
        <ele>620.5</ele>
        <time>2020-10-15T08:48:55Z</time>
      </trkpt>
      <trkpt lat="37.770876000" lon="-3.909419000">
        <ele>619.6</ele>
        <time>2020-10-15T08:50:14Z</time>
      </trkpt>
      <trkpt lat="37.770858000" lon="-3.909601000">
        <ele>618.6</ele>
        <time>2020-10-15T08:50:16Z</time>
      </trkpt>
      <trkpt lat="37.770844000" lon="-3.909766000">
        <ele>617.5</ele>
        <time>2020-10-15T08:50:18Z</time>
      </trkpt>
      <trkpt lat="37.770827000" lon="-3.909937000">
        <ele>616.0</ele>
        <time>2020-10-15T08:50:20Z</time>
      </trkpt>
      <trkpt lat="37.770813000" lon="-3.910105000">
        <ele>614.4</ele>
        <time>2020-10-15T08:50:22Z</time>
      </trkpt>
      <trkpt lat="37.770802000" lon="-3.910275000">
        <ele>612.5</ele>
        <time>2020-10-15T08:50:24Z</time>
      </trkpt>
      <trkpt lat="37.770795000" lon="-3.910441000">
        <ele>612.0</ele>
        <time>2020-10-15T08:50:26Z</time>
      </trkpt>
      <trkpt lat="37.770813000" lon="-3.910612000">
        <ele>611.6</ele>
        <time>2020-10-15T08:50:28Z</time>
      </trkpt>
      <trkpt lat="37.770839000" lon="-3.910779000">
        <ele>611.4</ele>
        <time>2020-10-15T08:50:30Z</time>
      </trkpt>
      <trkpt lat="37.770858000" lon="-3.910953000">
        <ele>611.0</ele>
        <time>2020-10-15T08:50:32Z</time>
      </trkpt>
      <trkpt lat="37.770876000" lon="-3.911122000">
        <ele>610.5</ele>
        <time>2020-10-15T08:50:34Z</time>
      </trkpt>
      <trkpt lat="37.770900000" lon="-3.911296000">
        <ele>610.0</ele>
        <time>2020-10-15T08:50:36Z</time>
      </trkpt>
      <trkpt lat="37.770927000" lon="-3.911470000">
        <ele>609.5</ele>
        <time>2020-10-15T08:50:38Z</time>
      </trkpt>
      <trkpt lat="37.770951000" lon="-3.911639000">
        <ele>609.2</ele>
        <time>2020-10-15T08:50:40Z</time>
      </trkpt>
      <trkpt lat="37.770986000" lon="-3.911803000">
        <ele>609.0</ele>
        <time>2020-10-15T08:50:42Z</time>
      </trkpt>
      <trkpt lat="37.771030000" lon="-3.911966000">
        <ele>608.9</ele>
        <time>2020-10-15T08:50:44Z</time>
      </trkpt>
      <trkpt lat="37.771076000" lon="-3.912133000">
        <ele>608.9</ele>
        <time>2020-10-15T08:50:46Z</time>
      </trkpt>
      <trkpt lat="37.771126000" lon="-3.912300000">
        <ele>608.9</ele>
        <time>2020-10-15T08:50:48Z</time>
      </trkpt>
      <trkpt lat="37.771177000" lon="-3.912453000">
        <ele>608.9</ele>
        <time>2020-10-15T08:50:50Z</time>
      </trkpt>
      <trkpt lat="37.771229000" lon="-3.912615000">
        <ele>609.0</ele>
        <time>2020-10-15T08:50:52Z</time>
      </trkpt>
      <trkpt lat="37.771273000" lon="-3.912776000">
        <ele>609.4</ele>
        <time>2020-10-15T08:50:54Z</time>
      </trkpt>
      <trkpt lat="37.771315000" lon="-3.912941000">
        <ele>609.8</ele>
        <time>2020-10-15T08:50:56Z</time>
      </trkpt>
      <trkpt lat="37.771358000" lon="-3.913099000">
        <ele>610.4</ele>
        <time>2020-10-15T08:50:58Z</time>
      </trkpt>
      <trkpt lat="37.771401000" lon="-3.913263000">
        <ele>610.8</ele>
        <time>2020-10-15T08:51:00Z</time>
      </trkpt>
      <trkpt lat="37.771448000" lon="-3.913416000">
        <ele>611.3</ele>
        <time>2020-10-15T08:51:02Z</time>
      </trkpt>
      <trkpt lat="37.771488000" lon="-3.913573000">
        <ele>611.5</ele>
        <time>2020-10-15T08:51:04Z</time>
      </trkpt>
      <trkpt lat="37.771526000" lon="-3.913731000">
        <ele>611.7</ele>
        <time>2020-10-15T08:51:06Z</time>
      </trkpt>
      <trkpt lat="37.771568000" lon="-3.913885000">
        <ele>611.6</ele>
        <time>2020-10-15T08:51:08Z</time>
      </trkpt>
      <trkpt lat="37.771607000" lon="-3.914042000">
        <ele>611.4</ele>
        <time>2020-10-15T08:51:10Z</time>
      </trkpt>
      <trkpt lat="37.771645000" lon="-3.914199000">
        <ele>610.9</ele>
        <time>2020-10-15T08:51:12Z</time>
      </trkpt>
      <trkpt lat="37.771686000" lon="-3.914364000">
        <ele>610.3</ele>
        <time>2020-10-15T08:51:14Z</time>
      </trkpt>
      <trkpt lat="37.771718000" lon="-3.914529000">
        <ele>609.5</ele>
        <time>2020-10-15T08:51:16Z</time>
      </trkpt>
      <trkpt lat="37.771749000" lon="-3.914696000">
        <ele>608.7</ele>
        <time>2020-10-15T08:51:18Z</time>
      </trkpt>
      <trkpt lat="37.771768000" lon="-3.914873000">
        <ele>608.0</ele>
        <time>2020-10-15T08:51:20Z</time>
      </trkpt>
      <trkpt lat="37.771788000" lon="-3.915049000">
        <ele>607.4</ele>
        <time>2020-10-15T08:51:22Z</time>
      </trkpt>
      <trkpt lat="37.771799000" lon="-3.915227000">
        <ele>606.6</ele>
        <time>2020-10-15T08:51:24Z</time>
      </trkpt>
      <trkpt lat="37.771804000" lon="-3.915406000">
        <ele>606.0</ele>
        <time>2020-10-15T08:51:26Z</time>
      </trkpt>
      <trkpt lat="37.771802000" lon="-3.915588000">
        <ele>605.2</ele>
        <time>2020-10-15T08:51:28Z</time>
      </trkpt>
      <trkpt lat="37.771792000" lon="-3.915767000">
        <ele>604.5</ele>
        <time>2020-10-15T08:51:30Z</time>
      </trkpt>
      <trkpt lat="37.771774000" lon="-3.915950000">
        <ele>603.6</ele>
        <time>2020-10-15T08:51:32Z</time>
      </trkpt>
      <trkpt lat="37.771750000" lon="-3.916134000">
        <ele>602.9</ele>
        <time>2020-10-15T08:51:34Z</time>
      </trkpt>
      <trkpt lat="37.771726000" lon="-3.916308000">
        <ele>602.2</ele>
        <time>2020-10-15T08:51:36Z</time>
      </trkpt>
      <trkpt lat="37.771697000" lon="-3.916471000">
        <ele>601.4</ele>
        <time>2020-10-15T08:51:38Z</time>
      </trkpt>
      <trkpt lat="37.771673000" lon="-3.916609000">
        <ele>600.5</ele>
        <time>2020-10-15T08:51:40Z</time>
      </trkpt>
      <trkpt lat="37.771653000" lon="-3.916712000">
        <ele>599.6</ele>
        <time>2020-10-15T08:51:43Z</time>
      </trkpt>
      <trkpt lat="37.771617000" lon="-3.916829000">
        <ele>598.6</ele>
        <time>2020-10-15T08:51:48Z</time>
      </trkpt>
      <trkpt lat="37.771593000" lon="-3.916934000">
        <ele>597.7</ele>
        <time>2020-10-15T08:51:52Z</time>
      </trkpt>
      <trkpt lat="37.771577000" lon="-3.917045000">
        <ele>596.8</ele>
        <time>2020-10-15T08:51:58Z</time>
      </trkpt>
      <trkpt lat="37.771555000" lon="-3.917155000">
        <ele>596.1</ele>
        <time>2020-10-15T08:52:51Z</time>
      </trkpt>
      <trkpt lat="37.771526000" lon="-3.917264000">
        <ele>595.5</ele>
        <time>2020-10-15T08:52:56Z</time>
      </trkpt>
      <trkpt lat="37.771503000" lon="-3.917367000">
        <ele>595.0</ele>
        <time>2020-10-15T08:53:00Z</time>
      </trkpt>
      <trkpt lat="37.771471000" lon="-3.917479000">
        <ele>594.7</ele>
        <time>2020-10-15T08:53:04Z</time>
      </trkpt>
      <trkpt lat="37.771439000" lon="-3.917592000">
        <ele>594.6</ele>
        <time>2020-10-15T08:53:08Z</time>
      </trkpt>
      <trkpt lat="37.771414000" lon="-3.917712000">
        <ele>594.7</ele>
        <time>2020-10-15T08:53:12Z</time>
      </trkpt>
      <trkpt lat="37.771386000" lon="-3.917836000">
        <ele>594.9</ele>
        <time>2020-10-15T08:53:16Z</time>
      </trkpt>
      <trkpt lat="37.771355000" lon="-3.917963000">
        <ele>595.1</ele>
        <time>2020-10-15T08:53:20Z</time>
      </trkpt>
      <trkpt lat="37.771329000" lon="-3.918083000">
        <ele>595.4</ele>
        <time>2020-10-15T08:53:23Z</time>
      </trkpt>
      <trkpt lat="37.771301000" lon="-3.918222000">
        <ele>595.7</ele>
        <time>2020-10-15T08:53:26Z</time>
      </trkpt>
      <trkpt lat="37.771283000" lon="-3.918328000">
        <ele>596.1</ele>
        <time>2020-10-15T08:53:28Z</time>
      </trkpt>
      <trkpt lat="37.771263000" lon="-3.918447000">
        <ele>596.5</ele>
        <time>2020-10-15T08:53:30Z</time>
      </trkpt>
      <trkpt lat="37.771238000" lon="-3.918563000">
        <ele>597.1</ele>
        <time>2020-10-15T08:53:32Z</time>
      </trkpt>
      <trkpt lat="37.771213000" lon="-3.918680000">
        <ele>597.8</ele>
        <time>2020-10-15T08:53:34Z</time>
      </trkpt>
      <trkpt lat="37.771184000" lon="-3.918809000">
        <ele>598.5</ele>
        <time>2020-10-15T08:53:36Z</time>
      </trkpt>
      <trkpt lat="37.771155000" lon="-3.918941000">
        <ele>599.2</ele>
        <time>2020-10-15T08:53:38Z</time>
      </trkpt>
      <trkpt lat="37.771127000" lon="-3.919076000">
        <ele>599.7</ele>
        <time>2020-10-15T08:53:40Z</time>
      </trkpt>
      <trkpt lat="37.771105000" lon="-3.919218000">
        <ele>600.2</ele>
        <time>2020-10-15T08:53:42Z</time>
      </trkpt>
      <trkpt lat="37.771086000" lon="-3.919363000">
        <ele>600.6</ele>
        <time>2020-10-15T08:53:44Z</time>
      </trkpt>
      <trkpt lat="37.771068000" lon="-3.919519000">
        <ele>601.1</ele>
        <time>2020-10-15T08:53:46Z</time>
      </trkpt>
      <trkpt lat="37.771055000" lon="-3.919672000">
        <ele>601.5</ele>
        <time>2020-10-15T08:53:48Z</time>
      </trkpt>
      <trkpt lat="37.771045000" lon="-3.919829000">
        <ele>601.8</ele>
        <time>2020-10-15T08:53:50Z</time>
      </trkpt>
      <trkpt lat="37.771040000" lon="-3.919980000">
        <ele>602.1</ele>
        <time>2020-10-15T08:53:52Z</time>
      </trkpt>
      <trkpt lat="37.771030000" lon="-3.920125000">
        <ele>602.2</ele>
        <time>2020-10-15T08:53:54Z</time>
      </trkpt>
      <trkpt lat="37.771032000" lon="-3.920269000">
        <ele>602.1</ele>
        <time>2020-10-15T08:53:56Z</time>
      </trkpt>
      <trkpt lat="37.771038000" lon="-3.920409000">
        <ele>601.9</ele>
        <time>2020-10-15T08:53:58Z</time>
      </trkpt>
      <trkpt lat="37.771046000" lon="-3.920535000">
        <ele>601.6</ele>
        <time>2020-10-15T08:54:00Z</time>
      </trkpt>
      <trkpt lat="37.771051000" lon="-3.920666000">
        <ele>601.3</ele>
        <time>2020-10-15T08:54:02Z</time>
      </trkpt>
      <trkpt lat="37.771067000" lon="-3.920788000">
        <ele>601.0</ele>
        <time>2020-10-15T08:54:04Z</time>
      </trkpt>
      <trkpt lat="37.771073000" lon="-3.920914000">
        <ele>600.7</ele>
        <time>2020-10-15T08:54:06Z</time>
      </trkpt>
      <trkpt lat="37.771086000" lon="-3.921046000">
        <ele>600.5</ele>
        <time>2020-10-15T08:54:08Z</time>
      </trkpt>
      <trkpt lat="37.771105000" lon="-3.921181000">
        <ele>600.2</ele>
        <time>2020-10-15T08:54:10Z</time>
      </trkpt>
      <trkpt lat="37.771134000" lon="-3.921317000">
        <ele>599.9</ele>
        <time>2020-10-15T08:54:12Z</time>
      </trkpt>
      <trkpt lat="37.771173000" lon="-3.921451000">
        <ele>599.6</ele>
        <time>2020-10-15T08:54:14Z</time>
      </trkpt>
      <trkpt lat="37.771209000" lon="-3.921581000">
        <ele>599.5</ele>
        <time>2020-10-15T08:54:16Z</time>
      </trkpt>
      <trkpt lat="37.771252000" lon="-3.921709000">
        <ele>599.4</ele>
        <time>2020-10-15T08:54:18Z</time>
      </trkpt>
      <trkpt lat="37.771287000" lon="-3.921841000">
        <ele>599.3</ele>
        <time>2020-10-15T08:54:20Z</time>
      </trkpt>
      <trkpt lat="37.771328000" lon="-3.921976000">
        <ele>599.4</ele>
        <time>2020-10-15T08:54:22Z</time>
      </trkpt>
      <trkpt lat="37.771364000" lon="-3.922111000">
        <ele>599.5</ele>
        <time>2020-10-15T08:54:24Z</time>
      </trkpt>
      <trkpt lat="37.771396000" lon="-3.922244000">
        <ele>599.8</ele>
        <time>2020-10-15T08:54:26Z</time>
      </trkpt>
      <trkpt lat="37.771426000" lon="-3.922385000">
        <ele>600.1</ele>
        <time>2020-10-15T08:54:28Z</time>
      </trkpt>
      <trkpt lat="37.771466000" lon="-3.922522000">
        <ele>600.2</ele>
        <time>2020-10-15T08:54:30Z</time>
      </trkpt>
      <trkpt lat="37.771519000" lon="-3.922646000">
        <ele>600.2</ele>
        <time>2020-10-15T08:54:32Z</time>
      </trkpt>
      <trkpt lat="37.771559000" lon="-3.922783000">
        <ele>600.1</ele>
        <time>2020-10-15T08:54:34Z</time>
      </trkpt>
      <trkpt lat="37.771603000" lon="-3.922920000">
        <ele>599.9</ele>
        <time>2020-10-15T08:54:36Z</time>
      </trkpt>
      <trkpt lat="37.771645000" lon="-3.923056000">
        <ele>599.8</ele>
        <time>2020-10-15T08:54:38Z</time>
      </trkpt>
      <trkpt lat="37.771690000" lon="-3.923197000">
        <ele>599.7</ele>
        <time>2020-10-15T08:54:40Z</time>
      </trkpt>
      <trkpt lat="37.771737000" lon="-3.923335000">
        <ele>599.6</ele>
        <time>2020-10-15T08:54:42Z</time>
      </trkpt>
      <trkpt lat="37.771773000" lon="-3.923475000">
        <ele>599.5</ele>
        <time>2020-10-15T08:54:44Z</time>
      </trkpt>
      <trkpt lat="37.771798000" lon="-3.923619000">
        <ele>599.4</ele>
        <time>2020-10-15T08:54:46Z</time>
      </trkpt>
      <trkpt lat="37.771821000" lon="-3.923759000">
        <ele>599.3</ele>
        <time>2020-10-15T08:54:48Z</time>
      </trkpt>
      <trkpt lat="37.771841000" lon="-3.923888000">
        <ele>599.3</ele>
        <time>2020-10-15T08:54:50Z</time>
      </trkpt>
      <trkpt lat="37.771865000" lon="-3.924015000">
        <ele>599.5</ele>
        <time>2020-10-15T08:54:52Z</time>
      </trkpt>
      <trkpt lat="37.771880000" lon="-3.924145000">
        <ele>599.9</ele>
        <time>2020-10-15T08:54:54Z</time>
      </trkpt>
      <trkpt lat="37.771896000" lon="-3.924267000">
        <ele>600.5</ele>
        <time>2020-10-15T08:54:56Z</time>
      </trkpt>
      <trkpt lat="37.771906000" lon="-3.924394000">
        <ele>601.1</ele>
        <time>2020-10-15T08:54:58Z</time>
      </trkpt>
      <trkpt lat="37.771911000" lon="-3.924521000">
        <ele>601.6</ele>
        <time>2020-10-15T08:55:00Z</time>
      </trkpt>
      <trkpt lat="37.771922000" lon="-3.924646000">
        <ele>602.0</ele>
        <time>2020-10-15T08:55:02Z</time>
      </trkpt>
      <trkpt lat="37.771934000" lon="-3.924773000">
        <ele>602.3</ele>
        <time>2020-10-15T08:55:04Z</time>
      </trkpt>
      <trkpt lat="37.771936000" lon="-3.924902000">
        <ele>602.5</ele>
        <time>2020-10-15T08:55:06Z</time>
      </trkpt>
      <trkpt lat="37.771934000" lon="-3.925031000">
        <ele>602.5</ele>
        <time>2020-10-15T08:55:08Z</time>
      </trkpt>
      <trkpt lat="37.771924000" lon="-3.925157000">
        <ele>602.4</ele>
        <time>2020-10-15T08:55:10Z</time>
      </trkpt>
      <trkpt lat="37.771914000" lon="-3.925291000">
        <ele>602.0</ele>
        <time>2020-10-15T08:55:12Z</time>
      </trkpt>
      <trkpt lat="37.771898000" lon="-3.925426000">
        <ele>601.5</ele>
        <time>2020-10-15T08:55:14Z</time>
      </trkpt>
      <trkpt lat="37.771879000" lon="-3.925563000">
        <ele>601.2</ele>
        <time>2020-10-15T08:55:16Z</time>
      </trkpt>
      <trkpt lat="37.771864000" lon="-3.925699000">
        <ele>600.7</ele>
        <time>2020-10-15T08:55:18Z</time>
      </trkpt>
      <trkpt lat="37.771845000" lon="-3.925835000">
        <ele>600.5</ele>
        <time>2020-10-15T08:55:20Z</time>
      </trkpt>
      <trkpt lat="37.771830000" lon="-3.925975000">
        <ele>600.3</ele>
        <time>2020-10-15T08:55:22Z</time>
      </trkpt>
      <trkpt lat="37.771815000" lon="-3.926110000">
        <ele>600.4</ele>
        <time>2020-10-15T08:55:24Z</time>
      </trkpt>
      <trkpt lat="37.771789000" lon="-3.926249000">
        <ele>600.6</ele>
        <time>2020-10-15T08:55:26Z</time>
      </trkpt>
      <trkpt lat="37.771767000" lon="-3.926380000">
        <ele>601.2</ele>
        <time>2020-10-15T08:55:28Z</time>
      </trkpt>
      <trkpt lat="37.771738000" lon="-3.926518000">
        <ele>602.1</ele>
        <time>2020-10-15T08:55:30Z</time>
      </trkpt>
      <trkpt lat="37.771709000" lon="-3.926657000">
        <ele>603.1</ele>
        <time>2020-10-15T08:55:32Z</time>
      </trkpt>
      <trkpt lat="37.771684000" lon="-3.926792000">
        <ele>604.1</ele>
        <time>2020-10-15T08:55:34Z</time>
      </trkpt>
      <trkpt lat="37.771658000" lon="-3.926926000">
        <ele>605.0</ele>
        <time>2020-10-15T08:55:36Z</time>
      </trkpt>
      <trkpt lat="37.771633000" lon="-3.927057000">
        <ele>605.6</ele>
        <time>2020-10-15T08:55:38Z</time>
      </trkpt>
      <trkpt lat="37.771613000" lon="-3.927193000">
        <ele>606.1</ele>
        <time>2020-10-15T08:55:40Z</time>
      </trkpt>
      <trkpt lat="37.771595000" lon="-3.927327000">
        <ele>606.3</ele>
        <time>2020-10-15T08:55:42Z</time>
      </trkpt>
      <trkpt lat="37.771576000" lon="-3.927465000">
        <ele>606.3</ele>
        <time>2020-10-15T08:55:44Z</time>
      </trkpt>
      <trkpt lat="37.771558000" lon="-3.927604000">
        <ele>606.1</ele>
        <time>2020-10-15T08:55:46Z</time>
      </trkpt>
      <trkpt lat="37.771542000" lon="-3.927744000">
        <ele>605.7</ele>
        <time>2020-10-15T08:55:48Z</time>
      </trkpt>
      <trkpt lat="37.771520000" lon="-3.927884000">
        <ele>605.1</ele>
        <time>2020-10-15T08:55:50Z</time>
      </trkpt>
      <trkpt lat="37.771498000" lon="-3.928031000">
        <ele>604.2</ele>
        <time>2020-10-15T08:55:52Z</time>
      </trkpt>
      <trkpt lat="37.771480000" lon="-3.928180000">
        <ele>603.1</ele>
        <time>2020-10-15T08:55:54Z</time>
      </trkpt>
      <trkpt lat="37.771465000" lon="-3.928331000">
        <ele>602.1</ele>
        <time>2020-10-15T08:55:56Z</time>
      </trkpt>
      <trkpt lat="37.771452000" lon="-3.928480000">
        <ele>601.2</ele>
        <time>2020-10-15T08:55:58Z</time>
      </trkpt>
      <trkpt lat="37.771441000" lon="-3.928617000">
        <ele>600.4</ele>
        <time>2020-10-15T08:56:00Z</time>
      </trkpt>
      <trkpt lat="37.771440000" lon="-3.928750000">
        <ele>599.7</ele>
        <time>2020-10-15T08:56:02Z</time>
      </trkpt>
      <trkpt lat="37.771435000" lon="-3.928877000">
        <ele>599.1</ele>
        <time>2020-10-15T08:56:04Z</time>
      </trkpt>
      <trkpt lat="37.771426000" lon="-3.929006000">
        <ele>598.5</ele>
        <time>2020-10-15T08:56:06Z</time>
      </trkpt>
      <trkpt lat="37.771424000" lon="-3.929128000">
        <ele>598.0</ele>
        <time>2020-10-15T08:56:08Z</time>
      </trkpt>
      <trkpt lat="37.771419000" lon="-3.929239000">
        <ele>597.5</ele>
        <time>2020-10-15T08:56:10Z</time>
      </trkpt>
      <trkpt lat="37.771433000" lon="-3.929359000">
        <ele>597.2</ele>
        <time>2020-10-15T08:56:13Z</time>
      </trkpt>
      <trkpt lat="37.771435000" lon="-3.929482000">
        <ele>597.1</ele>
        <time>2020-10-15T08:56:16Z</time>
      </trkpt>
      <trkpt lat="37.771442000" lon="-3.929624000">
        <ele>597.3</ele>
        <time>2020-10-15T08:56:19Z</time>
      </trkpt>
      <trkpt lat="37.771447000" lon="-3.929759000">
        <ele>597.5</ele>
        <time>2020-10-15T08:56:22Z</time>
      </trkpt>
      <trkpt lat="37.771454000" lon="-3.929898000">
        <ele>597.9</ele>
        <time>2020-10-15T08:56:25Z</time>
      </trkpt>
      <trkpt lat="37.771455000" lon="-3.930038000">
        <ele>598.4</ele>
        <time>2020-10-15T08:56:28Z</time>
      </trkpt>
      <trkpt lat="37.771461000" lon="-3.930185000">
        <ele>598.8</ele>
        <time>2020-10-15T08:56:31Z</time>
      </trkpt>
      <trkpt lat="37.771462000" lon="-3.930318000">
        <ele>599.4</ele>
        <time>2020-10-15T08:56:34Z</time>
      </trkpt>
      <trkpt lat="37.771478000" lon="-3.930439000">
        <ele>599.8</ele>
        <time>2020-10-15T08:56:37Z</time>
      </trkpt>
      <trkpt lat="37.771487000" lon="-3.930577000">
        <ele>600.2</ele>
        <time>2020-10-15T08:56:40Z</time>
      </trkpt>
      <trkpt lat="37.771498000" lon="-3.930727000">
        <ele>600.5</ele>
        <time>2020-10-15T08:56:43Z</time>
      </trkpt>
      <trkpt lat="37.771502000" lon="-3.930872000">
        <ele>600.6</ele>
        <time>2020-10-15T08:56:46Z</time>
      </trkpt>
      <trkpt lat="37.771505000" lon="-3.931025000">
        <ele>600.6</ele>
        <time>2020-10-15T08:56:49Z</time>
      </trkpt>
      <trkpt lat="37.771500000" lon="-3.931134000">
        <ele>600.5</ele>
        <time>2020-10-15T08:56:51Z</time>
      </trkpt>
      <trkpt lat="37.771495000" lon="-3.931245000">
        <ele>600.4</ele>
        <time>2020-10-15T08:56:53Z</time>
      </trkpt>
      <trkpt lat="37.771488000" lon="-3.931354000">
        <ele>600.1</ele>
        <time>2020-10-15T08:56:55Z</time>
      </trkpt>
      <trkpt lat="37.771476000" lon="-3.931463000">
        <ele>599.7</ele>
        <time>2020-10-15T08:56:57Z</time>
      </trkpt>
      <trkpt lat="37.771468000" lon="-3.931572000">
        <ele>599.4</ele>
        <time>2020-10-15T08:56:59Z</time>
      </trkpt>
      <trkpt lat="37.771460000" lon="-3.931688000">
        <ele>599.0</ele>
        <time>2020-10-15T08:57:01Z</time>
      </trkpt>
      <trkpt lat="37.771443000" lon="-3.931791000">
        <ele>598.8</ele>
        <time>2020-10-15T08:57:03Z</time>
      </trkpt>
      <trkpt lat="37.771419000" lon="-3.931896000">
        <ele>598.7</ele>
        <time>2020-10-15T08:57:05Z</time>
      </trkpt>
      <trkpt lat="37.771398000" lon="-3.931997000">
        <ele>598.8</ele>
        <time>2020-10-15T08:57:07Z</time>
      </trkpt>
      <trkpt lat="37.771375000" lon="-3.932104000">
        <ele>598.9</ele>
        <time>2020-10-15T08:57:09Z</time>
      </trkpt>
      <trkpt lat="37.771353000" lon="-3.932209000">
        <ele>599.0</ele>
        <time>2020-10-15T08:57:11Z</time>
      </trkpt>
      <trkpt lat="37.771332000" lon="-3.932316000">
        <ele>599.1</ele>
        <time>2020-10-15T08:57:13Z</time>
      </trkpt>
      <trkpt lat="37.771308000" lon="-3.932424000">
        <ele>599.1</ele>
        <time>2020-10-15T08:57:15Z</time>
      </trkpt>
      <trkpt lat="37.771274000" lon="-3.932524000">
        <ele>599.1</ele>
        <time>2020-10-15T08:57:17Z</time>
      </trkpt>
      <trkpt lat="37.771252000" lon="-3.932630000">
        <ele>599.2</ele>
        <time>2020-10-15T08:57:19Z</time>
      </trkpt>
      <trkpt lat="37.771230000" lon="-3.932733000">
        <ele>599.4</ele>
        <time>2020-10-15T08:57:21Z</time>
      </trkpt>
      <trkpt lat="37.771203000" lon="-3.932830000">
        <ele>599.6</ele>
        <time>2020-10-15T08:57:23Z</time>
      </trkpt>
      <trkpt lat="37.771171000" lon="-3.932982000">
        <ele>599.8</ele>
        <time>2020-10-15T08:57:26Z</time>
      </trkpt>
      <trkpt lat="37.771144000" lon="-3.933089000">
        <ele>600.0</ele>
        <time>2020-10-15T08:57:28Z</time>
      </trkpt>
      <trkpt lat="37.771114000" lon="-3.933194000">
        <ele>600.1</ele>
        <time>2020-10-15T08:57:30Z</time>
      </trkpt>
      <trkpt lat="37.771085000" lon="-3.933294000">
        <ele>600.2</ele>
        <time>2020-10-15T08:57:32Z</time>
      </trkpt>
      <trkpt lat="37.771059000" lon="-3.933398000">
        <ele>600.4</ele>
        <time>2020-10-15T08:57:34Z</time>
      </trkpt>
      <trkpt lat="37.771032000" lon="-3.933507000">
        <ele>600.5</ele>
        <time>2020-10-15T08:57:36Z</time>
      </trkpt>
      <trkpt lat="37.771002000" lon="-3.933616000">
        <ele>600.9</ele>
        <time>2020-10-15T08:57:38Z</time>
      </trkpt>
      <trkpt lat="37.770974000" lon="-3.933726000">
        <ele>601.3</ele>
        <time>2020-10-15T08:57:40Z</time>
      </trkpt>
      <trkpt lat="37.770944000" lon="-3.933835000">
        <ele>601.6</ele>
        <time>2020-10-15T08:57:42Z</time>
      </trkpt>
      <trkpt lat="37.770919000" lon="-3.933946000">
        <ele>601.8</ele>
        <time>2020-10-15T08:57:44Z</time>
      </trkpt>
      <trkpt lat="37.770890000" lon="-3.934055000">
        <ele>601.9</ele>
        <time>2020-10-15T08:57:46Z</time>
      </trkpt>
      <trkpt lat="37.770859000" lon="-3.934163000">
        <ele>601.9</ele>
        <time>2020-10-15T08:57:48Z</time>
      </trkpt>
      <trkpt lat="37.770836000" lon="-3.934272000">
        <ele>601.9</ele>
        <time>2020-10-15T08:57:50Z</time>
      </trkpt>
      <trkpt lat="37.770805000" lon="-3.934378000">
        <ele>601.9</ele>
        <time>2020-10-15T08:57:52Z</time>
      </trkpt>
      <trkpt lat="37.770778000" lon="-3.934488000">
        <ele>601.9</ele>
        <time>2020-10-15T08:57:54Z</time>
      </trkpt>
      <trkpt lat="37.770747000" lon="-3.934593000">
        <ele>601.8</ele>
        <time>2020-10-15T08:57:56Z</time>
      </trkpt>
      <trkpt lat="37.770717000" lon="-3.934693000">
        <ele>601.7</ele>
        <time>2020-10-15T08:57:58Z</time>
      </trkpt>
      <trkpt lat="37.770685000" lon="-3.934839000">
        <ele>601.5</ele>
        <time>2020-10-15T08:58:01Z</time>
      </trkpt>
      <trkpt lat="37.770651000" lon="-3.934985000">
        <ele>601.4</ele>
        <time>2020-10-15T08:58:04Z</time>
      </trkpt>
      <trkpt lat="37.770630000" lon="-3.935086000">
        <ele>601.3</ele>
        <time>2020-10-15T08:58:06Z</time>
      </trkpt>
      <trkpt lat="37.770605000" lon="-3.935186000">
        <ele>601.4</ele>
        <time>2020-10-15T08:58:08Z</time>
      </trkpt>
      <trkpt lat="37.770574000" lon="-3.935331000">
        <ele>601.5</ele>
        <time>2020-10-15T08:58:11Z</time>
      </trkpt>
      <trkpt lat="37.770554000" lon="-3.935473000">
        <ele>601.7</ele>
        <time>2020-10-15T08:58:14Z</time>
      </trkpt>
      <trkpt lat="37.770538000" lon="-3.935623000">
        <ele>602.1</ele>
        <time>2020-10-15T08:58:17Z</time>
      </trkpt>
      <trkpt lat="37.770527000" lon="-3.935728000">
        <ele>602.5</ele>
        <time>2020-10-15T08:58:19Z</time>
      </trkpt>
      <trkpt lat="37.770521000" lon="-3.935835000">
        <ele>603.1</ele>
        <time>2020-10-15T08:58:21Z</time>
      </trkpt>
      <trkpt lat="37.770513000" lon="-3.935938000">
        <ele>603.7</ele>
        <time>2020-10-15T08:58:23Z</time>
      </trkpt>
      <trkpt lat="37.770511000" lon="-3.936043000">
        <ele>604.4</ele>
        <time>2020-10-15T08:58:25Z</time>
      </trkpt>
      <trkpt lat="37.770509000" lon="-3.936152000">
        <ele>605.0</ele>
        <time>2020-10-15T08:58:27Z</time>
      </trkpt>
      <trkpt lat="37.770505000" lon="-3.936262000">
        <ele>605.7</ele>
        <time>2020-10-15T08:58:29Z</time>
      </trkpt>
      <trkpt lat="37.770500000" lon="-3.936372000">
        <ele>606.4</ele>
        <time>2020-10-15T08:58:31Z</time>
      </trkpt>
      <trkpt lat="37.770497000" lon="-3.936480000">
        <ele>606.9</ele>
        <time>2020-10-15T08:58:33Z</time>
      </trkpt>
      <trkpt lat="37.770492000" lon="-3.936595000">
        <ele>607.5</ele>
        <time>2020-10-15T08:58:35Z</time>
      </trkpt>
      <trkpt lat="37.770484000" lon="-3.936710000">
        <ele>608.0</ele>
        <time>2020-10-15T08:58:37Z</time>
      </trkpt>
      <trkpt lat="37.770476000" lon="-3.936823000">
        <ele>608.5</ele>
        <time>2020-10-15T08:58:39Z</time>
      </trkpt>
      <trkpt lat="37.770459000" lon="-3.936931000">
        <ele>608.9</ele>
        <time>2020-10-15T08:58:41Z</time>
      </trkpt>
      <trkpt lat="37.770444000" lon="-3.937043000">
        <ele>609.2</ele>
        <time>2020-10-15T08:58:43Z</time>
      </trkpt>
      <trkpt lat="37.770425000" lon="-3.937155000">
        <ele>609.4</ele>
        <time>2020-10-15T08:58:45Z</time>
      </trkpt>
      <trkpt lat="37.770400000" lon="-3.937267000">
        <ele>609.5</ele>
        <time>2020-10-15T08:58:47Z</time>
      </trkpt>
      <trkpt lat="37.770371000" lon="-3.937378000">
        <ele>609.8</ele>
        <time>2020-10-15T08:58:49Z</time>
      </trkpt>
      <trkpt lat="37.770338000" lon="-3.937487000">
        <ele>610.0</ele>
        <time>2020-10-15T08:58:51Z</time>
      </trkpt>
      <trkpt lat="37.770311000" lon="-3.937588000">
        <ele>610.2</ele>
        <time>2020-10-15T08:58:53Z</time>
      </trkpt>
      <trkpt lat="37.770277000" lon="-3.937687000">
        <ele>610.4</ele>
        <time>2020-10-15T08:58:55Z</time>
      </trkpt>
      <trkpt lat="37.770245000" lon="-3.937785000">
        <ele>610.5</ele>
        <time>2020-10-15T08:58:57Z</time>
      </trkpt>
      <trkpt lat="37.770206000" lon="-3.937883000">
        <ele>610.5</ele>
        <time>2020-10-15T08:58:59Z</time>
      </trkpt>
      <trkpt lat="37.770165000" lon="-3.937981000">
        <ele>610.5</ele>
        <time>2020-10-15T08:59:01Z</time>
      </trkpt>
      <trkpt lat="37.770123000" lon="-3.938081000">
        <ele>610.4</ele>
        <time>2020-10-15T08:59:03Z</time>
      </trkpt>
      <trkpt lat="37.770070000" lon="-3.938178000">
        <ele>610.3</ele>
        <time>2020-10-15T08:59:05Z</time>
      </trkpt>
      <trkpt lat="37.770020000" lon="-3.938273000">
        <ele>610.1</ele>
        <time>2020-10-15T08:59:07Z</time>
      </trkpt>
      <trkpt lat="37.769968000" lon="-3.938361000">
        <ele>609.9</ele>
        <time>2020-10-15T08:59:09Z</time>
      </trkpt>
      <trkpt lat="37.769911000" lon="-3.938449000">
        <ele>609.6</ele>
        <time>2020-10-15T08:59:11Z</time>
      </trkpt>
      <trkpt lat="37.769855000" lon="-3.938538000">
        <ele>609.5</ele>
        <time>2020-10-15T08:59:13Z</time>
      </trkpt>
      <trkpt lat="37.769795000" lon="-3.938626000">
        <ele>609.3</ele>
        <time>2020-10-15T08:59:15Z</time>
      </trkpt>
      <trkpt lat="37.769728000" lon="-3.938711000">
        <ele>609.1</ele>
        <time>2020-10-15T08:59:17Z</time>
      </trkpt>
      <trkpt lat="37.769657000" lon="-3.938791000">
        <ele>609.0</ele>
        <time>2020-10-15T08:59:19Z</time>
      </trkpt>
      <trkpt lat="37.769588000" lon="-3.938867000">
        <ele>608.8</ele>
        <time>2020-10-15T08:59:21Z</time>
      </trkpt>
      <trkpt lat="37.769517000" lon="-3.938946000">
        <ele>608.5</ele>
        <time>2020-10-15T08:59:23Z</time>
      </trkpt>
      <trkpt lat="37.769450000" lon="-3.939019000">
        <ele>608.3</ele>
        <time>2020-10-15T08:59:25Z</time>
      </trkpt>
      <trkpt lat="37.769385000" lon="-3.939107000">
        <ele>608.0</ele>
        <time>2020-10-15T08:59:27Z</time>
      </trkpt>
      <trkpt lat="37.769317000" lon="-3.939193000">
        <ele>607.8</ele>
        <time>2020-10-15T08:59:29Z</time>
      </trkpt>
      <trkpt lat="37.769243000" lon="-3.939280000">
        <ele>607.6</ele>
        <time>2020-10-15T08:59:31Z</time>
      </trkpt>
      <trkpt lat="37.769166000" lon="-3.939354000">
        <ele>607.4</ele>
        <time>2020-10-15T08:59:33Z</time>
      </trkpt>
      <trkpt lat="37.769090000" lon="-3.939420000">
        <ele>607.0</ele>
        <time>2020-10-15T08:59:35Z</time>
      </trkpt>
      <trkpt lat="37.769016000" lon="-3.939473000">
        <ele>606.5</ele>
        <time>2020-10-15T08:59:37Z</time>
      </trkpt>
      <trkpt lat="37.768944000" lon="-3.939528000">
        <ele>606.1</ele>
        <time>2020-10-15T08:59:39Z</time>
      </trkpt>
      <trkpt lat="37.768868000" lon="-3.939572000">
        <ele>605.6</ele>
        <time>2020-10-15T08:59:41Z</time>
      </trkpt>
      <trkpt lat="37.768789000" lon="-3.939620000">
        <ele>605.4</ele>
        <time>2020-10-15T08:59:43Z</time>
      </trkpt>
      <trkpt lat="37.768710000" lon="-3.939663000">
        <ele>605.3</ele>
        <time>2020-10-15T08:59:45Z</time>
      </trkpt>
      <trkpt lat="37.768628000" lon="-3.939704000">
        <ele>605.3</ele>
        <time>2020-10-15T08:59:47Z</time>
      </trkpt>
      <trkpt lat="37.768542000" lon="-3.939738000">
        <ele>605.5</ele>
        <time>2020-10-15T08:59:49Z</time>
      </trkpt>
      <trkpt lat="37.768458000" lon="-3.939776000">
        <ele>605.7</ele>
        <time>2020-10-15T08:59:51Z</time>
      </trkpt>
      <trkpt lat="37.768375000" lon="-3.939811000">
        <ele>606.0</ele>
        <time>2020-10-15T08:59:53Z</time>
      </trkpt>
      <trkpt lat="37.768288000" lon="-3.939844000">
        <ele>606.5</ele>
        <time>2020-10-15T08:59:55Z</time>
      </trkpt>
      <trkpt lat="37.768204000" lon="-3.939877000">
        <ele>607.0</ele>
        <time>2020-10-15T08:59:57Z</time>
      </trkpt>
      <trkpt lat="37.768118000" lon="-3.939908000">
        <ele>607.6</ele>
        <time>2020-10-15T08:59:59Z</time>
      </trkpt>
      <trkpt lat="37.768036000" lon="-3.939940000">
        <ele>608.3</ele>
        <time>2020-10-15T09:00:01Z</time>
      </trkpt>
      <trkpt lat="37.767953000" lon="-3.939967000">
        <ele>609.0</ele>
        <time>2020-10-15T09:00:03Z</time>
      </trkpt>
      <trkpt lat="37.767839000" lon="-3.940007000">
        <ele>609.7</ele>
        <time>2020-10-15T09:00:06Z</time>
      </trkpt>
      <trkpt lat="37.767732000" lon="-3.940043000">
        <ele>610.5</ele>
        <time>2020-10-15T09:00:09Z</time>
      </trkpt>
      <trkpt lat="37.767623000" lon="-3.940073000">
        <ele>611.4</ele>
        <time>2020-10-15T09:00:12Z</time>
      </trkpt>
      <trkpt lat="37.767519000" lon="-3.940121000">
        <ele>612.2</ele>
        <time>2020-10-15T09:00:15Z</time>
      </trkpt>
      <trkpt lat="37.767409000" lon="-3.940158000">
        <ele>613.1</ele>
        <time>2020-10-15T09:00:18Z</time>
      </trkpt>
      <trkpt lat="37.767292000" lon="-3.940192000">
        <ele>614.2</ele>
        <time>2020-10-15T09:00:21Z</time>
      </trkpt>
      <trkpt lat="37.767173000" lon="-3.940214000">
        <ele>615.1</ele>
        <time>2020-10-15T09:00:24Z</time>
      </trkpt>
      <trkpt lat="37.767056000" lon="-3.940231000">
        <ele>615.9</ele>
        <time>2020-10-15T09:00:27Z</time>
      </trkpt>
      <trkpt lat="37.766939000" lon="-3.940251000">
        <ele>616.6</ele>
        <time>2020-10-15T09:00:30Z</time>
      </trkpt>
      <trkpt lat="37.766839000" lon="-3.940263000">
        <ele>617.3</ele>
        <time>2020-10-15T09:00:33Z</time>
      </trkpt>
      <trkpt lat="37.765423000" lon="-3.940710000">
        <ele>617.8</ele>
        <time>2020-10-15T09:01:10Z</time>
      </trkpt>
      <trkpt lat="37.765339000" lon="-3.940738000">
        <ele>618.2</ele>
        <time>2020-10-15T09:01:12Z</time>
      </trkpt>
      <trkpt lat="37.765252000" lon="-3.940779000">
        <ele>618.4</ele>
        <time>2020-10-15T09:01:14Z</time>
      </trkpt>
      <trkpt lat="37.765153000" lon="-3.940859000">
        <ele>618.4</ele>
        <time>2020-10-15T09:01:17Z</time>
      </trkpt>
      <trkpt lat="37.765054000" lon="-3.940905000">
        <ele>618.4</ele>
        <time>2020-10-15T09:01:19Z</time>
      </trkpt>
      <trkpt lat="37.764981000" lon="-3.940959000">
        <ele>618.2</ele>
        <time>2020-10-15T09:01:21Z</time>
      </trkpt>
      <trkpt lat="37.764883000" lon="-3.941042000">
        <ele>617.9</ele>
        <time>2020-10-15T09:01:24Z</time>
      </trkpt>
      <trkpt lat="37.764814000" lon="-3.941102000">
        <ele>617.8</ele>
        <time>2020-10-15T09:01:26Z</time>
      </trkpt>
      <trkpt lat="37.764741000" lon="-3.941166000">
        <ele>617.8</ele>
        <time>2020-10-15T09:01:28Z</time>
      </trkpt>
      <trkpt lat="37.764672000" lon="-3.941235000">
        <ele>617.9</ele>
        <time>2020-10-15T09:01:30Z</time>
      </trkpt>
      <trkpt lat="37.764610000" lon="-3.941306000">
        <ele>618.1</ele>
        <time>2020-10-15T09:01:32Z</time>
      </trkpt>
      <trkpt lat="37.764521000" lon="-3.941406000">
        <ele>618.3</ele>
        <time>2020-10-15T09:01:35Z</time>
      </trkpt>
      <trkpt lat="37.764438000" lon="-3.941514000">
        <ele>618.5</ele>
        <time>2020-10-15T09:01:38Z</time>
      </trkpt>
      <trkpt lat="37.764384000" lon="-3.941592000">
        <ele>618.8</ele>
        <time>2020-10-15T09:01:40Z</time>
      </trkpt>
      <trkpt lat="37.764326000" lon="-3.941664000">
        <ele>619.2</ele>
        <time>2020-10-15T09:01:42Z</time>
      </trkpt>
      <trkpt lat="37.764244000" lon="-3.941778000">
        <ele>619.5</ele>
        <time>2020-10-15T09:01:45Z</time>
      </trkpt>
      <trkpt lat="37.764187000" lon="-3.941855000">
        <ele>619.7</ele>
        <time>2020-10-15T09:01:47Z</time>
      </trkpt>
      <trkpt lat="37.764132000" lon="-3.941936000">
        <ele>619.9</ele>
        <time>2020-10-15T09:01:49Z</time>
      </trkpt>
      <trkpt lat="37.764074000" lon="-3.942015000">
        <ele>620.2</ele>
        <time>2020-10-15T09:01:51Z</time>
      </trkpt>
      <trkpt lat="37.764020000" lon="-3.942095000">
        <ele>620.4</ele>
        <time>2020-10-15T09:01:53Z</time>
      </trkpt>
      <trkpt lat="37.763971000" lon="-3.942177000">
        <ele>620.6</ele>
        <time>2020-10-15T09:01:55Z</time>
      </trkpt>
      <trkpt lat="37.763894000" lon="-3.942292000">
        <ele>621.0</ele>
        <time>2020-10-15T09:01:58Z</time>
      </trkpt>
      <trkpt lat="37.763818000" lon="-3.942404000">
        <ele>621.5</ele>
        <time>2020-10-15T09:02:01Z</time>
      </trkpt>
      <trkpt lat="37.763746000" lon="-3.942516000">
        <ele>622.0</ele>
        <time>2020-10-15T09:02:04Z</time>
      </trkpt>
      <trkpt lat="37.763666000" lon="-3.942623000">
        <ele>622.6</ele>
        <time>2020-10-15T09:02:07Z</time>
      </trkpt>
      <trkpt lat="37.763591000" lon="-3.942720000">
        <ele>623.3</ele>
        <time>2020-10-15T09:02:10Z</time>
      </trkpt>
      <trkpt lat="37.763513000" lon="-3.942820000">
        <ele>623.9</ele>
        <time>2020-10-15T09:02:13Z</time>
      </trkpt>
      <trkpt lat="37.763424000" lon="-3.942910000">
        <ele>624.5</ele>
        <time>2020-10-15T09:02:16Z</time>
      </trkpt>
      <trkpt lat="37.763327000" lon="-3.943003000">
        <ele>624.9</ele>
        <time>2020-10-15T09:02:19Z</time>
      </trkpt>
      <trkpt lat="37.763252000" lon="-3.943061000">
        <ele>625.1</ele>
        <time>2020-10-15T09:02:21Z</time>
      </trkpt>
      <trkpt lat="37.763177000" lon="-3.943122000">
        <ele>625.2</ele>
        <time>2020-10-15T09:02:23Z</time>
      </trkpt>
      <trkpt lat="37.763095000" lon="-3.943185000">
        <ele>625.1</ele>
        <time>2020-10-15T09:02:25Z</time>
      </trkpt>
      <trkpt lat="37.763001000" lon="-3.943223000">
        <ele>624.8</ele>
        <time>2020-10-15T09:02:27Z</time>
      </trkpt>
      <trkpt lat="37.762913000" lon="-3.943272000">
        <ele>624.4</ele>
        <time>2020-10-15T09:02:29Z</time>
      </trkpt>
      <trkpt lat="37.762820000" lon="-3.943322000">
        <ele>623.8</ele>
        <time>2020-10-15T09:02:31Z</time>
      </trkpt>
      <trkpt lat="37.762733000" lon="-3.943362000">
        <ele>623.3</ele>
        <time>2020-10-15T09:02:33Z</time>
      </trkpt>
      <trkpt lat="37.762640000" lon="-3.943402000">
        <ele>622.7</ele>
        <time>2020-10-15T09:02:35Z</time>
      </trkpt>
      <trkpt lat="37.762556000" lon="-3.943458000">
        <ele>622.3</ele>
        <time>2020-10-15T09:02:37Z</time>
      </trkpt>
      <trkpt lat="37.762467000" lon="-3.943518000">
        <ele>622.0</ele>
        <time>2020-10-15T09:02:39Z</time>
      </trkpt>
      <trkpt lat="37.762379000" lon="-3.943579000">
        <ele>621.9</ele>
        <time>2020-10-15T09:02:41Z</time>
      </trkpt>
      <trkpt lat="37.762288000" lon="-3.943642000">
        <ele>621.9</ele>
        <time>2020-10-15T09:02:43Z</time>
      </trkpt>
      <trkpt lat="37.762202000" lon="-3.943699000">
        <ele>621.9</ele>
        <time>2020-10-15T09:02:45Z</time>
      </trkpt>
      <trkpt lat="37.762114000" lon="-3.943759000">
        <ele>622.0</ele>
        <time>2020-10-15T09:02:47Z</time>
      </trkpt>
      <trkpt lat="37.762024000" lon="-3.943815000">
        <ele>622.1</ele>
        <time>2020-10-15T09:02:49Z</time>
      </trkpt>
      <trkpt lat="37.761926000" lon="-3.943870000">
        <ele>622.3</ele>
        <time>2020-10-15T09:02:51Z</time>
      </trkpt>
      <trkpt lat="37.761834000" lon="-3.943932000">
        <ele>622.5</ele>
        <time>2020-10-15T09:02:53Z</time>
      </trkpt>
      <trkpt lat="37.761741000" lon="-3.943989000">
        <ele>622.5</ele>
        <time>2020-10-15T09:02:55Z</time>
      </trkpt>
      <trkpt lat="37.761647000" lon="-3.944054000">
        <ele>622.6</ele>
        <time>2020-10-15T09:02:57Z</time>
      </trkpt>
      <trkpt lat="37.761553000" lon="-3.944128000">
        <ele>622.6</ele>
        <time>2020-10-15T09:02:59Z</time>
      </trkpt>
      <trkpt lat="37.761457000" lon="-3.944196000">
        <ele>622.5</ele>
        <time>2020-10-15T09:03:01Z</time>
      </trkpt>
      <trkpt lat="37.761360000" lon="-3.944270000">
        <ele>622.2</ele>
        <time>2020-10-15T09:03:03Z</time>
      </trkpt>
      <trkpt lat="37.761262000" lon="-3.944344000">
        <ele>621.9</ele>
        <time>2020-10-15T09:03:05Z</time>
      </trkpt>
      <trkpt lat="37.761162000" lon="-3.944414000">
        <ele>621.7</ele>
        <time>2020-10-15T09:03:07Z</time>
      </trkpt>
      <trkpt lat="37.761059000" lon="-3.944487000">
        <ele>621.5</ele>
        <time>2020-10-15T09:03:09Z</time>
      </trkpt>
      <trkpt lat="37.760959000" lon="-3.944567000">
        <ele>621.5</ele>
        <time>2020-10-15T09:03:11Z</time>
      </trkpt>
      <trkpt lat="37.760861000" lon="-3.944654000">
        <ele>621.4</ele>
        <time>2020-10-15T09:03:13Z</time>
      </trkpt>
      <trkpt lat="37.760772000" lon="-3.944748000">
        <ele>621.3</ele>
        <time>2020-10-15T09:03:15Z</time>
      </trkpt>
      <trkpt lat="37.760686000" lon="-3.944840000">
        <ele>621.2</ele>
        <time>2020-10-15T09:03:17Z</time>
      </trkpt>
      <trkpt lat="37.760594000" lon="-3.944929000">
        <ele>621.1</ele>
        <time>2020-10-15T09:03:19Z</time>
      </trkpt>
      <trkpt lat="37.760502000" lon="-3.945017000">
        <ele>621.0</ele>
        <time>2020-10-15T09:03:21Z</time>
      </trkpt>
      <trkpt lat="37.760405000" lon="-3.945097000">
        <ele>621.0</ele>
        <time>2020-10-15T09:03:23Z</time>
      </trkpt>
      <trkpt lat="37.760308000" lon="-3.945166000">
        <ele>620.9</ele>
        <time>2020-10-15T09:03:25Z</time>
      </trkpt>
      <trkpt lat="37.760206000" lon="-3.945229000">
        <ele>620.7</ele>
        <time>2020-10-15T09:03:27Z</time>
      </trkpt>
      <trkpt lat="37.760109000" lon="-3.945299000">
        <ele>620.5</ele>
        <time>2020-10-15T09:03:29Z</time>
      </trkpt>
      <trkpt lat="37.760015000" lon="-3.945370000">
        <ele>620.1</ele>
        <time>2020-10-15T09:03:31Z</time>
      </trkpt>
      <trkpt lat="37.759913000" lon="-3.945436000">
        <ele>619.7</ele>
        <time>2020-10-15T09:03:33Z</time>
      </trkpt>
      <trkpt lat="37.759807000" lon="-3.945502000">
        <ele>619.3</ele>
        <time>2020-10-15T09:03:35Z</time>
      </trkpt>
      <trkpt lat="37.759706000" lon="-3.945562000">
        <ele>618.7</ele>
        <time>2020-10-15T09:03:37Z</time>
      </trkpt>
      <trkpt lat="37.759597000" lon="-3.945609000">
        <ele>618.0</ele>
        <time>2020-10-15T09:03:39Z</time>
      </trkpt>
      <trkpt lat="37.759481000" lon="-3.945652000">
        <ele>617.2</ele>
        <time>2020-10-15T09:03:41Z</time>
      </trkpt>
      <trkpt lat="37.759370000" lon="-3.945693000">
        <ele>616.4</ele>
        <time>2020-10-15T09:03:43Z</time>
      </trkpt>
      <trkpt lat="37.759248000" lon="-3.945736000">
        <ele>615.5</ele>
        <time>2020-10-15T09:03:45Z</time>
      </trkpt>
      <trkpt lat="37.759126000" lon="-3.945771000">
        <ele>614.7</ele>
        <time>2020-10-15T09:03:47Z</time>
      </trkpt>
      <trkpt lat="37.759000000" lon="-3.945797000">
        <ele>614.0</ele>
        <time>2020-10-15T09:03:49Z</time>
      </trkpt>
      <trkpt lat="37.758875000" lon="-3.945826000">
        <ele>613.4</ele>
        <time>2020-10-15T09:03:51Z</time>
      </trkpt>
      <trkpt lat="37.758746000" lon="-3.945852000">
        <ele>612.8</ele>
        <time>2020-10-15T09:03:53Z</time>
      </trkpt>
      <trkpt lat="37.758618000" lon="-3.945883000">
        <ele>612.4</ele>
        <time>2020-10-15T09:03:55Z</time>
      </trkpt>
      <trkpt lat="37.758485000" lon="-3.945908000">
        <ele>612.1</ele>
        <time>2020-10-15T09:03:57Z</time>
      </trkpt>
      <trkpt lat="37.758348000" lon="-3.945939000">
        <ele>611.9</ele>
        <time>2020-10-15T09:03:59Z</time>
      </trkpt>
      <trkpt lat="37.758210000" lon="-3.945969000">
        <ele>611.9</ele>
        <time>2020-10-15T09:04:01Z</time>
      </trkpt>
      <trkpt lat="37.758068000" lon="-3.946002000">
        <ele>612.0</ele>
        <time>2020-10-15T09:04:03Z</time>
      </trkpt>
      <trkpt lat="37.757928000" lon="-3.946030000">
        <ele>612.1</ele>
        <time>2020-10-15T09:04:05Z</time>
      </trkpt>
      <trkpt lat="37.757790000" lon="-3.946062000">
        <ele>612.1</ele>
        <time>2020-10-15T09:04:07Z</time>
      </trkpt>
      <trkpt lat="37.757654000" lon="-3.946092000">
        <ele>612.2</ele>
        <time>2020-10-15T09:04:09Z</time>
      </trkpt>
      <trkpt lat="37.757520000" lon="-3.946119000">
        <ele>612.3</ele>
        <time>2020-10-15T09:04:11Z</time>
      </trkpt>
      <trkpt lat="37.757381000" lon="-3.946150000">
        <ele>612.4</ele>
        <time>2020-10-15T09:04:13Z</time>
      </trkpt>
      <trkpt lat="37.757247000" lon="-3.946180000">
        <ele>612.4</ele>
        <time>2020-10-15T09:04:15Z</time>
      </trkpt>
      <trkpt lat="37.757110000" lon="-3.946210000">
        <ele>612.2</ele>
        <time>2020-10-15T09:04:17Z</time>
      </trkpt>
      <trkpt lat="37.756976000" lon="-3.946248000">
        <ele>611.8</ele>
        <time>2020-10-15T09:04:19Z</time>
      </trkpt>
      <trkpt lat="37.756840000" lon="-3.946277000">
        <ele>611.4</ele>
        <time>2020-10-15T09:04:21Z</time>
      </trkpt>
      <trkpt lat="37.756706000" lon="-3.946312000">
        <ele>610.9</ele>
        <time>2020-10-15T09:04:23Z</time>
      </trkpt>
      <trkpt lat="37.756565000" lon="-3.946365000">
        <ele>610.5</ele>
        <time>2020-10-15T09:04:25Z</time>
      </trkpt>
      <trkpt lat="37.756432000" lon="-3.946430000">
        <ele>610.1</ele>
        <time>2020-10-15T09:04:27Z</time>
      </trkpt>
      <trkpt lat="37.756288000" lon="-3.946492000">
        <ele>609.8</ele>
        <time>2020-10-15T09:04:29Z</time>
      </trkpt>
      <trkpt lat="37.756150000" lon="-3.946563000">
        <ele>609.5</ele>
        <time>2020-10-15T09:04:31Z</time>
      </trkpt>
      <trkpt lat="37.756018000" lon="-3.946635000">
        <ele>609.4</ele>
        <time>2020-10-15T09:04:33Z</time>
      </trkpt>
      <trkpt lat="37.755886000" lon="-3.946711000">
        <ele>609.3</ele>
        <time>2020-10-15T09:04:35Z</time>
      </trkpt>
      <trkpt lat="37.755762000" lon="-3.946790000">
        <ele>609.4</ele>
        <time>2020-10-15T09:04:37Z</time>
      </trkpt>
      <trkpt lat="37.755641000" lon="-3.946881000">
        <ele>609.7</ele>
        <time>2020-10-15T09:04:39Z</time>
      </trkpt>
      <trkpt lat="37.755522000" lon="-3.946973000">
        <ele>610.3</ele>
        <time>2020-10-15T09:04:41Z</time>
      </trkpt>
      <trkpt lat="37.755405000" lon="-3.947078000">
        <ele>611.0</ele>
        <time>2020-10-15T09:04:43Z</time>
      </trkpt>
      <trkpt lat="37.755291000" lon="-3.947192000">
        <ele>611.7</ele>
        <time>2020-10-15T09:04:45Z</time>
      </trkpt>
      <trkpt lat="37.755185000" lon="-3.947305000">
        <ele>612.5</ele>
        <time>2020-10-15T09:04:47Z</time>
      </trkpt>
      <trkpt lat="37.755080000" lon="-3.947418000">
        <ele>613.1</ele>
        <time>2020-10-15T09:04:49Z</time>
      </trkpt>
      <trkpt lat="37.754985000" lon="-3.947536000">
        <ele>613.7</ele>
        <time>2020-10-15T09:04:51Z</time>
      </trkpt>
      <trkpt lat="37.754894000" lon="-3.947653000">
        <ele>614.3</ele>
        <time>2020-10-15T09:04:53Z</time>
      </trkpt>
      <trkpt lat="37.754807000" lon="-3.947778000">
        <ele>614.7</ele>
        <time>2020-10-15T09:04:55Z</time>
      </trkpt>
      <trkpt lat="37.754721000" lon="-3.947907000">
        <ele>615.1</ele>
        <time>2020-10-15T09:04:57Z</time>
      </trkpt>
      <trkpt lat="37.754638000" lon="-3.948035000">
        <ele>615.4</ele>
        <time>2020-10-15T09:04:59Z</time>
      </trkpt>
      <trkpt lat="37.754554000" lon="-3.948167000">
        <ele>615.4</ele>
        <time>2020-10-15T09:05:01Z</time>
      </trkpt>
      <trkpt lat="37.754482000" lon="-3.948318000">
        <ele>615.3</ele>
        <time>2020-10-15T09:05:03Z</time>
      </trkpt>
      <trkpt lat="37.754414000" lon="-3.948476000">
        <ele>615.0</ele>
        <time>2020-10-15T09:05:05Z</time>
      </trkpt>
      <trkpt lat="37.754345000" lon="-3.948633000">
        <ele>614.6</ele>
        <time>2020-10-15T09:05:07Z</time>
      </trkpt>
      <trkpt lat="37.754283000" lon="-3.948790000">
        <ele>614.1</ele>
        <time>2020-10-15T09:05:09Z</time>
      </trkpt>
      <trkpt lat="37.754217000" lon="-3.948953000">
        <ele>613.5</ele>
        <time>2020-10-15T09:05:11Z</time>
      </trkpt>
      <trkpt lat="37.754150000" lon="-3.949110000">
        <ele>612.7</ele>
        <time>2020-10-15T09:05:13Z</time>
      </trkpt>
      <trkpt lat="37.754087000" lon="-3.949270000">
        <ele>612.0</ele>
        <time>2020-10-15T09:05:15Z</time>
      </trkpt>
      <trkpt lat="37.754027000" lon="-3.949430000">
        <ele>611.2</ele>
        <time>2020-10-15T09:05:17Z</time>
      </trkpt>
      <trkpt lat="37.753967000" lon="-3.949584000">
        <ele>610.4</ele>
        <time>2020-10-15T09:05:19Z</time>
      </trkpt>
      <trkpt lat="37.753906000" lon="-3.949739000">
        <ele>609.5</ele>
        <time>2020-10-15T09:05:21Z</time>
      </trkpt>
      <trkpt lat="37.753850000" lon="-3.949893000">
        <ele>608.9</ele>
        <time>2020-10-15T09:05:23Z</time>
      </trkpt>
      <trkpt lat="37.753798000" lon="-3.950042000">
        <ele>608.4</ele>
        <time>2020-10-15T09:05:25Z</time>
      </trkpt>
      <trkpt lat="37.753751000" lon="-3.950191000">
        <ele>608.0</ele>
        <time>2020-10-15T09:05:27Z</time>
      </trkpt>
      <trkpt lat="37.753702000" lon="-3.950338000">
        <ele>607.7</ele>
        <time>2020-10-15T09:05:29Z</time>
      </trkpt>
      <trkpt lat="37.753652000" lon="-3.950479000">
        <ele>607.6</ele>
        <time>2020-10-15T09:05:31Z</time>
      </trkpt>
      <trkpt lat="37.753601000" lon="-3.950611000">
        <ele>607.6</ele>
        <time>2020-10-15T09:05:33Z</time>
      </trkpt>
      <trkpt lat="37.753565000" lon="-3.950731000">
        <ele>607.8</ele>
        <time>2020-10-15T09:05:35Z</time>
      </trkpt>
      <trkpt lat="37.753529000" lon="-3.950867000">
        <ele>608.2</ele>
        <time>2020-10-15T09:05:37Z</time>
      </trkpt>
      <trkpt lat="37.753506000" lon="-3.950991000">
        <ele>608.6</ele>
        <time>2020-10-15T09:05:39Z</time>
      </trkpt>
      <trkpt lat="37.753481000" lon="-3.951118000">
        <ele>609.2</ele>
        <time>2020-10-15T09:05:41Z</time>
      </trkpt>
      <trkpt lat="37.753459000" lon="-3.951237000">
        <ele>609.7</ele>
        <time>2020-10-15T09:05:43Z</time>
      </trkpt>
      <trkpt lat="37.753436000" lon="-3.951368000">
        <ele>610.3</ele>
        <time>2020-10-15T09:05:45Z</time>
      </trkpt>
      <trkpt lat="37.753413000" lon="-3.951515000">
        <ele>610.8</ele>
        <time>2020-10-15T09:05:47Z</time>
      </trkpt>
      <trkpt lat="37.753399000" lon="-3.951638000">
        <ele>611.4</ele>
        <time>2020-10-15T09:05:49Z</time>
      </trkpt>
      <trkpt lat="37.753386000" lon="-3.951746000">
        <ele>612.0</ele>
        <time>2020-10-15T09:05:51Z</time>
      </trkpt>
      <trkpt lat="37.753368000" lon="-3.951893000">
        <ele>612.7</ele>
        <time>2020-10-15T09:05:54Z</time>
      </trkpt>
      <trkpt lat="37.753355000" lon="-3.952000000">
        <ele>613.5</ele>
        <time>2020-10-15T09:05:56Z</time>
      </trkpt>
      <trkpt lat="37.753346000" lon="-3.952114000">
        <ele>614.2</ele>
        <time>2020-10-15T09:05:58Z</time>
      </trkpt>
      <trkpt lat="37.753341000" lon="-3.952220000">
        <ele>614.8</ele>
        <time>2020-10-15T09:06:00Z</time>
      </trkpt>
      <trkpt lat="37.753344000" lon="-3.952371000">
        <ele>615.5</ele>
        <time>2020-10-15T09:06:03Z</time>
      </trkpt>
      <trkpt lat="37.753343000" lon="-3.952479000">
        <ele>616.3</ele>
        <time>2020-10-15T09:06:05Z</time>
      </trkpt>
      <trkpt lat="37.753346000" lon="-3.952589000">
        <ele>617.0</ele>
        <time>2020-10-15T09:06:07Z</time>
      </trkpt>
      <trkpt lat="37.753347000" lon="-3.952698000">
        <ele>617.7</ele>
        <time>2020-10-15T09:06:09Z</time>
      </trkpt>
      <trkpt lat="37.753352000" lon="-3.952807000">
        <ele>618.5</ele>
        <time>2020-10-15T09:06:11Z</time>
      </trkpt>
      <trkpt lat="37.753360000" lon="-3.952916000">
        <ele>619.2</ele>
        <time>2020-10-15T09:06:13Z</time>
      </trkpt>
      <trkpt lat="37.753366000" lon="-3.953027000">
        <ele>619.9</ele>
        <time>2020-10-15T09:06:15Z</time>
      </trkpt>
      <trkpt lat="37.753373000" lon="-3.953132000">
        <ele>620.5</ele>
        <time>2020-10-15T09:06:17Z</time>
      </trkpt>
      <trkpt lat="37.753382000" lon="-3.953235000">
        <ele>621.2</ele>
        <time>2020-10-15T09:06:19Z</time>
      </trkpt>
      <trkpt lat="37.753390000" lon="-3.953338000">
        <ele>621.7</ele>
        <time>2020-10-15T09:06:21Z</time>
      </trkpt>
      <trkpt lat="37.753401000" lon="-3.953440000">
        <ele>622.3</ele>
        <time>2020-10-15T09:06:23Z</time>
      </trkpt>
      <trkpt lat="37.753411000" lon="-3.953543000">
        <ele>622.6</ele>
        <time>2020-10-15T09:06:25Z</time>
      </trkpt>
      <trkpt lat="37.753419000" lon="-3.953648000">
        <ele>622.8</ele>
        <time>2020-10-15T09:06:27Z</time>
      </trkpt>
      <trkpt lat="37.753434000" lon="-3.953749000">
        <ele>622.8</ele>
        <time>2020-10-15T09:06:29Z</time>
      </trkpt>
      <trkpt lat="37.753453000" lon="-3.953850000">
        <ele>622.5</ele>
        <time>2020-10-15T09:06:31Z</time>
      </trkpt>
      <trkpt lat="37.753475000" lon="-3.953953000">
        <ele>622.1</ele>
        <time>2020-10-15T09:06:33Z</time>
      </trkpt>
      <trkpt lat="37.753494000" lon="-3.954056000">
        <ele>621.5</ele>
        <time>2020-10-15T09:06:35Z</time>
      </trkpt>
      <trkpt lat="37.753510000" lon="-3.954161000">
        <ele>620.7</ele>
        <time>2020-10-15T09:06:37Z</time>
      </trkpt>
      <trkpt lat="37.753523000" lon="-3.954263000">
        <ele>619.9</ele>
        <time>2020-10-15T09:06:39Z</time>
      </trkpt>
      <trkpt lat="37.753573000" lon="-3.954401000">
        <ele>619.0</ele>
        <time>2020-10-15T09:06:42Z</time>
      </trkpt>
      <trkpt lat="37.753606000" lon="-3.954501000">
        <ele>618.1</ele>
        <time>2020-10-15T09:06:44Z</time>
      </trkpt>
      <trkpt lat="37.753641000" lon="-3.954598000">
        <ele>617.1</ele>
        <time>2020-10-15T09:06:46Z</time>
      </trkpt>
      <trkpt lat="37.753677000" lon="-3.954692000">
        <ele>616.1</ele>
        <time>2020-10-15T09:06:48Z</time>
      </trkpt>
      <trkpt lat="37.753712000" lon="-3.954786000">
        <ele>615.1</ele>
        <time>2020-10-15T09:06:50Z</time>
      </trkpt>
      <trkpt lat="37.753757000" lon="-3.954910000">
        <ele>614.3</ele>
        <time>2020-10-15T09:06:53Z</time>
      </trkpt>
      <trkpt lat="37.753799000" lon="-3.955003000">
        <ele>613.6</ele>
        <time>2020-10-15T09:06:56Z</time>
      </trkpt>
      <trkpt lat="37.753835000" lon="-3.955106000">
        <ele>613.0</ele>
        <time>2020-10-15T09:06:59Z</time>
      </trkpt>
      <trkpt lat="37.753880000" lon="-3.955210000">
        <ele>612.5</ele>
        <time>2020-10-15T09:07:02Z</time>
      </trkpt>
      <trkpt lat="37.753927000" lon="-3.955313000">
        <ele>611.9</ele>
        <time>2020-10-15T09:07:05Z</time>
      </trkpt>
      <trkpt lat="37.753967000" lon="-3.955425000">
        <ele>611.5</ele>
        <time>2020-10-15T09:07:08Z</time>
      </trkpt>
      <trkpt lat="37.754011000" lon="-3.955521000">
        <ele>611.1</ele>
        <time>2020-10-15T09:07:11Z</time>
      </trkpt>
      <trkpt lat="37.754054000" lon="-3.955626000">
        <ele>610.7</ele>
        <time>2020-10-15T09:07:14Z</time>
      </trkpt>
      <trkpt lat="37.754106000" lon="-3.955708000">
        <ele>610.5</ele>
        <time>2020-10-15T09:07:17Z</time>
      </trkpt>
      <trkpt lat="37.754164000" lon="-3.955786000">
        <ele>610.5</ele>
        <time>2020-10-15T09:07:20Z</time>
      </trkpt>
      <trkpt lat="37.754231000" lon="-3.955879000">
        <ele>610.7</ele>
        <time>2020-10-15T09:07:23Z</time>
      </trkpt>
      <trkpt lat="37.754298000" lon="-3.955968000">
        <ele>611.1</ele>
        <time>2020-10-15T09:07:26Z</time>
      </trkpt>
      <trkpt lat="37.754372000" lon="-3.956083000">
        <ele>611.5</ele>
        <time>2020-10-15T09:07:29Z</time>
      </trkpt>
      <trkpt lat="37.754426000" lon="-3.956165000">
        <ele>612.3</ele>
        <time>2020-10-15T09:07:31Z</time>
      </trkpt>
      <trkpt lat="37.754481000" lon="-3.956246000">
        <ele>613.1</ele>
        <time>2020-10-15T09:07:33Z</time>
      </trkpt>
      <trkpt lat="37.754536000" lon="-3.956325000">
        <ele>613.9</ele>
        <time>2020-10-15T09:07:35Z</time>
      </trkpt>
      <trkpt lat="37.754592000" lon="-3.956405000">
        <ele>614.7</ele>
        <time>2020-10-15T09:07:37Z</time>
      </trkpt>
      <trkpt lat="37.754648000" lon="-3.956480000">
        <ele>615.5</ele>
        <time>2020-10-15T09:07:39Z</time>
      </trkpt>
      <trkpt lat="37.754730000" lon="-3.956583000">
        <ele>616.5</ele>
        <time>2020-10-15T09:07:42Z</time>
      </trkpt>
      <trkpt lat="37.754812000" lon="-3.956680000">
        <ele>617.4</ele>
        <time>2020-10-15T09:07:45Z</time>
      </trkpt>
      <trkpt lat="37.754896000" lon="-3.956783000">
        <ele>618.2</ele>
        <time>2020-10-15T09:07:48Z</time>
      </trkpt>
      <trkpt lat="37.754985000" lon="-3.956885000">
        <ele>618.9</ele>
        <time>2020-10-15T09:07:51Z</time>
      </trkpt>
      <trkpt lat="37.755070000" lon="-3.956987000">
        <ele>619.6</ele>
        <time>2020-10-15T09:07:54Z</time>
      </trkpt>
      <trkpt lat="37.755156000" lon="-3.957085000">
        <ele>620.3</ele>
        <time>2020-10-15T09:07:57Z</time>
      </trkpt>
      <trkpt lat="37.755242000" lon="-3.957185000">
        <ele>620.7</ele>
        <time>2020-10-15T09:08:00Z</time>
      </trkpt>
      <trkpt lat="37.755329000" lon="-3.957285000">
        <ele>621.1</ele>
        <time>2020-10-15T09:08:03Z</time>
      </trkpt>
      <trkpt lat="37.755415000" lon="-3.957396000">
        <ele>621.4</ele>
        <time>2020-10-15T09:08:06Z</time>
      </trkpt>
      <trkpt lat="37.755474000" lon="-3.957469000">
        <ele>621.6</ele>
        <time>2020-10-15T09:08:08Z</time>
      </trkpt>
      <trkpt lat="37.755532000" lon="-3.957543000">
        <ele>622.0</ele>
        <time>2020-10-15T09:08:10Z</time>
      </trkpt>
      <trkpt lat="37.755617000" lon="-3.957649000">
        <ele>622.3</ele>
        <time>2020-10-15T09:08:13Z</time>
      </trkpt>
      <trkpt lat="37.755698000" lon="-3.957757000">
        <ele>622.7</ele>
        <time>2020-10-15T09:08:16Z</time>
      </trkpt>
      <trkpt lat="37.755777000" lon="-3.957867000">
        <ele>623.2</ele>
        <time>2020-10-15T09:08:19Z</time>
      </trkpt>
      <trkpt lat="37.755834000" lon="-3.957942000">
        <ele>623.6</ele>
        <time>2020-10-15T09:08:21Z</time>
      </trkpt>
      <trkpt lat="37.755893000" lon="-3.958017000">
        <ele>624.1</ele>
        <time>2020-10-15T09:08:23Z</time>
      </trkpt>
      <trkpt lat="37.755957000" lon="-3.958090000">
        <ele>624.5</ele>
        <time>2020-10-15T09:08:25Z</time>
      </trkpt>
      <trkpt lat="37.756021000" lon="-3.958168000">
        <ele>625.1</ele>
        <time>2020-10-15T09:08:27Z</time>
      </trkpt>
      <trkpt lat="37.756084000" lon="-3.958247000">
        <ele>625.6</ele>
        <time>2020-10-15T09:08:29Z</time>
      </trkpt>
      <trkpt lat="37.756146000" lon="-3.958325000">
        <ele>626.3</ele>
        <time>2020-10-15T09:08:31Z</time>
      </trkpt>
      <trkpt lat="37.756209000" lon="-3.958401000">
        <ele>627.0</ele>
        <time>2020-10-15T09:08:33Z</time>
      </trkpt>
      <trkpt lat="37.756273000" lon="-3.958475000">
        <ele>627.6</ele>
        <time>2020-10-15T09:08:35Z</time>
      </trkpt>
      <trkpt lat="37.756334000" lon="-3.958550000">
        <ele>628.3</ele>
        <time>2020-10-15T09:08:37Z</time>
      </trkpt>
      <trkpt lat="37.756392000" lon="-3.958627000">
        <ele>628.7</ele>
        <time>2020-10-15T09:08:39Z</time>
      </trkpt>
      <trkpt lat="37.756448000" lon="-3.958703000">
        <ele>629.1</ele>
        <time>2020-10-15T09:08:41Z</time>
      </trkpt>
      <trkpt lat="37.756502000" lon="-3.958781000">
        <ele>629.4</ele>
        <time>2020-10-15T09:08:43Z</time>
      </trkpt>
      <trkpt lat="37.756554000" lon="-3.958862000">
        <ele>629.6</ele>
        <time>2020-10-15T09:08:45Z</time>
      </trkpt>
      <trkpt lat="37.756606000" lon="-3.958949000">
        <ele>629.9</ele>
        <time>2020-10-15T09:08:47Z</time>
      </trkpt>
      <trkpt lat="37.756660000" lon="-3.959033000">
        <ele>630.1</ele>
        <time>2020-10-15T09:08:49Z</time>
      </trkpt>
      <trkpt lat="37.756716000" lon="-3.959120000">
        <ele>630.4</ele>
        <time>2020-10-15T09:08:51Z</time>
      </trkpt>
      <trkpt lat="37.756770000" lon="-3.959212000">
        <ele>630.6</ele>
        <time>2020-10-15T09:08:53Z</time>
      </trkpt>
      <trkpt lat="37.756820000" lon="-3.959303000">
        <ele>630.8</ele>
        <time>2020-10-15T09:08:55Z</time>
      </trkpt>
      <trkpt lat="37.756865000" lon="-3.959396000">
        <ele>631.0</ele>
        <time>2020-10-15T09:08:57Z</time>
      </trkpt>
      <trkpt lat="37.756908000" lon="-3.959490000">
        <ele>631.2</ele>
        <time>2020-10-15T09:08:59Z</time>
      </trkpt>
      <trkpt lat="37.756949000" lon="-3.959584000">
        <ele>631.4</ele>
        <time>2020-10-15T09:09:01Z</time>
      </trkpt>
      <trkpt lat="37.756990000" lon="-3.959680000">
        <ele>631.5</ele>
        <time>2020-10-15T09:09:03Z</time>
      </trkpt>
      <trkpt lat="37.757030000" lon="-3.959781000">
        <ele>631.6</ele>
        <time>2020-10-15T09:09:05Z</time>
      </trkpt>
      <trkpt lat="37.757072000" lon="-3.959873000">
        <ele>631.6</ele>
        <time>2020-10-15T09:09:07Z</time>
      </trkpt>
      <trkpt lat="37.757110000" lon="-3.959965000">
        <ele>631.7</ele>
        <time>2020-10-15T09:09:09Z</time>
      </trkpt>
      <trkpt lat="37.757146000" lon="-3.960059000">
        <ele>631.8</ele>
        <time>2020-10-15T09:09:11Z</time>
      </trkpt>
      <trkpt lat="37.757182000" lon="-3.960154000">
        <ele>631.8</ele>
        <time>2020-10-15T09:09:13Z</time>
      </trkpt>
      <trkpt lat="37.757213000" lon="-3.960252000">
        <ele>631.8</ele>
        <time>2020-10-15T09:09:15Z</time>
      </trkpt>
      <trkpt lat="37.757246000" lon="-3.960363000">
        <ele>631.7</ele>
        <time>2020-10-15T09:09:17Z</time>
      </trkpt>
      <trkpt lat="37.757275000" lon="-3.960475000">
        <ele>631.5</ele>
        <time>2020-10-15T09:09:19Z</time>
      </trkpt>
      <trkpt lat="37.757304000" lon="-3.960585000">
        <ele>631.4</ele>
        <time>2020-10-15T09:09:21Z</time>
      </trkpt>
      <trkpt lat="37.757331000" lon="-3.960698000">
        <ele>631.1</ele>
        <time>2020-10-15T09:09:23Z</time>
      </trkpt>
      <trkpt lat="37.757355000" lon="-3.960809000">
        <ele>630.7</ele>
        <time>2020-10-15T09:09:25Z</time>
      </trkpt>
      <trkpt lat="37.757373000" lon="-3.960925000">
        <ele>630.4</ele>
        <time>2020-10-15T09:09:27Z</time>
      </trkpt>
      <trkpt lat="37.757391000" lon="-3.961042000">
        <ele>629.9</ele>
        <time>2020-10-15T09:09:29Z</time>
      </trkpt>
      <trkpt lat="37.757405000" lon="-3.961165000">
        <ele>629.4</ele>
        <time>2020-10-15T09:09:31Z</time>
      </trkpt>
      <trkpt lat="37.757409000" lon="-3.961286000">
        <ele>628.8</ele>
        <time>2020-10-15T09:09:33Z</time>
      </trkpt>
      <trkpt lat="37.757412000" lon="-3.961406000">
        <ele>628.3</ele>
        <time>2020-10-15T09:09:35Z</time>
      </trkpt>
      <trkpt lat="37.757428000" lon="-3.961527000">
        <ele>627.7</ele>
        <time>2020-10-15T09:09:37Z</time>
      </trkpt>
      <trkpt lat="37.757439000" lon="-3.961649000">
        <ele>627.2</ele>
        <time>2020-10-15T09:09:39Z</time>
      </trkpt>
      <trkpt lat="37.757440000" lon="-3.961752000">
        <ele>626.7</ele>
        <time>2020-10-15T09:09:41Z</time>
      </trkpt>
      <trkpt lat="37.757488000" lon="-3.961871000">
        <ele>626.3</ele>
        <time>2020-10-15T09:09:45Z</time>
      </trkpt>
      <trkpt lat="37.757508000" lon="-3.961989000">
        <ele>625.8</ele>
        <time>2020-10-15T09:09:48Z</time>
      </trkpt>
      <trkpt lat="37.757521000" lon="-3.962118000">
        <ele>625.3</ele>
        <time>2020-10-15T09:09:51Z</time>
      </trkpt>
      <trkpt lat="37.757534000" lon="-3.962239000">
        <ele>624.7</ele>
        <time>2020-10-15T09:09:54Z</time>
      </trkpt>
      <trkpt lat="37.757542000" lon="-3.962348000">
        <ele>624.3</ele>
        <time>2020-10-15T09:09:58Z</time>
      </trkpt>
      <trkpt lat="37.757530000" lon="-3.962463000">
        <ele>623.9</ele>
        <time>2020-10-15T09:10:22Z</time>
      </trkpt>
      <trkpt lat="37.757525000" lon="-3.962585000">
        <ele>623.5</ele>
        <time>2020-10-15T09:10:27Z</time>
      </trkpt>
      <trkpt lat="37.757579000" lon="-3.962675000">
        <ele>623.2</ele>
        <time>2020-10-15T09:10:30Z</time>
      </trkpt>
      <trkpt lat="37.757638000" lon="-3.962761000">
        <ele>622.9</ele>
        <time>2020-10-15T09:10:33Z</time>
      </trkpt>
      <trkpt lat="37.757604000" lon="-3.962878000">
        <ele>622.7</ele>
        <time>2020-10-15T09:10:48Z</time>
      </trkpt>
      <trkpt lat="37.757548000" lon="-3.962958000">
        <ele>622.5</ele>
        <time>2020-10-15T09:10:51Z</time>
      </trkpt>
      <trkpt lat="37.757479000" lon="-3.963034000">
        <ele>622.2</ele>
        <time>2020-10-15T09:10:54Z</time>
      </trkpt>
      <trkpt lat="37.757397000" lon="-3.963065000">
        <ele>621.9</ele>
        <time>2020-10-15T09:10:57Z</time>
      </trkpt>
      <trkpt lat="37.757302000" lon="-3.963100000">
        <ele>621.8</ele>
        <time>2020-10-15T09:11:00Z</time>
      </trkpt>
      <trkpt lat="37.757224000" lon="-3.963134000">
        <ele>621.8</ele>
        <time>2020-10-15T09:11:03Z</time>
      </trkpt>
      <trkpt lat="37.757134000" lon="-3.963181000">
        <ele>621.9</ele>
        <time>2020-10-15T09:11:07Z</time>
      </trkpt>
      <trkpt lat="37.757077000" lon="-3.963280000">
        <ele>621.9</ele>
        <time>2020-10-15T09:11:11Z</time>
      </trkpt>
      <trkpt lat="37.757042000" lon="-3.963407000">
        <ele>622.0</ele>
        <time>2020-10-15T09:11:14Z</time>
      </trkpt>
      <trkpt lat="37.757005000" lon="-3.963550000">
        <ele>622.2</ele>
        <time>2020-10-15T09:11:17Z</time>
      </trkpt>
      <trkpt lat="37.756968000" lon="-3.963689000">
        <ele>622.4</ele>
        <time>2020-10-15T09:11:20Z</time>
      </trkpt>
      <trkpt lat="37.756930000" lon="-3.963818000">
        <ele>622.6</ele>
        <time>2020-10-15T09:11:23Z</time>
      </trkpt>
      <trkpt lat="37.756884000" lon="-3.963947000">
        <ele>623.0</ele>
        <time>2020-10-15T09:11:26Z</time>
      </trkpt>
      <trkpt lat="37.756841000" lon="-3.964068000">
        <ele>623.4</ele>
        <time>2020-10-15T09:11:29Z</time>
      </trkpt>
      <trkpt lat="37.756803000" lon="-3.964175000">
        <ele>623.8</ele>
        <time>2020-10-15T09:11:32Z</time>
      </trkpt>
      <trkpt lat="37.756754000" lon="-3.964291000">
        <ele>624.4</ele>
        <time>2020-10-15T09:11:36Z</time>
      </trkpt>
      <trkpt lat="37.756704000" lon="-3.964398000">
        <ele>624.9</ele>
        <time>2020-10-15T09:11:40Z</time>
      </trkpt>
      <trkpt lat="37.756659000" lon="-3.964506000">
        <ele>625.4</ele>
        <time>2020-10-15T09:11:44Z</time>
      </trkpt>
      <trkpt lat="37.756614000" lon="-3.964609000">
        <ele>625.9</ele>
        <time>2020-10-15T09:11:48Z</time>
      </trkpt>
      <trkpt lat="37.756569000" lon="-3.964717000">
        <ele>626.4</ele>
        <time>2020-10-15T09:11:53Z</time>
      </trkpt>
      <trkpt lat="37.756533000" lon="-3.964812000">
        <ele>626.8</ele>
        <time>2020-10-15T09:11:58Z</time>
      </trkpt>
      <trkpt lat="37.756485000" lon="-3.964912000">
        <ele>627.3</ele>
        <time>2020-10-15T09:12:02Z</time>
      </trkpt>
      <trkpt lat="37.756425000" lon="-3.965009000">
        <ele>627.7</ele>
        <time>2020-10-15T09:12:06Z</time>
      </trkpt>
      <trkpt lat="37.756344000" lon="-3.965100000">
        <ele>628.3</ele>
        <time>2020-10-15T09:12:10Z</time>
      </trkpt>
      <trkpt lat="37.756278000" lon="-3.965176000">
        <ele>628.8</ele>
        <time>2020-10-15T09:12:13Z</time>
      </trkpt>
      <trkpt lat="37.756203000" lon="-3.965252000">
        <ele>629.4</ele>
        <time>2020-10-15T09:12:16Z</time>
      </trkpt>
      <trkpt lat="37.756127000" lon="-3.965343000">
        <ele>629.8</ele>
        <time>2020-10-15T09:12:19Z</time>
      </trkpt>
      <trkpt lat="37.756043000" lon="-3.965429000">
        <ele>630.3</ele>
        <time>2020-10-15T09:12:22Z</time>
      </trkpt>
      <trkpt lat="37.755955000" lon="-3.965515000">
        <ele>630.7</ele>
        <time>2020-10-15T09:12:25Z</time>
      </trkpt>
      <trkpt lat="37.755863000" lon="-3.965597000">
        <ele>631.1</ele>
        <time>2020-10-15T09:12:28Z</time>
      </trkpt>
      <trkpt lat="37.755765000" lon="-3.965674000">
        <ele>631.5</ele>
        <time>2020-10-15T09:12:31Z</time>
      </trkpt>
      <trkpt lat="37.755664000" lon="-3.965748000">
        <ele>631.7</ele>
        <time>2020-10-15T09:12:34Z</time>
      </trkpt>
      <trkpt lat="37.755560000" lon="-3.965820000">
        <ele>631.9</ele>
        <time>2020-10-15T09:12:37Z</time>
      </trkpt>
      <trkpt lat="37.755487000" lon="-3.965868000">
        <ele>632.0</ele>
        <time>2020-10-15T09:12:39Z</time>
      </trkpt>
      <trkpt lat="37.755414000" lon="-3.965916000">
        <ele>632.0</ele>
        <time>2020-10-15T09:12:41Z</time>
      </trkpt>
      <trkpt lat="37.755341000" lon="-3.965962000">
        <ele>632.0</ele>
        <time>2020-10-15T09:12:43Z</time>
      </trkpt>
      <trkpt lat="37.755267000" lon="-3.966003000">
        <ele>632.1</ele>
        <time>2020-10-15T09:12:45Z</time>
      </trkpt>
      <trkpt lat="37.755191000" lon="-3.966045000">
        <ele>632.2</ele>
        <time>2020-10-15T09:12:47Z</time>
      </trkpt>
      <trkpt lat="37.755113000" lon="-3.966084000">
        <ele>632.4</ele>
        <time>2020-10-15T09:12:49Z</time>
      </trkpt>
      <trkpt lat="37.755033000" lon="-3.966117000">
        <ele>632.5</ele>
        <time>2020-10-15T09:12:51Z</time>
      </trkpt>
      <trkpt lat="37.754955000" lon="-3.966151000">
        <ele>632.7</ele>
        <time>2020-10-15T09:12:53Z</time>
      </trkpt>
      <trkpt lat="37.754876000" lon="-3.966186000">
        <ele>632.9</ele>
        <time>2020-10-15T09:12:55Z</time>
      </trkpt>
      <trkpt lat="37.754795000" lon="-3.966220000">
        <ele>633.1</ele>
        <time>2020-10-15T09:12:57Z</time>
      </trkpt>
      <trkpt lat="37.754715000" lon="-3.966256000">
        <ele>633.3</ele>
        <time>2020-10-15T09:12:59Z</time>
      </trkpt>
      <trkpt lat="37.754636000" lon="-3.966289000">
        <ele>633.5</ele>
        <time>2020-10-15T09:13:01Z</time>
      </trkpt>
      <trkpt lat="37.754557000" lon="-3.966321000">
        <ele>633.6</ele>
        <time>2020-10-15T09:13:03Z</time>
      </trkpt>
      <trkpt lat="37.754480000" lon="-3.966354000">
        <ele>633.8</ele>
        <time>2020-10-15T09:13:05Z</time>
      </trkpt>
      <trkpt lat="37.754401000" lon="-3.966383000">
        <ele>633.9</ele>
        <time>2020-10-15T09:13:07Z</time>
      </trkpt>
      <trkpt lat="37.754319000" lon="-3.966409000">
        <ele>633.9</ele>
        <time>2020-10-15T09:13:09Z</time>
      </trkpt>
      <trkpt lat="37.754234000" lon="-3.966435000">
        <ele>633.8</ele>
        <time>2020-10-15T09:13:11Z</time>
      </trkpt>
      <trkpt lat="37.754151000" lon="-3.966465000">
        <ele>633.7</ele>
        <time>2020-10-15T09:13:13Z</time>
      </trkpt>
      <trkpt lat="37.754067000" lon="-3.966496000">
        <ele>633.6</ele>
        <time>2020-10-15T09:13:15Z</time>
      </trkpt>
      <trkpt lat="37.753983000" lon="-3.966528000">
        <ele>633.5</ele>
        <time>2020-10-15T09:13:17Z</time>
      </trkpt>
      <trkpt lat="37.753902000" lon="-3.966561000">
        <ele>633.5</ele>
        <time>2020-10-15T09:13:19Z</time>
      </trkpt>
      <trkpt lat="37.753818000" lon="-3.966590000">
        <ele>633.5</ele>
        <time>2020-10-15T09:13:21Z</time>
      </trkpt>
      <trkpt lat="37.753733000" lon="-3.966619000">
        <ele>633.5</ele>
        <time>2020-10-15T09:13:23Z</time>
      </trkpt>
      <trkpt lat="37.753649000" lon="-3.966650000">
        <ele>633.5</ele>
        <time>2020-10-15T09:13:25Z</time>
      </trkpt>
      <trkpt lat="37.753565000" lon="-3.966680000">
        <ele>633.5</ele>
        <time>2020-10-15T09:13:27Z</time>
      </trkpt>
      <trkpt lat="37.753482000" lon="-3.966709000">
        <ele>633.5</ele>
        <time>2020-10-15T09:13:29Z</time>
      </trkpt>
      <trkpt lat="37.753398000" lon="-3.966736000">
        <ele>633.5</ele>
        <time>2020-10-15T09:13:31Z</time>
      </trkpt>
      <trkpt lat="37.753314000" lon="-3.966763000">
        <ele>633.5</ele>
        <time>2020-10-15T09:13:33Z</time>
      </trkpt>
      <trkpt lat="37.753230000" lon="-3.966795000">
        <ele>633.5</ele>
        <time>2020-10-15T09:13:35Z</time>
      </trkpt>
      <trkpt lat="37.753143000" lon="-3.966823000">
        <ele>633.5</ele>
        <time>2020-10-15T09:13:37Z</time>
      </trkpt>
      <trkpt lat="37.753053000" lon="-3.966855000">
        <ele>633.3</ele>
        <time>2020-10-15T09:13:39Z</time>
      </trkpt>
      <trkpt lat="37.752963000" lon="-3.966886000">
        <ele>633.1</ele>
        <time>2020-10-15T09:13:41Z</time>
      </trkpt>
      <trkpt lat="37.752866000" lon="-3.966920000">
        <ele>632.7</ele>
        <time>2020-10-15T09:13:43Z</time>
      </trkpt>
      <trkpt lat="37.752774000" lon="-3.966952000">
        <ele>632.3</ele>
        <time>2020-10-15T09:13:45Z</time>
      </trkpt>
      <trkpt lat="37.752681000" lon="-3.966982000">
        <ele>631.8</ele>
        <time>2020-10-15T09:13:47Z</time>
      </trkpt>
      <trkpt lat="37.752587000" lon="-3.967017000">
        <ele>631.4</ele>
        <time>2020-10-15T09:13:49Z</time>
      </trkpt>
      <trkpt lat="37.752493000" lon="-3.967055000">
        <ele>630.9</ele>
        <time>2020-10-15T09:13:51Z</time>
      </trkpt>
      <trkpt lat="37.752398000" lon="-3.967088000">
        <ele>630.5</ele>
        <time>2020-10-15T09:13:53Z</time>
      </trkpt>
      <trkpt lat="37.752302000" lon="-3.967123000">
        <ele>630.1</ele>
        <time>2020-10-15T09:13:55Z</time>
      </trkpt>
      <trkpt lat="37.752201000" lon="-3.967152000">
        <ele>629.7</ele>
        <time>2020-10-15T09:13:57Z</time>
      </trkpt>
      <trkpt lat="37.752103000" lon="-3.967186000">
        <ele>629.5</ele>
        <time>2020-10-15T09:13:59Z</time>
      </trkpt>
      <trkpt lat="37.752003000" lon="-3.967218000">
        <ele>629.3</ele>
        <time>2020-10-15T09:14:01Z</time>
      </trkpt>
      <trkpt lat="37.751899000" lon="-3.967252000">
        <ele>629.1</ele>
        <time>2020-10-15T09:14:03Z</time>
      </trkpt>
      <trkpt lat="37.751798000" lon="-3.967280000">
        <ele>629.0</ele>
        <time>2020-10-15T09:14:05Z</time>
      </trkpt>
      <trkpt lat="37.751690000" lon="-3.967311000">
        <ele>629.0</ele>
        <time>2020-10-15T09:14:07Z</time>
      </trkpt>
      <trkpt lat="37.751590000" lon="-3.967347000">
        <ele>629.1</ele>
        <time>2020-10-15T09:14:09Z</time>
      </trkpt>
      <trkpt lat="37.751494000" lon="-3.967381000">
        <ele>629.2</ele>
        <time>2020-10-15T09:14:11Z</time>
      </trkpt>
      <trkpt lat="37.751397000" lon="-3.967417000">
        <ele>629.3</ele>
        <time>2020-10-15T09:14:13Z</time>
      </trkpt>
      <trkpt lat="37.751299000" lon="-3.967458000">
        <ele>629.4</ele>
        <time>2020-10-15T09:14:15Z</time>
      </trkpt>
      <trkpt lat="37.751202000" lon="-3.967489000">
        <ele>629.4</ele>
        <time>2020-10-15T09:14:17Z</time>
      </trkpt>
      <trkpt lat="37.751104000" lon="-3.967525000">
        <ele>629.4</ele>
        <time>2020-10-15T09:14:19Z</time>
      </trkpt>
      <trkpt lat="37.751008000" lon="-3.967559000">
        <ele>629.4</ele>
        <time>2020-10-15T09:14:21Z</time>
      </trkpt>
      <trkpt lat="37.750911000" lon="-3.967598000">
        <ele>629.5</ele>
        <time>2020-10-15T09:14:23Z</time>
      </trkpt>
      <trkpt lat="37.750816000" lon="-3.967634000">
        <ele>629.5</ele>
        <time>2020-10-15T09:14:25Z</time>
      </trkpt>
      <trkpt lat="37.750718000" lon="-3.967664000">
        <ele>629.6</ele>
        <time>2020-10-15T09:14:27Z</time>
      </trkpt>
      <trkpt lat="37.750625000" lon="-3.967698000">
        <ele>629.7</ele>
        <time>2020-10-15T09:14:29Z</time>
      </trkpt>
      <trkpt lat="37.750527000" lon="-3.967731000">
        <ele>629.7</ele>
        <time>2020-10-15T09:14:31Z</time>
      </trkpt>
      <trkpt lat="37.750424000" lon="-3.967765000">
        <ele>629.7</ele>
        <time>2020-10-15T09:14:33Z</time>
      </trkpt>
      <trkpt lat="37.750325000" lon="-3.967801000">
        <ele>629.8</ele>
        <time>2020-10-15T09:14:35Z</time>
      </trkpt>
      <trkpt lat="37.750219000" lon="-3.967836000">
        <ele>630.0</ele>
        <time>2020-10-15T09:14:37Z</time>
      </trkpt>
      <trkpt lat="37.750112000" lon="-3.967875000">
        <ele>630.3</ele>
        <time>2020-10-15T09:14:39Z</time>
      </trkpt>
      <trkpt lat="37.750003000" lon="-3.967915000">
        <ele>630.6</ele>
        <time>2020-10-15T09:14:41Z</time>
      </trkpt>
      <trkpt lat="37.749894000" lon="-3.967948000">
        <ele>631.0</ele>
        <time>2020-10-15T09:14:43Z</time>
      </trkpt>
      <trkpt lat="37.749793000" lon="-3.967977000">
        <ele>631.3</ele>
        <time>2020-10-15T09:14:45Z</time>
      </trkpt>
      <trkpt lat="37.749689000" lon="-3.967997000">
        <ele>631.5</ele>
        <time>2020-10-15T09:14:47Z</time>
      </trkpt>
      <trkpt lat="37.749585000" lon="-3.968023000">
        <ele>631.6</ele>
        <time>2020-10-15T09:14:49Z</time>
      </trkpt>
      <trkpt lat="37.749480000" lon="-3.968054000">
        <ele>631.8</ele>
        <time>2020-10-15T09:14:51Z</time>
      </trkpt>
      <trkpt lat="37.749375000" lon="-3.968073000">
        <ele>632.0</ele>
        <time>2020-10-15T09:14:53Z</time>
      </trkpt>
      <trkpt lat="37.749268000" lon="-3.968096000">
        <ele>632.3</ele>
        <time>2020-10-15T09:14:55Z</time>
      </trkpt>
      <trkpt lat="37.749170000" lon="-3.968120000">
        <ele>632.5</ele>
        <time>2020-10-15T09:14:57Z</time>
      </trkpt>
      <trkpt lat="37.749070000" lon="-3.968133000">
        <ele>632.8</ele>
        <time>2020-10-15T09:14:59Z</time>
      </trkpt>
      <trkpt lat="37.748966000" lon="-3.968135000">
        <ele>633.2</ele>
        <time>2020-10-15T09:15:01Z</time>
      </trkpt>
      <trkpt lat="37.748865000" lon="-3.968134000">
        <ele>633.5</ele>
        <time>2020-10-15T09:15:03Z</time>
      </trkpt>
      <trkpt lat="37.748765000" lon="-3.968126000">
        <ele>633.9</ele>
        <time>2020-10-15T09:15:05Z</time>
      </trkpt>
      <trkpt lat="37.748667000" lon="-3.968114000">
        <ele>634.3</ele>
        <time>2020-10-15T09:15:07Z</time>
      </trkpt>
      <trkpt lat="37.748564000" lon="-3.968095000">
        <ele>634.8</ele>
        <time>2020-10-15T09:15:09Z</time>
      </trkpt>
      <trkpt lat="37.748462000" lon="-3.968077000">
        <ele>635.3</ele>
        <time>2020-10-15T09:15:11Z</time>
      </trkpt>
      <trkpt lat="37.748360000" lon="-3.968063000">
        <ele>635.7</ele>
        <time>2020-10-15T09:15:13Z</time>
      </trkpt>
      <trkpt lat="37.748257000" lon="-3.968042000">
        <ele>636.1</ele>
        <time>2020-10-15T09:15:15Z</time>
      </trkpt>
      <trkpt lat="37.748153000" lon="-3.968011000">
        <ele>636.3</ele>
        <time>2020-10-15T09:15:17Z</time>
      </trkpt>
      <trkpt lat="37.748049000" lon="-3.967978000">
        <ele>636.4</ele>
        <time>2020-10-15T09:15:20Z</time>
      </trkpt>
      <trkpt lat="37.747946000" lon="-3.967949000">
        <ele>636.3</ele>
        <time>2020-10-15T09:15:21Z</time>
      </trkpt>
      <trkpt lat="37.747846000" lon="-3.967916000">
        <ele>636.0</ele>
        <time>2020-10-15T09:15:23Z</time>
      </trkpt>
      <trkpt lat="37.747744000" lon="-3.967874000">
        <ele>635.6</ele>
        <time>2020-10-15T09:15:25Z</time>
      </trkpt>
      <trkpt lat="37.747644000" lon="-3.967820000">
        <ele>635.2</ele>
        <time>2020-10-15T09:15:27Z</time>
      </trkpt>
      <trkpt lat="37.747540000" lon="-3.967768000">
        <ele>634.6</ele>
        <time>2020-10-15T09:15:29Z</time>
      </trkpt>
      <trkpt lat="37.747440000" lon="-3.967711000">
        <ele>633.9</ele>
        <time>2020-10-15T09:15:31Z</time>
      </trkpt>
      <trkpt lat="37.747343000" lon="-3.967655000">
        <ele>633.2</ele>
        <time>2020-10-15T09:15:33Z</time>
      </trkpt>
      <trkpt lat="37.747248000" lon="-3.967590000">
        <ele>632.4</ele>
        <time>2020-10-15T09:15:35Z</time>
      </trkpt>
      <trkpt lat="37.747155000" lon="-3.967520000">
        <ele>631.5</ele>
        <time>2020-10-15T09:15:37Z</time>
      </trkpt>
      <trkpt lat="37.747072000" lon="-3.967449000">
        <ele>630.8</ele>
        <time>2020-10-15T09:15:39Z</time>
      </trkpt>
      <trkpt lat="37.747009000" lon="-3.967383000">
        <ele>630.1</ele>
        <time>2020-10-15T09:15:41Z</time>
      </trkpt>
      <trkpt lat="37.746932000" lon="-3.967338000">
        <ele>629.5</ele>
        <time>2020-10-15T09:16:20Z</time>
      </trkpt>
      <trkpt lat="37.746840000" lon="-3.967266000">
        <ele>628.9</ele>
        <time>2020-10-15T09:16:24Z</time>
      </trkpt>
      <trkpt lat="37.746750000" lon="-3.967178000">
        <ele>628.4</ele>
        <time>2020-10-15T09:16:27Z</time>
      </trkpt>
      <trkpt lat="37.746688000" lon="-3.967113000">
        <ele>627.9</ele>
        <time>2020-10-15T09:16:29Z</time>
      </trkpt>
      <trkpt lat="37.746618000" lon="-3.967049000">
        <ele>627.6</ele>
        <time>2020-10-15T09:16:31Z</time>
      </trkpt>
      <trkpt lat="37.746558000" lon="-3.966975000">
        <ele>627.5</ele>
        <time>2020-10-15T09:16:33Z</time>
      </trkpt>
      <trkpt lat="37.746490000" lon="-3.966899000">
        <ele>627.4</ele>
        <time>2020-10-15T09:16:35Z</time>
      </trkpt>
      <trkpt lat="37.746423000" lon="-3.966820000">
        <ele>627.4</ele>
        <time>2020-10-15T09:16:37Z</time>
      </trkpt>
      <trkpt lat="37.746361000" lon="-3.966732000">
        <ele>627.5</ele>
        <time>2020-10-15T09:16:39Z</time>
      </trkpt>
      <trkpt lat="37.746301000" lon="-3.966642000">
        <ele>627.5</ele>
        <time>2020-10-15T09:16:41Z</time>
      </trkpt>
      <trkpt lat="37.746245000" lon="-3.966563000">
        <ele>627.5</ele>
        <time>2020-10-15T09:16:43Z</time>
      </trkpt>
      <trkpt lat="37.746190000" lon="-3.966482000">
        <ele>627.5</ele>
        <time>2020-10-15T09:16:45Z</time>
      </trkpt>
      <trkpt lat="37.746139000" lon="-3.966401000">
        <ele>627.5</ele>
        <time>2020-10-15T09:16:47Z</time>
      </trkpt>
      <trkpt lat="37.746088000" lon="-3.966315000">
        <ele>627.5</ele>
        <time>2020-10-15T09:16:49Z</time>
      </trkpt>
      <trkpt lat="37.746036000" lon="-3.966230000">
        <ele>627.6</ele>
        <time>2020-10-15T09:16:51Z</time>
      </trkpt>
      <trkpt lat="37.745976000" lon="-3.966138000">
        <ele>627.6</ele>
        <time>2020-10-15T09:16:53Z</time>
      </trkpt>
      <trkpt lat="37.745917000" lon="-3.966049000">
        <ele>627.7</ele>
        <time>2020-10-15T09:16:55Z</time>
      </trkpt>
      <trkpt lat="37.745862000" lon="-3.965958000">
        <ele>627.8</ele>
        <time>2020-10-15T09:16:57Z</time>
      </trkpt>
      <trkpt lat="37.745811000" lon="-3.965867000">
        <ele>628.0</ele>
        <time>2020-10-15T09:16:59Z</time>
      </trkpt>
      <trkpt lat="37.745762000" lon="-3.965777000">
        <ele>628.3</ele>
        <time>2020-10-15T09:17:01Z</time>
      </trkpt>
      <trkpt lat="37.745711000" lon="-3.965682000">
        <ele>628.5</ele>
        <time>2020-10-15T09:17:03Z</time>
      </trkpt>
      <trkpt lat="37.745665000" lon="-3.965583000">
        <ele>629.0</ele>
        <time>2020-10-15T09:17:05Z</time>
      </trkpt>
      <trkpt lat="37.745622000" lon="-3.965482000">
        <ele>629.5</ele>
        <time>2020-10-15T09:17:07Z</time>
      </trkpt>
      <trkpt lat="37.745581000" lon="-3.965379000">
        <ele>629.9</ele>
        <time>2020-10-15T09:17:09Z</time>
      </trkpt>
      <trkpt lat="37.745537000" lon="-3.965271000">
        <ele>630.4</ele>
        <time>2020-10-15T09:17:11Z</time>
      </trkpt>
      <trkpt lat="37.745486000" lon="-3.965163000">
        <ele>630.7</ele>
        <time>2020-10-15T09:17:13Z</time>
      </trkpt>
      <trkpt lat="37.745438000" lon="-3.965062000">
        <ele>631.1</ele>
        <time>2020-10-15T09:17:15Z</time>
      </trkpt>
      <trkpt lat="37.745386000" lon="-3.964956000">
        <ele>631.5</ele>
        <time>2020-10-15T09:17:17Z</time>
      </trkpt>
      <trkpt lat="37.745335000" lon="-3.964852000">
        <ele>631.8</ele>
        <time>2020-10-15T09:17:19Z</time>
      </trkpt>
      <trkpt lat="37.745282000" lon="-3.964747000">
        <ele>632.1</ele>
        <time>2020-10-15T09:17:21Z</time>
      </trkpt>
      <trkpt lat="37.745231000" lon="-3.964638000">
        <ele>632.3</ele>
        <time>2020-10-15T09:17:23Z</time>
      </trkpt>
      <trkpt lat="37.745181000" lon="-3.964528000">
        <ele>632.5</ele>
        <time>2020-10-15T09:17:25Z</time>
      </trkpt>
      <trkpt lat="37.745129000" lon="-3.964418000">
        <ele>632.7</ele>
        <time>2020-10-15T09:17:27Z</time>
      </trkpt>
      <trkpt lat="37.745076000" lon="-3.964309000">
        <ele>632.9</ele>
        <time>2020-10-15T09:17:29Z</time>
      </trkpt>
      <trkpt lat="37.745023000" lon="-3.964206000">
        <ele>633.0</ele>
        <time>2020-10-15T09:17:31Z</time>
      </trkpt>
      <trkpt lat="37.744969000" lon="-3.964103000">
        <ele>633.1</ele>
        <time>2020-10-15T09:17:33Z</time>
      </trkpt>
      <trkpt lat="37.744919000" lon="-3.964004000">
        <ele>633.2</ele>
        <time>2020-10-15T09:17:35Z</time>
      </trkpt>
      <trkpt lat="37.744868000" lon="-3.963906000">
        <ele>633.4</ele>
        <time>2020-10-15T09:17:37Z</time>
      </trkpt>
      <trkpt lat="37.744807000" lon="-3.963811000">
        <ele>633.5</ele>
        <time>2020-10-15T09:17:39Z</time>
      </trkpt>
      <trkpt lat="37.744748000" lon="-3.963715000">
        <ele>633.8</ele>
        <time>2020-10-15T09:17:41Z</time>
      </trkpt>
      <trkpt lat="37.744687000" lon="-3.963623000">
        <ele>634.1</ele>
        <time>2020-10-15T09:17:43Z</time>
      </trkpt>
      <trkpt lat="37.744625000" lon="-3.963540000">
        <ele>634.5</ele>
        <time>2020-10-15T09:17:45Z</time>
      </trkpt>
      <trkpt lat="37.744561000" lon="-3.963451000">
        <ele>634.6</ele>
        <time>2020-10-15T09:17:47Z</time>
      </trkpt>
      <trkpt lat="37.744499000" lon="-3.963368000">
        <ele>634.8</ele>
        <time>2020-10-15T09:17:49Z</time>
      </trkpt>
      <trkpt lat="37.744429000" lon="-3.963285000">
        <ele>634.9</ele>
        <time>2020-10-15T09:17:51Z</time>
      </trkpt>
      <trkpt lat="37.744363000" lon="-3.963203000">
        <ele>635.0</ele>
        <time>2020-10-15T09:17:53Z</time>
      </trkpt>
      <trkpt lat="37.744294000" lon="-3.963133000">
        <ele>635.0</ele>
        <time>2020-10-15T09:17:55Z</time>
      </trkpt>
      <trkpt lat="37.744231000" lon="-3.963058000">
        <ele>635.0</ele>
        <time>2020-10-15T09:17:57Z</time>
      </trkpt>
      <trkpt lat="37.744168000" lon="-3.962991000">
        <ele>634.9</ele>
        <time>2020-10-15T09:17:59Z</time>
      </trkpt>
      <trkpt lat="37.744098000" lon="-3.962921000">
        <ele>634.7</ele>
        <time>2020-10-15T09:18:01Z</time>
      </trkpt>
      <trkpt lat="37.744024000" lon="-3.962861000">
        <ele>634.5</ele>
        <time>2020-10-15T09:18:03Z</time>
      </trkpt>
      <trkpt lat="37.743946000" lon="-3.962799000">
        <ele>634.2</ele>
        <time>2020-10-15T09:18:05Z</time>
      </trkpt>
      <trkpt lat="37.743877000" lon="-3.962737000">
        <ele>633.7</ele>
        <time>2020-10-15T09:18:07Z</time>
      </trkpt>
      <trkpt lat="37.743808000" lon="-3.962677000">
        <ele>633.4</ele>
        <time>2020-10-15T09:18:09Z</time>
      </trkpt>
      <trkpt lat="37.743705000" lon="-3.962596000">
        <ele>633.0</ele>
        <time>2020-10-15T09:18:12Z</time>
      </trkpt>
      <trkpt lat="37.743630000" lon="-3.962545000">
        <ele>632.7</ele>
        <time>2020-10-15T09:18:14Z</time>
      </trkpt>
      <trkpt lat="37.743552000" lon="-3.962497000">
        <ele>632.5</ele>
        <time>2020-10-15T09:18:16Z</time>
      </trkpt>
      <trkpt lat="37.743469000" lon="-3.962453000">
        <ele>632.5</ele>
        <time>2020-10-15T09:18:18Z</time>
      </trkpt>
      <trkpt lat="37.743385000" lon="-3.962408000">
        <ele>632.5</ele>
        <time>2020-10-15T09:18:20Z</time>
      </trkpt>
      <trkpt lat="37.743300000" lon="-3.962364000">
        <ele>632.5</ele>
        <time>2020-10-15T09:18:22Z</time>
      </trkpt>
      <trkpt lat="37.743215000" lon="-3.962317000">
        <ele>632.5</ele>
        <time>2020-10-15T09:18:24Z</time>
      </trkpt>
      <trkpt lat="37.743125000" lon="-3.962280000">
        <ele>632.6</ele>
        <time>2020-10-15T09:18:26Z</time>
      </trkpt>
      <trkpt lat="37.743031000" lon="-3.962243000">
        <ele>632.7</ele>
        <time>2020-10-15T09:18:28Z</time>
      </trkpt>
      <trkpt lat="37.742945000" lon="-3.962211000">
        <ele>633.0</ele>
        <time>2020-10-15T09:18:30Z</time>
      </trkpt>
      <trkpt lat="37.742859000" lon="-3.962189000">
        <ele>633.3</ele>
        <time>2020-10-15T09:18:32Z</time>
      </trkpt>
      <trkpt lat="37.742779000" lon="-3.962163000">
        <ele>633.5</ele>
        <time>2020-10-15T09:18:34Z</time>
      </trkpt>
      <trkpt lat="37.742698000" lon="-3.962137000">
        <ele>633.7</ele>
        <time>2020-10-15T09:18:36Z</time>
      </trkpt>
      <trkpt lat="37.742617000" lon="-3.962121000">
        <ele>633.9</ele>
        <time>2020-10-15T09:18:38Z</time>
      </trkpt>
      <trkpt lat="37.742537000" lon="-3.962096000">
        <ele>634.1</ele>
        <time>2020-10-15T09:18:40Z</time>
      </trkpt>
      <trkpt lat="37.742457000" lon="-3.962076000">
        <ele>634.4</ele>
        <time>2020-10-15T09:18:42Z</time>
      </trkpt>
      <trkpt lat="37.742370000" lon="-3.962063000">
        <ele>634.6</ele>
        <time>2020-10-15T09:18:44Z</time>
      </trkpt>
      <trkpt lat="37.742283000" lon="-3.962051000">
        <ele>635.0</ele>
        <time>2020-10-15T09:18:46Z</time>
      </trkpt>
      <trkpt lat="37.742197000" lon="-3.962042000">
        <ele>635.4</ele>
        <time>2020-10-15T09:18:48Z</time>
      </trkpt>
      <trkpt lat="37.742110000" lon="-3.962036000">
        <ele>635.8</ele>
        <time>2020-10-15T09:18:50Z</time>
      </trkpt>
      <trkpt lat="37.742025000" lon="-3.962038000">
        <ele>636.2</ele>
        <time>2020-10-15T09:18:52Z</time>
      </trkpt>
      <trkpt lat="37.741941000" lon="-3.962046000">
        <ele>636.5</ele>
        <time>2020-10-15T09:18:54Z</time>
      </trkpt>
      <trkpt lat="37.741855000" lon="-3.962052000">
        <ele>636.9</ele>
        <time>2020-10-15T09:18:56Z</time>
      </trkpt>
      <trkpt lat="37.741772000" lon="-3.962058000">
        <ele>637.4</ele>
        <time>2020-10-15T09:18:58Z</time>
      </trkpt>
      <trkpt lat="37.741690000" lon="-3.962057000">
        <ele>637.9</ele>
        <time>2020-10-15T09:19:00Z</time>
      </trkpt>
      <trkpt lat="37.741606000" lon="-3.962070000">
        <ele>638.4</ele>
        <time>2020-10-15T09:19:02Z</time>
      </trkpt>
      <trkpt lat="37.741521000" lon="-3.962086000">
        <ele>638.7</ele>
        <time>2020-10-15T09:19:04Z</time>
      </trkpt>
      <trkpt lat="37.741437000" lon="-3.962095000">
        <ele>639.1</ele>
        <time>2020-10-15T09:19:06Z</time>
      </trkpt>
      <trkpt lat="37.741352000" lon="-3.962110000">
        <ele>639.4</ele>
        <time>2020-10-15T09:19:08Z</time>
      </trkpt>
      <trkpt lat="37.741266000" lon="-3.962131000">
        <ele>639.5</ele>
        <time>2020-10-15T09:19:10Z</time>
      </trkpt>
      <trkpt lat="37.741181000" lon="-3.962153000">
        <ele>639.7</ele>
        <time>2020-10-15T09:19:12Z</time>
      </trkpt>
      <trkpt lat="37.741100000" lon="-3.962179000">
        <ele>639.9</ele>
        <time>2020-10-15T09:19:14Z</time>
      </trkpt>
      <trkpt lat="37.741018000" lon="-3.962207000">
        <ele>640.1</ele>
        <time>2020-10-15T09:19:16Z</time>
      </trkpt>
      <trkpt lat="37.740935000" lon="-3.962238000">
        <ele>640.3</ele>
        <time>2020-10-15T09:19:18Z</time>
      </trkpt>
      <trkpt lat="37.740852000" lon="-3.962272000">
        <ele>640.5</ele>
        <time>2020-10-15T09:19:20Z</time>
      </trkpt>
      <trkpt lat="37.740769000" lon="-3.962306000">
        <ele>640.5</ele>
        <time>2020-10-15T09:19:22Z</time>
      </trkpt>
      <trkpt lat="37.740685000" lon="-3.962343000">
        <ele>640.6</ele>
        <time>2020-10-15T09:19:24Z</time>
      </trkpt>
      <trkpt lat="37.740603000" lon="-3.962384000">
        <ele>640.7</ele>
        <time>2020-10-15T09:19:26Z</time>
      </trkpt>
      <trkpt lat="37.740525000" lon="-3.962431000">
        <ele>640.8</ele>
        <time>2020-10-15T09:19:28Z</time>
      </trkpt>
      <trkpt lat="37.740446000" lon="-3.962478000">
        <ele>640.9</ele>
        <time>2020-10-15T09:19:30Z</time>
      </trkpt>
      <trkpt lat="37.740368000" lon="-3.962525000">
        <ele>640.9</ele>
        <time>2020-10-15T09:19:32Z</time>
      </trkpt>
      <trkpt lat="37.740290000" lon="-3.962568000">
        <ele>640.8</ele>
        <time>2020-10-15T09:19:34Z</time>
      </trkpt>
      <trkpt lat="37.740213000" lon="-3.962612000">
        <ele>640.7</ele>
        <time>2020-10-15T09:19:36Z</time>
      </trkpt>
      <trkpt lat="37.740138000" lon="-3.962655000">
        <ele>640.7</ele>
        <time>2020-10-15T09:19:38Z</time>
      </trkpt>
      <trkpt lat="37.740063000" lon="-3.962700000">
        <ele>640.7</ele>
        <time>2020-10-15T09:19:40Z</time>
      </trkpt>
      <trkpt lat="37.739985000" lon="-3.962745000">
        <ele>640.7</ele>
        <time>2020-10-15T09:19:42Z</time>
      </trkpt>
      <trkpt lat="37.739906000" lon="-3.962792000">
        <ele>640.8</ele>
        <time>2020-10-15T09:19:44Z</time>
      </trkpt>
      <trkpt lat="37.739829000" lon="-3.962838000">
        <ele>640.9</ele>
        <time>2020-10-15T09:19:46Z</time>
      </trkpt>
      <trkpt lat="37.739754000" lon="-3.962883000">
        <ele>641.0</ele>
        <time>2020-10-15T09:19:48Z</time>
      </trkpt>
      <trkpt lat="37.739678000" lon="-3.962933000">
        <ele>641.1</ele>
        <time>2020-10-15T09:19:50Z</time>
      </trkpt>
      <trkpt lat="37.739603000" lon="-3.962985000">
        <ele>641.2</ele>
        <time>2020-10-15T09:19:52Z</time>
      </trkpt>
      <trkpt lat="37.739526000" lon="-3.963030000">
        <ele>641.5</ele>
        <time>2020-10-15T09:19:54Z</time>
      </trkpt>
      <trkpt lat="37.739443000" lon="-3.963076000">
        <ele>641.7</ele>
        <time>2020-10-15T09:19:56Z</time>
      </trkpt>
      <trkpt lat="37.739364000" lon="-3.963127000">
        <ele>642.0</ele>
        <time>2020-10-15T09:19:58Z</time>
      </trkpt>
      <trkpt lat="37.739282000" lon="-3.963177000">
        <ele>642.3</ele>
        <time>2020-10-15T09:20:00Z</time>
      </trkpt>
      <trkpt lat="37.739196000" lon="-3.963231000">
        <ele>642.5</ele>
        <time>2020-10-15T09:20:02Z</time>
      </trkpt>
      <trkpt lat="37.739115000" lon="-3.963285000">
        <ele>642.8</ele>
        <time>2020-10-15T09:20:04Z</time>
      </trkpt>
      <trkpt lat="37.739029000" lon="-3.963337000">
        <ele>643.0</ele>
        <time>2020-10-15T09:20:06Z</time>
      </trkpt>
      <trkpt lat="37.738937000" lon="-3.963391000">
        <ele>643.3</ele>
        <time>2020-10-15T09:20:08Z</time>
      </trkpt>
      <trkpt lat="37.738847000" lon="-3.963447000">
        <ele>643.6</ele>
        <time>2020-10-15T09:20:10Z</time>
      </trkpt>
      <trkpt lat="37.738760000" lon="-3.963499000">
        <ele>644.1</ele>
        <time>2020-10-15T09:20:12Z</time>
      </trkpt>
      <trkpt lat="37.738669000" lon="-3.963552000">
        <ele>644.5</ele>
        <time>2020-10-15T09:20:14Z</time>
      </trkpt>
      <trkpt lat="37.738578000" lon="-3.963607000">
        <ele>644.8</ele>
        <time>2020-10-15T09:20:16Z</time>
      </trkpt>
      <trkpt lat="37.738491000" lon="-3.963666000">
        <ele>645.1</ele>
        <time>2020-10-15T09:20:18Z</time>
      </trkpt>
      <trkpt lat="37.738394000" lon="-3.963726000">
        <ele>645.3</ele>
        <time>2020-10-15T09:20:20Z</time>
      </trkpt>
      <trkpt lat="37.738307000" lon="-3.963788000">
        <ele>645.3</ele>
        <time>2020-10-15T09:20:22Z</time>
      </trkpt>
      <trkpt lat="37.738214000" lon="-3.963855000">
        <ele>645.2</ele>
        <time>2020-10-15T09:20:24Z</time>
      </trkpt>
      <trkpt lat="37.738128000" lon="-3.963927000">
        <ele>645.1</ele>
        <time>2020-10-15T09:20:26Z</time>
      </trkpt>
      <trkpt lat="37.738045000" lon="-3.963996000">
        <ele>644.9</ele>
        <time>2020-10-15T09:20:28Z</time>
      </trkpt>
      <trkpt lat="37.737963000" lon="-3.964069000">
        <ele>644.6</ele>
        <time>2020-10-15T09:20:30Z</time>
      </trkpt>
      <trkpt lat="37.737883000" lon="-3.964150000">
        <ele>644.3</ele>
        <time>2020-10-15T09:20:32Z</time>
      </trkpt>
      <trkpt lat="37.737802000" lon="-3.964235000">
        <ele>643.7</ele>
        <time>2020-10-15T09:20:34Z</time>
      </trkpt>
      <trkpt lat="37.737725000" lon="-3.964318000">
        <ele>643.1</ele>
        <time>2020-10-15T09:20:36Z</time>
      </trkpt>
      <trkpt lat="37.737649000" lon="-3.964403000">
        <ele>642.5</ele>
        <time>2020-10-15T09:20:38Z</time>
      </trkpt>
      <trkpt lat="37.737574000" lon="-3.964483000">
        <ele>641.9</ele>
        <time>2020-10-15T09:20:40Z</time>
      </trkpt>
      <trkpt lat="37.737510000" lon="-3.964574000">
        <ele>641.4</ele>
        <time>2020-10-15T09:20:42Z</time>
      </trkpt>
      <trkpt lat="37.737441000" lon="-3.964671000">
        <ele>640.9</ele>
        <time>2020-10-15T09:20:44Z</time>
      </trkpt>
      <trkpt lat="37.737382000" lon="-3.964760000">
        <ele>640.5</ele>
        <time>2020-10-15T09:20:46Z</time>
      </trkpt>
      <trkpt lat="37.737324000" lon="-3.964849000">
        <ele>640.0</ele>
        <time>2020-10-15T09:20:48Z</time>
      </trkpt>
      <trkpt lat="37.737267000" lon="-3.964939000">
        <ele>639.6</ele>
        <time>2020-10-15T09:20:50Z</time>
      </trkpt>
      <trkpt lat="37.737212000" lon="-3.965033000">
        <ele>639.4</ele>
        <time>2020-10-15T09:20:52Z</time>
      </trkpt>
      <trkpt lat="37.737157000" lon="-3.965131000">
        <ele>639.1</ele>
        <time>2020-10-15T09:20:54Z</time>
      </trkpt>
      <trkpt lat="37.737103000" lon="-3.965230000">
        <ele>638.9</ele>
        <time>2020-10-15T09:20:56Z</time>
      </trkpt>
      <trkpt lat="37.737049000" lon="-3.965336000">
        <ele>638.8</ele>
        <time>2020-10-15T09:20:58Z</time>
      </trkpt>
      <trkpt lat="37.736999000" lon="-3.965444000">
        <ele>638.9</ele>
        <time>2020-10-15T09:21:00Z</time>
      </trkpt>
      <trkpt lat="37.736948000" lon="-3.965552000">
        <ele>639.2</ele>
        <time>2020-10-15T09:21:02Z</time>
      </trkpt>
      <trkpt lat="37.736906000" lon="-3.965652000">
        <ele>639.5</ele>
        <time>2020-10-15T09:21:04Z</time>
      </trkpt>
      <trkpt lat="37.736862000" lon="-3.965765000">
        <ele>640.0</ele>
        <time>2020-10-15T09:21:06Z</time>
      </trkpt>
      <trkpt lat="37.736819000" lon="-3.965879000">
        <ele>640.5</ele>
        <time>2020-10-15T09:21:08Z</time>
      </trkpt>
      <trkpt lat="37.736780000" lon="-3.965988000">
        <ele>641.1</ele>
        <time>2020-10-15T09:21:10Z</time>
      </trkpt>
      <trkpt lat="37.736744000" lon="-3.966104000">
        <ele>641.6</ele>
        <time>2020-10-15T09:21:12Z</time>
      </trkpt>
      <trkpt lat="37.736718000" lon="-3.966216000">
        <ele>642.1</ele>
        <time>2020-10-15T09:21:14Z</time>
      </trkpt>
      <trkpt lat="37.736692000" lon="-3.966327000">
        <ele>642.5</ele>
        <time>2020-10-15T09:21:16Z</time>
      </trkpt>
      <trkpt lat="37.736673000" lon="-3.966438000">
        <ele>642.8</ele>
        <time>2020-10-15T09:21:18Z</time>
      </trkpt>
      <trkpt lat="37.736647000" lon="-3.966554000">
        <ele>643.3</ele>
        <time>2020-10-15T09:21:20Z</time>
      </trkpt>
      <trkpt lat="37.736624000" lon="-3.966669000">
        <ele>643.5</ele>
        <time>2020-10-15T09:21:22Z</time>
      </trkpt>
      <trkpt lat="37.736601000" lon="-3.966779000">
        <ele>643.8</ele>
        <time>2020-10-15T09:21:24Z</time>
      </trkpt>
      <trkpt lat="37.736580000" lon="-3.966894000">
        <ele>644.0</ele>
        <time>2020-10-15T09:21:26Z</time>
      </trkpt>
      <trkpt lat="37.736555000" lon="-3.967000000">
        <ele>644.2</ele>
        <time>2020-10-15T09:21:28Z</time>
      </trkpt>
      <trkpt lat="37.736531000" lon="-3.967107000">
        <ele>644.5</ele>
        <time>2020-10-15T09:21:30Z</time>
      </trkpt>
      <trkpt lat="37.736507000" lon="-3.967218000">
        <ele>644.7</ele>
        <time>2020-10-15T09:21:32Z</time>
      </trkpt>
      <trkpt lat="37.736486000" lon="-3.967324000">
        <ele>645.1</ele>
        <time>2020-10-15T09:21:34Z</time>
      </trkpt>
      <trkpt lat="37.736465000" lon="-3.967429000">
        <ele>645.4</ele>
        <time>2020-10-15T09:21:36Z</time>
      </trkpt>
      <trkpt lat="37.736445000" lon="-3.967534000">
        <ele>645.7</ele>
        <time>2020-10-15T09:21:38Z</time>
      </trkpt>
      <trkpt lat="37.736426000" lon="-3.967638000">
        <ele>646.2</ele>
        <time>2020-10-15T09:21:40Z</time>
      </trkpt>
      <trkpt lat="37.736403000" lon="-3.967740000">
        <ele>646.6</ele>
        <time>2020-10-15T09:21:42Z</time>
      </trkpt>
      <trkpt lat="37.736382000" lon="-3.967841000">
        <ele>647.1</ele>
        <time>2020-10-15T09:21:44Z</time>
      </trkpt>
      <trkpt lat="37.736352000" lon="-3.967989000">
        <ele>647.5</ele>
        <time>2020-10-15T09:21:47Z</time>
      </trkpt>
      <trkpt lat="37.736317000" lon="-3.968133000">
        <ele>648.0</ele>
        <time>2020-10-15T09:21:50Z</time>
      </trkpt>
      <trkpt lat="37.736275000" lon="-3.968274000">
        <ele>648.5</ele>
        <time>2020-10-15T09:21:53Z</time>
      </trkpt>
      <trkpt lat="37.736245000" lon="-3.968374000">
        <ele>648.9</ele>
        <time>2020-10-15T09:21:55Z</time>
      </trkpt>
      <trkpt lat="37.736214000" lon="-3.968474000">
        <ele>649.4</ele>
        <time>2020-10-15T09:21:57Z</time>
      </trkpt>
      <trkpt lat="37.736180000" lon="-3.968572000">
        <ele>649.7</ele>
        <time>2020-10-15T09:21:59Z</time>
      </trkpt>
      <trkpt lat="37.736149000" lon="-3.968673000">
        <ele>650.2</ele>
        <time>2020-10-15T09:22:01Z</time>
      </trkpt>
      <trkpt lat="37.736109000" lon="-3.968771000">
        <ele>650.6</ele>
        <time>2020-10-15T09:22:03Z</time>
      </trkpt>
      <trkpt lat="37.736068000" lon="-3.968873000">
        <ele>651.0</ele>
        <time>2020-10-15T09:22:05Z</time>
      </trkpt>
      <trkpt lat="37.736026000" lon="-3.968972000">
        <ele>651.4</ele>
        <time>2020-10-15T09:22:07Z</time>
      </trkpt>
      <trkpt lat="37.735981000" lon="-3.969066000">
        <ele>651.7</ele>
        <time>2020-10-15T09:22:09Z</time>
      </trkpt>
      <trkpt lat="37.735935000" lon="-3.969163000">
        <ele>652.0</ele>
        <time>2020-10-15T09:22:11Z</time>
      </trkpt>
      <trkpt lat="37.735885000" lon="-3.969258000">
        <ele>652.3</ele>
        <time>2020-10-15T09:22:13Z</time>
      </trkpt>
      <trkpt lat="37.735833000" lon="-3.969346000">
        <ele>652.5</ele>
        <time>2020-10-15T09:22:15Z</time>
      </trkpt>
      <trkpt lat="37.735776000" lon="-3.969437000">
        <ele>652.6</ele>
        <time>2020-10-15T09:22:17Z</time>
      </trkpt>
      <trkpt lat="37.735717000" lon="-3.969521000">
        <ele>652.7</ele>
        <time>2020-10-15T09:22:19Z</time>
      </trkpt>
      <trkpt lat="37.735658000" lon="-3.969605000">
        <ele>652.9</ele>
        <time>2020-10-15T09:22:21Z</time>
      </trkpt>
      <trkpt lat="37.735599000" lon="-3.969684000">
        <ele>653.1</ele>
        <time>2020-10-15T09:22:23Z</time>
      </trkpt>
      <trkpt lat="37.735541000" lon="-3.969761000">
        <ele>653.2</ele>
        <time>2020-10-15T09:22:25Z</time>
      </trkpt>
      <trkpt lat="37.735480000" lon="-3.969829000">
        <ele>653.3</ele>
        <time>2020-10-15T09:22:27Z</time>
      </trkpt>
      <trkpt lat="37.735417000" lon="-3.969897000">
        <ele>653.2</ele>
        <time>2020-10-15T09:22:29Z</time>
      </trkpt>
      <trkpt lat="37.735339000" lon="-3.969965000">
        <ele>653.0</ele>
        <time>2020-10-15T09:22:31Z</time>
      </trkpt>
      <trkpt lat="37.735270000" lon="-3.970023000">
        <ele>652.8</ele>
        <time>2020-10-15T09:22:33Z</time>
      </trkpt>
      <trkpt lat="37.735196000" lon="-3.970084000">
        <ele>652.6</ele>
        <time>2020-10-15T09:22:35Z</time>
      </trkpt>
      <trkpt lat="37.735123000" lon="-3.970143000">
        <ele>652.4</ele>
        <time>2020-10-15T09:22:37Z</time>
      </trkpt>
      <trkpt lat="37.735050000" lon="-3.970204000">
        <ele>652.2</ele>
        <time>2020-10-15T09:22:39Z</time>
      </trkpt>
      <trkpt lat="37.734975000" lon="-3.970267000">
        <ele>651.9</ele>
        <time>2020-10-15T09:22:41Z</time>
      </trkpt>
      <trkpt lat="37.734901000" lon="-3.970328000">
        <ele>651.6</ele>
        <time>2020-10-15T09:22:43Z</time>
      </trkpt>
      <trkpt lat="37.734825000" lon="-3.970387000">
        <ele>651.4</ele>
        <time>2020-10-15T09:22:45Z</time>
      </trkpt>
      <trkpt lat="37.734757000" lon="-3.970452000">
        <ele>651.3</ele>
        <time>2020-10-15T09:22:47Z</time>
      </trkpt>
      <trkpt lat="37.734690000" lon="-3.970519000">
        <ele>651.2</ele>
        <time>2020-10-15T09:22:49Z</time>
      </trkpt>
      <trkpt lat="37.734625000" lon="-3.970584000">
        <ele>651.2</ele>
        <time>2020-10-15T09:22:51Z</time>
      </trkpt>
      <trkpt lat="37.734525000" lon="-3.970670000">
        <ele>651.3</ele>
        <time>2020-10-15T09:22:54Z</time>
      </trkpt>
      <trkpt lat="37.734457000" lon="-3.970727000">
        <ele>651.4</ele>
        <time>2020-10-15T09:22:56Z</time>
      </trkpt>
      <trkpt lat="37.734393000" lon="-3.970793000">
        <ele>651.6</ele>
        <time>2020-10-15T09:22:58Z</time>
      </trkpt>
      <trkpt lat="37.734340000" lon="-3.970873000">
        <ele>652.0</ele>
        <time>2020-10-15T09:23:00Z</time>
      </trkpt>
      <trkpt lat="37.734307000" lon="-3.970972000">
        <ele>652.5</ele>
        <time>2020-10-15T09:23:02Z</time>
      </trkpt>
      <trkpt lat="37.734279000" lon="-3.971071000">
        <ele>653.1</ele>
        <time>2020-10-15T09:23:04Z</time>
      </trkpt>
      <trkpt lat="37.734228000" lon="-3.971207000">
        <ele>653.6</ele>
        <time>2020-10-15T09:23:07Z</time>
      </trkpt>
      <trkpt lat="37.734176000" lon="-3.971328000">
        <ele>654.2</ele>
        <time>2020-10-15T09:23:10Z</time>
      </trkpt>
      <trkpt lat="37.734118000" lon="-3.971439000">
        <ele>654.5</ele>
        <time>2020-10-15T09:23:13Z</time>
      </trkpt>
      <trkpt lat="37.734064000" lon="-3.971557000">
        <ele>654.9</ele>
        <time>2020-10-15T09:23:16Z</time>
      </trkpt>
      <trkpt lat="37.734009000" lon="-3.971691000">
        <ele>655.2</ele>
        <time>2020-10-15T09:23:19Z</time>
      </trkpt>
      <trkpt lat="37.733952000" lon="-3.971823000">
        <ele>655.5</ele>
        <time>2020-10-15T09:23:22Z</time>
      </trkpt>
      <trkpt lat="37.733899000" lon="-3.971948000">
        <ele>655.6</ele>
        <time>2020-10-15T09:23:25Z</time>
      </trkpt>
      <trkpt lat="37.733848000" lon="-3.972074000">
        <ele>655.6</ele>
        <time>2020-10-15T09:23:28Z</time>
      </trkpt>
      <trkpt lat="37.733795000" lon="-3.972213000">
        <ele>655.5</ele>
        <time>2020-10-15T09:23:31Z</time>
      </trkpt>
      <trkpt lat="37.733764000" lon="-3.972307000">
        <ele>655.2</ele>
        <time>2020-10-15T09:23:33Z</time>
      </trkpt>
      <trkpt lat="37.733734000" lon="-3.972405000">
        <ele>654.8</ele>
        <time>2020-10-15T09:23:36Z</time>
      </trkpt>
      <trkpt lat="37.733703000" lon="-3.972505000">
        <ele>654.5</ele>
        <time>2020-10-15T09:23:37Z</time>
      </trkpt>
      <trkpt lat="37.733675000" lon="-3.972604000">
        <ele>654.2</ele>
        <time>2020-10-15T09:23:39Z</time>
      </trkpt>
      <trkpt lat="37.733647000" lon="-3.972702000">
        <ele>654.0</ele>
        <time>2020-10-15T09:23:41Z</time>
      </trkpt>
      <trkpt lat="37.733624000" lon="-3.972800000">
        <ele>653.7</ele>
        <time>2020-10-15T09:23:43Z</time>
      </trkpt>
      <trkpt lat="37.733604000" lon="-3.972906000">
        <ele>653.5</ele>
        <time>2020-10-15T09:23:45Z</time>
      </trkpt>
      <trkpt lat="37.733580000" lon="-3.973009000">
        <ele>653.5</ele>
        <time>2020-10-15T09:23:47Z</time>
      </trkpt>
      <trkpt lat="37.733554000" lon="-3.973110000">
        <ele>653.5</ele>
        <time>2020-10-15T09:23:49Z</time>
      </trkpt>
      <trkpt lat="37.733537000" lon="-3.973215000">
        <ele>653.5</ele>
        <time>2020-10-15T09:23:51Z</time>
      </trkpt>
      <trkpt lat="37.733518000" lon="-3.973323000">
        <ele>653.7</ele>
        <time>2020-10-15T09:23:53Z</time>
      </trkpt>
      <trkpt lat="37.733493000" lon="-3.973437000">
        <ele>654.0</ele>
        <time>2020-10-15T09:23:55Z</time>
      </trkpt>
      <trkpt lat="37.733467000" lon="-3.973544000">
        <ele>654.2</ele>
        <time>2020-10-15T09:23:57Z</time>
      </trkpt>
      <trkpt lat="37.733442000" lon="-3.973653000">
        <ele>654.4</ele>
        <time>2020-10-15T09:23:59Z</time>
      </trkpt>
      <trkpt lat="37.733419000" lon="-3.973761000">
        <ele>654.5</ele>
        <time>2020-10-15T09:24:01Z</time>
      </trkpt>
      <trkpt lat="37.733395000" lon="-3.973864000">
        <ele>654.8</ele>
        <time>2020-10-15T09:24:03Z</time>
      </trkpt>
      <trkpt lat="37.733359000" lon="-3.974009000">
        <ele>655.3</ele>
        <time>2020-10-15T09:24:06Z</time>
      </trkpt>
      <trkpt lat="37.733323000" lon="-3.974155000">
        <ele>655.9</ele>
        <time>2020-10-15T09:24:09Z</time>
      </trkpt>
      <trkpt lat="37.733288000" lon="-3.974301000">
        <ele>656.5</ele>
        <time>2020-10-15T09:24:12Z</time>
      </trkpt>
      <trkpt lat="37.733253000" lon="-3.974447000">
        <ele>657.3</ele>
        <time>2020-10-15T09:24:15Z</time>
      </trkpt>
      <trkpt lat="37.733214000" lon="-3.974586000">
        <ele>658.0</ele>
        <time>2020-10-15T09:24:18Z</time>
      </trkpt>
      <trkpt lat="37.733175000" lon="-3.974717000">
        <ele>658.7</ele>
        <time>2020-10-15T09:24:21Z</time>
      </trkpt>
      <trkpt lat="37.733136000" lon="-3.974818000">
        <ele>659.4</ele>
        <time>2020-10-15T09:24:23Z</time>
      </trkpt>
      <trkpt lat="37.733103000" lon="-3.974925000">
        <ele>660.1</ele>
        <time>2020-10-15T09:24:25Z</time>
      </trkpt>
      <trkpt lat="37.733047000" lon="-3.975064000">
        <ele>660.9</ele>
        <time>2020-10-15T09:24:28Z</time>
      </trkpt>
      <trkpt lat="37.733008000" lon="-3.975162000">
        <ele>661.6</ele>
        <time>2020-10-15T09:24:30Z</time>
      </trkpt>
      <trkpt lat="37.732967000" lon="-3.975255000">
        <ele>662.4</ele>
        <time>2020-10-15T09:24:32Z</time>
      </trkpt>
      <trkpt lat="37.732926000" lon="-3.975350000">
        <ele>663.0</ele>
        <time>2020-10-15T09:24:34Z</time>
      </trkpt>
      <trkpt lat="37.732883000" lon="-3.975440000">
        <ele>663.5</ele>
        <time>2020-10-15T09:24:36Z</time>
      </trkpt>
      <trkpt lat="37.732816000" lon="-3.975565000">
        <ele>663.8</ele>
        <time>2020-10-15T09:24:39Z</time>
      </trkpt>
      <trkpt lat="37.732745000" lon="-3.975686000">
        <ele>664.1</ele>
        <time>2020-10-15T09:24:42Z</time>
      </trkpt>
      <trkpt lat="37.732667000" lon="-3.975805000">
        <ele>664.3</ele>
        <time>2020-10-15T09:24:45Z</time>
      </trkpt>
      <trkpt lat="37.732612000" lon="-3.975889000">
        <ele>664.5</ele>
        <time>2020-10-15T09:24:47Z</time>
      </trkpt>
      <trkpt lat="37.732557000" lon="-3.975976000">
        <ele>664.6</ele>
        <time>2020-10-15T09:24:49Z</time>
      </trkpt>
      <trkpt lat="37.732497000" lon="-3.976059000">
        <ele>664.8</ele>
        <time>2020-10-15T09:24:51Z</time>
      </trkpt>
      <trkpt lat="37.732436000" lon="-3.976140000">
        <ele>664.9</ele>
        <time>2020-10-15T09:24:53Z</time>
      </trkpt>
      <trkpt lat="37.732374000" lon="-3.976218000">
        <ele>664.9</ele>
        <time>2020-10-15T09:24:55Z</time>
      </trkpt>
      <trkpt lat="37.732308000" lon="-3.976293000">
        <ele>664.8</ele>
        <time>2020-10-15T09:24:57Z</time>
      </trkpt>
      <trkpt lat="37.732243000" lon="-3.976374000">
        <ele>664.7</ele>
        <time>2020-10-15T09:24:59Z</time>
      </trkpt>
      <trkpt lat="37.732175000" lon="-3.976455000">
        <ele>664.5</ele>
        <time>2020-10-15T09:25:01Z</time>
      </trkpt>
      <trkpt lat="37.732105000" lon="-3.976526000">
        <ele>664.4</ele>
        <time>2020-10-15T09:25:03Z</time>
      </trkpt>
      <trkpt lat="37.732032000" lon="-3.976597000">
        <ele>664.1</ele>
        <time>2020-10-15T09:25:05Z</time>
      </trkpt>
      <trkpt lat="37.731960000" lon="-3.976666000">
        <ele>663.8</ele>
        <time>2020-10-15T09:25:08Z</time>
      </trkpt>
      <trkpt lat="37.731890000" lon="-3.976733000">
        <ele>663.5</ele>
        <time>2020-10-15T09:25:09Z</time>
      </trkpt>
      <trkpt lat="37.731816000" lon="-3.976798000">
        <ele>663.3</ele>
        <time>2020-10-15T09:25:11Z</time>
      </trkpt>
      <trkpt lat="37.731743000" lon="-3.976859000">
        <ele>662.9</ele>
        <time>2020-10-15T09:25:13Z</time>
      </trkpt>
      <trkpt lat="37.731662000" lon="-3.976907000">
        <ele>662.5</ele>
        <time>2020-10-15T09:25:15Z</time>
      </trkpt>
      <trkpt lat="37.731582000" lon="-3.976961000">
        <ele>662.1</ele>
        <time>2020-10-15T09:25:17Z</time>
      </trkpt>
      <trkpt lat="37.731496000" lon="-3.977014000">
        <ele>661.7</ele>
        <time>2020-10-15T09:25:19Z</time>
      </trkpt>
      <trkpt lat="37.731409000" lon="-3.977068000">
        <ele>661.4</ele>
        <time>2020-10-15T09:25:21Z</time>
      </trkpt>
      <trkpt lat="37.731319000" lon="-3.977124000">
        <ele>661.0</ele>
        <time>2020-10-15T09:25:23Z</time>
      </trkpt>
      <trkpt lat="37.731229000" lon="-3.977182000">
        <ele>660.6</ele>
        <time>2020-10-15T09:25:25Z</time>
      </trkpt>
      <trkpt lat="37.731137000" lon="-3.977238000">
        <ele>660.3</ele>
        <time>2020-10-15T09:25:27Z</time>
      </trkpt>
      <trkpt lat="37.731042000" lon="-3.977296000">
        <ele>659.8</ele>
        <time>2020-10-15T09:25:29Z</time>
      </trkpt>
      <trkpt lat="37.730948000" lon="-3.977354000">
        <ele>659.4</ele>
        <time>2020-10-15T09:25:31Z</time>
      </trkpt>
      <trkpt lat="37.730846000" lon="-3.977409000">
        <ele>658.9</ele>
        <time>2020-10-15T09:25:33Z</time>
      </trkpt>
      <trkpt lat="37.730747000" lon="-3.977467000">
        <ele>658.5</ele>
        <time>2020-10-15T09:25:35Z</time>
      </trkpt>
      <trkpt lat="37.730646000" lon="-3.977527000">
        <ele>658.3</ele>
        <time>2020-10-15T09:25:37Z</time>
      </trkpt>
      <trkpt lat="37.730545000" lon="-3.977590000">
        <ele>658.0</ele>
        <time>2020-10-15T09:25:39Z</time>
      </trkpt>
      <trkpt lat="37.730446000" lon="-3.977653000">
        <ele>657.7</ele>
        <time>2020-10-15T09:25:41Z</time>
      </trkpt>
      <trkpt lat="37.730346000" lon="-3.977711000">
        <ele>657.5</ele>
        <time>2020-10-15T09:25:43Z</time>
      </trkpt>
      <trkpt lat="37.730245000" lon="-3.977770000">
        <ele>657.3</ele>
        <time>2020-10-15T09:25:45Z</time>
      </trkpt>
      <trkpt lat="37.730140000" lon="-3.977832000">
        <ele>657.0</ele>
        <time>2020-10-15T09:25:47Z</time>
      </trkpt>
      <trkpt lat="37.730035000" lon="-3.977892000">
        <ele>656.7</ele>
        <time>2020-10-15T09:25:49Z</time>
      </trkpt>
      <trkpt lat="37.729928000" lon="-3.977955000">
        <ele>656.5</ele>
        <time>2020-10-15T09:25:51Z</time>
      </trkpt>
      <trkpt lat="37.729822000" lon="-3.978019000">
        <ele>656.3</ele>
        <time>2020-10-15T09:25:53Z</time>
      </trkpt>
      <trkpt lat="37.729717000" lon="-3.978074000">
        <ele>656.0</ele>
        <time>2020-10-15T09:25:55Z</time>
      </trkpt>
      <trkpt lat="37.729614000" lon="-3.978134000">
        <ele>655.7</ele>
        <time>2020-10-15T09:25:57Z</time>
      </trkpt>
      <trkpt lat="37.729509000" lon="-3.978188000">
        <ele>655.5</ele>
        <time>2020-10-15T09:25:59Z</time>
      </trkpt>
      <trkpt lat="37.729412000" lon="-3.978248000">
        <ele>655.5</ele>
        <time>2020-10-15T09:26:01Z</time>
      </trkpt>
      <trkpt lat="37.729317000" lon="-3.978305000">
        <ele>655.4</ele>
        <time>2020-10-15T09:26:03Z</time>
      </trkpt>
      <trkpt lat="37.729228000" lon="-3.978352000">
        <ele>655.4</ele>
        <time>2020-10-15T09:26:05Z</time>
      </trkpt>
      <trkpt lat="37.729123000" lon="-3.978402000">
        <ele>655.4</ele>
        <time>2020-10-15T09:26:08Z</time>
      </trkpt>
      <trkpt lat="37.729045000" lon="-3.978439000">
        <ele>655.5</ele>
        <time>2020-10-15T09:26:11Z</time>
      </trkpt>
      <trkpt lat="37.728961000" lon="-3.978477000">
        <ele>655.6</ele>
        <time>2020-10-15T09:26:15Z</time>
      </trkpt>
      <trkpt lat="37.728875000" lon="-3.978522000">
        <ele>655.9</ele>
        <time>2020-10-15T09:26:42Z</time>
      </trkpt>
      <trkpt lat="37.728792000" lon="-3.978566000">
        <ele>656.3</ele>
        <time>2020-10-15T09:26:47Z</time>
      </trkpt>
      <trkpt lat="37.728721000" lon="-3.978629000">
        <ele>656.7</ele>
        <time>2020-10-15T09:26:52Z</time>
      </trkpt>
      <trkpt lat="37.728639000" lon="-3.978691000">
        <ele>657.2</ele>
        <time>2020-10-15T09:26:56Z</time>
      </trkpt>
      <trkpt lat="37.728563000" lon="-3.978736000">
        <ele>657.5</ele>
        <time>2020-10-15T09:27:00Z</time>
      </trkpt>
      <trkpt lat="37.728464000" lon="-3.978756000">
        <ele>657.8</ele>
        <time>2020-10-15T09:27:05Z</time>
      </trkpt>
      <trkpt lat="37.728379000" lon="-3.978731000">
        <ele>658.1</ele>
        <time>2020-10-15T09:27:11Z</time>
      </trkpt>
      <trkpt lat="37.728285000" lon="-3.978706000">
        <ele>658.2</ele>
        <time>2020-10-15T09:27:15Z</time>
      </trkpt>
      <trkpt lat="37.728196000" lon="-3.978691000">
        <ele>658.3</ele>
        <time>2020-10-15T09:27:18Z</time>
      </trkpt>
      <trkpt lat="37.728094000" lon="-3.978706000">
        <ele>658.4</ele>
        <time>2020-10-15T09:27:21Z</time>
      </trkpt>
      <trkpt lat="37.728012000" lon="-3.978693000">
        <ele>658.5</ele>
        <time>2020-10-15T09:27:23Z</time>
      </trkpt>
      <trkpt lat="37.727894000" lon="-3.978716000">
        <ele>658.5</ele>
        <time>2020-10-15T09:27:25Z</time>
      </trkpt>
      <trkpt lat="37.727758000" lon="-3.978733000">
        <ele>658.5</ele>
        <time>2020-10-15T09:27:27Z</time>
      </trkpt>
      <trkpt lat="37.727605000" lon="-3.978733000">
        <ele>658.4</ele>
        <time>2020-10-15T09:27:29Z</time>
      </trkpt>
      <trkpt lat="37.727523000" lon="-3.978726000">
        <ele>658.3</ele>
        <time>2020-10-15T09:27:30Z</time>
      </trkpt>
      <trkpt lat="37.727360000" lon="-3.978705000">
        <ele>658.2</ele>
        <time>2020-10-15T09:27:32Z</time>
      </trkpt>
      <trkpt lat="37.727278000" lon="-3.978695000">
        <ele>658.0</ele>
        <time>2020-10-15T09:27:33Z</time>
      </trkpt>
      <trkpt lat="37.727121000" lon="-3.978672000">
        <ele>657.8</ele>
        <time>2020-10-15T09:27:35Z</time>
      </trkpt>
      <trkpt lat="37.726978000" lon="-3.978641000">
        <ele>657.8</ele>
        <time>2020-10-15T09:27:37Z</time>
      </trkpt>
      <trkpt lat="37.726830000" lon="-3.978600000">
        <ele>657.8</ele>
        <time>2020-10-15T09:27:39Z</time>
      </trkpt>
      <trkpt lat="37.726685000" lon="-3.978555000">
        <ele>657.8</ele>
        <time>2020-10-15T09:27:41Z</time>
      </trkpt>
      <trkpt lat="37.726549000" lon="-3.978502000">
        <ele>657.8</ele>
        <time>2020-10-15T09:27:43Z</time>
      </trkpt>
      <trkpt lat="37.726421000" lon="-3.978440000">
        <ele>657.8</ele>
        <time>2020-10-15T09:27:45Z</time>
      </trkpt>
      <trkpt lat="37.726294000" lon="-3.978369000">
        <ele>657.8</ele>
        <time>2020-10-15T09:27:47Z</time>
      </trkpt>
      <trkpt lat="37.726168000" lon="-3.978291000">
        <ele>657.8</ele>
        <time>2020-10-15T09:27:49Z</time>
      </trkpt>
      <trkpt lat="37.726044000" lon="-3.978202000">
        <ele>657.9</ele>
        <time>2020-10-15T09:27:51Z</time>
      </trkpt>
      <trkpt lat="37.725919000" lon="-3.978114000">
        <ele>658.0</ele>
        <time>2020-10-15T09:27:53Z</time>
      </trkpt>
      <trkpt lat="37.725795000" lon="-3.978019000">
        <ele>658.2</ele>
        <time>2020-10-15T09:27:55Z</time>
      </trkpt>
      <trkpt lat="37.725677000" lon="-3.977920000">
        <ele>658.3</ele>
        <time>2020-10-15T09:27:57Z</time>
      </trkpt>
      <trkpt lat="37.725563000" lon="-3.977808000">
        <ele>658.2</ele>
        <time>2020-10-15T09:27:59Z</time>
      </trkpt>
      <trkpt lat="37.725455000" lon="-3.977700000">
        <ele>658.1</ele>
        <time>2020-10-15T09:28:01Z</time>
      </trkpt>
      <trkpt lat="37.725342000" lon="-3.977581000">
        <ele>657.9</ele>
        <time>2020-10-15T09:28:03Z</time>
      </trkpt>
      <trkpt lat="37.725234000" lon="-3.977459000">
        <ele>657.6</ele>
        <time>2020-10-15T09:28:05Z</time>
      </trkpt>
      <trkpt lat="37.725134000" lon="-3.977329000">
        <ele>657.4</ele>
        <time>2020-10-15T09:28:07Z</time>
      </trkpt>
      <trkpt lat="37.725036000" lon="-3.977199000">
        <ele>657.0</ele>
        <time>2020-10-15T09:28:09Z</time>
      </trkpt>
      <trkpt lat="37.724948000" lon="-3.977063000">
        <ele>656.6</ele>
        <time>2020-10-15T09:28:11Z</time>
      </trkpt>
      <trkpt lat="37.724858000" lon="-3.976927000">
        <ele>656.2</ele>
        <time>2020-10-15T09:28:13Z</time>
      </trkpt>
      <trkpt lat="37.724772000" lon="-3.976791000">
        <ele>655.7</ele>
        <time>2020-10-15T09:28:15Z</time>
      </trkpt>
      <trkpt lat="37.724685000" lon="-3.976660000">
        <ele>655.2</ele>
        <time>2020-10-15T09:28:17Z</time>
      </trkpt>
      <trkpt lat="37.724605000" lon="-3.976529000">
        <ele>654.5</ele>
        <time>2020-10-15T09:28:19Z</time>
      </trkpt>
      <trkpt lat="37.724523000" lon="-3.976422000">
        <ele>654.0</ele>
        <time>2020-10-15T09:28:21Z</time>
      </trkpt>
      <trkpt lat="37.724447000" lon="-3.976302000">
        <ele>653.4</ele>
        <time>2020-10-15T09:28:23Z</time>
      </trkpt>
      <trkpt lat="37.724381000" lon="-3.976206000">
        <ele>652.7</ele>
        <time>2020-10-15T09:28:25Z</time>
      </trkpt>
      <trkpt lat="37.724322000" lon="-3.976120000">
        <ele>652.1</ele>
        <time>2020-10-15T09:28:27Z</time>
      </trkpt>
      <trkpt lat="37.724239000" lon="-3.976013000">
        <ele>651.5</ele>
        <time>2020-10-15T09:28:30Z</time>
      </trkpt>
      <trkpt lat="37.724175000" lon="-3.975916000">
        <ele>650.9</ele>
        <time>2020-10-15T09:28:33Z</time>
      </trkpt>
      <trkpt lat="37.724084000" lon="-3.975823000">
        <ele>650.4</ele>
        <time>2020-10-15T09:28:36Z</time>
      </trkpt>
      <trkpt lat="37.724012000" lon="-3.975737000">
        <ele>649.8</ele>
        <time>2020-10-15T09:28:38Z</time>
      </trkpt>
      <trkpt lat="37.723933000" lon="-3.975662000">
        <ele>649.3</ele>
        <time>2020-10-15T09:28:40Z</time>
      </trkpt>
      <trkpt lat="37.723852000" lon="-3.975583000">
        <ele>648.8</ele>
        <time>2020-10-15T09:28:42Z</time>
      </trkpt>
      <trkpt lat="37.723764000" lon="-3.975493000">
        <ele>648.5</ele>
        <time>2020-10-15T09:28:44Z</time>
      </trkpt>
      <trkpt lat="37.723681000" lon="-3.975411000">
        <ele>648.3</ele>
        <time>2020-10-15T09:28:46Z</time>
      </trkpt>
      <trkpt lat="37.723592000" lon="-3.975341000">
        <ele>648.2</ele>
        <time>2020-10-15T09:28:48Z</time>
      </trkpt>
      <trkpt lat="37.723509000" lon="-3.975269000">
        <ele>648.2</ele>
        <time>2020-10-15T09:28:50Z</time>
      </trkpt>
      <trkpt lat="37.723421000" lon="-3.975209000">
        <ele>648.3</ele>
        <time>2020-10-15T09:28:52Z</time>
      </trkpt>
      <trkpt lat="37.723327000" lon="-3.975146000">
        <ele>648.4</ele>
        <time>2020-10-15T09:28:54Z</time>
      </trkpt>
      <trkpt lat="37.723228000" lon="-3.975104000">
        <ele>648.5</ele>
        <time>2020-10-15T09:28:56Z</time>
      </trkpt>
      <trkpt lat="37.723131000" lon="-3.975057000">
        <ele>648.5</ele>
        <time>2020-10-15T09:28:58Z</time>
      </trkpt>
      <trkpt lat="37.723031000" lon="-3.975013000">
        <ele>648.6</ele>
        <time>2020-10-15T09:29:00Z</time>
      </trkpt>
      <trkpt lat="37.722928000" lon="-3.974987000">
        <ele>648.8</ele>
        <time>2020-10-15T09:29:02Z</time>
      </trkpt>
      <trkpt lat="37.722830000" lon="-3.974960000">
        <ele>649.0</ele>
        <time>2020-10-15T09:29:04Z</time>
      </trkpt>
      <trkpt lat="37.722733000" lon="-3.974929000">
        <ele>649.2</ele>
        <time>2020-10-15T09:29:06Z</time>
      </trkpt>
      <trkpt lat="37.722634000" lon="-3.974897000">
        <ele>649.4</ele>
        <time>2020-10-15T09:29:08Z</time>
      </trkpt>
      <trkpt lat="37.722536000" lon="-3.974877000">
        <ele>649.5</ele>
        <time>2020-10-15T09:29:10Z</time>
      </trkpt>
      <trkpt lat="37.722437000" lon="-3.974862000">
        <ele>649.7</ele>
        <time>2020-10-15T09:29:12Z</time>
      </trkpt>
      <trkpt lat="37.722334000" lon="-3.974854000">
        <ele>650.0</ele>
        <time>2020-10-15T09:29:14Z</time>
      </trkpt>
      <trkpt lat="37.722236000" lon="-3.974847000">
        <ele>650.3</ele>
        <time>2020-10-15T09:29:16Z</time>
      </trkpt>
      <trkpt lat="37.722143000" lon="-3.974856000">
        <ele>650.5</ele>
        <time>2020-10-15T09:29:18Z</time>
      </trkpt>
      <trkpt lat="37.722048000" lon="-3.974870000">
        <ele>650.8</ele>
        <time>2020-10-15T09:29:20Z</time>
      </trkpt>
      <trkpt lat="37.721954000" lon="-3.974886000">
        <ele>651.2</ele>
        <time>2020-10-15T09:29:22Z</time>
      </trkpt>
      <trkpt lat="37.721865000" lon="-3.974899000">
        <ele>651.5</ele>
        <time>2020-10-15T09:29:24Z</time>
      </trkpt>
      <trkpt lat="37.721783000" lon="-3.974915000">
        <ele>651.7</ele>
        <time>2020-10-15T09:29:26Z</time>
      </trkpt>
      <trkpt lat="37.721687000" lon="-3.974929000">
        <ele>652.0</ele>
        <time>2020-10-15T09:29:29Z</time>
      </trkpt>
      <trkpt lat="37.721597000" lon="-3.974960000">
        <ele>652.3</ele>
        <time>2020-10-15T09:29:36Z</time>
      </trkpt>
      <trkpt lat="37.721523000" lon="-3.975004000">
        <ele>652.5</ele>
        <time>2020-10-15T09:29:39Z</time>
      </trkpt>
      <trkpt lat="37.721431000" lon="-3.975054000">
        <ele>652.6</ele>
        <time>2020-10-15T09:29:42Z</time>
      </trkpt>
      <trkpt lat="37.721362000" lon="-3.975143000">
        <ele>652.7</ele>
        <time>2020-10-15T09:29:46Z</time>
      </trkpt>
      <trkpt lat="37.721281000" lon="-3.975186000">
        <ele>652.8</ele>
        <time>2020-10-15T09:29:49Z</time>
      </trkpt>
      <trkpt lat="37.721187000" lon="-3.975216000">
        <ele>652.8</ele>
        <time>2020-10-15T09:29:52Z</time>
      </trkpt>
      <trkpt lat="37.721102000" lon="-3.975265000">
        <ele>652.8</ele>
        <time>2020-10-15T09:29:55Z</time>
      </trkpt>
      <trkpt lat="37.721015000" lon="-3.975317000">
        <ele>652.6</ele>
        <time>2020-10-15T09:29:58Z</time>
      </trkpt>
      <trkpt lat="37.720939000" lon="-3.975376000">
        <ele>652.5</ele>
        <time>2020-10-15T09:30:01Z</time>
      </trkpt>
      <trkpt lat="37.720847000" lon="-3.975419000">
        <ele>652.3</ele>
        <time>2020-10-15T09:30:04Z</time>
      </trkpt>
      <trkpt lat="37.720766000" lon="-3.975494000">
        <ele>652.1</ele>
        <time>2020-10-15T09:30:07Z</time>
      </trkpt>
      <trkpt lat="37.720685000" lon="-3.975565000">
        <ele>652.0</ele>
        <time>2020-10-15T09:30:10Z</time>
      </trkpt>
      <trkpt lat="37.720604000" lon="-3.975648000">
        <ele>651.9</ele>
        <time>2020-10-15T09:30:13Z</time>
      </trkpt>
      <trkpt lat="37.720518000" lon="-3.975749000">
        <ele>651.9</ele>
        <time>2020-10-15T09:30:16Z</time>
      </trkpt>
      <trkpt lat="37.720456000" lon="-3.975827000">
        <ele>651.9</ele>
        <time>2020-10-15T09:30:18Z</time>
      </trkpt>
      <trkpt lat="37.720392000" lon="-3.975913000">
        <ele>651.9</ele>
        <time>2020-10-15T09:30:20Z</time>
      </trkpt>
      <trkpt lat="37.720330000" lon="-3.976007000">
        <ele>651.9</ele>
        <time>2020-10-15T09:30:22Z</time>
      </trkpt>
      <trkpt lat="37.720262000" lon="-3.976087000">
        <ele>651.9</ele>
        <time>2020-10-15T09:30:24Z</time>
      </trkpt>
      <trkpt lat="37.720193000" lon="-3.976178000">
        <ele>651.9</ele>
        <time>2020-10-15T09:30:26Z</time>
      </trkpt>
      <trkpt lat="37.720123000" lon="-3.976264000">
        <ele>651.8</ele>
        <time>2020-10-15T09:30:28Z</time>
      </trkpt>
      <trkpt lat="37.720063000" lon="-3.976365000">
        <ele>651.6</ele>
        <time>2020-10-15T09:30:30Z</time>
      </trkpt>
      <trkpt lat="37.720002000" lon="-3.976467000">
        <ele>651.4</ele>
        <time>2020-10-15T09:30:32Z</time>
      </trkpt>
      <trkpt lat="37.719946000" lon="-3.976579000">
        <ele>650.8</ele>
        <time>2020-10-15T09:30:34Z</time>
      </trkpt>
      <trkpt lat="37.719895000" lon="-3.976696000">
        <ele>650.3</ele>
        <time>2020-10-15T09:30:36Z</time>
      </trkpt>
      <trkpt lat="37.719846000" lon="-3.976813000">
        <ele>649.6</ele>
        <time>2020-10-15T09:30:38Z</time>
      </trkpt>
      <trkpt lat="37.719805000" lon="-3.976933000">
        <ele>649.0</ele>
        <time>2020-10-15T09:30:40Z</time>
      </trkpt>
      <trkpt lat="37.719770000" lon="-3.977053000">
        <ele>648.5</ele>
        <time>2020-10-15T09:30:42Z</time>
      </trkpt>
      <trkpt lat="37.719734000" lon="-3.977175000">
        <ele>648.1</ele>
        <time>2020-10-15T09:30:44Z</time>
      </trkpt>
      <trkpt lat="37.719702000" lon="-3.977293000">
        <ele>647.7</ele>
        <time>2020-10-15T09:30:46Z</time>
      </trkpt>
      <trkpt lat="37.719672000" lon="-3.977416000">
        <ele>647.5</ele>
        <time>2020-10-15T09:30:48Z</time>
      </trkpt>
      <trkpt lat="37.719645000" lon="-3.977530000">
        <ele>647.5</ele>
        <time>2020-10-15T09:30:50Z</time>
      </trkpt>
      <trkpt lat="37.719627000" lon="-3.977642000">
        <ele>647.6</ele>
        <time>2020-10-15T09:30:52Z</time>
      </trkpt>
      <trkpt lat="37.719608000" lon="-3.977748000">
        <ele>647.8</ele>
        <time>2020-10-15T09:30:54Z</time>
      </trkpt>
      <trkpt lat="37.719577000" lon="-3.977870000">
        <ele>648.2</ele>
        <time>2020-10-15T09:30:57Z</time>
      </trkpt>
      <trkpt lat="37.719547000" lon="-3.977997000">
        <ele>648.6</ele>
        <time>2020-10-15T09:31:00Z</time>
      </trkpt>
      <trkpt lat="37.719521000" lon="-3.978143000">
        <ele>649.1</ele>
        <time>2020-10-15T09:31:03Z</time>
      </trkpt>
      <trkpt lat="37.719503000" lon="-3.978247000">
        <ele>649.6</ele>
        <time>2020-10-15T09:31:05Z</time>
      </trkpt>
      <trkpt lat="37.719488000" lon="-3.978356000">
        <ele>650.1</ele>
        <time>2020-10-15T09:31:07Z</time>
      </trkpt>
      <trkpt lat="37.719470000" lon="-3.978464000">
        <ele>650.5</ele>
        <time>2020-10-15T09:31:09Z</time>
      </trkpt>
      <trkpt lat="37.719447000" lon="-3.978572000">
        <ele>650.8</ele>
        <time>2020-10-15T09:31:11Z</time>
      </trkpt>
      <trkpt lat="37.719420000" lon="-3.978683000">
        <ele>651.1</ele>
        <time>2020-10-15T09:31:13Z</time>
      </trkpt>
      <trkpt lat="37.719401000" lon="-3.978790000">
        <ele>651.3</ele>
        <time>2020-10-15T09:31:15Z</time>
      </trkpt>
      <trkpt lat="37.719381000" lon="-3.978897000">
        <ele>651.4</ele>
        <time>2020-10-15T09:31:17Z</time>
      </trkpt>
      <trkpt lat="37.719359000" lon="-3.979015000">
        <ele>651.5</ele>
        <time>2020-10-15T09:31:19Z</time>
      </trkpt>
      <trkpt lat="37.719347000" lon="-3.979132000">
        <ele>651.5</ele>
        <time>2020-10-15T09:31:21Z</time>
      </trkpt>
      <trkpt lat="37.719332000" lon="-3.979252000">
        <ele>651.5</ele>
        <time>2020-10-15T09:31:23Z</time>
      </trkpt>
      <trkpt lat="37.719313000" lon="-3.979361000">
        <ele>651.5</ele>
        <time>2020-10-15T09:31:25Z</time>
      </trkpt>
      <trkpt lat="37.719290000" lon="-3.979474000">
        <ele>651.5</ele>
        <time>2020-10-15T09:31:27Z</time>
      </trkpt>
      <trkpt lat="37.719269000" lon="-3.979589000">
        <ele>651.4</ele>
        <time>2020-10-15T09:31:29Z</time>
      </trkpt>
      <trkpt lat="37.719246000" lon="-3.979700000">
        <ele>651.3</ele>
        <time>2020-10-15T09:31:31Z</time>
      </trkpt>
      <trkpt lat="37.719232000" lon="-3.979812000">
        <ele>651.2</ele>
        <time>2020-10-15T09:31:34Z</time>
      </trkpt>
      <trkpt lat="37.719214000" lon="-3.979925000">
        <ele>651.1</ele>
        <time>2020-10-15T09:31:35Z</time>
      </trkpt>
      <trkpt lat="37.719192000" lon="-3.980035000">
        <ele>651.0</ele>
        <time>2020-10-15T09:31:37Z</time>
      </trkpt>
      <trkpt lat="37.719167000" lon="-3.980143000">
        <ele>651.1</ele>
        <time>2020-10-15T09:31:39Z</time>
      </trkpt>
      <trkpt lat="37.719143000" lon="-3.980251000">
        <ele>651.2</ele>
        <time>2020-10-15T09:31:41Z</time>
      </trkpt>
      <trkpt lat="37.719120000" lon="-3.980363000">
        <ele>651.4</ele>
        <time>2020-10-15T09:31:43Z</time>
      </trkpt>
      <trkpt lat="37.719096000" lon="-3.980481000">
        <ele>651.5</ele>
        <time>2020-10-15T09:31:45Z</time>
      </trkpt>
      <trkpt lat="37.719069000" lon="-3.980586000">
        <ele>651.6</ele>
        <time>2020-10-15T09:31:47Z</time>
      </trkpt>
      <trkpt lat="37.719041000" lon="-3.980696000">
        <ele>651.8</ele>
        <time>2020-10-15T09:31:49Z</time>
      </trkpt>
      <trkpt lat="37.719017000" lon="-3.980802000">
        <ele>652.0</ele>
        <time>2020-10-15T09:31:51Z</time>
      </trkpt>
      <trkpt lat="37.718995000" lon="-3.980907000">
        <ele>652.2</ele>
        <time>2020-10-15T09:31:53Z</time>
      </trkpt>
      <trkpt lat="37.718974000" lon="-3.981010000">
        <ele>652.3</ele>
        <time>2020-10-15T09:31:55Z</time>
      </trkpt>
      <trkpt lat="37.718949000" lon="-3.981116000">
        <ele>652.4</ele>
        <time>2020-10-15T09:31:57Z</time>
      </trkpt>
      <trkpt lat="37.718922000" lon="-3.981223000">
        <ele>652.5</ele>
        <time>2020-10-15T09:31:59Z</time>
      </trkpt>
      <trkpt lat="37.718899000" lon="-3.981331000">
        <ele>652.5</ele>
        <time>2020-10-15T09:32:01Z</time>
      </trkpt>
      <trkpt lat="37.718877000" lon="-3.981437000">
        <ele>652.4</ele>
        <time>2020-10-15T09:32:03Z</time>
      </trkpt>
      <trkpt lat="37.718851000" lon="-3.981540000">
        <ele>652.2</ele>
        <time>2020-10-15T09:32:05Z</time>
      </trkpt>
      <trkpt lat="37.718829000" lon="-3.981639000">
        <ele>652.1</ele>
        <time>2020-10-15T09:32:07Z</time>
      </trkpt>
      <trkpt lat="37.718796000" lon="-3.981785000">
        <ele>651.9</ele>
        <time>2020-10-15T09:32:10Z</time>
      </trkpt>
      <trkpt lat="37.718758000" lon="-3.981918000">
        <ele>651.6</ele>
        <time>2020-10-15T09:32:13Z</time>
      </trkpt>
      <trkpt lat="37.718720000" lon="-3.982051000">
        <ele>651.5</ele>
        <time>2020-10-15T09:32:16Z</time>
      </trkpt>
      <trkpt lat="37.718668000" lon="-3.982171000">
        <ele>651.4</ele>
        <time>2020-10-15T09:32:19Z</time>
      </trkpt>
      <trkpt lat="37.718622000" lon="-3.982299000">
        <ele>651.4</ele>
        <time>2020-10-15T09:32:22Z</time>
      </trkpt>
      <trkpt lat="37.718586000" lon="-3.982401000">
        <ele>651.4</ele>
        <time>2020-10-15T09:32:24Z</time>
      </trkpt>
      <trkpt lat="37.718549000" lon="-3.982498000">
        <ele>651.5</ele>
        <time>2020-10-15T09:32:26Z</time>
      </trkpt>
      <trkpt lat="37.718520000" lon="-3.982596000">
        <ele>651.5</ele>
        <time>2020-10-15T09:32:28Z</time>
      </trkpt>
      <trkpt lat="37.718496000" lon="-3.982695000">
        <ele>651.5</ele>
        <time>2020-10-15T09:32:30Z</time>
      </trkpt>
      <trkpt lat="37.718473000" lon="-3.982796000">
        <ele>651.6</ele>
        <time>2020-10-15T09:32:32Z</time>
      </trkpt>
      <trkpt lat="37.718452000" lon="-3.982901000">
        <ele>651.7</ele>
        <time>2020-10-15T09:32:34Z</time>
      </trkpt>
      <trkpt lat="37.718433000" lon="-3.983008000">
        <ele>651.8</ele>
        <time>2020-10-15T09:32:36Z</time>
      </trkpt>
      <trkpt lat="37.718411000" lon="-3.983115000">
        <ele>652.0</ele>
        <time>2020-10-15T09:32:38Z</time>
      </trkpt>
      <trkpt lat="37.718392000" lon="-3.983224000">
        <ele>652.1</ele>
        <time>2020-10-15T09:32:40Z</time>
      </trkpt>
      <trkpt lat="37.718377000" lon="-3.983335000">
        <ele>652.1</ele>
        <time>2020-10-15T09:32:42Z</time>
      </trkpt>
      <trkpt lat="37.718364000" lon="-3.983451000">
        <ele>652.1</ele>
        <time>2020-10-15T09:32:44Z</time>
      </trkpt>
      <trkpt lat="37.718351000" lon="-3.983573000">
        <ele>652.2</ele>
        <time>2020-10-15T09:32:46Z</time>
      </trkpt>
      <trkpt lat="37.718351000" lon="-3.983688000">
        <ele>652.1</ele>
        <time>2020-10-15T09:32:48Z</time>
      </trkpt>
      <trkpt lat="37.718343000" lon="-3.983804000">
        <ele>652.1</ele>
        <time>2020-10-15T09:32:50Z</time>
      </trkpt>
      <trkpt lat="37.718341000" lon="-3.983909000">
        <ele>652.0</ele>
        <time>2020-10-15T09:32:52Z</time>
      </trkpt>
      <trkpt lat="37.718339000" lon="-3.984021000">
        <ele>651.8</ele>
        <time>2020-10-15T09:32:54Z</time>
      </trkpt>
      <trkpt lat="37.718343000" lon="-3.984137000">
        <ele>651.6</ele>
        <time>2020-10-15T09:32:56Z</time>
      </trkpt>
      <trkpt lat="37.718357000" lon="-3.984246000">
        <ele>651.5</ele>
        <time>2020-10-15T09:32:58Z</time>
      </trkpt>
      <trkpt lat="37.718370000" lon="-3.984397000">
        <ele>651.3</ele>
        <time>2020-10-15T09:33:01Z</time>
      </trkpt>
      <trkpt lat="37.718388000" lon="-3.984503000">
        <ele>651.1</ele>
        <time>2020-10-15T09:33:03Z</time>
      </trkpt>
      <trkpt lat="37.718410000" lon="-3.984611000">
        <ele>650.9</ele>
        <time>2020-10-15T09:33:05Z</time>
      </trkpt>
      <trkpt lat="37.718454000" lon="-3.984754000">
        <ele>650.7</ele>
        <time>2020-10-15T09:33:08Z</time>
      </trkpt>
      <trkpt lat="37.718480000" lon="-3.984858000">
        <ele>650.5</ele>
        <time>2020-10-15T09:33:10Z</time>
      </trkpt>
      <trkpt lat="37.718506000" lon="-3.984963000">
        <ele>650.5</ele>
        <time>2020-10-15T09:33:12Z</time>
      </trkpt>
      <trkpt lat="37.718540000" lon="-3.985074000">
        <ele>650.6</ele>
        <time>2020-10-15T09:33:14Z</time>
      </trkpt>
      <trkpt lat="37.718570000" lon="-3.985187000">
        <ele>651.0</ele>
        <time>2020-10-15T09:33:16Z</time>
      </trkpt>
      <trkpt lat="37.718607000" lon="-3.985305000">
        <ele>651.5</ele>
        <time>2020-10-15T09:33:18Z</time>
      </trkpt>
      <trkpt lat="37.718653000" lon="-3.985420000">
        <ele>652.2</ele>
        <time>2020-10-15T09:33:20Z</time>
      </trkpt>
      <trkpt lat="37.718707000" lon="-3.985538000">
        <ele>652.8</ele>
        <time>2020-10-15T09:33:22Z</time>
      </trkpt>
      <trkpt lat="37.718761000" lon="-3.985653000">
        <ele>653.5</ele>
        <time>2020-10-15T09:33:24Z</time>
      </trkpt>
      <trkpt lat="37.718823000" lon="-3.985758000">
        <ele>653.9</ele>
        <time>2020-10-15T09:33:26Z</time>
      </trkpt>
      <trkpt lat="37.718887000" lon="-3.985862000">
        <ele>654.4</ele>
        <time>2020-10-15T09:33:28Z</time>
      </trkpt>
      <trkpt lat="37.718957000" lon="-3.985970000">
        <ele>654.7</ele>
        <time>2020-10-15T09:33:30Z</time>
      </trkpt>
      <trkpt lat="37.719053000" lon="-3.986113000">
        <ele>655.0</ele>
        <time>2020-10-15T09:33:33Z</time>
      </trkpt>
      <trkpt lat="37.719122000" lon="-3.986215000">
        <ele>655.1</ele>
        <time>2020-10-15T09:33:35Z</time>
      </trkpt>
      <trkpt lat="37.719354000" lon="-3.986560000">
        <ele>655.0</ele>
        <time>2020-10-15T09:33:41Z</time>
      </trkpt>
      <trkpt lat="37.719400000" lon="-3.986693000">
        <ele>654.6</ele>
        <time>2020-10-15T09:33:44Z</time>
      </trkpt>
      <trkpt lat="37.719477000" lon="-3.986800000">
        <ele>654.2</ele>
        <time>2020-10-15T09:33:46Z</time>
      </trkpt>
      <trkpt lat="37.719543000" lon="-3.986921000">
        <ele>653.5</ele>
        <time>2020-10-15T09:33:48Z</time>
      </trkpt>
      <trkpt lat="37.719619000" lon="-3.987034000">
        <ele>652.8</ele>
        <time>2020-10-15T09:33:50Z</time>
      </trkpt>
      <trkpt lat="37.719696000" lon="-3.987145000">
        <ele>652.1</ele>
        <time>2020-10-15T09:33:52Z</time>
      </trkpt>
      <trkpt lat="37.719778000" lon="-3.987258000">
        <ele>651.5</ele>
        <time>2020-10-15T09:33:54Z</time>
      </trkpt>
      <trkpt lat="37.719857000" lon="-3.987376000">
        <ele>651.1</ele>
        <time>2020-10-15T09:33:56Z</time>
      </trkpt>
      <trkpt lat="37.719940000" lon="-3.987491000">
        <ele>650.7</ele>
        <time>2020-10-15T09:33:58Z</time>
      </trkpt>
      <trkpt lat="37.720014000" lon="-3.987611000">
        <ele>650.3</ele>
        <time>2020-10-15T09:34:00Z</time>
      </trkpt>
      <trkpt lat="37.720091000" lon="-3.987730000">
        <ele>649.9</ele>
        <time>2020-10-15T09:34:02Z</time>
      </trkpt>
      <trkpt lat="37.720167000" lon="-3.987849000">
        <ele>649.5</ele>
        <time>2020-10-15T09:34:04Z</time>
      </trkpt>
      <trkpt lat="37.720243000" lon="-3.987969000">
        <ele>649.3</ele>
        <time>2020-10-15T09:34:06Z</time>
      </trkpt>
      <trkpt lat="37.720313000" lon="-3.988094000">
        <ele>649.1</ele>
        <time>2020-10-15T09:34:08Z</time>
      </trkpt>
      <trkpt lat="37.720382000" lon="-3.988222000">
        <ele>649.0</ele>
        <time>2020-10-15T09:34:10Z</time>
      </trkpt>
      <trkpt lat="37.720450000" lon="-3.988361000">
        <ele>649.0</ele>
        <time>2020-10-15T09:34:12Z</time>
      </trkpt>
      <trkpt lat="37.720513000" lon="-3.988505000">
        <ele>649.0</ele>
        <time>2020-10-15T09:34:14Z</time>
      </trkpt>
      <trkpt lat="37.720572000" lon="-3.988644000">
        <ele>648.9</ele>
        <time>2020-10-15T09:34:16Z</time>
      </trkpt>
      <trkpt lat="37.720624000" lon="-3.988786000">
        <ele>648.7</ele>
        <time>2020-10-15T09:34:18Z</time>
      </trkpt>
      <trkpt lat="37.720670000" lon="-3.988928000">
        <ele>648.6</ele>
        <time>2020-10-15T09:34:20Z</time>
      </trkpt>
      <trkpt lat="37.720714000" lon="-3.989070000">
        <ele>648.6</ele>
        <time>2020-10-15T09:34:22Z</time>
      </trkpt>
      <trkpt lat="37.720752000" lon="-3.989215000">
        <ele>648.6</ele>
        <time>2020-10-15T09:34:24Z</time>
      </trkpt>
      <trkpt lat="37.720787000" lon="-3.989363000">
        <ele>648.7</ele>
        <time>2020-10-15T09:34:26Z</time>
      </trkpt>
      <trkpt lat="37.720819000" lon="-3.989511000">
        <ele>648.8</ele>
        <time>2020-10-15T09:34:28Z</time>
      </trkpt>
      <trkpt lat="37.720847000" lon="-3.989662000">
        <ele>648.7</ele>
        <time>2020-10-15T09:34:31Z</time>
      </trkpt>
      <trkpt lat="37.720873000" lon="-3.989818000">
        <ele>648.5</ele>
        <time>2020-10-15T09:34:32Z</time>
      </trkpt>
      <trkpt lat="37.720895000" lon="-3.989972000">
        <ele>648.3</ele>
        <time>2020-10-15T09:34:34Z</time>
      </trkpt>
      <trkpt lat="37.720915000" lon="-3.990124000">
        <ele>647.9</ele>
        <time>2020-10-15T09:34:36Z</time>
      </trkpt>
      <trkpt lat="37.720930000" lon="-3.990269000">
        <ele>647.5</ele>
        <time>2020-10-15T09:34:38Z</time>
      </trkpt>
      <trkpt lat="37.720942000" lon="-3.990421000">
        <ele>646.9</ele>
        <time>2020-10-15T09:34:40Z</time>
      </trkpt>
      <trkpt lat="37.720954000" lon="-3.990581000">
        <ele>646.1</ele>
        <time>2020-10-15T09:34:42Z</time>
      </trkpt>
      <trkpt lat="37.720974000" lon="-3.990737000">
        <ele>645.3</ele>
        <time>2020-10-15T09:34:44Z</time>
      </trkpt>
      <trkpt lat="37.720989000" lon="-3.990885000">
        <ele>644.4</ele>
        <time>2020-10-15T09:34:46Z</time>
      </trkpt>
      <trkpt lat="37.721002000" lon="-3.991025000">
        <ele>643.5</ele>
        <time>2020-10-15T09:34:48Z</time>
      </trkpt>
      <trkpt lat="37.721016000" lon="-3.991169000">
        <ele>642.5</ele>
        <time>2020-10-15T09:34:50Z</time>
      </trkpt>
      <trkpt lat="37.721030000" lon="-3.991311000">
        <ele>641.6</ele>
        <time>2020-10-15T09:34:52Z</time>
      </trkpt>
      <trkpt lat="37.721044000" lon="-3.991457000">
        <ele>640.7</ele>
        <time>2020-10-15T09:34:54Z</time>
      </trkpt>
      <trkpt lat="37.721063000" lon="-3.991602000">
        <ele>639.8</ele>
        <time>2020-10-15T09:34:56Z</time>
      </trkpt>
      <trkpt lat="37.721075000" lon="-3.991743000">
        <ele>638.9</ele>
        <time>2020-10-15T09:34:58Z</time>
      </trkpt>
      <trkpt lat="37.721090000" lon="-3.991887000">
        <ele>638.1</ele>
        <time>2020-10-15T09:35:00Z</time>
      </trkpt>
      <trkpt lat="37.721104000" lon="-3.992017000">
        <ele>637.3</ele>
        <time>2020-10-15T09:35:02Z</time>
      </trkpt>
      <trkpt lat="37.721115000" lon="-3.992154000">
        <ele>636.6</ele>
        <time>2020-10-15T09:35:04Z</time>
      </trkpt>
      <trkpt lat="37.721127000" lon="-3.992306000">
        <ele>635.9</ele>
        <time>2020-10-15T09:35:06Z</time>
      </trkpt>
      <trkpt lat="37.721147000" lon="-3.992453000">
        <ele>635.4</ele>
        <time>2020-10-15T09:35:08Z</time>
      </trkpt>
      <trkpt lat="37.721159000" lon="-3.992603000">
        <ele>634.9</ele>
        <time>2020-10-15T09:35:10Z</time>
      </trkpt>
      <trkpt lat="37.721162000" lon="-3.992755000">
        <ele>634.5</ele>
        <time>2020-10-15T09:35:12Z</time>
      </trkpt>
      <trkpt lat="37.721180000" lon="-3.992912000">
        <ele>634.1</ele>
        <time>2020-10-15T09:35:14Z</time>
      </trkpt>
      <trkpt lat="37.721199000" lon="-3.993065000">
        <ele>633.8</ele>
        <time>2020-10-15T09:35:16Z</time>
      </trkpt>
      <trkpt lat="37.721212000" lon="-3.993222000">
        <ele>633.6</ele>
        <time>2020-10-15T09:35:18Z</time>
      </trkpt>
      <trkpt lat="37.721229000" lon="-3.993373000">
        <ele>633.5</ele>
        <time>2020-10-15T09:35:20Z</time>
      </trkpt>
      <trkpt lat="37.721248000" lon="-3.993529000">
        <ele>633.3</ele>
        <time>2020-10-15T09:35:22Z</time>
      </trkpt>
      <trkpt lat="37.721258000" lon="-3.993692000">
        <ele>633.2</ele>
        <time>2020-10-15T09:35:24Z</time>
      </trkpt>
      <trkpt lat="37.721274000" lon="-3.993857000">
        <ele>633.1</ele>
        <time>2020-10-15T09:35:26Z</time>
      </trkpt>
      <trkpt lat="37.721291000" lon="-3.994015000">
        <ele>633.1</ele>
        <time>2020-10-15T09:35:28Z</time>
      </trkpt>
      <trkpt lat="37.721307000" lon="-3.994181000">
        <ele>633.0</ele>
        <time>2020-10-15T09:35:30Z</time>
      </trkpt>
      <trkpt lat="37.721326000" lon="-3.994347000">
        <ele>632.8</ele>
        <time>2020-10-15T09:35:32Z</time>
      </trkpt>
      <trkpt lat="37.721345000" lon="-3.994512000">
        <ele>632.5</ele>
        <time>2020-10-15T09:35:34Z</time>
      </trkpt>
      <trkpt lat="37.721361000" lon="-3.994684000">
        <ele>632.3</ele>
        <time>2020-10-15T09:35:36Z</time>
      </trkpt>
      <trkpt lat="37.721379000" lon="-3.994857000">
        <ele>631.9</ele>
        <time>2020-10-15T09:35:38Z</time>
      </trkpt>
      <trkpt lat="37.721399000" lon="-3.995024000">
        <ele>631.5</ele>
        <time>2020-10-15T09:35:40Z</time>
      </trkpt>
      <trkpt lat="37.721418000" lon="-3.995191000">
        <ele>631.3</ele>
        <time>2020-10-15T09:35:42Z</time>
      </trkpt>
      <trkpt lat="37.721429000" lon="-3.995356000">
        <ele>631.1</ele>
        <time>2020-10-15T09:35:44Z</time>
      </trkpt>
      <trkpt lat="37.721444000" lon="-3.995526000">
        <ele>630.9</ele>
        <time>2020-10-15T09:35:46Z</time>
      </trkpt>
      <trkpt lat="37.721468000" lon="-3.995691000">
        <ele>630.8</ele>
        <time>2020-10-15T09:35:48Z</time>
      </trkpt>
      <trkpt lat="37.721482000" lon="-3.995852000">
        <ele>630.7</ele>
        <time>2020-10-15T09:35:50Z</time>
      </trkpt>
      <trkpt lat="37.721498000" lon="-3.996013000">
        <ele>630.6</ele>
        <time>2020-10-15T09:35:52Z</time>
      </trkpt>
      <trkpt lat="37.721518000" lon="-3.996180000">
        <ele>630.6</ele>
        <time>2020-10-15T09:35:54Z</time>
      </trkpt>
      <trkpt lat="37.721538000" lon="-3.996345000">
        <ele>630.7</ele>
        <time>2020-10-15T09:35:56Z</time>
      </trkpt>
      <trkpt lat="37.721545000" lon="-3.996505000">
        <ele>630.9</ele>
        <time>2020-10-15T09:35:58Z</time>
      </trkpt>
      <trkpt lat="37.721557000" lon="-3.996672000">
        <ele>631.2</ele>
        <time>2020-10-15T09:36:00Z</time>
      </trkpt>
      <trkpt lat="37.721574000" lon="-3.996837000">
        <ele>631.5</ele>
        <time>2020-10-15T09:36:02Z</time>
      </trkpt>
      <trkpt lat="37.721580000" lon="-3.997004000">
        <ele>631.9</ele>
        <time>2020-10-15T09:36:04Z</time>
      </trkpt>
      <trkpt lat="37.721580000" lon="-3.997172000">
        <ele>632.3</ele>
        <time>2020-10-15T09:36:06Z</time>
      </trkpt>
      <trkpt lat="37.721581000" lon="-3.997338000">
        <ele>632.5</ele>
        <time>2020-10-15T09:36:08Z</time>
      </trkpt>
      <trkpt lat="37.721575000" lon="-3.997504000">
        <ele>632.7</ele>
        <time>2020-10-15T09:36:10Z</time>
      </trkpt>
      <trkpt lat="37.721560000" lon="-3.997673000">
        <ele>633.0</ele>
        <time>2020-10-15T09:36:12Z</time>
      </trkpt>
      <trkpt lat="37.721542000" lon="-3.997838000">
        <ele>633.4</ele>
        <time>2020-10-15T09:36:14Z</time>
      </trkpt>
      <trkpt lat="37.721515000" lon="-3.998003000">
        <ele>633.6</ele>
        <time>2020-10-15T09:36:16Z</time>
      </trkpt>
      <trkpt lat="37.721488000" lon="-3.998168000">
        <ele>634.0</ele>
        <time>2020-10-15T09:36:18Z</time>
      </trkpt>
      <trkpt lat="37.721447000" lon="-3.998332000">
        <ele>634.2</ele>
        <time>2020-10-15T09:36:20Z</time>
      </trkpt>
      <trkpt lat="37.721403000" lon="-3.998499000">
        <ele>634.4</ele>
        <time>2020-10-15T09:36:22Z</time>
      </trkpt>
      <trkpt lat="37.721356000" lon="-3.998662000">
        <ele>634.4</ele>
        <time>2020-10-15T09:36:24Z</time>
      </trkpt>
      <trkpt lat="37.721301000" lon="-3.998828000">
        <ele>634.3</ele>
        <time>2020-10-15T09:36:26Z</time>
      </trkpt>
      <trkpt lat="37.721241000" lon="-3.998989000">
        <ele>634.1</ele>
        <time>2020-10-15T09:36:28Z</time>
      </trkpt>
      <trkpt lat="37.721175000" lon="-3.999149000">
        <ele>633.9</ele>
        <time>2020-10-15T09:36:30Z</time>
      </trkpt>
      <trkpt lat="37.721103000" lon="-3.999305000">
        <ele>633.7</ele>
        <time>2020-10-15T09:36:32Z</time>
      </trkpt>
      <trkpt lat="37.721026000" lon="-3.999463000">
        <ele>633.4</ele>
        <time>2020-10-15T09:36:34Z</time>
      </trkpt>
      <trkpt lat="37.720942000" lon="-3.999612000">
        <ele>632.8</ele>
        <time>2020-10-15T09:36:36Z</time>
      </trkpt>
      <trkpt lat="37.720845000" lon="-3.999756000">
        <ele>632.2</ele>
        <time>2020-10-15T09:36:38Z</time>
      </trkpt>
      <trkpt lat="37.720744000" lon="-3.999895000">
        <ele>631.5</ele>
        <time>2020-10-15T09:36:40Z</time>
      </trkpt>
      <trkpt lat="37.720649000" lon="-4.000038000">
        <ele>631.1</ele>
        <time>2020-10-15T09:36:42Z</time>
      </trkpt>
      <trkpt lat="37.720539000" lon="-4.000172000">
        <ele>630.7</ele>
        <time>2020-10-15T09:36:44Z</time>
      </trkpt>
      <trkpt lat="37.720431000" lon="-4.000287000">
        <ele>630.5</ele>
        <time>2020-10-15T09:36:46Z</time>
      </trkpt>
      <trkpt lat="37.720315000" lon="-4.000403000">
        <ele>630.2</ele>
        <time>2020-10-15T09:36:48Z</time>
      </trkpt>
      <trkpt lat="37.720192000" lon="-4.000511000">
        <ele>629.9</ele>
        <time>2020-10-15T09:36:50Z</time>
      </trkpt>
      <trkpt lat="37.720067000" lon="-4.000610000">
        <ele>629.6</ele>
        <time>2020-10-15T09:36:52Z</time>
      </trkpt>
      <trkpt lat="37.719933000" lon="-4.000700000">
        <ele>629.3</ele>
        <time>2020-10-15T09:36:54Z</time>
      </trkpt>
      <trkpt lat="37.719797000" lon="-4.000784000">
        <ele>628.9</ele>
        <time>2020-10-15T09:36:56Z</time>
      </trkpt>
      <trkpt lat="37.719658000" lon="-4.000867000">
        <ele>628.6</ele>
        <time>2020-10-15T09:36:58Z</time>
      </trkpt>
      <trkpt lat="37.719522000" lon="-4.000939000">
        <ele>628.5</ele>
        <time>2020-10-15T09:37:00Z</time>
      </trkpt>
      <trkpt lat="37.719386000" lon="-4.000994000">
        <ele>628.4</ele>
        <time>2020-10-15T09:37:02Z</time>
      </trkpt>
      <trkpt lat="37.719252000" lon="-4.001048000">
        <ele>628.3</ele>
        <time>2020-10-15T09:37:04Z</time>
      </trkpt>
      <trkpt lat="37.719118000" lon="-4.001095000">
        <ele>628.2</ele>
        <time>2020-10-15T09:37:06Z</time>
      </trkpt>
      <trkpt lat="37.718985000" lon="-4.001126000">
        <ele>628.1</ele>
        <time>2020-10-15T09:37:09Z</time>
      </trkpt>
      <trkpt lat="37.718851000" lon="-4.001156000">
        <ele>628.0</ele>
        <time>2020-10-15T09:37:10Z</time>
      </trkpt>
      <trkpt lat="37.718716000" lon="-4.001171000">
        <ele>627.9</ele>
        <time>2020-10-15T09:37:12Z</time>
      </trkpt>
      <trkpt lat="37.718574000" lon="-4.001183000">
        <ele>627.9</ele>
        <time>2020-10-15T09:37:14Z</time>
      </trkpt>
      <trkpt lat="37.718434000" lon="-4.001185000">
        <ele>627.9</ele>
        <time>2020-10-15T09:37:16Z</time>
      </trkpt>
      <trkpt lat="37.718296000" lon="-4.001181000">
        <ele>627.9</ele>
        <time>2020-10-15T09:37:18Z</time>
      </trkpt>
      <trkpt lat="37.718154000" lon="-4.001177000">
        <ele>627.8</ele>
        <time>2020-10-15T09:37:20Z</time>
      </trkpt>
      <trkpt lat="37.718021000" lon="-4.001160000">
        <ele>627.6</ele>
        <time>2020-10-15T09:37:22Z</time>
      </trkpt>
      <trkpt lat="37.717885000" lon="-4.001137000">
        <ele>627.1</ele>
        <time>2020-10-15T09:37:24Z</time>
      </trkpt>
      <trkpt lat="37.717744000" lon="-4.001112000">
        <ele>626.5</ele>
        <time>2020-10-15T09:37:26Z</time>
      </trkpt>
      <trkpt lat="37.717606000" lon="-4.001076000">
        <ele>625.7</ele>
        <time>2020-10-15T09:37:28Z</time>
      </trkpt>
      <trkpt lat="37.717469000" lon="-4.001038000">
        <ele>624.9</ele>
        <time>2020-10-15T09:37:30Z</time>
      </trkpt>
      <trkpt lat="37.717335000" lon="-4.001007000">
        <ele>624.1</ele>
        <time>2020-10-15T09:37:32Z</time>
      </trkpt>
      <trkpt lat="37.717198000" lon="-4.000959000">
        <ele>623.4</ele>
        <time>2020-10-15T09:37:34Z</time>
      </trkpt>
      <trkpt lat="37.717060000" lon="-4.000912000">
        <ele>622.5</ele>
        <time>2020-10-15T09:37:36Z</time>
      </trkpt>
      <trkpt lat="37.716927000" lon="-4.000873000">
        <ele>621.7</ele>
        <time>2020-10-15T09:37:38Z</time>
      </trkpt>
      <trkpt lat="37.716813000" lon="-4.000836000">
        <ele>621.0</ele>
        <time>2020-10-15T09:37:40Z</time>
      </trkpt>
      <trkpt lat="37.716734000" lon="-4.000807000">
        <ele>620.4</ele>
        <time>2020-10-15T09:37:43Z</time>
      </trkpt>
      <trkpt lat="37.716644000" lon="-4.000763000">
        <ele>619.7</ele>
        <time>2020-10-15T09:38:56Z</time>
      </trkpt>
      <trkpt lat="37.716549000" lon="-4.000740000">
        <ele>619.3</ele>
        <time>2020-10-15T09:38:59Z</time>
      </trkpt>
      <trkpt lat="37.716430000" lon="-4.000711000">
        <ele>618.8</ele>
        <time>2020-10-15T09:39:02Z</time>
      </trkpt>
      <trkpt lat="37.716345000" lon="-4.000676000">
        <ele>618.4</ele>
        <time>2020-10-15T09:39:04Z</time>
      </trkpt>
      <trkpt lat="37.716249000" lon="-4.000640000">
        <ele>618.0</ele>
        <time>2020-10-15T09:39:06Z</time>
      </trkpt>
      <trkpt lat="37.716149000" lon="-4.000610000">
        <ele>617.7</ele>
        <time>2020-10-15T09:39:08Z</time>
      </trkpt>
      <trkpt lat="37.716049000" lon="-4.000575000">
        <ele>617.5</ele>
        <time>2020-10-15T09:39:10Z</time>
      </trkpt>
      <trkpt lat="37.715942000" lon="-4.000544000">
        <ele>617.3</ele>
        <time>2020-10-15T09:39:12Z</time>
      </trkpt>
      <trkpt lat="37.715835000" lon="-4.000510000">
        <ele>617.2</ele>
        <time>2020-10-15T09:39:14Z</time>
      </trkpt>
      <trkpt lat="37.715724000" lon="-4.000471000">
        <ele>617.1</ele>
        <time>2020-10-15T09:39:16Z</time>
      </trkpt>
      <trkpt lat="37.715611000" lon="-4.000439000">
        <ele>617.0</ele>
        <time>2020-10-15T09:39:18Z</time>
      </trkpt>
      <trkpt lat="37.715498000" lon="-4.000401000">
        <ele>617.0</ele>
        <time>2020-10-15T09:39:20Z</time>
      </trkpt>
      <trkpt lat="37.715383000" lon="-4.000362000">
        <ele>617.0</ele>
        <time>2020-10-15T09:39:22Z</time>
      </trkpt>
      <trkpt lat="37.715265000" lon="-4.000320000">
        <ele>617.1</ele>
        <time>2020-10-15T09:39:24Z</time>
      </trkpt>
      <trkpt lat="37.715147000" lon="-4.000282000">
        <ele>617.2</ele>
        <time>2020-10-15T09:39:26Z</time>
      </trkpt>
      <trkpt lat="37.715028000" lon="-4.000245000">
        <ele>617.4</ele>
        <time>2020-10-15T09:39:28Z</time>
      </trkpt>
      <trkpt lat="37.714907000" lon="-4.000205000">
        <ele>617.5</ele>
        <time>2020-10-15T09:39:30Z</time>
      </trkpt>
      <trkpt lat="37.714787000" lon="-4.000166000">
        <ele>617.5</ele>
        <time>2020-10-15T09:39:32Z</time>
      </trkpt>
      <trkpt lat="37.714671000" lon="-4.000127000">
        <ele>617.5</ele>
        <time>2020-10-15T09:39:34Z</time>
      </trkpt>
      <trkpt lat="37.714554000" lon="-4.000089000">
        <ele>617.4</ele>
        <time>2020-10-15T09:39:36Z</time>
      </trkpt>
      <trkpt lat="37.714438000" lon="-4.000045000">
        <ele>617.3</ele>
        <time>2020-10-15T09:39:38Z</time>
      </trkpt>
      <trkpt lat="37.714325000" lon="-4.000005000">
        <ele>617.2</ele>
        <time>2020-10-15T09:39:40Z</time>
      </trkpt>
      <trkpt lat="37.714213000" lon="-3.999970000">
        <ele>617.2</ele>
        <time>2020-10-15T09:39:42Z</time>
      </trkpt>
      <trkpt lat="37.714101000" lon="-3.999940000">
        <ele>617.2</ele>
        <time>2020-10-15T09:39:44Z</time>
      </trkpt>
      <trkpt lat="37.713984000" lon="-3.999901000">
        <ele>617.0</ele>
        <time>2020-10-15T09:39:46Z</time>
      </trkpt>
      <trkpt lat="37.713865000" lon="-3.999863000">
        <ele>616.7</ele>
        <time>2020-10-15T09:39:48Z</time>
      </trkpt>
      <trkpt lat="37.713748000" lon="-3.999822000">
        <ele>616.4</ele>
        <time>2020-10-15T09:39:50Z</time>
      </trkpt>
      <trkpt lat="37.713631000" lon="-3.999789000">
        <ele>616.1</ele>
        <time>2020-10-15T09:39:52Z</time>
      </trkpt>
      <trkpt lat="37.713515000" lon="-3.999749000">
        <ele>616.0</ele>
        <time>2020-10-15T09:39:54Z</time>
      </trkpt>
      <trkpt lat="37.713400000" lon="-3.999712000">
        <ele>616.0</ele>
        <time>2020-10-15T09:39:56Z</time>
      </trkpt>
      <trkpt lat="37.713286000" lon="-3.999675000">
        <ele>616.2</ele>
        <time>2020-10-15T09:39:58Z</time>
      </trkpt>
      <trkpt lat="37.713170000" lon="-3.999640000">
        <ele>616.3</ele>
        <time>2020-10-15T09:40:00Z</time>
      </trkpt>
      <trkpt lat="37.713053000" lon="-3.999596000">
        <ele>616.4</ele>
        <time>2020-10-15T09:40:02Z</time>
      </trkpt>
      <trkpt lat="37.712936000" lon="-3.999563000">
        <ele>616.4</ele>
        <time>2020-10-15T09:40:04Z</time>
      </trkpt>
      <trkpt lat="37.712823000" lon="-3.999526000">
        <ele>616.4</ele>
        <time>2020-10-15T09:40:06Z</time>
      </trkpt>
      <trkpt lat="37.712710000" lon="-3.999486000">
        <ele>616.5</ele>
        <time>2020-10-15T09:40:08Z</time>
      </trkpt>
      <trkpt lat="37.712594000" lon="-3.999442000">
        <ele>616.5</ele>
        <time>2020-10-15T09:40:10Z</time>
      </trkpt>
      <trkpt lat="37.712471000" lon="-3.999405000">
        <ele>616.5</ele>
        <time>2020-10-15T09:40:12Z</time>
      </trkpt>
      <trkpt lat="37.712350000" lon="-3.999371000">
        <ele>616.4</ele>
        <time>2020-10-15T09:40:15Z</time>
      </trkpt>
      <trkpt lat="37.712235000" lon="-3.999329000">
        <ele>616.0</ele>
        <time>2020-10-15T09:40:16Z</time>
      </trkpt>
      <trkpt lat="37.712116000" lon="-3.999297000">
        <ele>615.5</ele>
        <time>2020-10-15T09:40:18Z</time>
      </trkpt>
      <trkpt lat="37.711997000" lon="-3.999273000">
        <ele>614.7</ele>
        <time>2020-10-15T09:40:20Z</time>
      </trkpt>
      <trkpt lat="37.711872000" lon="-3.999250000">
        <ele>614.2</ele>
        <time>2020-10-15T09:40:22Z</time>
      </trkpt>
      <trkpt lat="37.711744000" lon="-3.999237000">
        <ele>613.6</ele>
        <time>2020-10-15T09:40:24Z</time>
      </trkpt>
      <trkpt lat="37.711618000" lon="-3.999231000">
        <ele>613.1</ele>
        <time>2020-10-15T09:40:26Z</time>
      </trkpt>
      <trkpt lat="37.711479000" lon="-3.999224000">
        <ele>612.5</ele>
        <time>2020-10-15T09:40:28Z</time>
      </trkpt>
      <trkpt lat="37.711343000" lon="-3.999226000">
        <ele>611.7</ele>
        <time>2020-10-15T09:40:30Z</time>
      </trkpt>
      <trkpt lat="37.711206000" lon="-3.999234000">
        <ele>610.9</ele>
        <time>2020-10-15T09:40:32Z</time>
      </trkpt>
      <trkpt lat="37.711062000" lon="-3.999248000">
        <ele>610.2</ele>
        <time>2020-10-15T09:40:34Z</time>
      </trkpt>
      <trkpt lat="37.710916000" lon="-3.999271000">
        <ele>609.6</ele>
        <time>2020-10-15T09:40:36Z</time>
      </trkpt>
      <trkpt lat="37.710773000" lon="-3.999296000">
        <ele>609.2</ele>
        <time>2020-10-15T09:40:38Z</time>
      </trkpt>
      <trkpt lat="37.710631000" lon="-3.999328000">
        <ele>608.9</ele>
        <time>2020-10-15T09:40:40Z</time>
      </trkpt>
      <trkpt lat="37.710491000" lon="-3.999369000">
        <ele>608.7</ele>
        <time>2020-10-15T09:40:42Z</time>
      </trkpt>
      <trkpt lat="37.710354000" lon="-3.999424000">
        <ele>608.5</ele>
        <time>2020-10-15T09:40:44Z</time>
      </trkpt>
      <trkpt lat="37.710219000" lon="-3.999484000">
        <ele>608.3</ele>
        <time>2020-10-15T09:40:46Z</time>
      </trkpt>
      <trkpt lat="37.710087000" lon="-3.999550000">
        <ele>608.0</ele>
        <time>2020-10-15T09:40:48Z</time>
      </trkpt>
      <trkpt lat="37.709963000" lon="-3.999629000">
        <ele>607.7</ele>
        <time>2020-10-15T09:40:50Z</time>
      </trkpt>
      <trkpt lat="37.709835000" lon="-3.999705000">
        <ele>607.5</ele>
        <time>2020-10-15T09:40:52Z</time>
      </trkpt>
      <trkpt lat="37.709709000" lon="-3.999794000">
        <ele>607.4</ele>
        <time>2020-10-15T09:40:54Z</time>
      </trkpt>
      <trkpt lat="37.709585000" lon="-3.999886000">
        <ele>607.2</ele>
        <time>2020-10-15T09:40:56Z</time>
      </trkpt>
      <trkpt lat="37.709463000" lon="-3.999987000">
        <ele>607.0</ele>
        <time>2020-10-15T09:40:58Z</time>
      </trkpt>
      <trkpt lat="37.709340000" lon="-4.000099000">
        <ele>606.8</ele>
        <time>2020-10-15T09:41:00Z</time>
      </trkpt>
      <trkpt lat="37.709223000" lon="-4.000208000">
        <ele>606.5</ele>
        <time>2020-10-15T09:41:02Z</time>
      </trkpt>
      <trkpt lat="37.709109000" lon="-4.000326000">
        <ele>606.3</ele>
        <time>2020-10-15T09:41:04Z</time>
      </trkpt>
      <trkpt lat="37.709000000" lon="-4.000449000">
        <ele>606.0</ele>
        <time>2020-10-15T09:41:06Z</time>
      </trkpt>
      <trkpt lat="37.708901000" lon="-4.000580000">
        <ele>605.9</ele>
        <time>2020-10-15T09:41:08Z</time>
      </trkpt>
      <trkpt lat="37.708803000" lon="-4.000706000">
        <ele>606.0</ele>
        <time>2020-10-15T09:41:10Z</time>
      </trkpt>
      <trkpt lat="37.708712000" lon="-4.000834000">
        <ele>606.3</ele>
        <time>2020-10-15T09:41:12Z</time>
      </trkpt>
      <trkpt lat="37.708626000" lon="-4.000965000">
        <ele>606.7</ele>
        <time>2020-10-15T09:41:14Z</time>
      </trkpt>
      <trkpt lat="37.708550000" lon="-4.001093000">
        <ele>607.4</ele>
        <time>2020-10-15T09:41:16Z</time>
      </trkpt>
      <trkpt lat="37.708474000" lon="-4.001226000">
        <ele>608.2</ele>
        <time>2020-10-15T09:41:18Z</time>
      </trkpt>
      <trkpt lat="37.708409000" lon="-4.001356000">
        <ele>609.1</ele>
        <time>2020-10-15T09:41:20Z</time>
      </trkpt>
      <trkpt lat="37.708348000" lon="-4.001492000">
        <ele>610.0</ele>
        <time>2020-10-15T09:41:22Z</time>
      </trkpt>
      <trkpt lat="37.708288000" lon="-4.001616000">
        <ele>610.9</ele>
        <time>2020-10-15T09:41:24Z</time>
      </trkpt>
      <trkpt lat="37.708234000" lon="-4.001751000">
        <ele>611.8</ele>
        <time>2020-10-15T09:41:26Z</time>
      </trkpt>
      <trkpt lat="37.708183000" lon="-4.001882000">
        <ele>612.5</ele>
        <time>2020-10-15T09:41:28Z</time>
      </trkpt>
      <trkpt lat="37.708134000" lon="-4.002017000">
        <ele>613.1</ele>
        <time>2020-10-15T09:41:30Z</time>
      </trkpt>
      <trkpt lat="37.708098000" lon="-4.002148000">
        <ele>613.4</ele>
        <time>2020-10-15T09:41:32Z</time>
      </trkpt>
      <trkpt lat="37.708059000" lon="-4.002289000">
        <ele>613.5</ele>
        <time>2020-10-15T09:41:34Z</time>
      </trkpt>
      <trkpt lat="37.708028000" lon="-4.002430000">
        <ele>613.4</ele>
        <time>2020-10-15T09:41:36Z</time>
      </trkpt>
      <trkpt lat="37.707994000" lon="-4.002576000">
        <ele>613.0</ele>
        <time>2020-10-15T09:41:38Z</time>
      </trkpt>
      <trkpt lat="37.707969000" lon="-4.002728000">
        <ele>612.5</ele>
        <time>2020-10-15T09:41:41Z</time>
      </trkpt>
      <trkpt lat="37.707948000" lon="-4.002876000">
        <ele>611.7</ele>
        <time>2020-10-15T09:41:42Z</time>
      </trkpt>
      <trkpt lat="37.707938000" lon="-4.003015000">
        <ele>611.0</ele>
        <time>2020-10-15T09:41:44Z</time>
      </trkpt>
      <trkpt lat="37.707924000" lon="-4.003160000">
        <ele>610.3</ele>
        <time>2020-10-15T09:41:46Z</time>
      </trkpt>
      <trkpt lat="37.707921000" lon="-4.003316000">
        <ele>609.6</ele>
        <time>2020-10-15T09:41:48Z</time>
      </trkpt>
      <trkpt lat="37.707920000" lon="-4.003467000">
        <ele>609.1</ele>
        <time>2020-10-15T09:41:50Z</time>
      </trkpt>
      <trkpt lat="37.707923000" lon="-4.003625000">
        <ele>608.7</ele>
        <time>2020-10-15T09:41:52Z</time>
      </trkpt>
      <trkpt lat="37.707929000" lon="-4.003789000">
        <ele>608.5</ele>
        <time>2020-10-15T09:41:54Z</time>
      </trkpt>
      <trkpt lat="37.707944000" lon="-4.003946000">
        <ele>608.5</ele>
        <time>2020-10-15T09:41:56Z</time>
      </trkpt>
      <trkpt lat="37.707954000" lon="-4.004107000">
        <ele>608.6</ele>
        <time>2020-10-15T09:41:58Z</time>
      </trkpt>
      <trkpt lat="37.707977000" lon="-4.004263000">
        <ele>608.7</ele>
        <time>2020-10-15T09:42:00Z</time>
      </trkpt>
      <trkpt lat="37.708001000" lon="-4.004426000">
        <ele>608.8</ele>
        <time>2020-10-15T09:42:02Z</time>
      </trkpt>
      <trkpt lat="37.708035000" lon="-4.004586000">
        <ele>608.9</ele>
        <time>2020-10-15T09:42:04Z</time>
      </trkpt>
      <trkpt lat="37.708074000" lon="-4.004747000">
        <ele>608.8</ele>
        <time>2020-10-15T09:42:06Z</time>
      </trkpt>
      <trkpt lat="37.708121000" lon="-4.004907000">
        <ele>608.5</ele>
        <time>2020-10-15T09:42:08Z</time>
      </trkpt>
      <trkpt lat="37.708166000" lon="-4.005072000">
        <ele>608.1</ele>
        <time>2020-10-15T09:42:10Z</time>
      </trkpt>
      <trkpt lat="37.708214000" lon="-4.005232000">
        <ele>607.5</ele>
        <time>2020-10-15T09:42:12Z</time>
      </trkpt>
      <trkpt lat="37.708270000" lon="-4.005388000">
        <ele>606.6</ele>
        <time>2020-10-15T09:42:14Z</time>
      </trkpt>
      <trkpt lat="37.708327000" lon="-4.005545000">
        <ele>605.7</ele>
        <time>2020-10-15T09:42:16Z</time>
      </trkpt>
      <trkpt lat="37.708386000" lon="-4.005699000">
        <ele>604.7</ele>
        <time>2020-10-15T09:42:18Z</time>
      </trkpt>
      <trkpt lat="37.708452000" lon="-4.005850000">
        <ele>603.9</ele>
        <time>2020-10-15T09:42:20Z</time>
      </trkpt>
      <trkpt lat="37.708517000" lon="-4.005998000">
        <ele>603.3</ele>
        <time>2020-10-15T09:42:22Z</time>
      </trkpt>
      <trkpt lat="37.708574000" lon="-4.006155000">
        <ele>602.7</ele>
        <time>2020-10-15T09:42:24Z</time>
      </trkpt>
      <trkpt lat="37.708639000" lon="-4.006312000">
        <ele>602.3</ele>
        <time>2020-10-15T09:42:26Z</time>
      </trkpt>
      <trkpt lat="37.708700000" lon="-4.006473000">
        <ele>602.0</ele>
        <time>2020-10-15T09:42:28Z</time>
      </trkpt>
      <trkpt lat="37.708767000" lon="-4.006633000">
        <ele>601.9</ele>
        <time>2020-10-15T09:42:30Z</time>
      </trkpt>
      <trkpt lat="37.708830000" lon="-4.006793000">
        <ele>601.9</ele>
        <time>2020-10-15T09:42:32Z</time>
      </trkpt>
      <trkpt lat="37.708895000" lon="-4.006948000">
        <ele>602.1</ele>
        <time>2020-10-15T09:42:34Z</time>
      </trkpt>
      <trkpt lat="37.708960000" lon="-4.007110000">
        <ele>602.4</ele>
        <time>2020-10-15T09:42:36Z</time>
      </trkpt>
      <trkpt lat="37.709031000" lon="-4.007270000">
        <ele>602.6</ele>
        <time>2020-10-15T09:42:38Z</time>
      </trkpt>
      <trkpt lat="37.709097000" lon="-4.007436000">
        <ele>602.9</ele>
        <time>2020-10-15T09:42:40Z</time>
      </trkpt>
      <trkpt lat="37.709166000" lon="-4.007591000">
        <ele>603.0</ele>
        <time>2020-10-15T09:42:42Z</time>
      </trkpt>
      <trkpt lat="37.709230000" lon="-4.007748000">
        <ele>602.9</ele>
        <time>2020-10-15T09:42:44Z</time>
      </trkpt>
      <trkpt lat="37.709293000" lon="-4.007898000">
        <ele>602.7</ele>
        <time>2020-10-15T09:42:46Z</time>
      </trkpt>
      <trkpt lat="37.709353000" lon="-4.008054000">
        <ele>602.5</ele>
        <time>2020-10-15T09:42:48Z</time>
      </trkpt>
      <trkpt lat="37.709414000" lon="-4.008205000">
        <ele>602.3</ele>
        <time>2020-10-15T09:42:50Z</time>
      </trkpt>
      <trkpt lat="37.709480000" lon="-4.008358000">
        <ele>601.9</ele>
        <time>2020-10-15T09:42:52Z</time>
      </trkpt>
      <trkpt lat="37.709543000" lon="-4.008506000">
        <ele>601.5</ele>
        <time>2020-10-15T09:42:54Z</time>
      </trkpt>
      <trkpt lat="37.709607000" lon="-4.008660000">
        <ele>601.1</ele>
        <time>2020-10-15T09:42:56Z</time>
      </trkpt>
      <trkpt lat="37.709666000" lon="-4.008820000">
        <ele>600.7</ele>
        <time>2020-10-15T09:42:58Z</time>
      </trkpt>
      <trkpt lat="37.709733000" lon="-4.008970000">
        <ele>600.4</ele>
        <time>2020-10-15T09:43:00Z</time>
      </trkpt>
      <trkpt lat="37.709791000" lon="-4.009128000">
        <ele>600.0</ele>
        <time>2020-10-15T09:43:02Z</time>
      </trkpt>
      <trkpt lat="37.709862000" lon="-4.009291000">
        <ele>599.5</ele>
        <time>2020-10-15T09:43:04Z</time>
      </trkpt>
      <trkpt lat="37.709930000" lon="-4.009453000">
        <ele>599.1</ele>
        <time>2020-10-15T09:43:06Z</time>
      </trkpt>
      <trkpt lat="37.709997000" lon="-4.009615000">
        <ele>598.6</ele>
        <time>2020-10-15T09:43:08Z</time>
      </trkpt>
      <trkpt lat="37.710062000" lon="-4.009778000">
        <ele>598.1</ele>
        <time>2020-10-15T09:43:10Z</time>
      </trkpt>
      <trkpt lat="37.710129000" lon="-4.009939000">
        <ele>597.6</ele>
        <time>2020-10-15T09:43:12Z</time>
      </trkpt>
      <trkpt lat="37.710194000" lon="-4.010101000">
        <ele>597.2</ele>
        <time>2020-10-15T09:43:14Z</time>
      </trkpt>
      <trkpt lat="37.710254000" lon="-4.010266000">
        <ele>596.7</ele>
        <time>2020-10-15T09:43:16Z</time>
      </trkpt>
      <trkpt lat="37.710309000" lon="-4.010434000">
        <ele>596.2</ele>
        <time>2020-10-15T09:43:18Z</time>
      </trkpt>
      <trkpt lat="37.710364000" lon="-4.010599000">
        <ele>595.5</ele>
        <time>2020-10-15T09:43:20Z</time>
      </trkpt>
      <trkpt lat="37.710418000" lon="-4.010770000">
        <ele>594.9</ele>
        <time>2020-10-15T09:43:22Z</time>
      </trkpt>
      <trkpt lat="37.710462000" lon="-4.010943000">
        <ele>594.2</ele>
        <time>2020-10-15T09:43:24Z</time>
      </trkpt>
      <trkpt lat="37.710503000" lon="-4.011121000">
        <ele>593.5</ele>
        <time>2020-10-15T09:43:26Z</time>
      </trkpt>
      <trkpt lat="37.710538000" lon="-4.011301000">
        <ele>592.7</ele>
        <time>2020-10-15T09:43:28Z</time>
      </trkpt>
      <trkpt lat="37.710568000" lon="-4.011486000">
        <ele>592.1</ele>
        <time>2020-10-15T09:43:30Z</time>
      </trkpt>
      <trkpt lat="37.710592000" lon="-4.011668000">
        <ele>591.5</ele>
        <time>2020-10-15T09:43:32Z</time>
      </trkpt>
      <trkpt lat="37.710605000" lon="-4.011853000">
        <ele>590.8</ele>
        <time>2020-10-15T09:43:34Z</time>
      </trkpt>
      <trkpt lat="37.710614000" lon="-4.012039000">
        <ele>590.4</ele>
        <time>2020-10-15T09:43:36Z</time>
      </trkpt>
      <trkpt lat="37.710619000" lon="-4.012220000">
        <ele>589.9</ele>
        <time>2020-10-15T09:43:38Z</time>
      </trkpt>
      <trkpt lat="37.710622000" lon="-4.012397000">
        <ele>589.6</ele>
        <time>2020-10-15T09:43:40Z</time>
      </trkpt>
      <trkpt lat="37.710615000" lon="-4.012573000">
        <ele>589.5</ele>
        <time>2020-10-15T09:43:42Z</time>
      </trkpt>
      <trkpt lat="37.710603000" lon="-4.012736000">
        <ele>589.3</ele>
        <time>2020-10-15T09:43:44Z</time>
      </trkpt>
      <trkpt lat="37.710586000" lon="-4.012895000">
        <ele>589.2</ele>
        <time>2020-10-15T09:43:46Z</time>
      </trkpt>
      <trkpt lat="37.710564000" lon="-4.013052000">
        <ele>589.3</ele>
        <time>2020-10-15T09:43:48Z</time>
      </trkpt>
      <trkpt lat="37.710537000" lon="-4.013217000">
        <ele>589.5</ele>
        <time>2020-10-15T09:43:50Z</time>
      </trkpt>
      <trkpt lat="37.710507000" lon="-4.013378000">
        <ele>589.8</ele>
        <time>2020-10-15T09:43:52Z</time>
      </trkpt>
      <trkpt lat="37.710474000" lon="-4.013539000">
        <ele>590.3</ele>
        <time>2020-10-15T09:43:54Z</time>
      </trkpt>
      <trkpt lat="37.710433000" lon="-4.013694000">
        <ele>590.8</ele>
        <time>2020-10-15T09:43:56Z</time>
      </trkpt>
      <trkpt lat="37.710389000" lon="-4.013850000">
        <ele>591.3</ele>
        <time>2020-10-15T09:43:58Z</time>
      </trkpt>
      <trkpt lat="37.710339000" lon="-4.014005000">
        <ele>591.7</ele>
        <time>2020-10-15T09:44:00Z</time>
      </trkpt>
      <trkpt lat="37.710284000" lon="-4.014153000">
        <ele>592.2</ele>
        <time>2020-10-15T09:44:02Z</time>
      </trkpt>
      <trkpt lat="37.710228000" lon="-4.014300000">
        <ele>592.5</ele>
        <time>2020-10-15T09:44:04Z</time>
      </trkpt>
      <trkpt lat="37.710163000" lon="-4.014450000">
        <ele>592.9</ele>
        <time>2020-10-15T09:44:06Z</time>
      </trkpt>
      <trkpt lat="37.710093000" lon="-4.014599000">
        <ele>593.2</ele>
        <time>2020-10-15T09:44:08Z</time>
      </trkpt>
      <trkpt lat="37.710020000" lon="-4.014742000">
        <ele>593.5</ele>
        <time>2020-10-15T09:44:10Z</time>
      </trkpt>
      <trkpt lat="37.709941000" lon="-4.014873000">
        <ele>593.6</ele>
        <time>2020-10-15T09:44:12Z</time>
      </trkpt>
      <trkpt lat="37.709863000" lon="-4.015002000">
        <ele>593.8</ele>
        <time>2020-10-15T09:44:14Z</time>
      </trkpt>
      <trkpt lat="37.709789000" lon="-4.015123000">
        <ele>593.8</ele>
        <time>2020-10-15T09:44:16Z</time>
      </trkpt>
      <trkpt lat="37.709709000" lon="-4.015242000">
        <ele>593.7</ele>
        <time>2020-10-15T09:44:18Z</time>
      </trkpt>
      <trkpt lat="37.709623000" lon="-4.015352000">
        <ele>593.5</ele>
        <time>2020-10-15T09:44:20Z</time>
      </trkpt>
      <trkpt lat="37.709539000" lon="-4.015453000">
        <ele>593.3</ele>
        <time>2020-10-15T09:44:22Z</time>
      </trkpt>
      <trkpt lat="37.709452000" lon="-4.015558000">
        <ele>593.0</ele>
        <time>2020-10-15T09:44:24Z</time>
      </trkpt>
      <trkpt lat="37.709361000" lon="-4.015659000">
        <ele>592.6</ele>
        <time>2020-10-15T09:44:26Z</time>
      </trkpt>
      <trkpt lat="37.709258000" lon="-4.015762000">
        <ele>592.3</ele>
        <time>2020-10-15T09:44:28Z</time>
      </trkpt>
      <trkpt lat="37.709153000" lon="-4.015854000">
        <ele>592.0</ele>
        <time>2020-10-15T09:44:30Z</time>
      </trkpt>
      <trkpt lat="37.709053000" lon="-4.015945000">
        <ele>591.6</ele>
        <time>2020-10-15T09:44:32Z</time>
      </trkpt>
      <trkpt lat="37.708947000" lon="-4.016036000">
        <ele>591.2</ele>
        <time>2020-10-15T09:44:34Z</time>
      </trkpt>
      <trkpt lat="37.708843000" lon="-4.016117000">
        <ele>590.7</ele>
        <time>2020-10-15T09:44:36Z</time>
      </trkpt>
      <trkpt lat="37.708740000" lon="-4.016195000">
        <ele>590.3</ele>
        <time>2020-10-15T09:44:38Z</time>
      </trkpt>
      <trkpt lat="37.708641000" lon="-4.016257000">
        <ele>589.8</ele>
        <time>2020-10-15T09:44:40Z</time>
      </trkpt>
      <trkpt lat="37.708536000" lon="-4.016322000">
        <ele>589.4</ele>
        <time>2020-10-15T09:44:42Z</time>
      </trkpt>
      <trkpt lat="37.708436000" lon="-4.016378000">
        <ele>589.0</ele>
        <time>2020-10-15T09:44:44Z</time>
      </trkpt>
      <trkpt lat="37.708329000" lon="-4.016426000">
        <ele>588.6</ele>
        <time>2020-10-15T09:44:46Z</time>
      </trkpt>
      <trkpt lat="37.708222000" lon="-4.016485000">
        <ele>588.4</ele>
        <time>2020-10-15T09:44:48Z</time>
      </trkpt>
      <trkpt lat="37.708108000" lon="-4.016528000">
        <ele>588.1</ele>
        <time>2020-10-15T09:44:50Z</time>
      </trkpt>
      <trkpt lat="37.707989000" lon="-4.016570000">
        <ele>587.7</ele>
        <time>2020-10-15T09:44:52Z</time>
      </trkpt>
      <trkpt lat="37.707868000" lon="-4.016612000">
        <ele>587.4</ele>
        <time>2020-10-15T09:44:54Z</time>
      </trkpt>
      <trkpt lat="37.707746000" lon="-4.016647000">
        <ele>587.0</ele>
        <time>2020-10-15T09:44:56Z</time>
      </trkpt>
      <trkpt lat="37.707624000" lon="-4.016674000">
        <ele>586.5</ele>
        <time>2020-10-15T09:44:58Z</time>
      </trkpt>
      <trkpt lat="37.707501000" lon="-4.016701000">
        <ele>586.2</ele>
        <time>2020-10-15T09:45:00Z</time>
      </trkpt>
      <trkpt lat="37.707380000" lon="-4.016721000">
        <ele>585.8</ele>
        <time>2020-10-15T09:45:02Z</time>
      </trkpt>
      <trkpt lat="37.707259000" lon="-4.016732000">
        <ele>585.5</ele>
        <time>2020-10-15T09:45:04Z</time>
      </trkpt>
      <trkpt lat="37.707135000" lon="-4.016735000">
        <ele>585.3</ele>
        <time>2020-10-15T09:45:06Z</time>
      </trkpt>
      <trkpt lat="37.707011000" lon="-4.016740000">
        <ele>585.0</ele>
        <time>2020-10-15T09:45:08Z</time>
      </trkpt>
      <trkpt lat="37.706885000" lon="-4.016742000">
        <ele>584.5</ele>
        <time>2020-10-15T09:45:10Z</time>
      </trkpt>
      <trkpt lat="37.706759000" lon="-4.016733000">
        <ele>584.0</ele>
        <time>2020-10-15T09:45:12Z</time>
      </trkpt>
      <trkpt lat="37.706629000" lon="-4.016724000">
        <ele>583.4</ele>
        <time>2020-10-15T09:45:14Z</time>
      </trkpt>
      <trkpt lat="37.706500000" lon="-4.016710000">
        <ele>582.6</ele>
        <time>2020-10-15T09:45:16Z</time>
      </trkpt>
      <trkpt lat="37.706365000" lon="-4.016693000">
        <ele>582.0</ele>
        <time>2020-10-15T09:45:18Z</time>
      </trkpt>
      <trkpt lat="37.706232000" lon="-4.016683000">
        <ele>581.5</ele>
        <time>2020-10-15T09:45:20Z</time>
      </trkpt>
      <trkpt lat="37.706098000" lon="-4.016663000">
        <ele>581.0</ele>
        <time>2020-10-15T09:45:22Z</time>
      </trkpt>
      <trkpt lat="37.705967000" lon="-4.016645000">
        <ele>580.5</ele>
        <time>2020-10-15T09:45:24Z</time>
      </trkpt>
      <trkpt lat="37.705839000" lon="-4.016621000">
        <ele>580.2</ele>
        <time>2020-10-15T09:45:26Z</time>
      </trkpt>
      <trkpt lat="37.705709000" lon="-4.016610000">
        <ele>579.8</ele>
        <time>2020-10-15T09:45:28Z</time>
      </trkpt>
      <trkpt lat="37.705584000" lon="-4.016593000">
        <ele>579.4</ele>
        <time>2020-10-15T09:45:30Z</time>
      </trkpt>
      <trkpt lat="37.705455000" lon="-4.016576000">
        <ele>579.0</ele>
        <time>2020-10-15T09:45:32Z</time>
      </trkpt>
      <trkpt lat="37.705330000" lon="-4.016558000">
        <ele>578.6</ele>
        <time>2020-10-15T09:45:34Z</time>
      </trkpt>
      <trkpt lat="37.705207000" lon="-4.016545000">
        <ele>578.4</ele>
        <time>2020-10-15T09:45:36Z</time>
      </trkpt>
      <trkpt lat="37.705078000" lon="-4.016526000">
        <ele>578.2</ele>
        <time>2020-10-15T09:45:38Z</time>
      </trkpt>
      <trkpt lat="37.704950000" lon="-4.016511000">
        <ele>578.0</ele>
        <time>2020-10-15T09:45:40Z</time>
      </trkpt>
      <trkpt lat="37.704819000" lon="-4.016493000">
        <ele>577.8</ele>
        <time>2020-10-15T09:45:42Z</time>
      </trkpt>
      <trkpt lat="37.704687000" lon="-4.016477000">
        <ele>577.5</ele>
        <time>2020-10-15T09:45:44Z</time>
      </trkpt>
      <trkpt lat="37.704556000" lon="-4.016460000">
        <ele>577.3</ele>
        <time>2020-10-15T09:45:47Z</time>
      </trkpt>
      <trkpt lat="37.704433000" lon="-4.016444000">
        <ele>577.0</ele>
        <time>2020-10-15T09:45:48Z</time>
      </trkpt>
      <trkpt lat="37.704350000" lon="-4.016433000">
        <ele>576.7</ele>
        <time>2020-10-15T09:45:50Z</time>
      </trkpt>
      <trkpt lat="37.704254000" lon="-4.016424000">
        <ele>576.5</ele>
        <time>2020-10-15T09:47:40Z</time>
      </trkpt>
      <trkpt lat="37.704145000" lon="-4.016418000">
        <ele>576.5</ele>
        <time>2020-10-15T09:47:44Z</time>
      </trkpt>
      <trkpt lat="37.704040000" lon="-4.016407000">
        <ele>576.5</ele>
        <time>2020-10-15T09:47:47Z</time>
      </trkpt>
      <trkpt lat="37.703921000" lon="-4.016395000">
        <ele>576.5</ele>
        <time>2020-10-15T09:47:50Z</time>
      </trkpt>
      <trkpt lat="37.703836000" lon="-4.016387000">
        <ele>576.6</ele>
        <time>2020-10-15T09:47:52Z</time>
      </trkpt>
      <trkpt lat="37.703750000" lon="-4.016376000">
        <ele>576.6</ele>
        <time>2020-10-15T09:47:54Z</time>
      </trkpt>
      <trkpt lat="37.703666000" lon="-4.016366000">
        <ele>576.7</ele>
        <time>2020-10-15T09:47:56Z</time>
      </trkpt>
      <trkpt lat="37.703584000" lon="-4.016351000">
        <ele>576.7</ele>
        <time>2020-10-15T09:47:58Z</time>
      </trkpt>
      <trkpt lat="37.703503000" lon="-4.016340000">
        <ele>576.7</ele>
        <time>2020-10-15T09:48:00Z</time>
      </trkpt>
      <trkpt lat="37.703421000" lon="-4.016332000">
        <ele>576.6</ele>
        <time>2020-10-15T09:48:02Z</time>
      </trkpt>
      <trkpt lat="37.703336000" lon="-4.016323000">
        <ele>576.5</ele>
        <time>2020-10-15T09:48:04Z</time>
      </trkpt>
      <trkpt lat="37.703239000" lon="-4.016304000">
        <ele>576.5</ele>
        <time>2020-10-15T09:48:06Z</time>
      </trkpt>
      <trkpt lat="37.703140000" lon="-4.016285000">
        <ele>576.4</ele>
        <time>2020-10-15T09:48:08Z</time>
      </trkpt>
      <trkpt lat="37.703040000" lon="-4.016274000">
        <ele>576.3</ele>
        <time>2020-10-15T09:48:10Z</time>
      </trkpt>
      <trkpt lat="37.702938000" lon="-4.016266000">
        <ele>576.2</ele>
        <time>2020-10-15T09:48:12Z</time>
      </trkpt>
      <trkpt lat="37.702830000" lon="-4.016250000">
        <ele>576.1</ele>
        <time>2020-10-15T09:48:14Z</time>
      </trkpt>
      <trkpt lat="37.702718000" lon="-4.016234000">
        <ele>576.1</ele>
        <time>2020-10-15T09:48:16Z</time>
      </trkpt>
      <trkpt lat="37.702608000" lon="-4.016221000">
        <ele>576.1</ele>
        <time>2020-10-15T09:48:18Z</time>
      </trkpt>
      <trkpt lat="37.702499000" lon="-4.016205000">
        <ele>576.2</ele>
        <time>2020-10-15T09:48:20Z</time>
      </trkpt>
      <trkpt lat="37.702388000" lon="-4.016192000">
        <ele>576.3</ele>
        <time>2020-10-15T09:48:22Z</time>
      </trkpt>
      <trkpt lat="37.702268000" lon="-4.016179000">
        <ele>576.4</ele>
        <time>2020-10-15T09:48:24Z</time>
      </trkpt>
      <trkpt lat="37.702150000" lon="-4.016163000">
        <ele>576.5</ele>
        <time>2020-10-15T09:48:26Z</time>
      </trkpt>
      <trkpt lat="37.702030000" lon="-4.016149000">
        <ele>576.5</ele>
        <time>2020-10-15T09:48:28Z</time>
      </trkpt>
      <trkpt lat="37.701911000" lon="-4.016133000">
        <ele>576.5</ele>
        <time>2020-10-15T09:48:30Z</time>
      </trkpt>
      <trkpt lat="37.701792000" lon="-4.016122000">
        <ele>576.4</ele>
        <time>2020-10-15T09:48:32Z</time>
      </trkpt>
      <trkpt lat="37.701671000" lon="-4.016102000">
        <ele>576.3</ele>
        <time>2020-10-15T09:48:34Z</time>
      </trkpt>
      <trkpt lat="37.701548000" lon="-4.016082000">
        <ele>576.3</ele>
        <time>2020-10-15T09:48:36Z</time>
      </trkpt>
      <trkpt lat="37.701422000" lon="-4.016067000">
        <ele>576.3</ele>
        <time>2020-10-15T09:48:38Z</time>
      </trkpt>
      <trkpt lat="37.701297000" lon="-4.016043000">
        <ele>576.3</ele>
        <time>2020-10-15T09:48:40Z</time>
      </trkpt>
      <trkpt lat="37.701172000" lon="-4.016018000">
        <ele>576.4</ele>
        <time>2020-10-15T09:48:42Z</time>
      </trkpt>
      <trkpt lat="37.701043000" lon="-4.015995000">
        <ele>576.5</ele>
        <time>2020-10-15T09:48:44Z</time>
      </trkpt>
      <trkpt lat="37.700915000" lon="-4.015963000">
        <ele>576.7</ele>
        <time>2020-10-15T09:48:46Z</time>
      </trkpt>
      <trkpt lat="37.700790000" lon="-4.015927000">
        <ele>577.0</ele>
        <time>2020-10-15T09:48:48Z</time>
      </trkpt>
      <trkpt lat="37.700665000" lon="-4.015878000">
        <ele>577.4</ele>
        <time>2020-10-15T09:48:50Z</time>
      </trkpt>
      <trkpt lat="37.700534000" lon="-4.015829000">
        <ele>577.7</ele>
        <time>2020-10-15T09:48:52Z</time>
      </trkpt>
      <trkpt lat="37.700404000" lon="-4.015769000">
        <ele>578.1</ele>
        <time>2020-10-15T09:48:54Z</time>
      </trkpt>
      <trkpt lat="37.700282000" lon="-4.015706000">
        <ele>578.4</ele>
        <time>2020-10-15T09:48:56Z</time>
      </trkpt>
      <trkpt lat="37.700157000" lon="-4.015642000">
        <ele>578.4</ele>
        <time>2020-10-15T09:48:58Z</time>
      </trkpt>
      <trkpt lat="37.700037000" lon="-4.015559000">
        <ele>578.3</ele>
        <time>2020-10-15T09:49:00Z</time>
      </trkpt>
      <trkpt lat="37.699915000" lon="-4.015478000">
        <ele>578.0</ele>
        <time>2020-10-15T09:49:02Z</time>
      </trkpt>
      <trkpt lat="37.699796000" lon="-4.015385000">
        <ele>577.6</ele>
        <time>2020-10-15T09:49:04Z</time>
      </trkpt>
      <trkpt lat="37.699675000" lon="-4.015292000">
        <ele>577.1</ele>
        <time>2020-10-15T09:49:06Z</time>
      </trkpt>
      <trkpt lat="37.699557000" lon="-4.015207000">
        <ele>576.5</ele>
        <time>2020-10-15T09:49:08Z</time>
      </trkpt>
      <trkpt lat="37.699447000" lon="-4.015110000">
        <ele>575.9</ele>
        <time>2020-10-15T09:49:10Z</time>
      </trkpt>
      <trkpt lat="37.699361000" lon="-4.015016000">
        <ele>575.2</ele>
        <time>2020-10-15T09:49:12Z</time>
      </trkpt>
      <trkpt lat="37.699279000" lon="-4.014930000">
        <ele>574.5</ele>
        <time>2020-10-15T09:49:14Z</time>
      </trkpt>
      <trkpt lat="37.699193000" lon="-4.014848000">
        <ele>573.8</ele>
        <time>2020-10-15T09:49:16Z</time>
      </trkpt>
      <trkpt lat="37.699112000" lon="-4.014763000">
        <ele>573.3</ele>
        <time>2020-10-15T09:49:18Z</time>
      </trkpt>
      <trkpt lat="37.699032000" lon="-4.014682000">
        <ele>572.8</ele>
        <time>2020-10-15T09:49:20Z</time>
      </trkpt>
      <trkpt lat="37.698960000" lon="-4.014592000">
        <ele>572.5</ele>
        <time>2020-10-15T09:49:22Z</time>
      </trkpt>
      <trkpt lat="37.698885000" lon="-4.014509000">
        <ele>572.1</ele>
        <time>2020-10-15T09:49:24Z</time>
      </trkpt>
      <trkpt lat="37.698820000" lon="-4.014429000">
        <ele>571.5</ele>
        <time>2020-10-15T09:49:26Z</time>
      </trkpt>
      <trkpt lat="37.698743000" lon="-4.014332000">
        <ele>571.0</ele>
        <time>2020-10-15T09:49:29Z</time>
      </trkpt>
      <trkpt lat="37.698682000" lon="-4.014241000">
        <ele>570.3</ele>
        <time>2020-10-15T09:49:32Z</time>
      </trkpt>
      <trkpt lat="37.698607000" lon="-4.014165000">
        <ele>569.5</ele>
        <time>2020-10-15T09:51:47Z</time>
      </trkpt>
      <trkpt lat="37.698527000" lon="-4.014074000">
        <ele>568.6</ele>
        <time>2020-10-15T09:51:51Z</time>
      </trkpt>
      <trkpt lat="37.698446000" lon="-4.013972000">
        <ele>567.8</ele>
        <time>2020-10-15T09:51:54Z</time>
      </trkpt>
      <trkpt lat="37.698370000" lon="-4.013899000">
        <ele>567.0</ele>
        <time>2020-10-15T09:51:56Z</time>
      </trkpt>
      <trkpt lat="37.698299000" lon="-4.013822000">
        <ele>566.2</ele>
        <time>2020-10-15T09:51:58Z</time>
      </trkpt>
      <trkpt lat="37.698222000" lon="-4.013736000">
        <ele>565.5</ele>
        <time>2020-10-15T09:52:00Z</time>
      </trkpt>
      <trkpt lat="37.698148000" lon="-4.013650000">
        <ele>564.7</ele>
        <time>2020-10-15T09:52:02Z</time>
      </trkpt>
      <trkpt lat="37.698070000" lon="-4.013565000">
        <ele>564.2</ele>
        <time>2020-10-15T09:52:04Z</time>
      </trkpt>
      <trkpt lat="37.697993000" lon="-4.013479000">
        <ele>563.8</ele>
        <time>2020-10-15T09:52:06Z</time>
      </trkpt>
      <trkpt lat="37.697920000" lon="-4.013390000">
        <ele>563.6</ele>
        <time>2020-10-15T09:52:08Z</time>
      </trkpt>
      <trkpt lat="37.697838000" lon="-4.013303000">
        <ele>563.6</ele>
        <time>2020-10-15T09:52:10Z</time>
      </trkpt>
      <trkpt lat="37.697752000" lon="-4.013202000">
        <ele>563.7</ele>
        <time>2020-10-15T09:52:12Z</time>
      </trkpt>
      <trkpt lat="37.697664000" lon="-4.013102000">
        <ele>563.9</ele>
        <time>2020-10-15T09:52:14Z</time>
      </trkpt>
      <trkpt lat="37.697575000" lon="-4.012999000">
        <ele>564.0</ele>
        <time>2020-10-15T09:52:16Z</time>
      </trkpt>
      <trkpt lat="37.697486000" lon="-4.012899000">
        <ele>564.1</ele>
        <time>2020-10-15T09:52:18Z</time>
      </trkpt>
      <trkpt lat="37.697398000" lon="-4.012800000">
        <ele>564.2</ele>
        <time>2020-10-15T09:52:20Z</time>
      </trkpt>
      <trkpt lat="37.697312000" lon="-4.012706000">
        <ele>564.3</ele>
        <time>2020-10-15T09:52:22Z</time>
      </trkpt>
      <trkpt lat="37.697224000" lon="-4.012607000">
        <ele>564.3</ele>
        <time>2020-10-15T09:52:24Z</time>
      </trkpt>
      <trkpt lat="37.697141000" lon="-4.012506000">
        <ele>564.2</ele>
        <time>2020-10-15T09:52:26Z</time>
      </trkpt>
      <trkpt lat="37.697057000" lon="-4.012404000">
        <ele>564.1</ele>
        <time>2020-10-15T09:52:28Z</time>
      </trkpt>
      <trkpt lat="37.696968000" lon="-4.012308000">
        <ele>563.9</ele>
        <time>2020-10-15T09:52:30Z</time>
      </trkpt>
      <trkpt lat="37.696881000" lon="-4.012216000">
        <ele>563.7</ele>
        <time>2020-10-15T09:52:32Z</time>
      </trkpt>
      <trkpt lat="37.696807000" lon="-4.012117000">
        <ele>563.5</ele>
        <time>2020-10-15T09:52:34Z</time>
      </trkpt>
      <trkpt lat="37.696723000" lon="-4.012023000">
        <ele>563.4</ele>
        <time>2020-10-15T09:52:36Z</time>
      </trkpt>
      <trkpt lat="37.696635000" lon="-4.011936000">
        <ele>563.3</ele>
        <time>2020-10-15T09:52:38Z</time>
      </trkpt>
      <trkpt lat="37.696551000" lon="-4.011849000">
        <ele>563.3</ele>
        <time>2020-10-15T09:52:40Z</time>
      </trkpt>
      <trkpt lat="37.696475000" lon="-4.011759000">
        <ele>563.3</ele>
        <time>2020-10-15T09:52:42Z</time>
      </trkpt>
      <trkpt lat="37.696409000" lon="-4.011683000">
        <ele>563.3</ele>
        <time>2020-10-15T09:52:44Z</time>
      </trkpt>
      <trkpt lat="37.696345000" lon="-4.011619000">
        <ele>563.4</ele>
        <time>2020-10-15T09:52:46Z</time>
      </trkpt>
      <trkpt lat="37.696271000" lon="-4.011551000">
        <ele>563.5</ele>
        <time>2020-10-15T09:52:49Z</time>
      </trkpt>
      <trkpt lat="37.696204000" lon="-4.011481000">
        <ele>563.7</ele>
        <time>2020-10-15T09:52:53Z</time>
      </trkpt>
      <trkpt lat="37.696137000" lon="-4.011402000">
        <ele>564.0</ele>
        <time>2020-10-15T09:52:56Z</time>
      </trkpt>
      <trkpt lat="37.696033000" lon="-4.011324000">
        <ele>564.3</ele>
        <time>2020-10-15T09:52:59Z</time>
      </trkpt>
      <trkpt lat="37.695950000" lon="-4.011249000">
        <ele>564.6</ele>
        <time>2020-10-15T09:53:02Z</time>
      </trkpt>
      <trkpt lat="37.695869000" lon="-4.011181000">
        <ele>565.1</ele>
        <time>2020-10-15T09:53:03Z</time>
      </trkpt>
      <trkpt lat="37.695784000" lon="-4.011111000">
        <ele>565.5</ele>
        <time>2020-10-15T09:53:05Z</time>
      </trkpt>
      <trkpt lat="37.695698000" lon="-4.011045000">
        <ele>566.0</ele>
        <time>2020-10-15T09:53:07Z</time>
      </trkpt>
      <trkpt lat="37.695612000" lon="-4.010978000">
        <ele>566.5</ele>
        <time>2020-10-15T09:53:09Z</time>
      </trkpt>
      <trkpt lat="37.695533000" lon="-4.010916000">
        <ele>567.1</ele>
        <time>2020-10-15T09:53:11Z</time>
      </trkpt>
      <trkpt lat="37.695450000" lon="-4.010857000">
        <ele>567.7</ele>
        <time>2020-10-15T09:53:13Z</time>
      </trkpt>
      <trkpt lat="37.695363000" lon="-4.010792000">
        <ele>568.4</ele>
        <time>2020-10-15T09:53:15Z</time>
      </trkpt>
      <trkpt lat="37.695273000" lon="-4.010732000">
        <ele>569.0</ele>
        <time>2020-10-15T09:53:17Z</time>
      </trkpt>
      <trkpt lat="37.695182000" lon="-4.010677000">
        <ele>569.5</ele>
        <time>2020-10-15T09:53:19Z</time>
      </trkpt>
      <trkpt lat="37.695086000" lon="-4.010617000">
        <ele>570.1</ele>
        <time>2020-10-15T09:53:21Z</time>
      </trkpt>
      <trkpt lat="37.694988000" lon="-4.010563000">
        <ele>570.5</ele>
        <time>2020-10-15T09:53:23Z</time>
      </trkpt>
      <trkpt lat="37.694892000" lon="-4.010505000">
        <ele>570.9</ele>
        <time>2020-10-15T09:53:25Z</time>
      </trkpt>
      <trkpt lat="37.694788000" lon="-4.010442000">
        <ele>571.3</ele>
        <time>2020-10-15T09:53:27Z</time>
      </trkpt>
      <trkpt lat="37.694677000" lon="-4.010389000">
        <ele>571.5</ele>
        <time>2020-10-15T09:53:29Z</time>
      </trkpt>
      <trkpt lat="37.694559000" lon="-4.010326000">
        <ele>571.8</ele>
        <time>2020-10-15T09:53:31Z</time>
      </trkpt>
      <trkpt lat="37.694443000" lon="-4.010271000">
        <ele>572.1</ele>
        <time>2020-10-15T09:53:33Z</time>
      </trkpt>
      <trkpt lat="37.694322000" lon="-4.010214000">
        <ele>572.4</ele>
        <time>2020-10-15T09:53:35Z</time>
      </trkpt>
      <trkpt lat="37.694192000" lon="-4.010166000">
        <ele>572.5</ele>
        <time>2020-10-15T09:53:37Z</time>
      </trkpt>
      <trkpt lat="37.694073000" lon="-4.010114000">
        <ele>572.7</ele>
        <time>2020-10-15T09:53:39Z</time>
      </trkpt>
      <trkpt lat="37.693947000" lon="-4.010071000">
        <ele>572.8</ele>
        <time>2020-10-15T09:53:41Z</time>
      </trkpt>
      <trkpt lat="37.693817000" lon="-4.010020000">
        <ele>572.8</ele>
        <time>2020-10-15T09:53:43Z</time>
      </trkpt>
      <trkpt lat="37.693691000" lon="-4.009982000">
        <ele>572.7</ele>
        <time>2020-10-15T09:53:45Z</time>
      </trkpt>
      <trkpt lat="37.693558000" lon="-4.009955000">
        <ele>572.5</ele>
        <time>2020-10-15T09:53:47Z</time>
      </trkpt>
      <trkpt lat="37.693427000" lon="-4.009921000">
        <ele>572.3</ele>
        <time>2020-10-15T09:53:49Z</time>
      </trkpt>
      <trkpt lat="37.693296000" lon="-4.009889000">
        <ele>572.0</ele>
        <time>2020-10-15T09:53:51Z</time>
      </trkpt>
      <trkpt lat="37.693167000" lon="-4.009858000">
        <ele>571.6</ele>
        <time>2020-10-15T09:53:53Z</time>
      </trkpt>
      <trkpt lat="37.693029000" lon="-4.009834000">
        <ele>571.2</ele>
        <time>2020-10-15T09:53:55Z</time>
      </trkpt>
      <trkpt lat="37.692891000" lon="-4.009810000">
        <ele>570.6</ele>
        <time>2020-10-15T09:53:57Z</time>
      </trkpt>
      <trkpt lat="37.692753000" lon="-4.009790000">
        <ele>570.0</ele>
        <time>2020-10-15T09:53:59Z</time>
      </trkpt>
      <trkpt lat="37.692613000" lon="-4.009774000">
        <ele>569.3</ele>
        <time>2020-10-15T09:54:01Z</time>
      </trkpt>
      <trkpt lat="37.692479000" lon="-4.009757000">
        <ele>568.5</ele>
        <time>2020-10-15T09:54:03Z</time>
      </trkpt>
      <trkpt lat="37.692350000" lon="-4.009760000">
        <ele>567.7</ele>
        <time>2020-10-15T09:54:05Z</time>
      </trkpt>
      <trkpt lat="37.692216000" lon="-4.009755000">
        <ele>567.0</ele>
        <time>2020-10-15T09:54:07Z</time>
      </trkpt>
      <trkpt lat="37.692084000" lon="-4.009753000">
        <ele>566.4</ele>
        <time>2020-10-15T09:54:09Z</time>
      </trkpt>
      <trkpt lat="37.691953000" lon="-4.009755000">
        <ele>565.8</ele>
        <time>2020-10-15T09:54:11Z</time>
      </trkpt>
      <trkpt lat="37.691819000" lon="-4.009764000">
        <ele>565.3</ele>
        <time>2020-10-15T09:54:13Z</time>
      </trkpt>
      <trkpt lat="37.691685000" lon="-4.009769000">
        <ele>564.6</ele>
        <time>2020-10-15T09:54:15Z</time>
      </trkpt>
      <trkpt lat="37.691556000" lon="-4.009787000">
        <ele>564.0</ele>
        <time>2020-10-15T09:54:17Z</time>
      </trkpt>
      <trkpt lat="37.691428000" lon="-4.009799000">
        <ele>563.3</ele>
        <time>2020-10-15T09:54:19Z</time>
      </trkpt>
      <trkpt lat="37.691303000" lon="-4.009814000">
        <ele>562.5</ele>
        <time>2020-10-15T09:54:21Z</time>
      </trkpt>
      <trkpt lat="37.691178000" lon="-4.009836000">
        <ele>561.8</ele>
        <time>2020-10-15T09:54:23Z</time>
      </trkpt>
      <trkpt lat="37.691051000" lon="-4.009858000">
        <ele>561.2</ele>
        <time>2020-10-15T09:54:25Z</time>
      </trkpt>
      <trkpt lat="37.690929000" lon="-4.009887000">
        <ele>560.6</ele>
        <time>2020-10-15T09:54:27Z</time>
      </trkpt>
      <trkpt lat="37.690814000" lon="-4.009913000">
        <ele>560.1</ele>
        <time>2020-10-15T09:54:29Z</time>
      </trkpt>
      <trkpt lat="37.690700000" lon="-4.009941000">
        <ele>559.5</ele>
        <time>2020-10-15T09:54:31Z</time>
      </trkpt>
      <trkpt lat="37.690582000" lon="-4.009968000">
        <ele>559.0</ele>
        <time>2020-10-15T09:54:33Z</time>
      </trkpt>
      <trkpt lat="37.690466000" lon="-4.009994000">
        <ele>558.4</ele>
        <time>2020-10-15T09:54:35Z</time>
      </trkpt>
      <trkpt lat="37.690348000" lon="-4.010028000">
        <ele>557.7</ele>
        <time>2020-10-15T09:54:37Z</time>
      </trkpt>
      <trkpt lat="37.690233000" lon="-4.010059000">
        <ele>557.1</ele>
        <time>2020-10-15T09:54:39Z</time>
      </trkpt>
      <trkpt lat="37.690120000" lon="-4.010087000">
        <ele>556.5</ele>
        <time>2020-10-15T09:54:41Z</time>
      </trkpt>
      <trkpt lat="37.690009000" lon="-4.010116000">
        <ele>555.9</ele>
        <time>2020-10-15T09:54:43Z</time>
      </trkpt>
      <trkpt lat="37.689902000" lon="-4.010143000">
        <ele>555.4</ele>
        <time>2020-10-15T09:54:46Z</time>
      </trkpt>
      <trkpt lat="37.689799000" lon="-4.010168000">
        <ele>554.9</ele>
        <time>2020-10-15T09:54:47Z</time>
      </trkpt>
      <trkpt lat="37.689697000" lon="-4.010193000">
        <ele>554.6</ele>
        <time>2020-10-15T09:54:49Z</time>
      </trkpt>
      <trkpt lat="37.689595000" lon="-4.010211000">
        <ele>554.4</ele>
        <time>2020-10-15T09:54:51Z</time>
      </trkpt>
      <trkpt lat="37.689515000" lon="-4.010234000">
        <ele>554.2</ele>
        <time>2020-10-15T09:54:54Z</time>
      </trkpt>
      <trkpt lat="37.689432000" lon="-4.010256000">
        <ele>554.0</ele>
        <time>2020-10-15T09:57:18Z</time>
      </trkpt>
      <trkpt lat="37.689325000" lon="-4.010258000">
        <ele>553.9</ele>
        <time>2020-10-15T09:57:23Z</time>
      </trkpt>
      <trkpt lat="37.689227000" lon="-4.010255000">
        <ele>553.9</ele>
        <time>2020-10-15T09:57:26Z</time>
      </trkpt>
      <trkpt lat="37.689114000" lon="-4.010251000">
        <ele>554.0</ele>
        <time>2020-10-15T09:57:29Z</time>
      </trkpt>
      <trkpt lat="37.689028000" lon="-4.010266000">
        <ele>554.2</ele>
        <time>2020-10-15T09:57:31Z</time>
      </trkpt>
      <trkpt lat="37.688940000" lon="-4.010275000">
        <ele>554.4</ele>
        <time>2020-10-15T09:57:33Z</time>
      </trkpt>
      <trkpt lat="37.688845000" lon="-4.010282000">
        <ele>554.5</ele>
        <time>2020-10-15T09:57:35Z</time>
      </trkpt>
      <trkpt lat="37.688748000" lon="-4.010279000">
        <ele>554.6</ele>
        <time>2020-10-15T09:57:37Z</time>
      </trkpt>
      <trkpt lat="37.688649000" lon="-4.010273000">
        <ele>554.7</ele>
        <time>2020-10-15T09:57:39Z</time>
      </trkpt>
      <trkpt lat="37.688550000" lon="-4.010262000">
        <ele>554.8</ele>
        <time>2020-10-15T09:57:41Z</time>
      </trkpt>
      <trkpt lat="37.688456000" lon="-4.010246000">
        <ele>554.9</ele>
        <time>2020-10-15T09:57:43Z</time>
      </trkpt>
      <trkpt lat="37.688364000" lon="-4.010235000">
        <ele>555.0</ele>
        <time>2020-10-15T09:57:45Z</time>
      </trkpt>
      <trkpt lat="37.688270000" lon="-4.010209000">
        <ele>555.1</ele>
        <time>2020-10-15T09:57:47Z</time>
      </trkpt>
      <trkpt lat="37.688168000" lon="-4.010183000">
        <ele>555.2</ele>
        <time>2020-10-15T09:57:49Z</time>
      </trkpt>
      <trkpt lat="37.688066000" lon="-4.010154000">
        <ele>555.3</ele>
        <time>2020-10-15T09:57:51Z</time>
      </trkpt>
      <trkpt lat="37.687967000" lon="-4.010120000">
        <ele>555.4</ele>
        <time>2020-10-15T09:57:53Z</time>
      </trkpt>
      <trkpt lat="37.687871000" lon="-4.010079000">
        <ele>555.4</ele>
        <time>2020-10-15T09:57:55Z</time>
      </trkpt>
      <trkpt lat="37.687776000" lon="-4.010041000">
        <ele>555.4</ele>
        <time>2020-10-15T09:57:57Z</time>
      </trkpt>
      <trkpt lat="37.687686000" lon="-4.010003000">
        <ele>555.3</ele>
        <time>2020-10-15T09:57:59Z</time>
      </trkpt>
      <trkpt lat="37.687596000" lon="-4.009955000">
        <ele>555.1</ele>
        <time>2020-10-15T09:58:01Z</time>
      </trkpt>
      <trkpt lat="37.687506000" lon="-4.009909000">
        <ele>554.8</ele>
        <time>2020-10-15T09:58:03Z</time>
      </trkpt>
      <trkpt lat="37.687420000" lon="-4.009859000">
        <ele>554.5</ele>
        <time>2020-10-15T09:58:06Z</time>
      </trkpt>
      <trkpt lat="37.687332000" lon="-4.009810000">
        <ele>554.1</ele>
        <time>2020-10-15T09:58:07Z</time>
      </trkpt>
      <trkpt lat="37.687242000" lon="-4.009752000">
        <ele>553.7</ele>
        <time>2020-10-15T09:58:09Z</time>
      </trkpt>
      <trkpt lat="37.687148000" lon="-4.009692000">
        <ele>553.3</ele>
        <time>2020-10-15T09:58:11Z</time>
      </trkpt>
      <trkpt lat="37.687053000" lon="-4.009620000">
        <ele>552.8</ele>
        <time>2020-10-15T09:58:13Z</time>
      </trkpt>
      <trkpt lat="37.686952000" lon="-4.009543000">
        <ele>552.3</ele>
        <time>2020-10-15T09:58:15Z</time>
      </trkpt>
      <trkpt lat="37.686856000" lon="-4.009468000">
        <ele>551.7</ele>
        <time>2020-10-15T09:58:17Z</time>
      </trkpt>
      <trkpt lat="37.686767000" lon="-4.009374000">
        <ele>551.1</ele>
        <time>2020-10-15T09:58:19Z</time>
      </trkpt>
      <trkpt lat="37.686676000" lon="-4.009281000">
        <ele>550.5</ele>
        <time>2020-10-15T09:58:21Z</time>
      </trkpt>
      <trkpt lat="37.686580000" lon="-4.009185000">
        <ele>550.0</ele>
        <time>2020-10-15T09:58:23Z</time>
      </trkpt>
      <trkpt lat="37.686496000" lon="-4.009079000">
        <ele>549.5</ele>
        <time>2020-10-15T09:58:25Z</time>
      </trkpt>
      <trkpt lat="37.686409000" lon="-4.008968000">
        <ele>549.1</ele>
        <time>2020-10-15T09:58:27Z</time>
      </trkpt>
      <trkpt lat="37.686333000" lon="-4.008861000">
        <ele>548.6</ele>
        <time>2020-10-15T09:58:29Z</time>
      </trkpt>
      <trkpt lat="37.686257000" lon="-4.008760000">
        <ele>548.1</ele>
        <time>2020-10-15T09:58:31Z</time>
      </trkpt>
      <trkpt lat="37.686181000" lon="-4.008649000">
        <ele>547.6</ele>
        <time>2020-10-15T09:58:33Z</time>
      </trkpt>
      <trkpt lat="37.686107000" lon="-4.008541000">
        <ele>547.2</ele>
        <time>2020-10-15T09:58:35Z</time>
      </trkpt>
      <trkpt lat="37.686044000" lon="-4.008428000">
        <ele>546.7</ele>
        <time>2020-10-15T09:58:37Z</time>
      </trkpt>
      <trkpt lat="37.685979000" lon="-4.008318000">
        <ele>546.4</ele>
        <time>2020-10-15T09:58:39Z</time>
      </trkpt>
      <trkpt lat="37.685918000" lon="-4.008212000">
        <ele>546.3</ele>
        <time>2020-10-15T09:58:41Z</time>
      </trkpt>
      <trkpt lat="37.685860000" lon="-4.008103000">
        <ele>546.2</ele>
        <time>2020-10-15T09:58:43Z</time>
      </trkpt>
      <trkpt lat="37.685805000" lon="-4.007987000">
        <ele>546.2</ele>
        <time>2020-10-15T09:58:45Z</time>
      </trkpt>
      <trkpt lat="37.685750000" lon="-4.007867000">
        <ele>546.2</ele>
        <time>2020-10-15T09:58:47Z</time>
      </trkpt>
      <trkpt lat="37.685698000" lon="-4.007737000">
        <ele>546.2</ele>
        <time>2020-10-15T09:58:49Z</time>
      </trkpt>
      <trkpt lat="37.685650000" lon="-4.007609000">
        <ele>546.2</ele>
        <time>2020-10-15T09:58:51Z</time>
      </trkpt>
      <trkpt lat="37.685608000" lon="-4.007488000">
        <ele>546.2</ele>
        <time>2020-10-15T09:58:53Z</time>
      </trkpt>
      <trkpt lat="37.685566000" lon="-4.007361000">
        <ele>546.2</ele>
        <time>2020-10-15T09:58:55Z</time>
      </trkpt>
      <trkpt lat="37.685521000" lon="-4.007229000">
        <ele>546.2</ele>
        <time>2020-10-15T09:58:57Z</time>
      </trkpt>
      <trkpt lat="37.685481000" lon="-4.007101000">
        <ele>546.4</ele>
        <time>2020-10-15T09:58:59Z</time>
      </trkpt>
      <trkpt lat="37.685438000" lon="-4.006975000">
        <ele>546.5</ele>
        <time>2020-10-15T09:59:01Z</time>
      </trkpt>
      <trkpt lat="37.685395000" lon="-4.006840000">
        <ele>546.6</ele>
        <time>2020-10-15T09:59:03Z</time>
      </trkpt>
      <trkpt lat="37.685357000" lon="-4.006707000">
        <ele>546.7</ele>
        <time>2020-10-15T09:59:05Z</time>
      </trkpt>
      <trkpt lat="37.685321000" lon="-4.006583000">
        <ele>546.8</ele>
        <time>2020-10-15T09:59:07Z</time>
      </trkpt>
      <trkpt lat="37.685273000" lon="-4.006459000">
        <ele>546.9</ele>
        <time>2020-10-15T09:59:09Z</time>
      </trkpt>
      <trkpt lat="37.685231000" lon="-4.006331000">
        <ele>547.1</ele>
        <time>2020-10-15T09:59:11Z</time>
      </trkpt>
      <trkpt lat="37.685187000" lon="-4.006196000">
        <ele>547.3</ele>
        <time>2020-10-15T09:59:13Z</time>
      </trkpt>
      <trkpt lat="37.685139000" lon="-4.006056000">
        <ele>547.5</ele>
        <time>2020-10-15T09:59:15Z</time>
      </trkpt>
      <trkpt lat="37.685094000" lon="-4.005914000">
        <ele>547.8</ele>
        <time>2020-10-15T09:59:17Z</time>
      </trkpt>
      <trkpt lat="37.685052000" lon="-4.005773000">
        <ele>548.1</ele>
        <time>2020-10-15T09:59:19Z</time>
      </trkpt>
      <trkpt lat="37.685004000" lon="-4.005637000">
        <ele>548.4</ele>
        <time>2020-10-15T09:59:21Z</time>
      </trkpt>
      <trkpt lat="37.684956000" lon="-4.005497000">
        <ele>548.6</ele>
        <time>2020-10-15T09:59:23Z</time>
      </trkpt>
      <trkpt lat="37.684904000" lon="-4.005357000">
        <ele>548.8</ele>
        <time>2020-10-15T09:59:25Z</time>
      </trkpt>
      <trkpt lat="37.684852000" lon="-4.005219000">
        <ele>548.9</ele>
        <time>2020-10-15T09:59:27Z</time>
      </trkpt>
      <trkpt lat="37.684808000" lon="-4.005074000">
        <ele>548.9</ele>
        <time>2020-10-15T09:59:29Z</time>
      </trkpt>
      <trkpt lat="37.684763000" lon="-4.004931000">
        <ele>548.9</ele>
        <time>2020-10-15T09:59:31Z</time>
      </trkpt>
      <trkpt lat="37.684712000" lon="-4.004786000">
        <ele>548.8</ele>
        <time>2020-10-15T09:59:33Z</time>
      </trkpt>
      <trkpt lat="37.684665000" lon="-4.004635000">
        <ele>548.7</ele>
        <time>2020-10-15T09:59:35Z</time>
      </trkpt>
      <trkpt lat="37.684615000" lon="-4.004483000">
        <ele>548.6</ele>
        <time>2020-10-15T09:59:37Z</time>
      </trkpt>
      <trkpt lat="37.684562000" lon="-4.004340000">
        <ele>548.6</ele>
        <time>2020-10-15T09:59:39Z</time>
      </trkpt>
      <trkpt lat="37.684517000" lon="-4.004195000">
        <ele>548.5</ele>
        <time>2020-10-15T09:59:41Z</time>
      </trkpt>
      <trkpt lat="37.684470000" lon="-4.004056000">
        <ele>548.3</ele>
        <time>2020-10-15T09:59:43Z</time>
      </trkpt>
      <trkpt lat="37.684425000" lon="-4.003915000">
        <ele>548.0</ele>
        <time>2020-10-15T09:59:45Z</time>
      </trkpt>
      <trkpt lat="37.684376000" lon="-4.003768000">
        <ele>547.8</ele>
        <time>2020-10-15T09:59:47Z</time>
      </trkpt>
      <trkpt lat="37.684326000" lon="-4.003619000">
        <ele>547.7</ele>
        <time>2020-10-15T09:59:49Z</time>
      </trkpt>
      <trkpt lat="37.684277000" lon="-4.003469000">
        <ele>547.6</ele>
        <time>2020-10-15T09:59:51Z</time>
      </trkpt>
      <trkpt lat="37.684229000" lon="-4.003316000">
        <ele>547.5</ele>
        <time>2020-10-15T09:59:53Z</time>
      </trkpt>
      <trkpt lat="37.684177000" lon="-4.003171000">
        <ele>547.3</ele>
        <time>2020-10-15T09:59:55Z</time>
      </trkpt>
      <trkpt lat="37.684124000" lon="-4.003020000">
        <ele>547.0</ele>
        <time>2020-10-15T09:59:57Z</time>
      </trkpt>
      <trkpt lat="37.684074000" lon="-4.002859000">
        <ele>546.6</ele>
        <time>2020-10-15T09:59:59Z</time>
      </trkpt>
      <trkpt lat="37.684025000" lon="-4.002706000">
        <ele>546.1</ele>
        <time>2020-10-15T10:00:01Z</time>
      </trkpt>
      <trkpt lat="37.683976000" lon="-4.002562000">
        <ele>545.6</ele>
        <time>2020-10-15T10:00:03Z</time>
      </trkpt>
      <trkpt lat="37.683927000" lon="-4.002414000">
        <ele>545.2</ele>
        <time>2020-10-15T10:00:05Z</time>
      </trkpt>
      <trkpt lat="37.683883000" lon="-4.002266000">
        <ele>544.8</ele>
        <time>2020-10-15T10:00:07Z</time>
      </trkpt>
      <trkpt lat="37.683841000" lon="-4.002121000">
        <ele>544.5</ele>
        <time>2020-10-15T10:00:09Z</time>
      </trkpt>
      <trkpt lat="37.683792000" lon="-4.001977000">
        <ele>544.1</ele>
        <time>2020-10-15T10:00:11Z</time>
      </trkpt>
      <trkpt lat="37.683745000" lon="-4.001832000">
        <ele>543.7</ele>
        <time>2020-10-15T10:00:13Z</time>
      </trkpt>
      <trkpt lat="37.683695000" lon="-4.001686000">
        <ele>543.5</ele>
        <time>2020-10-15T10:00:15Z</time>
      </trkpt>
      <trkpt lat="37.683648000" lon="-4.001539000">
        <ele>543.4</ele>
        <time>2020-10-15T10:00:17Z</time>
      </trkpt>
      <trkpt lat="37.683602000" lon="-4.001391000">
        <ele>543.2</ele>
        <time>2020-10-15T10:00:19Z</time>
      </trkpt>
      <trkpt lat="37.683552000" lon="-4.001246000">
        <ele>543.1</ele>
        <time>2020-10-15T10:00:21Z</time>
      </trkpt>
      <trkpt lat="37.683504000" lon="-4.001102000">
        <ele>543.0</ele>
        <time>2020-10-15T10:00:23Z</time>
      </trkpt>
      <trkpt lat="37.683458000" lon="-4.000952000">
        <ele>542.9</ele>
        <time>2020-10-15T10:00:25Z</time>
      </trkpt>
      <trkpt lat="37.683412000" lon="-4.000807000">
        <ele>542.8</ele>
        <time>2020-10-15T10:00:27Z</time>
      </trkpt>
      <trkpt lat="37.683361000" lon="-4.000658000">
        <ele>542.6</ele>
        <time>2020-10-15T10:00:29Z</time>
      </trkpt>
      <trkpt lat="37.683309000" lon="-4.000509000">
        <ele>542.4</ele>
        <time>2020-10-15T10:00:31Z</time>
      </trkpt>
      <trkpt lat="37.683262000" lon="-4.000365000">
        <ele>542.1</ele>
        <time>2020-10-15T10:00:33Z</time>
      </trkpt>
      <trkpt lat="37.683208000" lon="-4.000215000">
        <ele>541.7</ele>
        <time>2020-10-15T10:00:35Z</time>
      </trkpt>
      <trkpt lat="37.683155000" lon="-4.000072000">
        <ele>541.3</ele>
        <time>2020-10-15T10:00:37Z</time>
      </trkpt>
      <trkpt lat="37.683099000" lon="-3.999930000">
        <ele>540.9</ele>
        <time>2020-10-15T10:00:39Z</time>
      </trkpt>
      <trkpt lat="37.683047000" lon="-3.999797000">
        <ele>540.5</ele>
        <time>2020-10-15T10:00:41Z</time>
      </trkpt>
      <trkpt lat="37.682985000" lon="-3.999672000">
        <ele>540.2</ele>
        <time>2020-10-15T10:00:43Z</time>
      </trkpt>
      <trkpt lat="37.682917000" lon="-3.999546000">
        <ele>539.9</ele>
        <time>2020-10-15T10:00:45Z</time>
      </trkpt>
      <trkpt lat="37.682845000" lon="-3.999416000">
        <ele>539.6</ele>
        <time>2020-10-15T10:00:47Z</time>
      </trkpt>
      <trkpt lat="37.682773000" lon="-3.999294000">
        <ele>539.4</ele>
        <time>2020-10-15T10:00:49Z</time>
      </trkpt>
      <trkpt lat="37.682698000" lon="-3.999170000">
        <ele>539.1</ele>
        <time>2020-10-15T10:00:51Z</time>
      </trkpt>
      <trkpt lat="37.682617000" lon="-3.999056000">
        <ele>538.9</ele>
        <time>2020-10-15T10:00:53Z</time>
      </trkpt>
      <trkpt lat="37.682536000" lon="-3.998944000">
        <ele>538.7</ele>
        <time>2020-10-15T10:00:55Z</time>
      </trkpt>
      <trkpt lat="37.682448000" lon="-3.998837000">
        <ele>538.7</ele>
        <time>2020-10-15T10:00:57Z</time>
      </trkpt>
      <trkpt lat="37.682353000" lon="-3.998733000">
        <ele>538.7</ele>
        <time>2020-10-15T10:00:59Z</time>
      </trkpt>
      <trkpt lat="37.682260000" lon="-3.998628000">
        <ele>538.5</ele>
        <time>2020-10-15T10:01:01Z</time>
      </trkpt>
      <trkpt lat="37.682165000" lon="-3.998521000">
        <ele>538.4</ele>
        <time>2020-10-15T10:01:03Z</time>
      </trkpt>
      <trkpt lat="37.682067000" lon="-3.998423000">
        <ele>538.2</ele>
        <time>2020-10-15T10:01:05Z</time>
      </trkpt>
      <trkpt lat="37.681972000" lon="-3.998333000">
        <ele>538.0</ele>
        <time>2020-10-15T10:01:07Z</time>
      </trkpt>
      <trkpt lat="37.681879000" lon="-3.998247000">
        <ele>537.9</ele>
        <time>2020-10-15T10:01:09Z</time>
      </trkpt>
      <trkpt lat="37.681787000" lon="-3.998176000">
        <ele>537.9</ele>
        <time>2020-10-15T10:01:11Z</time>
      </trkpt>
      <trkpt lat="37.681688000" lon="-3.998112000">
        <ele>537.9</ele>
        <time>2020-10-15T10:01:13Z</time>
      </trkpt>
      <trkpt lat="37.681585000" lon="-3.998044000">
        <ele>537.9</ele>
        <time>2020-10-15T10:01:15Z</time>
      </trkpt>
      <trkpt lat="37.681477000" lon="-3.997972000">
        <ele>537.9</ele>
        <time>2020-10-15T10:01:17Z</time>
      </trkpt>
      <trkpt lat="37.681368000" lon="-3.997902000">
        <ele>537.8</ele>
        <time>2020-10-15T10:01:19Z</time>
      </trkpt>
      <trkpt lat="37.681253000" lon="-3.997844000">
        <ele>537.7</ele>
        <time>2020-10-15T10:01:21Z</time>
      </trkpt>
      <trkpt lat="37.681137000" lon="-3.997781000">
        <ele>537.7</ele>
        <time>2020-10-15T10:01:23Z</time>
      </trkpt>
      <trkpt lat="37.681020000" lon="-3.997731000">
        <ele>537.8</ele>
        <time>2020-10-15T10:01:25Z</time>
      </trkpt>
      <trkpt lat="37.680919000" lon="-3.997689000">
        <ele>538.0</ele>
        <time>2020-10-15T10:01:27Z</time>
      </trkpt>
      <trkpt lat="37.680809000" lon="-3.997647000">
        <ele>538.3</ele>
        <time>2020-10-15T10:01:30Z</time>
      </trkpt>
      <trkpt lat="37.680727000" lon="-3.997627000">
        <ele>538.5</ele>
        <time>2020-10-15T10:01:32Z</time>
      </trkpt>
      <trkpt lat="37.680638000" lon="-3.997600000">
        <ele>538.5</ele>
        <time>2020-10-15T10:01:34Z</time>
      </trkpt>
      <trkpt lat="37.680532000" lon="-3.997567000">
        <ele>538.6</ele>
        <time>2020-10-15T10:01:36Z</time>
      </trkpt>
      <trkpt lat="37.680412000" lon="-3.997540000">
        <ele>538.6</ele>
        <time>2020-10-15T10:01:38Z</time>
      </trkpt>
      <trkpt lat="37.680297000" lon="-3.997524000">
        <ele>538.5</ele>
        <time>2020-10-15T10:01:40Z</time>
      </trkpt>
      <trkpt lat="37.680183000" lon="-3.997516000">
        <ele>538.5</ele>
        <time>2020-10-15T10:01:42Z</time>
      </trkpt>
      <trkpt lat="37.680077000" lon="-3.997509000">
        <ele>538.3</ele>
        <time>2020-10-15T10:01:44Z</time>
      </trkpt>
      <trkpt lat="37.679969000" lon="-3.997508000">
        <ele>538.0</ele>
        <time>2020-10-15T10:01:46Z</time>
      </trkpt>
      <trkpt lat="37.679867000" lon="-3.997505000">
        <ele>537.7</ele>
        <time>2020-10-15T10:01:48Z</time>
      </trkpt>
      <trkpt lat="37.679768000" lon="-3.997510000">
        <ele>537.3</ele>
        <time>2020-10-15T10:01:50Z</time>
      </trkpt>
      <trkpt lat="37.679664000" lon="-3.997510000">
        <ele>536.7</ele>
        <time>2020-10-15T10:01:52Z</time>
      </trkpt>
      <trkpt lat="37.679547000" lon="-3.997522000">
        <ele>536.2</ele>
        <time>2020-10-15T10:01:54Z</time>
      </trkpt>
      <trkpt lat="37.679423000" lon="-3.997539000">
        <ele>535.7</ele>
        <time>2020-10-15T10:01:56Z</time>
      </trkpt>
      <trkpt lat="37.679301000" lon="-3.997564000">
        <ele>535.3</ele>
        <time>2020-10-15T10:01:58Z</time>
      </trkpt>
      <trkpt lat="37.679182000" lon="-3.997584000">
        <ele>534.9</ele>
        <time>2020-10-15T10:02:00Z</time>
      </trkpt>
      <trkpt lat="37.679063000" lon="-3.997616000">
        <ele>534.6</ele>
        <time>2020-10-15T10:02:02Z</time>
      </trkpt>
      <trkpt lat="37.678944000" lon="-3.997657000">
        <ele>534.4</ele>
        <time>2020-10-15T10:02:04Z</time>
      </trkpt>
      <trkpt lat="37.678822000" lon="-3.997704000">
        <ele>534.3</ele>
        <time>2020-10-15T10:02:06Z</time>
      </trkpt>
      <trkpt lat="37.678700000" lon="-3.997756000">
        <ele>534.3</ele>
        <time>2020-10-15T10:02:08Z</time>
      </trkpt>
      <trkpt lat="37.678580000" lon="-3.997807000">
        <ele>534.3</ele>
        <time>2020-10-15T10:02:10Z</time>
      </trkpt>
      <trkpt lat="37.678460000" lon="-3.997867000">
        <ele>534.4</ele>
        <time>2020-10-15T10:02:12Z</time>
      </trkpt>
      <trkpt lat="37.678344000" lon="-3.997932000">
        <ele>534.5</ele>
        <time>2020-10-15T10:02:14Z</time>
      </trkpt>
      <trkpt lat="37.678225000" lon="-3.997999000">
        <ele>534.5</ele>
        <time>2020-10-15T10:02:16Z</time>
      </trkpt>
      <trkpt lat="37.678107000" lon="-3.998078000">
        <ele>534.4</ele>
        <time>2020-10-15T10:02:18Z</time>
      </trkpt>
      <trkpt lat="37.677991000" lon="-3.998165000">
        <ele>534.3</ele>
        <time>2020-10-15T10:02:21Z</time>
      </trkpt>
      <trkpt lat="37.677878000" lon="-3.998248000">
        <ele>534.0</ele>
        <time>2020-10-15T10:02:22Z</time>
      </trkpt>
      <trkpt lat="37.677769000" lon="-3.998335000">
        <ele>533.6</ele>
        <time>2020-10-15T10:02:24Z</time>
      </trkpt>
      <trkpt lat="37.677661000" lon="-3.998433000">
        <ele>533.3</ele>
        <time>2020-10-15T10:02:26Z</time>
      </trkpt>
      <trkpt lat="37.677556000" lon="-3.998534000">
        <ele>532.8</ele>
        <time>2020-10-15T10:02:28Z</time>
      </trkpt>
      <trkpt lat="37.677460000" lon="-3.998630000">
        <ele>532.3</ele>
        <time>2020-10-15T10:02:30Z</time>
      </trkpt>
      <trkpt lat="37.677362000" lon="-3.998728000">
        <ele>531.8</ele>
        <time>2020-10-15T10:02:32Z</time>
      </trkpt>
      <trkpt lat="37.677270000" lon="-3.998831000">
        <ele>531.5</ele>
        <time>2020-10-15T10:02:34Z</time>
      </trkpt>
      <trkpt lat="37.677174000" lon="-3.998938000">
        <ele>531.2</ele>
        <time>2020-10-15T10:02:36Z</time>
      </trkpt>
      <trkpt lat="37.677081000" lon="-3.999046000">
        <ele>531.0</ele>
        <time>2020-10-15T10:02:38Z</time>
      </trkpt>
      <trkpt lat="37.676986000" lon="-3.999149000">
        <ele>530.9</ele>
        <time>2020-10-15T10:02:40Z</time>
      </trkpt>
      <trkpt lat="37.676889000" lon="-3.999255000">
        <ele>530.9</ele>
        <time>2020-10-15T10:02:42Z</time>
      </trkpt>
      <trkpt lat="37.676790000" lon="-3.999362000">
        <ele>531.1</ele>
        <time>2020-10-15T10:02:44Z</time>
      </trkpt>
      <trkpt lat="37.676685000" lon="-3.999468000">
        <ele>531.4</ele>
        <time>2020-10-15T10:02:46Z</time>
      </trkpt>
      <trkpt lat="37.676587000" lon="-3.999571000">
        <ele>531.6</ele>
        <time>2020-10-15T10:02:48Z</time>
      </trkpt>
      <trkpt lat="37.676487000" lon="-3.999681000">
        <ele>531.9</ele>
        <time>2020-10-15T10:02:50Z</time>
      </trkpt>
      <trkpt lat="37.676383000" lon="-3.999788000">
        <ele>532.2</ele>
        <time>2020-10-15T10:02:52Z</time>
      </trkpt>
      <trkpt lat="37.676284000" lon="-3.999893000">
        <ele>532.4</ele>
        <time>2020-10-15T10:02:54Z</time>
      </trkpt>
      <trkpt lat="37.676182000" lon="-4.000005000">
        <ele>532.4</ele>
        <time>2020-10-15T10:02:56Z</time>
      </trkpt>
      <trkpt lat="37.676081000" lon="-4.000101000">
        <ele>532.3</ele>
        <time>2020-10-15T10:02:58Z</time>
      </trkpt>
      <trkpt lat="37.675985000" lon="-4.000207000">
        <ele>532.1</ele>
        <time>2020-10-15T10:03:00Z</time>
      </trkpt>
      <trkpt lat="37.675885000" lon="-4.000308000">
        <ele>531.9</ele>
        <time>2020-10-15T10:03:02Z</time>
      </trkpt>
      <trkpt lat="37.675784000" lon="-4.000409000">
        <ele>531.5</ele>
        <time>2020-10-15T10:03:04Z</time>
      </trkpt>
      <trkpt lat="37.675685000" lon="-4.000511000">
        <ele>531.2</ele>
        <time>2020-10-15T10:03:06Z</time>
      </trkpt>
      <trkpt lat="37.675586000" lon="-4.000617000">
        <ele>530.7</ele>
        <time>2020-10-15T10:03:08Z</time>
      </trkpt>
      <trkpt lat="37.675485000" lon="-4.000722000">
        <ele>530.3</ele>
        <time>2020-10-15T10:03:10Z</time>
      </trkpt>
      <trkpt lat="37.675383000" lon="-4.000832000">
        <ele>529.8</ele>
        <time>2020-10-15T10:03:12Z</time>
      </trkpt>
      <trkpt lat="37.675289000" lon="-4.000935000">
        <ele>529.5</ele>
        <time>2020-10-15T10:03:14Z</time>
      </trkpt>
      <trkpt lat="37.675194000" lon="-4.001038000">
        <ele>529.1</ele>
        <time>2020-10-15T10:03:16Z</time>
      </trkpt>
      <trkpt lat="37.675103000" lon="-4.001135000">
        <ele>528.8</ele>
        <time>2020-10-15T10:03:18Z</time>
      </trkpt>
      <trkpt lat="37.675014000" lon="-4.001234000">
        <ele>528.5</ele>
        <time>2020-10-15T10:03:20Z</time>
      </trkpt>
      <trkpt lat="37.674923000" lon="-4.001328000">
        <ele>528.3</ele>
        <time>2020-10-15T10:03:22Z</time>
      </trkpt>
      <trkpt lat="37.674831000" lon="-4.001416000">
        <ele>527.9</ele>
        <time>2020-10-15T10:03:24Z</time>
      </trkpt>
      <trkpt lat="37.674735000" lon="-4.001517000">
        <ele>527.6</ele>
        <time>2020-10-15T10:03:26Z</time>
      </trkpt>
      <trkpt lat="37.674638000" lon="-4.001624000">
        <ele>527.4</ele>
        <time>2020-10-15T10:03:28Z</time>
      </trkpt>
      <trkpt lat="37.674542000" lon="-4.001730000">
        <ele>527.1</ele>
        <time>2020-10-15T10:03:30Z</time>
      </trkpt>
      <trkpt lat="37.674441000" lon="-4.001835000">
        <ele>526.8</ele>
        <time>2020-10-15T10:03:32Z</time>
      </trkpt>
      <trkpt lat="37.674343000" lon="-4.001934000">
        <ele>526.5</ele>
        <time>2020-10-15T10:03:34Z</time>
      </trkpt>
      <trkpt lat="37.674241000" lon="-4.002031000">
        <ele>526.1</ele>
        <time>2020-10-15T10:03:36Z</time>
      </trkpt>
      <trkpt lat="37.674137000" lon="-4.002139000">
        <ele>525.6</ele>
        <time>2020-10-15T10:03:38Z</time>
      </trkpt>
      <trkpt lat="37.674031000" lon="-4.002246000">
        <ele>525.2</ele>
        <time>2020-10-15T10:03:40Z</time>
      </trkpt>
      <trkpt lat="37.673930000" lon="-4.002346000">
        <ele>524.7</ele>
        <time>2020-10-15T10:03:42Z</time>
      </trkpt>
      <trkpt lat="37.673832000" lon="-4.002453000">
        <ele>524.4</ele>
        <time>2020-10-15T10:03:44Z</time>
      </trkpt>
      <trkpt lat="37.673737000" lon="-4.002558000">
        <ele>524.2</ele>
        <time>2020-10-15T10:03:46Z</time>
      </trkpt>
      <trkpt lat="37.673647000" lon="-4.002664000">
        <ele>524.0</ele>
        <time>2020-10-15T10:03:48Z</time>
      </trkpt>
      <trkpt lat="37.673548000" lon="-4.002768000">
        <ele>523.8</ele>
        <time>2020-10-15T10:03:50Z</time>
      </trkpt>
      <trkpt lat="37.673446000" lon="-4.002873000">
        <ele>523.7</ele>
        <time>2020-10-15T10:03:52Z</time>
      </trkpt>
      <trkpt lat="37.673349000" lon="-4.002970000">
        <ele>523.5</ele>
        <time>2020-10-15T10:03:54Z</time>
      </trkpt>
      <trkpt lat="37.673253000" lon="-4.003070000">
        <ele>523.4</ele>
        <time>2020-10-15T10:03:56Z</time>
      </trkpt>
      <trkpt lat="37.673162000" lon="-4.003171000">
        <ele>523.0</ele>
        <time>2020-10-15T10:03:58Z</time>
      </trkpt>
      <trkpt lat="37.673070000" lon="-4.003274000">
        <ele>522.6</ele>
        <time>2020-10-15T10:04:00Z</time>
      </trkpt>
      <trkpt lat="37.672968000" lon="-4.003379000">
        <ele>522.2</ele>
        <time>2020-10-15T10:04:02Z</time>
      </trkpt>
      <trkpt lat="37.672874000" lon="-4.003481000">
        <ele>521.6</ele>
        <time>2020-10-15T10:04:04Z</time>
      </trkpt>
      <trkpt lat="37.672779000" lon="-4.003580000">
        <ele>521.0</ele>
        <time>2020-10-15T10:04:06Z</time>
      </trkpt>
      <trkpt lat="37.672689000" lon="-4.003683000">
        <ele>520.2</ele>
        <time>2020-10-15T10:04:08Z</time>
      </trkpt>
      <trkpt lat="37.672609000" lon="-4.003772000">
        <ele>519.4</ele>
        <time>2020-10-15T10:04:10Z</time>
      </trkpt>
      <trkpt lat="37.672542000" lon="-4.003860000">
        <ele>518.5</ele>
        <time>2020-10-15T10:04:13Z</time>
      </trkpt>
      <trkpt lat="37.672479000" lon="-4.003940000">
        <ele>517.5</ele>
        <time>2020-10-15T10:04:48Z</time>
      </trkpt>
      <trkpt lat="37.672400000" lon="-4.004003000">
        <ele>516.5</ele>
        <time>2020-10-15T10:04:53Z</time>
      </trkpt>
      <trkpt lat="37.672333000" lon="-4.004070000">
        <ele>515.6</ele>
        <time>2020-10-15T10:04:56Z</time>
      </trkpt>
      <trkpt lat="37.672254000" lon="-4.004136000">
        <ele>514.8</ele>
        <time>2020-10-15T10:04:59Z</time>
      </trkpt>
      <trkpt lat="37.672168000" lon="-4.004207000">
        <ele>514.0</ele>
        <time>2020-10-15T10:05:02Z</time>
      </trkpt>
      <trkpt lat="37.672082000" lon="-4.004285000">
        <ele>513.4</ele>
        <time>2020-10-15T10:05:05Z</time>
      </trkpt>
      <trkpt lat="37.671997000" lon="-4.004382000">
        <ele>512.7</ele>
        <time>2020-10-15T10:05:08Z</time>
      </trkpt>
      <trkpt lat="37.671904000" lon="-4.004477000">
        <ele>512.3</ele>
        <time>2020-10-15T10:05:11Z</time>
      </trkpt>
      <trkpt lat="37.671842000" lon="-4.004545000">
        <ele>512.1</ele>
        <time>2020-10-15T10:05:13Z</time>
      </trkpt>
      <trkpt lat="37.671759000" lon="-4.004653000">
        <ele>512.1</ele>
        <time>2020-10-15T10:05:16Z</time>
      </trkpt>
      <trkpt lat="37.671698000" lon="-4.004722000">
        <ele>512.2</ele>
        <time>2020-10-15T10:05:18Z</time>
      </trkpt>
      <trkpt lat="37.671634000" lon="-4.004787000">
        <ele>512.4</ele>
        <time>2020-10-15T10:05:20Z</time>
      </trkpt>
      <trkpt lat="37.671540000" lon="-4.004883000">
        <ele>512.6</ele>
        <time>2020-10-15T10:05:23Z</time>
      </trkpt>
      <trkpt lat="37.671476000" lon="-4.004950000">
        <ele>513.0</ele>
        <time>2020-10-15T10:05:25Z</time>
      </trkpt>
      <trkpt lat="37.671409000" lon="-4.005019000">
        <ele>513.5</ele>
        <time>2020-10-15T10:05:27Z</time>
      </trkpt>
      <trkpt lat="37.671337000" lon="-4.005090000">
        <ele>513.9</ele>
        <time>2020-10-15T10:05:29Z</time>
      </trkpt>
      <trkpt lat="37.671269000" lon="-4.005159000">
        <ele>514.3</ele>
        <time>2020-10-15T10:05:31Z</time>
      </trkpt>
      <trkpt lat="37.671200000" lon="-4.005227000">
        <ele>514.6</ele>
        <time>2020-10-15T10:05:33Z</time>
      </trkpt>
      <trkpt lat="37.671132000" lon="-4.005295000">
        <ele>515.0</ele>
        <time>2020-10-15T10:05:35Z</time>
      </trkpt>
      <trkpt lat="37.671068000" lon="-4.005362000">
        <ele>515.3</ele>
        <time>2020-10-15T10:05:37Z</time>
      </trkpt>
      <trkpt lat="37.670992000" lon="-4.005429000">
        <ele>515.5</ele>
        <time>2020-10-15T10:05:40Z</time>
      </trkpt>
      <trkpt lat="37.670915000" lon="-4.005523000">
        <ele>516.0</ele>
        <time>2020-10-15T10:05:44Z</time>
      </trkpt>
      <trkpt lat="37.670846000" lon="-4.005605000">
        <ele>516.7</ele>
        <time>2020-10-15T10:05:47Z</time>
      </trkpt>
      <trkpt lat="37.670769000" lon="-4.005696000">
        <ele>517.5</ele>
        <time>2020-10-15T10:05:50Z</time>
      </trkpt>
      <trkpt lat="37.670691000" lon="-4.005796000">
        <ele>518.5</ele>
        <time>2020-10-15T10:05:53Z</time>
      </trkpt>
      <trkpt lat="37.670614000" lon="-4.005907000">
        <ele>519.5</ele>
        <time>2020-10-15T10:05:56Z</time>
      </trkpt>
      <trkpt lat="37.670535000" lon="-4.006020000">
        <ele>520.8</ele>
        <time>2020-10-15T10:05:59Z</time>
      </trkpt>
      <trkpt lat="37.670463000" lon="-4.006131000">
        <ele>522.1</ele>
        <time>2020-10-15T10:06:02Z</time>
      </trkpt>
      <trkpt lat="37.670391000" lon="-4.006240000">
        <ele>523.5</ele>
        <time>2020-10-15T10:06:05Z</time>
      </trkpt>
      <trkpt lat="37.670331000" lon="-4.006355000">
        <ele>524.7</ele>
        <time>2020-10-15T10:06:08Z</time>
      </trkpt>
      <trkpt lat="37.670268000" lon="-4.006469000">
        <ele>525.8</ele>
        <time>2020-10-15T10:06:11Z</time>
      </trkpt>
      <trkpt lat="37.670202000" lon="-4.006580000">
        <ele>526.6</ele>
        <time>2020-10-15T10:06:14Z</time>
      </trkpt>
      <trkpt lat="37.670140000" lon="-4.006709000">
        <ele>527.3</ele>
        <time>2020-10-15T10:06:17Z</time>
      </trkpt>
      <trkpt lat="37.670095000" lon="-4.006795000">
        <ele>527.6</ele>
        <time>2020-10-15T10:06:19Z</time>
      </trkpt>
      <trkpt lat="37.670058000" lon="-4.006887000">
        <ele>527.7</ele>
        <time>2020-10-15T10:06:21Z</time>
      </trkpt>
      <trkpt lat="37.670025000" lon="-4.006984000">
        <ele>527.7</ele>
        <time>2020-10-15T10:06:23Z</time>
      </trkpt>
      <trkpt lat="37.669993000" lon="-4.007080000">
        <ele>527.5</ele>
        <time>2020-10-15T10:06:25Z</time>
      </trkpt>
      <trkpt lat="37.669962000" lon="-4.007175000">
        <ele>527.3</ele>
        <time>2020-10-15T10:06:27Z</time>
      </trkpt>
      <trkpt lat="37.669934000" lon="-4.007273000">
        <ele>526.9</ele>
        <time>2020-10-15T10:06:29Z</time>
      </trkpt>
      <trkpt lat="37.669906000" lon="-4.007374000">
        <ele>526.5</ele>
        <time>2020-10-15T10:06:31Z</time>
      </trkpt>
      <trkpt lat="37.669878000" lon="-4.007472000">
        <ele>526.3</ele>
        <time>2020-10-15T10:06:33Z</time>
      </trkpt>
      <trkpt lat="37.669852000" lon="-4.007571000">
        <ele>526.0</ele>
        <time>2020-10-15T10:06:35Z</time>
      </trkpt>
      <trkpt lat="37.669824000" lon="-4.007721000">
        <ele>525.7</ele>
        <time>2020-10-15T10:06:38Z</time>
      </trkpt>
      <trkpt lat="37.669810000" lon="-4.007824000">
        <ele>525.4</ele>
        <time>2020-10-15T10:06:40Z</time>
      </trkpt>
      <trkpt lat="37.669795000" lon="-4.007926000">
        <ele>524.9</ele>
        <time>2020-10-15T10:06:42Z</time>
      </trkpt>
      <trkpt lat="37.669774000" lon="-4.008073000">
        <ele>524.5</ele>
        <time>2020-10-15T10:06:45Z</time>
      </trkpt>
      <trkpt lat="37.669764000" lon="-4.008215000">
        <ele>523.9</ele>
        <time>2020-10-15T10:06:48Z</time>
      </trkpt>
      <trkpt lat="37.669750000" lon="-4.008362000">
        <ele>523.3</ele>
        <time>2020-10-15T10:06:51Z</time>
      </trkpt>
      <trkpt lat="37.669742000" lon="-4.008510000">
        <ele>522.6</ele>
        <time>2020-10-15T10:06:54Z</time>
      </trkpt>
      <trkpt lat="37.669738000" lon="-4.008662000">
        <ele>522.2</ele>
        <time>2020-10-15T10:06:57Z</time>
      </trkpt>
      <trkpt lat="37.669732000" lon="-4.008815000">
        <ele>521.8</ele>
        <time>2020-10-15T10:07:00Z</time>
      </trkpt>
      <trkpt lat="37.669732000" lon="-4.008965000">
        <ele>521.5</ele>
        <time>2020-10-15T10:07:03Z</time>
      </trkpt>
      <trkpt lat="37.669732000" lon="-4.009068000">
        <ele>521.5</ele>
        <time>2020-10-15T10:07:05Z</time>
      </trkpt>
      <trkpt lat="37.669731000" lon="-4.009172000">
        <ele>521.6</ele>
        <time>2020-10-15T10:07:07Z</time>
      </trkpt>
      <trkpt lat="37.669729000" lon="-4.009276000">
        <ele>522.1</ele>
        <time>2020-10-15T10:07:09Z</time>
      </trkpt>
      <trkpt lat="37.669729000" lon="-4.009378000">
        <ele>522.7</ele>
        <time>2020-10-15T10:07:11Z</time>
      </trkpt>
      <trkpt lat="37.669728000" lon="-4.009527000">
        <ele>523.5</ele>
        <time>2020-10-15T10:07:14Z</time>
      </trkpt>
      <trkpt lat="37.669731000" lon="-4.009680000">
        <ele>524.5</ele>
        <time>2020-10-15T10:07:17Z</time>
      </trkpt>
      <trkpt lat="37.669732000" lon="-4.009833000">
        <ele>525.7</ele>
        <time>2020-10-15T10:07:20Z</time>
      </trkpt>
      <trkpt lat="37.669740000" lon="-4.009986000">
        <ele>526.9</ele>
        <time>2020-10-15T10:07:23Z</time>
      </trkpt>
      <trkpt lat="37.669738000" lon="-4.010092000">
        <ele>528.0</ele>
        <time>2020-10-15T10:07:25Z</time>
      </trkpt>
      <trkpt lat="37.669741000" lon="-4.010198000">
        <ele>529.0</ele>
        <time>2020-10-15T10:07:27Z</time>
      </trkpt>
      <trkpt lat="37.669745000" lon="-4.010301000">
        <ele>529.8</ele>
        <time>2020-10-15T10:07:29Z</time>
      </trkpt>
      <trkpt lat="37.669747000" lon="-4.010456000">
        <ele>530.5</ele>
        <time>2020-10-15T10:07:32Z</time>
      </trkpt>
      <trkpt lat="37.669745000" lon="-4.010561000">
        <ele>530.7</ele>
        <time>2020-10-15T10:07:34Z</time>
      </trkpt>
      <trkpt lat="37.669745000" lon="-4.010669000">
        <ele>530.7</ele>
        <time>2020-10-15T10:07:36Z</time>
      </trkpt>
      <trkpt lat="37.669749000" lon="-4.010774000">
        <ele>530.5</ele>
        <time>2020-10-15T10:07:38Z</time>
      </trkpt>
      <trkpt lat="37.669753000" lon="-4.010880000">
        <ele>530.2</ele>
        <time>2020-10-15T10:07:40Z</time>
      </trkpt>
      <trkpt lat="37.669751000" lon="-4.010986000">
        <ele>529.6</ele>
        <time>2020-10-15T10:07:42Z</time>
      </trkpt>
      <trkpt lat="37.669751000" lon="-4.011092000">
        <ele>529.0</ele>
        <time>2020-10-15T10:07:44Z</time>
      </trkpt>
      <trkpt lat="37.669753000" lon="-4.011199000">
        <ele>528.3</ele>
        <time>2020-10-15T10:07:46Z</time>
      </trkpt>
      <trkpt lat="37.669756000" lon="-4.011308000">
        <ele>527.5</ele>
        <time>2020-10-15T10:07:48Z</time>
      </trkpt>
      <trkpt lat="37.669754000" lon="-4.011419000">
        <ele>526.8</ele>
        <time>2020-10-15T10:07:50Z</time>
      </trkpt>
      <trkpt lat="37.669756000" lon="-4.011526000">
        <ele>526.1</ele>
        <time>2020-10-15T10:07:52Z</time>
      </trkpt>
      <trkpt lat="37.669751000" lon="-4.011640000">
        <ele>525.5</ele>
        <time>2020-10-15T10:07:54Z</time>
      </trkpt>
      <trkpt lat="37.669753000" lon="-4.011762000">
        <ele>524.9</ele>
        <time>2020-10-15T10:07:56Z</time>
      </trkpt>
      <trkpt lat="37.669752000" lon="-4.011875000">
        <ele>524.5</ele>
        <time>2020-10-15T10:07:58Z</time>
      </trkpt>
      <trkpt lat="37.669753000" lon="-4.011993000">
        <ele>524.1</ele>
        <time>2020-10-15T10:08:00Z</time>
      </trkpt>
      <trkpt lat="37.669748000" lon="-4.012112000">
        <ele>523.9</ele>
        <time>2020-10-15T10:08:02Z</time>
      </trkpt>
      <trkpt lat="37.669746000" lon="-4.012232000">
        <ele>523.8</ele>
        <time>2020-10-15T10:08:04Z</time>
      </trkpt>
      <trkpt lat="37.669746000" lon="-4.012354000">
        <ele>523.8</ele>
        <time>2020-10-15T10:08:06Z</time>
      </trkpt>
      <trkpt lat="37.669737000" lon="-4.012468000">
        <ele>524.0</ele>
        <time>2020-10-15T10:08:08Z</time>
      </trkpt>
      <trkpt lat="37.669743000" lon="-4.012580000">
        <ele>524.3</ele>
        <time>2020-10-15T10:08:10Z</time>
      </trkpt>
      <trkpt lat="37.669746000" lon="-4.012685000">
        <ele>524.6</ele>
        <time>2020-10-15T10:08:12Z</time>
      </trkpt>
      <trkpt lat="37.669756000" lon="-4.012801000">
        <ele>525.0</ele>
        <time>2020-10-15T10:08:14Z</time>
      </trkpt>
      <trkpt lat="37.669763000" lon="-4.012911000">
        <ele>525.5</ele>
        <time>2020-10-15T10:08:16Z</time>
      </trkpt>
      <trkpt lat="37.669768000" lon="-4.013025000">
        <ele>526.1</ele>
        <time>2020-10-15T10:08:18Z</time>
      </trkpt>
      <trkpt lat="37.669770000" lon="-4.013135000">
        <ele>526.8</ele>
        <time>2020-10-15T10:08:20Z</time>
      </trkpt>
      <trkpt lat="37.669781000" lon="-4.013248000">
        <ele>527.6</ele>
        <time>2020-10-15T10:08:22Z</time>
      </trkpt>
      <trkpt lat="37.669791000" lon="-4.013358000">
        <ele>528.5</ele>
        <time>2020-10-15T10:08:24Z</time>
      </trkpt>
      <trkpt lat="37.669802000" lon="-4.013471000">
        <ele>529.4</ele>
        <time>2020-10-15T10:08:26Z</time>
      </trkpt>
      <trkpt lat="37.669818000" lon="-4.013584000">
        <ele>530.3</ele>
        <time>2020-10-15T10:08:28Z</time>
      </trkpt>
      <trkpt lat="37.669837000" lon="-4.013699000">
        <ele>531.1</ele>
        <time>2020-10-15T10:08:30Z</time>
      </trkpt>
      <trkpt lat="37.669851000" lon="-4.013814000">
        <ele>531.7</ele>
        <time>2020-10-15T10:08:32Z</time>
      </trkpt>
      <trkpt lat="37.669866000" lon="-4.013927000">
        <ele>532.3</ele>
        <time>2020-10-15T10:08:34Z</time>
      </trkpt>
      <trkpt lat="37.669884000" lon="-4.014041000">
        <ele>532.8</ele>
        <time>2020-10-15T10:08:36Z</time>
      </trkpt>
      <trkpt lat="37.669902000" lon="-4.014146000">
        <ele>533.3</ele>
        <time>2020-10-15T10:08:38Z</time>
      </trkpt>
      <trkpt lat="37.669919000" lon="-4.014262000">
        <ele>533.6</ele>
        <time>2020-10-15T10:08:40Z</time>
      </trkpt>
      <trkpt lat="37.669938000" lon="-4.014386000">
        <ele>533.8</ele>
        <time>2020-10-15T10:08:42Z</time>
      </trkpt>
      <trkpt lat="37.669948000" lon="-4.014514000">
        <ele>533.8</ele>
        <time>2020-10-15T10:08:44Z</time>
      </trkpt>
      <trkpt lat="37.669961000" lon="-4.014640000">
        <ele>533.6</ele>
        <time>2020-10-15T10:08:46Z</time>
      </trkpt>
      <trkpt lat="37.669974000" lon="-4.014755000">
        <ele>533.3</ele>
        <time>2020-10-15T10:08:48Z</time>
      </trkpt>
      <trkpt lat="37.669990000" lon="-4.014883000">
        <ele>532.6</ele>
        <time>2020-10-15T10:08:50Z</time>
      </trkpt>
      <trkpt lat="37.670003000" lon="-4.015006000">
        <ele>531.8</ele>
        <time>2020-10-15T10:08:52Z</time>
      </trkpt>
      <trkpt lat="37.670011000" lon="-4.015124000">
        <ele>531.0</ele>
        <time>2020-10-15T10:08:54Z</time>
      </trkpt>
      <trkpt lat="37.670028000" lon="-4.015225000">
        <ele>529.9</ele>
        <time>2020-10-15T10:08:56Z</time>
      </trkpt>
      <trkpt lat="37.670041000" lon="-4.015345000">
        <ele>528.7</ele>
        <time>2020-10-15T10:08:58Z</time>
      </trkpt>
      <trkpt lat="37.670048000" lon="-4.015475000">
        <ele>527.5</ele>
        <time>2020-10-15T10:09:00Z</time>
      </trkpt>
      <trkpt lat="37.670069000" lon="-4.015587000">
        <ele>526.1</ele>
        <time>2020-10-15T10:09:02Z</time>
      </trkpt>
      <trkpt lat="37.670086000" lon="-4.015699000">
        <ele>524.8</ele>
        <time>2020-10-15T10:09:04Z</time>
      </trkpt>
      <trkpt lat="37.670114000" lon="-4.015853000">
        <ele>523.6</ele>
        <time>2020-10-15T10:09:07Z</time>
      </trkpt>
      <trkpt lat="37.670125000" lon="-4.015970000">
        <ele>522.5</ele>
        <time>2020-10-15T10:09:09Z</time>
      </trkpt>
      <trkpt lat="37.670140000" lon="-4.016075000">
        <ele>521.5</ele>
        <time>2020-10-15T10:09:11Z</time>
      </trkpt>
      <trkpt lat="37.670158000" lon="-4.016221000">
        <ele>520.5</ele>
        <time>2020-10-15T10:09:14Z</time>
      </trkpt>
      <trkpt lat="37.670171000" lon="-4.016336000">
        <ele>519.5</ele>
        <time>2020-10-15T10:09:18Z</time>
      </trkpt>
      <trkpt lat="37.670179000" lon="-4.016439000">
        <ele>518.6</ele>
        <time>2020-10-15T10:09:22Z</time>
      </trkpt>
      <trkpt lat="37.670192000" lon="-4.016562000">
        <ele>518.0</ele>
        <time>2020-10-15T10:09:27Z</time>
      </trkpt>
      <trkpt lat="37.670205000" lon="-4.016665000">
        <ele>517.4</ele>
        <time>2020-10-15T10:09:31Z</time>
      </trkpt>
      <trkpt lat="37.670223000" lon="-4.016787000">
        <ele>516.8</ele>
        <time>2020-10-15T10:09:36Z</time>
      </trkpt>
      <trkpt lat="37.670239000" lon="-4.016900000">
        <ele>516.4</ele>
        <time>2020-10-15T10:09:40Z</time>
      </trkpt>
      <trkpt lat="37.670252000" lon="-4.017029000">
        <ele>515.8</ele>
        <time>2020-10-15T10:09:44Z</time>
      </trkpt>
      <trkpt lat="37.670266000" lon="-4.017146000">
        <ele>515.3</ele>
        <time>2020-10-15T10:09:49Z</time>
      </trkpt>
      <trkpt lat="37.670274000" lon="-4.017268000">
        <ele>514.7</ele>
        <time>2020-10-15T10:09:53Z</time>
      </trkpt>
      <trkpt lat="37.670285000" lon="-4.017378000">
        <ele>514.4</ele>
        <time>2020-10-15T10:09:57Z</time>
      </trkpt>
      <trkpt lat="37.670303000" lon="-4.017496000">
        <ele>514.1</ele>
        <time>2020-10-15T10:10:02Z</time>
      </trkpt>
      <trkpt lat="37.670319000" lon="-4.017625000">
        <ele>514.1</ele>
        <time>2020-10-15T10:10:07Z</time>
      </trkpt>
      <trkpt lat="37.670334000" lon="-4.017737000">
        <ele>514.3</ele>
        <time>2020-10-15T10:10:11Z</time>
      </trkpt>
      <trkpt lat="37.670357000" lon="-4.017862000">
        <ele>514.5</ele>
        <time>2020-10-15T10:10:15Z</time>
      </trkpt>
      <trkpt lat="37.670372000" lon="-4.017988000">
        <ele>515.0</ele>
        <time>2020-10-15T10:10:18Z</time>
      </trkpt>
      <trkpt lat="37.670388000" lon="-4.018092000">
        <ele>515.5</ele>
        <time>2020-10-15T10:10:20Z</time>
      </trkpt>
      <trkpt lat="37.670411000" lon="-4.018239000">
        <ele>516.0</ele>
        <time>2020-10-15T10:10:23Z</time>
      </trkpt>
      <trkpt lat="37.670435000" lon="-4.018386000">
        <ele>516.6</ele>
        <time>2020-10-15T10:10:26Z</time>
      </trkpt>
      <trkpt lat="37.670456000" lon="-4.018537000">
        <ele>517.3</ele>
        <time>2020-10-15T10:10:29Z</time>
      </trkpt>
      <trkpt lat="37.670470000" lon="-4.018688000">
        <ele>518.0</ele>
        <time>2020-10-15T10:10:32Z</time>
      </trkpt>
      <trkpt lat="37.670493000" lon="-4.018836000">
        <ele>518.7</ele>
        <time>2020-10-15T10:10:35Z</time>
      </trkpt>
      <trkpt lat="37.670518000" lon="-4.018987000">
        <ele>519.5</ele>
        <time>2020-10-15T10:10:38Z</time>
      </trkpt>
      <trkpt lat="37.670534000" lon="-4.019091000">
        <ele>520.1</ele>
        <time>2020-10-15T10:10:40Z</time>
      </trkpt>
      <trkpt lat="37.670550000" lon="-4.019196000">
        <ele>520.6</ele>
        <time>2020-10-15T10:10:42Z</time>
      </trkpt>
      <trkpt lat="37.670563000" lon="-4.019301000">
        <ele>521.2</ele>
        <time>2020-10-15T10:10:44Z</time>
      </trkpt>
      <trkpt lat="37.670576000" lon="-4.019407000">
        <ele>521.6</ele>
        <time>2020-10-15T10:10:46Z</time>
      </trkpt>
      <trkpt lat="37.670591000" lon="-4.019509000">
        <ele>522.2</ele>
        <time>2020-10-15T10:10:48Z</time>
      </trkpt>
      <trkpt lat="37.670603000" lon="-4.019611000">
        <ele>522.7</ele>
        <time>2020-10-15T10:10:51Z</time>
      </trkpt>
      <trkpt lat="37.670625000" lon="-4.019761000">
        <ele>523.4</ele>
        <time>2020-10-15T10:10:53Z</time>
      </trkpt>
      <trkpt lat="37.670638000" lon="-4.019862000">
        <ele>524.0</ele>
        <time>2020-10-15T10:10:55Z</time>
      </trkpt>
      <trkpt lat="37.670656000" lon="-4.020012000">
        <ele>524.5</ele>
        <time>2020-10-15T10:10:58Z</time>
      </trkpt>
      <trkpt lat="37.670666000" lon="-4.020156000">
        <ele>525.0</ele>
        <time>2020-10-15T10:11:01Z</time>
      </trkpt>
      <trkpt lat="37.670688000" lon="-4.020294000">
        <ele>525.5</ele>
        <time>2020-10-15T10:11:04Z</time>
      </trkpt>
      <trkpt lat="37.670709000" lon="-4.020436000">
        <ele>526.0</ele>
        <time>2020-10-15T10:11:07Z</time>
      </trkpt>
      <trkpt lat="37.670725000" lon="-4.020582000">
        <ele>526.5</ele>
        <time>2020-10-15T10:11:10Z</time>
      </trkpt>
      <trkpt lat="37.670744000" lon="-4.020725000">
        <ele>527.0</ele>
        <time>2020-10-15T10:11:13Z</time>
      </trkpt>
      <trkpt lat="37.670762000" lon="-4.020870000">
        <ele>527.5</ele>
        <time>2020-10-15T10:11:16Z</time>
      </trkpt>
      <trkpt lat="37.670779000" lon="-4.021019000">
        <ele>528.1</ele>
        <time>2020-10-15T10:11:19Z</time>
      </trkpt>
      <trkpt lat="37.670800000" lon="-4.021170000">
        <ele>528.6</ele>
        <time>2020-10-15T10:11:22Z</time>
      </trkpt>
      <trkpt lat="37.670813000" lon="-4.021272000">
        <ele>529.2</ele>
        <time>2020-10-15T10:11:24Z</time>
      </trkpt>
      <trkpt lat="37.670827000" lon="-4.021376000">
        <ele>529.8</ele>
        <time>2020-10-15T10:11:26Z</time>
      </trkpt>
      <trkpt lat="37.670842000" lon="-4.021481000">
        <ele>530.5</ele>
        <time>2020-10-15T10:11:28Z</time>
      </trkpt>
      <trkpt lat="37.670856000" lon="-4.021590000">
        <ele>531.2</ele>
        <time>2020-10-15T10:11:30Z</time>
      </trkpt>
      <trkpt lat="37.670868000" lon="-4.021699000">
        <ele>531.9</ele>
        <time>2020-10-15T10:11:32Z</time>
      </trkpt>
      <trkpt lat="37.670882000" lon="-4.021804000">
        <ele>532.6</ele>
        <time>2020-10-15T10:11:34Z</time>
      </trkpt>
      <trkpt lat="37.670895000" lon="-4.021910000">
        <ele>533.4</ele>
        <time>2020-10-15T10:11:36Z</time>
      </trkpt>
      <trkpt lat="37.670911000" lon="-4.022014000">
        <ele>534.1</ele>
        <time>2020-10-15T10:11:38Z</time>
      </trkpt>
      <trkpt lat="37.670921000" lon="-4.022120000">
        <ele>534.8</ele>
        <time>2020-10-15T10:11:40Z</time>
      </trkpt>
      <trkpt lat="37.670930000" lon="-4.022223000">
        <ele>535.5</ele>
        <time>2020-10-15T10:11:42Z</time>
      </trkpt>
      <trkpt lat="37.670942000" lon="-4.022329000">
        <ele>535.9</ele>
        <time>2020-10-15T10:11:44Z</time>
      </trkpt>
      <trkpt lat="37.670952000" lon="-4.022430000">
        <ele>536.3</ele>
        <time>2020-10-15T10:11:46Z</time>
      </trkpt>
      <trkpt lat="37.670969000" lon="-4.022581000">
        <ele>536.5</ele>
        <time>2020-10-15T10:11:49Z</time>
      </trkpt>
      <trkpt lat="37.670989000" lon="-4.022728000">
        <ele>536.8</ele>
        <time>2020-10-15T10:11:52Z</time>
      </trkpt>
      <trkpt lat="37.671006000" lon="-4.022875000">
        <ele>536.9</ele>
        <time>2020-10-15T10:11:55Z</time>
      </trkpt>
      <trkpt lat="37.671021000" lon="-4.023022000">
        <ele>536.9</ele>
        <time>2020-10-15T10:11:58Z</time>
      </trkpt>
      <trkpt lat="37.671040000" lon="-4.023171000">
        <ele>536.9</ele>
        <time>2020-10-15T10:12:01Z</time>
      </trkpt>
      <trkpt lat="37.671056000" lon="-4.023317000">
        <ele>536.7</ele>
        <time>2020-10-15T10:12:04Z</time>
      </trkpt>
      <trkpt lat="37.671073000" lon="-4.023459000">
        <ele>536.5</ele>
        <time>2020-10-15T10:12:07Z</time>
      </trkpt>
      <trkpt lat="37.671099000" lon="-4.023599000">
        <ele>536.3</ele>
        <time>2020-10-15T10:12:10Z</time>
      </trkpt>
      <trkpt lat="37.671112000" lon="-4.023745000">
        <ele>536.0</ele>
        <time>2020-10-15T10:12:13Z</time>
      </trkpt>
      <trkpt lat="37.671122000" lon="-4.023889000">
        <ele>535.8</ele>
        <time>2020-10-15T10:12:16Z</time>
      </trkpt>
      <trkpt lat="37.671126000" lon="-4.024035000">
        <ele>535.7</ele>
        <time>2020-10-15T10:12:19Z</time>
      </trkpt>
      <trkpt lat="37.671127000" lon="-4.024181000">
        <ele>535.5</ele>
        <time>2020-10-15T10:12:22Z</time>
      </trkpt>
      <trkpt lat="37.671136000" lon="-4.024326000">
        <ele>535.4</ele>
        <time>2020-10-15T10:12:25Z</time>
      </trkpt>
      <trkpt lat="37.671135000" lon="-4.024467000">
        <ele>535.2</ele>
        <time>2020-10-15T10:12:28Z</time>
      </trkpt>
      <trkpt lat="37.671129000" lon="-4.024609000">
        <ele>535.0</ele>
        <time>2020-10-15T10:12:31Z</time>
      </trkpt>
      <trkpt lat="37.671119000" lon="-4.024754000">
        <ele>534.8</ele>
        <time>2020-10-15T10:12:34Z</time>
      </trkpt>
      <trkpt lat="37.671103000" lon="-4.024898000">
        <ele>534.7</ele>
        <time>2020-10-15T10:12:37Z</time>
      </trkpt>
      <trkpt lat="37.671077000" lon="-4.025040000">
        <ele>534.6</ele>
        <time>2020-10-15T10:12:40Z</time>
      </trkpt>
      <trkpt lat="37.671057000" lon="-4.025185000">
        <ele>534.5</ele>
        <time>2020-10-15T10:12:43Z</time>
      </trkpt>
      <trkpt lat="37.671025000" lon="-4.025324000">
        <ele>534.4</ele>
        <time>2020-10-15T10:12:46Z</time>
      </trkpt>
      <trkpt lat="37.670997000" lon="-4.025467000">
        <ele>534.1</ele>
        <time>2020-10-15T10:12:49Z</time>
      </trkpt>
      <trkpt lat="37.670974000" lon="-4.025603000">
        <ele>533.7</ele>
        <time>2020-10-15T10:12:52Z</time>
      </trkpt>
      <trkpt lat="37.670938000" lon="-4.025733000">
        <ele>533.5</ele>
        <time>2020-10-15T10:12:55Z</time>
      </trkpt>
      <trkpt lat="37.670895000" lon="-4.025863000">
        <ele>533.2</ele>
        <time>2020-10-15T10:12:58Z</time>
      </trkpt>
      <trkpt lat="37.670854000" lon="-4.026002000">
        <ele>533.0</ele>
        <time>2020-10-15T10:13:01Z</time>
      </trkpt>
      <trkpt lat="37.670830000" lon="-4.026102000">
        <ele>532.9</ele>
        <time>2020-10-15T10:13:03Z</time>
      </trkpt>
      <trkpt lat="37.670801000" lon="-4.026200000">
        <ele>532.8</ele>
        <time>2020-10-15T10:13:05Z</time>
      </trkpt>
      <trkpt lat="37.670771000" lon="-4.026299000">
        <ele>532.8</ele>
        <time>2020-10-15T10:13:07Z</time>
      </trkpt>
      <trkpt lat="37.670741000" lon="-4.026401000">
        <ele>532.9</ele>
        <time>2020-10-15T10:13:09Z</time>
      </trkpt>
      <trkpt lat="37.670709000" lon="-4.026504000">
        <ele>533.0</ele>
        <time>2020-10-15T10:13:11Z</time>
      </trkpt>
      <trkpt lat="37.670669000" lon="-4.026611000">
        <ele>533.3</ele>
        <time>2020-10-15T10:13:13Z</time>
      </trkpt>
      <trkpt lat="37.670635000" lon="-4.026718000">
        <ele>533.7</ele>
        <time>2020-10-15T10:13:15Z</time>
      </trkpt>
      <trkpt lat="37.670600000" lon="-4.026822000">
        <ele>534.2</ele>
        <time>2020-10-15T10:13:17Z</time>
      </trkpt>
      <trkpt lat="37.670567000" lon="-4.026930000">
        <ele>534.7</ele>
        <time>2020-10-15T10:13:19Z</time>
      </trkpt>
      <trkpt lat="37.670537000" lon="-4.027034000">
        <ele>535.3</ele>
        <time>2020-10-15T10:13:21Z</time>
      </trkpt>
      <trkpt lat="37.670502000" lon="-4.027147000">
        <ele>535.8</ele>
        <time>2020-10-15T10:13:23Z</time>
      </trkpt>
      <trkpt lat="37.670464000" lon="-4.027256000">
        <ele>536.3</ele>
        <time>2020-10-15T10:13:25Z</time>
      </trkpt>
      <trkpt lat="37.670436000" lon="-4.027363000">
        <ele>536.6</ele>
        <time>2020-10-15T10:13:27Z</time>
      </trkpt>
      <trkpt lat="37.670402000" lon="-4.027473000">
        <ele>536.8</ele>
        <time>2020-10-15T10:13:29Z</time>
      </trkpt>
      <trkpt lat="37.670366000" lon="-4.027587000">
        <ele>536.9</ele>
        <time>2020-10-15T10:13:31Z</time>
      </trkpt>
      <trkpt lat="37.670325000" lon="-4.027697000">
        <ele>536.9</ele>
        <time>2020-10-15T10:13:33Z</time>
      </trkpt>
      <trkpt lat="37.670287000" lon="-4.027811000">
        <ele>536.8</ele>
        <time>2020-10-15T10:13:35Z</time>
      </trkpt>
      <trkpt lat="37.670251000" lon="-4.027919000">
        <ele>536.6</ele>
        <time>2020-10-15T10:13:37Z</time>
      </trkpt>
      <trkpt lat="37.670217000" lon="-4.028029000">
        <ele>536.5</ele>
        <time>2020-10-15T10:13:39Z</time>
      </trkpt>
      <trkpt lat="37.670182000" lon="-4.028142000">
        <ele>536.4</ele>
        <time>2020-10-15T10:13:41Z</time>
      </trkpt>
      <trkpt lat="37.670149000" lon="-4.028254000">
        <ele>536.1</ele>
        <time>2020-10-15T10:13:43Z</time>
      </trkpt>
      <trkpt lat="37.670111000" lon="-4.028362000">
        <ele>535.8</ele>
        <time>2020-10-15T10:13:45Z</time>
      </trkpt>
      <trkpt lat="37.670073000" lon="-4.028474000">
        <ele>535.5</ele>
        <time>2020-10-15T10:13:47Z</time>
      </trkpt>
      <trkpt lat="37.670035000" lon="-4.028584000">
        <ele>535.4</ele>
        <time>2020-10-15T10:13:49Z</time>
      </trkpt>
      <trkpt lat="37.670001000" lon="-4.028696000">
        <ele>535.3</ele>
        <time>2020-10-15T10:13:51Z</time>
      </trkpt>
      <trkpt lat="37.669964000" lon="-4.028806000">
        <ele>535.3</ele>
        <time>2020-10-15T10:13:53Z</time>
      </trkpt>
      <trkpt lat="37.669927000" lon="-4.028918000">
        <ele>535.4</ele>
        <time>2020-10-15T10:13:55Z</time>
      </trkpt>
      <trkpt lat="37.669890000" lon="-4.029028000">
        <ele>535.5</ele>
        <time>2020-10-15T10:13:57Z</time>
      </trkpt>
      <trkpt lat="37.669856000" lon="-4.029136000">
        <ele>535.6</ele>
        <time>2020-10-15T10:13:59Z</time>
      </trkpt>
      <trkpt lat="37.669820000" lon="-4.029246000">
        <ele>535.7</ele>
        <time>2020-10-15T10:14:01Z</time>
      </trkpt>
      <trkpt lat="37.669792000" lon="-4.029354000">
        <ele>535.8</ele>
        <time>2020-10-15T10:14:03Z</time>
      </trkpt>
      <trkpt lat="37.669754000" lon="-4.029462000">
        <ele>536.1</ele>
        <time>2020-10-15T10:14:05Z</time>
      </trkpt>
      <trkpt lat="37.669718000" lon="-4.029573000">
        <ele>536.4</ele>
        <time>2020-10-15T10:14:07Z</time>
      </trkpt>
      <trkpt lat="37.669683000" lon="-4.029678000">
        <ele>536.6</ele>
        <time>2020-10-15T10:14:09Z</time>
      </trkpt>
      <trkpt lat="37.669647000" lon="-4.029788000">
        <ele>537.0</ele>
        <time>2020-10-15T10:14:11Z</time>
      </trkpt>
      <trkpt lat="37.669617000" lon="-4.029901000">
        <ele>537.5</ele>
        <time>2020-10-15T10:14:13Z</time>
      </trkpt>
      <trkpt lat="37.669582000" lon="-4.030006000">
        <ele>537.8</ele>
        <time>2020-10-15T10:14:15Z</time>
      </trkpt>
      <trkpt lat="37.669549000" lon="-4.030115000">
        <ele>538.3</ele>
        <time>2020-10-15T10:14:17Z</time>
      </trkpt>
      <trkpt lat="37.669514000" lon="-4.030229000">
        <ele>538.7</ele>
        <time>2020-10-15T10:14:19Z</time>
      </trkpt>
      <trkpt lat="37.669475000" lon="-4.030337000">
        <ele>539.1</ele>
        <time>2020-10-15T10:14:21Z</time>
      </trkpt>
      <trkpt lat="37.669435000" lon="-4.030447000">
        <ele>539.5</ele>
        <time>2020-10-15T10:14:23Z</time>
      </trkpt>
      <trkpt lat="37.669398000" lon="-4.030565000">
        <ele>539.8</ele>
        <time>2020-10-15T10:14:25Z</time>
      </trkpt>
      <trkpt lat="37.669359000" lon="-4.030678000">
        <ele>540.1</ele>
        <time>2020-10-15T10:14:27Z</time>
      </trkpt>
      <trkpt lat="37.669321000" lon="-4.030791000">
        <ele>540.3</ele>
        <time>2020-10-15T10:14:29Z</time>
      </trkpt>
      <trkpt lat="37.669286000" lon="-4.030902000">
        <ele>540.5</ele>
        <time>2020-10-15T10:14:31Z</time>
      </trkpt>
      <trkpt lat="37.669249000" lon="-4.031008000">
        <ele>540.5</ele>
        <time>2020-10-15T10:14:33Z</time>
      </trkpt>
      <trkpt lat="37.669212000" lon="-4.031123000">
        <ele>540.3</ele>
        <time>2020-10-15T10:14:35Z</time>
      </trkpt>
      <trkpt lat="37.669178000" lon="-4.031229000">
        <ele>540.1</ele>
        <time>2020-10-15T10:14:37Z</time>
      </trkpt>
      <trkpt lat="37.669143000" lon="-4.031345000">
        <ele>539.7</ele>
        <time>2020-10-15T10:14:39Z</time>
      </trkpt>
      <trkpt lat="37.669111000" lon="-4.031458000">
        <ele>539.3</ele>
        <time>2020-10-15T10:14:41Z</time>
      </trkpt>
      <trkpt lat="37.669076000" lon="-4.031578000">
        <ele>538.7</ele>
        <time>2020-10-15T10:14:43Z</time>
      </trkpt>
      <trkpt lat="37.669044000" lon="-4.031708000">
        <ele>538.2</ele>
        <time>2020-10-15T10:14:45Z</time>
      </trkpt>
      <trkpt lat="37.669003000" lon="-4.031826000">
        <ele>537.6</ele>
        <time>2020-10-15T10:14:47Z</time>
      </trkpt>
      <trkpt lat="37.668961000" lon="-4.031943000">
        <ele>537.0</ele>
        <time>2020-10-15T10:14:49Z</time>
      </trkpt>
      <trkpt lat="37.668921000" lon="-4.032054000">
        <ele>536.5</ele>
        <time>2020-10-15T10:14:51Z</time>
      </trkpt>
      <trkpt lat="37.668890000" lon="-4.032161000">
        <ele>535.8</ele>
        <time>2020-10-15T10:14:53Z</time>
      </trkpt>
      <trkpt lat="37.668860000" lon="-4.032264000">
        <ele>535.3</ele>
        <time>2020-10-15T10:14:55Z</time>
      </trkpt>
      <trkpt lat="37.668826000" lon="-4.032374000">
        <ele>534.8</ele>
        <time>2020-10-15T10:14:57Z</time>
      </trkpt>
      <trkpt lat="37.668784000" lon="-4.032494000">
        <ele>534.4</ele>
        <time>2020-10-15T10:14:59Z</time>
      </trkpt>
      <trkpt lat="37.668746000" lon="-4.032616000">
        <ele>534.1</ele>
        <time>2020-10-15T10:15:01Z</time>
      </trkpt>
      <trkpt lat="37.668710000" lon="-4.032734000">
        <ele>533.9</ele>
        <time>2020-10-15T10:15:03Z</time>
      </trkpt>
      <trkpt lat="37.668664000" lon="-4.032840000">
        <ele>533.9</ele>
        <time>2020-10-15T10:15:05Z</time>
      </trkpt>
      <trkpt lat="37.668628000" lon="-4.032951000">
        <ele>533.9</ele>
        <time>2020-10-15T10:15:07Z</time>
      </trkpt>
      <trkpt lat="37.668587000" lon="-4.033073000">
        <ele>533.9</ele>
        <time>2020-10-15T10:15:09Z</time>
      </trkpt>
      <trkpt lat="37.668547000" lon="-4.033199000">
        <ele>534.1</ele>
        <time>2020-10-15T10:15:11Z</time>
      </trkpt>
      <trkpt lat="37.668496000" lon="-4.033342000">
        <ele>534.3</ele>
        <time>2020-10-15T10:15:13Z</time>
      </trkpt>
      <trkpt lat="37.668457000" lon="-4.033462000">
        <ele>534.6</ele>
        <time>2020-10-15T10:15:15Z</time>
      </trkpt>
      <trkpt lat="37.668423000" lon="-4.033579000">
        <ele>535.0</ele>
        <time>2020-10-15T10:15:17Z</time>
      </trkpt>
      <trkpt lat="37.668391000" lon="-4.033687000">
        <ele>535.4</ele>
        <time>2020-10-15T10:15:19Z</time>
      </trkpt>
      <trkpt lat="37.668353000" lon="-4.033795000">
        <ele>535.7</ele>
        <time>2020-10-15T10:15:21Z</time>
      </trkpt>
      <trkpt lat="37.668321000" lon="-4.033915000">
        <ele>536.0</ele>
        <time>2020-10-15T10:15:23Z</time>
      </trkpt>
      <trkpt lat="37.668286000" lon="-4.034032000">
        <ele>536.3</ele>
        <time>2020-10-15T10:15:25Z</time>
      </trkpt>
      <trkpt lat="37.668240000" lon="-4.034166000">
        <ele>536.5</ele>
        <time>2020-10-15T10:15:27Z</time>
      </trkpt>
      <trkpt lat="37.668204000" lon="-4.034300000">
        <ele>536.6</ele>
        <time>2020-10-15T10:15:29Z</time>
      </trkpt>
      <trkpt lat="37.668159000" lon="-4.034431000">
        <ele>536.8</ele>
        <time>2020-10-15T10:15:31Z</time>
      </trkpt>
      <trkpt lat="37.668119000" lon="-4.034536000">
        <ele>536.9</ele>
        <time>2020-10-15T10:15:33Z</time>
      </trkpt>
      <trkpt lat="37.668090000" lon="-4.034640000">
        <ele>537.0</ele>
        <time>2020-10-15T10:15:35Z</time>
      </trkpt>
      <trkpt lat="37.668059000" lon="-4.034742000">
        <ele>537.0</ele>
        <time>2020-10-15T10:15:37Z</time>
      </trkpt>
      <trkpt lat="37.668027000" lon="-4.034840000">
        <ele>536.9</ele>
        <time>2020-10-15T10:15:39Z</time>
      </trkpt>
      <trkpt lat="37.667989000" lon="-4.034943000">
        <ele>536.7</ele>
        <time>2020-10-15T10:15:41Z</time>
      </trkpt>
      <trkpt lat="37.667948000" lon="-4.035061000">
        <ele>536.6</ele>
        <time>2020-10-15T10:15:43Z</time>
      </trkpt>
      <trkpt lat="37.667912000" lon="-4.035179000">
        <ele>536.5</ele>
        <time>2020-10-15T10:15:45Z</time>
      </trkpt>
      <trkpt lat="37.667881000" lon="-4.035284000">
        <ele>536.5</ele>
        <time>2020-10-15T10:15:47Z</time>
      </trkpt>
      <trkpt lat="37.667848000" lon="-4.035388000">
        <ele>536.4</ele>
        <time>2020-10-15T10:15:49Z</time>
      </trkpt>
      <trkpt lat="37.667795000" lon="-4.035529000">
        <ele>536.3</ele>
        <time>2020-10-15T10:15:52Z</time>
      </trkpt>
      <trkpt lat="37.667756000" lon="-4.035631000">
        <ele>536.2</ele>
        <time>2020-10-15T10:15:54Z</time>
      </trkpt>
      <trkpt lat="37.667718000" lon="-4.035773000">
        <ele>536.1</ele>
        <time>2020-10-15T10:15:57Z</time>
      </trkpt>
      <trkpt lat="37.667677000" lon="-4.035898000">
        <ele>536.0</ele>
        <time>2020-10-15T10:16:00Z</time>
      </trkpt>
      <trkpt lat="37.667646000" lon="-4.036012000">
        <ele>536.0</ele>
        <time>2020-10-15T10:16:03Z</time>
      </trkpt>
      <trkpt lat="37.667595000" lon="-4.036152000">
        <ele>536.1</ele>
        <time>2020-10-15T10:16:06Z</time>
      </trkpt>
      <trkpt lat="37.667563000" lon="-4.036250000">
        <ele>536.3</ele>
        <time>2020-10-15T10:16:10Z</time>
      </trkpt>
      <trkpt lat="37.667525000" lon="-4.036381000">
        <ele>536.4</ele>
        <time>2020-10-15T10:16:11Z</time>
      </trkpt>
      <trkpt lat="37.667489000" lon="-4.036502000">
        <ele>536.4</ele>
        <time>2020-10-15T10:16:14Z</time>
      </trkpt>
      <trkpt lat="37.667458000" lon="-4.036613000">
        <ele>536.4</ele>
        <time>2020-10-15T10:16:17Z</time>
      </trkpt>
      <trkpt lat="37.667413000" lon="-4.036716000">
        <ele>536.4</ele>
        <time>2020-10-15T10:16:20Z</time>
      </trkpt>
      <trkpt lat="37.667384000" lon="-4.036812000">
        <ele>536.4</ele>
        <time>2020-10-15T10:16:23Z</time>
      </trkpt>
      <trkpt lat="37.667352000" lon="-4.036925000">
        <ele>536.5</ele>
        <time>2020-10-15T10:16:29Z</time>
      </trkpt>
      <trkpt lat="37.667407000" lon="-4.037002000">
        <ele>536.6</ele>
        <time>2020-10-15T10:16:38Z</time>
      </trkpt>
      <trkpt lat="37.667429000" lon="-4.037012000">
        <ele>536.7</ele>
        <time>2020-10-15T10:16:45Z</time>
      </trkpt>
      <trkpt lat="37.667364000" lon="-4.037024000">
        <ele>536.3</ele>
        <time>2020-10-15T10:28:02Z</time>
      </trkpt>
      <trkpt lat="37.667311000" lon="-4.037106000">
        <ele>536.0</ele>
        <time>2020-10-15T10:28:22Z</time>
      </trkpt>
      <trkpt lat="37.667270000" lon="-4.037221000">
        <ele>535.8</ele>
        <time>2020-10-15T10:28:27Z</time>
      </trkpt>
      <trkpt lat="37.667234000" lon="-4.037327000">
        <ele>535.6</ele>
        <time>2020-10-15T10:28:30Z</time>
      </trkpt>
      <trkpt lat="37.667196000" lon="-4.037446000">
        <ele>535.4</ele>
        <time>2020-10-15T10:28:33Z</time>
      </trkpt>
      <trkpt lat="37.667150000" lon="-4.037587000">
        <ele>535.4</ele>
        <time>2020-10-15T10:28:36Z</time>
      </trkpt>
      <trkpt lat="37.667115000" lon="-4.037698000">
        <ele>535.3</ele>
        <time>2020-10-15T10:28:38Z</time>
      </trkpt>
      <trkpt lat="37.667082000" lon="-4.037802000">
        <ele>535.2</ele>
        <time>2020-10-15T10:28:40Z</time>
      </trkpt>
      <trkpt lat="37.667050000" lon="-4.037902000">
        <ele>535.1</ele>
        <time>2020-10-15T10:28:42Z</time>
      </trkpt>
      <trkpt lat="37.667018000" lon="-4.037997000">
        <ele>535.1</ele>
        <time>2020-10-15T10:28:44Z</time>
      </trkpt>
      <trkpt lat="37.666969000" lon="-4.038130000">
        <ele>535.1</ele>
        <time>2020-10-15T10:28:47Z</time>
      </trkpt>
      <trkpt lat="37.666936000" lon="-4.038256000">
        <ele>535.2</ele>
        <time>2020-10-15T10:28:50Z</time>
      </trkpt>
      <trkpt lat="37.666906000" lon="-4.038351000">
        <ele>535.4</ele>
        <time>2020-10-15T10:28:52Z</time>
      </trkpt>
      <trkpt lat="37.666863000" lon="-4.038496000">
        <ele>535.5</ele>
        <time>2020-10-15T10:28:55Z</time>
      </trkpt>
      <trkpt lat="37.666831000" lon="-4.038605000">
        <ele>535.7</ele>
        <time>2020-10-15T10:28:57Z</time>
      </trkpt>
      <trkpt lat="37.666793000" lon="-4.038714000">
        <ele>536.0</ele>
        <time>2020-10-15T10:28:59Z</time>
      </trkpt>
      <trkpt lat="37.666756000" lon="-4.038829000">
        <ele>536.2</ele>
        <time>2020-10-15T10:29:01Z</time>
      </trkpt>
      <trkpt lat="37.666717000" lon="-4.038950000">
        <ele>536.3</ele>
        <time>2020-10-15T10:29:03Z</time>
      </trkpt>
      <trkpt lat="37.666676000" lon="-4.039071000">
        <ele>536.5</ele>
        <time>2020-10-15T10:29:05Z</time>
      </trkpt>
      <trkpt lat="37.666637000" lon="-4.039185000">
        <ele>536.6</ele>
        <time>2020-10-15T10:29:07Z</time>
      </trkpt>
      <trkpt lat="37.666599000" lon="-4.039298000">
        <ele>536.8</ele>
        <time>2020-10-15T10:29:09Z</time>
      </trkpt>
      <trkpt lat="37.666564000" lon="-4.039409000">
        <ele>537.0</ele>
        <time>2020-10-15T10:29:11Z</time>
      </trkpt>
      <trkpt lat="37.666528000" lon="-4.039515000">
        <ele>537.2</ele>
        <time>2020-10-15T10:29:13Z</time>
      </trkpt>
      <trkpt lat="37.666491000" lon="-4.039621000">
        <ele>537.4</ele>
        <time>2020-10-15T10:29:15Z</time>
      </trkpt>
      <trkpt lat="37.666455000" lon="-4.039724000">
        <ele>537.5</ele>
        <time>2020-10-15T10:29:17Z</time>
      </trkpt>
      <trkpt lat="37.666418000" lon="-4.039824000">
        <ele>537.5</ele>
        <time>2020-10-15T10:29:19Z</time>
      </trkpt>
      <trkpt lat="37.666376000" lon="-4.039923000">
        <ele>537.5</ele>
        <time>2020-10-15T10:29:21Z</time>
      </trkpt>
      <trkpt lat="37.666337000" lon="-4.040023000">
        <ele>537.5</ele>
        <time>2020-10-15T10:29:23Z</time>
      </trkpt>
      <trkpt lat="37.666295000" lon="-4.040120000">
        <ele>537.5</ele>
        <time>2020-10-15T10:29:25Z</time>
      </trkpt>
      <trkpt lat="37.666252000" lon="-4.040213000">
        <ele>537.5</ele>
        <time>2020-10-15T10:29:27Z</time>
      </trkpt>
      <trkpt lat="37.666205000" lon="-4.040300000">
        <ele>537.5</ele>
        <time>2020-10-15T10:29:29Z</time>
      </trkpt>
      <trkpt lat="37.666161000" lon="-4.040386000">
        <ele>537.6</ele>
        <time>2020-10-15T10:29:31Z</time>
      </trkpt>
      <trkpt lat="37.666115000" lon="-4.040475000">
        <ele>537.7</ele>
        <time>2020-10-15T10:29:33Z</time>
      </trkpt>
      <trkpt lat="37.666064000" lon="-4.040558000">
        <ele>537.8</ele>
        <time>2020-10-15T10:29:35Z</time>
      </trkpt>
      <trkpt lat="37.665988000" lon="-4.040676000">
        <ele>537.8</ele>
        <time>2020-10-15T10:29:38Z</time>
      </trkpt>
      <trkpt lat="37.665936000" lon="-4.040755000">
        <ele>538.0</ele>
        <time>2020-10-15T10:29:40Z</time>
      </trkpt>
      <trkpt lat="37.665861000" lon="-4.040872000">
        <ele>538.2</ele>
        <time>2020-10-15T10:29:43Z</time>
      </trkpt>
      <trkpt lat="37.665805000" lon="-4.040947000">
        <ele>538.5</ele>
        <time>2020-10-15T10:29:45Z</time>
      </trkpt>
      <trkpt lat="37.665721000" lon="-4.041056000">
        <ele>538.8</ele>
        <time>2020-10-15T10:29:48Z</time>
      </trkpt>
      <trkpt lat="37.665636000" lon="-4.041162000">
        <ele>539.3</ele>
        <time>2020-10-15T10:29:51Z</time>
      </trkpt>
      <trkpt lat="37.665545000" lon="-4.041263000">
        <ele>539.7</ele>
        <time>2020-10-15T10:29:54Z</time>
      </trkpt>
      <trkpt lat="37.665485000" lon="-4.041332000">
        <ele>540.3</ele>
        <time>2020-10-15T10:29:56Z</time>
      </trkpt>
      <trkpt lat="37.665422000" lon="-4.041399000">
        <ele>540.8</ele>
        <time>2020-10-15T10:29:58Z</time>
      </trkpt>
      <trkpt lat="37.665357000" lon="-4.041461000">
        <ele>541.4</ele>
        <time>2020-10-15T10:30:00Z</time>
      </trkpt>
      <trkpt lat="37.665295000" lon="-4.041526000">
        <ele>541.9</ele>
        <time>2020-10-15T10:30:02Z</time>
      </trkpt>
      <trkpt lat="37.665232000" lon="-4.041593000">
        <ele>542.5</ele>
        <time>2020-10-15T10:30:04Z</time>
      </trkpt>
      <trkpt lat="37.665168000" lon="-4.041661000">
        <ele>543.2</ele>
        <time>2020-10-15T10:30:06Z</time>
      </trkpt>
      <trkpt lat="37.665072000" lon="-4.041751000">
        <ele>543.8</ele>
        <time>2020-10-15T10:30:09Z</time>
      </trkpt>
      <trkpt lat="37.665006000" lon="-4.041816000">
        <ele>544.4</ele>
        <time>2020-10-15T10:30:11Z</time>
      </trkpt>
      <trkpt lat="37.664937000" lon="-4.041883000">
        <ele>544.7</ele>
        <time>2020-10-15T10:30:13Z</time>
      </trkpt>
      <trkpt lat="37.664868000" lon="-4.041949000">
        <ele>544.9</ele>
        <time>2020-10-15T10:30:15Z</time>
      </trkpt>
      <trkpt lat="37.664804000" lon="-4.042015000">
        <ele>544.8</ele>
        <time>2020-10-15T10:30:17Z</time>
      </trkpt>
      <trkpt lat="37.664710000" lon="-4.042110000">
        <ele>544.5</ele>
        <time>2020-10-15T10:30:20Z</time>
      </trkpt>
      <trkpt lat="37.664645000" lon="-4.042174000">
        <ele>544.2</ele>
        <time>2020-10-15T10:30:22Z</time>
      </trkpt>
      <trkpt lat="37.664555000" lon="-4.042267000">
        <ele>543.7</ele>
        <time>2020-10-15T10:30:25Z</time>
      </trkpt>
      <trkpt lat="37.664466000" lon="-4.042365000">
        <ele>543.3</ele>
        <time>2020-10-15T10:30:28Z</time>
      </trkpt>
      <trkpt lat="37.664376000" lon="-4.042461000">
        <ele>542.8</ele>
        <time>2020-10-15T10:30:31Z</time>
      </trkpt>
      <trkpt lat="37.664287000" lon="-4.042558000">
        <ele>542.3</ele>
        <time>2020-10-15T10:30:34Z</time>
      </trkpt>
      <trkpt lat="37.664224000" lon="-4.042623000">
        <ele>541.7</ele>
        <time>2020-10-15T10:30:36Z</time>
      </trkpt>
      <trkpt lat="37.664160000" lon="-4.042687000">
        <ele>541.2</ele>
        <time>2020-10-15T10:30:38Z</time>
      </trkpt>
      <trkpt lat="37.664098000" lon="-4.042756000">
        <ele>540.7</ele>
        <time>2020-10-15T10:30:40Z</time>
      </trkpt>
      <trkpt lat="37.664039000" lon="-4.042829000">
        <ele>540.5</ele>
        <time>2020-10-15T10:30:42Z</time>
      </trkpt>
      <trkpt lat="37.663979000" lon="-4.042904000">
        <ele>540.4</ele>
        <time>2020-10-15T10:30:44Z</time>
      </trkpt>
      <trkpt lat="37.663919000" lon="-4.042984000">
        <ele>540.4</ele>
        <time>2020-10-15T10:30:46Z</time>
      </trkpt>
      <trkpt lat="37.663862000" lon="-4.043063000">
        <ele>540.5</ele>
        <time>2020-10-15T10:30:48Z</time>
      </trkpt>
      <trkpt lat="37.663806000" lon="-4.043142000">
        <ele>540.6</ele>
        <time>2020-10-15T10:30:50Z</time>
      </trkpt>
      <trkpt lat="37.663748000" lon="-4.043221000">
        <ele>540.9</ele>
        <time>2020-10-15T10:30:52Z</time>
      </trkpt>
      <trkpt lat="37.663694000" lon="-4.043301000">
        <ele>541.2</ele>
        <time>2020-10-15T10:30:54Z</time>
      </trkpt>
      <trkpt lat="37.663620000" lon="-4.043421000">
        <ele>541.5</ele>
        <time>2020-10-15T10:30:57Z</time>
      </trkpt>
      <trkpt lat="37.663567000" lon="-4.043500000">
        <ele>541.9</ele>
        <time>2020-10-15T10:30:59Z</time>
      </trkpt>
      <trkpt lat="37.663518000" lon="-4.043584000">
        <ele>542.3</ele>
        <time>2020-10-15T10:31:01Z</time>
      </trkpt>
      <trkpt lat="37.663468000" lon="-4.043668000">
        <ele>542.6</ele>
        <time>2020-10-15T10:31:03Z</time>
      </trkpt>
      <trkpt lat="37.663422000" lon="-4.043753000">
        <ele>543.0</ele>
        <time>2020-10-15T10:31:05Z</time>
      </trkpt>
      <trkpt lat="37.663378000" lon="-4.043840000">
        <ele>543.4</ele>
        <time>2020-10-15T10:31:07Z</time>
      </trkpt>
      <trkpt lat="37.663337000" lon="-4.043929000">
        <ele>543.7</ele>
        <time>2020-10-15T10:31:09Z</time>
      </trkpt>
      <trkpt lat="37.663293000" lon="-4.044022000">
        <ele>544.1</ele>
        <time>2020-10-15T10:31:11Z</time>
      </trkpt>
      <trkpt lat="37.663252000" lon="-4.044115000">
        <ele>544.5</ele>
        <time>2020-10-15T10:31:13Z</time>
      </trkpt>
      <trkpt lat="37.663210000" lon="-4.044207000">
        <ele>544.7</ele>
        <time>2020-10-15T10:31:15Z</time>
      </trkpt>
      <trkpt lat="37.663154000" lon="-4.044342000">
        <ele>545.1</ele>
        <time>2020-10-15T10:31:18Z</time>
      </trkpt>
      <trkpt lat="37.663105000" lon="-4.044481000">
        <ele>545.4</ele>
        <time>2020-10-15T10:31:21Z</time>
      </trkpt>
      <trkpt lat="37.663075000" lon="-4.044578000">
        <ele>545.6</ele>
        <time>2020-10-15T10:31:23Z</time>
      </trkpt>
      <trkpt lat="37.663041000" lon="-4.044677000">
        <ele>545.9</ele>
        <time>2020-10-15T10:31:25Z</time>
      </trkpt>
      <trkpt lat="37.663011000" lon="-4.044776000">
        <ele>546.2</ele>
        <time>2020-10-15T10:31:27Z</time>
      </trkpt>
      <trkpt lat="37.662985000" lon="-4.044875000">
        <ele>546.4</ele>
        <time>2020-10-15T10:31:29Z</time>
      </trkpt>
      <trkpt lat="37.662946000" lon="-4.045018000">
        <ele>546.5</ele>
        <time>2020-10-15T10:31:32Z</time>
      </trkpt>
      <trkpt lat="37.662910000" lon="-4.045162000">
        <ele>546.8</ele>
        <time>2020-10-15T10:31:35Z</time>
      </trkpt>
      <trkpt lat="37.662881000" lon="-4.045308000">
        <ele>547.0</ele>
        <time>2020-10-15T10:31:38Z</time>
      </trkpt>
      <trkpt lat="37.662858000" lon="-4.045407000">
        <ele>547.2</ele>
        <time>2020-10-15T10:31:40Z</time>
      </trkpt>
      <trkpt lat="37.662838000" lon="-4.045512000">
        <ele>547.4</ele>
        <time>2020-10-15T10:31:42Z</time>
      </trkpt>
      <trkpt lat="37.662823000" lon="-4.045616000">
        <ele>547.5</ele>
        <time>2020-10-15T10:31:44Z</time>
      </trkpt>
      <trkpt lat="37.662802000" lon="-4.045766000">
        <ele>547.5</ele>
        <time>2020-10-15T10:31:47Z</time>
      </trkpt>
      <trkpt lat="37.662788000" lon="-4.045912000">
        <ele>547.6</ele>
        <time>2020-10-15T10:31:50Z</time>
      </trkpt>
      <trkpt lat="37.662778000" lon="-4.046015000">
        <ele>547.7</ele>
        <time>2020-10-15T10:31:52Z</time>
      </trkpt>
      <trkpt lat="37.662771000" lon="-4.046121000">
        <ele>547.8</ele>
        <time>2020-10-15T10:31:54Z</time>
      </trkpt>
      <trkpt lat="37.662764000" lon="-4.046227000">
        <ele>547.9</ele>
        <time>2020-10-15T10:31:56Z</time>
      </trkpt>
      <trkpt lat="37.662757000" lon="-4.046331000">
        <ele>548.0</ele>
        <time>2020-10-15T10:31:58Z</time>
      </trkpt>
      <trkpt lat="37.662754000" lon="-4.046438000">
        <ele>548.0</ele>
        <time>2020-10-15T10:32:00Z</time>
      </trkpt>
      <trkpt lat="37.662755000" lon="-4.046548000">
        <ele>547.9</ele>
        <time>2020-10-15T10:32:02Z</time>
      </trkpt>
      <trkpt lat="37.662755000" lon="-4.046659000">
        <ele>547.8</ele>
        <time>2020-10-15T10:32:04Z</time>
      </trkpt>
      <trkpt lat="37.662762000" lon="-4.046769000">
        <ele>547.6</ele>
        <time>2020-10-15T10:32:06Z</time>
      </trkpt>
      <trkpt lat="37.662767000" lon="-4.046880000">
        <ele>547.5</ele>
        <time>2020-10-15T10:32:08Z</time>
      </trkpt>
      <trkpt lat="37.662772000" lon="-4.046990000">
        <ele>547.3</ele>
        <time>2020-10-15T10:32:10Z</time>
      </trkpt>
      <trkpt lat="37.662780000" lon="-4.047098000">
        <ele>547.2</ele>
        <time>2020-10-15T10:32:12Z</time>
      </trkpt>
      <trkpt lat="37.662797000" lon="-4.047206000">
        <ele>547.1</ele>
        <time>2020-10-15T10:32:14Z</time>
      </trkpt>
      <trkpt lat="37.662810000" lon="-4.047312000">
        <ele>547.0</ele>
        <time>2020-10-15T10:32:16Z</time>
      </trkpt>
      <trkpt lat="37.662822000" lon="-4.047417000">
        <ele>547.0</ele>
        <time>2020-10-15T10:32:18Z</time>
      </trkpt>
      <trkpt lat="37.662836000" lon="-4.047521000">
        <ele>547.0</ele>
        <time>2020-10-15T10:32:20Z</time>
      </trkpt>
      <trkpt lat="37.662852000" lon="-4.047625000">
        <ele>547.0</ele>
        <time>2020-10-15T10:32:22Z</time>
      </trkpt>
      <trkpt lat="37.662873000" lon="-4.047729000">
        <ele>547.1</ele>
        <time>2020-10-15T10:32:24Z</time>
      </trkpt>
      <trkpt lat="37.662893000" lon="-4.047832000">
        <ele>547.2</ele>
        <time>2020-10-15T10:32:26Z</time>
      </trkpt>
      <trkpt lat="37.662915000" lon="-4.047934000">
        <ele>547.4</ele>
        <time>2020-10-15T10:32:28Z</time>
      </trkpt>
      <trkpt lat="37.662936000" lon="-4.048036000">
        <ele>547.5</ele>
        <time>2020-10-15T10:32:30Z</time>
      </trkpt>
      <trkpt lat="37.662962000" lon="-4.048133000">
        <ele>547.6</ele>
        <time>2020-10-15T10:32:32Z</time>
      </trkpt>
      <trkpt lat="37.662989000" lon="-4.048231000">
        <ele>547.6</ele>
        <time>2020-10-15T10:32:34Z</time>
      </trkpt>
      <trkpt lat="37.663015000" lon="-4.048331000">
        <ele>547.6</ele>
        <time>2020-10-15T10:32:36Z</time>
      </trkpt>
      <trkpt lat="37.663045000" lon="-4.048431000">
        <ele>547.6</ele>
        <time>2020-10-15T10:32:38Z</time>
      </trkpt>
      <trkpt lat="37.663077000" lon="-4.048533000">
        <ele>547.6</ele>
        <time>2020-10-15T10:32:40Z</time>
      </trkpt>
      <trkpt lat="37.663113000" lon="-4.048632000">
        <ele>547.6</ele>
        <time>2020-10-15T10:32:42Z</time>
      </trkpt>
      <trkpt lat="37.663148000" lon="-4.048731000">
        <ele>547.7</ele>
        <time>2020-10-15T10:32:44Z</time>
      </trkpt>
      <trkpt lat="37.663183000" lon="-4.048827000">
        <ele>547.9</ele>
        <time>2020-10-15T10:32:46Z</time>
      </trkpt>
      <trkpt lat="37.663224000" lon="-4.048921000">
        <ele>548.1</ele>
        <time>2020-10-15T10:32:48Z</time>
      </trkpt>
      <trkpt lat="37.663266000" lon="-4.049015000">
        <ele>548.3</ele>
        <time>2020-10-15T10:32:50Z</time>
      </trkpt>
      <trkpt lat="37.663309000" lon="-4.049108000">
        <ele>548.5</ele>
        <time>2020-10-15T10:32:52Z</time>
      </trkpt>
      <trkpt lat="37.663353000" lon="-4.049198000">
        <ele>548.7</ele>
        <time>2020-10-15T10:32:54Z</time>
      </trkpt>
      <trkpt lat="37.663396000" lon="-4.049288000">
        <ele>549.0</ele>
        <time>2020-10-15T10:32:56Z</time>
      </trkpt>
      <trkpt lat="37.663442000" lon="-4.049375000">
        <ele>549.3</ele>
        <time>2020-10-15T10:32:58Z</time>
      </trkpt>
      <trkpt lat="37.663491000" lon="-4.049460000">
        <ele>549.5</ele>
        <time>2020-10-15T10:33:00Z</time>
      </trkpt>
      <trkpt lat="37.663540000" lon="-4.049544000">
        <ele>549.8</ele>
        <time>2020-10-15T10:33:02Z</time>
      </trkpt>
      <trkpt lat="37.663587000" lon="-4.049630000">
        <ele>550.1</ele>
        <time>2020-10-15T10:33:04Z</time>
      </trkpt>
      <trkpt lat="37.663636000" lon="-4.049718000">
        <ele>550.4</ele>
        <time>2020-10-15T10:33:06Z</time>
      </trkpt>
      <trkpt lat="37.663684000" lon="-4.049805000">
        <ele>550.6</ele>
        <time>2020-10-15T10:33:08Z</time>
      </trkpt>
      <trkpt lat="37.663733000" lon="-4.049894000">
        <ele>550.9</ele>
        <time>2020-10-15T10:33:10Z</time>
      </trkpt>
      <trkpt lat="37.663783000" lon="-4.049981000">
        <ele>551.3</ele>
        <time>2020-10-15T10:33:12Z</time>
      </trkpt>
      <trkpt lat="37.663833000" lon="-4.050068000">
        <ele>551.6</ele>
        <time>2020-10-15T10:33:14Z</time>
      </trkpt>
      <trkpt lat="37.663880000" lon="-4.050153000">
        <ele>552.0</ele>
        <time>2020-10-15T10:33:16Z</time>
      </trkpt>
      <trkpt lat="37.663929000" lon="-4.050238000">
        <ele>552.5</ele>
        <time>2020-10-15T10:33:18Z</time>
      </trkpt>
      <trkpt lat="37.663980000" lon="-4.050320000">
        <ele>552.9</ele>
        <time>2020-10-15T10:33:20Z</time>
      </trkpt>
      <trkpt lat="37.664030000" lon="-4.050404000">
        <ele>553.4</ele>
        <time>2020-10-15T10:33:22Z</time>
      </trkpt>
      <trkpt lat="37.664079000" lon="-4.050489000">
        <ele>553.6</ele>
        <time>2020-10-15T10:33:24Z</time>
      </trkpt>
      <trkpt lat="37.664127000" lon="-4.050579000">
        <ele>553.9</ele>
        <time>2020-10-15T10:33:26Z</time>
      </trkpt>
      <trkpt lat="37.664176000" lon="-4.050668000">
        <ele>554.1</ele>
        <time>2020-10-15T10:33:28Z</time>
      </trkpt>
      <trkpt lat="37.664226000" lon="-4.050760000">
        <ele>554.2</ele>
        <time>2020-10-15T10:33:30Z</time>
      </trkpt>
      <trkpt lat="37.664276000" lon="-4.050849000">
        <ele>554.3</ele>
        <time>2020-10-15T10:33:32Z</time>
      </trkpt>
      <trkpt lat="37.664325000" lon="-4.050938000">
        <ele>554.3</ele>
        <time>2020-10-15T10:33:34Z</time>
      </trkpt>
      <trkpt lat="37.664373000" lon="-4.051031000">
        <ele>554.2</ele>
        <time>2020-10-15T10:33:36Z</time>
      </trkpt>
      <trkpt lat="37.664425000" lon="-4.051117000">
        <ele>554.1</ele>
        <time>2020-10-15T10:33:38Z</time>
      </trkpt>
      <trkpt lat="37.664471000" lon="-4.051209000">
        <ele>553.9</ele>
        <time>2020-10-15T10:33:40Z</time>
      </trkpt>
      <trkpt lat="37.664520000" lon="-4.051301000">
        <ele>553.7</ele>
        <time>2020-10-15T10:33:42Z</time>
      </trkpt>
      <trkpt lat="37.664564000" lon="-4.051391000">
        <ele>553.6</ele>
        <time>2020-10-15T10:33:44Z</time>
      </trkpt>
      <trkpt lat="37.664607000" lon="-4.051487000">
        <ele>553.6</ele>
        <time>2020-10-15T10:33:46Z</time>
      </trkpt>
      <trkpt lat="37.664647000" lon="-4.051587000">
        <ele>553.6</ele>
        <time>2020-10-15T10:33:48Z</time>
      </trkpt>
      <trkpt lat="37.664686000" lon="-4.051689000">
        <ele>553.7</ele>
        <time>2020-10-15T10:33:50Z</time>
      </trkpt>
      <trkpt lat="37.664725000" lon="-4.051804000">
        <ele>553.8</ele>
        <time>2020-10-15T10:33:52Z</time>
      </trkpt>
      <trkpt lat="37.664766000" lon="-4.051916000">
        <ele>553.9</ele>
        <time>2020-10-15T10:33:54Z</time>
      </trkpt>
      <trkpt lat="37.664803000" lon="-4.052024000">
        <ele>554.0</ele>
        <time>2020-10-15T10:33:56Z</time>
      </trkpt>
      <trkpt lat="37.664832000" lon="-4.052146000">
        <ele>554.2</ele>
        <time>2020-10-15T10:33:58Z</time>
      </trkpt>
      <trkpt lat="37.664865000" lon="-4.052263000">
        <ele>554.4</ele>
        <time>2020-10-15T10:34:00Z</time>
      </trkpt>
      <trkpt lat="37.664887000" lon="-4.052385000">
        <ele>554.6</ele>
        <time>2020-10-15T10:34:02Z</time>
      </trkpt>
      <trkpt lat="37.664909000" lon="-4.052511000">
        <ele>554.9</ele>
        <time>2020-10-15T10:34:04Z</time>
      </trkpt>
      <trkpt lat="37.664935000" lon="-4.052633000">
        <ele>555.2</ele>
        <time>2020-10-15T10:34:06Z</time>
      </trkpt>
      <trkpt lat="37.664953000" lon="-4.052760000">
        <ele>555.5</ele>
        <time>2020-10-15T10:34:08Z</time>
      </trkpt>
      <trkpt lat="37.664969000" lon="-4.052890000">
        <ele>555.8</ele>
        <time>2020-10-15T10:34:10Z</time>
      </trkpt>
      <trkpt lat="37.664985000" lon="-4.053025000">
        <ele>556.2</ele>
        <time>2020-10-15T10:34:12Z</time>
      </trkpt>
      <trkpt lat="37.664997000" lon="-4.053160000">
        <ele>556.5</ele>
        <time>2020-10-15T10:34:14Z</time>
      </trkpt>
      <trkpt lat="37.665014000" lon="-4.053299000">
        <ele>556.9</ele>
        <time>2020-10-15T10:34:16Z</time>
      </trkpt>
      <trkpt lat="37.665024000" lon="-4.053441000">
        <ele>557.3</ele>
        <time>2020-10-15T10:34:18Z</time>
      </trkpt>
      <trkpt lat="37.665021000" lon="-4.053599000">
        <ele>557.5</ele>
        <time>2020-10-15T10:34:20Z</time>
      </trkpt>
      <trkpt lat="37.665013000" lon="-4.053759000">
        <ele>557.8</ele>
        <time>2020-10-15T10:34:22Z</time>
      </trkpt>
      <trkpt lat="37.665004000" lon="-4.053914000">
        <ele>557.9</ele>
        <time>2020-10-15T10:34:24Z</time>
      </trkpt>
      <trkpt lat="37.664989000" lon="-4.054065000">
        <ele>557.8</ele>
        <time>2020-10-15T10:34:26Z</time>
      </trkpt>
      <trkpt lat="37.664967000" lon="-4.054215000">
        <ele>557.5</ele>
        <time>2020-10-15T10:34:28Z</time>
      </trkpt>
      <trkpt lat="37.664942000" lon="-4.054368000">
        <ele>557.2</ele>
        <time>2020-10-15T10:34:30Z</time>
      </trkpt>
      <trkpt lat="37.664918000" lon="-4.054522000">
        <ele>556.6</ele>
        <time>2020-10-15T10:34:32Z</time>
      </trkpt>
      <trkpt lat="37.664890000" lon="-4.054675000">
        <ele>555.9</ele>
        <time>2020-10-15T10:34:34Z</time>
      </trkpt>
      <trkpt lat="37.664858000" lon="-4.054833000">
        <ele>555.2</ele>
        <time>2020-10-15T10:34:36Z</time>
      </trkpt>
      <trkpt lat="37.664830000" lon="-4.054986000">
        <ele>554.5</ele>
        <time>2020-10-15T10:34:38Z</time>
      </trkpt>
      <trkpt lat="37.664797000" lon="-4.055144000">
        <ele>553.8</ele>
        <time>2020-10-15T10:34:41Z</time>
      </trkpt>
      <trkpt lat="37.664762000" lon="-4.055297000">
        <ele>553.2</ele>
        <time>2020-10-15T10:34:42Z</time>
      </trkpt>
      <trkpt lat="37.664721000" lon="-4.055449000">
        <ele>552.5</ele>
        <time>2020-10-15T10:34:44Z</time>
      </trkpt>
      <trkpt lat="37.664683000" lon="-4.055602000">
        <ele>552.0</ele>
        <time>2020-10-15T10:34:46Z</time>
      </trkpt>
      <trkpt lat="37.664648000" lon="-4.055743000">
        <ele>551.6</ele>
        <time>2020-10-15T10:34:48Z</time>
      </trkpt>
      <trkpt lat="37.664607000" lon="-4.055901000">
        <ele>551.3</ele>
        <time>2020-10-15T10:34:50Z</time>
      </trkpt>
      <trkpt lat="37.664559000" lon="-4.056055000">
        <ele>551.0</ele>
        <time>2020-10-15T10:34:52Z</time>
      </trkpt>
      <trkpt lat="37.664519000" lon="-4.056212000">
        <ele>550.8</ele>
        <time>2020-10-15T10:34:54Z</time>
      </trkpt>
      <trkpt lat="37.664485000" lon="-4.056364000">
        <ele>550.7</ele>
        <time>2020-10-15T10:34:56Z</time>
      </trkpt>
      <trkpt lat="37.664449000" lon="-4.056514000">
        <ele>550.6</ele>
        <time>2020-10-15T10:34:58Z</time>
      </trkpt>
      <trkpt lat="37.664407000" lon="-4.056672000">
        <ele>550.5</ele>
        <time>2020-10-15T10:35:00Z</time>
      </trkpt>
      <trkpt lat="37.664362000" lon="-4.056830000">
        <ele>550.2</ele>
        <time>2020-10-15T10:35:02Z</time>
      </trkpt>
      <trkpt lat="37.664321000" lon="-4.056990000">
        <ele>550.0</ele>
        <time>2020-10-15T10:35:04Z</time>
      </trkpt>
      <trkpt lat="37.664285000" lon="-4.057147000">
        <ele>549.8</ele>
        <time>2020-10-15T10:35:06Z</time>
      </trkpt>
      <trkpt lat="37.664241000" lon="-4.057314000">
        <ele>549.5</ele>
        <time>2020-10-15T10:35:08Z</time>
      </trkpt>
      <trkpt lat="37.664204000" lon="-4.057480000">
        <ele>549.3</ele>
        <time>2020-10-15T10:35:10Z</time>
      </trkpt>
      <trkpt lat="37.664164000" lon="-4.057638000">
        <ele>549.0</ele>
        <time>2020-10-15T10:35:12Z</time>
      </trkpt>
      <trkpt lat="37.664123000" lon="-4.057803000">
        <ele>548.7</ele>
        <time>2020-10-15T10:35:14Z</time>
      </trkpt>
      <trkpt lat="37.664088000" lon="-4.057965000">
        <ele>548.4</ele>
        <time>2020-10-15T10:35:16Z</time>
      </trkpt>
      <trkpt lat="37.664044000" lon="-4.058128000">
        <ele>548.0</ele>
        <time>2020-10-15T10:35:18Z</time>
      </trkpt>
      <trkpt lat="37.664002000" lon="-4.058288000">
        <ele>547.5</ele>
        <time>2020-10-15T10:35:20Z</time>
      </trkpt>
      <trkpt lat="37.663961000" lon="-4.058454000">
        <ele>547.1</ele>
        <time>2020-10-15T10:35:22Z</time>
      </trkpt>
      <trkpt lat="37.663925000" lon="-4.058617000">
        <ele>546.6</ele>
        <time>2020-10-15T10:35:24Z</time>
      </trkpt>
      <trkpt lat="37.663883000" lon="-4.058780000">
        <ele>546.1</ele>
        <time>2020-10-15T10:35:26Z</time>
      </trkpt>
      <trkpt lat="37.663841000" lon="-4.058941000">
        <ele>545.5</ele>
        <time>2020-10-15T10:35:28Z</time>
      </trkpt>
      <trkpt lat="37.663796000" lon="-4.059102000">
        <ele>545.2</ele>
        <time>2020-10-15T10:35:30Z</time>
      </trkpt>
      <trkpt lat="37.663748000" lon="-4.059266000">
        <ele>544.8</ele>
        <time>2020-10-15T10:35:32Z</time>
      </trkpt>
      <trkpt lat="37.663704000" lon="-4.059434000">
        <ele>544.5</ele>
        <time>2020-10-15T10:35:34Z</time>
      </trkpt>
      <trkpt lat="37.663661000" lon="-4.059603000">
        <ele>544.1</ele>
        <time>2020-10-15T10:35:36Z</time>
      </trkpt>
      <trkpt lat="37.663602000" lon="-4.059774000">
        <ele>543.7</ele>
        <time>2020-10-15T10:35:38Z</time>
      </trkpt>
      <trkpt lat="37.663540000" lon="-4.059950000">
        <ele>543.4</ele>
        <time>2020-10-15T10:35:40Z</time>
      </trkpt>
      <trkpt lat="37.663479000" lon="-4.060114000">
        <ele>543.0</ele>
        <time>2020-10-15T10:35:42Z</time>
      </trkpt>
      <trkpt lat="37.663414000" lon="-4.060278000">
        <ele>542.6</ele>
        <time>2020-10-15T10:35:44Z</time>
      </trkpt>
      <trkpt lat="37.663343000" lon="-4.060434000">
        <ele>542.3</ele>
        <time>2020-10-15T10:35:46Z</time>
      </trkpt>
      <trkpt lat="37.663262000" lon="-4.060582000">
        <ele>542.0</ele>
        <time>2020-10-15T10:35:48Z</time>
      </trkpt>
      <trkpt lat="37.663180000" lon="-4.060731000">
        <ele>541.7</ele>
        <time>2020-10-15T10:35:50Z</time>
      </trkpt>
      <trkpt lat="37.663095000" lon="-4.060877000">
        <ele>541.3</ele>
        <time>2020-10-15T10:35:52Z</time>
      </trkpt>
      <trkpt lat="37.662998000" lon="-4.061017000">
        <ele>540.8</ele>
        <time>2020-10-15T10:35:54Z</time>
      </trkpt>
      <trkpt lat="37.662906000" lon="-4.061148000">
        <ele>540.5</ele>
        <time>2020-10-15T10:35:56Z</time>
      </trkpt>
      <trkpt lat="37.662815000" lon="-4.061268000">
        <ele>540.0</ele>
        <time>2020-10-15T10:35:58Z</time>
      </trkpt>
      <trkpt lat="37.662720000" lon="-4.061377000">
        <ele>539.6</ele>
        <time>2020-10-15T10:36:00Z</time>
      </trkpt>
      <trkpt lat="37.662624000" lon="-4.061475000">
        <ele>539.3</ele>
        <time>2020-10-15T10:36:02Z</time>
      </trkpt>
      <trkpt lat="37.662540000" lon="-4.061573000">
        <ele>539.0</ele>
        <time>2020-10-15T10:36:04Z</time>
      </trkpt>
      <trkpt lat="37.662446000" lon="-4.061667000">
        <ele>538.7</ele>
        <time>2020-10-15T10:36:06Z</time>
      </trkpt>
      <trkpt lat="37.662350000" lon="-4.061760000">
        <ele>538.5</ele>
        <time>2020-10-15T10:36:08Z</time>
      </trkpt>
      <trkpt lat="37.662249000" lon="-4.061843000">
        <ele>538.1</ele>
        <time>2020-10-15T10:36:10Z</time>
      </trkpt>
      <trkpt lat="37.662148000" lon="-4.061923000">
        <ele>537.7</ele>
        <time>2020-10-15T10:36:12Z</time>
      </trkpt>
      <trkpt lat="37.662037000" lon="-4.062001000">
        <ele>537.5</ele>
        <time>2020-10-15T10:36:14Z</time>
      </trkpt>
      <trkpt lat="37.661928000" lon="-4.062068000">
        <ele>537.2</ele>
        <time>2020-10-15T10:36:16Z</time>
      </trkpt>
      <trkpt lat="37.661817000" lon="-4.062140000">
        <ele>536.9</ele>
        <time>2020-10-15T10:36:18Z</time>
      </trkpt>
      <trkpt lat="37.661705000" lon="-4.062204000">
        <ele>536.7</ele>
        <time>2020-10-15T10:36:20Z</time>
      </trkpt>
      <trkpt lat="37.661586000" lon="-4.062264000">
        <ele>536.5</ele>
        <time>2020-10-15T10:36:22Z</time>
      </trkpt>
      <trkpt lat="37.661462000" lon="-4.062317000">
        <ele>536.4</ele>
        <time>2020-10-15T10:36:24Z</time>
      </trkpt>
      <trkpt lat="37.661336000" lon="-4.062369000">
        <ele>536.2</ele>
        <time>2020-10-15T10:36:26Z</time>
      </trkpt>
      <trkpt lat="37.661210000" lon="-4.062416000">
        <ele>536.1</ele>
        <time>2020-10-15T10:36:28Z</time>
      </trkpt>
      <trkpt lat="37.661082000" lon="-4.062461000">
        <ele>536.0</ele>
        <time>2020-10-15T10:36:30Z</time>
      </trkpt>
      <trkpt lat="37.660951000" lon="-4.062495000">
        <ele>535.9</ele>
        <time>2020-10-15T10:36:32Z</time>
      </trkpt>
      <trkpt lat="37.660827000" lon="-4.062517000">
        <ele>535.8</ele>
        <time>2020-10-15T10:36:34Z</time>
      </trkpt>
      <trkpt lat="37.660702000" lon="-4.062539000">
        <ele>535.6</ele>
        <time>2020-10-15T10:36:36Z</time>
      </trkpt>
      <trkpt lat="37.660571000" lon="-4.062561000">
        <ele>535.4</ele>
        <time>2020-10-15T10:36:38Z</time>
      </trkpt>
      <trkpt lat="37.660446000" lon="-4.062570000">
        <ele>535.1</ele>
        <time>2020-10-15T10:36:40Z</time>
      </trkpt>
      <trkpt lat="37.660323000" lon="-4.062582000">
        <ele>534.7</ele>
        <time>2020-10-15T10:36:42Z</time>
      </trkpt>
      <trkpt lat="37.660203000" lon="-4.062581000">
        <ele>534.5</ele>
        <time>2020-10-15T10:36:44Z</time>
      </trkpt>
      <trkpt lat="37.660085000" lon="-4.062583000">
        <ele>534.3</ele>
        <time>2020-10-15T10:36:46Z</time>
      </trkpt>
      <trkpt lat="37.659964000" lon="-4.062574000">
        <ele>534.1</ele>
        <time>2020-10-15T10:36:48Z</time>
      </trkpt>
      <trkpt lat="37.659837000" lon="-4.062563000">
        <ele>534.0</ele>
        <time>2020-10-15T10:36:50Z</time>
      </trkpt>
      <trkpt lat="37.659710000" lon="-4.062547000">
        <ele>533.8</ele>
        <time>2020-10-15T10:36:52Z</time>
      </trkpt>
      <trkpt lat="37.659583000" lon="-4.062525000">
        <ele>533.7</ele>
        <time>2020-10-15T10:36:54Z</time>
      </trkpt>
      <trkpt lat="37.659456000" lon="-4.062510000">
        <ele>533.5</ele>
        <time>2020-10-15T10:36:56Z</time>
      </trkpt>
      <trkpt lat="37.659335000" lon="-4.062491000">
        <ele>533.5</ele>
        <time>2020-10-15T10:36:58Z</time>
      </trkpt>
      <trkpt lat="37.659214000" lon="-4.062473000">
        <ele>533.5</ele>
        <time>2020-10-15T10:37:00Z</time>
      </trkpt>
      <trkpt lat="37.659092000" lon="-4.062456000">
        <ele>533.5</ele>
        <time>2020-10-15T10:37:02Z</time>
      </trkpt>
      <trkpt lat="37.658973000" lon="-4.062439000">
        <ele>533.5</ele>
        <time>2020-10-15T10:37:04Z</time>
      </trkpt>
      <trkpt lat="37.658851000" lon="-4.062425000">
        <ele>533.5</ele>
        <time>2020-10-15T10:37:06Z</time>
      </trkpt>
      <trkpt lat="37.658728000" lon="-4.062416000">
        <ele>533.2</ele>
        <time>2020-10-15T10:37:08Z</time>
      </trkpt>
      <trkpt lat="37.658607000" lon="-4.062399000">
        <ele>532.9</ele>
        <time>2020-10-15T10:37:10Z</time>
      </trkpt>
      <trkpt lat="37.658481000" lon="-4.062383000">
        <ele>532.5</ele>
        <time>2020-10-15T10:37:12Z</time>
      </trkpt>
      <trkpt lat="37.658357000" lon="-4.062365000">
        <ele>532.2</ele>
        <time>2020-10-15T10:37:14Z</time>
      </trkpt>
      <trkpt lat="37.658236000" lon="-4.062344000">
        <ele>531.8</ele>
        <time>2020-10-15T10:37:16Z</time>
      </trkpt>
      <trkpt lat="37.658118000" lon="-4.062325000">
        <ele>531.5</ele>
        <time>2020-10-15T10:37:18Z</time>
      </trkpt>
      <trkpt lat="37.658012000" lon="-4.062305000">
        <ele>531.3</ele>
        <time>2020-10-15T10:37:20Z</time>
      </trkpt>
      <trkpt lat="37.657900000" lon="-4.062279000">
        <ele>530.9</ele>
        <time>2020-10-15T10:37:23Z</time>
      </trkpt>
      <trkpt lat="37.657805000" lon="-4.062260000">
        <ele>530.5</ele>
        <time>2020-10-15T10:38:24Z</time>
      </trkpt>
      <trkpt lat="37.657710000" lon="-4.062259000">
        <ele>530.0</ele>
        <time>2020-10-15T10:38:29Z</time>
      </trkpt>
      <trkpt lat="37.657611000" lon="-4.062244000">
        <ele>529.5</ele>
        <time>2020-10-15T10:38:31Z</time>
      </trkpt>
      <trkpt lat="37.657491000" lon="-4.062229000">
        <ele>529.1</ele>
        <time>2020-10-15T10:38:34Z</time>
      </trkpt>
      <trkpt lat="37.657403000" lon="-4.062219000">
        <ele>528.6</ele>
        <time>2020-10-15T10:38:36Z</time>
      </trkpt>
      <trkpt lat="37.657313000" lon="-4.062205000">
        <ele>528.2</ele>
        <time>2020-10-15T10:38:38Z</time>
      </trkpt>
      <trkpt lat="37.657214000" lon="-4.062190000">
        <ele>527.8</ele>
        <time>2020-10-15T10:38:40Z</time>
      </trkpt>
      <trkpt lat="37.657115000" lon="-4.062178000">
        <ele>527.5</ele>
        <time>2020-10-15T10:38:42Z</time>
      </trkpt>
      <trkpt lat="37.657011000" lon="-4.062164000">
        <ele>527.2</ele>
        <time>2020-10-15T10:38:44Z</time>
      </trkpt>
      <trkpt lat="37.656913000" lon="-4.062150000">
        <ele>526.9</ele>
        <time>2020-10-15T10:38:46Z</time>
      </trkpt>
      <trkpt lat="37.656809000" lon="-4.062141000">
        <ele>526.6</ele>
        <time>2020-10-15T10:38:48Z</time>
      </trkpt>
      <trkpt lat="37.656702000" lon="-4.062127000">
        <ele>526.5</ele>
        <time>2020-10-15T10:38:50Z</time>
      </trkpt>
      <trkpt lat="37.656590000" lon="-4.062113000">
        <ele>526.2</ele>
        <time>2020-10-15T10:38:52Z</time>
      </trkpt>
      <trkpt lat="37.656477000" lon="-4.062099000">
        <ele>526.0</ele>
        <time>2020-10-15T10:38:54Z</time>
      </trkpt>
      <trkpt lat="37.656362000" lon="-4.062081000">
        <ele>525.9</ele>
        <time>2020-10-15T10:38:56Z</time>
      </trkpt>
      <trkpt lat="37.656245000" lon="-4.062058000">
        <ele>525.7</ele>
        <time>2020-10-15T10:38:58Z</time>
      </trkpt>
      <trkpt lat="37.656121000" lon="-4.062047000">
        <ele>525.5</ele>
        <time>2020-10-15T10:39:00Z</time>
      </trkpt>
      <trkpt lat="37.655998000" lon="-4.062024000">
        <ele>525.4</ele>
        <time>2020-10-15T10:39:02Z</time>
      </trkpt>
      <trkpt lat="37.655876000" lon="-4.062004000">
        <ele>525.2</ele>
        <time>2020-10-15T10:39:04Z</time>
      </trkpt>
      <trkpt lat="37.655750000" lon="-4.061989000">
        <ele>524.8</ele>
        <time>2020-10-15T10:39:06Z</time>
      </trkpt>
      <trkpt lat="37.655622000" lon="-4.061969000">
        <ele>524.4</ele>
        <time>2020-10-15T10:39:08Z</time>
      </trkpt>
      <trkpt lat="37.655495000" lon="-4.061955000">
        <ele>524.0</ele>
        <time>2020-10-15T10:39:10Z</time>
      </trkpt>
      <trkpt lat="37.655365000" lon="-4.061943000">
        <ele>523.6</ele>
        <time>2020-10-15T10:39:12Z</time>
      </trkpt>
      <trkpt lat="37.655236000" lon="-4.061926000">
        <ele>523.4</ele>
        <time>2020-10-15T10:39:14Z</time>
      </trkpt>
      <trkpt lat="37.655105000" lon="-4.061902000">
        <ele>523.2</ele>
        <time>2020-10-15T10:39:17Z</time>
      </trkpt>
      <trkpt lat="37.654974000" lon="-4.061888000">
        <ele>523.0</ele>
        <time>2020-10-15T10:39:18Z</time>
      </trkpt>
      <trkpt lat="37.654842000" lon="-4.061879000">
        <ele>522.8</ele>
        <time>2020-10-15T10:39:20Z</time>
      </trkpt>
      <trkpt lat="37.654716000" lon="-4.061857000">
        <ele>522.7</ele>
        <time>2020-10-15T10:39:22Z</time>
      </trkpt>
      <trkpt lat="37.654586000" lon="-4.061834000">
        <ele>522.6</ele>
        <time>2020-10-15T10:39:24Z</time>
      </trkpt>
      <trkpt lat="37.654459000" lon="-4.061824000">
        <ele>522.5</ele>
        <time>2020-10-15T10:39:26Z</time>
      </trkpt>
      <trkpt lat="37.654336000" lon="-4.061814000">
        <ele>522.5</ele>
        <time>2020-10-15T10:39:28Z</time>
      </trkpt>
      <trkpt lat="37.654208000" lon="-4.061795000">
        <ele>522.4</ele>
        <time>2020-10-15T10:39:30Z</time>
      </trkpt>
      <trkpt lat="37.654080000" lon="-4.061780000">
        <ele>522.3</ele>
        <time>2020-10-15T10:39:32Z</time>
      </trkpt>
      <trkpt lat="37.653948000" lon="-4.061760000">
        <ele>522.2</ele>
        <time>2020-10-15T10:39:34Z</time>
      </trkpt>
      <trkpt lat="37.653814000" lon="-4.061745000">
        <ele>522.1</ele>
        <time>2020-10-15T10:39:36Z</time>
      </trkpt>
      <trkpt lat="37.653676000" lon="-4.061725000">
        <ele>521.9</ele>
        <time>2020-10-15T10:39:38Z</time>
      </trkpt>
      <trkpt lat="37.653538000" lon="-4.061707000">
        <ele>521.7</ele>
        <time>2020-10-15T10:39:40Z</time>
      </trkpt>
      <trkpt lat="37.653400000" lon="-4.061696000">
        <ele>521.7</ele>
        <time>2020-10-15T10:39:42Z</time>
      </trkpt>
      <trkpt lat="37.653262000" lon="-4.061676000">
        <ele>521.6</ele>
        <time>2020-10-15T10:39:44Z</time>
      </trkpt>
      <trkpt lat="37.653120000" lon="-4.061658000">
        <ele>521.5</ele>
        <time>2020-10-15T10:39:46Z</time>
      </trkpt>
      <trkpt lat="37.652977000" lon="-4.061635000">
        <ele>521.3</ele>
        <time>2020-10-15T10:39:48Z</time>
      </trkpt>
      <trkpt lat="37.652835000" lon="-4.061616000">
        <ele>521.1</ele>
        <time>2020-10-15T10:39:50Z</time>
      </trkpt>
      <trkpt lat="37.652693000" lon="-4.061598000">
        <ele>520.8</ele>
        <time>2020-10-15T10:39:52Z</time>
      </trkpt>
      <trkpt lat="37.652549000" lon="-4.061588000">
        <ele>520.5</ele>
        <time>2020-10-15T10:39:54Z</time>
      </trkpt>
      <trkpt lat="37.652410000" lon="-4.061585000">
        <ele>520.3</ele>
        <time>2020-10-15T10:39:56Z</time>
      </trkpt>
      <trkpt lat="37.652275000" lon="-4.061591000">
        <ele>520.0</ele>
        <time>2020-10-15T10:39:58Z</time>
      </trkpt>
      <trkpt lat="37.652130000" lon="-4.061611000">
        <ele>519.8</ele>
        <time>2020-10-15T10:40:00Z</time>
      </trkpt>
      <trkpt lat="37.651992000" lon="-4.061631000">
        <ele>519.6</ele>
        <time>2020-10-15T10:40:02Z</time>
      </trkpt>
      <trkpt lat="37.651851000" lon="-4.061656000">
        <ele>519.5</ele>
        <time>2020-10-15T10:40:04Z</time>
      </trkpt>
      <trkpt lat="37.651711000" lon="-4.061690000">
        <ele>519.3</ele>
        <time>2020-10-15T10:40:06Z</time>
      </trkpt>
      <trkpt lat="37.651574000" lon="-4.061729000">
        <ele>519.2</ele>
        <time>2020-10-15T10:40:08Z</time>
      </trkpt>
      <trkpt lat="37.651438000" lon="-4.061775000">
        <ele>519.2</ele>
        <time>2020-10-15T10:40:10Z</time>
      </trkpt>
      <trkpt lat="37.651306000" lon="-4.061834000">
        <ele>519.4</ele>
        <time>2020-10-15T10:40:12Z</time>
      </trkpt>
      <trkpt lat="37.651176000" lon="-4.061894000">
        <ele>519.7</ele>
        <time>2020-10-15T10:40:14Z</time>
      </trkpt>
      <trkpt lat="37.651043000" lon="-4.061963000">
        <ele>520.2</ele>
        <time>2020-10-15T10:40:16Z</time>
      </trkpt>
      <trkpt lat="37.650913000" lon="-4.062033000">
        <ele>520.6</ele>
        <time>2020-10-15T10:40:18Z</time>
      </trkpt>
      <trkpt lat="37.650789000" lon="-4.062110000">
        <ele>521.1</ele>
        <time>2020-10-15T10:40:20Z</time>
      </trkpt>
      <trkpt lat="37.650664000" lon="-4.062194000">
        <ele>521.4</ele>
        <time>2020-10-15T10:40:22Z</time>
      </trkpt>
      <trkpt lat="37.650539000" lon="-4.062291000">
        <ele>521.6</ele>
        <time>2020-10-15T10:40:24Z</time>
      </trkpt>
      <trkpt lat="37.650418000" lon="-4.062395000">
        <ele>521.8</ele>
        <time>2020-10-15T10:40:26Z</time>
      </trkpt>
      <trkpt lat="37.650304000" lon="-4.062503000">
        <ele>522.0</ele>
        <time>2020-10-15T10:40:28Z</time>
      </trkpt>
      <trkpt lat="37.650197000" lon="-4.062610000">
        <ele>522.1</ele>
        <time>2020-10-15T10:40:30Z</time>
      </trkpt>
      <trkpt lat="37.650088000" lon="-4.062729000">
        <ele>522.1</ele>
        <time>2020-10-15T10:40:32Z</time>
      </trkpt>
      <trkpt lat="37.649983000" lon="-4.062842000">
        <ele>521.9</ele>
        <time>2020-10-15T10:40:34Z</time>
      </trkpt>
      <trkpt lat="37.649881000" lon="-4.062961000">
        <ele>521.6</ele>
        <time>2020-10-15T10:40:36Z</time>
      </trkpt>
      <trkpt lat="37.649781000" lon="-4.063092000">
        <ele>521.2</ele>
        <time>2020-10-15T10:40:38Z</time>
      </trkpt>
      <trkpt lat="37.649686000" lon="-4.063228000">
        <ele>520.6</ele>
        <time>2020-10-15T10:40:40Z</time>
      </trkpt>
      <trkpt lat="37.649596000" lon="-4.063366000">
        <ele>520.1</ele>
        <time>2020-10-15T10:40:42Z</time>
      </trkpt>
      <trkpt lat="37.649517000" lon="-4.063510000">
        <ele>519.5</ele>
        <time>2020-10-15T10:40:44Z</time>
      </trkpt>
      <trkpt lat="37.649442000" lon="-4.063655000">
        <ele>518.9</ele>
        <time>2020-10-15T10:40:46Z</time>
      </trkpt>
      <trkpt lat="37.649369000" lon="-4.063802000">
        <ele>518.2</ele>
        <time>2020-10-15T10:40:48Z</time>
      </trkpt>
      <trkpt lat="37.649297000" lon="-4.063960000">
        <ele>517.4</ele>
        <time>2020-10-15T10:40:50Z</time>
      </trkpt>
      <trkpt lat="37.649232000" lon="-4.064116000">
        <ele>516.5</ele>
        <time>2020-10-15T10:40:52Z</time>
      </trkpt>
      <trkpt lat="37.649176000" lon="-4.064280000">
        <ele>515.6</ele>
        <time>2020-10-15T10:40:54Z</time>
      </trkpt>
      <trkpt lat="37.649120000" lon="-4.064438000">
        <ele>514.7</ele>
        <time>2020-10-15T10:40:56Z</time>
      </trkpt>
      <trkpt lat="37.649070000" lon="-4.064601000">
        <ele>513.8</ele>
        <time>2020-10-15T10:40:58Z</time>
      </trkpt>
      <trkpt lat="37.649013000" lon="-4.064760000">
        <ele>512.8</ele>
        <time>2020-10-15T10:41:00Z</time>
      </trkpt>
      <trkpt lat="37.648960000" lon="-4.064925000">
        <ele>511.8</ele>
        <time>2020-10-15T10:41:02Z</time>
      </trkpt>
      <trkpt lat="37.648910000" lon="-4.065091000">
        <ele>510.7</ele>
        <time>2020-10-15T10:41:04Z</time>
      </trkpt>
      <trkpt lat="37.648858000" lon="-4.065255000">
        <ele>509.7</ele>
        <time>2020-10-15T10:41:06Z</time>
      </trkpt>
      <trkpt lat="37.648805000" lon="-4.065419000">
        <ele>508.8</ele>
        <time>2020-10-15T10:41:08Z</time>
      </trkpt>
      <trkpt lat="37.648753000" lon="-4.065587000">
        <ele>508.1</ele>
        <time>2020-10-15T10:41:10Z</time>
      </trkpt>
      <trkpt lat="37.648695000" lon="-4.065748000">
        <ele>507.5</ele>
        <time>2020-10-15T10:41:12Z</time>
      </trkpt>
      <trkpt lat="37.648644000" lon="-4.065909000">
        <ele>507.0</ele>
        <time>2020-10-15T10:41:14Z</time>
      </trkpt>
      <trkpt lat="37.648589000" lon="-4.066068000">
        <ele>506.6</ele>
        <time>2020-10-15T10:41:16Z</time>
      </trkpt>
      <trkpt lat="37.648545000" lon="-4.066223000">
        <ele>506.5</ele>
        <time>2020-10-15T10:41:18Z</time>
      </trkpt>
      <trkpt lat="37.648494000" lon="-4.066382000">
        <ele>506.5</ele>
        <time>2020-10-15T10:41:20Z</time>
      </trkpt>
      <trkpt lat="37.648440000" lon="-4.066537000">
        <ele>506.8</ele>
        <time>2020-10-15T10:41:22Z</time>
      </trkpt>
      <trkpt lat="37.648391000" lon="-4.066692000">
        <ele>507.3</ele>
        <time>2020-10-15T10:41:24Z</time>
      </trkpt>
      <trkpt lat="37.648341000" lon="-4.066845000">
        <ele>507.9</ele>
        <time>2020-10-15T10:41:26Z</time>
      </trkpt>
      <trkpt lat="37.648287000" lon="-4.066999000">
        <ele>508.6</ele>
        <time>2020-10-15T10:41:28Z</time>
      </trkpt>
      <trkpt lat="37.648239000" lon="-4.067156000">
        <ele>509.4</ele>
        <time>2020-10-15T10:41:30Z</time>
      </trkpt>
      <trkpt lat="37.648183000" lon="-4.067312000">
        <ele>510.0</ele>
        <time>2020-10-15T10:41:32Z</time>
      </trkpt>
      <trkpt lat="37.648130000" lon="-4.067471000">
        <ele>510.6</ele>
        <time>2020-10-15T10:41:34Z</time>
      </trkpt>
      <trkpt lat="37.648084000" lon="-4.067622000">
        <ele>511.2</ele>
        <time>2020-10-15T10:41:36Z</time>
      </trkpt>
      <trkpt lat="37.648028000" lon="-4.067781000">
        <ele>511.7</ele>
        <time>2020-10-15T10:41:38Z</time>
      </trkpt>
      <trkpt lat="37.647975000" lon="-4.067944000">
        <ele>512.1</ele>
        <time>2020-10-15T10:41:40Z</time>
      </trkpt>
      <trkpt lat="37.647922000" lon="-4.068105000">
        <ele>512.2</ele>
        <time>2020-10-15T10:41:42Z</time>
      </trkpt>
      <trkpt lat="37.647870000" lon="-4.068267000">
        <ele>512.2</ele>
        <time>2020-10-15T10:41:44Z</time>
      </trkpt>
      <trkpt lat="37.647819000" lon="-4.068422000">
        <ele>512.0</ele>
        <time>2020-10-15T10:41:46Z</time>
      </trkpt>
      <trkpt lat="37.647766000" lon="-4.068580000">
        <ele>511.6</ele>
        <time>2020-10-15T10:41:48Z</time>
      </trkpt>
      <trkpt lat="37.647717000" lon="-4.068728000">
        <ele>511.1</ele>
        <time>2020-10-15T10:41:50Z</time>
      </trkpt>
      <trkpt lat="37.647670000" lon="-4.068878000">
        <ele>510.5</ele>
        <time>2020-10-15T10:41:52Z</time>
      </trkpt>
      <trkpt lat="37.647623000" lon="-4.069029000">
        <ele>509.8</ele>
        <time>2020-10-15T10:41:54Z</time>
      </trkpt>
      <trkpt lat="37.647572000" lon="-4.069180000">
        <ele>509.2</ele>
        <time>2020-10-15T10:41:56Z</time>
      </trkpt>
      <trkpt lat="37.647526000" lon="-4.069336000">
        <ele>508.5</ele>
        <time>2020-10-15T10:41:58Z</time>
      </trkpt>
      <trkpt lat="37.647469000" lon="-4.069498000">
        <ele>507.9</ele>
        <time>2020-10-15T10:42:00Z</time>
      </trkpt>
      <trkpt lat="37.647415000" lon="-4.069650000">
        <ele>507.3</ele>
        <time>2020-10-15T10:42:02Z</time>
      </trkpt>
      <trkpt lat="37.647365000" lon="-4.069799000">
        <ele>506.6</ele>
        <time>2020-10-15T10:42:04Z</time>
      </trkpt>
      <trkpt lat="37.647323000" lon="-4.069944000">
        <ele>506.1</ele>
        <time>2020-10-15T10:42:06Z</time>
      </trkpt>
      <trkpt lat="37.647273000" lon="-4.070090000">
        <ele>505.6</ele>
        <time>2020-10-15T10:42:08Z</time>
      </trkpt>
      <trkpt lat="37.647228000" lon="-4.070240000">
        <ele>505.3</ele>
        <time>2020-10-15T10:42:10Z</time>
      </trkpt>
      <trkpt lat="37.647177000" lon="-4.070393000">
        <ele>505.0</ele>
        <time>2020-10-15T10:42:12Z</time>
      </trkpt>
      <trkpt lat="37.647126000" lon="-4.070543000">
        <ele>504.9</ele>
        <time>2020-10-15T10:42:15Z</time>
      </trkpt>
      <trkpt lat="37.647076000" lon="-4.070695000">
        <ele>504.9</ele>
        <time>2020-10-15T10:42:16Z</time>
      </trkpt>
      <trkpt lat="37.647028000" lon="-4.070847000">
        <ele>505.0</ele>
        <time>2020-10-15T10:42:18Z</time>
      </trkpt>
      <trkpt lat="37.646977000" lon="-4.070992000">
        <ele>505.2</ele>
        <time>2020-10-15T10:42:20Z</time>
      </trkpt>
      <trkpt lat="37.646926000" lon="-4.071143000">
        <ele>505.5</ele>
        <time>2020-10-15T10:42:22Z</time>
      </trkpt>
      <trkpt lat="37.646878000" lon="-4.071298000">
        <ele>505.8</ele>
        <time>2020-10-15T10:42:24Z</time>
      </trkpt>
      <trkpt lat="37.646822000" lon="-4.071454000">
        <ele>506.3</ele>
        <time>2020-10-15T10:42:26Z</time>
      </trkpt>
      <trkpt lat="37.646773000" lon="-4.071609000">
        <ele>506.6</ele>
        <time>2020-10-15T10:42:28Z</time>
      </trkpt>
      <trkpt lat="37.646719000" lon="-4.071768000">
        <ele>506.9</ele>
        <time>2020-10-15T10:42:30Z</time>
      </trkpt>
      <trkpt lat="37.646673000" lon="-4.071926000">
        <ele>507.1</ele>
        <time>2020-10-15T10:42:32Z</time>
      </trkpt>
      <trkpt lat="37.646628000" lon="-4.072081000">
        <ele>507.3</ele>
        <time>2020-10-15T10:42:34Z</time>
      </trkpt>
      <trkpt lat="37.646579000" lon="-4.072247000">
        <ele>507.3</ele>
        <time>2020-10-15T10:42:36Z</time>
      </trkpt>
      <trkpt lat="37.646542000" lon="-4.072411000">
        <ele>507.3</ele>
        <time>2020-10-15T10:42:38Z</time>
      </trkpt>
      <trkpt lat="37.646513000" lon="-4.072570000">
        <ele>507.2</ele>
        <time>2020-10-15T10:42:40Z</time>
      </trkpt>
      <trkpt lat="37.646478000" lon="-4.072737000">
        <ele>507.1</ele>
        <time>2020-10-15T10:42:42Z</time>
      </trkpt>
      <trkpt lat="37.646445000" lon="-4.072902000">
        <ele>506.8</ele>
        <time>2020-10-15T10:42:44Z</time>
      </trkpt>
      <trkpt lat="37.646413000" lon="-4.073067000">
        <ele>506.5</ele>
        <time>2020-10-15T10:42:46Z</time>
      </trkpt>
      <trkpt lat="37.646379000" lon="-4.073240000">
        <ele>506.1</ele>
        <time>2020-10-15T10:42:48Z</time>
      </trkpt>
      <trkpt lat="37.646348000" lon="-4.073412000">
        <ele>505.6</ele>
        <time>2020-10-15T10:42:50Z</time>
      </trkpt>
      <trkpt lat="37.646321000" lon="-4.073585000">
        <ele>505.1</ele>
        <time>2020-10-15T10:42:52Z</time>
      </trkpt>
      <trkpt lat="37.646290000" lon="-4.073752000">
        <ele>504.5</ele>
        <time>2020-10-15T10:42:54Z</time>
      </trkpt>
      <trkpt lat="37.646265000" lon="-4.073914000">
        <ele>503.9</ele>
        <time>2020-10-15T10:42:56Z</time>
      </trkpt>
      <trkpt lat="37.646232000" lon="-4.074077000">
        <ele>503.2</ele>
        <time>2020-10-15T10:42:58Z</time>
      </trkpt>
      <trkpt lat="37.646200000" lon="-4.074239000">
        <ele>502.2</ele>
        <time>2020-10-15T10:43:00Z</time>
      </trkpt>
      <trkpt lat="37.646169000" lon="-4.074401000">
        <ele>501.1</ele>
        <time>2020-10-15T10:43:02Z</time>
      </trkpt>
      <trkpt lat="37.646138000" lon="-4.074566000">
        <ele>499.8</ele>
        <time>2020-10-15T10:43:04Z</time>
      </trkpt>
      <trkpt lat="37.646111000" lon="-4.074726000">
        <ele>498.5</ele>
        <time>2020-10-15T10:43:06Z</time>
      </trkpt>
      <trkpt lat="37.646082000" lon="-4.074883000">
        <ele>497.4</ele>
        <time>2020-10-15T10:43:08Z</time>
      </trkpt>
      <trkpt lat="37.646055000" lon="-4.075047000">
        <ele>496.4</ele>
        <time>2020-10-15T10:43:10Z</time>
      </trkpt>
      <trkpt lat="37.646023000" lon="-4.075213000">
        <ele>495.5</ele>
        <time>2020-10-15T10:43:12Z</time>
      </trkpt>
      <trkpt lat="37.645992000" lon="-4.075379000">
        <ele>494.9</ele>
        <time>2020-10-15T10:43:14Z</time>
      </trkpt>
      <trkpt lat="37.645961000" lon="-4.075540000">
        <ele>494.5</ele>
        <time>2020-10-15T10:43:16Z</time>
      </trkpt>
      <trkpt lat="37.645930000" lon="-4.075702000">
        <ele>494.1</ele>
        <time>2020-10-15T10:43:18Z</time>
      </trkpt>
      <trkpt lat="37.645908000" lon="-4.075863000">
        <ele>494.0</ele>
        <time>2020-10-15T10:43:20Z</time>
      </trkpt>
      <trkpt lat="37.645883000" lon="-4.076019000">
        <ele>494.1</ele>
        <time>2020-10-15T10:43:22Z</time>
      </trkpt>
      <trkpt lat="37.645854000" lon="-4.076176000">
        <ele>494.4</ele>
        <time>2020-10-15T10:43:24Z</time>
      </trkpt>
      <trkpt lat="37.645827000" lon="-4.076322000">
        <ele>494.8</ele>
        <time>2020-10-15T10:43:26Z</time>
      </trkpt>
      <trkpt lat="37.645796000" lon="-4.076466000">
        <ele>495.5</ele>
        <time>2020-10-15T10:43:28Z</time>
      </trkpt>
      <trkpt lat="37.645773000" lon="-4.076603000">
        <ele>496.1</ele>
        <time>2020-10-15T10:43:30Z</time>
      </trkpt>
      <trkpt lat="37.645751000" lon="-4.076733000">
        <ele>496.7</ele>
        <time>2020-10-15T10:43:32Z</time>
      </trkpt>
      <trkpt lat="37.645725000" lon="-4.076858000">
        <ele>497.3</ele>
        <time>2020-10-15T10:43:34Z</time>
      </trkpt>
      <trkpt lat="37.645699000" lon="-4.076996000">
        <ele>497.8</ele>
        <time>2020-10-15T10:43:36Z</time>
      </trkpt>
      <trkpt lat="37.645677000" lon="-4.077137000">
        <ele>498.3</ele>
        <time>2020-10-15T10:43:38Z</time>
      </trkpt>
      <trkpt lat="37.645646000" lon="-4.077289000">
        <ele>498.8</ele>
        <time>2020-10-15T10:43:40Z</time>
      </trkpt>
      <trkpt lat="37.645617000" lon="-4.077436000">
        <ele>499.3</ele>
        <time>2020-10-15T10:43:42Z</time>
      </trkpt>
      <trkpt lat="37.645589000" lon="-4.077590000">
        <ele>499.7</ele>
        <time>2020-10-15T10:43:44Z</time>
      </trkpt>
      <trkpt lat="37.645559000" lon="-4.077746000">
        <ele>500.1</ele>
        <time>2020-10-15T10:43:46Z</time>
      </trkpt>
      <trkpt lat="37.645529000" lon="-4.077905000">
        <ele>500.3</ele>
        <time>2020-10-15T10:43:48Z</time>
      </trkpt>
      <trkpt lat="37.645496000" lon="-4.078060000">
        <ele>500.4</ele>
        <time>2020-10-15T10:43:50Z</time>
      </trkpt>
      <trkpt lat="37.645464000" lon="-4.078221000">
        <ele>500.4</ele>
        <time>2020-10-15T10:43:52Z</time>
      </trkpt>
      <trkpt lat="37.645433000" lon="-4.078381000">
        <ele>500.4</ele>
        <time>2020-10-15T10:43:54Z</time>
      </trkpt>
      <trkpt lat="37.645405000" lon="-4.078552000">
        <ele>500.3</ele>
        <time>2020-10-15T10:43:56Z</time>
      </trkpt>
      <trkpt lat="37.645375000" lon="-4.078712000">
        <ele>500.2</ele>
        <time>2020-10-15T10:43:58Z</time>
      </trkpt>
      <trkpt lat="37.645344000" lon="-4.078872000">
        <ele>500.0</ele>
        <time>2020-10-15T10:44:00Z</time>
      </trkpt>
      <trkpt lat="37.645316000" lon="-4.079036000">
        <ele>499.6</ele>
        <time>2020-10-15T10:44:02Z</time>
      </trkpt>
      <trkpt lat="37.645283000" lon="-4.079201000">
        <ele>499.2</ele>
        <time>2020-10-15T10:44:04Z</time>
      </trkpt>
      <trkpt lat="37.645255000" lon="-4.079357000">
        <ele>498.6</ele>
        <time>2020-10-15T10:44:06Z</time>
      </trkpt>
      <trkpt lat="37.645219000" lon="-4.079522000">
        <ele>498.0</ele>
        <time>2020-10-15T10:44:08Z</time>
      </trkpt>
      <trkpt lat="37.645189000" lon="-4.079672000">
        <ele>497.5</ele>
        <time>2020-10-15T10:44:10Z</time>
      </trkpt>
      <trkpt lat="37.645161000" lon="-4.079813000">
        <ele>496.8</ele>
        <time>2020-10-15T10:44:12Z</time>
      </trkpt>
      <trkpt lat="37.645125000" lon="-4.079957000">
        <ele>496.1</ele>
        <time>2020-10-15T10:44:14Z</time>
      </trkpt>
      <trkpt lat="37.645085000" lon="-4.080089000">
        <ele>495.3</ele>
        <time>2020-10-15T10:44:16Z</time>
      </trkpt>
      <trkpt lat="37.645039000" lon="-4.080240000">
        <ele>494.5</ele>
        <time>2020-10-15T10:44:18Z</time>
      </trkpt>
      <trkpt lat="37.644995000" lon="-4.080378000">
        <ele>493.6</ele>
        <time>2020-10-15T10:44:20Z</time>
      </trkpt>
      <trkpt lat="37.644947000" lon="-4.080511000">
        <ele>492.8</ele>
        <time>2020-10-15T10:44:22Z</time>
      </trkpt>
      <trkpt lat="37.644894000" lon="-4.080636000">
        <ele>492.2</ele>
        <time>2020-10-15T10:44:24Z</time>
      </trkpt>
      <trkpt lat="37.644836000" lon="-4.080759000">
        <ele>491.6</ele>
        <time>2020-10-15T10:44:26Z</time>
      </trkpt>
      <trkpt lat="37.644769000" lon="-4.080879000">
        <ele>491.2</ele>
        <time>2020-10-15T10:44:28Z</time>
      </trkpt>
      <trkpt lat="37.644708000" lon="-4.080990000">
        <ele>490.8</ele>
        <time>2020-10-15T10:44:30Z</time>
      </trkpt>
      <trkpt lat="37.644637000" lon="-4.081097000">
        <ele>490.4</ele>
        <time>2020-10-15T10:44:32Z</time>
      </trkpt>
      <trkpt lat="37.644570000" lon="-4.081198000">
        <ele>490.0</ele>
        <time>2020-10-15T10:44:34Z</time>
      </trkpt>
      <trkpt lat="37.644505000" lon="-4.081296000">
        <ele>489.6</ele>
        <time>2020-10-15T10:44:36Z</time>
      </trkpt>
      <trkpt lat="37.644428000" lon="-4.081379000">
        <ele>489.3</ele>
        <time>2020-10-15T10:44:38Z</time>
      </trkpt>
      <trkpt lat="37.644347000" lon="-4.081468000">
        <ele>489.0</ele>
        <time>2020-10-15T10:44:40Z</time>
      </trkpt>
      <trkpt lat="37.644253000" lon="-4.081567000">
        <ele>488.6</ele>
        <time>2020-10-15T10:44:42Z</time>
      </trkpt>
      <trkpt lat="37.644163000" lon="-4.081653000">
        <ele>488.3</ele>
        <time>2020-10-15T10:44:44Z</time>
      </trkpt>
      <trkpt lat="37.644072000" lon="-4.081735000">
        <ele>487.8</ele>
        <time>2020-10-15T10:44:46Z</time>
      </trkpt>
      <trkpt lat="37.643978000" lon="-4.081810000">
        <ele>487.4</ele>
        <time>2020-10-15T10:44:48Z</time>
      </trkpt>
      <trkpt lat="37.643882000" lon="-4.081884000">
        <ele>486.9</ele>
        <time>2020-10-15T10:44:50Z</time>
      </trkpt>
      <trkpt lat="37.643787000" lon="-4.081937000">
        <ele>486.5</ele>
        <time>2020-10-15T10:44:52Z</time>
      </trkpt>
      <trkpt lat="37.643689000" lon="-4.082001000">
        <ele>486.1</ele>
        <time>2020-10-15T10:44:54Z</time>
      </trkpt>
      <trkpt lat="37.643580000" lon="-4.082058000">
        <ele>485.7</ele>
        <time>2020-10-15T10:44:56Z</time>
      </trkpt>
      <trkpt lat="37.643467000" lon="-4.082107000">
        <ele>485.4</ele>
        <time>2020-10-15T10:44:58Z</time>
      </trkpt>
      <trkpt lat="37.643358000" lon="-4.082157000">
        <ele>485.0</ele>
        <time>2020-10-15T10:45:00Z</time>
      </trkpt>
      <trkpt lat="37.643253000" lon="-4.082197000">
        <ele>484.6</ele>
        <time>2020-10-15T10:45:02Z</time>
      </trkpt>
      <trkpt lat="37.643146000" lon="-4.082221000">
        <ele>484.3</ele>
        <time>2020-10-15T10:45:04Z</time>
      </trkpt>
      <trkpt lat="37.643036000" lon="-4.082244000">
        <ele>483.9</ele>
        <time>2020-10-15T10:45:06Z</time>
      </trkpt>
      <trkpt lat="37.642933000" lon="-4.082272000">
        <ele>483.5</ele>
        <time>2020-10-15T10:45:08Z</time>
      </trkpt>
      <trkpt lat="37.642832000" lon="-4.082296000">
        <ele>483.0</ele>
        <time>2020-10-15T10:45:10Z</time>
      </trkpt>
      <trkpt lat="37.642728000" lon="-4.082307000">
        <ele>482.5</ele>
        <time>2020-10-15T10:45:12Z</time>
      </trkpt>
      <trkpt lat="37.642628000" lon="-4.082310000">
        <ele>481.8</ele>
        <time>2020-10-15T10:45:14Z</time>
      </trkpt>
      <trkpt lat="37.642523000" lon="-4.082312000">
        <ele>481.1</ele>
        <time>2020-10-15T10:45:16Z</time>
      </trkpt>
      <trkpt lat="37.642419000" lon="-4.082316000">
        <ele>480.4</ele>
        <time>2020-10-15T10:45:18Z</time>
      </trkpt>
      <trkpt lat="37.642316000" lon="-4.082312000">
        <ele>479.7</ele>
        <time>2020-10-15T10:45:20Z</time>
      </trkpt>
      <trkpt lat="37.642209000" lon="-4.082315000">
        <ele>479.2</ele>
        <time>2020-10-15T10:45:22Z</time>
      </trkpt>
      <trkpt lat="37.642102000" lon="-4.082317000">
        <ele>478.6</ele>
        <time>2020-10-15T10:45:24Z</time>
      </trkpt>
      <trkpt lat="37.641995000" lon="-4.082329000">
        <ele>478.1</ele>
        <time>2020-10-15T10:45:27Z</time>
      </trkpt>
      <trkpt lat="37.641890000" lon="-4.082323000">
        <ele>477.6</ele>
        <time>2020-10-15T10:45:28Z</time>
      </trkpt>
      <trkpt lat="37.641785000" lon="-4.082322000">
        <ele>477.3</ele>
        <time>2020-10-15T10:45:30Z</time>
      </trkpt>
      <trkpt lat="37.641682000" lon="-4.082327000">
        <ele>476.8</ele>
        <time>2020-10-15T10:45:32Z</time>
      </trkpt>
      <trkpt lat="37.641573000" lon="-4.082326000">
        <ele>476.5</ele>
        <time>2020-10-15T10:45:34Z</time>
      </trkpt>
      <trkpt lat="37.641465000" lon="-4.082330000">
        <ele>476.1</ele>
        <time>2020-10-15T10:45:36Z</time>
      </trkpt>
      <trkpt lat="37.641364000" lon="-4.082325000">
        <ele>475.8</ele>
        <time>2020-10-15T10:45:38Z</time>
      </trkpt>
      <trkpt lat="37.641270000" lon="-4.082324000">
        <ele>475.5</ele>
        <time>2020-10-15T10:45:41Z</time>
      </trkpt>
      <trkpt lat="37.641172000" lon="-4.082331000">
        <ele>475.3</ele>
        <time>2020-10-15T10:47:46Z</time>
      </trkpt>
      <trkpt lat="37.641070000" lon="-4.082344000">
        <ele>474.9</ele>
        <time>2020-10-15T10:47:49Z</time>
      </trkpt>
      <trkpt lat="37.640988000" lon="-4.082341000">
        <ele>474.5</ele>
        <time>2020-10-15T10:47:51Z</time>
      </trkpt>
      <trkpt lat="37.640898000" lon="-4.082340000">
        <ele>474.4</ele>
        <time>2020-10-15T10:47:53Z</time>
      </trkpt>
      <trkpt lat="37.640809000" lon="-4.082339000">
        <ele>474.2</ele>
        <time>2020-10-15T10:47:55Z</time>
      </trkpt>
      <trkpt lat="37.640724000" lon="-4.082343000">
        <ele>474.1</ele>
        <time>2020-10-15T10:47:57Z</time>
      </trkpt>
      <trkpt lat="37.640640000" lon="-4.082343000">
        <ele>474.1</ele>
        <time>2020-10-15T10:47:59Z</time>
      </trkpt>
      <trkpt lat="37.640555000" lon="-4.082337000">
        <ele>474.1</ele>
        <time>2020-10-15T10:48:01Z</time>
      </trkpt>
      <trkpt lat="37.640468000" lon="-4.082338000">
        <ele>474.3</ele>
        <time>2020-10-15T10:48:03Z</time>
      </trkpt>
      <trkpt lat="37.640375000" lon="-4.082331000">
        <ele>474.5</ele>
        <time>2020-10-15T10:48:05Z</time>
      </trkpt>
      <trkpt lat="37.640281000" lon="-4.082327000">
        <ele>474.6</ele>
        <time>2020-10-15T10:48:07Z</time>
      </trkpt>
      <trkpt lat="37.640185000" lon="-4.082336000">
        <ele>474.8</ele>
        <time>2020-10-15T10:48:09Z</time>
      </trkpt>
      <trkpt lat="37.640086000" lon="-4.082336000">
        <ele>475.1</ele>
        <time>2020-10-15T10:48:11Z</time>
      </trkpt>
      <trkpt lat="37.639983000" lon="-4.082337000">
        <ele>475.4</ele>
        <time>2020-10-15T10:48:13Z</time>
      </trkpt>
      <trkpt lat="37.639877000" lon="-4.082348000">
        <ele>475.5</ele>
        <time>2020-10-15T10:48:15Z</time>
      </trkpt>
      <trkpt lat="37.639774000" lon="-4.082347000">
        <ele>475.7</ele>
        <time>2020-10-15T10:48:17Z</time>
      </trkpt>
      <trkpt lat="37.639663000" lon="-4.082347000">
        <ele>475.7</ele>
        <time>2020-10-15T10:48:19Z</time>
      </trkpt>
      <trkpt lat="37.639558000" lon="-4.082341000">
        <ele>475.7</ele>
        <time>2020-10-15T10:48:21Z</time>
      </trkpt>
      <trkpt lat="37.639450000" lon="-4.082337000">
        <ele>475.7</ele>
        <time>2020-10-15T10:48:23Z</time>
      </trkpt>
      <trkpt lat="37.639338000" lon="-4.082350000">
        <ele>475.5</ele>
        <time>2020-10-15T10:48:25Z</time>
      </trkpt>
      <trkpt lat="37.639234000" lon="-4.082346000">
        <ele>475.3</ele>
        <time>2020-10-15T10:48:27Z</time>
      </trkpt>
      <trkpt lat="37.639130000" lon="-4.082350000">
        <ele>474.9</ele>
        <time>2020-10-15T10:48:29Z</time>
      </trkpt>
      <trkpt lat="37.639031000" lon="-4.082354000">
        <ele>474.5</ele>
        <time>2020-10-15T10:48:31Z</time>
      </trkpt>
      <trkpt lat="37.638940000" lon="-4.082358000">
        <ele>474.0</ele>
        <time>2020-10-15T10:48:33Z</time>
      </trkpt>
      <trkpt lat="37.638851000" lon="-4.082360000">
        <ele>473.5</ele>
        <time>2020-10-15T10:48:35Z</time>
      </trkpt>
      <trkpt lat="37.638768000" lon="-4.082366000">
        <ele>473.1</ele>
        <time>2020-10-15T10:48:37Z</time>
      </trkpt>
      <trkpt lat="37.638686000" lon="-4.082361000">
        <ele>472.6</ele>
        <time>2020-10-15T10:48:39Z</time>
      </trkpt>
      <trkpt lat="37.638601000" lon="-4.082361000">
        <ele>472.2</ele>
        <time>2020-10-15T10:48:41Z</time>
      </trkpt>
      <trkpt lat="37.638518000" lon="-4.082363000">
        <ele>471.7</ele>
        <time>2020-10-15T10:48:43Z</time>
      </trkpt>
      <trkpt lat="37.638406000" lon="-4.082381000">
        <ele>471.3</ele>
        <time>2020-10-15T10:48:46Z</time>
      </trkpt>
      <trkpt lat="37.638293000" lon="-4.082380000">
        <ele>470.9</ele>
        <time>2020-10-15T10:48:49Z</time>
      </trkpt>
      <trkpt lat="37.638172000" lon="-4.082379000">
        <ele>470.5</ele>
        <time>2020-10-15T10:48:52Z</time>
      </trkpt>
      <trkpt lat="37.638087000" lon="-4.082382000">
        <ele>470.2</ele>
        <time>2020-10-15T10:48:54Z</time>
      </trkpt>
      <trkpt lat="37.637997000" lon="-4.082382000">
        <ele>469.7</ele>
        <time>2020-10-15T10:48:56Z</time>
      </trkpt>
      <trkpt lat="37.637900000" lon="-4.082371000">
        <ele>468.9</ele>
        <time>2020-10-15T10:48:58Z</time>
      </trkpt>
      <trkpt lat="37.637806000" lon="-4.082375000">
        <ele>467.7</ele>
        <time>2020-10-15T10:49:00Z</time>
      </trkpt>
      <trkpt lat="37.637719000" lon="-4.082381000">
        <ele>466.1</ele>
        <time>2020-10-15T10:49:02Z</time>
      </trkpt>
      <trkpt lat="37.637624000" lon="-4.082379000">
        <ele>464.3</ele>
        <time>2020-10-15T10:49:04Z</time>
      </trkpt>
      <trkpt lat="37.637532000" lon="-4.082376000">
        <ele>462.4</ele>
        <time>2020-10-15T10:49:06Z</time>
      </trkpt>
      <trkpt lat="37.637433000" lon="-4.082374000">
        <ele>460.3</ele>
        <time>2020-10-15T10:49:08Z</time>
      </trkpt>
      <trkpt lat="37.637340000" lon="-4.082382000">
        <ele>458.6</ele>
        <time>2020-10-15T10:49:10Z</time>
      </trkpt>
      <trkpt lat="37.637245000" lon="-4.082383000">
        <ele>457.4</ele>
        <time>2020-10-15T10:49:12Z</time>
      </trkpt>
      <trkpt lat="37.637153000" lon="-4.082388000">
        <ele>456.6</ele>
        <time>2020-10-15T10:49:14Z</time>
      </trkpt>
      <trkpt lat="37.637061000" lon="-4.082385000">
        <ele>456.3</ele>
        <time>2020-10-15T10:49:16Z</time>
      </trkpt>
      <trkpt lat="37.636968000" lon="-4.082400000">
        <ele>456.4</ele>
        <time>2020-10-15T10:49:18Z</time>
      </trkpt>
      <trkpt lat="37.636860000" lon="-4.082390000">
        <ele>457.2</ele>
        <time>2020-10-15T10:49:21Z</time>
      </trkpt>
      <trkpt lat="37.636774000" lon="-4.082377000">
        <ele>458.5</ele>
        <time>2020-10-15T10:50:39Z</time>
      </trkpt>
      <trkpt lat="37.636684000" lon="-4.082395000">
        <ele>460.3</ele>
        <time>2020-10-15T10:50:44Z</time>
      </trkpt>
      <trkpt lat="37.636595000" lon="-4.082393000">
        <ele>462.4</ele>
        <time>2020-10-15T10:50:47Z</time>
      </trkpt>
      <trkpt lat="37.636495000" lon="-4.082385000">
        <ele>464.7</ele>
        <time>2020-10-15T10:50:50Z</time>
      </trkpt>
      <trkpt lat="37.636402000" lon="-4.082391000">
        <ele>467.4</ele>
        <time>2020-10-15T10:50:53Z</time>
      </trkpt>
      <trkpt lat="37.636296000" lon="-4.082412000">
        <ele>469.6</ele>
        <time>2020-10-15T10:50:57Z</time>
      </trkpt>
      <trkpt lat="37.636205000" lon="-4.082405000">
        <ele>471.7</ele>
        <time>2020-10-15T10:51:00Z</time>
      </trkpt>
      <trkpt lat="37.636106000" lon="-4.082405000">
        <ele>473.5</ele>
        <time>2020-10-15T10:51:03Z</time>
      </trkpt>
      <trkpt lat="37.636001000" lon="-4.082387000">
        <ele>475.0</ele>
        <time>2020-10-15T10:51:06Z</time>
      </trkpt>
      <trkpt lat="37.635888000" lon="-4.082392000">
        <ele>476.4</ele>
        <time>2020-10-15T10:51:09Z</time>
      </trkpt>
      <trkpt lat="37.635772000" lon="-4.082390000">
        <ele>477.4</ele>
        <time>2020-10-15T10:51:12Z</time>
      </trkpt>
      <trkpt lat="37.635664000" lon="-4.082399000">
        <ele>478.1</ele>
        <time>2020-10-15T10:51:15Z</time>
      </trkpt>
      <trkpt lat="37.635567000" lon="-4.082398000">
        <ele>478.8</ele>
        <time>2020-10-15T10:51:18Z</time>
      </trkpt>
      <trkpt lat="37.635478000" lon="-4.082337000">
        <ele>479.5</ele>
        <time>2020-10-15T10:51:21Z</time>
      </trkpt>
      <trkpt lat="37.635429000" lon="-4.082256000">
        <ele>480.2</ele>
        <time>2020-10-15T10:51:24Z</time>
      </trkpt>
      <trkpt lat="37.635441000" lon="-4.082142000">
        <ele>480.8</ele>
        <time>2020-10-15T10:51:29Z</time>
      </trkpt>
      <trkpt lat="37.635513000" lon="-4.082096000">
        <ele>481.5</ele>
        <time>2020-10-15T10:51:35Z</time>
      </trkpt>
      <trkpt lat="37.635448000" lon="-4.082161000">
        <ele>481.9</ele>
        <time>2020-10-15T10:52:48Z</time>
      </trkpt>
      <trkpt lat="37.635432000" lon="-4.082262000">
        <ele>482.4</ele>
        <time>2020-10-15T10:53:26Z</time>
      </trkpt>
      <trkpt lat="37.635463000" lon="-4.082368000">
        <ele>482.7</ele>
        <time>2020-10-15T10:53:31Z</time>
      </trkpt>
      <trkpt lat="37.635381000" lon="-4.082422000">
        <ele>483.0</ele>
        <time>2020-10-15T10:53:38Z</time>
      </trkpt>
      <trkpt lat="37.635275000" lon="-4.082418000">
        <ele>483.2</ele>
        <time>2020-10-15T10:53:41Z</time>
      </trkpt>
      <trkpt lat="37.635161000" lon="-4.082415000">
        <ele>483.5</ele>
        <time>2020-10-15T10:53:44Z</time>
      </trkpt>
      <trkpt lat="37.635040000" lon="-4.082413000">
        <ele>483.9</ele>
        <time>2020-10-15T10:53:47Z</time>
      </trkpt>
      <trkpt lat="37.634959000" lon="-4.082413000">
        <ele>484.2</ele>
        <time>2020-10-15T10:53:49Z</time>
      </trkpt>
      <trkpt lat="37.634876000" lon="-4.082408000">
        <ele>484.5</ele>
        <time>2020-10-15T10:53:51Z</time>
      </trkpt>
      <trkpt lat="37.634794000" lon="-4.082407000">
        <ele>484.5</ele>
        <time>2020-10-15T10:53:53Z</time>
      </trkpt>
      <trkpt lat="37.634673000" lon="-4.082409000">
        <ele>484.5</ele>
        <time>2020-10-15T10:53:56Z</time>
      </trkpt>
      <trkpt lat="37.634552000" lon="-4.082406000">
        <ele>484.5</ele>
        <time>2020-10-15T10:53:59Z</time>
      </trkpt>
      <trkpt lat="37.634470000" lon="-4.082410000">
        <ele>484.2</ele>
        <time>2020-10-15T10:54:01Z</time>
      </trkpt>
      <trkpt lat="37.634355000" lon="-4.082418000">
        <ele>484.0</ele>
        <time>2020-10-15T10:54:04Z</time>
      </trkpt>
      <trkpt lat="37.634247000" lon="-4.082424000">
        <ele>483.9</ele>
        <time>2020-10-15T10:54:07Z</time>
      </trkpt>
      <trkpt lat="37.634146000" lon="-4.082422000">
        <ele>483.9</ele>
        <time>2020-10-15T10:54:10Z</time>
      </trkpt>
      <trkpt lat="37.634049000" lon="-4.082416000">
        <ele>483.8</ele>
        <time>2020-10-15T10:54:14Z</time>
      </trkpt>
      <trkpt lat="37.633964000" lon="-4.082398000">
        <ele>483.6</ele>
        <time>2020-10-15T10:54:21Z</time>
      </trkpt>
      <trkpt lat="37.634045000" lon="-4.082364000">
        <ele>483.5</ele>
        <time>2020-10-15T10:54:35Z</time>
      </trkpt>
      <trkpt lat="37.634066000" lon="-4.082253000">
        <ele>483.3</ele>
        <time>2020-10-15T10:54:41Z</time>
      </trkpt>
      <trkpt lat="37.634072000" lon="-4.082145000">
        <ele>483.2</ele>
        <time>2020-10-15T10:54:49Z</time>
      </trkpt>
      <trkpt lat="37.634040000" lon="-4.082044000">
        <ele>483.1</ele>
        <time>2020-10-15T10:54:57Z</time>
      </trkpt>
      <trkpt lat="37.634038000" lon="-4.081924000">
        <ele>483.1</ele>
        <time>2020-10-15T10:55:03Z</time>
      </trkpt>
      <trkpt lat="37.634037000" lon="-4.081814000">
        <ele>483.2</ele>
        <time>2020-10-15T10:55:11Z</time>
      </trkpt>
      <trkpt lat="37.634021000" lon="-4.081697000">
        <ele>483.2</ele>
        <time>2020-10-15T10:55:19Z</time>
      </trkpt>
      <trkpt lat="37.634004000" lon="-4.081597000">
        <ele>483.1</ele>
        <time>2020-10-15T10:55:27Z</time>
      </trkpt>
      <trkpt lat="37.633929000" lon="-4.081526000">
        <ele>483.0</ele>
        <time>2020-10-15T10:55:36Z</time>
      </trkpt>
      <trkpt lat="37.634003000" lon="-4.081598000">
        <ele>483.1</ele>
        <time>2020-10-15T10:55:50Z</time>
      </trkpt>
      <trkpt lat="37.634041000" lon="-4.081691000">
        <ele>483.3</ele>
        <time>2020-10-15T10:55:56Z</time>
      </trkpt>
      <trkpt lat="37.634042000" lon="-4.081800000">
        <ele>483.4</ele>
        <time>2020-10-15T10:56:02Z</time>
      </trkpt>
      <trkpt lat="37.634047000" lon="-4.081910000">
        <ele>483.4</ele>
        <time>2020-10-15T10:56:09Z</time>
      </trkpt>
      <trkpt lat="37.634063000" lon="-4.082027000">
        <ele>483.3</ele>
        <time>2020-10-15T10:56:17Z</time>
      </trkpt>
      <trkpt lat="37.634084000" lon="-4.082130000">
        <ele>483.1</ele>
        <time>2020-10-15T10:56:22Z</time>
      </trkpt>
      <trkpt lat="37.634124000" lon="-4.082224000">
        <ele>482.8</ele>
        <time>2020-10-15T10:56:30Z</time>
      </trkpt>
      <trkpt lat="37.634104000" lon="-4.082332000">
        <ele>482.4</ele>
        <time>2020-10-15T10:56:37Z</time>
      </trkpt>
      <trkpt lat="37.634057000" lon="-4.082429000">
        <ele>481.9</ele>
        <time>2020-10-15T10:56:49Z</time>
      </trkpt>
      <trkpt lat="37.633970000" lon="-4.082463000">
        <ele>481.5</ele>
        <time>2020-10-15T10:56:57Z</time>
      </trkpt>
      <trkpt lat="37.633873000" lon="-4.082469000">
        <ele>481.0</ele>
        <time>2020-10-15T10:57:00Z</time>
      </trkpt>
      <trkpt lat="37.633763000" lon="-4.082474000">
        <ele>480.5</ele>
        <time>2020-10-15T10:57:03Z</time>
      </trkpt>
      <trkpt lat="37.633647000" lon="-4.082494000">
        <ele>480.1</ele>
        <time>2020-10-15T10:57:06Z</time>
      </trkpt>
      <trkpt lat="37.633566000" lon="-4.082516000">
        <ele>479.7</ele>
        <time>2020-10-15T10:57:08Z</time>
      </trkpt>
      <trkpt lat="37.633481000" lon="-4.082543000">
        <ele>479.5</ele>
        <time>2020-10-15T10:57:10Z</time>
      </trkpt>
      <trkpt lat="37.633394000" lon="-4.082569000">
        <ele>479.5</ele>
        <time>2020-10-15T10:57:12Z</time>
      </trkpt>
      <trkpt lat="37.633309000" lon="-4.082588000">
        <ele>479.6</ele>
        <time>2020-10-15T10:57:14Z</time>
      </trkpt>
      <trkpt lat="37.633224000" lon="-4.082612000">
        <ele>479.8</ele>
        <time>2020-10-15T10:57:16Z</time>
      </trkpt>
      <trkpt lat="37.633144000" lon="-4.082642000">
        <ele>480.1</ele>
        <time>2020-10-15T10:57:18Z</time>
      </trkpt>
      <trkpt lat="37.633041000" lon="-4.082687000">
        <ele>480.4</ele>
        <time>2020-10-15T10:57:21Z</time>
      </trkpt>
      <trkpt lat="37.632966000" lon="-4.082729000">
        <ele>480.6</ele>
        <time>2020-10-15T10:57:23Z</time>
      </trkpt>
      <trkpt lat="37.632890000" lon="-4.082770000">
        <ele>480.9</ele>
        <time>2020-10-15T10:57:25Z</time>
      </trkpt>
      <trkpt lat="37.632807000" lon="-4.082825000">
        <ele>481.2</ele>
        <time>2020-10-15T10:57:27Z</time>
      </trkpt>
      <trkpt lat="37.632722000" lon="-4.082875000">
        <ele>481.4</ele>
        <time>2020-10-15T10:57:29Z</time>
      </trkpt>
      <trkpt lat="37.632635000" lon="-4.082926000">
        <ele>481.5</ele>
        <time>2020-10-15T10:57:31Z</time>
      </trkpt>
      <trkpt lat="37.632552000" lon="-4.082982000">
        <ele>481.6</ele>
        <time>2020-10-15T10:57:33Z</time>
      </trkpt>
      <trkpt lat="37.632465000" lon="-4.083043000">
        <ele>481.5</ele>
        <time>2020-10-15T10:57:35Z</time>
      </trkpt>
      <trkpt lat="37.632375000" lon="-4.083109000">
        <ele>481.4</ele>
        <time>2020-10-15T10:57:37Z</time>
      </trkpt>
      <trkpt lat="37.632291000" lon="-4.083173000">
        <ele>481.1</ele>
        <time>2020-10-15T10:57:39Z</time>
      </trkpt>
      <trkpt lat="37.632208000" lon="-4.083243000">
        <ele>480.9</ele>
        <time>2020-10-15T10:57:41Z</time>
      </trkpt>
      <trkpt lat="37.632126000" lon="-4.083315000">
        <ele>480.6</ele>
        <time>2020-10-15T10:57:43Z</time>
      </trkpt>
      <trkpt lat="37.632047000" lon="-4.083387000">
        <ele>480.4</ele>
        <time>2020-10-15T10:57:45Z</time>
      </trkpt>
      <trkpt lat="37.631969000" lon="-4.083469000">
        <ele>480.0</ele>
        <time>2020-10-15T10:57:47Z</time>
      </trkpt>
      <trkpt lat="37.631892000" lon="-4.083541000">
        <ele>479.5</ele>
        <time>2020-10-15T10:57:49Z</time>
      </trkpt>
      <trkpt lat="37.631815000" lon="-4.083619000">
        <ele>478.9</ele>
        <time>2020-10-15T10:57:51Z</time>
      </trkpt>
      <trkpt lat="37.631733000" lon="-4.083708000">
        <ele>478.5</ele>
        <time>2020-10-15T10:57:53Z</time>
      </trkpt>
      <trkpt lat="37.631663000" lon="-4.083809000">
        <ele>478.0</ele>
        <time>2020-10-15T10:57:55Z</time>
      </trkpt>
      <trkpt lat="37.631594000" lon="-4.083904000">
        <ele>477.7</ele>
        <time>2020-10-15T10:57:57Z</time>
      </trkpt>
      <trkpt lat="37.631530000" lon="-4.083998000">
        <ele>477.6</ele>
        <time>2020-10-15T10:57:59Z</time>
      </trkpt>
      <trkpt lat="37.631466000" lon="-4.084093000">
        <ele>477.8</ele>
        <time>2020-10-15T10:58:01Z</time>
      </trkpt>
      <trkpt lat="37.631402000" lon="-4.084192000">
        <ele>478.2</ele>
        <time>2020-10-15T10:58:03Z</time>
      </trkpt>
      <trkpt lat="37.631344000" lon="-4.084282000">
        <ele>478.7</ele>
        <time>2020-10-15T10:58:05Z</time>
      </trkpt>
      <trkpt lat="37.631284000" lon="-4.084376000">
        <ele>479.4</ele>
        <time>2020-10-15T10:58:07Z</time>
      </trkpt>
      <trkpt lat="37.631233000" lon="-4.084478000">
        <ele>480.2</ele>
        <time>2020-10-15T10:58:09Z</time>
      </trkpt>
      <trkpt lat="37.631182000" lon="-4.084576000">
        <ele>481.2</ele>
        <time>2020-10-15T10:58:11Z</time>
      </trkpt>
      <trkpt lat="37.631135000" lon="-4.084676000">
        <ele>482.2</ele>
        <time>2020-10-15T10:58:13Z</time>
      </trkpt>
      <trkpt lat="37.631087000" lon="-4.084779000">
        <ele>483.2</ele>
        <time>2020-10-15T10:58:15Z</time>
      </trkpt>
      <trkpt lat="37.631038000" lon="-4.084881000">
        <ele>484.3</ele>
        <time>2020-10-15T10:58:17Z</time>
      </trkpt>
      <trkpt lat="37.630992000" lon="-4.084987000">
        <ele>485.3</ele>
        <time>2020-10-15T10:58:19Z</time>
      </trkpt>
      <trkpt lat="37.630946000" lon="-4.085090000">
        <ele>486.3</ele>
        <time>2020-10-15T10:58:21Z</time>
      </trkpt>
      <trkpt lat="37.630898000" lon="-4.085199000">
        <ele>487.1</ele>
        <time>2020-10-15T10:58:23Z</time>
      </trkpt>
      <trkpt lat="37.630847000" lon="-4.085306000">
        <ele>487.7</ele>
        <time>2020-10-15T10:58:25Z</time>
      </trkpt>
      <trkpt lat="37.630797000" lon="-4.085406000">
        <ele>488.3</ele>
        <time>2020-10-15T10:58:27Z</time>
      </trkpt>
      <trkpt lat="37.630754000" lon="-4.085503000">
        <ele>488.7</ele>
        <time>2020-10-15T10:58:29Z</time>
      </trkpt>
      <trkpt lat="37.630703000" lon="-4.085602000">
        <ele>489.2</ele>
        <time>2020-10-15T10:58:31Z</time>
      </trkpt>
      <trkpt lat="37.630650000" lon="-4.085708000">
        <ele>489.5</ele>
        <time>2020-10-15T10:58:33Z</time>
      </trkpt>
      <trkpt lat="37.630601000" lon="-4.085814000">
        <ele>490.0</ele>
        <time>2020-10-15T10:58:35Z</time>
      </trkpt>
      <trkpt lat="37.630552000" lon="-4.085922000">
        <ele>490.4</ele>
        <time>2020-10-15T10:58:37Z</time>
      </trkpt>
      <trkpt lat="37.630495000" lon="-4.086029000">
        <ele>490.6</ele>
        <time>2020-10-15T10:58:39Z</time>
      </trkpt>
      <trkpt lat="37.630441000" lon="-4.086134000">
        <ele>490.9</ele>
        <time>2020-10-15T10:58:41Z</time>
      </trkpt>
      <trkpt lat="37.630382000" lon="-4.086240000">
        <ele>491.0</ele>
        <time>2020-10-15T10:58:43Z</time>
      </trkpt>
      <trkpt lat="37.630323000" lon="-4.086345000">
        <ele>491.1</ele>
        <time>2020-10-15T10:58:45Z</time>
      </trkpt>
      <trkpt lat="37.630263000" lon="-4.086446000">
        <ele>491.1</ele>
        <time>2020-10-15T10:58:47Z</time>
      </trkpt>
      <trkpt lat="37.630203000" lon="-4.086542000">
        <ele>491.1</ele>
        <time>2020-10-15T10:58:49Z</time>
      </trkpt>
      <trkpt lat="37.630142000" lon="-4.086636000">
        <ele>491.0</ele>
        <time>2020-10-15T10:58:51Z</time>
      </trkpt>
      <trkpt lat="37.630076000" lon="-4.086733000">
        <ele>490.8</ele>
        <time>2020-10-15T10:58:53Z</time>
      </trkpt>
      <trkpt lat="37.630008000" lon="-4.086823000">
        <ele>490.5</ele>
        <time>2020-10-15T10:58:55Z</time>
      </trkpt>
      <trkpt lat="37.629931000" lon="-4.086921000">
        <ele>490.1</ele>
        <time>2020-10-15T10:58:57Z</time>
      </trkpt>
      <trkpt lat="37.629861000" lon="-4.087004000">
        <ele>489.6</ele>
        <time>2020-10-15T10:58:59Z</time>
      </trkpt>
      <trkpt lat="37.629791000" lon="-4.087088000">
        <ele>489.1</ele>
        <time>2020-10-15T10:59:01Z</time>
      </trkpt>
      <trkpt lat="37.629721000" lon="-4.087170000">
        <ele>488.4</ele>
        <time>2020-10-15T10:59:03Z</time>
      </trkpt>
      <trkpt lat="37.629645000" lon="-4.087251000">
        <ele>487.6</ele>
        <time>2020-10-15T10:59:05Z</time>
      </trkpt>
      <trkpt lat="37.629570000" lon="-4.087338000">
        <ele>486.7</ele>
        <time>2020-10-15T10:59:07Z</time>
      </trkpt>
      <trkpt lat="37.629493000" lon="-4.087416000">
        <ele>485.9</ele>
        <time>2020-10-15T10:59:09Z</time>
      </trkpt>
      <trkpt lat="37.629419000" lon="-4.087501000">
        <ele>485.1</ele>
        <time>2020-10-15T10:59:11Z</time>
      </trkpt>
      <trkpt lat="37.629340000" lon="-4.087583000">
        <ele>484.5</ele>
        <time>2020-10-15T10:59:13Z</time>
      </trkpt>
      <trkpt lat="37.629256000" lon="-4.087663000">
        <ele>484.0</ele>
        <time>2020-10-15T10:59:15Z</time>
      </trkpt>
      <trkpt lat="37.629179000" lon="-4.087749000">
        <ele>483.7</ele>
        <time>2020-10-15T10:59:17Z</time>
      </trkpt>
      <trkpt lat="37.629095000" lon="-4.087839000">
        <ele>483.7</ele>
        <time>2020-10-15T10:59:19Z</time>
      </trkpt>
      <trkpt lat="37.629014000" lon="-4.087922000">
        <ele>483.8</ele>
        <time>2020-10-15T10:59:21Z</time>
      </trkpt>
      <trkpt lat="37.628932000" lon="-4.088006000">
        <ele>484.0</ele>
        <time>2020-10-15T10:59:23Z</time>
      </trkpt>
      <trkpt lat="37.628850000" lon="-4.088084000">
        <ele>484.5</ele>
        <time>2020-10-15T10:59:25Z</time>
      </trkpt>
      <trkpt lat="37.628766000" lon="-4.088167000">
        <ele>485.0</ele>
        <time>2020-10-15T10:59:27Z</time>
      </trkpt>
      <trkpt lat="37.628687000" lon="-4.088256000">
        <ele>485.7</ele>
        <time>2020-10-15T10:59:29Z</time>
      </trkpt>
      <trkpt lat="37.628604000" lon="-4.088344000">
        <ele>486.4</ele>
        <time>2020-10-15T10:59:31Z</time>
      </trkpt>
      <trkpt lat="37.628520000" lon="-4.088434000">
        <ele>486.9</ele>
        <time>2020-10-15T10:59:33Z</time>
      </trkpt>
      <trkpt lat="37.628437000" lon="-4.088515000">
        <ele>487.4</ele>
        <time>2020-10-15T10:59:35Z</time>
      </trkpt>
      <trkpt lat="37.628351000" lon="-4.088598000">
        <ele>487.6</ele>
        <time>2020-10-15T10:59:37Z</time>
      </trkpt>
      <trkpt lat="37.628268000" lon="-4.088684000">
        <ele>487.8</ele>
        <time>2020-10-15T10:59:39Z</time>
      </trkpt>
      <trkpt lat="37.628182000" lon="-4.088766000">
        <ele>487.7</ele>
        <time>2020-10-15T10:59:41Z</time>
      </trkpt>
      <trkpt lat="37.628093000" lon="-4.088844000">
        <ele>487.5</ele>
        <time>2020-10-15T10:59:43Z</time>
      </trkpt>
      <trkpt lat="37.628019000" lon="-4.088930000">
        <ele>487.1</ele>
        <time>2020-10-15T10:59:45Z</time>
      </trkpt>
      <trkpt lat="37.627943000" lon="-4.089014000">
        <ele>486.5</ele>
        <time>2020-10-15T10:59:47Z</time>
      </trkpt>
      <trkpt lat="37.627864000" lon="-4.089097000">
        <ele>485.9</ele>
        <time>2020-10-15T10:59:49Z</time>
      </trkpt>
      <trkpt lat="37.627788000" lon="-4.089174000">
        <ele>485.1</ele>
        <time>2020-10-15T10:59:51Z</time>
      </trkpt>
      <trkpt lat="37.627710000" lon="-4.089263000">
        <ele>484.3</ele>
        <time>2020-10-15T10:59:53Z</time>
      </trkpt>
      <trkpt lat="37.627629000" lon="-4.089349000">
        <ele>483.5</ele>
        <time>2020-10-15T10:59:55Z</time>
      </trkpt>
      <trkpt lat="37.627548000" lon="-4.089426000">
        <ele>482.5</ele>
        <time>2020-10-15T10:59:57Z</time>
      </trkpt>
      <trkpt lat="37.627470000" lon="-4.089513000">
        <ele>481.6</ele>
        <time>2020-10-15T10:59:59Z</time>
      </trkpt>
      <trkpt lat="37.627396000" lon="-4.089593000">
        <ele>480.8</ele>
        <time>2020-10-15T11:00:01Z</time>
      </trkpt>
      <trkpt lat="37.627314000" lon="-4.089678000">
        <ele>480.2</ele>
        <time>2020-10-15T11:00:03Z</time>
      </trkpt>
      <trkpt lat="37.627231000" lon="-4.089759000">
        <ele>479.8</ele>
        <time>2020-10-15T11:00:05Z</time>
      </trkpt>
      <trkpt lat="37.627145000" lon="-4.089845000">
        <ele>479.6</ele>
        <time>2020-10-15T11:00:07Z</time>
      </trkpt>
      <trkpt lat="37.627063000" lon="-4.089927000">
        <ele>479.6</ele>
        <time>2020-10-15T11:00:09Z</time>
      </trkpt>
      <trkpt lat="37.626984000" lon="-4.090005000">
        <ele>479.8</ele>
        <time>2020-10-15T11:00:11Z</time>
      </trkpt>
      <trkpt lat="37.626906000" lon="-4.090089000">
        <ele>480.3</ele>
        <time>2020-10-15T11:00:13Z</time>
      </trkpt>
      <trkpt lat="37.626827000" lon="-4.090169000">
        <ele>480.9</ele>
        <time>2020-10-15T11:00:15Z</time>
      </trkpt>
      <trkpt lat="37.626750000" lon="-4.090257000">
        <ele>481.7</ele>
        <time>2020-10-15T11:00:17Z</time>
      </trkpt>
      <trkpt lat="37.626664000" lon="-4.090342000">
        <ele>482.6</ele>
        <time>2020-10-15T11:00:19Z</time>
      </trkpt>
      <trkpt lat="37.626588000" lon="-4.090417000">
        <ele>483.5</ele>
        <time>2020-10-15T11:00:21Z</time>
      </trkpt>
      <trkpt lat="37.626512000" lon="-4.090507000">
        <ele>484.5</ele>
        <time>2020-10-15T11:00:23Z</time>
      </trkpt>
      <trkpt lat="37.626433000" lon="-4.090591000">
        <ele>485.3</ele>
        <time>2020-10-15T11:00:25Z</time>
      </trkpt>
      <trkpt lat="37.626357000" lon="-4.090670000">
        <ele>486.0</ele>
        <time>2020-10-15T11:00:27Z</time>
      </trkpt>
      <trkpt lat="37.626283000" lon="-4.090746000">
        <ele>486.5</ele>
        <time>2020-10-15T11:00:29Z</time>
      </trkpt>
      <trkpt lat="37.626207000" lon="-4.090822000">
        <ele>487.1</ele>
        <time>2020-10-15T11:00:31Z</time>
      </trkpt>
      <trkpt lat="37.626131000" lon="-4.090901000">
        <ele>487.5</ele>
        <time>2020-10-15T11:00:33Z</time>
      </trkpt>
      <trkpt lat="37.626053000" lon="-4.090978000">
        <ele>487.9</ele>
        <time>2020-10-15T11:00:35Z</time>
      </trkpt>
      <trkpt lat="37.625976000" lon="-4.091050000">
        <ele>488.1</ele>
        <time>2020-10-15T11:00:37Z</time>
      </trkpt>
      <trkpt lat="37.625895000" lon="-4.091140000">
        <ele>488.3</ele>
        <time>2020-10-15T11:00:39Z</time>
      </trkpt>
      <trkpt lat="37.625820000" lon="-4.091220000">
        <ele>488.5</ele>
        <time>2020-10-15T11:00:41Z</time>
      </trkpt>
      <trkpt lat="37.625740000" lon="-4.091296000">
        <ele>488.7</ele>
        <time>2020-10-15T11:00:43Z</time>
      </trkpt>
      <trkpt lat="37.625665000" lon="-4.091374000">
        <ele>488.9</ele>
        <time>2020-10-15T11:00:45Z</time>
      </trkpt>
      <trkpt lat="37.625587000" lon="-4.091450000">
        <ele>489.2</ele>
        <time>2020-10-15T11:00:47Z</time>
      </trkpt>
      <trkpt lat="37.625513000" lon="-4.091527000">
        <ele>489.5</ele>
        <time>2020-10-15T11:00:49Z</time>
      </trkpt>
      <trkpt lat="37.625437000" lon="-4.091605000">
        <ele>489.9</ele>
        <time>2020-10-15T11:00:51Z</time>
      </trkpt>
      <trkpt lat="37.625364000" lon="-4.091680000">
        <ele>490.4</ele>
        <time>2020-10-15T11:00:53Z</time>
      </trkpt>
      <trkpt lat="37.625281000" lon="-4.091756000">
        <ele>490.8</ele>
        <time>2020-10-15T11:00:55Z</time>
      </trkpt>
      <trkpt lat="37.625203000" lon="-4.091832000">
        <ele>491.2</ele>
        <time>2020-10-15T11:00:57Z</time>
      </trkpt>
      <trkpt lat="37.625121000" lon="-4.091908000">
        <ele>491.6</ele>
        <time>2020-10-15T11:00:59Z</time>
      </trkpt>
      <trkpt lat="37.625037000" lon="-4.091991000">
        <ele>492.0</ele>
        <time>2020-10-15T11:01:01Z</time>
      </trkpt>
      <trkpt lat="37.624951000" lon="-4.092075000">
        <ele>492.3</ele>
        <time>2020-10-15T11:01:03Z</time>
      </trkpt>
      <trkpt lat="37.624868000" lon="-4.092157000">
        <ele>492.5</ele>
        <time>2020-10-15T11:01:05Z</time>
      </trkpt>
      <trkpt lat="37.624790000" lon="-4.092245000">
        <ele>492.5</ele>
        <time>2020-10-15T11:01:07Z</time>
      </trkpt>
      <trkpt lat="37.624710000" lon="-4.092329000">
        <ele>492.5</ele>
        <time>2020-10-15T11:01:09Z</time>
      </trkpt>
      <trkpt lat="37.624629000" lon="-4.092416000">
        <ele>492.2</ele>
        <time>2020-10-15T11:01:11Z</time>
      </trkpt>
      <trkpt lat="37.624544000" lon="-4.092495000">
        <ele>491.7</ele>
        <time>2020-10-15T11:01:13Z</time>
      </trkpt>
      <trkpt lat="37.624463000" lon="-4.092575000">
        <ele>491.0</ele>
        <time>2020-10-15T11:01:15Z</time>
      </trkpt>
      <trkpt lat="37.624383000" lon="-4.092658000">
        <ele>490.0</ele>
        <time>2020-10-15T11:01:17Z</time>
      </trkpt>
      <trkpt lat="37.624306000" lon="-4.092743000">
        <ele>488.9</ele>
        <time>2020-10-15T11:01:19Z</time>
      </trkpt>
      <trkpt lat="37.624229000" lon="-4.092822000">
        <ele>487.6</ele>
        <time>2020-10-15T11:01:21Z</time>
      </trkpt>
      <trkpt lat="37.624149000" lon="-4.092906000">
        <ele>486.3</ele>
        <time>2020-10-15T11:01:23Z</time>
      </trkpt>
      <trkpt lat="37.624071000" lon="-4.092985000">
        <ele>484.9</ele>
        <time>2020-10-15T11:01:25Z</time>
      </trkpt>
      <trkpt lat="37.623992000" lon="-4.093064000">
        <ele>483.5</ele>
        <time>2020-10-15T11:01:27Z</time>
      </trkpt>
      <trkpt lat="37.623908000" lon="-4.093156000">
        <ele>482.3</ele>
        <time>2020-10-15T11:01:29Z</time>
      </trkpt>
      <trkpt lat="37.623838000" lon="-4.093253000">
        <ele>481.1</ele>
        <time>2020-10-15T11:01:31Z</time>
      </trkpt>
      <trkpt lat="37.623759000" lon="-4.093340000">
        <ele>480.1</ele>
        <time>2020-10-15T11:01:33Z</time>
      </trkpt>
      <trkpt lat="37.623678000" lon="-4.093429000">
        <ele>479.2</ele>
        <time>2020-10-15T11:01:35Z</time>
      </trkpt>
      <trkpt lat="37.623605000" lon="-4.093529000">
        <ele>478.5</ele>
        <time>2020-10-15T11:01:37Z</time>
      </trkpt>
      <trkpt lat="37.623527000" lon="-4.093623000">
        <ele>477.9</ele>
        <time>2020-10-15T11:01:39Z</time>
      </trkpt>
      <trkpt lat="37.623448000" lon="-4.093712000">
        <ele>477.5</ele>
        <time>2020-10-15T11:01:41Z</time>
      </trkpt>
      <trkpt lat="37.623381000" lon="-4.093791000">
        <ele>477.4</ele>
        <time>2020-10-15T11:01:43Z</time>
      </trkpt>
      <trkpt lat="37.623304000" lon="-4.093891000">
        <ele>477.3</ele>
        <time>2020-10-15T11:01:46Z</time>
      </trkpt>
      <trkpt lat="37.623250000" lon="-4.093968000">
        <ele>477.4</ele>
        <time>2020-10-15T11:01:48Z</time>
      </trkpt>
      <trkpt lat="37.623198000" lon="-4.094053000">
        <ele>477.5</ele>
        <time>2020-10-15T11:01:50Z</time>
      </trkpt>
      <trkpt lat="37.623145000" lon="-4.094136000">
        <ele>477.9</ele>
        <time>2020-10-15T11:01:52Z</time>
      </trkpt>
      <trkpt lat="37.623094000" lon="-4.094224000">
        <ele>478.5</ele>
        <time>2020-10-15T11:01:54Z</time>
      </trkpt>
      <trkpt lat="37.623031000" lon="-4.094319000">
        <ele>479.2</ele>
        <time>2020-10-15T11:01:56Z</time>
      </trkpt>
      <trkpt lat="37.622978000" lon="-4.094415000">
        <ele>480.1</ele>
        <time>2020-10-15T11:01:58Z</time>
      </trkpt>
      <trkpt lat="37.622927000" lon="-4.094516000">
        <ele>481.0</ele>
        <time>2020-10-15T11:02:00Z</time>
      </trkpt>
      <trkpt lat="37.622877000" lon="-4.094622000">
        <ele>482.0</ele>
        <time>2020-10-15T11:02:02Z</time>
      </trkpt>
      <trkpt lat="37.622829000" lon="-4.094722000">
        <ele>483.0</ele>
        <time>2020-10-15T11:02:04Z</time>
      </trkpt>
      <trkpt lat="37.622761000" lon="-4.094848000">
        <ele>484.1</ele>
        <time>2020-10-15T11:02:07Z</time>
      </trkpt>
      <trkpt lat="37.622704000" lon="-4.094983000">
        <ele>485.2</ele>
        <time>2020-10-15T11:02:10Z</time>
      </trkpt>
      <trkpt lat="37.622654000" lon="-4.095124000">
        <ele>486.3</ele>
        <time>2020-10-15T11:02:13Z</time>
      </trkpt>
      <trkpt lat="37.622614000" lon="-4.095219000">
        <ele>487.3</ele>
        <time>2020-10-15T11:02:15Z</time>
      </trkpt>
      <trkpt lat="37.622573000" lon="-4.095316000">
        <ele>488.1</ele>
        <time>2020-10-15T11:02:17Z</time>
      </trkpt>
      <trkpt lat="37.622538000" lon="-4.095415000">
        <ele>488.7</ele>
        <time>2020-10-15T11:02:19Z</time>
      </trkpt>
      <trkpt lat="37.622506000" lon="-4.095519000">
        <ele>489.1</ele>
        <time>2020-10-15T11:02:21Z</time>
      </trkpt>
      <trkpt lat="37.622465000" lon="-4.095625000">
        <ele>489.3</ele>
        <time>2020-10-15T11:02:23Z</time>
      </trkpt>
      <trkpt lat="37.622426000" lon="-4.095729000">
        <ele>489.4</ele>
        <time>2020-10-15T11:02:25Z</time>
      </trkpt>
      <trkpt lat="37.622395000" lon="-4.095828000">
        <ele>489.5</ele>
        <time>2020-10-15T11:02:27Z</time>
      </trkpt>
      <trkpt lat="37.622370000" lon="-4.095927000">
        <ele>489.5</ele>
        <time>2020-10-15T11:02:31Z</time>
      </trkpt>
      <trkpt lat="37.622344000" lon="-4.096032000">
        <ele>489.5</ele>
        <time>2020-10-15T11:02:31Z</time>
      </trkpt>
      <trkpt lat="37.622315000" lon="-4.096143000">
        <ele>489.5</ele>
        <time>2020-10-15T11:02:33Z</time>
      </trkpt>
      <trkpt lat="37.622294000" lon="-4.096253000">
        <ele>489.5</ele>
        <time>2020-10-15T11:02:35Z</time>
      </trkpt>
      <trkpt lat="37.622269000" lon="-4.096363000">
        <ele>489.5</ele>
        <time>2020-10-15T11:02:37Z</time>
      </trkpt>
      <trkpt lat="37.622252000" lon="-4.096473000">
        <ele>489.5</ele>
        <time>2020-10-15T11:02:39Z</time>
      </trkpt>
      <trkpt lat="37.622238000" lon="-4.096582000">
        <ele>489.6</ele>
        <time>2020-10-15T11:02:41Z</time>
      </trkpt>
      <trkpt lat="37.622221000" lon="-4.096688000">
        <ele>489.6</ele>
        <time>2020-10-15T11:02:43Z</time>
      </trkpt>
      <trkpt lat="37.622208000" lon="-4.096798000">
        <ele>489.5</ele>
        <time>2020-10-15T11:02:45Z</time>
      </trkpt>
      <trkpt lat="37.622185000" lon="-4.096914000">
        <ele>489.5</ele>
        <time>2020-10-15T11:02:47Z</time>
      </trkpt>
      <trkpt lat="37.622169000" lon="-4.097032000">
        <ele>489.4</ele>
        <time>2020-10-15T11:02:49Z</time>
      </trkpt>
      <trkpt lat="37.622152000" lon="-4.097152000">
        <ele>489.2</ele>
        <time>2020-10-15T11:02:51Z</time>
      </trkpt>
      <trkpt lat="37.622130000" lon="-4.097275000">
        <ele>489.0</ele>
        <time>2020-10-15T11:02:53Z</time>
      </trkpt>
      <trkpt lat="37.622118000" lon="-4.097389000">
        <ele>488.7</ele>
        <time>2020-10-15T11:02:55Z</time>
      </trkpt>
      <trkpt lat="37.622102000" lon="-4.097504000">
        <ele>488.4</ele>
        <time>2020-10-15T11:02:57Z</time>
      </trkpt>
      <trkpt lat="37.622093000" lon="-4.097618000">
        <ele>487.8</ele>
        <time>2020-10-15T11:02:59Z</time>
      </trkpt>
      <trkpt lat="37.622086000" lon="-4.097736000">
        <ele>487.1</ele>
        <time>2020-10-15T11:03:01Z</time>
      </trkpt>
      <trkpt lat="37.622068000" lon="-4.097857000">
        <ele>486.4</ele>
        <time>2020-10-15T11:03:03Z</time>
      </trkpt>
      <trkpt lat="37.622049000" lon="-4.097972000">
        <ele>485.6</ele>
        <time>2020-10-15T11:03:05Z</time>
      </trkpt>
      <trkpt lat="37.622032000" lon="-4.098085000">
        <ele>485.0</ele>
        <time>2020-10-15T11:03:07Z</time>
      </trkpt>
      <trkpt lat="37.622018000" lon="-4.098191000">
        <ele>484.5</ele>
        <time>2020-10-15T11:03:09Z</time>
      </trkpt>
      <trkpt lat="37.621998000" lon="-4.098307000">
        <ele>483.9</ele>
        <time>2020-10-15T11:03:11Z</time>
      </trkpt>
      <trkpt lat="37.621980000" lon="-4.098415000">
        <ele>483.5</ele>
        <time>2020-10-15T11:03:13Z</time>
      </trkpt>
      <trkpt lat="37.621954000" lon="-4.098529000">
        <ele>483.0</ele>
        <time>2020-10-15T11:03:15Z</time>
      </trkpt>
      <trkpt lat="37.621924000" lon="-4.098640000">
        <ele>482.7</ele>
        <time>2020-10-15T11:03:17Z</time>
      </trkpt>
      <trkpt lat="37.621891000" lon="-4.098753000">
        <ele>482.5</ele>
        <time>2020-10-15T11:03:19Z</time>
      </trkpt>
      <trkpt lat="37.621860000" lon="-4.098859000">
        <ele>482.5</ele>
        <time>2020-10-15T11:03:21Z</time>
      </trkpt>
      <trkpt lat="37.621825000" lon="-4.098969000">
        <ele>482.7</ele>
        <time>2020-10-15T11:03:23Z</time>
      </trkpt>
      <trkpt lat="37.621793000" lon="-4.099069000">
        <ele>482.9</ele>
        <time>2020-10-15T11:03:25Z</time>
      </trkpt>
      <trkpt lat="37.621754000" lon="-4.099174000">
        <ele>483.3</ele>
        <time>2020-10-15T11:03:27Z</time>
      </trkpt>
      <trkpt lat="37.621718000" lon="-4.099290000">
        <ele>483.7</ele>
        <time>2020-10-15T11:03:29Z</time>
      </trkpt>
      <trkpt lat="37.621677000" lon="-4.099403000">
        <ele>484.3</ele>
        <time>2020-10-15T11:03:31Z</time>
      </trkpt>
      <trkpt lat="37.621636000" lon="-4.099520000">
        <ele>484.8</ele>
        <time>2020-10-15T11:03:33Z</time>
      </trkpt>
      <trkpt lat="37.621592000" lon="-4.099632000">
        <ele>485.4</ele>
        <time>2020-10-15T11:03:35Z</time>
      </trkpt>
      <trkpt lat="37.621550000" lon="-4.099747000">
        <ele>485.9</ele>
        <time>2020-10-15T11:03:37Z</time>
      </trkpt>
      <trkpt lat="37.621509000" lon="-4.099864000">
        <ele>486.5</ele>
        <time>2020-10-15T11:03:39Z</time>
      </trkpt>
      <trkpt lat="37.621464000" lon="-4.099982000">
        <ele>487.1</ele>
        <time>2020-10-15T11:03:41Z</time>
      </trkpt>
      <trkpt lat="37.621420000" lon="-4.100099000">
        <ele>487.7</ele>
        <time>2020-10-15T11:03:43Z</time>
      </trkpt>
      <trkpt lat="37.621389000" lon="-4.100222000">
        <ele>488.3</ele>
        <time>2020-10-15T11:03:45Z</time>
      </trkpt>
      <trkpt lat="37.621342000" lon="-4.100343000">
        <ele>488.9</ele>
        <time>2020-10-15T11:03:47Z</time>
      </trkpt>
      <trkpt lat="37.621305000" lon="-4.100461000">
        <ele>489.5</ele>
        <time>2020-10-15T11:03:49Z</time>
      </trkpt>
      <trkpt lat="37.621263000" lon="-4.100571000">
        <ele>489.9</ele>
        <time>2020-10-15T11:03:51Z</time>
      </trkpt>
      <trkpt lat="37.621220000" lon="-4.100687000">
        <ele>490.2</ele>
        <time>2020-10-15T11:03:53Z</time>
      </trkpt>
      <trkpt lat="37.621177000" lon="-4.100803000">
        <ele>490.3</ele>
        <time>2020-10-15T11:03:55Z</time>
      </trkpt>
      <trkpt lat="37.621137000" lon="-4.100925000">
        <ele>490.2</ele>
        <time>2020-10-15T11:03:57Z</time>
      </trkpt>
      <trkpt lat="37.621102000" lon="-4.101041000">
        <ele>489.9</ele>
        <time>2020-10-15T11:03:59Z</time>
      </trkpt>
      <trkpt lat="37.621062000" lon="-4.101152000">
        <ele>489.5</ele>
        <time>2020-10-15T11:04:01Z</time>
      </trkpt>
      <trkpt lat="37.621026000" lon="-4.101261000">
        <ele>488.8</ele>
        <time>2020-10-15T11:04:03Z</time>
      </trkpt>
      <trkpt lat="37.620986000" lon="-4.101374000">
        <ele>488.0</ele>
        <time>2020-10-15T11:04:05Z</time>
      </trkpt>
      <trkpt lat="37.620943000" lon="-4.101497000">
        <ele>487.0</ele>
        <time>2020-10-15T11:04:07Z</time>
      </trkpt>
      <trkpt lat="37.620902000" lon="-4.101610000">
        <ele>485.8</ele>
        <time>2020-10-15T11:04:09Z</time>
      </trkpt>
      <trkpt lat="37.620867000" lon="-4.101716000">
        <ele>484.5</ele>
        <time>2020-10-15T11:04:11Z</time>
      </trkpt>
      <trkpt lat="37.620824000" lon="-4.101820000">
        <ele>483.2</ele>
        <time>2020-10-15T11:04:13Z</time>
      </trkpt>
      <trkpt lat="37.620789000" lon="-4.101928000">
        <ele>481.9</ele>
        <time>2020-10-15T11:04:15Z</time>
      </trkpt>
      <trkpt lat="37.620739000" lon="-4.102071000">
        <ele>480.9</ele>
        <time>2020-10-15T11:04:18Z</time>
      </trkpt>
      <trkpt lat="37.620715000" lon="-4.102172000">
        <ele>480.2</ele>
        <time>2020-10-15T11:04:20Z</time>
      </trkpt>
      <trkpt lat="37.620670000" lon="-4.102311000">
        <ele>479.7</ele>
        <time>2020-10-15T11:04:23Z</time>
      </trkpt>
      <trkpt lat="37.620633000" lon="-4.102412000">
        <ele>479.4</ele>
        <time>2020-10-15T11:04:25Z</time>
      </trkpt>
      <trkpt lat="37.620595000" lon="-4.102516000">
        <ele>479.3</ele>
        <time>2020-10-15T11:04:27Z</time>
      </trkpt>
      <trkpt lat="37.620560000" lon="-4.102616000">
        <ele>479.4</ele>
        <time>2020-10-15T11:04:29Z</time>
      </trkpt>
      <trkpt lat="37.620521000" lon="-4.102723000">
        <ele>479.7</ele>
        <time>2020-10-15T11:04:31Z</time>
      </trkpt>
      <trkpt lat="37.620485000" lon="-4.102827000">
        <ele>480.3</ele>
        <time>2020-10-15T11:04:33Z</time>
      </trkpt>
      <trkpt lat="37.620448000" lon="-4.102928000">
        <ele>481.0</ele>
        <time>2020-10-15T11:04:35Z</time>
      </trkpt>
      <trkpt lat="37.620389000" lon="-4.103064000">
        <ele>482.0</ele>
        <time>2020-10-15T11:04:38Z</time>
      </trkpt>
      <trkpt lat="37.620345000" lon="-4.103172000">
        <ele>483.0</ele>
        <time>2020-10-15T11:04:40Z</time>
      </trkpt>
      <trkpt lat="37.620304000" lon="-4.103295000">
        <ele>484.0</ele>
        <time>2020-10-15T11:04:42Z</time>
      </trkpt>
      <trkpt lat="37.620261000" lon="-4.103420000">
        <ele>485.0</ele>
        <time>2020-10-15T11:04:44Z</time>
      </trkpt>
      <trkpt lat="37.620220000" lon="-4.103538000">
        <ele>486.0</ele>
        <time>2020-10-15T11:04:46Z</time>
      </trkpt>
      <trkpt lat="37.620179000" lon="-4.103647000">
        <ele>487.1</ele>
        <time>2020-10-15T11:04:48Z</time>
      </trkpt>
      <trkpt lat="37.620139000" lon="-4.103750000">
        <ele>488.0</ele>
        <time>2020-10-15T11:04:50Z</time>
      </trkpt>
      <trkpt lat="37.620108000" lon="-4.103845000">
        <ele>488.9</ele>
        <time>2020-10-15T11:04:52Z</time>
      </trkpt>
      <trkpt lat="37.620070000" lon="-4.103949000">
        <ele>489.7</ele>
        <time>2020-10-15T11:04:54Z</time>
      </trkpt>
      <trkpt lat="37.620034000" lon="-4.104059000">
        <ele>490.5</ele>
        <time>2020-10-15T11:04:56Z</time>
      </trkpt>
      <trkpt lat="37.619989000" lon="-4.104175000">
        <ele>491.0</ele>
        <time>2020-10-15T11:04:58Z</time>
      </trkpt>
      <trkpt lat="37.619960000" lon="-4.104276000">
        <ele>491.4</ele>
        <time>2020-10-15T11:05:00Z</time>
      </trkpt>
      <trkpt lat="37.619928000" lon="-4.104375000">
        <ele>491.6</ele>
        <time>2020-10-15T11:05:02Z</time>
      </trkpt>
      <trkpt lat="37.619894000" lon="-4.104477000">
        <ele>491.7</ele>
        <time>2020-10-15T11:05:04Z</time>
      </trkpt>
      <trkpt lat="37.619855000" lon="-4.104587000">
        <ele>491.6</ele>
        <time>2020-10-15T11:05:06Z</time>
      </trkpt>
      <trkpt lat="37.619813000" lon="-4.104711000">
        <ele>491.5</ele>
        <time>2020-10-15T11:05:08Z</time>
      </trkpt>
      <trkpt lat="37.619777000" lon="-4.104827000">
        <ele>491.1</ele>
        <time>2020-10-15T11:05:10Z</time>
      </trkpt>
      <trkpt lat="37.619731000" lon="-4.104929000">
        <ele>490.6</ele>
        <time>2020-10-15T11:05:12Z</time>
      </trkpt>
      <trkpt lat="37.619699000" lon="-4.105028000">
        <ele>490.1</ele>
        <time>2020-10-15T11:05:14Z</time>
      </trkpt>
      <trkpt lat="37.619652000" lon="-4.105168000">
        <ele>489.5</ele>
        <time>2020-10-15T11:05:17Z</time>
      </trkpt>
      <trkpt lat="37.619615000" lon="-4.105270000">
        <ele>489.0</ele>
        <time>2020-10-15T11:05:19Z</time>
      </trkpt>
      <trkpt lat="37.619574000" lon="-4.105378000">
        <ele>488.5</ele>
        <time>2020-10-15T11:05:21Z</time>
      </trkpt>
      <trkpt lat="37.619532000" lon="-4.105495000">
        <ele>488.1</ele>
        <time>2020-10-15T11:05:23Z</time>
      </trkpt>
      <trkpt lat="37.619496000" lon="-4.105605000">
        <ele>487.6</ele>
        <time>2020-10-15T11:05:25Z</time>
      </trkpt>
      <trkpt lat="37.619463000" lon="-4.105706000">
        <ele>487.2</ele>
        <time>2020-10-15T11:05:27Z</time>
      </trkpt>
      <trkpt lat="37.619429000" lon="-4.105801000">
        <ele>486.8</ele>
        <time>2020-10-15T11:05:29Z</time>
      </trkpt>
      <trkpt lat="37.619396000" lon="-4.105897000">
        <ele>486.5</ele>
        <time>2020-10-15T11:05:31Z</time>
      </trkpt>
      <trkpt lat="37.619356000" lon="-4.106000000">
        <ele>486.2</ele>
        <time>2020-10-15T11:05:33Z</time>
      </trkpt>
      <trkpt lat="37.619323000" lon="-4.106108000">
        <ele>486.1</ele>
        <time>2020-10-15T11:05:35Z</time>
      </trkpt>
      <trkpt lat="37.619287000" lon="-4.106215000">
        <ele>486.1</ele>
        <time>2020-10-15T11:05:37Z</time>
      </trkpt>
      <trkpt lat="37.619257000" lon="-4.106315000">
        <ele>486.2</ele>
        <time>2020-10-15T11:05:39Z</time>
      </trkpt>
      <trkpt lat="37.619229000" lon="-4.106425000">
        <ele>486.4</ele>
        <time>2020-10-15T11:05:41Z</time>
      </trkpt>
      <trkpt lat="37.619189000" lon="-4.106533000">
        <ele>486.6</ele>
        <time>2020-10-15T11:05:43Z</time>
      </trkpt>
      <trkpt lat="37.619154000" lon="-4.106634000">
        <ele>487.0</ele>
        <time>2020-10-15T11:05:45Z</time>
      </trkpt>
      <trkpt lat="37.619116000" lon="-4.106739000">
        <ele>487.5</ele>
        <time>2020-10-15T11:05:47Z</time>
      </trkpt>
      <trkpt lat="37.619074000" lon="-4.106841000">
        <ele>488.2</ele>
        <time>2020-10-15T11:05:49Z</time>
      </trkpt>
      <trkpt lat="37.619031000" lon="-4.106942000">
        <ele>488.9</ele>
        <time>2020-10-15T11:05:51Z</time>
      </trkpt>
      <trkpt lat="37.618985000" lon="-4.107051000">
        <ele>489.6</ele>
        <time>2020-10-15T11:05:53Z</time>
      </trkpt>
      <trkpt lat="37.618936000" lon="-4.107157000">
        <ele>490.5</ele>
        <time>2020-10-15T11:05:55Z</time>
      </trkpt>
      <trkpt lat="37.618890000" lon="-4.107263000">
        <ele>491.1</ele>
        <time>2020-10-15T11:05:57Z</time>
      </trkpt>
      <trkpt lat="37.618838000" lon="-4.107365000">
        <ele>491.7</ele>
        <time>2020-10-15T11:05:59Z</time>
      </trkpt>
      <trkpt lat="37.618783000" lon="-4.107464000">
        <ele>492.3</ele>
        <time>2020-10-15T11:06:01Z</time>
      </trkpt>
      <trkpt lat="37.618729000" lon="-4.107560000">
        <ele>492.7</ele>
        <time>2020-10-15T11:06:03Z</time>
      </trkpt>
      <trkpt lat="37.618667000" lon="-4.107656000">
        <ele>493.1</ele>
        <time>2020-10-15T11:06:05Z</time>
      </trkpt>
      <trkpt lat="37.618604000" lon="-4.107748000">
        <ele>493.5</ele>
        <time>2020-10-15T11:06:07Z</time>
      </trkpt>
      <trkpt lat="37.618545000" lon="-4.107834000">
        <ele>493.7</ele>
        <time>2020-10-15T11:06:09Z</time>
      </trkpt>
      <trkpt lat="37.618480000" lon="-4.107924000">
        <ele>493.9</ele>
        <time>2020-10-15T11:06:11Z</time>
      </trkpt>
      <trkpt lat="37.618413000" lon="-4.108015000">
        <ele>494.0</ele>
        <time>2020-10-15T11:06:13Z</time>
      </trkpt>
      <trkpt lat="37.618342000" lon="-4.108109000">
        <ele>494.0</ele>
        <time>2020-10-15T11:06:15Z</time>
      </trkpt>
      <trkpt lat="37.618275000" lon="-4.108198000">
        <ele>493.8</ele>
        <time>2020-10-15T11:06:17Z</time>
      </trkpt>
      <trkpt lat="37.618200000" lon="-4.108287000">
        <ele>493.6</ele>
        <time>2020-10-15T11:06:19Z</time>
      </trkpt>
      <trkpt lat="37.618125000" lon="-4.108375000">
        <ele>493.4</ele>
        <time>2020-10-15T11:06:21Z</time>
      </trkpt>
      <trkpt lat="37.618040000" lon="-4.108452000">
        <ele>493.1</ele>
        <time>2020-10-15T11:06:23Z</time>
      </trkpt>
      <trkpt lat="37.617965000" lon="-4.108521000">
        <ele>492.7</ele>
        <time>2020-10-15T11:06:25Z</time>
      </trkpt>
      <trkpt lat="37.617880000" lon="-4.108593000">
        <ele>492.4</ele>
        <time>2020-10-15T11:06:27Z</time>
      </trkpt>
      <trkpt lat="37.617792000" lon="-4.108665000">
        <ele>491.9</ele>
        <time>2020-10-15T11:06:29Z</time>
      </trkpt>
      <trkpt lat="37.617704000" lon="-4.108741000">
        <ele>491.4</ele>
        <time>2020-10-15T11:06:31Z</time>
      </trkpt>
      <trkpt lat="37.617616000" lon="-4.108808000">
        <ele>490.9</ele>
        <time>2020-10-15T11:06:33Z</time>
      </trkpt>
      <trkpt lat="37.617524000" lon="-4.108867000">
        <ele>490.5</ele>
        <time>2020-10-15T11:06:35Z</time>
      </trkpt>
      <trkpt lat="37.617430000" lon="-4.108933000">
        <ele>490.0</ele>
        <time>2020-10-15T11:06:37Z</time>
      </trkpt>
      <trkpt lat="37.617340000" lon="-4.108992000">
        <ele>489.6</ele>
        <time>2020-10-15T11:06:39Z</time>
      </trkpt>
      <trkpt lat="37.617250000" lon="-4.109058000">
        <ele>489.3</ele>
        <time>2020-10-15T11:06:41Z</time>
      </trkpt>
      <trkpt lat="37.617160000" lon="-4.109113000">
        <ele>488.8</ele>
        <time>2020-10-15T11:06:43Z</time>
      </trkpt>
      <trkpt lat="37.617065000" lon="-4.109162000">
        <ele>488.4</ele>
        <time>2020-10-15T11:06:45Z</time>
      </trkpt>
      <trkpt lat="37.616974000" lon="-4.109222000">
        <ele>488.0</ele>
        <time>2020-10-15T11:06:47Z</time>
      </trkpt>
      <trkpt lat="37.616876000" lon="-4.109276000">
        <ele>487.6</ele>
        <time>2020-10-15T11:06:49Z</time>
      </trkpt>
      <trkpt lat="37.616782000" lon="-4.109325000">
        <ele>487.1</ele>
        <time>2020-10-15T11:06:51Z</time>
      </trkpt>
      <trkpt lat="37.616692000" lon="-4.109380000">
        <ele>486.5</ele>
        <time>2020-10-15T11:06:53Z</time>
      </trkpt>
      <trkpt lat="37.616595000" lon="-4.109434000">
        <ele>485.8</ele>
        <time>2020-10-15T11:06:55Z</time>
      </trkpt>
      <trkpt lat="37.616503000" lon="-4.109497000">
        <ele>484.9</ele>
        <time>2020-10-15T11:06:57Z</time>
      </trkpt>
      <trkpt lat="37.616414000" lon="-4.109553000">
        <ele>484.0</ele>
        <time>2020-10-15T11:06:59Z</time>
      </trkpt>
      <trkpt lat="37.616320000" lon="-4.109623000">
        <ele>483.0</ele>
        <time>2020-10-15T11:07:01Z</time>
      </trkpt>
      <trkpt lat="37.616228000" lon="-4.109684000">
        <ele>482.1</ele>
        <time>2020-10-15T11:07:03Z</time>
      </trkpt>
      <trkpt lat="37.616140000" lon="-4.109748000">
        <ele>481.4</ele>
        <time>2020-10-15T11:07:05Z</time>
      </trkpt>
      <trkpt lat="37.616048000" lon="-4.109827000">
        <ele>480.8</ele>
        <time>2020-10-15T11:07:07Z</time>
      </trkpt>
      <trkpt lat="37.615959000" lon="-4.109907000">
        <ele>480.4</ele>
        <time>2020-10-15T11:07:09Z</time>
      </trkpt>
      <trkpt lat="37.615869000" lon="-4.109985000">
        <ele>479.9</ele>
        <time>2020-10-15T11:07:11Z</time>
      </trkpt>
      <trkpt lat="37.615783000" lon="-4.110071000">
        <ele>479.7</ele>
        <time>2020-10-15T11:07:13Z</time>
      </trkpt>
      <trkpt lat="37.615704000" lon="-4.110164000">
        <ele>479.7</ele>
        <time>2020-10-15T11:07:15Z</time>
      </trkpt>
      <trkpt lat="37.615628000" lon="-4.110264000">
        <ele>480.1</ele>
        <time>2020-10-15T11:07:17Z</time>
      </trkpt>
      <trkpt lat="37.615551000" lon="-4.110356000">
        <ele>480.7</ele>
        <time>2020-10-15T11:07:19Z</time>
      </trkpt>
      <trkpt lat="37.615479000" lon="-4.110455000">
        <ele>481.5</ele>
        <time>2020-10-15T11:07:21Z</time>
      </trkpt>
      <trkpt lat="37.615411000" lon="-4.110562000">
        <ele>482.5</ele>
        <time>2020-10-15T11:07:23Z</time>
      </trkpt>
      <trkpt lat="37.615340000" lon="-4.110671000">
        <ele>483.4</ele>
        <time>2020-10-15T11:07:25Z</time>
      </trkpt>
      <trkpt lat="37.615277000" lon="-4.110783000">
        <ele>484.2</ele>
        <time>2020-10-15T11:07:27Z</time>
      </trkpt>
      <trkpt lat="37.615219000" lon="-4.110909000">
        <ele>484.9</ele>
        <time>2020-10-15T11:07:29Z</time>
      </trkpt>
      <trkpt lat="37.615159000" lon="-4.111031000">
        <ele>485.5</ele>
        <time>2020-10-15T11:07:31Z</time>
      </trkpt>
      <trkpt lat="37.615102000" lon="-4.111148000">
        <ele>486.4</ele>
        <time>2020-10-15T11:07:33Z</time>
      </trkpt>
      <trkpt lat="37.615051000" lon="-4.111271000">
        <ele>487.2</ele>
        <time>2020-10-15T11:07:35Z</time>
      </trkpt>
      <trkpt lat="37.614997000" lon="-4.111391000">
        <ele>488.0</ele>
        <time>2020-10-15T11:07:37Z</time>
      </trkpt>
      <trkpt lat="37.614940000" lon="-4.111513000">
        <ele>488.7</ele>
        <time>2020-10-15T11:07:39Z</time>
      </trkpt>
      <trkpt lat="37.614889000" lon="-4.111632000">
        <ele>489.5</ele>
        <time>2020-10-15T11:07:41Z</time>
      </trkpt>
      <trkpt lat="37.614837000" lon="-4.111751000">
        <ele>490.2</ele>
        <time>2020-10-15T11:07:43Z</time>
      </trkpt>
      <trkpt lat="37.614783000" lon="-4.111872000">
        <ele>490.9</ele>
        <time>2020-10-15T11:07:45Z</time>
      </trkpt>
      <trkpt lat="37.614723000" lon="-4.111990000">
        <ele>491.6</ele>
        <time>2020-10-15T11:07:47Z</time>
      </trkpt>
      <trkpt lat="37.614670000" lon="-4.112110000">
        <ele>492.3</ele>
        <time>2020-10-15T11:07:49Z</time>
      </trkpt>
      <trkpt lat="37.614616000" lon="-4.112229000">
        <ele>492.8</ele>
        <time>2020-10-15T11:07:51Z</time>
      </trkpt>
      <trkpt lat="37.614566000" lon="-4.112350000">
        <ele>493.4</ele>
        <time>2020-10-15T11:07:53Z</time>
      </trkpt>
      <trkpt lat="37.614512000" lon="-4.112470000">
        <ele>493.7</ele>
        <time>2020-10-15T11:07:55Z</time>
      </trkpt>
      <trkpt lat="37.614458000" lon="-4.112590000">
        <ele>494.0</ele>
        <time>2020-10-15T11:07:57Z</time>
      </trkpt>
      <trkpt lat="37.614404000" lon="-4.112707000">
        <ele>494.1</ele>
        <time>2020-10-15T11:07:59Z</time>
      </trkpt>
      <trkpt lat="37.614350000" lon="-4.112837000">
        <ele>494.1</ele>
        <time>2020-10-15T11:08:01Z</time>
      </trkpt>
      <trkpt lat="37.614294000" lon="-4.112949000">
        <ele>494.0</ele>
        <time>2020-10-15T11:08:03Z</time>
      </trkpt>
      <trkpt lat="37.614236000" lon="-4.113058000">
        <ele>493.8</ele>
        <time>2020-10-15T11:08:05Z</time>
      </trkpt>
      <trkpt lat="37.614185000" lon="-4.113169000">
        <ele>493.7</ele>
        <time>2020-10-15T11:08:07Z</time>
      </trkpt>
      <trkpt lat="37.614135000" lon="-4.113285000">
        <ele>493.6</ele>
        <time>2020-10-15T11:08:09Z</time>
      </trkpt>
      <trkpt lat="37.614081000" lon="-4.113397000">
        <ele>493.6</ele>
        <time>2020-10-15T11:08:11Z</time>
      </trkpt>
      <trkpt lat="37.614029000" lon="-4.113518000">
        <ele>493.7</ele>
        <time>2020-10-15T11:08:13Z</time>
      </trkpt>
      <trkpt lat="37.613973000" lon="-4.113636000">
        <ele>493.7</ele>
        <time>2020-10-15T11:08:15Z</time>
      </trkpt>
      <trkpt lat="37.613924000" lon="-4.113753000">
        <ele>493.6</ele>
        <time>2020-10-15T11:08:17Z</time>
      </trkpt>
      <trkpt lat="37.613880000" lon="-4.113871000">
        <ele>493.5</ele>
        <time>2020-10-15T11:08:19Z</time>
      </trkpt>
      <trkpt lat="37.613827000" lon="-4.113989000">
        <ele>493.5</ele>
        <time>2020-10-15T11:08:21Z</time>
      </trkpt>
      <trkpt lat="37.613769000" lon="-4.114114000">
        <ele>493.5</ele>
        <time>2020-10-15T11:08:23Z</time>
      </trkpt>
      <trkpt lat="37.613709000" lon="-4.114237000">
        <ele>493.4</ele>
        <time>2020-10-15T11:08:25Z</time>
      </trkpt>
      <trkpt lat="37.613653000" lon="-4.114355000">
        <ele>493.3</ele>
        <time>2020-10-15T11:08:27Z</time>
      </trkpt>
      <trkpt lat="37.613604000" lon="-4.114476000">
        <ele>493.1</ele>
        <time>2020-10-15T11:08:29Z</time>
      </trkpt>
      <trkpt lat="37.613554000" lon="-4.114586000">
        <ele>492.8</ele>
        <time>2020-10-15T11:08:31Z</time>
      </trkpt>
      <trkpt lat="37.613497000" lon="-4.114703000">
        <ele>492.5</ele>
        <time>2020-10-15T11:08:33Z</time>
      </trkpt>
      <trkpt lat="37.613437000" lon="-4.114826000">
        <ele>492.2</ele>
        <time>2020-10-15T11:08:35Z</time>
      </trkpt>
      <trkpt lat="37.613382000" lon="-4.114943000">
        <ele>492.0</ele>
        <time>2020-10-15T11:08:37Z</time>
      </trkpt>
      <trkpt lat="37.613329000" lon="-4.115065000">
        <ele>492.0</ele>
        <time>2020-10-15T11:08:39Z</time>
      </trkpt>
      <trkpt lat="37.613279000" lon="-4.115180000">
        <ele>492.0</ele>
        <time>2020-10-15T11:08:41Z</time>
      </trkpt>
      <trkpt lat="37.613228000" lon="-4.115294000">
        <ele>492.1</ele>
        <time>2020-10-15T11:08:43Z</time>
      </trkpt>
      <trkpt lat="37.613179000" lon="-4.115406000">
        <ele>492.3</ele>
        <time>2020-10-15T11:08:45Z</time>
      </trkpt>
      <trkpt lat="37.613126000" lon="-4.115523000">
        <ele>492.5</ele>
        <time>2020-10-15T11:08:47Z</time>
      </trkpt>
      <trkpt lat="37.613072000" lon="-4.115649000">
        <ele>492.6</ele>
        <time>2020-10-15T11:08:49Z</time>
      </trkpt>
      <trkpt lat="37.613021000" lon="-4.115770000">
        <ele>492.8</ele>
        <time>2020-10-15T11:08:51Z</time>
      </trkpt>
      <trkpt lat="37.612964000" lon="-4.115889000">
        <ele>493.1</ele>
        <time>2020-10-15T11:08:53Z</time>
      </trkpt>
      <trkpt lat="37.612908000" lon="-4.116012000">
        <ele>493.3</ele>
        <time>2020-10-15T11:08:55Z</time>
      </trkpt>
      <trkpt lat="37.612859000" lon="-4.116120000">
        <ele>493.5</ele>
        <time>2020-10-15T11:08:57Z</time>
      </trkpt>
      <trkpt lat="37.612808000" lon="-4.116236000">
        <ele>493.5</ele>
        <time>2020-10-15T11:08:59Z</time>
      </trkpt>
      <trkpt lat="37.612753000" lon="-4.116353000">
        <ele>493.3</ele>
        <time>2020-10-15T11:09:01Z</time>
      </trkpt>
      <trkpt lat="37.612698000" lon="-4.116457000">
        <ele>493.0</ele>
        <time>2020-10-15T11:09:03Z</time>
      </trkpt>
      <trkpt lat="37.612651000" lon="-4.116574000">
        <ele>492.5</ele>
        <time>2020-10-15T11:09:05Z</time>
      </trkpt>
      <trkpt lat="37.612599000" lon="-4.116682000">
        <ele>492.0</ele>
        <time>2020-10-15T11:09:07Z</time>
      </trkpt>
      <trkpt lat="37.612542000" lon="-4.116803000">
        <ele>491.4</ele>
        <time>2020-10-15T11:09:09Z</time>
      </trkpt>
      <trkpt lat="37.612486000" lon="-4.116935000">
        <ele>490.6</ele>
        <time>2020-10-15T11:09:11Z</time>
      </trkpt>
      <trkpt lat="37.612432000" lon="-4.117071000">
        <ele>489.8</ele>
        <time>2020-10-15T11:09:13Z</time>
      </trkpt>
      <trkpt lat="37.612376000" lon="-4.117189000">
        <ele>488.9</ele>
        <time>2020-10-15T11:09:15Z</time>
      </trkpt>
      <trkpt lat="37.612323000" lon="-4.117308000">
        <ele>487.9</ele>
        <time>2020-10-15T11:09:17Z</time>
      </trkpt>
      <trkpt lat="37.612275000" lon="-4.117426000">
        <ele>486.7</ele>
        <time>2020-10-15T11:09:19Z</time>
      </trkpt>
      <trkpt lat="37.612221000" lon="-4.117540000">
        <ele>485.5</ele>
        <time>2020-10-15T11:09:21Z</time>
      </trkpt>
      <trkpt lat="37.612172000" lon="-4.117661000">
        <ele>484.2</ele>
        <time>2020-10-15T11:09:23Z</time>
      </trkpt>
      <trkpt lat="37.612109000" lon="-4.117783000">
        <ele>482.9</ele>
        <time>2020-10-15T11:09:25Z</time>
      </trkpt>
      <trkpt lat="37.612052000" lon="-4.117921000">
        <ele>481.6</ele>
        <time>2020-10-15T11:09:27Z</time>
      </trkpt>
      <trkpt lat="37.611993000" lon="-4.118050000">
        <ele>480.5</ele>
        <time>2020-10-15T11:09:29Z</time>
      </trkpt>
      <trkpt lat="37.611936000" lon="-4.118170000">
        <ele>479.6</ele>
        <time>2020-10-15T11:09:31Z</time>
      </trkpt>
      <trkpt lat="37.611882000" lon="-4.118282000">
        <ele>479.0</ele>
        <time>2020-10-15T11:09:33Z</time>
      </trkpt>
      <trkpt lat="37.611834000" lon="-4.118395000">
        <ele>478.5</ele>
        <time>2020-10-15T11:09:35Z</time>
      </trkpt>
      <trkpt lat="37.611784000" lon="-4.118504000">
        <ele>478.2</ele>
        <time>2020-10-15T11:09:37Z</time>
      </trkpt>
      <trkpt lat="37.611731000" lon="-4.118610000">
        <ele>478.1</ele>
        <time>2020-10-15T11:09:39Z</time>
      </trkpt>
      <trkpt lat="37.611679000" lon="-4.118738000">
        <ele>478.3</ele>
        <time>2020-10-15T11:09:41Z</time>
      </trkpt>
      <trkpt lat="37.611626000" lon="-4.118860000">
        <ele>478.6</ele>
        <time>2020-10-15T11:09:43Z</time>
      </trkpt>
      <trkpt lat="37.611574000" lon="-4.118983000">
        <ele>479.2</ele>
        <time>2020-10-15T11:09:45Z</time>
      </trkpt>
      <trkpt lat="37.611520000" lon="-4.119100000">
        <ele>479.9</ele>
        <time>2020-10-15T11:09:47Z</time>
      </trkpt>
      <trkpt lat="37.611466000" lon="-4.119216000">
        <ele>480.7</ele>
        <time>2020-10-15T11:09:49Z</time>
      </trkpt>
      <trkpt lat="37.611413000" lon="-4.119329000">
        <ele>481.5</ele>
        <time>2020-10-15T11:09:51Z</time>
      </trkpt>
      <trkpt lat="37.611363000" lon="-4.119441000">
        <ele>482.0</ele>
        <time>2020-10-15T11:09:53Z</time>
      </trkpt>
      <trkpt lat="37.611314000" lon="-4.119552000">
        <ele>482.4</ele>
        <time>2020-10-15T11:09:55Z</time>
      </trkpt>
      <trkpt lat="37.611272000" lon="-4.119665000">
        <ele>482.5</ele>
        <time>2020-10-15T11:09:57Z</time>
      </trkpt>
      <trkpt lat="37.611228000" lon="-4.119759000">
        <ele>482.7</ele>
        <time>2020-10-15T11:09:59Z</time>
      </trkpt>
      <trkpt lat="37.611176000" lon="-4.119872000">
        <ele>482.8</ele>
        <time>2020-10-15T11:10:02Z</time>
      </trkpt>
      <trkpt lat="37.611122000" lon="-4.119984000">
        <ele>482.9</ele>
        <time>2020-10-15T11:10:05Z</time>
      </trkpt>
      <trkpt lat="37.611065000" lon="-4.120116000">
        <ele>483.0</ele>
        <time>2020-10-15T11:10:08Z</time>
      </trkpt>
      <trkpt lat="37.611019000" lon="-4.120216000">
        <ele>483.0</ele>
        <time>2020-10-15T11:10:10Z</time>
      </trkpt>
      <trkpt lat="37.610974000" lon="-4.120319000">
        <ele>483.0</ele>
        <time>2020-10-15T11:10:12Z</time>
      </trkpt>
      <trkpt lat="37.610936000" lon="-4.120422000">
        <ele>483.0</ele>
        <time>2020-10-15T11:10:14Z</time>
      </trkpt>
      <trkpt lat="37.610882000" lon="-4.120531000">
        <ele>483.1</ele>
        <time>2020-10-15T11:10:16Z</time>
      </trkpt>
      <trkpt lat="37.610833000" lon="-4.120653000">
        <ele>483.3</ele>
        <time>2020-10-15T11:10:18Z</time>
      </trkpt>
      <trkpt lat="37.610783000" lon="-4.120769000">
        <ele>483.5</ele>
        <time>2020-10-15T11:10:20Z</time>
      </trkpt>
      <trkpt lat="37.610732000" lon="-4.120892000">
        <ele>483.7</ele>
        <time>2020-10-15T11:10:22Z</time>
      </trkpt>
      <trkpt lat="37.610696000" lon="-4.121004000">
        <ele>484.0</ele>
        <time>2020-10-15T11:10:24Z</time>
      </trkpt>
      <trkpt lat="37.610639000" lon="-4.121119000">
        <ele>484.3</ele>
        <time>2020-10-15T11:10:26Z</time>
      </trkpt>
      <trkpt lat="37.610590000" lon="-4.121231000">
        <ele>484.5</ele>
        <time>2020-10-15T11:10:28Z</time>
      </trkpt>
      <trkpt lat="37.610535000" lon="-4.121336000">
        <ele>484.5</ele>
        <time>2020-10-15T11:10:30Z</time>
      </trkpt>
      <trkpt lat="37.610482000" lon="-4.121436000">
        <ele>484.6</ele>
        <time>2020-10-15T11:10:32Z</time>
      </trkpt>
      <trkpt lat="37.610428000" lon="-4.121541000">
        <ele>484.6</ele>
        <time>2020-10-15T11:10:34Z</time>
      </trkpt>
      <trkpt lat="37.610377000" lon="-4.121648000">
        <ele>484.6</ele>
        <time>2020-10-15T11:10:36Z</time>
      </trkpt>
      <trkpt lat="37.610330000" lon="-4.121754000">
        <ele>484.5</ele>
        <time>2020-10-15T11:10:38Z</time>
      </trkpt>
      <trkpt lat="37.610279000" lon="-4.121866000">
        <ele>484.5</ele>
        <time>2020-10-15T11:10:40Z</time>
      </trkpt>
      <trkpt lat="37.610237000" lon="-4.121974000">
        <ele>484.4</ele>
        <time>2020-10-15T11:10:42Z</time>
      </trkpt>
      <trkpt lat="37.610188000" lon="-4.122075000">
        <ele>484.3</ele>
        <time>2020-10-15T11:10:44Z</time>
      </trkpt>
      <trkpt lat="37.610143000" lon="-4.122181000">
        <ele>484.2</ele>
        <time>2020-10-15T11:10:46Z</time>
      </trkpt>
      <trkpt lat="37.610077000" lon="-4.122311000">
        <ele>484.1</ele>
        <time>2020-10-15T11:10:49Z</time>
      </trkpt>
      <trkpt lat="37.610024000" lon="-4.122401000">
        <ele>483.9</ele>
        <time>2020-10-15T11:10:52Z</time>
      </trkpt>
      <trkpt lat="37.609996000" lon="-4.122511000">
        <ele>483.8</ele>
        <time>2020-10-15T11:11:10Z</time>
      </trkpt>
      <trkpt lat="37.609950000" lon="-4.122616000">
        <ele>483.7</ele>
        <time>2020-10-15T11:11:16Z</time>
      </trkpt>
      <trkpt lat="37.609901000" lon="-4.122711000">
        <ele>483.6</ele>
        <time>2020-10-15T11:11:21Z</time>
      </trkpt>
      <trkpt lat="37.609845000" lon="-4.122822000">
        <ele>483.5</ele>
        <time>2020-10-15T11:11:26Z</time>
      </trkpt>
      <trkpt lat="37.609800000" lon="-4.122930000">
        <ele>483.3</ele>
        <time>2020-10-15T11:11:30Z</time>
      </trkpt>
      <trkpt lat="37.609752000" lon="-4.123027000">
        <ele>483.1</ele>
        <time>2020-10-15T11:11:34Z</time>
      </trkpt>
      <trkpt lat="37.609668000" lon="-4.123043000">
        <ele>482.9</ele>
        <time>2020-10-15T11:11:39Z</time>
      </trkpt>
      <trkpt lat="37.609635000" lon="-4.123138000">
        <ele>482.7</ele>
        <time>2020-10-15T11:11:46Z</time>
      </trkpt>
      <trkpt lat="37.609647000" lon="-4.123247000">
        <ele>482.6</ele>
        <time>2020-10-15T11:16:00Z</time>
      </trkpt>
      <trkpt lat="37.609610000" lon="-4.123353000">
        <ele>482.5</ele>
        <time>2020-10-15T11:16:06Z</time>
      </trkpt>
      <trkpt lat="37.609560000" lon="-4.123469000">
        <ele>482.4</ele>
        <time>2020-10-15T11:16:10Z</time>
      </trkpt>
      <trkpt lat="37.609515000" lon="-4.123569000">
        <ele>482.2</ele>
        <time>2020-10-15T11:16:13Z</time>
      </trkpt>
      <trkpt lat="37.609464000" lon="-4.123683000">
        <ele>482.0</ele>
        <time>2020-10-15T11:16:16Z</time>
      </trkpt>
      <trkpt lat="37.609418000" lon="-4.123789000">
        <ele>481.8</ele>
        <time>2020-10-15T11:16:19Z</time>
      </trkpt>
      <trkpt lat="37.609374000" lon="-4.123890000">
        <ele>481.7</ele>
        <time>2020-10-15T11:16:23Z</time>
      </trkpt>
      <trkpt lat="37.609329000" lon="-4.123985000">
        <ele>481.6</ele>
        <time>2020-10-15T11:16:28Z</time>
      </trkpt>
      <trkpt lat="37.609289000" lon="-4.124085000">
        <ele>481.5</ele>
        <time>2020-10-15T11:16:32Z</time>
      </trkpt>
      <trkpt lat="37.609235000" lon="-4.124192000">
        <ele>481.5</ele>
        <time>2020-10-15T11:16:36Z</time>
      </trkpt>
      <trkpt lat="37.609195000" lon="-4.124294000">
        <ele>481.4</ele>
        <time>2020-10-15T11:16:41Z</time>
      </trkpt>
      <trkpt lat="37.609147000" lon="-4.124399000">
        <ele>481.2</ele>
        <time>2020-10-15T11:16:45Z</time>
      </trkpt>
      <trkpt lat="37.609099000" lon="-4.124509000">
        <ele>481.1</ele>
        <time>2020-10-15T11:16:49Z</time>
      </trkpt>
      <trkpt lat="37.609059000" lon="-4.124600000">
        <ele>480.9</ele>
        <time>2020-10-15T11:16:52Z</time>
      </trkpt>
      <trkpt lat="37.609017000" lon="-4.124690000">
        <ele>480.9</ele>
        <time>2020-10-15T11:16:54Z</time>
      </trkpt>
      <trkpt lat="37.608966000" lon="-4.124826000">
        <ele>481.0</ele>
        <time>2020-10-15T11:16:57Z</time>
      </trkpt>
      <trkpt lat="37.608912000" lon="-4.124956000">
        <ele>481.1</ele>
        <time>2020-10-15T11:16:59Z</time>
      </trkpt>
      <trkpt lat="37.608844000" lon="-4.125097000">
        <ele>481.3</ele>
        <time>2020-10-15T11:17:01Z</time>
      </trkpt>
      <trkpt lat="37.608783000" lon="-4.125234000">
        <ele>481.5</ele>
        <time>2020-10-15T11:17:03Z</time>
      </trkpt>
      <trkpt lat="37.608720000" lon="-4.125364000">
        <ele>481.6</ele>
        <time>2020-10-15T11:17:05Z</time>
      </trkpt>
      <trkpt lat="37.608657000" lon="-4.125502000">
        <ele>481.8</ele>
        <time>2020-10-15T11:17:07Z</time>
      </trkpt>
      <trkpt lat="37.608596000" lon="-4.125634000">
        <ele>482.0</ele>
        <time>2020-10-15T11:17:09Z</time>
      </trkpt>
      <trkpt lat="37.608535000" lon="-4.125767000">
        <ele>482.2</ele>
        <time>2020-10-15T11:17:11Z</time>
      </trkpt>
      <trkpt lat="37.608472000" lon="-4.125895000">
        <ele>482.4</ele>
        <time>2020-10-15T11:17:13Z</time>
      </trkpt>
      <trkpt lat="37.608412000" lon="-4.126024000">
        <ele>482.6</ele>
        <time>2020-10-15T11:17:15Z</time>
      </trkpt>
      <trkpt lat="37.608355000" lon="-4.126154000">
        <ele>482.8</ele>
        <time>2020-10-15T11:17:17Z</time>
      </trkpt>
      <trkpt lat="37.608300000" lon="-4.126280000">
        <ele>482.9</ele>
        <time>2020-10-15T11:17:19Z</time>
      </trkpt>
      <trkpt lat="37.608246000" lon="-4.126407000">
        <ele>482.9</ele>
        <time>2020-10-15T11:17:21Z</time>
      </trkpt>
      <trkpt lat="37.608193000" lon="-4.126530000">
        <ele>482.8</ele>
        <time>2020-10-15T11:17:23Z</time>
      </trkpt>
      <trkpt lat="37.608139000" lon="-4.126655000">
        <ele>482.6</ele>
        <time>2020-10-15T11:17:25Z</time>
      </trkpt>
      <trkpt lat="37.608081000" lon="-4.126771000">
        <ele>482.5</ele>
        <time>2020-10-15T11:17:27Z</time>
      </trkpt>
      <trkpt lat="37.608028000" lon="-4.126905000">
        <ele>482.3</ele>
        <time>2020-10-15T11:17:29Z</time>
      </trkpt>
      <trkpt lat="37.607972000" lon="-4.127040000">
        <ele>482.1</ele>
        <time>2020-10-15T11:17:31Z</time>
      </trkpt>
      <trkpt lat="37.607914000" lon="-4.127172000">
        <ele>482.0</ele>
        <time>2020-10-15T11:17:33Z</time>
      </trkpt>
      <trkpt lat="37.607852000" lon="-4.127300000">
        <ele>481.9</ele>
        <time>2020-10-15T11:17:35Z</time>
      </trkpt>
      <trkpt lat="37.607789000" lon="-4.127421000">
        <ele>481.8</ele>
        <time>2020-10-15T11:17:37Z</time>
      </trkpt>
      <trkpt lat="37.607726000" lon="-4.127543000">
        <ele>481.6</ele>
        <time>2020-10-15T11:17:39Z</time>
      </trkpt>
      <trkpt lat="37.607662000" lon="-4.127659000">
        <ele>481.5</ele>
        <time>2020-10-15T11:17:41Z</time>
      </trkpt>
      <trkpt lat="37.607592000" lon="-4.127778000">
        <ele>481.3</ele>
        <time>2020-10-15T11:17:43Z</time>
      </trkpt>
      <trkpt lat="37.607521000" lon="-4.127892000">
        <ele>481.1</ele>
        <time>2020-10-15T11:17:45Z</time>
      </trkpt>
      <trkpt lat="37.607447000" lon="-4.127993000">
        <ele>481.0</ele>
        <time>2020-10-15T11:17:47Z</time>
      </trkpt>
      <trkpt lat="37.607378000" lon="-4.128106000">
        <ele>480.9</ele>
        <time>2020-10-15T11:17:49Z</time>
      </trkpt>
      <trkpt lat="37.607303000" lon="-4.128213000">
        <ele>480.8</ele>
        <time>2020-10-15T11:17:51Z</time>
      </trkpt>
      <trkpt lat="37.607238000" lon="-4.128300000">
        <ele>480.8</ele>
        <time>2020-10-15T11:17:53Z</time>
      </trkpt>
      <trkpt lat="37.607172000" lon="-4.128373000">
        <ele>480.7</ele>
        <time>2020-10-15T11:17:56Z</time>
      </trkpt>
      <trkpt lat="37.607108000" lon="-4.128437000">
        <ele>480.7</ele>
        <time>2020-10-15T11:17:58Z</time>
      </trkpt>
      <trkpt lat="37.607020000" lon="-4.128521000">
        <ele>480.8</ele>
        <time>2020-10-15T11:18:00Z</time>
      </trkpt>
      <trkpt lat="37.606932000" lon="-4.128607000">
        <ele>481.0</ele>
        <time>2020-10-15T11:18:02Z</time>
      </trkpt>
      <trkpt lat="37.606846000" lon="-4.128686000">
        <ele>481.2</ele>
        <time>2020-10-15T11:18:04Z</time>
      </trkpt>
      <trkpt lat="37.606753000" lon="-4.128768000">
        <ele>481.4</ele>
        <time>2020-10-15T11:18:06Z</time>
      </trkpt>
      <trkpt lat="37.606658000" lon="-4.128850000">
        <ele>481.5</ele>
        <time>2020-10-15T11:18:08Z</time>
      </trkpt>
      <trkpt lat="37.606553000" lon="-4.128928000">
        <ele>481.5</ele>
        <time>2020-10-15T11:18:10Z</time>
      </trkpt>
      <trkpt lat="37.606439000" lon="-4.129006000">
        <ele>481.5</ele>
        <time>2020-10-15T11:18:12Z</time>
      </trkpt>
      <trkpt lat="37.606328000" lon="-4.129090000">
        <ele>481.5</ele>
        <time>2020-10-15T11:18:14Z</time>
      </trkpt>
      <trkpt lat="37.606213000" lon="-4.129167000">
        <ele>481.4</ele>
        <time>2020-10-15T11:18:16Z</time>
      </trkpt>
      <trkpt lat="37.606093000" lon="-4.129244000">
        <ele>481.2</ele>
        <time>2020-10-15T11:18:18Z</time>
      </trkpt>
      <trkpt lat="37.605973000" lon="-4.129321000">
        <ele>480.8</ele>
        <time>2020-10-15T11:18:20Z</time>
      </trkpt>
      <trkpt lat="37.605851000" lon="-4.129399000">
        <ele>480.4</ele>
        <time>2020-10-15T11:18:22Z</time>
      </trkpt>
      <trkpt lat="37.605728000" lon="-4.129486000">
        <ele>479.9</ele>
        <time>2020-10-15T11:18:24Z</time>
      </trkpt>
      <trkpt lat="37.605602000" lon="-4.129568000">
        <ele>479.4</ele>
        <time>2020-10-15T11:18:26Z</time>
      </trkpt>
      <trkpt lat="37.605476000" lon="-4.129654000">
        <ele>478.9</ele>
        <time>2020-10-15T11:18:28Z</time>
      </trkpt>
      <trkpt lat="37.605348000" lon="-4.129744000">
        <ele>478.5</ele>
        <time>2020-10-15T11:18:30Z</time>
      </trkpt>
      <trkpt lat="37.605222000" lon="-4.129843000">
        <ele>477.9</ele>
        <time>2020-10-15T11:18:32Z</time>
      </trkpt>
      <trkpt lat="37.605096000" lon="-4.129949000">
        <ele>477.5</ele>
        <time>2020-10-15T11:18:34Z</time>
      </trkpt>
      <trkpt lat="37.604971000" lon="-4.130059000">
        <ele>477.0</ele>
        <time>2020-10-15T11:18:36Z</time>
      </trkpt>
      <trkpt lat="37.604850000" lon="-4.130186000">
        <ele>476.6</ele>
        <time>2020-10-15T11:18:38Z</time>
      </trkpt>
      <trkpt lat="37.604733000" lon="-4.130314000">
        <ele>476.2</ele>
        <time>2020-10-15T11:18:40Z</time>
      </trkpt>
      <trkpt lat="37.604618000" lon="-4.130447000">
        <ele>475.8</ele>
        <time>2020-10-15T11:18:42Z</time>
      </trkpt>
      <trkpt lat="37.604517000" lon="-4.130586000">
        <ele>475.5</ele>
        <time>2020-10-15T11:18:44Z</time>
      </trkpt>
      <trkpt lat="37.604422000" lon="-4.130731000">
        <ele>475.0</ele>
        <time>2020-10-15T11:18:46Z</time>
      </trkpt>
      <trkpt lat="37.604328000" lon="-4.130871000">
        <ele>474.6</ele>
        <time>2020-10-15T11:18:48Z</time>
      </trkpt>
      <trkpt lat="37.604237000" lon="-4.131020000">
        <ele>474.3</ele>
        <time>2020-10-15T11:18:50Z</time>
      </trkpt>
      <trkpt lat="37.604164000" lon="-4.131165000">
        <ele>474.0</ele>
        <time>2020-10-15T11:18:52Z</time>
      </trkpt>
      <trkpt lat="37.604088000" lon="-4.131314000">
        <ele>473.7</ele>
        <time>2020-10-15T11:18:54Z</time>
      </trkpt>
      <trkpt lat="37.604017000" lon="-4.131469000">
        <ele>473.4</ele>
        <time>2020-10-15T11:18:56Z</time>
      </trkpt>
      <trkpt lat="37.603951000" lon="-4.131623000">
        <ele>473.0</ele>
        <time>2020-10-15T11:18:58Z</time>
      </trkpt>
      <trkpt lat="37.603888000" lon="-4.131779000">
        <ele>472.6</ele>
        <time>2020-10-15T11:19:00Z</time>
      </trkpt>
      <trkpt lat="37.603820000" lon="-4.131944000">
        <ele>472.3</ele>
        <time>2020-10-15T11:19:02Z</time>
      </trkpt>
      <trkpt lat="37.603756000" lon="-4.132109000">
        <ele>471.9</ele>
        <time>2020-10-15T11:19:04Z</time>
      </trkpt>
      <trkpt lat="37.603689000" lon="-4.132267000">
        <ele>471.5</ele>
        <time>2020-10-15T11:19:07Z</time>
      </trkpt>
      <trkpt lat="37.603626000" lon="-4.132429000">
        <ele>471.3</ele>
        <time>2020-10-15T11:19:08Z</time>
      </trkpt>
      <trkpt lat="37.603560000" lon="-4.132593000">
        <ele>471.0</ele>
        <time>2020-10-15T11:19:10Z</time>
      </trkpt>
      <trkpt lat="37.603500000" lon="-4.132753000">
        <ele>470.7</ele>
        <time>2020-10-15T11:19:12Z</time>
      </trkpt>
      <trkpt lat="37.603435000" lon="-4.132915000">
        <ele>470.4</ele>
        <time>2020-10-15T11:19:14Z</time>
      </trkpt>
      <trkpt lat="37.603377000" lon="-4.133067000">
        <ele>470.1</ele>
        <time>2020-10-15T11:19:16Z</time>
      </trkpt>
      <trkpt lat="37.603316000" lon="-4.133218000">
        <ele>469.9</ele>
        <time>2020-10-15T11:19:18Z</time>
      </trkpt>
      <trkpt lat="37.603257000" lon="-4.133367000">
        <ele>469.8</ele>
        <time>2020-10-15T11:19:20Z</time>
      </trkpt>
      <trkpt lat="37.603202000" lon="-4.133514000">
        <ele>469.7</ele>
        <time>2020-10-15T11:19:22Z</time>
      </trkpt>
      <trkpt lat="37.603151000" lon="-4.133663000">
        <ele>469.8</ele>
        <time>2020-10-15T11:19:24Z</time>
      </trkpt>
      <trkpt lat="37.603089000" lon="-4.133807000">
        <ele>469.9</ele>
        <time>2020-10-15T11:19:26Z</time>
      </trkpt>
      <trkpt lat="37.603031000" lon="-4.133943000">
        <ele>469.9</ele>
        <time>2020-10-15T11:19:28Z</time>
      </trkpt>
      <trkpt lat="37.602978000" lon="-4.134079000">
        <ele>470.0</ele>
        <time>2020-10-15T11:19:30Z</time>
      </trkpt>
      <trkpt lat="37.602926000" lon="-4.134218000">
        <ele>470.1</ele>
        <time>2020-10-15T11:19:32Z</time>
      </trkpt>
      <trkpt lat="37.602870000" lon="-4.134360000">
        <ele>470.1</ele>
        <time>2020-10-15T11:19:34Z</time>
      </trkpt>
      <trkpt lat="37.602814000" lon="-4.134500000">
        <ele>470.1</ele>
        <time>2020-10-15T11:19:36Z</time>
      </trkpt>
      <trkpt lat="37.602755000" lon="-4.134650000">
        <ele>470.0</ele>
        <time>2020-10-15T11:19:38Z</time>
      </trkpt>
      <trkpt lat="37.602696000" lon="-4.134794000">
        <ele>469.9</ele>
        <time>2020-10-15T11:19:40Z</time>
      </trkpt>
      <trkpt lat="37.602636000" lon="-4.134941000">
        <ele>469.5</ele>
        <time>2020-10-15T11:19:42Z</time>
      </trkpt>
      <trkpt lat="37.602580000" lon="-4.135084000">
        <ele>469.1</ele>
        <time>2020-10-15T11:19:44Z</time>
      </trkpt>
      <trkpt lat="37.602520000" lon="-4.135227000">
        <ele>468.5</ele>
        <time>2020-10-15T11:19:46Z</time>
      </trkpt>
      <trkpt lat="37.602461000" lon="-4.135377000">
        <ele>467.7</ele>
        <time>2020-10-15T11:19:48Z</time>
      </trkpt>
      <trkpt lat="37.602399000" lon="-4.135525000">
        <ele>467.1</ele>
        <time>2020-10-15T11:19:50Z</time>
      </trkpt>
      <trkpt lat="37.602333000" lon="-4.135680000">
        <ele>466.4</ele>
        <time>2020-10-15T11:19:52Z</time>
      </trkpt>
      <trkpt lat="37.602270000" lon="-4.135834000">
        <ele>465.7</ele>
        <time>2020-10-15T11:19:54Z</time>
      </trkpt>
      <trkpt lat="37.602208000" lon="-4.135984000">
        <ele>465.2</ele>
        <time>2020-10-15T11:19:56Z</time>
      </trkpt>
      <trkpt lat="37.602150000" lon="-4.136139000">
        <ele>464.8</ele>
        <time>2020-10-15T11:19:58Z</time>
      </trkpt>
      <trkpt lat="37.602094000" lon="-4.136296000">
        <ele>464.5</ele>
        <time>2020-10-15T11:20:00Z</time>
      </trkpt>
      <trkpt lat="37.602037000" lon="-4.136437000">
        <ele>464.3</ele>
        <time>2020-10-15T11:20:02Z</time>
      </trkpt>
      <trkpt lat="37.601974000" lon="-4.136586000">
        <ele>464.2</ele>
        <time>2020-10-15T11:20:04Z</time>
      </trkpt>
      <trkpt lat="37.601915000" lon="-4.136731000">
        <ele>464.3</ele>
        <time>2020-10-15T11:20:06Z</time>
      </trkpt>
      <trkpt lat="37.601854000" lon="-4.136879000">
        <ele>464.4</ele>
        <time>2020-10-15T11:20:08Z</time>
      </trkpt>
      <trkpt lat="37.601795000" lon="-4.137026000">
        <ele>464.4</ele>
        <time>2020-10-15T11:20:10Z</time>
      </trkpt>
      <trkpt lat="37.601740000" lon="-4.137168000">
        <ele>464.4</ele>
        <time>2020-10-15T11:20:12Z</time>
      </trkpt>
      <trkpt lat="37.601678000" lon="-4.137318000">
        <ele>464.3</ele>
        <time>2020-10-15T11:20:14Z</time>
      </trkpt>
      <trkpt lat="37.601623000" lon="-4.137467000">
        <ele>464.1</ele>
        <time>2020-10-15T11:20:16Z</time>
      </trkpt>
      <trkpt lat="37.601559000" lon="-4.137617000">
        <ele>463.9</ele>
        <time>2020-10-15T11:20:18Z</time>
      </trkpt>
      <trkpt lat="37.601503000" lon="-4.137770000">
        <ele>463.6</ele>
        <time>2020-10-15T11:20:20Z</time>
      </trkpt>
      <trkpt lat="37.601446000" lon="-4.137926000">
        <ele>463.4</ele>
        <time>2020-10-15T11:20:22Z</time>
      </trkpt>
      <trkpt lat="37.601393000" lon="-4.138078000">
        <ele>463.0</ele>
        <time>2020-10-15T11:20:24Z</time>
      </trkpt>
      <trkpt lat="37.601341000" lon="-4.138225000">
        <ele>462.5</ele>
        <time>2020-10-15T11:20:26Z</time>
      </trkpt>
      <trkpt lat="37.601285000" lon="-4.138376000">
        <ele>462.0</ele>
        <time>2020-10-15T11:20:28Z</time>
      </trkpt>
      <trkpt lat="37.601234000" lon="-4.138531000">
        <ele>461.5</ele>
        <time>2020-10-15T11:20:30Z</time>
      </trkpt>
      <trkpt lat="37.601193000" lon="-4.138688000">
        <ele>461.3</ele>
        <time>2020-10-15T11:20:32Z</time>
      </trkpt>
      <trkpt lat="37.601154000" lon="-4.138851000">
        <ele>461.0</ele>
        <time>2020-10-15T11:20:34Z</time>
      </trkpt>
      <trkpt lat="37.601118000" lon="-4.139013000">
        <ele>460.7</ele>
        <time>2020-10-15T11:20:36Z</time>
      </trkpt>
      <trkpt lat="37.601083000" lon="-4.139182000">
        <ele>460.5</ele>
        <time>2020-10-15T11:20:39Z</time>
      </trkpt>
      <trkpt lat="37.601055000" lon="-4.139344000">
        <ele>460.2</ele>
        <time>2020-10-15T11:20:40Z</time>
      </trkpt>
      <trkpt lat="37.601034000" lon="-4.139505000">
        <ele>459.8</ele>
        <time>2020-10-15T11:20:42Z</time>
      </trkpt>
      <trkpt lat="37.601018000" lon="-4.139672000">
        <ele>459.5</ele>
        <time>2020-10-15T11:20:44Z</time>
      </trkpt>
      <trkpt lat="37.601008000" lon="-4.139833000">
        <ele>459.1</ele>
        <time>2020-10-15T11:20:46Z</time>
      </trkpt>
      <trkpt lat="37.601000000" lon="-4.140006000">
        <ele>458.7</ele>
        <time>2020-10-15T11:20:48Z</time>
      </trkpt>
      <trkpt lat="37.600998000" lon="-4.140168000">
        <ele>458.4</ele>
        <time>2020-10-15T11:20:50Z</time>
      </trkpt>
      <trkpt lat="37.601001000" lon="-4.140338000">
        <ele>458.0</ele>
        <time>2020-10-15T11:20:52Z</time>
      </trkpt>
      <trkpt lat="37.601015000" lon="-4.140505000">
        <ele>457.5</ele>
        <time>2020-10-15T11:20:54Z</time>
      </trkpt>
      <trkpt lat="37.601031000" lon="-4.140672000">
        <ele>457.1</ele>
        <time>2020-10-15T11:20:56Z</time>
      </trkpt>
      <trkpt lat="37.601049000" lon="-4.140836000">
        <ele>456.6</ele>
        <time>2020-10-15T11:20:58Z</time>
      </trkpt>
      <trkpt lat="37.601073000" lon="-4.141002000">
        <ele>456.1</ele>
        <time>2020-10-15T11:21:00Z</time>
      </trkpt>
      <trkpt lat="37.601101000" lon="-4.141169000">
        <ele>455.5</ele>
        <time>2020-10-15T11:21:02Z</time>
      </trkpt>
      <trkpt lat="37.601136000" lon="-4.141340000">
        <ele>454.8</ele>
        <time>2020-10-15T11:21:04Z</time>
      </trkpt>
      <trkpt lat="37.601173000" lon="-4.141508000">
        <ele>454.2</ele>
        <time>2020-10-15T11:21:06Z</time>
      </trkpt>
      <trkpt lat="37.601215000" lon="-4.141670000">
        <ele>453.6</ele>
        <time>2020-10-15T11:21:08Z</time>
      </trkpt>
      <trkpt lat="37.601266000" lon="-4.141831000">
        <ele>453.2</ele>
        <time>2020-10-15T11:21:10Z</time>
      </trkpt>
      <trkpt lat="37.601317000" lon="-4.141992000">
        <ele>452.8</ele>
        <time>2020-10-15T11:21:12Z</time>
      </trkpt>
      <trkpt lat="37.601378000" lon="-4.142146000">
        <ele>452.5</ele>
        <time>2020-10-15T11:21:14Z</time>
      </trkpt>
      <trkpt lat="37.601443000" lon="-4.142306000">
        <ele>452.5</ele>
        <time>2020-10-15T11:21:16Z</time>
      </trkpt>
      <trkpt lat="37.601510000" lon="-4.142457000">
        <ele>452.5</ele>
        <time>2020-10-15T11:21:18Z</time>
      </trkpt>
      <trkpt lat="37.601587000" lon="-4.142602000">
        <ele>452.5</ele>
        <time>2020-10-15T11:21:20Z</time>
      </trkpt>
      <trkpt lat="37.601662000" lon="-4.142746000">
        <ele>452.7</ele>
        <time>2020-10-15T11:21:22Z</time>
      </trkpt>
      <trkpt lat="37.601738000" lon="-4.142889000">
        <ele>453.0</ele>
        <time>2020-10-15T11:21:24Z</time>
      </trkpt>
      <trkpt lat="37.601816000" lon="-4.143032000">
        <ele>453.4</ele>
        <time>2020-10-15T11:21:26Z</time>
      </trkpt>
      <trkpt lat="37.601896000" lon="-4.143168000">
        <ele>453.8</ele>
        <time>2020-10-15T11:21:28Z</time>
      </trkpt>
      <trkpt lat="37.601974000" lon="-4.143291000">
        <ele>454.4</ele>
        <time>2020-10-15T11:21:30Z</time>
      </trkpt>
      <trkpt lat="37.602054000" lon="-4.143432000">
        <ele>454.9</ele>
        <time>2020-10-15T11:21:32Z</time>
      </trkpt>
      <trkpt lat="37.602134000" lon="-4.143568000">
        <ele>455.4</ele>
        <time>2020-10-15T11:21:34Z</time>
      </trkpt>
      <trkpt lat="37.602219000" lon="-4.143706000">
        <ele>455.6</ele>
        <time>2020-10-15T11:21:36Z</time>
      </trkpt>
      <trkpt lat="37.602309000" lon="-4.143845000">
        <ele>455.7</ele>
        <time>2020-10-15T11:21:38Z</time>
      </trkpt>
      <trkpt lat="37.602398000" lon="-4.143988000">
        <ele>455.7</ele>
        <time>2020-10-15T11:21:40Z</time>
      </trkpt>
      <trkpt lat="37.602477000" lon="-4.144132000">
        <ele>455.6</ele>
        <time>2020-10-15T11:21:42Z</time>
      </trkpt>
      <trkpt lat="37.602566000" lon="-4.144281000">
        <ele>455.5</ele>
        <time>2020-10-15T11:21:44Z</time>
      </trkpt>
      <trkpt lat="37.602646000" lon="-4.144434000">
        <ele>455.2</ele>
        <time>2020-10-15T11:21:46Z</time>
      </trkpt>
      <trkpt lat="37.602726000" lon="-4.144596000">
        <ele>454.9</ele>
        <time>2020-10-15T11:21:48Z</time>
      </trkpt>
      <trkpt lat="37.602792000" lon="-4.144747000">
        <ele>454.5</ele>
        <time>2020-10-15T11:21:50Z</time>
      </trkpt>
      <trkpt lat="37.602859000" lon="-4.144897000">
        <ele>453.9</ele>
        <time>2020-10-15T11:21:52Z</time>
      </trkpt>
      <trkpt lat="37.602912000" lon="-4.145044000">
        <ele>453.4</ele>
        <time>2020-10-15T11:21:54Z</time>
      </trkpt>
      <trkpt lat="37.602967000" lon="-4.145196000">
        <ele>452.8</ele>
        <time>2020-10-15T11:21:56Z</time>
      </trkpt>
      <trkpt lat="37.603011000" lon="-4.145355000">
        <ele>452.4</ele>
        <time>2020-10-15T11:21:58Z</time>
      </trkpt>
      <trkpt lat="37.603053000" lon="-4.145516000">
        <ele>452.1</ele>
        <time>2020-10-15T11:22:00Z</time>
      </trkpt>
      <trkpt lat="37.603092000" lon="-4.145683000">
        <ele>451.8</ele>
        <time>2020-10-15T11:22:02Z</time>
      </trkpt>
      <trkpt lat="37.603119000" lon="-4.145847000">
        <ele>451.6</ele>
        <time>2020-10-15T11:22:04Z</time>
      </trkpt>
      <trkpt lat="37.603142000" lon="-4.146005000">
        <ele>451.6</ele>
        <time>2020-10-15T11:22:06Z</time>
      </trkpt>
      <trkpt lat="37.603158000" lon="-4.146152000">
        <ele>451.7</ele>
        <time>2020-10-15T11:22:08Z</time>
      </trkpt>
      <trkpt lat="37.603168000" lon="-4.146305000">
        <ele>451.8</ele>
        <time>2020-10-15T11:22:10Z</time>
      </trkpt>
      <trkpt lat="37.603179000" lon="-4.146467000">
        <ele>451.9</ele>
        <time>2020-10-15T11:22:12Z</time>
      </trkpt>
      <trkpt lat="37.603181000" lon="-4.146630000">
        <ele>451.9</ele>
        <time>2020-10-15T11:22:14Z</time>
      </trkpt>
      <trkpt lat="37.603176000" lon="-4.146795000">
        <ele>451.8</ele>
        <time>2020-10-15T11:22:16Z</time>
      </trkpt>
      <trkpt lat="37.603170000" lon="-4.146966000">
        <ele>451.7</ele>
        <time>2020-10-15T11:22:18Z</time>
      </trkpt>
      <trkpt lat="37.603165000" lon="-4.147134000">
        <ele>451.6</ele>
        <time>2020-10-15T11:22:20Z</time>
      </trkpt>
      <trkpt lat="37.603161000" lon="-4.147304000">
        <ele>451.5</ele>
        <time>2020-10-15T11:22:22Z</time>
      </trkpt>
      <trkpt lat="37.603151000" lon="-4.147474000">
        <ele>451.3</ele>
        <time>2020-10-15T11:22:24Z</time>
      </trkpt>
      <trkpt lat="37.603148000" lon="-4.147644000">
        <ele>451.1</ele>
        <time>2020-10-15T11:22:26Z</time>
      </trkpt>
      <trkpt lat="37.603142000" lon="-4.147814000">
        <ele>450.8</ele>
        <time>2020-10-15T11:22:28Z</time>
      </trkpt>
      <trkpt lat="37.603139000" lon="-4.147984000">
        <ele>450.5</ele>
        <time>2020-10-15T11:22:30Z</time>
      </trkpt>
      <trkpt lat="37.603129000" lon="-4.148146000">
        <ele>450.3</ele>
        <time>2020-10-15T11:22:32Z</time>
      </trkpt>
      <trkpt lat="37.603128000" lon="-4.148313000">
        <ele>450.1</ele>
        <time>2020-10-15T11:22:34Z</time>
      </trkpt>
      <trkpt lat="37.603136000" lon="-4.148476000">
        <ele>450.0</ele>
        <time>2020-10-15T11:22:36Z</time>
      </trkpt>
      <trkpt lat="37.603139000" lon="-4.148643000">
        <ele>449.9</ele>
        <time>2020-10-15T11:22:38Z</time>
      </trkpt>
      <trkpt lat="37.603143000" lon="-4.148802000">
        <ele>449.7</ele>
        <time>2020-10-15T11:22:40Z</time>
      </trkpt>
      <trkpt lat="37.603156000" lon="-4.148967000">
        <ele>449.5</ele>
        <time>2020-10-15T11:22:42Z</time>
      </trkpt>
      <trkpt lat="37.603177000" lon="-4.149121000">
        <ele>449.5</ele>
        <time>2020-10-15T11:22:44Z</time>
      </trkpt>
      <trkpt lat="37.603198000" lon="-4.149278000">
        <ele>449.4</ele>
        <time>2020-10-15T11:22:46Z</time>
      </trkpt>
      <trkpt lat="37.603224000" lon="-4.149434000">
        <ele>449.2</ele>
        <time>2020-10-15T11:22:48Z</time>
      </trkpt>
      <trkpt lat="37.603255000" lon="-4.149584000">
        <ele>449.0</ele>
        <time>2020-10-15T11:22:50Z</time>
      </trkpt>
      <trkpt lat="37.603288000" lon="-4.149735000">
        <ele>448.7</ele>
        <time>2020-10-15T11:22:52Z</time>
      </trkpt>
      <trkpt lat="37.603321000" lon="-4.149886000">
        <ele>448.5</ele>
        <time>2020-10-15T11:22:54Z</time>
      </trkpt>
      <trkpt lat="37.603356000" lon="-4.150037000">
        <ele>448.1</ele>
        <time>2020-10-15T11:22:56Z</time>
      </trkpt>
      <trkpt lat="37.603397000" lon="-4.150186000">
        <ele>447.7</ele>
        <time>2020-10-15T11:22:58Z</time>
      </trkpt>
      <trkpt lat="37.603441000" lon="-4.150337000">
        <ele>447.5</ele>
        <time>2020-10-15T11:23:00Z</time>
      </trkpt>
      <trkpt lat="37.603489000" lon="-4.150486000">
        <ele>447.3</ele>
        <time>2020-10-15T11:23:02Z</time>
      </trkpt>
      <trkpt lat="37.603538000" lon="-4.150626000">
        <ele>447.1</ele>
        <time>2020-10-15T11:23:04Z</time>
      </trkpt>
      <trkpt lat="37.603590000" lon="-4.150772000">
        <ele>446.7</ele>
        <time>2020-10-15T11:23:06Z</time>
      </trkpt>
      <trkpt lat="37.603647000" lon="-4.150912000">
        <ele>446.3</ele>
        <time>2020-10-15T11:23:08Z</time>
      </trkpt>
      <trkpt lat="37.603706000" lon="-4.151048000">
        <ele>446.0</ele>
        <time>2020-10-15T11:23:10Z</time>
      </trkpt>
      <trkpt lat="37.603764000" lon="-4.151181000">
        <ele>445.7</ele>
        <time>2020-10-15T11:23:12Z</time>
      </trkpt>
      <trkpt lat="37.603831000" lon="-4.151323000">
        <ele>445.5</ele>
        <time>2020-10-15T11:23:14Z</time>
      </trkpt>
      <trkpt lat="37.603904000" lon="-4.151465000">
        <ele>445.4</ele>
        <time>2020-10-15T11:23:16Z</time>
      </trkpt>
      <trkpt lat="37.603977000" lon="-4.151595000">
        <ele>445.4</ele>
        <time>2020-10-15T11:23:18Z</time>
      </trkpt>
      <trkpt lat="37.604047000" lon="-4.151722000">
        <ele>445.4</ele>
        <time>2020-10-15T11:23:20Z</time>
      </trkpt>
      <trkpt lat="37.604109000" lon="-4.151846000">
        <ele>445.4</ele>
        <time>2020-10-15T11:23:22Z</time>
      </trkpt>
      <trkpt lat="37.604175000" lon="-4.151960000">
        <ele>445.4</ele>
        <time>2020-10-15T11:23:24Z</time>
      </trkpt>
      <trkpt lat="37.604235000" lon="-4.152085000">
        <ele>445.4</ele>
        <time>2020-10-15T11:23:26Z</time>
      </trkpt>
      <trkpt lat="37.604297000" lon="-4.152204000">
        <ele>445.4</ele>
        <time>2020-10-15T11:23:28Z</time>
      </trkpt>
      <trkpt lat="37.604364000" lon="-4.152321000">
        <ele>445.5</ele>
        <time>2020-10-15T11:23:30Z</time>
      </trkpt>
      <trkpt lat="37.604423000" lon="-4.152441000">
        <ele>445.4</ele>
        <time>2020-10-15T11:23:32Z</time>
      </trkpt>
      <trkpt lat="37.604485000" lon="-4.152562000">
        <ele>445.2</ele>
        <time>2020-10-15T11:23:34Z</time>
      </trkpt>
      <trkpt lat="37.604552000" lon="-4.152686000">
        <ele>444.9</ele>
        <time>2020-10-15T11:23:36Z</time>
      </trkpt>
      <trkpt lat="37.604622000" lon="-4.152812000">
        <ele>444.5</ele>
        <time>2020-10-15T11:23:38Z</time>
      </trkpt>
      <trkpt lat="37.604681000" lon="-4.152933000">
        <ele>444.0</ele>
        <time>2020-10-15T11:23:40Z</time>
      </trkpt>
      <trkpt lat="37.604750000" lon="-4.153059000">
        <ele>443.5</ele>
        <time>2020-10-15T11:23:42Z</time>
      </trkpt>
      <trkpt lat="37.604812000" lon="-4.153183000">
        <ele>442.9</ele>
        <time>2020-10-15T11:23:44Z</time>
      </trkpt>
      <trkpt lat="37.604878000" lon="-4.153310000">
        <ele>442.5</ele>
        <time>2020-10-15T11:23:46Z</time>
      </trkpt>
      <trkpt lat="37.604943000" lon="-4.153447000">
        <ele>442.1</ele>
        <time>2020-10-15T11:23:48Z</time>
      </trkpt>
      <trkpt lat="37.605013000" lon="-4.153573000">
        <ele>441.8</ele>
        <time>2020-10-15T11:23:50Z</time>
      </trkpt>
      <trkpt lat="37.605081000" lon="-4.153701000">
        <ele>441.6</ele>
        <time>2020-10-15T11:23:52Z</time>
      </trkpt>
      <trkpt lat="37.605144000" lon="-4.153843000">
        <ele>441.5</ele>
        <time>2020-10-15T11:23:54Z</time>
      </trkpt>
      <trkpt lat="37.605201000" lon="-4.153981000">
        <ele>441.5</ele>
        <time>2020-10-15T11:23:56Z</time>
      </trkpt>
      <trkpt lat="37.605256000" lon="-4.154127000">
        <ele>441.5</ele>
        <time>2020-10-15T11:23:58Z</time>
      </trkpt>
      <trkpt lat="37.605299000" lon="-4.154273000">
        <ele>441.5</ele>
        <time>2020-10-15T11:24:00Z</time>
      </trkpt>
      <trkpt lat="37.605337000" lon="-4.154425000">
        <ele>441.5</ele>
        <time>2020-10-15T11:24:02Z</time>
      </trkpt>
      <trkpt lat="37.605366000" lon="-4.154586000">
        <ele>441.5</ele>
        <time>2020-10-15T11:24:04Z</time>
      </trkpt>
      <trkpt lat="37.605392000" lon="-4.154742000">
        <ele>441.3</ele>
        <time>2020-10-15T11:24:06Z</time>
      </trkpt>
      <trkpt lat="37.605408000" lon="-4.154889000">
        <ele>441.0</ele>
        <time>2020-10-15T11:24:08Z</time>
      </trkpt>
      <trkpt lat="37.605431000" lon="-4.155042000">
        <ele>440.6</ele>
        <time>2020-10-15T11:24:10Z</time>
      </trkpt>
      <trkpt lat="37.605435000" lon="-4.155193000">
        <ele>440.3</ele>
        <time>2020-10-15T11:24:12Z</time>
      </trkpt>
      <trkpt lat="37.605441000" lon="-4.155349000">
        <ele>439.9</ele>
        <time>2020-10-15T11:24:14Z</time>
      </trkpt>
      <trkpt lat="37.605450000" lon="-4.155504000">
        <ele>439.3</ele>
        <time>2020-10-15T11:24:16Z</time>
      </trkpt>
      <trkpt lat="37.605448000" lon="-4.155655000">
        <ele>438.5</ele>
        <time>2020-10-15T11:24:18Z</time>
      </trkpt>
      <trkpt lat="37.605434000" lon="-4.155804000">
        <ele>437.6</ele>
        <time>2020-10-15T11:24:20Z</time>
      </trkpt>
      <trkpt lat="37.605414000" lon="-4.155953000">
        <ele>436.7</ele>
        <time>2020-10-15T11:24:22Z</time>
      </trkpt>
      <trkpt lat="37.605394000" lon="-4.156109000">
        <ele>435.8</ele>
        <time>2020-10-15T11:24:24Z</time>
      </trkpt>
      <trkpt lat="37.605375000" lon="-4.156262000">
        <ele>434.9</ele>
        <time>2020-10-15T11:24:26Z</time>
      </trkpt>
      <trkpt lat="37.605340000" lon="-4.156408000">
        <ele>434.2</ele>
        <time>2020-10-15T11:24:28Z</time>
      </trkpt>
      <trkpt lat="37.605299000" lon="-4.156548000">
        <ele>433.5</ele>
        <time>2020-10-15T11:24:30Z</time>
      </trkpt>
      <trkpt lat="37.605256000" lon="-4.156693000">
        <ele>432.7</ele>
        <time>2020-10-15T11:24:32Z</time>
      </trkpt>
      <trkpt lat="37.605204000" lon="-4.156839000">
        <ele>432.0</ele>
        <time>2020-10-15T11:24:34Z</time>
      </trkpt>
      <trkpt lat="37.605154000" lon="-4.156972000">
        <ele>431.2</ele>
        <time>2020-10-15T11:24:36Z</time>
      </trkpt>
      <trkpt lat="37.605095000" lon="-4.157111000">
        <ele>430.6</ele>
        <time>2020-10-15T11:24:38Z</time>
      </trkpt>
      <trkpt lat="37.605040000" lon="-4.157244000">
        <ele>430.4</ele>
        <time>2020-10-15T11:24:40Z</time>
      </trkpt>
      <trkpt lat="37.604976000" lon="-4.157364000">
        <ele>430.1</ele>
        <time>2020-10-15T11:24:42Z</time>
      </trkpt>
      <trkpt lat="37.604913000" lon="-4.157472000">
        <ele>430.0</ele>
        <time>2020-10-15T11:24:44Z</time>
      </trkpt>
      <trkpt lat="37.604842000" lon="-4.157580000">
        <ele>430.1</ele>
        <time>2020-10-15T11:24:46Z</time>
      </trkpt>
      <trkpt lat="37.604771000" lon="-4.157692000">
        <ele>430.2</ele>
        <time>2020-10-15T11:24:48Z</time>
      </trkpt>
      <trkpt lat="37.604701000" lon="-4.157782000">
        <ele>430.2</ele>
        <time>2020-10-15T11:24:50Z</time>
      </trkpt>
      <trkpt lat="37.604620000" lon="-4.157884000">
        <ele>430.1</ele>
        <time>2020-10-15T11:24:52Z</time>
      </trkpt>
      <trkpt lat="37.604532000" lon="-4.157979000">
        <ele>430.1</ele>
        <time>2020-10-15T11:24:54Z</time>
      </trkpt>
      <trkpt lat="37.604439000" lon="-4.158071000">
        <ele>430.2</ele>
        <time>2020-10-15T11:24:56Z</time>
      </trkpt>
      <trkpt lat="37.604344000" lon="-4.158164000">
        <ele>430.4</ele>
        <time>2020-10-15T11:24:58Z</time>
      </trkpt>
      <trkpt lat="37.604239000" lon="-4.158254000">
        <ele>430.5</ele>
        <time>2020-10-15T11:25:00Z</time>
      </trkpt>
      <trkpt lat="37.604133000" lon="-4.158341000">
        <ele>430.7</ele>
        <time>2020-10-15T11:25:02Z</time>
      </trkpt>
      <trkpt lat="37.604020000" lon="-4.158423000">
        <ele>430.9</ele>
        <time>2020-10-15T11:25:04Z</time>
      </trkpt>
      <trkpt lat="37.603905000" lon="-4.158498000">
        <ele>431.1</ele>
        <time>2020-10-15T11:25:06Z</time>
      </trkpt>
      <trkpt lat="37.603783000" lon="-4.158562000">
        <ele>431.0</ele>
        <time>2020-10-15T11:25:08Z</time>
      </trkpt>
      <trkpt lat="37.603659000" lon="-4.158625000">
        <ele>430.9</ele>
        <time>2020-10-15T11:25:10Z</time>
      </trkpt>
      <trkpt lat="37.603533000" lon="-4.158683000">
        <ele>430.7</ele>
        <time>2020-10-15T11:25:12Z</time>
      </trkpt>
      <trkpt lat="37.603411000" lon="-4.158730000">
        <ele>430.5</ele>
        <time>2020-10-15T11:25:14Z</time>
      </trkpt>
      <trkpt lat="37.603277000" lon="-4.158767000">
        <ele>430.3</ele>
        <time>2020-10-15T11:25:16Z</time>
      </trkpt>
      <trkpt lat="37.603140000" lon="-4.158791000">
        <ele>429.9</ele>
        <time>2020-10-15T11:25:18Z</time>
      </trkpt>
      <trkpt lat="37.603013000" lon="-4.158817000">
        <ele>429.5</ele>
        <time>2020-10-15T11:25:20Z</time>
      </trkpt>
      <trkpt lat="37.602879000" lon="-4.158829000">
        <ele>429.1</ele>
        <time>2020-10-15T11:25:22Z</time>
      </trkpt>
      <trkpt lat="37.602742000" lon="-4.158830000">
        <ele>428.8</ele>
        <time>2020-10-15T11:25:24Z</time>
      </trkpt>
      <trkpt lat="37.602604000" lon="-4.158825000">
        <ele>428.8</ele>
        <time>2020-10-15T11:25:27Z</time>
      </trkpt>
      <trkpt lat="37.602461000" lon="-4.158806000">
        <ele>429.0</ele>
        <time>2020-10-15T11:25:28Z</time>
      </trkpt>
      <trkpt lat="37.602324000" lon="-4.158785000">
        <ele>429.5</ele>
        <time>2020-10-15T11:25:30Z</time>
      </trkpt>
      <trkpt lat="37.602187000" lon="-4.158754000">
        <ele>430.2</ele>
        <time>2020-10-15T11:25:32Z</time>
      </trkpt>
      <trkpt lat="37.602054000" lon="-4.158720000">
        <ele>431.0</ele>
        <time>2020-10-15T11:25:34Z</time>
      </trkpt>
      <trkpt lat="37.601916000" lon="-4.158672000">
        <ele>431.8</ele>
        <time>2020-10-15T11:25:36Z</time>
      </trkpt>
      <trkpt lat="37.601782000" lon="-4.158611000">
        <ele>432.6</ele>
        <time>2020-10-15T11:25:38Z</time>
      </trkpt>
      <trkpt lat="37.601648000" lon="-4.158544000">
        <ele>433.3</ele>
        <time>2020-10-15T11:25:40Z</time>
      </trkpt>
      <trkpt lat="37.601522000" lon="-4.158472000">
        <ele>433.7</ele>
        <time>2020-10-15T11:25:42Z</time>
      </trkpt>
      <trkpt lat="37.601393000" lon="-4.158394000">
        <ele>434.0</ele>
        <time>2020-10-15T11:25:44Z</time>
      </trkpt>
      <trkpt lat="37.601268000" lon="-4.158298000">
        <ele>434.1</ele>
        <time>2020-10-15T11:25:46Z</time>
      </trkpt>
      <trkpt lat="37.601151000" lon="-4.158185000">
        <ele>434.0</ele>
        <time>2020-10-15T11:25:48Z</time>
      </trkpt>
      <trkpt lat="37.601036000" lon="-4.158065000">
        <ele>433.7</ele>
        <time>2020-10-15T11:25:50Z</time>
      </trkpt>
      <trkpt lat="37.600924000" lon="-4.157955000">
        <ele>433.3</ele>
        <time>2020-10-15T11:25:52Z</time>
      </trkpt>
      <trkpt lat="37.600818000" lon="-4.157836000">
        <ele>432.7</ele>
        <time>2020-10-15T11:25:54Z</time>
      </trkpt>
      <trkpt lat="37.600709000" lon="-4.157714000">
        <ele>432.1</ele>
        <time>2020-10-15T11:25:56Z</time>
      </trkpt>
      <trkpt lat="37.600607000" lon="-4.157600000">
        <ele>431.5</ele>
        <time>2020-10-15T11:25:58Z</time>
      </trkpt>
      <trkpt lat="37.600502000" lon="-4.157478000">
        <ele>430.8</ele>
        <time>2020-10-15T11:26:00Z</time>
      </trkpt>
      <trkpt lat="37.600399000" lon="-4.157357000">
        <ele>430.2</ele>
        <time>2020-10-15T11:26:02Z</time>
      </trkpt>
      <trkpt lat="37.600299000" lon="-4.157235000">
        <ele>429.5</ele>
        <time>2020-10-15T11:26:04Z</time>
      </trkpt>
      <trkpt lat="37.600196000" lon="-4.157109000">
        <ele>428.8</ele>
        <time>2020-10-15T11:26:06Z</time>
      </trkpt>
      <trkpt lat="37.600087000" lon="-4.156988000">
        <ele>427.8</ele>
        <time>2020-10-15T11:26:08Z</time>
      </trkpt>
      <trkpt lat="37.599973000" lon="-4.156866000">
        <ele>426.6</ele>
        <time>2020-10-15T11:26:10Z</time>
      </trkpt>
      <trkpt lat="37.599855000" lon="-4.156755000">
        <ele>425.3</ele>
        <time>2020-10-15T11:26:12Z</time>
      </trkpt>
      <trkpt lat="37.599736000" lon="-4.156650000">
        <ele>423.6</ele>
        <time>2020-10-15T11:26:14Z</time>
      </trkpt>
      <trkpt lat="37.599633000" lon="-4.156564000">
        <ele>421.9</ele>
        <time>2020-10-15T11:26:16Z</time>
      </trkpt>
      <trkpt lat="37.599555000" lon="-4.156499000">
        <ele>419.9</ele>
        <time>2020-10-15T11:26:18Z</time>
      </trkpt>
      <trkpt lat="37.599476000" lon="-4.156433000">
        <ele>417.8</ele>
        <time>2020-10-15T11:26:20Z</time>
      </trkpt>
      <trkpt lat="37.599408000" lon="-4.156378000">
        <ele>415.7</ele>
        <time>2020-10-15T11:26:22Z</time>
      </trkpt>
      <trkpt lat="37.599318000" lon="-4.156321000">
        <ele>413.6</ele>
        <time>2020-10-15T11:26:25Z</time>
      </trkpt>
      <trkpt lat="37.599232000" lon="-4.156265000">
        <ele>411.9</ele>
        <time>2020-10-15T11:26:28Z</time>
      </trkpt>
      <trkpt lat="37.599144000" lon="-4.156210000">
        <ele>410.5</ele>
        <time>2020-10-15T11:26:31Z</time>
      </trkpt>
      <trkpt lat="37.599047000" lon="-4.156153000">
        <ele>409.5</ele>
        <time>2020-10-15T11:26:34Z</time>
      </trkpt>
      <trkpt lat="37.598951000" lon="-4.156093000">
        <ele>408.9</ele>
        <time>2020-10-15T11:26:37Z</time>
      </trkpt>
      <trkpt lat="37.598876000" lon="-4.156049000">
        <ele>408.7</ele>
        <time>2020-10-15T11:27:05Z</time>
      </trkpt>
      <trkpt lat="37.598785000" lon="-4.156012000">
        <ele>409.0</ele>
        <time>2020-10-15T11:27:09Z</time>
      </trkpt>
      <trkpt lat="37.598698000" lon="-4.155968000">
        <ele>409.5</ele>
        <time>2020-10-15T11:27:12Z</time>
      </trkpt>
      <trkpt lat="37.598602000" lon="-4.155920000">
        <ele>410.5</ele>
        <time>2020-10-15T11:27:15Z</time>
      </trkpt>
      <trkpt lat="37.598499000" lon="-4.155869000">
        <ele>411.7</ele>
        <time>2020-10-15T11:27:18Z</time>
      </trkpt>
      <trkpt lat="37.598391000" lon="-4.155830000">
        <ele>413.2</ele>
        <time>2020-10-15T11:27:21Z</time>
      </trkpt>
      <trkpt lat="37.598285000" lon="-4.155804000">
        <ele>414.8</ele>
        <time>2020-10-15T11:27:24Z</time>
      </trkpt>
      <trkpt lat="37.598204000" lon="-4.155780000">
        <ele>416.3</ele>
        <time>2020-10-15T11:27:26Z</time>
      </trkpt>
      <trkpt lat="37.598105000" lon="-4.155756000">
        <ele>417.6</ele>
        <time>2020-10-15T11:27:28Z</time>
      </trkpt>
      <trkpt lat="37.598005000" lon="-4.155736000">
        <ele>418.8</ele>
        <time>2020-10-15T11:27:30Z</time>
      </trkpt>
      <trkpt lat="37.597901000" lon="-4.155706000">
        <ele>419.7</ele>
        <time>2020-10-15T11:27:33Z</time>
      </trkpt>
      <trkpt lat="37.597794000" lon="-4.155690000">
        <ele>420.5</ele>
        <time>2020-10-15T11:27:34Z</time>
      </trkpt>
      <trkpt lat="37.597684000" lon="-4.155676000">
        <ele>421.0</ele>
        <time>2020-10-15T11:27:36Z</time>
      </trkpt>
      <trkpt lat="37.597569000" lon="-4.155666000">
        <ele>421.5</ele>
        <time>2020-10-15T11:27:38Z</time>
      </trkpt>
      <trkpt lat="37.597450000" lon="-4.155654000">
        <ele>421.6</ele>
        <time>2020-10-15T11:27:40Z</time>
      </trkpt>
      <trkpt lat="37.597329000" lon="-4.155649000">
        <ele>421.7</ele>
        <time>2020-10-15T11:27:42Z</time>
      </trkpt>
      <trkpt lat="37.597205000" lon="-4.155645000">
        <ele>421.7</ele>
        <time>2020-10-15T11:27:44Z</time>
      </trkpt>
      <trkpt lat="37.597088000" lon="-4.155656000">
        <ele>421.6</ele>
        <time>2020-10-15T11:27:46Z</time>
      </trkpt>
      <trkpt lat="37.596959000" lon="-4.155659000">
        <ele>421.5</ele>
        <time>2020-10-15T11:27:48Z</time>
      </trkpt>
      <trkpt lat="37.596833000" lon="-4.155677000">
        <ele>421.3</ele>
        <time>2020-10-15T11:27:50Z</time>
      </trkpt>
      <trkpt lat="37.596703000" lon="-4.155692000">
        <ele>421.1</ele>
        <time>2020-10-15T11:27:52Z</time>
      </trkpt>
      <trkpt lat="37.596578000" lon="-4.155718000">
        <ele>420.8</ele>
        <time>2020-10-15T11:27:54Z</time>
      </trkpt>
      <trkpt lat="37.596444000" lon="-4.155746000">
        <ele>420.5</ele>
        <time>2020-10-15T11:27:56Z</time>
      </trkpt>
      <trkpt lat="37.596317000" lon="-4.155775000">
        <ele>419.9</ele>
        <time>2020-10-15T11:27:58Z</time>
      </trkpt>
      <trkpt lat="37.596197000" lon="-4.155805000">
        <ele>419.3</ele>
        <time>2020-10-15T11:28:00Z</time>
      </trkpt>
      <trkpt lat="37.596080000" lon="-4.155842000">
        <ele>418.7</ele>
        <time>2020-10-15T11:28:02Z</time>
      </trkpt>
      <trkpt lat="37.595962000" lon="-4.155886000">
        <ele>418.1</ele>
        <time>2020-10-15T11:28:04Z</time>
      </trkpt>
      <trkpt lat="37.595847000" lon="-4.155931000">
        <ele>417.5</ele>
        <time>2020-10-15T11:28:06Z</time>
      </trkpt>
      <trkpt lat="37.595726000" lon="-4.155980000">
        <ele>416.7</ele>
        <time>2020-10-15T11:28:08Z</time>
      </trkpt>
      <trkpt lat="37.595610000" lon="-4.156032000">
        <ele>416.0</ele>
        <time>2020-10-15T11:28:10Z</time>
      </trkpt>
      <trkpt lat="37.595499000" lon="-4.156098000">
        <ele>415.2</ele>
        <time>2020-10-15T11:28:12Z</time>
      </trkpt>
      <trkpt lat="37.595386000" lon="-4.156164000">
        <ele>414.3</ele>
        <time>2020-10-15T11:28:14Z</time>
      </trkpt>
      <trkpt lat="37.595275000" lon="-4.156228000">
        <ele>413.5</ele>
        <time>2020-10-15T11:28:16Z</time>
      </trkpt>
      <trkpt lat="37.595166000" lon="-4.156297000">
        <ele>412.6</ele>
        <time>2020-10-15T11:28:18Z</time>
      </trkpt>
      <trkpt lat="37.595058000" lon="-4.156379000">
        <ele>412.0</ele>
        <time>2020-10-15T11:28:20Z</time>
      </trkpt>
      <trkpt lat="37.594950000" lon="-4.156463000">
        <ele>411.5</ele>
        <time>2020-10-15T11:28:22Z</time>
      </trkpt>
      <trkpt lat="37.594837000" lon="-4.156553000">
        <ele>411.1</ele>
        <time>2020-10-15T11:28:24Z</time>
      </trkpt>
      <trkpt lat="37.594734000" lon="-4.156630000">
        <ele>410.7</ele>
        <time>2020-10-15T11:28:26Z</time>
      </trkpt>
      <trkpt lat="37.594628000" lon="-4.156723000">
        <ele>410.4</ele>
        <time>2020-10-15T11:28:28Z</time>
      </trkpt>
      <trkpt lat="37.594525000" lon="-4.156809000">
        <ele>410.0</ele>
        <time>2020-10-15T11:28:30Z</time>
      </trkpt>
      <trkpt lat="37.594416000" lon="-4.156894000">
        <ele>409.7</ele>
        <time>2020-10-15T11:28:32Z</time>
      </trkpt>
      <trkpt lat="37.594309000" lon="-4.156990000">
        <ele>409.5</ele>
        <time>2020-10-15T11:28:34Z</time>
      </trkpt>
      <trkpt lat="37.594201000" lon="-4.157083000">
        <ele>409.2</ele>
        <time>2020-10-15T11:28:36Z</time>
      </trkpt>
      <trkpt lat="37.594092000" lon="-4.157174000">
        <ele>408.9</ele>
        <time>2020-10-15T11:28:38Z</time>
      </trkpt>
      <trkpt lat="37.593983000" lon="-4.157258000">
        <ele>408.7</ele>
        <time>2020-10-15T11:28:40Z</time>
      </trkpt>
      <trkpt lat="37.593876000" lon="-4.157354000">
        <ele>408.6</ele>
        <time>2020-10-15T11:28:42Z</time>
      </trkpt>
      <trkpt lat="37.593767000" lon="-4.157441000">
        <ele>408.5</ele>
        <time>2020-10-15T11:28:44Z</time>
      </trkpt>
      <trkpt lat="37.593663000" lon="-4.157523000">
        <ele>408.4</ele>
        <time>2020-10-15T11:28:46Z</time>
      </trkpt>
      <trkpt lat="37.593562000" lon="-4.157604000">
        <ele>408.4</ele>
        <time>2020-10-15T11:28:48Z</time>
      </trkpt>
      <trkpt lat="37.593462000" lon="-4.157681000">
        <ele>408.4</ele>
        <time>2020-10-15T11:28:50Z</time>
      </trkpt>
      <trkpt lat="37.593355000" lon="-4.157771000">
        <ele>408.5</ele>
        <time>2020-10-15T11:28:52Z</time>
      </trkpt>
      <trkpt lat="37.593257000" lon="-4.157850000">
        <ele>408.7</ele>
        <time>2020-10-15T11:28:54Z</time>
      </trkpt>
      <trkpt lat="37.593165000" lon="-4.157939000">
        <ele>409.0</ele>
        <time>2020-10-15T11:28:56Z</time>
      </trkpt>
      <trkpt lat="37.593071000" lon="-4.158025000">
        <ele>409.5</ele>
        <time>2020-10-15T11:28:58Z</time>
      </trkpt>
      <trkpt lat="37.592981000" lon="-4.158114000">
        <ele>410.0</ele>
        <time>2020-10-15T11:29:00Z</time>
      </trkpt>
      <trkpt lat="37.592901000" lon="-4.158209000">
        <ele>410.5</ele>
        <time>2020-10-15T11:29:02Z</time>
      </trkpt>
      <trkpt lat="37.592827000" lon="-4.158300000">
        <ele>411.0</ele>
        <time>2020-10-15T11:29:04Z</time>
      </trkpt>
      <trkpt lat="37.592759000" lon="-4.158393000">
        <ele>411.5</ele>
        <time>2020-10-15T11:29:06Z</time>
      </trkpt>
      <trkpt lat="37.592693000" lon="-4.158491000">
        <ele>411.9</ele>
        <time>2020-10-15T11:29:08Z</time>
      </trkpt>
      <trkpt lat="37.592632000" lon="-4.158593000">
        <ele>412.1</ele>
        <time>2020-10-15T11:29:10Z</time>
      </trkpt>
      <trkpt lat="37.592569000" lon="-4.158701000">
        <ele>412.2</ele>
        <time>2020-10-15T11:29:12Z</time>
      </trkpt>
      <trkpt lat="37.592503000" lon="-4.158817000">
        <ele>412.1</ele>
        <time>2020-10-15T11:29:14Z</time>
      </trkpt>
      <trkpt lat="37.592443000" lon="-4.158933000">
        <ele>411.9</ele>
        <time>2020-10-15T11:29:16Z</time>
      </trkpt>
      <trkpt lat="37.592386000" lon="-4.159046000">
        <ele>411.5</ele>
        <time>2020-10-15T11:29:18Z</time>
      </trkpt>
      <trkpt lat="37.592338000" lon="-4.159165000">
        <ele>410.9</ele>
        <time>2020-10-15T11:29:20Z</time>
      </trkpt>
      <trkpt lat="37.592294000" lon="-4.159278000">
        <ele>410.1</ele>
        <time>2020-10-15T11:29:22Z</time>
      </trkpt>
      <trkpt lat="37.592258000" lon="-4.159413000">
        <ele>409.2</ele>
        <time>2020-10-15T11:29:24Z</time>
      </trkpt>
      <trkpt lat="37.592220000" lon="-4.159546000">
        <ele>408.4</ele>
        <time>2020-10-15T11:29:26Z</time>
      </trkpt>
      <trkpt lat="37.592185000" lon="-4.159685000">
        <ele>407.5</ele>
        <time>2020-10-15T11:29:28Z</time>
      </trkpt>
      <trkpt lat="37.592159000" lon="-4.159833000">
        <ele>406.7</ele>
        <time>2020-10-15T11:29:30Z</time>
      </trkpt>
      <trkpt lat="37.592136000" lon="-4.159969000">
        <ele>406.3</ele>
        <time>2020-10-15T11:29:32Z</time>
      </trkpt>
      <trkpt lat="37.592125000" lon="-4.160112000">
        <ele>406.1</ele>
        <time>2020-10-15T11:29:34Z</time>
      </trkpt>
      <trkpt lat="37.592118000" lon="-4.160255000">
        <ele>406.0</ele>
        <time>2020-10-15T11:29:36Z</time>
      </trkpt>
      <trkpt lat="37.592107000" lon="-4.160407000">
        <ele>406.0</ele>
        <time>2020-10-15T11:29:38Z</time>
      </trkpt>
      <trkpt lat="37.592101000" lon="-4.160556000">
        <ele>406.1</ele>
        <time>2020-10-15T11:29:40Z</time>
      </trkpt>
      <trkpt lat="37.592103000" lon="-4.160702000">
        <ele>406.4</ele>
        <time>2020-10-15T11:29:42Z</time>
      </trkpt>
      <trkpt lat="37.592108000" lon="-4.160856000">
        <ele>406.6</ele>
        <time>2020-10-15T11:29:44Z</time>
      </trkpt>
      <trkpt lat="37.592119000" lon="-4.161011000">
        <ele>407.0</ele>
        <time>2020-10-15T11:29:46Z</time>
      </trkpt>
      <trkpt lat="37.592130000" lon="-4.161166000">
        <ele>407.2</ele>
        <time>2020-10-15T11:29:48Z</time>
      </trkpt>
      <trkpt lat="37.592150000" lon="-4.161312000">
        <ele>407.3</ele>
        <time>2020-10-15T11:29:50Z</time>
      </trkpt>
      <trkpt lat="37.592173000" lon="-4.161455000">
        <ele>407.2</ele>
        <time>2020-10-15T11:29:52Z</time>
      </trkpt>
      <trkpt lat="37.592202000" lon="-4.161595000">
        <ele>406.8</ele>
        <time>2020-10-15T11:29:54Z</time>
      </trkpt>
      <trkpt lat="37.592231000" lon="-4.161731000">
        <ele>406.3</ele>
        <time>2020-10-15T11:29:56Z</time>
      </trkpt>
      <trkpt lat="37.592252000" lon="-4.161857000">
        <ele>405.7</ele>
        <time>2020-10-15T11:29:58Z</time>
      </trkpt>
      <trkpt lat="37.592270000" lon="-4.161967000">
        <ele>405.2</ele>
        <time>2020-10-15T11:30:00Z</time>
      </trkpt>
      <trkpt lat="37.592284000" lon="-4.162085000">
        <ele>404.8</ele>
        <time>2020-10-15T11:30:03Z</time>
      </trkpt>
      <trkpt lat="37.592315000" lon="-4.162188000">
        <ele>404.5</ele>
        <time>2020-10-15T11:30:32Z</time>
      </trkpt>
      <trkpt lat="37.592348000" lon="-4.162309000">
        <ele>404.1</ele>
        <time>2020-10-15T11:30:37Z</time>
      </trkpt>
      <trkpt lat="37.592377000" lon="-4.162439000">
        <ele>403.7</ele>
        <time>2020-10-15T11:30:40Z</time>
      </trkpt>
      <trkpt lat="37.592389000" lon="-4.162551000">
        <ele>403.5</ele>
        <time>2020-10-15T11:30:42Z</time>
      </trkpt>
      <trkpt lat="37.592415000" lon="-4.162677000">
        <ele>403.3</ele>
        <time>2020-10-15T11:30:44Z</time>
      </trkpt>
      <trkpt lat="37.592436000" lon="-4.162808000">
        <ele>403.1</ele>
        <time>2020-10-15T11:30:46Z</time>
      </trkpt>
      <trkpt lat="37.592463000" lon="-4.162943000">
        <ele>402.9</ele>
        <time>2020-10-15T11:30:48Z</time>
      </trkpt>
      <trkpt lat="37.592487000" lon="-4.163083000">
        <ele>402.6</ele>
        <time>2020-10-15T11:30:50Z</time>
      </trkpt>
      <trkpt lat="37.592508000" lon="-4.163224000">
        <ele>402.4</ele>
        <time>2020-10-15T11:30:52Z</time>
      </trkpt>
      <trkpt lat="37.592522000" lon="-4.163368000">
        <ele>402.2</ele>
        <time>2020-10-15T11:30:54Z</time>
      </trkpt>
      <trkpt lat="37.592533000" lon="-4.163512000">
        <ele>401.9</ele>
        <time>2020-10-15T11:30:56Z</time>
      </trkpt>
      <trkpt lat="37.592535000" lon="-4.163660000">
        <ele>401.7</ele>
        <time>2020-10-15T11:30:58Z</time>
      </trkpt>
      <trkpt lat="37.592530000" lon="-4.163816000">
        <ele>401.7</ele>
        <time>2020-10-15T11:31:00Z</time>
      </trkpt>
      <trkpt lat="37.592521000" lon="-4.163973000">
        <ele>401.7</ele>
        <time>2020-10-15T11:31:02Z</time>
      </trkpt>
      <trkpt lat="37.592511000" lon="-4.164122000">
        <ele>401.8</ele>
        <time>2020-10-15T11:31:04Z</time>
      </trkpt>
      <trkpt lat="37.592502000" lon="-4.164277000">
        <ele>401.9</ele>
        <time>2020-10-15T11:31:06Z</time>
      </trkpt>
      <trkpt lat="37.592475000" lon="-4.164423000">
        <ele>402.2</ele>
        <time>2020-10-15T11:31:08Z</time>
      </trkpt>
      <trkpt lat="37.592440000" lon="-4.164574000">
        <ele>402.5</ele>
        <time>2020-10-15T11:31:10Z</time>
      </trkpt>
      <trkpt lat="37.592408000" lon="-4.164726000">
        <ele>403.1</ele>
        <time>2020-10-15T11:31:12Z</time>
      </trkpt>
      <trkpt lat="37.592366000" lon="-4.164879000">
        <ele>403.6</ele>
        <time>2020-10-15T11:31:14Z</time>
      </trkpt>
      <trkpt lat="37.592314000" lon="-4.165027000">
        <ele>404.0</ele>
        <time>2020-10-15T11:31:16Z</time>
      </trkpt>
      <trkpt lat="37.592263000" lon="-4.165176000">
        <ele>404.4</ele>
        <time>2020-10-15T11:31:18Z</time>
      </trkpt>
      <trkpt lat="37.592218000" lon="-4.165320000">
        <ele>404.7</ele>
        <time>2020-10-15T11:31:20Z</time>
      </trkpt>
      <trkpt lat="37.592157000" lon="-4.165458000">
        <ele>404.9</ele>
        <time>2020-10-15T11:31:22Z</time>
      </trkpt>
      <trkpt lat="37.592093000" lon="-4.165588000">
        <ele>405.0</ele>
        <time>2020-10-15T11:31:24Z</time>
      </trkpt>
      <trkpt lat="37.592016000" lon="-4.165721000">
        <ele>405.1</ele>
        <time>2020-10-15T11:31:26Z</time>
      </trkpt>
      <trkpt lat="37.591930000" lon="-4.165850000">
        <ele>405.2</ele>
        <time>2020-10-15T11:31:28Z</time>
      </trkpt>
      <trkpt lat="37.591830000" lon="-4.165977000">
        <ele>405.2</ele>
        <time>2020-10-15T11:31:30Z</time>
      </trkpt>
      <trkpt lat="37.591753000" lon="-4.166094000">
        <ele>405.1</ele>
        <time>2020-10-15T11:31:32Z</time>
      </trkpt>
      <trkpt lat="37.591665000" lon="-4.166205000">
        <ele>404.9</ele>
        <time>2020-10-15T11:31:34Z</time>
      </trkpt>
      <trkpt lat="37.591572000" lon="-4.166307000">
        <ele>404.5</ele>
        <time>2020-10-15T11:31:36Z</time>
      </trkpt>
      <trkpt lat="37.591483000" lon="-4.166407000">
        <ele>404.2</ele>
        <time>2020-10-15T11:31:38Z</time>
      </trkpt>
      <trkpt lat="37.591393000" lon="-4.166501000">
        <ele>403.6</ele>
        <time>2020-10-15T11:31:40Z</time>
      </trkpt>
      <trkpt lat="37.591283000" lon="-4.166595000">
        <ele>402.9</ele>
        <time>2020-10-15T11:31:42Z</time>
      </trkpt>
      <trkpt lat="37.591177000" lon="-4.166679000">
        <ele>402.2</ele>
        <time>2020-10-15T11:31:44Z</time>
      </trkpt>
      <trkpt lat="37.591080000" lon="-4.166751000">
        <ele>401.5</ele>
        <time>2020-10-15T11:31:46Z</time>
      </trkpt>
      <trkpt lat="37.590991000" lon="-4.166821000">
        <ele>400.7</ele>
        <time>2020-10-15T11:31:48Z</time>
      </trkpt>
      <trkpt lat="37.590904000" lon="-4.166883000">
        <ele>399.9</ele>
        <time>2020-10-15T11:31:50Z</time>
      </trkpt>
      <trkpt lat="37.590813000" lon="-4.166939000">
        <ele>399.1</ele>
        <time>2020-10-15T11:31:52Z</time>
      </trkpt>
      <trkpt lat="37.590725000" lon="-4.166995000">
        <ele>398.3</ele>
        <time>2020-10-15T11:31:54Z</time>
      </trkpt>
      <trkpt lat="37.590632000" lon="-4.167048000">
        <ele>397.5</ele>
        <time>2020-10-15T11:31:56Z</time>
      </trkpt>
      <trkpt lat="37.590542000" lon="-4.167104000">
        <ele>396.7</ele>
        <time>2020-10-15T11:31:58Z</time>
      </trkpt>
      <trkpt lat="37.590447000" lon="-4.167164000">
        <ele>396.1</ele>
        <time>2020-10-15T11:32:00Z</time>
      </trkpt>
      <trkpt lat="37.590349000" lon="-4.167215000">
        <ele>395.6</ele>
        <time>2020-10-15T11:32:02Z</time>
      </trkpt>
      <trkpt lat="37.590252000" lon="-4.167278000">
        <ele>395.4</ele>
        <time>2020-10-15T11:32:04Z</time>
      </trkpt>
      <trkpt lat="37.590152000" lon="-4.167351000">
        <ele>395.4</ele>
        <time>2020-10-15T11:32:06Z</time>
      </trkpt>
      <trkpt lat="37.590046000" lon="-4.167426000">
        <ele>395.5</ele>
        <time>2020-10-15T11:32:08Z</time>
      </trkpt>
      <trkpt lat="37.589941000" lon="-4.167494000">
        <ele>395.6</ele>
        <time>2020-10-15T11:32:10Z</time>
      </trkpt>
      <trkpt lat="37.589831000" lon="-4.167564000">
        <ele>395.7</ele>
        <time>2020-10-15T11:32:12Z</time>
      </trkpt>
      <trkpt lat="37.589716000" lon="-4.167633000">
        <ele>395.7</ele>
        <time>2020-10-15T11:32:14Z</time>
      </trkpt>
      <trkpt lat="37.589604000" lon="-4.167710000">
        <ele>395.6</ele>
        <time>2020-10-15T11:32:16Z</time>
      </trkpt>
      <trkpt lat="37.589491000" lon="-4.167783000">
        <ele>395.5</ele>
        <time>2020-10-15T11:32:18Z</time>
      </trkpt>
      <trkpt lat="37.589378000" lon="-4.167855000">
        <ele>395.2</ele>
        <time>2020-10-15T11:32:20Z</time>
      </trkpt>
      <trkpt lat="37.589267000" lon="-4.167925000">
        <ele>394.8</ele>
        <time>2020-10-15T11:32:22Z</time>
      </trkpt>
      <trkpt lat="37.589162000" lon="-4.168007000">
        <ele>394.5</ele>
        <time>2020-10-15T11:32:24Z</time>
      </trkpt>
      <trkpt lat="37.589052000" lon="-4.168085000">
        <ele>393.9</ele>
        <time>2020-10-15T11:32:26Z</time>
      </trkpt>
      <trkpt lat="37.588944000" lon="-4.168162000">
        <ele>393.1</ele>
        <time>2020-10-15T11:32:28Z</time>
      </trkpt>
      <trkpt lat="37.588838000" lon="-4.168255000">
        <ele>392.0</ele>
        <time>2020-10-15T11:32:30Z</time>
      </trkpt>
      <trkpt lat="37.588741000" lon="-4.168348000">
        <ele>390.8</ele>
        <time>2020-10-15T11:32:32Z</time>
      </trkpt>
      <trkpt lat="37.588652000" lon="-4.168438000">
        <ele>389.5</ele>
        <time>2020-10-15T11:32:34Z</time>
      </trkpt>
      <trkpt lat="37.588570000" lon="-4.168526000">
        <ele>388.1</ele>
        <time>2020-10-15T11:32:36Z</time>
      </trkpt>
      <trkpt lat="37.588498000" lon="-4.168605000">
        <ele>386.6</ele>
        <time>2020-10-15T11:32:38Z</time>
      </trkpt>
      <trkpt lat="37.588434000" lon="-4.168692000">
        <ele>385.0</ele>
        <time>2020-10-15T11:32:42Z</time>
      </trkpt>
      <trkpt lat="37.588367000" lon="-4.168784000">
        <ele>383.5</ele>
        <time>2020-10-15T11:33:10Z</time>
      </trkpt>
      <trkpt lat="37.588307000" lon="-4.168884000">
        <ele>381.8</ele>
        <time>2020-10-15T11:33:14Z</time>
      </trkpt>
      <trkpt lat="37.588244000" lon="-4.168964000">
        <ele>380.2</ele>
        <time>2020-10-15T11:33:17Z</time>
      </trkpt>
      <trkpt lat="37.588166000" lon="-4.169053000">
        <ele>378.6</ele>
        <time>2020-10-15T11:33:20Z</time>
      </trkpt>
      <trkpt lat="37.588079000" lon="-4.169152000">
        <ele>377.2</ele>
        <time>2020-10-15T11:33:23Z</time>
      </trkpt>
      <trkpt lat="37.588017000" lon="-4.169228000">
        <ele>375.9</ele>
        <time>2020-10-15T11:33:25Z</time>
      </trkpt>
      <trkpt lat="37.587954000" lon="-4.169302000">
        <ele>374.8</ele>
        <time>2020-10-15T11:33:27Z</time>
      </trkpt>
      <trkpt lat="37.587893000" lon="-4.169375000">
        <ele>374.0</ele>
        <time>2020-10-15T11:33:29Z</time>
      </trkpt>
      <trkpt lat="37.587821000" lon="-4.169439000">
        <ele>373.5</ele>
        <time>2020-10-15T11:33:31Z</time>
      </trkpt>
      <trkpt lat="37.587755000" lon="-4.169511000">
        <ele>373.2</ele>
        <time>2020-10-15T11:33:33Z</time>
      </trkpt>
      <trkpt lat="37.587688000" lon="-4.169590000">
        <ele>373.5</ele>
        <time>2020-10-15T11:33:35Z</time>
      </trkpt>
      <trkpt lat="37.587623000" lon="-4.169674000">
        <ele>374.1</ele>
        <time>2020-10-15T11:33:37Z</time>
      </trkpt>
      <trkpt lat="37.587552000" lon="-4.169757000">
        <ele>375.2</ele>
        <time>2020-10-15T11:33:39Z</time>
      </trkpt>
      <trkpt lat="37.587484000" lon="-4.169838000">
        <ele>376.5</ele>
        <time>2020-10-15T11:33:41Z</time>
      </trkpt>
      <trkpt lat="37.587415000" lon="-4.169925000">
        <ele>377.8</ele>
        <time>2020-10-15T11:33:43Z</time>
      </trkpt>
      <trkpt lat="37.587344000" lon="-4.170001000">
        <ele>379.4</ele>
        <time>2020-10-15T11:33:45Z</time>
      </trkpt>
      <trkpt lat="37.587278000" lon="-4.170086000">
        <ele>381.1</ele>
        <time>2020-10-15T11:33:47Z</time>
      </trkpt>
      <trkpt lat="37.587214000" lon="-4.170172000">
        <ele>382.7</ele>
        <time>2020-10-15T11:33:49Z</time>
      </trkpt>
      <trkpt lat="37.587149000" lon="-4.170244000">
        <ele>384.4</ele>
        <time>2020-10-15T11:33:51Z</time>
      </trkpt>
      <trkpt lat="37.587090000" lon="-4.170317000">
        <ele>386.0</ele>
        <time>2020-10-15T11:33:53Z</time>
      </trkpt>
      <trkpt lat="37.587012000" lon="-4.170414000">
        <ele>387.5</ele>
        <time>2020-10-15T11:33:56Z</time>
      </trkpt>
      <trkpt lat="37.586947000" lon="-4.170492000">
        <ele>388.8</ele>
        <time>2020-10-15T11:33:59Z</time>
      </trkpt>
      <trkpt lat="37.586866000" lon="-4.170581000">
        <ele>389.9</ele>
        <time>2020-10-15T11:34:04Z</time>
      </trkpt>
      <trkpt lat="37.586798000" lon="-4.170656000">
        <ele>390.7</ele>
        <time>2020-10-15T11:34:07Z</time>
      </trkpt>
      <trkpt lat="37.586743000" lon="-4.170747000">
        <ele>391.5</ele>
        <time>2020-10-15T11:34:10Z</time>
      </trkpt>
      <trkpt lat="37.586681000" lon="-4.170837000">
        <ele>392.2</ele>
        <time>2020-10-15T11:34:13Z</time>
      </trkpt>
      <trkpt lat="37.586623000" lon="-4.170914000">
        <ele>392.7</ele>
        <time>2020-10-15T11:34:16Z</time>
      </trkpt>
      <trkpt lat="37.586550000" lon="-4.171016000">
        <ele>393.0</ele>
        <time>2020-10-15T11:34:20Z</time>
      </trkpt>
      <trkpt lat="37.586499000" lon="-4.171114000">
        <ele>393.4</ele>
        <time>2020-10-15T11:34:23Z</time>
      </trkpt>
      <trkpt lat="37.586433000" lon="-4.171223000">
        <ele>393.7</ele>
        <time>2020-10-15T11:34:27Z</time>
      </trkpt>
      <trkpt lat="37.586391000" lon="-4.171332000">
        <ele>394.2</ele>
        <time>2020-10-15T11:34:31Z</time>
      </trkpt>
      <trkpt lat="37.586424000" lon="-4.171430000">
        <ele>394.7</ele>
        <time>2020-10-15T11:35:01Z</time>
      </trkpt>
      <trkpt lat="37.586502000" lon="-4.171474000">
        <ele>395.3</ele>
        <time>2020-10-15T11:35:10Z</time>
      </trkpt>
      <trkpt lat="37.586421000" lon="-4.171442000">
        <ele>395.8</ele>
        <time>2020-10-15T11:38:28Z</time>
      </trkpt>
      <trkpt lat="37.586339000" lon="-4.171437000">
        <ele>396.4</ele>
        <time>2020-10-15T11:38:46Z</time>
      </trkpt>
      <trkpt lat="37.586281000" lon="-4.171511000">
        <ele>397.0</ele>
        <time>2020-10-15T11:38:52Z</time>
      </trkpt>
      <trkpt lat="37.586229000" lon="-4.171628000">
        <ele>397.6</ele>
        <time>2020-10-15T11:38:56Z</time>
      </trkpt>
      <trkpt lat="37.586185000" lon="-4.171743000">
        <ele>398.4</ele>
        <time>2020-10-15T11:38:59Z</time>
      </trkpt>
      <trkpt lat="37.586143000" lon="-4.171875000">
        <ele>399.2</ele>
        <time>2020-10-15T11:39:02Z</time>
      </trkpt>
      <trkpt lat="37.586118000" lon="-4.172022000">
        <ele>400.0</ele>
        <time>2020-10-15T11:39:05Z</time>
      </trkpt>
      <trkpt lat="37.586090000" lon="-4.172165000">
        <ele>400.7</ele>
        <time>2020-10-15T11:39:08Z</time>
      </trkpt>
      <trkpt lat="37.586066000" lon="-4.172310000">
        <ele>401.5</ele>
        <time>2020-10-15T11:39:11Z</time>
      </trkpt>
      <trkpt lat="37.586044000" lon="-4.172458000">
        <ele>402.2</ele>
        <time>2020-10-15T11:39:14Z</time>
      </trkpt>
      <trkpt lat="37.586030000" lon="-4.172559000">
        <ele>402.9</ele>
        <time>2020-10-15T11:39:16Z</time>
      </trkpt>
      <trkpt lat="37.586013000" lon="-4.172659000">
        <ele>403.5</ele>
        <time>2020-10-15T11:39:18Z</time>
      </trkpt>
      <trkpt lat="37.585997000" lon="-4.172761000">
        <ele>404.2</ele>
        <time>2020-10-15T11:39:20Z</time>
      </trkpt>
      <trkpt lat="37.585981000" lon="-4.172907000">
        <ele>404.6</ele>
        <time>2020-10-15T11:39:23Z</time>
      </trkpt>
      <trkpt lat="37.585961000" lon="-4.173043000">
        <ele>404.8</ele>
        <time>2020-10-15T11:39:26Z</time>
      </trkpt>
      <trkpt lat="37.585943000" lon="-4.173180000">
        <ele>404.7</ele>
        <time>2020-10-15T11:39:29Z</time>
      </trkpt>
      <trkpt lat="37.585918000" lon="-4.173314000">
        <ele>404.5</ele>
        <time>2020-10-15T11:39:32Z</time>
      </trkpt>
      <trkpt lat="37.585892000" lon="-4.173448000">
        <ele>404.2</ele>
        <time>2020-10-15T11:39:35Z</time>
      </trkpt>
      <trkpt lat="37.585863000" lon="-4.173585000">
        <ele>403.7</ele>
        <time>2020-10-15T11:39:38Z</time>
      </trkpt>
      <trkpt lat="37.585837000" lon="-4.173716000">
        <ele>403.1</ele>
        <time>2020-10-15T11:39:41Z</time>
      </trkpt>
      <trkpt lat="37.585812000" lon="-4.173841000">
        <ele>402.4</ele>
        <time>2020-10-15T11:39:44Z</time>
      </trkpt>
      <trkpt lat="37.585778000" lon="-4.173971000">
        <ele>401.7</ele>
        <time>2020-10-15T11:39:47Z</time>
      </trkpt>
      <trkpt lat="37.585746000" lon="-4.174105000">
        <ele>401.3</ele>
        <time>2020-10-15T11:39:50Z</time>
      </trkpt>
      <trkpt lat="37.585703000" lon="-4.174250000">
        <ele>400.8</ele>
        <time>2020-10-15T11:39:53Z</time>
      </trkpt>
      <trkpt lat="37.585672000" lon="-4.174352000">
        <ele>400.4</ele>
        <time>2020-10-15T11:39:55Z</time>
      </trkpt>
      <trkpt lat="37.585636000" lon="-4.174452000">
        <ele>400.1</ele>
        <time>2020-10-15T11:39:57Z</time>
      </trkpt>
      <trkpt lat="37.585599000" lon="-4.174549000">
        <ele>400.0</ele>
        <time>2020-10-15T11:39:59Z</time>
      </trkpt>
      <trkpt lat="37.585560000" lon="-4.174645000">
        <ele>399.9</ele>
        <time>2020-10-15T11:40:01Z</time>
      </trkpt>
      <trkpt lat="37.585521000" lon="-4.174739000">
        <ele>399.9</ele>
        <time>2020-10-15T11:40:03Z</time>
      </trkpt>
      <trkpt lat="37.585460000" lon="-4.174865000">
        <ele>400.1</ele>
        <time>2020-10-15T11:40:06Z</time>
      </trkpt>
      <trkpt lat="37.585397000" lon="-4.174998000">
        <ele>400.4</ele>
        <time>2020-10-15T11:40:09Z</time>
      </trkpt>
      <trkpt lat="37.585350000" lon="-4.175088000">
        <ele>400.7</ele>
        <time>2020-10-15T11:40:11Z</time>
      </trkpt>
      <trkpt lat="37.585296000" lon="-4.175174000">
        <ele>401.0</ele>
        <time>2020-10-15T11:40:13Z</time>
      </trkpt>
      <trkpt lat="37.585239000" lon="-4.175256000">
        <ele>401.1</ele>
        <time>2020-10-15T11:40:15Z</time>
      </trkpt>
      <trkpt lat="37.585180000" lon="-4.175330000">
        <ele>401.3</ele>
        <time>2020-10-15T11:40:17Z</time>
      </trkpt>
      <trkpt lat="37.585122000" lon="-4.175404000">
        <ele>401.5</ele>
        <time>2020-10-15T11:40:19Z</time>
      </trkpt>
      <trkpt lat="37.585066000" lon="-4.175482000">
        <ele>401.7</ele>
        <time>2020-10-15T11:40:21Z</time>
      </trkpt>
      <trkpt lat="37.584978000" lon="-4.175588000">
        <ele>402.0</ele>
        <time>2020-10-15T11:40:24Z</time>
      </trkpt>
      <trkpt lat="37.584914000" lon="-4.175659000">
        <ele>402.4</ele>
        <time>2020-10-15T11:40:26Z</time>
      </trkpt>
      <trkpt lat="37.584846000" lon="-4.175724000">
        <ele>402.7</ele>
        <time>2020-10-15T11:40:28Z</time>
      </trkpt>
      <trkpt lat="37.584782000" lon="-4.175791000">
        <ele>403.0</ele>
        <time>2020-10-15T11:40:30Z</time>
      </trkpt>
      <trkpt lat="37.584716000" lon="-4.175854000">
        <ele>403.3</ele>
        <time>2020-10-15T11:40:32Z</time>
      </trkpt>
      <trkpt lat="37.584644000" lon="-4.175910000">
        <ele>403.5</ele>
        <time>2020-10-15T11:40:34Z</time>
      </trkpt>
      <trkpt lat="37.584572000" lon="-4.175968000">
        <ele>403.5</ele>
        <time>2020-10-15T11:40:36Z</time>
      </trkpt>
      <trkpt lat="37.584497000" lon="-4.176019000">
        <ele>403.6</ele>
        <time>2020-10-15T11:40:38Z</time>
      </trkpt>
      <trkpt lat="37.584422000" lon="-4.176071000">
        <ele>403.6</ele>
        <time>2020-10-15T11:40:40Z</time>
      </trkpt>
      <trkpt lat="37.584346000" lon="-4.176129000">
        <ele>403.5</ele>
        <time>2020-10-15T11:40:42Z</time>
      </trkpt>
      <trkpt lat="37.584267000" lon="-4.176180000">
        <ele>403.4</ele>
        <time>2020-10-15T11:40:44Z</time>
      </trkpt>
      <trkpt lat="37.584186000" lon="-4.176223000">
        <ele>403.1</ele>
        <time>2020-10-15T11:40:46Z</time>
      </trkpt>
      <trkpt lat="37.584104000" lon="-4.176260000">
        <ele>402.7</ele>
        <time>2020-10-15T11:40:48Z</time>
      </trkpt>
      <trkpt lat="37.584023000" lon="-4.176289000">
        <ele>402.3</ele>
        <time>2020-10-15T11:40:50Z</time>
      </trkpt>
      <trkpt lat="37.583940000" lon="-4.176314000">
        <ele>401.7</ele>
        <time>2020-10-15T11:40:52Z</time>
      </trkpt>
      <trkpt lat="37.583859000" lon="-4.176344000">
        <ele>401.2</ele>
        <time>2020-10-15T11:40:54Z</time>
      </trkpt>
      <trkpt lat="37.583780000" lon="-4.176368000">
        <ele>400.6</ele>
        <time>2020-10-15T11:40:56Z</time>
      </trkpt>
      <trkpt lat="37.583700000" lon="-4.176392000">
        <ele>400.2</ele>
        <time>2020-10-15T11:40:58Z</time>
      </trkpt>
      <trkpt lat="37.583619000" lon="-4.176414000">
        <ele>399.8</ele>
        <time>2020-10-15T11:41:00Z</time>
      </trkpt>
      <trkpt lat="37.583538000" lon="-4.176437000">
        <ele>399.5</ele>
        <time>2020-10-15T11:41:02Z</time>
      </trkpt>
      <trkpt lat="37.583455000" lon="-4.176462000">
        <ele>399.2</ele>
        <time>2020-10-15T11:41:04Z</time>
      </trkpt>
      <trkpt lat="37.583370000" lon="-4.176487000">
        <ele>399.0</ele>
        <time>2020-10-15T11:41:06Z</time>
      </trkpt>
      <trkpt lat="37.583286000" lon="-4.176505000">
        <ele>398.9</ele>
        <time>2020-10-15T11:41:08Z</time>
      </trkpt>
      <trkpt lat="37.583201000" lon="-4.176522000">
        <ele>399.0</ele>
        <time>2020-10-15T11:41:10Z</time>
      </trkpt>
      <trkpt lat="37.583116000" lon="-4.176538000">
        <ele>399.2</ele>
        <time>2020-10-15T11:41:12Z</time>
      </trkpt>
      <trkpt lat="37.583031000" lon="-4.176560000">
        <ele>399.5</ele>
        <time>2020-10-15T11:41:14Z</time>
      </trkpt>
      <trkpt lat="37.582943000" lon="-4.176577000">
        <ele>400.0</ele>
        <time>2020-10-15T11:41:16Z</time>
      </trkpt>
      <trkpt lat="37.582855000" lon="-4.176595000">
        <ele>400.5</ele>
        <time>2020-10-15T11:41:18Z</time>
      </trkpt>
      <trkpt lat="37.582771000" lon="-4.176617000">
        <ele>400.9</ele>
        <time>2020-10-15T11:41:20Z</time>
      </trkpt>
      <trkpt lat="37.582688000" lon="-4.176635000">
        <ele>401.3</ele>
        <time>2020-10-15T11:41:22Z</time>
      </trkpt>
      <trkpt lat="37.582604000" lon="-4.176646000">
        <ele>401.6</ele>
        <time>2020-10-15T11:41:24Z</time>
      </trkpt>
      <trkpt lat="37.582520000" lon="-4.176662000">
        <ele>402.0</ele>
        <time>2020-10-15T11:41:26Z</time>
      </trkpt>
      <trkpt lat="37.582436000" lon="-4.176682000">
        <ele>402.3</ele>
        <time>2020-10-15T11:41:28Z</time>
      </trkpt>
      <trkpt lat="37.582351000" lon="-4.176703000">
        <ele>402.6</ele>
        <time>2020-10-15T11:41:30Z</time>
      </trkpt>
      <trkpt lat="37.582266000" lon="-4.176726000">
        <ele>402.9</ele>
        <time>2020-10-15T11:41:32Z</time>
      </trkpt>
      <trkpt lat="37.582182000" lon="-4.176743000">
        <ele>403.2</ele>
        <time>2020-10-15T11:41:34Z</time>
      </trkpt>
      <trkpt lat="37.582097000" lon="-4.176765000">
        <ele>403.4</ele>
        <time>2020-10-15T11:41:36Z</time>
      </trkpt>
      <trkpt lat="37.582011000" lon="-4.176787000">
        <ele>403.5</ele>
        <time>2020-10-15T11:41:38Z</time>
      </trkpt>
      <trkpt lat="37.581926000" lon="-4.176813000">
        <ele>403.7</ele>
        <time>2020-10-15T11:41:40Z</time>
      </trkpt>
      <trkpt lat="37.581843000" lon="-4.176841000">
        <ele>404.0</ele>
        <time>2020-10-15T11:41:42Z</time>
      </trkpt>
      <trkpt lat="37.581763000" lon="-4.176871000">
        <ele>404.4</ele>
        <time>2020-10-15T11:41:44Z</time>
      </trkpt>
      <trkpt lat="37.581684000" lon="-4.176904000">
        <ele>404.7</ele>
        <time>2020-10-15T11:41:46Z</time>
      </trkpt>
      <trkpt lat="37.581604000" lon="-4.176932000">
        <ele>405.1</ele>
        <time>2020-10-15T11:41:48Z</time>
      </trkpt>
      <trkpt lat="37.581523000" lon="-4.176969000">
        <ele>405.5</ele>
        <time>2020-10-15T11:41:50Z</time>
      </trkpt>
      <trkpt lat="37.581441000" lon="-4.177010000">
        <ele>405.8</ele>
        <time>2020-10-15T11:41:52Z</time>
      </trkpt>
      <trkpt lat="37.581354000" lon="-4.177048000">
        <ele>406.2</ele>
        <time>2020-10-15T11:41:54Z</time>
      </trkpt>
      <trkpt lat="37.581275000" lon="-4.177091000">
        <ele>406.5</ele>
        <time>2020-10-15T11:41:56Z</time>
      </trkpt>
      <trkpt lat="37.581198000" lon="-4.177135000">
        <ele>406.9</ele>
        <time>2020-10-15T11:41:58Z</time>
      </trkpt>
      <trkpt lat="37.581125000" lon="-4.177185000">
        <ele>407.3</ele>
        <time>2020-10-15T11:42:00Z</time>
      </trkpt>
      <trkpt lat="37.581014000" lon="-4.177257000">
        <ele>407.6</ele>
        <time>2020-10-15T11:42:03Z</time>
      </trkpt>
      <trkpt lat="37.580940000" lon="-4.177307000">
        <ele>408.0</ele>
        <time>2020-10-15T11:42:05Z</time>
      </trkpt>
      <trkpt lat="37.580863000" lon="-4.177356000">
        <ele>408.2</ele>
        <time>2020-10-15T11:42:07Z</time>
      </trkpt>
      <trkpt lat="37.580784000" lon="-4.177411000">
        <ele>408.4</ele>
        <time>2020-10-15T11:42:09Z</time>
      </trkpt>
      <trkpt lat="37.580709000" lon="-4.177470000">
        <ele>408.5</ele>
        <time>2020-10-15T11:42:11Z</time>
      </trkpt>
      <trkpt lat="37.580634000" lon="-4.177527000">
        <ele>408.7</ele>
        <time>2020-10-15T11:42:13Z</time>
      </trkpt>
      <trkpt lat="37.580562000" lon="-4.177586000">
        <ele>408.9</ele>
        <time>2020-10-15T11:42:15Z</time>
      </trkpt>
      <trkpt lat="37.580495000" lon="-4.177651000">
        <ele>409.1</ele>
        <time>2020-10-15T11:42:17Z</time>
      </trkpt>
      <trkpt lat="37.580425000" lon="-4.177712000">
        <ele>409.3</ele>
        <time>2020-10-15T11:42:19Z</time>
      </trkpt>
      <trkpt lat="37.580357000" lon="-4.177773000">
        <ele>409.5</ele>
        <time>2020-10-15T11:42:21Z</time>
      </trkpt>
      <trkpt lat="37.580291000" lon="-4.177837000">
        <ele>409.5</ele>
        <time>2020-10-15T11:42:23Z</time>
      </trkpt>
      <trkpt lat="37.580225000" lon="-4.177900000">
        <ele>409.6</ele>
        <time>2020-10-15T11:42:25Z</time>
      </trkpt>
      <trkpt lat="37.580160000" lon="-4.177969000">
        <ele>409.6</ele>
        <time>2020-10-15T11:42:27Z</time>
      </trkpt>
      <trkpt lat="37.580096000" lon="-4.178041000">
        <ele>409.7</ele>
        <time>2020-10-15T11:42:29Z</time>
      </trkpt>
      <trkpt lat="37.580033000" lon="-4.178115000">
        <ele>409.8</ele>
        <time>2020-10-15T11:42:31Z</time>
      </trkpt>
      <trkpt lat="37.579973000" lon="-4.178188000">
        <ele>409.9</ele>
        <time>2020-10-15T11:42:33Z</time>
      </trkpt>
      <trkpt lat="37.579915000" lon="-4.178262000">
        <ele>410.0</ele>
        <time>2020-10-15T11:42:35Z</time>
      </trkpt>
      <trkpt lat="37.579855000" lon="-4.178337000">
        <ele>410.1</ele>
        <time>2020-10-15T11:42:37Z</time>
      </trkpt>
      <trkpt lat="37.579795000" lon="-4.178413000">
        <ele>410.2</ele>
        <time>2020-10-15T11:42:39Z</time>
      </trkpt>
      <trkpt lat="37.579735000" lon="-4.178488000">
        <ele>410.3</ele>
        <time>2020-10-15T11:42:41Z</time>
      </trkpt>
      <trkpt lat="37.579680000" lon="-4.178565000">
        <ele>410.5</ele>
        <time>2020-10-15T11:42:43Z</time>
      </trkpt>
      <trkpt lat="37.579628000" lon="-4.178643000">
        <ele>410.6</ele>
        <time>2020-10-15T11:42:45Z</time>
      </trkpt>
      <trkpt lat="37.579574000" lon="-4.178724000">
        <ele>410.8</ele>
        <time>2020-10-15T11:42:47Z</time>
      </trkpt>
      <trkpt lat="37.579523000" lon="-4.178807000">
        <ele>411.0</ele>
        <time>2020-10-15T11:42:49Z</time>
      </trkpt>
      <trkpt lat="37.579454000" lon="-4.178927000">
        <ele>411.3</ele>
        <time>2020-10-15T11:42:52Z</time>
      </trkpt>
      <trkpt lat="37.579387000" lon="-4.179039000">
        <ele>411.7</ele>
        <time>2020-10-15T11:42:55Z</time>
      </trkpt>
      <trkpt lat="37.579327000" lon="-4.179148000">
        <ele>412.3</ele>
        <time>2020-10-15T11:42:58Z</time>
      </trkpt>
      <trkpt lat="37.579269000" lon="-4.179257000">
        <ele>412.7</ele>
        <time>2020-10-15T11:43:01Z</time>
      </trkpt>
      <trkpt lat="37.579216000" lon="-4.179381000">
        <ele>413.1</ele>
        <time>2020-10-15T11:43:04Z</time>
      </trkpt>
      <trkpt lat="37.579158000" lon="-4.179495000">
        <ele>413.4</ele>
        <time>2020-10-15T11:43:07Z</time>
      </trkpt>
      <trkpt lat="37.579102000" lon="-4.179613000">
        <ele>413.6</ele>
        <time>2020-10-15T11:43:10Z</time>
      </trkpt>
      <trkpt lat="37.579045000" lon="-4.179739000">
        <ele>413.6</ele>
        <time>2020-10-15T11:43:13Z</time>
      </trkpt>
      <trkpt lat="37.578991000" lon="-4.179865000">
        <ele>413.5</ele>
        <time>2020-10-15T11:43:16Z</time>
      </trkpt>
      <trkpt lat="37.578940000" lon="-4.179990000">
        <ele>413.5</ele>
        <time>2020-10-15T11:43:19Z</time>
      </trkpt>
      <trkpt lat="37.578889000" lon="-4.180116000">
        <ele>413.4</ele>
        <time>2020-10-15T11:43:22Z</time>
      </trkpt>
      <trkpt lat="37.578835000" lon="-4.180247000">
        <ele>413.2</ele>
        <time>2020-10-15T11:43:25Z</time>
      </trkpt>
      <trkpt lat="37.578786000" lon="-4.180386000">
        <ele>412.8</ele>
        <time>2020-10-15T11:43:28Z</time>
      </trkpt>
      <trkpt lat="37.578740000" lon="-4.180526000">
        <ele>412.5</ele>
        <time>2020-10-15T11:43:31Z</time>
      </trkpt>
      <trkpt lat="37.578711000" lon="-4.180625000">
        <ele>412.2</ele>
        <time>2020-10-15T11:43:33Z</time>
      </trkpt>
      <trkpt lat="37.578682000" lon="-4.180729000">
        <ele>412.0</ele>
        <time>2020-10-15T11:43:35Z</time>
      </trkpt>
      <trkpt lat="37.578653000" lon="-4.180832000">
        <ele>411.9</ele>
        <time>2020-10-15T11:43:37Z</time>
      </trkpt>
      <trkpt lat="37.578634000" lon="-4.180934000">
        <ele>411.8</ele>
        <time>2020-10-15T11:43:39Z</time>
      </trkpt>
      <trkpt lat="37.578617000" lon="-4.181036000">
        <ele>412.0</ele>
        <time>2020-10-15T11:43:41Z</time>
      </trkpt>
      <trkpt lat="37.578602000" lon="-4.181140000">
        <ele>412.3</ele>
        <time>2020-10-15T11:43:43Z</time>
      </trkpt>
      <trkpt lat="37.578583000" lon="-4.181291000">
        <ele>412.5</ele>
        <time>2020-10-15T11:43:46Z</time>
      </trkpt>
      <trkpt lat="37.578574000" lon="-4.181395000">
        <ele>412.7</ele>
        <time>2020-10-15T11:43:48Z</time>
      </trkpt>
      <trkpt lat="37.578566000" lon="-4.181500000">
        <ele>412.9</ele>
        <time>2020-10-15T11:43:50Z</time>
      </trkpt>
      <trkpt lat="37.578559000" lon="-4.181643000">
        <ele>413.1</ele>
        <time>2020-10-15T11:43:53Z</time>
      </trkpt>
      <trkpt lat="37.578564000" lon="-4.181787000">
        <ele>413.1</ele>
        <time>2020-10-15T11:43:56Z</time>
      </trkpt>
      <trkpt lat="37.578571000" lon="-4.181932000">
        <ele>413.1</ele>
        <time>2020-10-15T11:43:59Z</time>
      </trkpt>
      <trkpt lat="37.578583000" lon="-4.182076000">
        <ele>413.0</ele>
        <time>2020-10-15T11:44:02Z</time>
      </trkpt>
      <trkpt lat="37.578594000" lon="-4.182178000">
        <ele>412.9</ele>
        <time>2020-10-15T11:44:04Z</time>
      </trkpt>
      <trkpt lat="37.578603000" lon="-4.182297000">
        <ele>412.9</ele>
        <time>2020-10-15T11:44:06Z</time>
      </trkpt>
      <trkpt lat="37.578612000" lon="-4.182425000">
        <ele>412.8</ele>
        <time>2020-10-15T11:44:08Z</time>
      </trkpt>
      <trkpt lat="37.578639000" lon="-4.182552000">
        <ele>412.8</ele>
        <time>2020-10-15T11:44:10Z</time>
      </trkpt>
      <trkpt lat="37.578668000" lon="-4.182668000">
        <ele>412.8</ele>
        <time>2020-10-15T11:44:12Z</time>
      </trkpt>
      <trkpt lat="37.578687000" lon="-4.182776000">
        <ele>413.0</ele>
        <time>2020-10-15T11:44:14Z</time>
      </trkpt>
      <trkpt lat="37.578720000" lon="-4.182910000">
        <ele>413.2</ele>
        <time>2020-10-15T11:44:17Z</time>
      </trkpt>
      <trkpt lat="37.578764000" lon="-4.183047000">
        <ele>413.5</ele>
        <time>2020-10-15T11:44:21Z</time>
      </trkpt>
      <trkpt lat="37.578815000" lon="-4.183178000">
        <ele>413.9</ele>
        <time>2020-10-15T11:44:23Z</time>
      </trkpt>
      <trkpt lat="37.578864000" lon="-4.183307000">
        <ele>414.4</ele>
        <time>2020-10-15T11:44:26Z</time>
      </trkpt>
      <trkpt lat="37.578915000" lon="-4.183430000">
        <ele>414.8</ele>
        <time>2020-10-15T11:44:29Z</time>
      </trkpt>
      <trkpt lat="37.578973000" lon="-4.183546000">
        <ele>415.4</ele>
        <time>2020-10-15T11:44:32Z</time>
      </trkpt>
      <trkpt lat="37.579032000" lon="-4.183652000">
        <ele>415.7</ele>
        <time>2020-10-15T11:44:35Z</time>
      </trkpt>
      <trkpt lat="37.579083000" lon="-4.183759000">
        <ele>416.1</ele>
        <time>2020-10-15T11:44:38Z</time>
      </trkpt>
      <trkpt lat="37.579158000" lon="-4.183868000">
        <ele>416.4</ele>
        <time>2020-10-15T11:44:41Z</time>
      </trkpt>
      <trkpt lat="37.579225000" lon="-4.183964000">
        <ele>416.7</ele>
        <time>2020-10-15T11:44:44Z</time>
      </trkpt>
      <trkpt lat="37.579297000" lon="-4.184063000">
        <ele>417.0</ele>
        <time>2020-10-15T11:44:47Z</time>
      </trkpt>
      <trkpt lat="37.579378000" lon="-4.184154000">
        <ele>417.3</ele>
        <time>2020-10-15T11:44:50Z</time>
      </trkpt>
      <trkpt lat="37.579454000" lon="-4.184239000">
        <ele>417.5</ele>
        <time>2020-10-15T11:44:53Z</time>
      </trkpt>
      <trkpt lat="37.579523000" lon="-4.184324000">
        <ele>417.7</ele>
        <time>2020-10-15T11:44:56Z</time>
      </trkpt>
      <trkpt lat="37.579594000" lon="-4.184396000">
        <ele>418.0</ele>
        <time>2020-10-15T11:44:59Z</time>
      </trkpt>
      <trkpt lat="37.579662000" lon="-4.184467000">
        <ele>418.3</ele>
        <time>2020-10-15T11:45:02Z</time>
      </trkpt>
      <trkpt lat="37.579730000" lon="-4.184534000">
        <ele>418.5</ele>
        <time>2020-10-15T11:45:05Z</time>
      </trkpt>
      <trkpt lat="37.579804000" lon="-4.184588000">
        <ele>418.9</ele>
        <time>2020-10-15T11:45:08Z</time>
      </trkpt>
      <trkpt lat="37.579882000" lon="-4.184644000">
        <ele>419.4</ele>
        <time>2020-10-15T11:45:11Z</time>
      </trkpt>
      <trkpt lat="37.579963000" lon="-4.184700000">
        <ele>419.8</ele>
        <time>2020-10-15T11:45:14Z</time>
      </trkpt>
      <trkpt lat="37.580049000" lon="-4.184753000">
        <ele>420.1</ele>
        <time>2020-10-15T11:45:17Z</time>
      </trkpt>
      <trkpt lat="37.580135000" lon="-4.184805000">
        <ele>420.4</ele>
        <time>2020-10-15T11:45:20Z</time>
      </trkpt>
      <trkpt lat="37.580226000" lon="-4.184850000">
        <ele>420.5</ele>
        <time>2020-10-15T11:45:23Z</time>
      </trkpt>
      <trkpt lat="37.580322000" lon="-4.184902000">
        <ele>420.6</ele>
        <time>2020-10-15T11:45:26Z</time>
      </trkpt>
      <trkpt lat="37.580423000" lon="-4.184954000">
        <ele>420.7</ele>
        <time>2020-10-15T11:45:29Z</time>
      </trkpt>
      <trkpt lat="37.580521000" lon="-4.185007000">
        <ele>420.8</ele>
        <time>2020-10-15T11:45:32Z</time>
      </trkpt>
      <trkpt lat="37.580621000" lon="-4.185059000">
        <ele>420.9</ele>
        <time>2020-10-15T11:45:35Z</time>
      </trkpt>
      <trkpt lat="37.580718000" lon="-4.185110000">
        <ele>420.9</ele>
        <time>2020-10-15T11:45:38Z</time>
      </trkpt>
      <trkpt lat="37.580814000" lon="-4.185164000">
        <ele>420.9</ele>
        <time>2020-10-15T11:45:41Z</time>
      </trkpt>
      <trkpt lat="37.580908000" lon="-4.185211000">
        <ele>420.8</ele>
        <time>2020-10-15T11:45:44Z</time>
      </trkpt>
      <trkpt lat="37.581002000" lon="-4.185256000">
        <ele>420.7</ele>
        <time>2020-10-15T11:45:47Z</time>
      </trkpt>
      <trkpt lat="37.581092000" lon="-4.185302000">
        <ele>420.7</ele>
        <time>2020-10-15T11:45:50Z</time>
      </trkpt>
      <trkpt lat="37.581184000" lon="-4.185348000">
        <ele>420.7</ele>
        <time>2020-10-15T11:45:53Z</time>
      </trkpt>
      <trkpt lat="37.581276000" lon="-4.185398000">
        <ele>420.9</ele>
        <time>2020-10-15T11:45:56Z</time>
      </trkpt>
      <trkpt lat="37.581368000" lon="-4.185453000">
        <ele>421.2</ele>
        <time>2020-10-15T11:45:59Z</time>
      </trkpt>
      <trkpt lat="37.581465000" lon="-4.185512000">
        <ele>421.5</ele>
        <time>2020-10-15T11:46:02Z</time>
      </trkpt>
      <trkpt lat="37.581561000" lon="-4.185577000">
        <ele>421.9</ele>
        <time>2020-10-15T11:46:05Z</time>
      </trkpt>
      <trkpt lat="37.581651000" lon="-4.185645000">
        <ele>422.4</ele>
        <time>2020-10-15T11:46:08Z</time>
      </trkpt>
      <trkpt lat="37.581737000" lon="-4.185716000">
        <ele>422.9</ele>
        <time>2020-10-15T11:46:11Z</time>
      </trkpt>
      <trkpt lat="37.581826000" lon="-4.185788000">
        <ele>423.4</ele>
        <time>2020-10-15T11:46:14Z</time>
      </trkpt>
      <trkpt lat="37.581910000" lon="-4.185869000">
        <ele>423.9</ele>
        <time>2020-10-15T11:46:17Z</time>
      </trkpt>
      <trkpt lat="37.581992000" lon="-4.185951000">
        <ele>424.5</ele>
        <time>2020-10-15T11:46:20Z</time>
      </trkpt>
      <trkpt lat="37.582069000" lon="-4.186035000">
        <ele>424.9</ele>
        <time>2020-10-15T11:46:23Z</time>
      </trkpt>
      <trkpt lat="37.582148000" lon="-4.186132000">
        <ele>425.4</ele>
        <time>2020-10-15T11:46:26Z</time>
      </trkpt>
      <trkpt lat="37.582222000" lon="-4.186234000">
        <ele>425.6</ele>
        <time>2020-10-15T11:46:29Z</time>
      </trkpt>
      <trkpt lat="37.582295000" lon="-4.186337000">
        <ele>425.7</ele>
        <time>2020-10-15T11:46:32Z</time>
      </trkpt>
      <trkpt lat="37.582364000" lon="-4.186448000">
        <ele>425.5</ele>
        <time>2020-10-15T11:46:35Z</time>
      </trkpt>
      <trkpt lat="37.582417000" lon="-4.186567000">
        <ele>425.2</ele>
        <time>2020-10-15T11:46:38Z</time>
      </trkpt>
      <trkpt lat="37.582462000" lon="-4.186695000">
        <ele>424.7</ele>
        <time>2020-10-15T11:46:41Z</time>
      </trkpt>
      <trkpt lat="37.582507000" lon="-4.186830000">
        <ele>424.2</ele>
        <time>2020-10-15T11:46:44Z</time>
      </trkpt>
      <trkpt lat="37.582552000" lon="-4.186964000">
        <ele>423.8</ele>
        <time>2020-10-15T11:46:47Z</time>
      </trkpt>
      <trkpt lat="37.582598000" lon="-4.187101000">
        <ele>423.5</ele>
        <time>2020-10-15T11:46:50Z</time>
      </trkpt>
      <trkpt lat="37.582634000" lon="-4.187241000">
        <ele>423.3</ele>
        <time>2020-10-15T11:46:53Z</time>
      </trkpt>
      <trkpt lat="37.582669000" lon="-4.187378000">
        <ele>423.3</ele>
        <time>2020-10-15T11:46:56Z</time>
      </trkpt>
      <trkpt lat="37.582701000" lon="-4.187510000">
        <ele>423.4</ele>
        <time>2020-10-15T11:46:59Z</time>
      </trkpt>
      <trkpt lat="37.582730000" lon="-4.187645000">
        <ele>423.5</ele>
        <time>2020-10-15T11:47:02Z</time>
      </trkpt>
      <trkpt lat="37.582769000" lon="-4.187784000">
        <ele>423.8</ele>
        <time>2020-10-15T11:47:05Z</time>
      </trkpt>
      <trkpt lat="37.582801000" lon="-4.187924000">
        <ele>424.3</ele>
        <time>2020-10-15T11:47:08Z</time>
      </trkpt>
      <trkpt lat="37.582833000" lon="-4.188058000">
        <ele>424.8</ele>
        <time>2020-10-15T11:47:11Z</time>
      </trkpt>
      <trkpt lat="37.582862000" lon="-4.188194000">
        <ele>425.4</ele>
        <time>2020-10-15T11:47:14Z</time>
      </trkpt>
      <trkpt lat="37.582893000" lon="-4.188331000">
        <ele>426.0</ele>
        <time>2020-10-15T11:47:17Z</time>
      </trkpt>
      <trkpt lat="37.582925000" lon="-4.188462000">
        <ele>426.6</ele>
        <time>2020-10-15T11:47:20Z</time>
      </trkpt>
      <trkpt lat="37.582950000" lon="-4.188592000">
        <ele>427.3</ele>
        <time>2020-10-15T11:47:23Z</time>
      </trkpt>
      <trkpt lat="37.582971000" lon="-4.188725000">
        <ele>427.8</ele>
        <time>2020-10-15T11:47:26Z</time>
      </trkpt>
      <trkpt lat="37.582987000" lon="-4.188855000">
        <ele>428.3</ele>
        <time>2020-10-15T11:47:29Z</time>
      </trkpt>
      <trkpt lat="37.582996000" lon="-4.188984000">
        <ele>428.7</ele>
        <time>2020-10-15T11:47:32Z</time>
      </trkpt>
      <trkpt lat="37.583004000" lon="-4.189115000">
        <ele>429.2</ele>
        <time>2020-10-15T11:47:35Z</time>
      </trkpt>
      <trkpt lat="37.583015000" lon="-4.189240000">
        <ele>429.6</ele>
        <time>2020-10-15T11:47:38Z</time>
      </trkpt>
      <trkpt lat="37.583019000" lon="-4.189372000">
        <ele>430.1</ele>
        <time>2020-10-15T11:47:41Z</time>
      </trkpt>
      <trkpt lat="37.583025000" lon="-4.189502000">
        <ele>430.5</ele>
        <time>2020-10-15T11:47:44Z</time>
      </trkpt>
      <trkpt lat="37.583030000" lon="-4.189635000">
        <ele>431.0</ele>
        <time>2020-10-15T11:47:47Z</time>
      </trkpt>
      <trkpt lat="37.583035000" lon="-4.189768000">
        <ele>431.4</ele>
        <time>2020-10-15T11:47:50Z</time>
      </trkpt>
      <trkpt lat="37.583034000" lon="-4.189896000">
        <ele>431.6</ele>
        <time>2020-10-15T11:47:53Z</time>
      </trkpt>
      <trkpt lat="37.583038000" lon="-4.190029000">
        <ele>431.8</ele>
        <time>2020-10-15T11:47:56Z</time>
      </trkpt>
      <trkpt lat="37.583041000" lon="-4.190167000">
        <ele>431.9</ele>
        <time>2020-10-15T11:47:59Z</time>
      </trkpt>
      <trkpt lat="37.583041000" lon="-4.190309000">
        <ele>432.0</ele>
        <time>2020-10-15T11:48:02Z</time>
      </trkpt>
      <trkpt lat="37.583036000" lon="-4.190449000">
        <ele>432.0</ele>
        <time>2020-10-15T11:48:05Z</time>
      </trkpt>
      <trkpt lat="37.583033000" lon="-4.190589000">
        <ele>432.0</ele>
        <time>2020-10-15T11:48:08Z</time>
      </trkpt>
      <trkpt lat="37.583014000" lon="-4.190736000">
        <ele>432.1</ele>
        <time>2020-10-15T11:48:11Z</time>
      </trkpt>
      <trkpt lat="37.582999000" lon="-4.190877000">
        <ele>432.1</ele>
        <time>2020-10-15T11:48:14Z</time>
      </trkpt>
      <trkpt lat="37.582976000" lon="-4.191012000">
        <ele>432.1</ele>
        <time>2020-10-15T11:48:17Z</time>
      </trkpt>
      <trkpt lat="37.582957000" lon="-4.191114000">
        <ele>432.1</ele>
        <time>2020-10-15T11:48:19Z</time>
      </trkpt>
      <trkpt lat="37.582929000" lon="-4.191244000">
        <ele>432.2</ele>
        <time>2020-10-15T11:48:22Z</time>
      </trkpt>
      <trkpt lat="37.582891000" lon="-4.191378000">
        <ele>432.3</ele>
        <time>2020-10-15T11:48:25Z</time>
      </trkpt>
      <trkpt lat="37.582852000" lon="-4.191514000">
        <ele>432.4</ele>
        <time>2020-10-15T11:48:28Z</time>
      </trkpt>
      <trkpt lat="37.582817000" lon="-4.191648000">
        <ele>432.5</ele>
        <time>2020-10-15T11:48:31Z</time>
      </trkpt>
      <trkpt lat="37.582773000" lon="-4.191786000">
        <ele>432.6</ele>
        <time>2020-10-15T11:48:34Z</time>
      </trkpt>
      <trkpt lat="37.582729000" lon="-4.191926000">
        <ele>432.8</ele>
        <time>2020-10-15T11:48:37Z</time>
      </trkpt>
      <trkpt lat="37.582699000" lon="-4.192024000">
        <ele>433.0</ele>
        <time>2020-10-15T11:48:39Z</time>
      </trkpt>
      <trkpt lat="37.582668000" lon="-4.192121000">
        <ele>433.1</ele>
        <time>2020-10-15T11:48:41Z</time>
      </trkpt>
      <trkpt lat="37.582637000" lon="-4.192217000">
        <ele>433.3</ele>
        <time>2020-10-15T11:48:43Z</time>
      </trkpt>
      <trkpt lat="37.582604000" lon="-4.192315000">
        <ele>433.5</ele>
        <time>2020-10-15T11:48:45Z</time>
      </trkpt>
      <trkpt lat="37.582571000" lon="-4.192409000">
        <ele>433.6</ele>
        <time>2020-10-15T11:48:47Z</time>
      </trkpt>
      <trkpt lat="37.582524000" lon="-4.192539000">
        <ele>433.7</ele>
        <time>2020-10-15T11:48:50Z</time>
      </trkpt>
      <trkpt lat="37.582482000" lon="-4.192675000">
        <ele>433.7</ele>
        <time>2020-10-15T11:48:53Z</time>
      </trkpt>
      <trkpt lat="37.582443000" lon="-4.192818000">
        <ele>433.8</ele>
        <time>2020-10-15T11:48:56Z</time>
      </trkpt>
      <trkpt lat="37.582404000" lon="-4.192957000">
        <ele>433.9</ele>
        <time>2020-10-15T11:48:59Z</time>
      </trkpt>
      <trkpt lat="37.582367000" lon="-4.193089000">
        <ele>434.0</ele>
        <time>2020-10-15T11:49:02Z</time>
      </trkpt>
      <trkpt lat="37.582331000" lon="-4.193214000">
        <ele>434.1</ele>
        <time>2020-10-15T11:49:05Z</time>
      </trkpt>
      <trkpt lat="37.582287000" lon="-4.193343000">
        <ele>434.2</ele>
        <time>2020-10-15T11:49:08Z</time>
      </trkpt>
      <trkpt lat="37.582247000" lon="-4.193475000">
        <ele>434.4</ele>
        <time>2020-10-15T11:49:11Z</time>
      </trkpt>
      <trkpt lat="37.582208000" lon="-4.193606000">
        <ele>434.5</ele>
        <time>2020-10-15T11:49:14Z</time>
      </trkpt>
      <trkpt lat="37.582165000" lon="-4.193730000">
        <ele>434.8</ele>
        <time>2020-10-15T11:49:17Z</time>
      </trkpt>
      <trkpt lat="37.582121000" lon="-4.193855000">
        <ele>435.1</ele>
        <time>2020-10-15T11:49:20Z</time>
      </trkpt>
      <trkpt lat="37.582077000" lon="-4.193989000">
        <ele>435.5</ele>
        <time>2020-10-15T11:49:23Z</time>
      </trkpt>
      <trkpt lat="37.582041000" lon="-4.194131000">
        <ele>436.0</ele>
        <time>2020-10-15T11:49:26Z</time>
      </trkpt>
      <trkpt lat="37.582017000" lon="-4.194229000">
        <ele>436.5</ele>
        <time>2020-10-15T11:49:28Z</time>
      </trkpt>
      <trkpt lat="37.581984000" lon="-4.194376000">
        <ele>436.9</ele>
        <time>2020-10-15T11:49:31Z</time>
      </trkpt>
      <trkpt lat="37.581961000" lon="-4.194477000">
        <ele>437.3</ele>
        <time>2020-10-15T11:49:33Z</time>
      </trkpt>
      <trkpt lat="37.581943000" lon="-4.194581000">
        <ele>437.6</ele>
        <time>2020-10-15T11:49:35Z</time>
      </trkpt>
      <trkpt lat="37.581929000" lon="-4.194685000">
        <ele>438.0</ele>
        <time>2020-10-15T11:49:37Z</time>
      </trkpt>
      <trkpt lat="37.581917000" lon="-4.194790000">
        <ele>438.3</ele>
        <time>2020-10-15T11:49:39Z</time>
      </trkpt>
      <trkpt lat="37.581910000" lon="-4.194896000">
        <ele>438.5</ele>
        <time>2020-10-15T11:49:41Z</time>
      </trkpt>
      <trkpt lat="37.581906000" lon="-4.195004000">
        <ele>438.7</ele>
        <time>2020-10-15T11:49:43Z</time>
      </trkpt>
      <trkpt lat="37.581903000" lon="-4.195115000">
        <ele>438.9</ele>
        <time>2020-10-15T11:49:45Z</time>
      </trkpt>
      <trkpt lat="37.581904000" lon="-4.195226000">
        <ele>438.9</ele>
        <time>2020-10-15T11:49:47Z</time>
      </trkpt>
      <trkpt lat="37.581906000" lon="-4.195340000">
        <ele>438.8</ele>
        <time>2020-10-15T11:49:49Z</time>
      </trkpt>
      <trkpt lat="37.581910000" lon="-4.195451000">
        <ele>438.7</ele>
        <time>2020-10-15T11:49:51Z</time>
      </trkpt>
      <trkpt lat="37.581919000" lon="-4.195571000">
        <ele>438.6</ele>
        <time>2020-10-15T11:49:53Z</time>
      </trkpt>
      <trkpt lat="37.581934000" lon="-4.195692000">
        <ele>438.5</ele>
        <time>2020-10-15T11:49:55Z</time>
      </trkpt>
      <trkpt lat="37.581947000" lon="-4.195806000">
        <ele>438.4</ele>
        <time>2020-10-15T11:49:57Z</time>
      </trkpt>
      <trkpt lat="37.581959000" lon="-4.195919000">
        <ele>438.2</ele>
        <time>2020-10-15T11:49:59Z</time>
      </trkpt>
      <trkpt lat="37.581976000" lon="-4.196035000">
        <ele>438.0</ele>
        <time>2020-10-15T11:50:01Z</time>
      </trkpt>
      <trkpt lat="37.581999000" lon="-4.196151000">
        <ele>437.7</ele>
        <time>2020-10-15T11:50:03Z</time>
      </trkpt>
      <trkpt lat="37.582025000" lon="-4.196256000">
        <ele>437.4</ele>
        <time>2020-10-15T11:50:05Z</time>
      </trkpt>
      <trkpt lat="37.582051000" lon="-4.196369000">
        <ele>436.9</ele>
        <time>2020-10-15T11:50:07Z</time>
      </trkpt>
      <trkpt lat="37.582083000" lon="-4.196479000">
        <ele>436.5</ele>
        <time>2020-10-15T11:50:09Z</time>
      </trkpt>
      <trkpt lat="37.582122000" lon="-4.196588000">
        <ele>436.2</ele>
        <time>2020-10-15T11:50:11Z</time>
      </trkpt>
      <trkpt lat="37.582161000" lon="-4.196707000">
        <ele>435.8</ele>
        <time>2020-10-15T11:50:13Z</time>
      </trkpt>
      <trkpt lat="37.582207000" lon="-4.196819000">
        <ele>435.5</ele>
        <time>2020-10-15T11:50:15Z</time>
      </trkpt>
      <trkpt lat="37.582260000" lon="-4.196931000">
        <ele>435.1</ele>
        <time>2020-10-15T11:50:17Z</time>
      </trkpt>
      <trkpt lat="37.582312000" lon="-4.197048000">
        <ele>434.9</ele>
        <time>2020-10-15T11:50:19Z</time>
      </trkpt>
      <trkpt lat="37.582364000" lon="-4.197164000">
        <ele>434.7</ele>
        <time>2020-10-15T11:50:21Z</time>
      </trkpt>
      <trkpt lat="37.582420000" lon="-4.197281000">
        <ele>434.5</ele>
        <time>2020-10-15T11:50:23Z</time>
      </trkpt>
      <trkpt lat="37.582477000" lon="-4.197402000">
        <ele>434.5</ele>
        <time>2020-10-15T11:50:25Z</time>
      </trkpt>
      <trkpt lat="37.582535000" lon="-4.197527000">
        <ele>434.5</ele>
        <time>2020-10-15T11:50:27Z</time>
      </trkpt>
      <trkpt lat="37.582594000" lon="-4.197649000">
        <ele>434.5</ele>
        <time>2020-10-15T11:50:29Z</time>
      </trkpt>
      <trkpt lat="37.582655000" lon="-4.197762000">
        <ele>434.6</ele>
        <time>2020-10-15T11:50:31Z</time>
      </trkpt>
      <trkpt lat="37.582706000" lon="-4.197885000">
        <ele>434.6</ele>
        <time>2020-10-15T11:50:33Z</time>
      </trkpt>
      <trkpt lat="37.582759000" lon="-4.197998000">
        <ele>434.5</ele>
        <time>2020-10-15T11:50:35Z</time>
      </trkpt>
      <trkpt lat="37.582809000" lon="-4.198109000">
        <ele>434.4</ele>
        <time>2020-10-15T11:50:37Z</time>
      </trkpt>
      <trkpt lat="37.582861000" lon="-4.198216000">
        <ele>434.1</ele>
        <time>2020-10-15T11:50:39Z</time>
      </trkpt>
      <trkpt lat="37.582906000" lon="-4.198335000">
        <ele>433.6</ele>
        <time>2020-10-15T11:50:41Z</time>
      </trkpt>
      <trkpt lat="37.582955000" lon="-4.198455000">
        <ele>433.2</ele>
        <time>2020-10-15T11:50:43Z</time>
      </trkpt>
      <trkpt lat="37.583007000" lon="-4.198571000">
        <ele>432.8</ele>
        <time>2020-10-15T11:50:45Z</time>
      </trkpt>
      <trkpt lat="37.583060000" lon="-4.198690000">
        <ele>432.5</ele>
        <time>2020-10-15T11:50:47Z</time>
      </trkpt>
      <trkpt lat="37.583107000" lon="-4.198812000">
        <ele>432.1</ele>
        <time>2020-10-15T11:50:49Z</time>
      </trkpt>
      <trkpt lat="37.583154000" lon="-4.198940000">
        <ele>431.7</ele>
        <time>2020-10-15T11:50:51Z</time>
      </trkpt>
      <trkpt lat="37.583199000" lon="-4.199065000">
        <ele>431.3</ele>
        <time>2020-10-15T11:50:53Z</time>
      </trkpt>
      <trkpt lat="37.583240000" lon="-4.199193000">
        <ele>430.9</ele>
        <time>2020-10-15T11:50:55Z</time>
      </trkpt>
      <trkpt lat="37.583277000" lon="-4.199325000">
        <ele>430.5</ele>
        <time>2020-10-15T11:50:57Z</time>
      </trkpt>
      <trkpt lat="37.583311000" lon="-4.199455000">
        <ele>430.3</ele>
        <time>2020-10-15T11:50:59Z</time>
      </trkpt>
      <trkpt lat="37.583347000" lon="-4.199587000">
        <ele>430.1</ele>
        <time>2020-10-15T11:51:01Z</time>
      </trkpt>
      <trkpt lat="37.583375000" lon="-4.199720000">
        <ele>430.0</ele>
        <time>2020-10-15T11:51:03Z</time>
      </trkpt>
      <trkpt lat="37.583397000" lon="-4.199855000">
        <ele>429.9</ele>
        <time>2020-10-15T11:51:05Z</time>
      </trkpt>
      <trkpt lat="37.583416000" lon="-4.199990000">
        <ele>429.7</ele>
        <time>2020-10-15T11:51:07Z</time>
      </trkpt>
      <trkpt lat="37.583436000" lon="-4.200125000">
        <ele>429.5</ele>
        <time>2020-10-15T11:51:09Z</time>
      </trkpt>
      <trkpt lat="37.583454000" lon="-4.200258000">
        <ele>429.4</ele>
        <time>2020-10-15T11:51:11Z</time>
      </trkpt>
      <trkpt lat="37.583466000" lon="-4.200394000">
        <ele>429.2</ele>
        <time>2020-10-15T11:51:13Z</time>
      </trkpt>
      <trkpt lat="37.583471000" lon="-4.200523000">
        <ele>429.0</ele>
        <time>2020-10-15T11:51:15Z</time>
      </trkpt>
      <trkpt lat="37.583477000" lon="-4.200657000">
        <ele>428.8</ele>
        <time>2020-10-15T11:51:17Z</time>
      </trkpt>
      <trkpt lat="37.583482000" lon="-4.200785000">
        <ele>428.7</ele>
        <time>2020-10-15T11:51:19Z</time>
      </trkpt>
      <trkpt lat="37.583479000" lon="-4.200925000">
        <ele>428.6</ele>
        <time>2020-10-15T11:51:21Z</time>
      </trkpt>
      <trkpt lat="37.583477000" lon="-4.201066000">
        <ele>428.5</ele>
        <time>2020-10-15T11:51:23Z</time>
      </trkpt>
      <trkpt lat="37.583470000" lon="-4.201198000">
        <ele>428.5</ele>
        <time>2020-10-15T11:51:25Z</time>
      </trkpt>
      <trkpt lat="37.583462000" lon="-4.201332000">
        <ele>428.3</ele>
        <time>2020-10-15T11:51:27Z</time>
      </trkpt>
      <trkpt lat="37.583459000" lon="-4.201466000">
        <ele>428.1</ele>
        <time>2020-10-15T11:51:29Z</time>
      </trkpt>
      <trkpt lat="37.583444000" lon="-4.201606000">
        <ele>427.8</ele>
        <time>2020-10-15T11:51:31Z</time>
      </trkpt>
      <trkpt lat="37.583436000" lon="-4.201754000">
        <ele>427.5</ele>
        <time>2020-10-15T11:51:33Z</time>
      </trkpt>
      <trkpt lat="37.583426000" lon="-4.201893000">
        <ele>427.2</ele>
        <time>2020-10-15T11:51:35Z</time>
      </trkpt>
      <trkpt lat="37.583414000" lon="-4.202028000">
        <ele>426.9</ele>
        <time>2020-10-15T11:51:37Z</time>
      </trkpt>
      <trkpt lat="37.583405000" lon="-4.202160000">
        <ele>426.6</ele>
        <time>2020-10-15T11:51:39Z</time>
      </trkpt>
      <trkpt lat="37.583396000" lon="-4.202281000">
        <ele>426.4</ele>
        <time>2020-10-15T11:51:41Z</time>
      </trkpt>
      <trkpt lat="37.583384000" lon="-4.202402000">
        <ele>426.1</ele>
        <time>2020-10-15T11:51:43Z</time>
      </trkpt>
      <trkpt lat="37.583370000" lon="-4.202517000">
        <ele>425.8</ele>
        <time>2020-10-15T11:51:45Z</time>
      </trkpt>
      <trkpt lat="37.583365000" lon="-4.202633000">
        <ele>425.5</ele>
        <time>2020-10-15T11:51:47Z</time>
      </trkpt>
      <trkpt lat="37.583348000" lon="-4.202739000">
        <ele>425.4</ele>
        <time>2020-10-15T11:51:49Z</time>
      </trkpt>
      <trkpt lat="37.583334000" lon="-4.202852000">
        <ele>425.1</ele>
        <time>2020-10-15T11:51:51Z</time>
      </trkpt>
      <trkpt lat="37.583324000" lon="-4.202976000">
        <ele>424.8</ele>
        <time>2020-10-15T11:51:53Z</time>
      </trkpt>
      <trkpt lat="37.583319000" lon="-4.203106000">
        <ele>424.6</ele>
        <time>2020-10-15T11:51:55Z</time>
      </trkpt>
      <trkpt lat="37.583304000" lon="-4.203244000">
        <ele>424.5</ele>
        <time>2020-10-15T11:51:57Z</time>
      </trkpt>
      <trkpt lat="37.583291000" lon="-4.203376000">
        <ele>424.5</ele>
        <time>2020-10-15T11:51:59Z</time>
      </trkpt>
      <trkpt lat="37.583277000" lon="-4.203512000">
        <ele>424.5</ele>
        <time>2020-10-15T11:52:01Z</time>
      </trkpt>
      <trkpt lat="37.583273000" lon="-4.203644000">
        <ele>424.6</ele>
        <time>2020-10-15T11:52:03Z</time>
      </trkpt>
      <trkpt lat="37.583260000" lon="-4.203766000">
        <ele>424.7</ele>
        <time>2020-10-15T11:52:05Z</time>
      </trkpt>
      <trkpt lat="37.583250000" lon="-4.203883000">
        <ele>424.8</ele>
        <time>2020-10-15T11:52:07Z</time>
      </trkpt>
      <trkpt lat="37.583241000" lon="-4.204004000">
        <ele>424.9</ele>
        <time>2020-10-15T11:52:09Z</time>
      </trkpt>
      <trkpt lat="37.583235000" lon="-4.204144000">
        <ele>425.0</ele>
        <time>2020-10-15T11:52:11Z</time>
      </trkpt>
      <trkpt lat="37.583228000" lon="-4.204285000">
        <ele>425.2</ele>
        <time>2020-10-15T11:52:13Z</time>
      </trkpt>
      <trkpt lat="37.583214000" lon="-4.204436000">
        <ele>425.5</ele>
        <time>2020-10-15T11:52:15Z</time>
      </trkpt>
      <trkpt lat="37.583195000" lon="-4.204575000">
        <ele>425.8</ele>
        <time>2020-10-15T11:52:17Z</time>
      </trkpt>
      <trkpt lat="37.583187000" lon="-4.204710000">
        <ele>426.2</ele>
        <time>2020-10-15T11:52:19Z</time>
      </trkpt>
      <trkpt lat="37.583176000" lon="-4.204832000">
        <ele>426.5</ele>
        <time>2020-10-15T11:52:21Z</time>
      </trkpt>
      <trkpt lat="37.583159000" lon="-4.204950000">
        <ele>426.6</ele>
        <time>2020-10-15T11:52:23Z</time>
      </trkpt>
      <trkpt lat="37.583146000" lon="-4.205057000">
        <ele>426.7</ele>
        <time>2020-10-15T11:52:25Z</time>
      </trkpt>
      <trkpt lat="37.583136000" lon="-4.205174000">
        <ele>426.8</ele>
        <time>2020-10-15T11:52:27Z</time>
      </trkpt>
      <trkpt lat="37.583129000" lon="-4.205293000">
        <ele>426.9</ele>
        <time>2020-10-15T11:52:29Z</time>
      </trkpt>
      <trkpt lat="37.583120000" lon="-4.205407000">
        <ele>427.0</ele>
        <time>2020-10-15T11:52:31Z</time>
      </trkpt>
      <trkpt lat="37.583114000" lon="-4.205527000">
        <ele>427.1</ele>
        <time>2020-10-15T11:52:33Z</time>
      </trkpt>
      <trkpt lat="37.583099000" lon="-4.205652000">
        <ele>427.2</ele>
        <time>2020-10-15T11:52:35Z</time>
      </trkpt>
      <trkpt lat="37.583080000" lon="-4.205773000">
        <ele>427.2</ele>
        <time>2020-10-15T11:52:37Z</time>
      </trkpt>
      <trkpt lat="37.583067000" lon="-4.205885000">
        <ele>427.2</ele>
        <time>2020-10-15T11:52:39Z</time>
      </trkpt>
      <trkpt lat="37.583058000" lon="-4.205998000">
        <ele>427.1</ele>
        <time>2020-10-15T11:52:41Z</time>
      </trkpt>
      <trkpt lat="37.583048000" lon="-4.206101000">
        <ele>426.9</ele>
        <time>2020-10-15T11:52:43Z</time>
      </trkpt>
      <trkpt lat="37.583038000" lon="-4.206240000">
        <ele>426.8</ele>
        <time>2020-10-15T11:52:46Z</time>
      </trkpt>
      <trkpt lat="37.583024000" lon="-4.206371000">
        <ele>426.7</ele>
        <time>2020-10-15T11:52:49Z</time>
      </trkpt>
      <trkpt lat="37.583007000" lon="-4.206500000">
        <ele>426.6</ele>
        <time>2020-10-15T11:52:52Z</time>
      </trkpt>
      <trkpt lat="37.582973000" lon="-4.206612000">
        <ele>426.6</ele>
        <time>2020-10-15T11:52:55Z</time>
      </trkpt>
      <trkpt lat="37.582932000" lon="-4.206705000">
        <ele>426.6</ele>
        <time>2020-10-15T11:53:01Z</time>
      </trkpt>
      <trkpt lat="37.582901000" lon="-4.206809000">
        <ele>426.6</ele>
        <time>2020-10-15T11:53:14Z</time>
      </trkpt>
      <trkpt lat="37.582882000" lon="-4.206910000">
        <ele>426.5</ele>
        <time>2020-10-15T11:53:24Z</time>
      </trkpt>
      <trkpt lat="37.582866000" lon="-4.207018000">
        <ele>426.5</ele>
        <time>2020-10-15T11:53:32Z</time>
      </trkpt>
      <trkpt lat="37.582907000" lon="-4.207107000">
        <ele>426.3</ele>
        <time>2020-10-15T11:54:28Z</time>
      </trkpt>
      <trkpt lat="37.582905000" lon="-4.207218000">
        <ele>426.1</ele>
        <time>2020-10-15T12:01:54Z</time>
      </trkpt>
      <trkpt lat="37.582897000" lon="-4.207331000">
        <ele>426.1</ele>
        <time>2020-10-15T12:02:01Z</time>
      </trkpt>
      <trkpt lat="37.582898000" lon="-4.207438000">
        <ele>426.0</ele>
        <time>2020-10-15T12:02:08Z</time>
      </trkpt>
      <trkpt lat="37.582892000" lon="-4.207553000">
        <ele>425.9</ele>
        <time>2020-10-15T12:02:16Z</time>
      </trkpt>
      <trkpt lat="37.582885000" lon="-4.207668000">
        <ele>425.8</ele>
        <time>2020-10-15T12:02:24Z</time>
      </trkpt>
      <trkpt lat="37.582893000" lon="-4.207775000">
        <ele>425.6</ele>
        <time>2020-10-15T12:02:31Z</time>
      </trkpt>
      <trkpt lat="37.582934000" lon="-4.207873000">
        <ele>425.5</ele>
        <time>2020-10-15T12:02:37Z</time>
      </trkpt>
      <trkpt lat="37.582940000" lon="-4.207977000">
        <ele>425.2</ele>
        <time>2020-10-15T12:02:46Z</time>
      </trkpt>
      <trkpt lat="37.582922000" lon="-4.208077000">
        <ele>425.1</ele>
        <time>2020-10-15T12:02:49Z</time>
      </trkpt>
      <trkpt lat="37.582898000" lon="-4.208203000">
        <ele>425.0</ele>
        <time>2020-10-15T12:02:52Z</time>
      </trkpt>
      <trkpt lat="37.582879000" lon="-4.208349000">
        <ele>425.0</ele>
        <time>2020-10-15T12:02:55Z</time>
      </trkpt>
      <trkpt lat="37.582866000" lon="-4.208504000">
        <ele>425.0</ele>
        <time>2020-10-15T12:02:58Z</time>
      </trkpt>
      <trkpt lat="37.582843000" lon="-4.208611000">
        <ele>424.9</ele>
        <time>2020-10-15T12:03:00Z</time>
      </trkpt>
      <trkpt lat="37.582822000" lon="-4.208710000">
        <ele>424.8</ele>
        <time>2020-10-15T12:03:02Z</time>
      </trkpt>
      <trkpt lat="37.582801000" lon="-4.208829000">
        <ele>424.7</ele>
        <time>2020-10-15T12:03:04Z</time>
      </trkpt>
      <trkpt lat="37.582786000" lon="-4.208940000">
        <ele>424.7</ele>
        <time>2020-10-15T12:03:06Z</time>
      </trkpt>
      <trkpt lat="37.582765000" lon="-4.209064000">
        <ele>424.7</ele>
        <time>2020-10-15T12:03:08Z</time>
      </trkpt>
      <trkpt lat="37.582742000" lon="-4.209188000">
        <ele>424.7</ele>
        <time>2020-10-15T12:03:10Z</time>
      </trkpt>
      <trkpt lat="37.582718000" lon="-4.209316000">
        <ele>424.8</ele>
        <time>2020-10-15T12:03:12Z</time>
      </trkpt>
      <trkpt lat="37.582696000" lon="-4.209433000">
        <ele>424.8</ele>
        <time>2020-10-15T12:03:14Z</time>
      </trkpt>
      <trkpt lat="37.582666000" lon="-4.209568000">
        <ele>424.7</ele>
        <time>2020-10-15T12:03:16Z</time>
      </trkpt>
      <trkpt lat="37.582638000" lon="-4.209695000">
        <ele>424.6</ele>
        <time>2020-10-15T12:03:18Z</time>
      </trkpt>
      <trkpt lat="37.582606000" lon="-4.209815000">
        <ele>424.5</ele>
        <time>2020-10-15T12:03:20Z</time>
      </trkpt>
      <trkpt lat="37.582571000" lon="-4.209937000">
        <ele>424.4</ele>
        <time>2020-10-15T12:03:22Z</time>
      </trkpt>
      <trkpt lat="37.582539000" lon="-4.210067000">
        <ele>424.3</ele>
        <time>2020-10-15T12:03:24Z</time>
      </trkpt>
      <trkpt lat="37.582500000" lon="-4.210191000">
        <ele>424.2</ele>
        <time>2020-10-15T12:03:26Z</time>
      </trkpt>
      <trkpt lat="37.582466000" lon="-4.210312000">
        <ele>424.0</ele>
        <time>2020-10-15T12:03:28Z</time>
      </trkpt>
      <trkpt lat="37.582436000" lon="-4.210436000">
        <ele>423.8</ele>
        <time>2020-10-15T12:03:30Z</time>
      </trkpt>
      <trkpt lat="37.582405000" lon="-4.210560000">
        <ele>423.6</ele>
        <time>2020-10-15T12:03:32Z</time>
      </trkpt>
      <trkpt lat="37.582376000" lon="-4.210675000">
        <ele>423.5</ele>
        <time>2020-10-15T12:03:34Z</time>
      </trkpt>
      <trkpt lat="37.582338000" lon="-4.210799000">
        <ele>423.3</ele>
        <time>2020-10-15T12:03:36Z</time>
      </trkpt>
      <trkpt lat="37.582297000" lon="-4.210923000">
        <ele>423.1</ele>
        <time>2020-10-15T12:03:38Z</time>
      </trkpt>
      <trkpt lat="37.582261000" lon="-4.211046000">
        <ele>422.9</ele>
        <time>2020-10-15T12:03:40Z</time>
      </trkpt>
      <trkpt lat="37.582228000" lon="-4.211171000">
        <ele>422.6</ele>
        <time>2020-10-15T12:03:42Z</time>
      </trkpt>
      <trkpt lat="37.582199000" lon="-4.211292000">
        <ele>422.5</ele>
        <time>2020-10-15T12:03:44Z</time>
      </trkpt>
      <trkpt lat="37.582164000" lon="-4.211422000">
        <ele>422.3</ele>
        <time>2020-10-15T12:03:46Z</time>
      </trkpt>
      <trkpt lat="37.582128000" lon="-4.211542000">
        <ele>422.2</ele>
        <time>2020-10-15T12:03:48Z</time>
      </trkpt>
      <trkpt lat="37.582092000" lon="-4.211668000">
        <ele>422.1</ele>
        <time>2020-10-15T12:03:50Z</time>
      </trkpt>
      <trkpt lat="37.582059000" lon="-4.211796000">
        <ele>422.0</ele>
        <time>2020-10-15T12:03:52Z</time>
      </trkpt>
      <trkpt lat="37.582025000" lon="-4.211913000">
        <ele>421.9</ele>
        <time>2020-10-15T12:03:54Z</time>
      </trkpt>
      <trkpt lat="37.581990000" lon="-4.212037000">
        <ele>421.8</ele>
        <time>2020-10-15T12:03:56Z</time>
      </trkpt>
      <trkpt lat="37.581955000" lon="-4.212155000">
        <ele>421.7</ele>
        <time>2020-10-15T12:03:58Z</time>
      </trkpt>
      <trkpt lat="37.581923000" lon="-4.212273000">
        <ele>421.7</ele>
        <time>2020-10-15T12:04:00Z</time>
      </trkpt>
      <trkpt lat="37.581888000" lon="-4.212393000">
        <ele>421.8</ele>
        <time>2020-10-15T12:04:02Z</time>
      </trkpt>
      <trkpt lat="37.581849000" lon="-4.212516000">
        <ele>422.0</ele>
        <time>2020-10-15T12:04:04Z</time>
      </trkpt>
      <trkpt lat="37.581815000" lon="-4.212634000">
        <ele>422.2</ele>
        <time>2020-10-15T12:04:06Z</time>
      </trkpt>
      <trkpt lat="37.581776000" lon="-4.212755000">
        <ele>422.4</ele>
        <time>2020-10-15T12:04:08Z</time>
      </trkpt>
      <trkpt lat="37.581741000" lon="-4.212876000">
        <ele>422.5</ele>
        <time>2020-10-15T12:04:10Z</time>
      </trkpt>
      <trkpt lat="37.581700000" lon="-4.212996000">
        <ele>422.5</ele>
        <time>2020-10-15T12:04:12Z</time>
      </trkpt>
      <trkpt lat="37.581658000" lon="-4.213123000">
        <ele>422.5</ele>
        <time>2020-10-15T12:04:14Z</time>
      </trkpt>
      <trkpt lat="37.581617000" lon="-4.213244000">
        <ele>422.6</ele>
        <time>2020-10-15T12:04:16Z</time>
      </trkpt>
      <trkpt lat="37.581574000" lon="-4.213362000">
        <ele>422.7</ele>
        <time>2020-10-15T12:04:18Z</time>
      </trkpt>
      <trkpt lat="37.581534000" lon="-4.213473000">
        <ele>422.8</ele>
        <time>2020-10-15T12:04:20Z</time>
      </trkpt>
      <trkpt lat="37.581487000" lon="-4.213589000">
        <ele>423.0</ele>
        <time>2020-10-15T12:04:22Z</time>
      </trkpt>
      <trkpt lat="37.581433000" lon="-4.213697000">
        <ele>423.1</ele>
        <time>2020-10-15T12:04:24Z</time>
      </trkpt>
      <trkpt lat="37.581389000" lon="-4.213803000">
        <ele>423.3</ele>
        <time>2020-10-15T12:04:26Z</time>
      </trkpt>
      <trkpt lat="37.581337000" lon="-4.213909000">
        <ele>423.5</ele>
        <time>2020-10-15T12:04:28Z</time>
      </trkpt>
      <trkpt lat="37.581287000" lon="-4.214011000">
        <ele>423.8</ele>
        <time>2020-10-15T12:04:30Z</time>
      </trkpt>
      <trkpt lat="37.581232000" lon="-4.214110000">
        <ele>424.2</ele>
        <time>2020-10-15T12:04:32Z</time>
      </trkpt>
      <trkpt lat="37.581173000" lon="-4.214190000">
        <ele>424.6</ele>
        <time>2020-10-15T12:04:34Z</time>
      </trkpt>
      <trkpt lat="37.581121000" lon="-4.214283000">
        <ele>425.1</ele>
        <time>2020-10-15T12:04:36Z</time>
      </trkpt>
      <trkpt lat="37.581072000" lon="-4.214374000">
        <ele>425.5</ele>
        <time>2020-10-15T12:04:38Z</time>
      </trkpt>
      <trkpt lat="37.581019000" lon="-4.214466000">
        <ele>426.0</ele>
        <time>2020-10-15T12:04:40Z</time>
      </trkpt>
      <trkpt lat="37.580960000" lon="-4.214551000">
        <ele>426.5</ele>
        <time>2020-10-15T12:04:42Z</time>
      </trkpt>
      <trkpt lat="37.580895000" lon="-4.214637000">
        <ele>426.8</ele>
        <time>2020-10-15T12:04:44Z</time>
      </trkpt>
      <trkpt lat="37.580833000" lon="-4.214716000">
        <ele>427.2</ele>
        <time>2020-10-15T12:04:46Z</time>
      </trkpt>
      <trkpt lat="37.580768000" lon="-4.214785000">
        <ele>427.5</ele>
        <time>2020-10-15T12:04:48Z</time>
      </trkpt>
      <trkpt lat="37.580703000" lon="-4.214854000">
        <ele>427.5</ele>
        <time>2020-10-15T12:04:50Z</time>
      </trkpt>
      <trkpt lat="37.580635000" lon="-4.214926000">
        <ele>427.6</ele>
        <time>2020-10-15T12:04:52Z</time>
      </trkpt>
      <trkpt lat="37.580561000" lon="-4.214997000">
        <ele>427.6</ele>
        <time>2020-10-15T12:04:54Z</time>
      </trkpt>
      <trkpt lat="37.580491000" lon="-4.215075000">
        <ele>427.6</ele>
        <time>2020-10-15T12:04:56Z</time>
      </trkpt>
      <trkpt lat="37.580420000" lon="-4.215142000">
        <ele>427.5</ele>
        <time>2020-10-15T12:04:58Z</time>
      </trkpt>
      <trkpt lat="37.580349000" lon="-4.215205000">
        <ele>427.4</ele>
        <time>2020-10-15T12:05:00Z</time>
      </trkpt>
      <trkpt lat="37.580279000" lon="-4.215270000">
        <ele>427.2</ele>
        <time>2020-10-15T12:05:02Z</time>
      </trkpt>
      <trkpt lat="37.580201000" lon="-4.215328000">
        <ele>426.9</ele>
        <time>2020-10-15T12:05:04Z</time>
      </trkpt>
      <trkpt lat="37.580123000" lon="-4.215386000">
        <ele>426.6</ele>
        <time>2020-10-15T12:05:06Z</time>
      </trkpt>
      <trkpt lat="37.580047000" lon="-4.215440000">
        <ele>426.3</ele>
        <time>2020-10-15T12:05:08Z</time>
      </trkpt>
      <trkpt lat="37.579970000" lon="-4.215491000">
        <ele>425.8</ele>
        <time>2020-10-15T12:05:10Z</time>
      </trkpt>
      <trkpt lat="37.579892000" lon="-4.215538000">
        <ele>425.5</ele>
        <time>2020-10-15T12:05:12Z</time>
      </trkpt>
      <trkpt lat="37.579814000" lon="-4.215586000">
        <ele>425.1</ele>
        <time>2020-10-15T12:05:14Z</time>
      </trkpt>
      <trkpt lat="37.579737000" lon="-4.215624000">
        <ele>424.7</ele>
        <time>2020-10-15T12:05:16Z</time>
      </trkpt>
      <trkpt lat="37.579660000" lon="-4.215661000">
        <ele>424.5</ele>
        <time>2020-10-15T12:05:18Z</time>
      </trkpt>
      <trkpt lat="37.579581000" lon="-4.215696000">
        <ele>424.2</ele>
        <time>2020-10-15T12:05:20Z</time>
      </trkpt>
      <trkpt lat="37.579502000" lon="-4.215730000">
        <ele>424.0</ele>
        <time>2020-10-15T12:05:22Z</time>
      </trkpt>
      <trkpt lat="37.579423000" lon="-4.215764000">
        <ele>423.9</ele>
        <time>2020-10-15T12:05:24Z</time>
      </trkpt>
      <trkpt lat="37.579346000" lon="-4.215798000">
        <ele>424.0</ele>
        <time>2020-10-15T12:05:26Z</time>
      </trkpt>
      <trkpt lat="37.579234000" lon="-4.215853000">
        <ele>424.2</ele>
        <time>2020-10-15T12:05:30Z</time>
      </trkpt>
      <trkpt lat="37.579123000" lon="-4.215899000">
        <ele>424.5</ele>
        <time>2020-10-15T12:05:32Z</time>
      </trkpt>
      <trkpt lat="37.579011000" lon="-4.215950000">
        <ele>424.9</ele>
        <time>2020-10-15T12:05:35Z</time>
      </trkpt>
      <trkpt lat="37.578895000" lon="-4.215998000">
        <ele>425.4</ele>
        <time>2020-10-15T12:05:38Z</time>
      </trkpt>
      <trkpt lat="37.578816000" lon="-4.216032000">
        <ele>425.9</ele>
        <time>2020-10-15T12:05:40Z</time>
      </trkpt>
      <trkpt lat="37.578738000" lon="-4.216066000">
        <ele>426.5</ele>
        <time>2020-10-15T12:05:42Z</time>
      </trkpt>
      <trkpt lat="37.578656000" lon="-4.216101000">
        <ele>427.1</ele>
        <time>2020-10-15T12:05:44Z</time>
      </trkpt>
      <trkpt lat="37.578575000" lon="-4.216135000">
        <ele>427.7</ele>
        <time>2020-10-15T12:05:46Z</time>
      </trkpt>
      <trkpt lat="37.578494000" lon="-4.216171000">
        <ele>428.5</ele>
        <time>2020-10-15T12:05:48Z</time>
      </trkpt>
      <trkpt lat="37.578411000" lon="-4.216208000">
        <ele>429.1</ele>
        <time>2020-10-15T12:05:50Z</time>
      </trkpt>
      <trkpt lat="37.578330000" lon="-4.216249000">
        <ele>429.6</ele>
        <time>2020-10-15T12:05:52Z</time>
      </trkpt>
      <trkpt lat="37.578248000" lon="-4.216289000">
        <ele>430.1</ele>
        <time>2020-10-15T12:05:54Z</time>
      </trkpt>
      <trkpt lat="37.578163000" lon="-4.216335000">
        <ele>430.5</ele>
        <time>2020-10-15T12:05:56Z</time>
      </trkpt>
      <trkpt lat="37.578080000" lon="-4.216379000">
        <ele>430.9</ele>
        <time>2020-10-15T12:05:58Z</time>
      </trkpt>
      <trkpt lat="37.577999000" lon="-4.216431000">
        <ele>431.3</ele>
        <time>2020-10-15T12:06:00Z</time>
      </trkpt>
      <trkpt lat="37.577922000" lon="-4.216486000">
        <ele>431.5</ele>
        <time>2020-10-15T12:06:02Z</time>
      </trkpt>
      <trkpt lat="37.577845000" lon="-4.216539000">
        <ele>431.5</ele>
        <time>2020-10-15T12:06:04Z</time>
      </trkpt>
      <trkpt lat="37.577767000" lon="-4.216592000">
        <ele>431.5</ele>
        <time>2020-10-15T12:06:06Z</time>
      </trkpt>
      <trkpt lat="37.577696000" lon="-4.216655000">
        <ele>431.5</ele>
        <time>2020-10-15T12:06:08Z</time>
      </trkpt>
      <trkpt lat="37.577618000" lon="-4.216714000">
        <ele>431.5</ele>
        <time>2020-10-15T12:06:10Z</time>
      </trkpt>
      <trkpt lat="37.577545000" lon="-4.216777000">
        <ele>431.4</ele>
        <time>2020-10-15T12:06:12Z</time>
      </trkpt>
      <trkpt lat="37.577473000" lon="-4.216841000">
        <ele>431.3</ele>
        <time>2020-10-15T12:06:14Z</time>
      </trkpt>
      <trkpt lat="37.577404000" lon="-4.216909000">
        <ele>431.3</ele>
        <time>2020-10-15T12:06:16Z</time>
      </trkpt>
      <trkpt lat="37.577333000" lon="-4.216977000">
        <ele>431.3</ele>
        <time>2020-10-15T12:06:18Z</time>
      </trkpt>
      <trkpt lat="37.577266000" lon="-4.217052000">
        <ele>431.3</ele>
        <time>2020-10-15T12:06:20Z</time>
      </trkpt>
      <trkpt lat="37.577201000" lon="-4.217129000">
        <ele>431.3</ele>
        <time>2020-10-15T12:06:22Z</time>
      </trkpt>
      <trkpt lat="37.577140000" lon="-4.217206000">
        <ele>431.5</ele>
        <time>2020-10-15T12:06:24Z</time>
      </trkpt>
      <trkpt lat="37.577079000" lon="-4.217283000">
        <ele>431.6</ele>
        <time>2020-10-15T12:06:26Z</time>
      </trkpt>
      <trkpt lat="37.577020000" lon="-4.217364000">
        <ele>432.0</ele>
        <time>2020-10-15T12:06:28Z</time>
      </trkpt>
      <trkpt lat="37.576959000" lon="-4.217445000">
        <ele>432.3</ele>
        <time>2020-10-15T12:06:30Z</time>
      </trkpt>
      <trkpt lat="37.576903000" lon="-4.217527000">
        <ele>432.5</ele>
        <time>2020-10-15T12:06:32Z</time>
      </trkpt>
      <trkpt lat="37.576847000" lon="-4.217606000">
        <ele>432.9</ele>
        <time>2020-10-15T12:06:34Z</time>
      </trkpt>
      <trkpt lat="37.576793000" lon="-4.217686000">
        <ele>433.3</ele>
        <time>2020-10-15T12:06:36Z</time>
      </trkpt>
      <trkpt lat="37.576738000" lon="-4.217764000">
        <ele>433.5</ele>
        <time>2020-10-15T12:06:38Z</time>
      </trkpt>
      <trkpt lat="37.576687000" lon="-4.217845000">
        <ele>433.8</ele>
        <time>2020-10-15T12:06:40Z</time>
      </trkpt>
      <trkpt lat="37.576634000" lon="-4.217925000">
        <ele>434.0</ele>
        <time>2020-10-15T12:06:42Z</time>
      </trkpt>
      <trkpt lat="37.576578000" lon="-4.218005000">
        <ele>434.2</ele>
        <time>2020-10-15T12:06:44Z</time>
      </trkpt>
      <trkpt lat="37.576523000" lon="-4.218087000">
        <ele>434.3</ele>
        <time>2020-10-15T12:06:46Z</time>
      </trkpt>
      <trkpt lat="37.576469000" lon="-4.218171000">
        <ele>434.4</ele>
        <time>2020-10-15T12:06:48Z</time>
      </trkpt>
      <trkpt lat="37.576416000" lon="-4.218251000">
        <ele>434.4</ele>
        <time>2020-10-15T12:06:50Z</time>
      </trkpt>
      <trkpt lat="37.576362000" lon="-4.218331000">
        <ele>434.5</ele>
        <time>2020-10-15T12:06:52Z</time>
      </trkpt>
      <trkpt lat="37.576308000" lon="-4.218411000">
        <ele>434.5</ele>
        <time>2020-10-15T12:06:54Z</time>
      </trkpt>
      <trkpt lat="37.576253000" lon="-4.218491000">
        <ele>434.6</ele>
        <time>2020-10-15T12:06:56Z</time>
      </trkpt>
      <trkpt lat="37.576200000" lon="-4.218571000">
        <ele>434.7</ele>
        <time>2020-10-15T12:06:58Z</time>
      </trkpt>
      <trkpt lat="37.576146000" lon="-4.218647000">
        <ele>434.9</ele>
        <time>2020-10-15T12:07:00Z</time>
      </trkpt>
      <trkpt lat="37.576082000" lon="-4.218738000">
        <ele>435.1</ele>
        <time>2020-10-15T12:07:02Z</time>
      </trkpt>
      <trkpt lat="37.576028000" lon="-4.218825000">
        <ele>435.5</ele>
        <time>2020-10-15T12:07:04Z</time>
      </trkpt>
      <trkpt lat="37.575975000" lon="-4.218907000">
        <ele>435.8</ele>
        <time>2020-10-15T12:07:06Z</time>
      </trkpt>
      <trkpt lat="37.575905000" lon="-4.219014000">
        <ele>436.2</ele>
        <time>2020-10-15T12:07:09Z</time>
      </trkpt>
      <trkpt lat="37.575844000" lon="-4.219099000">
        <ele>436.6</ele>
        <time>2020-10-15T12:07:11Z</time>
      </trkpt>
      <trkpt lat="37.575782000" lon="-4.219186000">
        <ele>437.1</ele>
        <time>2020-10-15T12:07:13Z</time>
      </trkpt>
      <trkpt lat="37.575728000" lon="-4.219268000">
        <ele>437.5</ele>
        <time>2020-10-15T12:07:15Z</time>
      </trkpt>
      <trkpt lat="37.575677000" lon="-4.219349000">
        <ele>437.9</ele>
        <time>2020-10-15T12:07:17Z</time>
      </trkpt>
      <trkpt lat="37.575597000" lon="-4.219461000">
        <ele>438.3</ele>
        <time>2020-10-15T12:07:20Z</time>
      </trkpt>
      <trkpt lat="37.575524000" lon="-4.219574000">
        <ele>438.6</ele>
        <time>2020-10-15T12:07:23Z</time>
      </trkpt>
      <trkpt lat="37.575449000" lon="-4.219690000">
        <ele>439.0</ele>
        <time>2020-10-15T12:07:26Z</time>
      </trkpt>
      <trkpt lat="37.575370000" lon="-4.219803000">
        <ele>439.4</ele>
        <time>2020-10-15T12:07:29Z</time>
      </trkpt>
      <trkpt lat="37.575292000" lon="-4.219912000">
        <ele>439.6</ele>
        <time>2020-10-15T12:07:33Z</time>
      </trkpt>
      <trkpt lat="37.575217000" lon="-4.220018000">
        <ele>439.9</ele>
        <time>2020-10-15T12:07:35Z</time>
      </trkpt>
      <trkpt lat="37.575145000" lon="-4.220125000">
        <ele>440.1</ele>
        <time>2020-10-15T12:07:38Z</time>
      </trkpt>
      <trkpt lat="37.575074000" lon="-4.220230000">
        <ele>440.2</ele>
        <time>2020-10-15T12:07:41Z</time>
      </trkpt>
      <trkpt lat="37.575006000" lon="-4.220337000">
        <ele>440.3</ele>
        <time>2020-10-15T12:07:44Z</time>
      </trkpt>
      <trkpt lat="37.574938000" lon="-4.220443000">
        <ele>440.4</ele>
        <time>2020-10-15T12:07:47Z</time>
      </trkpt>
      <trkpt lat="37.574867000" lon="-4.220545000">
        <ele>440.5</ele>
        <time>2020-10-15T12:07:50Z</time>
      </trkpt>
      <trkpt lat="37.574797000" lon="-4.220650000">
        <ele>440.5</ele>
        <time>2020-10-15T12:07:53Z</time>
      </trkpt>
      <trkpt lat="37.574730000" lon="-4.220759000">
        <ele>440.6</ele>
        <time>2020-10-15T12:07:56Z</time>
      </trkpt>
      <trkpt lat="37.574658000" lon="-4.220867000">
        <ele>440.7</ele>
        <time>2020-10-15T12:07:59Z</time>
      </trkpt>
      <trkpt lat="37.574583000" lon="-4.220973000">
        <ele>440.8</ele>
        <time>2020-10-15T12:08:02Z</time>
      </trkpt>
      <trkpt lat="37.574509000" lon="-4.221076000">
        <ele>440.9</ele>
        <time>2020-10-15T12:08:05Z</time>
      </trkpt>
      <trkpt lat="37.574440000" lon="-4.221186000">
        <ele>441.0</ele>
        <time>2020-10-15T12:08:08Z</time>
      </trkpt>
      <trkpt lat="37.574366000" lon="-4.221296000">
        <ele>441.2</ele>
        <time>2020-10-15T12:08:11Z</time>
      </trkpt>
      <trkpt lat="37.574294000" lon="-4.221411000">
        <ele>441.4</ele>
        <time>2020-10-15T12:08:14Z</time>
      </trkpt>
      <trkpt lat="37.574216000" lon="-4.221520000">
        <ele>441.5</ele>
        <time>2020-10-15T12:08:17Z</time>
      </trkpt>
      <trkpt lat="37.574144000" lon="-4.221631000">
        <ele>441.7</ele>
        <time>2020-10-15T12:08:20Z</time>
      </trkpt>
      <trkpt lat="37.574073000" lon="-4.221740000">
        <ele>441.8</ele>
        <time>2020-10-15T12:08:23Z</time>
      </trkpt>
      <trkpt lat="37.574001000" lon="-4.221848000">
        <ele>441.9</ele>
        <time>2020-10-15T12:08:26Z</time>
      </trkpt>
      <trkpt lat="37.573929000" lon="-4.221954000">
        <ele>442.1</ele>
        <time>2020-10-15T12:08:29Z</time>
      </trkpt>
      <trkpt lat="37.573852000" lon="-4.222068000">
        <ele>442.2</ele>
        <time>2020-10-15T12:08:32Z</time>
      </trkpt>
      <trkpt lat="37.573798000" lon="-4.222149000">
        <ele>442.4</ele>
        <time>2020-10-15T12:08:34Z</time>
      </trkpt>
      <trkpt lat="37.573741000" lon="-4.222229000">
        <ele>442.5</ele>
        <time>2020-10-15T12:08:36Z</time>
      </trkpt>
      <trkpt lat="37.573687000" lon="-4.222307000">
        <ele>442.7</ele>
        <time>2020-10-15T12:08:38Z</time>
      </trkpt>
      <trkpt lat="37.573609000" lon="-4.222424000">
        <ele>442.9</ele>
        <time>2020-10-15T12:08:41Z</time>
      </trkpt>
      <trkpt lat="37.573554000" lon="-4.222502000">
        <ele>443.1</ele>
        <time>2020-10-15T12:08:43Z</time>
      </trkpt>
      <trkpt lat="37.573501000" lon="-4.222583000">
        <ele>443.4</ele>
        <time>2020-10-15T12:08:45Z</time>
      </trkpt>
      <trkpt lat="37.573448000" lon="-4.222661000">
        <ele>443.5</ele>
        <time>2020-10-15T12:08:47Z</time>
      </trkpt>
      <trkpt lat="37.573396000" lon="-4.222742000">
        <ele>443.7</ele>
        <time>2020-10-15T12:08:49Z</time>
      </trkpt>
      <trkpt lat="37.573341000" lon="-4.222820000">
        <ele>443.9</ele>
        <time>2020-10-15T12:08:51Z</time>
      </trkpt>
      <trkpt lat="37.573286000" lon="-4.222897000">
        <ele>444.0</ele>
        <time>2020-10-15T12:08:53Z</time>
      </trkpt>
      <trkpt lat="37.573234000" lon="-4.222977000">
        <ele>444.2</ele>
        <time>2020-10-15T12:08:55Z</time>
      </trkpt>
      <trkpt lat="37.573185000" lon="-4.223060000">
        <ele>444.3</ele>
        <time>2020-10-15T12:08:57Z</time>
      </trkpt>
      <trkpt lat="37.573135000" lon="-4.223141000">
        <ele>444.5</ele>
        <time>2020-10-15T12:08:59Z</time>
      </trkpt>
      <trkpt lat="37.573062000" lon="-4.223259000">
        <ele>444.6</ele>
        <time>2020-10-15T12:09:03Z</time>
      </trkpt>
      <trkpt lat="37.572993000" lon="-4.223377000">
        <ele>444.8</ele>
        <time>2020-10-15T12:09:05Z</time>
      </trkpt>
      <trkpt lat="37.572925000" lon="-4.223497000">
        <ele>445.1</ele>
        <time>2020-10-15T12:09:08Z</time>
      </trkpt>
      <trkpt lat="37.572862000" lon="-4.223623000">
        <ele>445.3</ele>
        <time>2020-10-15T12:09:11Z</time>
      </trkpt>
      <trkpt lat="37.572796000" lon="-4.223750000">
        <ele>445.5</ele>
        <time>2020-10-15T12:09:14Z</time>
      </trkpt>
      <trkpt lat="37.572755000" lon="-4.223839000">
        <ele>445.8</ele>
        <time>2020-10-15T12:09:16Z</time>
      </trkpt>
      <trkpt lat="37.572717000" lon="-4.223929000">
        <ele>446.1</ele>
        <time>2020-10-15T12:09:18Z</time>
      </trkpt>
      <trkpt lat="37.572678000" lon="-4.224020000">
        <ele>446.4</ele>
        <time>2020-10-15T12:09:20Z</time>
      </trkpt>
      <trkpt lat="37.572622000" lon="-4.224154000">
        <ele>446.5</ele>
        <time>2020-10-15T12:09:23Z</time>
      </trkpt>
      <trkpt lat="37.572587000" lon="-4.224248000">
        <ele>446.5</ele>
        <time>2020-10-15T12:09:25Z</time>
      </trkpt>
      <trkpt lat="37.572554000" lon="-4.224343000">
        <ele>446.5</ele>
        <time>2020-10-15T12:09:27Z</time>
      </trkpt>
      <trkpt lat="37.572520000" lon="-4.224440000">
        <ele>446.5</ele>
        <time>2020-10-15T12:09:29Z</time>
      </trkpt>
      <trkpt lat="37.572484000" lon="-4.224540000">
        <ele>446.5</ele>
        <time>2020-10-15T12:09:31Z</time>
      </trkpt>
      <trkpt lat="37.572449000" lon="-4.224642000">
        <ele>446.3</ele>
        <time>2020-10-15T12:09:33Z</time>
      </trkpt>
      <trkpt lat="37.572417000" lon="-4.224745000">
        <ele>446.1</ele>
        <time>2020-10-15T12:09:35Z</time>
      </trkpt>
      <trkpt lat="37.572388000" lon="-4.224851000">
        <ele>445.9</ele>
        <time>2020-10-15T12:09:37Z</time>
      </trkpt>
      <trkpt lat="37.572364000" lon="-4.224958000">
        <ele>445.7</ele>
        <time>2020-10-15T12:09:39Z</time>
      </trkpt>
      <trkpt lat="37.572339000" lon="-4.225064000">
        <ele>445.5</ele>
        <time>2020-10-15T12:09:41Z</time>
      </trkpt>
      <trkpt lat="37.572315000" lon="-4.225169000">
        <ele>445.3</ele>
        <time>2020-10-15T12:09:43Z</time>
      </trkpt>
      <trkpt lat="37.572292000" lon="-4.225271000">
        <ele>445.0</ele>
        <time>2020-10-15T12:09:45Z</time>
      </trkpt>
      <trkpt lat="37.572273000" lon="-4.225373000">
        <ele>444.6</ele>
        <time>2020-10-15T12:09:47Z</time>
      </trkpt>
      <trkpt lat="37.572255000" lon="-4.225473000">
        <ele>444.2</ele>
        <time>2020-10-15T12:09:49Z</time>
      </trkpt>
      <trkpt lat="37.572230000" lon="-4.225620000">
        <ele>443.7</ele>
        <time>2020-10-15T12:09:52Z</time>
      </trkpt>
      <trkpt lat="37.572210000" lon="-4.225766000">
        <ele>443.4</ele>
        <time>2020-10-15T12:09:55Z</time>
      </trkpt>
      <trkpt lat="37.572191000" lon="-4.225910000">
        <ele>443.0</ele>
        <time>2020-10-15T12:09:58Z</time>
      </trkpt>
      <trkpt lat="37.572175000" lon="-4.226053000">
        <ele>442.7</ele>
        <time>2020-10-15T12:10:01Z</time>
      </trkpt>
      <trkpt lat="37.572164000" lon="-4.226197000">
        <ele>442.5</ele>
        <time>2020-10-15T12:10:04Z</time>
      </trkpt>
      <trkpt lat="37.572152000" lon="-4.226338000">
        <ele>442.5</ele>
        <time>2020-10-15T12:10:07Z</time>
      </trkpt>
      <trkpt lat="37.572134000" lon="-4.226485000">
        <ele>442.5</ele>
        <time>2020-10-15T12:10:10Z</time>
      </trkpt>
      <trkpt lat="37.572114000" lon="-4.226634000">
        <ele>442.6</ele>
        <time>2020-10-15T12:10:13Z</time>
      </trkpt>
      <trkpt lat="37.572096000" lon="-4.226777000">
        <ele>443.0</ele>
        <time>2020-10-15T12:10:16Z</time>
      </trkpt>
      <trkpt lat="37.572080000" lon="-4.226921000">
        <ele>443.5</ele>
        <time>2020-10-15T12:10:19Z</time>
      </trkpt>
      <trkpt lat="37.572062000" lon="-4.227068000">
        <ele>444.1</ele>
        <time>2020-10-15T12:10:22Z</time>
      </trkpt>
      <trkpt lat="37.572046000" lon="-4.227214000">
        <ele>444.8</ele>
        <time>2020-10-15T12:10:25Z</time>
      </trkpt>
      <trkpt lat="37.572027000" lon="-4.227362000">
        <ele>445.5</ele>
        <time>2020-10-15T12:10:28Z</time>
      </trkpt>
      <trkpt lat="37.572014000" lon="-4.227510000">
        <ele>446.3</ele>
        <time>2020-10-15T12:10:31Z</time>
      </trkpt>
      <trkpt lat="37.572007000" lon="-4.227612000">
        <ele>446.8</ele>
        <time>2020-10-15T12:10:33Z</time>
      </trkpt>
      <trkpt lat="37.571994000" lon="-4.227720000">
        <ele>447.3</ele>
        <time>2020-10-15T12:10:35Z</time>
      </trkpt>
      <trkpt lat="37.571983000" lon="-4.227825000">
        <ele>447.6</ele>
        <time>2020-10-15T12:10:37Z</time>
      </trkpt>
      <trkpt lat="37.571975000" lon="-4.227947000">
        <ele>447.9</ele>
        <time>2020-10-15T12:10:39Z</time>
      </trkpt>
      <trkpt lat="37.571961000" lon="-4.228068000">
        <ele>448.1</ele>
        <time>2020-10-15T12:10:41Z</time>
      </trkpt>
      <trkpt lat="37.571951000" lon="-4.228177000">
        <ele>448.2</ele>
        <time>2020-10-15T12:10:43Z</time>
      </trkpt>
      <trkpt lat="37.571936000" lon="-4.228280000">
        <ele>448.4</ele>
        <time>2020-10-15T12:10:45Z</time>
      </trkpt>
      <trkpt lat="37.571915000" lon="-4.228432000">
        <ele>448.5</ele>
        <time>2020-10-15T12:10:48Z</time>
      </trkpt>
      <trkpt lat="37.571906000" lon="-4.228535000">
        <ele>448.7</ele>
        <time>2020-10-15T12:10:50Z</time>
      </trkpt>
      <trkpt lat="37.571898000" lon="-4.228638000">
        <ele>449.0</ele>
        <time>2020-10-15T12:10:52Z</time>
      </trkpt>
      <trkpt lat="37.571886000" lon="-4.228739000">
        <ele>449.3</ele>
        <time>2020-10-15T12:10:54Z</time>
      </trkpt>
      <trkpt lat="37.571879000" lon="-4.228841000">
        <ele>449.6</ele>
        <time>2020-10-15T12:10:56Z</time>
      </trkpt>
      <trkpt lat="37.571866000" lon="-4.228989000">
        <ele>450.0</ele>
        <time>2020-10-15T12:10:59Z</time>
      </trkpt>
      <trkpt lat="37.571853000" lon="-4.229139000">
        <ele>450.3</ele>
        <time>2020-10-15T12:11:02Z</time>
      </trkpt>
      <trkpt lat="37.571837000" lon="-4.229288000">
        <ele>450.5</ele>
        <time>2020-10-15T12:11:05Z</time>
      </trkpt>
      <trkpt lat="37.571821000" lon="-4.229438000">
        <ele>450.9</ele>
        <time>2020-10-15T12:11:08Z</time>
      </trkpt>
      <trkpt lat="37.571799000" lon="-4.229586000">
        <ele>451.3</ele>
        <time>2020-10-15T12:11:11Z</time>
      </trkpt>
      <trkpt lat="37.571774000" lon="-4.229734000">
        <ele>451.5</ele>
        <time>2020-10-15T12:11:14Z</time>
      </trkpt>
      <trkpt lat="37.571749000" lon="-4.229884000">
        <ele>451.7</ele>
        <time>2020-10-15T12:11:17Z</time>
      </trkpt>
      <trkpt lat="37.571717000" lon="-4.230031000">
        <ele>451.8</ele>
        <time>2020-10-15T12:11:20Z</time>
      </trkpt>
      <trkpt lat="37.571679000" lon="-4.230174000">
        <ele>451.7</ele>
        <time>2020-10-15T12:11:23Z</time>
      </trkpt>
      <trkpt lat="37.571637000" lon="-4.230319000">
        <ele>451.5</ele>
        <time>2020-10-15T12:11:26Z</time>
      </trkpt>
      <trkpt lat="37.571609000" lon="-4.230418000">
        <ele>451.4</ele>
        <time>2020-10-15T12:11:28Z</time>
      </trkpt>
      <trkpt lat="37.571576000" lon="-4.230515000">
        <ele>451.2</ele>
        <time>2020-10-15T12:11:30Z</time>
      </trkpt>
      <trkpt lat="37.571542000" lon="-4.230615000">
        <ele>451.1</ele>
        <time>2020-10-15T12:11:32Z</time>
      </trkpt>
      <trkpt lat="37.571504000" lon="-4.230714000">
        <ele>450.9</ele>
        <time>2020-10-15T12:11:34Z</time>
      </trkpt>
      <trkpt lat="37.571467000" lon="-4.230817000">
        <ele>450.6</ele>
        <time>2020-10-15T12:11:36Z</time>
      </trkpt>
      <trkpt lat="37.571430000" lon="-4.230920000">
        <ele>450.3</ele>
        <time>2020-10-15T12:11:38Z</time>
      </trkpt>
      <trkpt lat="37.571398000" lon="-4.231021000">
        <ele>450.0</ele>
        <time>2020-10-15T12:11:40Z</time>
      </trkpt>
      <trkpt lat="37.571364000" lon="-4.231120000">
        <ele>449.6</ele>
        <time>2020-10-15T12:11:42Z</time>
      </trkpt>
      <trkpt lat="37.571330000" lon="-4.231221000">
        <ele>449.4</ele>
        <time>2020-10-15T12:11:44Z</time>
      </trkpt>
      <trkpt lat="37.571298000" lon="-4.231319000">
        <ele>449.2</ele>
        <time>2020-10-15T12:11:46Z</time>
      </trkpt>
      <trkpt lat="37.571267000" lon="-4.231415000">
        <ele>449.0</ele>
        <time>2020-10-15T12:11:48Z</time>
      </trkpt>
      <trkpt lat="37.571233000" lon="-4.231509000">
        <ele>448.8</ele>
        <time>2020-10-15T12:11:50Z</time>
      </trkpt>
      <trkpt lat="37.571202000" lon="-4.231604000">
        <ele>448.6</ele>
        <time>2020-10-15T12:11:52Z</time>
      </trkpt>
      <trkpt lat="37.571168000" lon="-4.231698000">
        <ele>448.5</ele>
        <time>2020-10-15T12:11:54Z</time>
      </trkpt>
      <trkpt lat="37.571119000" lon="-4.231835000">
        <ele>448.4</ele>
        <time>2020-10-15T12:11:57Z</time>
      </trkpt>
      <trkpt lat="37.571076000" lon="-4.231975000">
        <ele>448.3</ele>
        <time>2020-10-15T12:12:00Z</time>
      </trkpt>
      <trkpt lat="37.571029000" lon="-4.232117000">
        <ele>448.4</ele>
        <time>2020-10-15T12:12:03Z</time>
      </trkpt>
      <trkpt lat="37.570978000" lon="-4.232254000">
        <ele>448.4</ele>
        <time>2020-10-15T12:12:06Z</time>
      </trkpt>
      <trkpt lat="37.570931000" lon="-4.232388000">
        <ele>448.5</ele>
        <time>2020-10-15T12:12:09Z</time>
      </trkpt>
      <trkpt lat="37.570883000" lon="-4.232522000">
        <ele>448.5</ele>
        <time>2020-10-15T12:12:12Z</time>
      </trkpt>
      <trkpt lat="37.570833000" lon="-4.232657000">
        <ele>448.5</ele>
        <time>2020-10-15T12:12:15Z</time>
      </trkpt>
      <trkpt lat="37.570781000" lon="-4.232790000">
        <ele>448.5</ele>
        <time>2020-10-15T12:12:18Z</time>
      </trkpt>
      <trkpt lat="37.570725000" lon="-4.232920000">
        <ele>448.7</ele>
        <time>2020-10-15T12:12:21Z</time>
      </trkpt>
      <trkpt lat="37.570665000" lon="-4.233051000">
        <ele>449.0</ele>
        <time>2020-10-15T12:12:24Z</time>
      </trkpt>
      <trkpt lat="37.570606000" lon="-4.233180000">
        <ele>449.3</ele>
        <time>2020-10-15T12:12:27Z</time>
      </trkpt>
      <trkpt lat="37.570543000" lon="-4.233310000">
        <ele>449.5</ele>
        <time>2020-10-15T12:12:30Z</time>
      </trkpt>
      <trkpt lat="37.570495000" lon="-4.233393000">
        <ele>449.8</ele>
        <time>2020-10-15T12:12:32Z</time>
      </trkpt>
      <trkpt lat="37.570422000" lon="-4.233516000">
        <ele>450.1</ele>
        <time>2020-10-15T12:12:35Z</time>
      </trkpt>
      <trkpt lat="37.570352000" lon="-4.233637000">
        <ele>450.5</ele>
        <time>2020-10-15T12:12:38Z</time>
      </trkpt>
      <trkpt lat="37.570283000" lon="-4.233752000">
        <ele>450.9</ele>
        <time>2020-10-15T12:12:41Z</time>
      </trkpt>
      <trkpt lat="37.570209000" lon="-4.233858000">
        <ele>451.5</ele>
        <time>2020-10-15T12:12:44Z</time>
      </trkpt>
      <trkpt lat="37.570131000" lon="-4.233963000">
        <ele>452.2</ele>
        <time>2020-10-15T12:12:47Z</time>
      </trkpt>
      <trkpt lat="37.570048000" lon="-4.234067000">
        <ele>452.9</ele>
        <time>2020-10-15T12:12:50Z</time>
      </trkpt>
      <trkpt lat="37.569963000" lon="-4.234167000">
        <ele>453.5</ele>
        <time>2020-10-15T12:12:53Z</time>
      </trkpt>
      <trkpt lat="37.569873000" lon="-4.234270000">
        <ele>454.2</ele>
        <time>2020-10-15T12:12:56Z</time>
      </trkpt>
      <trkpt lat="37.569811000" lon="-4.234338000">
        <ele>454.8</ele>
        <time>2020-10-15T12:12:58Z</time>
      </trkpt>
      <trkpt lat="37.569745000" lon="-4.234399000">
        <ele>455.5</ele>
        <time>2020-10-15T12:13:00Z</time>
      </trkpt>
      <trkpt lat="37.569684000" lon="-4.234468000">
        <ele>456.2</ele>
        <time>2020-10-15T12:13:02Z</time>
      </trkpt>
      <trkpt lat="37.569592000" lon="-4.234567000">
        <ele>456.8</ele>
        <time>2020-10-15T12:13:05Z</time>
      </trkpt>
      <trkpt lat="37.569502000" lon="-4.234657000">
        <ele>457.4</ele>
        <time>2020-10-15T12:13:08Z</time>
      </trkpt>
      <trkpt lat="37.569410000" lon="-4.234735000">
        <ele>457.9</ele>
        <time>2020-10-15T12:13:11Z</time>
      </trkpt>
      <trkpt lat="37.569310000" lon="-4.234805000">
        <ele>458.4</ele>
        <time>2020-10-15T12:13:14Z</time>
      </trkpt>
      <trkpt lat="37.569210000" lon="-4.234876000">
        <ele>458.6</ele>
        <time>2020-10-15T12:13:17Z</time>
      </trkpt>
      <trkpt lat="37.569115000" lon="-4.234944000">
        <ele>458.8</ele>
        <time>2020-10-15T12:13:20Z</time>
      </trkpt>
      <trkpt lat="37.569044000" lon="-4.234997000">
        <ele>459.0</ele>
        <time>2020-10-15T12:13:23Z</time>
      </trkpt>
      <trkpt lat="37.568957000" lon="-4.235058000">
        <ele>459.1</ele>
        <time>2020-10-15T12:13:27Z</time>
      </trkpt>
      <trkpt lat="37.568871000" lon="-4.235112000">
        <ele>459.3</ele>
        <time>2020-10-15T12:13:31Z</time>
      </trkpt>
      <trkpt lat="37.568783000" lon="-4.235159000">
        <ele>459.5</ele>
        <time>2020-10-15T12:13:35Z</time>
      </trkpt>
      <trkpt lat="37.568698000" lon="-4.235208000">
        <ele>459.5</ele>
        <time>2020-10-15T12:13:39Z</time>
      </trkpt>
      <trkpt lat="37.568617000" lon="-4.235258000">
        <ele>459.7</ele>
        <time>2020-10-15T12:13:43Z</time>
      </trkpt>
      <trkpt lat="37.568541000" lon="-4.235315000">
        <ele>459.9</ele>
        <time>2020-10-15T12:13:48Z</time>
      </trkpt>
      <trkpt lat="37.568451000" lon="-4.235362000">
        <ele>460.0</ele>
        <time>2020-10-15T12:13:52Z</time>
      </trkpt>
      <trkpt lat="37.568355000" lon="-4.235397000">
        <ele>460.2</ele>
        <time>2020-10-15T12:13:58Z</time>
      </trkpt>
      <trkpt lat="37.568277000" lon="-4.235435000">
        <ele>460.4</ele>
        <time>2020-10-15T12:14:02Z</time>
      </trkpt>
      <trkpt lat="37.568188000" lon="-4.235475000">
        <ele>460.7</ele>
        <time>2020-10-15T12:14:07Z</time>
      </trkpt>
      <trkpt lat="37.568108000" lon="-4.235520000">
        <ele>461.2</ele>
        <time>2020-10-15T12:14:11Z</time>
      </trkpt>
      <trkpt lat="37.567985000" lon="-4.235601000">
        <ele>461.7</ele>
        <time>2020-10-15T12:14:14Z</time>
      </trkpt>
      <trkpt lat="37.567910000" lon="-4.235656000">
        <ele>462.2</ele>
        <time>2020-10-15T12:14:15Z</time>
      </trkpt>
      <trkpt lat="37.567780000" lon="-4.235738000">
        <ele>462.6</ele>
        <time>2020-10-15T12:14:17Z</time>
      </trkpt>
      <trkpt lat="37.567648000" lon="-4.235828000">
        <ele>463.1</ele>
        <time>2020-10-15T12:14:19Z</time>
      </trkpt>
      <trkpt lat="37.567536000" lon="-4.235919000">
        <ele>463.5</ele>
        <time>2020-10-15T12:14:21Z</time>
      </trkpt>
      <trkpt lat="37.567439000" lon="-4.236009000">
        <ele>463.8</ele>
        <time>2020-10-15T12:14:23Z</time>
      </trkpt>
      <trkpt lat="37.567356000" lon="-4.236097000">
        <ele>464.1</ele>
        <time>2020-10-15T12:14:25Z</time>
      </trkpt>
      <trkpt lat="37.567283000" lon="-4.236184000">
        <ele>464.3</ele>
        <time>2020-10-15T12:14:27Z</time>
      </trkpt>
      <trkpt lat="37.567213000" lon="-4.236273000">
        <ele>464.4</ele>
        <time>2020-10-15T12:14:29Z</time>
      </trkpt>
      <trkpt lat="37.567147000" lon="-4.236358000">
        <ele>464.3</ele>
        <time>2020-10-15T12:14:31Z</time>
      </trkpt>
      <trkpt lat="37.567087000" lon="-4.236445000">
        <ele>464.1</ele>
        <time>2020-10-15T12:14:33Z</time>
      </trkpt>
      <trkpt lat="37.567030000" lon="-4.236527000">
        <ele>463.8</ele>
        <time>2020-10-15T12:14:35Z</time>
      </trkpt>
      <trkpt lat="37.566975000" lon="-4.236607000">
        <ele>463.5</ele>
        <time>2020-10-15T12:14:37Z</time>
      </trkpt>
      <trkpt lat="37.566922000" lon="-4.236689000">
        <ele>463.1</ele>
        <time>2020-10-15T12:14:39Z</time>
      </trkpt>
      <trkpt lat="37.566878000" lon="-4.236781000">
        <ele>462.6</ele>
        <time>2020-10-15T12:14:41Z</time>
      </trkpt>
      <trkpt lat="37.566830000" lon="-4.236871000">
        <ele>462.3</ele>
        <time>2020-10-15T12:14:43Z</time>
      </trkpt>
      <trkpt lat="37.566788000" lon="-4.236958000">
        <ele>462.0</ele>
        <time>2020-10-15T12:14:45Z</time>
      </trkpt>
      <trkpt lat="37.566747000" lon="-4.237047000">
        <ele>461.9</ele>
        <time>2020-10-15T12:14:47Z</time>
      </trkpt>
      <trkpt lat="37.566706000" lon="-4.237136000">
        <ele>461.9</ele>
        <time>2020-10-15T12:14:49Z</time>
      </trkpt>
      <trkpt lat="37.566649000" lon="-4.237271000">
        <ele>462.2</ele>
        <time>2020-10-15T12:14:52Z</time>
      </trkpt>
      <trkpt lat="37.566598000" lon="-4.237404000">
        <ele>462.6</ele>
        <time>2020-10-15T12:14:55Z</time>
      </trkpt>
      <trkpt lat="37.566546000" lon="-4.237533000">
        <ele>463.3</ele>
        <time>2020-10-15T12:14:58Z</time>
      </trkpt>
      <trkpt lat="37.566503000" lon="-4.237667000">
        <ele>463.9</ele>
        <time>2020-10-15T12:15:01Z</time>
      </trkpt>
      <trkpt lat="37.566455000" lon="-4.237797000">
        <ele>464.7</ele>
        <time>2020-10-15T12:15:04Z</time>
      </trkpt>
      <trkpt lat="37.566408000" lon="-4.237926000">
        <ele>465.5</ele>
        <time>2020-10-15T12:15:07Z</time>
      </trkpt>
      <trkpt lat="37.566359000" lon="-4.238053000">
        <ele>466.3</ele>
        <time>2020-10-15T12:15:10Z</time>
      </trkpt>
      <trkpt lat="37.566311000" lon="-4.238180000">
        <ele>467.1</ele>
        <time>2020-10-15T12:15:13Z</time>
      </trkpt>
      <trkpt lat="37.566264000" lon="-4.238303000">
        <ele>467.8</ele>
        <time>2020-10-15T12:15:16Z</time>
      </trkpt>
      <trkpt lat="37.566219000" lon="-4.238430000">
        <ele>468.5</ele>
        <time>2020-10-15T12:15:19Z</time>
      </trkpt>
      <trkpt lat="37.566170000" lon="-4.238558000">
        <ele>469.0</ele>
        <time>2020-10-15T12:15:22Z</time>
      </trkpt>
      <trkpt lat="37.566110000" lon="-4.238679000">
        <ele>469.5</ele>
        <time>2020-10-15T12:15:25Z</time>
      </trkpt>
      <trkpt lat="37.566046000" lon="-4.238802000">
        <ele>469.9</ele>
        <time>2020-10-15T12:15:28Z</time>
      </trkpt>
      <trkpt lat="37.565972000" lon="-4.238918000">
        <ele>470.2</ele>
        <time>2020-10-15T12:15:31Z</time>
      </trkpt>
      <trkpt lat="37.565901000" lon="-4.239030000">
        <ele>470.5</ele>
        <time>2020-10-15T12:15:34Z</time>
      </trkpt>
      <trkpt lat="37.565831000" lon="-4.239143000">
        <ele>470.6</ele>
        <time>2020-10-15T12:15:37Z</time>
      </trkpt>
      <trkpt lat="37.565759000" lon="-4.239257000">
        <ele>470.9</ele>
        <time>2020-10-15T12:15:40Z</time>
      </trkpt>
      <trkpt lat="37.565682000" lon="-4.239373000">
        <ele>471.2</ele>
        <time>2020-10-15T12:15:43Z</time>
      </trkpt>
      <trkpt lat="37.565607000" lon="-4.239487000">
        <ele>471.3</ele>
        <time>2020-10-15T12:15:46Z</time>
      </trkpt>
      <trkpt lat="37.565531000" lon="-4.239602000">
        <ele>471.3</ele>
        <time>2020-10-15T12:15:49Z</time>
      </trkpt>
      <trkpt lat="37.565460000" lon="-4.239713000">
        <ele>471.1</ele>
        <time>2020-10-15T12:15:52Z</time>
      </trkpt>
      <trkpt lat="37.565387000" lon="-4.239826000">
        <ele>470.8</ele>
        <time>2020-10-15T12:15:55Z</time>
      </trkpt>
      <trkpt lat="37.565321000" lon="-4.239944000">
        <ele>470.3</ele>
        <time>2020-10-15T12:15:58Z</time>
      </trkpt>
      <trkpt lat="37.565255000" lon="-4.240064000">
        <ele>469.5</ele>
        <time>2020-10-15T12:16:01Z</time>
      </trkpt>
      <trkpt lat="37.565185000" lon="-4.240178000">
        <ele>468.7</ele>
        <time>2020-10-15T12:16:04Z</time>
      </trkpt>
      <trkpt lat="37.565121000" lon="-4.240295000">
        <ele>467.9</ele>
        <time>2020-10-15T12:16:07Z</time>
      </trkpt>
      <trkpt lat="37.565060000" lon="-4.240413000">
        <ele>467.1</ele>
        <time>2020-10-15T12:16:10Z</time>
      </trkpt>
      <trkpt lat="37.565004000" lon="-4.240540000">
        <ele>466.4</ele>
        <time>2020-10-15T12:16:13Z</time>
      </trkpt>
      <trkpt lat="37.564953000" lon="-4.240669000">
        <ele>465.8</ele>
        <time>2020-10-15T12:16:16Z</time>
      </trkpt>
      <trkpt lat="37.564905000" lon="-4.240800000">
        <ele>465.4</ele>
        <time>2020-10-15T12:16:19Z</time>
      </trkpt>
      <trkpt lat="37.564860000" lon="-4.240934000">
        <ele>465.1</ele>
        <time>2020-10-15T12:16:22Z</time>
      </trkpt>
      <trkpt lat="37.564816000" lon="-4.241069000">
        <ele>465.1</ele>
        <time>2020-10-15T12:16:25Z</time>
      </trkpt>
      <trkpt lat="37.564771000" lon="-4.241207000">
        <ele>465.3</ele>
        <time>2020-10-15T12:16:28Z</time>
      </trkpt>
      <trkpt lat="37.564731000" lon="-4.241342000">
        <ele>465.7</ele>
        <time>2020-10-15T12:16:31Z</time>
      </trkpt>
      <trkpt lat="37.564701000" lon="-4.241480000">
        <ele>466.4</ele>
        <time>2020-10-15T12:16:34Z</time>
      </trkpt>
      <trkpt lat="37.564672000" lon="-4.241618000">
        <ele>467.2</ele>
        <time>2020-10-15T12:16:37Z</time>
      </trkpt>
      <trkpt lat="37.564644000" lon="-4.241755000">
        <ele>468.0</ele>
        <time>2020-10-15T12:16:40Z</time>
      </trkpt>
      <trkpt lat="37.564625000" lon="-4.241900000">
        <ele>468.9</ele>
        <time>2020-10-15T12:16:43Z</time>
      </trkpt>
      <trkpt lat="37.564611000" lon="-4.242048000">
        <ele>469.8</ele>
        <time>2020-10-15T12:16:46Z</time>
      </trkpt>
      <trkpt lat="37.564596000" lon="-4.242195000">
        <ele>470.5</ele>
        <time>2020-10-15T12:16:49Z</time>
      </trkpt>
      <trkpt lat="37.564586000" lon="-4.242346000">
        <ele>471.4</ele>
        <time>2020-10-15T12:16:52Z</time>
      </trkpt>
      <trkpt lat="37.564576000" lon="-4.242496000">
        <ele>472.2</ele>
        <time>2020-10-15T12:16:55Z</time>
      </trkpt>
      <trkpt lat="37.564570000" lon="-4.242643000">
        <ele>473.0</ele>
        <time>2020-10-15T12:16:58Z</time>
      </trkpt>
      <trkpt lat="37.564565000" lon="-4.242791000">
        <ele>473.7</ele>
        <time>2020-10-15T12:17:01Z</time>
      </trkpt>
      <trkpt lat="37.564572000" lon="-4.242937000">
        <ele>474.5</ele>
        <time>2020-10-15T12:17:04Z</time>
      </trkpt>
      <trkpt lat="37.564579000" lon="-4.243083000">
        <ele>475.1</ele>
        <time>2020-10-15T12:17:07Z</time>
      </trkpt>
      <trkpt lat="37.564588000" lon="-4.243229000">
        <ele>475.6</ele>
        <time>2020-10-15T12:17:10Z</time>
      </trkpt>
      <trkpt lat="37.564596000" lon="-4.243372000">
        <ele>476.2</ele>
        <time>2020-10-15T12:17:13Z</time>
      </trkpt>
      <trkpt lat="37.564609000" lon="-4.243515000">
        <ele>476.5</ele>
        <time>2020-10-15T12:17:16Z</time>
      </trkpt>
      <trkpt lat="37.564624000" lon="-4.243655000">
        <ele>476.8</ele>
        <time>2020-10-15T12:17:19Z</time>
      </trkpt>
      <trkpt lat="37.564648000" lon="-4.243787000">
        <ele>477.1</ele>
        <time>2020-10-15T12:17:22Z</time>
      </trkpt>
      <trkpt lat="37.564676000" lon="-4.243920000">
        <ele>477.1</ele>
        <time>2020-10-15T12:17:25Z</time>
      </trkpt>
      <trkpt lat="37.564704000" lon="-4.244054000">
        <ele>476.9</ele>
        <time>2020-10-15T12:17:28Z</time>
      </trkpt>
      <trkpt lat="37.564733000" lon="-4.244188000">
        <ele>476.6</ele>
        <time>2020-10-15T12:17:31Z</time>
      </trkpt>
      <trkpt lat="37.564767000" lon="-4.244323000">
        <ele>476.3</ele>
        <time>2020-10-15T12:17:34Z</time>
      </trkpt>
      <trkpt lat="37.564809000" lon="-4.244457000">
        <ele>475.8</ele>
        <time>2020-10-15T12:17:37Z</time>
      </trkpt>
      <trkpt lat="37.564860000" lon="-4.244586000">
        <ele>475.3</ele>
        <time>2020-10-15T12:17:40Z</time>
      </trkpt>
      <trkpt lat="37.564908000" lon="-4.244713000">
        <ele>474.7</ele>
        <time>2020-10-15T12:17:43Z</time>
      </trkpt>
      <trkpt lat="37.564963000" lon="-4.244838000">
        <ele>474.2</ele>
        <time>2020-10-15T12:17:46Z</time>
      </trkpt>
      <trkpt lat="37.565005000" lon="-4.244946000">
        <ele>473.8</ele>
        <time>2020-10-15T12:17:48Z</time>
      </trkpt>
      <trkpt lat="37.565051000" lon="-4.245042000">
        <ele>473.5</ele>
        <time>2020-10-15T12:17:50Z</time>
      </trkpt>
      <trkpt lat="37.565092000" lon="-4.245131000">
        <ele>473.3</ele>
        <time>2020-10-15T12:17:52Z</time>
      </trkpt>
      <trkpt lat="37.565155000" lon="-4.245259000">
        <ele>473.3</ele>
        <time>2020-10-15T12:17:55Z</time>
      </trkpt>
      <trkpt lat="37.565202000" lon="-4.245358000">
        <ele>473.5</ele>
        <time>2020-10-15T12:17:57Z</time>
      </trkpt>
      <trkpt lat="37.565246000" lon="-4.245446000">
        <ele>473.7</ele>
        <time>2020-10-15T12:17:59Z</time>
      </trkpt>
      <trkpt lat="37.565309000" lon="-4.245558000">
        <ele>474.1</ele>
        <time>2020-10-15T12:18:02Z</time>
      </trkpt>
      <trkpt lat="37.565365000" lon="-4.245643000">
        <ele>474.5</ele>
        <time>2020-10-15T12:18:04Z</time>
      </trkpt>
      <trkpt lat="37.565421000" lon="-4.245733000">
        <ele>475.1</ele>
        <time>2020-10-15T12:18:06Z</time>
      </trkpt>
      <trkpt lat="37.565476000" lon="-4.245813000">
        <ele>475.7</ele>
        <time>2020-10-15T12:18:08Z</time>
      </trkpt>
      <trkpt lat="37.565563000" lon="-4.245914000">
        <ele>476.4</ele>
        <time>2020-10-15T12:18:11Z</time>
      </trkpt>
      <trkpt lat="37.565642000" lon="-4.246017000">
        <ele>476.9</ele>
        <time>2020-10-15T12:18:14Z</time>
      </trkpt>
      <trkpt lat="37.565717000" lon="-4.246122000">
        <ele>477.4</ele>
        <time>2020-10-15T12:18:17Z</time>
      </trkpt>
      <trkpt lat="37.565789000" lon="-4.246227000">
        <ele>477.8</ele>
        <time>2020-10-15T12:18:20Z</time>
      </trkpt>
      <trkpt lat="37.565860000" lon="-4.246330000">
        <ele>478.2</ele>
        <time>2020-10-15T12:18:23Z</time>
      </trkpt>
      <trkpt lat="37.565930000" lon="-4.246432000">
        <ele>478.5</ele>
        <time>2020-10-15T12:18:26Z</time>
      </trkpt>
      <trkpt lat="37.566004000" lon="-4.246528000">
        <ele>478.5</ele>
        <time>2020-10-15T12:18:29Z</time>
      </trkpt>
      <trkpt lat="37.566077000" lon="-4.246628000">
        <ele>478.7</ele>
        <time>2020-10-15T12:18:32Z</time>
      </trkpt>
      <trkpt lat="37.566153000" lon="-4.246732000">
        <ele>478.8</ele>
        <time>2020-10-15T12:18:35Z</time>
      </trkpt>
      <trkpt lat="37.566228000" lon="-4.246833000">
        <ele>478.9</ele>
        <time>2020-10-15T12:18:38Z</time>
      </trkpt>
      <trkpt lat="37.566303000" lon="-4.246935000">
        <ele>478.9</ele>
        <time>2020-10-15T12:18:41Z</time>
      </trkpt>
      <trkpt lat="37.566379000" lon="-4.247032000">
        <ele>478.9</ele>
        <time>2020-10-15T12:18:44Z</time>
      </trkpt>
      <trkpt lat="37.566452000" lon="-4.247130000">
        <ele>479.0</ele>
        <time>2020-10-15T12:18:47Z</time>
      </trkpt>
      <trkpt lat="37.566520000" lon="-4.247229000">
        <ele>479.1</ele>
        <time>2020-10-15T12:18:50Z</time>
      </trkpt>
      <trkpt lat="37.566590000" lon="-4.247327000">
        <ele>479.2</ele>
        <time>2020-10-15T12:18:53Z</time>
      </trkpt>
      <trkpt lat="37.566662000" lon="-4.247427000">
        <ele>479.3</ele>
        <time>2020-10-15T12:18:56Z</time>
      </trkpt>
      <trkpt lat="37.566731000" lon="-4.247531000">
        <ele>479.4</ele>
        <time>2020-10-15T12:18:59Z</time>
      </trkpt>
      <trkpt lat="37.566801000" lon="-4.247635000">
        <ele>479.5</ele>
        <time>2020-10-15T12:19:02Z</time>
      </trkpt>
      <trkpt lat="37.566876000" lon="-4.247733000">
        <ele>479.6</ele>
        <time>2020-10-15T12:19:05Z</time>
      </trkpt>
      <trkpt lat="37.566949000" lon="-4.247835000">
        <ele>479.6</ele>
        <time>2020-10-15T12:19:08Z</time>
      </trkpt>
      <trkpt lat="37.567019000" lon="-4.247932000">
        <ele>479.6</ele>
        <time>2020-10-15T12:19:11Z</time>
      </trkpt>
      <trkpt lat="37.567090000" lon="-4.248029000">
        <ele>479.7</ele>
        <time>2020-10-15T12:19:14Z</time>
      </trkpt>
      <trkpt lat="37.567162000" lon="-4.248128000">
        <ele>479.8</ele>
        <time>2020-10-15T12:19:17Z</time>
      </trkpt>
      <trkpt lat="37.567230000" lon="-4.248231000">
        <ele>479.8</ele>
        <time>2020-10-15T12:19:20Z</time>
      </trkpt>
      <trkpt lat="37.567299000" lon="-4.248332000">
        <ele>479.8</ele>
        <time>2020-10-15T12:19:23Z</time>
      </trkpt>
      <trkpt lat="37.567369000" lon="-4.248430000">
        <ele>479.8</ele>
        <time>2020-10-15T12:19:26Z</time>
      </trkpt>
      <trkpt lat="37.567435000" lon="-4.248521000">
        <ele>479.8</ele>
        <time>2020-10-15T12:19:29Z</time>
      </trkpt>
      <trkpt lat="37.567498000" lon="-4.248612000">
        <ele>479.7</ele>
        <time>2020-10-15T12:19:32Z</time>
      </trkpt>
      <trkpt lat="37.567568000" lon="-4.248709000">
        <ele>479.6</ele>
        <time>2020-10-15T12:19:35Z</time>
      </trkpt>
      <trkpt lat="37.567645000" lon="-4.248808000">
        <ele>479.6</ele>
        <time>2020-10-15T12:19:38Z</time>
      </trkpt>
      <trkpt lat="37.567716000" lon="-4.248914000">
        <ele>479.7</ele>
        <time>2020-10-15T12:19:41Z</time>
      </trkpt>
      <trkpt lat="37.567787000" lon="-4.249009000">
        <ele>479.8</ele>
        <time>2020-10-15T12:19:44Z</time>
      </trkpt>
      <trkpt lat="37.567853000" lon="-4.249104000">
        <ele>479.8</ele>
        <time>2020-10-15T12:19:47Z</time>
      </trkpt>
      <trkpt lat="37.567918000" lon="-4.249199000">
        <ele>479.9</ele>
        <time>2020-10-15T12:19:50Z</time>
      </trkpt>
      <trkpt lat="37.567982000" lon="-4.249292000">
        <ele>480.1</ele>
        <time>2020-10-15T12:19:53Z</time>
      </trkpt>
      <trkpt lat="37.568046000" lon="-4.249383000">
        <ele>480.3</ele>
        <time>2020-10-15T12:19:56Z</time>
      </trkpt>
      <trkpt lat="37.568113000" lon="-4.249476000">
        <ele>480.5</ele>
        <time>2020-10-15T12:19:59Z</time>
      </trkpt>
      <trkpt lat="37.568178000" lon="-4.249572000">
        <ele>480.8</ele>
        <time>2020-10-15T12:20:02Z</time>
      </trkpt>
      <trkpt lat="37.568243000" lon="-4.249666000">
        <ele>481.2</ele>
        <time>2020-10-15T12:20:05Z</time>
      </trkpt>
      <trkpt lat="37.568308000" lon="-4.249767000">
        <ele>481.5</ele>
        <time>2020-10-15T12:20:08Z</time>
      </trkpt>
      <trkpt lat="37.568377000" lon="-4.249877000">
        <ele>481.9</ele>
        <time>2020-10-15T12:20:11Z</time>
      </trkpt>
      <trkpt lat="37.568446000" lon="-4.249988000">
        <ele>482.3</ele>
        <time>2020-10-15T12:20:14Z</time>
      </trkpt>
      <trkpt lat="37.568515000" lon="-4.250104000">
        <ele>482.6</ele>
        <time>2020-10-15T12:20:17Z</time>
      </trkpt>
      <trkpt lat="37.568575000" lon="-4.250226000">
        <ele>483.0</ele>
        <time>2020-10-15T12:20:20Z</time>
      </trkpt>
      <trkpt lat="37.568631000" lon="-4.250349000">
        <ele>483.4</ele>
        <time>2020-10-15T12:20:23Z</time>
      </trkpt>
      <trkpt lat="37.568685000" lon="-4.250479000">
        <ele>483.6</ele>
        <time>2020-10-15T12:20:26Z</time>
      </trkpt>
      <trkpt lat="37.568739000" lon="-4.250607000">
        <ele>484.0</ele>
        <time>2020-10-15T12:20:29Z</time>
      </trkpt>
      <trkpt lat="37.568789000" lon="-4.250737000">
        <ele>484.3</ele>
        <time>2020-10-15T12:20:32Z</time>
      </trkpt>
      <trkpt lat="37.568834000" lon="-4.250875000">
        <ele>484.5</ele>
        <time>2020-10-15T12:20:35Z</time>
      </trkpt>
      <trkpt lat="37.568871000" lon="-4.251013000">
        <ele>484.8</ele>
        <time>2020-10-15T12:20:38Z</time>
      </trkpt>
      <trkpt lat="37.568905000" lon="-4.251150000">
        <ele>485.1</ele>
        <time>2020-10-15T12:20:41Z</time>
      </trkpt>
      <trkpt lat="37.568940000" lon="-4.251285000">
        <ele>485.2</ele>
        <time>2020-10-15T12:20:44Z</time>
      </trkpt>
      <trkpt lat="37.568973000" lon="-4.251425000">
        <ele>485.3</ele>
        <time>2020-10-15T12:20:47Z</time>
      </trkpt>
      <trkpt lat="37.569003000" lon="-4.251528000">
        <ele>485.4</ele>
        <time>2020-10-15T12:20:49Z</time>
      </trkpt>
      <trkpt lat="37.569032000" lon="-4.251670000">
        <ele>485.4</ele>
        <time>2020-10-15T12:20:52Z</time>
      </trkpt>
      <trkpt lat="37.569049000" lon="-4.251787000">
        <ele>485.3</ele>
        <time>2020-10-15T12:20:55Z</time>
      </trkpt>
      <trkpt lat="37.569074000" lon="-4.251920000">
        <ele>485.2</ele>
        <time>2020-10-15T12:20:58Z</time>
      </trkpt>
      <trkpt lat="37.569086000" lon="-4.252023000">
        <ele>485.0</ele>
        <time>2020-10-15T12:21:00Z</time>
      </trkpt>
      <trkpt lat="37.569099000" lon="-4.252125000">
        <ele>484.7</ele>
        <time>2020-10-15T12:21:02Z</time>
      </trkpt>
      <trkpt lat="37.569123000" lon="-4.252248000">
        <ele>484.5</ele>
        <time>2020-10-15T12:21:05Z</time>
      </trkpt>
      <trkpt lat="37.569147000" lon="-4.252380000">
        <ele>484.2</ele>
        <time>2020-10-15T12:21:08Z</time>
      </trkpt>
      <trkpt lat="37.569169000" lon="-4.252482000">
        <ele>484.0</ele>
        <time>2020-10-15T12:21:10Z</time>
      </trkpt>
      <trkpt lat="37.569191000" lon="-4.252581000">
        <ele>483.8</ele>
        <time>2020-10-15T12:21:12Z</time>
      </trkpt>
      <trkpt lat="37.569217000" lon="-4.252697000">
        <ele>483.6</ele>
        <time>2020-10-15T12:21:15Z</time>
      </trkpt>
      <trkpt lat="37.569239000" lon="-4.252817000">
        <ele>483.5</ele>
        <time>2020-10-15T12:21:18Z</time>
      </trkpt>
      <trkpt lat="37.569275000" lon="-4.252958000">
        <ele>483.4</ele>
        <time>2020-10-15T12:21:21Z</time>
      </trkpt>
      <trkpt lat="37.569315000" lon="-4.253091000">
        <ele>483.3</ele>
        <time>2020-10-15T12:21:24Z</time>
      </trkpt>
      <trkpt lat="37.569354000" lon="-4.253197000">
        <ele>483.3</ele>
        <time>2020-10-15T12:21:27Z</time>
      </trkpt>
      <trkpt lat="37.569392000" lon="-4.253318000">
        <ele>483.3</ele>
        <time>2020-10-15T12:21:30Z</time>
      </trkpt>
      <trkpt lat="37.569443000" lon="-4.253451000">
        <ele>483.5</ele>
        <time>2020-10-15T12:21:33Z</time>
      </trkpt>
      <trkpt lat="37.569502000" lon="-4.253576000">
        <ele>483.6</ele>
        <time>2020-10-15T12:21:36Z</time>
      </trkpt>
      <trkpt lat="37.569561000" lon="-4.253702000">
        <ele>483.8</ele>
        <time>2020-10-15T12:21:39Z</time>
      </trkpt>
      <trkpt lat="37.569628000" lon="-4.253824000">
        <ele>484.0</ele>
        <time>2020-10-15T12:21:42Z</time>
      </trkpt>
      <trkpt lat="37.569696000" lon="-4.253944000">
        <ele>484.3</ele>
        <time>2020-10-15T12:21:45Z</time>
      </trkpt>
      <trkpt lat="37.569764000" lon="-4.254068000">
        <ele>484.5</ele>
        <time>2020-10-15T12:21:48Z</time>
      </trkpt>
      <trkpt lat="37.569836000" lon="-4.254189000">
        <ele>484.9</ele>
        <time>2020-10-15T12:21:51Z</time>
      </trkpt>
      <trkpt lat="37.569919000" lon="-4.254296000">
        <ele>485.3</ele>
        <time>2020-10-15T12:21:54Z</time>
      </trkpt>
      <trkpt lat="37.570000000" lon="-4.254405000">
        <ele>485.6</ele>
        <time>2020-10-15T12:21:57Z</time>
      </trkpt>
      <trkpt lat="37.570090000" lon="-4.254505000">
        <ele>486.0</ele>
        <time>2020-10-15T12:22:00Z</time>
      </trkpt>
      <trkpt lat="37.570152000" lon="-4.254571000">
        <ele>486.4</ele>
        <time>2020-10-15T12:22:02Z</time>
      </trkpt>
      <trkpt lat="37.570238000" lon="-4.254665000">
        <ele>486.7</ele>
        <time>2020-10-15T12:22:05Z</time>
      </trkpt>
      <trkpt lat="37.570317000" lon="-4.254760000">
        <ele>487.1</ele>
        <time>2020-10-15T12:22:08Z</time>
      </trkpt>
      <trkpt lat="37.570397000" lon="-4.254858000">
        <ele>487.5</ele>
        <time>2020-10-15T12:22:11Z</time>
      </trkpt>
      <trkpt lat="37.570479000" lon="-4.254950000">
        <ele>487.9</ele>
        <time>2020-10-15T12:22:14Z</time>
      </trkpt>
      <trkpt lat="37.570559000" lon="-4.255040000">
        <ele>488.4</ele>
        <time>2020-10-15T12:22:17Z</time>
      </trkpt>
      <trkpt lat="37.570637000" lon="-4.255123000">
        <ele>488.8</ele>
        <time>2020-10-15T12:22:20Z</time>
      </trkpt>
      <trkpt lat="37.570711000" lon="-4.255202000">
        <ele>489.2</ele>
        <time>2020-10-15T12:22:23Z</time>
      </trkpt>
      <trkpt lat="37.570779000" lon="-4.255276000">
        <ele>489.5</ele>
        <time>2020-10-15T12:22:26Z</time>
      </trkpt>
      <trkpt lat="37.570843000" lon="-4.255342000">
        <ele>489.9</ele>
        <time>2020-10-15T12:22:29Z</time>
      </trkpt>
      <trkpt lat="37.570920000" lon="-4.255436000">
        <ele>490.3</ele>
        <time>2020-10-15T12:22:33Z</time>
      </trkpt>
      <trkpt lat="37.570985000" lon="-4.255525000">
        <ele>490.6</ele>
        <time>2020-10-15T12:22:36Z</time>
      </trkpt>
      <trkpt lat="37.571048000" lon="-4.255616000">
        <ele>490.9</ele>
        <time>2020-10-15T12:22:39Z</time>
      </trkpt>
      <trkpt lat="37.571119000" lon="-4.255702000">
        <ele>491.2</ele>
        <time>2020-10-15T12:22:42Z</time>
      </trkpt>
      <trkpt lat="37.571182000" lon="-4.255802000">
        <ele>491.4</ele>
        <time>2020-10-15T12:22:45Z</time>
      </trkpt>
      <trkpt lat="37.571232000" lon="-4.255888000">
        <ele>491.6</ele>
        <time>2020-10-15T12:22:48Z</time>
      </trkpt>
      <trkpt lat="37.571292000" lon="-4.255971000">
        <ele>491.8</ele>
        <time>2020-10-15T12:22:51Z</time>
      </trkpt>
      <trkpt lat="37.571353000" lon="-4.256069000">
        <ele>492.0</ele>
        <time>2020-10-15T12:22:54Z</time>
      </trkpt>
      <trkpt lat="37.571407000" lon="-4.256172000">
        <ele>492.2</ele>
        <time>2020-10-15T12:22:57Z</time>
      </trkpt>
      <trkpt lat="37.571464000" lon="-4.256276000">
        <ele>492.4</ele>
        <time>2020-10-15T12:23:00Z</time>
      </trkpt>
      <trkpt lat="37.571520000" lon="-4.256376000">
        <ele>492.6</ele>
        <time>2020-10-15T12:23:03Z</time>
      </trkpt>
      <trkpt lat="37.571569000" lon="-4.256483000">
        <ele>492.8</ele>
        <time>2020-10-15T12:23:06Z</time>
      </trkpt>
      <trkpt lat="37.571626000" lon="-4.256592000">
        <ele>493.0</ele>
        <time>2020-10-15T12:23:09Z</time>
      </trkpt>
      <trkpt lat="37.571674000" lon="-4.256713000">
        <ele>493.3</ele>
        <time>2020-10-15T12:23:12Z</time>
      </trkpt>
      <trkpt lat="37.571717000" lon="-4.256840000">
        <ele>493.5</ele>
        <time>2020-10-15T12:23:15Z</time>
      </trkpt>
      <trkpt lat="37.571750000" lon="-4.256965000">
        <ele>493.9</ele>
        <time>2020-10-15T12:23:18Z</time>
      </trkpt>
      <trkpt lat="37.571789000" lon="-4.257085000">
        <ele>494.3</ele>
        <time>2020-10-15T12:23:21Z</time>
      </trkpt>
      <trkpt lat="37.571823000" lon="-4.257214000">
        <ele>494.6</ele>
        <time>2020-10-15T12:23:24Z</time>
      </trkpt>
      <trkpt lat="37.571860000" lon="-4.257353000">
        <ele>495.1</ele>
        <time>2020-10-15T12:23:27Z</time>
      </trkpt>
      <trkpt lat="37.571891000" lon="-4.257496000">
        <ele>495.5</ele>
        <time>2020-10-15T12:23:30Z</time>
      </trkpt>
      <trkpt lat="37.571918000" lon="-4.257645000">
        <ele>496.0</ele>
        <time>2020-10-15T12:23:33Z</time>
      </trkpt>
      <trkpt lat="37.571943000" lon="-4.257792000">
        <ele>496.4</ele>
        <time>2020-10-15T12:23:37Z</time>
      </trkpt>
      <trkpt lat="37.571963000" lon="-4.257934000">
        <ele>496.6</ele>
        <time>2020-10-15T12:23:39Z</time>
      </trkpt>
      <trkpt lat="37.571985000" lon="-4.258078000">
        <ele>496.9</ele>
        <time>2020-10-15T12:23:42Z</time>
      </trkpt>
      <trkpt lat="37.572012000" lon="-4.258226000">
        <ele>497.1</ele>
        <time>2020-10-15T12:23:45Z</time>
      </trkpt>
      <trkpt lat="37.572029000" lon="-4.258326000">
        <ele>497.4</ele>
        <time>2020-10-15T12:23:47Z</time>
      </trkpt>
      <trkpt lat="37.572045000" lon="-4.258428000">
        <ele>497.5</ele>
        <time>2020-10-15T12:23:49Z</time>
      </trkpt>
      <trkpt lat="37.572063000" lon="-4.258530000">
        <ele>497.6</ele>
        <time>2020-10-15T12:23:51Z</time>
      </trkpt>
      <trkpt lat="37.572079000" lon="-4.258630000">
        <ele>497.6</ele>
        <time>2020-10-15T12:23:53Z</time>
      </trkpt>
      <trkpt lat="37.572099000" lon="-4.258730000">
        <ele>497.6</ele>
        <time>2020-10-15T12:23:55Z</time>
      </trkpt>
      <trkpt lat="37.572116000" lon="-4.258831000">
        <ele>497.6</ele>
        <time>2020-10-15T12:23:57Z</time>
      </trkpt>
      <trkpt lat="37.572133000" lon="-4.258931000">
        <ele>497.6</ele>
        <time>2020-10-15T12:23:59Z</time>
      </trkpt>
      <trkpt lat="37.572154000" lon="-4.259035000">
        <ele>497.6</ele>
        <time>2020-10-15T12:24:01Z</time>
      </trkpt>
      <trkpt lat="37.572177000" lon="-4.259141000">
        <ele>497.7</ele>
        <time>2020-10-15T12:24:03Z</time>
      </trkpt>
      <trkpt lat="37.572198000" lon="-4.259248000">
        <ele>497.8</ele>
        <time>2020-10-15T12:24:05Z</time>
      </trkpt>
      <trkpt lat="37.572216000" lon="-4.259353000">
        <ele>497.9</ele>
        <time>2020-10-15T12:24:07Z</time>
      </trkpt>
      <trkpt lat="37.572234000" lon="-4.259459000">
        <ele>497.9</ele>
        <time>2020-10-15T12:24:09Z</time>
      </trkpt>
      <trkpt lat="37.572251000" lon="-4.259565000">
        <ele>497.9</ele>
        <time>2020-10-15T12:24:11Z</time>
      </trkpt>
      <trkpt lat="37.572268000" lon="-4.259673000">
        <ele>497.8</ele>
        <time>2020-10-15T12:24:13Z</time>
      </trkpt>
      <trkpt lat="37.572292000" lon="-4.259782000">
        <ele>497.8</ele>
        <time>2020-10-15T12:24:15Z</time>
      </trkpt>
      <trkpt lat="37.572309000" lon="-4.259894000">
        <ele>497.7</ele>
        <time>2020-10-15T12:24:17Z</time>
      </trkpt>
      <trkpt lat="37.572321000" lon="-4.260006000">
        <ele>497.6</ele>
        <time>2020-10-15T12:24:19Z</time>
      </trkpt>
      <trkpt lat="37.572337000" lon="-4.260114000">
        <ele>497.5</ele>
        <time>2020-10-15T12:24:21Z</time>
      </trkpt>
      <trkpt lat="37.572367000" lon="-4.260264000">
        <ele>497.5</ele>
        <time>2020-10-15T12:24:24Z</time>
      </trkpt>
      <trkpt lat="37.572388000" lon="-4.260385000">
        <ele>497.4</ele>
        <time>2020-10-15T12:24:26Z</time>
      </trkpt>
      <trkpt lat="37.572401000" lon="-4.260495000">
        <ele>497.3</ele>
        <time>2020-10-15T12:24:28Z</time>
      </trkpt>
      <trkpt lat="37.572418000" lon="-4.260597000">
        <ele>497.2</ele>
        <time>2020-10-15T12:24:30Z</time>
      </trkpt>
      <trkpt lat="37.572438000" lon="-4.260743000">
        <ele>497.2</ele>
        <time>2020-10-15T12:24:33Z</time>
      </trkpt>
      <trkpt lat="37.572459000" lon="-4.260873000">
        <ele>497.3</ele>
        <time>2020-10-15T12:24:36Z</time>
      </trkpt>
      <trkpt lat="37.572485000" lon="-4.260989000">
        <ele>497.4</ele>
        <time>2020-10-15T12:24:39Z</time>
      </trkpt>
      <trkpt lat="37.572499000" lon="-4.261100000">
        <ele>497.4</ele>
        <time>2020-10-15T12:24:42Z</time>
      </trkpt>
      <trkpt lat="37.572545000" lon="-4.261198000">
        <ele>497.5</ele>
        <time>2020-10-15T12:24:46Z</time>
      </trkpt>
      <trkpt lat="37.572626000" lon="-4.261207000">
        <ele>497.5</ele>
        <time>2020-10-15T12:24:50Z</time>
      </trkpt>
      <trkpt lat="37.572717000" lon="-4.261207000">
        <ele>497.7</ele>
        <time>2020-10-15T12:24:55Z</time>
      </trkpt>
      <trkpt lat="37.572658000" lon="-4.261279000">
        <ele>497.9</ele>
        <time>2020-10-15T12:25:38Z</time>
      </trkpt>
      <trkpt lat="37.572562000" lon="-4.261327000">
        <ele>498.1</ele>
        <time>2020-10-15T12:25:43Z</time>
      </trkpt>
      <trkpt lat="37.572554000" lon="-4.261471000">
        <ele>498.4</ele>
        <time>2020-10-15T12:25:47Z</time>
      </trkpt>
      <trkpt lat="37.572584000" lon="-4.261620000">
        <ele>498.6</ele>
        <time>2020-10-15T12:25:50Z</time>
      </trkpt>
      <trkpt lat="37.572609000" lon="-4.261756000">
        <ele>498.8</ele>
        <time>2020-10-15T12:25:53Z</time>
      </trkpt>
      <trkpt lat="37.572624000" lon="-4.261874000">
        <ele>499.0</ele>
        <time>2020-10-15T12:25:56Z</time>
      </trkpt>
      <trkpt lat="37.572644000" lon="-4.261987000">
        <ele>499.3</ele>
        <time>2020-10-15T12:25:59Z</time>
      </trkpt>
      <trkpt lat="37.572671000" lon="-4.262101000">
        <ele>499.6</ele>
        <time>2020-10-15T12:26:02Z</time>
      </trkpt>
      <trkpt lat="37.572694000" lon="-4.262227000">
        <ele>499.9</ele>
        <time>2020-10-15T12:26:06Z</time>
      </trkpt>
      <trkpt lat="37.572705000" lon="-4.262332000">
        <ele>500.2</ele>
        <time>2020-10-15T12:26:10Z</time>
      </trkpt>
      <trkpt lat="37.572726000" lon="-4.262442000">
        <ele>500.5</ele>
        <time>2020-10-15T12:26:14Z</time>
      </trkpt>
      <trkpt lat="37.572747000" lon="-4.262566000">
        <ele>500.7</ele>
        <time>2020-10-15T12:26:19Z</time>
      </trkpt>
      <trkpt lat="37.572778000" lon="-4.262679000">
        <ele>501.0</ele>
        <time>2020-10-15T12:26:23Z</time>
      </trkpt>
      <trkpt lat="37.572810000" lon="-4.262823000">
        <ele>501.2</ele>
        <time>2020-10-15T12:26:27Z</time>
      </trkpt>
      <trkpt lat="37.572828000" lon="-4.262929000">
        <ele>501.4</ele>
        <time>2020-10-15T12:26:29Z</time>
      </trkpt>
      <trkpt lat="37.572844000" lon="-4.263043000">
        <ele>501.5</ele>
        <time>2020-10-15T12:26:31Z</time>
      </trkpt>
      <trkpt lat="37.572865000" lon="-4.263153000">
        <ele>501.5</ele>
        <time>2020-10-15T12:26:33Z</time>
      </trkpt>
      <trkpt lat="37.572888000" lon="-4.263298000">
        <ele>501.5</ele>
        <time>2020-10-15T12:26:36Z</time>
      </trkpt>
      <trkpt lat="37.572915000" lon="-4.263439000">
        <ele>501.5</ele>
        <time>2020-10-15T12:26:39Z</time>
      </trkpt>
      <trkpt lat="37.572937000" lon="-4.263556000">
        <ele>501.5</ele>
        <time>2020-10-15T12:26:41Z</time>
      </trkpt>
      <trkpt lat="37.572958000" lon="-4.263666000">
        <ele>501.5</ele>
        <time>2020-10-15T12:26:43Z</time>
      </trkpt>
      <trkpt lat="37.572991000" lon="-4.263807000">
        <ele>501.2</ele>
        <time>2020-10-15T12:26:46Z</time>
      </trkpt>
      <trkpt lat="37.573023000" lon="-4.263932000">
        <ele>500.8</ele>
        <time>2020-10-15T12:26:49Z</time>
      </trkpt>
      <trkpt lat="37.573051000" lon="-4.264077000">
        <ele>500.5</ele>
        <time>2020-10-15T12:26:52Z</time>
      </trkpt>
      <trkpt lat="37.573080000" lon="-4.264217000">
        <ele>500.1</ele>
        <time>2020-10-15T12:26:55Z</time>
      </trkpt>
      <trkpt lat="37.573105000" lon="-4.264338000">
        <ele>499.7</ele>
        <time>2020-10-15T12:26:58Z</time>
      </trkpt>
      <trkpt lat="37.573138000" lon="-4.264464000">
        <ele>499.4</ele>
        <time>2020-10-15T12:27:01Z</time>
      </trkpt>
      <trkpt lat="37.573158000" lon="-4.264599000">
        <ele>499.2</ele>
        <time>2020-10-15T12:27:04Z</time>
      </trkpt>
      <trkpt lat="37.573175000" lon="-4.264716000">
        <ele>499.0</ele>
        <time>2020-10-15T12:27:07Z</time>
      </trkpt>
      <trkpt lat="37.573192000" lon="-4.264819000">
        <ele>498.8</ele>
        <time>2020-10-15T12:27:09Z</time>
      </trkpt>
      <trkpt lat="37.573215000" lon="-4.264938000">
        <ele>498.6</ele>
        <time>2020-10-15T12:27:11Z</time>
      </trkpt>
      <trkpt lat="37.573233000" lon="-4.265038000">
        <ele>498.5</ele>
        <time>2020-10-15T12:27:13Z</time>
      </trkpt>
      <trkpt lat="37.573263000" lon="-4.265177000">
        <ele>498.5</ele>
        <time>2020-10-15T12:27:16Z</time>
      </trkpt>
      <trkpt lat="37.573279000" lon="-4.265283000">
        <ele>498.6</ele>
        <time>2020-10-15T12:27:18Z</time>
      </trkpt>
      <trkpt lat="37.573301000" lon="-4.265388000">
        <ele>498.7</ele>
        <time>2020-10-15T12:27:20Z</time>
      </trkpt>
      <trkpt lat="37.573326000" lon="-4.265507000">
        <ele>498.7</ele>
        <time>2020-10-15T12:27:22Z</time>
      </trkpt>
      <trkpt lat="37.573351000" lon="-4.265627000">
        <ele>498.7</ele>
        <time>2020-10-15T12:27:24Z</time>
      </trkpt>
      <trkpt lat="37.573367000" lon="-4.265728000">
        <ele>498.7</ele>
        <time>2020-10-15T12:27:26Z</time>
      </trkpt>
      <trkpt lat="37.573387000" lon="-4.265872000">
        <ele>498.6</ele>
        <time>2020-10-15T12:27:29Z</time>
      </trkpt>
      <trkpt lat="37.573411000" lon="-4.265978000">
        <ele>498.5</ele>
        <time>2020-10-15T12:27:31Z</time>
      </trkpt>
      <trkpt lat="37.573432000" lon="-4.266104000">
        <ele>498.5</ele>
        <time>2020-10-15T12:27:33Z</time>
      </trkpt>
      <trkpt lat="37.573445000" lon="-4.266241000">
        <ele>498.4</ele>
        <time>2020-10-15T12:27:35Z</time>
      </trkpt>
      <trkpt lat="37.573460000" lon="-4.266363000">
        <ele>498.3</ele>
        <time>2020-10-15T12:27:37Z</time>
      </trkpt>
      <trkpt lat="37.573470000" lon="-4.266475000">
        <ele>498.2</ele>
        <time>2020-10-15T12:27:39Z</time>
      </trkpt>
      <trkpt lat="37.573487000" lon="-4.266630000">
        <ele>498.2</ele>
        <time>2020-10-15T12:27:42Z</time>
      </trkpt>
      <trkpt lat="37.573497000" lon="-4.266744000">
        <ele>498.2</ele>
        <time>2020-10-15T12:27:44Z</time>
      </trkpt>
      <trkpt lat="37.573495000" lon="-4.266865000">
        <ele>498.2</ele>
        <time>2020-10-15T12:27:46Z</time>
      </trkpt>
      <trkpt lat="37.573498000" lon="-4.267000000">
        <ele>498.2</ele>
        <time>2020-10-15T12:27:48Z</time>
      </trkpt>
      <trkpt lat="37.573504000" lon="-4.267122000">
        <ele>498.2</ele>
        <time>2020-10-15T12:27:50Z</time>
      </trkpt>
      <trkpt lat="37.573503000" lon="-4.267237000">
        <ele>498.2</ele>
        <time>2020-10-15T12:27:52Z</time>
      </trkpt>
      <trkpt lat="37.573498000" lon="-4.267395000">
        <ele>498.2</ele>
        <time>2020-10-15T12:27:55Z</time>
      </trkpt>
      <trkpt lat="37.573496000" lon="-4.267512000">
        <ele>498.2</ele>
        <time>2020-10-15T12:27:57Z</time>
      </trkpt>
      <trkpt lat="37.573494000" lon="-4.267622000">
        <ele>498.1</ele>
        <time>2020-10-15T12:27:59Z</time>
      </trkpt>
      <trkpt lat="37.573488000" lon="-4.267727000">
        <ele>498.0</ele>
        <time>2020-10-15T12:28:01Z</time>
      </trkpt>
      <trkpt lat="37.573478000" lon="-4.267878000">
        <ele>498.0</ele>
        <time>2020-10-15T12:28:04Z</time>
      </trkpt>
      <trkpt lat="37.573469000" lon="-4.267990000">
        <ele>497.9</ele>
        <time>2020-10-15T12:28:06Z</time>
      </trkpt>
      <trkpt lat="37.573460000" lon="-4.268095000">
        <ele>497.9</ele>
        <time>2020-10-15T12:28:08Z</time>
      </trkpt>
      <trkpt lat="37.573447000" lon="-4.268199000">
        <ele>498.2</ele>
        <time>2020-10-15T12:28:10Z</time>
      </trkpt>
      <trkpt lat="37.573432000" lon="-4.268302000">
        <ele>498.5</ele>
        <time>2020-10-15T12:28:12Z</time>
      </trkpt>
      <trkpt lat="37.573418000" lon="-4.268439000">
        <ele>498.9</ele>
        <time>2020-10-15T12:28:15Z</time>
      </trkpt>
      <trkpt lat="37.573391000" lon="-4.268583000">
        <ele>499.3</ele>
        <time>2020-10-15T12:28:18Z</time>
      </trkpt>
      <trkpt lat="37.573375000" lon="-4.268715000">
        <ele>499.7</ele>
        <time>2020-10-15T12:28:21Z</time>
      </trkpt>
      <trkpt lat="37.573345000" lon="-4.268830000">
        <ele>500.1</ele>
        <time>2020-10-15T12:28:24Z</time>
      </trkpt>
      <trkpt lat="37.573311000" lon="-4.268990000">
        <ele>500.5</ele>
        <time>2020-10-15T12:28:27Z</time>
      </trkpt>
      <trkpt lat="37.573282000" lon="-4.269117000">
        <ele>500.9</ele>
        <time>2020-10-15T12:28:29Z</time>
      </trkpt>
      <trkpt lat="37.573256000" lon="-4.269231000">
        <ele>501.1</ele>
        <time>2020-10-15T12:28:31Z</time>
      </trkpt>
      <trkpt lat="37.573227000" lon="-4.269349000">
        <ele>501.2</ele>
        <time>2020-10-15T12:28:33Z</time>
      </trkpt>
      <trkpt lat="37.573190000" lon="-4.269467000">
        <ele>501.2</ele>
        <time>2020-10-15T12:28:35Z</time>
      </trkpt>
      <trkpt lat="37.573158000" lon="-4.269581000">
        <ele>501.0</ele>
        <time>2020-10-15T12:28:37Z</time>
      </trkpt>
      <trkpt lat="37.573120000" lon="-4.269704000">
        <ele>500.7</ele>
        <time>2020-10-15T12:28:39Z</time>
      </trkpt>
      <trkpt lat="37.573083000" lon="-4.269831000">
        <ele>500.4</ele>
        <time>2020-10-15T12:28:41Z</time>
      </trkpt>
      <trkpt lat="37.573049000" lon="-4.269955000">
        <ele>500.0</ele>
        <time>2020-10-15T12:28:43Z</time>
      </trkpt>
      <trkpt lat="37.573013000" lon="-4.270075000">
        <ele>499.5</ele>
        <time>2020-10-15T12:28:45Z</time>
      </trkpt>
      <trkpt lat="37.572976000" lon="-4.270196000">
        <ele>498.9</ele>
        <time>2020-10-15T12:28:48Z</time>
      </trkpt>
      <trkpt lat="37.572935000" lon="-4.270311000">
        <ele>498.4</ele>
        <time>2020-10-15T12:28:49Z</time>
      </trkpt>
      <trkpt lat="37.572895000" lon="-4.270430000">
        <ele>498.0</ele>
        <time>2020-10-15T12:28:51Z</time>
      </trkpt>
      <trkpt lat="37.572860000" lon="-4.270549000">
        <ele>497.7</ele>
        <time>2020-10-15T12:28:53Z</time>
      </trkpt>
      <trkpt lat="37.572827000" lon="-4.270670000">
        <ele>497.5</ele>
        <time>2020-10-15T12:28:55Z</time>
      </trkpt>
      <trkpt lat="37.572789000" lon="-4.270786000">
        <ele>497.4</ele>
        <time>2020-10-15T12:28:57Z</time>
      </trkpt>
      <trkpt lat="37.572754000" lon="-4.270908000">
        <ele>497.2</ele>
        <time>2020-10-15T12:28:59Z</time>
      </trkpt>
      <trkpt lat="37.572720000" lon="-4.271024000">
        <ele>497.0</ele>
        <time>2020-10-15T12:29:01Z</time>
      </trkpt>
      <trkpt lat="37.572681000" lon="-4.271146000">
        <ele>496.9</ele>
        <time>2020-10-15T12:29:03Z</time>
      </trkpt>
      <trkpt lat="37.572648000" lon="-4.271268000">
        <ele>496.6</ele>
        <time>2020-10-15T12:29:05Z</time>
      </trkpt>
      <trkpt lat="37.572613000" lon="-4.271392000">
        <ele>496.5</ele>
        <time>2020-10-15T12:29:07Z</time>
      </trkpt>
      <trkpt lat="37.572578000" lon="-4.271519000">
        <ele>496.3</ele>
        <time>2020-10-15T12:29:09Z</time>
      </trkpt>
      <trkpt lat="37.572534000" lon="-4.271640000">
        <ele>496.1</ele>
        <time>2020-10-15T12:29:11Z</time>
      </trkpt>
      <trkpt lat="37.572499000" lon="-4.271769000">
        <ele>495.7</ele>
        <time>2020-10-15T12:29:13Z</time>
      </trkpt>
      <trkpt lat="37.572456000" lon="-4.271903000">
        <ele>495.4</ele>
        <time>2020-10-15T12:29:15Z</time>
      </trkpt>
      <trkpt lat="37.572417000" lon="-4.272023000">
        <ele>495.0</ele>
        <time>2020-10-15T12:29:17Z</time>
      </trkpt>
      <trkpt lat="37.572380000" lon="-4.272150000">
        <ele>494.6</ele>
        <time>2020-10-15T12:29:19Z</time>
      </trkpt>
      <trkpt lat="37.572338000" lon="-4.272276000">
        <ele>494.2</ele>
        <time>2020-10-15T12:29:21Z</time>
      </trkpt>
      <trkpt lat="37.572307000" lon="-4.272406000">
        <ele>493.6</ele>
        <time>2020-10-15T12:29:23Z</time>
      </trkpt>
      <trkpt lat="37.572270000" lon="-4.272535000">
        <ele>493.0</ele>
        <time>2020-10-15T12:29:25Z</time>
      </trkpt>
      <trkpt lat="37.572232000" lon="-4.272662000">
        <ele>492.5</ele>
        <time>2020-10-15T12:29:27Z</time>
      </trkpt>
      <trkpt lat="37.572198000" lon="-4.272780000">
        <ele>492.2</ele>
        <time>2020-10-15T12:29:30Z</time>
      </trkpt>
      <trkpt lat="37.572159000" lon="-4.272906000">
        <ele>491.9</ele>
        <time>2020-10-15T12:29:31Z</time>
      </trkpt>
      <trkpt lat="37.572117000" lon="-4.273032000">
        <ele>491.7</ele>
        <time>2020-10-15T12:29:33Z</time>
      </trkpt>
      <trkpt lat="37.572080000" lon="-4.273157000">
        <ele>491.8</ele>
        <time>2020-10-15T12:29:35Z</time>
      </trkpt>
      <trkpt lat="37.572041000" lon="-4.273276000">
        <ele>492.0</ele>
        <time>2020-10-15T12:29:37Z</time>
      </trkpt>
      <trkpt lat="37.572006000" lon="-4.273393000">
        <ele>492.3</ele>
        <time>2020-10-15T12:29:39Z</time>
      </trkpt>
      <trkpt lat="37.571972000" lon="-4.273511000">
        <ele>492.5</ele>
        <time>2020-10-15T12:29:41Z</time>
      </trkpt>
      <trkpt lat="37.571947000" lon="-4.273616000">
        <ele>493.0</ele>
        <time>2020-10-15T12:29:43Z</time>
      </trkpt>
      <trkpt lat="37.571909000" lon="-4.273735000">
        <ele>493.5</ele>
        <time>2020-10-15T12:29:45Z</time>
      </trkpt>
      <trkpt lat="37.571876000" lon="-4.273840000">
        <ele>494.2</ele>
        <time>2020-10-15T12:29:47Z</time>
      </trkpt>
      <trkpt lat="37.571839000" lon="-4.273950000">
        <ele>494.8</ele>
        <time>2020-10-15T12:29:49Z</time>
      </trkpt>
      <trkpt lat="37.571807000" lon="-4.274053000">
        <ele>495.4</ele>
        <time>2020-10-15T12:29:51Z</time>
      </trkpt>
      <trkpt lat="37.571776000" lon="-4.274169000">
        <ele>495.8</ele>
        <time>2020-10-15T12:29:53Z</time>
      </trkpt>
      <trkpt lat="37.571736000" lon="-4.274271000">
        <ele>496.2</ele>
        <time>2020-10-15T12:29:55Z</time>
      </trkpt>
      <trkpt lat="37.571705000" lon="-4.274375000">
        <ele>496.4</ele>
        <time>2020-10-15T12:29:57Z</time>
      </trkpt>
      <trkpt lat="37.571679000" lon="-4.274476000">
        <ele>496.5</ele>
        <time>2020-10-15T12:29:59Z</time>
      </trkpt>
      <trkpt lat="37.571649000" lon="-4.274582000">
        <ele>496.5</ele>
        <time>2020-10-15T12:30:01Z</time>
      </trkpt>
      <trkpt lat="37.571614000" lon="-4.274688000">
        <ele>496.5</ele>
        <time>2020-10-15T12:30:03Z</time>
      </trkpt>
      <trkpt lat="37.571587000" lon="-4.274790000">
        <ele>496.5</ele>
        <time>2020-10-15T12:30:05Z</time>
      </trkpt>
      <trkpt lat="37.571557000" lon="-4.274894000">
        <ele>496.4</ele>
        <time>2020-10-15T12:30:07Z</time>
      </trkpt>
      <trkpt lat="37.571527000" lon="-4.274992000">
        <ele>496.3</ele>
        <time>2020-10-15T12:30:09Z</time>
      </trkpt>
      <trkpt lat="37.571496000" lon="-4.275089000">
        <ele>496.2</ele>
        <time>2020-10-15T12:30:11Z</time>
      </trkpt>
      <trkpt lat="37.571465000" lon="-4.275188000">
        <ele>496.1</ele>
        <time>2020-10-15T12:30:13Z</time>
      </trkpt>
      <trkpt lat="37.571435000" lon="-4.275287000">
        <ele>496.2</ele>
        <time>2020-10-15T12:30:15Z</time>
      </trkpt>
      <trkpt lat="37.571405000" lon="-4.275385000">
        <ele>496.3</ele>
        <time>2020-10-15T12:30:17Z</time>
      </trkpt>
      <trkpt lat="37.571375000" lon="-4.275483000">
        <ele>496.4</ele>
        <time>2020-10-15T12:30:19Z</time>
      </trkpt>
      <trkpt lat="37.571347000" lon="-4.275586000">
        <ele>496.5</ele>
        <time>2020-10-15T12:30:21Z</time>
      </trkpt>
      <trkpt lat="37.571319000" lon="-4.275690000">
        <ele>496.6</ele>
        <time>2020-10-15T12:30:23Z</time>
      </trkpt>
      <trkpt lat="37.571290000" lon="-4.275793000">
        <ele>496.9</ele>
        <time>2020-10-15T12:30:25Z</time>
      </trkpt>
      <trkpt lat="37.571263000" lon="-4.275896000">
        <ele>497.2</ele>
        <time>2020-10-15T12:30:27Z</time>
      </trkpt>
      <trkpt lat="37.571233000" lon="-4.275994000">
        <ele>497.5</ele>
        <time>2020-10-15T12:30:29Z</time>
      </trkpt>
      <trkpt lat="37.571204000" lon="-4.276091000">
        <ele>497.8</ele>
        <time>2020-10-15T12:30:31Z</time>
      </trkpt>
      <trkpt lat="37.571177000" lon="-4.276190000">
        <ele>498.3</ele>
        <time>2020-10-15T12:30:33Z</time>
      </trkpt>
      <trkpt lat="37.571137000" lon="-4.276332000">
        <ele>498.8</ele>
        <time>2020-10-15T12:30:36Z</time>
      </trkpt>
      <trkpt lat="37.571103000" lon="-4.276471000">
        <ele>499.3</ele>
        <time>2020-10-15T12:30:39Z</time>
      </trkpt>
      <trkpt lat="37.571068000" lon="-4.276614000">
        <ele>499.8</ele>
        <time>2020-10-15T12:30:42Z</time>
      </trkpt>
      <trkpt lat="37.571034000" lon="-4.276758000">
        <ele>500.4</ele>
        <time>2020-10-15T12:30:45Z</time>
      </trkpt>
      <trkpt lat="37.571005000" lon="-4.276899000">
        <ele>500.8</ele>
        <time>2020-10-15T12:30:48Z</time>
      </trkpt>
      <trkpt lat="37.570979000" lon="-4.277037000">
        <ele>501.3</ele>
        <time>2020-10-15T12:30:51Z</time>
      </trkpt>
      <trkpt lat="37.570952000" lon="-4.277173000">
        <ele>501.6</ele>
        <time>2020-10-15T12:30:54Z</time>
      </trkpt>
      <trkpt lat="37.570921000" lon="-4.277306000">
        <ele>502.1</ele>
        <time>2020-10-15T12:30:57Z</time>
      </trkpt>
      <trkpt lat="37.570894000" lon="-4.277442000">
        <ele>502.6</ele>
        <time>2020-10-15T12:31:00Z</time>
      </trkpt>
      <trkpt lat="37.570869000" lon="-4.277582000">
        <ele>503.1</ele>
        <time>2020-10-15T12:31:03Z</time>
      </trkpt>
      <trkpt lat="37.570850000" lon="-4.277718000">
        <ele>503.4</ele>
        <time>2020-10-15T12:31:06Z</time>
      </trkpt>
      <trkpt lat="37.570832000" lon="-4.277858000">
        <ele>503.5</ele>
        <time>2020-10-15T12:31:09Z</time>
      </trkpt>
      <trkpt lat="37.570818000" lon="-4.277964000">
        <ele>503.7</ele>
        <time>2020-10-15T12:31:11Z</time>
      </trkpt>
      <trkpt lat="37.570802000" lon="-4.278069000">
        <ele>503.7</ele>
        <time>2020-10-15T12:31:13Z</time>
      </trkpt>
      <trkpt lat="37.570787000" lon="-4.278175000">
        <ele>503.7</ele>
        <time>2020-10-15T12:31:15Z</time>
      </trkpt>
      <trkpt lat="37.570775000" lon="-4.278280000">
        <ele>503.7</ele>
        <time>2020-10-15T12:31:17Z</time>
      </trkpt>
      <trkpt lat="37.570766000" lon="-4.278383000">
        <ele>503.7</ele>
        <time>2020-10-15T12:31:19Z</time>
      </trkpt>
      <trkpt lat="37.570755000" lon="-4.278535000">
        <ele>503.8</ele>
        <time>2020-10-15T12:31:22Z</time>
      </trkpt>
      <trkpt lat="37.570744000" lon="-4.278637000">
        <ele>503.8</ele>
        <time>2020-10-15T12:31:24Z</time>
      </trkpt>
      <trkpt lat="37.570735000" lon="-4.278742000">
        <ele>503.7</ele>
        <time>2020-10-15T12:31:26Z</time>
      </trkpt>
      <trkpt lat="37.570725000" lon="-4.278849000">
        <ele>503.7</ele>
        <time>2020-10-15T12:31:28Z</time>
      </trkpt>
      <trkpt lat="37.570723000" lon="-4.278955000">
        <ele>504.0</ele>
        <time>2020-10-15T12:31:30Z</time>
      </trkpt>
      <trkpt lat="37.570715000" lon="-4.279065000">
        <ele>504.4</ele>
        <time>2020-10-15T12:31:32Z</time>
      </trkpt>
      <trkpt lat="37.570712000" lon="-4.279173000">
        <ele>504.7</ele>
        <time>2020-10-15T12:31:34Z</time>
      </trkpt>
      <trkpt lat="37.570705000" lon="-4.279277000">
        <ele>505.2</ele>
        <time>2020-10-15T12:31:36Z</time>
      </trkpt>
      <trkpt lat="37.570700000" lon="-4.279426000">
        <ele>505.6</ele>
        <time>2020-10-15T12:31:39Z</time>
      </trkpt>
      <trkpt lat="37.570699000" lon="-4.279573000">
        <ele>506.0</ele>
        <time>2020-10-15T12:31:42Z</time>
      </trkpt>
      <trkpt lat="37.570700000" lon="-4.279712000">
        <ele>506.4</ele>
        <time>2020-10-15T12:31:45Z</time>
      </trkpt>
      <trkpt lat="37.570700000" lon="-4.279851000">
        <ele>506.6</ele>
        <time>2020-10-15T12:31:48Z</time>
      </trkpt>
      <trkpt lat="37.570699000" lon="-4.279981000">
        <ele>506.8</ele>
        <time>2020-10-15T12:31:51Z</time>
      </trkpt>
      <trkpt lat="37.570699000" lon="-4.280103000">
        <ele>507.0</ele>
        <time>2020-10-15T12:31:54Z</time>
      </trkpt>
      <trkpt lat="37.570695000" lon="-4.280206000">
        <ele>507.2</ele>
        <time>2020-10-15T12:31:57Z</time>
      </trkpt>
      <trkpt lat="37.570696000" lon="-4.280311000">
        <ele>507.2</ele>
        <time>2020-10-15T12:32:01Z</time>
      </trkpt>
      <trkpt lat="37.570670000" lon="-4.280437000">
        <ele>507.1</ele>
        <time>2020-10-15T12:32:12Z</time>
      </trkpt>
      <trkpt lat="37.570655000" lon="-4.280540000">
        <ele>507.0</ele>
        <time>2020-10-15T12:32:15Z</time>
      </trkpt>
      <trkpt lat="37.570674000" lon="-4.280550000">
        <ele>506.8</ele>
        <time>2020-10-15T12:32:35Z</time>
      </trkpt>
      <trkpt lat="37.570695000" lon="-4.280864000">
        <ele>503.5</ele>
        <time>2020-10-15T12:48:15Z</time>
      </trkpt>
      <trkpt lat="37.570695000" lon="-4.280880000">
        <ele>503.3</ele>
        <time>2020-10-15T12:48:15Z</time>
      </trkpt>
      <trkpt lat="37.570696000" lon="-4.281003000">
        <ele>503.1</ele>
        <time>2020-10-15T12:48:21Z</time>
      </trkpt>
      <trkpt lat="37.570701000" lon="-4.281119000">
        <ele>503.0</ele>
        <time>2020-10-15T12:48:24Z</time>
      </trkpt>
      <trkpt lat="37.570705000" lon="-4.281241000">
        <ele>502.8</ele>
        <time>2020-10-15T12:48:27Z</time>
      </trkpt>
      <trkpt lat="37.570710000" lon="-4.281374000">
        <ele>502.6</ele>
        <time>2020-10-15T12:48:30Z</time>
      </trkpt>
      <trkpt lat="37.570707000" lon="-4.281513000">
        <ele>502.4</ele>
        <time>2020-10-15T12:48:33Z</time>
      </trkpt>
      <trkpt lat="37.570707000" lon="-4.281655000">
        <ele>502.2</ele>
        <time>2020-10-15T12:48:36Z</time>
      </trkpt>
      <trkpt lat="37.570709000" lon="-4.281804000">
        <ele>502.0</ele>
        <time>2020-10-15T12:48:39Z</time>
      </trkpt>
      <trkpt lat="37.570704000" lon="-4.281952000">
        <ele>502.0</ele>
        <time>2020-10-15T12:48:42Z</time>
      </trkpt>
      <trkpt lat="37.570706000" lon="-4.282054000">
        <ele>502.1</ele>
        <time>2020-10-15T12:48:44Z</time>
      </trkpt>
      <trkpt lat="37.570707000" lon="-4.282158000">
        <ele>502.3</ele>
        <time>2020-10-15T12:48:46Z</time>
      </trkpt>
      <trkpt lat="37.570705000" lon="-4.282261000">
        <ele>502.5</ele>
        <time>2020-10-15T12:48:48Z</time>
      </trkpt>
      <trkpt lat="37.570704000" lon="-4.282413000">
        <ele>502.9</ele>
        <time>2020-10-15T12:48:51Z</time>
      </trkpt>
      <trkpt lat="37.570704000" lon="-4.282565000">
        <ele>503.3</ele>
        <time>2020-10-15T12:48:54Z</time>
      </trkpt>
      <trkpt lat="37.570705000" lon="-4.282672000">
        <ele>503.8</ele>
        <time>2020-10-15T12:48:56Z</time>
      </trkpt>
      <trkpt lat="37.570708000" lon="-4.282777000">
        <ele>504.5</ele>
        <time>2020-10-15T12:48:58Z</time>
      </trkpt>
      <trkpt lat="37.570709000" lon="-4.282884000">
        <ele>505.2</ele>
        <time>2020-10-15T12:49:00Z</time>
      </trkpt>
      <trkpt lat="37.570711000" lon="-4.282988000">
        <ele>505.8</ele>
        <time>2020-10-15T12:49:02Z</time>
      </trkpt>
      <trkpt lat="37.570713000" lon="-4.283138000">
        <ele>506.5</ele>
        <time>2020-10-15T12:49:05Z</time>
      </trkpt>
      <trkpt lat="37.570712000" lon="-4.283286000">
        <ele>507.1</ele>
        <time>2020-10-15T12:49:08Z</time>
      </trkpt>
      <trkpt lat="37.570715000" lon="-4.283432000">
        <ele>507.6</ele>
        <time>2020-10-15T12:49:11Z</time>
      </trkpt>
      <trkpt lat="37.570717000" lon="-4.283572000">
        <ele>508.2</ele>
        <time>2020-10-15T12:49:14Z</time>
      </trkpt>
      <trkpt lat="37.570719000" lon="-4.283712000">
        <ele>508.8</ele>
        <time>2020-10-15T12:49:17Z</time>
      </trkpt>
      <trkpt lat="37.570723000" lon="-4.283857000">
        <ele>509.4</ele>
        <time>2020-10-15T12:49:20Z</time>
      </trkpt>
      <trkpt lat="37.570723000" lon="-4.284004000">
        <ele>510.0</ele>
        <time>2020-10-15T12:49:23Z</time>
      </trkpt>
      <trkpt lat="37.570723000" lon="-4.284150000">
        <ele>510.5</ele>
        <time>2020-10-15T12:49:26Z</time>
      </trkpt>
      <trkpt lat="37.570725000" lon="-4.284298000">
        <ele>511.0</ele>
        <time>2020-10-15T12:49:29Z</time>
      </trkpt>
      <trkpt lat="37.570721000" lon="-4.284441000">
        <ele>511.5</ele>
        <time>2020-10-15T12:49:32Z</time>
      </trkpt>
      <trkpt lat="37.570718000" lon="-4.284588000">
        <ele>511.9</ele>
        <time>2020-10-15T12:49:35Z</time>
      </trkpt>
      <trkpt lat="37.570719000" lon="-4.284733000">
        <ele>512.4</ele>
        <time>2020-10-15T12:49:38Z</time>
      </trkpt>
      <trkpt lat="37.570719000" lon="-4.284880000">
        <ele>512.7</ele>
        <time>2020-10-15T12:49:41Z</time>
      </trkpt>
      <trkpt lat="37.570715000" lon="-4.285024000">
        <ele>513.2</ele>
        <time>2020-10-15T12:49:44Z</time>
      </trkpt>
      <trkpt lat="37.570707000" lon="-4.285168000">
        <ele>513.5</ele>
        <time>2020-10-15T12:49:47Z</time>
      </trkpt>
      <trkpt lat="37.570702000" lon="-4.285310000">
        <ele>513.7</ele>
        <time>2020-10-15T12:49:50Z</time>
      </trkpt>
      <trkpt lat="37.570689000" lon="-4.285447000">
        <ele>513.9</ele>
        <time>2020-10-15T12:49:53Z</time>
      </trkpt>
      <trkpt lat="37.570679000" lon="-4.285583000">
        <ele>514.0</ele>
        <time>2020-10-15T12:49:56Z</time>
      </trkpt>
      <trkpt lat="37.570672000" lon="-4.285719000">
        <ele>514.1</ele>
        <time>2020-10-15T12:49:59Z</time>
      </trkpt>
      <trkpt lat="37.570663000" lon="-4.285857000">
        <ele>514.2</ele>
        <time>2020-10-15T12:50:02Z</time>
      </trkpt>
      <trkpt lat="37.570652000" lon="-4.285993000">
        <ele>514.3</ele>
        <time>2020-10-15T12:50:05Z</time>
      </trkpt>
      <trkpt lat="37.570637000" lon="-4.286129000">
        <ele>514.3</ele>
        <time>2020-10-15T12:50:08Z</time>
      </trkpt>
      <trkpt lat="37.570619000" lon="-4.286263000">
        <ele>514.3</ele>
        <time>2020-10-15T12:50:11Z</time>
      </trkpt>
      <trkpt lat="37.570601000" lon="-4.286403000">
        <ele>514.3</ele>
        <time>2020-10-15T12:50:14Z</time>
      </trkpt>
      <trkpt lat="37.570589000" lon="-4.286546000">
        <ele>514.2</ele>
        <time>2020-10-15T12:50:17Z</time>
      </trkpt>
      <trkpt lat="37.570562000" lon="-4.286687000">
        <ele>514.2</ele>
        <time>2020-10-15T12:50:20Z</time>
      </trkpt>
      <trkpt lat="37.570540000" lon="-4.286827000">
        <ele>514.4</ele>
        <time>2020-10-15T12:50:23Z</time>
      </trkpt>
      <trkpt lat="37.570519000" lon="-4.286962000">
        <ele>514.5</ele>
        <time>2020-10-15T12:50:26Z</time>
      </trkpt>
      <trkpt lat="37.570495000" lon="-4.287096000">
        <ele>514.7</ele>
        <time>2020-10-15T12:50:29Z</time>
      </trkpt>
      <trkpt lat="37.570469000" lon="-4.287229000">
        <ele>514.9</ele>
        <time>2020-10-15T12:50:32Z</time>
      </trkpt>
      <trkpt lat="37.570440000" lon="-4.287369000">
        <ele>515.1</ele>
        <time>2020-10-15T12:50:35Z</time>
      </trkpt>
      <trkpt lat="37.570414000" lon="-4.287512000">
        <ele>515.2</ele>
        <time>2020-10-15T12:50:38Z</time>
      </trkpt>
      <trkpt lat="37.570387000" lon="-4.287657000">
        <ele>515.4</ele>
        <time>2020-10-15T12:50:41Z</time>
      </trkpt>
      <trkpt lat="37.570363000" lon="-4.287799000">
        <ele>515.5</ele>
        <time>2020-10-15T12:50:44Z</time>
      </trkpt>
      <trkpt lat="37.570332000" lon="-4.287940000">
        <ele>515.5</ele>
        <time>2020-10-15T12:50:47Z</time>
      </trkpt>
      <trkpt lat="37.570305000" lon="-4.288084000">
        <ele>515.5</ele>
        <time>2020-10-15T12:50:50Z</time>
      </trkpt>
      <trkpt lat="37.570270000" lon="-4.288222000">
        <ele>515.5</ele>
        <time>2020-10-15T12:50:53Z</time>
      </trkpt>
      <trkpt lat="37.570234000" lon="-4.288358000">
        <ele>515.3</ele>
        <time>2020-10-15T12:50:56Z</time>
      </trkpt>
      <trkpt lat="37.570196000" lon="-4.288490000">
        <ele>515.1</ele>
        <time>2020-10-15T12:50:59Z</time>
      </trkpt>
      <trkpt lat="37.570156000" lon="-4.288622000">
        <ele>514.9</ele>
        <time>2020-10-15T12:51:02Z</time>
      </trkpt>
      <trkpt lat="37.570112000" lon="-4.288755000">
        <ele>514.7</ele>
        <time>2020-10-15T12:51:05Z</time>
      </trkpt>
      <trkpt lat="37.570067000" lon="-4.288888000">
        <ele>514.6</ele>
        <time>2020-10-15T12:51:08Z</time>
      </trkpt>
      <trkpt lat="37.570021000" lon="-4.289021000">
        <ele>514.5</ele>
        <time>2020-10-15T12:51:11Z</time>
      </trkpt>
      <trkpt lat="37.569974000" lon="-4.289155000">
        <ele>514.5</ele>
        <time>2020-10-15T12:51:14Z</time>
      </trkpt>
      <trkpt lat="37.569947000" lon="-4.289252000">
        <ele>514.7</ele>
        <time>2020-10-15T12:51:16Z</time>
      </trkpt>
      <trkpt lat="37.569917000" lon="-4.289347000">
        <ele>514.9</ele>
        <time>2020-10-15T12:51:18Z</time>
      </trkpt>
      <trkpt lat="37.569861000" lon="-4.289482000">
        <ele>515.3</ele>
        <time>2020-10-15T12:51:21Z</time>
      </trkpt>
      <trkpt lat="37.569814000" lon="-4.289622000">
        <ele>515.6</ele>
        <time>2020-10-15T12:51:24Z</time>
      </trkpt>
      <trkpt lat="37.569778000" lon="-4.289715000">
        <ele>516.1</ele>
        <time>2020-10-15T12:51:26Z</time>
      </trkpt>
      <trkpt lat="37.569745000" lon="-4.289810000">
        <ele>516.5</ele>
        <time>2020-10-15T12:51:28Z</time>
      </trkpt>
      <trkpt lat="37.569711000" lon="-4.289906000">
        <ele>517.1</ele>
        <time>2020-10-15T12:51:30Z</time>
      </trkpt>
      <trkpt lat="37.569675000" lon="-4.290001000">
        <ele>517.7</ele>
        <time>2020-10-15T12:51:32Z</time>
      </trkpt>
      <trkpt lat="37.569637000" lon="-4.290093000">
        <ele>518.3</ele>
        <time>2020-10-15T12:51:34Z</time>
      </trkpt>
      <trkpt lat="37.569582000" lon="-4.290226000">
        <ele>518.8</ele>
        <time>2020-10-15T12:51:37Z</time>
      </trkpt>
      <trkpt lat="37.569533000" lon="-4.290362000">
        <ele>519.3</ele>
        <time>2020-10-15T12:51:40Z</time>
      </trkpt>
      <trkpt lat="37.569498000" lon="-4.290455000">
        <ele>519.7</ele>
        <time>2020-10-15T12:51:42Z</time>
      </trkpt>
      <trkpt lat="37.569463000" lon="-4.290549000">
        <ele>520.2</ele>
        <time>2020-10-15T12:51:44Z</time>
      </trkpt>
      <trkpt lat="37.569423000" lon="-4.290640000">
        <ele>520.5</ele>
        <time>2020-10-15T12:51:46Z</time>
      </trkpt>
      <trkpt lat="37.569383000" lon="-4.290732000">
        <ele>521.0</ele>
        <time>2020-10-15T12:51:48Z</time>
      </trkpt>
      <trkpt lat="37.569350000" lon="-4.290828000">
        <ele>521.5</ele>
        <time>2020-10-15T12:51:50Z</time>
      </trkpt>
      <trkpt lat="37.569314000" lon="-4.290924000">
        <ele>521.9</ele>
        <time>2020-10-15T12:51:52Z</time>
      </trkpt>
      <trkpt lat="37.569274000" lon="-4.291016000">
        <ele>522.3</ele>
        <time>2020-10-15T12:51:54Z</time>
      </trkpt>
      <trkpt lat="37.569235000" lon="-4.291106000">
        <ele>522.5</ele>
        <time>2020-10-15T12:51:56Z</time>
      </trkpt>
      <trkpt lat="37.569196000" lon="-4.291196000">
        <ele>522.6</ele>
        <time>2020-10-15T12:51:58Z</time>
      </trkpt>
      <trkpt lat="37.569139000" lon="-4.291327000">
        <ele>522.6</ele>
        <time>2020-10-15T12:52:01Z</time>
      </trkpt>
      <trkpt lat="37.569087000" lon="-4.291458000">
        <ele>522.6</ele>
        <time>2020-10-15T12:52:04Z</time>
      </trkpt>
      <trkpt lat="37.569031000" lon="-4.291590000">
        <ele>522.5</ele>
        <time>2020-10-15T12:52:07Z</time>
      </trkpt>
      <trkpt lat="37.568975000" lon="-4.291724000">
        <ele>522.3</ele>
        <time>2020-10-15T12:52:10Z</time>
      </trkpt>
      <trkpt lat="37.568918000" lon="-4.291850000">
        <ele>522.0</ele>
        <time>2020-10-15T12:52:13Z</time>
      </trkpt>
      <trkpt lat="37.568860000" lon="-4.291976000">
        <ele>521.7</ele>
        <time>2020-10-15T12:52:16Z</time>
      </trkpt>
      <trkpt lat="37.568802000" lon="-4.292088000">
        <ele>521.4</ele>
        <time>2020-10-15T12:52:19Z</time>
      </trkpt>
      <trkpt lat="37.568741000" lon="-4.292212000">
        <ele>521.1</ele>
        <time>2020-10-15T12:52:22Z</time>
      </trkpt>
      <trkpt lat="37.568678000" lon="-4.292338000">
        <ele>520.8</ele>
        <time>2020-10-15T12:52:25Z</time>
      </trkpt>
      <trkpt lat="37.568615000" lon="-4.292466000">
        <ele>520.6</ele>
        <time>2020-10-15T12:52:28Z</time>
      </trkpt>
      <trkpt lat="37.568568000" lon="-4.292551000">
        <ele>520.6</ele>
        <time>2020-10-15T12:52:30Z</time>
      </trkpt>
      <trkpt lat="37.568526000" lon="-4.292640000">
        <ele>520.8</ele>
        <time>2020-10-15T12:52:32Z</time>
      </trkpt>
      <trkpt lat="37.568456000" lon="-4.292763000">
        <ele>521.0</ele>
        <time>2020-10-15T12:52:35Z</time>
      </trkpt>
      <trkpt lat="37.568388000" lon="-4.292881000">
        <ele>521.3</ele>
        <time>2020-10-15T12:52:38Z</time>
      </trkpt>
      <trkpt lat="37.568323000" lon="-4.292994000">
        <ele>521.5</ele>
        <time>2020-10-15T12:52:41Z</time>
      </trkpt>
      <trkpt lat="37.568259000" lon="-4.293112000">
        <ele>521.6</ele>
        <time>2020-10-15T12:52:44Z</time>
      </trkpt>
      <trkpt lat="37.568197000" lon="-4.293228000">
        <ele>521.7</ele>
        <time>2020-10-15T12:52:47Z</time>
      </trkpt>
      <trkpt lat="37.568134000" lon="-4.293342000">
        <ele>521.8</ele>
        <time>2020-10-15T12:52:50Z</time>
      </trkpt>
      <trkpt lat="37.568069000" lon="-4.293451000">
        <ele>521.8</ele>
        <time>2020-10-15T12:52:53Z</time>
      </trkpt>
      <trkpt lat="37.568006000" lon="-4.293560000">
        <ele>521.8</ele>
        <time>2020-10-15T12:52:56Z</time>
      </trkpt>
      <trkpt lat="37.567936000" lon="-4.293669000">
        <ele>521.7</ele>
        <time>2020-10-15T12:52:59Z</time>
      </trkpt>
      <trkpt lat="37.567860000" lon="-4.293786000">
        <ele>521.6</ele>
        <time>2020-10-15T12:53:02Z</time>
      </trkpt>
      <trkpt lat="37.567785000" lon="-4.293904000">
        <ele>521.5</ele>
        <time>2020-10-15T12:53:05Z</time>
      </trkpt>
      <trkpt lat="37.567732000" lon="-4.293982000">
        <ele>521.4</ele>
        <time>2020-10-15T12:53:07Z</time>
      </trkpt>
      <trkpt lat="37.567682000" lon="-4.294062000">
        <ele>521.3</ele>
        <time>2020-10-15T12:53:09Z</time>
      </trkpt>
      <trkpt lat="37.567609000" lon="-4.294178000">
        <ele>521.4</ele>
        <time>2020-10-15T12:53:12Z</time>
      </trkpt>
      <trkpt lat="37.567530000" lon="-4.294288000">
        <ele>521.5</ele>
        <time>2020-10-15T12:53:15Z</time>
      </trkpt>
      <trkpt lat="37.567450000" lon="-4.294398000">
        <ele>521.8</ele>
        <time>2020-10-15T12:53:18Z</time>
      </trkpt>
      <trkpt lat="37.567374000" lon="-4.294514000">
        <ele>522.2</ele>
        <time>2020-10-15T12:53:21Z</time>
      </trkpt>
      <trkpt lat="37.567298000" lon="-4.294623000">
        <ele>522.6</ele>
        <time>2020-10-15T12:53:24Z</time>
      </trkpt>
      <trkpt lat="37.567223000" lon="-4.294728000">
        <ele>523.2</ele>
        <time>2020-10-15T12:53:27Z</time>
      </trkpt>
      <trkpt lat="37.567143000" lon="-4.294835000">
        <ele>523.8</ele>
        <time>2020-10-15T12:53:30Z</time>
      </trkpt>
      <trkpt lat="37.567066000" lon="-4.294942000">
        <ele>524.5</ele>
        <time>2020-10-15T12:53:33Z</time>
      </trkpt>
      <trkpt lat="37.566991000" lon="-4.295046000">
        <ele>525.4</ele>
        <time>2020-10-15T12:53:36Z</time>
      </trkpt>
      <trkpt lat="37.566915000" lon="-4.295145000">
        <ele>526.1</ele>
        <time>2020-10-15T12:53:39Z</time>
      </trkpt>
      <trkpt lat="37.566841000" lon="-4.295242000">
        <ele>526.8</ele>
        <time>2020-10-15T12:53:42Z</time>
      </trkpt>
      <trkpt lat="37.566764000" lon="-4.295336000">
        <ele>527.5</ele>
        <time>2020-10-15T12:53:45Z</time>
      </trkpt>
      <trkpt lat="37.566684000" lon="-4.295428000">
        <ele>528.1</ele>
        <time>2020-10-15T12:53:48Z</time>
      </trkpt>
      <trkpt lat="37.566612000" lon="-4.295524000">
        <ele>528.6</ele>
        <time>2020-10-15T12:53:51Z</time>
      </trkpt>
      <trkpt lat="37.566521000" lon="-4.295633000">
        <ele>529.1</ele>
        <time>2020-10-15T12:53:54Z</time>
      </trkpt>
      <trkpt lat="37.566436000" lon="-4.295736000">
        <ele>529.5</ele>
        <time>2020-10-15T12:53:57Z</time>
      </trkpt>
      <trkpt lat="37.566363000" lon="-4.295830000">
        <ele>529.7</ele>
        <time>2020-10-15T12:54:00Z</time>
      </trkpt>
      <trkpt lat="37.566295000" lon="-4.295898000">
        <ele>529.8</ele>
        <time>2020-10-15T12:54:02Z</time>
      </trkpt>
      <trkpt lat="37.566229000" lon="-4.295974000">
        <ele>529.8</ele>
        <time>2020-10-15T12:54:04Z</time>
      </trkpt>
      <trkpt lat="37.566168000" lon="-4.296043000">
        <ele>529.7</ele>
        <time>2020-10-15T12:54:06Z</time>
      </trkpt>
      <trkpt lat="37.566083000" lon="-4.296129000">
        <ele>529.6</ele>
        <time>2020-10-15T12:54:09Z</time>
      </trkpt>
      <trkpt lat="37.566010000" lon="-4.296213000">
        <ele>529.5</ele>
        <time>2020-10-15T12:54:12Z</time>
      </trkpt>
      <trkpt lat="37.565919000" lon="-4.296307000">
        <ele>529.5</ele>
        <time>2020-10-15T12:54:15Z</time>
      </trkpt>
      <trkpt lat="37.565825000" lon="-4.296394000">
        <ele>529.4</ele>
        <time>2020-10-15T12:54:18Z</time>
      </trkpt>
      <trkpt lat="37.565745000" lon="-4.296480000">
        <ele>529.3</ele>
        <time>2020-10-15T12:54:21Z</time>
      </trkpt>
      <trkpt lat="37.565683000" lon="-4.296547000">
        <ele>529.2</ele>
        <time>2020-10-15T12:54:23Z</time>
      </trkpt>
      <trkpt lat="37.565613000" lon="-4.296626000">
        <ele>529.1</ele>
        <time>2020-10-15T12:54:25Z</time>
      </trkpt>
      <trkpt lat="37.565538000" lon="-4.296702000">
        <ele>529.1</ele>
        <time>2020-10-15T12:54:27Z</time>
      </trkpt>
      <trkpt lat="37.565469000" lon="-4.296765000">
        <ele>529.2</ele>
        <time>2020-10-15T12:54:29Z</time>
      </trkpt>
      <trkpt lat="37.565407000" lon="-4.296836000">
        <ele>529.3</ele>
        <time>2020-10-15T12:54:31Z</time>
      </trkpt>
      <trkpt lat="37.565309000" lon="-4.296921000">
        <ele>529.4</ele>
        <time>2020-10-15T12:54:34Z</time>
      </trkpt>
      <trkpt lat="37.565216000" lon="-4.297013000">
        <ele>529.5</ele>
        <time>2020-10-15T12:54:37Z</time>
      </trkpt>
      <trkpt lat="37.565126000" lon="-4.297101000">
        <ele>529.7</ele>
        <time>2020-10-15T12:54:40Z</time>
      </trkpt>
      <trkpt lat="37.565040000" lon="-4.297188000">
        <ele>529.9</ele>
        <time>2020-10-15T12:54:43Z</time>
      </trkpt>
      <trkpt lat="37.564959000" lon="-4.297280000">
        <ele>530.2</ele>
        <time>2020-10-15T12:54:46Z</time>
      </trkpt>
      <trkpt lat="37.564874000" lon="-4.297363000">
        <ele>530.5</ele>
        <time>2020-10-15T12:54:49Z</time>
      </trkpt>
      <trkpt lat="37.564792000" lon="-4.297445000">
        <ele>530.7</ele>
        <time>2020-10-15T12:54:52Z</time>
      </trkpt>
      <trkpt lat="37.564709000" lon="-4.297528000">
        <ele>531.0</ele>
        <time>2020-10-15T12:54:55Z</time>
      </trkpt>
      <trkpt lat="37.564632000" lon="-4.297614000">
        <ele>531.3</ele>
        <time>2020-10-15T12:54:58Z</time>
      </trkpt>
      <trkpt lat="37.564550000" lon="-4.297698000">
        <ele>531.5</ele>
        <time>2020-10-15T12:55:01Z</time>
      </trkpt>
      <trkpt lat="37.564468000" lon="-4.297784000">
        <ele>531.7</ele>
        <time>2020-10-15T12:55:04Z</time>
      </trkpt>
      <trkpt lat="37.564380000" lon="-4.297871000">
        <ele>531.9</ele>
        <time>2020-10-15T12:55:07Z</time>
      </trkpt>
      <trkpt lat="37.564291000" lon="-4.297957000">
        <ele>531.9</ele>
        <time>2020-10-15T12:55:10Z</time>
      </trkpt>
      <trkpt lat="37.564205000" lon="-4.298049000">
        <ele>531.9</ele>
        <time>2020-10-15T12:55:13Z</time>
      </trkpt>
      <trkpt lat="37.564120000" lon="-4.298138000">
        <ele>531.9</ele>
        <time>2020-10-15T12:55:16Z</time>
      </trkpt>
      <trkpt lat="37.564036000" lon="-4.298235000">
        <ele>531.8</ele>
        <time>2020-10-15T12:55:19Z</time>
      </trkpt>
      <trkpt lat="37.563951000" lon="-4.298326000">
        <ele>531.6</ele>
        <time>2020-10-15T12:55:22Z</time>
      </trkpt>
      <trkpt lat="37.563871000" lon="-4.298420000">
        <ele>531.5</ele>
        <time>2020-10-15T12:55:25Z</time>
      </trkpt>
      <trkpt lat="37.563797000" lon="-4.298521000">
        <ele>531.2</ele>
        <time>2020-10-15T12:55:28Z</time>
      </trkpt>
      <trkpt lat="37.563718000" lon="-4.298624000">
        <ele>530.8</ele>
        <time>2020-10-15T12:55:31Z</time>
      </trkpt>
      <trkpt lat="37.563646000" lon="-4.298733000">
        <ele>530.5</ele>
        <time>2020-10-15T12:55:34Z</time>
      </trkpt>
      <trkpt lat="37.563569000" lon="-4.298843000">
        <ele>530.4</ele>
        <time>2020-10-15T12:55:37Z</time>
      </trkpt>
      <trkpt lat="37.563497000" lon="-4.298963000">
        <ele>530.3</ele>
        <time>2020-10-15T12:55:40Z</time>
      </trkpt>
      <trkpt lat="37.563425000" lon="-4.299083000">
        <ele>530.5</ele>
        <time>2020-10-15T12:55:43Z</time>
      </trkpt>
      <trkpt lat="37.563359000" lon="-4.299199000">
        <ele>530.7</ele>
        <time>2020-10-15T12:55:46Z</time>
      </trkpt>
      <trkpt lat="37.563295000" lon="-4.299309000">
        <ele>531.1</ele>
        <time>2020-10-15T12:55:49Z</time>
      </trkpt>
      <trkpt lat="37.563241000" lon="-4.299422000">
        <ele>531.5</ele>
        <time>2020-10-15T12:55:52Z</time>
      </trkpt>
      <trkpt lat="37.563189000" lon="-4.299527000">
        <ele>532.1</ele>
        <time>2020-10-15T12:55:55Z</time>
      </trkpt>
      <trkpt lat="37.563143000" lon="-4.299623000">
        <ele>532.7</ele>
        <time>2020-10-15T12:55:58Z</time>
      </trkpt>
      <trkpt lat="37.563092000" lon="-4.299728000">
        <ele>533.5</ele>
        <time>2020-10-15T12:56:01Z</time>
      </trkpt>
      <trkpt lat="37.563056000" lon="-4.299853000">
        <ele>534.2</ele>
        <time>2020-10-15T12:56:04Z</time>
      </trkpt>
      <trkpt lat="37.563016000" lon="-4.299979000">
        <ele>534.9</ele>
        <time>2020-10-15T12:56:07Z</time>
      </trkpt>
      <trkpt lat="37.562991000" lon="-4.300098000">
        <ele>535.6</ele>
        <time>2020-10-15T12:56:10Z</time>
      </trkpt>
      <trkpt lat="37.562958000" lon="-4.300221000">
        <ele>536.4</ele>
        <time>2020-10-15T12:56:13Z</time>
      </trkpt>
      <trkpt lat="37.562928000" lon="-4.300351000">
        <ele>536.9</ele>
        <time>2020-10-15T12:56:16Z</time>
      </trkpt>
      <trkpt lat="37.562899000" lon="-4.300484000">
        <ele>537.4</ele>
        <time>2020-10-15T12:56:19Z</time>
      </trkpt>
      <trkpt lat="37.562870000" lon="-4.300624000">
        <ele>537.7</ele>
        <time>2020-10-15T12:56:22Z</time>
      </trkpt>
      <trkpt lat="37.562848000" lon="-4.300763000">
        <ele>538.0</ele>
        <time>2020-10-15T12:56:25Z</time>
      </trkpt>
      <trkpt lat="37.562829000" lon="-4.300896000">
        <ele>538.2</ele>
        <time>2020-10-15T12:56:28Z</time>
      </trkpt>
      <trkpt lat="37.562815000" lon="-4.301031000">
        <ele>538.3</ele>
        <time>2020-10-15T12:56:31Z</time>
      </trkpt>
      <trkpt lat="37.562801000" lon="-4.301164000">
        <ele>538.4</ele>
        <time>2020-10-15T12:56:34Z</time>
      </trkpt>
      <trkpt lat="37.562791000" lon="-4.301300000">
        <ele>538.4</ele>
        <time>2020-10-15T12:56:37Z</time>
      </trkpt>
      <trkpt lat="37.562783000" lon="-4.301433000">
        <ele>538.3</ele>
        <time>2020-10-15T12:56:40Z</time>
      </trkpt>
      <trkpt lat="37.562773000" lon="-4.301566000">
        <ele>538.2</ele>
        <time>2020-10-15T12:56:43Z</time>
      </trkpt>
      <trkpt lat="37.562765000" lon="-4.301688000">
        <ele>538.0</ele>
        <time>2020-10-15T12:56:46Z</time>
      </trkpt>
      <trkpt lat="37.562761000" lon="-4.301818000">
        <ele>537.8</ele>
        <time>2020-10-15T12:56:49Z</time>
      </trkpt>
      <trkpt lat="37.562767000" lon="-4.301959000">
        <ele>537.6</ele>
        <time>2020-10-15T12:56:52Z</time>
      </trkpt>
      <trkpt lat="37.562776000" lon="-4.302095000">
        <ele>537.4</ele>
        <time>2020-10-15T12:56:55Z</time>
      </trkpt>
      <trkpt lat="37.562784000" lon="-4.302232000">
        <ele>537.1</ele>
        <time>2020-10-15T12:56:58Z</time>
      </trkpt>
      <trkpt lat="37.562798000" lon="-4.302367000">
        <ele>536.9</ele>
        <time>2020-10-15T12:57:01Z</time>
      </trkpt>
      <trkpt lat="37.562807000" lon="-4.302506000">
        <ele>536.7</ele>
        <time>2020-10-15T12:57:04Z</time>
      </trkpt>
      <trkpt lat="37.562818000" lon="-4.302645000">
        <ele>536.5</ele>
        <time>2020-10-15T12:57:07Z</time>
      </trkpt>
      <trkpt lat="37.562834000" lon="-4.302784000">
        <ele>536.5</ele>
        <time>2020-10-15T12:57:10Z</time>
      </trkpt>
      <trkpt lat="37.562856000" lon="-4.302921000">
        <ele>536.4</ele>
        <time>2020-10-15T12:57:14Z</time>
      </trkpt>
      <trkpt lat="37.562874000" lon="-4.303056000">
        <ele>536.3</ele>
        <time>2020-10-15T12:57:16Z</time>
      </trkpt>
      <trkpt lat="37.562885000" lon="-4.303195000">
        <ele>536.2</ele>
        <time>2020-10-15T12:57:19Z</time>
      </trkpt>
      <trkpt lat="37.562904000" lon="-4.303331000">
        <ele>536.0</ele>
        <time>2020-10-15T12:57:22Z</time>
      </trkpt>
      <trkpt lat="37.562927000" lon="-4.303472000">
        <ele>535.9</ele>
        <time>2020-10-15T12:57:25Z</time>
      </trkpt>
      <trkpt lat="37.562949000" lon="-4.303615000">
        <ele>536.0</ele>
        <time>2020-10-15T12:57:28Z</time>
      </trkpt>
      <trkpt lat="37.562961000" lon="-4.303762000">
        <ele>536.2</ele>
        <time>2020-10-15T12:57:31Z</time>
      </trkpt>
      <trkpt lat="37.562977000" lon="-4.303901000">
        <ele>536.5</ele>
        <time>2020-10-15T12:57:34Z</time>
      </trkpt>
      <trkpt lat="37.562995000" lon="-4.304037000">
        <ele>537.0</ele>
        <time>2020-10-15T12:57:37Z</time>
      </trkpt>
      <trkpt lat="37.563004000" lon="-4.304174000">
        <ele>537.4</ele>
        <time>2020-10-15T12:57:40Z</time>
      </trkpt>
      <trkpt lat="37.563016000" lon="-4.304308000">
        <ele>537.7</ele>
        <time>2020-10-15T12:57:43Z</time>
      </trkpt>
      <trkpt lat="37.563026000" lon="-4.304441000">
        <ele>538.2</ele>
        <time>2020-10-15T12:57:46Z</time>
      </trkpt>
      <trkpt lat="37.563030000" lon="-4.304574000">
        <ele>538.7</ele>
        <time>2020-10-15T12:57:49Z</time>
      </trkpt>
      <trkpt lat="37.563033000" lon="-4.304711000">
        <ele>539.3</ele>
        <time>2020-10-15T12:57:52Z</time>
      </trkpt>
      <trkpt lat="37.563033000" lon="-4.304851000">
        <ele>540.0</ele>
        <time>2020-10-15T12:57:55Z</time>
      </trkpt>
      <trkpt lat="37.563026000" lon="-4.304995000">
        <ele>540.6</ele>
        <time>2020-10-15T12:57:58Z</time>
      </trkpt>
      <trkpt lat="37.563016000" lon="-4.305139000">
        <ele>541.2</ele>
        <time>2020-10-15T12:58:01Z</time>
      </trkpt>
      <trkpt lat="37.563005000" lon="-4.305288000">
        <ele>541.7</ele>
        <time>2020-10-15T12:58:04Z</time>
      </trkpt>
      <trkpt lat="37.563000000" lon="-4.305394000">
        <ele>542.1</ele>
        <time>2020-10-15T12:58:06Z</time>
      </trkpt>
      <trkpt lat="37.562985000" lon="-4.305532000">
        <ele>542.5</ele>
        <time>2020-10-15T12:58:09Z</time>
      </trkpt>
      <trkpt lat="37.562969000" lon="-4.305665000">
        <ele>542.9</ele>
        <time>2020-10-15T12:58:12Z</time>
      </trkpt>
      <trkpt lat="37.562943000" lon="-4.305818000">
        <ele>543.4</ele>
        <time>2020-10-15T12:58:15Z</time>
      </trkpt>
      <trkpt lat="37.562928000" lon="-4.305927000">
        <ele>543.7</ele>
        <time>2020-10-15T12:58:17Z</time>
      </trkpt>
      <trkpt lat="37.562901000" lon="-4.306064000">
        <ele>544.1</ele>
        <time>2020-10-15T12:58:20Z</time>
      </trkpt>
      <trkpt lat="37.562870000" lon="-4.306206000">
        <ele>544.5</ele>
        <time>2020-10-15T12:58:23Z</time>
      </trkpt>
      <trkpt lat="37.562845000" lon="-4.306313000">
        <ele>544.7</ele>
        <time>2020-10-15T12:58:25Z</time>
      </trkpt>
      <trkpt lat="37.562818000" lon="-4.306417000">
        <ele>544.9</ele>
        <time>2020-10-15T12:58:27Z</time>
      </trkpt>
      <trkpt lat="37.562783000" lon="-4.306540000">
        <ele>545.0</ele>
        <time>2020-10-15T12:58:30Z</time>
      </trkpt>
      <trkpt lat="37.562744000" lon="-4.306660000">
        <ele>544.9</ele>
        <time>2020-10-15T12:58:33Z</time>
      </trkpt>
      <trkpt lat="37.562696000" lon="-4.306794000">
        <ele>544.7</ele>
        <time>2020-10-15T12:58:36Z</time>
      </trkpt>
      <trkpt lat="37.562663000" lon="-4.306895000">
        <ele>544.5</ele>
        <time>2020-10-15T12:58:38Z</time>
      </trkpt>
      <trkpt lat="37.562630000" lon="-4.306995000">
        <ele>544.2</ele>
        <time>2020-10-15T12:58:40Z</time>
      </trkpt>
      <trkpt lat="37.562581000" lon="-4.307132000">
        <ele>543.9</ele>
        <time>2020-10-15T12:58:43Z</time>
      </trkpt>
      <trkpt lat="37.562526000" lon="-4.307268000">
        <ele>543.6</ele>
        <time>2020-10-15T12:58:46Z</time>
      </trkpt>
      <trkpt lat="37.562491000" lon="-4.307360000">
        <ele>543.4</ele>
        <time>2020-10-15T12:58:48Z</time>
      </trkpt>
      <trkpt lat="37.562452000" lon="-4.307450000">
        <ele>543.1</ele>
        <time>2020-10-15T12:58:50Z</time>
      </trkpt>
      <trkpt lat="37.562390000" lon="-4.307581000">
        <ele>542.9</ele>
        <time>2020-10-15T12:58:53Z</time>
      </trkpt>
      <trkpt lat="37.562349000" lon="-4.307673000">
        <ele>542.8</ele>
        <time>2020-10-15T12:58:55Z</time>
      </trkpt>
      <trkpt lat="37.562303000" lon="-4.307765000">
        <ele>542.8</ele>
        <time>2020-10-15T12:58:57Z</time>
      </trkpt>
      <trkpt lat="37.562252000" lon="-4.307856000">
        <ele>543.0</ele>
        <time>2020-10-15T12:58:59Z</time>
      </trkpt>
      <trkpt lat="37.562203000" lon="-4.307948000">
        <ele>543.3</ele>
        <time>2020-10-15T12:59:01Z</time>
      </trkpt>
      <trkpt lat="37.562153000" lon="-4.308036000">
        <ele>543.5</ele>
        <time>2020-10-15T12:59:03Z</time>
      </trkpt>
      <trkpt lat="37.562102000" lon="-4.308133000">
        <ele>543.8</ele>
        <time>2020-10-15T12:59:05Z</time>
      </trkpt>
      <trkpt lat="37.562045000" lon="-4.308223000">
        <ele>544.1</ele>
        <time>2020-10-15T12:59:07Z</time>
      </trkpt>
      <trkpt lat="37.561989000" lon="-4.308317000">
        <ele>544.4</ele>
        <time>2020-10-15T12:59:09Z</time>
      </trkpt>
      <trkpt lat="37.561933000" lon="-4.308417000">
        <ele>544.5</ele>
        <time>2020-10-15T12:59:11Z</time>
      </trkpt>
      <trkpt lat="37.561879000" lon="-4.308504000">
        <ele>544.6</ele>
        <time>2020-10-15T12:59:13Z</time>
      </trkpt>
      <trkpt lat="37.561818000" lon="-4.308599000">
        <ele>544.6</ele>
        <time>2020-10-15T12:59:15Z</time>
      </trkpt>
      <trkpt lat="37.561752000" lon="-4.308688000">
        <ele>544.6</ele>
        <time>2020-10-15T12:59:17Z</time>
      </trkpt>
      <trkpt lat="37.561691000" lon="-4.308769000">
        <ele>544.6</ele>
        <time>2020-10-15T12:59:19Z</time>
      </trkpt>
      <trkpt lat="37.561630000" lon="-4.308852000">
        <ele>544.5</ele>
        <time>2020-10-15T12:59:21Z</time>
      </trkpt>
      <trkpt lat="37.561565000" lon="-4.308929000">
        <ele>544.4</ele>
        <time>2020-10-15T12:59:23Z</time>
      </trkpt>
      <trkpt lat="37.561498000" lon="-4.309012000">
        <ele>544.2</ele>
        <time>2020-10-15T12:59:25Z</time>
      </trkpt>
      <trkpt lat="37.561427000" lon="-4.309093000">
        <ele>543.9</ele>
        <time>2020-10-15T12:59:27Z</time>
      </trkpt>
      <trkpt lat="37.561354000" lon="-4.309174000">
        <ele>543.6</ele>
        <time>2020-10-15T12:59:29Z</time>
      </trkpt>
      <trkpt lat="37.561280000" lon="-4.309248000">
        <ele>543.4</ele>
        <time>2020-10-15T12:59:31Z</time>
      </trkpt>
      <trkpt lat="37.561204000" lon="-4.309328000">
        <ele>543.1</ele>
        <time>2020-10-15T12:59:33Z</time>
      </trkpt>
      <trkpt lat="37.561131000" lon="-4.309398000">
        <ele>543.0</ele>
        <time>2020-10-15T12:59:35Z</time>
      </trkpt>
      <trkpt lat="37.561050000" lon="-4.309463000">
        <ele>543.0</ele>
        <time>2020-10-15T12:59:37Z</time>
      </trkpt>
      <trkpt lat="37.560979000" lon="-4.309534000">
        <ele>543.1</ele>
        <time>2020-10-15T12:59:39Z</time>
      </trkpt>
      <trkpt lat="37.560903000" lon="-4.309598000">
        <ele>543.3</ele>
        <time>2020-10-15T12:59:41Z</time>
      </trkpt>
      <trkpt lat="37.560818000" lon="-4.309652000">
        <ele>543.5</ele>
        <time>2020-10-15T12:59:43Z</time>
      </trkpt>
      <trkpt lat="37.560736000" lon="-4.309706000">
        <ele>543.8</ele>
        <time>2020-10-15T12:59:45Z</time>
      </trkpt>
      <trkpt lat="37.560657000" lon="-4.309751000">
        <ele>544.2</ele>
        <time>2020-10-15T12:59:47Z</time>
      </trkpt>
      <trkpt lat="37.560582000" lon="-4.309800000">
        <ele>544.7</ele>
        <time>2020-10-15T12:59:49Z</time>
      </trkpt>
      <trkpt lat="37.560509000" lon="-4.309856000">
        <ele>545.3</ele>
        <time>2020-10-15T12:59:51Z</time>
      </trkpt>
      <trkpt lat="37.560433000" lon="-4.309896000">
        <ele>545.7</ele>
        <time>2020-10-15T12:59:53Z</time>
      </trkpt>
      <trkpt lat="37.560323000" lon="-4.309950000">
        <ele>546.3</ele>
        <time>2020-10-15T12:59:56Z</time>
      </trkpt>
      <trkpt lat="37.560213000" lon="-4.310000000">
        <ele>546.7</ele>
        <time>2020-10-15T12:59:59Z</time>
      </trkpt>
      <trkpt lat="37.560099000" lon="-4.310052000">
        <ele>547.1</ele>
        <time>2020-10-15T13:00:02Z</time>
      </trkpt>
      <trkpt lat="37.559984000" lon="-4.310097000">
        <ele>547.5</ele>
        <time>2020-10-15T13:00:05Z</time>
      </trkpt>
      <trkpt lat="37.559867000" lon="-4.310139000">
        <ele>547.7</ele>
        <time>2020-10-15T13:00:08Z</time>
      </trkpt>
      <trkpt lat="37.559787000" lon="-4.310159000">
        <ele>548.1</ele>
        <time>2020-10-15T13:00:10Z</time>
      </trkpt>
      <trkpt lat="37.559707000" lon="-4.310182000">
        <ele>548.4</ele>
        <time>2020-10-15T13:00:12Z</time>
      </trkpt>
      <trkpt lat="37.559622000" lon="-4.310203000">
        <ele>548.6</ele>
        <time>2020-10-15T13:00:14Z</time>
      </trkpt>
      <trkpt lat="37.559539000" lon="-4.310226000">
        <ele>548.9</ele>
        <time>2020-10-15T13:00:16Z</time>
      </trkpt>
      <trkpt lat="37.559458000" lon="-4.310250000">
        <ele>549.2</ele>
        <time>2020-10-15T13:00:18Z</time>
      </trkpt>
      <trkpt lat="37.559375000" lon="-4.310268000">
        <ele>549.6</ele>
        <time>2020-10-15T13:00:20Z</time>
      </trkpt>
      <trkpt lat="37.559293000" lon="-4.310287000">
        <ele>550.0</ele>
        <time>2020-10-15T13:00:22Z</time>
      </trkpt>
      <trkpt lat="37.559211000" lon="-4.310307000">
        <ele>550.3</ele>
        <time>2020-10-15T13:00:24Z</time>
      </trkpt>
      <trkpt lat="37.559129000" lon="-4.310325000">
        <ele>550.5</ele>
        <time>2020-10-15T13:00:26Z</time>
      </trkpt>
      <trkpt lat="37.559049000" lon="-4.310339000">
        <ele>550.6</ele>
        <time>2020-10-15T13:00:28Z</time>
      </trkpt>
      <trkpt lat="37.558936000" lon="-4.310359000">
        <ele>550.6</ele>
        <time>2020-10-15T13:00:31Z</time>
      </trkpt>
      <trkpt lat="37.558822000" lon="-4.310382000">
        <ele>550.5</ele>
        <time>2020-10-15T13:00:34Z</time>
      </trkpt>
      <trkpt lat="37.558709000" lon="-4.310402000">
        <ele>550.4</ele>
        <time>2020-10-15T13:00:37Z</time>
      </trkpt>
      <trkpt lat="37.558597000" lon="-4.310431000">
        <ele>550.2</ele>
        <time>2020-10-15T13:00:40Z</time>
      </trkpt>
      <trkpt lat="37.558483000" lon="-4.310459000">
        <ele>549.9</ele>
        <time>2020-10-15T13:00:43Z</time>
      </trkpt>
      <trkpt lat="37.558373000" lon="-4.310491000">
        <ele>549.6</ele>
        <time>2020-10-15T13:00:46Z</time>
      </trkpt>
      <trkpt lat="37.558263000" lon="-4.310535000">
        <ele>549.3</ele>
        <time>2020-10-15T13:00:49Z</time>
      </trkpt>
      <trkpt lat="37.558151000" lon="-4.310585000">
        <ele>548.9</ele>
        <time>2020-10-15T13:00:52Z</time>
      </trkpt>
      <trkpt lat="37.558039000" lon="-4.310639000">
        <ele>548.6</ele>
        <time>2020-10-15T13:00:55Z</time>
      </trkpt>
      <trkpt lat="37.557929000" lon="-4.310685000">
        <ele>548.4</ele>
        <time>2020-10-15T13:00:58Z</time>
      </trkpt>
      <trkpt lat="37.557828000" lon="-4.310737000">
        <ele>548.2</ele>
        <time>2020-10-15T13:01:01Z</time>
      </trkpt>
      <trkpt lat="37.557730000" lon="-4.310788000">
        <ele>548.1</ele>
        <time>2020-10-15T13:01:04Z</time>
      </trkpt>
      <trkpt lat="37.557638000" lon="-4.310856000">
        <ele>548.1</ele>
        <time>2020-10-15T13:01:07Z</time>
      </trkpt>
      <trkpt lat="37.557547000" lon="-4.310925000">
        <ele>548.2</ele>
        <time>2020-10-15T13:01:10Z</time>
      </trkpt>
      <trkpt lat="37.557454000" lon="-4.310987000">
        <ele>548.4</ele>
        <time>2020-10-15T13:01:13Z</time>
      </trkpt>
      <trkpt lat="37.557372000" lon="-4.311061000">
        <ele>548.6</ele>
        <time>2020-10-15T13:01:16Z</time>
      </trkpt>
      <trkpt lat="37.557291000" lon="-4.311133000">
        <ele>548.9</ele>
        <time>2020-10-15T13:01:19Z</time>
      </trkpt>
      <trkpt lat="37.557209000" lon="-4.311211000">
        <ele>549.3</ele>
        <time>2020-10-15T13:01:22Z</time>
      </trkpt>
      <trkpt lat="37.557131000" lon="-4.311285000">
        <ele>549.6</ele>
        <time>2020-10-15T13:01:25Z</time>
      </trkpt>
      <trkpt lat="37.557049000" lon="-4.311362000">
        <ele>550.0</ele>
        <time>2020-10-15T13:01:28Z</time>
      </trkpt>
      <trkpt lat="37.556984000" lon="-4.311426000">
        <ele>550.3</ele>
        <time>2020-10-15T13:01:30Z</time>
      </trkpt>
      <trkpt lat="37.556922000" lon="-4.311505000">
        <ele>550.6</ele>
        <time>2020-10-15T13:01:32Z</time>
      </trkpt>
      <trkpt lat="37.556845000" lon="-4.311599000">
        <ele>551.0</ele>
        <time>2020-10-15T13:01:35Z</time>
      </trkpt>
      <trkpt lat="37.556776000" lon="-4.311689000">
        <ele>551.3</ele>
        <time>2020-10-15T13:01:38Z</time>
      </trkpt>
      <trkpt lat="37.556692000" lon="-4.311799000">
        <ele>551.6</ele>
        <time>2020-10-15T13:01:41Z</time>
      </trkpt>
      <trkpt lat="37.556623000" lon="-4.311903000">
        <ele>551.9</ele>
        <time>2020-10-15T13:01:44Z</time>
      </trkpt>
      <trkpt lat="37.556566000" lon="-4.311978000">
        <ele>552.1</ele>
        <time>2020-10-15T13:01:47Z</time>
      </trkpt>
      <trkpt lat="37.556505000" lon="-4.312067000">
        <ele>552.3</ele>
        <time>2020-10-15T13:01:50Z</time>
      </trkpt>
      <trkpt lat="37.556442000" lon="-4.312166000">
        <ele>552.4</ele>
        <time>2020-10-15T13:01:53Z</time>
      </trkpt>
      <trkpt lat="37.556378000" lon="-4.312266000">
        <ele>552.5</ele>
        <time>2020-10-15T13:01:57Z</time>
      </trkpt>
      <trkpt lat="37.556325000" lon="-4.312369000">
        <ele>552.5</ele>
        <time>2020-10-15T13:02:00Z</time>
      </trkpt>
      <trkpt lat="37.556268000" lon="-4.312499000">
        <ele>552.5</ele>
        <time>2020-10-15T13:02:03Z</time>
      </trkpt>
      <trkpt lat="37.556218000" lon="-4.312607000">
        <ele>552.5</ele>
        <time>2020-10-15T13:02:06Z</time>
      </trkpt>
      <trkpt lat="37.556168000" lon="-4.312708000">
        <ele>552.5</ele>
        <time>2020-10-15T13:02:09Z</time>
      </trkpt>
      <trkpt lat="37.556113000" lon="-4.312814000">
        <ele>552.6</ele>
        <time>2020-10-15T13:02:12Z</time>
      </trkpt>
      <trkpt lat="37.556067000" lon="-4.312922000">
        <ele>552.7</ele>
        <time>2020-10-15T13:02:15Z</time>
      </trkpt>
      <trkpt lat="37.556021000" lon="-4.313028000">
        <ele>552.9</ele>
        <time>2020-10-15T13:02:18Z</time>
      </trkpt>
      <trkpt lat="37.555972000" lon="-4.313137000">
        <ele>553.1</ele>
        <time>2020-10-15T13:02:21Z</time>
      </trkpt>
      <trkpt lat="37.555923000" lon="-4.313245000">
        <ele>553.4</ele>
        <time>2020-10-15T13:02:24Z</time>
      </trkpt>
      <trkpt lat="37.555878000" lon="-4.313355000">
        <ele>553.6</ele>
        <time>2020-10-15T13:02:27Z</time>
      </trkpt>
      <trkpt lat="37.555830000" lon="-4.313465000">
        <ele>554.0</ele>
        <time>2020-10-15T13:02:30Z</time>
      </trkpt>
      <trkpt lat="37.555780000" lon="-4.313574000">
        <ele>554.5</ele>
        <time>2020-10-15T13:02:33Z</time>
      </trkpt>
      <trkpt lat="37.555731000" lon="-4.313677000">
        <ele>554.9</ele>
        <time>2020-10-15T13:02:36Z</time>
      </trkpt>
      <trkpt lat="37.555682000" lon="-4.313782000">
        <ele>555.4</ele>
        <time>2020-10-15T13:02:39Z</time>
      </trkpt>
      <trkpt lat="37.555642000" lon="-4.313891000">
        <ele>555.8</ele>
        <time>2020-10-15T13:02:42Z</time>
      </trkpt>
      <trkpt lat="37.555594000" lon="-4.314000000">
        <ele>556.3</ele>
        <time>2020-10-15T13:02:45Z</time>
      </trkpt>
      <trkpt lat="37.555544000" lon="-4.314118000">
        <ele>556.6</ele>
        <time>2020-10-15T13:02:48Z</time>
      </trkpt>
      <trkpt lat="37.555491000" lon="-4.314235000">
        <ele>557.1</ele>
        <time>2020-10-15T13:02:51Z</time>
      </trkpt>
      <trkpt lat="37.555435000" lon="-4.314346000">
        <ele>557.5</ele>
        <time>2020-10-15T13:02:54Z</time>
      </trkpt>
      <trkpt lat="37.555382000" lon="-4.314461000">
        <ele>558.0</ele>
        <time>2020-10-15T13:02:57Z</time>
      </trkpt>
      <trkpt lat="37.555327000" lon="-4.314577000">
        <ele>558.5</ele>
        <time>2020-10-15T13:03:00Z</time>
      </trkpt>
      <trkpt lat="37.555271000" lon="-4.314689000">
        <ele>558.8</ele>
        <time>2020-10-15T13:03:03Z</time>
      </trkpt>
      <trkpt lat="37.555208000" lon="-4.314797000">
        <ele>559.2</ele>
        <time>2020-10-15T13:03:06Z</time>
      </trkpt>
      <trkpt lat="37.555143000" lon="-4.314900000">
        <ele>559.5</ele>
        <time>2020-10-15T13:03:09Z</time>
      </trkpt>
      <trkpt lat="37.555080000" lon="-4.315005000">
        <ele>559.7</ele>
        <time>2020-10-15T13:03:12Z</time>
      </trkpt>
      <trkpt lat="37.555013000" lon="-4.315109000">
        <ele>559.9</ele>
        <time>2020-10-15T13:03:15Z</time>
      </trkpt>
      <trkpt lat="37.554938000" lon="-4.315211000">
        <ele>560.0</ele>
        <time>2020-10-15T13:03:18Z</time>
      </trkpt>
      <trkpt lat="37.554865000" lon="-4.315310000">
        <ele>560.1</ele>
        <time>2020-10-15T13:03:21Z</time>
      </trkpt>
      <trkpt lat="37.554796000" lon="-4.315414000">
        <ele>560.0</ele>
        <time>2020-10-15T13:03:24Z</time>
      </trkpt>
      <trkpt lat="37.554718000" lon="-4.315511000">
        <ele>559.9</ele>
        <time>2020-10-15T13:03:27Z</time>
      </trkpt>
      <trkpt lat="37.554642000" lon="-4.315602000">
        <ele>559.7</ele>
        <time>2020-10-15T13:03:30Z</time>
      </trkpt>
      <trkpt lat="37.554566000" lon="-4.315695000">
        <ele>559.6</ele>
        <time>2020-10-15T13:03:33Z</time>
      </trkpt>
      <trkpt lat="37.554490000" lon="-4.315783000">
        <ele>559.5</ele>
        <time>2020-10-15T13:03:36Z</time>
      </trkpt>
      <trkpt lat="37.554416000" lon="-4.315871000">
        <ele>559.3</ele>
        <time>2020-10-15T13:03:39Z</time>
      </trkpt>
      <trkpt lat="37.554338000" lon="-4.315957000">
        <ele>559.2</ele>
        <time>2020-10-15T13:03:42Z</time>
      </trkpt>
      <trkpt lat="37.554256000" lon="-4.316037000">
        <ele>559.1</ele>
        <time>2020-10-15T13:03:45Z</time>
      </trkpt>
      <trkpt lat="37.554186000" lon="-4.316098000">
        <ele>559.1</ele>
        <time>2020-10-15T13:03:49Z</time>
      </trkpt>
      <trkpt lat="37.554142000" lon="-4.316201000">
        <ele>559.0</ele>
        <time>2020-10-15T13:03:59Z</time>
      </trkpt>
      <trkpt lat="37.554052000" lon="-4.316238000">
        <ele>558.9</ele>
        <time>2020-10-15T13:04:03Z</time>
      </trkpt>
      <trkpt lat="37.553979000" lon="-4.316286000">
        <ele>558.8</ele>
        <time>2020-10-15T13:04:07Z</time>
      </trkpt>
      <trkpt lat="37.553900000" lon="-4.316345000">
        <ele>558.8</ele>
        <time>2020-10-15T13:04:11Z</time>
      </trkpt>
      <trkpt lat="37.553818000" lon="-4.316421000">
        <ele>558.8</ele>
        <time>2020-10-15T13:04:15Z</time>
      </trkpt>
      <trkpt lat="37.553730000" lon="-4.316486000">
        <ele>558.8</ele>
        <time>2020-10-15T13:04:19Z</time>
      </trkpt>
      <trkpt lat="37.553635000" lon="-4.316554000">
        <ele>559.0</ele>
        <time>2020-10-15T13:04:23Z</time>
      </trkpt>
      <trkpt lat="37.553549000" lon="-4.316606000">
        <ele>559.3</ele>
        <time>2020-10-15T13:04:26Z</time>
      </trkpt>
      <trkpt lat="37.553452000" lon="-4.316663000">
        <ele>559.5</ele>
        <time>2020-10-15T13:04:29Z</time>
      </trkpt>
      <trkpt lat="37.553354000" lon="-4.316712000">
        <ele>559.9</ele>
        <time>2020-10-15T13:04:32Z</time>
      </trkpt>
      <trkpt lat="37.553253000" lon="-4.316762000">
        <ele>560.3</ele>
        <time>2020-10-15T13:04:35Z</time>
      </trkpt>
      <trkpt lat="37.553150000" lon="-4.316813000">
        <ele>560.8</ele>
        <time>2020-10-15T13:04:38Z</time>
      </trkpt>
      <trkpt lat="37.553043000" lon="-4.316864000">
        <ele>561.4</ele>
        <time>2020-10-15T13:04:41Z</time>
      </trkpt>
      <trkpt lat="37.552936000" lon="-4.316911000">
        <ele>561.9</ele>
        <time>2020-10-15T13:04:44Z</time>
      </trkpt>
      <trkpt lat="37.552830000" lon="-4.316953000">
        <ele>562.5</ele>
        <time>2020-10-15T13:04:47Z</time>
      </trkpt>
      <trkpt lat="37.552725000" lon="-4.316995000">
        <ele>563.0</ele>
        <time>2020-10-15T13:04:50Z</time>
      </trkpt>
      <trkpt lat="37.552618000" lon="-4.317031000">
        <ele>563.5</ele>
        <time>2020-10-15T13:04:53Z</time>
      </trkpt>
      <trkpt lat="37.552509000" lon="-4.317062000">
        <ele>563.8</ele>
        <time>2020-10-15T13:04:56Z</time>
      </trkpt>
      <trkpt lat="37.552401000" lon="-4.317088000">
        <ele>564.0</ele>
        <time>2020-10-15T13:04:59Z</time>
      </trkpt>
      <trkpt lat="37.552296000" lon="-4.317115000">
        <ele>564.2</ele>
        <time>2020-10-15T13:05:02Z</time>
      </trkpt>
      <trkpt lat="37.552188000" lon="-4.317137000">
        <ele>564.2</ele>
        <time>2020-10-15T13:05:05Z</time>
      </trkpt>
      <trkpt lat="37.552079000" lon="-4.317155000">
        <ele>564.2</ele>
        <time>2020-10-15T13:05:08Z</time>
      </trkpt>
      <trkpt lat="37.551997000" lon="-4.317164000">
        <ele>564.2</ele>
        <time>2020-10-15T13:05:10Z</time>
      </trkpt>
      <trkpt lat="37.551915000" lon="-4.317173000">
        <ele>564.2</ele>
        <time>2020-10-15T13:05:12Z</time>
      </trkpt>
      <trkpt lat="37.551809000" lon="-4.317185000">
        <ele>564.2</ele>
        <time>2020-10-15T13:05:15Z</time>
      </trkpt>
      <trkpt lat="37.551712000" lon="-4.317191000">
        <ele>564.2</ele>
        <time>2020-10-15T13:05:18Z</time>
      </trkpt>
      <trkpt lat="37.551596000" lon="-4.317203000">
        <ele>564.2</ele>
        <time>2020-10-15T13:05:21Z</time>
      </trkpt>
      <trkpt lat="37.551484000" lon="-4.317203000">
        <ele>564.2</ele>
        <time>2020-10-15T13:05:24Z</time>
      </trkpt>
      <trkpt lat="37.551392000" lon="-4.317207000">
        <ele>564.2</ele>
        <time>2020-10-15T13:05:27Z</time>
      </trkpt>
      <trkpt lat="37.551310000" lon="-4.317200000">
        <ele>564.2</ele>
        <time>2020-10-15T13:05:30Z</time>
      </trkpt>
      <trkpt lat="37.551210000" lon="-4.317197000">
        <ele>564.2</ele>
        <time>2020-10-15T13:05:35Z</time>
      </trkpt>
      <trkpt lat="37.551106000" lon="-4.317184000">
        <ele>564.3</ele>
        <time>2020-10-15T13:05:37Z</time>
      </trkpt>
      <trkpt lat="37.551022000" lon="-4.317177000">
        <ele>564.4</ele>
        <time>2020-10-15T13:05:39Z</time>
      </trkpt>
      <trkpt lat="37.550934000" lon="-4.317172000">
        <ele>564.4</ele>
        <time>2020-10-15T13:05:41Z</time>
      </trkpt>
      <trkpt lat="37.550822000" lon="-4.317165000">
        <ele>564.4</ele>
        <time>2020-10-15T13:05:44Z</time>
      </trkpt>
      <trkpt lat="37.550729000" lon="-4.317159000">
        <ele>564.5</ele>
        <time>2020-10-15T13:05:47Z</time>
      </trkpt>
      <trkpt lat="37.550620000" lon="-4.317157000">
        <ele>564.5</ele>
        <time>2020-10-15T13:05:50Z</time>
      </trkpt>
      <trkpt lat="37.550539000" lon="-4.317148000">
        <ele>564.5</ele>
        <time>2020-10-15T13:05:52Z</time>
      </trkpt>
      <trkpt lat="37.550448000" lon="-4.317137000">
        <ele>564.6</ele>
        <time>2020-10-15T13:05:54Z</time>
      </trkpt>
      <trkpt lat="37.550360000" lon="-4.317124000">
        <ele>564.8</ele>
        <time>2020-10-15T13:05:56Z</time>
      </trkpt>
      <trkpt lat="37.550279000" lon="-4.317116000">
        <ele>565.2</ele>
        <time>2020-10-15T13:05:58Z</time>
      </trkpt>
      <trkpt lat="37.550164000" lon="-4.317094000">
        <ele>565.5</ele>
        <time>2020-10-15T13:06:01Z</time>
      </trkpt>
      <trkpt lat="37.550055000" lon="-4.317082000">
        <ele>566.0</ele>
        <time>2020-10-15T13:06:04Z</time>
      </trkpt>
      <trkpt lat="37.549951000" lon="-4.317072000">
        <ele>566.5</ele>
        <time>2020-10-15T13:06:07Z</time>
      </trkpt>
      <trkpt lat="37.549854000" lon="-4.317058000">
        <ele>567.2</ele>
        <time>2020-10-15T13:06:10Z</time>
      </trkpt>
      <trkpt lat="37.549761000" lon="-4.317047000">
        <ele>567.8</ele>
        <time>2020-10-15T13:06:13Z</time>
      </trkpt>
      <trkpt lat="37.549675000" lon="-4.317041000">
        <ele>568.5</ele>
        <time>2020-10-15T13:06:16Z</time>
      </trkpt>
      <trkpt lat="37.549586000" lon="-4.317039000">
        <ele>569.2</ele>
        <time>2020-10-15T13:06:19Z</time>
      </trkpt>
      <trkpt lat="37.549494000" lon="-4.317038000">
        <ele>569.9</ele>
        <time>2020-10-15T13:06:22Z</time>
      </trkpt>
      <trkpt lat="37.549398000" lon="-4.317033000">
        <ele>570.7</ele>
        <time>2020-10-15T13:06:25Z</time>
      </trkpt>
      <trkpt lat="37.549306000" lon="-4.317027000">
        <ele>571.5</ele>
        <time>2020-10-15T13:06:28Z</time>
      </trkpt>
      <trkpt lat="37.549221000" lon="-4.317018000">
        <ele>572.2</ele>
        <time>2020-10-15T13:06:31Z</time>
      </trkpt>
      <trkpt lat="37.549139000" lon="-4.316994000">
        <ele>572.9</ele>
        <time>2020-10-15T13:08:08Z</time>
      </trkpt>
      <trkpt lat="37.549052000" lon="-4.316948000">
        <ele>573.5</ele>
        <time>2020-10-15T13:08:13Z</time>
      </trkpt>
      <trkpt lat="37.548952000" lon="-4.316933000">
        <ele>574.1</ele>
        <time>2020-10-15T13:08:16Z</time>
      </trkpt>
      <trkpt lat="37.548853000" lon="-4.316931000">
        <ele>574.5</ele>
        <time>2020-10-15T13:08:19Z</time>
      </trkpt>
      <trkpt lat="37.548756000" lon="-4.316925000">
        <ele>574.9</ele>
        <time>2020-10-15T13:08:22Z</time>
      </trkpt>
      <trkpt lat="37.548650000" lon="-4.316926000">
        <ele>575.2</ele>
        <time>2020-10-15T13:08:25Z</time>
      </trkpt>
      <trkpt lat="37.548546000" lon="-4.316913000">
        <ele>575.5</ele>
        <time>2020-10-15T13:08:28Z</time>
      </trkpt>
      <trkpt lat="37.548446000" lon="-4.316909000">
        <ele>575.6</ele>
        <time>2020-10-15T13:08:31Z</time>
      </trkpt>
      <trkpt lat="37.548346000" lon="-4.316907000">
        <ele>575.8</ele>
        <time>2020-10-15T13:08:34Z</time>
      </trkpt>
      <trkpt lat="37.548244000" lon="-4.316906000">
        <ele>576.0</ele>
        <time>2020-10-15T13:08:37Z</time>
      </trkpt>
      <trkpt lat="37.548140000" lon="-4.316906000">
        <ele>576.2</ele>
        <time>2020-10-15T13:08:40Z</time>
      </trkpt>
      <trkpt lat="37.548033000" lon="-4.316900000">
        <ele>576.5</ele>
        <time>2020-10-15T13:08:43Z</time>
      </trkpt>
      <trkpt lat="37.547922000" lon="-4.316891000">
        <ele>576.7</ele>
        <time>2020-10-15T13:08:46Z</time>
      </trkpt>
      <trkpt lat="37.547807000" lon="-4.316881000">
        <ele>577.1</ele>
        <time>2020-10-15T13:08:49Z</time>
      </trkpt>
      <trkpt lat="37.547693000" lon="-4.316869000">
        <ele>577.4</ele>
        <time>2020-10-15T13:08:52Z</time>
      </trkpt>
      <trkpt lat="37.547576000" lon="-4.316858000">
        <ele>577.7</ele>
        <time>2020-10-15T13:08:55Z</time>
      </trkpt>
      <trkpt lat="37.547459000" lon="-4.316851000">
        <ele>578.0</ele>
        <time>2020-10-15T13:08:58Z</time>
      </trkpt>
      <trkpt lat="37.547347000" lon="-4.316841000">
        <ele>578.2</ele>
        <time>2020-10-15T13:09:01Z</time>
      </trkpt>
      <trkpt lat="37.547234000" lon="-4.316835000">
        <ele>578.3</ele>
        <time>2020-10-15T13:09:04Z</time>
      </trkpt>
      <trkpt lat="37.547125000" lon="-4.316825000">
        <ele>578.3</ele>
        <time>2020-10-15T13:09:07Z</time>
      </trkpt>
      <trkpt lat="37.547033000" lon="-4.316814000">
        <ele>578.4</ele>
        <time>2020-10-15T13:09:10Z</time>
      </trkpt>
      <trkpt lat="37.546952000" lon="-4.316785000">
        <ele>578.4</ele>
        <time>2020-10-15T13:09:34Z</time>
      </trkpt>
      <trkpt lat="37.546851000" lon="-4.316765000">
        <ele>578.4</ele>
        <time>2020-10-15T13:09:38Z</time>
      </trkpt>
      <trkpt lat="37.546735000" lon="-4.316756000">
        <ele>578.4</ele>
        <time>2020-10-15T13:09:41Z</time>
      </trkpt>
      <trkpt lat="37.546644000" lon="-4.316749000">
        <ele>578.4</ele>
        <time>2020-10-15T13:09:43Z</time>
      </trkpt>
      <trkpt lat="37.546556000" lon="-4.316747000">
        <ele>578.5</ele>
        <time>2020-10-15T13:09:45Z</time>
      </trkpt>
      <trkpt lat="37.546472000" lon="-4.316751000">
        <ele>578.5</ele>
        <time>2020-10-15T13:09:47Z</time>
      </trkpt>
      <trkpt lat="37.546388000" lon="-4.316755000">
        <ele>578.8</ele>
        <time>2020-10-15T13:09:49Z</time>
      </trkpt>
      <trkpt lat="37.546300000" lon="-4.316761000">
        <ele>579.1</ele>
        <time>2020-10-15T13:09:51Z</time>
      </trkpt>
      <trkpt lat="37.546220000" lon="-4.316770000">
        <ele>579.5</ele>
        <time>2020-10-15T13:09:53Z</time>
      </trkpt>
      <trkpt lat="37.546137000" lon="-4.316781000">
        <ele>579.8</ele>
        <time>2020-10-15T13:09:55Z</time>
      </trkpt>
      <trkpt lat="37.546056000" lon="-4.316799000">
        <ele>580.1</ele>
        <time>2020-10-15T13:09:57Z</time>
      </trkpt>
      <trkpt lat="37.545940000" lon="-4.316832000">
        <ele>580.3</ele>
        <time>2020-10-15T13:10:00Z</time>
      </trkpt>
      <trkpt lat="37.545827000" lon="-4.316871000">
        <ele>580.2</ele>
        <time>2020-10-15T13:10:03Z</time>
      </trkpt>
      <trkpt lat="37.545715000" lon="-4.316909000">
        <ele>580.1</ele>
        <time>2020-10-15T13:10:06Z</time>
      </trkpt>
      <trkpt lat="37.545609000" lon="-4.316953000">
        <ele>579.9</ele>
        <time>2020-10-15T13:10:09Z</time>
      </trkpt>
      <trkpt lat="37.545509000" lon="-4.317006000">
        <ele>579.6</ele>
        <time>2020-10-15T13:10:12Z</time>
      </trkpt>
      <trkpt lat="37.545410000" lon="-4.317062000">
        <ele>579.5</ele>
        <time>2020-10-15T13:10:15Z</time>
      </trkpt>
      <trkpt lat="37.545315000" lon="-4.317123000">
        <ele>579.2</ele>
        <time>2020-10-15T13:10:18Z</time>
      </trkpt>
      <trkpt lat="37.545220000" lon="-4.317189000">
        <ele>579.0</ele>
        <time>2020-10-15T13:10:21Z</time>
      </trkpt>
      <trkpt lat="37.545125000" lon="-4.317253000">
        <ele>578.7</ele>
        <time>2020-10-15T13:10:24Z</time>
      </trkpt>
      <trkpt lat="37.545035000" lon="-4.317328000">
        <ele>578.4</ele>
        <time>2020-10-15T13:10:27Z</time>
      </trkpt>
      <trkpt lat="37.544942000" lon="-4.317405000">
        <ele>577.8</ele>
        <time>2020-10-15T13:10:30Z</time>
      </trkpt>
      <trkpt lat="37.544848000" lon="-4.317494000">
        <ele>577.3</ele>
        <time>2020-10-15T13:10:33Z</time>
      </trkpt>
      <trkpt lat="37.544780000" lon="-4.317559000">
        <ele>576.8</ele>
        <time>2020-10-15T13:10:35Z</time>
      </trkpt>
      <trkpt lat="37.544724000" lon="-4.317638000">
        <ele>576.4</ele>
        <time>2020-10-15T13:10:37Z</time>
      </trkpt>
      <trkpt lat="37.544665000" lon="-4.317716000">
        <ele>575.8</ele>
        <time>2020-10-15T13:10:39Z</time>
      </trkpt>
      <trkpt lat="37.544604000" lon="-4.317794000">
        <ele>575.2</ele>
        <time>2020-10-15T13:10:41Z</time>
      </trkpt>
      <trkpt lat="37.544545000" lon="-4.317875000">
        <ele>574.4</ele>
        <time>2020-10-15T13:10:43Z</time>
      </trkpt>
      <trkpt lat="37.544490000" lon="-4.317958000">
        <ele>573.4</ele>
        <time>2020-10-15T13:10:45Z</time>
      </trkpt>
      <trkpt lat="37.544430000" lon="-4.318038000">
        <ele>572.1</ele>
        <time>2020-10-15T13:10:47Z</time>
      </trkpt>
      <trkpt lat="37.544380000" lon="-4.318122000">
        <ele>570.7</ele>
        <time>2020-10-15T13:10:49Z</time>
      </trkpt>
      <trkpt lat="37.544331000" lon="-4.318209000">
        <ele>569.3</ele>
        <time>2020-10-15T13:10:51Z</time>
      </trkpt>
      <trkpt lat="37.544273000" lon="-4.318301000">
        <ele>567.9</ele>
        <time>2020-10-15T13:10:53Z</time>
      </trkpt>
      <trkpt lat="37.544221000" lon="-4.318399000">
        <ele>566.6</ele>
        <time>2020-10-15T13:10:55Z</time>
      </trkpt>
      <trkpt lat="37.544180000" lon="-4.318492000">
        <ele>565.5</ele>
        <time>2020-10-15T13:10:57Z</time>
      </trkpt>
      <trkpt lat="37.544125000" lon="-4.318620000">
        <ele>564.4</ele>
        <time>2020-10-15T13:11:00Z</time>
      </trkpt>
      <trkpt lat="37.544070000" lon="-4.318754000">
        <ele>563.4</ele>
        <time>2020-10-15T13:11:03Z</time>
      </trkpt>
      <trkpt lat="37.544037000" lon="-4.318851000">
        <ele>562.7</ele>
        <time>2020-10-15T13:11:05Z</time>
      </trkpt>
      <trkpt lat="37.543993000" lon="-4.318984000">
        <ele>562.3</ele>
        <time>2020-10-15T13:11:08Z</time>
      </trkpt>
      <trkpt lat="37.543965000" lon="-4.319129000">
        <ele>562.2</ele>
        <time>2020-10-15T13:11:11Z</time>
      </trkpt>
      <trkpt lat="37.543929000" lon="-4.319273000">
        <ele>562.5</ele>
        <time>2020-10-15T13:11:14Z</time>
      </trkpt>
      <trkpt lat="37.543914000" lon="-4.319373000">
        <ele>563.0</ele>
        <time>2020-10-15T13:11:16Z</time>
      </trkpt>
      <trkpt lat="37.543887000" lon="-4.319521000">
        <ele>563.9</ele>
        <time>2020-10-15T13:11:19Z</time>
      </trkpt>
      <trkpt lat="37.543877000" lon="-4.319624000">
        <ele>565.0</ele>
        <time>2020-10-15T13:11:21Z</time>
      </trkpt>
      <trkpt lat="37.543865000" lon="-4.319728000">
        <ele>566.3</ele>
        <time>2020-10-15T13:11:23Z</time>
      </trkpt>
      <trkpt lat="37.543862000" lon="-4.319879000">
        <ele>567.6</ele>
        <time>2020-10-15T13:11:26Z</time>
      </trkpt>
      <trkpt lat="37.543862000" lon="-4.319982000">
        <ele>568.9</ele>
        <time>2020-10-15T13:11:29Z</time>
      </trkpt>
      <trkpt lat="37.543859000" lon="-4.320086000">
        <ele>570.3</ele>
        <time>2020-10-15T13:11:30Z</time>
      </trkpt>
      <trkpt lat="37.543860000" lon="-4.320190000">
        <ele>571.5</ele>
        <time>2020-10-15T13:11:32Z</time>
      </trkpt>
      <trkpt lat="37.543867000" lon="-4.320337000">
        <ele>572.6</ele>
        <time>2020-10-15T13:11:35Z</time>
      </trkpt>
      <trkpt lat="37.543873000" lon="-4.320481000">
        <ele>573.7</ele>
        <time>2020-10-15T13:11:38Z</time>
      </trkpt>
      <trkpt lat="37.543883000" lon="-4.320626000">
        <ele>574.7</ele>
        <time>2020-10-15T13:11:41Z</time>
      </trkpt>
      <trkpt lat="37.543894000" lon="-4.320778000">
        <ele>575.6</ele>
        <time>2020-10-15T13:11:44Z</time>
      </trkpt>
      <trkpt lat="37.543903000" lon="-4.320881000">
        <ele>576.4</ele>
        <time>2020-10-15T13:11:46Z</time>
      </trkpt>
      <trkpt lat="37.543907000" lon="-4.320983000">
        <ele>577.0</ele>
        <time>2020-10-15T13:11:48Z</time>
      </trkpt>
      <trkpt lat="37.543914000" lon="-4.321088000">
        <ele>577.5</ele>
        <time>2020-10-15T13:11:50Z</time>
      </trkpt>
      <trkpt lat="37.543921000" lon="-4.321190000">
        <ele>577.8</ele>
        <time>2020-10-15T13:11:52Z</time>
      </trkpt>
      <trkpt lat="37.543932000" lon="-4.321334000">
        <ele>578.2</ele>
        <time>2020-10-15T13:11:55Z</time>
      </trkpt>
      <trkpt lat="37.543946000" lon="-4.321485000">
        <ele>578.5</ele>
        <time>2020-10-15T13:11:58Z</time>
      </trkpt>
      <trkpt lat="37.543953000" lon="-4.321590000">
        <ele>578.6</ele>
        <time>2020-10-15T13:12:00Z</time>
      </trkpt>
      <trkpt lat="37.543958000" lon="-4.321694000">
        <ele>578.7</ele>
        <time>2020-10-15T13:12:02Z</time>
      </trkpt>
      <trkpt lat="37.543963000" lon="-4.321797000">
        <ele>578.6</ele>
        <time>2020-10-15T13:12:04Z</time>
      </trkpt>
      <trkpt lat="37.543976000" lon="-4.321946000">
        <ele>578.5</ele>
        <time>2020-10-15T13:12:07Z</time>
      </trkpt>
      <trkpt lat="37.543984000" lon="-4.322098000">
        <ele>578.3</ele>
        <time>2020-10-15T13:12:10Z</time>
      </trkpt>
      <trkpt lat="37.543994000" lon="-4.322248000">
        <ele>578.2</ele>
        <time>2020-10-15T13:12:14Z</time>
      </trkpt>
      <trkpt lat="37.544003000" lon="-4.322394000">
        <ele>578.1</ele>
        <time>2020-10-15T13:12:16Z</time>
      </trkpt>
      <trkpt lat="37.544014000" lon="-4.322541000">
        <ele>578.1</ele>
        <time>2020-10-15T13:12:19Z</time>
      </trkpt>
      <trkpt lat="37.544018000" lon="-4.322693000">
        <ele>578.1</ele>
        <time>2020-10-15T13:12:22Z</time>
      </trkpt>
      <trkpt lat="37.544024000" lon="-4.322798000">
        <ele>578.1</ele>
        <time>2020-10-15T13:12:24Z</time>
      </trkpt>
      <trkpt lat="37.544034000" lon="-4.322948000">
        <ele>578.1</ele>
        <time>2020-10-15T13:12:27Z</time>
      </trkpt>
      <trkpt lat="37.544044000" lon="-4.323093000">
        <ele>578.1</ele>
        <time>2020-10-15T13:12:30Z</time>
      </trkpt>
      <trkpt lat="37.544050000" lon="-4.323236000">
        <ele>578.1</ele>
        <time>2020-10-15T13:12:33Z</time>
      </trkpt>
      <trkpt lat="37.544054000" lon="-4.323378000">
        <ele>578.1</ele>
        <time>2020-10-15T13:12:36Z</time>
      </trkpt>
      <trkpt lat="37.544054000" lon="-4.323517000">
        <ele>578.2</ele>
        <time>2020-10-15T13:12:39Z</time>
      </trkpt>
      <trkpt lat="37.544053000" lon="-4.323655000">
        <ele>578.3</ele>
        <time>2020-10-15T13:12:42Z</time>
      </trkpt>
      <trkpt lat="37.544051000" lon="-4.323794000">
        <ele>578.4</ele>
        <time>2020-10-15T13:12:45Z</time>
      </trkpt>
      <trkpt lat="37.544045000" lon="-4.323936000">
        <ele>578.5</ele>
        <time>2020-10-15T13:12:48Z</time>
      </trkpt>
      <trkpt lat="37.544035000" lon="-4.324086000">
        <ele>578.5</ele>
        <time>2020-10-15T13:12:51Z</time>
      </trkpt>
      <trkpt lat="37.544025000" lon="-4.324189000">
        <ele>578.7</ele>
        <time>2020-10-15T13:12:53Z</time>
      </trkpt>
      <trkpt lat="37.544010000" lon="-4.324293000">
        <ele>579.0</ele>
        <time>2020-10-15T13:12:55Z</time>
      </trkpt>
      <trkpt lat="37.543995000" lon="-4.324396000">
        <ele>579.4</ele>
        <time>2020-10-15T13:12:57Z</time>
      </trkpt>
      <trkpt lat="37.543978000" lon="-4.324499000">
        <ele>579.8</ele>
        <time>2020-10-15T13:12:59Z</time>
      </trkpt>
      <trkpt lat="37.543955000" lon="-4.324597000">
        <ele>580.2</ele>
        <time>2020-10-15T13:13:01Z</time>
      </trkpt>
      <trkpt lat="37.543927000" lon="-4.324737000">
        <ele>580.6</ele>
        <time>2020-10-15T13:13:04Z</time>
      </trkpt>
      <trkpt lat="37.543888000" lon="-4.324879000">
        <ele>580.9</ele>
        <time>2020-10-15T13:13:07Z</time>
      </trkpt>
      <trkpt lat="37.543850000" lon="-4.325020000">
        <ele>581.1</ele>
        <time>2020-10-15T13:13:10Z</time>
      </trkpt>
      <trkpt lat="37.543825000" lon="-4.325117000">
        <ele>581.1</ele>
        <time>2020-10-15T13:13:12Z</time>
      </trkpt>
      <trkpt lat="37.543783000" lon="-4.325259000">
        <ele>581.1</ele>
        <time>2020-10-15T13:13:15Z</time>
      </trkpt>
      <trkpt lat="37.543737000" lon="-4.325397000">
        <ele>580.9</ele>
        <time>2020-10-15T13:13:18Z</time>
      </trkpt>
      <trkpt lat="37.543689000" lon="-4.325534000">
        <ele>580.7</ele>
        <time>2020-10-15T13:13:21Z</time>
      </trkpt>
      <trkpt lat="37.543640000" lon="-4.325668000">
        <ele>580.6</ele>
        <time>2020-10-15T13:13:24Z</time>
      </trkpt>
      <trkpt lat="37.543598000" lon="-4.325797000">
        <ele>580.5</ele>
        <time>2020-10-15T13:13:27Z</time>
      </trkpt>
      <trkpt lat="37.543555000" lon="-4.325930000">
        <ele>580.5</ele>
        <time>2020-10-15T13:13:30Z</time>
      </trkpt>
      <trkpt lat="37.543513000" lon="-4.326062000">
        <ele>580.7</ele>
        <time>2020-10-15T13:13:33Z</time>
      </trkpt>
      <trkpt lat="37.543470000" lon="-4.326193000">
        <ele>580.9</ele>
        <time>2020-10-15T13:13:36Z</time>
      </trkpt>
      <trkpt lat="37.543425000" lon="-4.326328000">
        <ele>581.3</ele>
        <time>2020-10-15T13:13:39Z</time>
      </trkpt>
      <trkpt lat="37.543379000" lon="-4.326463000">
        <ele>581.7</ele>
        <time>2020-10-15T13:13:42Z</time>
      </trkpt>
      <trkpt lat="37.543333000" lon="-4.326598000">
        <ele>582.4</ele>
        <time>2020-10-15T13:13:45Z</time>
      </trkpt>
      <trkpt lat="37.543294000" lon="-4.326733000">
        <ele>583.0</ele>
        <time>2020-10-15T13:13:48Z</time>
      </trkpt>
      <trkpt lat="37.543256000" lon="-4.326868000">
        <ele>583.7</ele>
        <time>2020-10-15T13:13:51Z</time>
      </trkpt>
      <trkpt lat="37.543223000" lon="-4.327006000">
        <ele>584.4</ele>
        <time>2020-10-15T13:13:54Z</time>
      </trkpt>
      <trkpt lat="37.543185000" lon="-4.327138000">
        <ele>584.8</ele>
        <time>2020-10-15T13:13:57Z</time>
      </trkpt>
      <trkpt lat="37.543154000" lon="-4.327276000">
        <ele>585.3</ele>
        <time>2020-10-15T13:14:00Z</time>
      </trkpt>
      <trkpt lat="37.543136000" lon="-4.327378000">
        <ele>585.7</ele>
        <time>2020-10-15T13:14:02Z</time>
      </trkpt>
      <trkpt lat="37.543115000" lon="-4.327525000">
        <ele>586.1</ele>
        <time>2020-10-15T13:14:05Z</time>
      </trkpt>
      <trkpt lat="37.543092000" lon="-4.327671000">
        <ele>586.4</ele>
        <time>2020-10-15T13:14:08Z</time>
      </trkpt>
      <trkpt lat="37.543074000" lon="-4.327805000">
        <ele>586.5</ele>
        <time>2020-10-15T13:14:11Z</time>
      </trkpt>
      <trkpt lat="37.543065000" lon="-4.327933000">
        <ele>586.5</ele>
        <time>2020-10-15T13:14:14Z</time>
      </trkpt>
      <trkpt lat="37.543050000" lon="-4.328063000">
        <ele>586.3</ele>
        <time>2020-10-15T13:14:17Z</time>
      </trkpt>
      <trkpt lat="37.543038000" lon="-4.328197000">
        <ele>586.0</ele>
        <time>2020-10-15T13:14:20Z</time>
      </trkpt>
      <trkpt lat="37.543024000" lon="-4.328332000">
        <ele>585.7</ele>
        <time>2020-10-15T13:14:23Z</time>
      </trkpt>
      <trkpt lat="37.543013000" lon="-4.328466000">
        <ele>585.5</ele>
        <time>2020-10-15T13:14:26Z</time>
      </trkpt>
      <trkpt lat="37.543002000" lon="-4.328604000">
        <ele>585.3</ele>
        <time>2020-10-15T13:14:29Z</time>
      </trkpt>
      <trkpt lat="37.542989000" lon="-4.328747000">
        <ele>585.0</ele>
        <time>2020-10-15T13:14:32Z</time>
      </trkpt>
      <trkpt lat="37.542968000" lon="-4.328892000">
        <ele>584.6</ele>
        <time>2020-10-15T13:14:35Z</time>
      </trkpt>
      <trkpt lat="37.542948000" lon="-4.329038000">
        <ele>584.4</ele>
        <time>2020-10-15T13:14:38Z</time>
      </trkpt>
      <trkpt lat="37.542928000" lon="-4.329185000">
        <ele>584.2</ele>
        <time>2020-10-15T13:14:41Z</time>
      </trkpt>
      <trkpt lat="37.542907000" lon="-4.329335000">
        <ele>584.2</ele>
        <time>2020-10-15T13:14:44Z</time>
      </trkpt>
      <trkpt lat="37.542891000" lon="-4.329435000">
        <ele>584.3</ele>
        <time>2020-10-15T13:14:46Z</time>
      </trkpt>
      <trkpt lat="37.542873000" lon="-4.329541000">
        <ele>584.5</ele>
        <time>2020-10-15T13:14:48Z</time>
      </trkpt>
      <trkpt lat="37.542852000" lon="-4.329646000">
        <ele>584.9</ele>
        <time>2020-10-15T13:14:50Z</time>
      </trkpt>
      <trkpt lat="37.542829000" lon="-4.329744000">
        <ele>585.4</ele>
        <time>2020-10-15T13:14:52Z</time>
      </trkpt>
      <trkpt lat="37.542792000" lon="-4.329888000">
        <ele>585.8</ele>
        <time>2020-10-15T13:14:56Z</time>
      </trkpt>
      <trkpt lat="37.542751000" lon="-4.330023000">
        <ele>586.3</ele>
        <time>2020-10-15T13:14:58Z</time>
      </trkpt>
      <trkpt lat="37.542710000" lon="-4.330158000">
        <ele>586.8</ele>
        <time>2020-10-15T13:15:01Z</time>
      </trkpt>
      <trkpt lat="37.542667000" lon="-4.330287000">
        <ele>587.4</ele>
        <time>2020-10-15T13:15:04Z</time>
      </trkpt>
      <trkpt lat="37.542620000" lon="-4.330419000">
        <ele>587.8</ele>
        <time>2020-10-15T13:15:07Z</time>
      </trkpt>
      <trkpt lat="37.542571000" lon="-4.330551000">
        <ele>588.3</ele>
        <time>2020-10-15T13:15:10Z</time>
      </trkpt>
      <trkpt lat="37.542520000" lon="-4.330679000">
        <ele>588.6</ele>
        <time>2020-10-15T13:15:13Z</time>
      </trkpt>
      <trkpt lat="37.542479000" lon="-4.330775000">
        <ele>589.1</ele>
        <time>2020-10-15T13:15:15Z</time>
      </trkpt>
      <trkpt lat="37.542442000" lon="-4.330867000">
        <ele>589.5</ele>
        <time>2020-10-15T13:15:17Z</time>
      </trkpt>
      <trkpt lat="37.542388000" lon="-4.330980000">
        <ele>589.8</ele>
        <time>2020-10-15T13:15:20Z</time>
      </trkpt>
      <trkpt lat="37.542332000" lon="-4.331101000">
        <ele>590.2</ele>
        <time>2020-10-15T13:15:23Z</time>
      </trkpt>
      <trkpt lat="37.542288000" lon="-4.331229000">
        <ele>590.5</ele>
        <time>2020-10-15T13:15:26Z</time>
      </trkpt>
      <trkpt lat="37.542244000" lon="-4.331335000">
        <ele>590.9</ele>
        <time>2020-10-15T13:15:29Z</time>
      </trkpt>
      <trkpt lat="37.542191000" lon="-4.331458000">
        <ele>591.2</ele>
        <time>2020-10-15T13:15:32Z</time>
      </trkpt>
      <trkpt lat="37.542156000" lon="-4.331563000">
        <ele>591.4</ele>
        <time>2020-10-15T13:15:34Z</time>
      </trkpt>
      <trkpt lat="37.542115000" lon="-4.331658000">
        <ele>591.5</ele>
        <time>2020-10-15T13:15:36Z</time>
      </trkpt>
      <trkpt lat="37.542070000" lon="-4.331789000">
        <ele>591.6</ele>
        <time>2020-10-15T13:15:39Z</time>
      </trkpt>
      <trkpt lat="37.542034000" lon="-4.331881000">
        <ele>591.7</ele>
        <time>2020-10-15T13:15:41Z</time>
      </trkpt>
      <trkpt lat="37.541997000" lon="-4.331979000">
        <ele>591.7</ele>
        <time>2020-10-15T13:15:43Z</time>
      </trkpt>
      <trkpt lat="37.541964000" lon="-4.332083000">
        <ele>591.8</ele>
        <time>2020-10-15T13:15:45Z</time>
      </trkpt>
      <trkpt lat="37.541921000" lon="-4.332211000">
        <ele>591.9</ele>
        <time>2020-10-15T13:15:48Z</time>
      </trkpt>
      <trkpt lat="37.541885000" lon="-4.332318000">
        <ele>591.9</ele>
        <time>2020-10-15T13:15:51Z</time>
      </trkpt>
      <trkpt lat="37.541845000" lon="-4.332443000">
        <ele>591.8</ele>
        <time>2020-10-15T13:15:54Z</time>
      </trkpt>
      <trkpt lat="37.541804000" lon="-4.332582000">
        <ele>591.7</ele>
        <time>2020-10-15T13:15:57Z</time>
      </trkpt>
      <trkpt lat="37.541776000" lon="-4.332678000">
        <ele>591.6</ele>
        <time>2020-10-15T13:15:59Z</time>
      </trkpt>
      <trkpt lat="37.541750000" lon="-4.332805000">
        <ele>591.8</ele>
        <time>2020-10-15T13:16:02Z</time>
      </trkpt>
      <trkpt lat="37.541723000" lon="-4.332923000">
        <ele>592.1</ele>
        <time>2020-10-15T13:16:05Z</time>
      </trkpt>
      <trkpt lat="37.541694000" lon="-4.333076000">
        <ele>592.5</ele>
        <time>2020-10-15T13:16:08Z</time>
      </trkpt>
      <trkpt lat="37.541680000" lon="-4.333185000">
        <ele>593.0</ele>
        <time>2020-10-15T13:16:10Z</time>
      </trkpt>
      <trkpt lat="37.541658000" lon="-4.333327000">
        <ele>593.5</ele>
        <time>2020-10-15T13:16:13Z</time>
      </trkpt>
      <trkpt lat="37.541649000" lon="-4.333449000">
        <ele>593.8</ele>
        <time>2020-10-15T13:16:16Z</time>
      </trkpt>
      <trkpt lat="37.541642000" lon="-4.333594000">
        <ele>594.2</ele>
        <time>2020-10-15T13:16:19Z</time>
      </trkpt>
      <trkpt lat="37.541634000" lon="-4.333705000">
        <ele>594.5</ele>
        <time>2020-10-15T13:16:21Z</time>
      </trkpt>
      <trkpt lat="37.541636000" lon="-4.333818000">
        <ele>594.8</ele>
        <time>2020-10-15T13:16:23Z</time>
      </trkpt>
      <trkpt lat="37.541632000" lon="-4.333955000">
        <ele>595.0</ele>
        <time>2020-10-15T13:16:27Z</time>
      </trkpt>
      <trkpt lat="37.541632000" lon="-4.334086000">
        <ele>595.1</ele>
        <time>2020-10-15T13:16:29Z</time>
      </trkpt>
      <trkpt lat="37.541638000" lon="-4.334224000">
        <ele>595.0</ele>
        <time>2020-10-15T13:16:32Z</time>
      </trkpt>
      <trkpt lat="37.541648000" lon="-4.334344000">
        <ele>594.8</ele>
        <time>2020-10-15T13:16:35Z</time>
      </trkpt>
      <trkpt lat="37.541658000" lon="-4.334467000">
        <ele>594.5</ele>
        <time>2020-10-15T13:16:38Z</time>
      </trkpt>
      <trkpt lat="37.541682000" lon="-4.334619000">
        <ele>594.1</ele>
        <time>2020-10-15T13:16:41Z</time>
      </trkpt>
      <trkpt lat="37.541696000" lon="-4.334722000">
        <ele>593.7</ele>
        <time>2020-10-15T13:16:43Z</time>
      </trkpt>
      <trkpt lat="37.541715000" lon="-4.334864000">
        <ele>593.4</ele>
        <time>2020-10-15T13:16:46Z</time>
      </trkpt>
      <trkpt lat="37.541730000" lon="-4.334990000">
        <ele>593.0</ele>
        <time>2020-10-15T13:16:49Z</time>
      </trkpt>
      <trkpt lat="37.541766000" lon="-4.335134000">
        <ele>592.8</ele>
        <time>2020-10-15T13:16:52Z</time>
      </trkpt>
      <trkpt lat="37.541784000" lon="-4.335251000">
        <ele>592.7</ele>
        <time>2020-10-15T13:16:54Z</time>
      </trkpt>
      <trkpt lat="37.541810000" lon="-4.335348000">
        <ele>592.7</ele>
        <time>2020-10-15T13:16:56Z</time>
      </trkpt>
      <trkpt lat="37.541839000" lon="-4.335485000">
        <ele>592.8</ele>
        <time>2020-10-15T13:16:59Z</time>
      </trkpt>
      <trkpt lat="37.541874000" lon="-4.335622000">
        <ele>592.9</ele>
        <time>2020-10-15T13:17:02Z</time>
      </trkpt>
      <trkpt lat="37.541908000" lon="-4.335749000">
        <ele>593.1</ele>
        <time>2020-10-15T13:17:05Z</time>
      </trkpt>
      <trkpt lat="37.541938000" lon="-4.335871000">
        <ele>593.5</ele>
        <time>2020-10-15T13:17:08Z</time>
      </trkpt>
      <trkpt lat="37.541967000" lon="-4.335996000">
        <ele>593.9</ele>
        <time>2020-10-15T13:17:11Z</time>
      </trkpt>
      <trkpt lat="37.541996000" lon="-4.336120000">
        <ele>594.4</ele>
        <time>2020-10-15T13:17:14Z</time>
      </trkpt>
      <trkpt lat="37.542023000" lon="-4.336246000">
        <ele>594.8</ele>
        <time>2020-10-15T13:17:17Z</time>
      </trkpt>
      <trkpt lat="37.542026000" lon="-4.336378000">
        <ele>595.2</ele>
        <time>2020-10-15T13:17:20Z</time>
      </trkpt>
      <trkpt lat="37.542036000" lon="-4.336517000">
        <ele>595.5</ele>
        <time>2020-10-15T13:17:23Z</time>
      </trkpt>
      <trkpt lat="37.542067000" lon="-4.336657000">
        <ele>595.8</ele>
        <time>2020-10-15T13:17:26Z</time>
      </trkpt>
      <trkpt lat="37.542101000" lon="-4.336785000">
        <ele>596.1</ele>
        <time>2020-10-15T13:17:29Z</time>
      </trkpt>
      <trkpt lat="37.542142000" lon="-4.336895000">
        <ele>596.4</ele>
        <time>2020-10-15T13:17:32Z</time>
      </trkpt>
      <trkpt lat="37.542179000" lon="-4.336996000">
        <ele>596.6</ele>
        <time>2020-10-15T13:17:35Z</time>
      </trkpt>
      <trkpt lat="37.542203000" lon="-4.337110000">
        <ele>596.9</ele>
        <time>2020-10-15T13:17:38Z</time>
      </trkpt>
      <trkpt lat="37.542220000" lon="-4.337228000">
        <ele>597.1</ele>
        <time>2020-10-15T13:17:41Z</time>
      </trkpt>
      <trkpt lat="37.542227000" lon="-4.337354000">
        <ele>597.3</ele>
        <time>2020-10-15T13:17:44Z</time>
      </trkpt>
      <trkpt lat="37.542238000" lon="-4.337486000">
        <ele>597.5</ele>
        <time>2020-10-15T13:17:47Z</time>
      </trkpt>
      <trkpt lat="37.542246000" lon="-4.337624000">
        <ele>597.7</ele>
        <time>2020-10-15T13:17:50Z</time>
      </trkpt>
      <trkpt lat="37.542253000" lon="-4.337760000">
        <ele>598.1</ele>
        <time>2020-10-15T13:17:53Z</time>
      </trkpt>
      <trkpt lat="37.542248000" lon="-4.337891000">
        <ele>598.5</ele>
        <time>2020-10-15T13:17:56Z</time>
      </trkpt>
      <trkpt lat="37.542246000" lon="-4.338028000">
        <ele>598.8</ele>
        <time>2020-10-15T13:17:59Z</time>
      </trkpt>
      <trkpt lat="37.542230000" lon="-4.338168000">
        <ele>599.3</ele>
        <time>2020-10-15T13:18:02Z</time>
      </trkpt>
      <trkpt lat="37.542218000" lon="-4.338313000">
        <ele>599.8</ele>
        <time>2020-10-15T13:18:05Z</time>
      </trkpt>
      <trkpt lat="37.542201000" lon="-4.338456000">
        <ele>600.5</ele>
        <time>2020-10-15T13:18:08Z</time>
      </trkpt>
      <trkpt lat="37.542166000" lon="-4.338590000">
        <ele>601.2</ele>
        <time>2020-10-15T13:18:11Z</time>
      </trkpt>
      <trkpt lat="37.542148000" lon="-4.338718000">
        <ele>601.8</ele>
        <time>2020-10-15T13:18:14Z</time>
      </trkpt>
      <trkpt lat="37.542129000" lon="-4.338841000">
        <ele>602.3</ele>
        <time>2020-10-15T13:18:17Z</time>
      </trkpt>
      <trkpt lat="37.542095000" lon="-4.338962000">
        <ele>602.6</ele>
        <time>2020-10-15T13:18:20Z</time>
      </trkpt>
      <trkpt lat="37.542062000" lon="-4.339089000">
        <ele>602.8</ele>
        <time>2020-10-15T13:18:23Z</time>
      </trkpt>
      <trkpt lat="37.542029000" lon="-4.339217000">
        <ele>602.9</ele>
        <time>2020-10-15T13:18:26Z</time>
      </trkpt>
      <trkpt lat="37.541997000" lon="-4.339349000">
        <ele>602.7</ele>
        <time>2020-10-15T13:18:29Z</time>
      </trkpt>
      <trkpt lat="37.541967000" lon="-4.339481000">
        <ele>602.6</ele>
        <time>2020-10-15T13:18:32Z</time>
      </trkpt>
      <trkpt lat="37.541942000" lon="-4.339616000">
        <ele>602.5</ele>
        <time>2020-10-15T13:18:35Z</time>
      </trkpt>
      <trkpt lat="37.541901000" lon="-4.339748000">
        <ele>602.2</ele>
        <time>2020-10-15T13:18:38Z</time>
      </trkpt>
      <trkpt lat="37.541869000" lon="-4.339884000">
        <ele>601.7</ele>
        <time>2020-10-15T13:18:41Z</time>
      </trkpt>
      <trkpt lat="37.541841000" lon="-4.340024000">
        <ele>601.4</ele>
        <time>2020-10-15T13:18:44Z</time>
      </trkpt>
      <trkpt lat="37.541804000" lon="-4.340168000">
        <ele>601.0</ele>
        <time>2020-10-15T13:18:47Z</time>
      </trkpt>
      <trkpt lat="37.541771000" lon="-4.340310000">
        <ele>600.7</ele>
        <time>2020-10-15T13:18:50Z</time>
      </trkpt>
      <trkpt lat="37.541758000" lon="-4.340413000">
        <ele>600.5</ele>
        <time>2020-10-15T13:18:52Z</time>
      </trkpt>
      <trkpt lat="37.541744000" lon="-4.340515000">
        <ele>600.5</ele>
        <time>2020-10-15T13:18:54Z</time>
      </trkpt>
      <trkpt lat="37.541727000" lon="-4.340666000">
        <ele>600.5</ele>
        <time>2020-10-15T13:18:57Z</time>
      </trkpt>
      <trkpt lat="37.541716000" lon="-4.340770000">
        <ele>600.6</ele>
        <time>2020-10-15T13:18:59Z</time>
      </trkpt>
      <trkpt lat="37.541706000" lon="-4.340876000">
        <ele>600.7</ele>
        <time>2020-10-15T13:19:01Z</time>
      </trkpt>
      <trkpt lat="37.541702000" lon="-4.340984000">
        <ele>600.7</ele>
        <time>2020-10-15T13:19:03Z</time>
      </trkpt>
      <trkpt lat="37.541697000" lon="-4.341091000">
        <ele>600.6</ele>
        <time>2020-10-15T13:19:05Z</time>
      </trkpt>
      <trkpt lat="37.541698000" lon="-4.341198000">
        <ele>600.5</ele>
        <time>2020-10-15T13:19:07Z</time>
      </trkpt>
      <trkpt lat="37.541696000" lon="-4.341302000">
        <ele>600.4</ele>
        <time>2020-10-15T13:19:10Z</time>
      </trkpt>
      <trkpt lat="37.541697000" lon="-4.341405000">
        <ele>600.2</ele>
        <time>2020-10-15T13:19:11Z</time>
      </trkpt>
      <trkpt lat="37.541705000" lon="-4.341509000">
        <ele>600.1</ele>
        <time>2020-10-15T13:19:13Z</time>
      </trkpt>
      <trkpt lat="37.541711000" lon="-4.341613000">
        <ele>600.1</ele>
        <time>2020-10-15T13:19:15Z</time>
      </trkpt>
      <trkpt lat="37.541720000" lon="-4.341716000">
        <ele>600.2</ele>
        <time>2020-10-15T13:19:17Z</time>
      </trkpt>
      <trkpt lat="37.541743000" lon="-4.341865000">
        <ele>600.4</ele>
        <time>2020-10-15T13:19:20Z</time>
      </trkpt>
      <trkpt lat="37.541766000" lon="-4.342013000">
        <ele>600.6</ele>
        <time>2020-10-15T13:19:23Z</time>
      </trkpt>
      <trkpt lat="37.541791000" lon="-4.342162000">
        <ele>601.0</ele>
        <time>2020-10-15T13:19:26Z</time>
      </trkpt>
      <trkpt lat="37.541818000" lon="-4.342304000">
        <ele>601.5</ele>
        <time>2020-10-15T13:19:29Z</time>
      </trkpt>
      <trkpt lat="37.541854000" lon="-4.342437000">
        <ele>602.1</ele>
        <time>2020-10-15T13:19:32Z</time>
      </trkpt>
      <trkpt lat="37.541892000" lon="-4.342565000">
        <ele>602.8</ele>
        <time>2020-10-15T13:19:35Z</time>
      </trkpt>
      <trkpt lat="37.541930000" lon="-4.342690000">
        <ele>603.5</ele>
        <time>2020-10-15T13:19:38Z</time>
      </trkpt>
      <trkpt lat="37.541972000" lon="-4.342812000">
        <ele>604.3</ele>
        <time>2020-10-15T13:19:41Z</time>
      </trkpt>
      <trkpt lat="37.542026000" lon="-4.342928000">
        <ele>604.9</ele>
        <time>2020-10-15T13:19:44Z</time>
      </trkpt>
      <trkpt lat="37.542077000" lon="-4.343049000">
        <ele>605.5</ele>
        <time>2020-10-15T13:19:47Z</time>
      </trkpt>
      <trkpt lat="37.542128000" lon="-4.343166000">
        <ele>605.9</ele>
        <time>2020-10-15T13:19:50Z</time>
      </trkpt>
      <trkpt lat="37.542181000" lon="-4.343275000">
        <ele>606.3</ele>
        <time>2020-10-15T13:19:53Z</time>
      </trkpt>
      <trkpt lat="37.542240000" lon="-4.343376000">
        <ele>606.5</ele>
        <time>2020-10-15T13:19:56Z</time>
      </trkpt>
      <trkpt lat="37.542297000" lon="-4.343475000">
        <ele>606.5</ele>
        <time>2020-10-15T13:19:59Z</time>
      </trkpt>
      <trkpt lat="37.542353000" lon="-4.343576000">
        <ele>606.4</ele>
        <time>2020-10-15T13:20:02Z</time>
      </trkpt>
      <trkpt lat="37.542415000" lon="-4.343668000">
        <ele>606.1</ele>
        <time>2020-10-15T13:20:05Z</time>
      </trkpt>
      <trkpt lat="37.542478000" lon="-4.343761000">
        <ele>605.7</ele>
        <time>2020-10-15T13:20:08Z</time>
      </trkpt>
      <trkpt lat="37.542543000" lon="-4.343851000">
        <ele>605.4</ele>
        <time>2020-10-15T13:20:11Z</time>
      </trkpt>
      <trkpt lat="37.542612000" lon="-4.343937000">
        <ele>605.1</ele>
        <time>2020-10-15T13:20:14Z</time>
      </trkpt>
      <trkpt lat="37.542688000" lon="-4.344026000">
        <ele>604.8</ele>
        <time>2020-10-15T13:20:17Z</time>
      </trkpt>
      <trkpt lat="37.542765000" lon="-4.344113000">
        <ele>604.6</ele>
        <time>2020-10-15T13:20:20Z</time>
      </trkpt>
      <trkpt lat="37.542853000" lon="-4.344194000">
        <ele>604.5</ele>
        <time>2020-10-15T13:20:23Z</time>
      </trkpt>
      <trkpt lat="37.542935000" lon="-4.344289000">
        <ele>604.5</ele>
        <time>2020-10-15T13:20:26Z</time>
      </trkpt>
      <trkpt lat="37.543019000" lon="-4.344360000">
        <ele>604.5</ele>
        <time>2020-10-15T13:20:29Z</time>
      </trkpt>
      <trkpt lat="37.543102000" lon="-4.344429000">
        <ele>604.8</ele>
        <time>2020-10-15T13:20:32Z</time>
      </trkpt>
      <trkpt lat="37.543187000" lon="-4.344500000">
        <ele>605.3</ele>
        <time>2020-10-15T13:20:35Z</time>
      </trkpt>
      <trkpt lat="37.543270000" lon="-4.344566000">
        <ele>605.8</ele>
        <time>2020-10-15T13:20:38Z</time>
      </trkpt>
      <trkpt lat="37.543357000" lon="-4.344624000">
        <ele>606.4</ele>
        <time>2020-10-15T13:20:41Z</time>
      </trkpt>
      <trkpt lat="37.543448000" lon="-4.344685000">
        <ele>606.9</ele>
        <time>2020-10-15T13:20:44Z</time>
      </trkpt>
      <trkpt lat="37.543536000" lon="-4.344746000">
        <ele>607.5</ele>
        <time>2020-10-15T13:20:47Z</time>
      </trkpt>
      <trkpt lat="37.543629000" lon="-4.344802000">
        <ele>608.0</ele>
        <time>2020-10-15T13:20:50Z</time>
      </trkpt>
      <trkpt lat="37.543724000" lon="-4.344866000">
        <ele>608.4</ele>
        <time>2020-10-15T13:20:53Z</time>
      </trkpt>
      <trkpt lat="37.543822000" lon="-4.344924000">
        <ele>608.7</ele>
        <time>2020-10-15T13:20:56Z</time>
      </trkpt>
      <trkpt lat="37.543920000" lon="-4.344978000">
        <ele>609.0</ele>
        <time>2020-10-15T13:20:59Z</time>
      </trkpt>
      <trkpt lat="37.544008000" lon="-4.345039000">
        <ele>609.2</ele>
        <time>2020-10-15T13:21:02Z</time>
      </trkpt>
      <trkpt lat="37.544100000" lon="-4.345088000">
        <ele>609.3</ele>
        <time>2020-10-15T13:21:05Z</time>
      </trkpt>
      <trkpt lat="37.544186000" lon="-4.345143000">
        <ele>609.3</ele>
        <time>2020-10-15T13:21:08Z</time>
      </trkpt>
      <trkpt lat="37.544278000" lon="-4.345203000">
        <ele>609.3</ele>
        <time>2020-10-15T13:21:11Z</time>
      </trkpt>
      <trkpt lat="37.544371000" lon="-4.345266000">
        <ele>609.3</ele>
        <time>2020-10-15T13:21:14Z</time>
      </trkpt>
      <trkpt lat="37.544461000" lon="-4.345328000">
        <ele>609.3</ele>
        <time>2020-10-15T13:21:17Z</time>
      </trkpt>
      <trkpt lat="37.544551000" lon="-4.345384000">
        <ele>609.1</ele>
        <time>2020-10-15T13:21:20Z</time>
      </trkpt>
      <trkpt lat="37.544640000" lon="-4.345435000">
        <ele>609.0</ele>
        <time>2020-10-15T13:21:23Z</time>
      </trkpt>
      <trkpt lat="37.544728000" lon="-4.345489000">
        <ele>609.0</ele>
        <time>2020-10-15T13:21:27Z</time>
      </trkpt>
      <trkpt lat="37.544817000" lon="-4.345548000">
        <ele>609.0</ele>
        <time>2020-10-15T13:21:29Z</time>
      </trkpt>
      <trkpt lat="37.544906000" lon="-4.345611000">
        <ele>609.1</ele>
        <time>2020-10-15T13:21:32Z</time>
      </trkpt>
      <trkpt lat="37.544996000" lon="-4.345681000">
        <ele>609.3</ele>
        <time>2020-10-15T13:21:35Z</time>
      </trkpt>
      <trkpt lat="37.545083000" lon="-4.345753000">
        <ele>609.5</ele>
        <time>2020-10-15T13:21:38Z</time>
      </trkpt>
      <trkpt lat="37.545161000" lon="-4.345819000">
        <ele>609.9</ele>
        <time>2020-10-15T13:21:41Z</time>
      </trkpt>
      <trkpt lat="37.545234000" lon="-4.345880000">
        <ele>610.4</ele>
        <time>2020-10-15T13:21:44Z</time>
      </trkpt>
      <trkpt lat="37.545304000" lon="-4.345957000">
        <ele>610.9</ele>
        <time>2020-10-15T13:21:47Z</time>
      </trkpt>
      <trkpt lat="37.545377000" lon="-4.346039000">
        <ele>611.5</ele>
        <time>2020-10-15T13:21:50Z</time>
      </trkpt>
      <trkpt lat="37.545452000" lon="-4.346120000">
        <ele>612.1</ele>
        <time>2020-10-15T13:21:53Z</time>
      </trkpt>
      <trkpt lat="37.545524000" lon="-4.346200000">
        <ele>612.6</ele>
        <time>2020-10-15T13:21:56Z</time>
      </trkpt>
      <trkpt lat="37.545596000" lon="-4.346286000">
        <ele>613.1</ele>
        <time>2020-10-15T13:21:59Z</time>
      </trkpt>
      <trkpt lat="37.545655000" lon="-4.346384000">
        <ele>613.5</ele>
        <time>2020-10-15T13:22:02Z</time>
      </trkpt>
      <trkpt lat="37.545715000" lon="-4.346488000">
        <ele>613.8</ele>
        <time>2020-10-15T13:22:05Z</time>
      </trkpt>
      <trkpt lat="37.545786000" lon="-4.346600000">
        <ele>614.0</ele>
        <time>2020-10-15T13:22:08Z</time>
      </trkpt>
      <trkpt lat="37.545843000" lon="-4.346690000">
        <ele>614.1</ele>
        <time>2020-10-15T13:22:12Z</time>
      </trkpt>
      <trkpt lat="37.545902000" lon="-4.346808000">
        <ele>614.2</ele>
        <time>2020-10-15T13:22:14Z</time>
      </trkpt>
      <trkpt lat="37.545955000" lon="-4.346912000">
        <ele>614.3</ele>
        <time>2020-10-15T13:22:17Z</time>
      </trkpt>
      <trkpt lat="37.546006000" lon="-4.347027000">
        <ele>614.3</ele>
        <time>2020-10-15T13:22:20Z</time>
      </trkpt>
      <trkpt lat="37.546061000" lon="-4.347147000">
        <ele>614.4</ele>
        <time>2020-10-15T13:22:23Z</time>
      </trkpt>
      <trkpt lat="37.546101000" lon="-4.347242000">
        <ele>614.5</ele>
        <time>2020-10-15T13:22:26Z</time>
      </trkpt>
      <trkpt lat="37.546155000" lon="-4.347369000">
        <ele>614.7</ele>
        <time>2020-10-15T13:22:30Z</time>
      </trkpt>
      <trkpt lat="37.546205000" lon="-4.347492000">
        <ele>615.0</ele>
        <time>2020-10-15T13:22:33Z</time>
      </trkpt>
      <trkpt lat="37.546235000" lon="-4.347598000">
        <ele>615.4</ele>
        <time>2020-10-15T13:22:36Z</time>
      </trkpt>
      <trkpt lat="37.546274000" lon="-4.347725000">
        <ele>615.7</ele>
        <time>2020-10-15T13:22:39Z</time>
      </trkpt>
      <trkpt lat="37.546304000" lon="-4.347824000">
        <ele>616.2</ele>
        <time>2020-10-15T13:22:42Z</time>
      </trkpt>
      <trkpt lat="37.546334000" lon="-4.347961000">
        <ele>616.6</ele>
        <time>2020-10-15T13:22:44Z</time>
      </trkpt>
      <trkpt lat="37.546360000" lon="-4.348086000">
        <ele>616.9</ele>
        <time>2020-10-15T13:22:47Z</time>
      </trkpt>
      <trkpt lat="37.546383000" lon="-4.348210000">
        <ele>617.1</ele>
        <time>2020-10-15T13:22:50Z</time>
      </trkpt>
      <trkpt lat="37.546402000" lon="-4.348337000">
        <ele>617.3</ele>
        <time>2020-10-15T13:22:53Z</time>
      </trkpt>
      <trkpt lat="37.546413000" lon="-4.348458000">
        <ele>617.5</ele>
        <time>2020-10-15T13:22:56Z</time>
      </trkpt>
      <trkpt lat="37.546432000" lon="-4.348584000">
        <ele>617.5</ele>
        <time>2020-10-15T13:22:59Z</time>
      </trkpt>
      <trkpt lat="37.546439000" lon="-4.348706000">
        <ele>617.7</ele>
        <time>2020-10-15T13:23:02Z</time>
      </trkpt>
      <trkpt lat="37.546439000" lon="-4.348823000">
        <ele>617.9</ele>
        <time>2020-10-15T13:23:05Z</time>
      </trkpt>
      <trkpt lat="37.546439000" lon="-4.348950000">
        <ele>618.0</ele>
        <time>2020-10-15T13:23:08Z</time>
      </trkpt>
      <trkpt lat="37.546436000" lon="-4.349081000">
        <ele>618.0</ele>
        <time>2020-10-15T13:23:11Z</time>
      </trkpt>
      <trkpt lat="37.546434000" lon="-4.349219000">
        <ele>617.9</ele>
        <time>2020-10-15T13:23:14Z</time>
      </trkpt>
      <trkpt lat="37.546437000" lon="-4.349357000">
        <ele>617.7</ele>
        <time>2020-10-15T13:23:17Z</time>
      </trkpt>
      <trkpt lat="37.546439000" lon="-4.349486000">
        <ele>617.5</ele>
        <time>2020-10-15T13:23:20Z</time>
      </trkpt>
      <trkpt lat="37.546436000" lon="-4.349619000">
        <ele>617.4</ele>
        <time>2020-10-15T13:23:23Z</time>
      </trkpt>
      <trkpt lat="37.546424000" lon="-4.349765000">
        <ele>617.3</ele>
        <time>2020-10-15T13:23:26Z</time>
      </trkpt>
      <trkpt lat="37.546412000" lon="-4.349904000">
        <ele>617.1</ele>
        <time>2020-10-15T13:23:29Z</time>
      </trkpt>
      <trkpt lat="37.546397000" lon="-4.350039000">
        <ele>616.9</ele>
        <time>2020-10-15T13:23:32Z</time>
      </trkpt>
      <trkpt lat="37.546383000" lon="-4.350183000">
        <ele>616.6</ele>
        <time>2020-10-15T13:23:35Z</time>
      </trkpt>
      <trkpt lat="37.546375000" lon="-4.350332000">
        <ele>616.4</ele>
        <time>2020-10-15T13:23:38Z</time>
      </trkpt>
      <trkpt lat="37.546362000" lon="-4.350468000">
        <ele>616.0</ele>
        <time>2020-10-15T13:23:41Z</time>
      </trkpt>
      <trkpt lat="37.546356000" lon="-4.350608000">
        <ele>615.7</ele>
        <time>2020-10-15T13:23:44Z</time>
      </trkpt>
      <trkpt lat="37.546355000" lon="-4.350710000">
        <ele>615.5</ele>
        <time>2020-10-15T13:23:46Z</time>
      </trkpt>
      <trkpt lat="37.546352000" lon="-4.350858000">
        <ele>615.5</ele>
        <time>2020-10-15T13:23:50Z</time>
      </trkpt>
      <trkpt lat="37.546351000" lon="-4.350995000">
        <ele>615.5</ele>
        <time>2020-10-15T13:23:52Z</time>
      </trkpt>
      <trkpt lat="37.546349000" lon="-4.351121000">
        <ele>615.5</ele>
        <time>2020-10-15T13:23:55Z</time>
      </trkpt>
      <trkpt lat="37.546346000" lon="-4.351239000">
        <ele>615.3</ele>
        <time>2020-10-15T13:23:58Z</time>
      </trkpt>
      <trkpt lat="37.546342000" lon="-4.351355000">
        <ele>615.2</ele>
        <time>2020-10-15T13:24:01Z</time>
      </trkpt>
      <trkpt lat="37.546338000" lon="-4.351465000">
        <ele>615.1</ele>
        <time>2020-10-15T13:24:04Z</time>
      </trkpt>
      <trkpt lat="37.546329000" lon="-4.351569000">
        <ele>614.9</ele>
        <time>2020-10-15T13:24:07Z</time>
      </trkpt>
      <trkpt lat="37.546326000" lon="-4.351698000">
        <ele>614.7</ele>
        <time>2020-10-15T13:24:11Z</time>
      </trkpt>
      <trkpt lat="37.546376000" lon="-4.351791000">
        <ele>614.5</ele>
        <time>2020-10-15T13:24:16Z</time>
      </trkpt>
      <trkpt lat="37.546330000" lon="-4.351885000">
        <ele>614.4</ele>
        <time>2020-10-15T13:26:46Z</time>
      </trkpt>
      <trkpt lat="37.546313000" lon="-4.351985000">
        <ele>614.2</ele>
        <time>2020-10-15T13:26:51Z</time>
      </trkpt>
      <trkpt lat="37.546317000" lon="-4.352116000">
        <ele>614.0</ele>
        <time>2020-10-15T13:26:55Z</time>
      </trkpt>
      <trkpt lat="37.546321000" lon="-4.352228000">
        <ele>613.8</ele>
        <time>2020-10-15T13:26:58Z</time>
      </trkpt>
      <trkpt lat="37.546328000" lon="-4.352345000">
        <ele>613.6</ele>
        <time>2020-10-15T13:27:01Z</time>
      </trkpt>
      <trkpt lat="37.546327000" lon="-4.352470000">
        <ele>613.5</ele>
        <time>2020-10-15T13:27:04Z</time>
      </trkpt>
      <trkpt lat="37.546328000" lon="-4.352598000">
        <ele>613.4</ele>
        <time>2020-10-15T13:27:07Z</time>
      </trkpt>
      <trkpt lat="37.546327000" lon="-4.352733000">
        <ele>613.2</ele>
        <time>2020-10-15T13:27:10Z</time>
      </trkpt>
      <trkpt lat="37.546329000" lon="-4.352869000">
        <ele>613.1</ele>
        <time>2020-10-15T13:27:13Z</time>
      </trkpt>
      <trkpt lat="37.546324000" lon="-4.353002000">
        <ele>613.0</ele>
        <time>2020-10-15T13:27:16Z</time>
      </trkpt>
      <trkpt lat="37.546321000" lon="-4.353143000">
        <ele>613.0</ele>
        <time>2020-10-15T13:27:19Z</time>
      </trkpt>
      <trkpt lat="37.546314000" lon="-4.353283000">
        <ele>613.0</ele>
        <time>2020-10-15T13:27:22Z</time>
      </trkpt>
      <trkpt lat="37.546310000" lon="-4.353427000">
        <ele>613.0</ele>
        <time>2020-10-15T13:27:25Z</time>
      </trkpt>
      <trkpt lat="37.546300000" lon="-4.353572000">
        <ele>613.0</ele>
        <time>2020-10-15T13:27:28Z</time>
      </trkpt>
      <trkpt lat="37.546294000" lon="-4.353715000">
        <ele>612.9</ele>
        <time>2020-10-15T13:27:31Z</time>
      </trkpt>
      <trkpt lat="37.546293000" lon="-4.353861000">
        <ele>612.9</ele>
        <time>2020-10-15T13:27:34Z</time>
      </trkpt>
      <trkpt lat="37.546287000" lon="-4.353966000">
        <ele>612.9</ele>
        <time>2020-10-15T13:27:36Z</time>
      </trkpt>
      <trkpt lat="37.546279000" lon="-4.354079000">
        <ele>612.9</ele>
        <time>2020-10-15T13:27:38Z</time>
      </trkpt>
      <trkpt lat="37.546242000" lon="-4.354311000">
        <ele>612.9</ele>
        <time>2020-10-15T13:27:42Z</time>
      </trkpt>
      <trkpt lat="37.546235000" lon="-4.354425000">
        <ele>612.9</ele>
        <time>2020-10-15T13:27:44Z</time>
      </trkpt>
      <trkpt lat="37.546230000" lon="-4.354551000">
        <ele>612.8</ele>
        <time>2020-10-15T13:27:46Z</time>
      </trkpt>
      <trkpt lat="37.546225000" lon="-4.354673000">
        <ele>612.7</ele>
        <time>2020-10-15T13:27:48Z</time>
      </trkpt>
      <trkpt lat="37.546222000" lon="-4.354797000">
        <ele>612.6</ele>
        <time>2020-10-15T13:27:50Z</time>
      </trkpt>
      <trkpt lat="37.546214000" lon="-4.354918000">
        <ele>612.5</ele>
        <time>2020-10-15T13:27:52Z</time>
      </trkpt>
      <trkpt lat="37.546210000" lon="-4.355040000">
        <ele>612.5</ele>
        <time>2020-10-15T13:27:54Z</time>
      </trkpt>
      <trkpt lat="37.546204000" lon="-4.355162000">
        <ele>612.5</ele>
        <time>2020-10-15T13:27:56Z</time>
      </trkpt>
      <trkpt lat="37.546195000" lon="-4.355280000">
        <ele>612.3</ele>
        <time>2020-10-15T13:27:58Z</time>
      </trkpt>
      <trkpt lat="37.546184000" lon="-4.355397000">
        <ele>612.1</ele>
        <time>2020-10-15T13:28:00Z</time>
      </trkpt>
      <trkpt lat="37.546173000" lon="-4.355521000">
        <ele>611.9</ele>
        <time>2020-10-15T13:28:02Z</time>
      </trkpt>
      <trkpt lat="37.546157000" lon="-4.355638000">
        <ele>611.7</ele>
        <time>2020-10-15T13:28:04Z</time>
      </trkpt>
      <trkpt lat="37.546145000" lon="-4.355749000">
        <ele>611.6</ele>
        <time>2020-10-15T13:28:06Z</time>
      </trkpt>
      <trkpt lat="37.546133000" lon="-4.355862000">
        <ele>611.7</ele>
        <time>2020-10-15T13:28:08Z</time>
      </trkpt>
      <trkpt lat="37.546117000" lon="-4.355978000">
        <ele>611.8</ele>
        <time>2020-10-15T13:28:10Z</time>
      </trkpt>
      <trkpt lat="37.546092000" lon="-4.356089000">
        <ele>611.9</ele>
        <time>2020-10-15T13:28:12Z</time>
      </trkpt>
      <trkpt lat="37.546069000" lon="-4.356196000">
        <ele>612.1</ele>
        <time>2020-10-15T13:28:14Z</time>
      </trkpt>
      <trkpt lat="37.546046000" lon="-4.356312000">
        <ele>612.3</ele>
        <time>2020-10-15T13:28:16Z</time>
      </trkpt>
      <trkpt lat="37.546011000" lon="-4.356422000">
        <ele>612.5</ele>
        <time>2020-10-15T13:28:18Z</time>
      </trkpt>
      <trkpt lat="37.545977000" lon="-4.356534000">
        <ele>612.9</ele>
        <time>2020-10-15T13:28:20Z</time>
      </trkpt>
      <trkpt lat="37.545944000" lon="-4.356643000">
        <ele>613.4</ele>
        <time>2020-10-15T13:28:22Z</time>
      </trkpt>
      <trkpt lat="37.545908000" lon="-4.356736000">
        <ele>613.8</ele>
        <time>2020-10-15T13:28:24Z</time>
      </trkpt>
      <trkpt lat="37.545875000" lon="-4.356834000">
        <ele>614.4</ele>
        <time>2020-10-15T13:28:26Z</time>
      </trkpt>
      <trkpt lat="37.545841000" lon="-4.356928000">
        <ele>614.7</ele>
        <time>2020-10-15T13:28:28Z</time>
      </trkpt>
      <trkpt lat="37.545783000" lon="-4.357052000">
        <ele>615.0</ele>
        <time>2020-10-15T13:28:31Z</time>
      </trkpt>
      <trkpt lat="37.545741000" lon="-4.357141000">
        <ele>615.3</ele>
        <time>2020-10-15T13:28:33Z</time>
      </trkpt>
      <trkpt lat="37.545698000" lon="-4.357237000">
        <ele>615.6</ele>
        <time>2020-10-15T13:28:35Z</time>
      </trkpt>
      <trkpt lat="37.545645000" lon="-4.357338000">
        <ele>615.9</ele>
        <time>2020-10-15T13:28:37Z</time>
      </trkpt>
      <trkpt lat="37.545590000" lon="-4.357432000">
        <ele>616.2</ele>
        <time>2020-10-15T13:28:39Z</time>
      </trkpt>
      <trkpt lat="37.545537000" lon="-4.357528000">
        <ele>616.3</ele>
        <time>2020-10-15T13:28:41Z</time>
      </trkpt>
      <trkpt lat="37.545489000" lon="-4.357628000">
        <ele>616.4</ele>
        <time>2020-10-15T13:28:43Z</time>
      </trkpt>
      <trkpt lat="37.545433000" lon="-4.357728000">
        <ele>616.4</ele>
        <time>2020-10-15T13:28:45Z</time>
      </trkpt>
      <trkpt lat="37.545372000" lon="-4.357819000">
        <ele>616.3</ele>
        <time>2020-10-15T13:28:47Z</time>
      </trkpt>
      <trkpt lat="37.545310000" lon="-4.357913000">
        <ele>616.1</ele>
        <time>2020-10-15T13:28:49Z</time>
      </trkpt>
      <trkpt lat="37.545251000" lon="-4.358003000">
        <ele>616.0</ele>
        <time>2020-10-15T13:28:51Z</time>
      </trkpt>
      <trkpt lat="37.545200000" lon="-4.358097000">
        <ele>615.9</ele>
        <time>2020-10-15T13:28:53Z</time>
      </trkpt>
      <trkpt lat="37.545139000" lon="-4.358191000">
        <ele>615.8</ele>
        <time>2020-10-15T13:28:55Z</time>
      </trkpt>
      <trkpt lat="37.545085000" lon="-4.358284000">
        <ele>615.6</ele>
        <time>2020-10-15T13:28:57Z</time>
      </trkpt>
      <trkpt lat="37.545034000" lon="-4.358381000">
        <ele>615.5</ele>
        <time>2020-10-15T13:28:59Z</time>
      </trkpt>
      <trkpt lat="37.544979000" lon="-4.358475000">
        <ele>615.3</ele>
        <time>2020-10-15T13:29:01Z</time>
      </trkpt>
      <trkpt lat="37.544928000" lon="-4.358565000">
        <ele>615.3</ele>
        <time>2020-10-15T13:29:03Z</time>
      </trkpt>
      <trkpt lat="37.544869000" lon="-4.358658000">
        <ele>615.3</ele>
        <time>2020-10-15T13:29:05Z</time>
      </trkpt>
      <trkpt lat="37.544810000" lon="-4.358755000">
        <ele>615.3</ele>
        <time>2020-10-15T13:29:07Z</time>
      </trkpt>
      <trkpt lat="37.544743000" lon="-4.358854000">
        <ele>615.5</ele>
        <time>2020-10-15T13:29:09Z</time>
      </trkpt>
      <trkpt lat="37.544693000" lon="-4.358962000">
        <ele>615.6</ele>
        <time>2020-10-15T13:29:11Z</time>
      </trkpt>
      <trkpt lat="37.544633000" lon="-4.359061000">
        <ele>615.8</ele>
        <time>2020-10-15T13:29:13Z</time>
      </trkpt>
      <trkpt lat="37.544575000" lon="-4.359163000">
        <ele>615.9</ele>
        <time>2020-10-15T13:29:15Z</time>
      </trkpt>
      <trkpt lat="37.544515000" lon="-4.359265000">
        <ele>616.0</ele>
        <time>2020-10-15T13:29:17Z</time>
      </trkpt>
      <trkpt lat="37.544454000" lon="-4.359370000">
        <ele>616.0</ele>
        <time>2020-10-15T13:29:19Z</time>
      </trkpt>
      <trkpt lat="37.544393000" lon="-4.359473000">
        <ele>616.0</ele>
        <time>2020-10-15T13:29:21Z</time>
      </trkpt>
      <trkpt lat="37.544338000" lon="-4.359576000">
        <ele>615.9</ele>
        <time>2020-10-15T13:29:23Z</time>
      </trkpt>
      <trkpt lat="37.544276000" lon="-4.359687000">
        <ele>615.6</ele>
        <time>2020-10-15T13:29:25Z</time>
      </trkpt>
      <trkpt lat="37.544225000" lon="-4.359792000">
        <ele>615.3</ele>
        <time>2020-10-15T13:29:27Z</time>
      </trkpt>
      <trkpt lat="37.544171000" lon="-4.359905000">
        <ele>614.8</ele>
        <time>2020-10-15T13:29:29Z</time>
      </trkpt>
      <trkpt lat="37.544119000" lon="-4.360018000">
        <ele>614.2</ele>
        <time>2020-10-15T13:29:31Z</time>
      </trkpt>
      <trkpt lat="37.544069000" lon="-4.360139000">
        <ele>613.5</ele>
        <time>2020-10-15T13:29:33Z</time>
      </trkpt>
      <trkpt lat="37.544024000" lon="-4.360260000">
        <ele>612.8</ele>
        <time>2020-10-15T13:29:35Z</time>
      </trkpt>
      <trkpt lat="37.543973000" lon="-4.360378000">
        <ele>612.2</ele>
        <time>2020-10-15T13:29:37Z</time>
      </trkpt>
      <trkpt lat="37.543934000" lon="-4.360503000">
        <ele>611.5</ele>
        <time>2020-10-15T13:29:39Z</time>
      </trkpt>
      <trkpt lat="37.543891000" lon="-4.360632000">
        <ele>611.0</ele>
        <time>2020-10-15T13:29:41Z</time>
      </trkpt>
      <trkpt lat="37.543851000" lon="-4.360749000">
        <ele>610.5</ele>
        <time>2020-10-15T13:29:43Z</time>
      </trkpt>
      <trkpt lat="37.543809000" lon="-4.360870000">
        <ele>610.0</ele>
        <time>2020-10-15T13:29:45Z</time>
      </trkpt>
      <trkpt lat="37.543771000" lon="-4.360997000">
        <ele>609.6</ele>
        <time>2020-10-15T13:29:47Z</time>
      </trkpt>
      <trkpt lat="37.543744000" lon="-4.361118000">
        <ele>609.5</ele>
        <time>2020-10-15T13:29:49Z</time>
      </trkpt>
      <trkpt lat="37.543719000" lon="-4.361245000">
        <ele>609.4</ele>
        <time>2020-10-15T13:29:51Z</time>
      </trkpt>
      <trkpt lat="37.543687000" lon="-4.361358000">
        <ele>609.4</ele>
        <time>2020-10-15T13:29:53Z</time>
      </trkpt>
      <trkpt lat="37.543662000" lon="-4.361484000">
        <ele>609.5</ele>
        <time>2020-10-15T13:29:55Z</time>
      </trkpt>
      <trkpt lat="37.543645000" lon="-4.361612000">
        <ele>609.6</ele>
        <time>2020-10-15T13:29:57Z</time>
      </trkpt>
      <trkpt lat="37.543629000" lon="-4.361734000">
        <ele>609.8</ele>
        <time>2020-10-15T13:29:59Z</time>
      </trkpt>
      <trkpt lat="37.543613000" lon="-4.361845000">
        <ele>610.1</ele>
        <time>2020-10-15T13:30:01Z</time>
      </trkpt>
      <trkpt lat="37.543597000" lon="-4.361964000">
        <ele>610.4</ele>
        <time>2020-10-15T13:30:03Z</time>
      </trkpt>
      <trkpt lat="37.543582000" lon="-4.362080000">
        <ele>610.7</ele>
        <time>2020-10-15T13:30:05Z</time>
      </trkpt>
      <trkpt lat="37.543572000" lon="-4.362202000">
        <ele>611.1</ele>
        <time>2020-10-15T13:30:07Z</time>
      </trkpt>
      <trkpt lat="37.543564000" lon="-4.362320000">
        <ele>611.5</ele>
        <time>2020-10-15T13:30:09Z</time>
      </trkpt>
      <trkpt lat="37.543561000" lon="-4.362443000">
        <ele>612.0</ele>
        <time>2020-10-15T13:30:11Z</time>
      </trkpt>
      <trkpt lat="37.543559000" lon="-4.362560000">
        <ele>612.5</ele>
        <time>2020-10-15T13:30:13Z</time>
      </trkpt>
      <trkpt lat="37.543561000" lon="-4.362674000">
        <ele>612.9</ele>
        <time>2020-10-15T13:30:15Z</time>
      </trkpt>
      <trkpt lat="37.543556000" lon="-4.362792000">
        <ele>613.3</ele>
        <time>2020-10-15T13:30:17Z</time>
      </trkpt>
      <trkpt lat="37.543559000" lon="-4.362911000">
        <ele>613.6</ele>
        <time>2020-10-15T13:30:19Z</time>
      </trkpt>
      <trkpt lat="37.543559000" lon="-4.363019000">
        <ele>613.9</ele>
        <time>2020-10-15T13:30:21Z</time>
      </trkpt>
      <trkpt lat="37.543561000" lon="-4.363123000">
        <ele>614.1</ele>
        <time>2020-10-15T13:30:23Z</time>
      </trkpt>
      <trkpt lat="37.543563000" lon="-4.363227000">
        <ele>614.2</ele>
        <time>2020-10-15T13:30:25Z</time>
      </trkpt>
      <trkpt lat="37.543566000" lon="-4.363331000">
        <ele>614.1</ele>
        <time>2020-10-15T13:30:27Z</time>
      </trkpt>
      <trkpt lat="37.543569000" lon="-4.363443000">
        <ele>614.0</ele>
        <time>2020-10-15T13:30:29Z</time>
      </trkpt>
      <trkpt lat="37.543574000" lon="-4.363556000">
        <ele>613.8</ele>
        <time>2020-10-15T13:30:31Z</time>
      </trkpt>
      <trkpt lat="37.543577000" lon="-4.363667000">
        <ele>613.5</ele>
        <time>2020-10-15T13:30:33Z</time>
      </trkpt>
      <trkpt lat="37.543580000" lon="-4.363791000">
        <ele>613.1</ele>
        <time>2020-10-15T13:30:35Z</time>
      </trkpt>
      <trkpt lat="37.543575000" lon="-4.363912000">
        <ele>612.7</ele>
        <time>2020-10-15T13:30:37Z</time>
      </trkpt>
      <trkpt lat="37.543577000" lon="-4.364041000">
        <ele>612.4</ele>
        <time>2020-10-15T13:30:39Z</time>
      </trkpt>
      <trkpt lat="37.543586000" lon="-4.364155000">
        <ele>611.9</ele>
        <time>2020-10-15T13:30:41Z</time>
      </trkpt>
      <trkpt lat="37.543588000" lon="-4.364277000">
        <ele>611.5</ele>
        <time>2020-10-15T13:30:43Z</time>
      </trkpt>
      <trkpt lat="37.543586000" lon="-4.364399000">
        <ele>611.2</ele>
        <time>2020-10-15T13:30:45Z</time>
      </trkpt>
      <trkpt lat="37.543587000" lon="-4.364514000">
        <ele>610.8</ele>
        <time>2020-10-15T13:30:47Z</time>
      </trkpt>
      <trkpt lat="37.543590000" lon="-4.364634000">
        <ele>610.5</ele>
        <time>2020-10-15T13:30:49Z</time>
      </trkpt>
      <trkpt lat="37.543599000" lon="-4.364753000">
        <ele>610.2</ele>
        <time>2020-10-15T13:30:51Z</time>
      </trkpt>
      <trkpt lat="37.543606000" lon="-4.364871000">
        <ele>609.6</ele>
        <time>2020-10-15T13:30:53Z</time>
      </trkpt>
      <trkpt lat="37.543613000" lon="-4.364995000">
        <ele>609.1</ele>
        <time>2020-10-15T13:30:55Z</time>
      </trkpt>
      <trkpt lat="37.543619000" lon="-4.365119000">
        <ele>608.6</ele>
        <time>2020-10-15T13:30:57Z</time>
      </trkpt>
      <trkpt lat="37.543617000" lon="-4.365239000">
        <ele>608.2</ele>
        <time>2020-10-15T13:30:59Z</time>
      </trkpt>
      <trkpt lat="37.543621000" lon="-4.365354000">
        <ele>607.7</ele>
        <time>2020-10-15T13:31:01Z</time>
      </trkpt>
      <trkpt lat="37.543623000" lon="-4.365477000">
        <ele>607.5</ele>
        <time>2020-10-15T13:31:03Z</time>
      </trkpt>
      <trkpt lat="37.543634000" lon="-4.365591000">
        <ele>607.3</ele>
        <time>2020-10-15T13:31:05Z</time>
      </trkpt>
      <trkpt lat="37.543638000" lon="-4.365712000">
        <ele>607.2</ele>
        <time>2020-10-15T13:31:07Z</time>
      </trkpt>
      <trkpt lat="37.543639000" lon="-4.365835000">
        <ele>607.3</ele>
        <time>2020-10-15T13:31:09Z</time>
      </trkpt>
      <trkpt lat="37.543648000" lon="-4.365952000">
        <ele>607.5</ele>
        <time>2020-10-15T13:31:11Z</time>
      </trkpt>
      <trkpt lat="37.543649000" lon="-4.366068000">
        <ele>607.8</ele>
        <time>2020-10-15T13:31:13Z</time>
      </trkpt>
      <trkpt lat="37.543652000" lon="-4.366188000">
        <ele>608.5</ele>
        <time>2020-10-15T13:31:15Z</time>
      </trkpt>
      <trkpt lat="37.543659000" lon="-4.366305000">
        <ele>609.3</ele>
        <time>2020-10-15T13:31:17Z</time>
      </trkpt>
      <trkpt lat="37.543661000" lon="-4.366424000">
        <ele>610.1</ele>
        <time>2020-10-15T13:31:19Z</time>
      </trkpt>
      <trkpt lat="37.543661000" lon="-4.366542000">
        <ele>610.9</ele>
        <time>2020-10-15T13:31:21Z</time>
      </trkpt>
      <trkpt lat="37.543660000" lon="-4.366655000">
        <ele>611.7</ele>
        <time>2020-10-15T13:31:23Z</time>
      </trkpt>
      <trkpt lat="37.543663000" lon="-4.366766000">
        <ele>612.5</ele>
        <time>2020-10-15T13:31:25Z</time>
      </trkpt>
      <trkpt lat="37.543666000" lon="-4.366888000">
        <ele>613.1</ele>
        <time>2020-10-15T13:31:27Z</time>
      </trkpt>
      <trkpt lat="37.543673000" lon="-4.367017000">
        <ele>613.5</ele>
        <time>2020-10-15T13:31:29Z</time>
      </trkpt>
      <trkpt lat="37.543676000" lon="-4.367134000">
        <ele>613.9</ele>
        <time>2020-10-15T13:31:31Z</time>
      </trkpt>
      <trkpt lat="37.543677000" lon="-4.367249000">
        <ele>614.2</ele>
        <time>2020-10-15T13:31:33Z</time>
      </trkpt>
      <trkpt lat="37.543678000" lon="-4.367389000">
        <ele>614.4</ele>
        <time>2020-10-15T13:31:36Z</time>
      </trkpt>
      <trkpt lat="37.543677000" lon="-4.367498000">
        <ele>614.5</ele>
        <time>2020-10-15T13:31:38Z</time>
      </trkpt>
      <trkpt lat="37.543677000" lon="-4.367613000">
        <ele>614.5</ele>
        <time>2020-10-15T13:31:40Z</time>
      </trkpt>
      <trkpt lat="37.543680000" lon="-4.367731000">
        <ele>614.4</ele>
        <time>2020-10-15T13:31:42Z</time>
      </trkpt>
      <trkpt lat="37.543675000" lon="-4.367843000">
        <ele>614.3</ele>
        <time>2020-10-15T13:31:44Z</time>
      </trkpt>
      <trkpt lat="37.543678000" lon="-4.367945000">
        <ele>614.1</ele>
        <time>2020-10-15T13:31:46Z</time>
      </trkpt>
      <trkpt lat="37.543680000" lon="-4.368058000">
        <ele>613.8</ele>
        <time>2020-10-15T13:31:48Z</time>
      </trkpt>
      <trkpt lat="37.543676000" lon="-4.368179000">
        <ele>613.5</ele>
        <time>2020-10-15T13:31:50Z</time>
      </trkpt>
      <trkpt lat="37.543677000" lon="-4.368306000">
        <ele>613.2</ele>
        <time>2020-10-15T13:31:52Z</time>
      </trkpt>
      <trkpt lat="37.543677000" lon="-4.368422000">
        <ele>612.8</ele>
        <time>2020-10-15T13:31:54Z</time>
      </trkpt>
      <trkpt lat="37.543673000" lon="-4.368538000">
        <ele>612.4</ele>
        <time>2020-10-15T13:31:56Z</time>
      </trkpt>
      <trkpt lat="37.543672000" lon="-4.368642000">
        <ele>611.9</ele>
        <time>2020-10-15T13:31:58Z</time>
      </trkpt>
      <trkpt lat="37.543667000" lon="-4.368744000">
        <ele>611.5</ele>
        <time>2020-10-15T13:32:00Z</time>
      </trkpt>
      <trkpt lat="37.543662000" lon="-4.368854000">
        <ele>611.0</ele>
        <time>2020-10-15T13:32:02Z</time>
      </trkpt>
      <trkpt lat="37.543659000" lon="-4.368978000">
        <ele>610.5</ele>
        <time>2020-10-15T13:32:04Z</time>
      </trkpt>
      <trkpt lat="37.543652000" lon="-4.369110000">
        <ele>610.1</ele>
        <time>2020-10-15T13:32:06Z</time>
      </trkpt>
      <trkpt lat="37.543642000" lon="-4.369242000">
        <ele>609.8</ele>
        <time>2020-10-15T13:32:08Z</time>
      </trkpt>
      <trkpt lat="37.543641000" lon="-4.369373000">
        <ele>609.6</ele>
        <time>2020-10-15T13:32:10Z</time>
      </trkpt>
      <trkpt lat="37.543640000" lon="-4.369490000">
        <ele>609.5</ele>
        <time>2020-10-15T13:32:12Z</time>
      </trkpt>
      <trkpt lat="37.543638000" lon="-4.369607000">
        <ele>609.4</ele>
        <time>2020-10-15T13:32:14Z</time>
      </trkpt>
      <trkpt lat="37.543634000" lon="-4.369716000">
        <ele>609.3</ele>
        <time>2020-10-15T13:32:16Z</time>
      </trkpt>
      <trkpt lat="37.543621000" lon="-4.369842000">
        <ele>609.3</ele>
        <time>2020-10-15T13:32:18Z</time>
      </trkpt>
      <trkpt lat="37.543613000" lon="-4.369970000">
        <ele>609.4</ele>
        <time>2020-10-15T13:32:20Z</time>
      </trkpt>
      <trkpt lat="37.543604000" lon="-4.370109000">
        <ele>609.5</ele>
        <time>2020-10-15T13:32:22Z</time>
      </trkpt>
      <trkpt lat="37.543604000" lon="-4.370238000">
        <ele>609.5</ele>
        <time>2020-10-15T13:32:24Z</time>
      </trkpt>
      <trkpt lat="37.543598000" lon="-4.370361000">
        <ele>609.6</ele>
        <time>2020-10-15T13:32:26Z</time>
      </trkpt>
      <trkpt lat="37.543593000" lon="-4.370485000">
        <ele>609.7</ele>
        <time>2020-10-15T13:32:28Z</time>
      </trkpt>
      <trkpt lat="37.543584000" lon="-4.370614000">
        <ele>609.7</ele>
        <time>2020-10-15T13:32:30Z</time>
      </trkpt>
      <trkpt lat="37.543579000" lon="-4.370743000">
        <ele>609.7</ele>
        <time>2020-10-15T13:32:32Z</time>
      </trkpt>
      <trkpt lat="37.543570000" lon="-4.370870000">
        <ele>609.8</ele>
        <time>2020-10-15T13:32:34Z</time>
      </trkpt>
      <trkpt lat="37.543561000" lon="-4.371004000">
        <ele>610.1</ele>
        <time>2020-10-15T13:32:36Z</time>
      </trkpt>
      <trkpt lat="37.543560000" lon="-4.371132000">
        <ele>610.4</ele>
        <time>2020-10-15T13:32:38Z</time>
      </trkpt>
      <trkpt lat="37.543560000" lon="-4.371263000">
        <ele>610.6</ele>
        <time>2020-10-15T13:32:40Z</time>
      </trkpt>
      <trkpt lat="37.543554000" lon="-4.371394000">
        <ele>610.8</ele>
        <time>2020-10-15T13:32:42Z</time>
      </trkpt>
      <trkpt lat="37.543545000" lon="-4.371523000">
        <ele>611.1</ele>
        <time>2020-10-15T13:32:44Z</time>
      </trkpt>
      <trkpt lat="37.543536000" lon="-4.371649000">
        <ele>611.4</ele>
        <time>2020-10-15T13:32:46Z</time>
      </trkpt>
      <trkpt lat="37.543523000" lon="-4.371775000">
        <ele>611.6</ele>
        <time>2020-10-15T13:32:48Z</time>
      </trkpt>
      <trkpt lat="37.543519000" lon="-4.371906000">
        <ele>612.0</ele>
        <time>2020-10-15T13:32:50Z</time>
      </trkpt>
      <trkpt lat="37.543512000" lon="-4.372029000">
        <ele>612.3</ele>
        <time>2020-10-15T13:32:52Z</time>
      </trkpt>
      <trkpt lat="37.543501000" lon="-4.372157000">
        <ele>612.5</ele>
        <time>2020-10-15T13:32:54Z</time>
      </trkpt>
      <trkpt lat="37.543496000" lon="-4.372287000">
        <ele>612.7</ele>
        <time>2020-10-15T13:32:56Z</time>
      </trkpt>
      <trkpt lat="37.543489000" lon="-4.372409000">
        <ele>612.7</ele>
        <time>2020-10-15T13:32:58Z</time>
      </trkpt>
      <trkpt lat="37.543487000" lon="-4.372540000">
        <ele>612.8</ele>
        <time>2020-10-15T13:33:00Z</time>
      </trkpt>
      <trkpt lat="37.543488000" lon="-4.372668000">
        <ele>613.0</ele>
        <time>2020-10-15T13:33:02Z</time>
      </trkpt>
      <trkpt lat="37.543471000" lon="-4.372792000">
        <ele>613.2</ele>
        <time>2020-10-15T13:33:04Z</time>
      </trkpt>
      <trkpt lat="37.543458000" lon="-4.372920000">
        <ele>613.3</ele>
        <time>2020-10-15T13:33:06Z</time>
      </trkpt>
      <trkpt lat="37.543443000" lon="-4.373054000">
        <ele>613.4</ele>
        <time>2020-10-15T13:33:08Z</time>
      </trkpt>
      <trkpt lat="37.543423000" lon="-4.373191000">
        <ele>613.4</ele>
        <time>2020-10-15T13:33:10Z</time>
      </trkpt>
      <trkpt lat="37.543403000" lon="-4.373318000">
        <ele>613.3</ele>
        <time>2020-10-15T13:33:12Z</time>
      </trkpt>
      <trkpt lat="37.543376000" lon="-4.373440000">
        <ele>613.2</ele>
        <time>2020-10-15T13:33:14Z</time>
      </trkpt>
      <trkpt lat="37.543347000" lon="-4.373565000">
        <ele>613.0</ele>
        <time>2020-10-15T13:33:16Z</time>
      </trkpt>
      <trkpt lat="37.543318000" lon="-4.373684000">
        <ele>612.7</ele>
        <time>2020-10-15T13:33:18Z</time>
      </trkpt>
      <trkpt lat="37.543281000" lon="-4.373808000">
        <ele>612.5</ele>
        <time>2020-10-15T13:33:20Z</time>
      </trkpt>
      <trkpt lat="37.543239000" lon="-4.373925000">
        <ele>612.1</ele>
        <time>2020-10-15T13:33:22Z</time>
      </trkpt>
      <trkpt lat="37.543194000" lon="-4.374045000">
        <ele>611.5</ele>
        <time>2020-10-15T13:33:24Z</time>
      </trkpt>
      <trkpt lat="37.543150000" lon="-4.374153000">
        <ele>610.9</ele>
        <time>2020-10-15T13:33:26Z</time>
      </trkpt>
      <trkpt lat="37.543107000" lon="-4.374262000">
        <ele>610.3</ele>
        <time>2020-10-15T13:33:28Z</time>
      </trkpt>
      <trkpt lat="37.543059000" lon="-4.374378000">
        <ele>609.5</ele>
        <time>2020-10-15T13:33:30Z</time>
      </trkpt>
      <trkpt lat="37.543009000" lon="-4.374495000">
        <ele>608.9</ele>
        <time>2020-10-15T13:33:32Z</time>
      </trkpt>
      <trkpt lat="37.542950000" lon="-4.374614000">
        <ele>608.3</ele>
        <time>2020-10-15T13:33:34Z</time>
      </trkpt>
      <trkpt lat="37.542900000" lon="-4.374742000">
        <ele>607.7</ele>
        <time>2020-10-15T13:33:36Z</time>
      </trkpt>
      <trkpt lat="37.542853000" lon="-4.374861000">
        <ele>607.3</ele>
        <time>2020-10-15T13:33:38Z</time>
      </trkpt>
      <trkpt lat="37.542799000" lon="-4.374969000">
        <ele>607.0</ele>
        <time>2020-10-15T13:33:40Z</time>
      </trkpt>
      <trkpt lat="37.542753000" lon="-4.375087000">
        <ele>606.8</ele>
        <time>2020-10-15T13:33:42Z</time>
      </trkpt>
      <trkpt lat="37.542710000" lon="-4.375200000">
        <ele>606.6</ele>
        <time>2020-10-15T13:33:44Z</time>
      </trkpt>
      <trkpt lat="37.542666000" lon="-4.375310000">
        <ele>606.6</ele>
        <time>2020-10-15T13:33:46Z</time>
      </trkpt>
      <trkpt lat="37.542621000" lon="-4.375434000">
        <ele>606.8</ele>
        <time>2020-10-15T13:33:48Z</time>
      </trkpt>
      <trkpt lat="37.542576000" lon="-4.375549000">
        <ele>607.0</ele>
        <time>2020-10-15T13:33:50Z</time>
      </trkpt>
      <trkpt lat="37.542538000" lon="-4.375659000">
        <ele>607.4</ele>
        <time>2020-10-15T13:33:52Z</time>
      </trkpt>
      <trkpt lat="37.542497000" lon="-4.375776000">
        <ele>607.7</ele>
        <time>2020-10-15T13:33:54Z</time>
      </trkpt>
      <trkpt lat="37.542461000" lon="-4.375888000">
        <ele>608.2</ele>
        <time>2020-10-15T13:33:56Z</time>
      </trkpt>
      <trkpt lat="37.542427000" lon="-4.376006000">
        <ele>608.6</ele>
        <time>2020-10-15T13:33:58Z</time>
      </trkpt>
      <trkpt lat="37.542398000" lon="-4.376122000">
        <ele>609.2</ele>
        <time>2020-10-15T13:34:00Z</time>
      </trkpt>
      <trkpt lat="37.542371000" lon="-4.376239000">
        <ele>609.7</ele>
        <time>2020-10-15T13:34:02Z</time>
      </trkpt>
      <trkpt lat="37.542350000" lon="-4.376356000">
        <ele>610.3</ele>
        <time>2020-10-15T13:34:04Z</time>
      </trkpt>
      <trkpt lat="37.542328000" lon="-4.376478000">
        <ele>610.9</ele>
        <time>2020-10-15T13:34:06Z</time>
      </trkpt>
      <trkpt lat="37.542304000" lon="-4.376602000">
        <ele>611.5</ele>
        <time>2020-10-15T13:34:08Z</time>
      </trkpt>
      <trkpt lat="37.542288000" lon="-4.376728000">
        <ele>612.1</ele>
        <time>2020-10-15T13:34:10Z</time>
      </trkpt>
      <trkpt lat="37.542271000" lon="-4.376854000">
        <ele>612.8</ele>
        <time>2020-10-15T13:34:12Z</time>
      </trkpt>
      <trkpt lat="37.542256000" lon="-4.376973000">
        <ele>613.5</ele>
        <time>2020-10-15T13:34:14Z</time>
      </trkpt>
      <trkpt lat="37.542245000" lon="-4.377092000">
        <ele>614.1</ele>
        <time>2020-10-15T13:34:16Z</time>
      </trkpt>
      <trkpt lat="37.542236000" lon="-4.377199000">
        <ele>614.7</ele>
        <time>2020-10-15T13:34:18Z</time>
      </trkpt>
      <trkpt lat="37.542232000" lon="-4.377314000">
        <ele>615.4</ele>
        <time>2020-10-15T13:34:20Z</time>
      </trkpt>
      <trkpt lat="37.542220000" lon="-4.377431000">
        <ele>615.8</ele>
        <time>2020-10-15T13:34:22Z</time>
      </trkpt>
      <trkpt lat="37.542210000" lon="-4.377549000">
        <ele>616.2</ele>
        <time>2020-10-15T13:34:24Z</time>
      </trkpt>
      <trkpt lat="37.542200000" lon="-4.377671000">
        <ele>616.5</ele>
        <time>2020-10-15T13:34:26Z</time>
      </trkpt>
      <trkpt lat="37.542194000" lon="-4.377788000">
        <ele>616.6</ele>
        <time>2020-10-15T13:34:28Z</time>
      </trkpt>
      <trkpt lat="37.542183000" lon="-4.377908000">
        <ele>616.7</ele>
        <time>2020-10-15T13:34:30Z</time>
      </trkpt>
      <trkpt lat="37.542178000" lon="-4.378029000">
        <ele>616.8</ele>
        <time>2020-10-15T13:34:32Z</time>
      </trkpt>
      <trkpt lat="37.542170000" lon="-4.378146000">
        <ele>616.7</ele>
        <time>2020-10-15T13:34:34Z</time>
      </trkpt>
      <trkpt lat="37.542168000" lon="-4.378261000">
        <ele>616.6</ele>
        <time>2020-10-15T13:34:36Z</time>
      </trkpt>
      <trkpt lat="37.542160000" lon="-4.378380000">
        <ele>616.5</ele>
        <time>2020-10-15T13:34:38Z</time>
      </trkpt>
      <trkpt lat="37.542151000" lon="-4.378500000">
        <ele>616.4</ele>
        <time>2020-10-15T13:34:40Z</time>
      </trkpt>
      <trkpt lat="37.542139000" lon="-4.378627000">
        <ele>616.1</ele>
        <time>2020-10-15T13:34:42Z</time>
      </trkpt>
      <trkpt lat="37.542134000" lon="-4.378750000">
        <ele>615.9</ele>
        <time>2020-10-15T13:34:44Z</time>
      </trkpt>
      <trkpt lat="37.542130000" lon="-4.378875000">
        <ele>615.5</ele>
        <time>2020-10-15T13:34:46Z</time>
      </trkpt>
      <trkpt lat="37.542127000" lon="-4.378996000">
        <ele>615.2</ele>
        <time>2020-10-15T13:34:48Z</time>
      </trkpt>
      <trkpt lat="37.542112000" lon="-4.379119000">
        <ele>614.7</ele>
        <time>2020-10-15T13:34:50Z</time>
      </trkpt>
      <trkpt lat="37.542100000" lon="-4.379246000">
        <ele>614.3</ele>
        <time>2020-10-15T13:34:52Z</time>
      </trkpt>
      <trkpt lat="37.542093000" lon="-4.379366000">
        <ele>613.7</ele>
        <time>2020-10-15T13:34:54Z</time>
      </trkpt>
      <trkpt lat="37.542086000" lon="-4.379494000">
        <ele>613.1</ele>
        <time>2020-10-15T13:34:56Z</time>
      </trkpt>
      <trkpt lat="37.542071000" lon="-4.379611000">
        <ele>612.5</ele>
        <time>2020-10-15T13:34:58Z</time>
      </trkpt>
      <trkpt lat="37.542054000" lon="-4.379720000">
        <ele>611.7</ele>
        <time>2020-10-15T13:35:00Z</time>
      </trkpt>
      <trkpt lat="37.542034000" lon="-4.379832000">
        <ele>611.0</ele>
        <time>2020-10-15T13:35:02Z</time>
      </trkpt>
      <trkpt lat="37.542014000" lon="-4.379934000">
        <ele>610.4</ele>
        <time>2020-10-15T13:35:04Z</time>
      </trkpt>
      <trkpt lat="37.541988000" lon="-4.380043000">
        <ele>609.7</ele>
        <time>2020-10-15T13:35:06Z</time>
      </trkpt>
      <trkpt lat="37.541963000" lon="-4.380153000">
        <ele>609.3</ele>
        <time>2020-10-15T13:35:08Z</time>
      </trkpt>
      <trkpt lat="37.541925000" lon="-4.380270000">
        <ele>608.9</ele>
        <time>2020-10-15T13:35:10Z</time>
      </trkpt>
      <trkpt lat="37.541878000" lon="-4.380391000">
        <ele>608.7</ele>
        <time>2020-10-15T13:35:12Z</time>
      </trkpt>
      <trkpt lat="37.541835000" lon="-4.380529000">
        <ele>608.5</ele>
        <time>2020-10-15T13:35:14Z</time>
      </trkpt>
      <trkpt lat="37.541792000" lon="-4.380650000">
        <ele>608.5</ele>
        <time>2020-10-15T13:35:16Z</time>
      </trkpt>
      <trkpt lat="37.541756000" lon="-4.380767000">
        <ele>608.5</ele>
        <time>2020-10-15T13:35:18Z</time>
      </trkpt>
      <trkpt lat="37.541713000" lon="-4.380879000">
        <ele>608.5</ele>
        <time>2020-10-15T13:35:20Z</time>
      </trkpt>
      <trkpt lat="37.541667000" lon="-4.380980000">
        <ele>608.5</ele>
        <time>2020-10-15T13:35:22Z</time>
      </trkpt>
      <trkpt lat="37.541622000" lon="-4.381076000">
        <ele>608.5</ele>
        <time>2020-10-15T13:35:24Z</time>
      </trkpt>
      <trkpt lat="37.541568000" lon="-4.381169000">
        <ele>608.5</ele>
        <time>2020-10-15T13:35:26Z</time>
      </trkpt>
      <trkpt lat="37.541508000" lon="-4.381276000">
        <ele>608.5</ele>
        <time>2020-10-15T13:35:28Z</time>
      </trkpt>
      <trkpt lat="37.541449000" lon="-4.381398000">
        <ele>608.5</ele>
        <time>2020-10-15T13:35:30Z</time>
      </trkpt>
      <trkpt lat="37.541384000" lon="-4.381526000">
        <ele>608.5</ele>
        <time>2020-10-15T13:35:32Z</time>
      </trkpt>
      <trkpt lat="37.541332000" lon="-4.381655000">
        <ele>608.5</ele>
        <time>2020-10-15T13:35:34Z</time>
      </trkpt>
      <trkpt lat="37.541273000" lon="-4.381765000">
        <ele>608.4</ele>
        <time>2020-10-15T13:35:36Z</time>
      </trkpt>
      <trkpt lat="37.541221000" lon="-4.381872000">
        <ele>608.3</ele>
        <time>2020-10-15T13:35:38Z</time>
      </trkpt>
      <trkpt lat="37.541169000" lon="-4.381972000">
        <ele>608.2</ele>
        <time>2020-10-15T13:35:40Z</time>
      </trkpt>
      <trkpt lat="37.541123000" lon="-4.382068000">
        <ele>608.1</ele>
        <time>2020-10-15T13:35:42Z</time>
      </trkpt>
      <trkpt lat="37.541074000" lon="-4.382157000">
        <ele>607.9</ele>
        <time>2020-10-15T13:35:44Z</time>
      </trkpt>
      <trkpt lat="37.541010000" lon="-4.382287000">
        <ele>607.8</ele>
        <time>2020-10-15T13:35:47Z</time>
      </trkpt>
      <trkpt lat="37.540956000" lon="-4.382386000">
        <ele>607.7</ele>
        <time>2020-10-15T13:35:49Z</time>
      </trkpt>
      <trkpt lat="37.540906000" lon="-4.382492000">
        <ele>607.7</ele>
        <time>2020-10-15T13:35:51Z</time>
      </trkpt>
      <trkpt lat="37.540846000" lon="-4.382605000">
        <ele>607.7</ele>
        <time>2020-10-15T13:35:53Z</time>
      </trkpt>
      <trkpt lat="37.540787000" lon="-4.382727000">
        <ele>607.7</ele>
        <time>2020-10-15T13:35:55Z</time>
      </trkpt>
      <trkpt lat="37.540727000" lon="-4.382847000">
        <ele>607.7</ele>
        <time>2020-10-15T13:35:57Z</time>
      </trkpt>
      <trkpt lat="37.540673000" lon="-4.382957000">
        <ele>607.7</ele>
        <time>2020-10-15T13:35:59Z</time>
      </trkpt>
      <trkpt lat="37.540614000" lon="-4.383058000">
        <ele>607.7</ele>
        <time>2020-10-15T13:36:01Z</time>
      </trkpt>
      <trkpt lat="37.540561000" lon="-4.383146000">
        <ele>607.7</ele>
        <time>2020-10-15T13:36:03Z</time>
      </trkpt>
      <trkpt lat="37.540512000" lon="-4.383237000">
        <ele>607.7</ele>
        <time>2020-10-15T13:36:05Z</time>
      </trkpt>
      <trkpt lat="37.540465000" lon="-4.383322000">
        <ele>607.8</ele>
        <time>2020-10-15T13:36:07Z</time>
      </trkpt>
      <trkpt lat="37.540415000" lon="-4.383415000">
        <ele>608.0</ele>
        <time>2020-10-15T13:36:09Z</time>
      </trkpt>
      <trkpt lat="37.540363000" lon="-4.383513000">
        <ele>608.2</ele>
        <time>2020-10-15T13:36:11Z</time>
      </trkpt>
      <trkpt lat="37.540310000" lon="-4.383623000">
        <ele>608.3</ele>
        <time>2020-10-15T13:36:14Z</time>
      </trkpt>
      <trkpt lat="37.540251000" lon="-4.383743000">
        <ele>608.4</ele>
        <time>2020-10-15T13:36:15Z</time>
      </trkpt>
      <trkpt lat="37.540200000" lon="-4.383871000">
        <ele>608.5</ele>
        <time>2020-10-15T13:36:17Z</time>
      </trkpt>
      <trkpt lat="37.540135000" lon="-4.383978000">
        <ele>608.5</ele>
        <time>2020-10-15T13:36:19Z</time>
      </trkpt>
      <trkpt lat="37.540077000" lon="-4.384077000">
        <ele>608.7</ele>
        <time>2020-10-15T13:36:21Z</time>
      </trkpt>
      <trkpt lat="37.540020000" lon="-4.384177000">
        <ele>608.9</ele>
        <time>2020-10-15T13:36:23Z</time>
      </trkpt>
      <trkpt lat="37.539968000" lon="-4.384258000">
        <ele>609.1</ele>
        <time>2020-10-15T13:36:25Z</time>
      </trkpt>
      <trkpt lat="37.539904000" lon="-4.384360000">
        <ele>609.3</ele>
        <time>2020-10-15T13:36:27Z</time>
      </trkpt>
      <trkpt lat="37.539836000" lon="-4.384465000">
        <ele>609.5</ele>
        <time>2020-10-15T13:36:29Z</time>
      </trkpt>
      <trkpt lat="37.539756000" lon="-4.384569000">
        <ele>609.5</ele>
        <time>2020-10-15T13:36:31Z</time>
      </trkpt>
      <trkpt lat="37.539682000" lon="-4.384675000">
        <ele>609.6</ele>
        <time>2020-10-15T13:36:33Z</time>
      </trkpt>
      <trkpt lat="37.539614000" lon="-4.384774000">
        <ele>609.6</ele>
        <time>2020-10-15T13:36:35Z</time>
      </trkpt>
      <trkpt lat="37.539547000" lon="-4.384859000">
        <ele>609.6</ele>
        <time>2020-10-15T13:36:37Z</time>
      </trkpt>
      <trkpt lat="37.539478000" lon="-4.384940000">
        <ele>609.6</ele>
        <time>2020-10-15T13:36:39Z</time>
      </trkpt>
      <trkpt lat="37.539418000" lon="-4.385031000">
        <ele>609.6</ele>
        <time>2020-10-15T13:36:41Z</time>
      </trkpt>
      <trkpt lat="37.539361000" lon="-4.385113000">
        <ele>609.5</ele>
        <time>2020-10-15T13:36:43Z</time>
      </trkpt>
      <trkpt lat="37.539291000" lon="-4.385192000">
        <ele>609.5</ele>
        <time>2020-10-15T13:36:45Z</time>
      </trkpt>
      <trkpt lat="37.539224000" lon="-4.385271000">
        <ele>609.4</ele>
        <time>2020-10-15T13:36:47Z</time>
      </trkpt>
      <trkpt lat="37.539153000" lon="-4.385353000">
        <ele>609.3</ele>
        <time>2020-10-15T13:36:49Z</time>
      </trkpt>
      <trkpt lat="37.539086000" lon="-4.385435000">
        <ele>609.3</ele>
        <time>2020-10-15T13:36:51Z</time>
      </trkpt>
      <trkpt lat="37.539016000" lon="-4.385513000">
        <ele>609.3</ele>
        <time>2020-10-15T13:36:53Z</time>
      </trkpt>
      <trkpt lat="37.538944000" lon="-4.385585000">
        <ele>609.4</ele>
        <time>2020-10-15T13:36:55Z</time>
      </trkpt>
      <trkpt lat="37.538870000" lon="-4.385665000">
        <ele>609.5</ele>
        <time>2020-10-15T13:36:57Z</time>
      </trkpt>
      <trkpt lat="37.538796000" lon="-4.385739000">
        <ele>609.7</ele>
        <time>2020-10-15T13:36:59Z</time>
      </trkpt>
      <trkpt lat="37.538723000" lon="-4.385814000">
        <ele>609.9</ele>
        <time>2020-10-15T13:37:01Z</time>
      </trkpt>
      <trkpt lat="37.538648000" lon="-4.385889000">
        <ele>610.1</ele>
        <time>2020-10-15T13:37:03Z</time>
      </trkpt>
      <trkpt lat="37.538574000" lon="-4.385967000">
        <ele>610.3</ele>
        <time>2020-10-15T13:37:05Z</time>
      </trkpt>
      <trkpt lat="37.538495000" lon="-4.386042000">
        <ele>610.5</ele>
        <time>2020-10-15T13:37:07Z</time>
      </trkpt>
      <trkpt lat="37.538423000" lon="-4.386118000">
        <ele>610.6</ele>
        <time>2020-10-15T13:37:09Z</time>
      </trkpt>
      <trkpt lat="37.538350000" lon="-4.386196000">
        <ele>610.8</ele>
        <time>2020-10-15T13:37:11Z</time>
      </trkpt>
      <trkpt lat="37.538278000" lon="-4.386261000">
        <ele>610.9</ele>
        <time>2020-10-15T13:37:13Z</time>
      </trkpt>
      <trkpt lat="37.538205000" lon="-4.386345000">
        <ele>610.9</ele>
        <time>2020-10-15T13:37:15Z</time>
      </trkpt>
      <trkpt lat="37.538136000" lon="-4.386419000">
        <ele>610.8</ele>
        <time>2020-10-15T13:37:17Z</time>
      </trkpt>
      <trkpt lat="37.538065000" lon="-4.386495000">
        <ele>610.7</ele>
        <time>2020-10-15T13:37:19Z</time>
      </trkpt>
      <trkpt lat="37.538002000" lon="-4.386572000">
        <ele>610.5</ele>
        <time>2020-10-15T13:37:21Z</time>
      </trkpt>
      <trkpt lat="37.537931000" lon="-4.386642000">
        <ele>610.4</ele>
        <time>2020-10-15T13:37:23Z</time>
      </trkpt>
      <trkpt lat="37.537869000" lon="-4.386718000">
        <ele>610.2</ele>
        <time>2020-10-15T13:37:25Z</time>
      </trkpt>
      <trkpt lat="37.537802000" lon="-4.386802000">
        <ele>610.0</ele>
        <time>2020-10-15T13:37:27Z</time>
      </trkpt>
      <trkpt lat="37.537739000" lon="-4.386890000">
        <ele>609.7</ele>
        <time>2020-10-15T13:37:29Z</time>
      </trkpt>
      <trkpt lat="37.537681000" lon="-4.386985000">
        <ele>609.5</ele>
        <time>2020-10-15T13:37:31Z</time>
      </trkpt>
      <trkpt lat="37.537620000" lon="-4.387082000">
        <ele>609.1</ele>
        <time>2020-10-15T13:37:33Z</time>
      </trkpt>
      <trkpt lat="37.537559000" lon="-4.387183000">
        <ele>608.7</ele>
        <time>2020-10-15T13:37:35Z</time>
      </trkpt>
      <trkpt lat="37.537504000" lon="-4.387279000">
        <ele>608.5</ele>
        <time>2020-10-15T13:37:37Z</time>
      </trkpt>
      <trkpt lat="37.537450000" lon="-4.387376000">
        <ele>608.3</ele>
        <time>2020-10-15T13:37:39Z</time>
      </trkpt>
      <trkpt lat="37.537402000" lon="-4.387486000">
        <ele>608.2</ele>
        <time>2020-10-15T13:37:41Z</time>
      </trkpt>
      <trkpt lat="37.537356000" lon="-4.387603000">
        <ele>608.2</ele>
        <time>2020-10-15T13:37:43Z</time>
      </trkpt>
      <trkpt lat="37.537317000" lon="-4.387721000">
        <ele>608.3</ele>
        <time>2020-10-15T13:37:45Z</time>
      </trkpt>
      <trkpt lat="37.537278000" lon="-4.387841000">
        <ele>608.4</ele>
        <time>2020-10-15T13:37:47Z</time>
      </trkpt>
      <trkpt lat="37.537240000" lon="-4.387961000">
        <ele>608.5</ele>
        <time>2020-10-15T13:37:49Z</time>
      </trkpt>
      <trkpt lat="37.537208000" lon="-4.388080000">
        <ele>608.8</ele>
        <time>2020-10-15T13:37:51Z</time>
      </trkpt>
      <trkpt lat="37.537184000" lon="-4.388197000">
        <ele>609.2</ele>
        <time>2020-10-15T13:37:53Z</time>
      </trkpt>
      <trkpt lat="37.537154000" lon="-4.388317000">
        <ele>609.6</ele>
        <time>2020-10-15T13:37:55Z</time>
      </trkpt>
      <trkpt lat="37.537125000" lon="-4.388438000">
        <ele>610.2</ele>
        <time>2020-10-15T13:37:57Z</time>
      </trkpt>
      <trkpt lat="37.537099000" lon="-4.388564000">
        <ele>610.7</ele>
        <time>2020-10-15T13:37:59Z</time>
      </trkpt>
      <trkpt lat="37.537070000" lon="-4.388685000">
        <ele>611.2</ele>
        <time>2020-10-15T13:38:01Z</time>
      </trkpt>
      <trkpt lat="37.537040000" lon="-4.388811000">
        <ele>611.6</ele>
        <time>2020-10-15T13:38:03Z</time>
      </trkpt>
      <trkpt lat="37.537011000" lon="-4.388933000">
        <ele>612.0</ele>
        <time>2020-10-15T13:38:05Z</time>
      </trkpt>
      <trkpt lat="37.536979000" lon="-4.389059000">
        <ele>612.3</ele>
        <time>2020-10-15T13:38:07Z</time>
      </trkpt>
      <trkpt lat="37.536956000" lon="-4.389183000">
        <ele>612.5</ele>
        <time>2020-10-15T13:38:09Z</time>
      </trkpt>
      <trkpt lat="37.536921000" lon="-4.389301000">
        <ele>612.7</ele>
        <time>2020-10-15T13:38:11Z</time>
      </trkpt>
      <trkpt lat="37.536892000" lon="-4.389419000">
        <ele>612.9</ele>
        <time>2020-10-15T13:38:13Z</time>
      </trkpt>
      <trkpt lat="37.536859000" lon="-4.389532000">
        <ele>613.0</ele>
        <time>2020-10-15T13:38:15Z</time>
      </trkpt>
      <trkpt lat="37.536825000" lon="-4.389641000">
        <ele>613.2</ele>
        <time>2020-10-15T13:38:17Z</time>
      </trkpt>
      <trkpt lat="37.536787000" lon="-4.389758000">
        <ele>613.4</ele>
        <time>2020-10-15T13:38:19Z</time>
      </trkpt>
      <trkpt lat="37.536747000" lon="-4.389863000">
        <ele>613.5</ele>
        <time>2020-10-15T13:38:21Z</time>
      </trkpt>
      <trkpt lat="37.536707000" lon="-4.389964000">
        <ele>613.7</ele>
        <time>2020-10-15T13:38:23Z</time>
      </trkpt>
      <trkpt lat="37.536661000" lon="-4.390067000">
        <ele>613.7</ele>
        <time>2020-10-15T13:38:25Z</time>
      </trkpt>
      <trkpt lat="37.536609000" lon="-4.390163000">
        <ele>613.8</ele>
        <time>2020-10-15T13:38:27Z</time>
      </trkpt>
      <trkpt lat="37.536559000" lon="-4.390261000">
        <ele>613.9</ele>
        <time>2020-10-15T13:38:29Z</time>
      </trkpt>
      <trkpt lat="37.536501000" lon="-4.390363000">
        <ele>613.8</ele>
        <time>2020-10-15T13:38:31Z</time>
      </trkpt>
      <trkpt lat="37.536442000" lon="-4.390466000">
        <ele>613.6</ele>
        <time>2020-10-15T13:38:33Z</time>
      </trkpt>
      <trkpt lat="37.536382000" lon="-4.390568000">
        <ele>613.5</ele>
        <time>2020-10-15T13:38:35Z</time>
      </trkpt>
      <trkpt lat="37.536311000" lon="-4.390654000">
        <ele>613.3</ele>
        <time>2020-10-15T13:38:37Z</time>
      </trkpt>
      <trkpt lat="37.536246000" lon="-4.390740000">
        <ele>612.9</ele>
        <time>2020-10-15T13:38:39Z</time>
      </trkpt>
      <trkpt lat="37.536186000" lon="-4.390828000">
        <ele>612.5</ele>
        <time>2020-10-15T13:38:41Z</time>
      </trkpt>
      <trkpt lat="37.536118000" lon="-4.390908000">
        <ele>611.9</ele>
        <time>2020-10-15T13:38:43Z</time>
      </trkpt>
      <trkpt lat="37.536054000" lon="-4.390980000">
        <ele>611.4</ele>
        <time>2020-10-15T13:38:45Z</time>
      </trkpt>
      <trkpt lat="37.535987000" lon="-4.391051000">
        <ele>610.8</ele>
        <time>2020-10-15T13:38:47Z</time>
      </trkpt>
      <trkpt lat="37.535919000" lon="-4.391119000">
        <ele>610.2</ele>
        <time>2020-10-15T13:38:49Z</time>
      </trkpt>
      <trkpt lat="37.535840000" lon="-4.391179000">
        <ele>609.5</ele>
        <time>2020-10-15T13:38:51Z</time>
      </trkpt>
      <trkpt lat="37.535758000" lon="-4.391247000">
        <ele>609.1</ele>
        <time>2020-10-15T13:38:53Z</time>
      </trkpt>
      <trkpt lat="37.535679000" lon="-4.391307000">
        <ele>608.7</ele>
        <time>2020-10-15T13:38:55Z</time>
      </trkpt>
      <trkpt lat="37.535600000" lon="-4.391376000">
        <ele>608.4</ele>
        <time>2020-10-15T13:38:57Z</time>
      </trkpt>
      <trkpt lat="37.535513000" lon="-4.391447000">
        <ele>608.1</ele>
        <time>2020-10-15T13:38:59Z</time>
      </trkpt>
      <trkpt lat="37.535427000" lon="-4.391516000">
        <ele>608.0</ele>
        <time>2020-10-15T13:39:01Z</time>
      </trkpt>
      <trkpt lat="37.535336000" lon="-4.391582000">
        <ele>608.0</ele>
        <time>2020-10-15T13:39:03Z</time>
      </trkpt>
      <trkpt lat="37.535248000" lon="-4.391653000">
        <ele>608.1</ele>
        <time>2020-10-15T13:39:05Z</time>
      </trkpt>
      <trkpt lat="37.535156000" lon="-4.391719000">
        <ele>608.2</ele>
        <time>2020-10-15T13:39:07Z</time>
      </trkpt>
      <trkpt lat="37.535068000" lon="-4.391786000">
        <ele>608.4</ele>
        <time>2020-10-15T13:39:09Z</time>
      </trkpt>
      <trkpt lat="37.534986000" lon="-4.391862000">
        <ele>608.6</ele>
        <time>2020-10-15T13:39:11Z</time>
      </trkpt>
      <trkpt lat="37.534901000" lon="-4.391919000">
        <ele>608.9</ele>
        <time>2020-10-15T13:39:13Z</time>
      </trkpt>
      <trkpt lat="37.534816000" lon="-4.391989000">
        <ele>609.2</ele>
        <time>2020-10-15T13:39:15Z</time>
      </trkpt>
      <trkpt lat="37.534735000" lon="-4.392059000">
        <ele>609.5</ele>
        <time>2020-10-15T13:39:17Z</time>
      </trkpt>
      <trkpt lat="37.534648000" lon="-4.392128000">
        <ele>609.7</ele>
        <time>2020-10-15T13:39:19Z</time>
      </trkpt>
      <trkpt lat="37.534566000" lon="-4.392196000">
        <ele>609.9</ele>
        <time>2020-10-15T13:39:21Z</time>
      </trkpt>
      <trkpt lat="37.534481000" lon="-4.392265000">
        <ele>610.0</ele>
        <time>2020-10-15T13:39:23Z</time>
      </trkpt>
      <trkpt lat="37.534392000" lon="-4.392339000">
        <ele>610.0</ele>
        <time>2020-10-15T13:39:25Z</time>
      </trkpt>
      <trkpt lat="37.534299000" lon="-4.392414000">
        <ele>610.0</ele>
        <time>2020-10-15T13:39:27Z</time>
      </trkpt>
      <trkpt lat="37.534204000" lon="-4.392489000">
        <ele>610.0</ele>
        <time>2020-10-15T13:39:29Z</time>
      </trkpt>
      <trkpt lat="37.534109000" lon="-4.392553000">
        <ele>610.0</ele>
        <time>2020-10-15T13:39:31Z</time>
      </trkpt>
      <trkpt lat="37.534023000" lon="-4.392621000">
        <ele>610.1</ele>
        <time>2020-10-15T13:39:33Z</time>
      </trkpt>
      <trkpt lat="37.533939000" lon="-4.392687000">
        <ele>610.2</ele>
        <time>2020-10-15T13:39:35Z</time>
      </trkpt>
      <trkpt lat="37.533856000" lon="-4.392752000">
        <ele>610.4</ele>
        <time>2020-10-15T13:39:37Z</time>
      </trkpt>
      <trkpt lat="37.533779000" lon="-4.392816000">
        <ele>610.5</ele>
        <time>2020-10-15T13:39:39Z</time>
      </trkpt>
      <trkpt lat="37.533703000" lon="-4.392880000">
        <ele>610.8</ele>
        <time>2020-10-15T13:39:41Z</time>
      </trkpt>
      <trkpt lat="37.533609000" lon="-4.392953000">
        <ele>611.1</ele>
        <time>2020-10-15T13:39:43Z</time>
      </trkpt>
      <trkpt lat="37.533512000" lon="-4.393030000">
        <ele>611.5</ele>
        <time>2020-10-15T13:39:45Z</time>
      </trkpt>
      <trkpt lat="37.533412000" lon="-4.393112000">
        <ele>611.8</ele>
        <time>2020-10-15T13:39:47Z</time>
      </trkpt>
      <trkpt lat="37.533313000" lon="-4.393189000">
        <ele>612.2</ele>
        <time>2020-10-15T13:39:49Z</time>
      </trkpt>
      <trkpt lat="37.533221000" lon="-4.393259000">
        <ele>612.5</ele>
        <time>2020-10-15T13:39:51Z</time>
      </trkpt>
      <trkpt lat="37.533130000" lon="-4.393328000">
        <ele>612.7</ele>
        <time>2020-10-15T13:39:53Z</time>
      </trkpt>
      <trkpt lat="37.533045000" lon="-4.393400000">
        <ele>612.9</ele>
        <time>2020-10-15T13:39:55Z</time>
      </trkpt>
      <trkpt lat="37.532965000" lon="-4.393458000">
        <ele>613.0</ele>
        <time>2020-10-15T13:39:57Z</time>
      </trkpt>
      <trkpt lat="37.532893000" lon="-4.393514000">
        <ele>613.0</ele>
        <time>2020-10-15T13:39:59Z</time>
      </trkpt>
      <trkpt lat="37.532802000" lon="-4.393583000">
        <ele>613.0</ele>
        <time>2020-10-15T13:40:01Z</time>
      </trkpt>
      <trkpt lat="37.532698000" lon="-4.393654000">
        <ele>612.9</ele>
        <time>2020-10-15T13:40:03Z</time>
      </trkpt>
      <trkpt lat="37.532597000" lon="-4.393733000">
        <ele>612.8</ele>
        <time>2020-10-15T13:40:05Z</time>
      </trkpt>
      <trkpt lat="37.532503000" lon="-4.393808000">
        <ele>612.5</ele>
        <time>2020-10-15T13:40:07Z</time>
      </trkpt>
      <trkpt lat="37.532420000" lon="-4.393884000">
        <ele>612.2</ele>
        <time>2020-10-15T13:40:09Z</time>
      </trkpt>
      <trkpt lat="37.532334000" lon="-4.393949000">
        <ele>611.7</ele>
        <time>2020-10-15T13:40:11Z</time>
      </trkpt>
      <trkpt lat="37.532259000" lon="-4.394014000">
        <ele>611.4</ele>
        <time>2020-10-15T13:40:13Z</time>
      </trkpt>
      <trkpt lat="37.532184000" lon="-4.394077000">
        <ele>610.9</ele>
        <time>2020-10-15T13:40:15Z</time>
      </trkpt>
      <trkpt lat="37.532113000" lon="-4.394129000">
        <ele>610.5</ele>
        <time>2020-10-15T13:40:17Z</time>
      </trkpt>
      <trkpt lat="37.532009000" lon="-4.394208000">
        <ele>610.1</ele>
        <time>2020-10-15T13:40:20Z</time>
      </trkpt>
      <trkpt lat="37.531929000" lon="-4.394267000">
        <ele>609.6</ele>
        <time>2020-10-15T13:40:22Z</time>
      </trkpt>
      <trkpt lat="37.531857000" lon="-4.394326000">
        <ele>609.2</ele>
        <time>2020-10-15T13:40:24Z</time>
      </trkpt>
      <trkpt lat="37.531769000" lon="-4.394395000">
        <ele>608.6</ele>
        <time>2020-10-15T13:40:26Z</time>
      </trkpt>
      <trkpt lat="37.531681000" lon="-4.394467000">
        <ele>608.1</ele>
        <time>2020-10-15T13:40:28Z</time>
      </trkpt>
      <trkpt lat="37.531577000" lon="-4.394543000">
        <ele>607.6</ele>
        <time>2020-10-15T13:40:30Z</time>
      </trkpt>
      <trkpt lat="37.531469000" lon="-4.394625000">
        <ele>607.3</ele>
        <time>2020-10-15T13:40:32Z</time>
      </trkpt>
      <trkpt lat="37.531375000" lon="-4.394706000">
        <ele>607.1</ele>
        <time>2020-10-15T13:40:34Z</time>
      </trkpt>
      <trkpt lat="37.531274000" lon="-4.394778000">
        <ele>606.9</ele>
        <time>2020-10-15T13:40:36Z</time>
      </trkpt>
      <trkpt lat="37.531175000" lon="-4.394849000">
        <ele>606.9</ele>
        <time>2020-10-15T13:40:38Z</time>
      </trkpt>
      <trkpt lat="37.531082000" lon="-4.394919000">
        <ele>606.9</ele>
        <time>2020-10-15T13:40:40Z</time>
      </trkpt>
      <trkpt lat="37.530999000" lon="-4.394988000">
        <ele>607.0</ele>
        <time>2020-10-15T13:40:42Z</time>
      </trkpt>
      <trkpt lat="37.530922000" lon="-4.395054000">
        <ele>607.3</ele>
        <time>2020-10-15T13:40:44Z</time>
      </trkpt>
      <trkpt lat="37.530850000" lon="-4.395116000">
        <ele>607.5</ele>
        <time>2020-10-15T13:40:46Z</time>
      </trkpt>
      <trkpt lat="37.530764000" lon="-4.395186000">
        <ele>607.9</ele>
        <time>2020-10-15T13:40:48Z</time>
      </trkpt>
      <trkpt lat="37.530674000" lon="-4.395256000">
        <ele>608.3</ele>
        <time>2020-10-15T13:40:50Z</time>
      </trkpt>
      <trkpt lat="37.530586000" lon="-4.395336000">
        <ele>608.5</ele>
        <time>2020-10-15T13:40:52Z</time>
      </trkpt>
      <trkpt lat="37.530494000" lon="-4.395419000">
        <ele>608.8</ele>
        <time>2020-10-15T13:40:54Z</time>
      </trkpt>
      <trkpt lat="37.530410000" lon="-4.395510000">
        <ele>608.9</ele>
        <time>2020-10-15T13:40:56Z</time>
      </trkpt>
      <trkpt lat="37.530323000" lon="-4.395605000">
        <ele>609.0</ele>
        <time>2020-10-15T13:40:58Z</time>
      </trkpt>
      <trkpt lat="37.530233000" lon="-4.395706000">
        <ele>609.0</ele>
        <time>2020-10-15T13:41:00Z</time>
      </trkpt>
      <trkpt lat="37.530143000" lon="-4.395809000">
        <ele>609.0</ele>
        <time>2020-10-15T13:41:02Z</time>
      </trkpt>
      <trkpt lat="37.530052000" lon="-4.395930000">
        <ele>608.9</ele>
        <time>2020-10-15T13:41:04Z</time>
      </trkpt>
      <trkpt lat="37.529979000" lon="-4.396044000">
        <ele>608.7</ele>
        <time>2020-10-15T13:41:06Z</time>
      </trkpt>
      <trkpt lat="37.529911000" lon="-4.396148000">
        <ele>608.5</ele>
        <time>2020-10-15T13:41:08Z</time>
      </trkpt>
      <trkpt lat="37.529840000" lon="-4.396270000">
        <ele>608.5</ele>
        <time>2020-10-15T13:41:10Z</time>
      </trkpt>
      <trkpt lat="37.529772000" lon="-4.396377000">
        <ele>608.4</ele>
        <time>2020-10-15T13:41:12Z</time>
      </trkpt>
      <trkpt lat="37.529708000" lon="-4.396483000">
        <ele>608.4</ele>
        <time>2020-10-15T13:41:14Z</time>
      </trkpt>
      <trkpt lat="37.529643000" lon="-4.396596000">
        <ele>608.5</ele>
        <time>2020-10-15T13:41:16Z</time>
      </trkpt>
      <trkpt lat="37.529585000" lon="-4.396714000">
        <ele>608.6</ele>
        <time>2020-10-15T13:41:18Z</time>
      </trkpt>
      <trkpt lat="37.529525000" lon="-4.396828000">
        <ele>608.8</ele>
        <time>2020-10-15T13:41:20Z</time>
      </trkpt>
      <trkpt lat="37.529467000" lon="-4.396946000">
        <ele>609.1</ele>
        <time>2020-10-15T13:41:22Z</time>
      </trkpt>
      <trkpt lat="37.529414000" lon="-4.397059000">
        <ele>609.3</ele>
        <time>2020-10-15T13:41:25Z</time>
      </trkpt>
      <trkpt lat="37.529358000" lon="-4.397167000">
        <ele>609.5</ele>
        <time>2020-10-15T13:41:26Z</time>
      </trkpt>
      <trkpt lat="37.529305000" lon="-4.397272000">
        <ele>609.6</ele>
        <time>2020-10-15T13:41:28Z</time>
      </trkpt>
      <trkpt lat="37.529249000" lon="-4.397384000">
        <ele>609.7</ele>
        <time>2020-10-15T13:41:30Z</time>
      </trkpt>
      <trkpt lat="37.529192000" lon="-4.397494000">
        <ele>609.7</ele>
        <time>2020-10-15T13:41:32Z</time>
      </trkpt>
      <trkpt lat="37.529134000" lon="-4.397608000">
        <ele>609.7</ele>
        <time>2020-10-15T13:41:34Z</time>
      </trkpt>
      <trkpt lat="37.529077000" lon="-4.397716000">
        <ele>609.7</ele>
        <time>2020-10-15T13:41:36Z</time>
      </trkpt>
      <trkpt lat="37.529023000" lon="-4.397827000">
        <ele>609.6</ele>
        <time>2020-10-15T13:41:38Z</time>
      </trkpt>
      <trkpt lat="37.528970000" lon="-4.397942000">
        <ele>609.5</ele>
        <time>2020-10-15T13:41:40Z</time>
      </trkpt>
      <trkpt lat="37.528915000" lon="-4.398059000">
        <ele>609.5</ele>
        <time>2020-10-15T13:41:42Z</time>
      </trkpt>
      <trkpt lat="37.528858000" lon="-4.398160000">
        <ele>609.2</ele>
        <time>2020-10-15T13:41:44Z</time>
      </trkpt>
      <trkpt lat="37.528801000" lon="-4.398275000">
        <ele>608.9</ele>
        <time>2020-10-15T13:41:46Z</time>
      </trkpt>
      <trkpt lat="37.528748000" lon="-4.398378000">
        <ele>608.5</ele>
        <time>2020-10-15T13:41:48Z</time>
      </trkpt>
      <trkpt lat="37.528697000" lon="-4.398489000">
        <ele>608.2</ele>
        <time>2020-10-15T13:41:50Z</time>
      </trkpt>
      <trkpt lat="37.528640000" lon="-4.398602000">
        <ele>607.9</ele>
        <time>2020-10-15T13:41:52Z</time>
      </trkpt>
      <trkpt lat="37.528588000" lon="-4.398716000">
        <ele>607.5</ele>
        <time>2020-10-15T13:41:54Z</time>
      </trkpt>
      <trkpt lat="37.528532000" lon="-4.398829000">
        <ele>607.2</ele>
        <time>2020-10-15T13:41:56Z</time>
      </trkpt>
      <trkpt lat="37.528473000" lon="-4.398938000">
        <ele>606.8</ele>
        <time>2020-10-15T13:41:58Z</time>
      </trkpt>
      <trkpt lat="37.528413000" lon="-4.399047000">
        <ele>606.5</ele>
        <time>2020-10-15T13:42:00Z</time>
      </trkpt>
      <trkpt lat="37.528358000" lon="-4.399160000">
        <ele>606.4</ele>
        <time>2020-10-15T13:42:02Z</time>
      </trkpt>
      <trkpt lat="37.528305000" lon="-4.399272000">
        <ele>606.3</ele>
        <time>2020-10-15T13:42:04Z</time>
      </trkpt>
      <trkpt lat="37.528252000" lon="-4.399381000">
        <ele>606.4</ele>
        <time>2020-10-15T13:42:06Z</time>
      </trkpt>
      <trkpt lat="37.528194000" lon="-4.399497000">
        <ele>606.6</ele>
        <time>2020-10-15T13:42:08Z</time>
      </trkpt>
      <trkpt lat="37.528142000" lon="-4.399603000">
        <ele>607.0</ele>
        <time>2020-10-15T13:42:10Z</time>
      </trkpt>
      <trkpt lat="37.528089000" lon="-4.399710000">
        <ele>607.5</ele>
        <time>2020-10-15T13:42:12Z</time>
      </trkpt>
      <trkpt lat="37.528033000" lon="-4.399817000">
        <ele>607.9</ele>
        <time>2020-10-15T13:42:14Z</time>
      </trkpt>
      <trkpt lat="37.527979000" lon="-4.399919000">
        <ele>608.5</ele>
        <time>2020-10-15T13:42:16Z</time>
      </trkpt>
      <trkpt lat="37.527924000" lon="-4.400026000">
        <ele>609.0</ele>
        <time>2020-10-15T13:42:18Z</time>
      </trkpt>
      <trkpt lat="37.527875000" lon="-4.400128000">
        <ele>609.6</ele>
        <time>2020-10-15T13:42:20Z</time>
      </trkpt>
      <trkpt lat="37.527820000" lon="-4.400235000">
        <ele>610.2</ele>
        <time>2020-10-15T13:42:22Z</time>
      </trkpt>
      <trkpt lat="37.527770000" lon="-4.400340000">
        <ele>610.6</ele>
        <time>2020-10-15T13:42:24Z</time>
      </trkpt>
      <trkpt lat="37.527720000" lon="-4.400433000">
        <ele>611.0</ele>
        <time>2020-10-15T13:42:26Z</time>
      </trkpt>
      <trkpt lat="37.527678000" lon="-4.400524000">
        <ele>611.2</ele>
        <time>2020-10-15T13:42:28Z</time>
      </trkpt>
      <trkpt lat="37.527611000" lon="-4.400650000">
        <ele>611.3</ele>
        <time>2020-10-15T13:42:31Z</time>
      </trkpt>
      <trkpt lat="37.527571000" lon="-4.400748000">
        <ele>611.4</ele>
        <time>2020-10-15T13:42:33Z</time>
      </trkpt>
      <trkpt lat="37.527526000" lon="-4.400839000">
        <ele>611.3</ele>
        <time>2020-10-15T13:42:35Z</time>
      </trkpt>
      <trkpt lat="37.527482000" lon="-4.400930000">
        <ele>611.2</ele>
        <time>2020-10-15T13:42:37Z</time>
      </trkpt>
      <trkpt lat="37.527433000" lon="-4.401017000">
        <ele>611.1</ele>
        <time>2020-10-15T13:42:39Z</time>
      </trkpt>
      <trkpt lat="37.527381000" lon="-4.401106000">
        <ele>611.1</ele>
        <time>2020-10-15T13:42:41Z</time>
      </trkpt>
      <trkpt lat="37.527328000" lon="-4.401193000">
        <ele>611.1</ele>
        <time>2020-10-15T13:42:43Z</time>
      </trkpt>
      <trkpt lat="37.527274000" lon="-4.401278000">
        <ele>611.2</ele>
        <time>2020-10-15T13:42:45Z</time>
      </trkpt>
      <trkpt lat="37.527222000" lon="-4.401366000">
        <ele>611.4</ele>
        <time>2020-10-15T13:42:47Z</time>
      </trkpt>
      <trkpt lat="37.527162000" lon="-4.401446000">
        <ele>611.5</ele>
        <time>2020-10-15T13:42:49Z</time>
      </trkpt>
      <trkpt lat="37.527111000" lon="-4.401528000">
        <ele>611.9</ele>
        <time>2020-10-15T13:42:51Z</time>
      </trkpt>
      <trkpt lat="37.527055000" lon="-4.401617000">
        <ele>612.3</ele>
        <time>2020-10-15T13:42:53Z</time>
      </trkpt>
      <trkpt lat="37.526994000" lon="-4.401699000">
        <ele>612.6</ele>
        <time>2020-10-15T13:42:55Z</time>
      </trkpt>
      <trkpt lat="37.526930000" lon="-4.401787000">
        <ele>613.1</ele>
        <time>2020-10-15T13:42:58Z</time>
      </trkpt>
      <trkpt lat="37.526864000" lon="-4.401875000">
        <ele>613.5</ele>
        <time>2020-10-15T13:42:59Z</time>
      </trkpt>
      <trkpt lat="37.526802000" lon="-4.401962000">
        <ele>613.8</ele>
        <time>2020-10-15T13:43:01Z</time>
      </trkpt>
      <trkpt lat="37.526738000" lon="-4.402046000">
        <ele>613.9</ele>
        <time>2020-10-15T13:43:03Z</time>
      </trkpt>
      <trkpt lat="37.526666000" lon="-4.402127000">
        <ele>613.8</ele>
        <time>2020-10-15T13:43:05Z</time>
      </trkpt>
      <trkpt lat="37.526588000" lon="-4.402204000">
        <ele>613.5</ele>
        <time>2020-10-15T13:43:07Z</time>
      </trkpt>
      <trkpt lat="37.526509000" lon="-4.402270000">
        <ele>613.1</ele>
        <time>2020-10-15T13:43:09Z</time>
      </trkpt>
      <trkpt lat="37.526423000" lon="-4.402326000">
        <ele>612.6</ele>
        <time>2020-10-15T13:43:11Z</time>
      </trkpt>
      <trkpt lat="37.526340000" lon="-4.402391000">
        <ele>612.0</ele>
        <time>2020-10-15T13:43:13Z</time>
      </trkpt>
      <trkpt lat="37.526251000" lon="-4.402451000">
        <ele>611.5</ele>
        <time>2020-10-15T13:43:15Z</time>
      </trkpt>
      <trkpt lat="37.526154000" lon="-4.402518000">
        <ele>610.9</ele>
        <time>2020-10-15T13:43:17Z</time>
      </trkpt>
      <trkpt lat="37.526061000" lon="-4.402577000">
        <ele>610.5</ele>
        <time>2020-10-15T13:43:19Z</time>
      </trkpt>
      <trkpt lat="37.525971000" lon="-4.402640000">
        <ele>610.2</ele>
        <time>2020-10-15T13:43:21Z</time>
      </trkpt>
      <trkpt lat="37.525879000" lon="-4.402697000">
        <ele>609.9</ele>
        <time>2020-10-15T13:43:23Z</time>
      </trkpt>
      <trkpt lat="37.525782000" lon="-4.402751000">
        <ele>609.9</ele>
        <time>2020-10-15T13:43:25Z</time>
      </trkpt>
      <trkpt lat="37.525680000" lon="-4.402801000">
        <ele>610.0</ele>
        <time>2020-10-15T13:43:27Z</time>
      </trkpt>
      <trkpt lat="37.525580000" lon="-4.402853000">
        <ele>610.2</ele>
        <time>2020-10-15T13:43:29Z</time>
      </trkpt>
      <trkpt lat="37.525476000" lon="-4.402903000">
        <ele>610.5</ele>
        <time>2020-10-15T13:43:31Z</time>
      </trkpt>
      <trkpt lat="37.525375000" lon="-4.402962000">
        <ele>610.7</ele>
        <time>2020-10-15T13:43:33Z</time>
      </trkpt>
      <trkpt lat="37.525268000" lon="-4.403011000">
        <ele>611.1</ele>
        <time>2020-10-15T13:43:35Z</time>
      </trkpt>
      <trkpt lat="37.525156000" lon="-4.403050000">
        <ele>611.4</ele>
        <time>2020-10-15T13:43:37Z</time>
      </trkpt>
      <trkpt lat="37.525039000" lon="-4.403095000">
        <ele>611.6</ele>
        <time>2020-10-15T13:43:39Z</time>
      </trkpt>
      <trkpt lat="37.524935000" lon="-4.403152000">
        <ele>611.8</ele>
        <time>2020-10-15T13:43:41Z</time>
      </trkpt>
      <trkpt lat="37.524819000" lon="-4.403202000">
        <ele>611.9</ele>
        <time>2020-10-15T13:43:43Z</time>
      </trkpt>
      <trkpt lat="37.524703000" lon="-4.403263000">
        <ele>612.0</ele>
        <time>2020-10-15T13:43:45Z</time>
      </trkpt>
      <trkpt lat="37.524590000" lon="-4.403336000">
        <ele>612.1</ele>
        <time>2020-10-15T13:43:47Z</time>
      </trkpt>
      <trkpt lat="37.524465000" lon="-4.403396000">
        <ele>612.2</ele>
        <time>2020-10-15T13:43:49Z</time>
      </trkpt>
      <trkpt lat="37.524344000" lon="-4.403455000">
        <ele>612.2</ele>
        <time>2020-10-15T13:43:51Z</time>
      </trkpt>
      <trkpt lat="37.524224000" lon="-4.403504000">
        <ele>612.1</ele>
        <time>2020-10-15T13:43:53Z</time>
      </trkpt>
      <trkpt lat="37.524099000" lon="-4.403567000">
        <ele>611.9</ele>
        <time>2020-10-15T13:43:55Z</time>
      </trkpt>
      <trkpt lat="37.523980000" lon="-4.403635000">
        <ele>611.6</ele>
        <time>2020-10-15T13:43:57Z</time>
      </trkpt>
      <trkpt lat="37.523862000" lon="-4.403705000">
        <ele>611.4</ele>
        <time>2020-10-15T13:43:59Z</time>
      </trkpt>
      <trkpt lat="37.523741000" lon="-4.403771000">
        <ele>611.0</ele>
        <time>2020-10-15T13:44:01Z</time>
      </trkpt>
      <trkpt lat="37.523633000" lon="-4.403844000">
        <ele>610.6</ele>
        <time>2020-10-15T13:44:03Z</time>
      </trkpt>
      <trkpt lat="37.523533000" lon="-4.403926000">
        <ele>610.2</ele>
        <time>2020-10-15T13:44:05Z</time>
      </trkpt>
      <trkpt lat="37.523431000" lon="-4.403998000">
        <ele>609.7</ele>
        <time>2020-10-15T13:44:07Z</time>
      </trkpt>
      <trkpt lat="37.523343000" lon="-4.404074000">
        <ele>609.1</ele>
        <time>2020-10-15T13:44:09Z</time>
      </trkpt>
      <trkpt lat="37.523248000" lon="-4.404152000">
        <ele>608.5</ele>
        <time>2020-10-15T13:44:11Z</time>
      </trkpt>
      <trkpt lat="37.523157000" lon="-4.404227000">
        <ele>607.8</ele>
        <time>2020-10-15T13:44:13Z</time>
      </trkpt>
      <trkpt lat="37.523063000" lon="-4.404302000">
        <ele>607.3</ele>
        <time>2020-10-15T13:44:15Z</time>
      </trkpt>
      <trkpt lat="37.522970000" lon="-4.404376000">
        <ele>606.8</ele>
        <time>2020-10-15T13:44:17Z</time>
      </trkpt>
      <trkpt lat="37.522876000" lon="-4.404458000">
        <ele>606.4</ele>
        <time>2020-10-15T13:44:19Z</time>
      </trkpt>
      <trkpt lat="37.522783000" lon="-4.404540000">
        <ele>605.9</ele>
        <time>2020-10-15T13:44:21Z</time>
      </trkpt>
      <trkpt lat="37.522686000" lon="-4.404613000">
        <ele>605.5</ele>
        <time>2020-10-15T13:44:23Z</time>
      </trkpt>
      <trkpt lat="37.522591000" lon="-4.404688000">
        <ele>604.9</ele>
        <time>2020-10-15T13:44:25Z</time>
      </trkpt>
      <trkpt lat="37.522501000" lon="-4.404770000">
        <ele>604.5</ele>
        <time>2020-10-15T13:44:27Z</time>
      </trkpt>
      <trkpt lat="37.522411000" lon="-4.404850000">
        <ele>604.0</ele>
        <time>2020-10-15T13:44:29Z</time>
      </trkpt>
      <trkpt lat="37.522314000" lon="-4.404925000">
        <ele>603.6</ele>
        <time>2020-10-15T13:44:31Z</time>
      </trkpt>
      <trkpt lat="37.522221000" lon="-4.405003000">
        <ele>603.2</ele>
        <time>2020-10-15T13:44:33Z</time>
      </trkpt>
      <trkpt lat="37.522119000" lon="-4.405079000">
        <ele>602.8</ele>
        <time>2020-10-15T13:44:35Z</time>
      </trkpt>
      <trkpt lat="37.522016000" lon="-4.405162000">
        <ele>602.4</ele>
        <time>2020-10-15T13:44:37Z</time>
      </trkpt>
      <trkpt lat="37.521909000" lon="-4.405246000">
        <ele>601.9</ele>
        <time>2020-10-15T13:44:39Z</time>
      </trkpt>
      <trkpt lat="37.521797000" lon="-4.405330000">
        <ele>601.5</ele>
        <time>2020-10-15T13:44:41Z</time>
      </trkpt>
      <trkpt lat="37.521693000" lon="-4.405421000">
        <ele>601.3</ele>
        <time>2020-10-15T13:44:43Z</time>
      </trkpt>
      <trkpt lat="37.521578000" lon="-4.405506000">
        <ele>601.1</ele>
        <time>2020-10-15T13:44:45Z</time>
      </trkpt>
      <trkpt lat="37.521464000" lon="-4.405593000">
        <ele>601.0</ele>
        <time>2020-10-15T13:44:47Z</time>
      </trkpt>
      <trkpt lat="37.521353000" lon="-4.405679000">
        <ele>600.9</ele>
        <time>2020-10-15T13:44:49Z</time>
      </trkpt>
      <trkpt lat="37.521248000" lon="-4.405763000">
        <ele>600.7</ele>
        <time>2020-10-15T13:44:51Z</time>
      </trkpt>
      <trkpt lat="37.521137000" lon="-4.405864000">
        <ele>600.6</ele>
        <time>2020-10-15T13:44:53Z</time>
      </trkpt>
      <trkpt lat="37.521029000" lon="-4.405956000">
        <ele>600.6</ele>
        <time>2020-10-15T13:44:55Z</time>
      </trkpt>
      <trkpt lat="37.520928000" lon="-4.406054000">
        <ele>600.7</ele>
        <time>2020-10-15T13:44:57Z</time>
      </trkpt>
      <trkpt lat="37.520817000" lon="-4.406141000">
        <ele>601.0</ele>
        <time>2020-10-15T13:44:59Z</time>
      </trkpt>
      <trkpt lat="37.520707000" lon="-4.406226000">
        <ele>601.5</ele>
        <time>2020-10-15T13:45:01Z</time>
      </trkpt>
      <trkpt lat="37.520595000" lon="-4.406315000">
        <ele>602.0</ele>
        <time>2020-10-15T13:45:03Z</time>
      </trkpt>
      <trkpt lat="37.520478000" lon="-4.406399000">
        <ele>602.6</ele>
        <time>2020-10-15T13:45:05Z</time>
      </trkpt>
      <trkpt lat="37.520362000" lon="-4.406477000">
        <ele>603.5</ele>
        <time>2020-10-15T13:45:07Z</time>
      </trkpt>
      <trkpt lat="37.520247000" lon="-4.406550000">
        <ele>604.5</ele>
        <time>2020-10-15T13:45:09Z</time>
      </trkpt>
      <trkpt lat="37.520137000" lon="-4.406615000">
        <ele>605.5</ele>
        <time>2020-10-15T13:45:11Z</time>
      </trkpt>
      <trkpt lat="37.520023000" lon="-4.406668000">
        <ele>606.7</ele>
        <time>2020-10-15T13:45:13Z</time>
      </trkpt>
      <trkpt lat="37.519919000" lon="-4.406719000">
        <ele>607.9</ele>
        <time>2020-10-15T13:45:15Z</time>
      </trkpt>
      <trkpt lat="37.519830000" lon="-4.406752000">
        <ele>608.7</ele>
        <time>2020-10-15T13:45:17Z</time>
      </trkpt>
      <trkpt lat="37.519710000" lon="-4.406795000">
        <ele>609.4</ele>
        <time>2020-10-15T13:45:20Z</time>
      </trkpt>
      <trkpt lat="37.519628000" lon="-4.406826000">
        <ele>609.7</ele>
        <time>2020-10-15T13:45:22Z</time>
      </trkpt>
      <trkpt lat="37.519524000" lon="-4.406874000">
        <ele>609.8</ele>
        <time>2020-10-15T13:45:25Z</time>
      </trkpt>
      <trkpt lat="37.519415000" lon="-4.406928000">
        <ele>609.7</ele>
        <time>2020-10-15T13:45:28Z</time>
      </trkpt>
      <trkpt lat="37.518397000" lon="-4.407010000">
        <ele>609.3</ele>
        <time>2020-10-15T13:45:47Z</time>
      </trkpt>
      <trkpt lat="37.518286000" lon="-4.406968000">
        <ele>608.5</ele>
        <time>2020-10-15T13:45:49Z</time>
      </trkpt>
      <trkpt lat="37.518194000" lon="-4.406939000">
        <ele>607.5</ele>
        <time>2020-10-15T13:45:51Z</time>
      </trkpt>
      <trkpt lat="37.518082000" lon="-4.406926000">
        <ele>606.2</ele>
        <time>2020-10-15T13:45:53Z</time>
      </trkpt>
      <trkpt lat="37.517969000" lon="-4.406884000">
        <ele>604.9</ele>
        <time>2020-10-15T13:45:55Z</time>
      </trkpt>
      <trkpt lat="37.517852000" lon="-4.406838000">
        <ele>603.6</ele>
        <time>2020-10-15T13:45:57Z</time>
      </trkpt>
      <trkpt lat="37.517736000" lon="-4.406804000">
        <ele>602.7</ele>
        <time>2020-10-15T13:45:59Z</time>
      </trkpt>
      <trkpt lat="37.517617000" lon="-4.406759000">
        <ele>601.9</ele>
        <time>2020-10-15T13:46:01Z</time>
      </trkpt>
      <trkpt lat="37.517499000" lon="-4.406715000">
        <ele>601.2</ele>
        <time>2020-10-15T13:46:03Z</time>
      </trkpt>
      <trkpt lat="37.517392000" lon="-4.406669000">
        <ele>600.5</ele>
        <time>2020-10-15T13:46:05Z</time>
      </trkpt>
      <trkpt lat="37.517282000" lon="-4.406622000">
        <ele>599.6</ele>
        <time>2020-10-15T13:46:07Z</time>
      </trkpt>
      <trkpt lat="37.517179000" lon="-4.406573000">
        <ele>598.9</ele>
        <time>2020-10-15T13:46:09Z</time>
      </trkpt>
      <trkpt lat="37.517079000" lon="-4.406530000">
        <ele>598.2</ele>
        <time>2020-10-15T13:46:11Z</time>
      </trkpt>
      <trkpt lat="37.516982000" lon="-4.406481000">
        <ele>597.5</ele>
        <time>2020-10-15T13:46:13Z</time>
      </trkpt>
      <trkpt lat="37.516877000" lon="-4.406430000">
        <ele>596.9</ele>
        <time>2020-10-15T13:46:15Z</time>
      </trkpt>
      <trkpt lat="37.516771000" lon="-4.406379000">
        <ele>596.3</ele>
        <time>2020-10-15T13:46:17Z</time>
      </trkpt>
      <trkpt lat="37.516659000" lon="-4.406326000">
        <ele>595.5</ele>
        <time>2020-10-15T13:46:19Z</time>
      </trkpt>
      <trkpt lat="37.516547000" lon="-4.406282000">
        <ele>594.6</ele>
        <time>2020-10-15T13:46:21Z</time>
      </trkpt>
      <trkpt lat="37.516430000" lon="-4.406221000">
        <ele>593.8</ele>
        <time>2020-10-15T13:46:23Z</time>
      </trkpt>
      <trkpt lat="37.516307000" lon="-4.406160000">
        <ele>593.1</ele>
        <time>2020-10-15T13:46:25Z</time>
      </trkpt>
      <trkpt lat="37.516177000" lon="-4.406101000">
        <ele>592.5</ele>
        <time>2020-10-15T13:46:27Z</time>
      </trkpt>
      <trkpt lat="37.516051000" lon="-4.406041000">
        <ele>592.0</ele>
        <time>2020-10-15T13:46:29Z</time>
      </trkpt>
      <trkpt lat="37.515929000" lon="-4.405991000">
        <ele>591.7</ele>
        <time>2020-10-15T13:46:31Z</time>
      </trkpt>
      <trkpt lat="37.515801000" lon="-4.405941000">
        <ele>591.5</ele>
        <time>2020-10-15T13:46:33Z</time>
      </trkpt>
      <trkpt lat="37.515678000" lon="-4.405898000">
        <ele>591.5</ele>
        <time>2020-10-15T13:46:35Z</time>
      </trkpt>
      <trkpt lat="37.515559000" lon="-4.405854000">
        <ele>591.6</ele>
        <time>2020-10-15T13:46:37Z</time>
      </trkpt>
      <trkpt lat="37.515436000" lon="-4.405822000">
        <ele>591.7</ele>
        <time>2020-10-15T13:46:39Z</time>
      </trkpt>
      <trkpt lat="37.515309000" lon="-4.405803000">
        <ele>591.9</ele>
        <time>2020-10-15T13:46:41Z</time>
      </trkpt>
      <trkpt lat="37.515180000" lon="-4.405778000">
        <ele>592.1</ele>
        <time>2020-10-15T13:46:43Z</time>
      </trkpt>
      <trkpt lat="37.515052000" lon="-4.405761000">
        <ele>592.3</ele>
        <time>2020-10-15T13:46:45Z</time>
      </trkpt>
      <trkpt lat="37.514922000" lon="-4.405750000">
        <ele>592.5</ele>
        <time>2020-10-15T13:46:47Z</time>
      </trkpt>
      <trkpt lat="37.514786000" lon="-4.405749000">
        <ele>592.6</ele>
        <time>2020-10-15T13:46:49Z</time>
      </trkpt>
      <trkpt lat="37.514651000" lon="-4.405754000">
        <ele>592.8</ele>
        <time>2020-10-15T13:46:51Z</time>
      </trkpt>
      <trkpt lat="37.514524000" lon="-4.405762000">
        <ele>593.0</ele>
        <time>2020-10-15T13:46:53Z</time>
      </trkpt>
      <trkpt lat="37.514404000" lon="-4.405777000">
        <ele>593.2</ele>
        <time>2020-10-15T13:46:55Z</time>
      </trkpt>
      <trkpt lat="37.514289000" lon="-4.405791000">
        <ele>593.3</ele>
        <time>2020-10-15T13:46:57Z</time>
      </trkpt>
      <trkpt lat="37.514177000" lon="-4.405809000">
        <ele>593.3</ele>
        <time>2020-10-15T13:46:59Z</time>
      </trkpt>
      <trkpt lat="37.514066000" lon="-4.405823000">
        <ele>593.3</ele>
        <time>2020-10-15T13:47:01Z</time>
      </trkpt>
      <trkpt lat="37.513955000" lon="-4.405841000">
        <ele>593.3</ele>
        <time>2020-10-15T13:47:03Z</time>
      </trkpt>
      <trkpt lat="37.513824000" lon="-4.405863000">
        <ele>593.3</ele>
        <time>2020-10-15T13:47:05Z</time>
      </trkpt>
      <trkpt lat="37.513695000" lon="-4.405872000">
        <ele>593.3</ele>
        <time>2020-10-15T13:47:07Z</time>
      </trkpt>
      <trkpt lat="37.513570000" lon="-4.405899000">
        <ele>593.2</ele>
        <time>2020-10-15T13:47:09Z</time>
      </trkpt>
      <trkpt lat="37.513444000" lon="-4.405910000">
        <ele>593.1</ele>
        <time>2020-10-15T13:47:11Z</time>
      </trkpt>
      <trkpt lat="37.513318000" lon="-4.405926000">
        <ele>593.0</ele>
        <time>2020-10-15T13:47:13Z</time>
      </trkpt>
      <trkpt lat="37.513190000" lon="-4.405936000">
        <ele>592.7</ele>
        <time>2020-10-15T13:47:15Z</time>
      </trkpt>
      <trkpt lat="37.513058000" lon="-4.405949000">
        <ele>592.4</ele>
        <time>2020-10-15T13:47:17Z</time>
      </trkpt>
      <trkpt lat="37.512931000" lon="-4.405972000">
        <ele>592.0</ele>
        <time>2020-10-15T13:47:19Z</time>
      </trkpt>
      <trkpt lat="37.512791000" lon="-4.405985000">
        <ele>591.6</ele>
        <time>2020-10-15T13:47:21Z</time>
      </trkpt>
      <trkpt lat="37.512651000" lon="-4.406009000">
        <ele>591.3</ele>
        <time>2020-10-15T13:47:23Z</time>
      </trkpt>
      <trkpt lat="37.512508000" lon="-4.406027000">
        <ele>590.9</ele>
        <time>2020-10-15T13:47:25Z</time>
      </trkpt>
      <trkpt lat="37.512363000" lon="-4.406045000">
        <ele>590.5</ele>
        <time>2020-10-15T13:47:27Z</time>
      </trkpt>
      <trkpt lat="37.512215000" lon="-4.406066000">
        <ele>590.2</ele>
        <time>2020-10-15T13:47:29Z</time>
      </trkpt>
      <trkpt lat="37.512061000" lon="-4.406090000">
        <ele>589.9</ele>
        <time>2020-10-15T13:47:31Z</time>
      </trkpt>
      <trkpt lat="37.511913000" lon="-4.406114000">
        <ele>589.6</ele>
        <time>2020-10-15T13:47:33Z</time>
      </trkpt>
      <trkpt lat="37.511766000" lon="-4.406131000">
        <ele>589.4</ele>
        <time>2020-10-15T13:47:35Z</time>
      </trkpt>
      <trkpt lat="37.511621000" lon="-4.406156000">
        <ele>589.2</ele>
        <time>2020-10-15T13:47:37Z</time>
      </trkpt>
      <trkpt lat="37.511483000" lon="-4.406179000">
        <ele>589.1</ele>
        <time>2020-10-15T13:47:39Z</time>
      </trkpt>
      <trkpt lat="37.511358000" lon="-4.406201000">
        <ele>589.0</ele>
        <time>2020-10-15T13:47:41Z</time>
      </trkpt>
      <trkpt lat="37.511235000" lon="-4.406236000">
        <ele>588.9</ele>
        <time>2020-10-15T13:47:43Z</time>
      </trkpt>
      <trkpt lat="37.511113000" lon="-4.406271000">
        <ele>588.7</ele>
        <time>2020-10-15T13:47:45Z</time>
      </trkpt>
      <trkpt lat="37.510996000" lon="-4.406323000">
        <ele>588.5</ele>
        <time>2020-10-15T13:47:47Z</time>
      </trkpt>
      <trkpt lat="37.510881000" lon="-4.406378000">
        <ele>588.3</ele>
        <time>2020-10-15T13:47:49Z</time>
      </trkpt>
      <trkpt lat="37.510762000" lon="-4.406441000">
        <ele>588.0</ele>
        <time>2020-10-15T13:47:51Z</time>
      </trkpt>
      <trkpt lat="37.510640000" lon="-4.406518000">
        <ele>587.5</ele>
        <time>2020-10-15T13:47:53Z</time>
      </trkpt>
      <trkpt lat="37.510527000" lon="-4.406609000">
        <ele>587.1</ele>
        <time>2020-10-15T13:47:55Z</time>
      </trkpt>
      <trkpt lat="37.510411000" lon="-4.406701000">
        <ele>586.5</ele>
        <time>2020-10-15T13:47:57Z</time>
      </trkpt>
      <trkpt lat="37.510302000" lon="-4.406795000">
        <ele>586.0</ele>
        <time>2020-10-15T13:47:59Z</time>
      </trkpt>
      <trkpt lat="37.510202000" lon="-4.406897000">
        <ele>585.5</ele>
        <time>2020-10-15T13:48:01Z</time>
      </trkpt>
      <trkpt lat="37.510114000" lon="-4.407006000">
        <ele>584.9</ele>
        <time>2020-10-15T13:48:03Z</time>
      </trkpt>
      <trkpt lat="37.510023000" lon="-4.407111000">
        <ele>584.4</ele>
        <time>2020-10-15T13:48:05Z</time>
      </trkpt>
      <trkpt lat="37.509939000" lon="-4.407223000">
        <ele>583.9</ele>
        <time>2020-10-15T13:48:07Z</time>
      </trkpt>
      <trkpt lat="37.509854000" lon="-4.407339000">
        <ele>583.4</ele>
        <time>2020-10-15T13:48:09Z</time>
      </trkpt>
      <trkpt lat="37.509779000" lon="-4.407461000">
        <ele>582.9</ele>
        <time>2020-10-15T13:48:11Z</time>
      </trkpt>
      <trkpt lat="37.509703000" lon="-4.407587000">
        <ele>582.4</ele>
        <time>2020-10-15T13:48:13Z</time>
      </trkpt>
      <trkpt lat="37.509631000" lon="-4.407719000">
        <ele>582.0</ele>
        <time>2020-10-15T13:48:15Z</time>
      </trkpt>
      <trkpt lat="37.509570000" lon="-4.407851000">
        <ele>581.6</ele>
        <time>2020-10-15T13:48:17Z</time>
      </trkpt>
      <trkpt lat="37.509509000" lon="-4.407994000">
        <ele>581.4</ele>
        <time>2020-10-15T13:48:19Z</time>
      </trkpt>
      <trkpt lat="37.509465000" lon="-4.408134000">
        <ele>581.1</ele>
        <time>2020-10-15T13:48:21Z</time>
      </trkpt>
      <trkpt lat="37.509419000" lon="-4.408259000">
        <ele>580.8</ele>
        <time>2020-10-15T13:48:23Z</time>
      </trkpt>
      <trkpt lat="37.509380000" lon="-4.408393000">
        <ele>580.5</ele>
        <time>2020-10-15T13:48:25Z</time>
      </trkpt>
      <trkpt lat="37.509338000" lon="-4.408533000">
        <ele>580.4</ele>
        <time>2020-10-15T13:48:27Z</time>
      </trkpt>
      <trkpt lat="37.509304000" lon="-4.408671000">
        <ele>580.2</ele>
        <time>2020-10-15T13:48:29Z</time>
      </trkpt>
      <trkpt lat="37.509274000" lon="-4.408805000">
        <ele>580.1</ele>
        <time>2020-10-15T13:48:31Z</time>
      </trkpt>
      <trkpt lat="37.509251000" lon="-4.408941000">
        <ele>579.9</ele>
        <time>2020-10-15T13:48:33Z</time>
      </trkpt>
      <trkpt lat="37.509234000" lon="-4.409080000">
        <ele>579.8</ele>
        <time>2020-10-15T13:48:35Z</time>
      </trkpt>
      <trkpt lat="37.509227000" lon="-4.409226000">
        <ele>579.7</ele>
        <time>2020-10-15T13:48:37Z</time>
      </trkpt>
      <trkpt lat="37.509226000" lon="-4.409372000">
        <ele>579.6</ele>
        <time>2020-10-15T13:48:39Z</time>
      </trkpt>
      <trkpt lat="37.509220000" lon="-4.409517000">
        <ele>579.5</ele>
        <time>2020-10-15T13:48:41Z</time>
      </trkpt>
      <trkpt lat="37.509217000" lon="-4.409667000">
        <ele>579.5</ele>
        <time>2020-10-15T13:48:43Z</time>
      </trkpt>
      <trkpt lat="37.509227000" lon="-4.409810000">
        <ele>579.4</ele>
        <time>2020-10-15T13:48:45Z</time>
      </trkpt>
      <trkpt lat="37.509235000" lon="-4.409949000">
        <ele>579.3</ele>
        <time>2020-10-15T13:48:47Z</time>
      </trkpt>
      <trkpt lat="37.509250000" lon="-4.410085000">
        <ele>579.2</ele>
        <time>2020-10-15T13:48:49Z</time>
      </trkpt>
      <trkpt lat="37.509268000" lon="-4.410212000">
        <ele>579.1</ele>
        <time>2020-10-15T13:48:51Z</time>
      </trkpt>
      <trkpt lat="37.509292000" lon="-4.410344000">
        <ele>579.1</ele>
        <time>2020-10-15T13:48:53Z</time>
      </trkpt>
      <trkpt lat="37.509313000" lon="-4.410464000">
        <ele>579.2</ele>
        <time>2020-10-15T13:48:55Z</time>
      </trkpt>
      <trkpt lat="37.509335000" lon="-4.410595000">
        <ele>579.4</ele>
        <time>2020-10-15T13:48:57Z</time>
      </trkpt>
      <trkpt lat="37.509363000" lon="-4.410731000">
        <ele>579.5</ele>
        <time>2020-10-15T13:48:59Z</time>
      </trkpt>
      <trkpt lat="37.509391000" lon="-4.410857000">
        <ele>579.8</ele>
        <time>2020-10-15T13:49:01Z</time>
      </trkpt>
      <trkpt lat="37.509416000" lon="-4.411000000">
        <ele>580.1</ele>
        <time>2020-10-15T13:49:03Z</time>
      </trkpt>
      <trkpt lat="37.509443000" lon="-4.411135000">
        <ele>580.4</ele>
        <time>2020-10-15T13:49:05Z</time>
      </trkpt>
      <trkpt lat="37.509470000" lon="-4.411273000">
        <ele>580.6</ele>
        <time>2020-10-15T13:49:07Z</time>
      </trkpt>
      <trkpt lat="37.509507000" lon="-4.411413000">
        <ele>580.9</ele>
        <time>2020-10-15T13:49:09Z</time>
      </trkpt>
      <trkpt lat="37.509540000" lon="-4.411546000">
        <ele>581.2</ele>
        <time>2020-10-15T13:49:11Z</time>
      </trkpt>
      <trkpt lat="37.509575000" lon="-4.411685000">
        <ele>581.5</ele>
        <time>2020-10-15T13:49:13Z</time>
      </trkpt>
      <trkpt lat="37.509607000" lon="-4.411823000">
        <ele>581.6</ele>
        <time>2020-10-15T13:49:15Z</time>
      </trkpt>
      <trkpt lat="37.509638000" lon="-4.411966000">
        <ele>581.7</ele>
        <time>2020-10-15T13:49:17Z</time>
      </trkpt>
      <trkpt lat="37.509665000" lon="-4.412103000">
        <ele>581.7</ele>
        <time>2020-10-15T13:49:19Z</time>
      </trkpt>
      <trkpt lat="37.509698000" lon="-4.412235000">
        <ele>581.7</ele>
        <time>2020-10-15T13:49:21Z</time>
      </trkpt>
      <trkpt lat="37.509724000" lon="-4.412368000">
        <ele>581.5</ele>
        <time>2020-10-15T13:49:23Z</time>
      </trkpt>
      <trkpt lat="37.509745000" lon="-4.412503000">
        <ele>581.3</ele>
        <time>2020-10-15T13:49:25Z</time>
      </trkpt>
      <trkpt lat="37.509771000" lon="-4.412640000">
        <ele>580.8</ele>
        <time>2020-10-15T13:49:27Z</time>
      </trkpt>
      <trkpt lat="37.509795000" lon="-4.412783000">
        <ele>580.3</ele>
        <time>2020-10-15T13:49:29Z</time>
      </trkpt>
      <trkpt lat="37.509807000" lon="-4.412933000">
        <ele>579.6</ele>
        <time>2020-10-15T13:49:31Z</time>
      </trkpt>
      <trkpt lat="37.509810000" lon="-4.413085000">
        <ele>578.9</ele>
        <time>2020-10-15T13:49:33Z</time>
      </trkpt>
      <trkpt lat="37.509815000" lon="-4.413240000">
        <ele>578.1</ele>
        <time>2020-10-15T13:49:35Z</time>
      </trkpt>
      <trkpt lat="37.509815000" lon="-4.413394000">
        <ele>577.2</ele>
        <time>2020-10-15T13:49:37Z</time>
      </trkpt>
      <trkpt lat="37.509814000" lon="-4.413540000">
        <ele>576.3</ele>
        <time>2020-10-15T13:49:39Z</time>
      </trkpt>
      <trkpt lat="37.509802000" lon="-4.413692000">
        <ele>575.3</ele>
        <time>2020-10-15T13:49:41Z</time>
      </trkpt>
      <trkpt lat="37.509788000" lon="-4.413855000">
        <ele>574.2</ele>
        <time>2020-10-15T13:49:43Z</time>
      </trkpt>
      <trkpt lat="37.509764000" lon="-4.414015000">
        <ele>573.2</ele>
        <time>2020-10-15T13:49:45Z</time>
      </trkpt>
      <trkpt lat="37.509720000" lon="-4.414171000">
        <ele>572.4</ele>
        <time>2020-10-15T13:49:47Z</time>
      </trkpt>
      <trkpt lat="37.509677000" lon="-4.414335000">
        <ele>571.8</ele>
        <time>2020-10-15T13:49:49Z</time>
      </trkpt>
      <trkpt lat="37.509629000" lon="-4.414491000">
        <ele>571.4</ele>
        <time>2020-10-15T13:49:51Z</time>
      </trkpt>
      <trkpt lat="37.509576000" lon="-4.414648000">
        <ele>570.9</ele>
        <time>2020-10-15T13:49:53Z</time>
      </trkpt>
      <trkpt lat="37.509517000" lon="-4.414811000">
        <ele>570.5</ele>
        <time>2020-10-15T13:49:55Z</time>
      </trkpt>
      <trkpt lat="37.509446000" lon="-4.414968000">
        <ele>570.3</ele>
        <time>2020-10-15T13:49:57Z</time>
      </trkpt>
      <trkpt lat="37.509369000" lon="-4.415104000">
        <ele>570.1</ele>
        <time>2020-10-15T13:49:59Z</time>
      </trkpt>
      <trkpt lat="37.509288000" lon="-4.415234000">
        <ele>570.0</ele>
        <time>2020-10-15T13:50:01Z</time>
      </trkpt>
      <trkpt lat="37.509204000" lon="-4.415358000">
        <ele>570.1</ele>
        <time>2020-10-15T13:50:03Z</time>
      </trkpt>
      <trkpt lat="37.509122000" lon="-4.415473000">
        <ele>570.4</ele>
        <time>2020-10-15T13:50:05Z</time>
      </trkpt>
      <trkpt lat="37.509043000" lon="-4.415586000">
        <ele>570.7</ele>
        <time>2020-10-15T13:50:07Z</time>
      </trkpt>
      <trkpt lat="37.508950000" lon="-4.415698000">
        <ele>571.1</ele>
        <time>2020-10-15T13:50:09Z</time>
      </trkpt>
      <trkpt lat="37.508851000" lon="-4.415809000">
        <ele>571.5</ele>
        <time>2020-10-15T13:50:11Z</time>
      </trkpt>
      <trkpt lat="37.508743000" lon="-4.415929000">
        <ele>571.9</ele>
        <time>2020-10-15T13:50:13Z</time>
      </trkpt>
      <trkpt lat="37.508637000" lon="-4.416015000">
        <ele>572.5</ele>
        <time>2020-10-15T13:50:15Z</time>
      </trkpt>
      <trkpt lat="37.508526000" lon="-4.416104000">
        <ele>573.1</ele>
        <time>2020-10-15T13:50:17Z</time>
      </trkpt>
      <trkpt lat="37.508417000" lon="-4.416191000">
        <ele>573.8</ele>
        <time>2020-10-15T13:50:19Z</time>
      </trkpt>
      <trkpt lat="37.508298000" lon="-4.416264000">
        <ele>574.5</ele>
        <time>2020-10-15T13:50:21Z</time>
      </trkpt>
      <trkpt lat="37.508180000" lon="-4.416334000">
        <ele>575.4</ele>
        <time>2020-10-15T13:50:23Z</time>
      </trkpt>
      <trkpt lat="37.508063000" lon="-4.416393000">
        <ele>576.1</ele>
        <time>2020-10-15T13:50:25Z</time>
      </trkpt>
      <trkpt lat="37.507948000" lon="-4.416442000">
        <ele>576.6</ele>
        <time>2020-10-15T13:50:27Z</time>
      </trkpt>
      <trkpt lat="37.507823000" lon="-4.416494000">
        <ele>577.0</ele>
        <time>2020-10-15T13:50:29Z</time>
      </trkpt>
      <trkpt lat="37.507690000" lon="-4.416541000">
        <ele>577.1</ele>
        <time>2020-10-15T13:50:31Z</time>
      </trkpt>
      <trkpt lat="37.507554000" lon="-4.416573000">
        <ele>577.0</ele>
        <time>2020-10-15T13:50:33Z</time>
      </trkpt>
      <trkpt lat="37.507419000" lon="-4.416596000">
        <ele>576.8</ele>
        <time>2020-10-15T13:50:35Z</time>
      </trkpt>
      <trkpt lat="37.507290000" lon="-4.416612000">
        <ele>576.6</ele>
        <time>2020-10-15T13:50:38Z</time>
      </trkpt>
      <trkpt lat="37.507165000" lon="-4.416630000">
        <ele>576.4</ele>
        <time>2020-10-15T13:50:39Z</time>
      </trkpt>
      <trkpt lat="37.507042000" lon="-4.416648000">
        <ele>576.0</ele>
        <time>2020-10-15T13:50:41Z</time>
      </trkpt>
      <trkpt lat="37.506926000" lon="-4.416669000">
        <ele>575.5</ele>
        <time>2020-10-15T13:50:43Z</time>
      </trkpt>
      <trkpt lat="37.506812000" lon="-4.416683000">
        <ele>574.8</ele>
        <time>2020-10-15T13:50:45Z</time>
      </trkpt>
      <trkpt lat="37.506696000" lon="-4.416698000">
        <ele>574.0</ele>
        <time>2020-10-15T13:50:47Z</time>
      </trkpt>
      <trkpt lat="37.506562000" lon="-4.416716000">
        <ele>573.2</ele>
        <time>2020-10-15T13:50:49Z</time>
      </trkpt>
      <trkpt lat="37.506429000" lon="-4.416731000">
        <ele>572.3</ele>
        <time>2020-10-15T13:50:51Z</time>
      </trkpt>
      <trkpt lat="37.506303000" lon="-4.416761000">
        <ele>571.3</ele>
        <time>2020-10-15T13:50:53Z</time>
      </trkpt>
      <trkpt lat="37.506174000" lon="-4.416795000">
        <ele>570.2</ele>
        <time>2020-10-15T13:50:55Z</time>
      </trkpt>
      <trkpt lat="37.506051000" lon="-4.416836000">
        <ele>569.0</ele>
        <time>2020-10-15T13:50:57Z</time>
      </trkpt>
      <trkpt lat="37.505929000" lon="-4.416877000">
        <ele>567.6</ele>
        <time>2020-10-15T13:50:59Z</time>
      </trkpt>
      <trkpt lat="37.505802000" lon="-4.416913000">
        <ele>566.1</ele>
        <time>2020-10-15T13:51:01Z</time>
      </trkpt>
      <trkpt lat="37.505681000" lon="-4.416978000">
        <ele>564.4</ele>
        <time>2020-10-15T13:51:03Z</time>
      </trkpt>
      <trkpt lat="37.505563000" lon="-4.417035000">
        <ele>562.6</ele>
        <time>2020-10-15T13:51:05Z</time>
      </trkpt>
      <trkpt lat="37.505447000" lon="-4.417099000">
        <ele>561.0</ele>
        <time>2020-10-15T13:51:07Z</time>
      </trkpt>
      <trkpt lat="37.505339000" lon="-4.417165000">
        <ele>559.4</ele>
        <time>2020-10-15T13:51:09Z</time>
      </trkpt>
      <trkpt lat="37.505236000" lon="-4.417237000">
        <ele>557.8</ele>
        <time>2020-10-15T13:51:11Z</time>
      </trkpt>
      <trkpt lat="37.505135000" lon="-4.417302000">
        <ele>556.4</ele>
        <time>2020-10-15T13:51:13Z</time>
      </trkpt>
      <trkpt lat="37.505046000" lon="-4.417368000">
        <ele>555.3</ele>
        <time>2020-10-15T13:51:15Z</time>
      </trkpt>
      <trkpt lat="37.504957000" lon="-4.417437000">
        <ele>554.5</ele>
        <time>2020-10-15T13:51:17Z</time>
      </trkpt>
      <trkpt lat="37.504868000" lon="-4.417502000">
        <ele>553.9</ele>
        <time>2020-10-15T13:51:19Z</time>
      </trkpt>
      <trkpt lat="37.504777000" lon="-4.417572000">
        <ele>553.6</ele>
        <time>2020-10-15T13:51:21Z</time>
      </trkpt>
      <trkpt lat="37.504688000" lon="-4.417647000">
        <ele>553.7</ele>
        <time>2020-10-15T13:51:23Z</time>
      </trkpt>
      <trkpt lat="37.504600000" lon="-4.417714000">
        <ele>554.2</ele>
        <time>2020-10-15T13:51:25Z</time>
      </trkpt>
      <trkpt lat="37.504514000" lon="-4.417779000">
        <ele>554.7</ele>
        <time>2020-10-15T13:51:27Z</time>
      </trkpt>
      <trkpt lat="37.504425000" lon="-4.417849000">
        <ele>555.5</ele>
        <time>2020-10-15T13:51:29Z</time>
      </trkpt>
      <trkpt lat="37.504338000" lon="-4.417909000">
        <ele>556.3</ele>
        <time>2020-10-15T13:51:31Z</time>
      </trkpt>
      <trkpt lat="37.504253000" lon="-4.417963000">
        <ele>557.3</ele>
        <time>2020-10-15T13:51:33Z</time>
      </trkpt>
      <trkpt lat="37.504174000" lon="-4.418021000">
        <ele>558.4</ele>
        <time>2020-10-15T13:51:35Z</time>
      </trkpt>
      <trkpt lat="37.504082000" lon="-4.418094000">
        <ele>559.5</ele>
        <time>2020-10-15T13:51:38Z</time>
      </trkpt>
      <trkpt lat="37.503981000" lon="-4.418158000">
        <ele>560.5</ele>
        <time>2020-10-15T13:51:41Z</time>
      </trkpt>
      <trkpt lat="37.503914000" lon="-4.418218000">
        <ele>561.6</ele>
        <time>2020-10-15T13:51:43Z</time>
      </trkpt>
      <trkpt lat="37.503814000" lon="-4.418305000">
        <ele>562.7</ele>
        <time>2020-10-15T13:51:46Z</time>
      </trkpt>
      <trkpt lat="37.503746000" lon="-4.418363000">
        <ele>563.8</ele>
        <time>2020-10-15T13:51:48Z</time>
      </trkpt>
      <trkpt lat="37.503678000" lon="-4.418434000">
        <ele>564.8</ele>
        <time>2020-10-15T13:51:50Z</time>
      </trkpt>
      <trkpt lat="37.503602000" lon="-4.418512000">
        <ele>565.9</ele>
        <time>2020-10-15T13:51:52Z</time>
      </trkpt>
      <trkpt lat="37.503535000" lon="-4.418600000">
        <ele>567.0</ele>
        <time>2020-10-15T13:51:54Z</time>
      </trkpt>
      <trkpt lat="37.503460000" lon="-4.418691000">
        <ele>568.1</ele>
        <time>2020-10-15T13:51:56Z</time>
      </trkpt>
      <trkpt lat="37.503388000" lon="-4.418780000">
        <ele>569.0</ele>
        <time>2020-10-15T13:51:58Z</time>
      </trkpt>
      <trkpt lat="37.503314000" lon="-4.418882000">
        <ele>570.0</ele>
        <time>2020-10-15T13:52:00Z</time>
      </trkpt>
      <trkpt lat="37.503244000" lon="-4.418978000">
        <ele>570.8</ele>
        <time>2020-10-15T13:52:02Z</time>
      </trkpt>
      <trkpt lat="37.503173000" lon="-4.419079000">
        <ele>571.5</ele>
        <time>2020-10-15T13:52:05Z</time>
      </trkpt>
      <trkpt lat="37.503095000" lon="-4.419197000">
        <ele>571.8</ele>
        <time>2020-10-15T13:52:06Z</time>
      </trkpt>
      <trkpt lat="37.503017000" lon="-4.419294000">
        <ele>571.9</ele>
        <time>2020-10-15T13:52:08Z</time>
      </trkpt>
      <trkpt lat="37.502935000" lon="-4.419385000">
        <ele>571.8</ele>
        <time>2020-10-15T13:52:10Z</time>
      </trkpt>
      <trkpt lat="37.502843000" lon="-4.419504000">
        <ele>571.5</ele>
        <time>2020-10-15T13:52:12Z</time>
      </trkpt>
      <trkpt lat="37.502752000" lon="-4.419605000">
        <ele>570.9</ele>
        <time>2020-10-15T13:52:14Z</time>
      </trkpt>
      <trkpt lat="37.502658000" lon="-4.419700000">
        <ele>570.2</ele>
        <time>2020-10-15T13:52:16Z</time>
      </trkpt>
      <trkpt lat="37.502584000" lon="-4.419818000">
        <ele>569.3</ele>
        <time>2020-10-15T13:52:18Z</time>
      </trkpt>
      <trkpt lat="37.502491000" lon="-4.419913000">
        <ele>568.3</ele>
        <time>2020-10-15T13:52:20Z</time>
      </trkpt>
      <trkpt lat="37.502393000" lon="-4.419997000">
        <ele>567.1</ele>
        <time>2020-10-15T13:52:22Z</time>
      </trkpt>
      <trkpt lat="37.502311000" lon="-4.420082000">
        <ele>566.0</ele>
        <time>2020-10-15T13:52:24Z</time>
      </trkpt>
      <trkpt lat="37.502223000" lon="-4.420169000">
        <ele>564.9</ele>
        <time>2020-10-15T13:52:26Z</time>
      </trkpt>
      <trkpt lat="37.502130000" lon="-4.420258000">
        <ele>563.9</ele>
        <time>2020-10-15T13:52:28Z</time>
      </trkpt>
      <trkpt lat="37.502036000" lon="-4.420338000">
        <ele>563.2</ele>
        <time>2020-10-15T13:52:30Z</time>
      </trkpt>
      <trkpt lat="37.501933000" lon="-4.420419000">
        <ele>562.5</ele>
        <time>2020-10-15T13:52:32Z</time>
      </trkpt>
      <trkpt lat="37.501831000" lon="-4.420493000">
        <ele>561.9</ele>
        <time>2020-10-15T13:52:34Z</time>
      </trkpt>
      <trkpt lat="37.501726000" lon="-4.420569000">
        <ele>561.5</ele>
        <time>2020-10-15T13:52:36Z</time>
      </trkpt>
      <trkpt lat="37.501622000" lon="-4.420644000">
        <ele>561.3</ele>
        <time>2020-10-15T13:52:38Z</time>
      </trkpt>
      <trkpt lat="37.501517000" lon="-4.420720000">
        <ele>561.1</ele>
        <time>2020-10-15T13:52:40Z</time>
      </trkpt>
      <trkpt lat="37.501404000" lon="-4.420795000">
        <ele>560.9</ele>
        <time>2020-10-15T13:52:42Z</time>
      </trkpt>
      <trkpt lat="37.501292000" lon="-4.420874000">
        <ele>560.8</ele>
        <time>2020-10-15T13:52:44Z</time>
      </trkpt>
      <trkpt lat="37.501181000" lon="-4.420941000">
        <ele>560.6</ele>
        <time>2020-10-15T13:52:46Z</time>
      </trkpt>
      <trkpt lat="37.501065000" lon="-4.421013000">
        <ele>560.5</ele>
        <time>2020-10-15T13:52:48Z</time>
      </trkpt>
      <trkpt lat="37.500949000" lon="-4.421090000">
        <ele>560.4</ele>
        <time>2020-10-15T13:52:50Z</time>
      </trkpt>
      <trkpt lat="37.500835000" lon="-4.421162000">
        <ele>560.1</ele>
        <time>2020-10-15T13:52:52Z</time>
      </trkpt>
      <trkpt lat="37.500723000" lon="-4.421235000">
        <ele>559.8</ele>
        <time>2020-10-15T13:52:54Z</time>
      </trkpt>
      <trkpt lat="37.500608000" lon="-4.421307000">
        <ele>559.5</ele>
        <time>2020-10-15T13:52:56Z</time>
      </trkpt>
      <trkpt lat="37.500496000" lon="-4.421384000">
        <ele>558.9</ele>
        <time>2020-10-15T13:52:58Z</time>
      </trkpt>
      <trkpt lat="37.500380000" lon="-4.421463000">
        <ele>558.4</ele>
        <time>2020-10-15T13:53:00Z</time>
      </trkpt>
      <trkpt lat="37.500265000" lon="-4.421548000">
        <ele>557.9</ele>
        <time>2020-10-15T13:53:02Z</time>
      </trkpt>
      <trkpt lat="37.500156000" lon="-4.421645000">
        <ele>557.5</ele>
        <time>2020-10-15T13:53:04Z</time>
      </trkpt>
      <trkpt lat="37.500051000" lon="-4.421748000">
        <ele>556.9</ele>
        <time>2020-10-15T13:53:06Z</time>
      </trkpt>
      <trkpt lat="37.499948000" lon="-4.421845000">
        <ele>556.5</ele>
        <time>2020-10-15T13:53:08Z</time>
      </trkpt>
      <trkpt lat="37.499848000" lon="-4.421949000">
        <ele>556.0</ele>
        <time>2020-10-15T13:53:10Z</time>
      </trkpt>
      <trkpt lat="37.499747000" lon="-4.422056000">
        <ele>555.5</ele>
        <time>2020-10-15T13:53:12Z</time>
      </trkpt>
      <trkpt lat="37.499649000" lon="-4.422168000">
        <ele>555.0</ele>
        <time>2020-10-15T13:53:14Z</time>
      </trkpt>
      <trkpt lat="37.499559000" lon="-4.422288000">
        <ele>554.5</ele>
        <time>2020-10-15T13:53:16Z</time>
      </trkpt>
      <trkpt lat="37.499468000" lon="-4.422411000">
        <ele>553.9</ele>
        <time>2020-10-15T13:53:18Z</time>
      </trkpt>
      <trkpt lat="37.499376000" lon="-4.422538000">
        <ele>553.5</ele>
        <time>2020-10-15T13:53:20Z</time>
      </trkpt>
      <trkpt lat="37.499284000" lon="-4.422672000">
        <ele>552.9</ele>
        <time>2020-10-15T13:53:22Z</time>
      </trkpt>
      <trkpt lat="37.499201000" lon="-4.422812000">
        <ele>552.5</ele>
        <time>2020-10-15T13:53:24Z</time>
      </trkpt>
      <trkpt lat="37.499110000" lon="-4.422944000">
        <ele>552.2</ele>
        <time>2020-10-15T13:53:26Z</time>
      </trkpt>
      <trkpt lat="37.499016000" lon="-4.423072000">
        <ele>552.1</ele>
        <time>2020-10-15T13:53:28Z</time>
      </trkpt>
      <trkpt lat="37.498925000" lon="-4.423201000">
        <ele>552.1</ele>
        <time>2020-10-15T13:53:30Z</time>
      </trkpt>
      <trkpt lat="37.498835000" lon="-4.423333000">
        <ele>552.2</ele>
        <time>2020-10-15T13:53:32Z</time>
      </trkpt>
      <trkpt lat="37.498745000" lon="-4.423474000">
        <ele>552.5</ele>
        <time>2020-10-15T13:53:34Z</time>
      </trkpt>
      <trkpt lat="37.498647000" lon="-4.423603000">
        <ele>552.8</ele>
        <time>2020-10-15T13:53:36Z</time>
      </trkpt>
      <trkpt lat="37.498559000" lon="-4.423742000">
        <ele>553.2</ele>
        <time>2020-10-15T13:53:38Z</time>
      </trkpt>
      <trkpt lat="37.498472000" lon="-4.423877000">
        <ele>553.6</ele>
        <time>2020-10-15T13:53:40Z</time>
      </trkpt>
      <trkpt lat="37.498385000" lon="-4.424018000">
        <ele>554.1</ele>
        <time>2020-10-15T13:53:42Z</time>
      </trkpt>
      <trkpt lat="37.498286000" lon="-4.424156000">
        <ele>554.6</ele>
        <time>2020-10-15T13:53:44Z</time>
      </trkpt>
      <trkpt lat="37.498186000" lon="-4.424294000">
        <ele>554.9</ele>
        <time>2020-10-15T13:53:46Z</time>
      </trkpt>
      <trkpt lat="37.498080000" lon="-4.424421000">
        <ele>554.9</ele>
        <time>2020-10-15T13:53:48Z</time>
      </trkpt>
      <trkpt lat="37.497969000" lon="-4.424542000">
        <ele>554.7</ele>
        <time>2020-10-15T13:53:50Z</time>
      </trkpt>
      <trkpt lat="37.497859000" lon="-4.424658000">
        <ele>554.4</ele>
        <time>2020-10-15T13:53:52Z</time>
      </trkpt>
      <trkpt lat="37.497742000" lon="-4.424771000">
        <ele>553.9</ele>
        <time>2020-10-15T13:53:54Z</time>
      </trkpt>
      <trkpt lat="37.497618000" lon="-4.424873000">
        <ele>553.5</ele>
        <time>2020-10-15T13:53:56Z</time>
      </trkpt>
      <trkpt lat="37.497502000" lon="-4.424967000">
        <ele>553.1</ele>
        <time>2020-10-15T13:53:58Z</time>
      </trkpt>
      <trkpt lat="37.497382000" lon="-4.425057000">
        <ele>552.8</ele>
        <time>2020-10-15T13:54:00Z</time>
      </trkpt>
      <trkpt lat="37.497265000" lon="-4.425142000">
        <ele>552.7</ele>
        <time>2020-10-15T13:54:02Z</time>
      </trkpt>
      <trkpt lat="37.497144000" lon="-4.425202000">
        <ele>552.7</ele>
        <time>2020-10-15T13:54:04Z</time>
      </trkpt>
      <trkpt lat="37.497027000" lon="-4.425260000">
        <ele>552.8</ele>
        <time>2020-10-15T13:54:06Z</time>
      </trkpt>
      <trkpt lat="37.496916000" lon="-4.425320000">
        <ele>553.2</ele>
        <time>2020-10-15T13:54:08Z</time>
      </trkpt>
      <trkpt lat="37.496811000" lon="-4.425371000">
        <ele>553.7</ele>
        <time>2020-10-15T13:54:10Z</time>
      </trkpt>
      <trkpt lat="37.496708000" lon="-4.425406000">
        <ele>554.4</ele>
        <time>2020-10-15T13:54:12Z</time>
      </trkpt>
      <trkpt lat="37.496599000" lon="-4.425434000">
        <ele>555.1</ele>
        <time>2020-10-15T13:54:14Z</time>
      </trkpt>
      <trkpt lat="37.496485000" lon="-4.425467000">
        <ele>555.6</ele>
        <time>2020-10-15T13:54:16Z</time>
      </trkpt>
      <trkpt lat="37.496365000" lon="-4.425490000">
        <ele>556.0</ele>
        <time>2020-10-15T13:54:18Z</time>
      </trkpt>
      <trkpt lat="37.496250000" lon="-4.425511000">
        <ele>556.3</ele>
        <time>2020-10-15T13:54:20Z</time>
      </trkpt>
      <trkpt lat="37.496134000" lon="-4.425537000">
        <ele>556.5</ele>
        <time>2020-10-15T13:54:22Z</time>
      </trkpt>
      <trkpt lat="37.496015000" lon="-4.425548000">
        <ele>556.4</ele>
        <time>2020-10-15T13:54:24Z</time>
      </trkpt>
      <trkpt lat="37.495898000" lon="-4.425563000">
        <ele>556.1</ele>
        <time>2020-10-15T13:54:26Z</time>
      </trkpt>
      <trkpt lat="37.495778000" lon="-4.425568000">
        <ele>555.5</ele>
        <time>2020-10-15T13:54:28Z</time>
      </trkpt>
      <trkpt lat="37.495649000" lon="-4.425561000">
        <ele>554.5</ele>
        <time>2020-10-15T13:54:30Z</time>
      </trkpt>
      <trkpt lat="37.495529000" lon="-4.425562000">
        <ele>553.3</ele>
        <time>2020-10-15T13:54:32Z</time>
      </trkpt>
      <trkpt lat="37.495399000" lon="-4.425556000">
        <ele>551.9</ele>
        <time>2020-10-15T13:54:34Z</time>
      </trkpt>
      <trkpt lat="37.495265000" lon="-4.425551000">
        <ele>550.5</ele>
        <time>2020-10-15T13:54:36Z</time>
      </trkpt>
      <trkpt lat="37.495140000" lon="-4.425550000">
        <ele>549.0</ele>
        <time>2020-10-15T13:54:38Z</time>
      </trkpt>
      <trkpt lat="37.495007000" lon="-4.425559000">
        <ele>547.6</ele>
        <time>2020-10-15T13:54:40Z</time>
      </trkpt>
      <trkpt lat="37.494864000" lon="-4.425564000">
        <ele>546.3</ele>
        <time>2020-10-15T13:54:42Z</time>
      </trkpt>
      <trkpt lat="37.494727000" lon="-4.425558000">
        <ele>544.9</ele>
        <time>2020-10-15T13:54:44Z</time>
      </trkpt>
      <trkpt lat="37.494598000" lon="-4.425552000">
        <ele>543.7</ele>
        <time>2020-10-15T13:54:46Z</time>
      </trkpt>
      <trkpt lat="37.494474000" lon="-4.425553000">
        <ele>542.6</ele>
        <time>2020-10-15T13:54:48Z</time>
      </trkpt>
      <trkpt lat="37.494356000" lon="-4.425557000">
        <ele>542.0</ele>
        <time>2020-10-15T13:54:50Z</time>
      </trkpt>
      <trkpt lat="37.494241000" lon="-4.425564000">
        <ele>541.8</ele>
        <time>2020-10-15T13:54:52Z</time>
      </trkpt>
      <trkpt lat="37.494134000" lon="-4.425571000">
        <ele>542.0</ele>
        <time>2020-10-15T13:54:54Z</time>
      </trkpt>
      <trkpt lat="37.494033000" lon="-4.425575000">
        <ele>542.5</ele>
        <time>2020-10-15T13:54:56Z</time>
      </trkpt>
      <trkpt lat="37.493935000" lon="-4.425588000">
        <ele>543.1</ele>
        <time>2020-10-15T13:54:58Z</time>
      </trkpt>
      <trkpt lat="37.493825000" lon="-4.425600000">
        <ele>543.9</ele>
        <time>2020-10-15T13:55:00Z</time>
      </trkpt>
      <trkpt lat="37.493706000" lon="-4.425625000">
        <ele>544.6</ele>
        <time>2020-10-15T13:55:02Z</time>
      </trkpt>
      <trkpt lat="37.493583000" lon="-4.425652000">
        <ele>545.4</ele>
        <time>2020-10-15T13:55:04Z</time>
      </trkpt>
      <trkpt lat="37.493453000" lon="-4.425696000">
        <ele>546.0</ele>
        <time>2020-10-15T13:55:06Z</time>
      </trkpt>
      <trkpt lat="37.493324000" lon="-4.425737000">
        <ele>546.5</ele>
        <time>2020-10-15T13:55:08Z</time>
      </trkpt>
      <trkpt lat="37.493195000" lon="-4.425790000">
        <ele>546.7</ele>
        <time>2020-10-15T13:55:10Z</time>
      </trkpt>
      <trkpt lat="37.493068000" lon="-4.425853000">
        <ele>546.7</ele>
        <time>2020-10-15T13:55:12Z</time>
      </trkpt>
      <trkpt lat="37.492942000" lon="-4.425909000">
        <ele>546.5</ele>
        <time>2020-10-15T13:55:14Z</time>
      </trkpt>
      <trkpt lat="37.492820000" lon="-4.425970000">
        <ele>546.1</ele>
        <time>2020-10-15T13:55:16Z</time>
      </trkpt>
      <trkpt lat="37.492693000" lon="-4.426031000">
        <ele>545.5</ele>
        <time>2020-10-15T13:55:18Z</time>
      </trkpt>
      <trkpt lat="37.492576000" lon="-4.426111000">
        <ele>544.9</ele>
        <time>2020-10-15T13:55:20Z</time>
      </trkpt>
      <trkpt lat="37.492464000" lon="-4.426198000">
        <ele>544.2</ele>
        <time>2020-10-15T13:55:22Z</time>
      </trkpt>
      <trkpt lat="37.492356000" lon="-4.426289000">
        <ele>543.5</ele>
        <time>2020-10-15T13:55:24Z</time>
      </trkpt>
      <trkpt lat="37.492258000" lon="-4.426381000">
        <ele>542.7</ele>
        <time>2020-10-15T13:55:26Z</time>
      </trkpt>
      <trkpt lat="37.492162000" lon="-4.426471000">
        <ele>542.1</ele>
        <time>2020-10-15T13:55:28Z</time>
      </trkpt>
      <trkpt lat="37.492070000" lon="-4.426560000">
        <ele>541.5</ele>
        <time>2020-10-15T13:55:30Z</time>
      </trkpt>
      <trkpt lat="37.491985000" lon="-4.426643000">
        <ele>541.3</ele>
        <time>2020-10-15T13:55:32Z</time>
      </trkpt>
      <trkpt lat="37.491900000" lon="-4.426743000">
        <ele>541.1</ele>
        <time>2020-10-15T13:55:34Z</time>
      </trkpt>
      <trkpt lat="37.491815000" lon="-4.426848000">
        <ele>541.0</ele>
        <time>2020-10-15T13:55:36Z</time>
      </trkpt>
      <trkpt lat="37.491735000" lon="-4.426950000">
        <ele>541.0</ele>
        <time>2020-10-15T13:55:38Z</time>
      </trkpt>
      <trkpt lat="37.491653000" lon="-4.427061000">
        <ele>541.1</ele>
        <time>2020-10-15T13:55:40Z</time>
      </trkpt>
      <trkpt lat="37.491574000" lon="-4.427158000">
        <ele>541.2</ele>
        <time>2020-10-15T13:55:42Z</time>
      </trkpt>
      <trkpt lat="37.491503000" lon="-4.427257000">
        <ele>541.5</ele>
        <time>2020-10-15T13:55:44Z</time>
      </trkpt>
      <trkpt lat="37.491431000" lon="-4.427352000">
        <ele>541.8</ele>
        <time>2020-10-15T13:55:46Z</time>
      </trkpt>
      <trkpt lat="37.491362000" lon="-4.427456000">
        <ele>542.3</ele>
        <time>2020-10-15T13:55:48Z</time>
      </trkpt>
      <trkpt lat="37.491293000" lon="-4.427557000">
        <ele>542.8</ele>
        <time>2020-10-15T13:55:50Z</time>
      </trkpt>
      <trkpt lat="37.491224000" lon="-4.427656000">
        <ele>543.5</ele>
        <time>2020-10-15T13:55:52Z</time>
      </trkpt>
      <trkpt lat="37.491158000" lon="-4.427758000">
        <ele>544.1</ele>
        <time>2020-10-15T13:55:54Z</time>
      </trkpt>
      <trkpt lat="37.491091000" lon="-4.427855000">
        <ele>544.9</ele>
        <time>2020-10-15T13:55:56Z</time>
      </trkpt>
      <trkpt lat="37.491023000" lon="-4.427951000">
        <ele>545.7</ele>
        <time>2020-10-15T13:55:58Z</time>
      </trkpt>
      <trkpt lat="37.490955000" lon="-4.428053000">
        <ele>546.5</ele>
        <time>2020-10-15T13:56:00Z</time>
      </trkpt>
      <trkpt lat="37.490886000" lon="-4.428144000">
        <ele>547.3</ele>
        <time>2020-10-15T13:56:02Z</time>
      </trkpt>
      <trkpt lat="37.490822000" lon="-4.428240000">
        <ele>548.1</ele>
        <time>2020-10-15T13:56:04Z</time>
      </trkpt>
      <trkpt lat="37.490746000" lon="-4.428331000">
        <ele>548.7</ele>
        <time>2020-10-15T13:56:06Z</time>
      </trkpt>
      <trkpt lat="37.490664000" lon="-4.428424000">
        <ele>549.4</ele>
        <time>2020-10-15T13:56:08Z</time>
      </trkpt>
      <trkpt lat="37.490584000" lon="-4.428518000">
        <ele>549.8</ele>
        <time>2020-10-15T13:56:10Z</time>
      </trkpt>
      <trkpt lat="37.490495000" lon="-4.428614000">
        <ele>550.1</ele>
        <time>2020-10-15T13:56:12Z</time>
      </trkpt>
      <trkpt lat="37.490413000" lon="-4.428701000">
        <ele>550.2</ele>
        <time>2020-10-15T13:56:14Z</time>
      </trkpt>
      <trkpt lat="37.490325000" lon="-4.428789000">
        <ele>550.1</ele>
        <time>2020-10-15T13:56:16Z</time>
      </trkpt>
      <trkpt lat="37.490238000" lon="-4.428870000">
        <ele>549.6</ele>
        <time>2020-10-15T13:56:18Z</time>
      </trkpt>
      <trkpt lat="37.490138000" lon="-4.428955000">
        <ele>549.0</ele>
        <time>2020-10-15T13:56:20Z</time>
      </trkpt>
      <trkpt lat="37.490044000" lon="-4.429039000">
        <ele>548.4</ele>
        <time>2020-10-15T13:56:22Z</time>
      </trkpt>
      <trkpt lat="37.489950000" lon="-4.429125000">
        <ele>547.7</ele>
        <time>2020-10-15T13:56:24Z</time>
      </trkpt>
      <trkpt lat="37.489863000" lon="-4.429219000">
        <ele>547.0</ele>
        <time>2020-10-15T13:56:26Z</time>
      </trkpt>
      <trkpt lat="37.489763000" lon="-4.429317000">
        <ele>546.5</ele>
        <time>2020-10-15T13:56:28Z</time>
      </trkpt>
      <trkpt lat="37.489678000" lon="-4.429414000">
        <ele>546.0</ele>
        <time>2020-10-15T13:56:30Z</time>
      </trkpt>
      <trkpt lat="37.489605000" lon="-4.429515000">
        <ele>545.6</ele>
        <time>2020-10-15T13:56:32Z</time>
      </trkpt>
      <trkpt lat="37.489519000" lon="-4.429617000">
        <ele>545.5</ele>
        <time>2020-10-15T13:56:34Z</time>
      </trkpt>
      <trkpt lat="37.489425000" lon="-4.429707000">
        <ele>545.6</ele>
        <time>2020-10-15T13:56:36Z</time>
      </trkpt>
      <trkpt lat="37.489317000" lon="-4.429805000">
        <ele>545.8</ele>
        <time>2020-10-15T13:56:38Z</time>
      </trkpt>
      <trkpt lat="37.489218000" lon="-4.429888000">
        <ele>546.1</ele>
        <time>2020-10-15T13:56:40Z</time>
      </trkpt>
      <trkpt lat="37.489124000" lon="-4.429970000">
        <ele>546.4</ele>
        <time>2020-10-15T13:56:42Z</time>
      </trkpt>
      <trkpt lat="37.489034000" lon="-4.430046000">
        <ele>546.5</ele>
        <time>2020-10-15T13:56:44Z</time>
      </trkpt>
      <trkpt lat="37.488944000" lon="-4.430116000">
        <ele>546.5</ele>
        <time>2020-10-15T13:56:46Z</time>
      </trkpt>
      <trkpt lat="37.488852000" lon="-4.430181000">
        <ele>546.4</ele>
        <time>2020-10-15T13:56:48Z</time>
      </trkpt>
      <trkpt lat="37.488763000" lon="-4.430240000">
        <ele>546.0</ele>
        <time>2020-10-15T13:56:50Z</time>
      </trkpt>
      <trkpt lat="37.488662000" lon="-4.430302000">
        <ele>545.5</ele>
        <time>2020-10-15T13:56:52Z</time>
      </trkpt>
      <trkpt lat="37.488557000" lon="-4.430361000">
        <ele>544.8</ele>
        <time>2020-10-15T13:56:54Z</time>
      </trkpt>
      <trkpt lat="37.488447000" lon="-4.430419000">
        <ele>543.9</ele>
        <time>2020-10-15T13:56:56Z</time>
      </trkpt>
      <trkpt lat="37.488344000" lon="-4.430470000">
        <ele>542.8</ele>
        <time>2020-10-15T13:56:58Z</time>
      </trkpt>
      <trkpt lat="37.488264000" lon="-4.430522000">
        <ele>541.7</ele>
        <time>2020-10-15T13:57:00Z</time>
      </trkpt>
      <trkpt lat="37.488187000" lon="-4.430558000">
        <ele>540.6</ele>
        <time>2020-10-15T13:57:03Z</time>
      </trkpt>
      <trkpt lat="37.488089000" lon="-4.430604000">
        <ele>539.6</ele>
        <time>2020-10-15T13:57:06Z</time>
      </trkpt>
      <trkpt lat="37.488006000" lon="-4.430639000">
        <ele>538.7</ele>
        <time>2020-10-15T13:57:08Z</time>
      </trkpt>
      <trkpt lat="37.487915000" lon="-4.430674000">
        <ele>538.0</ele>
        <time>2020-10-15T13:57:10Z</time>
      </trkpt>
      <trkpt lat="37.487832000" lon="-4.430700000">
        <ele>537.5</ele>
        <time>2020-10-15T13:57:12Z</time>
      </trkpt>
      <trkpt lat="37.487745000" lon="-4.430729000">
        <ele>537.2</ele>
        <time>2020-10-15T13:57:14Z</time>
      </trkpt>
      <trkpt lat="37.487658000" lon="-4.430754000">
        <ele>537.0</ele>
        <time>2020-10-15T13:57:16Z</time>
      </trkpt>
      <trkpt lat="37.487576000" lon="-4.430770000">
        <ele>536.8</ele>
        <time>2020-10-15T13:57:18Z</time>
      </trkpt>
      <trkpt lat="37.487490000" lon="-4.430793000">
        <ele>536.7</ele>
        <time>2020-10-15T13:57:20Z</time>
      </trkpt>
      <trkpt lat="37.487400000" lon="-4.430805000">
        <ele>536.7</ele>
        <time>2020-10-15T13:57:22Z</time>
      </trkpt>
      <trkpt lat="37.487300000" lon="-4.430826000">
        <ele>536.7</ele>
        <time>2020-10-15T13:57:24Z</time>
      </trkpt>
      <trkpt lat="37.487190000" lon="-4.430856000">
        <ele>536.7</ele>
        <time>2020-10-15T13:57:26Z</time>
      </trkpt>
      <trkpt lat="37.487072000" lon="-4.430889000">
        <ele>536.6</ele>
        <time>2020-10-15T13:57:28Z</time>
      </trkpt>
      <trkpt lat="37.486954000" lon="-4.430917000">
        <ele>536.5</ele>
        <time>2020-10-15T13:57:30Z</time>
      </trkpt>
      <trkpt lat="37.486840000" lon="-4.430938000">
        <ele>536.1</ele>
        <time>2020-10-15T13:57:32Z</time>
      </trkpt>
      <trkpt lat="37.486725000" lon="-4.430957000">
        <ele>535.5</ele>
        <time>2020-10-15T13:57:34Z</time>
      </trkpt>
      <trkpt lat="37.486613000" lon="-4.430982000">
        <ele>534.7</ele>
        <time>2020-10-15T13:57:36Z</time>
      </trkpt>
      <trkpt lat="37.486499000" lon="-4.431009000">
        <ele>534.0</ele>
        <time>2020-10-15T13:57:38Z</time>
      </trkpt>
      <trkpt lat="37.486389000" lon="-4.431035000">
        <ele>533.4</ele>
        <time>2020-10-15T13:57:40Z</time>
      </trkpt>
      <trkpt lat="37.486276000" lon="-4.431066000">
        <ele>532.7</ele>
        <time>2020-10-15T13:57:42Z</time>
      </trkpt>
      <trkpt lat="37.486160000" lon="-4.431090000">
        <ele>532.0</ele>
        <time>2020-10-15T13:57:44Z</time>
      </trkpt>
      <trkpt lat="37.486048000" lon="-4.431115000">
        <ele>531.3</ele>
        <time>2020-10-15T13:57:46Z</time>
      </trkpt>
      <trkpt lat="37.485936000" lon="-4.431142000">
        <ele>530.6</ele>
        <time>2020-10-15T13:57:48Z</time>
      </trkpt>
      <trkpt lat="37.485827000" lon="-4.431173000">
        <ele>530.1</ele>
        <time>2020-10-15T13:57:50Z</time>
      </trkpt>
      <trkpt lat="37.485716000" lon="-4.431206000">
        <ele>529.6</ele>
        <time>2020-10-15T13:57:52Z</time>
      </trkpt>
      <trkpt lat="37.485604000" lon="-4.431238000">
        <ele>529.4</ele>
        <time>2020-10-15T13:57:54Z</time>
      </trkpt>
      <trkpt lat="37.485488000" lon="-4.431291000">
        <ele>529.3</ele>
        <time>2020-10-15T13:57:56Z</time>
      </trkpt>
      <trkpt lat="37.485367000" lon="-4.431350000">
        <ele>529.4</ele>
        <time>2020-10-15T13:57:58Z</time>
      </trkpt>
      <trkpt lat="37.485251000" lon="-4.431402000">
        <ele>529.5</ele>
        <time>2020-10-15T13:58:00Z</time>
      </trkpt>
      <trkpt lat="37.485144000" lon="-4.431452000">
        <ele>529.7</ele>
        <time>2020-10-15T13:58:02Z</time>
      </trkpt>
      <trkpt lat="37.485040000" lon="-4.431506000">
        <ele>530.1</ele>
        <time>2020-10-15T13:58:04Z</time>
      </trkpt>
      <trkpt lat="37.484939000" lon="-4.431552000">
        <ele>530.6</ele>
        <time>2020-10-15T13:58:06Z</time>
      </trkpt>
      <trkpt lat="37.484836000" lon="-4.431596000">
        <ele>531.3</ele>
        <time>2020-10-15T13:58:08Z</time>
      </trkpt>
      <trkpt lat="37.484729000" lon="-4.431642000">
        <ele>532.0</ele>
        <time>2020-10-15T13:58:10Z</time>
      </trkpt>
      <trkpt lat="37.484621000" lon="-4.431700000">
        <ele>532.7</ele>
        <time>2020-10-15T13:58:12Z</time>
      </trkpt>
      <trkpt lat="37.484513000" lon="-4.431741000">
        <ele>533.5</ele>
        <time>2020-10-15T13:58:16Z</time>
      </trkpt>
      <trkpt lat="37.484359000" lon="-4.431810000">
        <ele>534.2</ele>
        <time>2020-10-15T13:58:17Z</time>
      </trkpt>
      <trkpt lat="37.484268000" lon="-4.431856000">
        <ele>535.0</ele>
        <time>2020-10-15T13:58:19Z</time>
      </trkpt>
      <trkpt lat="37.484164000" lon="-4.431887000">
        <ele>535.8</ele>
        <time>2020-10-15T13:58:21Z</time>
      </trkpt>
      <trkpt lat="37.484060000" lon="-4.431915000">
        <ele>536.5</ele>
        <time>2020-10-15T13:58:23Z</time>
      </trkpt>
      <trkpt lat="37.483948000" lon="-4.431931000">
        <ele>537.1</ele>
        <time>2020-10-15T13:58:25Z</time>
      </trkpt>
      <trkpt lat="37.483839000" lon="-4.431957000">
        <ele>537.5</ele>
        <time>2020-10-15T13:58:27Z</time>
      </trkpt>
      <trkpt lat="37.483723000" lon="-4.431977000">
        <ele>537.9</ele>
        <time>2020-10-15T13:58:29Z</time>
      </trkpt>
      <trkpt lat="37.483611000" lon="-4.431994000">
        <ele>538.2</ele>
        <time>2020-10-15T13:58:31Z</time>
      </trkpt>
      <trkpt lat="37.483492000" lon="-4.432000000">
        <ele>538.4</ele>
        <time>2020-10-15T13:58:33Z</time>
      </trkpt>
      <trkpt lat="37.483376000" lon="-4.431996000">
        <ele>538.5</ele>
        <time>2020-10-15T13:58:35Z</time>
      </trkpt>
      <trkpt lat="37.483260000" lon="-4.431987000">
        <ele>538.5</ele>
        <time>2020-10-15T13:58:37Z</time>
      </trkpt>
      <trkpt lat="37.483154000" lon="-4.431974000">
        <ele>538.6</ele>
        <time>2020-10-15T13:58:39Z</time>
      </trkpt>
      <trkpt lat="37.483034000" lon="-4.431928000">
        <ele>538.6</ele>
        <time>2020-10-15T13:58:41Z</time>
      </trkpt>
      <trkpt lat="37.482916000" lon="-4.431882000">
        <ele>538.5</ele>
        <time>2020-10-15T13:58:43Z</time>
      </trkpt>
      <trkpt lat="37.482813000" lon="-4.431845000">
        <ele>538.5</ele>
        <time>2020-10-15T13:58:45Z</time>
      </trkpt>
      <trkpt lat="37.482730000" lon="-4.431809000">
        <ele>538.5</ele>
        <time>2020-10-15T13:58:48Z</time>
      </trkpt>
      <trkpt lat="37.482647000" lon="-4.431769000">
        <ele>538.5</ele>
        <time>2020-10-15T13:58:51Z</time>
      </trkpt>
      <trkpt lat="37.482546000" lon="-4.431709000">
        <ele>538.4</ele>
        <time>2020-10-15T13:58:54Z</time>
      </trkpt>
      <trkpt lat="37.482471000" lon="-4.431664000">
        <ele>538.2</ele>
        <time>2020-10-15T13:58:56Z</time>
      </trkpt>
      <trkpt lat="37.482368000" lon="-4.431590000">
        <ele>538.1</ele>
        <time>2020-10-15T13:58:59Z</time>
      </trkpt>
      <trkpt lat="37.482290000" lon="-4.431542000">
        <ele>538.0</ele>
        <time>2020-10-15T13:59:01Z</time>
      </trkpt>
      <trkpt lat="37.482175000" lon="-4.431490000">
        <ele>537.9</ele>
        <time>2020-10-15T13:59:03Z</time>
      </trkpt>
      <trkpt lat="37.482089000" lon="-4.431402000">
        <ele>537.8</ele>
        <time>2020-10-15T13:59:05Z</time>
      </trkpt>
      <trkpt lat="37.482021000" lon="-4.431342000">
        <ele>537.6</ele>
        <time>2020-10-15T13:59:07Z</time>
      </trkpt>
      <trkpt lat="37.481962000" lon="-4.431263000">
        <ele>537.3</ele>
        <time>2020-10-15T13:59:34Z</time>
      </trkpt>
      <trkpt lat="37.481879000" lon="-4.431179000">
        <ele>536.6</ele>
        <time>2020-10-15T13:59:37Z</time>
      </trkpt>
      <trkpt lat="37.481810000" lon="-4.431108000">
        <ele>535.8</ele>
        <time>2020-10-15T13:59:39Z</time>
      </trkpt>
      <trkpt lat="37.481762000" lon="-4.431020000">
        <ele>535.0</ele>
        <time>2020-10-15T13:59:41Z</time>
      </trkpt>
      <trkpt lat="37.481676000" lon="-4.430940000">
        <ele>534.1</ele>
        <time>2020-10-15T13:59:43Z</time>
      </trkpt>
      <trkpt lat="37.481606000" lon="-4.430844000">
        <ele>533.1</ele>
        <time>2020-10-15T13:59:45Z</time>
      </trkpt>
      <trkpt lat="37.481529000" lon="-4.430777000">
        <ele>531.9</ele>
        <time>2020-10-15T13:59:47Z</time>
      </trkpt>
      <trkpt lat="37.481477000" lon="-4.430679000">
        <ele>530.7</ele>
        <time>2020-10-15T13:59:49Z</time>
      </trkpt>
      <trkpt lat="37.481429000" lon="-4.430580000">
        <ele>529.5</ele>
        <time>2020-10-15T13:59:51Z</time>
      </trkpt>
      <trkpt lat="37.481374000" lon="-4.430491000">
        <ele>528.0</ele>
        <time>2020-10-15T13:59:53Z</time>
      </trkpt>
      <trkpt lat="37.481323000" lon="-4.430389000">
        <ele>526.5</ele>
        <time>2020-10-15T13:59:55Z</time>
      </trkpt>
      <trkpt lat="37.481282000" lon="-4.430293000">
        <ele>525.2</ele>
        <time>2020-10-15T13:59:57Z</time>
      </trkpt>
      <trkpt lat="37.481235000" lon="-4.430195000">
        <ele>523.9</ele>
        <time>2020-10-15T13:59:59Z</time>
      </trkpt>
      <trkpt lat="37.481193000" lon="-4.430094000">
        <ele>522.7</ele>
        <time>2020-10-15T14:00:01Z</time>
      </trkpt>
      <trkpt lat="37.481150000" lon="-4.430000000">
        <ele>521.6</ele>
        <time>2020-10-15T14:00:03Z</time>
      </trkpt>
      <trkpt lat="37.481108000" lon="-4.429905000">
        <ele>520.6</ele>
        <time>2020-10-15T14:00:05Z</time>
      </trkpt>
      <trkpt lat="37.481068000" lon="-4.429808000">
        <ele>519.8</ele>
        <time>2020-10-15T14:00:07Z</time>
      </trkpt>
      <trkpt lat="37.481029000" lon="-4.429709000">
        <ele>519.2</ele>
        <time>2020-10-15T14:00:09Z</time>
      </trkpt>
      <trkpt lat="37.480996000" lon="-4.429607000">
        <ele>518.6</ele>
        <time>2020-10-15T14:00:11Z</time>
      </trkpt>
      <trkpt lat="37.480959000" lon="-4.429509000">
        <ele>518.2</ele>
        <time>2020-10-15T14:00:13Z</time>
      </trkpt>
      <trkpt lat="37.480921000" lon="-4.429411000">
        <ele>518.0</ele>
        <time>2020-10-15T14:00:15Z</time>
      </trkpt>
      <trkpt lat="37.480878000" lon="-4.429301000">
        <ele>517.9</ele>
        <time>2020-10-15T14:00:17Z</time>
      </trkpt>
      <trkpt lat="37.480831000" lon="-4.429181000">
        <ele>518.0</ele>
        <time>2020-10-15T14:00:19Z</time>
      </trkpt>
      <trkpt lat="37.480785000" lon="-4.429069000">
        <ele>518.3</ele>
        <time>2020-10-15T14:00:21Z</time>
      </trkpt>
      <trkpt lat="37.480740000" lon="-4.428957000">
        <ele>518.7</ele>
        <time>2020-10-15T14:00:23Z</time>
      </trkpt>
      <trkpt lat="37.480703000" lon="-4.428851000">
        <ele>519.3</ele>
        <time>2020-10-15T14:00:25Z</time>
      </trkpt>
      <trkpt lat="37.480664000" lon="-4.428742000">
        <ele>519.9</ele>
        <time>2020-10-15T14:00:27Z</time>
      </trkpt>
      <trkpt lat="37.480615000" lon="-4.428635000">
        <ele>520.6</ele>
        <time>2020-10-15T14:00:29Z</time>
      </trkpt>
      <trkpt lat="37.480571000" lon="-4.428531000">
        <ele>521.3</ele>
        <time>2020-10-15T14:00:31Z</time>
      </trkpt>
      <trkpt lat="37.480529000" lon="-4.428419000">
        <ele>522.0</ele>
        <time>2020-10-15T14:00:33Z</time>
      </trkpt>
      <trkpt lat="37.480484000" lon="-4.428318000">
        <ele>522.7</ele>
        <time>2020-10-15T14:00:35Z</time>
      </trkpt>
      <trkpt lat="37.480433000" lon="-4.428191000">
        <ele>523.4</ele>
        <time>2020-10-15T14:00:38Z</time>
      </trkpt>
      <trkpt lat="37.480395000" lon="-4.428082000">
        <ele>523.9</ele>
        <time>2020-10-15T14:00:41Z</time>
      </trkpt>
      <trkpt lat="37.480349000" lon="-4.427966000">
        <ele>524.3</ele>
        <time>2020-10-15T14:00:44Z</time>
      </trkpt>
      <trkpt lat="37.480290000" lon="-4.427834000">
        <ele>524.5</ele>
        <time>2020-10-15T14:00:47Z</time>
      </trkpt>
      <trkpt lat="37.480254000" lon="-4.427742000">
        <ele>524.4</ele>
        <time>2020-10-15T14:00:49Z</time>
      </trkpt>
      <trkpt lat="37.480206000" lon="-4.427602000">
        <ele>524.1</ele>
        <time>2020-10-15T14:00:52Z</time>
      </trkpt>
      <trkpt lat="37.480167000" lon="-4.427504000">
        <ele>523.6</ele>
        <time>2020-10-15T14:00:54Z</time>
      </trkpt>
      <trkpt lat="37.480108000" lon="-4.427367000">
        <ele>523.5</ele>
        <time>2020-10-15T14:00:57Z</time>
      </trkpt>
      <trkpt lat="37.480069000" lon="-4.427264000">
        <ele>523.6</ele>
        <time>2020-10-15T14:00:59Z</time>
      </trkpt>
      <trkpt lat="37.480033000" lon="-4.427160000">
        <ele>523.6</ele>
        <time>2020-10-15T14:01:02Z</time>
      </trkpt>
      <trkpt lat="37.479992000" lon="-4.427059000">
        <ele>523.7</ele>
        <time>2020-10-15T14:01:03Z</time>
      </trkpt>
      <trkpt lat="37.479946000" lon="-4.426955000">
        <ele>523.8</ele>
        <time>2020-10-15T14:01:18Z</time>
      </trkpt>
      <trkpt lat="37.479602000" lon="-4.426189000">
        <ele>524.0</ele>
        <time>2020-10-15T14:01:20Z</time>
      </trkpt>
      <trkpt lat="37.479557000" lon="-4.426100000">
        <ele>524.3</ele>
        <time>2020-10-15T14:01:22Z</time>
      </trkpt>
      <trkpt lat="37.479492000" lon="-4.426027000">
        <ele>524.5</ele>
        <time>2020-10-15T14:01:26Z</time>
      </trkpt>
      <trkpt lat="37.479436000" lon="-4.425942000">
        <ele>524.9</ele>
        <time>2020-10-15T14:01:26Z</time>
      </trkpt>
      <trkpt lat="37.479386000" lon="-4.425856000">
        <ele>525.3</ele>
        <time>2020-10-15T14:01:28Z</time>
      </trkpt>
      <trkpt lat="37.479323000" lon="-4.425775000">
        <ele>525.5</ele>
        <time>2020-10-15T14:01:30Z</time>
      </trkpt>
      <trkpt lat="37.479261000" lon="-4.425685000">
        <ele>525.3</ele>
        <time>2020-10-15T14:01:32Z</time>
      </trkpt>
      <trkpt lat="37.479172000" lon="-4.425581000">
        <ele>524.6</ele>
        <time>2020-10-15T14:01:35Z</time>
      </trkpt>
      <trkpt lat="37.479109000" lon="-4.425510000">
        <ele>523.8</ele>
        <time>2020-10-15T14:01:38Z</time>
      </trkpt>
      <trkpt lat="37.479045000" lon="-4.425435000">
        <ele>522.8</ele>
        <time>2020-10-15T14:01:39Z</time>
      </trkpt>
      <trkpt lat="37.478982000" lon="-4.425355000">
        <ele>521.7</ele>
        <time>2020-10-15T14:01:41Z</time>
      </trkpt>
      <trkpt lat="37.478912000" lon="-4.425282000">
        <ele>520.5</ele>
        <time>2020-10-15T14:01:43Z</time>
      </trkpt>
      <trkpt lat="37.478837000" lon="-4.425193000">
        <ele>519.4</ele>
        <time>2020-10-15T14:01:45Z</time>
      </trkpt>
      <trkpt lat="37.478751000" lon="-4.425101000">
        <ele>518.3</ele>
        <time>2020-10-15T14:01:47Z</time>
      </trkpt>
      <trkpt lat="37.478667000" lon="-4.425019000">
        <ele>517.3</ele>
        <time>2020-10-15T14:01:49Z</time>
      </trkpt>
      <trkpt lat="37.478566000" lon="-4.424935000">
        <ele>516.4</ele>
        <time>2020-10-15T14:01:51Z</time>
      </trkpt>
      <trkpt lat="37.478462000" lon="-4.424867000">
        <ele>515.6</ele>
        <time>2020-10-15T14:01:53Z</time>
      </trkpt>
      <trkpt lat="37.478366000" lon="-4.424798000">
        <ele>515.1</ele>
        <time>2020-10-15T14:01:55Z</time>
      </trkpt>
      <trkpt lat="37.478275000" lon="-4.424738000">
        <ele>514.7</ele>
        <time>2020-10-15T14:01:57Z</time>
      </trkpt>
      <trkpt lat="37.478180000" lon="-4.424682000">
        <ele>514.5</ele>
        <time>2020-10-15T14:01:59Z</time>
      </trkpt>
      <trkpt lat="37.478080000" lon="-4.424623000">
        <ele>514.5</ele>
        <time>2020-10-15T14:02:01Z</time>
      </trkpt>
      <trkpt lat="37.477978000" lon="-4.424571000">
        <ele>514.5</ele>
        <time>2020-10-15T14:02:03Z</time>
      </trkpt>
      <trkpt lat="37.477874000" lon="-4.424522000">
        <ele>514.5</ele>
        <time>2020-10-15T14:02:05Z</time>
      </trkpt>
      <trkpt lat="37.477770000" lon="-4.424482000">
        <ele>514.6</ele>
        <time>2020-10-15T14:02:07Z</time>
      </trkpt>
      <trkpt lat="37.477667000" lon="-4.424436000">
        <ele>514.6</ele>
        <time>2020-10-15T14:02:09Z</time>
      </trkpt>
      <trkpt lat="37.477561000" lon="-4.424396000">
        <ele>514.6</ele>
        <time>2020-10-15T14:02:11Z</time>
      </trkpt>
      <trkpt lat="37.477458000" lon="-4.424364000">
        <ele>514.6</ele>
        <time>2020-10-15T14:02:13Z</time>
      </trkpt>
      <trkpt lat="37.477373000" lon="-4.424334000">
        <ele>514.6</ele>
        <time>2020-10-15T14:02:15Z</time>
      </trkpt>
      <trkpt lat="37.477264000" lon="-4.424308000">
        <ele>514.5</ele>
        <time>2020-10-15T14:02:18Z</time>
      </trkpt>
      <trkpt lat="37.477171000" lon="-4.424298000">
        <ele>514.3</ele>
        <time>2020-10-15T14:02:21Z</time>
      </trkpt>
      <trkpt lat="37.477089000" lon="-4.424309000">
        <ele>514.1</ele>
        <time>2020-10-15T14:03:14Z</time>
      </trkpt>
      <trkpt lat="37.476990000" lon="-4.424285000">
        <ele>513.9</ele>
        <time>2020-10-15T14:03:18Z</time>
      </trkpt>
      <trkpt lat="37.476887000" lon="-4.424263000">
        <ele>513.6</ele>
        <time>2020-10-15T14:03:22Z</time>
      </trkpt>
      <trkpt lat="37.476778000" lon="-4.424250000">
        <ele>513.4</ele>
        <time>2020-10-15T14:03:26Z</time>
      </trkpt>
      <trkpt lat="37.476690000" lon="-4.424247000">
        <ele>513.1</ele>
        <time>2020-10-15T14:03:28Z</time>
      </trkpt>
      <trkpt lat="37.476600000" lon="-4.424246000">
        <ele>512.9</ele>
        <time>2020-10-15T14:03:30Z</time>
      </trkpt>
      <trkpt lat="37.476514000" lon="-4.424241000">
        <ele>512.7</ele>
        <time>2020-10-15T14:03:32Z</time>
      </trkpt>
      <trkpt lat="37.476428000" lon="-4.424242000">
        <ele>512.6</ele>
        <time>2020-10-15T14:03:33Z</time>
      </trkpt>
      <trkpt lat="37.476346000" lon="-4.424246000">
        <ele>512.5</ele>
        <time>2020-10-15T14:03:36Z</time>
      </trkpt>
      <trkpt lat="37.476228000" lon="-4.424243000">
        <ele>512.5</ele>
        <time>2020-10-15T14:03:39Z</time>
      </trkpt>
      <trkpt lat="37.476114000" lon="-4.424232000">
        <ele>512.6</ele>
        <time>2020-10-15T14:03:42Z</time>
      </trkpt>
      <trkpt lat="37.476011000" lon="-4.424216000">
        <ele>512.7</ele>
        <time>2020-10-15T14:03:44Z</time>
      </trkpt>
      <trkpt lat="37.475916000" lon="-4.424201000">
        <ele>512.9</ele>
        <time>2020-10-15T14:03:48Z</time>
      </trkpt>
      <trkpt lat="37.475813000" lon="-4.424188000">
        <ele>513.2</ele>
        <time>2020-10-15T14:03:51Z</time>
      </trkpt>
      <trkpt lat="37.475718000" lon="-4.424189000">
        <ele>513.5</ele>
        <time>2020-10-15T14:03:53Z</time>
      </trkpt>
      <trkpt lat="37.475621000" lon="-4.424200000">
        <ele>514.0</ele>
        <time>2020-10-15T14:03:58Z</time>
      </trkpt>
      <trkpt lat="37.475528000" lon="-4.424219000">
        <ele>514.5</ele>
        <time>2020-10-15T14:04:03Z</time>
      </trkpt>
      <trkpt lat="37.475434000" lon="-4.424196000">
        <ele>515.1</ele>
        <time>2020-10-15T14:04:06Z</time>
      </trkpt>
      <trkpt lat="37.475351000" lon="-4.424194000">
        <ele>515.6</ele>
        <time>2020-10-15T14:04:10Z</time>
      </trkpt>
      <trkpt lat="37.475269000" lon="-4.424190000">
        <ele>516.2</ele>
        <time>2020-10-15T14:04:14Z</time>
      </trkpt>
      <trkpt lat="37.475180000" lon="-4.424144000">
        <ele>516.6</ele>
        <time>2020-10-15T14:04:16Z</time>
      </trkpt>
      <trkpt lat="37.475077000" lon="-4.424101000">
        <ele>517.0</ele>
        <time>2020-10-15T14:04:20Z</time>
      </trkpt>
      <trkpt lat="37.474994000" lon="-4.424108000">
        <ele>517.4</ele>
        <time>2020-10-15T14:04:23Z</time>
      </trkpt>
      <trkpt lat="37.474904000" lon="-4.424106000">
        <ele>517.5</ele>
        <time>2020-10-15T14:04:28Z</time>
      </trkpt>
      <trkpt lat="37.474814000" lon="-4.424108000">
        <ele>517.8</ele>
        <time>2020-10-15T14:04:33Z</time>
      </trkpt>
      <trkpt lat="37.474740000" lon="-4.424155000">
        <ele>518.0</ele>
        <time>2020-10-15T14:04:53Z</time>
      </trkpt>
      <trkpt lat="37.474708000" lon="-4.424254000">
        <ele>518.1</ele>
        <time>2020-10-15T14:05:05Z</time>
      </trkpt>
      <trkpt lat="37.474624000" lon="-4.424278000">
        <ele>518.1</ele>
        <time>2020-10-15T14:05:15Z</time>
      </trkpt>
      <trkpt lat="37.474547000" lon="-4.424320000">
        <ele>518.1</ele>
        <time>2020-10-15T14:05:27Z</time>
      </trkpt>
      <trkpt lat="37.474463000" lon="-4.424262000">
        <ele>518.0</ele>
        <time>2020-10-15T14:05:46Z</time>
      </trkpt>
      <trkpt lat="37.474552000" lon="-4.424277000">
        <ele>517.9</ele>
        <time>2020-10-15T14:06:14Z</time>
      </trkpt>
      <trkpt lat="37.474633000" lon="-4.424275000">
        <ele>518.0</ele>
        <time>2020-10-15T14:06:22Z</time>
      </trkpt>
      <trkpt lat="37.474719000" lon="-4.424280000">
        <ele>518.1</ele>
        <time>2020-10-15T14:06:30Z</time>
      </trkpt>
      <trkpt lat="37.474774000" lon="-4.424205000">
        <ele>518.2</ele>
        <time>2020-10-15T14:06:45Z</time>
      </trkpt>
      <trkpt lat="37.474855000" lon="-4.424192000">
        <ele>518.4</ele>
        <time>2020-10-15T14:06:56Z</time>
      </trkpt>
      <trkpt lat="37.474785000" lon="-4.424139000">
        <ele>518.4</ele>
        <time>2020-10-15T14:07:11Z</time>
      </trkpt>
      <trkpt lat="37.474704000" lon="-4.424116000">
        <ele>518.3</ele>
        <time>2020-10-15T14:07:26Z</time>
      </trkpt>
      <trkpt lat="37.474795000" lon="-4.424091000">
        <ele>518.1</ele>
        <time>2020-10-15T14:11:54Z</time>
      </trkpt>
      <trkpt lat="37.474877000" lon="-4.424089000">
        <ele>517.9</ele>
        <time>2020-10-15T14:11:59Z</time>
      </trkpt>
      <trkpt lat="37.474972000" lon="-4.424100000">
        <ele>517.6</ele>
        <time>2020-10-15T14:12:06Z</time>
      </trkpt>
      <trkpt lat="37.475056000" lon="-4.424109000">
        <ele>517.3</ele>
        <time>2020-10-15T14:12:11Z</time>
      </trkpt>
      <trkpt lat="37.475128000" lon="-4.424177000">
        <ele>516.9</ele>
        <time>2020-10-15T14:12:18Z</time>
      </trkpt>
      <trkpt lat="37.475202000" lon="-4.424246000">
        <ele>516.4</ele>
        <time>2020-10-15T14:12:25Z</time>
      </trkpt>
      <trkpt lat="37.475287000" lon="-4.424214000">
        <ele>515.8</ele>
        <time>2020-10-15T14:13:05Z</time>
      </trkpt>
      <trkpt lat="37.475397000" lon="-4.424213000">
        <ele>515.2</ele>
        <time>2020-10-15T14:13:10Z</time>
      </trkpt>
      <trkpt lat="37.475506000" lon="-4.424202000">
        <ele>514.5</ele>
        <time>2020-10-15T14:13:13Z</time>
      </trkpt>
      <trkpt lat="37.475593000" lon="-4.424206000">
        <ele>514.0</ele>
        <time>2020-10-15T14:13:15Z</time>
      </trkpt>
      <trkpt lat="37.475680000" lon="-4.424209000">
        <ele>513.5</ele>
        <time>2020-10-15T14:13:18Z</time>
      </trkpt>
      <trkpt lat="37.475761000" lon="-4.424222000">
        <ele>513.2</ele>
        <time>2020-10-15T14:13:21Z</time>
      </trkpt>
      <trkpt lat="37.475866000" lon="-4.424233000">
        <ele>512.8</ele>
        <time>2020-10-15T14:13:24Z</time>
      </trkpt>
      <trkpt lat="37.475948000" lon="-4.424236000">
        <ele>512.5</ele>
        <time>2020-10-15T14:13:26Z</time>
      </trkpt>
      <trkpt lat="37.476033000" lon="-4.424229000">
        <ele>512.5</ele>
        <time>2020-10-15T14:13:28Z</time>
      </trkpt>
      <trkpt lat="37.476151000" lon="-4.424245000">
        <ele>512.4</ele>
        <time>2020-10-15T14:13:31Z</time>
      </trkpt>
      <trkpt lat="37.476243000" lon="-4.424253000">
        <ele>512.4</ele>
        <time>2020-10-15T14:13:34Z</time>
      </trkpt>
      <trkpt lat="37.476343000" lon="-4.424250000">
        <ele>512.4</ele>
        <time>2020-10-15T14:13:37Z</time>
      </trkpt>
      <trkpt lat="37.476426000" lon="-4.424249000">
        <ele>512.5</ele>
        <time>2020-10-15T14:13:39Z</time>
      </trkpt>
      <trkpt lat="37.476509000" lon="-4.424246000">
        <ele>512.7</ele>
        <time>2020-10-15T14:13:41Z</time>
      </trkpt>
      <trkpt lat="37.476614000" lon="-4.424251000">
        <ele>512.9</ele>
        <time>2020-10-15T14:13:43Z</time>
      </trkpt>
      <trkpt lat="37.476698000" lon="-4.424258000">
        <ele>513.0</ele>
        <time>2020-10-15T14:13:45Z</time>
      </trkpt>
      <trkpt lat="37.476804000" lon="-4.424273000">
        <ele>513.1</ele>
        <time>2020-10-15T14:13:48Z</time>
      </trkpt>
      <trkpt lat="37.476900000" lon="-4.424283000">
        <ele>513.1</ele>
        <time>2020-10-15T14:13:52Z</time>
      </trkpt>
      <trkpt lat="37.477004000" lon="-4.424301000">
        <ele>513.0</ele>
        <time>2020-10-15T14:13:56Z</time>
      </trkpt>
      <trkpt lat="37.477103000" lon="-4.424349000">
        <ele>512.7</ele>
        <time>2020-10-15T14:14:00Z</time>
      </trkpt>
      <trkpt lat="37.477187000" lon="-4.424468000">
        <ele>512.4</ele>
        <time>2020-10-15T14:14:03Z</time>
      </trkpt>
      <trkpt lat="37.477265000" lon="-4.424545000">
        <ele>512.0</ele>
        <time>2020-10-15T14:14:05Z</time>
      </trkpt>
      <trkpt lat="37.477336000" lon="-4.424644000">
        <ele>511.6</ele>
        <time>2020-10-15T14:14:07Z</time>
      </trkpt>
      <trkpt lat="37.477374000" lon="-4.424764000">
        <ele>511.1</ele>
        <time>2020-10-15T14:14:09Z</time>
      </trkpt>
      <trkpt lat="37.477387000" lon="-4.424899000">
        <ele>510.5</ele>
        <time>2020-10-15T14:14:11Z</time>
      </trkpt>
      <trkpt lat="37.477398000" lon="-4.425037000">
        <ele>509.8</ele>
        <time>2020-10-15T14:14:13Z</time>
      </trkpt>
      <trkpt lat="37.477397000" lon="-4.425164000">
        <ele>509.3</ele>
        <time>2020-10-15T14:14:15Z</time>
      </trkpt>
      <trkpt lat="37.477381000" lon="-4.425289000">
        <ele>508.7</ele>
        <time>2020-10-15T14:14:18Z</time>
      </trkpt>
      <trkpt lat="37.477344000" lon="-4.425391000">
        <ele>508.2</ele>
        <time>2020-10-15T14:14:23Z</time>
      </trkpt>
      <trkpt lat="37.477361000" lon="-4.425510000">
        <ele>507.7</ele>
        <time>2020-10-15T14:14:28Z</time>
      </trkpt>
      <trkpt lat="37.477388000" lon="-4.425632000">
        <ele>507.4</ele>
        <time>2020-10-15T14:14:33Z</time>
      </trkpt>
      <trkpt lat="37.477420000" lon="-4.425753000">
        <ele>507.1</ele>
        <time>2020-10-15T14:14:37Z</time>
      </trkpt>
      <trkpt lat="37.477457000" lon="-4.425864000">
        <ele>506.8</ele>
        <time>2020-10-15T14:14:40Z</time>
      </trkpt>
      <trkpt lat="37.477494000" lon="-4.425990000">
        <ele>506.5</ele>
        <time>2020-10-15T14:14:43Z</time>
      </trkpt>
      <trkpt lat="37.477539000" lon="-4.426134000">
        <ele>506.1</ele>
        <time>2020-10-15T14:14:46Z</time>
      </trkpt>
      <trkpt lat="37.477568000" lon="-4.426238000">
        <ele>505.7</ele>
        <time>2020-10-15T14:14:48Z</time>
      </trkpt>
      <trkpt lat="37.477621000" lon="-4.426345000">
        <ele>505.4</ele>
        <time>2020-10-15T14:14:50Z</time>
      </trkpt>
      <trkpt lat="37.477657000" lon="-4.426466000">
        <ele>504.9</ele>
        <time>2020-10-15T14:14:52Z</time>
      </trkpt>
      <trkpt lat="37.477695000" lon="-4.426591000">
        <ele>504.4</ele>
        <time>2020-10-15T14:14:54Z</time>
      </trkpt>
      <trkpt lat="37.477725000" lon="-4.426719000">
        <ele>503.9</ele>
        <time>2020-10-15T14:14:56Z</time>
      </trkpt>
      <trkpt lat="37.477743000" lon="-4.426854000">
        <ele>503.4</ele>
        <time>2020-10-15T14:14:58Z</time>
      </trkpt>
      <trkpt lat="37.477741000" lon="-4.426988000">
        <ele>502.7</ele>
        <time>2020-10-15T14:15:00Z</time>
      </trkpt>
      <trkpt lat="37.477736000" lon="-4.427138000">
        <ele>502.0</ele>
        <time>2020-10-15T14:15:02Z</time>
      </trkpt>
      <trkpt lat="37.477730000" lon="-4.427286000">
        <ele>501.2</ele>
        <time>2020-10-15T14:15:04Z</time>
      </trkpt>
      <trkpt lat="37.477715000" lon="-4.427448000">
        <ele>500.4</ele>
        <time>2020-10-15T14:15:06Z</time>
      </trkpt>
      <trkpt lat="37.477700000" lon="-4.427612000">
        <ele>499.5</ele>
        <time>2020-10-15T14:15:08Z</time>
      </trkpt>
      <trkpt lat="37.477687000" lon="-4.427774000">
        <ele>498.7</ele>
        <time>2020-10-15T14:15:10Z</time>
      </trkpt>
      <trkpt lat="37.477671000" lon="-4.427941000">
        <ele>497.8</ele>
        <time>2020-10-15T14:15:12Z</time>
      </trkpt>
      <trkpt lat="37.477657000" lon="-4.428098000">
        <ele>496.9</ele>
        <time>2020-10-15T14:15:14Z</time>
      </trkpt>
      <trkpt lat="37.477648000" lon="-4.428259000">
        <ele>496.0</ele>
        <time>2020-10-15T14:15:16Z</time>
      </trkpt>
      <trkpt lat="37.477636000" lon="-4.428426000">
        <ele>495.1</ele>
        <time>2020-10-15T14:15:18Z</time>
      </trkpt>
      <trkpt lat="37.477625000" lon="-4.428596000">
        <ele>494.3</ele>
        <time>2020-10-15T14:15:20Z</time>
      </trkpt>
      <trkpt lat="37.477611000" lon="-4.428756000">
        <ele>493.5</ele>
        <time>2020-10-15T14:15:22Z</time>
      </trkpt>
      <trkpt lat="37.477585000" lon="-4.428910000">
        <ele>492.6</ele>
        <time>2020-10-15T14:15:24Z</time>
      </trkpt>
      <trkpt lat="37.477539000" lon="-4.429071000">
        <ele>491.9</ele>
        <time>2020-10-15T14:15:26Z</time>
      </trkpt>
      <trkpt lat="37.477492000" lon="-4.429234000">
        <ele>491.2</ele>
        <time>2020-10-15T14:15:28Z</time>
      </trkpt>
      <trkpt lat="37.477441000" lon="-4.429407000">
        <ele>490.5</ele>
        <time>2020-10-15T14:15:30Z</time>
      </trkpt>
      <trkpt lat="37.477413000" lon="-4.429505000">
        <ele>489.8</ele>
        <time>2020-10-15T14:15:31Z</time>
      </trkpt>
      <trkpt lat="37.477355000" lon="-4.429691000">
        <ele>489.2</ele>
        <time>2020-10-15T14:15:33Z</time>
      </trkpt>
      <trkpt lat="37.477299000" lon="-4.429870000">
        <ele>488.5</ele>
        <time>2020-10-15T14:15:35Z</time>
      </trkpt>
      <trkpt lat="37.477245000" lon="-4.430046000">
        <ele>487.9</ele>
        <time>2020-10-15T14:15:37Z</time>
      </trkpt>
      <trkpt lat="37.477195000" lon="-4.430218000">
        <ele>487.1</ele>
        <time>2020-10-15T14:15:39Z</time>
      </trkpt>
      <trkpt lat="37.477156000" lon="-4.430376000">
        <ele>486.3</ele>
        <time>2020-10-15T14:15:41Z</time>
      </trkpt>
      <trkpt lat="37.477107000" lon="-4.430536000">
        <ele>485.5</ele>
        <time>2020-10-15T14:15:43Z</time>
      </trkpt>
      <trkpt lat="37.477056000" lon="-4.430707000">
        <ele>484.7</ele>
        <time>2020-10-15T14:15:45Z</time>
      </trkpt>
      <trkpt lat="37.477008000" lon="-4.430880000">
        <ele>483.9</ele>
        <time>2020-10-15T14:15:47Z</time>
      </trkpt>
      <trkpt lat="37.476970000" lon="-4.431069000">
        <ele>483.1</ele>
        <time>2020-10-15T14:15:49Z</time>
      </trkpt>
      <trkpt lat="37.476946000" lon="-4.431169000">
        <ele>482.4</ele>
        <time>2020-10-15T14:15:50Z</time>
      </trkpt>
      <trkpt lat="37.476929000" lon="-4.431271000">
        <ele>481.6</ele>
        <time>2020-10-15T14:15:51Z</time>
      </trkpt>
      <trkpt lat="37.476899000" lon="-4.431465000">
        <ele>481.0</ele>
        <time>2020-10-15T14:15:53Z</time>
      </trkpt>
      <trkpt lat="37.476864000" lon="-4.431640000">
        <ele>480.5</ele>
        <time>2020-10-15T14:15:55Z</time>
      </trkpt>
      <trkpt lat="37.476829000" lon="-4.431812000">
        <ele>480.0</ele>
        <time>2020-10-15T14:15:57Z</time>
      </trkpt>
      <trkpt lat="37.476792000" lon="-4.431981000">
        <ele>479.7</ele>
        <time>2020-10-15T14:15:59Z</time>
      </trkpt>
      <trkpt lat="37.476757000" lon="-4.432151000">
        <ele>479.4</ele>
        <time>2020-10-15T14:16:01Z</time>
      </trkpt>
      <trkpt lat="37.476724000" lon="-4.432332000">
        <ele>479.1</ele>
        <time>2020-10-15T14:16:03Z</time>
      </trkpt>
      <trkpt lat="37.476688000" lon="-4.432499000">
        <ele>478.7</ele>
        <time>2020-10-15T14:16:05Z</time>
      </trkpt>
      <trkpt lat="37.476653000" lon="-4.432674000">
        <ele>478.5</ele>
        <time>2020-10-15T14:16:07Z</time>
      </trkpt>
      <trkpt lat="37.476621000" lon="-4.432836000">
        <ele>478.3</ele>
        <time>2020-10-15T14:16:09Z</time>
      </trkpt>
      <trkpt lat="37.476589000" lon="-4.432998000">
        <ele>478.1</ele>
        <time>2020-10-15T14:16:11Z</time>
      </trkpt>
      <trkpt lat="37.476553000" lon="-4.433158000">
        <ele>477.9</ele>
        <time>2020-10-15T14:16:13Z</time>
      </trkpt>
      <trkpt lat="37.476515000" lon="-4.433324000">
        <ele>477.6</ele>
        <time>2020-10-15T14:16:15Z</time>
      </trkpt>
      <trkpt lat="37.476479000" lon="-4.433492000">
        <ele>477.4</ele>
        <time>2020-10-15T14:16:17Z</time>
      </trkpt>
      <trkpt lat="37.476440000" lon="-4.433658000">
        <ele>477.0</ele>
        <time>2020-10-15T14:16:19Z</time>
      </trkpt>
      <trkpt lat="37.476410000" lon="-4.433810000">
        <ele>476.5</ele>
        <time>2020-10-15T14:16:21Z</time>
      </trkpt>
      <trkpt lat="37.476375000" lon="-4.433968000">
        <ele>476.1</ele>
        <time>2020-10-15T14:16:23Z</time>
      </trkpt>
      <trkpt lat="37.476344000" lon="-4.434132000">
        <ele>475.5</ele>
        <time>2020-10-15T14:16:25Z</time>
      </trkpt>
      <trkpt lat="37.476301000" lon="-4.434289000">
        <ele>475.1</ele>
        <time>2020-10-15T14:16:27Z</time>
      </trkpt>
      <trkpt lat="37.476268000" lon="-4.434450000">
        <ele>474.5</ele>
        <time>2020-10-15T14:16:29Z</time>
      </trkpt>
      <trkpt lat="37.476234000" lon="-4.434617000">
        <ele>473.9</ele>
        <time>2020-10-15T14:16:31Z</time>
      </trkpt>
      <trkpt lat="37.476203000" lon="-4.434778000">
        <ele>473.3</ele>
        <time>2020-10-15T14:16:33Z</time>
      </trkpt>
      <trkpt lat="37.476162000" lon="-4.434953000">
        <ele>472.6</ele>
        <time>2020-10-15T14:16:35Z</time>
      </trkpt>
      <trkpt lat="37.476119000" lon="-4.435123000">
        <ele>472.1</ele>
        <time>2020-10-15T14:16:37Z</time>
      </trkpt>
      <trkpt lat="37.476081000" lon="-4.435293000">
        <ele>471.5</ele>
        <time>2020-10-15T14:16:39Z</time>
      </trkpt>
      <trkpt lat="37.476035000" lon="-4.435461000">
        <ele>471.0</ele>
        <time>2020-10-15T14:16:41Z</time>
      </trkpt>
      <trkpt lat="37.475996000" lon="-4.435631000">
        <ele>470.5</ele>
        <time>2020-10-15T14:16:43Z</time>
      </trkpt>
      <trkpt lat="37.475957000" lon="-4.435792000">
        <ele>470.2</ele>
        <time>2020-10-15T14:16:45Z</time>
      </trkpt>
      <trkpt lat="37.475912000" lon="-4.435945000">
        <ele>469.8</ele>
        <time>2020-10-15T14:16:47Z</time>
      </trkpt>
      <trkpt lat="37.475871000" lon="-4.436098000">
        <ele>469.5</ele>
        <time>2020-10-15T14:16:49Z</time>
      </trkpt>
      <trkpt lat="37.475830000" lon="-4.436259000">
        <ele>469.2</ele>
        <time>2020-10-15T14:16:51Z</time>
      </trkpt>
      <trkpt lat="37.475782000" lon="-4.436413000">
        <ele>468.9</ele>
        <time>2020-10-15T14:16:53Z</time>
      </trkpt>
      <trkpt lat="37.475729000" lon="-4.436564000">
        <ele>468.6</ele>
        <time>2020-10-15T14:16:55Z</time>
      </trkpt>
      <trkpt lat="37.475681000" lon="-4.436720000">
        <ele>468.3</ele>
        <time>2020-10-15T14:16:57Z</time>
      </trkpt>
      <trkpt lat="37.475633000" lon="-4.436874000">
        <ele>467.9</ele>
        <time>2020-10-15T14:16:59Z</time>
      </trkpt>
      <trkpt lat="37.475592000" lon="-4.437042000">
        <ele>467.5</ele>
        <time>2020-10-15T14:17:01Z</time>
      </trkpt>
      <trkpt lat="37.475548000" lon="-4.437196000">
        <ele>467.2</ele>
        <time>2020-10-15T14:17:03Z</time>
      </trkpt>
      <trkpt lat="37.475499000" lon="-4.437351000">
        <ele>466.8</ele>
        <time>2020-10-15T14:17:05Z</time>
      </trkpt>
      <trkpt lat="37.475452000" lon="-4.437501000">
        <ele>466.5</ele>
        <time>2020-10-15T14:17:07Z</time>
      </trkpt>
      <trkpt lat="37.475417000" lon="-4.437655000">
        <ele>466.2</ele>
        <time>2020-10-15T14:17:09Z</time>
      </trkpt>
      <trkpt lat="37.475381000" lon="-4.437806000">
        <ele>465.8</ele>
        <time>2020-10-15T14:17:11Z</time>
      </trkpt>
      <trkpt lat="37.475341000" lon="-4.437954000">
        <ele>465.4</ele>
        <time>2020-10-15T14:17:13Z</time>
      </trkpt>
      <trkpt lat="37.475300000" lon="-4.438093000">
        <ele>465.0</ele>
        <time>2020-10-15T14:17:15Z</time>
      </trkpt>
      <trkpt lat="37.475257000" lon="-4.438231000">
        <ele>464.5</ele>
        <time>2020-10-15T14:17:17Z</time>
      </trkpt>
      <trkpt lat="37.475219000" lon="-4.438378000">
        <ele>464.2</ele>
        <time>2020-10-15T14:17:19Z</time>
      </trkpt>
      <trkpt lat="37.475184000" lon="-4.438522000">
        <ele>463.8</ele>
        <time>2020-10-15T14:17:21Z</time>
      </trkpt>
      <trkpt lat="37.475143000" lon="-4.438668000">
        <ele>463.5</ele>
        <time>2020-10-15T14:17:23Z</time>
      </trkpt>
      <trkpt lat="37.475101000" lon="-4.438811000">
        <ele>463.4</ele>
        <time>2020-10-15T14:17:25Z</time>
      </trkpt>
      <trkpt lat="37.475063000" lon="-4.438950000">
        <ele>463.1</ele>
        <time>2020-10-15T14:17:27Z</time>
      </trkpt>
      <trkpt lat="37.475027000" lon="-4.439098000">
        <ele>462.8</ele>
        <time>2020-10-15T14:17:29Z</time>
      </trkpt>
      <trkpt lat="37.474990000" lon="-4.439240000">
        <ele>462.5</ele>
        <time>2020-10-15T14:17:31Z</time>
      </trkpt>
      <trkpt lat="37.474947000" lon="-4.439377000">
        <ele>462.4</ele>
        <time>2020-10-15T14:17:33Z</time>
      </trkpt>
      <trkpt lat="37.474901000" lon="-4.439514000">
        <ele>462.3</ele>
        <time>2020-10-15T14:17:35Z</time>
      </trkpt>
      <trkpt lat="37.474855000" lon="-4.439651000">
        <ele>462.2</ele>
        <time>2020-10-15T14:17:37Z</time>
      </trkpt>
      <trkpt lat="37.474812000" lon="-4.439774000">
        <ele>462.2</ele>
        <time>2020-10-15T14:17:39Z</time>
      </trkpt>
      <trkpt lat="37.474776000" lon="-4.439885000">
        <ele>462.1</ele>
        <time>2020-10-15T14:17:41Z</time>
      </trkpt>
      <trkpt lat="37.474736000" lon="-4.440001000">
        <ele>462.0</ele>
        <time>2020-10-15T14:17:43Z</time>
      </trkpt>
      <trkpt lat="37.474699000" lon="-4.440112000">
        <ele>461.8</ele>
        <time>2020-10-15T14:17:45Z</time>
      </trkpt>
      <trkpt lat="37.474663000" lon="-4.440209000">
        <ele>461.6</ele>
        <time>2020-10-15T14:17:47Z</time>
      </trkpt>
      <trkpt lat="37.474628000" lon="-4.440324000">
        <ele>461.5</ele>
        <time>2020-10-15T14:17:50Z</time>
      </trkpt>
      <trkpt lat="37.474635000" lon="-4.440428000">
        <ele>461.5</ele>
        <time>2020-10-15T14:17:55Z</time>
      </trkpt>
      <trkpt lat="37.474547000" lon="-4.440476000">
        <ele>461.4</ele>
        <time>2020-10-15T14:18:01Z</time>
      </trkpt>
      <trkpt lat="37.474486000" lon="-4.440566000">
        <ele>461.3</ele>
        <time>2020-10-15T14:18:05Z</time>
      </trkpt>
      <trkpt lat="37.474441000" lon="-4.440677000">
        <ele>461.1</ele>
        <time>2020-10-15T14:18:08Z</time>
      </trkpt>
      <trkpt lat="37.474399000" lon="-4.440765000">
        <ele>460.9</ele>
        <time>2020-10-15T14:18:10Z</time>
      </trkpt>
      <trkpt lat="37.474336000" lon="-4.440892000">
        <ele>460.7</ele>
        <time>2020-10-15T14:18:13Z</time>
      </trkpt>
      <trkpt lat="37.474283000" lon="-4.441021000">
        <ele>460.6</ele>
        <time>2020-10-15T14:18:16Z</time>
      </trkpt>
      <trkpt lat="37.474235000" lon="-4.441139000">
        <ele>460.5</ele>
        <time>2020-10-15T14:18:19Z</time>
      </trkpt>
      <trkpt lat="37.474197000" lon="-4.441252000">
        <ele>460.5</ele>
        <time>2020-10-15T14:18:22Z</time>
      </trkpt>
      <trkpt lat="37.474157000" lon="-4.441360000">
        <ele>460.5</ele>
        <time>2020-10-15T14:18:25Z</time>
      </trkpt>
      <trkpt lat="37.474116000" lon="-4.441464000">
        <ele>460.5</ele>
        <time>2020-10-15T14:18:28Z</time>
      </trkpt>
      <trkpt lat="37.474077000" lon="-4.441574000">
        <ele>460.5</ele>
        <time>2020-10-15T14:18:31Z</time>
      </trkpt>
      <trkpt lat="37.474036000" lon="-4.441681000">
        <ele>460.4</ele>
        <time>2020-10-15T14:18:34Z</time>
      </trkpt>
      <trkpt lat="37.474004000" lon="-4.441778000">
        <ele>460.2</ele>
        <time>2020-10-15T14:18:37Z</time>
      </trkpt>
      <trkpt lat="37.473981000" lon="-4.441911000">
        <ele>460.0</ele>
        <time>2020-10-15T14:18:41Z</time>
      </trkpt>
      <trkpt lat="37.473931000" lon="-4.442030000">
        <ele>459.8</ele>
        <time>2020-10-15T14:18:44Z</time>
      </trkpt>
      <trkpt lat="37.473874000" lon="-4.442160000">
        <ele>459.6</ele>
        <time>2020-10-15T14:18:47Z</time>
      </trkpt>
      <trkpt lat="37.473830000" lon="-4.442246000">
        <ele>459.5</ele>
        <time>2020-10-15T14:18:49Z</time>
      </trkpt>
      <trkpt lat="37.473796000" lon="-4.442344000">
        <ele>459.2</ele>
        <time>2020-10-15T14:18:52Z</time>
      </trkpt>
      <trkpt lat="37.473779000" lon="-4.442449000">
        <ele>458.8</ele>
        <time>2020-10-15T14:18:58Z</time>
      </trkpt>
      <trkpt lat="37.473717000" lon="-4.442520000">
        <ele>458.5</ele>
        <time>2020-10-15T14:19:02Z</time>
      </trkpt>
      <trkpt lat="37.473635000" lon="-4.442566000">
        <ele>458.1</ele>
        <time>2020-10-15T14:19:13Z</time>
      </trkpt>
      <trkpt lat="37.473559000" lon="-4.442600000">
        <ele>457.8</ele>
        <time>2020-10-15T14:19:18Z</time>
      </trkpt>
      <trkpt lat="37.473477000" lon="-4.442645000">
        <ele>457.6</ele>
        <time>2020-10-15T14:19:22Z</time>
      </trkpt>
      <trkpt lat="37.473395000" lon="-4.442702000">
        <ele>457.5</ele>
        <time>2020-10-15T14:19:26Z</time>
      </trkpt>
      <trkpt lat="37.473323000" lon="-4.442790000">
        <ele>457.4</ele>
        <time>2020-10-15T14:19:31Z</time>
      </trkpt>
      <trkpt lat="37.473257000" lon="-4.442860000">
        <ele>457.3</ele>
        <time>2020-10-15T14:19:37Z</time>
      </trkpt>
      <trkpt lat="37.473217000" lon="-4.442952000">
        <ele>457.1</ele>
        <time>2020-10-15T14:19:42Z</time>
      </trkpt>
      <trkpt lat="37.473177000" lon="-4.443049000">
        <ele>456.9</ele>
        <time>2020-10-15T14:19:46Z</time>
      </trkpt>
      <trkpt lat="37.473127000" lon="-4.443169000">
        <ele>456.7</ele>
        <time>2020-10-15T14:19:50Z</time>
      </trkpt>
      <trkpt lat="37.473078000" lon="-4.443282000">
        <ele>456.5</ele>
        <time>2020-10-15T14:19:54Z</time>
      </trkpt>
      <trkpt lat="37.473034000" lon="-4.443396000">
        <ele>456.1</ele>
        <time>2020-10-15T14:19:58Z</time>
      </trkpt>
      <trkpt lat="37.473006000" lon="-4.443514000">
        <ele>455.6</ele>
        <time>2020-10-15T14:20:02Z</time>
      </trkpt>
      <trkpt lat="37.472966000" lon="-4.443643000">
        <ele>455.1</ele>
        <time>2020-10-15T14:20:06Z</time>
      </trkpt>
      <trkpt lat="37.472923000" lon="-4.443760000">
        <ele>454.4</ele>
        <time>2020-10-15T14:20:10Z</time>
      </trkpt>
      <trkpt lat="37.472876000" lon="-4.443890000">
        <ele>453.7</ele>
        <time>2020-10-15T14:20:12Z</time>
      </trkpt>
      <trkpt lat="37.472826000" lon="-4.444017000">
        <ele>453.1</ele>
        <time>2020-10-15T14:20:15Z</time>
      </trkpt>
      <trkpt lat="37.472770000" lon="-4.444135000">
        <ele>452.5</ele>
        <time>2020-10-15T14:20:18Z</time>
      </trkpt>
      <trkpt lat="37.472713000" lon="-4.444258000">
        <ele>451.9</ele>
        <time>2020-10-15T14:20:21Z</time>
      </trkpt>
      <trkpt lat="37.472653000" lon="-4.444366000">
        <ele>451.5</ele>
        <time>2020-10-15T14:20:24Z</time>
      </trkpt>
      <trkpt lat="37.472599000" lon="-4.444469000">
        <ele>451.1</ele>
        <time>2020-10-15T14:20:27Z</time>
      </trkpt>
      <trkpt lat="37.472533000" lon="-4.444569000">
        <ele>450.8</ele>
        <time>2020-10-15T14:20:30Z</time>
      </trkpt>
      <trkpt lat="37.472470000" lon="-4.444677000">
        <ele>450.5</ele>
        <time>2020-10-15T14:20:33Z</time>
      </trkpt>
      <trkpt lat="37.472422000" lon="-4.444770000">
        <ele>450.3</ele>
        <time>2020-10-15T14:20:36Z</time>
      </trkpt>
      <trkpt lat="37.472368000" lon="-4.444874000">
        <ele>450.0</ele>
        <time>2020-10-15T14:20:40Z</time>
      </trkpt>
      <trkpt lat="37.472311000" lon="-4.444968000">
        <ele>449.7</ele>
        <time>2020-10-15T14:20:45Z</time>
      </trkpt>
      <trkpt lat="37.472250000" lon="-4.445056000">
        <ele>449.4</ele>
        <time>2020-10-15T14:20:50Z</time>
      </trkpt>
      <trkpt lat="37.472197000" lon="-4.445152000">
        <ele>448.9</ele>
        <time>2020-10-15T14:20:53Z</time>
      </trkpt>
      <trkpt lat="37.472128000" lon="-4.445252000">
        <ele>448.5</ele>
        <time>2020-10-15T14:20:56Z</time>
      </trkpt>
      <trkpt lat="37.472075000" lon="-4.445343000">
        <ele>447.9</ele>
        <time>2020-10-15T14:20:59Z</time>
      </trkpt>
      <trkpt lat="37.472020000" lon="-4.445435000">
        <ele>447.3</ele>
        <time>2020-10-15T14:21:02Z</time>
      </trkpt>
      <trkpt lat="37.471966000" lon="-4.445528000">
        <ele>446.6</ele>
        <time>2020-10-15T14:21:06Z</time>
      </trkpt>
      <trkpt lat="37.471901000" lon="-4.445626000">
        <ele>446.0</ele>
        <time>2020-10-15T14:21:10Z</time>
      </trkpt>
      <trkpt lat="37.471841000" lon="-4.445717000">
        <ele>445.5</ele>
        <time>2020-10-15T14:21:16Z</time>
      </trkpt>
      <trkpt lat="37.471790000" lon="-4.445807000">
        <ele>445.2</ele>
        <time>2020-10-15T14:21:20Z</time>
      </trkpt>
      <trkpt lat="37.471716000" lon="-4.445882000">
        <ele>444.9</ele>
        <time>2020-10-15T14:21:24Z</time>
      </trkpt>
      <trkpt lat="37.471632000" lon="-4.445897000">
        <ele>444.6</ele>
        <time>2020-10-15T14:21:31Z</time>
      </trkpt>
      <trkpt lat="37.471586000" lon="-4.445807000">
        <ele>444.5</ele>
        <time>2020-10-15T14:21:37Z</time>
      </trkpt>
      <trkpt lat="37.471623000" lon="-4.445710000">
        <ele>444.4</ele>
        <time>2020-10-15T14:21:45Z</time>
      </trkpt>
      <trkpt lat="37.471703000" lon="-4.445678000">
        <ele>444.4</ele>
        <time>2020-10-15T14:22:15Z</time>
      </trkpt>
      <trkpt lat="37.471781000" lon="-4.445713000">
        <ele>444.4</ele>
        <time>2020-10-15T14:23:00Z</time>
      </trkpt>
      <trkpt lat="37.471807000" lon="-4.445755000">
        <ele>444.5</ele>
        <time>2020-10-15T14:24:06Z</time>
      </trkpt>
      <trkpt lat="37.471749000" lon="-4.445712000">
        <ele>446.7</ele>
        <time>2020-10-15T15:07:48Z</time>
      </trkpt>
      <trkpt lat="37.471842000" lon="-4.445623000">
        <ele>447.1</ele>
        <time>2020-10-15T15:08:37Z</time>
      </trkpt>
      <trkpt lat="37.471929000" lon="-4.445537000">
        <ele>447.6</ele>
        <time>2020-10-15T15:08:43Z</time>
      </trkpt>
      <trkpt lat="37.471994000" lon="-4.445452000">
        <ele>448.0</ele>
        <time>2020-10-15T15:08:46Z</time>
      </trkpt>
      <trkpt lat="37.472061000" lon="-4.445359000">
        <ele>448.3</ele>
        <time>2020-10-15T15:08:50Z</time>
      </trkpt>
      <trkpt lat="37.472125000" lon="-4.445280000">
        <ele>448.5</ele>
        <time>2020-10-15T15:08:54Z</time>
      </trkpt>
      <trkpt lat="37.472199000" lon="-4.445193000">
        <ele>449.0</ele>
        <time>2020-10-15T15:08:58Z</time>
      </trkpt>
      <trkpt lat="37.472270000" lon="-4.445108000">
        <ele>449.5</ele>
        <time>2020-10-15T15:09:02Z</time>
      </trkpt>
      <trkpt lat="37.472333000" lon="-4.445007000">
        <ele>449.8</ele>
        <time>2020-10-15T15:09:06Z</time>
      </trkpt>
      <trkpt lat="37.472370000" lon="-4.444908000">
        <ele>450.1</ele>
        <time>2020-10-15T15:09:10Z</time>
      </trkpt>
      <trkpt lat="37.472422000" lon="-4.444810000">
        <ele>450.4</ele>
        <time>2020-10-15T15:09:15Z</time>
      </trkpt>
      <trkpt lat="37.472451000" lon="-4.444691000">
        <ele>450.6</ele>
        <time>2020-10-15T15:09:21Z</time>
      </trkpt>
      <trkpt lat="37.472476000" lon="-4.444569000">
        <ele>450.9</ele>
        <time>2020-10-15T15:09:26Z</time>
      </trkpt>
      <trkpt lat="37.472509000" lon="-4.444460000">
        <ele>451.2</ele>
        <time>2020-10-15T15:09:31Z</time>
      </trkpt>
      <trkpt lat="37.472562000" lon="-4.444342000">
        <ele>451.5</ele>
        <time>2020-10-15T15:09:35Z</time>
      </trkpt>
      <trkpt lat="37.472623000" lon="-4.444222000">
        <ele>452.0</ele>
        <time>2020-10-15T15:09:39Z</time>
      </trkpt>
      <trkpt lat="37.472687000" lon="-4.444117000">
        <ele>452.5</ele>
        <time>2020-10-15T15:09:43Z</time>
      </trkpt>
      <trkpt lat="37.472736000" lon="-4.444005000">
        <ele>453.0</ele>
        <time>2020-10-15T15:09:47Z</time>
      </trkpt>
      <trkpt lat="37.472769000" lon="-4.443903000">
        <ele>453.6</ele>
        <time>2020-10-15T15:09:51Z</time>
      </trkpt>
      <trkpt lat="37.472825000" lon="-4.443788000">
        <ele>454.3</ele>
        <time>2020-10-15T15:09:56Z</time>
      </trkpt>
      <trkpt lat="37.472866000" lon="-4.443683000">
        <ele>454.9</ele>
        <time>2020-10-15T15:10:00Z</time>
      </trkpt>
      <trkpt lat="37.472904000" lon="-4.443582000">
        <ele>455.5</ele>
        <time>2020-10-15T15:10:04Z</time>
      </trkpt>
      <trkpt lat="37.472954000" lon="-4.443479000">
        <ele>455.9</ele>
        <time>2020-10-15T15:10:09Z</time>
      </trkpt>
      <trkpt lat="37.473010000" lon="-4.443405000">
        <ele>456.3</ele>
        <time>2020-10-15T15:10:12Z</time>
      </trkpt>
      <trkpt lat="37.473074000" lon="-4.443306000">
        <ele>456.5</ele>
        <time>2020-10-15T15:10:16Z</time>
      </trkpt>
      <trkpt lat="37.473106000" lon="-4.443187000">
        <ele>456.7</ele>
        <time>2020-10-15T15:10:22Z</time>
      </trkpt>
      <trkpt lat="37.473166000" lon="-4.443099000">
        <ele>456.9</ele>
        <time>2020-10-15T15:10:26Z</time>
      </trkpt>
      <trkpt lat="37.473228000" lon="-4.443000000">
        <ele>457.1</ele>
        <time>2020-10-15T15:10:30Z</time>
      </trkpt>
      <trkpt lat="37.473282000" lon="-4.442894000">
        <ele>457.3</ele>
        <time>2020-10-15T15:10:34Z</time>
      </trkpt>
      <trkpt lat="37.473322000" lon="-4.442798000">
        <ele>457.5</ele>
        <time>2020-10-15T15:10:38Z</time>
      </trkpt>
      <trkpt lat="37.473267000" lon="-4.442705000">
        <ele>457.6</ele>
        <time>2020-10-15T15:10:45Z</time>
      </trkpt>
      <trkpt lat="37.473197000" lon="-4.442616000">
        <ele>457.9</ele>
        <time>2020-10-15T15:10:48Z</time>
      </trkpt>
      <trkpt lat="37.473193000" lon="-4.442497000">
        <ele>458.2</ele>
        <time>2020-10-15T15:10:53Z</time>
      </trkpt>
      <trkpt lat="37.473228000" lon="-4.442382000">
        <ele>458.5</ele>
        <time>2020-10-15T15:10:57Z</time>
      </trkpt>
      <trkpt lat="37.473265000" lon="-4.442285000">
        <ele>458.7</ele>
        <time>2020-10-15T15:11:01Z</time>
      </trkpt>
      <trkpt lat="37.473316000" lon="-4.442200000">
        <ele>459.1</ele>
        <time>2020-10-15T15:11:05Z</time>
      </trkpt>
      <trkpt lat="37.473351000" lon="-4.442078000">
        <ele>459.5</ele>
        <time>2020-10-15T15:11:10Z</time>
      </trkpt>
      <trkpt lat="37.473392000" lon="-4.441978000">
        <ele>459.7</ele>
        <time>2020-10-15T15:11:13Z</time>
      </trkpt>
      <trkpt lat="37.473425000" lon="-4.441876000">
        <ele>460.0</ele>
        <time>2020-10-15T15:11:16Z</time>
      </trkpt>
      <trkpt lat="37.473463000" lon="-4.441778000">
        <ele>460.3</ele>
        <time>2020-10-15T15:11:19Z</time>
      </trkpt>
      <trkpt lat="37.473497000" lon="-4.441683000">
        <ele>460.5</ele>
        <time>2020-10-15T15:11:22Z</time>
      </trkpt>
      <trkpt lat="37.473543000" lon="-4.441567000">
        <ele>460.6</ele>
        <time>2020-10-15T15:11:26Z</time>
      </trkpt>
      <trkpt lat="37.473590000" lon="-4.441463000">
        <ele>460.7</ele>
        <time>2020-10-15T15:11:30Z</time>
      </trkpt>
      <trkpt lat="37.473643000" lon="-4.441366000">
        <ele>460.8</ele>
        <time>2020-10-15T15:11:34Z</time>
      </trkpt>
      <trkpt lat="37.473679000" lon="-4.441264000">
        <ele>460.9</ele>
        <time>2020-10-15T15:11:39Z</time>
      </trkpt>
      <trkpt lat="37.473728000" lon="-4.441163000">
        <ele>461.1</ele>
        <time>2020-10-15T15:11:46Z</time>
      </trkpt>
      <trkpt lat="37.473766000" lon="-4.441046000">
        <ele>461.2</ele>
        <time>2020-10-15T15:11:51Z</time>
      </trkpt>
      <trkpt lat="37.473803000" lon="-4.440954000">
        <ele>461.2</ele>
        <time>2020-10-15T15:11:54Z</time>
      </trkpt>
      <trkpt lat="37.473833000" lon="-4.440858000">
        <ele>461.2</ele>
        <time>2020-10-15T15:11:57Z</time>
      </trkpt>
      <trkpt lat="37.473878000" lon="-4.440739000">
        <ele>461.2</ele>
        <time>2020-10-15T15:12:01Z</time>
      </trkpt>
      <trkpt lat="37.473914000" lon="-4.440621000">
        <ele>461.2</ele>
        <time>2020-10-15T15:12:05Z</time>
      </trkpt>
      <trkpt lat="37.473953000" lon="-4.440510000">
        <ele>461.2</ele>
        <time>2020-10-15T15:12:09Z</time>
      </trkpt>
      <trkpt lat="37.473998000" lon="-4.440410000">
        <ele>461.2</ele>
        <time>2020-10-15T15:12:13Z</time>
      </trkpt>
      <trkpt lat="37.474032000" lon="-4.440315000">
        <ele>461.2</ele>
        <time>2020-10-15T15:12:17Z</time>
      </trkpt>
      <trkpt lat="37.474093000" lon="-4.440232000">
        <ele>461.2</ele>
        <time>2020-10-15T15:12:22Z</time>
      </trkpt>
      <trkpt lat="37.474185000" lon="-4.440228000">
        <ele>461.2</ele>
        <time>2020-10-15T15:12:27Z</time>
      </trkpt>
      <trkpt lat="37.474263000" lon="-4.440255000">
        <ele>461.2</ele>
        <time>2020-10-15T15:12:31Z</time>
      </trkpt>
      <trkpt lat="37.474348000" lon="-4.440300000">
        <ele>461.2</ele>
        <time>2020-10-15T15:12:35Z</time>
      </trkpt>
      <trkpt lat="37.474425000" lon="-4.440335000">
        <ele>461.3</ele>
        <time>2020-10-15T15:12:38Z</time>
      </trkpt>
      <trkpt lat="37.474516000" lon="-4.440348000">
        <ele>461.4</ele>
        <time>2020-10-15T15:12:42Z</time>
      </trkpt>
      <trkpt lat="37.474578000" lon="-4.440242000">
        <ele>461.5</ele>
        <time>2020-10-15T15:12:46Z</time>
      </trkpt>
      <trkpt lat="37.474624000" lon="-4.440132000">
        <ele>461.5</ele>
        <time>2020-10-15T15:12:49Z</time>
      </trkpt>
      <trkpt lat="37.474665000" lon="-4.440022000">
        <ele>461.6</ele>
        <time>2020-10-15T15:12:52Z</time>
      </trkpt>
      <trkpt lat="37.474703000" lon="-4.439918000">
        <ele>461.7</ele>
        <time>2020-10-15T15:12:55Z</time>
      </trkpt>
      <trkpt lat="37.474739000" lon="-4.439812000">
        <ele>461.8</ele>
        <time>2020-10-15T15:12:58Z</time>
      </trkpt>
      <trkpt lat="37.474773000" lon="-4.439708000">
        <ele>461.9</ele>
        <time>2020-10-15T15:13:01Z</time>
      </trkpt>
      <trkpt lat="37.474807000" lon="-4.439602000">
        <ele>462.0</ele>
        <time>2020-10-15T15:13:04Z</time>
      </trkpt>
      <trkpt lat="37.474832000" lon="-4.439502000">
        <ele>462.0</ele>
        <time>2020-10-15T15:13:07Z</time>
      </trkpt>
      <trkpt lat="37.474854000" lon="-4.439392000">
        <ele>462.0</ele>
        <time>2020-10-15T15:13:10Z</time>
      </trkpt>
      <trkpt lat="37.474883000" lon="-4.439283000">
        <ele>462.1</ele>
        <time>2020-10-15T15:13:13Z</time>
      </trkpt>
      <trkpt lat="37.474915000" lon="-4.439188000">
        <ele>462.2</ele>
        <time>2020-10-15T15:13:16Z</time>
      </trkpt>
      <trkpt lat="37.474964000" lon="-4.439090000">
        <ele>462.4</ele>
        <time>2020-10-15T15:13:19Z</time>
      </trkpt>
      <trkpt lat="37.475003000" lon="-4.438982000">
        <ele>462.5</ele>
        <time>2020-10-15T15:13:22Z</time>
      </trkpt>
      <trkpt lat="37.475036000" lon="-4.438872000">
        <ele>462.8</ele>
        <time>2020-10-15T15:13:25Z</time>
      </trkpt>
      <trkpt lat="37.475070000" lon="-4.438759000">
        <ele>463.1</ele>
        <time>2020-10-15T15:13:28Z</time>
      </trkpt>
      <trkpt lat="37.475095000" lon="-4.438650000">
        <ele>463.4</ele>
        <time>2020-10-15T15:13:31Z</time>
      </trkpt>
      <trkpt lat="37.475131000" lon="-4.438539000">
        <ele>463.6</ele>
        <time>2020-10-15T15:13:34Z</time>
      </trkpt>
      <trkpt lat="37.475160000" lon="-4.438432000">
        <ele>463.9</ele>
        <time>2020-10-15T15:13:37Z</time>
      </trkpt>
      <trkpt lat="37.475195000" lon="-4.438324000">
        <ele>464.3</ele>
        <time>2020-10-15T15:13:40Z</time>
      </trkpt>
      <trkpt lat="37.475237000" lon="-4.438216000">
        <ele>464.6</ele>
        <time>2020-10-15T15:13:43Z</time>
      </trkpt>
      <trkpt lat="37.475272000" lon="-4.438110000">
        <ele>464.9</ele>
        <time>2020-10-15T15:13:46Z</time>
      </trkpt>
      <trkpt lat="37.475305000" lon="-4.437993000">
        <ele>465.3</ele>
        <time>2020-10-15T15:13:49Z</time>
      </trkpt>
      <trkpt lat="37.475328000" lon="-4.437877000">
        <ele>465.5</ele>
        <time>2020-10-15T15:13:52Z</time>
      </trkpt>
      <trkpt lat="37.475359000" lon="-4.437757000">
        <ele>465.8</ele>
        <time>2020-10-15T15:13:55Z</time>
      </trkpt>
      <trkpt lat="37.475390000" lon="-4.437642000">
        <ele>466.1</ele>
        <time>2020-10-15T15:13:58Z</time>
      </trkpt>
      <trkpt lat="37.475415000" lon="-4.437528000">
        <ele>466.4</ele>
        <time>2020-10-15T15:14:01Z</time>
      </trkpt>
      <trkpt lat="37.475444000" lon="-4.437413000">
        <ele>466.6</ele>
        <time>2020-10-15T15:14:04Z</time>
      </trkpt>
      <trkpt lat="37.475471000" lon="-4.437294000">
        <ele>467.0</ele>
        <time>2020-10-15T15:14:07Z</time>
      </trkpt>
      <trkpt lat="37.475507000" lon="-4.437172000">
        <ele>467.4</ele>
        <time>2020-10-15T15:14:10Z</time>
      </trkpt>
      <trkpt lat="37.475547000" lon="-4.437051000">
        <ele>467.6</ele>
        <time>2020-10-15T15:14:13Z</time>
      </trkpt>
      <trkpt lat="37.475582000" lon="-4.436936000">
        <ele>467.9</ele>
        <time>2020-10-15T15:14:16Z</time>
      </trkpt>
      <trkpt lat="37.475616000" lon="-4.436821000">
        <ele>468.3</ele>
        <time>2020-10-15T15:14:19Z</time>
      </trkpt>
      <trkpt lat="37.475650000" lon="-4.436702000">
        <ele>468.5</ele>
        <time>2020-10-15T15:14:22Z</time>
      </trkpt>
      <trkpt lat="37.475689000" lon="-4.436585000">
        <ele>468.8</ele>
        <time>2020-10-15T15:14:25Z</time>
      </trkpt>
      <trkpt lat="37.475729000" lon="-4.436464000">
        <ele>469.1</ele>
        <time>2020-10-15T15:14:28Z</time>
      </trkpt>
      <trkpt lat="37.475768000" lon="-4.436345000">
        <ele>469.3</ele>
        <time>2020-10-15T15:14:31Z</time>
      </trkpt>
      <trkpt lat="37.475804000" lon="-4.436226000">
        <ele>469.5</ele>
        <time>2020-10-15T15:14:34Z</time>
      </trkpt>
      <trkpt lat="37.475837000" lon="-4.436100000">
        <ele>469.6</ele>
        <time>2020-10-15T15:14:37Z</time>
      </trkpt>
      <trkpt lat="37.475865000" lon="-4.435978000">
        <ele>469.8</ele>
        <time>2020-10-15T15:14:40Z</time>
      </trkpt>
      <trkpt lat="37.475887000" lon="-4.435858000">
        <ele>470.0</ele>
        <time>2020-10-15T15:14:43Z</time>
      </trkpt>
      <trkpt lat="37.475916000" lon="-4.435744000">
        <ele>470.2</ele>
        <time>2020-10-15T15:14:46Z</time>
      </trkpt>
      <trkpt lat="37.475951000" lon="-4.435626000">
        <ele>470.5</ele>
        <time>2020-10-15T15:14:49Z</time>
      </trkpt>
      <trkpt lat="37.475990000" lon="-4.435507000">
        <ele>470.6</ele>
        <time>2020-10-15T15:14:52Z</time>
      </trkpt>
      <trkpt lat="37.476025000" lon="-4.435387000">
        <ele>470.9</ele>
        <time>2020-10-15T15:14:55Z</time>
      </trkpt>
      <trkpt lat="37.476060000" lon="-4.435275000">
        <ele>471.3</ele>
        <time>2020-10-15T15:14:58Z</time>
      </trkpt>
      <trkpt lat="37.476097000" lon="-4.435156000">
        <ele>471.6</ele>
        <time>2020-10-15T15:15:01Z</time>
      </trkpt>
      <trkpt lat="37.476128000" lon="-4.435041000">
        <ele>472.1</ele>
        <time>2020-10-15T15:15:04Z</time>
      </trkpt>
      <trkpt lat="37.476159000" lon="-4.434929000">
        <ele>472.5</ele>
        <time>2020-10-15T15:15:07Z</time>
      </trkpt>
      <trkpt lat="37.476181000" lon="-4.434811000">
        <ele>473.1</ele>
        <time>2020-10-15T15:15:10Z</time>
      </trkpt>
      <trkpt lat="37.476199000" lon="-4.434696000">
        <ele>473.5</ele>
        <time>2020-10-15T15:15:13Z</time>
      </trkpt>
      <trkpt lat="37.476219000" lon="-4.434580000">
        <ele>474.1</ele>
        <time>2020-10-15T15:15:16Z</time>
      </trkpt>
      <trkpt lat="37.476242000" lon="-4.434468000">
        <ele>474.6</ele>
        <time>2020-10-15T15:15:19Z</time>
      </trkpt>
      <trkpt lat="37.476269000" lon="-4.434356000">
        <ele>475.1</ele>
        <time>2020-10-15T15:15:22Z</time>
      </trkpt>
      <trkpt lat="37.476292000" lon="-4.434249000">
        <ele>475.5</ele>
        <time>2020-10-15T15:15:25Z</time>
      </trkpt>
      <trkpt lat="37.476309000" lon="-4.434133000">
        <ele>475.9</ele>
        <time>2020-10-15T15:15:28Z</time>
      </trkpt>
      <trkpt lat="37.476325000" lon="-4.434028000">
        <ele>476.2</ele>
        <time>2020-10-15T15:15:31Z</time>
      </trkpt>
      <trkpt lat="37.476346000" lon="-4.433920000">
        <ele>476.5</ele>
        <time>2020-10-15T15:15:34Z</time>
      </trkpt>
      <trkpt lat="37.476376000" lon="-4.433804000">
        <ele>476.6</ele>
        <time>2020-10-15T15:15:37Z</time>
      </trkpt>
      <trkpt lat="37.476403000" lon="-4.433691000">
        <ele>476.9</ele>
        <time>2020-10-15T15:15:40Z</time>
      </trkpt>
      <trkpt lat="37.476428000" lon="-4.433576000">
        <ele>477.1</ele>
        <time>2020-10-15T15:15:43Z</time>
      </trkpt>
      <trkpt lat="37.476445000" lon="-4.433465000">
        <ele>477.3</ele>
        <time>2020-10-15T15:15:46Z</time>
      </trkpt>
      <trkpt lat="37.476464000" lon="-4.433362000">
        <ele>477.5</ele>
        <time>2020-10-15T15:15:49Z</time>
      </trkpt>
      <trkpt lat="37.476488000" lon="-4.433258000">
        <ele>477.6</ele>
        <time>2020-10-15T15:15:52Z</time>
      </trkpt>
      <trkpt lat="37.476508000" lon="-4.433148000">
        <ele>477.8</ele>
        <time>2020-10-15T15:15:55Z</time>
      </trkpt>
      <trkpt lat="37.476529000" lon="-4.433033000">
        <ele>478.0</ele>
        <time>2020-10-15T15:15:58Z</time>
      </trkpt>
      <trkpt lat="37.476545000" lon="-4.432923000">
        <ele>478.2</ele>
        <time>2020-10-15T15:16:01Z</time>
      </trkpt>
      <trkpt lat="37.476559000" lon="-4.432814000">
        <ele>478.4</ele>
        <time>2020-10-15T15:16:04Z</time>
      </trkpt>
      <trkpt lat="37.476581000" lon="-4.432702000">
        <ele>478.5</ele>
        <time>2020-10-15T15:16:07Z</time>
      </trkpt>
      <trkpt lat="37.476602000" lon="-4.432589000">
        <ele>478.7</ele>
        <time>2020-10-15T15:16:10Z</time>
      </trkpt>
      <trkpt lat="37.476633000" lon="-4.432472000">
        <ele>478.8</ele>
        <time>2020-10-15T15:16:13Z</time>
      </trkpt>
      <trkpt lat="37.476666000" lon="-4.432356000">
        <ele>479.0</ele>
        <time>2020-10-15T15:16:16Z</time>
      </trkpt>
      <trkpt lat="37.476692000" lon="-4.432241000">
        <ele>479.2</ele>
        <time>2020-10-15T15:16:19Z</time>
      </trkpt>
      <trkpt lat="37.476714000" lon="-4.432122000">
        <ele>479.4</ele>
        <time>2020-10-15T15:16:22Z</time>
      </trkpt>
      <trkpt lat="37.476743000" lon="-4.432006000">
        <ele>479.5</ele>
        <time>2020-10-15T15:16:25Z</time>
      </trkpt>
      <trkpt lat="37.476769000" lon="-4.431890000">
        <ele>479.7</ele>
        <time>2020-10-15T15:16:28Z</time>
      </trkpt>
      <trkpt lat="37.476793000" lon="-4.431777000">
        <ele>480.0</ele>
        <time>2020-10-15T15:16:31Z</time>
      </trkpt>
      <trkpt lat="37.476811000" lon="-4.431667000">
        <ele>480.3</ele>
        <time>2020-10-15T15:16:34Z</time>
      </trkpt>
      <trkpt lat="37.476825000" lon="-4.431552000">
        <ele>480.6</ele>
        <time>2020-10-15T15:16:37Z</time>
      </trkpt>
      <trkpt lat="37.476850000" lon="-4.431444000">
        <ele>481.1</ele>
        <time>2020-10-15T15:16:40Z</time>
      </trkpt>
      <trkpt lat="37.476872000" lon="-4.431326000">
        <ele>481.5</ele>
        <time>2020-10-15T15:16:43Z</time>
      </trkpt>
      <trkpt lat="37.476896000" lon="-4.431216000">
        <ele>482.1</ele>
        <time>2020-10-15T15:16:46Z</time>
      </trkpt>
      <trkpt lat="37.476921000" lon="-4.431106000">
        <ele>482.6</ele>
        <time>2020-10-15T15:16:49Z</time>
      </trkpt>
      <trkpt lat="37.476941000" lon="-4.430998000">
        <ele>483.2</ele>
        <time>2020-10-15T15:16:52Z</time>
      </trkpt>
      <trkpt lat="37.476966000" lon="-4.430896000">
        <ele>483.7</ele>
        <time>2020-10-15T15:16:55Z</time>
      </trkpt>
      <trkpt lat="37.476990000" lon="-4.430770000">
        <ele>484.3</ele>
        <time>2020-10-15T15:16:59Z</time>
      </trkpt>
      <trkpt lat="37.477008000" lon="-4.430653000">
        <ele>484.9</ele>
        <time>2020-10-15T15:17:03Z</time>
      </trkpt>
      <trkpt lat="37.477037000" lon="-4.430555000">
        <ele>485.5</ele>
        <time>2020-10-15T15:17:06Z</time>
      </trkpt>
      <trkpt lat="37.477069000" lon="-4.430459000">
        <ele>486.1</ele>
        <time>2020-10-15T15:17:09Z</time>
      </trkpt>
      <trkpt lat="37.477103000" lon="-4.430336000">
        <ele>486.6</ele>
        <time>2020-10-15T15:17:13Z</time>
      </trkpt>
      <trkpt lat="37.477140000" lon="-4.430210000">
        <ele>487.2</ele>
        <time>2020-10-15T15:17:17Z</time>
      </trkpt>
      <trkpt lat="37.477168000" lon="-4.430114000">
        <ele>487.7</ele>
        <time>2020-10-15T15:17:20Z</time>
      </trkpt>
      <trkpt lat="37.477206000" lon="-4.429993000">
        <ele>488.3</ele>
        <time>2020-10-15T15:17:24Z</time>
      </trkpt>
      <trkpt lat="37.477235000" lon="-4.429896000">
        <ele>488.7</ele>
        <time>2020-10-15T15:17:27Z</time>
      </trkpt>
      <trkpt lat="37.477277000" lon="-4.429775000">
        <ele>489.2</ele>
        <time>2020-10-15T15:17:31Z</time>
      </trkpt>
      <trkpt lat="37.477307000" lon="-4.429680000">
        <ele>489.5</ele>
        <time>2020-10-15T15:17:34Z</time>
      </trkpt>
      <trkpt lat="37.477352000" lon="-4.429562000">
        <ele>489.9</ele>
        <time>2020-10-15T15:17:38Z</time>
      </trkpt>
      <trkpt lat="37.477392000" lon="-4.429469000">
        <ele>490.2</ele>
        <time>2020-10-15T15:17:41Z</time>
      </trkpt>
      <trkpt lat="37.477423000" lon="-4.429369000">
        <ele>490.5</ele>
        <time>2020-10-15T15:17:44Z</time>
      </trkpt>
      <trkpt lat="37.477461000" lon="-4.429248000">
        <ele>490.9</ele>
        <time>2020-10-15T15:17:48Z</time>
      </trkpt>
      <trkpt lat="37.477522000" lon="-4.429179000">
        <ele>491.3</ele>
        <time>2020-10-15T15:17:52Z</time>
      </trkpt>
      <trkpt lat="37.477587000" lon="-4.429090000">
        <ele>491.6</ele>
        <time>2020-10-15T15:17:57Z</time>
      </trkpt>
      <trkpt lat="37.477621000" lon="-4.428977000">
        <ele>492.1</ele>
        <time>2020-10-15T15:18:01Z</time>
      </trkpt>
      <trkpt lat="37.477643000" lon="-4.428865000">
        <ele>492.5</ele>
        <time>2020-10-15T15:18:04Z</time>
      </trkpt>
      <trkpt lat="37.477651000" lon="-4.428739000">
        <ele>493.1</ele>
        <time>2020-10-15T15:18:08Z</time>
      </trkpt>
      <trkpt lat="37.477646000" lon="-4.428634000">
        <ele>493.6</ele>
        <time>2020-10-15T15:18:12Z</time>
      </trkpt>
      <trkpt lat="37.477645000" lon="-4.428514000">
        <ele>494.3</ele>
        <time>2020-10-15T15:18:16Z</time>
      </trkpt>
      <trkpt lat="37.477641000" lon="-4.428399000">
        <ele>495.0</ele>
        <time>2020-10-15T15:18:20Z</time>
      </trkpt>
      <trkpt lat="37.477652000" lon="-4.428287000">
        <ele>495.8</ele>
        <time>2020-10-15T15:18:24Z</time>
      </trkpt>
      <trkpt lat="37.477655000" lon="-4.428185000">
        <ele>496.5</ele>
        <time>2020-10-15T15:18:27Z</time>
      </trkpt>
      <trkpt lat="37.477660000" lon="-4.428082000">
        <ele>497.2</ele>
        <time>2020-10-15T15:18:30Z</time>
      </trkpt>
      <trkpt lat="37.477670000" lon="-4.427949000">
        <ele>497.9</ele>
        <time>2020-10-15T15:18:34Z</time>
      </trkpt>
      <trkpt lat="37.477685000" lon="-4.427828000">
        <ele>498.6</ele>
        <time>2020-10-15T15:18:38Z</time>
      </trkpt>
      <trkpt lat="37.477702000" lon="-4.427704000">
        <ele>499.3</ele>
        <time>2020-10-15T15:18:42Z</time>
      </trkpt>
      <trkpt lat="37.477717000" lon="-4.427574000">
        <ele>499.9</ele>
        <time>2020-10-15T15:18:46Z</time>
      </trkpt>
      <trkpt lat="37.477728000" lon="-4.427447000">
        <ele>500.5</ele>
        <time>2020-10-15T15:18:50Z</time>
      </trkpt>
      <trkpt lat="37.477741000" lon="-4.427330000">
        <ele>501.1</ele>
        <time>2020-10-15T15:18:54Z</time>
      </trkpt>
      <trkpt lat="37.477752000" lon="-4.427212000">
        <ele>501.7</ele>
        <time>2020-10-15T15:18:58Z</time>
      </trkpt>
      <trkpt lat="37.477766000" lon="-4.427092000">
        <ele>502.3</ele>
        <time>2020-10-15T15:19:02Z</time>
      </trkpt>
      <trkpt lat="37.477769000" lon="-4.426959000">
        <ele>502.8</ele>
        <time>2020-10-15T15:19:06Z</time>
      </trkpt>
      <trkpt lat="37.477782000" lon="-4.426833000">
        <ele>503.4</ele>
        <time>2020-10-15T15:19:10Z</time>
      </trkpt>
      <trkpt lat="37.477776000" lon="-4.426706000">
        <ele>503.9</ele>
        <time>2020-10-15T15:19:14Z</time>
      </trkpt>
      <trkpt lat="37.477752000" lon="-4.426605000">
        <ele>504.4</ele>
        <time>2020-10-15T15:19:17Z</time>
      </trkpt>
      <trkpt lat="37.477722000" lon="-4.426508000">
        <ele>504.8</ele>
        <time>2020-10-15T15:19:21Z</time>
      </trkpt>
      <trkpt lat="37.477694000" lon="-4.426411000">
        <ele>505.3</ele>
        <time>2020-10-15T15:19:23Z</time>
      </trkpt>
      <trkpt lat="37.477658000" lon="-4.426284000">
        <ele>505.6</ele>
        <time>2020-10-15T15:19:27Z</time>
      </trkpt>
      <trkpt lat="37.477627000" lon="-4.426185000">
        <ele>506.0</ele>
        <time>2020-10-15T15:19:30Z</time>
      </trkpt>
      <trkpt lat="37.477598000" lon="-4.426090000">
        <ele>506.3</ele>
        <time>2020-10-15T15:19:33Z</time>
      </trkpt>
      <trkpt lat="37.477557000" lon="-4.425969000">
        <ele>506.5</ele>
        <time>2020-10-15T15:19:37Z</time>
      </trkpt>
      <trkpt lat="37.477523000" lon="-4.425870000">
        <ele>506.8</ele>
        <time>2020-10-15T15:19:40Z</time>
      </trkpt>
      <trkpt lat="37.477490000" lon="-4.425765000">
        <ele>507.1</ele>
        <time>2020-10-15T15:19:43Z</time>
      </trkpt>
      <trkpt lat="37.477450000" lon="-4.425670000">
        <ele>507.4</ele>
        <time>2020-10-15T15:19:46Z</time>
      </trkpt>
      <trkpt lat="37.477411000" lon="-4.425544000">
        <ele>507.7</ele>
        <time>2020-10-15T15:19:50Z</time>
      </trkpt>
      <trkpt lat="37.477386000" lon="-4.425446000">
        <ele>508.2</ele>
        <time>2020-10-15T15:19:53Z</time>
      </trkpt>
      <trkpt lat="37.477388000" lon="-4.425320000">
        <ele>508.6</ele>
        <time>2020-10-15T15:19:57Z</time>
      </trkpt>
      <trkpt lat="37.477387000" lon="-4.425186000">
        <ele>509.1</ele>
        <time>2020-10-15T15:20:01Z</time>
      </trkpt>
      <trkpt lat="37.477381000" lon="-4.425084000">
        <ele>509.6</ele>
        <time>2020-10-15T15:20:04Z</time>
      </trkpt>
      <trkpt lat="37.477380000" lon="-4.424952000">
        <ele>510.2</ele>
        <time>2020-10-15T15:20:08Z</time>
      </trkpt>
      <trkpt lat="37.477379000" lon="-4.424821000">
        <ele>510.7</ele>
        <time>2020-10-15T15:20:12Z</time>
      </trkpt>
      <trkpt lat="37.477370000" lon="-4.424694000">
        <ele>511.3</ele>
        <time>2020-10-15T15:20:16Z</time>
      </trkpt>
      <trkpt lat="37.477324000" lon="-4.424592000">
        <ele>511.8</ele>
        <time>2020-10-15T15:20:20Z</time>
      </trkpt>
      <trkpt lat="37.477257000" lon="-4.424520000">
        <ele>512.3</ele>
        <time>2020-10-15T15:20:25Z</time>
      </trkpt>
      <trkpt lat="37.477177000" lon="-4.424449000">
        <ele>512.7</ele>
        <time>2020-10-15T15:20:30Z</time>
      </trkpt>
      <trkpt lat="37.477104000" lon="-4.424365000">
        <ele>513.0</ele>
        <time>2020-10-15T15:20:35Z</time>
      </trkpt>
      <trkpt lat="37.477040000" lon="-4.424275000">
        <ele>513.2</ele>
        <time>2020-10-15T15:20:40Z</time>
      </trkpt>
      <trkpt lat="37.476960000" lon="-4.424243000">
        <ele>513.3</ele>
        <time>2020-10-15T15:20:44Z</time>
      </trkpt>
      <trkpt lat="37.476859000" lon="-4.424238000">
        <ele>513.3</ele>
        <time>2020-10-15T15:20:47Z</time>
      </trkpt>
      <trkpt lat="37.476756000" lon="-4.424226000">
        <ele>513.2</ele>
        <time>2020-10-15T15:20:50Z</time>
      </trkpt>
      <trkpt lat="37.476637000" lon="-4.424217000">
        <ele>513.1</ele>
        <time>2020-10-15T15:20:53Z</time>
      </trkpt>
      <trkpt lat="37.476529000" lon="-4.424223000">
        <ele>513.1</ele>
        <time>2020-10-15T15:20:56Z</time>
      </trkpt>
      <trkpt lat="37.476444000" lon="-4.424226000">
        <ele>512.9</ele>
        <time>2020-10-15T15:20:58Z</time>
      </trkpt>
      <trkpt lat="37.476358000" lon="-4.424226000">
        <ele>512.8</ele>
        <time>2020-10-15T15:21:00Z</time>
      </trkpt>
      <trkpt lat="37.476271000" lon="-4.424222000">
        <ele>512.7</ele>
        <time>2020-10-15T15:21:02Z</time>
      </trkpt>
      <trkpt lat="37.476180000" lon="-4.424217000">
        <ele>512.6</ele>
        <time>2020-10-15T15:21:04Z</time>
      </trkpt>
      <trkpt lat="37.476084000" lon="-4.424210000">
        <ele>512.7</ele>
        <time>2020-10-15T15:21:06Z</time>
      </trkpt>
      <trkpt lat="37.476003000" lon="-4.424213000">
        <ele>512.8</ele>
        <time>2020-10-15T15:21:08Z</time>
      </trkpt>
      <trkpt lat="37.475917000" lon="-4.424204000">
        <ele>513.0</ele>
        <time>2020-10-15T15:21:10Z</time>
      </trkpt>
      <trkpt lat="37.475836000" lon="-4.424190000">
        <ele>513.4</ele>
        <time>2020-10-15T15:21:12Z</time>
      </trkpt>
      <trkpt lat="37.475752000" lon="-4.424175000">
        <ele>513.8</ele>
        <time>2020-10-15T15:21:14Z</time>
      </trkpt>
      <trkpt lat="37.475635000" lon="-4.424187000">
        <ele>514.4</ele>
        <time>2020-10-15T15:21:17Z</time>
      </trkpt>
      <trkpt lat="37.475515000" lon="-4.424197000">
        <ele>514.8</ele>
        <time>2020-10-15T15:21:20Z</time>
      </trkpt>
      <trkpt lat="37.475409000" lon="-4.424197000">
        <ele>515.5</ele>
        <time>2020-10-15T15:21:23Z</time>
      </trkpt>
      <trkpt lat="37.475298000" lon="-4.424176000">
        <ele>516.0</ele>
        <time>2020-10-15T15:21:26Z</time>
      </trkpt>
      <trkpt lat="37.475188000" lon="-4.424136000">
        <ele>516.5</ele>
        <time>2020-10-15T15:21:29Z</time>
      </trkpt>
      <trkpt lat="37.475099000" lon="-4.424097000">
        <ele>517.1</ele>
        <time>2020-10-15T15:21:31Z</time>
      </trkpt>
      <trkpt lat="37.474980000" lon="-4.424107000">
        <ele>517.5</ele>
        <time>2020-10-15T15:21:34Z</time>
      </trkpt>
      <trkpt lat="37.474897000" lon="-4.424099000">
        <ele>518.0</ele>
        <time>2020-10-15T15:21:36Z</time>
      </trkpt>
      <trkpt lat="37.474806000" lon="-4.424098000">
        <ele>518.4</ele>
        <time>2020-10-15T15:21:38Z</time>
      </trkpt>
      <trkpt lat="37.474717000" lon="-4.424092000">
        <ele>518.6</ele>
        <time>2020-10-15T15:21:40Z</time>
      </trkpt>
      <trkpt lat="37.474595000" lon="-4.424090000">
        <ele>518.8</ele>
        <time>2020-10-15T15:21:43Z</time>
      </trkpt>
      <trkpt lat="37.474507000" lon="-4.424094000">
        <ele>519.0</ele>
        <time>2020-10-15T15:21:45Z</time>
      </trkpt>
      <trkpt lat="37.474418000" lon="-4.424098000">
        <ele>519.2</ele>
        <time>2020-10-15T15:21:47Z</time>
      </trkpt>
      <trkpt lat="37.474332000" lon="-4.424105000">
        <ele>519.3</ele>
        <time>2020-10-15T15:21:49Z</time>
      </trkpt>
      <trkpt lat="37.474247000" lon="-4.424116000">
        <ele>519.4</ele>
        <time>2020-10-15T15:21:51Z</time>
      </trkpt>
      <trkpt lat="37.474146000" lon="-4.424099000">
        <ele>519.5</ele>
        <time>2020-10-15T15:21:53Z</time>
      </trkpt>
      <trkpt lat="37.474063000" lon="-4.424091000">
        <ele>519.7</ele>
        <time>2020-10-15T15:21:55Z</time>
      </trkpt>
      <trkpt lat="37.473943000" lon="-4.424094000">
        <ele>519.8</ele>
        <time>2020-10-15T15:21:58Z</time>
      </trkpt>
      <trkpt lat="37.473855000" lon="-4.424098000">
        <ele>519.9</ele>
        <time>2020-10-15T15:22:00Z</time>
      </trkpt>
      <trkpt lat="37.473757000" lon="-4.424097000">
        <ele>520.0</ele>
        <time>2020-10-15T15:22:02Z</time>
      </trkpt>
      <trkpt lat="37.473675000" lon="-4.424092000">
        <ele>520.0</ele>
        <time>2020-10-15T15:22:04Z</time>
      </trkpt>
      <trkpt lat="37.473592000" lon="-4.424094000">
        <ele>520.0</ele>
        <time>2020-10-15T15:22:06Z</time>
      </trkpt>
      <trkpt lat="37.473502000" lon="-4.424094000">
        <ele>519.8</ele>
        <time>2020-10-15T15:22:08Z</time>
      </trkpt>
      <trkpt lat="37.473407000" lon="-4.424086000">
        <ele>519.6</ele>
        <time>2020-10-15T15:22:10Z</time>
      </trkpt>
      <trkpt lat="37.473315000" lon="-4.424085000">
        <ele>519.5</ele>
        <time>2020-10-15T15:22:12Z</time>
      </trkpt>
      <trkpt lat="37.473229000" lon="-4.424104000">
        <ele>519.3</ele>
        <time>2020-10-15T15:22:14Z</time>
      </trkpt>
      <trkpt lat="37.473133000" lon="-4.424118000">
        <ele>519.1</ele>
        <time>2020-10-15T15:22:16Z</time>
      </trkpt>
      <trkpt lat="37.473032000" lon="-4.424123000">
        <ele>518.9</ele>
        <time>2020-10-15T15:22:18Z</time>
      </trkpt>
      <trkpt lat="37.472927000" lon="-4.424149000">
        <ele>518.8</ele>
        <time>2020-10-15T15:22:20Z</time>
      </trkpt>
      <trkpt lat="37.472825000" lon="-4.424169000">
        <ele>518.7</ele>
        <time>2020-10-15T15:22:22Z</time>
      </trkpt>
      <trkpt lat="37.472725000" lon="-4.424201000">
        <ele>518.6</ele>
        <time>2020-10-15T15:22:24Z</time>
      </trkpt>
      <trkpt lat="37.472624000" lon="-4.424216000">
        <ele>518.5</ele>
        <time>2020-10-15T15:22:26Z</time>
      </trkpt>
      <trkpt lat="37.472529000" lon="-4.424233000">
        <ele>518.5</ele>
        <time>2020-10-15T15:22:28Z</time>
      </trkpt>
      <trkpt lat="37.472424000" lon="-4.424235000">
        <ele>518.5</ele>
        <time>2020-10-15T15:22:30Z</time>
      </trkpt>
      <trkpt lat="37.472318000" lon="-4.424241000">
        <ele>518.4</ele>
        <time>2020-10-15T15:22:32Z</time>
      </trkpt>
      <trkpt lat="37.472213000" lon="-4.424239000">
        <ele>518.2</ele>
        <time>2020-10-15T15:22:34Z</time>
      </trkpt>
      <trkpt lat="37.472109000" lon="-4.424240000">
        <ele>517.9</ele>
        <time>2020-10-15T15:22:37Z</time>
      </trkpt>
      <trkpt lat="37.472001000" lon="-4.424238000">
        <ele>517.4</ele>
        <time>2020-10-15T15:22:38Z</time>
      </trkpt>
      <trkpt lat="37.471898000" lon="-4.424243000">
        <ele>516.7</ele>
        <time>2020-10-15T15:22:40Z</time>
      </trkpt>
      <trkpt lat="37.471782000" lon="-4.424236000">
        <ele>516.1</ele>
        <time>2020-10-15T15:22:42Z</time>
      </trkpt>
      <trkpt lat="37.471671000" lon="-4.424227000">
        <ele>515.4</ele>
        <time>2020-10-15T15:22:44Z</time>
      </trkpt>
      <trkpt lat="37.471558000" lon="-4.424230000">
        <ele>514.6</ele>
        <time>2020-10-15T15:22:46Z</time>
      </trkpt>
      <trkpt lat="37.471452000" lon="-4.424230000">
        <ele>513.9</ele>
        <time>2020-10-15T15:22:48Z</time>
      </trkpt>
      <trkpt lat="37.471351000" lon="-4.424230000">
        <ele>513.2</ele>
        <time>2020-10-15T15:22:50Z</time>
      </trkpt>
      <trkpt lat="37.471249000" lon="-4.424232000">
        <ele>512.5</ele>
        <time>2020-10-15T15:22:52Z</time>
      </trkpt>
      <trkpt lat="37.471143000" lon="-4.424233000">
        <ele>511.7</ele>
        <time>2020-10-15T15:22:54Z</time>
      </trkpt>
      <trkpt lat="37.471029000" lon="-4.424240000">
        <ele>511.2</ele>
        <time>2020-10-15T15:22:56Z</time>
      </trkpt>
      <trkpt lat="37.470914000" lon="-4.424244000">
        <ele>510.8</ele>
        <time>2020-10-15T15:22:58Z</time>
      </trkpt>
      <trkpt lat="37.470801000" lon="-4.424246000">
        <ele>510.7</ele>
        <time>2020-10-15T15:23:00Z</time>
      </trkpt>
      <trkpt lat="37.470684000" lon="-4.424239000">
        <ele>510.9</ele>
        <time>2020-10-15T15:23:02Z</time>
      </trkpt>
      <trkpt lat="37.470566000" lon="-4.424233000">
        <ele>511.2</ele>
        <time>2020-10-15T15:23:04Z</time>
      </trkpt>
      <trkpt lat="37.470445000" lon="-4.424228000">
        <ele>511.5</ele>
        <time>2020-10-15T15:23:06Z</time>
      </trkpt>
      <trkpt lat="37.470327000" lon="-4.424235000">
        <ele>511.9</ele>
        <time>2020-10-15T15:23:08Z</time>
      </trkpt>
      <trkpt lat="37.470196000" lon="-4.424226000">
        <ele>512.3</ele>
        <time>2020-10-15T15:23:10Z</time>
      </trkpt>
      <trkpt lat="37.470071000" lon="-4.424218000">
        <ele>512.5</ele>
        <time>2020-10-15T15:23:12Z</time>
      </trkpt>
      <trkpt lat="37.469944000" lon="-4.424199000">
        <ele>512.8</ele>
        <time>2020-10-15T15:23:14Z</time>
      </trkpt>
      <trkpt lat="37.469817000" lon="-4.424183000">
        <ele>513.1</ele>
        <time>2020-10-15T15:23:16Z</time>
      </trkpt>
      <trkpt lat="37.469691000" lon="-4.424158000">
        <ele>513.3</ele>
        <time>2020-10-15T15:23:18Z</time>
      </trkpt>
      <trkpt lat="37.469567000" lon="-4.424133000">
        <ele>513.3</ele>
        <time>2020-10-15T15:23:20Z</time>
      </trkpt>
      <trkpt lat="37.469441000" lon="-4.424094000">
        <ele>513.1</ele>
        <time>2020-10-15T15:23:22Z</time>
      </trkpt>
      <trkpt lat="37.469311000" lon="-4.424056000">
        <ele>512.8</ele>
        <time>2020-10-15T15:23:24Z</time>
      </trkpt>
      <trkpt lat="37.469193000" lon="-4.424015000">
        <ele>512.5</ele>
        <time>2020-10-15T15:23:26Z</time>
      </trkpt>
      <trkpt lat="37.469077000" lon="-4.423970000">
        <ele>512.2</ele>
        <time>2020-10-15T15:23:28Z</time>
      </trkpt>
      <trkpt lat="37.468955000" lon="-4.423912000">
        <ele>511.9</ele>
        <time>2020-10-15T15:23:30Z</time>
      </trkpt>
      <trkpt lat="37.468837000" lon="-4.423847000">
        <ele>511.6</ele>
        <time>2020-10-15T15:23:32Z</time>
      </trkpt>
      <trkpt lat="37.468719000" lon="-4.423781000">
        <ele>511.5</ele>
        <time>2020-10-15T15:23:34Z</time>
      </trkpt>
      <trkpt lat="37.468606000" lon="-4.423713000">
        <ele>511.2</ele>
        <time>2020-10-15T15:23:36Z</time>
      </trkpt>
      <trkpt lat="37.468495000" lon="-4.423648000">
        <ele>511.0</ele>
        <time>2020-10-15T15:23:38Z</time>
      </trkpt>
      <trkpt lat="37.468388000" lon="-4.423587000">
        <ele>510.7</ele>
        <time>2020-10-15T15:23:40Z</time>
      </trkpt>
      <trkpt lat="37.468277000" lon="-4.423526000">
        <ele>510.5</ele>
        <time>2020-10-15T15:23:42Z</time>
      </trkpt>
      <trkpt lat="37.468167000" lon="-4.423465000">
        <ele>510.2</ele>
        <time>2020-10-15T15:23:44Z</time>
      </trkpt>
      <trkpt lat="37.468061000" lon="-4.423401000">
        <ele>509.7</ele>
        <time>2020-10-15T15:23:46Z</time>
      </trkpt>
      <trkpt lat="37.467953000" lon="-4.423337000">
        <ele>509.1</ele>
        <time>2020-10-15T15:23:48Z</time>
      </trkpt>
      <trkpt lat="37.467843000" lon="-4.423275000">
        <ele>508.2</ele>
        <time>2020-10-15T15:23:50Z</time>
      </trkpt>
      <trkpt lat="37.467732000" lon="-4.423208000">
        <ele>507.1</ele>
        <time>2020-10-15T15:23:52Z</time>
      </trkpt>
      <trkpt lat="37.467620000" lon="-4.423138000">
        <ele>506.0</ele>
        <time>2020-10-15T15:23:54Z</time>
      </trkpt>
      <trkpt lat="37.467512000" lon="-4.423076000">
        <ele>504.8</ele>
        <time>2020-10-15T15:23:56Z</time>
      </trkpt>
      <trkpt lat="37.467398000" lon="-4.423012000">
        <ele>503.7</ele>
        <time>2020-10-15T15:23:58Z</time>
      </trkpt>
      <trkpt lat="37.467283000" lon="-4.422954000">
        <ele>502.7</ele>
        <time>2020-10-15T15:24:00Z</time>
      </trkpt>
      <trkpt lat="37.467180000" lon="-4.422891000">
        <ele>501.8</ele>
        <time>2020-10-15T15:24:02Z</time>
      </trkpt>
      <trkpt lat="37.467074000" lon="-4.422825000">
        <ele>501.1</ele>
        <time>2020-10-15T15:24:04Z</time>
      </trkpt>
      <trkpt lat="37.466970000" lon="-4.422765000">
        <ele>500.5</ele>
        <time>2020-10-15T15:24:06Z</time>
      </trkpt>
      <trkpt lat="37.466867000" lon="-4.422703000">
        <ele>499.9</ele>
        <time>2020-10-15T15:24:08Z</time>
      </trkpt>
      <trkpt lat="37.466763000" lon="-4.422647000">
        <ele>499.5</ele>
        <time>2020-10-15T15:24:10Z</time>
      </trkpt>
      <trkpt lat="37.466661000" lon="-4.422597000">
        <ele>499.4</ele>
        <time>2020-10-15T15:24:12Z</time>
      </trkpt>
      <trkpt lat="37.466563000" lon="-4.422545000">
        <ele>499.4</ele>
        <time>2020-10-15T15:24:14Z</time>
      </trkpt>
      <trkpt lat="37.466468000" lon="-4.422505000">
        <ele>499.5</ele>
        <time>2020-10-15T15:24:16Z</time>
      </trkpt>
      <trkpt lat="37.466368000" lon="-4.422461000">
        <ele>499.7</ele>
        <time>2020-10-15T15:24:18Z</time>
      </trkpt>
      <trkpt lat="37.466267000" lon="-4.422422000">
        <ele>500.1</ele>
        <time>2020-10-15T15:24:20Z</time>
      </trkpt>
      <trkpt lat="37.466164000" lon="-4.422386000">
        <ele>500.5</ele>
        <time>2020-10-15T15:24:22Z</time>
      </trkpt>
      <trkpt lat="37.466055000" lon="-4.422353000">
        <ele>500.9</ele>
        <time>2020-10-15T15:24:24Z</time>
      </trkpt>
      <trkpt lat="37.465951000" lon="-4.422317000">
        <ele>501.5</ele>
        <time>2020-10-15T15:24:26Z</time>
      </trkpt>
      <trkpt lat="37.465850000" lon="-4.422296000">
        <ele>502.5</ele>
        <time>2020-10-15T15:24:28Z</time>
      </trkpt>
      <trkpt lat="37.465756000" lon="-4.422272000">
        <ele>503.6</ele>
        <time>2020-10-15T15:24:30Z</time>
      </trkpt>
      <trkpt lat="37.465665000" lon="-4.422258000">
        <ele>505.0</ele>
        <time>2020-10-15T15:24:32Z</time>
      </trkpt>
      <trkpt lat="37.465568000" lon="-4.422243000">
        <ele>506.5</ele>
        <time>2020-10-15T15:24:34Z</time>
      </trkpt>
      <trkpt lat="37.465468000" lon="-4.422230000">
        <ele>507.9</ele>
        <time>2020-10-15T15:24:36Z</time>
      </trkpt>
      <trkpt lat="37.465361000" lon="-4.422217000">
        <ele>509.3</ele>
        <time>2020-10-15T15:24:38Z</time>
      </trkpt>
      <trkpt lat="37.465246000" lon="-4.422213000">
        <ele>510.5</ele>
        <time>2020-10-15T15:24:40Z</time>
      </trkpt>
      <trkpt lat="37.465138000" lon="-4.422204000">
        <ele>511.5</ele>
        <time>2020-10-15T15:24:42Z</time>
      </trkpt>
      <trkpt lat="37.465034000" lon="-4.422217000">
        <ele>512.5</ele>
        <time>2020-10-15T15:24:44Z</time>
      </trkpt>
      <trkpt lat="37.464930000" lon="-4.422211000">
        <ele>513.3</ele>
        <time>2020-10-15T15:24:46Z</time>
      </trkpt>
      <trkpt lat="37.464816000" lon="-4.422215000">
        <ele>513.7</ele>
        <time>2020-10-15T15:24:48Z</time>
      </trkpt>
      <trkpt lat="37.464704000" lon="-4.422226000">
        <ele>513.9</ele>
        <time>2020-10-15T15:24:50Z</time>
      </trkpt>
      <trkpt lat="37.464576000" lon="-4.422234000">
        <ele>513.6</ele>
        <time>2020-10-15T15:24:52Z</time>
      </trkpt>
      <trkpt lat="37.464473000" lon="-4.422244000">
        <ele>513.0</ele>
        <time>2020-10-15T15:24:54Z</time>
      </trkpt>
      <trkpt lat="37.464366000" lon="-4.422250000">
        <ele>512.1</ele>
        <time>2020-10-15T15:24:56Z</time>
      </trkpt>
      <trkpt lat="37.464279000" lon="-4.422262000">
        <ele>511.0</ele>
        <time>2020-10-15T15:24:58Z</time>
      </trkpt>
      <trkpt lat="37.464195000" lon="-4.422269000">
        <ele>509.8</ele>
        <time>2020-10-15T15:25:00Z</time>
      </trkpt>
      <trkpt lat="37.464101000" lon="-4.422284000">
        <ele>508.6</ele>
        <time>2020-10-15T15:25:02Z</time>
      </trkpt>
      <trkpt lat="37.464011000" lon="-4.422303000">
        <ele>507.3</ele>
        <time>2020-10-15T15:25:04Z</time>
      </trkpt>
      <trkpt lat="37.463920000" lon="-4.422323000">
        <ele>505.9</ele>
        <time>2020-10-15T15:25:06Z</time>
      </trkpt>
      <trkpt lat="37.463819000" lon="-4.422341000">
        <ele>504.5</ele>
        <time>2020-10-15T15:25:08Z</time>
      </trkpt>
      <trkpt lat="37.463723000" lon="-4.422376000">
        <ele>503.0</ele>
        <time>2020-10-15T15:25:10Z</time>
      </trkpt>
      <trkpt lat="37.463615000" lon="-4.422408000">
        <ele>501.5</ele>
        <time>2020-10-15T15:25:12Z</time>
      </trkpt>
      <trkpt lat="37.463512000" lon="-4.422443000">
        <ele>500.1</ele>
        <time>2020-10-15T15:25:14Z</time>
      </trkpt>
      <trkpt lat="37.463408000" lon="-4.422491000">
        <ele>498.9</ele>
        <time>2020-10-15T15:25:16Z</time>
      </trkpt>
      <trkpt lat="37.463308000" lon="-4.422542000">
        <ele>497.9</ele>
        <time>2020-10-15T15:25:18Z</time>
      </trkpt>
      <trkpt lat="37.463207000" lon="-4.422584000">
        <ele>497.2</ele>
        <time>2020-10-15T15:25:20Z</time>
      </trkpt>
      <trkpt lat="37.463116000" lon="-4.422626000">
        <ele>496.7</ele>
        <time>2020-10-15T15:25:22Z</time>
      </trkpt>
      <trkpt lat="37.463024000" lon="-4.422673000">
        <ele>496.4</ele>
        <time>2020-10-15T15:25:24Z</time>
      </trkpt>
      <trkpt lat="37.462937000" lon="-4.422726000">
        <ele>496.4</ele>
        <time>2020-10-15T15:25:26Z</time>
      </trkpt>
      <trkpt lat="37.462849000" lon="-4.422776000">
        <ele>496.5</ele>
        <time>2020-10-15T15:25:28Z</time>
      </trkpt>
      <trkpt lat="37.462767000" lon="-4.422832000">
        <ele>496.7</ele>
        <time>2020-10-15T15:25:30Z</time>
      </trkpt>
      <trkpt lat="37.462676000" lon="-4.422888000">
        <ele>497.1</ele>
        <time>2020-10-15T15:25:32Z</time>
      </trkpt>
      <trkpt lat="37.462594000" lon="-4.422958000">
        <ele>497.6</ele>
        <time>2020-10-15T15:25:34Z</time>
      </trkpt>
      <trkpt lat="37.462513000" lon="-4.423024000">
        <ele>498.2</ele>
        <time>2020-10-15T15:25:36Z</time>
      </trkpt>
      <trkpt lat="37.462427000" lon="-4.423095000">
        <ele>498.7</ele>
        <time>2020-10-15T15:25:38Z</time>
      </trkpt>
      <trkpt lat="37.462344000" lon="-4.423171000">
        <ele>499.4</ele>
        <time>2020-10-15T15:25:40Z</time>
      </trkpt>
      <trkpt lat="37.462265000" lon="-4.423248000">
        <ele>499.9</ele>
        <time>2020-10-15T15:25:43Z</time>
      </trkpt>
      <trkpt lat="37.462178000" lon="-4.423318000">
        <ele>500.4</ele>
        <time>2020-10-15T15:25:44Z</time>
      </trkpt>
      <trkpt lat="37.462091000" lon="-4.423393000">
        <ele>500.8</ele>
        <time>2020-10-15T15:25:46Z</time>
      </trkpt>
      <trkpt lat="37.462008000" lon="-4.423472000">
        <ele>501.1</ele>
        <time>2020-10-15T15:25:48Z</time>
      </trkpt>
      <trkpt lat="37.461921000" lon="-4.423554000">
        <ele>501.4</ele>
        <time>2020-10-15T15:25:50Z</time>
      </trkpt>
      <trkpt lat="37.461832000" lon="-4.423634000">
        <ele>501.6</ele>
        <time>2020-10-15T15:25:52Z</time>
      </trkpt>
      <trkpt lat="37.461746000" lon="-4.423716000">
        <ele>501.9</ele>
        <time>2020-10-15T15:25:54Z</time>
      </trkpt>
      <trkpt lat="37.461658000" lon="-4.423795000">
        <ele>502.2</ele>
        <time>2020-10-15T15:25:56Z</time>
      </trkpt>
      <trkpt lat="37.461572000" lon="-4.423881000">
        <ele>502.5</ele>
        <time>2020-10-15T15:25:58Z</time>
      </trkpt>
      <trkpt lat="37.461482000" lon="-4.423959000">
        <ele>502.7</ele>
        <time>2020-10-15T15:26:00Z</time>
      </trkpt>
      <trkpt lat="37.461395000" lon="-4.424036000">
        <ele>502.9</ele>
        <time>2020-10-15T15:26:02Z</time>
      </trkpt>
      <trkpt lat="37.461304000" lon="-4.424114000">
        <ele>503.0</ele>
        <time>2020-10-15T15:26:04Z</time>
      </trkpt>
      <trkpt lat="37.461215000" lon="-4.424187000">
        <ele>503.1</ele>
        <time>2020-10-15T15:26:06Z</time>
      </trkpt>
      <trkpt lat="37.461127000" lon="-4.424255000">
        <ele>503.2</ele>
        <time>2020-10-15T15:26:08Z</time>
      </trkpt>
      <trkpt lat="37.461046000" lon="-4.424312000">
        <ele>503.2</ele>
        <time>2020-10-15T15:26:10Z</time>
      </trkpt>
      <trkpt lat="37.460958000" lon="-4.424375000">
        <ele>503.2</ele>
        <time>2020-10-15T15:26:12Z</time>
      </trkpt>
      <trkpt lat="37.460870000" lon="-4.424431000">
        <ele>503.1</ele>
        <time>2020-10-15T15:26:14Z</time>
      </trkpt>
      <trkpt lat="37.460792000" lon="-4.424486000">
        <ele>503.0</ele>
        <time>2020-10-15T15:26:16Z</time>
      </trkpt>
      <trkpt lat="37.460704000" lon="-4.424532000">
        <ele>502.8</ele>
        <time>2020-10-15T15:26:18Z</time>
      </trkpt>
      <trkpt lat="37.460612000" lon="-4.424580000">
        <ele>502.5</ele>
        <time>2020-10-15T15:26:20Z</time>
      </trkpt>
      <trkpt lat="37.460519000" lon="-4.424628000">
        <ele>502.3</ele>
        <time>2020-10-15T15:26:22Z</time>
      </trkpt>
      <trkpt lat="37.460428000" lon="-4.424674000">
        <ele>502.0</ele>
        <time>2020-10-15T15:26:24Z</time>
      </trkpt>
      <trkpt lat="37.460340000" lon="-4.424716000">
        <ele>501.8</ele>
        <time>2020-10-15T15:26:26Z</time>
      </trkpt>
      <trkpt lat="37.460242000" lon="-4.424755000">
        <ele>501.5</ele>
        <time>2020-10-15T15:26:28Z</time>
      </trkpt>
      <trkpt lat="37.460145000" lon="-4.424792000">
        <ele>501.3</ele>
        <time>2020-10-15T15:26:30Z</time>
      </trkpt>
      <trkpt lat="37.460049000" lon="-4.424827000">
        <ele>501.1</ele>
        <time>2020-10-15T15:26:32Z</time>
      </trkpt>
      <trkpt lat="37.459951000" lon="-4.424852000">
        <ele>500.8</ele>
        <time>2020-10-15T15:26:34Z</time>
      </trkpt>
      <trkpt lat="37.459851000" lon="-4.424880000">
        <ele>500.5</ele>
        <time>2020-10-15T15:26:36Z</time>
      </trkpt>
      <trkpt lat="37.459754000" lon="-4.424906000">
        <ele>500.2</ele>
        <time>2020-10-15T15:26:38Z</time>
      </trkpt>
      <trkpt lat="37.459657000" lon="-4.424921000">
        <ele>499.7</ele>
        <time>2020-10-15T15:26:40Z</time>
      </trkpt>
      <trkpt lat="37.459550000" lon="-4.424949000">
        <ele>499.4</ele>
        <time>2020-10-15T15:26:42Z</time>
      </trkpt>
      <trkpt lat="37.459446000" lon="-4.424977000">
        <ele>498.9</ele>
        <time>2020-10-15T15:26:44Z</time>
      </trkpt>
      <trkpt lat="37.459351000" lon="-4.425002000">
        <ele>498.4</ele>
        <time>2020-10-15T15:26:46Z</time>
      </trkpt>
      <trkpt lat="37.459263000" lon="-4.425022000">
        <ele>497.7</ele>
        <time>2020-10-15T15:26:48Z</time>
      </trkpt>
      <trkpt lat="37.459180000" lon="-4.425044000">
        <ele>497.2</ele>
        <time>2020-10-15T15:26:50Z</time>
      </trkpt>
      <trkpt lat="37.459098000" lon="-4.425072000">
        <ele>496.5</ele>
        <time>2020-10-15T15:26:52Z</time>
      </trkpt>
      <trkpt lat="37.459018000" lon="-4.425096000">
        <ele>495.8</ele>
        <time>2020-10-15T15:26:54Z</time>
      </trkpt>
      <trkpt lat="37.458902000" lon="-4.425125000">
        <ele>495.1</ele>
        <time>2020-10-15T15:26:57Z</time>
      </trkpt>
      <trkpt lat="37.458819000" lon="-4.425148000">
        <ele>494.4</ele>
        <time>2020-10-15T15:26:59Z</time>
      </trkpt>
      <trkpt lat="37.458729000" lon="-4.425174000">
        <ele>493.6</ele>
        <time>2020-10-15T15:27:01Z</time>
      </trkpt>
      <trkpt lat="37.458644000" lon="-4.425188000">
        <ele>492.9</ele>
        <time>2020-10-15T15:27:03Z</time>
      </trkpt>
      <trkpt lat="37.458558000" lon="-4.425225000">
        <ele>492.2</ele>
        <time>2020-10-15T15:27:05Z</time>
      </trkpt>
      <trkpt lat="37.458468000" lon="-4.425260000">
        <ele>491.6</ele>
        <time>2020-10-15T15:27:07Z</time>
      </trkpt>
      <trkpt lat="37.458370000" lon="-4.425311000">
        <ele>491.2</ele>
        <time>2020-10-15T15:27:09Z</time>
      </trkpt>
      <trkpt lat="37.458270000" lon="-4.425355000">
        <ele>490.9</ele>
        <time>2020-10-15T15:27:11Z</time>
      </trkpt>
      <trkpt lat="37.458173000" lon="-4.425399000">
        <ele>490.7</ele>
        <time>2020-10-15T15:27:13Z</time>
      </trkpt>
      <trkpt lat="37.458086000" lon="-4.425445000">
        <ele>490.7</ele>
        <time>2020-10-15T15:27:15Z</time>
      </trkpt>
      <trkpt lat="37.458007000" lon="-4.425494000">
        <ele>491.0</ele>
        <time>2020-10-15T15:27:17Z</time>
      </trkpt>
      <trkpt lat="37.457934000" lon="-4.425548000">
        <ele>491.5</ele>
        <time>2020-10-15T15:27:19Z</time>
      </trkpt>
      <trkpt lat="37.457854000" lon="-4.425604000">
        <ele>492.0</ele>
        <time>2020-10-15T15:27:21Z</time>
      </trkpt>
      <trkpt lat="37.457765000" lon="-4.425666000">
        <ele>492.7</ele>
        <time>2020-10-15T15:27:23Z</time>
      </trkpt>
      <trkpt lat="37.457673000" lon="-4.425743000">
        <ele>493.7</ele>
        <time>2020-10-15T15:27:25Z</time>
      </trkpt>
      <trkpt lat="37.457584000" lon="-4.425820000">
        <ele>494.8</ele>
        <time>2020-10-15T15:27:27Z</time>
      </trkpt>
      <trkpt lat="37.457503000" lon="-4.425891000">
        <ele>495.9</ele>
        <time>2020-10-15T15:27:29Z</time>
      </trkpt>
      <trkpt lat="37.457431000" lon="-4.425959000">
        <ele>497.1</ele>
        <time>2020-10-15T15:27:31Z</time>
      </trkpt>
      <trkpt lat="37.457363000" lon="-4.426016000">
        <ele>498.3</ele>
        <time>2020-10-15T15:27:33Z</time>
      </trkpt>
      <trkpt lat="37.457297000" lon="-4.426084000">
        <ele>499.5</ele>
        <time>2020-10-15T15:27:35Z</time>
      </trkpt>
      <trkpt lat="37.457225000" lon="-4.426173000">
        <ele>500.5</ele>
        <time>2020-10-15T15:27:37Z</time>
      </trkpt>
      <trkpt lat="37.457162000" lon="-4.426260000">
        <ele>501.3</ele>
        <time>2020-10-15T15:27:39Z</time>
      </trkpt>
      <trkpt lat="37.457081000" lon="-4.426341000">
        <ele>502.0</ele>
        <time>2020-10-15T15:27:41Z</time>
      </trkpt>
      <trkpt lat="37.457006000" lon="-4.426439000">
        <ele>502.5</ele>
        <time>2020-10-15T15:27:43Z</time>
      </trkpt>
      <trkpt lat="37.456938000" lon="-4.426529000">
        <ele>503.0</ele>
        <time>2020-10-15T15:27:45Z</time>
      </trkpt>
      <trkpt lat="37.456872000" lon="-4.426614000">
        <ele>503.3</ele>
        <time>2020-10-15T15:27:47Z</time>
      </trkpt>
      <trkpt lat="37.456812000" lon="-4.426698000">
        <ele>503.4</ele>
        <time>2020-10-15T15:27:49Z</time>
      </trkpt>
      <trkpt lat="37.456759000" lon="-4.426780000">
        <ele>503.4</ele>
        <time>2020-10-15T15:27:51Z</time>
      </trkpt>
      <trkpt lat="37.456702000" lon="-4.426877000">
        <ele>503.4</ele>
        <time>2020-10-15T15:27:53Z</time>
      </trkpt>
      <trkpt lat="37.456636000" lon="-4.426975000">
        <ele>503.3</ele>
        <time>2020-10-15T15:27:55Z</time>
      </trkpt>
      <trkpt lat="37.456560000" lon="-4.427077000">
        <ele>503.1</ele>
        <time>2020-10-15T15:27:57Z</time>
      </trkpt>
      <trkpt lat="37.456489000" lon="-4.427178000">
        <ele>503.0</ele>
        <time>2020-10-15T15:27:59Z</time>
      </trkpt>
      <trkpt lat="37.456426000" lon="-4.427259000">
        <ele>502.9</ele>
        <time>2020-10-15T15:28:01Z</time>
      </trkpt>
      <trkpt lat="37.456366000" lon="-4.427332000">
        <ele>502.7</ele>
        <time>2020-10-15T15:28:03Z</time>
      </trkpt>
      <trkpt lat="37.456278000" lon="-4.427443000">
        <ele>502.6</ele>
        <time>2020-10-15T15:28:06Z</time>
      </trkpt>
      <trkpt lat="37.456210000" lon="-4.427524000">
        <ele>502.5</ele>
        <time>2020-10-15T15:28:08Z</time>
      </trkpt>
      <trkpt lat="37.456135000" lon="-4.427611000">
        <ele>502.2</ele>
        <time>2020-10-15T15:28:10Z</time>
      </trkpt>
      <trkpt lat="37.456063000" lon="-4.427705000">
        <ele>501.9</ele>
        <time>2020-10-15T15:28:12Z</time>
      </trkpt>
      <trkpt lat="37.455985000" lon="-4.427790000">
        <ele>501.6</ele>
        <time>2020-10-15T15:28:14Z</time>
      </trkpt>
      <trkpt lat="37.455910000" lon="-4.427871000">
        <ele>501.3</ele>
        <time>2020-10-15T15:28:16Z</time>
      </trkpt>
      <trkpt lat="37.455843000" lon="-4.427940000">
        <ele>500.9</ele>
        <time>2020-10-15T15:28:18Z</time>
      </trkpt>
      <trkpt lat="37.455773000" lon="-4.428005000">
        <ele>500.6</ele>
        <time>2020-10-15T15:28:20Z</time>
      </trkpt>
      <trkpt lat="37.455696000" lon="-4.428071000">
        <ele>500.5</ele>
        <time>2020-10-15T15:28:22Z</time>
      </trkpt>
      <trkpt lat="37.455610000" lon="-4.428144000">
        <ele>500.3</ele>
        <time>2020-10-15T15:28:24Z</time>
      </trkpt>
      <trkpt lat="37.455527000" lon="-4.428208000">
        <ele>500.2</ele>
        <time>2020-10-15T15:28:26Z</time>
      </trkpt>
      <trkpt lat="37.455440000" lon="-4.428277000">
        <ele>500.2</ele>
        <time>2020-10-15T15:28:28Z</time>
      </trkpt>
      <trkpt lat="37.455353000" lon="-4.428339000">
        <ele>500.3</ele>
        <time>2020-10-15T15:28:30Z</time>
      </trkpt>
      <trkpt lat="37.455267000" lon="-4.428400000">
        <ele>500.4</ele>
        <time>2020-10-15T15:28:32Z</time>
      </trkpt>
      <trkpt lat="37.455176000" lon="-4.428455000">
        <ele>500.5</ele>
        <time>2020-10-15T15:28:34Z</time>
      </trkpt>
      <trkpt lat="37.455084000" lon="-4.428503000">
        <ele>500.7</ele>
        <time>2020-10-15T15:28:36Z</time>
      </trkpt>
      <trkpt lat="37.454998000" lon="-4.428549000">
        <ele>500.9</ele>
        <time>2020-10-15T15:28:38Z</time>
      </trkpt>
      <trkpt lat="37.454910000" lon="-4.428594000">
        <ele>501.1</ele>
        <time>2020-10-15T15:28:40Z</time>
      </trkpt>
      <trkpt lat="37.454820000" lon="-4.428644000">
        <ele>501.1</ele>
        <time>2020-10-15T15:28:42Z</time>
      </trkpt>
      <trkpt lat="37.454730000" lon="-4.428680000">
        <ele>501.0</ele>
        <time>2020-10-15T15:28:44Z</time>
      </trkpt>
      <trkpt lat="37.454643000" lon="-4.428724000">
        <ele>500.9</ele>
        <time>2020-10-15T15:28:46Z</time>
      </trkpt>
      <trkpt lat="37.454550000" lon="-4.428766000">
        <ele>500.8</ele>
        <time>2020-10-15T15:28:49Z</time>
      </trkpt>
      <trkpt lat="37.454458000" lon="-4.428811000">
        <ele>500.6</ele>
        <time>2020-10-15T15:28:50Z</time>
      </trkpt>
      <trkpt lat="37.454369000" lon="-4.428852000">
        <ele>500.4</ele>
        <time>2020-10-15T15:28:52Z</time>
      </trkpt>
      <trkpt lat="37.454280000" lon="-4.428889000">
        <ele>500.2</ele>
        <time>2020-10-15T15:28:54Z</time>
      </trkpt>
      <trkpt lat="37.454196000" lon="-4.428935000">
        <ele>500.0</ele>
        <time>2020-10-15T15:28:56Z</time>
      </trkpt>
      <trkpt lat="37.454108000" lon="-4.428987000">
        <ele>499.9</ele>
        <time>2020-10-15T15:28:58Z</time>
      </trkpt>
      <trkpt lat="37.454017000" lon="-4.429030000">
        <ele>499.8</ele>
        <time>2020-10-15T15:29:00Z</time>
      </trkpt>
      <trkpt lat="37.453932000" lon="-4.429079000">
        <ele>499.7</ele>
        <time>2020-10-15T15:29:02Z</time>
      </trkpt>
      <trkpt lat="37.453847000" lon="-4.429121000">
        <ele>499.7</ele>
        <time>2020-10-15T15:29:04Z</time>
      </trkpt>
      <trkpt lat="37.453760000" lon="-4.429165000">
        <ele>499.8</ele>
        <time>2020-10-15T15:29:06Z</time>
      </trkpt>
      <trkpt lat="37.453678000" lon="-4.429208000">
        <ele>499.8</ele>
        <time>2020-10-15T15:29:08Z</time>
      </trkpt>
      <trkpt lat="37.453591000" lon="-4.429241000">
        <ele>499.8</ele>
        <time>2020-10-15T15:29:10Z</time>
      </trkpt>
      <trkpt lat="37.453501000" lon="-4.429279000">
        <ele>499.7</ele>
        <time>2020-10-15T15:29:12Z</time>
      </trkpt>
      <trkpt lat="37.453415000" lon="-4.429320000">
        <ele>499.7</ele>
        <time>2020-10-15T15:29:14Z</time>
      </trkpt>
      <trkpt lat="37.453333000" lon="-4.429363000">
        <ele>499.6</ele>
        <time>2020-10-15T15:29:16Z</time>
      </trkpt>
      <trkpt lat="37.453245000" lon="-4.429407000">
        <ele>499.5</ele>
        <time>2020-10-15T15:29:18Z</time>
      </trkpt>
      <trkpt lat="37.453158000" lon="-4.429452000">
        <ele>499.4</ele>
        <time>2020-10-15T15:29:20Z</time>
      </trkpt>
      <trkpt lat="37.453074000" lon="-4.429498000">
        <ele>499.2</ele>
        <time>2020-10-15T15:29:22Z</time>
      </trkpt>
      <trkpt lat="37.452985000" lon="-4.429540000">
        <ele>499.0</ele>
        <time>2020-10-15T15:29:24Z</time>
      </trkpt>
      <trkpt lat="37.452898000" lon="-4.429584000">
        <ele>498.8</ele>
        <time>2020-10-15T15:29:26Z</time>
      </trkpt>
      <trkpt lat="37.452817000" lon="-4.429631000">
        <ele>498.5</ele>
        <time>2020-10-15T15:29:28Z</time>
      </trkpt>
      <trkpt lat="37.452728000" lon="-4.429678000">
        <ele>498.4</ele>
        <time>2020-10-15T15:29:30Z</time>
      </trkpt>
      <trkpt lat="37.452641000" lon="-4.429716000">
        <ele>498.3</ele>
        <time>2020-10-15T15:29:32Z</time>
      </trkpt>
      <trkpt lat="37.452557000" lon="-4.429758000">
        <ele>498.3</ele>
        <time>2020-10-15T15:29:34Z</time>
      </trkpt>
      <trkpt lat="37.452467000" lon="-4.429803000">
        <ele>498.3</ele>
        <time>2020-10-15T15:29:36Z</time>
      </trkpt>
      <trkpt lat="37.452381000" lon="-4.429841000">
        <ele>498.5</ele>
        <time>2020-10-15T15:29:38Z</time>
      </trkpt>
      <trkpt lat="37.452293000" lon="-4.429881000">
        <ele>498.6</ele>
        <time>2020-10-15T15:29:40Z</time>
      </trkpt>
      <trkpt lat="37.452209000" lon="-4.429921000">
        <ele>498.9</ele>
        <time>2020-10-15T15:29:42Z</time>
      </trkpt>
      <trkpt lat="37.452128000" lon="-4.429976000">
        <ele>499.3</ele>
        <time>2020-10-15T15:29:44Z</time>
      </trkpt>
      <trkpt lat="37.452038000" lon="-4.430009000">
        <ele>499.6</ele>
        <time>2020-10-15T15:29:46Z</time>
      </trkpt>
      <trkpt lat="37.451953000" lon="-4.430054000">
        <ele>500.1</ele>
        <time>2020-10-15T15:29:48Z</time>
      </trkpt>
      <trkpt lat="37.451864000" lon="-4.430089000">
        <ele>500.5</ele>
        <time>2020-10-15T15:29:50Z</time>
      </trkpt>
      <trkpt lat="37.451782000" lon="-4.430137000">
        <ele>501.0</ele>
        <time>2020-10-15T15:29:52Z</time>
      </trkpt>
      <trkpt lat="37.451695000" lon="-4.430180000">
        <ele>501.4</ele>
        <time>2020-10-15T15:29:54Z</time>
      </trkpt>
      <trkpt lat="37.451611000" lon="-4.430229000">
        <ele>501.7</ele>
        <time>2020-10-15T15:29:56Z</time>
      </trkpt>
      <trkpt lat="37.451524000" lon="-4.430273000">
        <ele>502.1</ele>
        <time>2020-10-15T15:29:58Z</time>
      </trkpt>
      <trkpt lat="37.451437000" lon="-4.430312000">
        <ele>502.5</ele>
        <time>2020-10-15T15:30:00Z</time>
      </trkpt>
      <trkpt lat="37.451342000" lon="-4.430358000">
        <ele>502.8</ele>
        <time>2020-10-15T15:30:02Z</time>
      </trkpt>
      <trkpt lat="37.451228000" lon="-4.430425000">
        <ele>503.1</ele>
        <time>2020-10-15T15:30:05Z</time>
      </trkpt>
      <trkpt lat="37.451143000" lon="-4.430465000">
        <ele>503.3</ele>
        <time>2020-10-15T15:30:07Z</time>
      </trkpt>
      <trkpt lat="37.451059000" lon="-4.430505000">
        <ele>503.5</ele>
        <time>2020-10-15T15:30:09Z</time>
      </trkpt>
      <trkpt lat="37.450975000" lon="-4.430548000">
        <ele>503.5</ele>
        <time>2020-10-15T15:30:11Z</time>
      </trkpt>
      <trkpt lat="37.450894000" lon="-4.430586000">
        <ele>503.6</ele>
        <time>2020-10-15T15:30:13Z</time>
      </trkpt>
      <trkpt lat="37.450810000" lon="-4.430628000">
        <ele>503.7</ele>
        <time>2020-10-15T15:30:15Z</time>
      </trkpt>
      <trkpt lat="37.450722000" lon="-4.430675000">
        <ele>503.8</ele>
        <time>2020-10-15T15:30:17Z</time>
      </trkpt>
      <trkpt lat="37.450629000" lon="-4.430716000">
        <ele>504.0</ele>
        <time>2020-10-15T15:30:19Z</time>
      </trkpt>
      <trkpt lat="37.450537000" lon="-4.430752000">
        <ele>504.3</ele>
        <time>2020-10-15T15:30:21Z</time>
      </trkpt>
      <trkpt lat="37.450446000" lon="-4.430784000">
        <ele>504.5</ele>
        <time>2020-10-15T15:30:23Z</time>
      </trkpt>
      <trkpt lat="37.450356000" lon="-4.430812000">
        <ele>504.6</ele>
        <time>2020-10-15T15:30:25Z</time>
      </trkpt>
      <trkpt lat="37.450265000" lon="-4.430837000">
        <ele>504.8</ele>
        <time>2020-10-15T15:30:27Z</time>
      </trkpt>
      <trkpt lat="37.450174000" lon="-4.430854000">
        <ele>504.9</ele>
        <time>2020-10-15T15:30:29Z</time>
      </trkpt>
      <trkpt lat="37.450078000" lon="-4.430868000">
        <ele>505.0</ele>
        <time>2020-10-15T15:30:31Z</time>
      </trkpt>
      <trkpt lat="37.449985000" lon="-4.430889000">
        <ele>505.0</ele>
        <time>2020-10-15T15:30:33Z</time>
      </trkpt>
      <trkpt lat="37.449889000" lon="-4.430907000">
        <ele>505.0</ele>
        <time>2020-10-15T15:30:35Z</time>
      </trkpt>
      <trkpt lat="37.449798000" lon="-4.430920000">
        <ele>504.9</ele>
        <time>2020-10-15T15:30:37Z</time>
      </trkpt>
      <trkpt lat="37.449699000" lon="-4.430930000">
        <ele>504.8</ele>
        <time>2020-10-15T15:30:39Z</time>
      </trkpt>
      <trkpt lat="37.449603000" lon="-4.430928000">
        <ele>504.6</ele>
        <time>2020-10-15T15:30:41Z</time>
      </trkpt>
      <trkpt lat="37.449509000" lon="-4.430927000">
        <ele>504.4</ele>
        <time>2020-10-15T15:30:43Z</time>
      </trkpt>
      <trkpt lat="37.449408000" lon="-4.430920000">
        <ele>504.1</ele>
        <time>2020-10-15T15:30:45Z</time>
      </trkpt>
      <trkpt lat="37.449309000" lon="-4.430920000">
        <ele>503.8</ele>
        <time>2020-10-15T15:30:47Z</time>
      </trkpt>
      <trkpt lat="37.449210000" lon="-4.430911000">
        <ele>503.5</ele>
        <time>2020-10-15T15:30:49Z</time>
      </trkpt>
      <trkpt lat="37.449119000" lon="-4.430903000">
        <ele>503.4</ele>
        <time>2020-10-15T15:30:51Z</time>
      </trkpt>
      <trkpt lat="37.449026000" lon="-4.430894000">
        <ele>503.2</ele>
        <time>2020-10-15T15:30:53Z</time>
      </trkpt>
      <trkpt lat="37.448936000" lon="-4.430887000">
        <ele>503.1</ele>
        <time>2020-10-15T15:30:55Z</time>
      </trkpt>
      <trkpt lat="37.448839000" lon="-4.430879000">
        <ele>503.0</ele>
        <time>2020-10-15T15:30:57Z</time>
      </trkpt>
      <trkpt lat="37.448742000" lon="-4.430866000">
        <ele>503.0</ele>
        <time>2020-10-15T15:30:59Z</time>
      </trkpt>
      <trkpt lat="37.448642000" lon="-4.430850000">
        <ele>502.8</ele>
        <time>2020-10-15T15:31:01Z</time>
      </trkpt>
      <trkpt lat="37.448542000" lon="-4.430834000">
        <ele>502.5</ele>
        <time>2020-10-15T15:31:03Z</time>
      </trkpt>
      <trkpt lat="37.448453000" lon="-4.430825000">
        <ele>502.2</ele>
        <time>2020-10-15T15:31:05Z</time>
      </trkpt>
      <trkpt lat="37.448367000" lon="-4.430817000">
        <ele>501.7</ele>
        <time>2020-10-15T15:31:07Z</time>
      </trkpt>
      <trkpt lat="37.448283000" lon="-4.430814000">
        <ele>501.2</ele>
        <time>2020-10-15T15:31:09Z</time>
      </trkpt>
      <trkpt lat="37.448184000" lon="-4.430816000">
        <ele>500.5</ele>
        <time>2020-10-15T15:31:12Z</time>
      </trkpt>
      <trkpt lat="37.448082000" lon="-4.430790000">
        <ele>499.9</ele>
        <time>2020-10-15T15:31:15Z</time>
      </trkpt>
      <trkpt lat="37.447969000" lon="-4.430764000">
        <ele>499.3</ele>
        <time>2020-10-15T15:31:19Z</time>
      </trkpt>
      <trkpt lat="37.447887000" lon="-4.430752000">
        <ele>498.6</ele>
        <time>2020-10-15T15:31:20Z</time>
      </trkpt>
      <trkpt lat="37.447767000" lon="-4.430737000">
        <ele>498.0</ele>
        <time>2020-10-15T15:31:23Z</time>
      </trkpt>
      <trkpt lat="37.447670000" lon="-4.430734000">
        <ele>497.5</ele>
        <time>2020-10-15T15:31:25Z</time>
      </trkpt>
      <trkpt lat="37.447550000" lon="-4.430717000">
        <ele>497.1</ele>
        <time>2020-10-15T15:31:27Z</time>
      </trkpt>
      <trkpt lat="37.447426000" lon="-4.430692000">
        <ele>496.8</ele>
        <time>2020-10-15T15:31:29Z</time>
      </trkpt>
      <trkpt lat="37.447310000" lon="-4.430674000">
        <ele>496.7</ele>
        <time>2020-10-15T15:31:31Z</time>
      </trkpt>
      <trkpt lat="37.447222000" lon="-4.430662000">
        <ele>496.7</ele>
        <time>2020-10-15T15:31:33Z</time>
      </trkpt>
      <trkpt lat="37.447131000" lon="-4.430656000">
        <ele>496.8</ele>
        <time>2020-10-15T15:31:36Z</time>
      </trkpt>
      <trkpt lat="37.447020000" lon="-4.430641000">
        <ele>497.0</ele>
        <time>2020-10-15T15:31:40Z</time>
      </trkpt>
      <trkpt lat="37.446910000" lon="-4.430631000">
        <ele>497.2</ele>
        <time>2020-10-15T15:31:43Z</time>
      </trkpt>
      <trkpt lat="37.446799000" lon="-4.430612000">
        <ele>497.4</ele>
        <time>2020-10-15T15:31:46Z</time>
      </trkpt>
      <trkpt lat="37.446676000" lon="-4.430598000">
        <ele>497.6</ele>
        <time>2020-10-15T15:31:49Z</time>
      </trkpt>
      <trkpt lat="37.446595000" lon="-4.430589000">
        <ele>498.0</ele>
        <time>2020-10-15T15:31:51Z</time>
      </trkpt>
      <trkpt lat="37.446513000" lon="-4.430578000">
        <ele>498.3</ele>
        <time>2020-10-15T15:31:53Z</time>
      </trkpt>
      <trkpt lat="37.446432000" lon="-4.430566000">
        <ele>498.6</ele>
        <time>2020-10-15T15:31:55Z</time>
      </trkpt>
      <trkpt lat="37.446348000" lon="-4.430559000">
        <ele>499.1</ele>
        <time>2020-10-15T15:31:57Z</time>
      </trkpt>
      <trkpt lat="37.446262000" lon="-4.430547000">
        <ele>499.5</ele>
        <time>2020-10-15T15:31:59Z</time>
      </trkpt>
      <trkpt lat="37.446180000" lon="-4.430531000">
        <ele>499.9</ele>
        <time>2020-10-15T15:32:01Z</time>
      </trkpt>
      <trkpt lat="37.446097000" lon="-4.430519000">
        <ele>500.4</ele>
        <time>2020-10-15T15:32:03Z</time>
      </trkpt>
      <trkpt lat="37.445979000" lon="-4.430498000">
        <ele>500.9</ele>
        <time>2020-10-15T15:32:06Z</time>
      </trkpt>
      <trkpt lat="37.445897000" lon="-4.430488000">
        <ele>501.5</ele>
        <time>2020-10-15T15:32:08Z</time>
      </trkpt>
      <trkpt lat="37.445814000" lon="-4.430484000">
        <ele>502.1</ele>
        <time>2020-10-15T15:32:10Z</time>
      </trkpt>
      <trkpt lat="37.445732000" lon="-4.430476000">
        <ele>502.6</ele>
        <time>2020-10-15T15:32:12Z</time>
      </trkpt>
      <trkpt lat="37.445647000" lon="-4.430469000">
        <ele>503.2</ele>
        <time>2020-10-15T15:32:14Z</time>
      </trkpt>
      <trkpt lat="37.445563000" lon="-4.430456000">
        <ele>503.7</ele>
        <time>2020-10-15T15:32:16Z</time>
      </trkpt>
      <trkpt lat="37.445478000" lon="-4.430442000">
        <ele>504.2</ele>
        <time>2020-10-15T15:32:18Z</time>
      </trkpt>
      <trkpt lat="37.445393000" lon="-4.430431000">
        <ele>504.5</ele>
        <time>2020-10-15T15:32:20Z</time>
      </trkpt>
      <trkpt lat="37.445306000" lon="-4.430417000">
        <ele>505.0</ele>
        <time>2020-10-15T15:32:22Z</time>
      </trkpt>
      <trkpt lat="37.445219000" lon="-4.430405000">
        <ele>505.4</ele>
        <time>2020-10-15T15:32:24Z</time>
      </trkpt>
      <trkpt lat="37.445132000" lon="-4.430394000">
        <ele>505.8</ele>
        <time>2020-10-15T15:32:26Z</time>
      </trkpt>
      <trkpt lat="37.445044000" lon="-4.430382000">
        <ele>506.2</ele>
        <time>2020-10-15T15:32:28Z</time>
      </trkpt>
      <trkpt lat="37.444956000" lon="-4.430369000">
        <ele>506.5</ele>
        <time>2020-10-15T15:32:30Z</time>
      </trkpt>
      <trkpt lat="37.444864000" lon="-4.430357000">
        <ele>506.8</ele>
        <time>2020-10-15T15:32:32Z</time>
      </trkpt>
      <trkpt lat="37.444771000" lon="-4.430342000">
        <ele>507.1</ele>
        <time>2020-10-15T15:32:34Z</time>
      </trkpt>
      <trkpt lat="37.444675000" lon="-4.430328000">
        <ele>507.3</ele>
        <time>2020-10-15T15:32:36Z</time>
      </trkpt>
      <trkpt lat="37.444584000" lon="-4.430320000">
        <ele>507.5</ele>
        <time>2020-10-15T15:32:38Z</time>
      </trkpt>
      <trkpt lat="37.444491000" lon="-4.430304000">
        <ele>507.8</ele>
        <time>2020-10-15T15:32:40Z</time>
      </trkpt>
      <trkpt lat="37.444400000" lon="-4.430293000">
        <ele>508.2</ele>
        <time>2020-10-15T15:32:42Z</time>
      </trkpt>
      <trkpt lat="37.444308000" lon="-4.430279000">
        <ele>508.5</ele>
        <time>2020-10-15T15:32:44Z</time>
      </trkpt>
      <trkpt lat="37.444217000" lon="-4.430267000">
        <ele>508.6</ele>
        <time>2020-10-15T15:32:46Z</time>
      </trkpt>
      <trkpt lat="37.444122000" lon="-4.430255000">
        <ele>508.7</ele>
        <time>2020-10-15T15:32:48Z</time>
      </trkpt>
      <trkpt lat="37.444031000" lon="-4.430244000">
        <ele>508.8</ele>
        <time>2020-10-15T15:32:50Z</time>
      </trkpt>
      <trkpt lat="37.443941000" lon="-4.430230000">
        <ele>508.8</ele>
        <time>2020-10-15T15:32:52Z</time>
      </trkpt>
      <trkpt lat="37.443851000" lon="-4.430218000">
        <ele>508.7</ele>
        <time>2020-10-15T15:32:54Z</time>
      </trkpt>
      <trkpt lat="37.443733000" lon="-4.430210000">
        <ele>508.6</ele>
        <time>2020-10-15T15:32:57Z</time>
      </trkpt>
      <trkpt lat="37.443646000" lon="-4.430204000">
        <ele>508.5</ele>
        <time>2020-10-15T15:32:59Z</time>
      </trkpt>
      <trkpt lat="37.443562000" lon="-4.430197000">
        <ele>508.1</ele>
        <time>2020-10-15T15:33:01Z</time>
      </trkpt>
      <trkpt lat="37.443477000" lon="-4.430187000">
        <ele>507.6</ele>
        <time>2020-10-15T15:33:03Z</time>
      </trkpt>
      <trkpt lat="37.443389000" lon="-4.430177000">
        <ele>507.0</ele>
        <time>2020-10-15T15:33:05Z</time>
      </trkpt>
      <trkpt lat="37.443302000" lon="-4.430170000">
        <ele>506.3</ele>
        <time>2020-10-15T15:33:07Z</time>
      </trkpt>
      <trkpt lat="37.443217000" lon="-4.430165000">
        <ele>505.5</ele>
        <time>2020-10-15T15:33:09Z</time>
      </trkpt>
      <trkpt lat="37.443133000" lon="-4.430160000">
        <ele>504.8</ele>
        <time>2020-10-15T15:33:11Z</time>
      </trkpt>
      <trkpt lat="37.443050000" lon="-4.430158000">
        <ele>504.0</ele>
        <time>2020-10-15T15:33:13Z</time>
      </trkpt>
      <trkpt lat="37.442967000" lon="-4.430158000">
        <ele>503.3</ele>
        <time>2020-10-15T15:33:15Z</time>
      </trkpt>
      <trkpt lat="37.442882000" lon="-4.430165000">
        <ele>502.5</ele>
        <time>2020-10-15T15:33:17Z</time>
      </trkpt>
      <trkpt lat="37.442794000" lon="-4.430173000">
        <ele>501.8</ele>
        <time>2020-10-15T15:33:19Z</time>
      </trkpt>
      <trkpt lat="37.442705000" lon="-4.430188000">
        <ele>501.1</ele>
        <time>2020-10-15T15:33:21Z</time>
      </trkpt>
      <trkpt lat="37.442618000" lon="-4.430205000">
        <ele>500.5</ele>
        <time>2020-10-15T15:33:23Z</time>
      </trkpt>
      <trkpt lat="37.442531000" lon="-4.430224000">
        <ele>499.8</ele>
        <time>2020-10-15T15:33:25Z</time>
      </trkpt>
      <trkpt lat="37.442449000" lon="-4.430251000">
        <ele>499.4</ele>
        <time>2020-10-15T15:33:27Z</time>
      </trkpt>
      <trkpt lat="37.442365000" lon="-4.430277000">
        <ele>499.0</ele>
        <time>2020-10-15T15:33:29Z</time>
      </trkpt>
      <trkpt lat="37.442279000" lon="-4.430307000">
        <ele>498.8</ele>
        <time>2020-10-15T15:33:31Z</time>
      </trkpt>
      <trkpt lat="37.442190000" lon="-4.430342000">
        <ele>498.7</ele>
        <time>2020-10-15T15:33:33Z</time>
      </trkpt>
      <trkpt lat="37.442107000" lon="-4.430376000">
        <ele>498.9</ele>
        <time>2020-10-15T15:33:35Z</time>
      </trkpt>
      <trkpt lat="37.442020000" lon="-4.430411000">
        <ele>499.2</ele>
        <time>2020-10-15T15:33:37Z</time>
      </trkpt>
      <trkpt lat="37.441942000" lon="-4.430450000">
        <ele>499.7</ele>
        <time>2020-10-15T15:33:39Z</time>
      </trkpt>
      <trkpt lat="37.441862000" lon="-4.430488000">
        <ele>500.4</ele>
        <time>2020-10-15T15:33:41Z</time>
      </trkpt>
      <trkpt lat="37.441782000" lon="-4.430529000">
        <ele>501.3</ele>
        <time>2020-10-15T15:33:43Z</time>
      </trkpt>
      <trkpt lat="37.441704000" lon="-4.430576000">
        <ele>502.3</ele>
        <time>2020-10-15T15:33:45Z</time>
      </trkpt>
      <trkpt lat="37.441625000" lon="-4.430627000">
        <ele>503.5</ele>
        <time>2020-10-15T15:33:47Z</time>
      </trkpt>
      <trkpt lat="37.441547000" lon="-4.430675000">
        <ele>504.8</ele>
        <time>2020-10-15T15:33:49Z</time>
      </trkpt>
      <trkpt lat="37.441471000" lon="-4.430717000">
        <ele>506.1</ele>
        <time>2020-10-15T15:33:51Z</time>
      </trkpt>
      <trkpt lat="37.441369000" lon="-4.430795000">
        <ele>507.3</ele>
        <time>2020-10-15T15:33:54Z</time>
      </trkpt>
      <trkpt lat="37.441299000" lon="-4.430849000">
        <ele>508.4</ele>
        <time>2020-10-15T15:33:56Z</time>
      </trkpt>
      <trkpt lat="37.441194000" lon="-4.430920000">
        <ele>509.3</ele>
        <time>2020-10-15T15:33:59Z</time>
      </trkpt>
      <trkpt lat="37.441090000" lon="-4.430990000">
        <ele>510.1</ele>
        <time>2020-10-15T15:34:02Z</time>
      </trkpt>
      <trkpt lat="37.440985000" lon="-4.431048000">
        <ele>510.7</ele>
        <time>2020-10-15T15:34:05Z</time>
      </trkpt>
      <trkpt lat="37.440883000" lon="-4.431123000">
        <ele>511.3</ele>
        <time>2020-10-15T15:34:08Z</time>
      </trkpt>
      <trkpt lat="37.440780000" lon="-4.431202000">
        <ele>511.6</ele>
        <time>2020-10-15T15:34:11Z</time>
      </trkpt>
      <trkpt lat="37.440678000" lon="-4.431267000">
        <ele>511.9</ele>
        <time>2020-10-15T15:34:14Z</time>
      </trkpt>
      <trkpt lat="37.440577000" lon="-4.431338000">
        <ele>512.0</ele>
        <time>2020-10-15T15:34:17Z</time>
      </trkpt>
      <trkpt lat="37.440477000" lon="-4.431410000">
        <ele>512.0</ele>
        <time>2020-10-15T15:34:20Z</time>
      </trkpt>
      <trkpt lat="37.440371000" lon="-4.431474000">
        <ele>512.0</ele>
        <time>2020-10-15T15:34:23Z</time>
      </trkpt>
      <trkpt lat="37.440264000" lon="-4.431537000">
        <ele>512.0</ele>
        <time>2020-10-15T15:34:26Z</time>
      </trkpt>
      <trkpt lat="37.440156000" lon="-4.431599000">
        <ele>512.0</ele>
        <time>2020-10-15T15:34:29Z</time>
      </trkpt>
      <trkpt lat="37.440046000" lon="-4.431657000">
        <ele>512.1</ele>
        <time>2020-10-15T15:34:32Z</time>
      </trkpt>
      <trkpt lat="37.439932000" lon="-4.431700000">
        <ele>512.2</ele>
        <time>2020-10-15T15:34:35Z</time>
      </trkpt>
      <trkpt lat="37.439818000" lon="-4.431743000">
        <ele>512.3</ele>
        <time>2020-10-15T15:34:38Z</time>
      </trkpt>
      <trkpt lat="37.439704000" lon="-4.431782000">
        <ele>512.5</ele>
        <time>2020-10-15T15:34:41Z</time>
      </trkpt>
      <trkpt lat="37.439591000" lon="-4.431818000">
        <ele>512.6</ele>
        <time>2020-10-15T15:34:44Z</time>
      </trkpt>
      <trkpt lat="37.439476000" lon="-4.431842000">
        <ele>512.9</ele>
        <time>2020-10-15T15:34:47Z</time>
      </trkpt>
      <trkpt lat="37.439394000" lon="-4.431858000">
        <ele>513.2</ele>
        <time>2020-10-15T15:34:49Z</time>
      </trkpt>
      <trkpt lat="37.439314000" lon="-4.431873000">
        <ele>513.5</ele>
        <time>2020-10-15T15:34:51Z</time>
      </trkpt>
      <trkpt lat="37.439232000" lon="-4.431883000">
        <ele>513.7</ele>
        <time>2020-10-15T15:34:53Z</time>
      </trkpt>
      <trkpt lat="37.439147000" lon="-4.431889000">
        <ele>513.9</ele>
        <time>2020-10-15T15:34:55Z</time>
      </trkpt>
      <trkpt lat="37.439064000" lon="-4.431896000">
        <ele>514.0</ele>
        <time>2020-10-15T15:34:57Z</time>
      </trkpt>
      <trkpt lat="37.438982000" lon="-4.431899000">
        <ele>513.9</ele>
        <time>2020-10-15T15:34:59Z</time>
      </trkpt>
      <trkpt lat="37.438899000" lon="-4.431898000">
        <ele>513.7</ele>
        <time>2020-10-15T15:35:01Z</time>
      </trkpt>
      <trkpt lat="37.438817000" lon="-4.431895000">
        <ele>513.5</ele>
        <time>2020-10-15T15:35:03Z</time>
      </trkpt>
      <trkpt lat="37.438733000" lon="-4.431891000">
        <ele>513.1</ele>
        <time>2020-10-15T15:35:05Z</time>
      </trkpt>
      <trkpt lat="37.438646000" lon="-4.431887000">
        <ele>512.7</ele>
        <time>2020-10-15T15:35:07Z</time>
      </trkpt>
      <trkpt lat="37.438560000" lon="-4.431878000">
        <ele>512.2</ele>
        <time>2020-10-15T15:35:09Z</time>
      </trkpt>
      <trkpt lat="37.438475000" lon="-4.431869000">
        <ele>511.6</ele>
        <time>2020-10-15T15:35:11Z</time>
      </trkpt>
      <trkpt lat="37.438392000" lon="-4.431852000">
        <ele>511.1</ele>
        <time>2020-10-15T15:35:13Z</time>
      </trkpt>
      <trkpt lat="37.438310000" lon="-4.431837000">
        <ele>510.5</ele>
        <time>2020-10-15T15:35:15Z</time>
      </trkpt>
      <trkpt lat="37.438228000" lon="-4.431822000">
        <ele>510.1</ele>
        <time>2020-10-15T15:35:17Z</time>
      </trkpt>
      <trkpt lat="37.438140000" lon="-4.431810000">
        <ele>509.7</ele>
        <time>2020-10-15T15:35:19Z</time>
      </trkpt>
      <trkpt lat="37.438048000" lon="-4.431786000">
        <ele>509.5</ele>
        <time>2020-10-15T15:35:21Z</time>
      </trkpt>
      <trkpt lat="37.437962000" lon="-4.431769000">
        <ele>509.3</ele>
        <time>2020-10-15T15:35:23Z</time>
      </trkpt>
      <trkpt lat="37.437870000" lon="-4.431747000">
        <ele>509.1</ele>
        <time>2020-10-15T15:35:25Z</time>
      </trkpt>
      <trkpt lat="37.437778000" lon="-4.431714000">
        <ele>508.9</ele>
        <time>2020-10-15T15:35:27Z</time>
      </trkpt>
      <trkpt lat="37.437673000" lon="-4.431686000">
        <ele>508.7</ele>
        <time>2020-10-15T15:35:29Z</time>
      </trkpt>
      <trkpt lat="37.437570000" lon="-4.431658000">
        <ele>508.5</ele>
        <time>2020-10-15T15:35:31Z</time>
      </trkpt>
      <trkpt lat="37.437475000" lon="-4.431634000">
        <ele>508.4</ele>
        <time>2020-10-15T15:35:33Z</time>
      </trkpt>
      <trkpt lat="37.437388000" lon="-4.431612000">
        <ele>508.2</ele>
        <time>2020-10-15T15:35:35Z</time>
      </trkpt>
      <trkpt lat="37.437274000" lon="-4.431588000">
        <ele>508.0</ele>
        <time>2020-10-15T15:35:38Z</time>
      </trkpt>
      <trkpt lat="37.437189000" lon="-4.431568000">
        <ele>507.8</ele>
        <time>2020-10-15T15:35:40Z</time>
      </trkpt>
      <trkpt lat="37.437097000" lon="-4.431549000">
        <ele>507.6</ele>
        <time>2020-10-15T15:35:42Z</time>
      </trkpt>
      <trkpt lat="37.437002000" lon="-4.431526000">
        <ele>507.5</ele>
        <time>2020-10-15T15:35:44Z</time>
      </trkpt>
      <trkpt lat="37.436908000" lon="-4.431498000">
        <ele>507.4</ele>
        <time>2020-10-15T15:35:46Z</time>
      </trkpt>
      <trkpt lat="37.436824000" lon="-4.431478000">
        <ele>507.4</ele>
        <time>2020-10-15T15:35:48Z</time>
      </trkpt>
      <trkpt lat="37.436740000" lon="-4.431459000">
        <ele>507.5</ele>
        <time>2020-10-15T15:35:50Z</time>
      </trkpt>
      <trkpt lat="37.436655000" lon="-4.431445000">
        <ele>507.6</ele>
        <time>2020-10-15T15:35:52Z</time>
      </trkpt>
      <trkpt lat="37.436533000" lon="-4.431430000">
        <ele>507.9</ele>
        <time>2020-10-15T15:35:55Z</time>
      </trkpt>
      <trkpt lat="37.436452000" lon="-4.431419000">
        <ele>508.3</ele>
        <time>2020-10-15T15:35:57Z</time>
      </trkpt>
      <trkpt lat="37.436370000" lon="-4.431409000">
        <ele>508.6</ele>
        <time>2020-10-15T15:35:59Z</time>
      </trkpt>
      <trkpt lat="37.436254000" lon="-4.431404000">
        <ele>509.1</ele>
        <time>2020-10-15T15:36:02Z</time>
      </trkpt>
      <trkpt lat="37.436137000" lon="-4.431392000">
        <ele>509.6</ele>
        <time>2020-10-15T15:36:05Z</time>
      </trkpt>
      <trkpt lat="37.436022000" lon="-4.431391000">
        <ele>510.2</ele>
        <time>2020-10-15T15:36:08Z</time>
      </trkpt>
      <trkpt lat="37.435904000" lon="-4.431391000">
        <ele>510.7</ele>
        <time>2020-10-15T15:36:11Z</time>
      </trkpt>
      <trkpt lat="37.435788000" lon="-4.431390000">
        <ele>511.2</ele>
        <time>2020-10-15T15:36:14Z</time>
      </trkpt>
      <trkpt lat="37.435674000" lon="-4.431413000">
        <ele>511.6</ele>
        <time>2020-10-15T15:36:17Z</time>
      </trkpt>
      <trkpt lat="37.435557000" lon="-4.431429000">
        <ele>512.0</ele>
        <time>2020-10-15T15:36:20Z</time>
      </trkpt>
      <trkpt lat="37.435438000" lon="-4.431458000">
        <ele>512.4</ele>
        <time>2020-10-15T15:36:23Z</time>
      </trkpt>
      <trkpt lat="37.435358000" lon="-4.431477000">
        <ele>512.7</ele>
        <time>2020-10-15T15:36:25Z</time>
      </trkpt>
      <trkpt lat="37.435279000" lon="-4.431504000">
        <ele>513.0</ele>
        <time>2020-10-15T15:36:27Z</time>
      </trkpt>
      <trkpt lat="37.435163000" lon="-4.431543000">
        <ele>513.3</ele>
        <time>2020-10-15T15:36:30Z</time>
      </trkpt>
      <trkpt lat="37.435050000" lon="-4.431584000">
        <ele>513.5</ele>
        <time>2020-10-15T15:36:33Z</time>
      </trkpt>
      <trkpt lat="37.434939000" lon="-4.431622000">
        <ele>513.5</ele>
        <time>2020-10-15T15:36:36Z</time>
      </trkpt>
      <trkpt lat="37.434834000" lon="-4.431669000">
        <ele>513.6</ele>
        <time>2020-10-15T15:36:39Z</time>
      </trkpt>
      <trkpt lat="37.434732000" lon="-4.431718000">
        <ele>513.7</ele>
        <time>2020-10-15T15:36:42Z</time>
      </trkpt>
      <trkpt lat="37.434631000" lon="-4.431767000">
        <ele>513.8</ele>
        <time>2020-10-15T15:36:45Z</time>
      </trkpt>
      <trkpt lat="37.434532000" lon="-4.431816000">
        <ele>513.9</ele>
        <time>2020-10-15T15:36:48Z</time>
      </trkpt>
      <trkpt lat="37.434436000" lon="-4.431876000">
        <ele>514.0</ele>
        <time>2020-10-15T15:36:51Z</time>
      </trkpt>
      <trkpt lat="37.434337000" lon="-4.431943000">
        <ele>513.9</ele>
        <time>2020-10-15T15:36:54Z</time>
      </trkpt>
      <trkpt lat="37.434238000" lon="-4.432008000">
        <ele>513.8</ele>
        <time>2020-10-15T15:36:57Z</time>
      </trkpt>
      <trkpt lat="37.434148000" lon="-4.432085000">
        <ele>513.7</ele>
        <time>2020-10-15T15:37:00Z</time>
      </trkpt>
      <trkpt lat="37.434060000" lon="-4.432166000">
        <ele>513.6</ele>
        <time>2020-10-15T15:37:03Z</time>
      </trkpt>
      <trkpt lat="37.433971000" lon="-4.432250000">
        <ele>513.6</ele>
        <time>2020-10-15T15:37:06Z</time>
      </trkpt>
      <trkpt lat="37.433885000" lon="-4.432336000">
        <ele>513.6</ele>
        <time>2020-10-15T15:37:09Z</time>
      </trkpt>
      <trkpt lat="37.433794000" lon="-4.432413000">
        <ele>513.7</ele>
        <time>2020-10-15T15:37:12Z</time>
      </trkpt>
      <trkpt lat="37.433712000" lon="-4.432505000">
        <ele>513.9</ele>
        <time>2020-10-15T15:37:15Z</time>
      </trkpt>
      <trkpt lat="37.433629000" lon="-4.432611000">
        <ele>514.1</ele>
        <time>2020-10-15T15:37:18Z</time>
      </trkpt>
      <trkpt lat="37.433559000" lon="-4.432713000">
        <ele>514.4</ele>
        <time>2020-10-15T15:37:21Z</time>
      </trkpt>
      <trkpt lat="37.433501000" lon="-4.432787000">
        <ele>514.6</ele>
        <time>2020-10-15T15:37:23Z</time>
      </trkpt>
      <trkpt lat="37.433443000" lon="-4.432867000">
        <ele>515.1</ele>
        <time>2020-10-15T15:37:25Z</time>
      </trkpt>
      <trkpt lat="37.433373000" lon="-4.432975000">
        <ele>515.5</ele>
        <time>2020-10-15T15:37:28Z</time>
      </trkpt>
      <trkpt lat="37.433305000" lon="-4.433074000">
        <ele>516.0</ele>
        <time>2020-10-15T15:37:31Z</time>
      </trkpt>
      <trkpt lat="37.433228000" lon="-4.433195000">
        <ele>516.5</ele>
        <time>2020-10-15T15:37:34Z</time>
      </trkpt>
      <trkpt lat="37.433175000" lon="-4.433286000">
        <ele>517.0</ele>
        <time>2020-10-15T15:37:36Z</time>
      </trkpt>
      <trkpt lat="37.433109000" lon="-4.433373000">
        <ele>517.5</ele>
        <time>2020-10-15T15:37:38Z</time>
      </trkpt>
      <trkpt lat="37.433044000" lon="-4.433487000">
        <ele>517.8</ele>
        <time>2020-10-15T15:37:41Z</time>
      </trkpt>
      <trkpt lat="37.432978000" lon="-4.433605000">
        <ele>518.0</ele>
        <time>2020-10-15T15:37:44Z</time>
      </trkpt>
      <trkpt lat="37.432910000" lon="-4.433712000">
        <ele>518.2</ele>
        <time>2020-10-15T15:37:47Z</time>
      </trkpt>
      <trkpt lat="37.432840000" lon="-4.433818000">
        <ele>518.2</ele>
        <time>2020-10-15T15:37:50Z</time>
      </trkpt>
      <trkpt lat="37.432768000" lon="-4.433935000">
        <ele>518.2</ele>
        <time>2020-10-15T15:37:53Z</time>
      </trkpt>
      <trkpt lat="37.432697000" lon="-4.434053000">
        <ele>518.2</ele>
        <time>2020-10-15T15:37:56Z</time>
      </trkpt>
      <trkpt lat="37.432627000" lon="-4.434172000">
        <ele>518.2</ele>
        <time>2020-10-15T15:37:59Z</time>
      </trkpt>
      <trkpt lat="37.432559000" lon="-4.434287000">
        <ele>518.2</ele>
        <time>2020-10-15T15:38:02Z</time>
      </trkpt>
      <trkpt lat="37.432484000" lon="-4.434393000">
        <ele>518.2</ele>
        <time>2020-10-15T15:38:05Z</time>
      </trkpt>
      <trkpt lat="37.432412000" lon="-4.434504000">
        <ele>518.2</ele>
        <time>2020-10-15T15:38:08Z</time>
      </trkpt>
      <trkpt lat="37.432339000" lon="-4.434613000">
        <ele>518.2</ele>
        <time>2020-10-15T15:38:11Z</time>
      </trkpt>
      <trkpt lat="37.432258000" lon="-4.434717000">
        <ele>518.3</ele>
        <time>2020-10-15T15:38:14Z</time>
      </trkpt>
      <trkpt lat="37.432172000" lon="-4.434812000">
        <ele>518.5</ele>
        <time>2020-10-15T15:38:17Z</time>
      </trkpt>
      <trkpt lat="37.432083000" lon="-4.434908000">
        <ele>518.8</ele>
        <time>2020-10-15T15:38:20Z</time>
      </trkpt>
      <trkpt lat="37.431990000" lon="-4.434998000">
        <ele>519.3</ele>
        <time>2020-10-15T15:38:23Z</time>
      </trkpt>
      <trkpt lat="37.431900000" lon="-4.435085000">
        <ele>519.8</ele>
        <time>2020-10-15T15:38:26Z</time>
      </trkpt>
      <trkpt lat="37.431805000" lon="-4.435163000">
        <ele>520.3</ele>
        <time>2020-10-15T15:38:29Z</time>
      </trkpt>
      <trkpt lat="37.431708000" lon="-4.435238000">
        <ele>520.8</ele>
        <time>2020-10-15T15:38:33Z</time>
      </trkpt>
      <trkpt lat="37.431607000" lon="-4.435313000">
        <ele>521.4</ele>
        <time>2020-10-15T15:38:35Z</time>
      </trkpt>
      <trkpt lat="37.431502000" lon="-4.435385000">
        <ele>521.8</ele>
        <time>2020-10-15T15:38:38Z</time>
      </trkpt>
      <trkpt lat="37.431395000" lon="-4.435460000">
        <ele>522.3</ele>
        <time>2020-10-15T15:38:41Z</time>
      </trkpt>
      <trkpt lat="37.431319000" lon="-4.435506000">
        <ele>522.7</ele>
        <time>2020-10-15T15:38:43Z</time>
      </trkpt>
      <trkpt lat="37.431243000" lon="-4.435549000">
        <ele>523.0</ele>
        <time>2020-10-15T15:38:45Z</time>
      </trkpt>
      <trkpt lat="37.431170000" lon="-4.435594000">
        <ele>523.2</ele>
        <time>2020-10-15T15:38:47Z</time>
      </trkpt>
      <trkpt lat="37.431062000" lon="-4.435658000">
        <ele>523.4</ele>
        <time>2020-10-15T15:38:50Z</time>
      </trkpt>
      <trkpt lat="37.430986000" lon="-4.435697000">
        <ele>523.5</ele>
        <time>2020-10-15T15:38:52Z</time>
      </trkpt>
      <trkpt lat="37.430908000" lon="-4.435734000">
        <ele>523.4</ele>
        <time>2020-10-15T15:38:54Z</time>
      </trkpt>
      <trkpt lat="37.430785000" lon="-4.435789000">
        <ele>523.3</ele>
        <time>2020-10-15T15:38:57Z</time>
      </trkpt>
      <trkpt lat="37.430702000" lon="-4.435820000">
        <ele>523.1</ele>
        <time>2020-10-15T15:38:59Z</time>
      </trkpt>
      <trkpt lat="37.430623000" lon="-4.435849000">
        <ele>522.9</ele>
        <time>2020-10-15T15:39:01Z</time>
      </trkpt>
      <trkpt lat="37.430534000" lon="-4.435874000">
        <ele>522.7</ele>
        <time>2020-10-15T15:39:03Z</time>
      </trkpt>
      <trkpt lat="37.430445000" lon="-4.435905000">
        <ele>522.5</ele>
        <time>2020-10-15T15:39:05Z</time>
      </trkpt>
      <trkpt lat="37.430361000" lon="-4.435935000">
        <ele>522.3</ele>
        <time>2020-10-15T15:39:07Z</time>
      </trkpt>
      <trkpt lat="37.430272000" lon="-4.435963000">
        <ele>522.1</ele>
        <time>2020-10-15T15:39:09Z</time>
      </trkpt>
      <trkpt lat="37.430182000" lon="-4.435986000">
        <ele>521.9</ele>
        <time>2020-10-15T15:39:11Z</time>
      </trkpt>
      <trkpt lat="37.430094000" lon="-4.436011000">
        <ele>521.7</ele>
        <time>2020-10-15T15:39:13Z</time>
      </trkpt>
      <trkpt lat="37.430006000" lon="-4.436031000">
        <ele>521.5</ele>
        <time>2020-10-15T15:39:15Z</time>
      </trkpt>
      <trkpt lat="37.429919000" lon="-4.436051000">
        <ele>521.3</ele>
        <time>2020-10-15T15:39:17Z</time>
      </trkpt>
      <trkpt lat="37.429831000" lon="-4.436076000">
        <ele>521.1</ele>
        <time>2020-10-15T15:39:19Z</time>
      </trkpt>
      <trkpt lat="37.429742000" lon="-4.436099000">
        <ele>520.9</ele>
        <time>2020-10-15T15:39:21Z</time>
      </trkpt>
      <trkpt lat="37.429655000" lon="-4.436122000">
        <ele>520.7</ele>
        <time>2020-10-15T15:39:23Z</time>
      </trkpt>
      <trkpt lat="37.429567000" lon="-4.436145000">
        <ele>520.5</ele>
        <time>2020-10-15T15:39:25Z</time>
      </trkpt>
      <trkpt lat="37.429476000" lon="-4.436169000">
        <ele>520.5</ele>
        <time>2020-10-15T15:39:27Z</time>
      </trkpt>
      <trkpt lat="37.429386000" lon="-4.436202000">
        <ele>520.5</ele>
        <time>2020-10-15T15:39:29Z</time>
      </trkpt>
      <trkpt lat="37.429300000" lon="-4.436231000">
        <ele>520.5</ele>
        <time>2020-10-15T15:39:31Z</time>
      </trkpt>
      <trkpt lat="37.429215000" lon="-4.436262000">
        <ele>520.7</ele>
        <time>2020-10-15T15:39:33Z</time>
      </trkpt>
      <trkpt lat="37.429130000" lon="-4.436295000">
        <ele>520.9</ele>
        <time>2020-10-15T15:39:35Z</time>
      </trkpt>
      <trkpt lat="37.429051000" lon="-4.436332000">
        <ele>521.2</ele>
        <time>2020-10-15T15:39:37Z</time>
      </trkpt>
      <trkpt lat="37.428973000" lon="-4.436372000">
        <ele>521.5</ele>
        <time>2020-10-15T15:39:39Z</time>
      </trkpt>
      <trkpt lat="37.428891000" lon="-4.436413000">
        <ele>521.9</ele>
        <time>2020-10-15T15:39:41Z</time>
      </trkpt>
      <trkpt lat="37.428807000" lon="-4.436455000">
        <ele>522.3</ele>
        <time>2020-10-15T15:39:43Z</time>
      </trkpt>
      <trkpt lat="37.428722000" lon="-4.436499000">
        <ele>522.5</ele>
        <time>2020-10-15T15:39:45Z</time>
      </trkpt>
      <trkpt lat="37.428641000" lon="-4.436542000">
        <ele>522.8</ele>
        <time>2020-10-15T15:39:47Z</time>
      </trkpt>
      <trkpt lat="37.428560000" lon="-4.436584000">
        <ele>523.0</ele>
        <time>2020-10-15T15:39:49Z</time>
      </trkpt>
      <trkpt lat="37.428484000" lon="-4.436631000">
        <ele>523.1</ele>
        <time>2020-10-15T15:39:51Z</time>
      </trkpt>
      <trkpt lat="37.428417000" lon="-4.436689000">
        <ele>523.1</ele>
        <time>2020-10-15T15:39:53Z</time>
      </trkpt>
      <trkpt lat="37.428347000" lon="-4.436747000">
        <ele>522.9</ele>
        <time>2020-10-15T15:39:55Z</time>
      </trkpt>
      <trkpt lat="37.428274000" lon="-4.436805000">
        <ele>522.6</ele>
        <time>2020-10-15T15:39:57Z</time>
      </trkpt>
      <trkpt lat="37.428204000" lon="-4.436860000">
        <ele>522.3</ele>
        <time>2020-10-15T15:39:59Z</time>
      </trkpt>
      <trkpt lat="37.428136000" lon="-4.436921000">
        <ele>521.7</ele>
        <time>2020-10-15T15:40:01Z</time>
      </trkpt>
      <trkpt lat="37.428066000" lon="-4.436980000">
        <ele>521.1</ele>
        <time>2020-10-15T15:40:03Z</time>
      </trkpt>
      <trkpt lat="37.427999000" lon="-4.437050000">
        <ele>520.5</ele>
        <time>2020-10-15T15:40:05Z</time>
      </trkpt>
      <trkpt lat="37.427932000" lon="-4.437119000">
        <ele>519.8</ele>
        <time>2020-10-15T15:40:07Z</time>
      </trkpt>
      <trkpt lat="37.427866000" lon="-4.437192000">
        <ele>519.1</ele>
        <time>2020-10-15T15:40:09Z</time>
      </trkpt>
      <trkpt lat="37.427799000" lon="-4.437268000">
        <ele>518.4</ele>
        <time>2020-10-15T15:40:11Z</time>
      </trkpt>
      <trkpt lat="37.427732000" lon="-4.437345000">
        <ele>517.6</ele>
        <time>2020-10-15T15:40:13Z</time>
      </trkpt>
      <trkpt lat="37.427674000" lon="-4.437422000">
        <ele>516.8</ele>
        <time>2020-10-15T15:40:15Z</time>
      </trkpt>
      <trkpt lat="37.427607000" lon="-4.437508000">
        <ele>516.0</ele>
        <time>2020-10-15T15:40:17Z</time>
      </trkpt>
      <trkpt lat="37.427544000" lon="-4.437594000">
        <ele>515.3</ele>
        <time>2020-10-15T15:40:19Z</time>
      </trkpt>
      <trkpt lat="37.427486000" lon="-4.437678000">
        <ele>514.6</ele>
        <time>2020-10-15T15:40:21Z</time>
      </trkpt>
      <trkpt lat="37.427426000" lon="-4.437753000">
        <ele>514.1</ele>
        <time>2020-10-15T15:40:23Z</time>
      </trkpt>
      <trkpt lat="37.427367000" lon="-4.437833000">
        <ele>513.7</ele>
        <time>2020-10-15T15:40:25Z</time>
      </trkpt>
      <trkpt lat="37.427307000" lon="-4.437914000">
        <ele>513.5</ele>
        <time>2020-10-15T15:40:27Z</time>
      </trkpt>
      <trkpt lat="37.427246000" lon="-4.437999000">
        <ele>513.5</ele>
        <time>2020-10-15T15:40:29Z</time>
      </trkpt>
      <trkpt lat="37.427187000" lon="-4.438078000">
        <ele>513.7</ele>
        <time>2020-10-15T15:40:31Z</time>
      </trkpt>
      <trkpt lat="37.427124000" lon="-4.438157000">
        <ele>513.9</ele>
        <time>2020-10-15T15:40:33Z</time>
      </trkpt>
      <trkpt lat="37.427060000" lon="-4.438236000">
        <ele>514.3</ele>
        <time>2020-10-15T15:40:35Z</time>
      </trkpt>
      <trkpt lat="37.427000000" lon="-4.438314000">
        <ele>514.8</ele>
        <time>2020-10-15T15:40:37Z</time>
      </trkpt>
      <trkpt lat="37.426919000" lon="-4.438425000">
        <ele>515.5</ele>
        <time>2020-10-15T15:40:40Z</time>
      </trkpt>
      <trkpt lat="37.426864000" lon="-4.438505000">
        <ele>516.4</ele>
        <time>2020-10-15T15:40:42Z</time>
      </trkpt>
      <trkpt lat="37.426806000" lon="-4.438582000">
        <ele>517.2</ele>
        <time>2020-10-15T15:40:44Z</time>
      </trkpt>
      <trkpt lat="37.426752000" lon="-4.438667000">
        <ele>518.1</ele>
        <time>2020-10-15T15:40:46Z</time>
      </trkpt>
      <trkpt lat="37.426701000" lon="-4.438756000">
        <ele>519.0</ele>
        <time>2020-10-15T15:40:48Z</time>
      </trkpt>
      <trkpt lat="37.426653000" lon="-4.438860000">
        <ele>519.9</ele>
        <time>2020-10-15T15:40:50Z</time>
      </trkpt>
      <trkpt lat="37.426597000" lon="-4.438951000">
        <ele>520.8</ele>
        <time>2020-10-15T15:40:52Z</time>
      </trkpt>
      <trkpt lat="37.426552000" lon="-4.439048000">
        <ele>521.6</ele>
        <time>2020-10-15T15:40:54Z</time>
      </trkpt>
      <trkpt lat="37.426508000" lon="-4.439142000">
        <ele>522.5</ele>
        <time>2020-10-15T15:40:56Z</time>
      </trkpt>
      <trkpt lat="37.426441000" lon="-4.439260000">
        <ele>523.4</ele>
        <time>2020-10-15T15:40:59Z</time>
      </trkpt>
      <trkpt lat="37.426380000" lon="-4.439386000">
        <ele>524.1</ele>
        <time>2020-10-15T15:41:02Z</time>
      </trkpt>
      <trkpt lat="37.426324000" lon="-4.439513000">
        <ele>524.8</ele>
        <time>2020-10-15T15:41:05Z</time>
      </trkpt>
      <trkpt lat="37.426281000" lon="-4.439601000">
        <ele>525.5</ele>
        <time>2020-10-15T15:41:07Z</time>
      </trkpt>
      <trkpt lat="37.426239000" lon="-4.439691000">
        <ele>526.1</ele>
        <time>2020-10-15T15:41:09Z</time>
      </trkpt>
      <trkpt lat="37.426200000" lon="-4.439782000">
        <ele>526.6</ele>
        <time>2020-10-15T15:41:11Z</time>
      </trkpt>
      <trkpt lat="37.426164000" lon="-4.439874000">
        <ele>527.1</ele>
        <time>2020-10-15T15:41:13Z</time>
      </trkpt>
      <trkpt lat="37.426122000" lon="-4.439966000">
        <ele>527.4</ele>
        <time>2020-10-15T15:41:15Z</time>
      </trkpt>
      <trkpt lat="37.426082000" lon="-4.440058000">
        <ele>527.5</ele>
        <time>2020-10-15T15:41:17Z</time>
      </trkpt>
      <trkpt lat="37.426038000" lon="-4.440146000">
        <ele>527.5</ele>
        <time>2020-10-15T15:41:19Z</time>
      </trkpt>
      <trkpt lat="37.425998000" lon="-4.440235000">
        <ele>527.5</ele>
        <time>2020-10-15T15:41:21Z</time>
      </trkpt>
      <trkpt lat="37.425958000" lon="-4.440325000">
        <ele>527.5</ele>
        <time>2020-10-15T15:41:23Z</time>
      </trkpt>
      <trkpt lat="37.425917000" lon="-4.440414000">
        <ele>527.5</ele>
        <time>2020-10-15T15:41:25Z</time>
      </trkpt>
      <trkpt lat="37.425855000" lon="-4.440545000">
        <ele>527.3</ele>
        <time>2020-10-15T15:41:28Z</time>
      </trkpt>
      <trkpt lat="37.425809000" lon="-4.440636000">
        <ele>527.1</ele>
        <time>2020-10-15T15:41:30Z</time>
      </trkpt>
      <trkpt lat="37.425759000" lon="-4.440724000">
        <ele>526.9</ele>
        <time>2020-10-15T15:41:34Z</time>
      </trkpt>
      <trkpt lat="37.425709000" lon="-4.440815000">
        <ele>526.7</ele>
        <time>2020-10-15T15:41:34Z</time>
      </trkpt>
      <trkpt lat="37.425661000" lon="-4.440905000">
        <ele>526.6</ele>
        <time>2020-10-15T15:41:36Z</time>
      </trkpt>
      <trkpt lat="37.425610000" lon="-4.440995000">
        <ele>526.5</ele>
        <time>2020-10-15T15:41:38Z</time>
      </trkpt>
      <trkpt lat="37.425558000" lon="-4.441079000">
        <ele>526.5</ele>
        <time>2020-10-15T15:41:40Z</time>
      </trkpt>
      <trkpt lat="37.425506000" lon="-4.441163000">
        <ele>526.5</ele>
        <time>2020-10-15T15:41:42Z</time>
      </trkpt>
      <trkpt lat="37.425449000" lon="-4.441245000">
        <ele>526.6</ele>
        <time>2020-10-15T15:41:45Z</time>
      </trkpt>
      <trkpt lat="37.425390000" lon="-4.441327000">
        <ele>526.7</ele>
        <time>2020-10-15T15:41:46Z</time>
      </trkpt>
      <trkpt lat="37.425329000" lon="-4.441410000">
        <ele>526.9</ele>
        <time>2020-10-15T15:41:48Z</time>
      </trkpt>
      <trkpt lat="37.425264000" lon="-4.441488000">
        <ele>527.1</ele>
        <time>2020-10-15T15:41:50Z</time>
      </trkpt>
      <trkpt lat="37.425190000" lon="-4.441560000">
        <ele>527.4</ele>
        <time>2020-10-15T15:41:52Z</time>
      </trkpt>
      <trkpt lat="37.425121000" lon="-4.441633000">
        <ele>527.6</ele>
        <time>2020-10-15T15:41:54Z</time>
      </trkpt>
      <trkpt lat="37.425051000" lon="-4.441709000">
        <ele>527.9</ele>
        <time>2020-10-15T15:41:56Z</time>
      </trkpt>
      <trkpt lat="37.424980000" lon="-4.441779000">
        <ele>528.1</ele>
        <time>2020-10-15T15:41:58Z</time>
      </trkpt>
      <trkpt lat="37.424905000" lon="-4.441859000">
        <ele>528.3</ele>
        <time>2020-10-15T15:42:00Z</time>
      </trkpt>
      <trkpt lat="37.424831000" lon="-4.441931000">
        <ele>528.5</ele>
        <time>2020-10-15T15:42:02Z</time>
      </trkpt>
      <trkpt lat="37.424755000" lon="-4.442002000">
        <ele>528.6</ele>
        <time>2020-10-15T15:42:04Z</time>
      </trkpt>
      <trkpt lat="37.424674000" lon="-4.442075000">
        <ele>528.7</ele>
        <time>2020-10-15T15:42:06Z</time>
      </trkpt>
      <trkpt lat="37.424591000" lon="-4.442147000">
        <ele>528.8</ele>
        <time>2020-10-15T15:42:08Z</time>
      </trkpt>
      <trkpt lat="37.424516000" lon="-4.442219000">
        <ele>528.9</ele>
        <time>2020-10-15T15:42:10Z</time>
      </trkpt>
      <trkpt lat="37.424440000" lon="-4.442288000">
        <ele>529.0</ele>
        <time>2020-10-15T15:42:12Z</time>
      </trkpt>
      <trkpt lat="37.424371000" lon="-4.442356000">
        <ele>528.9</ele>
        <time>2020-10-15T15:42:14Z</time>
      </trkpt>
      <trkpt lat="37.424297000" lon="-4.442426000">
        <ele>528.8</ele>
        <time>2020-10-15T15:42:16Z</time>
      </trkpt>
      <trkpt lat="37.424217000" lon="-4.442508000">
        <ele>528.7</ele>
        <time>2020-10-15T15:42:18Z</time>
      </trkpt>
      <trkpt lat="37.424126000" lon="-4.442588000">
        <ele>528.5</ele>
        <time>2020-10-15T15:42:20Z</time>
      </trkpt>
      <trkpt lat="37.424045000" lon="-4.442675000">
        <ele>528.4</ele>
        <time>2020-10-15T15:42:22Z</time>
      </trkpt>
      <trkpt lat="37.423956000" lon="-4.442749000">
        <ele>528.2</ele>
        <time>2020-10-15T15:42:24Z</time>
      </trkpt>
      <trkpt lat="37.423875000" lon="-4.442833000">
        <ele>528.0</ele>
        <time>2020-10-15T15:42:26Z</time>
      </trkpt>
      <trkpt lat="37.423797000" lon="-4.442910000">
        <ele>527.7</ele>
        <time>2020-10-15T15:42:28Z</time>
      </trkpt>
      <trkpt lat="37.423728000" lon="-4.442999000">
        <ele>527.5</ele>
        <time>2020-10-15T15:42:30Z</time>
      </trkpt>
      <trkpt lat="37.423660000" lon="-4.443086000">
        <ele>527.1</ele>
        <time>2020-10-15T15:42:32Z</time>
      </trkpt>
      <trkpt lat="37.423594000" lon="-4.443168000">
        <ele>526.7</ele>
        <time>2020-10-15T15:42:34Z</time>
      </trkpt>
      <trkpt lat="37.423529000" lon="-4.443261000">
        <ele>526.5</ele>
        <time>2020-10-15T15:42:36Z</time>
      </trkpt>
      <trkpt lat="37.423456000" lon="-4.443363000">
        <ele>526.1</ele>
        <time>2020-10-15T15:42:38Z</time>
      </trkpt>
      <trkpt lat="37.423385000" lon="-4.443479000">
        <ele>525.7</ele>
        <time>2020-10-15T15:42:40Z</time>
      </trkpt>
      <trkpt lat="37.423310000" lon="-4.443598000">
        <ele>525.5</ele>
        <time>2020-10-15T15:42:42Z</time>
      </trkpt>
      <trkpt lat="37.423241000" lon="-4.443725000">
        <ele>525.2</ele>
        <time>2020-10-15T15:42:44Z</time>
      </trkpt>
      <trkpt lat="37.423166000" lon="-4.443863000">
        <ele>524.8</ele>
        <time>2020-10-15T15:42:46Z</time>
      </trkpt>
      <trkpt lat="37.423101000" lon="-4.443989000">
        <ele>524.5</ele>
        <time>2020-10-15T15:42:48Z</time>
      </trkpt>
      <trkpt lat="37.423047000" lon="-4.444110000">
        <ele>524.2</ele>
        <time>2020-10-15T15:42:50Z</time>
      </trkpt>
      <trkpt lat="37.422993000" lon="-4.444233000">
        <ele>523.9</ele>
        <time>2020-10-15T15:42:52Z</time>
      </trkpt>
      <trkpt lat="37.422943000" lon="-4.444351000">
        <ele>523.6</ele>
        <time>2020-10-15T15:42:54Z</time>
      </trkpt>
      <trkpt lat="37.422899000" lon="-4.444474000">
        <ele>523.4</ele>
        <time>2020-10-15T15:42:56Z</time>
      </trkpt>
      <trkpt lat="37.422864000" lon="-4.444591000">
        <ele>523.1</ele>
        <time>2020-10-15T15:42:58Z</time>
      </trkpt>
      <trkpt lat="37.422825000" lon="-4.444706000">
        <ele>522.8</ele>
        <time>2020-10-15T15:43:00Z</time>
      </trkpt>
      <trkpt lat="37.422796000" lon="-4.444815000">
        <ele>522.5</ele>
        <time>2020-10-15T15:43:02Z</time>
      </trkpt>
      <trkpt lat="37.422760000" lon="-4.444931000">
        <ele>522.3</ele>
        <time>2020-10-15T15:43:04Z</time>
      </trkpt>
      <trkpt lat="37.422729000" lon="-4.445061000">
        <ele>522.0</ele>
        <time>2020-10-15T15:43:06Z</time>
      </trkpt>
      <trkpt lat="37.422699000" lon="-4.445206000">
        <ele>521.8</ele>
        <time>2020-10-15T15:43:08Z</time>
      </trkpt>
      <trkpt lat="37.422672000" lon="-4.445342000">
        <ele>521.5</ele>
        <time>2020-10-15T15:43:10Z</time>
      </trkpt>
      <trkpt lat="37.422655000" lon="-4.445476000">
        <ele>521.3</ele>
        <time>2020-10-15T15:43:12Z</time>
      </trkpt>
      <trkpt lat="37.422635000" lon="-4.445604000">
        <ele>521.0</ele>
        <time>2020-10-15T15:43:14Z</time>
      </trkpt>
      <trkpt lat="37.422615000" lon="-4.445728000">
        <ele>520.8</ele>
        <time>2020-10-15T15:43:16Z</time>
      </trkpt>
      <trkpt lat="37.422609000" lon="-4.445843000">
        <ele>520.5</ele>
        <time>2020-10-15T15:43:18Z</time>
      </trkpt>
      <trkpt lat="37.422597000" lon="-4.445971000">
        <ele>520.3</ele>
        <time>2020-10-15T15:43:20Z</time>
      </trkpt>
      <trkpt lat="37.422584000" lon="-4.446111000">
        <ele>520.1</ele>
        <time>2020-10-15T15:43:22Z</time>
      </trkpt>
      <trkpt lat="37.422572000" lon="-4.446260000">
        <ele>519.9</ele>
        <time>2020-10-15T15:43:24Z</time>
      </trkpt>
      <trkpt lat="37.422549000" lon="-4.446414000">
        <ele>519.7</ele>
        <time>2020-10-15T15:43:26Z</time>
      </trkpt>
      <trkpt lat="37.422533000" lon="-4.446568000">
        <ele>519.5</ele>
        <time>2020-10-15T15:43:28Z</time>
      </trkpt>
      <trkpt lat="37.422516000" lon="-4.446718000">
        <ele>519.4</ele>
        <time>2020-10-15T15:43:30Z</time>
      </trkpt>
      <trkpt lat="37.422503000" lon="-4.446862000">
        <ele>519.3</ele>
        <time>2020-10-15T15:43:32Z</time>
      </trkpt>
      <trkpt lat="37.422491000" lon="-4.447005000">
        <ele>519.2</ele>
        <time>2020-10-15T15:43:34Z</time>
      </trkpt>
      <trkpt lat="37.422483000" lon="-4.447141000">
        <ele>519.0</ele>
        <time>2020-10-15T15:43:36Z</time>
      </trkpt>
      <trkpt lat="37.422470000" lon="-4.447276000">
        <ele>518.8</ele>
        <time>2020-10-15T15:43:38Z</time>
      </trkpt>
      <trkpt lat="37.422460000" lon="-4.447407000">
        <ele>518.6</ele>
        <time>2020-10-15T15:43:40Z</time>
      </trkpt>
      <trkpt lat="37.422446000" lon="-4.447533000">
        <ele>518.5</ele>
        <time>2020-10-15T15:43:42Z</time>
      </trkpt>
      <trkpt lat="37.422435000" lon="-4.447652000">
        <ele>518.2</ele>
        <time>2020-10-15T15:43:44Z</time>
      </trkpt>
      <trkpt lat="37.422424000" lon="-4.447781000">
        <ele>517.9</ele>
        <time>2020-10-15T15:43:46Z</time>
      </trkpt>
      <trkpt lat="37.422413000" lon="-4.447920000">
        <ele>517.6</ele>
        <time>2020-10-15T15:43:48Z</time>
      </trkpt>
      <trkpt lat="37.422402000" lon="-4.448069000">
        <ele>517.5</ele>
        <time>2020-10-15T15:43:50Z</time>
      </trkpt>
      <trkpt lat="37.422396000" lon="-4.448224000">
        <ele>517.3</ele>
        <time>2020-10-15T15:43:52Z</time>
      </trkpt>
      <trkpt lat="37.422387000" lon="-4.448385000">
        <ele>517.0</ele>
        <time>2020-10-15T15:43:54Z</time>
      </trkpt>
      <trkpt lat="37.422387000" lon="-4.448545000">
        <ele>516.7</ele>
        <time>2020-10-15T15:43:56Z</time>
      </trkpt>
      <trkpt lat="37.422392000" lon="-4.448700000">
        <ele>516.6</ele>
        <time>2020-10-15T15:43:58Z</time>
      </trkpt>
      <trkpt lat="37.422399000" lon="-4.448849000">
        <ele>516.5</ele>
        <time>2020-10-15T15:44:01Z</time>
      </trkpt>
      <trkpt lat="37.422408000" lon="-4.448988000">
        <ele>516.5</ele>
        <time>2020-10-15T15:44:02Z</time>
      </trkpt>
      <trkpt lat="37.422414000" lon="-4.449128000">
        <ele>516.4</ele>
        <time>2020-10-15T15:44:04Z</time>
      </trkpt>
      <trkpt lat="37.422436000" lon="-4.449258000">
        <ele>516.3</ele>
        <time>2020-10-15T15:44:06Z</time>
      </trkpt>
      <trkpt lat="37.422456000" lon="-4.449392000">
        <ele>516.2</ele>
        <time>2020-10-15T15:44:08Z</time>
      </trkpt>
      <trkpt lat="37.422481000" lon="-4.449530000">
        <ele>516.1</ele>
        <time>2020-10-15T15:44:10Z</time>
      </trkpt>
      <trkpt lat="37.422512000" lon="-4.449670000">
        <ele>515.8</ele>
        <time>2020-10-15T15:44:12Z</time>
      </trkpt>
      <trkpt lat="37.422540000" lon="-4.449813000">
        <ele>515.5</ele>
        <time>2020-10-15T15:44:14Z</time>
      </trkpt>
      <trkpt lat="37.422572000" lon="-4.449963000">
        <ele>515.4</ele>
        <time>2020-10-15T15:44:16Z</time>
      </trkpt>
      <trkpt lat="37.422614000" lon="-4.450109000">
        <ele>515.3</ele>
        <time>2020-10-15T15:44:18Z</time>
      </trkpt>
      <trkpt lat="37.422654000" lon="-4.450244000">
        <ele>515.1</ele>
        <time>2020-10-15T15:44:20Z</time>
      </trkpt>
      <trkpt lat="37.422699000" lon="-4.450371000">
        <ele>514.8</ele>
        <time>2020-10-15T15:44:22Z</time>
      </trkpt>
      <trkpt lat="37.422749000" lon="-4.450493000">
        <ele>514.6</ele>
        <time>2020-10-15T15:44:24Z</time>
      </trkpt>
      <trkpt lat="37.422799000" lon="-4.450615000">
        <ele>514.4</ele>
        <time>2020-10-15T15:44:26Z</time>
      </trkpt>
      <trkpt lat="37.422842000" lon="-4.450748000">
        <ele>514.2</ele>
        <time>2020-10-15T15:44:28Z</time>
      </trkpt>
      <trkpt lat="37.422894000" lon="-4.450891000">
        <ele>514.0</ele>
        <time>2020-10-15T15:44:30Z</time>
      </trkpt>
      <trkpt lat="37.422944000" lon="-4.451040000">
        <ele>513.7</ele>
        <time>2020-10-15T15:44:32Z</time>
      </trkpt>
      <trkpt lat="37.422994000" lon="-4.451174000">
        <ele>513.5</ele>
        <time>2020-10-15T15:44:34Z</time>
      </trkpt>
      <trkpt lat="37.423048000" lon="-4.451302000">
        <ele>513.4</ele>
        <time>2020-10-15T15:44:36Z</time>
      </trkpt>
      <trkpt lat="37.423097000" lon="-4.451427000">
        <ele>513.2</ele>
        <time>2020-10-15T15:44:38Z</time>
      </trkpt>
      <trkpt lat="37.423147000" lon="-4.451559000">
        <ele>512.8</ele>
        <time>2020-10-15T15:44:40Z</time>
      </trkpt>
      <trkpt lat="37.423195000" lon="-4.451681000">
        <ele>512.5</ele>
        <time>2020-10-15T15:44:42Z</time>
      </trkpt>
      <trkpt lat="37.423239000" lon="-4.451798000">
        <ele>512.4</ele>
        <time>2020-10-15T15:44:44Z</time>
      </trkpt>
      <trkpt lat="37.423279000" lon="-4.451908000">
        <ele>512.1</ele>
        <time>2020-10-15T15:44:46Z</time>
      </trkpt>
      <trkpt lat="37.423327000" lon="-4.452035000">
        <ele>511.9</ele>
        <time>2020-10-15T15:44:48Z</time>
      </trkpt>
      <trkpt lat="37.423376000" lon="-4.452173000">
        <ele>511.7</ele>
        <time>2020-10-15T15:44:50Z</time>
      </trkpt>
      <trkpt lat="37.423420000" lon="-4.452309000">
        <ele>511.5</ele>
        <time>2020-10-15T15:44:52Z</time>
      </trkpt>
      <trkpt lat="37.423464000" lon="-4.452443000">
        <ele>511.5</ele>
        <time>2020-10-15T15:44:54Z</time>
      </trkpt>
      <trkpt lat="37.423496000" lon="-4.452573000">
        <ele>511.3</ele>
        <time>2020-10-15T15:44:56Z</time>
      </trkpt>
      <trkpt lat="37.423527000" lon="-4.452705000">
        <ele>511.1</ele>
        <time>2020-10-15T15:44:58Z</time>
      </trkpt>
      <trkpt lat="37.423557000" lon="-4.452834000">
        <ele>510.8</ele>
        <time>2020-10-15T15:45:00Z</time>
      </trkpt>
      <trkpt lat="37.423594000" lon="-4.452976000">
        <ele>510.6</ele>
        <time>2020-10-15T15:45:02Z</time>
      </trkpt>
      <trkpt lat="37.423623000" lon="-4.453127000">
        <ele>510.4</ele>
        <time>2020-10-15T15:45:04Z</time>
      </trkpt>
      <trkpt lat="37.423646000" lon="-4.453278000">
        <ele>510.1</ele>
        <time>2020-10-15T15:45:06Z</time>
      </trkpt>
      <trkpt lat="37.423662000" lon="-4.453433000">
        <ele>509.8</ele>
        <time>2020-10-15T15:45:08Z</time>
      </trkpt>
      <trkpt lat="37.423674000" lon="-4.453587000">
        <ele>509.5</ele>
        <time>2020-10-15T15:45:11Z</time>
      </trkpt>
      <trkpt lat="37.423683000" lon="-4.453738000">
        <ele>509.3</ele>
        <time>2020-10-15T15:45:12Z</time>
      </trkpt>
      <trkpt lat="37.423692000" lon="-4.453887000">
        <ele>509.0</ele>
        <time>2020-10-15T15:45:14Z</time>
      </trkpt>
      <trkpt lat="37.423695000" lon="-4.454029000">
        <ele>508.6</ele>
        <time>2020-10-15T15:45:16Z</time>
      </trkpt>
      <trkpt lat="37.423696000" lon="-4.454170000">
        <ele>508.4</ele>
        <time>2020-10-15T15:45:18Z</time>
      </trkpt>
      <trkpt lat="37.423688000" lon="-4.454309000">
        <ele>508.1</ele>
        <time>2020-10-15T15:45:20Z</time>
      </trkpt>
      <trkpt lat="37.423683000" lon="-4.454446000">
        <ele>507.9</ele>
        <time>2020-10-15T15:45:22Z</time>
      </trkpt>
      <trkpt lat="37.423673000" lon="-4.454579000">
        <ele>507.7</ele>
        <time>2020-10-15T15:45:24Z</time>
      </trkpt>
      <trkpt lat="37.423659000" lon="-4.454707000">
        <ele>507.5</ele>
        <time>2020-10-15T15:45:26Z</time>
      </trkpt>
      <trkpt lat="37.423639000" lon="-4.454839000">
        <ele>507.3</ele>
        <time>2020-10-15T15:45:28Z</time>
      </trkpt>
      <trkpt lat="37.423614000" lon="-4.454974000">
        <ele>507.2</ele>
        <time>2020-10-15T15:45:30Z</time>
      </trkpt>
      <trkpt lat="37.423590000" lon="-4.455111000">
        <ele>507.1</ele>
        <time>2020-10-15T15:45:32Z</time>
      </trkpt>
      <trkpt lat="37.423555000" lon="-4.455244000">
        <ele>507.0</ele>
        <time>2020-10-15T15:45:34Z</time>
      </trkpt>
      <trkpt lat="37.423519000" lon="-4.455373000">
        <ele>506.8</ele>
        <time>2020-10-15T15:45:36Z</time>
      </trkpt>
      <trkpt lat="37.423484000" lon="-4.455503000">
        <ele>506.7</ele>
        <time>2020-10-15T15:45:38Z</time>
      </trkpt>
      <trkpt lat="37.423451000" lon="-4.455629000">
        <ele>506.5</ele>
        <time>2020-10-15T15:45:40Z</time>
      </trkpt>
      <trkpt lat="37.423412000" lon="-4.455746000">
        <ele>506.4</ele>
        <time>2020-10-15T15:45:42Z</time>
      </trkpt>
      <trkpt lat="37.423369000" lon="-4.455857000">
        <ele>506.1</ele>
        <time>2020-10-15T15:45:44Z</time>
      </trkpt>
      <trkpt lat="37.423329000" lon="-4.455977000">
        <ele>505.7</ele>
        <time>2020-10-15T15:45:46Z</time>
      </trkpt>
      <trkpt lat="37.423287000" lon="-4.456095000">
        <ele>505.4</ele>
        <time>2020-10-15T15:45:48Z</time>
      </trkpt>
      <trkpt lat="37.423239000" lon="-4.456208000">
        <ele>505.0</ele>
        <time>2020-10-15T15:45:50Z</time>
      </trkpt>
      <trkpt lat="37.423183000" lon="-4.456315000">
        <ele>504.5</ele>
        <time>2020-10-15T15:45:52Z</time>
      </trkpt>
      <trkpt lat="37.423127000" lon="-4.456429000">
        <ele>504.1</ele>
        <time>2020-10-15T15:45:54Z</time>
      </trkpt>
      <trkpt lat="37.423060000" lon="-4.456547000">
        <ele>503.6</ele>
        <time>2020-10-15T15:45:56Z</time>
      </trkpt>
      <trkpt lat="37.422997000" lon="-4.456660000">
        <ele>503.3</ele>
        <time>2020-10-15T15:45:58Z</time>
      </trkpt>
      <trkpt lat="37.422940000" lon="-4.456777000">
        <ele>502.8</ele>
        <time>2020-10-15T15:46:00Z</time>
      </trkpt>
      <trkpt lat="37.422869000" lon="-4.456868000">
        <ele>502.5</ele>
        <time>2020-10-15T15:46:02Z</time>
      </trkpt>
      <trkpt lat="37.422803000" lon="-4.456966000">
        <ele>502.2</ele>
        <time>2020-10-15T15:46:04Z</time>
      </trkpt>
      <trkpt lat="37.422730000" lon="-4.457063000">
        <ele>502.0</ele>
        <time>2020-10-15T15:46:06Z</time>
      </trkpt>
      <trkpt lat="37.422651000" lon="-4.457165000">
        <ele>501.9</ele>
        <time>2020-10-15T15:46:08Z</time>
      </trkpt>
      <trkpt lat="37.422575000" lon="-4.457260000">
        <ele>501.9</ele>
        <time>2020-10-15T15:46:10Z</time>
      </trkpt>
      <trkpt lat="37.422501000" lon="-4.457357000">
        <ele>502.0</ele>
        <time>2020-10-15T15:46:12Z</time>
      </trkpt>
      <trkpt lat="37.422420000" lon="-4.457457000">
        <ele>502.1</ele>
        <time>2020-10-15T15:46:14Z</time>
      </trkpt>
      <trkpt lat="37.422347000" lon="-4.457545000">
        <ele>502.1</ele>
        <time>2020-10-15T15:46:16Z</time>
      </trkpt>
      <trkpt lat="37.422281000" lon="-4.457635000">
        <ele>502.1</ele>
        <time>2020-10-15T15:46:18Z</time>
      </trkpt>
      <trkpt lat="37.422214000" lon="-4.457729000">
        <ele>502.1</ele>
        <time>2020-10-15T15:46:20Z</time>
      </trkpt>
      <trkpt lat="37.422149000" lon="-4.457806000">
        <ele>502.1</ele>
        <time>2020-10-15T15:46:22Z</time>
      </trkpt>
      <trkpt lat="37.422080000" lon="-4.457885000">
        <ele>502.1</ele>
        <time>2020-10-15T15:46:24Z</time>
      </trkpt>
      <trkpt lat="37.422010000" lon="-4.457983000">
        <ele>501.9</ele>
        <time>2020-10-15T15:46:26Z</time>
      </trkpt>
      <trkpt lat="37.421939000" lon="-4.458082000">
        <ele>501.7</ele>
        <time>2020-10-15T15:46:28Z</time>
      </trkpt>
      <trkpt lat="37.421868000" lon="-4.458176000">
        <ele>501.5</ele>
        <time>2020-10-15T15:46:30Z</time>
      </trkpt>
      <trkpt lat="37.421789000" lon="-4.458269000">
        <ele>501.3</ele>
        <time>2020-10-15T15:46:32Z</time>
      </trkpt>
      <trkpt lat="37.421722000" lon="-4.458367000">
        <ele>501.0</ele>
        <time>2020-10-15T15:46:34Z</time>
      </trkpt>
      <trkpt lat="37.421642000" lon="-4.458464000">
        <ele>500.6</ele>
        <time>2020-10-15T15:46:36Z</time>
      </trkpt>
      <trkpt lat="37.421561000" lon="-4.458562000">
        <ele>500.4</ele>
        <time>2020-10-15T15:46:38Z</time>
      </trkpt>
      <trkpt lat="37.421477000" lon="-4.458655000">
        <ele>500.0</ele>
        <time>2020-10-15T15:46:40Z</time>
      </trkpt>
      <trkpt lat="37.421396000" lon="-4.458749000">
        <ele>499.6</ele>
        <time>2020-10-15T15:46:42Z</time>
      </trkpt>
      <trkpt lat="37.421322000" lon="-4.458847000">
        <ele>499.4</ele>
        <time>2020-10-15T15:46:44Z</time>
      </trkpt>
      <trkpt lat="37.421246000" lon="-4.458943000">
        <ele>499.0</ele>
        <time>2020-10-15T15:46:46Z</time>
      </trkpt>
      <trkpt lat="37.421172000" lon="-4.459037000">
        <ele>498.7</ele>
        <time>2020-10-15T15:46:48Z</time>
      </trkpt>
      <trkpt lat="37.421098000" lon="-4.459135000">
        <ele>498.5</ele>
        <time>2020-10-15T15:46:50Z</time>
      </trkpt>
      <trkpt lat="37.421025000" lon="-4.459234000">
        <ele>498.2</ele>
        <time>2020-10-15T15:46:52Z</time>
      </trkpt>
      <trkpt lat="37.420948000" lon="-4.459332000">
        <ele>497.9</ele>
        <time>2020-10-15T15:46:54Z</time>
      </trkpt>
      <trkpt lat="37.420871000" lon="-4.459431000">
        <ele>497.5</ele>
        <time>2020-10-15T15:46:56Z</time>
      </trkpt>
      <trkpt lat="37.420795000" lon="-4.459537000">
        <ele>497.3</ele>
        <time>2020-10-15T15:46:58Z</time>
      </trkpt>
      <trkpt lat="37.420715000" lon="-4.459640000">
        <ele>497.0</ele>
        <time>2020-10-15T15:47:00Z</time>
      </trkpt>
      <trkpt lat="37.420636000" lon="-4.459746000">
        <ele>496.8</ele>
        <time>2020-10-15T15:47:02Z</time>
      </trkpt>
      <trkpt lat="37.420559000" lon="-4.459856000">
        <ele>496.7</ele>
        <time>2020-10-15T15:47:04Z</time>
      </trkpt>
      <trkpt lat="37.420481000" lon="-4.459972000">
        <ele>496.6</ele>
        <time>2020-10-15T15:47:06Z</time>
      </trkpt>
      <trkpt lat="37.420413000" lon="-4.460084000">
        <ele>496.7</ele>
        <time>2020-10-15T15:47:08Z</time>
      </trkpt>
      <trkpt lat="37.420345000" lon="-4.460203000">
        <ele>496.8</ele>
        <time>2020-10-15T15:47:10Z</time>
      </trkpt>
      <trkpt lat="37.420279000" lon="-4.460326000">
        <ele>496.9</ele>
        <time>2020-10-15T15:47:12Z</time>
      </trkpt>
      <trkpt lat="37.420215000" lon="-4.460463000">
        <ele>497.0</ele>
        <time>2020-10-15T15:47:14Z</time>
      </trkpt>
      <trkpt lat="37.420161000" lon="-4.460597000">
        <ele>497.0</ele>
        <time>2020-10-15T15:47:16Z</time>
      </trkpt>
      <trkpt lat="37.420105000" lon="-4.460725000">
        <ele>497.1</ele>
        <time>2020-10-15T15:47:18Z</time>
      </trkpt>
      <trkpt lat="37.420051000" lon="-4.460849000">
        <ele>497.2</ele>
        <time>2020-10-15T15:47:20Z</time>
      </trkpt>
      <trkpt lat="37.419996000" lon="-4.460975000">
        <ele>497.4</ele>
        <time>2020-10-15T15:47:22Z</time>
      </trkpt>
      <trkpt lat="37.419947000" lon="-4.461108000">
        <ele>497.5</ele>
        <time>2020-10-15T15:47:24Z</time>
      </trkpt>
      <trkpt lat="37.419910000" lon="-4.461246000">
        <ele>497.6</ele>
        <time>2020-10-15T15:47:26Z</time>
      </trkpt>
      <trkpt lat="37.419874000" lon="-4.461378000">
        <ele>497.7</ele>
        <time>2020-10-15T15:47:28Z</time>
      </trkpt>
      <trkpt lat="37.419839000" lon="-4.461512000">
        <ele>497.7</ele>
        <time>2020-10-15T15:47:30Z</time>
      </trkpt>
      <trkpt lat="37.419806000" lon="-4.461649000">
        <ele>497.7</ele>
        <time>2020-10-15T15:47:32Z</time>
      </trkpt>
      <trkpt lat="37.419783000" lon="-4.461783000">
        <ele>497.6</ele>
        <time>2020-10-15T15:47:34Z</time>
      </trkpt>
      <trkpt lat="37.419758000" lon="-4.461911000">
        <ele>497.5</ele>
        <time>2020-10-15T15:47:36Z</time>
      </trkpt>
      <trkpt lat="37.419741000" lon="-4.462035000">
        <ele>497.5</ele>
        <time>2020-10-15T15:47:38Z</time>
      </trkpt>
      <trkpt lat="37.419726000" lon="-4.462169000">
        <ele>497.3</ele>
        <time>2020-10-15T15:47:40Z</time>
      </trkpt>
      <trkpt lat="37.419707000" lon="-4.462294000">
        <ele>497.0</ele>
        <time>2020-10-15T15:47:42Z</time>
      </trkpt>
      <trkpt lat="37.419698000" lon="-4.462421000">
        <ele>496.6</ele>
        <time>2020-10-15T15:47:44Z</time>
      </trkpt>
      <trkpt lat="37.419692000" lon="-4.462545000">
        <ele>496.2</ele>
        <time>2020-10-15T15:47:46Z</time>
      </trkpt>
      <trkpt lat="37.419679000" lon="-4.462666000">
        <ele>495.7</ele>
        <time>2020-10-15T15:47:48Z</time>
      </trkpt>
      <trkpt lat="37.419660000" lon="-4.462798000">
        <ele>495.3</ele>
        <time>2020-10-15T15:47:50Z</time>
      </trkpt>
      <trkpt lat="37.419647000" lon="-4.462931000">
        <ele>494.8</ele>
        <time>2020-10-15T15:47:52Z</time>
      </trkpt>
      <trkpt lat="37.419634000" lon="-4.463069000">
        <ele>494.4</ele>
        <time>2020-10-15T15:47:54Z</time>
      </trkpt>
      <trkpt lat="37.419624000" lon="-4.463212000">
        <ele>494.0</ele>
        <time>2020-10-15T15:47:56Z</time>
      </trkpt>
      <trkpt lat="37.419616000" lon="-4.463356000">
        <ele>493.6</ele>
        <time>2020-10-15T15:47:58Z</time>
      </trkpt>
      <trkpt lat="37.419606000" lon="-4.463505000">
        <ele>493.4</ele>
        <time>2020-10-15T15:48:00Z</time>
      </trkpt>
      <trkpt lat="37.419591000" lon="-4.463649000">
        <ele>493.2</ele>
        <time>2020-10-15T15:48:02Z</time>
      </trkpt>
      <trkpt lat="37.419575000" lon="-4.463799000">
        <ele>493.1</ele>
        <time>2020-10-15T15:48:04Z</time>
      </trkpt>
      <trkpt lat="37.419560000" lon="-4.463946000">
        <ele>493.1</ele>
        <time>2020-10-15T15:48:06Z</time>
      </trkpt>
      <trkpt lat="37.419542000" lon="-4.464094000">
        <ele>493.2</ele>
        <time>2020-10-15T15:48:08Z</time>
      </trkpt>
      <trkpt lat="37.419524000" lon="-4.464240000">
        <ele>493.3</ele>
        <time>2020-10-15T15:48:10Z</time>
      </trkpt>
      <trkpt lat="37.419499000" lon="-4.464390000">
        <ele>493.4</ele>
        <time>2020-10-15T15:48:12Z</time>
      </trkpt>
      <trkpt lat="37.419466000" lon="-4.464544000">
        <ele>493.5</ele>
        <time>2020-10-15T15:48:14Z</time>
      </trkpt>
      <trkpt lat="37.419429000" lon="-4.464692000">
        <ele>493.5</ele>
        <time>2020-10-15T15:48:16Z</time>
      </trkpt>
      <trkpt lat="37.419400000" lon="-4.464851000">
        <ele>493.6</ele>
        <time>2020-10-15T15:48:18Z</time>
      </trkpt>
      <trkpt lat="37.419360000" lon="-4.465000000">
        <ele>493.7</ele>
        <time>2020-10-15T15:48:20Z</time>
      </trkpt>
      <trkpt lat="37.419317000" lon="-4.465153000">
        <ele>493.8</ele>
        <time>2020-10-15T15:48:22Z</time>
      </trkpt>
      <trkpt lat="37.419266000" lon="-4.465300000">
        <ele>493.9</ele>
        <time>2020-10-15T15:48:24Z</time>
      </trkpt>
      <trkpt lat="37.419219000" lon="-4.465452000">
        <ele>494.0</ele>
        <time>2020-10-15T15:48:26Z</time>
      </trkpt>
      <trkpt lat="37.419159000" lon="-4.465598000">
        <ele>493.9</ele>
        <time>2020-10-15T15:48:28Z</time>
      </trkpt>
      <trkpt lat="37.419099000" lon="-4.465730000">
        <ele>493.7</ele>
        <time>2020-10-15T15:48:30Z</time>
      </trkpt>
      <trkpt lat="37.419032000" lon="-4.465860000">
        <ele>493.5</ele>
        <time>2020-10-15T15:48:32Z</time>
      </trkpt>
      <trkpt lat="37.418959000" lon="-4.465988000">
        <ele>493.3</ele>
        <time>2020-10-15T15:48:34Z</time>
      </trkpt>
      <trkpt lat="37.418888000" lon="-4.466120000">
        <ele>493.0</ele>
        <time>2020-10-15T15:48:36Z</time>
      </trkpt>
      <trkpt lat="37.418811000" lon="-4.466245000">
        <ele>492.8</ele>
        <time>2020-10-15T15:48:38Z</time>
      </trkpt>
      <trkpt lat="37.418729000" lon="-4.466368000">
        <ele>492.6</ele>
        <time>2020-10-15T15:48:40Z</time>
      </trkpt>
      <trkpt lat="37.418640000" lon="-4.466490000">
        <ele>492.4</ele>
        <time>2020-10-15T15:48:42Z</time>
      </trkpt>
      <trkpt lat="37.418552000" lon="-4.466614000">
        <ele>492.1</ele>
        <time>2020-10-15T15:48:44Z</time>
      </trkpt>
      <trkpt lat="37.418460000" lon="-4.466744000">
        <ele>491.7</ele>
        <time>2020-10-15T15:48:46Z</time>
      </trkpt>
      <trkpt lat="37.418372000" lon="-4.466867000">
        <ele>491.3</ele>
        <time>2020-10-15T15:48:48Z</time>
      </trkpt>
      <trkpt lat="37.418283000" lon="-4.466995000">
        <ele>490.8</ele>
        <time>2020-10-15T15:48:50Z</time>
      </trkpt>
      <trkpt lat="37.418191000" lon="-4.467124000">
        <ele>490.5</ele>
        <time>2020-10-15T15:48:52Z</time>
      </trkpt>
      <trkpt lat="37.418102000" lon="-4.467253000">
        <ele>490.0</ele>
        <time>2020-10-15T15:48:54Z</time>
      </trkpt>
      <trkpt lat="37.418012000" lon="-4.467382000">
        <ele>489.6</ele>
        <time>2020-10-15T15:48:56Z</time>
      </trkpt>
      <trkpt lat="37.417929000" lon="-4.467517000">
        <ele>489.3</ele>
        <time>2020-10-15T15:48:58Z</time>
      </trkpt>
      <trkpt lat="37.417844000" lon="-4.467658000">
        <ele>488.8</ele>
        <time>2020-10-15T15:49:00Z</time>
      </trkpt>
      <trkpt lat="37.417754000" lon="-4.467790000">
        <ele>488.4</ele>
        <time>2020-10-15T15:49:02Z</time>
      </trkpt>
      <trkpt lat="37.417681000" lon="-4.467938000">
        <ele>488.0</ele>
        <time>2020-10-15T15:49:04Z</time>
      </trkpt>
      <trkpt lat="37.417606000" lon="-4.468076000">
        <ele>487.6</ele>
        <time>2020-10-15T15:49:06Z</time>
      </trkpt>
      <trkpt lat="37.417540000" lon="-4.468222000">
        <ele>487.4</ele>
        <time>2020-10-15T15:49:08Z</time>
      </trkpt>
      <trkpt lat="37.417479000" lon="-4.468363000">
        <ele>487.2</ele>
        <time>2020-10-15T15:49:10Z</time>
      </trkpt>
      <trkpt lat="37.417423000" lon="-4.468509000">
        <ele>487.1</ele>
        <time>2020-10-15T15:49:12Z</time>
      </trkpt>
      <trkpt lat="37.417368000" lon="-4.468654000">
        <ele>487.0</ele>
        <time>2020-10-15T15:49:14Z</time>
      </trkpt>
      <trkpt lat="37.417321000" lon="-4.468798000">
        <ele>486.9</ele>
        <time>2020-10-15T15:49:16Z</time>
      </trkpt>
      <trkpt lat="37.417281000" lon="-4.468937000">
        <ele>486.8</ele>
        <time>2020-10-15T15:49:18Z</time>
      </trkpt>
      <trkpt lat="37.417245000" lon="-4.469070000">
        <ele>486.6</ele>
        <time>2020-10-15T15:49:20Z</time>
      </trkpt>
      <trkpt lat="37.417206000" lon="-4.469200000">
        <ele>486.5</ele>
        <time>2020-10-15T15:49:22Z</time>
      </trkpt>
      <trkpt lat="37.417178000" lon="-4.469337000">
        <ele>486.2</ele>
        <time>2020-10-15T15:49:24Z</time>
      </trkpt>
      <trkpt lat="37.417151000" lon="-4.469480000">
        <ele>485.9</ele>
        <time>2020-10-15T15:49:26Z</time>
      </trkpt>
      <trkpt lat="37.417126000" lon="-4.469608000">
        <ele>485.6</ele>
        <time>2020-10-15T15:49:28Z</time>
      </trkpt>
      <trkpt lat="37.417107000" lon="-4.469733000">
        <ele>485.4</ele>
        <time>2020-10-15T15:49:30Z</time>
      </trkpt>
      <trkpt lat="37.417091000" lon="-4.469863000">
        <ele>485.1</ele>
        <time>2020-10-15T15:49:32Z</time>
      </trkpt>
      <trkpt lat="37.417076000" lon="-4.469988000">
        <ele>484.8</ele>
        <time>2020-10-15T15:49:34Z</time>
      </trkpt>
      <trkpt lat="37.417068000" lon="-4.470106000">
        <ele>484.5</ele>
        <time>2020-10-15T15:49:36Z</time>
      </trkpt>
      <trkpt lat="37.417058000" lon="-4.470208000">
        <ele>484.2</ele>
        <time>2020-10-15T15:50:00Z</time>
      </trkpt>
      <trkpt lat="37.417050000" lon="-4.470322000">
        <ele>483.9</ele>
        <time>2020-10-15T15:50:05Z</time>
      </trkpt>
      <trkpt lat="37.417047000" lon="-4.470448000">
        <ele>483.7</ele>
        <time>2020-10-15T15:50:08Z</time>
      </trkpt>
      <trkpt lat="37.417044000" lon="-4.470592000">
        <ele>483.5</ele>
        <time>2020-10-15T15:50:11Z</time>
      </trkpt>
      <trkpt lat="37.417050000" lon="-4.470699000">
        <ele>483.5</ele>
        <time>2020-10-15T15:50:13Z</time>
      </trkpt>
      <trkpt lat="37.417057000" lon="-4.470804000">
        <ele>483.4</ele>
        <time>2020-10-15T15:50:15Z</time>
      </trkpt>
      <trkpt lat="37.417075000" lon="-4.470953000">
        <ele>483.3</ele>
        <time>2020-10-15T15:50:18Z</time>
      </trkpt>
      <trkpt lat="37.417090000" lon="-4.471105000">
        <ele>483.1</ele>
        <time>2020-10-15T15:50:21Z</time>
      </trkpt>
      <trkpt lat="37.417101000" lon="-4.471210000">
        <ele>482.9</ele>
        <time>2020-10-15T15:50:23Z</time>
      </trkpt>
      <trkpt lat="37.417116000" lon="-4.471336000">
        <ele>482.6</ele>
        <time>2020-10-15T15:50:25Z</time>
      </trkpt>
      <trkpt lat="37.417138000" lon="-4.471459000">
        <ele>482.5</ele>
        <time>2020-10-15T15:50:27Z</time>
      </trkpt>
      <trkpt lat="37.417159000" lon="-4.471588000">
        <ele>482.3</ele>
        <time>2020-10-15T15:50:29Z</time>
      </trkpt>
      <trkpt lat="37.417183000" lon="-4.471713000">
        <ele>482.1</ele>
        <time>2020-10-15T15:50:31Z</time>
      </trkpt>
      <trkpt lat="37.417205000" lon="-4.471839000">
        <ele>481.9</ele>
        <time>2020-10-15T15:50:33Z</time>
      </trkpt>
      <trkpt lat="37.417228000" lon="-4.471964000">
        <ele>481.6</ele>
        <time>2020-10-15T15:50:35Z</time>
      </trkpt>
      <trkpt lat="37.417253000" lon="-4.472094000">
        <ele>481.4</ele>
        <time>2020-10-15T15:50:37Z</time>
      </trkpt>
      <trkpt lat="37.417290000" lon="-4.472209000">
        <ele>481.1</ele>
        <time>2020-10-15T15:50:39Z</time>
      </trkpt>
      <trkpt lat="37.417339000" lon="-4.472326000">
        <ele>480.7</ele>
        <time>2020-10-15T15:50:41Z</time>
      </trkpt>
      <trkpt lat="37.417391000" lon="-4.472449000">
        <ele>480.5</ele>
        <time>2020-10-15T15:50:43Z</time>
      </trkpt>
      <trkpt lat="37.417435000" lon="-4.472573000">
        <ele>480.2</ele>
        <time>2020-10-15T15:50:45Z</time>
      </trkpt>
      <trkpt lat="37.417478000" lon="-4.472695000">
        <ele>479.9</ele>
        <time>2020-10-15T15:50:47Z</time>
      </trkpt>
      <trkpt lat="37.417517000" lon="-4.472811000">
        <ele>479.6</ele>
        <time>2020-10-15T15:50:49Z</time>
      </trkpt>
      <trkpt lat="37.417556000" lon="-4.472931000">
        <ele>479.4</ele>
        <time>2020-10-15T15:50:51Z</time>
      </trkpt>
      <trkpt lat="37.417600000" lon="-4.473050000">
        <ele>479.1</ele>
        <time>2020-10-15T15:50:53Z</time>
      </trkpt>
      <trkpt lat="37.417647000" lon="-4.473167000">
        <ele>478.8</ele>
        <time>2020-10-15T15:50:55Z</time>
      </trkpt>
      <trkpt lat="37.417686000" lon="-4.473284000">
        <ele>478.6</ele>
        <time>2020-10-15T15:50:57Z</time>
      </trkpt>
      <trkpt lat="37.417722000" lon="-4.473402000">
        <ele>478.4</ele>
        <time>2020-10-15T15:50:59Z</time>
      </trkpt>
      <trkpt lat="37.417765000" lon="-4.473519000">
        <ele>478.0</ele>
        <time>2020-10-15T15:51:01Z</time>
      </trkpt>
      <trkpt lat="37.417811000" lon="-4.473634000">
        <ele>477.7</ele>
        <time>2020-10-15T15:51:03Z</time>
      </trkpt>
      <trkpt lat="37.417853000" lon="-4.473751000">
        <ele>477.5</ele>
        <time>2020-10-15T15:51:05Z</time>
      </trkpt>
      <trkpt lat="37.417896000" lon="-4.473869000">
        <ele>477.2</ele>
        <time>2020-10-15T15:51:07Z</time>
      </trkpt>
      <trkpt lat="37.417938000" lon="-4.473990000">
        <ele>477.0</ele>
        <time>2020-10-15T15:51:09Z</time>
      </trkpt>
      <trkpt lat="37.417979000" lon="-4.474113000">
        <ele>476.8</ele>
        <time>2020-10-15T15:51:11Z</time>
      </trkpt>
      <trkpt lat="37.418018000" lon="-4.474225000">
        <ele>476.7</ele>
        <time>2020-10-15T15:51:13Z</time>
      </trkpt>
      <trkpt lat="37.418063000" lon="-4.474337000">
        <ele>476.6</ele>
        <time>2020-10-15T15:51:15Z</time>
      </trkpt>
      <trkpt lat="37.418101000" lon="-4.474458000">
        <ele>476.5</ele>
        <time>2020-10-15T15:51:17Z</time>
      </trkpt>
      <trkpt lat="37.418148000" lon="-4.474578000">
        <ele>476.5</ele>
        <time>2020-10-15T15:51:19Z</time>
      </trkpt>
      <trkpt lat="37.418194000" lon="-4.474704000">
        <ele>476.5</ele>
        <time>2020-10-15T15:51:21Z</time>
      </trkpt>
      <trkpt lat="37.418237000" lon="-4.474826000">
        <ele>476.5</ele>
        <time>2020-10-15T15:51:23Z</time>
      </trkpt>
      <trkpt lat="37.418281000" lon="-4.474954000">
        <ele>476.7</ele>
        <time>2020-10-15T15:51:25Z</time>
      </trkpt>
      <trkpt lat="37.418327000" lon="-4.475074000">
        <ele>476.9</ele>
        <time>2020-10-15T15:51:27Z</time>
      </trkpt>
      <trkpt lat="37.418367000" lon="-4.475193000">
        <ele>477.1</ele>
        <time>2020-10-15T15:51:29Z</time>
      </trkpt>
      <trkpt lat="37.418410000" lon="-4.475317000">
        <ele>477.3</ele>
        <time>2020-10-15T15:51:31Z</time>
      </trkpt>
      <trkpt lat="37.418455000" lon="-4.475441000">
        <ele>477.4</ele>
        <time>2020-10-15T15:51:33Z</time>
      </trkpt>
      <trkpt lat="37.418496000" lon="-4.475564000">
        <ele>477.4</ele>
        <time>2020-10-15T15:51:35Z</time>
      </trkpt>
      <trkpt lat="37.418538000" lon="-4.475684000">
        <ele>477.4</ele>
        <time>2020-10-15T15:51:37Z</time>
      </trkpt>
      <trkpt lat="37.418580000" lon="-4.475802000">
        <ele>477.4</ele>
        <time>2020-10-15T15:51:39Z</time>
      </trkpt>
      <trkpt lat="37.418610000" lon="-4.475914000">
        <ele>477.4</ele>
        <time>2020-10-15T15:51:41Z</time>
      </trkpt>
      <trkpt lat="37.418656000" lon="-4.476026000">
        <ele>477.4</ele>
        <time>2020-10-15T15:51:43Z</time>
      </trkpt>
      <trkpt lat="37.418695000" lon="-4.476140000">
        <ele>477.4</ele>
        <time>2020-10-15T15:51:45Z</time>
      </trkpt>
      <trkpt lat="37.418732000" lon="-4.476257000">
        <ele>477.3</ele>
        <time>2020-10-15T15:51:47Z</time>
      </trkpt>
      <trkpt lat="37.418771000" lon="-4.476372000">
        <ele>477.2</ele>
        <time>2020-10-15T15:51:49Z</time>
      </trkpt>
      <trkpt lat="37.418810000" lon="-4.476497000">
        <ele>477.1</ele>
        <time>2020-10-15T15:51:51Z</time>
      </trkpt>
      <trkpt lat="37.418851000" lon="-4.476614000">
        <ele>477.0</ele>
        <time>2020-10-15T15:51:53Z</time>
      </trkpt>
      <trkpt lat="37.418896000" lon="-4.476734000">
        <ele>477.0</ele>
        <time>2020-10-15T15:51:55Z</time>
      </trkpt>
      <trkpt lat="37.418937000" lon="-4.476856000">
        <ele>476.9</ele>
        <time>2020-10-15T15:51:57Z</time>
      </trkpt>
      <trkpt lat="37.418975000" lon="-4.476979000">
        <ele>476.8</ele>
        <time>2020-10-15T15:51:59Z</time>
      </trkpt>
      <trkpt lat="37.419018000" lon="-4.477101000">
        <ele>476.6</ele>
        <time>2020-10-15T15:52:01Z</time>
      </trkpt>
      <trkpt lat="37.419067000" lon="-4.477223000">
        <ele>476.5</ele>
        <time>2020-10-15T15:52:03Z</time>
      </trkpt>
      <trkpt lat="37.419113000" lon="-4.477347000">
        <ele>476.3</ele>
        <time>2020-10-15T15:52:05Z</time>
      </trkpt>
      <trkpt lat="37.419161000" lon="-4.477480000">
        <ele>476.1</ele>
        <time>2020-10-15T15:52:07Z</time>
      </trkpt>
      <trkpt lat="37.419213000" lon="-4.477612000">
        <ele>475.9</ele>
        <time>2020-10-15T15:52:09Z</time>
      </trkpt>
      <trkpt lat="37.419258000" lon="-4.477746000">
        <ele>475.7</ele>
        <time>2020-10-15T15:52:11Z</time>
      </trkpt>
      <trkpt lat="37.419303000" lon="-4.477878000">
        <ele>475.5</ele>
        <time>2020-10-15T15:52:13Z</time>
      </trkpt>
      <trkpt lat="37.419350000" lon="-4.478010000">
        <ele>475.3</ele>
        <time>2020-10-15T15:52:15Z</time>
      </trkpt>
      <trkpt lat="37.419402000" lon="-4.478139000">
        <ele>475.0</ele>
        <time>2020-10-15T15:52:17Z</time>
      </trkpt>
      <trkpt lat="37.419445000" lon="-4.478268000">
        <ele>474.8</ele>
        <time>2020-10-15T15:52:20Z</time>
      </trkpt>
      <trkpt lat="37.419489000" lon="-4.478400000">
        <ele>474.5</ele>
        <time>2020-10-15T15:52:21Z</time>
      </trkpt>
      <trkpt lat="37.419536000" lon="-4.478532000">
        <ele>474.4</ele>
        <time>2020-10-15T15:52:23Z</time>
      </trkpt>
      <trkpt lat="37.419587000" lon="-4.478666000">
        <ele>474.2</ele>
        <time>2020-10-15T15:52:25Z</time>
      </trkpt>
      <trkpt lat="37.419637000" lon="-4.478803000">
        <ele>474.0</ele>
        <time>2020-10-15T15:52:27Z</time>
      </trkpt>
      <trkpt lat="37.419681000" lon="-4.478932000">
        <ele>473.8</ele>
        <time>2020-10-15T15:52:29Z</time>
      </trkpt>
      <trkpt lat="37.419728000" lon="-4.479062000">
        <ele>473.7</ele>
        <time>2020-10-15T15:52:31Z</time>
      </trkpt>
      <trkpt lat="37.419769000" lon="-4.479198000">
        <ele>473.7</ele>
        <time>2020-10-15T15:52:33Z</time>
      </trkpt>
      <trkpt lat="37.419815000" lon="-4.479333000">
        <ele>473.7</ele>
        <time>2020-10-15T15:52:35Z</time>
      </trkpt>
      <trkpt lat="37.419863000" lon="-4.479469000">
        <ele>473.8</ele>
        <time>2020-10-15T15:52:37Z</time>
      </trkpt>
      <trkpt lat="37.419907000" lon="-4.479599000">
        <ele>473.9</ele>
        <time>2020-10-15T15:52:39Z</time>
      </trkpt>
      <trkpt lat="37.419958000" lon="-4.479732000">
        <ele>474.0</ele>
        <time>2020-10-15T15:52:41Z</time>
      </trkpt>
      <trkpt lat="37.420013000" lon="-4.479876000">
        <ele>474.2</ele>
        <time>2020-10-15T15:52:43Z</time>
      </trkpt>
      <trkpt lat="37.420058000" lon="-4.480007000">
        <ele>474.4</ele>
        <time>2020-10-15T15:52:45Z</time>
      </trkpt>
      <trkpt lat="37.420099000" lon="-4.480138000">
        <ele>474.5</ele>
        <time>2020-10-15T15:52:47Z</time>
      </trkpt>
      <trkpt lat="37.420143000" lon="-4.480263000">
        <ele>474.5</ele>
        <time>2020-10-15T15:52:49Z</time>
      </trkpt>
      <trkpt lat="37.420189000" lon="-4.480395000">
        <ele>474.6</ele>
        <time>2020-10-15T15:52:51Z</time>
      </trkpt>
      <trkpt lat="37.420234000" lon="-4.480526000">
        <ele>474.5</ele>
        <time>2020-10-15T15:52:53Z</time>
      </trkpt>
      <trkpt lat="37.420277000" lon="-4.480654000">
        <ele>474.4</ele>
        <time>2020-10-15T15:52:55Z</time>
      </trkpt>
      <trkpt lat="37.420317000" lon="-4.480780000">
        <ele>474.2</ele>
        <time>2020-10-15T15:52:57Z</time>
      </trkpt>
      <trkpt lat="37.420351000" lon="-4.480897000">
        <ele>474.0</ele>
        <time>2020-10-15T15:52:59Z</time>
      </trkpt>
      <trkpt lat="37.420381000" lon="-4.481012000">
        <ele>473.7</ele>
        <time>2020-10-15T15:53:01Z</time>
      </trkpt>
      <trkpt lat="37.420414000" lon="-4.481132000">
        <ele>473.5</ele>
        <time>2020-10-15T15:53:03Z</time>
      </trkpt>
      <trkpt lat="37.420454000" lon="-4.481246000">
        <ele>473.1</ele>
        <time>2020-10-15T15:53:05Z</time>
      </trkpt>
      <trkpt lat="37.420490000" lon="-4.481357000">
        <ele>472.6</ele>
        <time>2020-10-15T15:53:07Z</time>
      </trkpt>
      <trkpt lat="37.420522000" lon="-4.481458000">
        <ele>472.3</ele>
        <time>2020-10-15T15:53:09Z</time>
      </trkpt>
      <trkpt lat="37.420561000" lon="-4.481597000">
        <ele>471.9</ele>
        <time>2020-10-15T15:53:12Z</time>
      </trkpt>
      <trkpt lat="37.420583000" lon="-4.481706000">
        <ele>471.5</ele>
        <time>2020-10-15T15:53:15Z</time>
      </trkpt>
      <trkpt lat="37.420614000" lon="-4.481805000">
        <ele>471.3</ele>
        <time>2020-10-15T15:53:19Z</time>
      </trkpt>
      <trkpt lat="37.420610000" lon="-4.481925000">
        <ele>471.0</ele>
        <time>2020-10-15T15:53:25Z</time>
      </trkpt>
      <trkpt lat="37.420633000" lon="-4.482051000">
        <ele>470.7</ele>
        <time>2020-10-15T15:53:29Z</time>
      </trkpt>
      <trkpt lat="37.420652000" lon="-4.482163000">
        <ele>470.5</ele>
        <time>2020-10-15T15:53:32Z</time>
      </trkpt>
      <trkpt lat="37.420672000" lon="-4.482277000">
        <ele>470.3</ele>
        <time>2020-10-15T15:53:35Z</time>
      </trkpt>
      <trkpt lat="37.420693000" lon="-4.482404000">
        <ele>470.1</ele>
        <time>2020-10-15T15:53:38Z</time>
      </trkpt>
      <trkpt lat="37.420713000" lon="-4.482503000">
        <ele>469.9</ele>
        <time>2020-10-15T15:53:41Z</time>
      </trkpt>
      <trkpt lat="37.420741000" lon="-4.482609000">
        <ele>469.8</ele>
        <time>2020-10-15T15:55:48Z</time>
      </trkpt>
      <trkpt lat="37.420749000" lon="-4.482737000">
        <ele>469.6</ele>
        <time>2020-10-15T15:55:52Z</time>
      </trkpt>
      <trkpt lat="37.420749000" lon="-4.482851000">
        <ele>469.5</ele>
        <time>2020-10-15T15:55:55Z</time>
      </trkpt>
      <trkpt lat="37.420745000" lon="-4.482986000">
        <ele>469.3</ele>
        <time>2020-10-15T15:55:58Z</time>
      </trkpt>
      <trkpt lat="37.420740000" lon="-4.483129000">
        <ele>469.1</ele>
        <time>2020-10-15T15:56:01Z</time>
      </trkpt>
      <trkpt lat="37.420729000" lon="-4.483256000">
        <ele>468.9</ele>
        <time>2020-10-15T15:56:04Z</time>
      </trkpt>
      <trkpt lat="37.420726000" lon="-4.483387000">
        <ele>468.7</ele>
        <time>2020-10-15T15:56:07Z</time>
      </trkpt>
      <trkpt lat="37.420724000" lon="-4.483503000">
        <ele>468.5</ele>
        <time>2020-10-15T15:56:10Z</time>
      </trkpt>
      <trkpt lat="37.420728000" lon="-4.483629000">
        <ele>468.2</ele>
        <time>2020-10-15T15:56:14Z</time>
      </trkpt>
      <trkpt lat="37.420728000" lon="-4.483741000">
        <ele>468.0</ele>
        <time>2020-10-15T15:56:18Z</time>
      </trkpt>
      <trkpt lat="37.420724000" lon="-4.483877000">
        <ele>467.9</ele>
        <time>2020-10-15T15:56:21Z</time>
      </trkpt>
      <trkpt lat="37.420712000" lon="-4.484025000">
        <ele>467.8</ele>
        <time>2020-10-15T15:56:24Z</time>
      </trkpt>
      <trkpt lat="37.420701000" lon="-4.484134000">
        <ele>467.8</ele>
        <time>2020-10-15T15:56:27Z</time>
      </trkpt>
      <trkpt lat="37.420657000" lon="-4.484046000">
        <ele>467.9</ele>
        <time>2020-10-15T15:56:40Z</time>
      </trkpt>
      <trkpt lat="37.420673000" lon="-4.483911000">
        <ele>468.0</ele>
        <time>2020-10-15T15:56:43Z</time>
      </trkpt>
      <trkpt lat="37.420707000" lon="-4.483760000">
        <ele>468.2</ele>
        <time>2020-10-15T15:56:46Z</time>
      </trkpt>
      <trkpt lat="37.420722000" lon="-4.483641000">
        <ele>468.4</ele>
        <time>2020-10-15T15:56:49Z</time>
      </trkpt>
      <trkpt lat="37.420736000" lon="-4.483529000">
        <ele>468.5</ele>
        <time>2020-10-15T15:56:50Z</time>
      </trkpt>
      <trkpt lat="37.420750000" lon="-4.483392000">
        <ele>468.8</ele>
        <time>2020-10-15T15:56:53Z</time>
      </trkpt>
      <trkpt lat="37.420757000" lon="-4.483257000">
        <ele>469.1</ele>
        <time>2020-10-15T15:56:56Z</time>
      </trkpt>
      <trkpt lat="37.420757000" lon="-4.483099000">
        <ele>469.3</ele>
        <time>2020-10-15T15:56:59Z</time>
      </trkpt>
      <trkpt lat="37.420743000" lon="-4.482958000">
        <ele>469.5</ele>
        <time>2020-10-15T15:57:01Z</time>
      </trkpt>
      <trkpt lat="37.420736000" lon="-4.482845000">
        <ele>469.6</ele>
        <time>2020-10-15T15:57:03Z</time>
      </trkpt>
      <trkpt lat="37.420731000" lon="-4.482715000">
        <ele>469.8</ele>
        <time>2020-10-15T15:57:06Z</time>
      </trkpt>
      <trkpt lat="37.420717000" lon="-4.482602000">
        <ele>469.9</ele>
        <time>2020-10-15T15:57:09Z</time>
      </trkpt>
      <trkpt lat="37.420704000" lon="-4.482459000">
        <ele>470.0</ele>
        <time>2020-10-15T15:57:12Z</time>
      </trkpt>
      <trkpt lat="37.420696000" lon="-4.482354000">
        <ele>470.0</ele>
        <time>2020-10-15T15:57:14Z</time>
      </trkpt>
      <trkpt lat="37.420685000" lon="-4.482212000">
        <ele>470.0</ele>
        <time>2020-10-15T15:57:17Z</time>
      </trkpt>
      <trkpt lat="37.420674000" lon="-4.482094000">
        <ele>470.1</ele>
        <time>2020-10-15T15:57:20Z</time>
      </trkpt>
      <trkpt lat="37.420668000" lon="-4.481978000">
        <ele>470.2</ele>
        <time>2020-10-15T15:57:23Z</time>
      </trkpt>
      <trkpt lat="37.420624000" lon="-4.481887000">
        <ele>470.3</ele>
        <time>2020-10-15T15:57:38Z</time>
      </trkpt>
      <trkpt lat="37.420540000" lon="-4.481900000">
        <ele>470.4</ele>
        <time>2020-10-15T15:57:41Z</time>
      </trkpt>
      <trkpt lat="37.420437000" lon="-4.481944000">
        <ele>470.4</ele>
        <time>2020-10-15T15:57:43Z</time>
      </trkpt>
      <trkpt lat="37.420339000" lon="-4.481972000">
        <ele>470.4</ele>
        <time>2020-10-15T15:57:45Z</time>
      </trkpt>
      <trkpt lat="37.420229000" lon="-4.482003000">
        <ele>470.3</ele>
        <time>2020-10-15T15:57:47Z</time>
      </trkpt>
      <trkpt lat="37.420111000" lon="-4.482032000">
        <ele>470.2</ele>
        <time>2020-10-15T15:57:49Z</time>
      </trkpt>
      <trkpt lat="37.419986000" lon="-4.482071000">
        <ele>470.0</ele>
        <time>2020-10-15T15:57:51Z</time>
      </trkpt>
      <trkpt lat="37.419851000" lon="-4.482123000">
        <ele>469.7</ele>
        <time>2020-10-15T15:57:53Z</time>
      </trkpt>
      <trkpt lat="37.419724000" lon="-4.482187000">
        <ele>469.4</ele>
        <time>2020-10-15T15:57:55Z</time>
      </trkpt>
      <trkpt lat="37.419602000" lon="-4.482239000">
        <ele>468.8</ele>
        <time>2020-10-15T15:57:57Z</time>
      </trkpt>
      <trkpt lat="37.419493000" lon="-4.482287000">
        <ele>468.2</ele>
        <time>2020-10-15T15:57:59Z</time>
      </trkpt>
      <trkpt lat="37.419396000" lon="-4.482345000">
        <ele>467.5</ele>
        <time>2020-10-15T15:58:01Z</time>
      </trkpt>
      <trkpt lat="37.419318000" lon="-4.482396000">
        <ele>466.8</ele>
        <time>2020-10-15T15:58:03Z</time>
      </trkpt>
      <trkpt lat="37.419235000" lon="-4.482449000">
        <ele>466.3</ele>
        <time>2020-10-15T15:58:07Z</time>
      </trkpt>
      <trkpt lat="37.419158000" lon="-4.482496000">
        <ele>465.7</ele>
        <time>2020-10-15T15:58:10Z</time>
      </trkpt>
      <trkpt lat="37.419054000" lon="-4.482550000">
        <ele>465.3</ele>
        <time>2020-10-15T15:58:13Z</time>
      </trkpt>
      <trkpt lat="37.418971000" lon="-4.482602000">
        <ele>464.8</ele>
        <time>2020-10-15T15:58:23Z</time>
      </trkpt>
      <trkpt lat="37.418888000" lon="-4.482654000">
        <ele>464.5</ele>
        <time>2020-10-15T15:58:26Z</time>
      </trkpt>
      <trkpt lat="37.418813000" lon="-4.482701000">
        <ele>464.2</ele>
        <time>2020-10-15T15:58:28Z</time>
      </trkpt>
      <trkpt lat="37.418714000" lon="-4.482759000">
        <ele>464.0</ele>
        <time>2020-10-15T15:58:30Z</time>
      </trkpt>
      <trkpt lat="37.418615000" lon="-4.482813000">
        <ele>463.8</ele>
        <time>2020-10-15T15:58:32Z</time>
      </trkpt>
      <trkpt lat="37.418515000" lon="-4.482883000">
        <ele>463.7</ele>
        <time>2020-10-15T15:58:34Z</time>
      </trkpt>
      <trkpt lat="37.418412000" lon="-4.482956000">
        <ele>463.5</ele>
        <time>2020-10-15T15:58:36Z</time>
      </trkpt>
      <trkpt lat="37.418299000" lon="-4.483015000">
        <ele>463.5</ele>
        <time>2020-10-15T15:58:38Z</time>
      </trkpt>
      <trkpt lat="37.418192000" lon="-4.483078000">
        <ele>463.1</ele>
        <time>2020-10-15T15:58:40Z</time>
      </trkpt>
      <trkpt lat="37.418077000" lon="-4.483160000">
        <ele>462.6</ele>
        <time>2020-10-15T15:58:42Z</time>
      </trkpt>
      <trkpt lat="37.417959000" lon="-4.483228000">
        <ele>462.2</ele>
        <time>2020-10-15T15:58:44Z</time>
      </trkpt>
      <trkpt lat="37.417834000" lon="-4.483308000">
        <ele>461.7</ele>
        <time>2020-10-15T15:58:46Z</time>
      </trkpt>
      <trkpt lat="37.417711000" lon="-4.483392000">
        <ele>461.3</ele>
        <time>2020-10-15T15:58:48Z</time>
      </trkpt>
      <trkpt lat="37.417583000" lon="-4.483467000">
        <ele>460.8</ele>
        <time>2020-10-15T15:58:50Z</time>
      </trkpt>
      <trkpt lat="37.417453000" lon="-4.483543000">
        <ele>460.3</ele>
        <time>2020-10-15T15:58:52Z</time>
      </trkpt>
      <trkpt lat="37.417325000" lon="-4.483627000">
        <ele>459.7</ele>
        <time>2020-10-15T15:58:54Z</time>
      </trkpt>
      <trkpt lat="37.417190000" lon="-4.483702000">
        <ele>459.2</ele>
        <time>2020-10-15T15:58:56Z</time>
      </trkpt>
      <trkpt lat="37.417056000" lon="-4.483780000">
        <ele>458.7</ele>
        <time>2020-10-15T15:58:58Z</time>
      </trkpt>
      <trkpt lat="37.416930000" lon="-4.483858000">
        <ele>458.3</ele>
        <time>2020-10-15T15:59:00Z</time>
      </trkpt>
      <trkpt lat="37.416805000" lon="-4.483934000">
        <ele>458.0</ele>
        <time>2020-10-15T15:59:02Z</time>
      </trkpt>
      <trkpt lat="37.416681000" lon="-4.483995000">
        <ele>457.8</ele>
        <time>2020-10-15T15:59:04Z</time>
      </trkpt>
      <trkpt lat="37.416566000" lon="-4.484046000">
        <ele>457.6</ele>
        <time>2020-10-15T15:59:06Z</time>
      </trkpt>
      <trkpt lat="37.416453000" lon="-4.484087000">
        <ele>457.5</ele>
        <time>2020-10-15T15:59:08Z</time>
      </trkpt>
      <trkpt lat="37.416355000" lon="-4.484122000">
        <ele>457.5</ele>
        <time>2020-10-15T15:59:10Z</time>
      </trkpt>
      <trkpt lat="37.416266000" lon="-4.484168000">
        <ele>457.5</ele>
        <time>2020-10-15T15:59:12Z</time>
      </trkpt>
      <trkpt lat="37.416160000" lon="-4.484176000">
        <ele>457.7</ele>
        <time>2020-10-15T15:59:14Z</time>
      </trkpt>
      <trkpt lat="37.416050000" lon="-4.484173000">
        <ele>458.0</ele>
        <time>2020-10-15T15:59:16Z</time>
      </trkpt>
      <trkpt lat="37.415956000" lon="-4.484159000">
        <ele>458.3</ele>
        <time>2020-10-15T15:59:18Z</time>
      </trkpt>
      <trkpt lat="37.415864000" lon="-4.484129000">
        <ele>458.5</ele>
        <time>2020-10-15T15:59:20Z</time>
      </trkpt>
      <trkpt lat="37.415776000" lon="-4.484107000">
        <ele>458.9</ele>
        <time>2020-10-15T15:59:22Z</time>
      </trkpt>
      <trkpt lat="37.415691000" lon="-4.484103000">
        <ele>459.3</ele>
        <time>2020-10-15T15:59:24Z</time>
      </trkpt>
      <trkpt lat="37.415601000" lon="-4.484100000">
        <ele>459.6</ele>
        <time>2020-10-15T15:59:26Z</time>
      </trkpt>
      <trkpt lat="37.415511000" lon="-4.484115000">
        <ele>460.0</ele>
        <time>2020-10-15T15:59:28Z</time>
      </trkpt>
      <trkpt lat="37.415429000" lon="-4.484161000">
        <ele>460.3</ele>
        <time>2020-10-15T15:59:30Z</time>
      </trkpt>
      <trkpt lat="37.415354000" lon="-4.484201000">
        <ele>460.5</ele>
        <time>2020-10-15T15:59:32Z</time>
      </trkpt>
      <trkpt lat="37.415282000" lon="-4.484248000">
        <ele>460.6</ele>
        <time>2020-10-15T15:59:34Z</time>
      </trkpt>
      <trkpt lat="37.415192000" lon="-4.484339000">
        <ele>460.6</ele>
        <time>2020-10-15T15:59:37Z</time>
      </trkpt>
      <trkpt lat="37.415123000" lon="-4.484466000">
        <ele>460.6</ele>
        <time>2020-10-15T15:59:40Z</time>
      </trkpt>
      <trkpt lat="37.415088000" lon="-4.484560000">
        <ele>460.7</ele>
        <time>2020-10-15T15:59:42Z</time>
      </trkpt>
      <trkpt lat="37.415049000" lon="-4.484702000">
        <ele>460.8</ele>
        <time>2020-10-15T15:59:45Z</time>
      </trkpt>
      <trkpt lat="37.415026000" lon="-4.484802000">
        <ele>460.8</ele>
        <time>2020-10-15T15:59:47Z</time>
      </trkpt>
      <trkpt lat="37.415002000" lon="-4.484903000">
        <ele>460.9</ele>
        <time>2020-10-15T15:59:49Z</time>
      </trkpt>
      <trkpt lat="37.414970000" lon="-4.485049000">
        <ele>461.0</ele>
        <time>2020-10-15T15:59:52Z</time>
      </trkpt>
      <trkpt lat="37.414954000" lon="-4.485150000">
        <ele>461.1</ele>
        <time>2020-10-15T15:59:54Z</time>
      </trkpt>
      <trkpt lat="37.414939000" lon="-4.485255000">
        <ele>461.2</ele>
        <time>2020-10-15T15:59:56Z</time>
      </trkpt>
      <trkpt lat="37.414920000" lon="-4.485356000">
        <ele>461.3</ele>
        <time>2020-10-15T15:59:58Z</time>
      </trkpt>
      <trkpt lat="37.414896000" lon="-4.485462000">
        <ele>461.4</ele>
        <time>2020-10-15T16:00:00Z</time>
      </trkpt>
      <trkpt lat="37.414872000" lon="-4.485567000">
        <ele>461.5</ele>
        <time>2020-10-15T16:00:02Z</time>
      </trkpt>
      <trkpt lat="37.414850000" lon="-4.485672000">
        <ele>461.7</ele>
        <time>2020-10-15T16:00:04Z</time>
      </trkpt>
      <trkpt lat="37.414825000" lon="-4.485776000">
        <ele>461.8</ele>
        <time>2020-10-15T16:00:06Z</time>
      </trkpt>
      <trkpt lat="37.414800000" lon="-4.485881000">
        <ele>461.9</ele>
        <time>2020-10-15T16:00:08Z</time>
      </trkpt>
      <trkpt lat="37.414778000" lon="-4.485987000">
        <ele>462.1</ele>
        <time>2020-10-15T16:00:10Z</time>
      </trkpt>
      <trkpt lat="37.414746000" lon="-4.486101000">
        <ele>462.2</ele>
        <time>2020-10-15T16:00:12Z</time>
      </trkpt>
      <trkpt lat="37.414716000" lon="-4.486208000">
        <ele>462.3</ele>
        <time>2020-10-15T16:00:14Z</time>
      </trkpt>
      <trkpt lat="37.414683000" lon="-4.486311000">
        <ele>462.4</ele>
        <time>2020-10-15T16:00:16Z</time>
      </trkpt>
      <trkpt lat="37.414647000" lon="-4.486423000">
        <ele>462.5</ele>
        <time>2020-10-15T16:00:18Z</time>
      </trkpt>
      <trkpt lat="37.414612000" lon="-4.486529000">
        <ele>462.5</ele>
        <time>2020-10-15T16:00:20Z</time>
      </trkpt>
      <trkpt lat="37.414581000" lon="-4.486632000">
        <ele>462.7</ele>
        <time>2020-10-15T16:00:22Z</time>
      </trkpt>
      <trkpt lat="37.414541000" lon="-4.486736000">
        <ele>462.9</ele>
        <time>2020-10-15T16:00:24Z</time>
      </trkpt>
      <trkpt lat="37.414498000" lon="-4.486842000">
        <ele>463.1</ele>
        <time>2020-10-15T16:00:26Z</time>
      </trkpt>
      <trkpt lat="37.414459000" lon="-4.486940000">
        <ele>463.3</ele>
        <time>2020-10-15T16:00:28Z</time>
      </trkpt>
      <trkpt lat="37.414428000" lon="-4.487048000">
        <ele>463.5</ele>
        <time>2020-10-15T16:00:30Z</time>
      </trkpt>
      <trkpt lat="37.414391000" lon="-4.487161000">
        <ele>463.5</ele>
        <time>2020-10-15T16:00:32Z</time>
      </trkpt>
      <trkpt lat="37.414349000" lon="-4.487265000">
        <ele>463.6</ele>
        <time>2020-10-15T16:00:34Z</time>
      </trkpt>
      <trkpt lat="37.414302000" lon="-4.487374000">
        <ele>463.7</ele>
        <time>2020-10-15T16:00:36Z</time>
      </trkpt>
      <trkpt lat="37.414253000" lon="-4.487480000">
        <ele>463.8</ele>
        <time>2020-10-15T16:00:38Z</time>
      </trkpt>
      <trkpt lat="37.414218000" lon="-4.487577000">
        <ele>464.0</ele>
        <time>2020-10-15T16:00:40Z</time>
      </trkpt>
      <trkpt lat="37.414174000" lon="-4.487677000">
        <ele>464.1</ele>
        <time>2020-10-15T16:00:42Z</time>
      </trkpt>
      <trkpt lat="37.414139000" lon="-4.487771000">
        <ele>464.1</ele>
        <time>2020-10-15T16:00:44Z</time>
      </trkpt>
      <trkpt lat="37.414090000" lon="-4.487858000">
        <ele>464.1</ele>
        <time>2020-10-15T16:00:46Z</time>
      </trkpt>
      <trkpt lat="37.414048000" lon="-4.487962000">
        <ele>464.1</ele>
        <time>2020-10-15T16:00:48Z</time>
      </trkpt>
      <trkpt lat="37.414011000" lon="-4.488059000">
        <ele>464.1</ele>
        <time>2020-10-15T16:00:50Z</time>
      </trkpt>
      <trkpt lat="37.413966000" lon="-4.488158000">
        <ele>464.1</ele>
        <time>2020-10-15T16:00:52Z</time>
      </trkpt>
      <trkpt lat="37.413928000" lon="-4.488254000">
        <ele>464.1</ele>
        <time>2020-10-15T16:00:54Z</time>
      </trkpt>
      <trkpt lat="37.413890000" lon="-4.488350000">
        <ele>464.1</ele>
        <time>2020-10-15T16:00:56Z</time>
      </trkpt>
      <trkpt lat="37.413847000" lon="-4.488449000">
        <ele>464.0</ele>
        <time>2020-10-15T16:00:58Z</time>
      </trkpt>
      <trkpt lat="37.413793000" lon="-4.488578000">
        <ele>463.9</ele>
        <time>2020-10-15T16:01:01Z</time>
      </trkpt>
      <trkpt lat="37.413750000" lon="-4.488717000">
        <ele>463.7</ele>
        <time>2020-10-15T16:01:04Z</time>
      </trkpt>
      <trkpt lat="37.413707000" lon="-4.488824000">
        <ele>463.5</ele>
        <time>2020-10-15T16:01:06Z</time>
      </trkpt>
      <trkpt lat="37.413667000" lon="-4.488932000">
        <ele>463.4</ele>
        <time>2020-10-15T16:01:08Z</time>
      </trkpt>
      <trkpt lat="37.413624000" lon="-4.489049000">
        <ele>463.2</ele>
        <time>2020-10-15T16:01:10Z</time>
      </trkpt>
      <trkpt lat="37.413582000" lon="-4.489160000">
        <ele>463.0</ele>
        <time>2020-10-15T16:01:12Z</time>
      </trkpt>
      <trkpt lat="37.413543000" lon="-4.489285000">
        <ele>462.8</ele>
        <time>2020-10-15T16:01:14Z</time>
      </trkpt>
      <trkpt lat="37.413499000" lon="-4.489427000">
        <ele>462.6</ele>
        <time>2020-10-15T16:01:17Z</time>
      </trkpt>
      <trkpt lat="37.413460000" lon="-4.489537000">
        <ele>462.5</ele>
        <time>2020-10-15T16:01:19Z</time>
      </trkpt>
      <trkpt lat="37.413417000" lon="-4.489657000">
        <ele>462.5</ele>
        <time>2020-10-15T16:01:21Z</time>
      </trkpt>
      <trkpt lat="37.413380000" lon="-4.489779000">
        <ele>462.6</ele>
        <time>2020-10-15T16:01:23Z</time>
      </trkpt>
      <trkpt lat="37.413341000" lon="-4.489895000">
        <ele>462.8</ele>
        <time>2020-10-15T16:01:25Z</time>
      </trkpt>
      <trkpt lat="37.413306000" lon="-4.490013000">
        <ele>463.0</ele>
        <time>2020-10-15T16:01:27Z</time>
      </trkpt>
      <trkpt lat="37.413270000" lon="-4.490132000">
        <ele>463.2</ele>
        <time>2020-10-15T16:01:29Z</time>
      </trkpt>
      <trkpt lat="37.413228000" lon="-4.490252000">
        <ele>463.4</ele>
        <time>2020-10-15T16:01:31Z</time>
      </trkpt>
      <trkpt lat="37.413186000" lon="-4.490368000">
        <ele>463.5</ele>
        <time>2020-10-15T16:01:33Z</time>
      </trkpt>
      <trkpt lat="37.413138000" lon="-4.490487000">
        <ele>463.5</ele>
        <time>2020-10-15T16:01:35Z</time>
      </trkpt>
      <trkpt lat="37.413092000" lon="-4.490609000">
        <ele>463.5</ele>
        <time>2020-10-15T16:01:37Z</time>
      </trkpt>
      <trkpt lat="37.413055000" lon="-4.490726000">
        <ele>463.5</ele>
        <time>2020-10-15T16:01:39Z</time>
      </trkpt>
      <trkpt lat="37.413025000" lon="-4.490841000">
        <ele>463.4</ele>
        <time>2020-10-15T16:01:41Z</time>
      </trkpt>
      <trkpt lat="37.412992000" lon="-4.490949000">
        <ele>463.3</ele>
        <time>2020-10-15T16:01:43Z</time>
      </trkpt>
      <trkpt lat="37.412956000" lon="-4.491052000">
        <ele>463.2</ele>
        <time>2020-10-15T16:01:45Z</time>
      </trkpt>
      <trkpt lat="37.412915000" lon="-4.491152000">
        <ele>463.0</ele>
        <time>2020-10-15T16:01:47Z</time>
      </trkpt>
      <trkpt lat="37.412855000" lon="-4.491231000">
        <ele>462.8</ele>
        <time>2020-10-15T16:01:49Z</time>
      </trkpt>
      <trkpt lat="37.412782000" lon="-4.491280000">
        <ele>462.7</ele>
        <time>2020-10-15T16:01:51Z</time>
      </trkpt>
      <trkpt lat="37.412705000" lon="-4.491326000">
        <ele>462.6</ele>
        <time>2020-10-15T16:01:53Z</time>
      </trkpt>
      <trkpt lat="37.412618000" lon="-4.491353000">
        <ele>462.6</ele>
        <time>2020-10-15T16:01:55Z</time>
      </trkpt>
      <trkpt lat="37.412514000" lon="-4.491386000">
        <ele>462.8</ele>
        <time>2020-10-15T16:01:58Z</time>
      </trkpt>
      <trkpt lat="37.412404000" lon="-4.491399000">
        <ele>463.0</ele>
        <time>2020-10-15T16:02:01Z</time>
      </trkpt>
      <trkpt lat="37.412294000" lon="-4.491414000">
        <ele>463.2</ele>
        <time>2020-10-15T16:02:04Z</time>
      </trkpt>
      <trkpt lat="37.412196000" lon="-4.491437000">
        <ele>463.5</ele>
        <time>2020-10-15T16:02:07Z</time>
      </trkpt>
      <trkpt lat="37.412107000" lon="-4.491461000">
        <ele>463.6</ele>
        <time>2020-10-15T16:02:10Z</time>
      </trkpt>
      <trkpt lat="37.412025000" lon="-4.491482000">
        <ele>463.9</ele>
        <time>2020-10-15T16:02:13Z</time>
      </trkpt>
      <trkpt lat="37.411920000" lon="-4.491494000">
        <ele>464.1</ele>
        <time>2020-10-15T16:02:17Z</time>
      </trkpt>
      <trkpt lat="37.411824000" lon="-4.491502000">
        <ele>464.2</ele>
        <time>2020-10-15T16:02:21Z</time>
      </trkpt>
      <trkpt lat="37.411730000" lon="-4.491520000">
        <ele>464.2</ele>
        <time>2020-10-15T16:02:25Z</time>
      </trkpt>
      <trkpt lat="37.411627000" lon="-4.491524000">
        <ele>464.1</ele>
        <time>2020-10-15T16:02:29Z</time>
      </trkpt>
      <trkpt lat="37.411545000" lon="-4.491547000">
        <ele>464.0</ele>
        <time>2020-10-15T16:02:33Z</time>
      </trkpt>
      <trkpt lat="37.411504000" lon="-4.491658000">
        <ele>463.8</ele>
        <time>2020-10-15T16:02:39Z</time>
      </trkpt>
      <trkpt lat="37.411509000" lon="-4.491770000">
        <ele>463.7</ele>
        <time>2020-10-15T16:02:43Z</time>
      </trkpt>
      <trkpt lat="37.411535000" lon="-4.491908000">
        <ele>463.7</ele>
        <time>2020-10-15T16:02:46Z</time>
      </trkpt>
      <trkpt lat="37.411555000" lon="-4.492016000">
        <ele>463.7</ele>
        <time>2020-10-15T16:02:48Z</time>
      </trkpt>
      <trkpt lat="37.411556000" lon="-4.492134000">
        <ele>463.8</ele>
        <time>2020-10-15T16:02:51Z</time>
      </trkpt>
      <trkpt lat="37.411497000" lon="-4.492055000">
        <ele>464.0</ele>
        <time>2020-10-15T16:03:17Z</time>
      </trkpt>
      <trkpt lat="37.411470000" lon="-4.491956000">
        <ele>464.4</ele>
        <time>2020-10-15T16:03:23Z</time>
      </trkpt>
      <trkpt lat="37.411442000" lon="-4.491854000">
        <ele>464.8</ele>
        <time>2020-10-15T16:03:27Z</time>
      </trkpt>
      <trkpt lat="37.411414000" lon="-4.491748000">
        <ele>465.5</ele>
        <time>2020-10-15T16:03:30Z</time>
      </trkpt>
      <trkpt lat="37.411386000" lon="-4.491630000">
        <ele>466.2</ele>
        <time>2020-10-15T16:03:33Z</time>
      </trkpt>
      <trkpt lat="37.411360000" lon="-4.491496000">
        <ele>466.9</ele>
        <time>2020-10-15T16:03:36Z</time>
      </trkpt>
      <trkpt lat="37.411327000" lon="-4.491358000">
        <ele>467.6</ele>
        <time>2020-10-15T16:03:39Z</time>
      </trkpt>
      <trkpt lat="37.411284000" lon="-4.491235000">
        <ele>468.3</ele>
        <time>2020-10-15T16:03:42Z</time>
      </trkpt>
      <trkpt lat="37.411240000" lon="-4.491116000">
        <ele>468.8</ele>
        <time>2020-10-15T16:03:45Z</time>
      </trkpt>
      <trkpt lat="37.411212000" lon="-4.490999000">
        <ele>469.3</ele>
        <time>2020-10-15T16:03:48Z</time>
      </trkpt>
      <trkpt lat="37.411188000" lon="-4.490889000">
        <ele>469.7</ele>
        <time>2020-10-15T16:03:51Z</time>
      </trkpt>
      <trkpt lat="37.411160000" lon="-4.490781000">
        <ele>470.0</ele>
        <time>2020-10-15T16:03:54Z</time>
      </trkpt>
      <trkpt lat="37.411134000" lon="-4.490669000">
        <ele>470.3</ele>
        <time>2020-10-15T16:03:57Z</time>
      </trkpt>
      <trkpt lat="37.411105000" lon="-4.490556000">
        <ele>470.5</ele>
        <time>2020-10-15T16:04:00Z</time>
      </trkpt>
      <trkpt lat="37.411075000" lon="-4.490443000">
        <ele>470.8</ele>
        <time>2020-10-15T16:04:03Z</time>
      </trkpt>
      <trkpt lat="37.411049000" lon="-4.490338000">
        <ele>471.1</ele>
        <time>2020-10-15T16:04:06Z</time>
      </trkpt>
      <trkpt lat="37.411024000" lon="-4.490228000">
        <ele>471.5</ele>
        <time>2020-10-15T16:04:09Z</time>
      </trkpt>
      <trkpt lat="37.411002000" lon="-4.490109000">
        <ele>471.8</ele>
        <time>2020-10-15T16:04:13Z</time>
      </trkpt>
      <trkpt lat="37.410974000" lon="-4.490012000">
        <ele>472.2</ele>
        <time>2020-10-15T16:04:16Z</time>
      </trkpt>
      <trkpt lat="37.410945000" lon="-4.489916000">
        <ele>472.6</ele>
        <time>2020-10-15T16:04:19Z</time>
      </trkpt>
      <trkpt lat="37.410925000" lon="-4.489782000">
        <ele>473.1</ele>
        <time>2020-10-15T16:04:23Z</time>
      </trkpt>
      <trkpt lat="37.410907000" lon="-4.489671000">
        <ele>473.5</ele>
        <time>2020-10-15T16:04:26Z</time>
      </trkpt>
      <trkpt lat="37.410877000" lon="-4.489547000">
        <ele>474.0</ele>
        <time>2020-10-15T16:04:29Z</time>
      </trkpt>
      <trkpt lat="37.410840000" lon="-4.489417000">
        <ele>474.5</ele>
        <time>2020-10-15T16:04:33Z</time>
      </trkpt>
      <trkpt lat="37.410795000" lon="-4.489289000">
        <ele>474.9</ele>
        <time>2020-10-15T16:04:35Z</time>
      </trkpt>
      <trkpt lat="37.410761000" lon="-4.489176000">
        <ele>475.4</ele>
        <time>2020-10-15T16:04:38Z</time>
      </trkpt>
      <trkpt lat="37.410723000" lon="-4.489059000">
        <ele>475.8</ele>
        <time>2020-10-15T16:04:41Z</time>
      </trkpt>
      <trkpt lat="37.410669000" lon="-4.488941000">
        <ele>476.2</ele>
        <time>2020-10-15T16:04:44Z</time>
      </trkpt>
      <trkpt lat="37.410617000" lon="-4.488830000">
        <ele>476.6</ele>
        <time>2020-10-15T16:04:47Z</time>
      </trkpt>
      <trkpt lat="37.410573000" lon="-4.488724000">
        <ele>477.1</ele>
        <time>2020-10-15T16:04:50Z</time>
      </trkpt>
      <trkpt lat="37.410523000" lon="-4.488608000">
        <ele>477.5</ele>
        <time>2020-10-15T16:04:53Z</time>
      </trkpt>
      <trkpt lat="37.410483000" lon="-4.488499000">
        <ele>478.1</ele>
        <time>2020-10-15T16:04:56Z</time>
      </trkpt>
      <trkpt lat="37.410431000" lon="-4.488380000">
        <ele>478.6</ele>
        <time>2020-10-15T16:04:59Z</time>
      </trkpt>
      <trkpt lat="37.410379000" lon="-4.488253000">
        <ele>479.3</ele>
        <time>2020-10-15T16:05:02Z</time>
      </trkpt>
      <trkpt lat="37.410319000" lon="-4.488135000">
        <ele>479.9</ele>
        <time>2020-10-15T16:05:05Z</time>
      </trkpt>
      <trkpt lat="37.410273000" lon="-4.488007000">
        <ele>480.5</ele>
        <time>2020-10-15T16:05:08Z</time>
      </trkpt>
      <trkpt lat="37.410229000" lon="-4.487887000">
        <ele>480.9</ele>
        <time>2020-10-15T16:05:11Z</time>
      </trkpt>
      <trkpt lat="37.410200000" lon="-4.487758000">
        <ele>481.4</ele>
        <time>2020-10-15T16:05:14Z</time>
      </trkpt>
      <trkpt lat="37.410170000" lon="-4.487616000">
        <ele>481.8</ele>
        <time>2020-10-15T16:05:17Z</time>
      </trkpt>
      <trkpt lat="37.410134000" lon="-4.487476000">
        <ele>482.2</ele>
        <time>2020-10-15T16:05:20Z</time>
      </trkpt>
      <trkpt lat="37.410110000" lon="-4.487340000">
        <ele>482.7</ele>
        <time>2020-10-15T16:05:23Z</time>
      </trkpt>
      <trkpt lat="37.410080000" lon="-4.487210000">
        <ele>483.3</ele>
        <time>2020-10-15T16:05:26Z</time>
      </trkpt>
      <trkpt lat="37.410048000" lon="-4.487082000">
        <ele>483.9</ele>
        <time>2020-10-15T16:05:29Z</time>
      </trkpt>
      <trkpt lat="37.410018000" lon="-4.486977000">
        <ele>484.5</ele>
        <time>2020-10-15T16:05:32Z</time>
      </trkpt>
      <trkpt lat="37.409991000" lon="-4.486879000">
        <ele>485.2</ele>
        <time>2020-10-15T16:05:35Z</time>
      </trkpt>
      <trkpt lat="37.409904000" lon="-4.486845000">
        <ele>485.8</ele>
        <time>2020-10-15T16:05:42Z</time>
      </trkpt>
      <trkpt lat="37.409818000" lon="-4.486882000">
        <ele>486.5</ele>
        <time>2020-10-15T16:05:45Z</time>
      </trkpt>
      <trkpt lat="37.409737000" lon="-4.486914000">
        <ele>487.3</ele>
        <time>2020-10-15T16:05:48Z</time>
      </trkpt>
      <trkpt lat="37.409654000" lon="-4.486948000">
        <ele>488.0</ele>
        <time>2020-10-15T16:05:51Z</time>
      </trkpt>
      <trkpt lat="37.409576000" lon="-4.486997000">
        <ele>488.7</ele>
        <time>2020-10-15T16:05:54Z</time>
      </trkpt>
      <trkpt lat="37.409493000" lon="-4.487058000">
        <ele>489.5</ele>
        <time>2020-10-15T16:05:57Z</time>
      </trkpt>
      <trkpt lat="37.409387000" lon="-4.487129000">
        <ele>490.0</ele>
        <time>2020-10-15T16:06:00Z</time>
      </trkpt>
      <trkpt lat="37.409297000" lon="-4.487183000">
        <ele>490.5</ele>
        <time>2020-10-15T16:06:03Z</time>
      </trkpt>
      <trkpt lat="37.409209000" lon="-4.487237000">
        <ele>490.7</ele>
        <time>2020-10-15T16:06:06Z</time>
      </trkpt>
      <trkpt lat="37.409114000" lon="-4.487291000">
        <ele>491.0</ele>
        <time>2020-10-15T16:06:09Z</time>
      </trkpt>
      <trkpt lat="37.409035000" lon="-4.487348000">
        <ele>491.2</ele>
        <time>2020-10-15T16:06:12Z</time>
      </trkpt>
      <trkpt lat="37.408965000" lon="-4.487403000">
        <ele>491.3</ele>
        <time>2020-10-15T16:06:15Z</time>
      </trkpt>
      <trkpt lat="37.408892000" lon="-4.487455000">
        <ele>491.3</ele>
        <time>2020-10-15T16:06:19Z</time>
      </trkpt>
      <trkpt lat="37.408801000" lon="-4.487492000">
        <ele>491.3</ele>
        <time>2020-10-15T16:06:25Z</time>
      </trkpt>
      <trkpt lat="37.408712000" lon="-4.487520000">
        <ele>491.3</ele>
        <time>2020-10-15T16:06:28Z</time>
      </trkpt>
      <trkpt lat="37.408628000" lon="-4.487548000">
        <ele>491.4</ele>
        <time>2020-10-15T16:06:31Z</time>
      </trkpt>
      <trkpt lat="37.408549000" lon="-4.487580000">
        <ele>491.5</ele>
        <time>2020-10-15T16:06:34Z</time>
      </trkpt>
      <trkpt lat="37.408468000" lon="-4.487588000">
        <ele>491.5</ele>
        <time>2020-10-15T16:06:37Z</time>
      </trkpt>
      <trkpt lat="37.408367000" lon="-4.487585000">
        <ele>491.7</ele>
        <time>2020-10-15T16:06:44Z</time>
      </trkpt>
      <trkpt lat="37.408257000" lon="-4.487622000">
        <ele>491.9</ele>
        <time>2020-10-15T16:06:48Z</time>
      </trkpt>
      <trkpt lat="37.408151000" lon="-4.487632000">
        <ele>492.0</ele>
        <time>2020-10-15T16:06:51Z</time>
      </trkpt>
      <trkpt lat="37.408045000" lon="-4.487647000">
        <ele>492.1</ele>
        <time>2020-10-15T16:06:54Z</time>
      </trkpt>
      <trkpt lat="37.407946000" lon="-4.487666000">
        <ele>492.3</ele>
        <time>2020-10-15T16:06:57Z</time>
      </trkpt>
      <trkpt lat="37.407845000" lon="-4.487692000">
        <ele>492.5</ele>
        <time>2020-10-15T16:07:00Z</time>
      </trkpt>
      <trkpt lat="37.407756000" lon="-4.487715000">
        <ele>492.8</ele>
        <time>2020-10-15T16:07:03Z</time>
      </trkpt>
      <trkpt lat="37.407661000" lon="-4.487737000">
        <ele>493.1</ele>
        <time>2020-10-15T16:07:07Z</time>
      </trkpt>
      <trkpt lat="37.407587000" lon="-4.487657000">
        <ele>493.3</ele>
        <time>2020-10-15T16:07:12Z</time>
      </trkpt>
      <trkpt lat="37.407583000" lon="-4.487540000">
        <ele>493.5</ele>
        <time>2020-10-15T16:07:16Z</time>
      </trkpt>
      <trkpt lat="37.407589000" lon="-4.487404000">
        <ele>493.8</ele>
        <time>2020-10-15T16:07:20Z</time>
      </trkpt>
      <trkpt lat="37.407602000" lon="-4.487273000">
        <ele>494.0</ele>
        <time>2020-10-15T16:07:24Z</time>
      </trkpt>
      <trkpt lat="37.407623000" lon="-4.487143000">
        <ele>494.2</ele>
        <time>2020-10-15T16:07:28Z</time>
      </trkpt>
      <trkpt lat="37.407630000" lon="-4.487021000">
        <ele>494.4</ele>
        <time>2020-10-15T16:07:32Z</time>
      </trkpt>
      <trkpt lat="37.407645000" lon="-4.486891000">
        <ele>494.5</ele>
        <time>2020-10-15T16:07:36Z</time>
      </trkpt>
      <trkpt lat="37.407663000" lon="-4.486787000">
        <ele>494.6</ele>
        <time>2020-10-15T16:07:39Z</time>
      </trkpt>
      <trkpt lat="37.407680000" lon="-4.486677000">
        <ele>494.7</ele>
        <time>2020-10-15T16:07:42Z</time>
      </trkpt>
      <trkpt lat="37.407698000" lon="-4.486571000">
        <ele>494.8</ele>
        <time>2020-10-15T16:07:45Z</time>
      </trkpt>
      <trkpt lat="37.407714000" lon="-4.486471000">
        <ele>495.0</ele>
        <time>2020-10-15T16:07:48Z</time>
      </trkpt>
      <trkpt lat="37.407739000" lon="-4.486361000">
        <ele>495.2</ele>
        <time>2020-10-15T16:07:52Z</time>
      </trkpt>
      <trkpt lat="37.407754000" lon="-4.486242000">
        <ele>495.4</ele>
        <time>2020-10-15T16:07:56Z</time>
      </trkpt>
      <trkpt lat="37.407774000" lon="-4.486140000">
        <ele>495.5</ele>
        <time>2020-10-15T16:08:00Z</time>
      </trkpt>
      <trkpt lat="37.407783000" lon="-4.486023000">
        <ele>495.5</ele>
        <time>2020-10-15T16:08:05Z</time>
      </trkpt>
      <trkpt lat="37.407691000" lon="-4.485963000">
        <ele>495.6</ele>
        <time>2020-10-15T16:08:10Z</time>
      </trkpt>
      <trkpt lat="37.407591000" lon="-4.485940000">
        <ele>495.7</ele>
        <time>2020-10-15T16:08:15Z</time>
      </trkpt>
      <trkpt lat="37.407484000" lon="-4.485925000">
        <ele>495.8</ele>
        <time>2020-10-15T16:08:19Z</time>
      </trkpt>
      <trkpt lat="37.407385000" lon="-4.485908000">
        <ele>495.9</ele>
        <time>2020-10-15T16:08:23Z</time>
      </trkpt>
      <trkpt lat="37.407296000" lon="-4.485887000">
        <ele>496.1</ele>
        <time>2020-10-15T16:08:26Z</time>
      </trkpt>
      <trkpt lat="37.407208000" lon="-4.485873000">
        <ele>496.4</ele>
        <time>2020-10-15T16:08:29Z</time>
      </trkpt>
      <trkpt lat="37.407126000" lon="-4.485870000">
        <ele>496.5</ele>
        <time>2020-10-15T16:08:32Z</time>
      </trkpt>
      <trkpt lat="37.407029000" lon="-4.485872000">
        <ele>496.8</ele>
        <time>2020-10-15T16:08:35Z</time>
      </trkpt>
      <trkpt lat="37.406926000" lon="-4.485893000">
        <ele>497.1</ele>
        <time>2020-10-15T16:08:38Z</time>
      </trkpt>
      <trkpt lat="37.406823000" lon="-4.485918000">
        <ele>497.5</ele>
        <time>2020-10-15T16:08:41Z</time>
      </trkpt>
      <trkpt lat="37.406724000" lon="-4.485945000">
        <ele>497.8</ele>
        <time>2020-10-15T16:08:44Z</time>
      </trkpt>
      <trkpt lat="37.406636000" lon="-4.485970000">
        <ele>498.3</ele>
        <time>2020-10-15T16:08:47Z</time>
      </trkpt>
      <trkpt lat="37.406537000" lon="-4.486006000">
        <ele>498.7</ele>
        <time>2020-10-15T16:08:51Z</time>
      </trkpt>
      <trkpt lat="37.406437000" lon="-4.486044000">
        <ele>499.2</ele>
        <time>2020-10-15T16:08:55Z</time>
      </trkpt>
      <trkpt lat="37.406355000" lon="-4.486044000">
        <ele>499.6</ele>
        <time>2020-10-15T16:08:59Z</time>
      </trkpt>
      <trkpt lat="37.406273000" lon="-4.486034000">
        <ele>500.0</ele>
        <time>2020-10-15T16:09:03Z</time>
      </trkpt>
      <trkpt lat="37.406184000" lon="-4.486111000">
        <ele>500.3</ele>
        <time>2020-10-15T16:09:07Z</time>
      </trkpt>
      <trkpt lat="37.406107000" lon="-4.486178000">
        <ele>500.6</ele>
        <time>2020-10-15T16:09:10Z</time>
      </trkpt>
      <trkpt lat="37.406029000" lon="-4.486252000">
        <ele>500.9</ele>
        <time>2020-10-15T16:09:13Z</time>
      </trkpt>
      <trkpt lat="37.405957000" lon="-4.486326000">
        <ele>501.0</ele>
        <time>2020-10-15T16:09:16Z</time>
      </trkpt>
      <trkpt lat="37.405884000" lon="-4.486410000">
        <ele>501.2</ele>
        <time>2020-10-15T16:09:19Z</time>
      </trkpt>
      <trkpt lat="37.405817000" lon="-4.486490000">
        <ele>501.4</ele>
        <time>2020-10-15T16:09:22Z</time>
      </trkpt>
      <trkpt lat="37.405757000" lon="-4.486567000">
        <ele>501.5</ele>
        <time>2020-10-15T16:09:25Z</time>
      </trkpt>
      <trkpt lat="37.405700000" lon="-4.486651000">
        <ele>501.5</ele>
        <time>2020-10-15T16:09:29Z</time>
      </trkpt>
      <trkpt lat="37.405700000" lon="-4.486764000">
        <ele>501.6</ele>
        <time>2020-10-15T16:09:33Z</time>
      </trkpt>
      <trkpt lat="37.405639000" lon="-4.486697000">
        <ele>501.7</ele>
        <time>2020-10-15T16:14:48Z</time>
      </trkpt>
      <trkpt lat="37.405633000" lon="-4.486587000">
        <ele>501.8</ele>
        <time>2020-10-15T16:14:51Z</time>
      </trkpt>
      <trkpt lat="37.405634000" lon="-4.486477000">
        <ele>501.9</ele>
        <time>2020-10-15T16:14:54Z</time>
      </trkpt>
      <trkpt lat="37.405630000" lon="-4.486357000">
        <ele>501.9</ele>
        <time>2020-10-15T16:14:57Z</time>
      </trkpt>
      <trkpt lat="37.405630000" lon="-4.486248000">
        <ele>501.9</ele>
        <time>2020-10-15T16:15:00Z</time>
      </trkpt>
      <trkpt lat="37.405627000" lon="-4.486142000">
        <ele>502.0</ele>
        <time>2020-10-15T16:15:03Z</time>
      </trkpt>
      <trkpt lat="37.405625000" lon="-4.486017000">
        <ele>502.0</ele>
        <time>2020-10-15T16:15:07Z</time>
      </trkpt>
      <trkpt lat="37.405623000" lon="-4.485904000">
        <ele>502.0</ele>
        <time>2020-10-15T16:15:10Z</time>
      </trkpt>
      <trkpt lat="37.405637000" lon="-4.485773000">
        <ele>502.0</ele>
        <time>2020-10-15T16:15:13Z</time>
      </trkpt>
      <trkpt lat="37.405651000" lon="-4.485642000">
        <ele>502.0</ele>
        <time>2020-10-15T16:15:16Z</time>
      </trkpt>
      <trkpt lat="37.405663000" lon="-4.485506000">
        <ele>502.0</ele>
        <time>2020-10-15T16:15:20Z</time>
      </trkpt>
      <trkpt lat="37.405671000" lon="-4.485388000">
        <ele>502.0</ele>
        <time>2020-10-15T16:15:23Z</time>
      </trkpt>
      <trkpt lat="37.405685000" lon="-4.485246000">
        <ele>502.1</ele>
        <time>2020-10-15T16:15:26Z</time>
      </trkpt>
      <trkpt lat="37.405701000" lon="-4.485104000">
        <ele>502.3</ele>
        <time>2020-10-15T16:15:29Z</time>
      </trkpt>
      <trkpt lat="37.405714000" lon="-4.484970000">
        <ele>502.5</ele>
        <time>2020-10-15T16:15:32Z</time>
      </trkpt>
      <trkpt lat="37.405738000" lon="-4.484840000">
        <ele>502.8</ele>
        <time>2020-10-15T16:15:35Z</time>
      </trkpt>
      <trkpt lat="37.405754000" lon="-4.484716000">
        <ele>503.1</ele>
        <time>2020-10-15T16:15:38Z</time>
      </trkpt>
      <trkpt lat="37.405767000" lon="-4.484582000">
        <ele>503.4</ele>
        <time>2020-10-15T16:15:41Z</time>
      </trkpt>
      <trkpt lat="37.405785000" lon="-4.484443000">
        <ele>503.5</ele>
        <time>2020-10-15T16:15:44Z</time>
      </trkpt>
      <trkpt lat="37.405802000" lon="-4.484312000">
        <ele>503.6</ele>
        <time>2020-10-15T16:15:47Z</time>
      </trkpt>
      <trkpt lat="37.405821000" lon="-4.484196000">
        <ele>503.6</ele>
        <time>2020-10-15T16:15:50Z</time>
      </trkpt>
      <trkpt lat="37.405844000" lon="-4.484084000">
        <ele>503.5</ele>
        <time>2020-10-15T16:15:53Z</time>
      </trkpt>
      <trkpt lat="37.405869000" lon="-4.483971000">
        <ele>503.4</ele>
        <time>2020-10-15T16:15:56Z</time>
      </trkpt>
      <trkpt lat="37.405899000" lon="-4.483844000">
        <ele>503.1</ele>
        <time>2020-10-15T16:15:59Z</time>
      </trkpt>
      <trkpt lat="37.405929000" lon="-4.483695000">
        <ele>502.6</ele>
        <time>2020-10-15T16:16:02Z</time>
      </trkpt>
      <trkpt lat="37.405958000" lon="-4.483595000">
        <ele>502.1</ele>
        <time>2020-10-15T16:16:04Z</time>
      </trkpt>
      <trkpt lat="37.405996000" lon="-4.483457000">
        <ele>501.5</ele>
        <time>2020-10-15T16:16:07Z</time>
      </trkpt>
      <trkpt lat="37.406029000" lon="-4.483340000">
        <ele>501.1</ele>
        <time>2020-10-15T16:16:10Z</time>
      </trkpt>
      <trkpt lat="37.406069000" lon="-4.483227000">
        <ele>500.6</ele>
        <time>2020-10-15T16:16:13Z</time>
      </trkpt>
      <trkpt lat="37.406105000" lon="-4.483104000">
        <ele>500.3</ele>
        <time>2020-10-15T16:16:16Z</time>
      </trkpt>
      <trkpt lat="37.406149000" lon="-4.482996000">
        <ele>500.0</ele>
        <time>2020-10-15T16:16:19Z</time>
      </trkpt>
      <trkpt lat="37.406173000" lon="-4.482894000">
        <ele>499.7</ele>
        <time>2020-10-15T16:16:37Z</time>
      </trkpt>
      <trkpt lat="37.406207000" lon="-4.482778000">
        <ele>499.5</ele>
        <time>2020-10-15T16:16:40Z</time>
      </trkpt>
      <trkpt lat="37.406251000" lon="-4.482663000">
        <ele>499.2</ele>
        <time>2020-10-15T16:16:43Z</time>
      </trkpt>
      <trkpt lat="37.406294000" lon="-4.482556000">
        <ele>498.8</ele>
        <time>2020-10-15T16:16:47Z</time>
      </trkpt>
      <trkpt lat="37.406253000" lon="-4.482648000">
        <ele>498.5</ele>
        <time>2020-10-15T16:17:08Z</time>
      </trkpt>
      <trkpt lat="37.406264000" lon="-4.482757000">
        <ele>498.3</ele>
        <time>2020-10-15T16:17:15Z</time>
      </trkpt>
      <trkpt lat="37.406345000" lon="-4.482829000">
        <ele>498.0</ele>
        <time>2020-10-15T16:17:19Z</time>
      </trkpt>
      <trkpt lat="37.406412000" lon="-4.482888000">
        <ele>497.5</ele>
        <time>2020-10-15T16:17:22Z</time>
      </trkpt>
      <trkpt lat="37.406510000" lon="-4.482963000">
        <ele>497.1</ele>
        <time>2020-10-15T16:17:25Z</time>
      </trkpt>
      <trkpt lat="37.406586000" lon="-4.483014000">
        <ele>496.6</ele>
        <time>2020-10-15T16:17:27Z</time>
      </trkpt>
      <trkpt lat="37.406664000" lon="-4.483061000">
        <ele>496.2</ele>
        <time>2020-10-15T16:17:30Z</time>
      </trkpt>
      <trkpt lat="37.406746000" lon="-4.483114000">
        <ele>495.8</ele>
        <time>2020-10-15T16:17:34Z</time>
      </trkpt>
      <trkpt lat="37.406835000" lon="-4.483159000">
        <ele>495.5</ele>
        <time>2020-10-15T16:17:37Z</time>
      </trkpt>
      <trkpt lat="37.406929000" lon="-4.483209000">
        <ele>495.5</ele>
        <time>2020-10-15T16:17:40Z</time>
      </trkpt>
      <trkpt lat="37.407010000" lon="-4.483263000">
        <ele>495.5</ele>
        <time>2020-10-15T16:17:43Z</time>
      </trkpt>
      <trkpt lat="37.407097000" lon="-4.483307000">
        <ele>495.5</ele>
        <time>2020-10-15T16:17:46Z</time>
      </trkpt>
      <trkpt lat="37.407188000" lon="-4.483352000">
        <ele>495.5</ele>
        <time>2020-10-15T16:17:49Z</time>
      </trkpt>
      <trkpt lat="37.407279000" lon="-4.483394000">
        <ele>495.5</ele>
        <time>2020-10-15T16:17:52Z</time>
      </trkpt>
      <trkpt lat="37.407380000" lon="-4.483422000">
        <ele>495.5</ele>
        <time>2020-10-15T16:17:55Z</time>
      </trkpt>
      <trkpt lat="37.407467000" lon="-4.483452000">
        <ele>495.5</ele>
        <time>2020-10-15T16:17:58Z</time>
      </trkpt>
      <trkpt lat="37.407547000" lon="-4.483500000">
        <ele>495.4</ele>
        <time>2020-10-15T16:18:01Z</time>
      </trkpt>
      <trkpt lat="37.407622000" lon="-4.483543000">
        <ele>495.0</ele>
        <time>2020-10-15T16:18:06Z</time>
      </trkpt>
      <trkpt lat="37.407690000" lon="-4.483468000">
        <ele>494.6</ele>
        <time>2020-10-15T16:18:13Z</time>
      </trkpt>
      <trkpt lat="37.407773000" lon="-4.483468000">
        <ele>494.2</ele>
        <time>2020-10-15T16:18:36Z</time>
      </trkpt>
      <trkpt lat="37.407855000" lon="-4.483402000">
        <ele>493.5</ele>
        <time>2020-10-15T16:20:10Z</time>
      </trkpt>
      <trkpt lat="37.407947000" lon="-4.483378000">
        <ele>492.9</ele>
        <time>2020-10-15T16:20:17Z</time>
      </trkpt>
      <trkpt lat="37.408033000" lon="-4.483368000">
        <ele>492.3</ele>
        <time>2020-10-15T16:20:20Z</time>
      </trkpt>
      <trkpt lat="37.408110000" lon="-4.483333000">
        <ele>491.6</ele>
        <time>2020-10-15T16:20:24Z</time>
      </trkpt>
      <trkpt lat="37.408223000" lon="-4.483309000">
        <ele>491.0</ele>
        <time>2020-10-15T16:20:28Z</time>
      </trkpt>
      <trkpt lat="37.408308000" lon="-4.483314000">
        <ele>490.4</ele>
        <time>2020-10-15T16:20:31Z</time>
      </trkpt>
      <trkpt lat="37.408394000" lon="-4.483373000">
        <ele>489.8</ele>
        <time>2020-10-15T16:20:35Z</time>
      </trkpt>
      <trkpt lat="37.408437000" lon="-4.483491000">
        <ele>489.5</ele>
        <time>2020-10-15T16:20:39Z</time>
      </trkpt>
      <trkpt lat="37.408438000" lon="-4.483606000">
        <ele>489.5</ele>
        <time>2020-10-15T16:20:42Z</time>
      </trkpt>
      <trkpt lat="37.408440000" lon="-4.483725000">
        <ele>489.6</ele>
        <time>2020-10-15T16:20:46Z</time>
      </trkpt>
      <trkpt lat="37.408483000" lon="-4.483824000">
        <ele>489.8</ele>
        <time>2020-10-15T16:20:50Z</time>
      </trkpt>
      <trkpt lat="37.408524000" lon="-4.483929000">
        <ele>490.2</ele>
        <time>2020-10-15T16:20:55Z</time>
      </trkpt>
      <trkpt lat="37.408557000" lon="-4.484044000">
        <ele>490.5</ele>
        <time>2020-10-15T16:20:59Z</time>
      </trkpt>
      <trkpt lat="37.408598000" lon="-4.484147000">
        <ele>490.9</ele>
        <time>2020-10-15T16:21:03Z</time>
      </trkpt>
      <trkpt lat="37.408633000" lon="-4.484240000">
        <ele>491.3</ele>
        <time>2020-10-15T16:21:07Z</time>
      </trkpt>
      <trkpt lat="37.408665000" lon="-4.484345000">
        <ele>491.6</ele>
        <time>2020-10-15T16:21:12Z</time>
      </trkpt>
      <trkpt lat="37.408732000" lon="-4.484435000">
        <ele>492.0</ele>
        <time>2020-10-15T16:21:35Z</time>
      </trkpt>
      <trkpt lat="37.408795000" lon="-4.484508000">
        <ele>492.4</ele>
        <time>2020-10-15T16:21:42Z</time>
      </trkpt>
      <trkpt lat="37.408854000" lon="-4.484599000">
        <ele>492.6</ele>
        <time>2020-10-15T16:21:49Z</time>
      </trkpt>
      <trkpt lat="37.408850000" lon="-4.484719000">
        <ele>492.7</ele>
        <time>2020-10-15T16:21:53Z</time>
      </trkpt>
      <trkpt lat="37.408848000" lon="-4.484832000">
        <ele>492.7</ele>
        <time>2020-10-15T16:21:55Z</time>
      </trkpt>
      <trkpt lat="37.408809000" lon="-4.484935000">
        <ele>492.7</ele>
        <time>2020-10-15T16:22:00Z</time>
      </trkpt>
      <trkpt lat="37.408802000" lon="-4.485038000">
        <ele>492.7</ele>
        <time>2020-10-15T16:22:52Z</time>
      </trkpt>
      <trkpt lat="37.408839000" lon="-4.485130000">
        <ele>492.7</ele>
        <time>2020-10-15T16:24:27Z</time>
      </trkpt>
      <trkpt lat="37.408855000" lon="-4.485243000">
        <ele>492.7</ele>
        <time>2020-10-15T16:24:32Z</time>
      </trkpt>
      <trkpt lat="37.408902000" lon="-4.485345000">
        <ele>492.7</ele>
        <time>2020-10-15T16:24:38Z</time>
      </trkpt>
      <trkpt lat="37.408954000" lon="-4.485428000">
        <ele>492.7</ele>
        <time>2020-10-15T16:24:46Z</time>
      </trkpt>
      <trkpt lat="37.408958000" lon="-4.485553000">
        <ele>492.6</ele>
        <time>2020-10-15T16:24:52Z</time>
      </trkpt>
      <trkpt lat="37.408980000" lon="-4.485657000">
        <ele>492.5</ele>
        <time>2020-10-15T16:24:55Z</time>
      </trkpt>
      <trkpt lat="37.409055000" lon="-4.485728000">
        <ele>492.5</ele>
        <time>2020-10-15T16:25:06Z</time>
      </trkpt>
      <trkpt lat="37.409142000" lon="-4.485713000">
        <ele>492.6</ele>
        <time>2020-10-15T16:25:09Z</time>
      </trkpt>
      <trkpt lat="37.409229000" lon="-4.485699000">
        <ele>492.6</ele>
        <time>2020-10-15T16:25:12Z</time>
      </trkpt>
      <trkpt lat="37.409325000" lon="-4.485680000">
        <ele>492.6</ele>
        <time>2020-10-15T16:25:16Z</time>
      </trkpt>
      <trkpt lat="37.409407000" lon="-4.485680000">
        <ele>492.5</ele>
        <time>2020-10-15T16:25:22Z</time>
      </trkpt>
      <trkpt lat="37.409427000" lon="-4.485799000">
        <ele>492.2</ele>
        <time>2020-10-15T16:25:28Z</time>
      </trkpt>
      <trkpt lat="37.409428000" lon="-4.485926000">
        <ele>491.9</ele>
        <time>2020-10-15T16:25:31Z</time>
      </trkpt>
      <trkpt lat="37.409431000" lon="-4.486046000">
        <ele>491.6</ele>
        <time>2020-10-15T16:25:34Z</time>
      </trkpt>
      <trkpt lat="37.409451000" lon="-4.486154000">
        <ele>491.4</ele>
        <time>2020-10-15T16:25:37Z</time>
      </trkpt>
      <trkpt lat="37.409456000" lon="-4.486268000">
        <ele>491.2</ele>
        <time>2020-10-15T16:25:40Z</time>
      </trkpt>
      <trkpt lat="37.409468000" lon="-4.486396000">
        <ele>491.0</ele>
        <time>2020-10-15T16:25:43Z</time>
      </trkpt>
      <trkpt lat="37.409468000" lon="-4.486528000">
        <ele>490.8</ele>
        <time>2020-10-15T16:25:46Z</time>
      </trkpt>
      <trkpt lat="37.409472000" lon="-4.486640000">
        <ele>490.6</ele>
        <time>2020-10-15T16:25:49Z</time>
      </trkpt>
      <trkpt lat="37.409476000" lon="-4.486765000">
        <ele>490.5</ele>
        <time>2020-10-15T16:25:52Z</time>
      </trkpt>
      <trkpt lat="37.409482000" lon="-4.486874000">
        <ele>490.5</ele>
        <time>2020-10-15T16:25:55Z</time>
      </trkpt>
      <trkpt lat="37.409505000" lon="-4.486983000">
        <ele>490.5</ele>
        <time>2020-10-15T16:26:00Z</time>
      </trkpt>
      <trkpt lat="37.409446000" lon="-4.487073000">
        <ele>490.5</ele>
        <time>2020-10-15T16:26:25Z</time>
      </trkpt>
      <trkpt lat="37.409365000" lon="-4.487140000">
        <ele>490.6</ele>
        <time>2020-10-15T16:26:29Z</time>
      </trkpt>
      <trkpt lat="37.409283000" lon="-4.487219000">
        <ele>490.7</ele>
        <time>2020-10-15T16:26:33Z</time>
      </trkpt>
      <trkpt lat="37.409203000" lon="-4.487278000">
        <ele>490.8</ele>
        <time>2020-10-15T16:26:38Z</time>
      </trkpt>
      <trkpt lat="37.409127000" lon="-4.487328000">
        <ele>490.8</ele>
        <time>2020-10-15T16:26:40Z</time>
      </trkpt>
      <trkpt lat="37.409050000" lon="-4.487381000">
        <ele>490.8</ele>
        <time>2020-10-15T16:26:43Z</time>
      </trkpt>
      <trkpt lat="37.408968000" lon="-4.487431000">
        <ele>490.6</ele>
        <time>2020-10-15T16:26:46Z</time>
      </trkpt>
      <trkpt lat="37.408891000" lon="-4.487473000">
        <ele>490.4</ele>
        <time>2020-10-15T16:26:49Z</time>
      </trkpt>
      <trkpt lat="37.408839000" lon="-4.487563000">
        <ele>490.0</ele>
        <time>2020-10-15T16:26:56Z</time>
      </trkpt>
      <trkpt lat="37.408853000" lon="-4.487683000">
        <ele>489.5</ele>
        <time>2020-10-15T16:27:01Z</time>
      </trkpt>
      <trkpt lat="37.408855000" lon="-4.487832000">
        <ele>489.1</ele>
        <time>2020-10-15T16:27:06Z</time>
      </trkpt>
      <trkpt lat="37.408852000" lon="-4.487963000">
        <ele>488.5</ele>
        <time>2020-10-15T16:27:09Z</time>
      </trkpt>
      <trkpt lat="37.408861000" lon="-4.488111000">
        <ele>488.0</ele>
        <time>2020-10-15T16:27:12Z</time>
      </trkpt>
      <trkpt lat="37.408857000" lon="-4.488256000">
        <ele>487.4</ele>
        <time>2020-10-15T16:27:15Z</time>
      </trkpt>
      <trkpt lat="37.408852000" lon="-4.488382000">
        <ele>486.7</ele>
        <time>2020-10-15T16:27:18Z</time>
      </trkpt>
      <trkpt lat="37.408861000" lon="-4.488488000">
        <ele>486.2</ele>
        <time>2020-10-15T16:27:21Z</time>
      </trkpt>
      <trkpt lat="37.408874000" lon="-4.488599000">
        <ele>485.5</ele>
        <time>2020-10-15T16:27:24Z</time>
      </trkpt>
      <trkpt lat="37.408875000" lon="-4.488737000">
        <ele>485.0</ele>
        <time>2020-10-15T16:27:27Z</time>
      </trkpt>
      <trkpt lat="37.408868000" lon="-4.488847000">
        <ele>484.5</ele>
        <time>2020-10-15T16:27:29Z</time>
      </trkpt>
      <trkpt lat="37.408865000" lon="-4.488951000">
        <ele>484.2</ele>
        <time>2020-10-15T16:27:31Z</time>
      </trkpt>
      <trkpt lat="37.408857000" lon="-4.489068000">
        <ele>484.0</ele>
        <time>2020-10-15T16:27:33Z</time>
      </trkpt>
      <trkpt lat="37.408840000" lon="-4.489192000">
        <ele>483.8</ele>
        <time>2020-10-15T16:27:35Z</time>
      </trkpt>
      <trkpt lat="37.408812000" lon="-4.489297000">
        <ele>483.7</ele>
        <time>2020-10-15T16:27:37Z</time>
      </trkpt>
      <trkpt lat="37.408771000" lon="-4.489406000">
        <ele>483.6</ele>
        <time>2020-10-15T16:27:40Z</time>
      </trkpt>
      <trkpt lat="37.408737000" lon="-4.489516000">
        <ele>483.6</ele>
        <time>2020-10-15T16:27:43Z</time>
      </trkpt>
      <trkpt lat="37.408700000" lon="-4.489625000">
        <ele>483.5</ele>
        <time>2020-10-15T16:27:46Z</time>
      </trkpt>
      <trkpt lat="37.408665000" lon="-4.489720000">
        <ele>483.5</ele>
        <time>2020-10-15T16:27:48Z</time>
      </trkpt>
      <trkpt lat="37.408622000" lon="-4.489818000">
        <ele>483.5</ele>
        <time>2020-10-15T16:27:50Z</time>
      </trkpt>
      <trkpt lat="37.408582000" lon="-4.489914000">
        <ele>483.4</ele>
        <time>2020-10-15T16:27:53Z</time>
      </trkpt>
      <trkpt lat="37.408543000" lon="-4.490039000">
        <ele>483.3</ele>
        <time>2020-10-15T16:27:56Z</time>
      </trkpt>
      <trkpt lat="37.408514000" lon="-4.490146000">
        <ele>483.1</ele>
        <time>2020-10-15T16:27:59Z</time>
      </trkpt>
      <trkpt lat="37.408492000" lon="-4.490254000">
        <ele>482.8</ele>
        <time>2020-10-15T16:28:02Z</time>
      </trkpt>
      <trkpt lat="37.408467000" lon="-4.490366000">
        <ele>482.5</ele>
        <time>2020-10-15T16:28:04Z</time>
      </trkpt>
      <trkpt lat="37.408431000" lon="-4.490460000">
        <ele>482.4</ele>
        <time>2020-10-15T16:28:06Z</time>
      </trkpt>
      <trkpt lat="37.408400000" lon="-4.490570000">
        <ele>482.2</ele>
        <time>2020-10-15T16:28:09Z</time>
      </trkpt>
      <trkpt lat="37.408371000" lon="-4.490669000">
        <ele>482.0</ele>
        <time>2020-10-15T16:28:13Z</time>
      </trkpt>
      <trkpt lat="37.408337000" lon="-4.490795000">
        <ele>481.9</ele>
        <time>2020-10-15T16:28:17Z</time>
      </trkpt>
      <trkpt lat="37.408308000" lon="-4.490925000">
        <ele>481.8</ele>
        <time>2020-10-15T16:28:20Z</time>
      </trkpt>
      <trkpt lat="37.408274000" lon="-4.491069000">
        <ele>481.6</ele>
        <time>2020-10-15T16:28:23Z</time>
      </trkpt>
      <trkpt lat="37.408238000" lon="-4.491217000">
        <ele>481.5</ele>
        <time>2020-10-15T16:28:26Z</time>
      </trkpt>
      <trkpt lat="37.408215000" lon="-4.491318000">
        <ele>481.5</ele>
        <time>2020-10-15T16:28:28Z</time>
      </trkpt>
      <trkpt lat="37.408184000" lon="-4.491422000">
        <ele>481.4</ele>
        <time>2020-10-15T16:28:30Z</time>
      </trkpt>
      <trkpt lat="37.408159000" lon="-4.491535000">
        <ele>481.2</ele>
        <time>2020-10-15T16:28:35Z</time>
      </trkpt>
      <trkpt lat="37.408144000" lon="-4.491641000">
        <ele>480.9</ele>
        <time>2020-10-15T16:28:39Z</time>
      </trkpt>
      <trkpt lat="37.408128000" lon="-4.491769000">
        <ele>480.5</ele>
        <time>2020-10-15T16:28:44Z</time>
      </trkpt>
      <trkpt lat="37.408149000" lon="-4.491874000">
        <ele>480.1</ele>
        <time>2020-10-15T16:28:48Z</time>
      </trkpt>
      <trkpt lat="37.408221000" lon="-4.491931000">
        <ele>479.5</ele>
        <time>2020-10-15T16:28:51Z</time>
      </trkpt>
      <trkpt lat="37.408300000" lon="-4.491973000">
        <ele>478.9</ele>
        <time>2020-10-15T16:28:55Z</time>
      </trkpt>
      <trkpt lat="37.408388000" lon="-4.491998000">
        <ele>478.1</ele>
        <time>2020-10-15T16:29:00Z</time>
      </trkpt>
      <trkpt lat="37.408469000" lon="-4.492029000">
        <ele>477.4</ele>
        <time>2020-10-15T16:29:03Z</time>
      </trkpt>
      <trkpt lat="37.408564000" lon="-4.492060000">
        <ele>476.6</ele>
        <time>2020-10-15T16:29:06Z</time>
      </trkpt>
      <trkpt lat="37.408667000" lon="-4.492091000">
        <ele>475.8</ele>
        <time>2020-10-15T16:29:09Z</time>
      </trkpt>
      <trkpt lat="37.408766000" lon="-4.492129000">
        <ele>475.1</ele>
        <time>2020-10-15T16:29:12Z</time>
      </trkpt>
      <trkpt lat="37.408887000" lon="-4.492146000">
        <ele>474.5</ele>
        <time>2020-10-15T16:29:15Z</time>
      </trkpt>
      <trkpt lat="37.408975000" lon="-4.492163000">
        <ele>473.9</ele>
        <time>2020-10-15T16:29:17Z</time>
      </trkpt>
      <trkpt lat="37.409063000" lon="-4.492179000">
        <ele>473.4</ele>
        <time>2020-10-15T16:29:19Z</time>
      </trkpt>
      <trkpt lat="37.409149000" lon="-4.492180000">
        <ele>472.9</ele>
        <time>2020-10-15T16:29:21Z</time>
      </trkpt>
      <trkpt lat="37.409270000" lon="-4.492202000">
        <ele>472.5</ele>
        <time>2020-10-15T16:29:24Z</time>
      </trkpt>
      <trkpt lat="37.409365000" lon="-4.492230000">
        <ele>472.2</ele>
        <time>2020-10-15T16:29:26Z</time>
      </trkpt>
      <trkpt lat="37.409453000" lon="-4.492254000">
        <ele>471.9</ele>
        <time>2020-10-15T16:29:28Z</time>
      </trkpt>
      <trkpt lat="37.409558000" lon="-4.492274000">
        <ele>471.6</ele>
        <time>2020-10-15T16:29:30Z</time>
      </trkpt>
      <trkpt lat="37.409656000" lon="-4.492293000">
        <ele>471.3</ele>
        <time>2020-10-15T16:29:32Z</time>
      </trkpt>
      <trkpt lat="37.409747000" lon="-4.492312000">
        <ele>471.0</ele>
        <time>2020-10-15T16:29:34Z</time>
      </trkpt>
      <trkpt lat="37.409846000" lon="-4.492324000">
        <ele>470.6</ele>
        <time>2020-10-15T16:29:36Z</time>
      </trkpt>
      <trkpt lat="37.409987000" lon="-4.492322000">
        <ele>470.2</ele>
        <time>2020-10-15T16:29:39Z</time>
      </trkpt>
      <trkpt lat="37.410104000" lon="-4.492321000">
        <ele>469.6</ele>
        <time>2020-10-15T16:29:41Z</time>
      </trkpt>
      <trkpt lat="37.410197000" lon="-4.492323000">
        <ele>469.1</ele>
        <time>2020-10-15T16:29:43Z</time>
      </trkpt>
      <trkpt lat="37.410301000" lon="-4.492345000">
        <ele>468.5</ele>
        <time>2020-10-15T16:29:46Z</time>
      </trkpt>
      <trkpt lat="37.410411000" lon="-4.492375000">
        <ele>467.8</ele>
        <time>2020-10-15T16:29:48Z</time>
      </trkpt>
      <trkpt lat="37.410522000" lon="-4.492381000">
        <ele>467.2</ele>
        <time>2020-10-15T16:29:50Z</time>
      </trkpt>
      <trkpt lat="37.410609000" lon="-4.492391000">
        <ele>466.6</ele>
        <time>2020-10-15T16:29:52Z</time>
      </trkpt>
      <trkpt lat="37.410723000" lon="-4.492377000">
        <ele>466.0</ele>
        <time>2020-10-15T16:29:54Z</time>
      </trkpt>
      <trkpt lat="37.410836000" lon="-4.492370000">
        <ele>465.5</ele>
        <time>2020-10-15T16:29:56Z</time>
      </trkpt>
      <trkpt lat="37.410931000" lon="-4.492366000">
        <ele>464.8</ele>
        <time>2020-10-15T16:29:58Z</time>
      </trkpt>
      <trkpt lat="37.411017000" lon="-4.492371000">
        <ele>464.2</ele>
        <time>2020-10-15T16:30:00Z</time>
      </trkpt>
      <trkpt lat="37.411101000" lon="-4.492376000">
        <ele>463.6</ele>
        <time>2020-10-15T16:30:02Z</time>
      </trkpt>
      <trkpt lat="37.411224000" lon="-4.492392000">
        <ele>463.3</ele>
        <time>2020-10-15T16:30:05Z</time>
      </trkpt>
      <trkpt lat="37.411310000" lon="-4.492395000">
        <ele>462.9</ele>
        <time>2020-10-15T16:30:07Z</time>
      </trkpt>
      <trkpt lat="37.411427000" lon="-4.492393000">
        <ele>462.7</ele>
        <time>2020-10-15T16:30:10Z</time>
      </trkpt>
      <trkpt lat="37.411519000" lon="-4.492316000">
        <ele>462.6</ele>
        <time>2020-10-15T16:30:13Z</time>
      </trkpt>
      <trkpt lat="37.411561000" lon="-4.492215000">
        <ele>462.8</ele>
        <time>2020-10-15T16:30:16Z</time>
      </trkpt>
      <trkpt lat="37.411544000" lon="-4.492109000">
        <ele>463.0</ele>
        <time>2020-10-15T16:30:19Z</time>
      </trkpt>
      <trkpt lat="37.411523000" lon="-4.492008000">
        <ele>463.2</ele>
        <time>2020-10-15T16:30:22Z</time>
      </trkpt>
      <trkpt lat="37.411483000" lon="-4.491896000">
        <ele>463.4</ele>
        <time>2020-10-15T16:30:27Z</time>
      </trkpt>
      <trkpt lat="37.411449000" lon="-4.491796000">
        <ele>463.5</ele>
        <time>2020-10-15T16:30:31Z</time>
      </trkpt>
      <trkpt lat="37.411441000" lon="-4.491665000">
        <ele>463.8</ele>
        <time>2020-10-15T16:30:34Z</time>
      </trkpt>
      <trkpt lat="37.411496000" lon="-4.491565000">
        <ele>464.1</ele>
        <time>2020-10-15T16:30:37Z</time>
      </trkpt>
      <trkpt lat="37.411608000" lon="-4.491537000">
        <ele>464.2</ele>
        <time>2020-10-15T16:30:40Z</time>
      </trkpt>
      <trkpt lat="37.411701000" lon="-4.491529000">
        <ele>464.3</ele>
        <time>2020-10-15T16:30:43Z</time>
      </trkpt>
      <trkpt lat="37.411800000" lon="-4.491519000">
        <ele>464.3</ele>
        <time>2020-10-15T16:30:46Z</time>
      </trkpt>
      <trkpt lat="37.411898000" lon="-4.491512000">
        <ele>464.2</ele>
        <time>2020-10-15T16:30:50Z</time>
      </trkpt>
      <trkpt lat="37.411985000" lon="-4.491502000">
        <ele>463.9</ele>
        <time>2020-10-15T16:30:53Z</time>
      </trkpt>
      <trkpt lat="37.412088000" lon="-4.491490000">
        <ele>463.6</ele>
        <time>2020-10-15T16:30:56Z</time>
      </trkpt>
      <trkpt lat="37.412203000" lon="-4.491455000">
        <ele>463.4</ele>
        <time>2020-10-15T16:30:59Z</time>
      </trkpt>
      <trkpt lat="37.412313000" lon="-4.491422000">
        <ele>463.1</ele>
        <time>2020-10-15T16:31:02Z</time>
      </trkpt>
      <trkpt lat="37.412463000" lon="-4.491403000">
        <ele>462.9</ele>
        <time>2020-10-15T16:31:05Z</time>
      </trkpt>
      <trkpt lat="37.412589000" lon="-4.491377000">
        <ele>462.8</ele>
        <time>2020-10-15T16:31:07Z</time>
      </trkpt>
      <trkpt lat="37.412708000" lon="-4.491324000">
        <ele>462.8</ele>
        <time>2020-10-15T16:31:09Z</time>
      </trkpt>
      <trkpt lat="37.412799000" lon="-4.491280000">
        <ele>462.9</ele>
        <time>2020-10-15T16:31:11Z</time>
      </trkpt>
      <trkpt lat="37.412881000" lon="-4.491198000">
        <ele>463.0</ele>
        <time>2020-10-15T16:31:13Z</time>
      </trkpt>
      <trkpt lat="37.412941000" lon="-4.491106000">
        <ele>463.1</ele>
        <time>2020-10-15T16:31:15Z</time>
      </trkpt>
      <trkpt lat="37.412977000" lon="-4.491004000">
        <ele>463.1</ele>
        <time>2020-10-15T16:31:17Z</time>
      </trkpt>
      <trkpt lat="37.413028000" lon="-4.490883000">
        <ele>463.1</ele>
        <time>2020-10-15T16:31:20Z</time>
      </trkpt>
      <trkpt lat="37.413064000" lon="-4.490767000">
        <ele>463.0</ele>
        <time>2020-10-15T16:31:23Z</time>
      </trkpt>
      <trkpt lat="37.413102000" lon="-4.490655000">
        <ele>462.9</ele>
        <time>2020-10-15T16:31:27Z</time>
      </trkpt>
      <trkpt lat="37.413107000" lon="-4.490781000">
        <ele>462.7</ele>
        <time>2020-10-15T16:31:51Z</time>
      </trkpt>
      <trkpt lat="37.413040000" lon="-4.490907000">
        <ele>462.5</ele>
        <time>2020-10-15T16:31:53Z</time>
      </trkpt>
      <trkpt lat="37.413002000" lon="-4.490998000">
        <ele>462.1</ele>
        <time>2020-10-15T16:31:55Z</time>
      </trkpt>
      <trkpt lat="37.412964000" lon="-4.491090000">
        <ele>461.6</ele>
        <time>2020-10-15T16:31:57Z</time>
      </trkpt>
      <trkpt lat="37.412977000" lon="-4.491206000">
        <ele>461.1</ele>
        <time>2020-10-15T16:32:00Z</time>
      </trkpt>
      <trkpt lat="37.413078000" lon="-4.491217000">
        <ele>460.5</ele>
        <time>2020-10-15T16:32:03Z</time>
      </trkpt>
      <trkpt lat="37.413168000" lon="-4.491229000">
        <ele>460.0</ele>
        <time>2020-10-15T16:32:06Z</time>
      </trkpt>
      <trkpt lat="37.413292000" lon="-4.491220000">
        <ele>459.5</ele>
        <time>2020-10-15T16:32:09Z</time>
      </trkpt>
      <trkpt lat="37.413384000" lon="-4.491209000">
        <ele>458.9</ele>
        <time>2020-10-15T16:32:11Z</time>
      </trkpt>
      <trkpt lat="37.413475000" lon="-4.491190000">
        <ele>458.4</ele>
        <time>2020-10-15T16:32:13Z</time>
      </trkpt>
      <trkpt lat="37.413583000" lon="-4.491142000">
        <ele>457.8</ele>
        <time>2020-10-15T16:32:15Z</time>
      </trkpt>
      <trkpt lat="37.413689000" lon="-4.491119000">
        <ele>457.4</ele>
        <time>2020-10-15T16:32:17Z</time>
      </trkpt>
      <trkpt lat="37.413796000" lon="-4.491095000">
        <ele>456.9</ele>
        <time>2020-10-15T16:32:19Z</time>
      </trkpt>
      <trkpt lat="37.413909000" lon="-4.491055000">
        <ele>456.5</ele>
        <time>2020-10-15T16:32:21Z</time>
      </trkpt>
      <trkpt lat="37.414021000" lon="-4.491019000">
        <ele>456.0</ele>
        <time>2020-10-15T16:32:23Z</time>
      </trkpt>
      <trkpt lat="37.414154000" lon="-4.490969000">
        <ele>455.6</ele>
        <time>2020-10-15T16:32:25Z</time>
      </trkpt>
      <trkpt lat="37.414292000" lon="-4.490932000">
        <ele>455.2</ele>
        <time>2020-10-15T16:32:27Z</time>
      </trkpt>
      <trkpt lat="37.414425000" lon="-4.490900000">
        <ele>454.6</ele>
        <time>2020-10-15T16:32:29Z</time>
      </trkpt>
      <trkpt lat="37.414564000" lon="-4.490859000">
        <ele>454.2</ele>
        <time>2020-10-15T16:32:31Z</time>
      </trkpt>
      <trkpt lat="37.414698000" lon="-4.490828000">
        <ele>453.6</ele>
        <time>2020-10-15T16:32:33Z</time>
      </trkpt>
      <trkpt lat="37.414834000" lon="-4.490806000">
        <ele>453.2</ele>
        <time>2020-10-15T16:32:35Z</time>
      </trkpt>
      <trkpt lat="37.414966000" lon="-4.490785000">
        <ele>452.8</ele>
        <time>2020-10-15T16:32:37Z</time>
      </trkpt>
      <trkpt lat="37.415099000" lon="-4.490765000">
        <ele>452.5</ele>
        <time>2020-10-15T16:32:39Z</time>
      </trkpt>
      <trkpt lat="37.415233000" lon="-4.490742000">
        <ele>452.2</ele>
        <time>2020-10-15T16:32:41Z</time>
      </trkpt>
      <trkpt lat="37.415351000" lon="-4.490737000">
        <ele>451.9</ele>
        <time>2020-10-15T16:32:43Z</time>
      </trkpt>
      <trkpt lat="37.415447000" lon="-4.490746000">
        <ele>451.6</ele>
        <time>2020-10-15T16:32:46Z</time>
      </trkpt>
      <trkpt lat="37.415357000" lon="-4.490749000">
        <ele>451.4</ele>
        <time>2020-10-15T16:32:51Z</time>
      </trkpt>
      <trkpt lat="37.415273000" lon="-4.490733000">
        <ele>451.1</ele>
        <time>2020-10-15T16:32:56Z</time>
      </trkpt>
      <trkpt lat="37.415374000" lon="-4.490688000">
        <ele>450.9</ele>
        <time>2020-10-15T16:33:06Z</time>
      </trkpt>
      <trkpt lat="37.415454000" lon="-4.490706000">
        <ele>450.7</ele>
        <time>2020-10-15T16:33:08Z</time>
      </trkpt>
      <trkpt lat="37.415577000" lon="-4.490716000">
        <ele>450.5</ele>
        <time>2020-10-15T16:33:11Z</time>
      </trkpt>
      <trkpt lat="37.415666000" lon="-4.490732000">
        <ele>450.4</ele>
        <time>2020-10-15T16:33:13Z</time>
      </trkpt>
      <trkpt lat="37.415755000" lon="-4.490749000">
        <ele>450.2</ele>
        <time>2020-10-15T16:33:15Z</time>
      </trkpt>
      <trkpt lat="37.415842000" lon="-4.490766000">
        <ele>449.9</ele>
        <time>2020-10-15T16:33:17Z</time>
      </trkpt>
      <trkpt lat="37.415934000" lon="-4.490777000">
        <ele>449.7</ele>
        <time>2020-10-15T16:33:19Z</time>
      </trkpt>
      <trkpt lat="37.416020000" lon="-4.490788000">
        <ele>449.5</ele>
        <time>2020-10-15T16:33:21Z</time>
      </trkpt>
      <trkpt lat="37.416122000" lon="-4.490775000">
        <ele>449.4</ele>
        <time>2020-10-15T16:33:24Z</time>
      </trkpt>
      <trkpt lat="37.416228000" lon="-4.490834000">
        <ele>449.2</ele>
        <time>2020-10-15T16:33:28Z</time>
      </trkpt>
      <trkpt lat="37.416293000" lon="-4.490898000">
        <ele>449.1</ele>
        <time>2020-10-15T16:33:30Z</time>
      </trkpt>
      <trkpt lat="37.416364000" lon="-4.490971000">
        <ele>449.0</ele>
        <time>2020-10-15T16:33:32Z</time>
      </trkpt>
      <trkpt lat="37.416435000" lon="-4.491027000">
        <ele>448.9</ele>
        <time>2020-10-15T16:33:34Z</time>
      </trkpt>
      <trkpt lat="37.416501000" lon="-4.491122000">
        <ele>448.9</ele>
        <time>2020-10-15T16:33:36Z</time>
      </trkpt>
      <trkpt lat="37.416555000" lon="-4.491224000">
        <ele>448.8</ele>
        <time>2020-10-15T16:33:38Z</time>
      </trkpt>
      <trkpt lat="37.416620000" lon="-4.491319000">
        <ele>448.7</ele>
        <time>2020-10-15T16:33:40Z</time>
      </trkpt>
      <trkpt lat="37.416693000" lon="-4.491413000">
        <ele>448.6</ele>
        <time>2020-10-15T16:33:42Z</time>
      </trkpt>
      <trkpt lat="37.416767000" lon="-4.491490000">
        <ele>448.5</ele>
        <time>2020-10-15T16:33:44Z</time>
      </trkpt>
      <trkpt lat="37.416838000" lon="-4.491554000">
        <ele>448.3</ele>
        <time>2020-10-15T16:33:46Z</time>
      </trkpt>
      <trkpt lat="37.416924000" lon="-4.491640000">
        <ele>448.2</ele>
        <time>2020-10-15T16:33:49Z</time>
      </trkpt>
      <trkpt lat="37.417013000" lon="-4.491720000">
        <ele>448.2</ele>
        <time>2020-10-15T16:33:52Z</time>
      </trkpt>
      <trkpt lat="37.417103000" lon="-4.491818000">
        <ele>448.3</ele>
        <time>2020-10-15T16:33:55Z</time>
      </trkpt>
      <trkpt lat="37.417176000" lon="-4.491937000">
        <ele>448.5</ele>
        <time>2020-10-15T16:33:58Z</time>
      </trkpt>
      <trkpt lat="37.417208000" lon="-4.492072000">
        <ele>448.7</ele>
        <time>2020-10-15T16:34:01Z</time>
      </trkpt>
      <trkpt lat="37.417224000" lon="-4.492179000">
        <ele>449.1</ele>
        <time>2020-10-15T16:34:05Z</time>
      </trkpt>
      <trkpt lat="37.417296000" lon="-4.492257000">
        <ele>449.6</ele>
        <time>2020-10-15T16:34:30Z</time>
      </trkpt>
      <trkpt lat="37.417376000" lon="-4.492330000">
        <ele>450.2</ele>
        <time>2020-10-15T16:34:34Z</time>
      </trkpt>
      <trkpt lat="37.417429000" lon="-4.492440000">
        <ele>450.8</ele>
        <time>2020-10-15T16:34:37Z</time>
      </trkpt>
      <trkpt lat="37.417489000" lon="-4.492559000">
        <ele>451.5</ele>
        <time>2020-10-15T16:34:40Z</time>
      </trkpt>
      <trkpt lat="37.417555000" lon="-4.492665000">
        <ele>452.3</ele>
        <time>2020-10-15T16:34:43Z</time>
      </trkpt>
      <trkpt lat="37.417615000" lon="-4.492766000">
        <ele>453.0</ele>
        <time>2020-10-15T16:34:46Z</time>
      </trkpt>
      <trkpt lat="37.417675000" lon="-4.492856000">
        <ele>453.7</ele>
        <time>2020-10-15T16:34:49Z</time>
      </trkpt>
      <trkpt lat="37.417732000" lon="-4.492942000">
        <ele>454.4</ele>
        <time>2020-10-15T16:34:52Z</time>
      </trkpt>
      <trkpt lat="37.417787000" lon="-4.493030000">
        <ele>454.9</ele>
        <time>2020-10-15T16:34:55Z</time>
      </trkpt>
      <trkpt lat="37.417845000" lon="-4.493140000">
        <ele>455.5</ele>
        <time>2020-10-15T16:34:59Z</time>
      </trkpt>
      <trkpt lat="37.417904000" lon="-4.493246000">
        <ele>456.0</ele>
        <time>2020-10-15T16:35:03Z</time>
      </trkpt>
      <trkpt lat="37.417956000" lon="-4.493341000">
        <ele>456.5</ele>
        <time>2020-10-15T16:35:07Z</time>
      </trkpt>
      <trkpt lat="37.417945000" lon="-4.493470000">
        <ele>457.0</ele>
        <time>2020-10-15T16:35:12Z</time>
      </trkpt>
      <trkpt lat="37.417906000" lon="-4.493596000">
        <ele>457.5</ele>
        <time>2020-10-15T16:35:16Z</time>
      </trkpt>
      <trkpt lat="37.417878000" lon="-4.493715000">
        <ele>458.0</ele>
        <time>2020-10-15T16:35:19Z</time>
      </trkpt>
      <trkpt lat="37.417838000" lon="-4.493836000">
        <ele>458.5</ele>
        <time>2020-10-15T16:35:22Z</time>
      </trkpt>
      <trkpt lat="37.417792000" lon="-4.493962000">
        <ele>458.8</ele>
        <time>2020-10-15T16:35:25Z</time>
      </trkpt>
      <trkpt lat="37.417748000" lon="-4.494098000">
        <ele>459.1</ele>
        <time>2020-10-15T16:35:28Z</time>
      </trkpt>
      <trkpt lat="37.417708000" lon="-4.494236000">
        <ele>459.4</ele>
        <time>2020-10-15T16:35:31Z</time>
      </trkpt>
      <trkpt lat="37.417664000" lon="-4.494369000">
        <ele>459.6</ele>
        <time>2020-10-15T16:35:34Z</time>
      </trkpt>
      <trkpt lat="37.417618000" lon="-4.494507000">
        <ele>459.8</ele>
        <time>2020-10-15T16:35:37Z</time>
      </trkpt>
      <trkpt lat="37.417578000" lon="-4.494646000">
        <ele>459.9</ele>
        <time>2020-10-15T16:35:40Z</time>
      </trkpt>
      <trkpt lat="37.417547000" lon="-4.494742000">
        <ele>460.0</ele>
        <time>2020-10-15T16:35:42Z</time>
      </trkpt>
      <trkpt lat="37.417518000" lon="-4.494838000">
        <ele>460.0</ele>
        <time>2020-10-15T16:35:44Z</time>
      </trkpt>
      <trkpt lat="37.417478000" lon="-4.494978000">
        <ele>459.9</ele>
        <time>2020-10-15T16:35:47Z</time>
      </trkpt>
      <trkpt lat="37.417440000" lon="-4.495120000">
        <ele>459.8</ele>
        <time>2020-10-15T16:35:50Z</time>
      </trkpt>
      <trkpt lat="37.417395000" lon="-4.495257000">
        <ele>459.7</ele>
        <time>2020-10-15T16:35:53Z</time>
      </trkpt>
      <trkpt lat="37.417356000" lon="-4.495400000">
        <ele>459.7</ele>
        <time>2020-10-15T16:35:56Z</time>
      </trkpt>
      <trkpt lat="37.417310000" lon="-4.495536000">
        <ele>459.7</ele>
        <time>2020-10-15T16:35:59Z</time>
      </trkpt>
      <trkpt lat="37.417265000" lon="-4.495676000">
        <ele>459.7</ele>
        <time>2020-10-15T16:36:02Z</time>
      </trkpt>
      <trkpt lat="37.417231000" lon="-4.495803000">
        <ele>459.7</ele>
        <time>2020-10-15T16:36:05Z</time>
      </trkpt>
      <trkpt lat="37.417194000" lon="-4.495909000">
        <ele>459.6</ele>
        <time>2020-10-15T16:36:09Z</time>
      </trkpt>
      <trkpt lat="37.417157000" lon="-4.496032000">
        <ele>459.5</ele>
        <time>2020-10-15T16:36:13Z</time>
      </trkpt>
      <trkpt lat="37.417115000" lon="-4.496135000">
        <ele>459.3</ele>
        <time>2020-10-15T16:36:16Z</time>
      </trkpt>
      <trkpt lat="37.417083000" lon="-4.496253000">
        <ele>459.1</ele>
        <time>2020-10-15T16:36:19Z</time>
      </trkpt>
      <trkpt lat="37.417043000" lon="-4.496380000">
        <ele>459.0</ele>
        <time>2020-10-15T16:36:22Z</time>
      </trkpt>
      <trkpt lat="37.416998000" lon="-4.496511000">
        <ele>458.8</ele>
        <time>2020-10-15T16:36:25Z</time>
      </trkpt>
      <trkpt lat="37.416957000" lon="-4.496632000">
        <ele>458.5</ele>
        <time>2020-10-15T16:36:28Z</time>
      </trkpt>
      <trkpt lat="37.416910000" lon="-4.496536000">
        <ele>458.2</ele>
        <time>2020-10-15T16:36:38Z</time>
      </trkpt>
      <trkpt lat="37.416823000" lon="-4.496464000">
        <ele>457.8</ele>
        <time>2020-10-15T16:36:44Z</time>
      </trkpt>
      <trkpt lat="37.416746000" lon="-4.496419000">
        <ele>457.5</ele>
        <time>2020-10-15T16:36:48Z</time>
      </trkpt>
      <trkpt lat="37.416660000" lon="-4.496366000">
        <ele>457.2</ele>
        <time>2020-10-15T16:36:52Z</time>
      </trkpt>
      <trkpt lat="37.416589000" lon="-4.496294000">
        <ele>457.0</ele>
        <time>2020-10-15T16:36:55Z</time>
      </trkpt>
      <trkpt lat="37.416602000" lon="-4.496189000">
        <ele>456.9</ele>
        <time>2020-10-15T16:36:58Z</time>
      </trkpt>
      <trkpt lat="37.416617000" lon="-4.496085000">
        <ele>456.8</ele>
        <time>2020-10-15T16:37:01Z</time>
      </trkpt>
      <trkpt lat="37.416624000" lon="-4.495981000">
        <ele>456.7</ele>
        <time>2020-10-15T16:37:04Z</time>
      </trkpt>
      <trkpt lat="37.416637000" lon="-4.495852000">
        <ele>456.7</ele>
        <time>2020-10-15T16:37:08Z</time>
      </trkpt>
      <trkpt lat="37.416649000" lon="-4.495740000">
        <ele>456.9</ele>
        <time>2020-10-15T16:37:12Z</time>
      </trkpt>
      <trkpt lat="37.416659000" lon="-4.495636000">
        <ele>457.2</ele>
        <time>2020-10-15T16:37:17Z</time>
      </trkpt>
      <trkpt lat="37.416723000" lon="-4.495566000">
        <ele>457.5</ele>
        <time>2020-10-15T16:37:27Z</time>
      </trkpt>
      <trkpt lat="37.416734000" lon="-4.495683000">
        <ele>457.7</ele>
        <time>2020-10-15T16:37:33Z</time>
      </trkpt>
      <trkpt lat="37.416809000" lon="-4.495756000">
        <ele>458.0</ele>
        <time>2020-10-15T16:37:39Z</time>
      </trkpt>
      <trkpt lat="37.416889000" lon="-4.495802000">
        <ele>458.1</ele>
        <time>2020-10-15T16:37:42Z</time>
      </trkpt>
      <trkpt lat="37.416977000" lon="-4.495818000">
        <ele>458.2</ele>
        <time>2020-10-15T16:37:45Z</time>
      </trkpt>
      <trkpt lat="37.417053000" lon="-4.495784000">
        <ele>458.3</ele>
        <time>2020-10-15T16:37:49Z</time>
      </trkpt>
      <trkpt lat="37.417101000" lon="-4.495702000">
        <ele>458.5</ele>
        <time>2020-10-15T16:37:55Z</time>
      </trkpt>
      <trkpt lat="37.417103000" lon="-4.495589000">
        <ele>458.7</ele>
        <time>2020-10-15T16:38:09Z</time>
      </trkpt>
      <trkpt lat="37.417078000" lon="-4.495561000">
        <ele>458.8</ele>
        <time>2020-10-15T16:39:27Z</time>
      </trkpt>
      <trkpt lat="37.417053000" lon="-4.495532000">
        <ele>458.8</ele>
        <time>2020-10-15T16:54:32Z</time>
      </trkpt>
      <trkpt lat="37.417055000" lon="-4.495660000">
        <ele>458.9</ele>
        <time>2020-10-15T16:54:49Z</time>
      </trkpt>
      <trkpt lat="37.417038000" lon="-4.495763000">
        <ele>458.9</ele>
        <time>2020-10-15T16:55:01Z</time>
      </trkpt>
      <trkpt lat="37.416984000" lon="-4.495848000">
        <ele>458.9</ele>
        <time>2020-10-15T16:55:04Z</time>
      </trkpt>
      <trkpt lat="37.416902000" lon="-4.495877000">
        <ele>459.0</ele>
        <time>2020-10-15T16:55:07Z</time>
      </trkpt>
      <trkpt lat="37.416896000" lon="-4.495986000">
        <ele>459.1</ele>
        <time>2020-10-15T16:55:13Z</time>
      </trkpt>
      <trkpt lat="37.416978000" lon="-4.496043000">
        <ele>459.3</ele>
        <time>2020-10-15T16:55:19Z</time>
      </trkpt>
      <trkpt lat="37.417067000" lon="-4.496075000">
        <ele>459.4</ele>
        <time>2020-10-15T16:55:25Z</time>
      </trkpt>
      <trkpt lat="37.417109000" lon="-4.495987000">
        <ele>459.4</ele>
        <time>2020-10-15T16:55:31Z</time>
      </trkpt>
      <trkpt lat="37.417160000" lon="-4.496084000">
        <ele>459.3</ele>
        <time>2020-10-15T16:55:41Z</time>
      </trkpt>
      <trkpt lat="37.417129000" lon="-4.496216000">
        <ele>459.1</ele>
        <time>2020-10-15T16:55:44Z</time>
      </trkpt>
      <trkpt lat="37.417086000" lon="-4.496315000">
        <ele>458.9</ele>
        <time>2020-10-15T16:55:46Z</time>
      </trkpt>
      <trkpt lat="37.417047000" lon="-4.496423000">
        <ele>458.7</ele>
        <time>2020-10-15T16:55:48Z</time>
      </trkpt>
      <trkpt lat="37.416999000" lon="-4.496536000">
        <ele>458.5</ele>
        <time>2020-10-15T16:55:50Z</time>
      </trkpt>
      <trkpt lat="37.416959000" lon="-4.496672000">
        <ele>458.4</ele>
        <time>2020-10-15T16:55:52Z</time>
      </trkpt>
      <trkpt lat="37.416903000" lon="-4.496807000">
        <ele>458.1</ele>
        <time>2020-10-15T16:55:54Z</time>
      </trkpt>
      <trkpt lat="37.416861000" lon="-4.496934000">
        <ele>457.8</ele>
        <time>2020-10-15T16:55:56Z</time>
      </trkpt>
      <trkpt lat="37.416833000" lon="-4.497050000">
        <ele>457.5</ele>
        <time>2020-10-15T16:55:58Z</time>
      </trkpt>
      <trkpt lat="37.416786000" lon="-4.497166000">
        <ele>457.3</ele>
        <time>2020-10-15T16:56:00Z</time>
      </trkpt>
      <trkpt lat="37.416754000" lon="-4.497294000">
        <ele>457.1</ele>
        <time>2020-10-15T16:56:02Z</time>
      </trkpt>
      <trkpt lat="37.416720000" lon="-4.497429000">
        <ele>457.0</ele>
        <time>2020-10-15T16:56:04Z</time>
      </trkpt>
      <trkpt lat="37.416679000" lon="-4.497578000">
        <ele>457.0</ele>
        <time>2020-10-15T16:56:06Z</time>
      </trkpt>
      <trkpt lat="37.416642000" lon="-4.497710000">
        <ele>457.0</ele>
        <time>2020-10-15T16:56:08Z</time>
      </trkpt>
      <trkpt lat="37.416604000" lon="-4.497838000">
        <ele>456.9</ele>
        <time>2020-10-15T16:56:10Z</time>
      </trkpt>
      <trkpt lat="37.416576000" lon="-4.497964000">
        <ele>456.7</ele>
        <time>2020-10-15T16:56:12Z</time>
      </trkpt>
      <trkpt lat="37.416544000" lon="-4.498083000">
        <ele>456.5</ele>
        <time>2020-10-15T16:56:14Z</time>
      </trkpt>
      <trkpt lat="37.416511000" lon="-4.498205000">
        <ele>456.1</ele>
        <time>2020-10-15T16:56:16Z</time>
      </trkpt>
      <trkpt lat="37.416477000" lon="-4.498327000">
        <ele>455.7</ele>
        <time>2020-10-15T16:56:18Z</time>
      </trkpt>
      <trkpt lat="37.416446000" lon="-4.498462000">
        <ele>455.3</ele>
        <time>2020-10-15T16:56:20Z</time>
      </trkpt>
      <trkpt lat="37.416416000" lon="-4.498605000">
        <ele>454.8</ele>
        <time>2020-10-15T16:56:22Z</time>
      </trkpt>
      <trkpt lat="37.416386000" lon="-4.498749000">
        <ele>454.4</ele>
        <time>2020-10-15T16:56:24Z</time>
      </trkpt>
      <trkpt lat="37.416364000" lon="-4.498884000">
        <ele>453.9</ele>
        <time>2020-10-15T16:56:26Z</time>
      </trkpt>
      <trkpt lat="37.416344000" lon="-4.499015000">
        <ele>453.5</ele>
        <time>2020-10-15T16:56:28Z</time>
      </trkpt>
      <trkpt lat="37.416327000" lon="-4.499141000">
        <ele>453.0</ele>
        <time>2020-10-15T16:56:30Z</time>
      </trkpt>
      <trkpt lat="37.416306000" lon="-4.499260000">
        <ele>452.5</ele>
        <time>2020-10-15T16:56:32Z</time>
      </trkpt>
      <trkpt lat="37.416291000" lon="-4.499373000">
        <ele>452.2</ele>
        <time>2020-10-15T16:56:34Z</time>
      </trkpt>
      <trkpt lat="37.416282000" lon="-4.499495000">
        <ele>451.9</ele>
        <time>2020-10-15T16:56:36Z</time>
      </trkpt>
      <trkpt lat="37.416271000" lon="-4.499616000">
        <ele>451.7</ele>
        <time>2020-10-15T16:56:38Z</time>
      </trkpt>
      <trkpt lat="37.416260000" lon="-4.499729000">
        <ele>451.6</ele>
        <time>2020-10-15T16:56:40Z</time>
      </trkpt>
      <trkpt lat="37.416259000" lon="-4.499851000">
        <ele>451.6</ele>
        <time>2020-10-15T16:56:42Z</time>
      </trkpt>
      <trkpt lat="37.416272000" lon="-4.499970000">
        <ele>451.6</ele>
        <time>2020-10-15T16:56:44Z</time>
      </trkpt>
      <trkpt lat="37.416276000" lon="-4.500079000">
        <ele>451.6</ele>
        <time>2020-10-15T16:56:46Z</time>
      </trkpt>
      <trkpt lat="37.416289000" lon="-4.500191000">
        <ele>451.6</ele>
        <time>2020-10-15T16:56:48Z</time>
      </trkpt>
      <trkpt lat="37.416295000" lon="-4.500299000">
        <ele>451.6</ele>
        <time>2020-10-15T16:56:50Z</time>
      </trkpt>
      <trkpt lat="37.416311000" lon="-4.500451000">
        <ele>451.5</ele>
        <time>2020-10-15T16:56:53Z</time>
      </trkpt>
      <trkpt lat="37.416319000" lon="-4.500554000">
        <ele>451.6</ele>
        <time>2020-10-15T16:56:55Z</time>
      </trkpt>
      <trkpt lat="37.416319000" lon="-4.500554000">
        <ele>451.7</ele>
        <time>2020-10-15T16:56:55Z</time>
      </trkpt>
      <trkpt lat="37.420593000" lon="-4.519648000">
        <ele>434.5</ele>
        <time>2020-10-16T07:08:25Z</time>
      </trkpt>
      <trkpt lat="37.420665000" lon="-4.519705000">
        <ele>434.6</ele>
        <time>2020-10-16T07:08:43Z</time>
      </trkpt>
      <trkpt lat="37.420711000" lon="-4.519803000">
        <ele>434.6</ele>
        <time>2020-10-16T07:08:51Z</time>
      </trkpt>
      <trkpt lat="37.420741000" lon="-4.519919000">
        <ele>434.7</ele>
        <time>2020-10-16T07:08:55Z</time>
      </trkpt>
      <trkpt lat="37.420791000" lon="-4.520010000">
        <ele>434.7</ele>
        <time>2020-10-16T07:08:58Z</time>
      </trkpt>
      <trkpt lat="37.420854000" lon="-4.520127000">
        <ele>434.7</ele>
        <time>2020-10-16T07:09:01Z</time>
      </trkpt>
      <trkpt lat="37.420912000" lon="-4.520248000">
        <ele>434.7</ele>
        <time>2020-10-16T07:09:04Z</time>
      </trkpt>
      <trkpt lat="37.420967000" lon="-4.520372000">
        <ele>434.6</ele>
        <time>2020-10-16T07:09:07Z</time>
      </trkpt>
      <trkpt lat="37.421010000" lon="-4.520464000">
        <ele>434.5</ele>
        <time>2020-10-16T07:09:09Z</time>
      </trkpt>
      <trkpt lat="37.421054000" lon="-4.520563000">
        <ele>434.1</ele>
        <time>2020-10-16T07:09:11Z</time>
      </trkpt>
      <trkpt lat="37.421093000" lon="-4.520660000">
        <ele>433.6</ele>
        <time>2020-10-16T07:09:13Z</time>
      </trkpt>
      <trkpt lat="37.421134000" lon="-4.520759000">
        <ele>433.2</ele>
        <time>2020-10-16T07:09:15Z</time>
      </trkpt>
      <trkpt lat="37.421164000" lon="-4.520874000">
        <ele>432.7</ele>
        <time>2020-10-16T07:09:17Z</time>
      </trkpt>
      <trkpt lat="37.421214000" lon="-4.520986000">
        <ele>432.3</ele>
        <time>2020-10-16T07:09:19Z</time>
      </trkpt>
      <trkpt lat="37.421263000" lon="-4.521092000">
        <ele>431.8</ele>
        <time>2020-10-16T07:09:21Z</time>
      </trkpt>
      <trkpt lat="37.421312000" lon="-4.521198000">
        <ele>431.4</ele>
        <time>2020-10-16T07:09:23Z</time>
      </trkpt>
      <trkpt lat="37.421350000" lon="-4.521307000">
        <ele>430.9</ele>
        <time>2020-10-16T07:09:25Z</time>
      </trkpt>
      <trkpt lat="37.421398000" lon="-4.521410000">
        <ele>430.5</ele>
        <time>2020-10-16T07:09:27Z</time>
      </trkpt>
      <trkpt lat="37.421449000" lon="-4.521503000">
        <ele>430.3</ele>
        <time>2020-10-16T07:09:29Z</time>
      </trkpt>
      <trkpt lat="37.421489000" lon="-4.521601000">
        <ele>430.0</ele>
        <time>2020-10-16T07:09:31Z</time>
      </trkpt>
      <trkpt lat="37.421531000" lon="-4.521695000">
        <ele>429.8</ele>
        <time>2020-10-16T07:09:33Z</time>
      </trkpt>
      <trkpt lat="37.421567000" lon="-4.521792000">
        <ele>429.7</ele>
        <time>2020-10-16T07:09:35Z</time>
      </trkpt>
      <trkpt lat="37.421614000" lon="-4.521886000">
        <ele>429.5</ele>
        <time>2020-10-16T07:09:37Z</time>
      </trkpt>
      <trkpt lat="37.421660000" lon="-4.521977000">
        <ele>429.4</ele>
        <time>2020-10-16T07:09:39Z</time>
      </trkpt>
      <trkpt lat="37.421703000" lon="-4.522064000">
        <ele>429.2</ele>
        <time>2020-10-16T07:09:41Z</time>
      </trkpt>
      <trkpt lat="37.421752000" lon="-4.522149000">
        <ele>429.1</ele>
        <time>2020-10-16T07:09:43Z</time>
      </trkpt>
      <trkpt lat="37.421798000" lon="-4.522235000">
        <ele>429.0</ele>
        <time>2020-10-16T07:09:45Z</time>
      </trkpt>
      <trkpt lat="37.421844000" lon="-4.522360000">
        <ele>428.9</ele>
        <time>2020-10-16T07:09:48Z</time>
      </trkpt>
      <trkpt lat="37.421845000" lon="-4.522467000">
        <ele>428.8</ele>
        <time>2020-10-16T07:09:51Z</time>
      </trkpt>
      <trkpt lat="37.421816000" lon="-4.522563000">
        <ele>428.7</ele>
        <time>2020-10-16T07:09:54Z</time>
      </trkpt>
      <trkpt lat="37.421716000" lon="-4.522613000">
        <ele>428.7</ele>
        <time>2020-10-16T07:09:57Z</time>
      </trkpt>
      <trkpt lat="37.421605000" lon="-4.522665000">
        <ele>428.8</ele>
        <time>2020-10-16T07:10:00Z</time>
      </trkpt>
      <trkpt lat="37.421499000" lon="-4.522714000">
        <ele>428.8</ele>
        <time>2020-10-16T07:10:03Z</time>
      </trkpt>
      <trkpt lat="37.421435000" lon="-4.522781000">
        <ele>428.9</ele>
        <time>2020-10-16T07:10:06Z</time>
      </trkpt>
      <trkpt lat="37.421492000" lon="-4.522890000">
        <ele>429.0</ele>
        <time>2020-10-16T07:10:10Z</time>
      </trkpt>
      <trkpt lat="37.421538000" lon="-4.522985000">
        <ele>429.0</ele>
        <time>2020-10-16T07:10:13Z</time>
      </trkpt>
      <trkpt lat="37.421591000" lon="-4.523109000">
        <ele>428.9</ele>
        <time>2020-10-16T07:10:16Z</time>
      </trkpt>
      <trkpt lat="37.421627000" lon="-4.523205000">
        <ele>428.8</ele>
        <time>2020-10-16T07:10:18Z</time>
      </trkpt>
      <trkpt lat="37.421660000" lon="-4.523299000">
        <ele>428.6</ele>
        <time>2020-10-16T07:10:20Z</time>
      </trkpt>
      <trkpt lat="37.421697000" lon="-4.523399000">
        <ele>428.5</ele>
        <time>2020-10-16T07:10:22Z</time>
      </trkpt>
      <trkpt lat="37.421740000" lon="-4.523499000">
        <ele>428.3</ele>
        <time>2020-10-16T07:10:24Z</time>
      </trkpt>
      <trkpt lat="37.421787000" lon="-4.523604000">
        <ele>428.1</ele>
        <time>2020-10-16T07:10:26Z</time>
      </trkpt>
      <trkpt lat="37.421831000" lon="-4.523706000">
        <ele>427.8</ele>
        <time>2020-10-16T07:10:28Z</time>
      </trkpt>
      <trkpt lat="37.421879000" lon="-4.523809000">
        <ele>427.6</ele>
        <time>2020-10-16T07:10:30Z</time>
      </trkpt>
      <trkpt lat="37.421918000" lon="-4.523905000">
        <ele>427.5</ele>
        <time>2020-10-16T07:10:32Z</time>
      </trkpt>
      <trkpt lat="37.421972000" lon="-4.524030000">
        <ele>427.3</ele>
        <time>2020-10-16T07:10:35Z</time>
      </trkpt>
      <trkpt lat="37.422017000" lon="-4.524115000">
        <ele>427.2</ele>
        <time>2020-10-16T07:10:40Z</time>
      </trkpt>
      <trkpt lat="37.422057000" lon="-4.524215000">
        <ele>427.1</ele>
        <time>2020-10-16T07:11:55Z</time>
      </trkpt>
      <trkpt lat="37.422102000" lon="-4.524321000">
        <ele>427.0</ele>
        <time>2020-10-16T07:11:58Z</time>
      </trkpt>
      <trkpt lat="37.422155000" lon="-4.524459000">
        <ele>427.0</ele>
        <time>2020-10-16T07:12:01Z</time>
      </trkpt>
      <trkpt lat="37.422200000" lon="-4.524571000">
        <ele>427.0</ele>
        <time>2020-10-16T07:12:03Z</time>
      </trkpt>
      <trkpt lat="37.422243000" lon="-4.524679000">
        <ele>427.0</ele>
        <time>2020-10-16T07:12:05Z</time>
      </trkpt>
      <trkpt lat="37.422289000" lon="-4.524790000">
        <ele>427.0</ele>
        <time>2020-10-16T07:12:07Z</time>
      </trkpt>
      <trkpt lat="37.422333000" lon="-4.524906000">
        <ele>426.9</ele>
        <time>2020-10-16T07:12:09Z</time>
      </trkpt>
      <trkpt lat="37.422382000" lon="-4.525024000">
        <ele>426.8</ele>
        <time>2020-10-16T07:12:11Z</time>
      </trkpt>
      <trkpt lat="37.422428000" lon="-4.525150000">
        <ele>426.6</ele>
        <time>2020-10-16T07:12:13Z</time>
      </trkpt>
      <trkpt lat="37.422483000" lon="-4.525266000">
        <ele>426.5</ele>
        <time>2020-10-16T07:12:15Z</time>
      </trkpt>
      <trkpt lat="37.422536000" lon="-4.525384000">
        <ele>426.3</ele>
        <time>2020-10-16T07:12:17Z</time>
      </trkpt>
      <trkpt lat="37.422589000" lon="-4.525500000">
        <ele>426.1</ele>
        <time>2020-10-16T07:12:19Z</time>
      </trkpt>
      <trkpt lat="37.422637000" lon="-4.525612000">
        <ele>425.9</ele>
        <time>2020-10-16T07:12:21Z</time>
      </trkpt>
      <trkpt lat="37.422684000" lon="-4.525732000">
        <ele>425.7</ele>
        <time>2020-10-16T07:12:23Z</time>
      </trkpt>
      <trkpt lat="37.422734000" lon="-4.525855000">
        <ele>425.5</ele>
        <time>2020-10-16T07:12:25Z</time>
      </trkpt>
      <trkpt lat="37.422783000" lon="-4.525973000">
        <ele>425.4</ele>
        <time>2020-10-16T07:12:27Z</time>
      </trkpt>
      <trkpt lat="37.422831000" lon="-4.526093000">
        <ele>425.2</ele>
        <time>2020-10-16T07:12:29Z</time>
      </trkpt>
      <trkpt lat="37.422872000" lon="-4.526204000">
        <ele>425.1</ele>
        <time>2020-10-16T07:12:31Z</time>
      </trkpt>
      <trkpt lat="37.422919000" lon="-4.526317000">
        <ele>424.9</ele>
        <time>2020-10-16T07:12:33Z</time>
      </trkpt>
      <trkpt lat="37.422966000" lon="-4.526434000">
        <ele>424.8</ele>
        <time>2020-10-16T07:12:35Z</time>
      </trkpt>
      <trkpt lat="37.423016000" lon="-4.526554000">
        <ele>424.7</ele>
        <time>2020-10-16T07:12:37Z</time>
      </trkpt>
      <trkpt lat="37.423068000" lon="-4.526675000">
        <ele>424.7</ele>
        <time>2020-10-16T07:12:39Z</time>
      </trkpt>
      <trkpt lat="37.423121000" lon="-4.526801000">
        <ele>424.6</ele>
        <time>2020-10-16T07:12:41Z</time>
      </trkpt>
      <trkpt lat="37.423169000" lon="-4.526927000">
        <ele>424.4</ele>
        <time>2020-10-16T07:12:43Z</time>
      </trkpt>
      <trkpt lat="37.423225000" lon="-4.527044000">
        <ele>424.0</ele>
        <time>2020-10-16T07:12:45Z</time>
      </trkpt>
      <trkpt lat="37.423276000" lon="-4.527164000">
        <ele>423.5</ele>
        <time>2020-10-16T07:12:47Z</time>
      </trkpt>
      <trkpt lat="37.423331000" lon="-4.527287000">
        <ele>422.9</ele>
        <time>2020-10-16T07:12:49Z</time>
      </trkpt>
      <trkpt lat="37.423385000" lon="-4.527418000">
        <ele>422.3</ele>
        <time>2020-10-16T07:12:51Z</time>
      </trkpt>
      <trkpt lat="37.423440000" lon="-4.527551000">
        <ele>421.6</ele>
        <time>2020-10-16T07:12:53Z</time>
      </trkpt>
      <trkpt lat="37.423495000" lon="-4.527681000">
        <ele>421.1</ele>
        <time>2020-10-16T07:12:55Z</time>
      </trkpt>
      <trkpt lat="37.423541000" lon="-4.527815000">
        <ele>420.5</ele>
        <time>2020-10-16T07:12:57Z</time>
      </trkpt>
      <trkpt lat="37.423588000" lon="-4.527953000">
        <ele>420.0</ele>
        <time>2020-10-16T07:12:59Z</time>
      </trkpt>
      <trkpt lat="37.423646000" lon="-4.528085000">
        <ele>419.4</ele>
        <time>2020-10-16T07:13:01Z</time>
      </trkpt>
      <trkpt lat="37.423706000" lon="-4.528227000">
        <ele>418.8</ele>
        <time>2020-10-16T07:13:03Z</time>
      </trkpt>
      <trkpt lat="37.423767000" lon="-4.528375000">
        <ele>418.5</ele>
        <time>2020-10-16T07:13:05Z</time>
      </trkpt>
      <trkpt lat="37.423839000" lon="-4.528523000">
        <ele>418.2</ele>
        <time>2020-10-16T07:13:07Z</time>
      </trkpt>
      <trkpt lat="37.423900000" lon="-4.528675000">
        <ele>418.0</ele>
        <time>2020-10-16T07:13:09Z</time>
      </trkpt>
      <trkpt lat="37.423961000" lon="-4.528824000">
        <ele>417.8</ele>
        <time>2020-10-16T07:13:11Z</time>
      </trkpt>
      <trkpt lat="37.424026000" lon="-4.528975000">
        <ele>417.7</ele>
        <time>2020-10-16T07:13:13Z</time>
      </trkpt>
      <trkpt lat="37.424091000" lon="-4.529125000">
        <ele>417.5</ele>
        <time>2020-10-16T07:13:15Z</time>
      </trkpt>
      <trkpt lat="37.424150000" lon="-4.529281000">
        <ele>417.4</ele>
        <time>2020-10-16T07:13:17Z</time>
      </trkpt>
      <trkpt lat="37.424211000" lon="-4.529434000">
        <ele>417.2</ele>
        <time>2020-10-16T07:13:19Z</time>
      </trkpt>
      <trkpt lat="37.424274000" lon="-4.529590000">
        <ele>416.9</ele>
        <time>2020-10-16T07:13:21Z</time>
      </trkpt>
      <trkpt lat="37.424341000" lon="-4.529747000">
        <ele>416.6</ele>
        <time>2020-10-16T07:13:23Z</time>
      </trkpt>
      <trkpt lat="37.424403000" lon="-4.529899000">
        <ele>416.4</ele>
        <time>2020-10-16T07:13:25Z</time>
      </trkpt>
      <trkpt lat="37.424462000" lon="-4.530058000">
        <ele>416.1</ele>
        <time>2020-10-16T07:13:27Z</time>
      </trkpt>
      <trkpt lat="37.424528000" lon="-4.530209000">
        <ele>415.7</ele>
        <time>2020-10-16T07:13:29Z</time>
      </trkpt>
      <trkpt lat="37.424592000" lon="-4.530355000">
        <ele>415.5</ele>
        <time>2020-10-16T07:13:31Z</time>
      </trkpt>
      <trkpt lat="37.424649000" lon="-4.530476000">
        <ele>415.1</ele>
        <time>2020-10-16T07:13:33Z</time>
      </trkpt>
      <trkpt lat="37.424688000" lon="-4.530571000">
        <ele>414.7</ele>
        <time>2020-10-16T07:13:35Z</time>
      </trkpt>
      <trkpt lat="37.424720000" lon="-4.530676000">
        <ele>414.4</ele>
        <time>2020-10-16T07:13:39Z</time>
      </trkpt>
      <trkpt lat="37.424764000" lon="-4.530794000">
        <ele>414.0</ele>
        <time>2020-10-16T07:13:43Z</time>
      </trkpt>
      <trkpt lat="37.424803000" lon="-4.530923000">
        <ele>413.6</ele>
        <time>2020-10-16T07:13:46Z</time>
      </trkpt>
      <trkpt lat="37.424844000" lon="-4.531056000">
        <ele>413.4</ele>
        <time>2020-10-16T07:13:49Z</time>
      </trkpt>
      <trkpt lat="37.424880000" lon="-4.531191000">
        <ele>413.1</ele>
        <time>2020-10-16T07:13:52Z</time>
      </trkpt>
      <trkpt lat="37.424915000" lon="-4.531326000">
        <ele>412.8</ele>
        <time>2020-10-16T07:13:55Z</time>
      </trkpt>
      <trkpt lat="37.424946000" lon="-4.531461000">
        <ele>412.5</ele>
        <time>2020-10-16T07:13:58Z</time>
      </trkpt>
      <trkpt lat="37.424977000" lon="-4.531561000">
        <ele>412.5</ele>
        <time>2020-10-16T07:14:00Z</time>
      </trkpt>
      <trkpt lat="37.425001000" lon="-4.531669000">
        <ele>412.4</ele>
        <time>2020-10-16T07:14:02Z</time>
      </trkpt>
      <trkpt lat="37.425019000" lon="-4.531792000">
        <ele>412.4</ele>
        <time>2020-10-16T07:14:04Z</time>
      </trkpt>
      <trkpt lat="37.425039000" lon="-4.531904000">
        <ele>412.3</ele>
        <time>2020-10-16T07:14:06Z</time>
      </trkpt>
      <trkpt lat="37.425066000" lon="-4.532011000">
        <ele>412.3</ele>
        <time>2020-10-16T07:14:08Z</time>
      </trkpt>
      <trkpt lat="37.425075000" lon="-4.532121000">
        <ele>412.3</ele>
        <time>2020-10-16T07:14:10Z</time>
      </trkpt>
      <trkpt lat="37.425092000" lon="-4.532228000">
        <ele>412.3</ele>
        <time>2020-10-16T07:14:12Z</time>
      </trkpt>
      <trkpt lat="37.425107000" lon="-4.532335000">
        <ele>412.3</ele>
        <time>2020-10-16T07:14:14Z</time>
      </trkpt>
      <trkpt lat="37.425110000" lon="-4.532449000">
        <ele>412.2</ele>
        <time>2020-10-16T07:14:16Z</time>
      </trkpt>
      <trkpt lat="37.425123000" lon="-4.532561000">
        <ele>412.1</ele>
        <time>2020-10-16T07:14:18Z</time>
      </trkpt>
      <trkpt lat="37.425129000" lon="-4.532675000">
        <ele>411.9</ele>
        <time>2020-10-16T07:14:20Z</time>
      </trkpt>
      <trkpt lat="37.425134000" lon="-4.532788000">
        <ele>411.6</ele>
        <time>2020-10-16T07:14:22Z</time>
      </trkpt>
      <trkpt lat="37.425137000" lon="-4.532898000">
        <ele>411.4</ele>
        <time>2020-10-16T07:14:24Z</time>
      </trkpt>
      <trkpt lat="37.425146000" lon="-4.533012000">
        <ele>411.1</ele>
        <time>2020-10-16T07:14:26Z</time>
      </trkpt>
      <trkpt lat="37.425147000" lon="-4.533129000">
        <ele>410.8</ele>
        <time>2020-10-16T07:14:28Z</time>
      </trkpt>
      <trkpt lat="37.425144000" lon="-4.533248000">
        <ele>410.5</ele>
        <time>2020-10-16T07:14:30Z</time>
      </trkpt>
      <trkpt lat="37.425142000" lon="-4.533363000">
        <ele>410.3</ele>
        <time>2020-10-16T07:14:32Z</time>
      </trkpt>
      <trkpt lat="37.425147000" lon="-4.533469000">
        <ele>410.0</ele>
        <time>2020-10-16T07:14:34Z</time>
      </trkpt>
      <trkpt lat="37.425142000" lon="-4.533581000">
        <ele>409.7</ele>
        <time>2020-10-16T07:14:36Z</time>
      </trkpt>
      <trkpt lat="37.425133000" lon="-4.533691000">
        <ele>409.6</ele>
        <time>2020-10-16T07:14:38Z</time>
      </trkpt>
      <trkpt lat="37.425126000" lon="-4.533802000">
        <ele>409.5</ele>
        <time>2020-10-16T07:14:40Z</time>
      </trkpt>
      <trkpt lat="37.425121000" lon="-4.533910000">
        <ele>409.5</ele>
        <time>2020-10-16T07:14:42Z</time>
      </trkpt>
      <trkpt lat="37.425117000" lon="-4.534016000">
        <ele>409.5</ele>
        <time>2020-10-16T07:14:44Z</time>
      </trkpt>
      <trkpt lat="37.425108000" lon="-4.534123000">
        <ele>409.5</ele>
        <time>2020-10-16T07:14:46Z</time>
      </trkpt>
      <trkpt lat="37.425101000" lon="-4.534230000">
        <ele>409.5</ele>
        <time>2020-10-16T07:14:48Z</time>
      </trkpt>
      <trkpt lat="37.425097000" lon="-4.534345000">
        <ele>409.6</ele>
        <time>2020-10-16T07:14:50Z</time>
      </trkpt>
      <trkpt lat="37.425094000" lon="-4.534463000">
        <ele>409.7</ele>
        <time>2020-10-16T07:14:52Z</time>
      </trkpt>
      <trkpt lat="37.425084000" lon="-4.534585000">
        <ele>409.7</ele>
        <time>2020-10-16T07:14:55Z</time>
      </trkpt>
      <trkpt lat="37.425081000" lon="-4.534714000">
        <ele>409.7</ele>
        <time>2020-10-16T07:14:56Z</time>
      </trkpt>
      <trkpt lat="37.425076000" lon="-4.534850000">
        <ele>409.7</ele>
        <time>2020-10-16T07:14:58Z</time>
      </trkpt>
      <trkpt lat="37.425065000" lon="-4.534990000">
        <ele>409.6</ele>
        <time>2020-10-16T07:15:00Z</time>
      </trkpt>
      <trkpt lat="37.425062000" lon="-4.535125000">
        <ele>409.5</ele>
        <time>2020-10-16T07:15:02Z</time>
      </trkpt>
      <trkpt lat="37.425056000" lon="-4.535268000">
        <ele>409.4</ele>
        <time>2020-10-16T07:15:04Z</time>
      </trkpt>
      <trkpt lat="37.425049000" lon="-4.535416000">
        <ele>409.2</ele>
        <time>2020-10-16T07:15:06Z</time>
      </trkpt>
      <trkpt lat="37.425035000" lon="-4.535574000">
        <ele>408.9</ele>
        <time>2020-10-16T07:15:08Z</time>
      </trkpt>
      <trkpt lat="37.425024000" lon="-4.535727000">
        <ele>408.5</ele>
        <time>2020-10-16T07:15:10Z</time>
      </trkpt>
      <trkpt lat="37.425016000" lon="-4.535879000">
        <ele>408.2</ele>
        <time>2020-10-16T07:15:12Z</time>
      </trkpt>
      <trkpt lat="37.425006000" lon="-4.536033000">
        <ele>407.7</ele>
        <time>2020-10-16T07:15:14Z</time>
      </trkpt>
      <trkpt lat="37.425002000" lon="-4.536189000">
        <ele>407.4</ele>
        <time>2020-10-16T07:15:16Z</time>
      </trkpt>
      <trkpt lat="37.424992000" lon="-4.536347000">
        <ele>406.9</ele>
        <time>2020-10-16T07:15:18Z</time>
      </trkpt>
      <trkpt lat="37.424981000" lon="-4.536502000">
        <ele>406.5</ele>
        <time>2020-10-16T07:15:20Z</time>
      </trkpt>
      <trkpt lat="37.424970000" lon="-4.536656000">
        <ele>405.9</ele>
        <time>2020-10-16T07:15:22Z</time>
      </trkpt>
      <trkpt lat="37.424964000" lon="-4.536810000">
        <ele>405.3</ele>
        <time>2020-10-16T07:15:24Z</time>
      </trkpt>
      <trkpt lat="37.424956000" lon="-4.536966000">
        <ele>404.7</ele>
        <time>2020-10-16T07:15:26Z</time>
      </trkpt>
      <trkpt lat="37.424952000" lon="-4.537126000">
        <ele>404.1</ele>
        <time>2020-10-16T07:15:28Z</time>
      </trkpt>
      <trkpt lat="37.424945000" lon="-4.537284000">
        <ele>403.5</ele>
        <time>2020-10-16T07:15:30Z</time>
      </trkpt>
      <trkpt lat="37.424936000" lon="-4.537447000">
        <ele>403.1</ele>
        <time>2020-10-16T07:15:32Z</time>
      </trkpt>
      <trkpt lat="37.424931000" lon="-4.537616000">
        <ele>402.6</ele>
        <time>2020-10-16T07:15:34Z</time>
      </trkpt>
      <trkpt lat="37.424918000" lon="-4.537783000">
        <ele>402.3</ele>
        <time>2020-10-16T07:15:36Z</time>
      </trkpt>
      <trkpt lat="37.424905000" lon="-4.537949000">
        <ele>401.9</ele>
        <time>2020-10-16T07:15:38Z</time>
      </trkpt>
      <trkpt lat="37.424898000" lon="-4.538111000">
        <ele>401.5</ele>
        <time>2020-10-16T07:15:40Z</time>
      </trkpt>
      <trkpt lat="37.424892000" lon="-4.538280000">
        <ele>401.2</ele>
        <time>2020-10-16T07:15:42Z</time>
      </trkpt>
      <trkpt lat="37.424887000" lon="-4.538450000">
        <ele>400.9</ele>
        <time>2020-10-16T07:15:44Z</time>
      </trkpt>
      <trkpt lat="37.424878000" lon="-4.538621000">
        <ele>400.7</ele>
        <time>2020-10-16T07:15:46Z</time>
      </trkpt>
      <trkpt lat="37.424869000" lon="-4.538787000">
        <ele>400.5</ele>
        <time>2020-10-16T07:15:48Z</time>
      </trkpt>
      <trkpt lat="37.424858000" lon="-4.538956000">
        <ele>400.5</ele>
        <time>2020-10-16T07:15:50Z</time>
      </trkpt>
      <trkpt lat="37.424853000" lon="-4.539126000">
        <ele>400.4</ele>
        <time>2020-10-16T07:15:52Z</time>
      </trkpt>
      <trkpt lat="37.424846000" lon="-4.539293000">
        <ele>400.3</ele>
        <time>2020-10-16T07:15:54Z</time>
      </trkpt>
      <trkpt lat="37.424837000" lon="-4.539456000">
        <ele>400.2</ele>
        <time>2020-10-16T07:15:56Z</time>
      </trkpt>
      <trkpt lat="37.424822000" lon="-4.539627000">
        <ele>400.1</ele>
        <time>2020-10-16T07:15:58Z</time>
      </trkpt>
      <trkpt lat="37.424806000" lon="-4.539792000">
        <ele>400.0</ele>
        <time>2020-10-16T07:16:00Z</time>
      </trkpt>
      <trkpt lat="37.424791000" lon="-4.539950000">
        <ele>400.0</ele>
        <time>2020-10-16T07:16:02Z</time>
      </trkpt>
      <trkpt lat="37.424765000" lon="-4.540111000">
        <ele>400.0</ele>
        <time>2020-10-16T07:16:04Z</time>
      </trkpt>
      <trkpt lat="37.424736000" lon="-4.540274000">
        <ele>400.0</ele>
        <time>2020-10-16T07:16:06Z</time>
      </trkpt>
      <trkpt lat="37.424704000" lon="-4.540425000">
        <ele>400.0</ele>
        <time>2020-10-16T07:16:08Z</time>
      </trkpt>
      <trkpt lat="37.424671000" lon="-4.540588000">
        <ele>400.0</ele>
        <time>2020-10-16T07:16:10Z</time>
      </trkpt>
      <trkpt lat="37.424636000" lon="-4.540726000">
        <ele>400.0</ele>
        <time>2020-10-16T07:16:12Z</time>
      </trkpt>
      <trkpt lat="37.424529000" lon="-4.541098000">
        <ele>399.9</ele>
        <time>2020-10-16T07:16:17Z</time>
      </trkpt>
      <trkpt lat="37.424496000" lon="-4.541213000">
        <ele>399.8</ele>
        <time>2020-10-16T07:16:20Z</time>
      </trkpt>
      <trkpt lat="37.424461000" lon="-4.541308000">
        <ele>399.7</ele>
        <time>2020-10-16T07:16:22Z</time>
      </trkpt>
      <trkpt lat="37.424422000" lon="-4.541400000">
        <ele>399.6</ele>
        <time>2020-10-16T07:16:24Z</time>
      </trkpt>
      <trkpt lat="37.424373000" lon="-4.541502000">
        <ele>399.5</ele>
        <time>2020-10-16T07:16:26Z</time>
      </trkpt>
      <trkpt lat="37.424320000" lon="-4.541607000">
        <ele>399.5</ele>
        <time>2020-10-16T07:16:28Z</time>
      </trkpt>
      <trkpt lat="37.424265000" lon="-4.541721000">
        <ele>399.4</ele>
        <time>2020-10-16T07:16:30Z</time>
      </trkpt>
      <trkpt lat="37.424204000" lon="-4.541834000">
        <ele>399.3</ele>
        <time>2020-10-16T07:16:32Z</time>
      </trkpt>
      <trkpt lat="37.424143000" lon="-4.541946000">
        <ele>399.2</ele>
        <time>2020-10-16T07:16:34Z</time>
      </trkpt>
      <trkpt lat="37.424083000" lon="-4.542065000">
        <ele>399.0</ele>
        <time>2020-10-16T07:16:36Z</time>
      </trkpt>
      <trkpt lat="37.424023000" lon="-4.542190000">
        <ele>398.8</ele>
        <time>2020-10-16T07:16:38Z</time>
      </trkpt>
      <trkpt lat="37.423962000" lon="-4.542310000">
        <ele>398.7</ele>
        <time>2020-10-16T07:16:40Z</time>
      </trkpt>
      <trkpt lat="37.423904000" lon="-4.542430000">
        <ele>398.6</ele>
        <time>2020-10-16T07:16:42Z</time>
      </trkpt>
      <trkpt lat="37.423843000" lon="-4.542541000">
        <ele>398.5</ele>
        <time>2020-10-16T07:16:44Z</time>
      </trkpt>
      <trkpt lat="37.423783000" lon="-4.542658000">
        <ele>398.4</ele>
        <time>2020-10-16T07:16:46Z</time>
      </trkpt>
      <trkpt lat="37.423718000" lon="-4.542777000">
        <ele>398.2</ele>
        <time>2020-10-16T07:16:48Z</time>
      </trkpt>
      <trkpt lat="37.423654000" lon="-4.542899000">
        <ele>397.9</ele>
        <time>2020-10-16T07:16:50Z</time>
      </trkpt>
      <trkpt lat="37.423588000" lon="-4.543026000">
        <ele>397.6</ele>
        <time>2020-10-16T07:16:52Z</time>
      </trkpt>
      <trkpt lat="37.423522000" lon="-4.543157000">
        <ele>397.3</ele>
        <time>2020-10-16T07:16:54Z</time>
      </trkpt>
      <trkpt lat="37.423454000" lon="-4.543285000">
        <ele>396.9</ele>
        <time>2020-10-16T07:16:56Z</time>
      </trkpt>
      <trkpt lat="37.423381000" lon="-4.543423000">
        <ele>396.6</ele>
        <time>2020-10-16T07:16:58Z</time>
      </trkpt>
      <trkpt lat="37.423310000" lon="-4.543564000">
        <ele>396.4</ele>
        <time>2020-10-16T07:17:00Z</time>
      </trkpt>
      <trkpt lat="37.423239000" lon="-4.543706000">
        <ele>396.0</ele>
        <time>2020-10-16T07:17:02Z</time>
      </trkpt>
      <trkpt lat="37.423164000" lon="-4.543852000">
        <ele>395.6</ele>
        <time>2020-10-16T07:17:04Z</time>
      </trkpt>
      <trkpt lat="37.423088000" lon="-4.543997000">
        <ele>395.3</ele>
        <time>2020-10-16T07:17:06Z</time>
      </trkpt>
      <trkpt lat="37.423016000" lon="-4.544137000">
        <ele>395.0</ele>
        <time>2020-10-16T07:17:08Z</time>
      </trkpt>
      <trkpt lat="37.422937000" lon="-4.544280000">
        <ele>394.6</ele>
        <time>2020-10-16T07:17:10Z</time>
      </trkpt>
      <trkpt lat="37.422863000" lon="-4.544424000">
        <ele>394.3</ele>
        <time>2020-10-16T07:17:12Z</time>
      </trkpt>
      <trkpt lat="37.422810000" lon="-4.544529000">
        <ele>393.9</ele>
        <time>2020-10-16T07:17:14Z</time>
      </trkpt>
      <trkpt lat="37.422767000" lon="-4.544618000">
        <ele>393.6</ele>
        <time>2020-10-16T07:17:16Z</time>
      </trkpt>
      <trkpt lat="37.422714000" lon="-4.544735000">
        <ele>393.4</ele>
        <time>2020-10-16T07:17:19Z</time>
      </trkpt>
      <trkpt lat="37.422725000" lon="-4.544838000">
        <ele>393.1</ele>
        <time>2020-10-16T07:21:25Z</time>
      </trkpt>
      <trkpt lat="37.422583000" lon="-4.545060000">
        <ele>392.8</ele>
        <time>2020-10-16T07:21:29Z</time>
      </trkpt>
      <trkpt lat="37.422613000" lon="-4.545183000">
        <ele>392.6</ele>
        <time>2020-10-16T07:21:33Z</time>
      </trkpt>
      <trkpt lat="37.422491000" lon="-4.545336000">
        <ele>392.5</ele>
        <time>2020-10-16T07:21:35Z</time>
      </trkpt>
      <trkpt lat="37.422456000" lon="-4.545442000">
        <ele>392.3</ele>
        <time>2020-10-16T07:21:37Z</time>
      </trkpt>
      <trkpt lat="37.422418000" lon="-4.545562000">
        <ele>392.1</ele>
        <time>2020-10-16T07:21:39Z</time>
      </trkpt>
      <trkpt lat="37.422386000" lon="-4.545685000">
        <ele>392.0</ele>
        <time>2020-10-16T07:21:41Z</time>
      </trkpt>
      <trkpt lat="37.422356000" lon="-4.545812000">
        <ele>392.0</ele>
        <time>2020-10-16T07:21:43Z</time>
      </trkpt>
      <trkpt lat="37.422326000" lon="-4.545943000">
        <ele>391.9</ele>
        <time>2020-10-16T07:21:45Z</time>
      </trkpt>
      <trkpt lat="37.422303000" lon="-4.546077000">
        <ele>391.8</ele>
        <time>2020-10-16T07:21:47Z</time>
      </trkpt>
      <trkpt lat="37.422282000" lon="-4.546217000">
        <ele>391.6</ele>
        <time>2020-10-16T07:21:49Z</time>
      </trkpt>
      <trkpt lat="37.422269000" lon="-4.546365000">
        <ele>391.5</ele>
        <time>2020-10-16T07:21:51Z</time>
      </trkpt>
      <trkpt lat="37.422255000" lon="-4.546513000">
        <ele>391.3</ele>
        <time>2020-10-16T07:21:53Z</time>
      </trkpt>
      <trkpt lat="37.422247000" lon="-4.546663000">
        <ele>391.1</ele>
        <time>2020-10-16T07:21:55Z</time>
      </trkpt>
      <trkpt lat="37.422241000" lon="-4.546810000">
        <ele>390.9</ele>
        <time>2020-10-16T07:21:57Z</time>
      </trkpt>
      <trkpt lat="37.422239000" lon="-4.546961000">
        <ele>390.6</ele>
        <time>2020-10-16T07:21:59Z</time>
      </trkpt>
      <trkpt lat="37.422242000" lon="-4.547113000">
        <ele>390.4</ele>
        <time>2020-10-16T07:22:01Z</time>
      </trkpt>
      <trkpt lat="37.422247000" lon="-4.547270000">
        <ele>390.1</ele>
        <time>2020-10-16T07:22:03Z</time>
      </trkpt>
      <trkpt lat="37.422255000" lon="-4.547427000">
        <ele>389.8</ele>
        <time>2020-10-16T07:22:05Z</time>
      </trkpt>
      <trkpt lat="37.422271000" lon="-4.547584000">
        <ele>389.6</ele>
        <time>2020-10-16T07:22:07Z</time>
      </trkpt>
      <trkpt lat="37.422289000" lon="-4.547743000">
        <ele>389.5</ele>
        <time>2020-10-16T07:22:09Z</time>
      </trkpt>
      <trkpt lat="37.422311000" lon="-4.547899000">
        <ele>389.4</ele>
        <time>2020-10-16T07:22:11Z</time>
      </trkpt>
      <trkpt lat="37.422340000" lon="-4.548052000">
        <ele>389.2</ele>
        <time>2020-10-16T07:22:13Z</time>
      </trkpt>
      <trkpt lat="37.422375000" lon="-4.548204000">
        <ele>389.0</ele>
        <time>2020-10-16T07:22:15Z</time>
      </trkpt>
      <trkpt lat="37.422406000" lon="-4.548361000">
        <ele>388.8</ele>
        <time>2020-10-16T07:22:17Z</time>
      </trkpt>
      <trkpt lat="37.422443000" lon="-4.548514000">
        <ele>388.5</ele>
        <time>2020-10-16T07:22:19Z</time>
      </trkpt>
      <trkpt lat="37.422485000" lon="-4.548666000">
        <ele>388.4</ele>
        <time>2020-10-16T07:22:21Z</time>
      </trkpt>
      <trkpt lat="37.422534000" lon="-4.548813000">
        <ele>388.2</ele>
        <time>2020-10-16T07:22:23Z</time>
      </trkpt>
      <trkpt lat="37.422585000" lon="-4.548963000">
        <ele>388.0</ele>
        <time>2020-10-16T07:22:25Z</time>
      </trkpt>
      <trkpt lat="37.422629000" lon="-4.549124000">
        <ele>387.8</ele>
        <time>2020-10-16T07:22:27Z</time>
      </trkpt>
      <trkpt lat="37.422674000" lon="-4.549274000">
        <ele>387.7</ele>
        <time>2020-10-16T07:22:29Z</time>
      </trkpt>
      <trkpt lat="37.422721000" lon="-4.549423000">
        <ele>387.6</ele>
        <time>2020-10-16T07:22:31Z</time>
      </trkpt>
      <trkpt lat="37.422769000" lon="-4.549580000">
        <ele>387.5</ele>
        <time>2020-10-16T07:22:33Z</time>
      </trkpt>
      <trkpt lat="37.422814000" lon="-4.549738000">
        <ele>387.6</ele>
        <time>2020-10-16T07:22:35Z</time>
      </trkpt>
      <trkpt lat="37.422865000" lon="-4.549890000">
        <ele>387.6</ele>
        <time>2020-10-16T07:22:37Z</time>
      </trkpt>
      <trkpt lat="37.422915000" lon="-4.550052000">
        <ele>387.6</ele>
        <time>2020-10-16T07:22:39Z</time>
      </trkpt>
      <trkpt lat="37.422963000" lon="-4.550204000">
        <ele>387.6</ele>
        <time>2020-10-16T07:22:41Z</time>
      </trkpt>
      <trkpt lat="37.423009000" lon="-4.550359000">
        <ele>387.5</ele>
        <time>2020-10-16T07:22:43Z</time>
      </trkpt>
      <trkpt lat="37.423055000" lon="-4.550512000">
        <ele>387.4</ele>
        <time>2020-10-16T07:22:45Z</time>
      </trkpt>
      <trkpt lat="37.423100000" lon="-4.550666000">
        <ele>387.2</ele>
        <time>2020-10-16T07:22:47Z</time>
      </trkpt>
      <trkpt lat="37.423152000" lon="-4.550821000">
        <ele>387.1</ele>
        <time>2020-10-16T07:22:49Z</time>
      </trkpt>
      <trkpt lat="37.423199000" lon="-4.550977000">
        <ele>387.0</ele>
        <time>2020-10-16T07:22:51Z</time>
      </trkpt>
      <trkpt lat="37.423247000" lon="-4.551131000">
        <ele>386.9</ele>
        <time>2020-10-16T07:22:53Z</time>
      </trkpt>
      <trkpt lat="37.423296000" lon="-4.551285000">
        <ele>386.7</ele>
        <time>2020-10-16T07:22:55Z</time>
      </trkpt>
      <trkpt lat="37.423346000" lon="-4.551438000">
        <ele>386.4</ele>
        <time>2020-10-16T07:22:57Z</time>
      </trkpt>
      <trkpt lat="37.423393000" lon="-4.551595000">
        <ele>386.1</ele>
        <time>2020-10-16T07:22:59Z</time>
      </trkpt>
      <trkpt lat="37.423441000" lon="-4.551749000">
        <ele>385.7</ele>
        <time>2020-10-16T07:23:01Z</time>
      </trkpt>
      <trkpt lat="37.423486000" lon="-4.551901000">
        <ele>385.5</ele>
        <time>2020-10-16T07:23:03Z</time>
      </trkpt>
      <trkpt lat="37.423529000" lon="-4.552057000">
        <ele>385.3</ele>
        <time>2020-10-16T07:23:05Z</time>
      </trkpt>
      <trkpt lat="37.423569000" lon="-4.552213000">
        <ele>385.2</ele>
        <time>2020-10-16T07:23:07Z</time>
      </trkpt>
      <trkpt lat="37.423606000" lon="-4.552363000">
        <ele>385.1</ele>
        <time>2020-10-16T07:23:09Z</time>
      </trkpt>
      <trkpt lat="37.423640000" lon="-4.552517000">
        <ele>384.8</ele>
        <time>2020-10-16T07:23:11Z</time>
      </trkpt>
      <trkpt lat="37.423669000" lon="-4.552675000">
        <ele>384.4</ele>
        <time>2020-10-16T07:23:13Z</time>
      </trkpt>
      <trkpt lat="37.423692000" lon="-4.552836000">
        <ele>383.9</ele>
        <time>2020-10-16T07:23:15Z</time>
      </trkpt>
      <trkpt lat="37.423711000" lon="-4.553000000">
        <ele>383.5</ele>
        <time>2020-10-16T07:23:17Z</time>
      </trkpt>
      <trkpt lat="37.423723000" lon="-4.553159000">
        <ele>383.1</ele>
        <time>2020-10-16T07:23:19Z</time>
      </trkpt>
      <trkpt lat="37.423733000" lon="-4.553317000">
        <ele>382.7</ele>
        <time>2020-10-16T07:23:21Z</time>
      </trkpt>
      <trkpt lat="37.423743000" lon="-4.553472000">
        <ele>382.5</ele>
        <time>2020-10-16T07:23:23Z</time>
      </trkpt>
      <trkpt lat="37.423743000" lon="-4.553629000">
        <ele>382.3</ele>
        <time>2020-10-16T07:23:25Z</time>
      </trkpt>
      <trkpt lat="37.423739000" lon="-4.553784000">
        <ele>382.1</ele>
        <time>2020-10-16T07:23:27Z</time>
      </trkpt>
      <trkpt lat="37.423726000" lon="-4.553932000">
        <ele>381.9</ele>
        <time>2020-10-16T07:23:29Z</time>
      </trkpt>
      <trkpt lat="37.423716000" lon="-4.554083000">
        <ele>381.7</ele>
        <time>2020-10-16T07:23:31Z</time>
      </trkpt>
      <trkpt lat="37.423704000" lon="-4.554228000">
        <ele>381.7</ele>
        <time>2020-10-16T07:23:33Z</time>
      </trkpt>
      <trkpt lat="37.423685000" lon="-4.554376000">
        <ele>381.8</ele>
        <time>2020-10-16T07:23:35Z</time>
      </trkpt>
      <trkpt lat="37.423664000" lon="-4.554527000">
        <ele>381.9</ele>
        <time>2020-10-16T07:23:37Z</time>
      </trkpt>
      <trkpt lat="37.423641000" lon="-4.554672000">
        <ele>382.1</ele>
        <time>2020-10-16T07:23:39Z</time>
      </trkpt>
      <trkpt lat="37.423619000" lon="-4.554816000">
        <ele>382.3</ele>
        <time>2020-10-16T07:23:41Z</time>
      </trkpt>
      <trkpt lat="37.423593000" lon="-4.554957000">
        <ele>382.5</ele>
        <time>2020-10-16T07:23:43Z</time>
      </trkpt>
      <trkpt lat="37.423568000" lon="-4.555100000">
        <ele>382.7</ele>
        <time>2020-10-16T07:23:45Z</time>
      </trkpt>
      <trkpt lat="37.423545000" lon="-4.555249000">
        <ele>382.8</ele>
        <time>2020-10-16T07:23:47Z</time>
      </trkpt>
      <trkpt lat="37.423516000" lon="-4.555400000">
        <ele>382.9</ele>
        <time>2020-10-16T07:23:49Z</time>
      </trkpt>
      <trkpt lat="37.423488000" lon="-4.555544000">
        <ele>382.9</ele>
        <time>2020-10-16T07:23:51Z</time>
      </trkpt>
      <trkpt lat="37.423456000" lon="-4.555689000">
        <ele>382.9</ele>
        <time>2020-10-16T07:23:53Z</time>
      </trkpt>
      <trkpt lat="37.423424000" lon="-4.555840000">
        <ele>382.8</ele>
        <time>2020-10-16T07:23:55Z</time>
      </trkpt>
      <trkpt lat="37.423398000" lon="-4.555994000">
        <ele>382.7</ele>
        <time>2020-10-16T07:23:57Z</time>
      </trkpt>
      <trkpt lat="37.423372000" lon="-4.556146000">
        <ele>382.7</ele>
        <time>2020-10-16T07:23:59Z</time>
      </trkpt>
      <trkpt lat="37.423352000" lon="-4.556301000">
        <ele>382.7</ele>
        <time>2020-10-16T07:24:01Z</time>
      </trkpt>
      <trkpt lat="37.423324000" lon="-4.556454000">
        <ele>382.6</ele>
        <time>2020-10-16T07:24:03Z</time>
      </trkpt>
      <trkpt lat="37.423291000" lon="-4.556602000">
        <ele>382.5</ele>
        <time>2020-10-16T07:24:05Z</time>
      </trkpt>
      <trkpt lat="37.423259000" lon="-4.556766000">
        <ele>382.4</ele>
        <time>2020-10-16T07:24:07Z</time>
      </trkpt>
      <trkpt lat="37.423231000" lon="-4.556927000">
        <ele>382.2</ele>
        <time>2020-10-16T07:24:09Z</time>
      </trkpt>
      <trkpt lat="37.423203000" lon="-4.557085000">
        <ele>381.9</ele>
        <time>2020-10-16T07:24:11Z</time>
      </trkpt>
      <trkpt lat="37.423172000" lon="-4.557245000">
        <ele>381.6</ele>
        <time>2020-10-16T07:24:13Z</time>
      </trkpt>
      <trkpt lat="37.423148000" lon="-4.557406000">
        <ele>381.3</ele>
        <time>2020-10-16T07:24:15Z</time>
      </trkpt>
      <trkpt lat="37.423121000" lon="-4.557566000">
        <ele>380.9</ele>
        <time>2020-10-16T07:24:17Z</time>
      </trkpt>
      <trkpt lat="37.423092000" lon="-4.557727000">
        <ele>380.5</ele>
        <time>2020-10-16T07:24:19Z</time>
      </trkpt>
      <trkpt lat="37.423066000" lon="-4.557883000">
        <ele>380.0</ele>
        <time>2020-10-16T07:24:21Z</time>
      </trkpt>
      <trkpt lat="37.423036000" lon="-4.558043000">
        <ele>379.5</ele>
        <time>2020-10-16T07:24:23Z</time>
      </trkpt>
      <trkpt lat="37.423012000" lon="-4.558199000">
        <ele>378.9</ele>
        <time>2020-10-16T07:24:25Z</time>
      </trkpt>
      <trkpt lat="37.422982000" lon="-4.558360000">
        <ele>378.4</ele>
        <time>2020-10-16T07:24:27Z</time>
      </trkpt>
      <trkpt lat="37.422949000" lon="-4.558517000">
        <ele>377.8</ele>
        <time>2020-10-16T07:24:29Z</time>
      </trkpt>
      <trkpt lat="37.422919000" lon="-4.558671000">
        <ele>377.4</ele>
        <time>2020-10-16T07:24:31Z</time>
      </trkpt>
      <trkpt lat="37.422891000" lon="-4.558829000">
        <ele>377.1</ele>
        <time>2020-10-16T07:24:33Z</time>
      </trkpt>
      <trkpt lat="37.422865000" lon="-4.558988000">
        <ele>376.9</ele>
        <time>2020-10-16T07:24:35Z</time>
      </trkpt>
      <trkpt lat="37.422833000" lon="-4.559151000">
        <ele>376.9</ele>
        <time>2020-10-16T07:24:37Z</time>
      </trkpt>
      <trkpt lat="37.422808000" lon="-4.559308000">
        <ele>376.9</ele>
        <time>2020-10-16T07:24:39Z</time>
      </trkpt>
      <trkpt lat="37.422781000" lon="-4.559470000">
        <ele>377.0</ele>
        <time>2020-10-16T07:24:41Z</time>
      </trkpt>
      <trkpt lat="37.422754000" lon="-4.559626000">
        <ele>377.1</ele>
        <time>2020-10-16T07:24:43Z</time>
      </trkpt>
      <trkpt lat="37.422726000" lon="-4.559787000">
        <ele>377.2</ele>
        <time>2020-10-16T07:24:45Z</time>
      </trkpt>
      <trkpt lat="37.422697000" lon="-4.559951000">
        <ele>377.4</ele>
        <time>2020-10-16T07:24:47Z</time>
      </trkpt>
      <trkpt lat="37.422670000" lon="-4.560115000">
        <ele>377.5</ele>
        <time>2020-10-16T07:24:49Z</time>
      </trkpt>
      <trkpt lat="37.422640000" lon="-4.560280000">
        <ele>377.7</ele>
        <time>2020-10-16T07:24:51Z</time>
      </trkpt>
      <trkpt lat="37.422610000" lon="-4.560440000">
        <ele>377.9</ele>
        <time>2020-10-16T07:24:53Z</time>
      </trkpt>
      <trkpt lat="37.422579000" lon="-4.560600000">
        <ele>378.0</ele>
        <time>2020-10-16T07:24:55Z</time>
      </trkpt>
      <trkpt lat="37.422554000" lon="-4.560766000">
        <ele>378.1</ele>
        <time>2020-10-16T07:24:57Z</time>
      </trkpt>
      <trkpt lat="37.422527000" lon="-4.560928000">
        <ele>378.0</ele>
        <time>2020-10-16T07:24:59Z</time>
      </trkpt>
      <trkpt lat="37.422497000" lon="-4.561089000">
        <ele>377.8</ele>
        <time>2020-10-16T07:25:01Z</time>
      </trkpt>
      <trkpt lat="37.422466000" lon="-4.561249000">
        <ele>377.5</ele>
        <time>2020-10-16T07:25:03Z</time>
      </trkpt>
      <trkpt lat="37.422436000" lon="-4.561416000">
        <ele>377.3</ele>
        <time>2020-10-16T07:25:05Z</time>
      </trkpt>
      <trkpt lat="37.422406000" lon="-4.561575000">
        <ele>377.1</ele>
        <time>2020-10-16T07:25:07Z</time>
      </trkpt>
      <trkpt lat="37.422375000" lon="-4.561734000">
        <ele>376.9</ele>
        <time>2020-10-16T07:25:09Z</time>
      </trkpt>
      <trkpt lat="37.422347000" lon="-4.561897000">
        <ele>376.7</ele>
        <time>2020-10-16T07:25:11Z</time>
      </trkpt>
      <trkpt lat="37.422319000" lon="-4.562063000">
        <ele>376.5</ele>
        <time>2020-10-16T07:25:13Z</time>
      </trkpt>
      <trkpt lat="37.422283000" lon="-4.562223000">
        <ele>376.1</ele>
        <time>2020-10-16T07:25:15Z</time>
      </trkpt>
      <trkpt lat="37.422240000" lon="-4.562392000">
        <ele>375.7</ele>
        <time>2020-10-16T07:25:17Z</time>
      </trkpt>
      <trkpt lat="37.422198000" lon="-4.562547000">
        <ele>375.3</ele>
        <time>2020-10-16T07:25:19Z</time>
      </trkpt>
      <trkpt lat="37.422153000" lon="-4.562706000">
        <ele>374.8</ele>
        <time>2020-10-16T07:25:21Z</time>
      </trkpt>
      <trkpt lat="37.422097000" lon="-4.562862000">
        <ele>374.4</ele>
        <time>2020-10-16T07:25:23Z</time>
      </trkpt>
      <trkpt lat="37.422041000" lon="-4.563017000">
        <ele>373.8</ele>
        <time>2020-10-16T07:25:25Z</time>
      </trkpt>
      <trkpt lat="37.421988000" lon="-4.563162000">
        <ele>373.3</ele>
        <time>2020-10-16T07:25:27Z</time>
      </trkpt>
      <trkpt lat="37.421923000" lon="-4.563310000">
        <ele>372.6</ele>
        <time>2020-10-16T07:25:29Z</time>
      </trkpt>
      <trkpt lat="37.421856000" lon="-4.563456000">
        <ele>371.9</ele>
        <time>2020-10-16T07:25:31Z</time>
      </trkpt>
      <trkpt lat="37.421781000" lon="-4.563606000">
        <ele>371.2</ele>
        <time>2020-10-16T07:25:33Z</time>
      </trkpt>
      <trkpt lat="37.421708000" lon="-4.563741000">
        <ele>370.5</ele>
        <time>2020-10-16T07:25:35Z</time>
      </trkpt>
      <trkpt lat="37.421624000" lon="-4.563873000">
        <ele>370.0</ele>
        <time>2020-10-16T07:25:37Z</time>
      </trkpt>
      <trkpt lat="37.421540000" lon="-4.564012000">
        <ele>369.5</ele>
        <time>2020-10-16T07:25:39Z</time>
      </trkpt>
      <trkpt lat="37.421450000" lon="-4.564140000">
        <ele>369.0</ele>
        <time>2020-10-16T07:25:41Z</time>
      </trkpt>
      <trkpt lat="37.421353000" lon="-4.564266000">
        <ele>368.6</ele>
        <time>2020-10-16T07:25:43Z</time>
      </trkpt>
      <trkpt lat="37.421256000" lon="-4.564383000">
        <ele>368.5</ele>
        <time>2020-10-16T07:25:45Z</time>
      </trkpt>
      <trkpt lat="37.421155000" lon="-4.564501000">
        <ele>368.4</ele>
        <time>2020-10-16T07:25:47Z</time>
      </trkpt>
      <trkpt lat="37.421058000" lon="-4.564610000">
        <ele>368.4</ele>
        <time>2020-10-16T07:25:49Z</time>
      </trkpt>
      <trkpt lat="37.420956000" lon="-4.564706000">
        <ele>368.4</ele>
        <time>2020-10-16T07:25:51Z</time>
      </trkpt>
      <trkpt lat="37.420850000" lon="-4.564799000">
        <ele>368.5</ele>
        <time>2020-10-16T07:25:53Z</time>
      </trkpt>
      <trkpt lat="37.420740000" lon="-4.564886000">
        <ele>368.5</ele>
        <time>2020-10-16T07:25:55Z</time>
      </trkpt>
      <trkpt lat="37.420633000" lon="-4.564967000">
        <ele>368.5</ele>
        <time>2020-10-16T07:25:57Z</time>
      </trkpt>
      <trkpt lat="37.420526000" lon="-4.565049000">
        <ele>368.4</ele>
        <time>2020-10-16T07:25:59Z</time>
      </trkpt>
      <trkpt lat="37.420416000" lon="-4.565130000">
        <ele>368.3</ele>
        <time>2020-10-16T07:26:01Z</time>
      </trkpt>
      <trkpt lat="37.420301000" lon="-4.565205000">
        <ele>368.1</ele>
        <time>2020-10-16T07:26:03Z</time>
      </trkpt>
      <trkpt lat="37.420190000" lon="-4.565277000">
        <ele>367.8</ele>
        <time>2020-10-16T07:26:05Z</time>
      </trkpt>
      <trkpt lat="37.420082000" lon="-4.565347000">
        <ele>367.5</ele>
        <time>2020-10-16T07:26:07Z</time>
      </trkpt>
      <trkpt lat="37.419967000" lon="-4.565422000">
        <ele>367.1</ele>
        <time>2020-10-16T07:26:09Z</time>
      </trkpt>
      <trkpt lat="37.419851000" lon="-4.565495000">
        <ele>366.6</ele>
        <time>2020-10-16T07:26:11Z</time>
      </trkpt>
      <trkpt lat="37.419740000" lon="-4.565568000">
        <ele>366.2</ele>
        <time>2020-10-16T07:26:13Z</time>
      </trkpt>
      <trkpt lat="37.419626000" lon="-4.565642000">
        <ele>365.7</ele>
        <time>2020-10-16T07:26:15Z</time>
      </trkpt>
      <trkpt lat="37.419509000" lon="-4.565723000">
        <ele>365.4</ele>
        <time>2020-10-16T07:26:17Z</time>
      </trkpt>
      <trkpt lat="37.419392000" lon="-4.565800000">
        <ele>365.0</ele>
        <time>2020-10-16T07:26:19Z</time>
      </trkpt>
      <trkpt lat="37.419276000" lon="-4.565873000">
        <ele>364.8</ele>
        <time>2020-10-16T07:26:21Z</time>
      </trkpt>
      <trkpt lat="37.419164000" lon="-4.565952000">
        <ele>364.7</ele>
        <time>2020-10-16T07:26:23Z</time>
      </trkpt>
      <trkpt lat="37.419051000" lon="-4.566032000">
        <ele>364.7</ele>
        <time>2020-10-16T07:26:25Z</time>
      </trkpt>
      <trkpt lat="37.418940000" lon="-4.566113000">
        <ele>364.7</ele>
        <time>2020-10-16T07:26:27Z</time>
      </trkpt>
      <trkpt lat="37.418832000" lon="-4.566201000">
        <ele>364.7</ele>
        <time>2020-10-16T07:26:29Z</time>
      </trkpt>
      <trkpt lat="37.418724000" lon="-4.566292000">
        <ele>364.7</ele>
        <time>2020-10-16T07:26:31Z</time>
      </trkpt>
      <trkpt lat="37.418618000" lon="-4.566383000">
        <ele>364.8</ele>
        <time>2020-10-16T07:26:33Z</time>
      </trkpt>
      <trkpt lat="37.418519000" lon="-4.566486000">
        <ele>364.9</ele>
        <time>2020-10-16T07:26:35Z</time>
      </trkpt>
      <trkpt lat="37.418424000" lon="-4.566592000">
        <ele>364.9</ele>
        <time>2020-10-16T07:26:37Z</time>
      </trkpt>
      <trkpt lat="37.418329000" lon="-4.566704000">
        <ele>364.9</ele>
        <time>2020-10-16T07:26:39Z</time>
      </trkpt>
      <trkpt lat="37.418238000" lon="-4.566819000">
        <ele>364.9</ele>
        <time>2020-10-16T07:26:41Z</time>
      </trkpt>
      <trkpt lat="37.418145000" lon="-4.566943000">
        <ele>364.7</ele>
        <time>2020-10-16T07:26:43Z</time>
      </trkpt>
      <trkpt lat="37.418060000" lon="-4.567073000">
        <ele>364.4</ele>
        <time>2020-10-16T07:26:45Z</time>
      </trkpt>
      <trkpt lat="37.417980000" lon="-4.567208000">
        <ele>363.9</ele>
        <time>2020-10-16T07:26:47Z</time>
      </trkpt>
      <trkpt lat="37.417902000" lon="-4.567348000">
        <ele>363.5</ele>
        <time>2020-10-16T07:26:49Z</time>
      </trkpt>
      <trkpt lat="37.417826000" lon="-4.567492000">
        <ele>363.0</ele>
        <time>2020-10-16T07:26:51Z</time>
      </trkpt>
      <trkpt lat="37.417757000" lon="-4.567638000">
        <ele>362.5</ele>
        <time>2020-10-16T07:26:53Z</time>
      </trkpt>
      <trkpt lat="37.417685000" lon="-4.567785000">
        <ele>362.1</ele>
        <time>2020-10-16T07:26:55Z</time>
      </trkpt>
      <trkpt lat="37.417620000" lon="-4.567936000">
        <ele>361.5</ele>
        <time>2020-10-16T07:26:57Z</time>
      </trkpt>
      <trkpt lat="37.417561000" lon="-4.568089000">
        <ele>361.1</ele>
        <time>2020-10-16T07:26:59Z</time>
      </trkpt>
      <trkpt lat="37.417508000" lon="-4.568246000">
        <ele>360.6</ele>
        <time>2020-10-16T07:27:01Z</time>
      </trkpt>
      <trkpt lat="37.417459000" lon="-4.568405000">
        <ele>360.2</ele>
        <time>2020-10-16T07:27:03Z</time>
      </trkpt>
      <trkpt lat="37.417409000" lon="-4.568569000">
        <ele>359.9</ele>
        <time>2020-10-16T07:27:05Z</time>
      </trkpt>
      <trkpt lat="37.417370000" lon="-4.568731000">
        <ele>359.8</ele>
        <time>2020-10-16T07:27:07Z</time>
      </trkpt>
      <trkpt lat="37.417336000" lon="-4.568896000">
        <ele>359.8</ele>
        <time>2020-10-16T07:27:09Z</time>
      </trkpt>
      <trkpt lat="37.417309000" lon="-4.569061000">
        <ele>359.9</ele>
        <time>2020-10-16T07:27:11Z</time>
      </trkpt>
      <trkpt lat="37.417282000" lon="-4.569232000">
        <ele>359.9</ele>
        <time>2020-10-16T07:27:13Z</time>
      </trkpt>
      <trkpt lat="37.417262000" lon="-4.569393000">
        <ele>359.9</ele>
        <time>2020-10-16T07:27:15Z</time>
      </trkpt>
      <trkpt lat="37.417250000" lon="-4.569559000">
        <ele>359.9</ele>
        <time>2020-10-16T07:27:17Z</time>
      </trkpt>
      <trkpt lat="37.417243000" lon="-4.569723000">
        <ele>360.0</ele>
        <time>2020-10-16T07:27:19Z</time>
      </trkpt>
      <trkpt lat="37.417238000" lon="-4.569889000">
        <ele>360.1</ele>
        <time>2020-10-16T07:27:21Z</time>
      </trkpt>
      <trkpt lat="37.417239000" lon="-4.570057000">
        <ele>360.2</ele>
        <time>2020-10-16T07:27:23Z</time>
      </trkpt>
      <trkpt lat="37.417233000" lon="-4.570224000">
        <ele>360.2</ele>
        <time>2020-10-16T07:27:25Z</time>
      </trkpt>
      <trkpt lat="37.417234000" lon="-4.570386000">
        <ele>360.1</ele>
        <time>2020-10-16T07:27:27Z</time>
      </trkpt>
      <trkpt lat="37.417234000" lon="-4.570550000">
        <ele>359.9</ele>
        <time>2020-10-16T07:27:29Z</time>
      </trkpt>
      <trkpt lat="37.417237000" lon="-4.570719000">
        <ele>359.6</ele>
        <time>2020-10-16T07:27:31Z</time>
      </trkpt>
      <trkpt lat="37.417235000" lon="-4.570892000">
        <ele>359.4</ele>
        <time>2020-10-16T07:27:33Z</time>
      </trkpt>
      <trkpt lat="37.417229000" lon="-4.571064000">
        <ele>359.1</ele>
        <time>2020-10-16T07:27:35Z</time>
      </trkpt>
      <trkpt lat="37.417226000" lon="-4.571233000">
        <ele>358.7</ele>
        <time>2020-10-16T07:27:37Z</time>
      </trkpt>
      <trkpt lat="37.417227000" lon="-4.571404000">
        <ele>358.4</ele>
        <time>2020-10-16T07:27:39Z</time>
      </trkpt>
      <trkpt lat="37.417227000" lon="-4.571574000">
        <ele>358.0</ele>
        <time>2020-10-16T07:27:41Z</time>
      </trkpt>
      <trkpt lat="37.417221000" lon="-4.571744000">
        <ele>357.5</ele>
        <time>2020-10-16T07:27:43Z</time>
      </trkpt>
      <trkpt lat="37.417216000" lon="-4.571914000">
        <ele>357.1</ele>
        <time>2020-10-16T07:27:45Z</time>
      </trkpt>
      <trkpt lat="37.417208000" lon="-4.572085000">
        <ele>356.6</ele>
        <time>2020-10-16T07:27:47Z</time>
      </trkpt>
      <trkpt lat="37.417194000" lon="-4.572261000">
        <ele>356.2</ele>
        <time>2020-10-16T07:27:49Z</time>
      </trkpt>
      <trkpt lat="37.417172000" lon="-4.572428000">
        <ele>355.6</ele>
        <time>2020-10-16T07:27:51Z</time>
      </trkpt>
      <trkpt lat="37.417141000" lon="-4.572602000">
        <ele>355.2</ele>
        <time>2020-10-16T07:27:53Z</time>
      </trkpt>
      <trkpt lat="37.417107000" lon="-4.572773000">
        <ele>354.7</ele>
        <time>2020-10-16T07:27:55Z</time>
      </trkpt>
      <trkpt lat="37.417072000" lon="-4.572944000">
        <ele>354.4</ele>
        <time>2020-10-16T07:27:57Z</time>
      </trkpt>
      <trkpt lat="37.417033000" lon="-4.573109000">
        <ele>354.1</ele>
        <time>2020-10-16T07:27:59Z</time>
      </trkpt>
      <trkpt lat="37.416987000" lon="-4.573274000">
        <ele>353.7</ele>
        <time>2020-10-16T07:28:01Z</time>
      </trkpt>
      <trkpt lat="37.416934000" lon="-4.573438000">
        <ele>353.4</ele>
        <time>2020-10-16T07:28:03Z</time>
      </trkpt>
      <trkpt lat="37.416876000" lon="-4.573598000">
        <ele>353.0</ele>
        <time>2020-10-16T07:28:05Z</time>
      </trkpt>
      <trkpt lat="37.416816000" lon="-4.573752000">
        <ele>352.6</ele>
        <time>2020-10-16T07:28:07Z</time>
      </trkpt>
      <trkpt lat="37.416756000" lon="-4.573906000">
        <ele>352.4</ele>
        <time>2020-10-16T07:28:09Z</time>
      </trkpt>
      <trkpt lat="37.416698000" lon="-4.574064000">
        <ele>352.1</ele>
        <time>2020-10-16T07:28:11Z</time>
      </trkpt>
      <trkpt lat="37.416642000" lon="-4.574212000">
        <ele>351.9</ele>
        <time>2020-10-16T07:28:13Z</time>
      </trkpt>
      <trkpt lat="37.416583000" lon="-4.574363000">
        <ele>351.7</ele>
        <time>2020-10-16T07:28:15Z</time>
      </trkpt>
      <trkpt lat="37.416522000" lon="-4.574513000">
        <ele>351.6</ele>
        <time>2020-10-16T07:28:17Z</time>
      </trkpt>
      <trkpt lat="37.416462000" lon="-4.574664000">
        <ele>351.5</ele>
        <time>2020-10-16T07:28:19Z</time>
      </trkpt>
      <trkpt lat="37.416405000" lon="-4.574814000">
        <ele>351.3</ele>
        <time>2020-10-16T07:28:21Z</time>
      </trkpt>
      <trkpt lat="37.416338000" lon="-4.574968000">
        <ele>351.1</ele>
        <time>2020-10-16T07:28:23Z</time>
      </trkpt>
      <trkpt lat="37.416274000" lon="-4.575124000">
        <ele>351.0</ele>
        <time>2020-10-16T07:28:25Z</time>
      </trkpt>
      <trkpt lat="37.416210000" lon="-4.575279000">
        <ele>351.1</ele>
        <time>2020-10-16T07:28:27Z</time>
      </trkpt>
      <trkpt lat="37.416151000" lon="-4.575432000">
        <ele>351.3</ele>
        <time>2020-10-16T07:28:29Z</time>
      </trkpt>
      <trkpt lat="37.416084000" lon="-4.575586000">
        <ele>351.5</ele>
        <time>2020-10-16T07:28:31Z</time>
      </trkpt>
      <trkpt lat="37.416026000" lon="-4.575735000">
        <ele>351.6</ele>
        <time>2020-10-16T07:28:33Z</time>
      </trkpt>
      <trkpt lat="37.415962000" lon="-4.575885000">
        <ele>351.8</ele>
        <time>2020-10-16T07:28:35Z</time>
      </trkpt>
      <trkpt lat="37.415900000" lon="-4.576039000">
        <ele>351.9</ele>
        <time>2020-10-16T07:28:37Z</time>
      </trkpt>
      <trkpt lat="37.415842000" lon="-4.576193000">
        <ele>351.9</ele>
        <time>2020-10-16T07:28:39Z</time>
      </trkpt>
      <trkpt lat="37.415786000" lon="-4.576346000">
        <ele>351.9</ele>
        <time>2020-10-16T07:28:41Z</time>
      </trkpt>
      <trkpt lat="37.415722000" lon="-4.576500000">
        <ele>351.8</ele>
        <time>2020-10-16T07:28:43Z</time>
      </trkpt>
      <trkpt lat="37.415659000" lon="-4.576657000">
        <ele>351.8</ele>
        <time>2020-10-16T07:28:45Z</time>
      </trkpt>
      <trkpt lat="37.415599000" lon="-4.576813000">
        <ele>351.7</ele>
        <time>2020-10-16T07:28:47Z</time>
      </trkpt>
      <trkpt lat="37.415532000" lon="-4.576972000">
        <ele>351.5</ele>
        <time>2020-10-16T07:28:49Z</time>
      </trkpt>
      <trkpt lat="37.415467000" lon="-4.577127000">
        <ele>351.3</ele>
        <time>2020-10-16T07:28:51Z</time>
      </trkpt>
      <trkpt lat="37.415406000" lon="-4.577279000">
        <ele>350.9</ele>
        <time>2020-10-16T07:28:53Z</time>
      </trkpt>
      <trkpt lat="37.415342000" lon="-4.577432000">
        <ele>350.5</ele>
        <time>2020-10-16T07:28:55Z</time>
      </trkpt>
      <trkpt lat="37.415281000" lon="-4.577587000">
        <ele>350.2</ele>
        <time>2020-10-16T07:28:57Z</time>
      </trkpt>
      <trkpt lat="37.415216000" lon="-4.577745000">
        <ele>349.9</ele>
        <time>2020-10-16T07:28:59Z</time>
      </trkpt>
      <trkpt lat="37.415153000" lon="-4.577902000">
        <ele>349.6</ele>
        <time>2020-10-16T07:29:01Z</time>
      </trkpt>
      <trkpt lat="37.415091000" lon="-4.578058000">
        <ele>349.5</ele>
        <time>2020-10-16T07:29:03Z</time>
      </trkpt>
      <trkpt lat="37.415033000" lon="-4.578209000">
        <ele>349.5</ele>
        <time>2020-10-16T07:29:05Z</time>
      </trkpt>
      <trkpt lat="37.414966000" lon="-4.578359000">
        <ele>349.5</ele>
        <time>2020-10-16T07:29:07Z</time>
      </trkpt>
      <trkpt lat="37.414903000" lon="-4.578515000">
        <ele>349.5</ele>
        <time>2020-10-16T07:29:09Z</time>
      </trkpt>
      <trkpt lat="37.414840000" lon="-4.578670000">
        <ele>349.4</ele>
        <time>2020-10-16T07:29:11Z</time>
      </trkpt>
      <trkpt lat="37.414780000" lon="-4.578828000">
        <ele>349.2</ele>
        <time>2020-10-16T07:29:13Z</time>
      </trkpt>
      <trkpt lat="37.414716000" lon="-4.578987000">
        <ele>349.1</ele>
        <time>2020-10-16T07:29:15Z</time>
      </trkpt>
      <trkpt lat="37.414652000" lon="-4.579145000">
        <ele>349.0</ele>
        <time>2020-10-16T07:29:17Z</time>
      </trkpt>
      <trkpt lat="37.414588000" lon="-4.579303000">
        <ele>348.9</ele>
        <time>2020-10-16T07:29:19Z</time>
      </trkpt>
      <trkpt lat="37.414527000" lon="-4.579461000">
        <ele>348.8</ele>
        <time>2020-10-16T07:29:21Z</time>
      </trkpt>
      <trkpt lat="37.414461000" lon="-4.579611000">
        <ele>348.6</ele>
        <time>2020-10-16T07:29:23Z</time>
      </trkpt>
      <trkpt lat="37.414396000" lon="-4.579768000">
        <ele>348.4</ele>
        <time>2020-10-16T07:29:25Z</time>
      </trkpt>
      <trkpt lat="37.414335000" lon="-4.579933000">
        <ele>348.0</ele>
        <time>2020-10-16T07:29:27Z</time>
      </trkpt>
      <trkpt lat="37.414270000" lon="-4.580087000">
        <ele>347.5</ele>
        <time>2020-10-16T07:29:29Z</time>
      </trkpt>
      <trkpt lat="37.414207000" lon="-4.580235000">
        <ele>347.1</ele>
        <time>2020-10-16T07:29:31Z</time>
      </trkpt>
      <trkpt lat="37.414146000" lon="-4.580390000">
        <ele>346.6</ele>
        <time>2020-10-16T07:29:33Z</time>
      </trkpt>
      <trkpt lat="37.414086000" lon="-4.580533000">
        <ele>346.3</ele>
        <time>2020-10-16T07:29:35Z</time>
      </trkpt>
      <trkpt lat="37.414049000" lon="-4.580639000">
        <ele>345.9</ele>
        <time>2020-10-16T07:29:37Z</time>
      </trkpt>
      <trkpt lat="37.414020000" lon="-4.580744000">
        <ele>345.5</ele>
        <time>2020-10-16T07:29:42Z</time>
      </trkpt>
      <trkpt lat="37.413967000" lon="-4.580847000">
        <ele>345.0</ele>
        <time>2020-10-16T07:29:47Z</time>
      </trkpt>
      <trkpt lat="37.413917000" lon="-4.580964000">
        <ele>344.5</ele>
        <time>2020-10-16T07:29:50Z</time>
      </trkpt>
      <trkpt lat="37.413877000" lon="-4.581056000">
        <ele>344.0</ele>
        <time>2020-10-16T07:29:52Z</time>
      </trkpt>
      <trkpt lat="37.413840000" lon="-4.581168000">
        <ele>343.6</ele>
        <time>2020-10-16T07:29:54Z</time>
      </trkpt>
      <trkpt lat="37.413795000" lon="-4.581272000">
        <ele>343.3</ele>
        <time>2020-10-16T07:29:56Z</time>
      </trkpt>
      <trkpt lat="37.413751000" lon="-4.581382000">
        <ele>342.9</ele>
        <time>2020-10-16T07:29:58Z</time>
      </trkpt>
      <trkpt lat="37.413704000" lon="-4.581497000">
        <ele>342.5</ele>
        <time>2020-10-16T07:30:00Z</time>
      </trkpt>
      <trkpt lat="37.413657000" lon="-4.581626000">
        <ele>342.2</ele>
        <time>2020-10-16T07:30:02Z</time>
      </trkpt>
      <trkpt lat="37.413607000" lon="-4.581763000">
        <ele>341.7</ele>
        <time>2020-10-16T07:30:04Z</time>
      </trkpt>
      <trkpt lat="37.413564000" lon="-4.581904000">
        <ele>341.2</ele>
        <time>2020-10-16T07:30:06Z</time>
      </trkpt>
      <trkpt lat="37.413520000" lon="-4.582049000">
        <ele>340.7</ele>
        <time>2020-10-16T07:30:08Z</time>
      </trkpt>
      <trkpt lat="37.413483000" lon="-4.582200000">
        <ele>340.3</ele>
        <time>2020-10-16T07:30:10Z</time>
      </trkpt>
      <trkpt lat="37.413453000" lon="-4.582351000">
        <ele>339.9</ele>
        <time>2020-10-16T07:30:12Z</time>
      </trkpt>
      <trkpt lat="37.413420000" lon="-4.582508000">
        <ele>339.5</ele>
        <time>2020-10-16T07:30:14Z</time>
      </trkpt>
      <trkpt lat="37.413393000" lon="-4.582674000">
        <ele>339.1</ele>
        <time>2020-10-16T07:30:16Z</time>
      </trkpt>
      <trkpt lat="37.413371000" lon="-4.582839000">
        <ele>338.6</ele>
        <time>2020-10-16T07:30:18Z</time>
      </trkpt>
      <trkpt lat="37.413348000" lon="-4.583009000">
        <ele>338.3</ele>
        <time>2020-10-16T07:30:20Z</time>
      </trkpt>
      <trkpt lat="37.413334000" lon="-4.583181000">
        <ele>337.9</ele>
        <time>2020-10-16T07:30:22Z</time>
      </trkpt>
      <trkpt lat="37.413327000" lon="-4.583356000">
        <ele>337.6</ele>
        <time>2020-10-16T07:30:24Z</time>
      </trkpt>
      <trkpt lat="37.413320000" lon="-4.583532000">
        <ele>337.4</ele>
        <time>2020-10-16T07:30:26Z</time>
      </trkpt>
      <trkpt lat="37.413322000" lon="-4.583705000">
        <ele>337.2</ele>
        <time>2020-10-16T07:30:28Z</time>
      </trkpt>
      <trkpt lat="37.413334000" lon="-4.583879000">
        <ele>337.0</ele>
        <time>2020-10-16T07:30:30Z</time>
      </trkpt>
      <trkpt lat="37.413348000" lon="-4.584053000">
        <ele>336.9</ele>
        <time>2020-10-16T07:30:32Z</time>
      </trkpt>
      <trkpt lat="37.413369000" lon="-4.584221000">
        <ele>336.8</ele>
        <time>2020-10-16T07:30:34Z</time>
      </trkpt>
      <trkpt lat="37.413397000" lon="-4.584388000">
        <ele>336.7</ele>
        <time>2020-10-16T07:30:36Z</time>
      </trkpt>
      <trkpt lat="37.413431000" lon="-4.584553000">
        <ele>336.7</ele>
        <time>2020-10-16T07:30:38Z</time>
      </trkpt>
      <trkpt lat="37.413466000" lon="-4.584717000">
        <ele>336.7</ele>
        <time>2020-10-16T07:30:40Z</time>
      </trkpt>
      <trkpt lat="37.413502000" lon="-4.584881000">
        <ele>336.7</ele>
        <time>2020-10-16T07:30:42Z</time>
      </trkpt>
      <trkpt lat="37.413545000" lon="-4.585038000">
        <ele>336.6</ele>
        <time>2020-10-16T07:30:44Z</time>
      </trkpt>
      <trkpt lat="37.413591000" lon="-4.585191000">
        <ele>336.5</ele>
        <time>2020-10-16T07:30:46Z</time>
      </trkpt>
      <trkpt lat="37.413645000" lon="-4.585341000">
        <ele>336.5</ele>
        <time>2020-10-16T07:30:48Z</time>
      </trkpt>
      <trkpt lat="37.413704000" lon="-4.585494000">
        <ele>336.4</ele>
        <time>2020-10-16T07:30:50Z</time>
      </trkpt>
      <trkpt lat="37.413768000" lon="-4.585642000">
        <ele>336.2</ele>
        <time>2020-10-16T07:30:52Z</time>
      </trkpt>
      <trkpt lat="37.413831000" lon="-4.585789000">
        <ele>335.9</ele>
        <time>2020-10-16T07:30:54Z</time>
      </trkpt>
      <trkpt lat="37.413899000" lon="-4.585933000">
        <ele>335.6</ele>
        <time>2020-10-16T07:30:56Z</time>
      </trkpt>
      <trkpt lat="37.413973000" lon="-4.586069000">
        <ele>335.4</ele>
        <time>2020-10-16T07:30:58Z</time>
      </trkpt>
      <trkpt lat="37.414054000" lon="-4.586199000">
        <ele>335.1</ele>
        <time>2020-10-16T07:31:00Z</time>
      </trkpt>
      <trkpt lat="37.414133000" lon="-4.586332000">
        <ele>334.8</ele>
        <time>2020-10-16T07:31:02Z</time>
      </trkpt>
      <trkpt lat="37.414220000" lon="-4.586455000">
        <ele>334.6</ele>
        <time>2020-10-16T07:31:04Z</time>
      </trkpt>
      <trkpt lat="37.414303000" lon="-4.586569000">
        <ele>334.5</ele>
        <time>2020-10-16T07:31:06Z</time>
      </trkpt>
      <trkpt lat="37.414391000" lon="-4.586681000">
        <ele>334.5</ele>
        <time>2020-10-16T07:31:08Z</time>
      </trkpt>
      <trkpt lat="37.414478000" lon="-4.586787000">
        <ele>334.5</ele>
        <time>2020-10-16T07:31:10Z</time>
      </trkpt>
      <trkpt lat="37.414566000" lon="-4.586886000">
        <ele>334.5</ele>
        <time>2020-10-16T07:31:12Z</time>
      </trkpt>
      <trkpt lat="37.414653000" lon="-4.586980000">
        <ele>334.6</ele>
        <time>2020-10-16T07:31:14Z</time>
      </trkpt>
      <trkpt lat="37.414743000" lon="-4.587061000">
        <ele>334.7</ele>
        <time>2020-10-16T07:31:16Z</time>
      </trkpt>
      <trkpt lat="37.414824000" lon="-4.587145000">
        <ele>334.8</ele>
        <time>2020-10-16T07:31:18Z</time>
      </trkpt>
      <trkpt lat="37.414916000" lon="-4.587233000">
        <ele>334.9</ele>
        <time>2020-10-16T07:31:20Z</time>
      </trkpt>
      <trkpt lat="37.415005000" lon="-4.587315000">
        <ele>335.1</ele>
        <time>2020-10-16T07:31:22Z</time>
      </trkpt>
      <trkpt lat="37.415101000" lon="-4.587376000">
        <ele>335.3</ele>
        <time>2020-10-16T07:31:24Z</time>
      </trkpt>
      <trkpt lat="37.415194000" lon="-4.587441000">
        <ele>335.5</ele>
        <time>2020-10-16T07:31:26Z</time>
      </trkpt>
      <trkpt lat="37.415285000" lon="-4.587510000">
        <ele>335.5</ele>
        <time>2020-10-16T07:31:28Z</time>
      </trkpt>
      <trkpt lat="37.415375000" lon="-4.587574000">
        <ele>335.6</ele>
        <time>2020-10-16T07:31:30Z</time>
      </trkpt>
      <trkpt lat="37.415474000" lon="-4.587630000">
        <ele>335.6</ele>
        <time>2020-10-16T07:31:32Z</time>
      </trkpt>
      <trkpt lat="37.415570000" lon="-4.587687000">
        <ele>335.7</ele>
        <time>2020-10-16T07:31:34Z</time>
      </trkpt>
      <trkpt lat="37.415664000" lon="-4.587756000">
        <ele>335.8</ele>
        <time>2020-10-16T07:31:36Z</time>
      </trkpt>
      <trkpt lat="37.415762000" lon="-4.587807000">
        <ele>335.9</ele>
        <time>2020-10-16T07:31:38Z</time>
      </trkpt>
      <trkpt lat="37.415852000" lon="-4.587859000">
        <ele>336.0</ele>
        <time>2020-10-16T07:31:40Z</time>
      </trkpt>
      <trkpt lat="37.415947000" lon="-4.587911000">
        <ele>336.1</ele>
        <time>2020-10-16T07:31:42Z</time>
      </trkpt>
      <trkpt lat="37.416041000" lon="-4.587966000">
        <ele>336.1</ele>
        <time>2020-10-16T07:31:44Z</time>
      </trkpt>
      <trkpt lat="37.416141000" lon="-4.588017000">
        <ele>336.2</ele>
        <time>2020-10-16T07:31:46Z</time>
      </trkpt>
      <trkpt lat="37.416230000" lon="-4.588067000">
        <ele>336.2</ele>
        <time>2020-10-16T07:31:48Z</time>
      </trkpt>
      <trkpt lat="37.416323000" lon="-4.588117000">
        <ele>336.3</ele>
        <time>2020-10-16T07:31:50Z</time>
      </trkpt>
      <trkpt lat="37.416413000" lon="-4.588166000">
        <ele>336.5</ele>
        <time>2020-10-16T07:31:52Z</time>
      </trkpt>
      <trkpt lat="37.416506000" lon="-4.588231000">
        <ele>336.6</ele>
        <time>2020-10-16T07:31:54Z</time>
      </trkpt>
      <trkpt lat="37.416604000" lon="-4.588287000">
        <ele>336.8</ele>
        <time>2020-10-16T07:31:56Z</time>
      </trkpt>
      <trkpt lat="37.416691000" lon="-4.588336000">
        <ele>337.0</ele>
        <time>2020-10-16T07:31:58Z</time>
      </trkpt>
      <trkpt lat="37.416792000" lon="-4.588394000">
        <ele>337.2</ele>
        <time>2020-10-16T07:32:00Z</time>
      </trkpt>
      <trkpt lat="37.416883000" lon="-4.588443000">
        <ele>337.3</ele>
        <time>2020-10-16T07:32:02Z</time>
      </trkpt>
      <trkpt lat="37.416980000" lon="-4.588493000">
        <ele>337.4</ele>
        <time>2020-10-16T07:32:04Z</time>
      </trkpt>
      <trkpt lat="37.417074000" lon="-4.588549000">
        <ele>337.5</ele>
        <time>2020-10-16T07:32:06Z</time>
      </trkpt>
      <trkpt lat="37.417163000" lon="-4.588601000">
        <ele>337.4</ele>
        <time>2020-10-16T07:32:08Z</time>
      </trkpt>
      <trkpt lat="37.417265000" lon="-4.588661000">
        <ele>337.2</ele>
        <time>2020-10-16T07:32:10Z</time>
      </trkpt>
      <trkpt lat="37.417354000" lon="-4.588714000">
        <ele>337.0</ele>
        <time>2020-10-16T07:32:12Z</time>
      </trkpt>
      <trkpt lat="37.417447000" lon="-4.588766000">
        <ele>336.6</ele>
        <time>2020-10-16T07:32:14Z</time>
      </trkpt>
      <trkpt lat="37.417536000" lon="-4.588807000">
        <ele>336.3</ele>
        <time>2020-10-16T07:32:16Z</time>
      </trkpt>
      <trkpt lat="37.417632000" lon="-4.588861000">
        <ele>335.9</ele>
        <time>2020-10-16T07:32:18Z</time>
      </trkpt>
      <trkpt lat="37.417726000" lon="-4.588911000">
        <ele>335.5</ele>
        <time>2020-10-16T07:32:20Z</time>
      </trkpt>
      <trkpt lat="37.417820000" lon="-4.588958000">
        <ele>335.3</ele>
        <time>2020-10-16T07:32:22Z</time>
      </trkpt>
      <trkpt lat="37.417908000" lon="-4.589010000">
        <ele>335.1</ele>
        <time>2020-10-16T07:32:24Z</time>
      </trkpt>
      <trkpt lat="37.418003000" lon="-4.589066000">
        <ele>334.9</ele>
        <time>2020-10-16T07:32:26Z</time>
      </trkpt>
      <trkpt lat="37.418097000" lon="-4.589119000">
        <ele>334.7</ele>
        <time>2020-10-16T07:32:28Z</time>
      </trkpt>
      <trkpt lat="37.418197000" lon="-4.589170000">
        <ele>334.6</ele>
        <time>2020-10-16T07:32:30Z</time>
      </trkpt>
      <trkpt lat="37.418287000" lon="-4.589234000">
        <ele>334.7</ele>
        <time>2020-10-16T07:32:32Z</time>
      </trkpt>
      <trkpt lat="37.418368000" lon="-4.589299000">
        <ele>334.8</ele>
        <time>2020-10-16T07:32:34Z</time>
      </trkpt>
      <trkpt lat="37.418455000" lon="-4.589355000">
        <ele>335.0</ele>
        <time>2020-10-16T07:32:36Z</time>
      </trkpt>
      <trkpt lat="37.418541000" lon="-4.589421000">
        <ele>335.2</ele>
        <time>2020-10-16T07:32:38Z</time>
      </trkpt>
      <trkpt lat="37.418622000" lon="-4.589484000">
        <ele>335.5</ele>
        <time>2020-10-16T07:32:40Z</time>
      </trkpt>
      <trkpt lat="37.418712000" lon="-4.589545000">
        <ele>335.7</ele>
        <time>2020-10-16T07:32:42Z</time>
      </trkpt>
      <trkpt lat="37.418797000" lon="-4.589619000">
        <ele>335.9</ele>
        <time>2020-10-16T07:32:44Z</time>
      </trkpt>
      <trkpt lat="37.418878000" lon="-4.589700000">
        <ele>336.2</ele>
        <time>2020-10-16T07:32:46Z</time>
      </trkpt>
      <trkpt lat="37.418964000" lon="-4.589786000">
        <ele>336.5</ele>
        <time>2020-10-16T07:32:48Z</time>
      </trkpt>
      <trkpt lat="37.419046000" lon="-4.589872000">
        <ele>336.9</ele>
        <time>2020-10-16T07:32:50Z</time>
      </trkpt>
      <trkpt lat="37.419122000" lon="-4.589965000">
        <ele>337.3</ele>
        <time>2020-10-16T07:32:52Z</time>
      </trkpt>
      <trkpt lat="37.419196000" lon="-4.590057000">
        <ele>337.6</ele>
        <time>2020-10-16T07:32:54Z</time>
      </trkpt>
      <trkpt lat="37.419266000" lon="-4.590156000">
        <ele>338.0</ele>
        <time>2020-10-16T07:32:56Z</time>
      </trkpt>
      <trkpt lat="37.419342000" lon="-4.590257000">
        <ele>338.3</ele>
        <time>2020-10-16T07:32:58Z</time>
      </trkpt>
      <trkpt lat="37.419411000" lon="-4.590356000">
        <ele>338.5</ele>
        <time>2020-10-16T07:33:00Z</time>
      </trkpt>
      <trkpt lat="37.419481000" lon="-4.590460000">
        <ele>338.6</ele>
        <time>2020-10-16T07:33:02Z</time>
      </trkpt>
      <trkpt lat="37.419548000" lon="-4.590570000">
        <ele>338.6</ele>
        <time>2020-10-16T07:33:04Z</time>
      </trkpt>
      <trkpt lat="37.419607000" lon="-4.590682000">
        <ele>338.5</ele>
        <time>2020-10-16T07:33:06Z</time>
      </trkpt>
      <trkpt lat="37.419672000" lon="-4.590805000">
        <ele>338.3</ele>
        <time>2020-10-16T07:33:08Z</time>
      </trkpt>
      <trkpt lat="37.419735000" lon="-4.590938000">
        <ele>337.8</ele>
        <time>2020-10-16T07:33:10Z</time>
      </trkpt>
      <trkpt lat="37.419793000" lon="-4.591075000">
        <ele>337.3</ele>
        <time>2020-10-16T07:33:12Z</time>
      </trkpt>
      <trkpt lat="37.419848000" lon="-4.591207000">
        <ele>336.6</ele>
        <time>2020-10-16T07:33:14Z</time>
      </trkpt>
      <trkpt lat="37.419897000" lon="-4.591338000">
        <ele>335.8</ele>
        <time>2020-10-16T07:33:16Z</time>
      </trkpt>
      <trkpt lat="37.419948000" lon="-4.591466000">
        <ele>334.8</ele>
        <time>2020-10-16T07:33:18Z</time>
      </trkpt>
      <trkpt lat="37.419992000" lon="-4.591599000">
        <ele>333.9</ele>
        <time>2020-10-16T07:33:20Z</time>
      </trkpt>
      <trkpt lat="37.420034000" lon="-4.591734000">
        <ele>332.9</ele>
        <time>2020-10-16T07:33:22Z</time>
      </trkpt>
      <trkpt lat="37.420072000" lon="-4.591875000">
        <ele>332.0</ele>
        <time>2020-10-16T07:33:24Z</time>
      </trkpt>
      <trkpt lat="37.420104000" lon="-4.592020000">
        <ele>331.3</ele>
        <time>2020-10-16T07:33:26Z</time>
      </trkpt>
      <trkpt lat="37.420133000" lon="-4.592168000">
        <ele>330.6</ele>
        <time>2020-10-16T07:33:28Z</time>
      </trkpt>
      <trkpt lat="37.420161000" lon="-4.592320000">
        <ele>330.1</ele>
        <time>2020-10-16T07:33:30Z</time>
      </trkpt>
      <trkpt lat="37.420184000" lon="-4.592474000">
        <ele>329.7</ele>
        <time>2020-10-16T07:33:32Z</time>
      </trkpt>
      <trkpt lat="37.420205000" lon="-4.592627000">
        <ele>329.5</ele>
        <time>2020-10-16T07:33:34Z</time>
      </trkpt>
      <trkpt lat="37.420224000" lon="-4.592777000">
        <ele>329.4</ele>
        <time>2020-10-16T07:33:36Z</time>
      </trkpt>
      <trkpt lat="37.420240000" lon="-4.592930000">
        <ele>329.4</ele>
        <time>2020-10-16T07:33:38Z</time>
      </trkpt>
      <trkpt lat="37.420249000" lon="-4.593092000">
        <ele>329.6</ele>
        <time>2020-10-16T07:33:40Z</time>
      </trkpt>
      <trkpt lat="37.420248000" lon="-4.593254000">
        <ele>329.9</ele>
        <time>2020-10-16T07:33:42Z</time>
      </trkpt>
      <trkpt lat="37.420239000" lon="-4.593413000">
        <ele>330.3</ele>
        <time>2020-10-16T07:33:44Z</time>
      </trkpt>
      <trkpt lat="37.420236000" lon="-4.593567000">
        <ele>330.6</ele>
        <time>2020-10-16T07:33:46Z</time>
      </trkpt>
      <trkpt lat="37.420222000" lon="-4.593727000">
        <ele>331.0</ele>
        <time>2020-10-16T07:33:48Z</time>
      </trkpt>
      <trkpt lat="37.420207000" lon="-4.593882000">
        <ele>331.4</ele>
        <time>2020-10-16T07:33:50Z</time>
      </trkpt>
      <trkpt lat="37.420191000" lon="-4.594039000">
        <ele>331.6</ele>
        <time>2020-10-16T07:33:52Z</time>
      </trkpt>
      <trkpt lat="37.420173000" lon="-4.594195000">
        <ele>331.8</ele>
        <time>2020-10-16T07:33:54Z</time>
      </trkpt>
      <trkpt lat="37.420154000" lon="-4.594352000">
        <ele>332.0</ele>
        <time>2020-10-16T07:33:56Z</time>
      </trkpt>
      <trkpt lat="37.420134000" lon="-4.594508000">
        <ele>332.0</ele>
        <time>2020-10-16T07:33:58Z</time>
      </trkpt>
      <trkpt lat="37.420106000" lon="-4.594661000">
        <ele>332.0</ele>
        <time>2020-10-16T07:34:00Z</time>
      </trkpt>
      <trkpt lat="37.420088000" lon="-4.594818000">
        <ele>331.9</ele>
        <time>2020-10-16T07:34:02Z</time>
      </trkpt>
      <trkpt lat="37.420070000" lon="-4.594969000">
        <ele>331.7</ele>
        <time>2020-10-16T07:34:04Z</time>
      </trkpt>
      <trkpt lat="37.420049000" lon="-4.595126000">
        <ele>331.5</ele>
        <time>2020-10-16T07:34:06Z</time>
      </trkpt>
      <trkpt lat="37.420029000" lon="-4.595283000">
        <ele>331.3</ele>
        <time>2020-10-16T07:34:08Z</time>
      </trkpt>
      <trkpt lat="37.420009000" lon="-4.595436000">
        <ele>330.9</ele>
        <time>2020-10-16T07:34:10Z</time>
      </trkpt>
      <trkpt lat="37.419986000" lon="-4.595591000">
        <ele>330.5</ele>
        <time>2020-10-16T07:34:12Z</time>
      </trkpt>
      <trkpt lat="37.419969000" lon="-4.595753000">
        <ele>330.1</ele>
        <time>2020-10-16T07:34:14Z</time>
      </trkpt>
      <trkpt lat="37.419953000" lon="-4.595919000">
        <ele>329.8</ele>
        <time>2020-10-16T07:34:16Z</time>
      </trkpt>
      <trkpt lat="37.419936000" lon="-4.596082000">
        <ele>329.5</ele>
        <time>2020-10-16T07:34:18Z</time>
      </trkpt>
      <trkpt lat="37.419913000" lon="-4.596242000">
        <ele>329.3</ele>
        <time>2020-10-16T07:34:20Z</time>
      </trkpt>
      <trkpt lat="37.419896000" lon="-4.596399000">
        <ele>329.0</ele>
        <time>2020-10-16T07:34:22Z</time>
      </trkpt>
      <trkpt lat="37.419873000" lon="-4.596552000">
        <ele>328.6</ele>
        <time>2020-10-16T07:34:24Z</time>
      </trkpt>
      <trkpt lat="37.419856000" lon="-4.596708000">
        <ele>328.4</ele>
        <time>2020-10-16T07:34:26Z</time>
      </trkpt>
      <trkpt lat="37.419838000" lon="-4.596874000">
        <ele>328.0</ele>
        <time>2020-10-16T07:34:28Z</time>
      </trkpt>
      <trkpt lat="37.419815000" lon="-4.597032000">
        <ele>327.7</ele>
        <time>2020-10-16T07:34:30Z</time>
      </trkpt>
      <trkpt lat="37.419792000" lon="-4.597188000">
        <ele>327.3</ele>
        <time>2020-10-16T07:34:32Z</time>
      </trkpt>
      <trkpt lat="37.419772000" lon="-4.597347000">
        <ele>326.9</ele>
        <time>2020-10-16T07:34:34Z</time>
      </trkpt>
      <trkpt lat="37.419750000" lon="-4.597512000">
        <ele>326.5</ele>
        <time>2020-10-16T07:34:36Z</time>
      </trkpt>
      <trkpt lat="37.419736000" lon="-4.597676000">
        <ele>326.0</ele>
        <time>2020-10-16T07:34:38Z</time>
      </trkpt>
      <trkpt lat="37.419719000" lon="-4.597841000">
        <ele>325.5</ele>
        <time>2020-10-16T07:34:40Z</time>
      </trkpt>
      <trkpt lat="37.419698000" lon="-4.598002000">
        <ele>324.9</ele>
        <time>2020-10-16T07:34:42Z</time>
      </trkpt>
      <trkpt lat="37.419678000" lon="-4.598163000">
        <ele>324.4</ele>
        <time>2020-10-16T07:34:44Z</time>
      </trkpt>
      <trkpt lat="37.419660000" lon="-4.598325000">
        <ele>323.8</ele>
        <time>2020-10-16T07:34:46Z</time>
      </trkpt>
      <trkpt lat="37.419644000" lon="-4.598491000">
        <ele>323.3</ele>
        <time>2020-10-16T07:34:48Z</time>
      </trkpt>
      <trkpt lat="37.419618000" lon="-4.598659000">
        <ele>322.7</ele>
        <time>2020-10-16T07:34:50Z</time>
      </trkpt>
      <trkpt lat="37.419594000" lon="-4.598824000">
        <ele>322.1</ele>
        <time>2020-10-16T07:34:52Z</time>
      </trkpt>
      <trkpt lat="37.419573000" lon="-4.598996000">
        <ele>321.5</ele>
        <time>2020-10-16T07:34:54Z</time>
      </trkpt>
      <trkpt lat="37.419550000" lon="-4.599161000">
        <ele>321.0</ele>
        <time>2020-10-16T07:34:56Z</time>
      </trkpt>
      <trkpt lat="37.419529000" lon="-4.599329000">
        <ele>320.4</ele>
        <time>2020-10-16T07:34:58Z</time>
      </trkpt>
      <trkpt lat="37.419515000" lon="-4.599498000">
        <ele>319.8</ele>
        <time>2020-10-16T07:35:00Z</time>
      </trkpt>
      <trkpt lat="37.419493000" lon="-4.599663000">
        <ele>319.3</ele>
        <time>2020-10-16T07:35:02Z</time>
      </trkpt>
      <trkpt lat="37.419474000" lon="-4.599830000">
        <ele>318.9</ele>
        <time>2020-10-16T07:35:04Z</time>
      </trkpt>
      <trkpt lat="37.419452000" lon="-4.599999000">
        <ele>318.5</ele>
        <time>2020-10-16T07:35:06Z</time>
      </trkpt>
      <trkpt lat="37.419432000" lon="-4.600165000">
        <ele>318.3</ele>
        <time>2020-10-16T07:35:08Z</time>
      </trkpt>
      <trkpt lat="37.419411000" lon="-4.600333000">
        <ele>318.0</ele>
        <time>2020-10-16T07:35:10Z</time>
      </trkpt>
      <trkpt lat="37.419387000" lon="-4.600500000">
        <ele>317.8</ele>
        <time>2020-10-16T07:35:12Z</time>
      </trkpt>
      <trkpt lat="37.419365000" lon="-4.600670000">
        <ele>317.7</ele>
        <time>2020-10-16T07:35:14Z</time>
      </trkpt>
      <trkpt lat="37.419346000" lon="-4.600845000">
        <ele>317.7</ele>
        <time>2020-10-16T07:35:16Z</time>
      </trkpt>
      <trkpt lat="37.419324000" lon="-4.601010000">
        <ele>317.7</ele>
        <time>2020-10-16T07:35:18Z</time>
      </trkpt>
      <trkpt lat="37.419303000" lon="-4.601173000">
        <ele>317.8</ele>
        <time>2020-10-16T07:35:20Z</time>
      </trkpt>
      <trkpt lat="37.419278000" lon="-4.601339000">
        <ele>317.8</ele>
        <time>2020-10-16T07:35:22Z</time>
      </trkpt>
      <trkpt lat="37.419250000" lon="-4.601503000">
        <ele>317.8</ele>
        <time>2020-10-16T07:35:24Z</time>
      </trkpt>
      <trkpt lat="37.419215000" lon="-4.601663000">
        <ele>317.7</ele>
        <time>2020-10-16T07:35:26Z</time>
      </trkpt>
      <trkpt lat="37.419177000" lon="-4.601819000">
        <ele>317.6</ele>
        <time>2020-10-16T07:35:28Z</time>
      </trkpt>
      <trkpt lat="37.419134000" lon="-4.601972000">
        <ele>317.5</ele>
        <time>2020-10-16T07:35:30Z</time>
      </trkpt>
      <trkpt lat="37.419083000" lon="-4.602127000">
        <ele>317.5</ele>
        <time>2020-10-16T07:35:32Z</time>
      </trkpt>
      <trkpt lat="37.419038000" lon="-4.602277000">
        <ele>317.5</ele>
        <time>2020-10-16T07:35:34Z</time>
      </trkpt>
      <trkpt lat="37.418984000" lon="-4.602427000">
        <ele>317.5</ele>
        <time>2020-10-16T07:35:36Z</time>
      </trkpt>
      <trkpt lat="37.418927000" lon="-4.602571000">
        <ele>317.5</ele>
        <time>2020-10-16T07:35:38Z</time>
      </trkpt>
      <trkpt lat="37.418870000" lon="-4.602704000">
        <ele>317.6</ele>
        <time>2020-10-16T07:35:40Z</time>
      </trkpt>
      <trkpt lat="37.418803000" lon="-4.602838000">
        <ele>317.6</ele>
        <time>2020-10-16T07:35:42Z</time>
      </trkpt>
      <trkpt lat="37.418731000" lon="-4.602966000">
        <ele>317.7</ele>
        <time>2020-10-16T07:35:44Z</time>
      </trkpt>
      <trkpt lat="37.418652000" lon="-4.603093000">
        <ele>317.7</ele>
        <time>2020-10-16T07:35:46Z</time>
      </trkpt>
      <trkpt lat="37.418576000" lon="-4.603220000">
        <ele>317.7</ele>
        <time>2020-10-16T07:35:48Z</time>
      </trkpt>
      <trkpt lat="37.418495000" lon="-4.603349000">
        <ele>317.6</ele>
        <time>2020-10-16T07:35:50Z</time>
      </trkpt>
      <trkpt lat="37.418413000" lon="-4.603471000">
        <ele>317.5</ele>
        <time>2020-10-16T07:35:52Z</time>
      </trkpt>
      <trkpt lat="37.418333000" lon="-4.603590000">
        <ele>317.3</ele>
        <time>2020-10-16T07:35:54Z</time>
      </trkpt>
      <trkpt lat="37.418249000" lon="-4.603704000">
        <ele>317.0</ele>
        <time>2020-10-16T07:35:56Z</time>
      </trkpt>
      <trkpt lat="37.418158000" lon="-4.603818000">
        <ele>316.8</ele>
        <time>2020-10-16T07:35:58Z</time>
      </trkpt>
      <trkpt lat="37.418067000" lon="-4.603933000">
        <ele>316.6</ele>
        <time>2020-10-16T07:36:00Z</time>
      </trkpt>
      <trkpt lat="37.417974000" lon="-4.604050000">
        <ele>316.4</ele>
        <time>2020-10-16T07:36:02Z</time>
      </trkpt>
      <trkpt lat="37.417879000" lon="-4.604169000">
        <ele>316.2</ele>
        <time>2020-10-16T07:36:04Z</time>
      </trkpt>
      <trkpt lat="37.417783000" lon="-4.604279000">
        <ele>315.9</ele>
        <time>2020-10-16T07:36:06Z</time>
      </trkpt>
      <trkpt lat="37.417692000" lon="-4.604398000">
        <ele>315.7</ele>
        <time>2020-10-16T07:36:08Z</time>
      </trkpt>
      <trkpt lat="37.417600000" lon="-4.604518000">
        <ele>315.5</ele>
        <time>2020-10-16T07:36:10Z</time>
      </trkpt>
      <trkpt lat="37.417511000" lon="-4.604628000">
        <ele>315.3</ele>
        <time>2020-10-16T07:36:12Z</time>
      </trkpt>
      <trkpt lat="37.417416000" lon="-4.604739000">
        <ele>315.0</ele>
        <time>2020-10-16T07:36:14Z</time>
      </trkpt>
      <trkpt lat="37.417321000" lon="-4.604857000">
        <ele>314.8</ele>
        <time>2020-10-16T07:36:16Z</time>
      </trkpt>
      <trkpt lat="37.417228000" lon="-4.604972000">
        <ele>314.5</ele>
        <time>2020-10-16T07:36:18Z</time>
      </trkpt>
      <trkpt lat="37.417140000" lon="-4.605093000">
        <ele>314.2</ele>
        <time>2020-10-16T07:36:20Z</time>
      </trkpt>
      <trkpt lat="37.417051000" lon="-4.605211000">
        <ele>313.8</ele>
        <time>2020-10-16T07:36:22Z</time>
      </trkpt>
      <trkpt lat="37.416963000" lon="-4.605324000">
        <ele>313.5</ele>
        <time>2020-10-16T07:36:24Z</time>
      </trkpt>
      <trkpt lat="37.416878000" lon="-4.605437000">
        <ele>313.1</ele>
        <time>2020-10-16T07:36:26Z</time>
      </trkpt>
      <trkpt lat="37.416793000" lon="-4.605546000">
        <ele>312.8</ele>
        <time>2020-10-16T07:36:28Z</time>
      </trkpt>
      <trkpt lat="37.416703000" lon="-4.605659000">
        <ele>312.5</ele>
        <time>2020-10-16T07:36:30Z</time>
      </trkpt>
      <trkpt lat="37.416621000" lon="-4.605762000">
        <ele>312.2</ele>
        <time>2020-10-16T07:36:32Z</time>
      </trkpt>
      <trkpt lat="37.416528000" lon="-4.605871000">
        <ele>311.9</ele>
        <time>2020-10-16T07:36:34Z</time>
      </trkpt>
      <trkpt lat="37.416432000" lon="-4.605987000">
        <ele>311.7</ele>
        <time>2020-10-16T07:36:36Z</time>
      </trkpt>
      <trkpt lat="37.416340000" lon="-4.606106000">
        <ele>311.5</ele>
        <time>2020-10-16T07:36:38Z</time>
      </trkpt>
      <trkpt lat="37.416247000" lon="-4.606221000">
        <ele>311.5</ele>
        <time>2020-10-16T07:36:40Z</time>
      </trkpt>
      <trkpt lat="37.416171000" lon="-4.606319000">
        <ele>311.6</ele>
        <time>2020-10-16T07:36:42Z</time>
      </trkpt>
      <trkpt lat="37.416098000" lon="-4.606425000">
        <ele>311.7</ele>
        <time>2020-10-16T07:36:44Z</time>
      </trkpt>
      <trkpt lat="37.416034000" lon="-4.606531000">
        <ele>311.8</ele>
        <time>2020-10-16T07:36:46Z</time>
      </trkpt>
      <trkpt lat="37.415958000" lon="-4.606631000">
        <ele>312.0</ele>
        <time>2020-10-16T07:36:48Z</time>
      </trkpt>
      <trkpt lat="37.415874000" lon="-4.606736000">
        <ele>312.2</ele>
        <time>2020-10-16T07:36:50Z</time>
      </trkpt>
      <trkpt lat="37.415788000" lon="-4.606836000">
        <ele>312.5</ele>
        <time>2020-10-16T07:36:52Z</time>
      </trkpt>
      <trkpt lat="37.415710000" lon="-4.606925000">
        <ele>312.7</ele>
        <time>2020-10-16T07:36:54Z</time>
      </trkpt>
      <trkpt lat="37.415641000" lon="-4.607015000">
        <ele>313.0</ele>
        <time>2020-10-16T07:36:56Z</time>
      </trkpt>
      <trkpt lat="37.415575000" lon="-4.607104000">
        <ele>313.3</ele>
        <time>2020-10-16T07:36:58Z</time>
      </trkpt>
      <trkpt lat="37.415506000" lon="-4.607202000">
        <ele>313.5</ele>
        <time>2020-10-16T07:37:00Z</time>
      </trkpt>
      <trkpt lat="37.415434000" lon="-4.607296000">
        <ele>313.7</ele>
        <time>2020-10-16T07:37:02Z</time>
      </trkpt>
      <trkpt lat="37.415360000" lon="-4.607384000">
        <ele>313.8</ele>
        <time>2020-10-16T07:37:04Z</time>
      </trkpt>
      <trkpt lat="37.415285000" lon="-4.607473000">
        <ele>313.9</ele>
        <time>2020-10-16T07:37:06Z</time>
      </trkpt>
      <trkpt lat="37.415210000" lon="-4.607564000">
        <ele>313.9</ele>
        <time>2020-10-16T07:37:08Z</time>
      </trkpt>
      <trkpt lat="37.415137000" lon="-4.607656000">
        <ele>313.8</ele>
        <time>2020-10-16T07:37:10Z</time>
      </trkpt>
      <trkpt lat="37.415069000" lon="-4.607750000">
        <ele>313.7</ele>
        <time>2020-10-16T07:37:12Z</time>
      </trkpt>
      <trkpt lat="37.414992000" lon="-4.607842000">
        <ele>313.6</ele>
        <time>2020-10-16T07:37:14Z</time>
      </trkpt>
      <trkpt lat="37.414916000" lon="-4.607935000">
        <ele>313.5</ele>
        <time>2020-10-16T07:37:16Z</time>
      </trkpt>
      <trkpt lat="37.414842000" lon="-4.608025000">
        <ele>313.5</ele>
        <time>2020-10-16T07:37:18Z</time>
      </trkpt>
      <trkpt lat="37.414770000" lon="-4.608122000">
        <ele>313.4</ele>
        <time>2020-10-16T07:37:20Z</time>
      </trkpt>
      <trkpt lat="37.414702000" lon="-4.608212000">
        <ele>313.3</ele>
        <time>2020-10-16T07:37:22Z</time>
      </trkpt>
      <trkpt lat="37.414630000" lon="-4.608303000">
        <ele>313.2</ele>
        <time>2020-10-16T07:37:24Z</time>
      </trkpt>
      <trkpt lat="37.414557000" lon="-4.608396000">
        <ele>313.1</ele>
        <time>2020-10-16T07:37:26Z</time>
      </trkpt>
      <trkpt lat="37.414487000" lon="-4.608485000">
        <ele>313.0</ele>
        <time>2020-10-16T07:37:28Z</time>
      </trkpt>
      <trkpt lat="37.414417000" lon="-4.608579000">
        <ele>313.0</ele>
        <time>2020-10-16T07:37:30Z</time>
      </trkpt>
      <trkpt lat="37.414350000" lon="-4.608665000">
        <ele>313.0</ele>
        <time>2020-10-16T07:37:32Z</time>
      </trkpt>
      <trkpt lat="37.414285000" lon="-4.608760000">
        <ele>313.0</ele>
        <time>2020-10-16T07:37:34Z</time>
      </trkpt>
      <trkpt lat="37.414208000" lon="-4.608849000">
        <ele>313.0</ele>
        <time>2020-10-16T07:37:36Z</time>
      </trkpt>
      <trkpt lat="37.414133000" lon="-4.608942000">
        <ele>313.0</ele>
        <time>2020-10-16T07:37:38Z</time>
      </trkpt>
      <trkpt lat="37.414061000" lon="-4.609035000">
        <ele>312.9</ele>
        <time>2020-10-16T07:37:40Z</time>
      </trkpt>
      <trkpt lat="37.413989000" lon="-4.609130000">
        <ele>312.8</ele>
        <time>2020-10-16T07:37:42Z</time>
      </trkpt>
      <trkpt lat="37.413915000" lon="-4.609222000">
        <ele>312.7</ele>
        <time>2020-10-16T07:37:44Z</time>
      </trkpt>
      <trkpt lat="37.413842000" lon="-4.609322000">
        <ele>312.6</ele>
        <time>2020-10-16T07:37:46Z</time>
      </trkpt>
      <trkpt lat="37.413772000" lon="-4.609413000">
        <ele>312.5</ele>
        <time>2020-10-16T07:37:48Z</time>
      </trkpt>
      <trkpt lat="37.413694000" lon="-4.609509000">
        <ele>312.5</ele>
        <time>2020-10-16T07:37:50Z</time>
      </trkpt>
      <trkpt lat="37.413622000" lon="-4.609603000">
        <ele>312.5</ele>
        <time>2020-10-16T07:37:52Z</time>
      </trkpt>
      <trkpt lat="37.413549000" lon="-4.609702000">
        <ele>312.5</ele>
        <time>2020-10-16T07:37:54Z</time>
      </trkpt>
      <trkpt lat="37.413477000" lon="-4.609795000">
        <ele>312.5</ele>
        <time>2020-10-16T07:37:56Z</time>
      </trkpt>
      <trkpt lat="37.413403000" lon="-4.609895000">
        <ele>312.5</ele>
        <time>2020-10-16T07:37:58Z</time>
      </trkpt>
      <trkpt lat="37.413334000" lon="-4.609996000">
        <ele>312.6</ele>
        <time>2020-10-16T07:38:00Z</time>
      </trkpt>
      <trkpt lat="37.413259000" lon="-4.610098000">
        <ele>312.8</ele>
        <time>2020-10-16T07:38:02Z</time>
      </trkpt>
      <trkpt lat="37.413192000" lon="-4.610203000">
        <ele>313.0</ele>
        <time>2020-10-16T07:38:04Z</time>
      </trkpt>
      <trkpt lat="37.413121000" lon="-4.610306000">
        <ele>313.1</ele>
        <time>2020-10-16T07:38:06Z</time>
      </trkpt>
      <trkpt lat="37.413056000" lon="-4.610410000">
        <ele>313.2</ele>
        <time>2020-10-16T07:38:08Z</time>
      </trkpt>
      <trkpt lat="37.412995000" lon="-4.610520000">
        <ele>313.3</ele>
        <time>2020-10-16T07:38:10Z</time>
      </trkpt>
      <trkpt lat="37.412942000" lon="-4.610627000">
        <ele>313.4</ele>
        <time>2020-10-16T07:38:12Z</time>
      </trkpt>
      <trkpt lat="37.412880000" lon="-4.610738000">
        <ele>313.4</ele>
        <time>2020-10-16T07:38:14Z</time>
      </trkpt>
      <trkpt lat="37.412821000" lon="-4.610848000">
        <ele>313.4</ele>
        <time>2020-10-16T07:38:16Z</time>
      </trkpt>
      <trkpt lat="37.412765000" lon="-4.610967000">
        <ele>313.3</ele>
        <time>2020-10-16T07:38:18Z</time>
      </trkpt>
      <trkpt lat="37.412706000" lon="-4.611082000">
        <ele>313.3</ele>
        <time>2020-10-16T07:38:20Z</time>
      </trkpt>
      <trkpt lat="37.412647000" lon="-4.611200000">
        <ele>313.2</ele>
        <time>2020-10-16T07:38:22Z</time>
      </trkpt>
      <trkpt lat="37.412594000" lon="-4.611316000">
        <ele>313.1</ele>
        <time>2020-10-16T07:38:24Z</time>
      </trkpt>
      <trkpt lat="37.412537000" lon="-4.611437000">
        <ele>313.0</ele>
        <time>2020-10-16T07:38:26Z</time>
      </trkpt>
      <trkpt lat="37.412485000" lon="-4.611549000">
        <ele>313.1</ele>
        <time>2020-10-16T07:38:28Z</time>
      </trkpt>
      <trkpt lat="37.412428000" lon="-4.611668000">
        <ele>313.2</ele>
        <time>2020-10-16T07:38:30Z</time>
      </trkpt>
      <trkpt lat="37.412370000" lon="-4.611787000">
        <ele>313.3</ele>
        <time>2020-10-16T07:38:32Z</time>
      </trkpt>
      <trkpt lat="37.412315000" lon="-4.611902000">
        <ele>313.3</ele>
        <time>2020-10-16T07:38:34Z</time>
      </trkpt>
      <trkpt lat="37.412252000" lon="-4.612017000">
        <ele>313.3</ele>
        <time>2020-10-16T07:38:36Z</time>
      </trkpt>
      <trkpt lat="37.412196000" lon="-4.612134000">
        <ele>313.3</ele>
        <time>2020-10-16T07:38:38Z</time>
      </trkpt>
      <trkpt lat="37.412143000" lon="-4.612255000">
        <ele>313.2</ele>
        <time>2020-10-16T07:38:40Z</time>
      </trkpt>
      <trkpt lat="37.412086000" lon="-4.612369000">
        <ele>313.1</ele>
        <time>2020-10-16T07:38:42Z</time>
      </trkpt>
      <trkpt lat="37.412029000" lon="-4.612485000">
        <ele>313.0</ele>
        <time>2020-10-16T07:38:44Z</time>
      </trkpt>
      <trkpt lat="37.411972000" lon="-4.612604000">
        <ele>312.9</ele>
        <time>2020-10-16T07:38:46Z</time>
      </trkpt>
      <trkpt lat="37.411913000" lon="-4.612728000">
        <ele>312.8</ele>
        <time>2020-10-16T07:38:48Z</time>
      </trkpt>
      <trkpt lat="37.411860000" lon="-4.612848000">
        <ele>312.6</ele>
        <time>2020-10-16T07:38:50Z</time>
      </trkpt>
      <trkpt lat="37.411804000" lon="-4.612967000">
        <ele>312.4</ele>
        <time>2020-10-16T07:38:52Z</time>
      </trkpt>
      <trkpt lat="37.411749000" lon="-4.613080000">
        <ele>312.2</ele>
        <time>2020-10-16T07:38:54Z</time>
      </trkpt>
      <trkpt lat="37.411691000" lon="-4.613196000">
        <ele>312.1</ele>
        <time>2020-10-16T07:38:56Z</time>
      </trkpt>
      <trkpt lat="37.411636000" lon="-4.613315000">
        <ele>312.1</ele>
        <time>2020-10-16T07:38:58Z</time>
      </trkpt>
      <trkpt lat="37.411582000" lon="-4.613432000">
        <ele>312.0</ele>
        <time>2020-10-16T07:39:00Z</time>
      </trkpt>
      <trkpt lat="37.411526000" lon="-4.613550000">
        <ele>312.0</ele>
        <time>2020-10-16T07:39:02Z</time>
      </trkpt>
      <trkpt lat="37.411469000" lon="-4.613667000">
        <ele>312.0</ele>
        <time>2020-10-16T07:39:04Z</time>
      </trkpt>
      <trkpt lat="37.411413000" lon="-4.613787000">
        <ele>311.9</ele>
        <time>2020-10-16T07:39:06Z</time>
      </trkpt>
      <trkpt lat="37.411365000" lon="-4.613905000">
        <ele>311.8</ele>
        <time>2020-10-16T07:39:08Z</time>
      </trkpt>
      <trkpt lat="37.411315000" lon="-4.614026000">
        <ele>311.7</ele>
        <time>2020-10-16T07:39:10Z</time>
      </trkpt>
      <trkpt lat="37.411268000" lon="-4.614148000">
        <ele>311.6</ele>
        <time>2020-10-16T07:39:12Z</time>
      </trkpt>
      <trkpt lat="37.411213000" lon="-4.614271000">
        <ele>311.6</ele>
        <time>2020-10-16T07:39:14Z</time>
      </trkpt>
      <trkpt lat="37.411170000" lon="-4.614397000">
        <ele>311.6</ele>
        <time>2020-10-16T07:39:16Z</time>
      </trkpt>
      <trkpt lat="37.411126000" lon="-4.614519000">
        <ele>311.6</ele>
        <time>2020-10-16T07:39:18Z</time>
      </trkpt>
      <trkpt lat="37.411088000" lon="-4.614648000">
        <ele>311.5</ele>
        <time>2020-10-16T07:39:20Z</time>
      </trkpt>
      <trkpt lat="37.411050000" lon="-4.614776000">
        <ele>311.5</ele>
        <time>2020-10-16T07:39:22Z</time>
      </trkpt>
      <trkpt lat="37.411014000" lon="-4.614906000">
        <ele>311.5</ele>
        <time>2020-10-16T07:39:24Z</time>
      </trkpt>
      <trkpt lat="37.410985000" lon="-4.615038000">
        <ele>311.6</ele>
        <time>2020-10-16T07:39:26Z</time>
      </trkpt>
      <trkpt lat="37.410949000" lon="-4.615167000">
        <ele>311.8</ele>
        <time>2020-10-16T07:39:28Z</time>
      </trkpt>
      <trkpt lat="37.410915000" lon="-4.615300000">
        <ele>312.0</ele>
        <time>2020-10-16T07:39:30Z</time>
      </trkpt>
      <trkpt lat="37.410889000" lon="-4.615430000">
        <ele>312.2</ele>
        <time>2020-10-16T07:39:32Z</time>
      </trkpt>
      <trkpt lat="37.410867000" lon="-4.615556000">
        <ele>312.4</ele>
        <time>2020-10-16T07:39:34Z</time>
      </trkpt>
      <trkpt lat="37.410845000" lon="-4.615688000">
        <ele>312.6</ele>
        <time>2020-10-16T07:39:36Z</time>
      </trkpt>
      <trkpt lat="37.410834000" lon="-4.615822000">
        <ele>312.8</ele>
        <time>2020-10-16T07:39:38Z</time>
      </trkpt>
      <trkpt lat="37.410825000" lon="-4.615952000">
        <ele>313.0</ele>
        <time>2020-10-16T07:39:40Z</time>
      </trkpt>
      <trkpt lat="37.410810000" lon="-4.616084000">
        <ele>313.2</ele>
        <time>2020-10-16T07:39:42Z</time>
      </trkpt>
      <trkpt lat="37.410795000" lon="-4.616218000">
        <ele>313.5</ele>
        <time>2020-10-16T07:39:44Z</time>
      </trkpt>
      <trkpt lat="37.410787000" lon="-4.616352000">
        <ele>313.6</ele>
        <time>2020-10-16T07:39:46Z</time>
      </trkpt>
      <trkpt lat="37.410776000" lon="-4.616488000">
        <ele>313.7</ele>
        <time>2020-10-16T07:39:48Z</time>
      </trkpt>
      <trkpt lat="37.410766000" lon="-4.616626000">
        <ele>313.8</ele>
        <time>2020-10-16T07:39:50Z</time>
      </trkpt>
      <trkpt lat="37.410750000" lon="-4.616762000">
        <ele>313.8</ele>
        <time>2020-10-16T07:39:52Z</time>
      </trkpt>
      <trkpt lat="37.410730000" lon="-4.616901000">
        <ele>313.8</ele>
        <time>2020-10-16T07:39:54Z</time>
      </trkpt>
      <trkpt lat="37.410717000" lon="-4.617044000">
        <ele>313.8</ele>
        <time>2020-10-16T07:39:56Z</time>
      </trkpt>
      <trkpt lat="37.410710000" lon="-4.617179000">
        <ele>313.8</ele>
        <time>2020-10-16T07:39:58Z</time>
      </trkpt>
      <trkpt lat="37.410706000" lon="-4.617311000">
        <ele>313.8</ele>
        <time>2020-10-16T07:40:00Z</time>
      </trkpt>
      <trkpt lat="37.410693000" lon="-4.617445000">
        <ele>313.8</ele>
        <time>2020-10-16T07:40:02Z</time>
      </trkpt>
      <trkpt lat="37.410680000" lon="-4.617576000">
        <ele>313.7</ele>
        <time>2020-10-16T07:40:04Z</time>
      </trkpt>
      <trkpt lat="37.410664000" lon="-4.617711000">
        <ele>313.5</ele>
        <time>2020-10-16T07:40:06Z</time>
      </trkpt>
      <trkpt lat="37.410652000" lon="-4.617845000">
        <ele>313.5</ele>
        <time>2020-10-16T07:40:08Z</time>
      </trkpt>
      <trkpt lat="37.410636000" lon="-4.617975000">
        <ele>313.4</ele>
        <time>2020-10-16T07:40:10Z</time>
      </trkpt>
      <trkpt lat="37.410623000" lon="-4.618114000">
        <ele>313.3</ele>
        <time>2020-10-16T07:40:12Z</time>
      </trkpt>
      <trkpt lat="37.410609000" lon="-4.618250000">
        <ele>313.3</ele>
        <time>2020-10-16T07:40:14Z</time>
      </trkpt>
      <trkpt lat="37.410599000" lon="-4.618383000">
        <ele>313.2</ele>
        <time>2020-10-16T07:40:16Z</time>
      </trkpt>
      <trkpt lat="37.410584000" lon="-4.618520000">
        <ele>313.1</ele>
        <time>2020-10-16T07:40:18Z</time>
      </trkpt>
      <trkpt lat="37.410575000" lon="-4.618656000">
        <ele>312.8</ele>
        <time>2020-10-16T07:40:20Z</time>
      </trkpt>
      <trkpt lat="37.410560000" lon="-4.618793000">
        <ele>312.5</ele>
        <time>2020-10-16T07:40:22Z</time>
      </trkpt>
      <trkpt lat="37.410549000" lon="-4.618927000">
        <ele>312.3</ele>
        <time>2020-10-16T07:40:24Z</time>
      </trkpt>
      <trkpt lat="37.410535000" lon="-4.619068000">
        <ele>312.1</ele>
        <time>2020-10-16T07:40:26Z</time>
      </trkpt>
      <trkpt lat="37.410522000" lon="-4.619210000">
        <ele>311.8</ele>
        <time>2020-10-16T07:40:28Z</time>
      </trkpt>
      <trkpt lat="37.410512000" lon="-4.619348000">
        <ele>311.5</ele>
        <time>2020-10-16T07:40:30Z</time>
      </trkpt>
      <trkpt lat="37.410500000" lon="-4.619488000">
        <ele>311.3</ele>
        <time>2020-10-16T07:40:32Z</time>
      </trkpt>
      <trkpt lat="37.410486000" lon="-4.619623000">
        <ele>310.9</ele>
        <time>2020-10-16T07:40:34Z</time>
      </trkpt>
      <trkpt lat="37.410473000" lon="-4.619761000">
        <ele>310.5</ele>
        <time>2020-10-16T07:40:36Z</time>
      </trkpt>
      <trkpt lat="37.410459000" lon="-4.619905000">
        <ele>310.3</ele>
        <time>2020-10-16T07:40:38Z</time>
      </trkpt>
      <trkpt lat="37.410445000" lon="-4.620055000">
        <ele>310.0</ele>
        <time>2020-10-16T07:40:40Z</time>
      </trkpt>
      <trkpt lat="37.410429000" lon="-4.620205000">
        <ele>309.8</ele>
        <time>2020-10-16T07:40:42Z</time>
      </trkpt>
      <trkpt lat="37.410416000" lon="-4.620353000">
        <ele>309.6</ele>
        <time>2020-10-16T07:40:44Z</time>
      </trkpt>
      <trkpt lat="37.410405000" lon="-4.620496000">
        <ele>309.5</ele>
        <time>2020-10-16T07:40:46Z</time>
      </trkpt>
      <trkpt lat="37.410398000" lon="-4.620639000">
        <ele>309.4</ele>
        <time>2020-10-16T07:40:48Z</time>
      </trkpt>
      <trkpt lat="37.410386000" lon="-4.620790000">
        <ele>309.4</ele>
        <time>2020-10-16T07:40:50Z</time>
      </trkpt>
      <trkpt lat="37.410371000" lon="-4.620930000">
        <ele>309.5</ele>
        <time>2020-10-16T07:40:52Z</time>
      </trkpt>
      <trkpt lat="37.410361000" lon="-4.621065000">
        <ele>309.5</ele>
        <time>2020-10-16T07:40:54Z</time>
      </trkpt>
      <trkpt lat="37.410346000" lon="-4.621191000">
        <ele>309.7</ele>
        <time>2020-10-16T07:40:56Z</time>
      </trkpt>
      <trkpt lat="37.410338000" lon="-4.621309000">
        <ele>309.9</ele>
        <time>2020-10-16T07:40:58Z</time>
      </trkpt>
      <trkpt lat="37.410328000" lon="-4.621426000">
        <ele>310.1</ele>
        <time>2020-10-16T07:41:00Z</time>
      </trkpt>
      <trkpt lat="37.410316000" lon="-4.621541000">
        <ele>310.3</ele>
        <time>2020-10-16T07:41:02Z</time>
      </trkpt>
      <trkpt lat="37.410307000" lon="-4.621664000">
        <ele>310.5</ele>
        <time>2020-10-16T07:41:04Z</time>
      </trkpt>
      <trkpt lat="37.410293000" lon="-4.621803000">
        <ele>310.5</ele>
        <time>2020-10-16T07:41:06Z</time>
      </trkpt>
      <trkpt lat="37.410275000" lon="-4.621944000">
        <ele>310.6</ele>
        <time>2020-10-16T07:41:08Z</time>
      </trkpt>
      <trkpt lat="37.410262000" lon="-4.622082000">
        <ele>310.6</ele>
        <time>2020-10-16T07:41:10Z</time>
      </trkpt>
      <trkpt lat="37.410250000" lon="-4.622216000">
        <ele>310.6</ele>
        <time>2020-10-16T07:41:12Z</time>
      </trkpt>
      <trkpt lat="37.410243000" lon="-4.622345000">
        <ele>310.5</ele>
        <time>2020-10-16T07:41:14Z</time>
      </trkpt>
      <trkpt lat="37.410234000" lon="-4.622466000">
        <ele>310.3</ele>
        <time>2020-10-16T07:41:16Z</time>
      </trkpt>
      <trkpt lat="37.410219000" lon="-4.622597000">
        <ele>310.0</ele>
        <time>2020-10-16T07:41:18Z</time>
      </trkpt>
      <trkpt lat="37.410202000" lon="-4.622740000">
        <ele>309.7</ele>
        <time>2020-10-16T07:41:20Z</time>
      </trkpt>
      <trkpt lat="37.410188000" lon="-4.622879000">
        <ele>309.5</ele>
        <time>2020-10-16T07:41:22Z</time>
      </trkpt>
      <trkpt lat="37.410178000" lon="-4.623012000">
        <ele>309.2</ele>
        <time>2020-10-16T07:41:24Z</time>
      </trkpt>
      <trkpt lat="37.410167000" lon="-4.623140000">
        <ele>308.9</ele>
        <time>2020-10-16T07:41:26Z</time>
      </trkpt>
      <trkpt lat="37.410157000" lon="-4.623262000">
        <ele>308.6</ele>
        <time>2020-10-16T07:41:28Z</time>
      </trkpt>
      <trkpt lat="37.410152000" lon="-4.623379000">
        <ele>308.4</ele>
        <time>2020-10-16T07:41:30Z</time>
      </trkpt>
      <trkpt lat="37.410137000" lon="-4.623504000">
        <ele>308.0</ele>
        <time>2020-10-16T07:41:32Z</time>
      </trkpt>
      <trkpt lat="37.410125000" lon="-4.623640000">
        <ele>307.6</ele>
        <time>2020-10-16T07:41:34Z</time>
      </trkpt>
      <trkpt lat="37.410115000" lon="-4.623768000">
        <ele>307.4</ele>
        <time>2020-10-16T07:41:36Z</time>
      </trkpt>
      <trkpt lat="37.410102000" lon="-4.623897000">
        <ele>307.1</ele>
        <time>2020-10-16T07:41:38Z</time>
      </trkpt>
      <trkpt lat="37.410087000" lon="-4.624033000">
        <ele>306.9</ele>
        <time>2020-10-16T07:41:40Z</time>
      </trkpt>
      <trkpt lat="37.410069000" lon="-4.624167000">
        <ele>306.7</ele>
        <time>2020-10-16T07:41:42Z</time>
      </trkpt>
      <trkpt lat="37.410058000" lon="-4.624303000">
        <ele>306.5</ele>
        <time>2020-10-16T07:41:44Z</time>
      </trkpt>
      <trkpt lat="37.410043000" lon="-4.624441000">
        <ele>306.4</ele>
        <time>2020-10-16T07:41:46Z</time>
      </trkpt>
      <trkpt lat="37.410033000" lon="-4.624582000">
        <ele>306.2</ele>
        <time>2020-10-16T07:41:48Z</time>
      </trkpt>
      <trkpt lat="37.410025000" lon="-4.624723000">
        <ele>306.0</ele>
        <time>2020-10-16T07:41:50Z</time>
      </trkpt>
      <trkpt lat="37.410013000" lon="-4.624856000">
        <ele>305.7</ele>
        <time>2020-10-16T07:41:52Z</time>
      </trkpt>
      <trkpt lat="37.409996000" lon="-4.624997000">
        <ele>305.5</ele>
        <time>2020-10-16T07:41:54Z</time>
      </trkpt>
      <trkpt lat="37.409983000" lon="-4.625137000">
        <ele>305.4</ele>
        <time>2020-10-16T07:41:56Z</time>
      </trkpt>
      <trkpt lat="37.409973000" lon="-4.625277000">
        <ele>305.3</ele>
        <time>2020-10-16T07:41:58Z</time>
      </trkpt>
      <trkpt lat="37.409955000" lon="-4.625422000">
        <ele>305.2</ele>
        <time>2020-10-16T07:42:00Z</time>
      </trkpt>
      <trkpt lat="37.409940000" lon="-4.625571000">
        <ele>305.1</ele>
        <time>2020-10-16T07:42:02Z</time>
      </trkpt>
      <trkpt lat="37.409930000" lon="-4.625717000">
        <ele>305.0</ele>
        <time>2020-10-16T07:42:04Z</time>
      </trkpt>
      <trkpt lat="37.409918000" lon="-4.625862000">
        <ele>304.8</ele>
        <time>2020-10-16T07:42:06Z</time>
      </trkpt>
      <trkpt lat="37.409904000" lon="-4.626009000">
        <ele>304.6</ele>
        <time>2020-10-16T07:42:08Z</time>
      </trkpt>
      <trkpt lat="37.409886000" lon="-4.626152000">
        <ele>304.5</ele>
        <time>2020-10-16T07:42:10Z</time>
      </trkpt>
      <trkpt lat="37.409876000" lon="-4.626293000">
        <ele>304.5</ele>
        <time>2020-10-16T07:42:12Z</time>
      </trkpt>
      <trkpt lat="37.409861000" lon="-4.626432000">
        <ele>304.6</ele>
        <time>2020-10-16T07:42:14Z</time>
      </trkpt>
      <trkpt lat="37.409845000" lon="-4.626568000">
        <ele>304.8</ele>
        <time>2020-10-16T07:42:16Z</time>
      </trkpt>
      <trkpt lat="37.409834000" lon="-4.626709000">
        <ele>305.1</ele>
        <time>2020-10-16T07:42:18Z</time>
      </trkpt>
      <trkpt lat="37.409823000" lon="-4.626836000">
        <ele>305.4</ele>
        <time>2020-10-16T07:42:20Z</time>
      </trkpt>
      <trkpt lat="37.409807000" lon="-4.626975000">
        <ele>305.6</ele>
        <time>2020-10-16T07:42:23Z</time>
      </trkpt>
      <trkpt lat="37.409793000" lon="-4.627094000">
        <ele>306.0</ele>
        <time>2020-10-16T07:42:27Z</time>
      </trkpt>
      <trkpt lat="37.409784000" lon="-4.627221000">
        <ele>306.4</ele>
        <time>2020-10-16T07:42:31Z</time>
      </trkpt>
      <trkpt lat="37.409773000" lon="-4.627363000">
        <ele>306.7</ele>
        <time>2020-10-16T07:42:34Z</time>
      </trkpt>
      <trkpt lat="37.409760000" lon="-4.627481000">
        <ele>307.0</ele>
        <time>2020-10-16T07:42:36Z</time>
      </trkpt>
      <trkpt lat="37.409750000" lon="-4.627599000">
        <ele>307.1</ele>
        <time>2020-10-16T07:42:38Z</time>
      </trkpt>
      <trkpt lat="37.409744000" lon="-4.627729000">
        <ele>307.1</ele>
        <time>2020-10-16T07:42:40Z</time>
      </trkpt>
      <trkpt lat="37.409735000" lon="-4.627864000">
        <ele>307.0</ele>
        <time>2020-10-16T07:42:42Z</time>
      </trkpt>
      <trkpt lat="37.409726000" lon="-4.627999000">
        <ele>306.8</ele>
        <time>2020-10-16T07:42:44Z</time>
      </trkpt>
      <trkpt lat="37.409719000" lon="-4.628132000">
        <ele>306.5</ele>
        <time>2020-10-16T07:42:46Z</time>
      </trkpt>
      <trkpt lat="37.409708000" lon="-4.628271000">
        <ele>306.0</ele>
        <time>2020-10-16T07:42:48Z</time>
      </trkpt>
      <trkpt lat="37.409699000" lon="-4.628412000">
        <ele>305.5</ele>
        <time>2020-10-16T07:42:50Z</time>
      </trkpt>
      <trkpt lat="37.409698000" lon="-4.628556000">
        <ele>305.0</ele>
        <time>2020-10-16T07:42:52Z</time>
      </trkpt>
      <trkpt lat="37.409703000" lon="-4.628691000">
        <ele>304.5</ele>
        <time>2020-10-16T07:42:54Z</time>
      </trkpt>
      <trkpt lat="37.409715000" lon="-4.628829000">
        <ele>304.0</ele>
        <time>2020-10-16T07:42:56Z</time>
      </trkpt>
      <trkpt lat="37.409731000" lon="-4.628973000">
        <ele>303.6</ele>
        <time>2020-10-16T07:42:58Z</time>
      </trkpt>
      <trkpt lat="37.409743000" lon="-4.629116000">
        <ele>303.3</ele>
        <time>2020-10-16T07:43:00Z</time>
      </trkpt>
      <trkpt lat="37.409760000" lon="-4.629253000">
        <ele>303.0</ele>
        <time>2020-10-16T07:43:02Z</time>
      </trkpt>
      <trkpt lat="37.409781000" lon="-4.629390000">
        <ele>302.8</ele>
        <time>2020-10-16T07:43:04Z</time>
      </trkpt>
      <trkpt lat="37.409808000" lon="-4.629526000">
        <ele>302.6</ele>
        <time>2020-10-16T07:43:06Z</time>
      </trkpt>
      <trkpt lat="37.409835000" lon="-4.629659000">
        <ele>302.5</ele>
        <time>2020-10-16T07:43:08Z</time>
      </trkpt>
      <trkpt lat="37.409868000" lon="-4.629796000">
        <ele>302.5</ele>
        <time>2020-10-16T07:43:10Z</time>
      </trkpt>
      <trkpt lat="37.409901000" lon="-4.629930000">
        <ele>302.6</ele>
        <time>2020-10-16T07:43:12Z</time>
      </trkpt>
      <trkpt lat="37.409935000" lon="-4.630061000">
        <ele>302.7</ele>
        <time>2020-10-16T07:43:14Z</time>
      </trkpt>
      <trkpt lat="37.409974000" lon="-4.630189000">
        <ele>302.9</ele>
        <time>2020-10-16T07:43:16Z</time>
      </trkpt>
      <trkpt lat="37.410015000" lon="-4.630313000">
        <ele>303.2</ele>
        <time>2020-10-16T07:43:18Z</time>
      </trkpt>
      <trkpt lat="37.410056000" lon="-4.630436000">
        <ele>303.5</ele>
        <time>2020-10-16T07:43:20Z</time>
      </trkpt>
      <trkpt lat="37.410106000" lon="-4.630562000">
        <ele>303.8</ele>
        <time>2020-10-16T07:43:22Z</time>
      </trkpt>
      <trkpt lat="37.410156000" lon="-4.630679000">
        <ele>304.2</ele>
        <time>2020-10-16T07:43:24Z</time>
      </trkpt>
      <trkpt lat="37.410213000" lon="-4.630792000">
        <ele>304.5</ele>
        <time>2020-10-16T07:43:26Z</time>
      </trkpt>
      <trkpt lat="37.410269000" lon="-4.630905000">
        <ele>304.9</ele>
        <time>2020-10-16T07:43:28Z</time>
      </trkpt>
      <trkpt lat="37.410326000" lon="-4.631011000">
        <ele>305.3</ele>
        <time>2020-10-16T07:43:30Z</time>
      </trkpt>
      <trkpt lat="37.410387000" lon="-4.631119000">
        <ele>305.5</ele>
        <time>2020-10-16T07:43:32Z</time>
      </trkpt>
      <trkpt lat="37.410449000" lon="-4.631227000">
        <ele>305.7</ele>
        <time>2020-10-16T07:43:34Z</time>
      </trkpt>
      <trkpt lat="37.410517000" lon="-4.631327000">
        <ele>305.9</ele>
        <time>2020-10-16T07:43:36Z</time>
      </trkpt>
      <trkpt lat="37.410586000" lon="-4.631429000">
        <ele>306.1</ele>
        <time>2020-10-16T07:43:38Z</time>
      </trkpt>
      <trkpt lat="37.410659000" lon="-4.631533000">
        <ele>306.2</ele>
        <time>2020-10-16T07:43:40Z</time>
      </trkpt>
      <trkpt lat="37.410735000" lon="-4.631623000">
        <ele>306.3</ele>
        <time>2020-10-16T07:43:42Z</time>
      </trkpt>
      <trkpt lat="37.410810000" lon="-4.631717000">
        <ele>306.3</ele>
        <time>2020-10-16T07:43:44Z</time>
      </trkpt>
      <trkpt lat="37.410892000" lon="-4.631815000">
        <ele>306.3</ele>
        <time>2020-10-16T07:43:46Z</time>
      </trkpt>
      <trkpt lat="37.410969000" lon="-4.631907000">
        <ele>306.3</ele>
        <time>2020-10-16T07:43:48Z</time>
      </trkpt>
      <trkpt lat="37.411051000" lon="-4.631990000">
        <ele>306.2</ele>
        <time>2020-10-16T07:43:50Z</time>
      </trkpt>
      <trkpt lat="37.411130000" lon="-4.632067000">
        <ele>306.0</ele>
        <time>2020-10-16T07:43:52Z</time>
      </trkpt>
      <trkpt lat="37.411215000" lon="-4.632136000">
        <ele>305.8</ele>
        <time>2020-10-16T07:43:54Z</time>
      </trkpt>
      <trkpt lat="37.411305000" lon="-4.632211000">
        <ele>305.6</ele>
        <time>2020-10-16T07:43:56Z</time>
      </trkpt>
      <trkpt lat="37.411388000" lon="-4.632281000">
        <ele>305.5</ele>
        <time>2020-10-16T07:43:58Z</time>
      </trkpt>
      <trkpt lat="37.411474000" lon="-4.632349000">
        <ele>305.2</ele>
        <time>2020-10-16T07:44:00Z</time>
      </trkpt>
      <trkpt lat="37.411556000" lon="-4.632419000">
        <ele>304.9</ele>
        <time>2020-10-16T07:44:02Z</time>
      </trkpt>
      <trkpt lat="37.411639000" lon="-4.632489000">
        <ele>304.6</ele>
        <time>2020-10-16T07:44:04Z</time>
      </trkpt>
      <trkpt lat="37.411720000" lon="-4.632549000">
        <ele>304.5</ele>
        <time>2020-10-16T07:44:06Z</time>
      </trkpt>
      <trkpt lat="37.411800000" lon="-4.632618000">
        <ele>304.2</ele>
        <time>2020-10-16T07:44:08Z</time>
      </trkpt>
      <trkpt lat="37.411883000" lon="-4.632680000">
        <ele>303.9</ele>
        <time>2020-10-16T07:44:10Z</time>
      </trkpt>
      <trkpt lat="37.411964000" lon="-4.632748000">
        <ele>303.7</ele>
        <time>2020-10-16T07:44:12Z</time>
      </trkpt>
      <trkpt lat="37.412049000" lon="-4.632816000">
        <ele>303.7</ele>
        <time>2020-10-16T07:44:14Z</time>
      </trkpt>
      <trkpt lat="37.412139000" lon="-4.632879000">
        <ele>303.7</ele>
        <time>2020-10-16T07:44:16Z</time>
      </trkpt>
      <trkpt lat="37.412219000" lon="-4.632950000">
        <ele>303.7</ele>
        <time>2020-10-16T07:44:18Z</time>
      </trkpt>
      <trkpt lat="37.412300000" lon="-4.633019000">
        <ele>303.7</ele>
        <time>2020-10-16T07:44:20Z</time>
      </trkpt>
      <trkpt lat="37.412385000" lon="-4.633085000">
        <ele>303.7</ele>
        <time>2020-10-16T07:44:22Z</time>
      </trkpt>
      <trkpt lat="37.412467000" lon="-4.633150000">
        <ele>303.7</ele>
        <time>2020-10-16T07:44:24Z</time>
      </trkpt>
      <trkpt lat="37.412552000" lon="-4.633231000">
        <ele>303.8</ele>
        <time>2020-10-16T07:44:26Z</time>
      </trkpt>
      <trkpt lat="37.412638000" lon="-4.633324000">
        <ele>303.9</ele>
        <time>2020-10-16T07:44:28Z</time>
      </trkpt>
      <trkpt lat="37.412720000" lon="-4.633415000">
        <ele>304.1</ele>
        <time>2020-10-16T07:44:30Z</time>
      </trkpt>
      <trkpt lat="37.412794000" lon="-4.633496000">
        <ele>304.3</ele>
        <time>2020-10-16T07:44:32Z</time>
      </trkpt>
      <trkpt lat="37.412864000" lon="-4.633580000">
        <ele>304.5</ele>
        <time>2020-10-16T07:44:34Z</time>
      </trkpt>
      <trkpt lat="37.412938000" lon="-4.633671000">
        <ele>304.5</ele>
        <time>2020-10-16T07:44:36Z</time>
      </trkpt>
      <trkpt lat="37.413007000" lon="-4.633768000">
        <ele>304.6</ele>
        <time>2020-10-16T07:44:38Z</time>
      </trkpt>
      <trkpt lat="37.413080000" lon="-4.633864000">
        <ele>304.7</ele>
        <time>2020-10-16T07:44:40Z</time>
      </trkpt>
      <trkpt lat="37.413149000" lon="-4.633963000">
        <ele>304.8</ele>
        <time>2020-10-16T07:44:42Z</time>
      </trkpt>
      <trkpt lat="37.413218000" lon="-4.634067000">
        <ele>304.9</ele>
        <time>2020-10-16T07:44:44Z</time>
      </trkpt>
      <trkpt lat="37.413288000" lon="-4.634171000">
        <ele>305.0</ele>
        <time>2020-10-16T07:44:46Z</time>
      </trkpt>
      <trkpt lat="37.413356000" lon="-4.634283000">
        <ele>305.0</ele>
        <time>2020-10-16T07:44:48Z</time>
      </trkpt>
      <trkpt lat="37.413418000" lon="-4.634405000">
        <ele>305.1</ele>
        <time>2020-10-16T07:44:50Z</time>
      </trkpt>
      <trkpt lat="37.413483000" lon="-4.634526000">
        <ele>305.2</ele>
        <time>2020-10-16T07:44:52Z</time>
      </trkpt>
      <trkpt lat="37.413541000" lon="-4.634652000">
        <ele>305.3</ele>
        <time>2020-10-16T07:44:54Z</time>
      </trkpt>
      <trkpt lat="37.413588000" lon="-4.634778000">
        <ele>305.4</ele>
        <time>2020-10-16T07:44:56Z</time>
      </trkpt>
      <trkpt lat="37.413630000" lon="-4.634905000">
        <ele>305.5</ele>
        <time>2020-10-16T07:44:58Z</time>
      </trkpt>
      <trkpt lat="37.413672000" lon="-4.635031000">
        <ele>305.6</ele>
        <time>2020-10-16T07:45:00Z</time>
      </trkpt>
      <trkpt lat="37.413712000" lon="-4.635160000">
        <ele>305.7</ele>
        <time>2020-10-16T07:45:02Z</time>
      </trkpt>
      <trkpt lat="37.413756000" lon="-4.635285000">
        <ele>305.7</ele>
        <time>2020-10-16T07:45:04Z</time>
      </trkpt>
      <trkpt lat="37.413792000" lon="-4.635408000">
        <ele>305.7</ele>
        <time>2020-10-16T07:45:06Z</time>
      </trkpt>
      <trkpt lat="37.413825000" lon="-4.635537000">
        <ele>305.6</ele>
        <time>2020-10-16T07:45:08Z</time>
      </trkpt>
      <trkpt lat="37.413855000" lon="-4.635662000">
        <ele>305.6</ele>
        <time>2020-10-16T07:45:10Z</time>
      </trkpt>
      <trkpt lat="37.413882000" lon="-4.635794000">
        <ele>305.5</ele>
        <time>2020-10-16T07:45:12Z</time>
      </trkpt>
      <trkpt lat="37.413901000" lon="-4.635926000">
        <ele>305.5</ele>
        <time>2020-10-16T07:45:14Z</time>
      </trkpt>
      <trkpt lat="37.413916000" lon="-4.636060000">
        <ele>305.4</ele>
        <time>2020-10-16T07:45:16Z</time>
      </trkpt>
      <trkpt lat="37.413926000" lon="-4.636189000">
        <ele>305.3</ele>
        <time>2020-10-16T07:45:18Z</time>
      </trkpt>
      <trkpt lat="37.413944000" lon="-4.636319000">
        <ele>305.0</ele>
        <time>2020-10-16T07:45:20Z</time>
      </trkpt>
      <trkpt lat="37.413951000" lon="-4.636449000">
        <ele>304.8</ele>
        <time>2020-10-16T07:45:22Z</time>
      </trkpt>
      <trkpt lat="37.413958000" lon="-4.636580000">
        <ele>304.6</ele>
        <time>2020-10-16T07:45:24Z</time>
      </trkpt>
      <trkpt lat="37.413962000" lon="-4.636702000">
        <ele>304.5</ele>
        <time>2020-10-16T07:45:26Z</time>
      </trkpt>
      <trkpt lat="37.413960000" lon="-4.636825000">
        <ele>304.5</ele>
        <time>2020-10-16T07:45:28Z</time>
      </trkpt>
      <trkpt lat="37.413956000" lon="-4.636950000">
        <ele>304.5</ele>
        <time>2020-10-16T07:45:30Z</time>
      </trkpt>
      <trkpt lat="37.413954000" lon="-4.637073000">
        <ele>304.5</ele>
        <time>2020-10-16T07:45:32Z</time>
      </trkpt>
      <trkpt lat="37.413949000" lon="-4.637195000">
        <ele>304.5</ele>
        <time>2020-10-16T07:45:34Z</time>
      </trkpt>
      <trkpt lat="37.413941000" lon="-4.637322000">
        <ele>304.6</ele>
        <time>2020-10-16T07:45:36Z</time>
      </trkpt>
      <trkpt lat="37.413935000" lon="-4.637444000">
        <ele>304.7</ele>
        <time>2020-10-16T07:45:38Z</time>
      </trkpt>
      <trkpt lat="37.413928000" lon="-4.637568000">
        <ele>304.8</ele>
        <time>2020-10-16T07:45:40Z</time>
      </trkpt>
      <trkpt lat="37.413921000" lon="-4.637691000">
        <ele>305.0</ele>
        <time>2020-10-16T07:45:42Z</time>
      </trkpt>
      <trkpt lat="37.413918000" lon="-4.637823000">
        <ele>305.2</ele>
        <time>2020-10-16T07:45:44Z</time>
      </trkpt>
      <trkpt lat="37.413914000" lon="-4.637952000">
        <ele>305.5</ele>
        <time>2020-10-16T07:45:46Z</time>
      </trkpt>
      <trkpt lat="37.413902000" lon="-4.638080000">
        <ele>305.7</ele>
        <time>2020-10-16T07:45:48Z</time>
      </trkpt>
      <trkpt lat="37.413896000" lon="-4.638203000">
        <ele>306.0</ele>
        <time>2020-10-16T07:45:50Z</time>
      </trkpt>
      <trkpt lat="37.413892000" lon="-4.638326000">
        <ele>306.2</ele>
        <time>2020-10-16T07:45:52Z</time>
      </trkpt>
      <trkpt lat="37.413889000" lon="-4.638443000">
        <ele>306.4</ele>
        <time>2020-10-16T07:45:54Z</time>
      </trkpt>
      <trkpt lat="37.413881000" lon="-4.638567000">
        <ele>306.6</ele>
        <time>2020-10-16T07:45:56Z</time>
      </trkpt>
      <trkpt lat="37.413873000" lon="-4.638673000">
        <ele>306.8</ele>
        <time>2020-10-16T07:45:58Z</time>
      </trkpt>
      <trkpt lat="37.413865000" lon="-4.638788000">
        <ele>306.9</ele>
        <time>2020-10-16T07:46:00Z</time>
      </trkpt>
      <trkpt lat="37.413857000" lon="-4.638910000">
        <ele>307.0</ele>
        <time>2020-10-16T07:46:02Z</time>
      </trkpt>
      <trkpt lat="37.413850000" lon="-4.639035000">
        <ele>307.1</ele>
        <time>2020-10-16T07:46:04Z</time>
      </trkpt>
      <trkpt lat="37.413848000" lon="-4.639161000">
        <ele>307.2</ele>
        <time>2020-10-16T07:46:06Z</time>
      </trkpt>
      <trkpt lat="37.413841000" lon="-4.639287000">
        <ele>307.2</ele>
        <time>2020-10-16T07:46:08Z</time>
      </trkpt>
      <trkpt lat="37.413833000" lon="-4.639418000">
        <ele>307.2</ele>
        <time>2020-10-16T07:46:10Z</time>
      </trkpt>
      <trkpt lat="37.413827000" lon="-4.639545000">
        <ele>307.2</ele>
        <time>2020-10-16T07:46:12Z</time>
      </trkpt>
      <trkpt lat="37.413821000" lon="-4.639672000">
        <ele>307.3</ele>
        <time>2020-10-16T07:46:14Z</time>
      </trkpt>
      <trkpt lat="37.413814000" lon="-4.639805000">
        <ele>307.4</ele>
        <time>2020-10-16T07:46:16Z</time>
      </trkpt>
      <trkpt lat="37.413804000" lon="-4.639931000">
        <ele>307.4</ele>
        <time>2020-10-16T07:46:18Z</time>
      </trkpt>
      <trkpt lat="37.413797000" lon="-4.640061000">
        <ele>307.3</ele>
        <time>2020-10-16T07:46:20Z</time>
      </trkpt>
      <trkpt lat="37.413794000" lon="-4.640190000">
        <ele>307.3</ele>
        <time>2020-10-16T07:46:22Z</time>
      </trkpt>
      <trkpt lat="37.413790000" lon="-4.640320000">
        <ele>307.3</ele>
        <time>2020-10-16T07:46:24Z</time>
      </trkpt>
      <trkpt lat="37.413787000" lon="-4.640450000">
        <ele>307.2</ele>
        <time>2020-10-16T07:46:26Z</time>
      </trkpt>
      <trkpt lat="37.413776000" lon="-4.640585000">
        <ele>307.1</ele>
        <time>2020-10-16T07:46:28Z</time>
      </trkpt>
      <trkpt lat="37.413770000" lon="-4.640713000">
        <ele>307.0</ele>
        <time>2020-10-16T07:46:30Z</time>
      </trkpt>
      <trkpt lat="37.413765000" lon="-4.640853000">
        <ele>306.9</ele>
        <time>2020-10-16T07:46:32Z</time>
      </trkpt>
      <trkpt lat="37.413761000" lon="-4.640984000">
        <ele>306.7</ele>
        <time>2020-10-16T07:46:34Z</time>
      </trkpt>
      <trkpt lat="37.413746000" lon="-4.641113000">
        <ele>306.5</ele>
        <time>2020-10-16T07:46:36Z</time>
      </trkpt>
      <trkpt lat="37.413749000" lon="-4.641216000">
        <ele>306.2</ele>
        <time>2020-10-16T07:46:38Z</time>
      </trkpt>
      <trkpt lat="37.413749000" lon="-4.641341000">
        <ele>305.9</ele>
        <time>2020-10-16T07:46:41Z</time>
      </trkpt>
      <trkpt lat="37.413742000" lon="-4.641460000">
        <ele>305.7</ele>
        <time>2020-10-16T07:46:44Z</time>
      </trkpt>
      <trkpt lat="37.413723000" lon="-4.641607000">
        <ele>305.6</ele>
        <time>2020-10-16T07:46:47Z</time>
      </trkpt>
      <trkpt lat="37.413718000" lon="-4.641721000">
        <ele>305.5</ele>
        <time>2020-10-16T07:46:49Z</time>
      </trkpt>
      <trkpt lat="37.413709000" lon="-4.641839000">
        <ele>305.5</ele>
        <time>2020-10-16T07:46:51Z</time>
      </trkpt>
      <trkpt lat="37.413700000" lon="-4.641956000">
        <ele>305.5</ele>
        <time>2020-10-16T07:46:53Z</time>
      </trkpt>
      <trkpt lat="37.413695000" lon="-4.642082000">
        <ele>305.5</ele>
        <time>2020-10-16T07:46:55Z</time>
      </trkpt>
      <trkpt lat="37.413698000" lon="-4.642207000">
        <ele>305.4</ele>
        <time>2020-10-16T07:46:57Z</time>
      </trkpt>
      <trkpt lat="37.413690000" lon="-4.642335000">
        <ele>305.3</ele>
        <time>2020-10-16T07:46:59Z</time>
      </trkpt>
      <trkpt lat="37.413679000" lon="-4.642461000">
        <ele>305.2</ele>
        <time>2020-10-16T07:47:01Z</time>
      </trkpt>
      <trkpt lat="37.413665000" lon="-4.642591000">
        <ele>305.0</ele>
        <time>2020-10-16T07:47:03Z</time>
      </trkpt>
      <trkpt lat="37.413653000" lon="-4.642722000">
        <ele>304.8</ele>
        <time>2020-10-16T07:47:05Z</time>
      </trkpt>
      <trkpt lat="37.413640000" lon="-4.642859000">
        <ele>304.5</ele>
        <time>2020-10-16T07:47:07Z</time>
      </trkpt>
      <trkpt lat="37.413631000" lon="-4.642994000">
        <ele>304.2</ele>
        <time>2020-10-16T07:47:09Z</time>
      </trkpt>
      <trkpt lat="37.413615000" lon="-4.643129000">
        <ele>303.8</ele>
        <time>2020-10-16T07:47:11Z</time>
      </trkpt>
      <trkpt lat="37.413600000" lon="-4.643262000">
        <ele>303.5</ele>
        <time>2020-10-16T07:47:13Z</time>
      </trkpt>
      <trkpt lat="37.413584000" lon="-4.643392000">
        <ele>303.1</ele>
        <time>2020-10-16T07:47:15Z</time>
      </trkpt>
      <trkpt lat="37.413570000" lon="-4.643526000">
        <ele>302.8</ele>
        <time>2020-10-16T07:47:17Z</time>
      </trkpt>
      <trkpt lat="37.413551000" lon="-4.643663000">
        <ele>302.5</ele>
        <time>2020-10-16T07:47:19Z</time>
      </trkpt>
      <trkpt lat="37.413532000" lon="-4.643801000">
        <ele>302.4</ele>
        <time>2020-10-16T07:47:21Z</time>
      </trkpt>
      <trkpt lat="37.413509000" lon="-4.643939000">
        <ele>302.1</ele>
        <time>2020-10-16T07:47:23Z</time>
      </trkpt>
      <trkpt lat="37.413481000" lon="-4.644078000">
        <ele>301.9</ele>
        <time>2020-10-16T07:47:25Z</time>
      </trkpt>
      <trkpt lat="37.413452000" lon="-4.644220000">
        <ele>301.6</ele>
        <time>2020-10-16T07:47:27Z</time>
      </trkpt>
      <trkpt lat="37.413424000" lon="-4.644358000">
        <ele>301.5</ele>
        <time>2020-10-16T07:47:29Z</time>
      </trkpt>
      <trkpt lat="37.413395000" lon="-4.644493000">
        <ele>301.3</ele>
        <time>2020-10-16T07:47:31Z</time>
      </trkpt>
      <trkpt lat="37.413363000" lon="-4.644632000">
        <ele>301.1</ele>
        <time>2020-10-16T07:47:33Z</time>
      </trkpt>
      <trkpt lat="37.413329000" lon="-4.644770000">
        <ele>300.9</ele>
        <time>2020-10-16T07:47:35Z</time>
      </trkpt>
      <trkpt lat="37.413299000" lon="-4.644911000">
        <ele>300.7</ele>
        <time>2020-10-16T07:47:37Z</time>
      </trkpt>
      <trkpt lat="37.413265000" lon="-4.645047000">
        <ele>300.5</ele>
        <time>2020-10-16T07:47:39Z</time>
      </trkpt>
      <trkpt lat="37.413229000" lon="-4.645189000">
        <ele>300.4</ele>
        <time>2020-10-16T07:47:41Z</time>
      </trkpt>
      <trkpt lat="37.413192000" lon="-4.645330000">
        <ele>300.2</ele>
        <time>2020-10-16T07:47:43Z</time>
      </trkpt>
      <trkpt lat="37.413155000" lon="-4.645466000">
        <ele>300.1</ele>
        <time>2020-10-16T07:47:45Z</time>
      </trkpt>
      <trkpt lat="37.413113000" lon="-4.645595000">
        <ele>300.0</ele>
        <time>2020-10-16T07:47:47Z</time>
      </trkpt>
      <trkpt lat="37.413072000" lon="-4.645729000">
        <ele>300.0</ele>
        <time>2020-10-16T07:47:49Z</time>
      </trkpt>
      <trkpt lat="37.413032000" lon="-4.645859000">
        <ele>300.0</ele>
        <time>2020-10-16T07:47:51Z</time>
      </trkpt>
      <trkpt lat="37.412989000" lon="-4.645987000">
        <ele>300.0</ele>
        <time>2020-10-16T07:47:53Z</time>
      </trkpt>
      <trkpt lat="37.412943000" lon="-4.646119000">
        <ele>300.0</ele>
        <time>2020-10-16T07:47:55Z</time>
      </trkpt>
      <trkpt lat="37.412896000" lon="-4.646255000">
        <ele>300.0</ele>
        <time>2020-10-16T07:47:57Z</time>
      </trkpt>
      <trkpt lat="37.412848000" lon="-4.646384000">
        <ele>300.0</ele>
        <time>2020-10-16T07:47:59Z</time>
      </trkpt>
      <trkpt lat="37.412800000" lon="-4.646511000">
        <ele>300.1</ele>
        <time>2020-10-16T07:48:01Z</time>
      </trkpt>
      <trkpt lat="37.412749000" lon="-4.646636000">
        <ele>300.2</ele>
        <time>2020-10-16T07:48:03Z</time>
      </trkpt>
      <trkpt lat="37.412696000" lon="-4.646762000">
        <ele>300.4</ele>
        <time>2020-10-16T07:48:05Z</time>
      </trkpt>
      <trkpt lat="37.412641000" lon="-4.646886000">
        <ele>300.5</ele>
        <time>2020-10-16T07:48:07Z</time>
      </trkpt>
      <trkpt lat="37.412588000" lon="-4.647014000">
        <ele>300.7</ele>
        <time>2020-10-16T07:48:09Z</time>
      </trkpt>
      <trkpt lat="37.412529000" lon="-4.647142000">
        <ele>300.8</ele>
        <time>2020-10-16T07:48:11Z</time>
      </trkpt>
      <trkpt lat="37.412472000" lon="-4.647269000">
        <ele>300.9</ele>
        <time>2020-10-16T07:48:13Z</time>
      </trkpt>
      <trkpt lat="37.412413000" lon="-4.647392000">
        <ele>301.0</ele>
        <time>2020-10-16T07:48:15Z</time>
      </trkpt>
      <trkpt lat="37.412349000" lon="-4.647521000">
        <ele>301.0</ele>
        <time>2020-10-16T07:48:17Z</time>
      </trkpt>
      <trkpt lat="37.412283000" lon="-4.647643000">
        <ele>301.0</ele>
        <time>2020-10-16T07:48:19Z</time>
      </trkpt>
      <trkpt lat="37.412221000" lon="-4.647771000">
        <ele>301.0</ele>
        <time>2020-10-16T07:48:21Z</time>
      </trkpt>
      <trkpt lat="37.412156000" lon="-4.647892000">
        <ele>301.0</ele>
        <time>2020-10-16T07:48:23Z</time>
      </trkpt>
      <trkpt lat="37.412094000" lon="-4.648012000">
        <ele>301.0</ele>
        <time>2020-10-16T07:48:25Z</time>
      </trkpt>
      <trkpt lat="37.412023000" lon="-4.648128000">
        <ele>300.9</ele>
        <time>2020-10-16T07:48:27Z</time>
      </trkpt>
      <trkpt lat="37.411955000" lon="-4.648243000">
        <ele>300.7</ele>
        <time>2020-10-16T07:48:29Z</time>
      </trkpt>
      <trkpt lat="37.411883000" lon="-4.648358000">
        <ele>300.5</ele>
        <time>2020-10-16T07:48:31Z</time>
      </trkpt>
      <trkpt lat="37.411819000" lon="-4.648476000">
        <ele>300.5</ele>
        <time>2020-10-16T07:48:33Z</time>
      </trkpt>
      <trkpt lat="37.411744000" lon="-4.648592000">
        <ele>300.4</ele>
        <time>2020-10-16T07:48:35Z</time>
      </trkpt>
      <trkpt lat="37.411670000" lon="-4.648704000">
        <ele>300.3</ele>
        <time>2020-10-16T07:48:37Z</time>
      </trkpt>
      <trkpt lat="37.411596000" lon="-4.648814000">
        <ele>300.3</ele>
        <time>2020-10-16T07:48:39Z</time>
      </trkpt>
      <trkpt lat="37.411519000" lon="-4.648925000">
        <ele>300.4</ele>
        <time>2020-10-16T07:48:41Z</time>
      </trkpt>
      <trkpt lat="37.411438000" lon="-4.649036000">
        <ele>300.5</ele>
        <time>2020-10-16T07:48:43Z</time>
      </trkpt>
      <trkpt lat="37.411362000" lon="-4.649150000">
        <ele>300.4</ele>
        <time>2020-10-16T07:48:45Z</time>
      </trkpt>
      <trkpt lat="37.411284000" lon="-4.649256000">
        <ele>300.3</ele>
        <time>2020-10-16T07:48:47Z</time>
      </trkpt>
      <trkpt lat="37.411203000" lon="-4.649358000">
        <ele>300.2</ele>
        <time>2020-10-16T07:48:49Z</time>
      </trkpt>
      <trkpt lat="37.411120000" lon="-4.649467000">
        <ele>300.2</ele>
        <time>2020-10-16T07:48:51Z</time>
      </trkpt>
      <trkpt lat="37.411040000" lon="-4.649566000">
        <ele>300.3</ele>
        <time>2020-10-16T07:48:53Z</time>
      </trkpt>
      <trkpt lat="37.410959000" lon="-4.649666000">
        <ele>300.4</ele>
        <time>2020-10-16T07:48:55Z</time>
      </trkpt>
      <trkpt lat="37.410876000" lon="-4.649769000">
        <ele>300.5</ele>
        <time>2020-10-16T07:48:57Z</time>
      </trkpt>
      <trkpt lat="37.410792000" lon="-4.649866000">
        <ele>300.5</ele>
        <time>2020-10-16T07:48:59Z</time>
      </trkpt>
      <trkpt lat="37.410713000" lon="-4.649961000">
        <ele>300.6</ele>
        <time>2020-10-16T07:49:01Z</time>
      </trkpt>
      <trkpt lat="37.410629000" lon="-4.650056000">
        <ele>300.6</ele>
        <time>2020-10-16T07:49:04Z</time>
      </trkpt>
      <trkpt lat="37.410562000" lon="-4.650128000">
        <ele>300.6</ele>
        <time>2020-10-16T07:49:07Z</time>
      </trkpt>
      <trkpt lat="37.410491000" lon="-4.650218000">
        <ele>300.6</ele>
        <time>2020-10-16T07:49:11Z</time>
      </trkpt>
      <trkpt lat="37.410419000" lon="-4.650296000">
        <ele>300.6</ele>
        <time>2020-10-16T07:49:15Z</time>
      </trkpt>
      <trkpt lat="37.410351000" lon="-4.650381000">
        <ele>300.6</ele>
        <time>2020-10-16T07:49:19Z</time>
      </trkpt>
      <trkpt lat="37.410287000" lon="-4.650458000">
        <ele>300.6</ele>
        <time>2020-10-16T07:49:23Z</time>
      </trkpt>
      <trkpt lat="37.410219000" lon="-4.650540000">
        <ele>300.5</ele>
        <time>2020-10-16T07:49:28Z</time>
      </trkpt>
      <trkpt lat="37.410155000" lon="-4.650616000">
        <ele>300.4</ele>
        <time>2020-10-16T07:49:32Z</time>
      </trkpt>
      <trkpt lat="37.410097000" lon="-4.650694000">
        <ele>300.2</ele>
        <time>2020-10-16T07:49:36Z</time>
      </trkpt>
      <trkpt lat="37.410025000" lon="-4.650751000">
        <ele>300.0</ele>
        <time>2020-10-16T07:50:08Z</time>
      </trkpt>
      <trkpt lat="37.409949000" lon="-4.650839000">
        <ele>299.7</ele>
        <time>2020-10-16T07:50:12Z</time>
      </trkpt>
      <trkpt lat="37.409873000" lon="-4.650938000">
        <ele>299.5</ele>
        <time>2020-10-16T07:50:15Z</time>
      </trkpt>
      <trkpt lat="37.409789000" lon="-4.651040000">
        <ele>299.2</ele>
        <time>2020-10-16T07:50:18Z</time>
      </trkpt>
      <trkpt lat="37.409706000" lon="-4.651140000">
        <ele>298.9</ele>
        <time>2020-10-16T07:50:21Z</time>
      </trkpt>
      <trkpt lat="37.409624000" lon="-4.651242000">
        <ele>298.6</ele>
        <time>2020-10-16T07:50:24Z</time>
      </trkpt>
      <trkpt lat="37.409531000" lon="-4.651350000">
        <ele>298.4</ele>
        <time>2020-10-16T07:50:27Z</time>
      </trkpt>
      <trkpt lat="37.409454000" lon="-4.651442000">
        <ele>298.1</ele>
        <time>2020-10-16T07:50:29Z</time>
      </trkpt>
      <trkpt lat="37.409370000" lon="-4.651549000">
        <ele>297.8</ele>
        <time>2020-10-16T07:50:31Z</time>
      </trkpt>
      <trkpt lat="37.409277000" lon="-4.651661000">
        <ele>297.6</ele>
        <time>2020-10-16T07:50:33Z</time>
      </trkpt>
      <trkpt lat="37.409188000" lon="-4.651768000">
        <ele>297.5</ele>
        <time>2020-10-16T07:50:35Z</time>
      </trkpt>
      <trkpt lat="37.409104000" lon="-4.651874000">
        <ele>297.3</ele>
        <time>2020-10-16T07:50:37Z</time>
      </trkpt>
      <trkpt lat="37.409020000" lon="-4.651968000">
        <ele>297.2</ele>
        <time>2020-10-16T07:50:39Z</time>
      </trkpt>
      <trkpt lat="37.408936000" lon="-4.652072000">
        <ele>297.2</ele>
        <time>2020-10-16T07:50:41Z</time>
      </trkpt>
      <trkpt lat="37.408849000" lon="-4.652177000">
        <ele>297.2</ele>
        <time>2020-10-16T07:50:43Z</time>
      </trkpt>
      <trkpt lat="37.408760000" lon="-4.652285000">
        <ele>297.3</ele>
        <time>2020-10-16T07:50:45Z</time>
      </trkpt>
      <trkpt lat="37.408673000" lon="-4.652397000">
        <ele>297.4</ele>
        <time>2020-10-16T07:50:47Z</time>
      </trkpt>
      <trkpt lat="37.408591000" lon="-4.652493000">
        <ele>297.5</ele>
        <time>2020-10-16T07:50:49Z</time>
      </trkpt>
      <trkpt lat="37.408506000" lon="-4.652592000">
        <ele>297.5</ele>
        <time>2020-10-16T07:50:51Z</time>
      </trkpt>
      <trkpt lat="37.408417000" lon="-4.652698000">
        <ele>297.5</ele>
        <time>2020-10-16T07:50:53Z</time>
      </trkpt>
      <trkpt lat="37.408331000" lon="-4.652801000">
        <ele>297.5</ele>
        <time>2020-10-16T07:50:55Z</time>
      </trkpt>
      <trkpt lat="37.408241000" lon="-4.652904000">
        <ele>297.5</ele>
        <time>2020-10-16T07:50:57Z</time>
      </trkpt>
      <trkpt lat="37.408151000" lon="-4.653010000">
        <ele>297.5</ele>
        <time>2020-10-16T07:50:59Z</time>
      </trkpt>
      <trkpt lat="37.408068000" lon="-4.653111000">
        <ele>297.4</ele>
        <time>2020-10-16T07:51:01Z</time>
      </trkpt>
      <trkpt lat="37.407981000" lon="-4.653208000">
        <ele>297.2</ele>
        <time>2020-10-16T07:51:03Z</time>
      </trkpt>
      <trkpt lat="37.407894000" lon="-4.653314000">
        <ele>297.0</ele>
        <time>2020-10-16T07:51:05Z</time>
      </trkpt>
      <trkpt lat="37.407806000" lon="-4.653427000">
        <ele>296.8</ele>
        <time>2020-10-16T07:51:07Z</time>
      </trkpt>
      <trkpt lat="37.407719000" lon="-4.653528000">
        <ele>296.6</ele>
        <time>2020-10-16T07:51:09Z</time>
      </trkpt>
      <trkpt lat="37.407628000" lon="-4.653630000">
        <ele>296.5</ele>
        <time>2020-10-16T07:51:11Z</time>
      </trkpt>
      <trkpt lat="37.407539000" lon="-4.653735000">
        <ele>296.3</ele>
        <time>2020-10-16T07:51:13Z</time>
      </trkpt>
      <trkpt lat="37.407456000" lon="-4.653837000">
        <ele>296.1</ele>
        <time>2020-10-16T07:51:15Z</time>
      </trkpt>
      <trkpt lat="37.407371000" lon="-4.653939000">
        <ele>295.9</ele>
        <time>2020-10-16T07:51:17Z</time>
      </trkpt>
      <trkpt lat="37.407284000" lon="-4.654045000">
        <ele>295.7</ele>
        <time>2020-10-16T07:51:19Z</time>
      </trkpt>
      <trkpt lat="37.407197000" lon="-4.654154000">
        <ele>295.6</ele>
        <time>2020-10-16T07:51:21Z</time>
      </trkpt>
      <trkpt lat="37.407109000" lon="-4.654257000">
        <ele>295.5</ele>
        <time>2020-10-16T07:51:23Z</time>
      </trkpt>
      <trkpt lat="37.407023000" lon="-4.654362000">
        <ele>295.5</ele>
        <time>2020-10-16T07:51:25Z</time>
      </trkpt>
      <trkpt lat="37.406932000" lon="-4.654468000">
        <ele>295.4</ele>
        <time>2020-10-16T07:51:27Z</time>
      </trkpt>
      <trkpt lat="37.406843000" lon="-4.654574000">
        <ele>295.3</ele>
        <time>2020-10-16T07:51:29Z</time>
      </trkpt>
      <trkpt lat="37.406755000" lon="-4.654676000">
        <ele>295.2</ele>
        <time>2020-10-16T07:51:31Z</time>
      </trkpt>
      <trkpt lat="37.406665000" lon="-4.654778000">
        <ele>295.0</ele>
        <time>2020-10-16T07:51:33Z</time>
      </trkpt>
      <trkpt lat="37.406579000" lon="-4.654882000">
        <ele>294.8</ele>
        <time>2020-10-16T07:51:35Z</time>
      </trkpt>
      <trkpt lat="37.406494000" lon="-4.654985000">
        <ele>294.6</ele>
        <time>2020-10-16T07:51:37Z</time>
      </trkpt>
      <trkpt lat="37.406406000" lon="-4.655096000">
        <ele>294.5</ele>
        <time>2020-10-16T07:51:39Z</time>
      </trkpt>
      <trkpt lat="37.406318000" lon="-4.655204000">
        <ele>294.3</ele>
        <time>2020-10-16T07:51:41Z</time>
      </trkpt>
      <trkpt lat="37.406232000" lon="-4.655309000">
        <ele>294.1</ele>
        <time>2020-10-16T07:51:43Z</time>
      </trkpt>
      <trkpt lat="37.406140000" lon="-4.655409000">
        <ele>293.9</ele>
        <time>2020-10-16T07:51:45Z</time>
      </trkpt>
      <trkpt lat="37.406051000" lon="-4.655513000">
        <ele>293.7</ele>
        <time>2020-10-16T07:51:47Z</time>
      </trkpt>
      <trkpt lat="37.405967000" lon="-4.655614000">
        <ele>293.5</ele>
        <time>2020-10-16T07:51:49Z</time>
      </trkpt>
      <trkpt lat="37.405876000" lon="-4.655713000">
        <ele>293.4</ele>
        <time>2020-10-16T07:51:51Z</time>
      </trkpt>
      <trkpt lat="37.405789000" lon="-4.655815000">
        <ele>293.1</ele>
        <time>2020-10-16T07:51:53Z</time>
      </trkpt>
      <trkpt lat="37.405704000" lon="-4.655921000">
        <ele>292.9</ele>
        <time>2020-10-16T07:51:55Z</time>
      </trkpt>
      <trkpt lat="37.405617000" lon="-4.656026000">
        <ele>292.7</ele>
        <time>2020-10-16T07:51:57Z</time>
      </trkpt>
      <trkpt lat="37.405531000" lon="-4.656132000">
        <ele>292.6</ele>
        <time>2020-10-16T07:51:59Z</time>
      </trkpt>
      <trkpt lat="37.405444000" lon="-4.656237000">
        <ele>292.5</ele>
        <time>2020-10-16T07:52:01Z</time>
      </trkpt>
      <trkpt lat="37.405360000" lon="-4.656341000">
        <ele>292.3</ele>
        <time>2020-10-16T07:52:03Z</time>
      </trkpt>
      <trkpt lat="37.405269000" lon="-4.656441000">
        <ele>292.2</ele>
        <time>2020-10-16T07:52:05Z</time>
      </trkpt>
      <trkpt lat="37.405181000" lon="-4.656544000">
        <ele>292.1</ele>
        <time>2020-10-16T07:52:07Z</time>
      </trkpt>
      <trkpt lat="37.405093000" lon="-4.656648000">
        <ele>292.0</ele>
        <time>2020-10-16T07:52:09Z</time>
      </trkpt>
      <trkpt lat="37.405009000" lon="-4.656756000">
        <ele>291.8</ele>
        <time>2020-10-16T07:52:11Z</time>
      </trkpt>
      <trkpt lat="37.404924000" lon="-4.656864000">
        <ele>291.6</ele>
        <time>2020-10-16T07:52:13Z</time>
      </trkpt>
      <trkpt lat="37.404840000" lon="-4.656973000">
        <ele>291.5</ele>
        <time>2020-10-16T07:52:15Z</time>
      </trkpt>
      <trkpt lat="37.404758000" lon="-4.657088000">
        <ele>291.4</ele>
        <time>2020-10-16T07:52:17Z</time>
      </trkpt>
      <trkpt lat="37.404685000" lon="-4.657208000">
        <ele>291.3</ele>
        <time>2020-10-16T07:52:19Z</time>
      </trkpt>
      <trkpt lat="37.404607000" lon="-4.657323000">
        <ele>291.3</ele>
        <time>2020-10-16T07:52:21Z</time>
      </trkpt>
      <trkpt lat="37.404536000" lon="-4.657442000">
        <ele>291.4</ele>
        <time>2020-10-16T07:52:23Z</time>
      </trkpt>
      <trkpt lat="37.404469000" lon="-4.657564000">
        <ele>291.5</ele>
        <time>2020-10-16T07:52:25Z</time>
      </trkpt>
      <trkpt lat="37.404402000" lon="-4.657687000">
        <ele>291.5</ele>
        <time>2020-10-16T07:52:27Z</time>
      </trkpt>
      <trkpt lat="37.404341000" lon="-4.657820000">
        <ele>291.4</ele>
        <time>2020-10-16T07:52:29Z</time>
      </trkpt>
      <trkpt lat="37.404280000" lon="-4.657949000">
        <ele>291.2</ele>
        <time>2020-10-16T07:52:31Z</time>
      </trkpt>
      <trkpt lat="37.404219000" lon="-4.658084000">
        <ele>291.1</ele>
        <time>2020-10-16T07:52:33Z</time>
      </trkpt>
      <trkpt lat="37.404160000" lon="-4.658220000">
        <ele>290.9</ele>
        <time>2020-10-16T07:52:35Z</time>
      </trkpt>
      <trkpt lat="37.404104000" lon="-4.658353000">
        <ele>290.9</ele>
        <time>2020-10-16T07:52:37Z</time>
      </trkpt>
      <trkpt lat="37.404050000" lon="-4.658495000">
        <ele>290.8</ele>
        <time>2020-10-16T07:52:39Z</time>
      </trkpt>
      <trkpt lat="37.404002000" lon="-4.658640000">
        <ele>290.7</ele>
        <time>2020-10-16T07:52:41Z</time>
      </trkpt>
      <trkpt lat="37.403954000" lon="-4.658786000">
        <ele>290.5</ele>
        <time>2020-10-16T07:52:43Z</time>
      </trkpt>
      <trkpt lat="37.403914000" lon="-4.658937000">
        <ele>290.4</ele>
        <time>2020-10-16T07:52:45Z</time>
      </trkpt>
      <trkpt lat="37.403877000" lon="-4.659085000">
        <ele>290.2</ele>
        <time>2020-10-16T07:52:47Z</time>
      </trkpt>
      <trkpt lat="37.403848000" lon="-4.659234000">
        <ele>290.0</ele>
        <time>2020-10-16T07:52:49Z</time>
      </trkpt>
      <trkpt lat="37.403813000" lon="-4.659385000">
        <ele>289.9</ele>
        <time>2020-10-16T07:52:51Z</time>
      </trkpt>
      <trkpt lat="37.403781000" lon="-4.659534000">
        <ele>289.9</ele>
        <time>2020-10-16T07:52:53Z</time>
      </trkpt>
      <trkpt lat="37.403750000" lon="-4.659687000">
        <ele>289.9</ele>
        <time>2020-10-16T07:52:55Z</time>
      </trkpt>
      <trkpt lat="37.403724000" lon="-4.659841000">
        <ele>289.9</ele>
        <time>2020-10-16T07:52:57Z</time>
      </trkpt>
      <trkpt lat="37.403704000" lon="-4.659996000">
        <ele>289.8</ele>
        <time>2020-10-16T07:52:59Z</time>
      </trkpt>
      <trkpt lat="37.403689000" lon="-4.660152000">
        <ele>289.7</ele>
        <time>2020-10-16T07:53:01Z</time>
      </trkpt>
      <trkpt lat="37.403680000" lon="-4.660321000">
        <ele>289.6</ele>
        <time>2020-10-16T07:53:04Z</time>
      </trkpt>
      <trkpt lat="37.403673000" lon="-4.660494000">
        <ele>289.5</ele>
        <time>2020-10-16T07:53:05Z</time>
      </trkpt>
      <trkpt lat="37.403671000" lon="-4.660665000">
        <ele>289.2</ele>
        <time>2020-10-16T07:53:07Z</time>
      </trkpt>
      <trkpt lat="37.403670000" lon="-4.660838000">
        <ele>288.8</ele>
        <time>2020-10-16T07:53:09Z</time>
      </trkpt>
      <trkpt lat="37.403671000" lon="-4.661009000">
        <ele>288.5</ele>
        <time>2020-10-16T07:53:11Z</time>
      </trkpt>
      <trkpt lat="37.403683000" lon="-4.661179000">
        <ele>288.3</ele>
        <time>2020-10-16T07:53:13Z</time>
      </trkpt>
      <trkpt lat="37.403696000" lon="-4.661350000">
        <ele>288.0</ele>
        <time>2020-10-16T07:53:15Z</time>
      </trkpt>
      <trkpt lat="37.403716000" lon="-4.661523000">
        <ele>287.7</ele>
        <time>2020-10-16T07:53:17Z</time>
      </trkpt>
      <trkpt lat="37.403733000" lon="-4.661687000">
        <ele>287.5</ele>
        <time>2020-10-16T07:53:19Z</time>
      </trkpt>
      <trkpt lat="37.403758000" lon="-4.661852000">
        <ele>287.4</ele>
        <time>2020-10-16T07:53:21Z</time>
      </trkpt>
      <trkpt lat="37.403783000" lon="-4.662025000">
        <ele>287.2</ele>
        <time>2020-10-16T07:53:23Z</time>
      </trkpt>
      <trkpt lat="37.403812000" lon="-4.662193000">
        <ele>287.0</ele>
        <time>2020-10-16T07:53:25Z</time>
      </trkpt>
      <trkpt lat="37.403844000" lon="-4.662360000">
        <ele>286.9</ele>
        <time>2020-10-16T07:53:27Z</time>
      </trkpt>
      <trkpt lat="37.403871000" lon="-4.662525000">
        <ele>286.9</ele>
        <time>2020-10-16T07:53:29Z</time>
      </trkpt>
      <trkpt lat="37.403901000" lon="-4.662690000">
        <ele>287.0</ele>
        <time>2020-10-16T07:53:31Z</time>
      </trkpt>
      <trkpt lat="37.403930000" lon="-4.662856000">
        <ele>287.0</ele>
        <time>2020-10-16T07:53:33Z</time>
      </trkpt>
      <trkpt lat="37.403957000" lon="-4.663021000">
        <ele>286.9</ele>
        <time>2020-10-16T07:53:35Z</time>
      </trkpt>
      <trkpt lat="37.403986000" lon="-4.663184000">
        <ele>286.8</ele>
        <time>2020-10-16T07:53:37Z</time>
      </trkpt>
      <trkpt lat="37.404014000" lon="-4.663357000">
        <ele>286.7</ele>
        <time>2020-10-16T07:53:39Z</time>
      </trkpt>
      <trkpt lat="37.404044000" lon="-4.663525000">
        <ele>286.5</ele>
        <time>2020-10-16T07:53:41Z</time>
      </trkpt>
      <trkpt lat="37.404074000" lon="-4.663694000">
        <ele>286.4</ele>
        <time>2020-10-16T07:53:43Z</time>
      </trkpt>
      <trkpt lat="37.404101000" lon="-4.663860000">
        <ele>286.3</ele>
        <time>2020-10-16T07:53:45Z</time>
      </trkpt>
      <trkpt lat="37.404130000" lon="-4.664026000">
        <ele>286.2</ele>
        <time>2020-10-16T07:53:47Z</time>
      </trkpt>
      <trkpt lat="37.404158000" lon="-4.664192000">
        <ele>286.1</ele>
        <time>2020-10-16T07:53:49Z</time>
      </trkpt>
      <trkpt lat="37.404186000" lon="-4.664360000">
        <ele>286.0</ele>
        <time>2020-10-16T07:53:51Z</time>
      </trkpt>
      <trkpt lat="37.404211000" lon="-4.664527000">
        <ele>285.8</ele>
        <time>2020-10-16T07:53:53Z</time>
      </trkpt>
      <trkpt lat="37.404243000" lon="-4.664691000">
        <ele>285.6</ele>
        <time>2020-10-16T07:53:55Z</time>
      </trkpt>
      <trkpt lat="37.404271000" lon="-4.664856000">
        <ele>285.5</ele>
        <time>2020-10-16T07:53:57Z</time>
      </trkpt>
      <trkpt lat="37.404297000" lon="-4.665023000">
        <ele>285.3</ele>
        <time>2020-10-16T07:53:59Z</time>
      </trkpt>
      <trkpt lat="37.404329000" lon="-4.665187000">
        <ele>285.0</ele>
        <time>2020-10-16T07:54:01Z</time>
      </trkpt>
      <trkpt lat="37.404358000" lon="-4.665354000">
        <ele>284.8</ele>
        <time>2020-10-16T07:54:03Z</time>
      </trkpt>
      <trkpt lat="37.404386000" lon="-4.665510000">
        <ele>284.5</ele>
        <time>2020-10-16T07:54:05Z</time>
      </trkpt>
      <trkpt lat="37.404414000" lon="-4.665670000">
        <ele>284.2</ele>
        <time>2020-10-16T07:54:07Z</time>
      </trkpt>
      <trkpt lat="37.404439000" lon="-4.665837000">
        <ele>283.8</ele>
        <time>2020-10-16T07:54:09Z</time>
      </trkpt>
      <trkpt lat="37.404468000" lon="-4.666006000">
        <ele>283.4</ele>
        <time>2020-10-16T07:54:11Z</time>
      </trkpt>
      <trkpt lat="37.404501000" lon="-4.666175000">
        <ele>282.9</ele>
        <time>2020-10-16T07:54:13Z</time>
      </trkpt>
      <trkpt lat="37.404530000" lon="-4.666349000">
        <ele>282.5</ele>
        <time>2020-10-16T07:54:15Z</time>
      </trkpt>
      <trkpt lat="37.404562000" lon="-4.666517000">
        <ele>281.9</ele>
        <time>2020-10-16T07:54:17Z</time>
      </trkpt>
      <trkpt lat="37.404593000" lon="-4.666693000">
        <ele>281.5</ele>
        <time>2020-10-16T07:54:19Z</time>
      </trkpt>
      <trkpt lat="37.404623000" lon="-4.666867000">
        <ele>281.0</ele>
        <time>2020-10-16T07:54:21Z</time>
      </trkpt>
      <trkpt lat="37.404654000" lon="-4.667047000">
        <ele>280.6</ele>
        <time>2020-10-16T07:54:23Z</time>
      </trkpt>
      <trkpt lat="37.404688000" lon="-4.667228000">
        <ele>280.2</ele>
        <time>2020-10-16T07:54:25Z</time>
      </trkpt>
      <trkpt lat="37.404716000" lon="-4.667409000">
        <ele>279.9</ele>
        <time>2020-10-16T07:54:27Z</time>
      </trkpt>
      <trkpt lat="37.404735000" lon="-4.667589000">
        <ele>279.6</ele>
        <time>2020-10-16T07:54:29Z</time>
      </trkpt>
      <trkpt lat="37.404760000" lon="-4.667766000">
        <ele>279.4</ele>
        <time>2020-10-16T07:54:31Z</time>
      </trkpt>
      <trkpt lat="37.404783000" lon="-4.667940000">
        <ele>279.1</ele>
        <time>2020-10-16T07:54:33Z</time>
      </trkpt>
      <trkpt lat="37.404798000" lon="-4.668117000">
        <ele>278.8</ele>
        <time>2020-10-16T07:54:35Z</time>
      </trkpt>
      <trkpt lat="37.404814000" lon="-4.668289000">
        <ele>278.5</ele>
        <time>2020-10-16T07:54:37Z</time>
      </trkpt>
      <trkpt lat="37.404830000" lon="-4.668462000">
        <ele>278.3</ele>
        <time>2020-10-16T07:54:39Z</time>
      </trkpt>
      <trkpt lat="37.404845000" lon="-4.668636000">
        <ele>277.9</ele>
        <time>2020-10-16T07:54:41Z</time>
      </trkpt>
      <trkpt lat="37.404854000" lon="-4.668807000">
        <ele>277.5</ele>
        <time>2020-10-16T07:54:43Z</time>
      </trkpt>
      <trkpt lat="37.404860000" lon="-4.668976000">
        <ele>277.2</ele>
        <time>2020-10-16T07:54:45Z</time>
      </trkpt>
      <trkpt lat="37.404865000" lon="-4.669141000">
        <ele>276.8</ele>
        <time>2020-10-16T07:54:47Z</time>
      </trkpt>
      <trkpt lat="37.404864000" lon="-4.669314000">
        <ele>276.4</ele>
        <time>2020-10-16T07:54:49Z</time>
      </trkpt>
      <trkpt lat="37.404866000" lon="-4.669488000">
        <ele>275.8</ele>
        <time>2020-10-16T07:54:51Z</time>
      </trkpt>
      <trkpt lat="37.404863000" lon="-4.669657000">
        <ele>275.4</ele>
        <time>2020-10-16T07:54:53Z</time>
      </trkpt>
      <trkpt lat="37.404860000" lon="-4.669821000">
        <ele>275.0</ele>
        <time>2020-10-16T07:54:55Z</time>
      </trkpt>
      <trkpt lat="37.404854000" lon="-4.669988000">
        <ele>274.6</ele>
        <time>2020-10-16T07:54:57Z</time>
      </trkpt>
      <trkpt lat="37.404843000" lon="-4.670152000">
        <ele>274.4</ele>
        <time>2020-10-16T07:54:59Z</time>
      </trkpt>
      <trkpt lat="37.404828000" lon="-4.670316000">
        <ele>274.3</ele>
        <time>2020-10-16T07:55:01Z</time>
      </trkpt>
      <trkpt lat="37.404819000" lon="-4.670481000">
        <ele>274.3</ele>
        <time>2020-10-16T07:55:03Z</time>
      </trkpt>
      <trkpt lat="37.404807000" lon="-4.670633000">
        <ele>274.3</ele>
        <time>2020-10-16T07:55:05Z</time>
      </trkpt>
      <trkpt lat="37.404794000" lon="-4.670792000">
        <ele>274.3</ele>
        <time>2020-10-16T07:55:07Z</time>
      </trkpt>
      <trkpt lat="37.404780000" lon="-4.670948000">
        <ele>274.4</ele>
        <time>2020-10-16T07:55:09Z</time>
      </trkpt>
      <trkpt lat="37.404757000" lon="-4.671103000">
        <ele>274.5</ele>
        <time>2020-10-16T07:55:11Z</time>
      </trkpt>
      <trkpt lat="37.404739000" lon="-4.671255000">
        <ele>274.6</ele>
        <time>2020-10-16T07:55:13Z</time>
      </trkpt>
      <trkpt lat="37.404721000" lon="-4.671410000">
        <ele>274.7</ele>
        <time>2020-10-16T07:55:15Z</time>
      </trkpt>
      <trkpt lat="37.404697000" lon="-4.671564000">
        <ele>274.8</ele>
        <time>2020-10-16T07:55:17Z</time>
      </trkpt>
      <trkpt lat="37.404675000" lon="-4.671715000">
        <ele>274.9</ele>
        <time>2020-10-16T07:55:19Z</time>
      </trkpt>
      <trkpt lat="37.404648000" lon="-4.671865000">
        <ele>275.0</ele>
        <time>2020-10-16T07:55:21Z</time>
      </trkpt>
      <trkpt lat="37.404614000" lon="-4.672018000">
        <ele>275.0</ele>
        <time>2020-10-16T07:55:23Z</time>
      </trkpt>
      <trkpt lat="37.404584000" lon="-4.672166000">
        <ele>275.0</ele>
        <time>2020-10-16T07:55:25Z</time>
      </trkpt>
      <trkpt lat="37.404553000" lon="-4.672313000">
        <ele>275.0</ele>
        <time>2020-10-16T07:55:27Z</time>
      </trkpt>
      <trkpt lat="37.404523000" lon="-4.672464000">
        <ele>275.0</ele>
        <time>2020-10-16T07:55:29Z</time>
      </trkpt>
      <trkpt lat="37.404492000" lon="-4.672612000">
        <ele>275.0</ele>
        <time>2020-10-16T07:55:31Z</time>
      </trkpt>
      <trkpt lat="37.404458000" lon="-4.672757000">
        <ele>275.0</ele>
        <time>2020-10-16T07:55:33Z</time>
      </trkpt>
      <trkpt lat="37.404423000" lon="-4.672892000">
        <ele>275.1</ele>
        <time>2020-10-16T07:55:35Z</time>
      </trkpt>
      <trkpt lat="37.404389000" lon="-4.673030000">
        <ele>275.2</ele>
        <time>2020-10-16T07:55:37Z</time>
      </trkpt>
      <trkpt lat="37.404348000" lon="-4.673170000">
        <ele>275.3</ele>
        <time>2020-10-16T07:55:39Z</time>
      </trkpt>
      <trkpt lat="37.404313000" lon="-4.673310000">
        <ele>275.3</ele>
        <time>2020-10-16T07:55:41Z</time>
      </trkpt>
      <trkpt lat="37.404280000" lon="-4.673451000">
        <ele>275.3</ele>
        <time>2020-10-16T07:55:43Z</time>
      </trkpt>
      <trkpt lat="37.404248000" lon="-4.673593000">
        <ele>275.3</ele>
        <time>2020-10-16T07:55:45Z</time>
      </trkpt>
      <trkpt lat="37.404213000" lon="-4.673732000">
        <ele>275.3</ele>
        <time>2020-10-16T07:55:47Z</time>
      </trkpt>
      <trkpt lat="37.404178000" lon="-4.673872000">
        <ele>275.2</ele>
        <time>2020-10-16T07:55:49Z</time>
      </trkpt>
      <trkpt lat="37.404145000" lon="-4.674015000">
        <ele>275.1</ele>
        <time>2020-10-16T07:55:51Z</time>
      </trkpt>
      <trkpt lat="37.404113000" lon="-4.674161000">
        <ele>275.0</ele>
        <time>2020-10-16T07:55:53Z</time>
      </trkpt>
      <trkpt lat="37.404079000" lon="-4.674313000">
        <ele>274.8</ele>
        <time>2020-10-16T07:55:55Z</time>
      </trkpt>
      <trkpt lat="37.404047000" lon="-4.674457000">
        <ele>274.5</ele>
        <time>2020-10-16T07:55:57Z</time>
      </trkpt>
      <trkpt lat="37.404015000" lon="-4.674602000">
        <ele>274.3</ele>
        <time>2020-10-16T07:55:59Z</time>
      </trkpt>
      <trkpt lat="37.403983000" lon="-4.674744000">
        <ele>273.9</ele>
        <time>2020-10-16T07:56:01Z</time>
      </trkpt>
      <trkpt lat="37.403953000" lon="-4.674889000">
        <ele>273.5</ele>
        <time>2020-10-16T07:56:03Z</time>
      </trkpt>
      <trkpt lat="37.403918000" lon="-4.675032000">
        <ele>273.2</ele>
        <time>2020-10-16T07:56:05Z</time>
      </trkpt>
      <trkpt lat="37.403884000" lon="-4.675178000">
        <ele>272.8</ele>
        <time>2020-10-16T07:56:07Z</time>
      </trkpt>
      <trkpt lat="37.403852000" lon="-4.675315000">
        <ele>272.5</ele>
        <time>2020-10-16T07:56:09Z</time>
      </trkpt>
      <trkpt lat="37.403818000" lon="-4.675459000">
        <ele>272.2</ele>
        <time>2020-10-16T07:56:11Z</time>
      </trkpt>
      <trkpt lat="37.403785000" lon="-4.675599000">
        <ele>271.9</ele>
        <time>2020-10-16T07:56:13Z</time>
      </trkpt>
      <trkpt lat="37.403752000" lon="-4.675737000">
        <ele>271.6</ele>
        <time>2020-10-16T07:56:15Z</time>
      </trkpt>
      <trkpt lat="37.403717000" lon="-4.675880000">
        <ele>271.5</ele>
        <time>2020-10-16T07:56:17Z</time>
      </trkpt>
      <trkpt lat="37.403685000" lon="-4.676021000">
        <ele>271.3</ele>
        <time>2020-10-16T07:56:19Z</time>
      </trkpt>
      <trkpt lat="37.403649000" lon="-4.676164000">
        <ele>271.1</ele>
        <time>2020-10-16T07:56:21Z</time>
      </trkpt>
      <trkpt lat="37.403611000" lon="-4.676304000">
        <ele>271.1</ele>
        <time>2020-10-16T07:56:23Z</time>
      </trkpt>
      <trkpt lat="37.403577000" lon="-4.676453000">
        <ele>271.2</ele>
        <time>2020-10-16T07:56:25Z</time>
      </trkpt>
      <trkpt lat="37.403547000" lon="-4.676598000">
        <ele>271.3</ele>
        <time>2020-10-16T07:56:27Z</time>
      </trkpt>
      <trkpt lat="37.403512000" lon="-4.676743000">
        <ele>271.4</ele>
        <time>2020-10-16T07:56:29Z</time>
      </trkpt>
      <trkpt lat="37.403478000" lon="-4.676891000">
        <ele>271.5</ele>
        <time>2020-10-16T07:56:31Z</time>
      </trkpt>
      <trkpt lat="37.403447000" lon="-4.677033000">
        <ele>271.5</ele>
        <time>2020-10-16T07:56:33Z</time>
      </trkpt>
      <trkpt lat="37.403414000" lon="-4.677168000">
        <ele>271.6</ele>
        <time>2020-10-16T07:56:35Z</time>
      </trkpt>
      <trkpt lat="37.403380000" lon="-4.677304000">
        <ele>271.8</ele>
        <time>2020-10-16T07:56:37Z</time>
      </trkpt>
      <trkpt lat="37.403345000" lon="-4.677447000">
        <ele>272.0</ele>
        <time>2020-10-16T07:56:39Z</time>
      </trkpt>
      <trkpt lat="37.403308000" lon="-4.677586000">
        <ele>272.2</ele>
        <time>2020-10-16T07:56:41Z</time>
      </trkpt>
      <trkpt lat="37.403276000" lon="-4.677729000">
        <ele>272.4</ele>
        <time>2020-10-16T07:56:43Z</time>
      </trkpt>
      <trkpt lat="37.403244000" lon="-4.677877000">
        <ele>272.5</ele>
        <time>2020-10-16T07:56:45Z</time>
      </trkpt>
      <trkpt lat="37.403214000" lon="-4.678015000">
        <ele>272.5</ele>
        <time>2020-10-16T07:56:47Z</time>
      </trkpt>
      <trkpt lat="37.403180000" lon="-4.678157000">
        <ele>272.6</ele>
        <time>2020-10-16T07:56:49Z</time>
      </trkpt>
      <trkpt lat="37.403148000" lon="-4.678297000">
        <ele>272.7</ele>
        <time>2020-10-16T07:56:51Z</time>
      </trkpt>
      <trkpt lat="37.403118000" lon="-4.678442000">
        <ele>272.8</ele>
        <time>2020-10-16T07:56:53Z</time>
      </trkpt>
      <trkpt lat="37.403087000" lon="-4.678593000">
        <ele>272.8</ele>
        <time>2020-10-16T07:56:55Z</time>
      </trkpt>
      <trkpt lat="37.403054000" lon="-4.678733000">
        <ele>272.7</ele>
        <time>2020-10-16T07:56:57Z</time>
      </trkpt>
      <trkpt lat="37.403019000" lon="-4.678881000">
        <ele>272.5</ele>
        <time>2020-10-16T07:56:59Z</time>
      </trkpt>
      <trkpt lat="37.402987000" lon="-4.679029000">
        <ele>272.3</ele>
        <time>2020-10-16T07:57:01Z</time>
      </trkpt>
      <trkpt lat="37.402953000" lon="-4.679174000">
        <ele>271.9</ele>
        <time>2020-10-16T07:57:03Z</time>
      </trkpt>
      <trkpt lat="37.402924000" lon="-4.679318000">
        <ele>271.5</ele>
        <time>2020-10-16T07:57:05Z</time>
      </trkpt>
      <trkpt lat="37.402888000" lon="-4.679465000">
        <ele>271.2</ele>
        <time>2020-10-16T07:57:07Z</time>
      </trkpt>
      <trkpt lat="37.402849000" lon="-4.679612000">
        <ele>270.8</ele>
        <time>2020-10-16T07:57:09Z</time>
      </trkpt>
      <trkpt lat="37.402813000" lon="-4.679752000">
        <ele>270.5</ele>
        <time>2020-10-16T07:57:11Z</time>
      </trkpt>
      <trkpt lat="37.402774000" lon="-4.679896000">
        <ele>270.1</ele>
        <time>2020-10-16T07:57:13Z</time>
      </trkpt>
      <trkpt lat="37.402740000" lon="-4.680037000">
        <ele>269.7</ele>
        <time>2020-10-16T07:57:15Z</time>
      </trkpt>
      <trkpt lat="37.402709000" lon="-4.680179000">
        <ele>269.5</ele>
        <time>2020-10-16T07:57:17Z</time>
      </trkpt>
      <trkpt lat="37.402683000" lon="-4.680314000">
        <ele>269.3</ele>
        <time>2020-10-16T07:57:19Z</time>
      </trkpt>
      <trkpt lat="37.402650000" lon="-4.680455000">
        <ele>269.1</ele>
        <time>2020-10-16T07:57:21Z</time>
      </trkpt>
      <trkpt lat="37.402620000" lon="-4.680596000">
        <ele>269.0</ele>
        <time>2020-10-16T07:57:23Z</time>
      </trkpt>
      <trkpt lat="37.402582000" lon="-4.680746000">
        <ele>269.0</ele>
        <time>2020-10-16T07:57:25Z</time>
      </trkpt>
      <trkpt lat="37.402544000" lon="-4.680894000">
        <ele>268.9</ele>
        <time>2020-10-16T07:57:27Z</time>
      </trkpt>
      <trkpt lat="37.402508000" lon="-4.681041000">
        <ele>268.9</ele>
        <time>2020-10-16T07:57:29Z</time>
      </trkpt>
      <trkpt lat="37.402474000" lon="-4.681197000">
        <ele>268.9</ele>
        <time>2020-10-16T07:57:31Z</time>
      </trkpt>
      <trkpt lat="37.402439000" lon="-4.681365000">
        <ele>268.8</ele>
        <time>2020-10-16T07:57:33Z</time>
      </trkpt>
      <trkpt lat="37.402396000" lon="-4.681537000">
        <ele>268.7</ele>
        <time>2020-10-16T07:57:35Z</time>
      </trkpt>
      <trkpt lat="37.402363000" lon="-4.681694000">
        <ele>268.6</ele>
        <time>2020-10-16T07:57:37Z</time>
      </trkpt>
      <trkpt lat="37.402332000" lon="-4.681846000">
        <ele>268.5</ele>
        <time>2020-10-16T07:57:39Z</time>
      </trkpt>
      <trkpt lat="37.402299000" lon="-4.681987000">
        <ele>268.4</ele>
        <time>2020-10-16T07:57:41Z</time>
      </trkpt>
      <trkpt lat="37.402268000" lon="-4.682121000">
        <ele>268.2</ele>
        <time>2020-10-16T07:57:43Z</time>
      </trkpt>
      <trkpt lat="37.402241000" lon="-4.682253000">
        <ele>268.0</ele>
        <time>2020-10-16T07:57:45Z</time>
      </trkpt>
      <trkpt lat="37.402215000" lon="-4.682381000">
        <ele>267.8</ele>
        <time>2020-10-16T07:57:47Z</time>
      </trkpt>
      <trkpt lat="37.402189000" lon="-4.682499000">
        <ele>267.7</ele>
        <time>2020-10-16T07:57:49Z</time>
      </trkpt>
      <trkpt lat="37.402161000" lon="-4.682618000">
        <ele>267.5</ele>
        <time>2020-10-16T07:57:51Z</time>
      </trkpt>
      <trkpt lat="37.402135000" lon="-4.682730000">
        <ele>267.4</ele>
        <time>2020-10-16T07:57:53Z</time>
      </trkpt>
      <trkpt lat="37.402104000" lon="-4.682855000">
        <ele>267.3</ele>
        <time>2020-10-16T07:57:55Z</time>
      </trkpt>
      <trkpt lat="37.402061000" lon="-4.683005000">
        <ele>267.2</ele>
        <time>2020-10-16T07:57:57Z</time>
      </trkpt>
      <trkpt lat="37.402030000" lon="-4.683142000">
        <ele>267.1</ele>
        <time>2020-10-16T07:57:59Z</time>
      </trkpt>
      <trkpt lat="37.402006000" lon="-4.683239000">
        <ele>267.0</ele>
        <time>2020-10-16T07:58:01Z</time>
      </trkpt>
      <trkpt lat="37.401977000" lon="-4.683377000">
        <ele>267.0</ele>
        <time>2020-10-16T07:58:04Z</time>
      </trkpt>
      <trkpt lat="37.401952000" lon="-4.683482000">
        <ele>267.0</ele>
        <time>2020-10-16T07:58:06Z</time>
      </trkpt>
      <trkpt lat="37.401930000" lon="-4.683595000">
        <ele>267.0</ele>
        <time>2020-10-16T07:58:08Z</time>
      </trkpt>
      <trkpt lat="37.401901000" lon="-4.683718000">
        <ele>267.0</ele>
        <time>2020-10-16T07:58:10Z</time>
      </trkpt>
      <trkpt lat="37.401876000" lon="-4.683856000">
        <ele>267.0</ele>
        <time>2020-10-16T07:58:12Z</time>
      </trkpt>
      <trkpt lat="37.401846000" lon="-4.683987000">
        <ele>267.0</ele>
        <time>2020-10-16T07:58:14Z</time>
      </trkpt>
      <trkpt lat="37.401811000" lon="-4.684125000">
        <ele>267.0</ele>
        <time>2020-10-16T07:58:16Z</time>
      </trkpt>
      <trkpt lat="37.401776000" lon="-4.684268000">
        <ele>267.0</ele>
        <time>2020-10-16T07:58:18Z</time>
      </trkpt>
      <trkpt lat="37.401745000" lon="-4.684409000">
        <ele>267.1</ele>
        <time>2020-10-16T07:58:20Z</time>
      </trkpt>
      <trkpt lat="37.401714000" lon="-4.684554000">
        <ele>267.2</ele>
        <time>2020-10-16T07:58:22Z</time>
      </trkpt>
      <trkpt lat="37.401681000" lon="-4.684701000">
        <ele>267.3</ele>
        <time>2020-10-16T07:58:24Z</time>
      </trkpt>
      <trkpt lat="37.401649000" lon="-4.684847000">
        <ele>267.4</ele>
        <time>2020-10-16T07:58:26Z</time>
      </trkpt>
      <trkpt lat="37.401613000" lon="-4.684996000">
        <ele>267.5</ele>
        <time>2020-10-16T07:58:28Z</time>
      </trkpt>
      <trkpt lat="37.401582000" lon="-4.685147000">
        <ele>267.5</ele>
        <time>2020-10-16T07:58:30Z</time>
      </trkpt>
      <trkpt lat="37.401544000" lon="-4.685294000">
        <ele>267.6</ele>
        <time>2020-10-16T07:58:32Z</time>
      </trkpt>
      <trkpt lat="37.401516000" lon="-4.685432000">
        <ele>267.7</ele>
        <time>2020-10-16T07:58:34Z</time>
      </trkpt>
      <trkpt lat="37.401485000" lon="-4.685572000">
        <ele>267.8</ele>
        <time>2020-10-16T07:58:36Z</time>
      </trkpt>
      <trkpt lat="37.401455000" lon="-4.685718000">
        <ele>267.8</ele>
        <time>2020-10-16T07:58:38Z</time>
      </trkpt>
      <trkpt lat="37.401420000" lon="-4.685853000">
        <ele>267.8</ele>
        <time>2020-10-16T07:58:40Z</time>
      </trkpt>
      <trkpt lat="37.401390000" lon="-4.685996000">
        <ele>267.7</ele>
        <time>2020-10-16T07:58:42Z</time>
      </trkpt>
      <trkpt lat="37.401355000" lon="-4.686133000">
        <ele>267.7</ele>
        <time>2020-10-16T07:58:44Z</time>
      </trkpt>
      <trkpt lat="37.401321000" lon="-4.686269000">
        <ele>267.7</ele>
        <time>2020-10-16T07:58:46Z</time>
      </trkpt>
      <trkpt lat="37.401286000" lon="-4.686400000">
        <ele>267.8</ele>
        <time>2020-10-16T07:58:48Z</time>
      </trkpt>
      <trkpt lat="37.401254000" lon="-4.686537000">
        <ele>267.9</ele>
        <time>2020-10-16T07:58:50Z</time>
      </trkpt>
      <trkpt lat="37.401223000" lon="-4.686666000">
        <ele>268.0</ele>
        <time>2020-10-16T07:58:52Z</time>
      </trkpt>
      <trkpt lat="37.401193000" lon="-4.686805000">
        <ele>268.1</ele>
        <time>2020-10-16T07:58:54Z</time>
      </trkpt>
      <trkpt lat="37.401165000" lon="-4.686945000">
        <ele>268.2</ele>
        <time>2020-10-16T07:58:56Z</time>
      </trkpt>
      <trkpt lat="37.401132000" lon="-4.687083000">
        <ele>268.3</ele>
        <time>2020-10-16T07:58:58Z</time>
      </trkpt>
      <trkpt lat="37.401099000" lon="-4.687215000">
        <ele>268.5</ele>
        <time>2020-10-16T07:59:00Z</time>
      </trkpt>
      <trkpt lat="37.401067000" lon="-4.687351000">
        <ele>268.5</ele>
        <time>2020-10-16T07:59:02Z</time>
      </trkpt>
      <trkpt lat="37.401036000" lon="-4.687489000">
        <ele>268.6</ele>
        <time>2020-10-16T07:59:04Z</time>
      </trkpt>
      <trkpt lat="37.401006000" lon="-4.687625000">
        <ele>268.5</ele>
        <time>2020-10-16T07:59:06Z</time>
      </trkpt>
      <trkpt lat="37.400973000" lon="-4.687758000">
        <ele>268.5</ele>
        <time>2020-10-16T07:59:08Z</time>
      </trkpt>
      <trkpt lat="37.400939000" lon="-4.687887000">
        <ele>268.4</ele>
        <time>2020-10-16T07:59:10Z</time>
      </trkpt>
      <trkpt lat="37.400909000" lon="-4.688008000">
        <ele>268.3</ele>
        <time>2020-10-16T07:59:12Z</time>
      </trkpt>
      <trkpt lat="37.400878000" lon="-4.688133000">
        <ele>268.3</ele>
        <time>2020-10-16T07:59:14Z</time>
      </trkpt>
      <trkpt lat="37.400850000" lon="-4.688257000">
        <ele>268.3</ele>
        <time>2020-10-16T07:59:16Z</time>
      </trkpt>
      <trkpt lat="37.400821000" lon="-4.688391000">
        <ele>268.3</ele>
        <time>2020-10-16T07:59:18Z</time>
      </trkpt>
      <trkpt lat="37.400785000" lon="-4.688523000">
        <ele>268.4</ele>
        <time>2020-10-16T07:59:20Z</time>
      </trkpt>
      <trkpt lat="37.400757000" lon="-4.688656000">
        <ele>268.4</ele>
        <time>2020-10-16T07:59:22Z</time>
      </trkpt>
      <trkpt lat="37.400730000" lon="-4.688787000">
        <ele>268.5</ele>
        <time>2020-10-16T07:59:24Z</time>
      </trkpt>
      <trkpt lat="37.400701000" lon="-4.688923000">
        <ele>268.5</ele>
        <time>2020-10-16T07:59:26Z</time>
      </trkpt>
      <trkpt lat="37.400673000" lon="-4.689054000">
        <ele>268.6</ele>
        <time>2020-10-16T07:59:28Z</time>
      </trkpt>
      <trkpt lat="37.400648000" lon="-4.689191000">
        <ele>268.8</ele>
        <time>2020-10-16T07:59:30Z</time>
      </trkpt>
      <trkpt lat="37.400628000" lon="-4.689323000">
        <ele>268.9</ele>
        <time>2020-10-16T07:59:32Z</time>
      </trkpt>
      <trkpt lat="37.400610000" lon="-4.689459000">
        <ele>269.0</ele>
        <time>2020-10-16T07:59:34Z</time>
      </trkpt>
      <trkpt lat="37.400598000" lon="-4.689584000">
        <ele>269.0</ele>
        <time>2020-10-16T07:59:36Z</time>
      </trkpt>
      <trkpt lat="37.400587000" lon="-4.689719000">
        <ele>269.0</ele>
        <time>2020-10-16T07:59:38Z</time>
      </trkpt>
      <trkpt lat="37.400582000" lon="-4.689856000">
        <ele>268.9</ele>
        <time>2020-10-16T07:59:40Z</time>
      </trkpt>
      <trkpt lat="37.400573000" lon="-4.689991000">
        <ele>268.7</ele>
        <time>2020-10-16T07:59:42Z</time>
      </trkpt>
      <trkpt lat="37.400572000" lon="-4.690123000">
        <ele>268.6</ele>
        <time>2020-10-16T07:59:44Z</time>
      </trkpt>
      <trkpt lat="37.400573000" lon="-4.690255000">
        <ele>268.5</ele>
        <time>2020-10-16T07:59:46Z</time>
      </trkpt>
      <trkpt lat="37.400573000" lon="-4.690385000">
        <ele>268.5</ele>
        <time>2020-10-16T07:59:48Z</time>
      </trkpt>
      <trkpt lat="37.400577000" lon="-4.690515000">
        <ele>268.5</ele>
        <time>2020-10-16T07:59:50Z</time>
      </trkpt>
      <trkpt lat="37.400576000" lon="-4.690644000">
        <ele>268.4</ele>
        <time>2020-10-16T07:59:52Z</time>
      </trkpt>
      <trkpt lat="37.400584000" lon="-4.690774000">
        <ele>268.3</ele>
        <time>2020-10-16T07:59:54Z</time>
      </trkpt>
      <trkpt lat="37.400599000" lon="-4.690911000">
        <ele>268.2</ele>
        <time>2020-10-16T07:59:56Z</time>
      </trkpt>
      <trkpt lat="37.400612000" lon="-4.691041000">
        <ele>268.1</ele>
        <time>2020-10-16T07:59:58Z</time>
      </trkpt>
      <trkpt lat="37.400632000" lon="-4.691173000">
        <ele>268.0</ele>
        <time>2020-10-16T08:00:00Z</time>
      </trkpt>
      <trkpt lat="37.400651000" lon="-4.691303000">
        <ele>268.0</ele>
        <time>2020-10-16T08:00:02Z</time>
      </trkpt>
      <trkpt lat="37.400675000" lon="-4.691438000">
        <ele>268.0</ele>
        <time>2020-10-16T08:00:04Z</time>
      </trkpt>
      <trkpt lat="37.400690000" lon="-4.691570000">
        <ele>268.0</ele>
        <time>2020-10-16T08:00:06Z</time>
      </trkpt>
      <trkpt lat="37.400710000" lon="-4.691695000">
        <ele>268.0</ele>
        <time>2020-10-16T08:00:08Z</time>
      </trkpt>
      <trkpt lat="37.400731000" lon="-4.691826000">
        <ele>268.0</ele>
        <time>2020-10-16T08:00:10Z</time>
      </trkpt>
      <trkpt lat="37.400753000" lon="-4.691959000">
        <ele>268.0</ele>
        <time>2020-10-16T08:00:12Z</time>
      </trkpt>
      <trkpt lat="37.400775000" lon="-4.692093000">
        <ele>268.0</ele>
        <time>2020-10-16T08:00:14Z</time>
      </trkpt>
      <trkpt lat="37.400796000" lon="-4.692228000">
        <ele>268.0</ele>
        <time>2020-10-16T08:00:16Z</time>
      </trkpt>
      <trkpt lat="37.400818000" lon="-4.692361000">
        <ele>267.9</ele>
        <time>2020-10-16T08:00:18Z</time>
      </trkpt>
      <trkpt lat="37.400842000" lon="-4.692497000">
        <ele>267.8</ele>
        <time>2020-10-16T08:00:20Z</time>
      </trkpt>
      <trkpt lat="37.400858000" lon="-4.692630000">
        <ele>267.8</ele>
        <time>2020-10-16T08:00:22Z</time>
      </trkpt>
      <trkpt lat="37.400882000" lon="-4.692761000">
        <ele>267.7</ele>
        <time>2020-10-16T08:00:24Z</time>
      </trkpt>
      <trkpt lat="37.400905000" lon="-4.692896000">
        <ele>267.6</ele>
        <time>2020-10-16T08:00:26Z</time>
      </trkpt>
      <trkpt lat="37.400924000" lon="-4.693032000">
        <ele>267.5</ele>
        <time>2020-10-16T08:00:28Z</time>
      </trkpt>
      <trkpt lat="37.400949000" lon="-4.693166000">
        <ele>267.5</ele>
        <time>2020-10-16T08:00:30Z</time>
      </trkpt>
      <trkpt lat="37.400970000" lon="-4.693298000">
        <ele>267.4</ele>
        <time>2020-10-16T08:00:32Z</time>
      </trkpt>
      <trkpt lat="37.400991000" lon="-4.693433000">
        <ele>267.4</ele>
        <time>2020-10-16T08:00:34Z</time>
      </trkpt>
      <trkpt lat="37.401013000" lon="-4.693567000">
        <ele>267.4</ele>
        <time>2020-10-16T08:00:36Z</time>
      </trkpt>
      <trkpt lat="37.401036000" lon="-4.693702000">
        <ele>267.4</ele>
        <time>2020-10-16T08:00:38Z</time>
      </trkpt>
      <trkpt lat="37.401059000" lon="-4.693836000">
        <ele>267.5</ele>
        <time>2020-10-16T08:00:40Z</time>
      </trkpt>
      <trkpt lat="37.401081000" lon="-4.693968000">
        <ele>267.7</ele>
        <time>2020-10-16T08:00:42Z</time>
      </trkpt>
      <trkpt lat="37.401110000" lon="-4.694103000">
        <ele>267.8</ele>
        <time>2020-10-16T08:00:44Z</time>
      </trkpt>
      <trkpt lat="37.401131000" lon="-4.694239000">
        <ele>268.0</ele>
        <time>2020-10-16T08:00:46Z</time>
      </trkpt>
      <trkpt lat="37.401153000" lon="-4.694379000">
        <ele>268.2</ele>
        <time>2020-10-16T08:00:48Z</time>
      </trkpt>
      <trkpt lat="37.401179000" lon="-4.694513000">
        <ele>268.4</ele>
        <time>2020-10-16T08:00:50Z</time>
      </trkpt>
      <trkpt lat="37.401201000" lon="-4.694643000">
        <ele>268.5</ele>
        <time>2020-10-16T08:00:52Z</time>
      </trkpt>
      <trkpt lat="37.401226000" lon="-4.694773000">
        <ele>268.7</ele>
        <time>2020-10-16T08:00:54Z</time>
      </trkpt>
      <trkpt lat="37.401244000" lon="-4.694903000">
        <ele>268.8</ele>
        <time>2020-10-16T08:00:56Z</time>
      </trkpt>
      <trkpt lat="37.401268000" lon="-4.695042000">
        <ele>269.0</ele>
        <time>2020-10-16T08:00:58Z</time>
      </trkpt>
      <trkpt lat="37.401293000" lon="-4.695175000">
        <ele>269.2</ele>
        <time>2020-10-16T08:01:00Z</time>
      </trkpt>
      <trkpt lat="37.401315000" lon="-4.695303000">
        <ele>269.3</ele>
        <time>2020-10-16T08:01:02Z</time>
      </trkpt>
      <trkpt lat="37.401337000" lon="-4.695436000">
        <ele>269.4</ele>
        <time>2020-10-16T08:01:04Z</time>
      </trkpt>
      <trkpt lat="37.401356000" lon="-4.695570000">
        <ele>269.5</ele>
        <time>2020-10-16T08:01:06Z</time>
      </trkpt>
      <trkpt lat="37.401380000" lon="-4.695703000">
        <ele>269.5</ele>
        <time>2020-10-16T08:01:08Z</time>
      </trkpt>
      <trkpt lat="37.401406000" lon="-4.695839000">
        <ele>269.6</ele>
        <time>2020-10-16T08:01:10Z</time>
      </trkpt>
      <trkpt lat="37.401426000" lon="-4.695973000">
        <ele>269.7</ele>
        <time>2020-10-16T08:01:12Z</time>
      </trkpt>
      <trkpt lat="37.401447000" lon="-4.696103000">
        <ele>269.8</ele>
        <time>2020-10-16T08:01:14Z</time>
      </trkpt>
      <trkpt lat="37.401467000" lon="-4.696234000">
        <ele>269.9</ele>
        <time>2020-10-16T08:01:16Z</time>
      </trkpt>
      <trkpt lat="37.401488000" lon="-4.696368000">
        <ele>270.0</ele>
        <time>2020-10-16T08:01:18Z</time>
      </trkpt>
      <trkpt lat="37.401507000" lon="-4.696505000">
        <ele>270.0</ele>
        <time>2020-10-16T08:01:20Z</time>
      </trkpt>
      <trkpt lat="37.401518000" lon="-4.696634000">
        <ele>270.0</ele>
        <time>2020-10-16T08:01:22Z</time>
      </trkpt>
      <trkpt lat="37.401524000" lon="-4.696764000">
        <ele>270.1</ele>
        <time>2020-10-16T08:01:24Z</time>
      </trkpt>
      <trkpt lat="37.401543000" lon="-4.696879000">
        <ele>270.2</ele>
        <time>2020-10-16T08:01:26Z</time>
      </trkpt>
      <trkpt lat="37.401552000" lon="-4.696987000">
        <ele>270.3</ele>
        <time>2020-10-16T08:01:28Z</time>
      </trkpt>
      <trkpt lat="37.401567000" lon="-4.697118000">
        <ele>270.4</ele>
        <time>2020-10-16T08:01:30Z</time>
      </trkpt>
      <trkpt lat="37.401581000" lon="-4.697254000">
        <ele>270.5</ele>
        <time>2020-10-16T08:01:32Z</time>
      </trkpt>
      <trkpt lat="37.401591000" lon="-4.697388000">
        <ele>270.7</ele>
        <time>2020-10-16T08:01:34Z</time>
      </trkpt>
      <trkpt lat="37.401592000" lon="-4.697514000">
        <ele>270.9</ele>
        <time>2020-10-16T08:01:36Z</time>
      </trkpt>
      <trkpt lat="37.401598000" lon="-4.697636000">
        <ele>271.1</ele>
        <time>2020-10-16T08:01:38Z</time>
      </trkpt>
      <trkpt lat="37.401602000" lon="-4.697753000">
        <ele>271.3</ele>
        <time>2020-10-16T08:01:40Z</time>
      </trkpt>
      <trkpt lat="37.401606000" lon="-4.697879000">
        <ele>271.5</ele>
        <time>2020-10-16T08:01:42Z</time>
      </trkpt>
      <trkpt lat="37.401607000" lon="-4.698014000">
        <ele>271.8</ele>
        <time>2020-10-16T08:01:44Z</time>
      </trkpt>
      <trkpt lat="37.401610000" lon="-4.698166000">
        <ele>272.0</ele>
        <time>2020-10-16T08:01:46Z</time>
      </trkpt>
      <trkpt lat="37.401613000" lon="-4.698307000">
        <ele>272.3</ele>
        <time>2020-10-16T08:01:48Z</time>
      </trkpt>
      <trkpt lat="37.401612000" lon="-4.698441000">
        <ele>272.5</ele>
        <time>2020-10-16T08:01:50Z</time>
      </trkpt>
      <trkpt lat="37.401613000" lon="-4.698565000">
        <ele>272.7</ele>
        <time>2020-10-16T08:01:52Z</time>
      </trkpt>
      <trkpt lat="37.401608000" lon="-4.698687000">
        <ele>272.8</ele>
        <time>2020-10-16T08:01:54Z</time>
      </trkpt>
      <trkpt lat="37.401601000" lon="-4.698812000">
        <ele>272.9</ele>
        <time>2020-10-16T08:01:56Z</time>
      </trkpt>
      <trkpt lat="37.401595000" lon="-4.698954000">
        <ele>272.9</ele>
        <time>2020-10-16T08:01:58Z</time>
      </trkpt>
      <trkpt lat="37.401595000" lon="-4.699099000">
        <ele>272.9</ele>
        <time>2020-10-16T08:02:00Z</time>
      </trkpt>
      <trkpt lat="37.401593000" lon="-4.699235000">
        <ele>272.9</ele>
        <time>2020-10-16T08:02:02Z</time>
      </trkpt>
      <trkpt lat="37.401585000" lon="-4.699368000">
        <ele>272.8</ele>
        <time>2020-10-16T08:02:04Z</time>
      </trkpt>
      <trkpt lat="37.401579000" lon="-4.699495000">
        <ele>272.7</ele>
        <time>2020-10-16T08:02:06Z</time>
      </trkpt>
      <trkpt lat="37.401576000" lon="-4.699611000">
        <ele>272.6</ele>
        <time>2020-10-16T08:02:08Z</time>
      </trkpt>
      <trkpt lat="37.401573000" lon="-4.699726000">
        <ele>272.5</ele>
        <time>2020-10-16T08:02:10Z</time>
      </trkpt>
      <trkpt lat="37.401564000" lon="-4.699843000">
        <ele>272.3</ele>
        <time>2020-10-16T08:02:12Z</time>
      </trkpt>
      <trkpt lat="37.401557000" lon="-4.699979000">
        <ele>272.2</ele>
        <time>2020-10-16T08:02:14Z</time>
      </trkpt>
      <trkpt lat="37.401553000" lon="-4.700137000">
        <ele>272.1</ele>
        <time>2020-10-16T08:02:16Z</time>
      </trkpt>
      <trkpt lat="37.401550000" lon="-4.700281000">
        <ele>271.9</ele>
        <time>2020-10-16T08:02:18Z</time>
      </trkpt>
      <trkpt lat="37.401548000" lon="-4.700410000">
        <ele>271.8</ele>
        <time>2020-10-16T08:02:20Z</time>
      </trkpt>
      <trkpt lat="37.401548000" lon="-4.700529000">
        <ele>271.7</ele>
        <time>2020-10-16T08:02:22Z</time>
      </trkpt>
      <trkpt lat="37.401542000" lon="-4.700655000">
        <ele>271.6</ele>
        <time>2020-10-16T08:02:24Z</time>
      </trkpt>
      <trkpt lat="37.401539000" lon="-4.700779000">
        <ele>271.5</ele>
        <time>2020-10-16T08:02:26Z</time>
      </trkpt>
      <trkpt lat="37.401533000" lon="-4.700911000">
        <ele>271.5</ele>
        <time>2020-10-16T08:02:28Z</time>
      </trkpt>
      <trkpt lat="37.401530000" lon="-4.701048000">
        <ele>271.4</ele>
        <time>2020-10-16T08:02:30Z</time>
      </trkpt>
      <trkpt lat="37.401529000" lon="-4.701180000">
        <ele>271.3</ele>
        <time>2020-10-16T08:02:32Z</time>
      </trkpt>
      <trkpt lat="37.401527000" lon="-4.701303000">
        <ele>271.2</ele>
        <time>2020-10-16T08:02:34Z</time>
      </trkpt>
      <trkpt lat="37.401522000" lon="-4.701430000">
        <ele>271.1</ele>
        <time>2020-10-16T08:02:36Z</time>
      </trkpt>
      <trkpt lat="37.401514000" lon="-4.701563000">
        <ele>271.0</ele>
        <time>2020-10-16T08:02:38Z</time>
      </trkpt>
      <trkpt lat="37.401509000" lon="-4.701695000">
        <ele>271.0</ele>
        <time>2020-10-16T08:02:40Z</time>
      </trkpt>
      <trkpt lat="37.401506000" lon="-4.701834000">
        <ele>271.0</ele>
        <time>2020-10-16T08:02:42Z</time>
      </trkpt>
      <trkpt lat="37.401503000" lon="-4.701965000">
        <ele>270.9</ele>
        <time>2020-10-16T08:02:44Z</time>
      </trkpt>
      <trkpt lat="37.401501000" lon="-4.702102000">
        <ele>270.8</ele>
        <time>2020-10-16T08:02:46Z</time>
      </trkpt>
      <trkpt lat="37.401494000" lon="-4.702252000">
        <ele>270.7</ele>
        <time>2020-10-16T08:02:48Z</time>
      </trkpt>
      <trkpt lat="37.401485000" lon="-4.702409000">
        <ele>270.6</ele>
        <time>2020-10-16T08:02:50Z</time>
      </trkpt>
      <trkpt lat="37.401482000" lon="-4.702559000">
        <ele>270.5</ele>
        <time>2020-10-16T08:02:52Z</time>
      </trkpt>
      <trkpt lat="37.401473000" lon="-4.702707000">
        <ele>270.5</ele>
        <time>2020-10-16T08:02:54Z</time>
      </trkpt>
      <trkpt lat="37.401463000" lon="-4.702859000">
        <ele>270.4</ele>
        <time>2020-10-16T08:02:56Z</time>
      </trkpt>
      <trkpt lat="37.401461000" lon="-4.703011000">
        <ele>270.3</ele>
        <time>2020-10-16T08:02:58Z</time>
      </trkpt>
      <trkpt lat="37.401455000" lon="-4.703162000">
        <ele>270.2</ele>
        <time>2020-10-16T08:03:00Z</time>
      </trkpt>
      <trkpt lat="37.401451000" lon="-4.703311000">
        <ele>270.1</ele>
        <time>2020-10-16T08:03:02Z</time>
      </trkpt>
      <trkpt lat="37.401444000" lon="-4.703460000">
        <ele>270.0</ele>
        <time>2020-10-16T08:03:04Z</time>
      </trkpt>
      <trkpt lat="37.401436000" lon="-4.703619000">
        <ele>270.0</ele>
        <time>2020-10-16T08:03:06Z</time>
      </trkpt>
      <trkpt lat="37.401435000" lon="-4.703771000">
        <ele>270.0</ele>
        <time>2020-10-16T08:03:08Z</time>
      </trkpt>
      <trkpt lat="37.401435000" lon="-4.703917000">
        <ele>270.0</ele>
        <time>2020-10-16T08:03:10Z</time>
      </trkpt>
      <trkpt lat="37.401427000" lon="-4.704071000">
        <ele>270.0</ele>
        <time>2020-10-16T08:03:12Z</time>
      </trkpt>
      <trkpt lat="37.401423000" lon="-4.704225000">
        <ele>270.1</ele>
        <time>2020-10-16T08:03:14Z</time>
      </trkpt>
      <trkpt lat="37.401416000" lon="-4.704378000">
        <ele>270.2</ele>
        <time>2020-10-16T08:03:16Z</time>
      </trkpt>
      <trkpt lat="37.401410000" lon="-4.704529000">
        <ele>270.3</ele>
        <time>2020-10-16T08:03:18Z</time>
      </trkpt>
      <trkpt lat="37.401403000" lon="-4.704678000">
        <ele>270.4</ele>
        <time>2020-10-16T08:03:20Z</time>
      </trkpt>
      <trkpt lat="37.401398000" lon="-4.704823000">
        <ele>270.5</ele>
        <time>2020-10-16T08:03:22Z</time>
      </trkpt>
      <trkpt lat="37.401387000" lon="-4.704971000">
        <ele>270.6</ele>
        <time>2020-10-16T08:03:24Z</time>
      </trkpt>
      <trkpt lat="37.401382000" lon="-4.705125000">
        <ele>270.8</ele>
        <time>2020-10-16T08:03:26Z</time>
      </trkpt>
      <trkpt lat="37.401377000" lon="-4.705270000">
        <ele>271.0</ele>
        <time>2020-10-16T08:03:28Z</time>
      </trkpt>
      <trkpt lat="37.401376000" lon="-4.705418000">
        <ele>271.2</ele>
        <time>2020-10-16T08:03:30Z</time>
      </trkpt>
      <trkpt lat="37.401371000" lon="-4.705568000">
        <ele>271.4</ele>
        <time>2020-10-16T08:03:32Z</time>
      </trkpt>
      <trkpt lat="37.401361000" lon="-4.705721000">
        <ele>271.5</ele>
        <time>2020-10-16T08:03:34Z</time>
      </trkpt>
      <trkpt lat="37.401358000" lon="-4.705872000">
        <ele>271.5</ele>
        <time>2020-10-16T08:03:36Z</time>
      </trkpt>
      <trkpt lat="37.401355000" lon="-4.706019000">
        <ele>271.5</ele>
        <time>2020-10-16T08:03:38Z</time>
      </trkpt>
      <trkpt lat="37.401339000" lon="-4.706170000">
        <ele>271.5</ele>
        <time>2020-10-16T08:03:40Z</time>
      </trkpt>
      <trkpt lat="37.401313000" lon="-4.706322000">
        <ele>271.5</ele>
        <time>2020-10-16T08:03:42Z</time>
      </trkpt>
      <trkpt lat="37.401282000" lon="-4.706453000">
        <ele>271.4</ele>
        <time>2020-10-16T08:03:44Z</time>
      </trkpt>
      <trkpt lat="37.401239000" lon="-4.706564000">
        <ele>271.2</ele>
        <time>2020-10-16T08:03:46Z</time>
      </trkpt>
      <trkpt lat="37.401205000" lon="-4.706657000">
        <ele>271.0</ele>
        <time>2020-10-16T08:03:48Z</time>
      </trkpt>
      <trkpt lat="37.401193000" lon="-4.706766000">
        <ele>270.8</ele>
        <time>2020-10-16T08:03:50Z</time>
      </trkpt>
      <trkpt lat="37.401193000" lon="-4.706891000">
        <ele>270.6</ele>
        <time>2020-10-16T08:03:52Z</time>
      </trkpt>
      <trkpt lat="37.401196000" lon="-4.707026000">
        <ele>270.5</ele>
        <time>2020-10-16T08:03:54Z</time>
      </trkpt>
      <trkpt lat="37.401200000" lon="-4.707167000">
        <ele>270.3</ele>
        <time>2020-10-16T08:03:56Z</time>
      </trkpt>
      <trkpt lat="37.401198000" lon="-4.707312000">
        <ele>270.1</ele>
        <time>2020-10-16T08:03:58Z</time>
      </trkpt>
      <trkpt lat="37.401206000" lon="-4.707459000">
        <ele>269.9</ele>
        <time>2020-10-16T08:04:00Z</time>
      </trkpt>
      <trkpt lat="37.401216000" lon="-4.707603000">
        <ele>269.7</ele>
        <time>2020-10-16T08:04:02Z</time>
      </trkpt>
      <trkpt lat="37.401224000" lon="-4.707749000">
        <ele>269.6</ele>
        <time>2020-10-16T08:04:04Z</time>
      </trkpt>
      <trkpt lat="37.401229000" lon="-4.707897000">
        <ele>269.5</ele>
        <time>2020-10-16T08:04:06Z</time>
      </trkpt>
      <trkpt lat="37.401240000" lon="-4.708043000">
        <ele>269.5</ele>
        <time>2020-10-16T08:04:08Z</time>
      </trkpt>
      <trkpt lat="37.401250000" lon="-4.708191000">
        <ele>269.4</ele>
        <time>2020-10-16T08:04:10Z</time>
      </trkpt>
      <trkpt lat="37.401252000" lon="-4.708340000">
        <ele>269.2</ele>
        <time>2020-10-16T08:04:12Z</time>
      </trkpt>
      <trkpt lat="37.401247000" lon="-4.708491000">
        <ele>269.0</ele>
        <time>2020-10-16T08:04:14Z</time>
      </trkpt>
      <trkpt lat="37.401239000" lon="-4.708636000">
        <ele>268.8</ele>
        <time>2020-10-16T08:04:16Z</time>
      </trkpt>
      <trkpt lat="37.401223000" lon="-4.708764000">
        <ele>268.6</ele>
        <time>2020-10-16T08:04:18Z</time>
      </trkpt>
      <trkpt lat="37.401198000" lon="-4.708871000">
        <ele>268.5</ele>
        <time>2020-10-16T08:04:20Z</time>
      </trkpt>
      <trkpt lat="37.401146000" lon="-4.708957000">
        <ele>268.5</ele>
        <time>2020-10-16T08:04:27Z</time>
      </trkpt>
      <trkpt lat="37.401141000" lon="-4.709070000">
        <ele>268.3</ele>
        <time>2020-10-16T08:04:32Z</time>
      </trkpt>
      <trkpt lat="37.401137000" lon="-4.709205000">
        <ele>268.1</ele>
        <time>2020-10-16T08:04:35Z</time>
      </trkpt>
      <trkpt lat="37.401142000" lon="-4.709310000">
        <ele>267.9</ele>
        <time>2020-10-16T08:04:37Z</time>
      </trkpt>
      <trkpt lat="37.401144000" lon="-4.709417000">
        <ele>267.7</ele>
        <time>2020-10-16T08:04:39Z</time>
      </trkpt>
      <trkpt lat="37.401144000" lon="-4.709526000">
        <ele>267.5</ele>
        <time>2020-10-16T08:04:41Z</time>
      </trkpt>
      <trkpt lat="37.401144000" lon="-4.709637000">
        <ele>267.5</ele>
        <time>2020-10-16T08:04:43Z</time>
      </trkpt>
      <trkpt lat="37.401148000" lon="-4.709765000">
        <ele>267.4</ele>
        <time>2020-10-16T08:04:45Z</time>
      </trkpt>
      <trkpt lat="37.401142000" lon="-4.709896000">
        <ele>267.2</ele>
        <time>2020-10-16T08:04:47Z</time>
      </trkpt>
      <trkpt lat="37.401140000" lon="-4.710025000">
        <ele>267.0</ele>
        <time>2020-10-16T08:04:49Z</time>
      </trkpt>
      <trkpt lat="37.401141000" lon="-4.710156000">
        <ele>266.7</ele>
        <time>2020-10-16T08:04:51Z</time>
      </trkpt>
      <trkpt lat="37.401136000" lon="-4.710285000">
        <ele>266.5</ele>
        <time>2020-10-16T08:04:53Z</time>
      </trkpt>
      <trkpt lat="37.401129000" lon="-4.710411000">
        <ele>266.3</ele>
        <time>2020-10-16T08:04:55Z</time>
      </trkpt>
      <trkpt lat="37.401133000" lon="-4.710540000">
        <ele>266.1</ele>
        <time>2020-10-16T08:04:57Z</time>
      </trkpt>
      <trkpt lat="37.401130000" lon="-4.710669000">
        <ele>266.0</ele>
        <time>2020-10-16T08:04:59Z</time>
      </trkpt>
      <trkpt lat="37.401127000" lon="-4.710795000">
        <ele>265.9</ele>
        <time>2020-10-16T08:05:01Z</time>
      </trkpt>
      <trkpt lat="37.401123000" lon="-4.710921000">
        <ele>265.8</ele>
        <time>2020-10-16T08:05:03Z</time>
      </trkpt>
      <trkpt lat="37.401123000" lon="-4.711042000">
        <ele>265.7</ele>
        <time>2020-10-16T08:05:05Z</time>
      </trkpt>
      <trkpt lat="37.401125000" lon="-4.711172000">
        <ele>265.6</ele>
        <time>2020-10-16T08:05:07Z</time>
      </trkpt>
      <trkpt lat="37.401125000" lon="-4.711298000">
        <ele>265.6</ele>
        <time>2020-10-16T08:05:09Z</time>
      </trkpt>
      <trkpt lat="37.401126000" lon="-4.711421000">
        <ele>265.5</ele>
        <time>2020-10-16T08:05:11Z</time>
      </trkpt>
      <trkpt lat="37.401131000" lon="-4.711539000">
        <ele>265.5</ele>
        <time>2020-10-16T08:05:13Z</time>
      </trkpt>
      <trkpt lat="37.401138000" lon="-4.711657000">
        <ele>265.5</ele>
        <time>2020-10-16T08:05:15Z</time>
      </trkpt>
      <trkpt lat="37.401144000" lon="-4.711775000">
        <ele>265.5</ele>
        <time>2020-10-16T08:05:17Z</time>
      </trkpt>
      <trkpt lat="37.401158000" lon="-4.711886000">
        <ele>265.5</ele>
        <time>2020-10-16T08:05:19Z</time>
      </trkpt>
      <trkpt lat="37.401163000" lon="-4.712004000">
        <ele>265.3</ele>
        <time>2020-10-16T08:05:21Z</time>
      </trkpt>
      <trkpt lat="37.401161000" lon="-4.712107000">
        <ele>265.2</ele>
        <time>2020-10-16T08:05:23Z</time>
      </trkpt>
      <trkpt lat="37.401164000" lon="-4.712217000">
        <ele>265.1</ele>
        <time>2020-10-16T08:05:25Z</time>
      </trkpt>
      <trkpt lat="37.401171000" lon="-4.712325000">
        <ele>265.0</ele>
        <time>2020-10-16T08:05:27Z</time>
      </trkpt>
      <trkpt lat="37.401172000" lon="-4.712433000">
        <ele>264.8</ele>
        <time>2020-10-16T08:05:29Z</time>
      </trkpt>
      <trkpt lat="37.401176000" lon="-4.712538000">
        <ele>264.6</ele>
        <time>2020-10-16T08:05:31Z</time>
      </trkpt>
      <trkpt lat="37.401188000" lon="-4.712689000">
        <ele>264.5</ele>
        <time>2020-10-16T08:05:34Z</time>
      </trkpt>
      <trkpt lat="37.401200000" lon="-4.712836000">
        <ele>264.5</ele>
        <time>2020-10-16T08:05:37Z</time>
      </trkpt>
      <trkpt lat="37.401211000" lon="-4.712985000">
        <ele>264.4</ele>
        <time>2020-10-16T08:05:40Z</time>
      </trkpt>
      <trkpt lat="37.401216000" lon="-4.713105000">
        <ele>264.3</ele>
        <time>2020-10-16T08:05:42Z</time>
      </trkpt>
      <trkpt lat="37.401224000" lon="-4.713224000">
        <ele>264.2</ele>
        <time>2020-10-16T08:05:44Z</time>
      </trkpt>
      <trkpt lat="37.401230000" lon="-4.713357000">
        <ele>264.1</ele>
        <time>2020-10-16T08:05:46Z</time>
      </trkpt>
      <trkpt lat="37.401235000" lon="-4.713493000">
        <ele>263.9</ele>
        <time>2020-10-16T08:05:48Z</time>
      </trkpt>
      <trkpt lat="37.401243000" lon="-4.713629000">
        <ele>263.7</ele>
        <time>2020-10-16T08:05:50Z</time>
      </trkpt>
      <trkpt lat="37.401254000" lon="-4.713774000">
        <ele>263.5</ele>
        <time>2020-10-16T08:05:52Z</time>
      </trkpt>
      <trkpt lat="37.401266000" lon="-4.713925000">
        <ele>263.3</ele>
        <time>2020-10-16T08:05:54Z</time>
      </trkpt>
      <trkpt lat="37.401270000" lon="-4.714078000">
        <ele>263.1</ele>
        <time>2020-10-16T08:05:56Z</time>
      </trkpt>
      <trkpt lat="37.401273000" lon="-4.714224000">
        <ele>262.9</ele>
        <time>2020-10-16T08:05:58Z</time>
      </trkpt>
      <trkpt lat="37.401279000" lon="-4.714371000">
        <ele>262.7</ele>
        <time>2020-10-16T08:06:00Z</time>
      </trkpt>
      <trkpt lat="37.401291000" lon="-4.714516000">
        <ele>262.5</ele>
        <time>2020-10-16T08:06:02Z</time>
      </trkpt>
      <trkpt lat="37.401303000" lon="-4.714662000">
        <ele>262.4</ele>
        <time>2020-10-16T08:06:04Z</time>
      </trkpt>
      <trkpt lat="37.401313000" lon="-4.714803000">
        <ele>262.3</ele>
        <time>2020-10-16T08:06:06Z</time>
      </trkpt>
      <trkpt lat="37.401322000" lon="-4.714945000">
        <ele>262.1</ele>
        <time>2020-10-16T08:06:08Z</time>
      </trkpt>
      <trkpt lat="37.401331000" lon="-4.715088000">
        <ele>261.9</ele>
        <time>2020-10-16T08:06:10Z</time>
      </trkpt>
      <trkpt lat="37.401338000" lon="-4.715234000">
        <ele>261.7</ele>
        <time>2020-10-16T08:06:12Z</time>
      </trkpt>
      <trkpt lat="37.401352000" lon="-4.715388000">
        <ele>261.6</ele>
        <time>2020-10-16T08:06:14Z</time>
      </trkpt>
      <trkpt lat="37.401358000" lon="-4.715540000">
        <ele>261.5</ele>
        <time>2020-10-16T08:06:16Z</time>
      </trkpt>
      <trkpt lat="37.401366000" lon="-4.715693000">
        <ele>261.3</ele>
        <time>2020-10-16T08:06:18Z</time>
      </trkpt>
      <trkpt lat="37.401375000" lon="-4.715847000">
        <ele>261.1</ele>
        <time>2020-10-16T08:06:20Z</time>
      </trkpt>
      <trkpt lat="37.401387000" lon="-4.716001000">
        <ele>260.9</ele>
        <time>2020-10-16T08:06:22Z</time>
      </trkpt>
      <trkpt lat="37.401394000" lon="-4.716160000">
        <ele>260.7</ele>
        <time>2020-10-16T08:06:24Z</time>
      </trkpt>
      <trkpt lat="37.401402000" lon="-4.716314000">
        <ele>260.5</ele>
        <time>2020-10-16T08:06:26Z</time>
      </trkpt>
      <trkpt lat="37.401408000" lon="-4.716479000">
        <ele>260.4</ele>
        <time>2020-10-16T08:06:28Z</time>
      </trkpt>
      <trkpt lat="37.401420000" lon="-4.716640000">
        <ele>260.3</ele>
        <time>2020-10-16T08:06:30Z</time>
      </trkpt>
      <trkpt lat="37.401424000" lon="-4.716806000">
        <ele>260.2</ele>
        <time>2020-10-16T08:06:32Z</time>
      </trkpt>
      <trkpt lat="37.401433000" lon="-4.716967000">
        <ele>260.1</ele>
        <time>2020-10-16T08:06:34Z</time>
      </trkpt>
      <trkpt lat="37.401439000" lon="-4.717136000">
        <ele>259.9</ele>
        <time>2020-10-16T08:06:36Z</time>
      </trkpt>
      <trkpt lat="37.401446000" lon="-4.717304000">
        <ele>259.7</ele>
        <time>2020-10-16T08:06:38Z</time>
      </trkpt>
      <trkpt lat="37.401455000" lon="-4.717475000">
        <ele>259.5</ele>
        <time>2020-10-16T08:06:40Z</time>
      </trkpt>
      <trkpt lat="37.401466000" lon="-4.717653000">
        <ele>259.2</ele>
        <time>2020-10-16T08:06:42Z</time>
      </trkpt>
      <trkpt lat="37.401473000" lon="-4.717821000">
        <ele>258.8</ele>
        <time>2020-10-16T08:06:44Z</time>
      </trkpt>
      <trkpt lat="37.401484000" lon="-4.718003000">
        <ele>258.5</ele>
        <time>2020-10-16T08:06:46Z</time>
      </trkpt>
      <trkpt lat="37.401487000" lon="-4.718176000">
        <ele>258.1</ele>
        <time>2020-10-16T08:06:48Z</time>
      </trkpt>
      <trkpt lat="37.401494000" lon="-4.718344000">
        <ele>257.7</ele>
        <time>2020-10-16T08:06:50Z</time>
      </trkpt>
      <trkpt lat="37.401504000" lon="-4.718519000">
        <ele>257.4</ele>
        <time>2020-10-16T08:06:52Z</time>
      </trkpt>
      <trkpt lat="37.401517000" lon="-4.718691000">
        <ele>257.0</ele>
        <time>2020-10-16T08:06:54Z</time>
      </trkpt>
      <trkpt lat="37.401528000" lon="-4.718863000">
        <ele>256.7</ele>
        <time>2020-10-16T08:06:56Z</time>
      </trkpt>
      <trkpt lat="37.401535000" lon="-4.719045000">
        <ele>256.5</ele>
        <time>2020-10-16T08:06:58Z</time>
      </trkpt>
      <trkpt lat="37.401543000" lon="-4.719224000">
        <ele>256.3</ele>
        <time>2020-10-16T08:07:00Z</time>
      </trkpt>
      <trkpt lat="37.401557000" lon="-4.719396000">
        <ele>256.2</ele>
        <time>2020-10-16T08:07:02Z</time>
      </trkpt>
      <trkpt lat="37.401567000" lon="-4.719571000">
        <ele>256.0</ele>
        <time>2020-10-16T08:07:04Z</time>
      </trkpt>
      <trkpt lat="37.401575000" lon="-4.719758000">
        <ele>255.9</ele>
        <time>2020-10-16T08:07:06Z</time>
      </trkpt>
      <trkpt lat="37.401582000" lon="-4.719936000">
        <ele>255.8</ele>
        <time>2020-10-16T08:07:08Z</time>
      </trkpt>
      <trkpt lat="37.401589000" lon="-4.720117000">
        <ele>255.8</ele>
        <time>2020-10-16T08:07:10Z</time>
      </trkpt>
      <trkpt lat="37.401598000" lon="-4.720301000">
        <ele>255.8</ele>
        <time>2020-10-16T08:07:12Z</time>
      </trkpt>
      <trkpt lat="37.401607000" lon="-4.720484000">
        <ele>255.7</ele>
        <time>2020-10-16T08:07:14Z</time>
      </trkpt>
      <trkpt lat="37.401621000" lon="-4.720655000">
        <ele>255.6</ele>
        <time>2020-10-16T08:07:16Z</time>
      </trkpt>
      <trkpt lat="37.401626000" lon="-4.720827000">
        <ele>255.4</ele>
        <time>2020-10-16T08:07:18Z</time>
      </trkpt>
      <trkpt lat="37.401641000" lon="-4.720991000">
        <ele>255.2</ele>
        <time>2020-10-16T08:07:20Z</time>
      </trkpt>
      <trkpt lat="37.401647000" lon="-4.721158000">
        <ele>255.0</ele>
        <time>2020-10-16T08:07:22Z</time>
      </trkpt>
      <trkpt lat="37.401656000" lon="-4.721316000">
        <ele>254.8</ele>
        <time>2020-10-16T08:07:24Z</time>
      </trkpt>
      <trkpt lat="37.401662000" lon="-4.721478000">
        <ele>254.7</ele>
        <time>2020-10-16T08:07:26Z</time>
      </trkpt>
      <trkpt lat="37.401664000" lon="-4.721635000">
        <ele>254.6</ele>
        <time>2020-10-16T08:07:28Z</time>
      </trkpt>
      <trkpt lat="37.401671000" lon="-4.721790000">
        <ele>254.5</ele>
        <time>2020-10-16T08:07:30Z</time>
      </trkpt>
      <trkpt lat="37.401680000" lon="-4.721948000">
        <ele>254.4</ele>
        <time>2020-10-16T08:07:32Z</time>
      </trkpt>
      <trkpt lat="37.401689000" lon="-4.722101000">
        <ele>254.2</ele>
        <time>2020-10-16T08:07:34Z</time>
      </trkpt>
      <trkpt lat="37.401696000" lon="-4.722252000">
        <ele>254.1</ele>
        <time>2020-10-16T08:07:36Z</time>
      </trkpt>
      <trkpt lat="37.401701000" lon="-4.722399000">
        <ele>254.0</ele>
        <time>2020-10-16T08:07:38Z</time>
      </trkpt>
      <trkpt lat="37.401715000" lon="-4.722536000">
        <ele>254.0</ele>
        <time>2020-10-16T08:07:40Z</time>
      </trkpt>
      <trkpt lat="37.401749000" lon="-4.722668000">
        <ele>253.9</ele>
        <time>2020-10-16T08:07:42Z</time>
      </trkpt>
      <trkpt lat="37.401807000" lon="-4.722788000">
        <ele>253.8</ele>
        <time>2020-10-16T08:07:44Z</time>
      </trkpt>
      <trkpt lat="37.401874000" lon="-4.722895000">
        <ele>253.7</ele>
        <time>2020-10-16T08:07:46Z</time>
      </trkpt>
      <trkpt lat="37.401944000" lon="-4.722980000">
        <ele>253.6</ele>
        <time>2020-10-16T08:07:48Z</time>
      </trkpt>
      <trkpt lat="37.402018000" lon="-4.723057000">
        <ele>253.5</ele>
        <time>2020-10-16T08:07:50Z</time>
      </trkpt>
      <trkpt lat="37.402093000" lon="-4.723130000">
        <ele>253.4</ele>
        <time>2020-10-16T08:07:52Z</time>
      </trkpt>
      <trkpt lat="37.402159000" lon="-4.723204000">
        <ele>253.3</ele>
        <time>2020-10-16T08:07:54Z</time>
      </trkpt>
      <trkpt lat="37.402232000" lon="-4.723276000">
        <ele>253.2</ele>
        <time>2020-10-16T08:07:56Z</time>
      </trkpt>
      <trkpt lat="37.402304000" lon="-4.723348000">
        <ele>253.1</ele>
        <time>2020-10-16T08:07:58Z</time>
      </trkpt>
      <trkpt lat="37.402384000" lon="-4.723421000">
        <ele>253.0</ele>
        <time>2020-10-16T08:08:00Z</time>
      </trkpt>
      <trkpt lat="37.402452000" lon="-4.723494000">
        <ele>252.9</ele>
        <time>2020-10-16T08:08:02Z</time>
      </trkpt>
      <trkpt lat="37.402524000" lon="-4.723558000">
        <ele>252.8</ele>
        <time>2020-10-16T08:08:04Z</time>
      </trkpt>
      <trkpt lat="37.402596000" lon="-4.723623000">
        <ele>252.7</ele>
        <time>2020-10-16T08:08:06Z</time>
      </trkpt>
      <trkpt lat="37.402664000" lon="-4.723690000">
        <ele>252.6</ele>
        <time>2020-10-16T08:08:09Z</time>
      </trkpt>
      <trkpt lat="37.402698000" lon="-4.723809000">
        <ele>252.5</ele>
        <time>2020-10-16T08:08:33Z</time>
      </trkpt>
      <trkpt lat="37.402687000" lon="-4.723931000">
        <ele>252.5</ele>
        <time>2020-10-16T08:08:36Z</time>
      </trkpt>
      <trkpt lat="37.402667000" lon="-4.724034000">
        <ele>252.5</ele>
        <time>2020-10-16T08:08:38Z</time>
      </trkpt>
      <trkpt lat="37.402660000" lon="-4.724169000">
        <ele>252.4</ele>
        <time>2020-10-16T08:08:40Z</time>
      </trkpt>
      <trkpt lat="37.402633000" lon="-4.724293000">
        <ele>252.4</ele>
        <time>2020-10-16T08:08:42Z</time>
      </trkpt>
      <trkpt lat="37.402604000" lon="-4.724419000">
        <ele>252.3</ele>
        <time>2020-10-16T08:08:44Z</time>
      </trkpt>
      <trkpt lat="37.402577000" lon="-4.724561000">
        <ele>252.2</ele>
        <time>2020-10-16T08:08:46Z</time>
      </trkpt>
      <trkpt lat="37.402547000" lon="-4.724714000">
        <ele>252.0</ele>
        <time>2020-10-16T08:08:48Z</time>
      </trkpt>
      <trkpt lat="37.402523000" lon="-4.724855000">
        <ele>251.9</ele>
        <time>2020-10-16T08:08:50Z</time>
      </trkpt>
      <trkpt lat="37.402485000" lon="-4.725008000">
        <ele>251.7</ele>
        <time>2020-10-16T08:08:52Z</time>
      </trkpt>
      <trkpt lat="37.402451000" lon="-4.725164000">
        <ele>251.5</ele>
        <time>2020-10-16T08:08:54Z</time>
      </trkpt>
      <trkpt lat="37.402421000" lon="-4.725329000">
        <ele>251.4</ele>
        <time>2020-10-16T08:08:56Z</time>
      </trkpt>
      <trkpt lat="37.402386000" lon="-4.725491000">
        <ele>251.1</ele>
        <time>2020-10-16T08:08:58Z</time>
      </trkpt>
      <trkpt lat="37.402353000" lon="-4.725658000">
        <ele>250.8</ele>
        <time>2020-10-16T08:09:00Z</time>
      </trkpt>
      <trkpt lat="37.402312000" lon="-4.725831000">
        <ele>250.5</ele>
        <time>2020-10-16T08:09:02Z</time>
      </trkpt>
      <trkpt lat="37.402278000" lon="-4.725992000">
        <ele>250.2</ele>
        <time>2020-10-16T08:09:04Z</time>
      </trkpt>
      <trkpt lat="37.402246000" lon="-4.726168000">
        <ele>249.8</ele>
        <time>2020-10-16T08:09:06Z</time>
      </trkpt>
      <trkpt lat="37.402206000" lon="-4.726337000">
        <ele>249.5</ele>
        <time>2020-10-16T08:09:08Z</time>
      </trkpt>
      <trkpt lat="37.402168000" lon="-4.726510000">
        <ele>249.2</ele>
        <time>2020-10-16T08:09:10Z</time>
      </trkpt>
      <trkpt lat="37.402137000" lon="-4.726682000">
        <ele>248.8</ele>
        <time>2020-10-16T08:09:12Z</time>
      </trkpt>
      <trkpt lat="37.402110000" lon="-4.726856000">
        <ele>248.5</ele>
        <time>2020-10-16T08:09:14Z</time>
      </trkpt>
      <trkpt lat="37.402066000" lon="-4.727023000">
        <ele>248.1</ele>
        <time>2020-10-16T08:09:16Z</time>
      </trkpt>
      <trkpt lat="37.402032000" lon="-4.727192000">
        <ele>247.8</ele>
        <time>2020-10-16T08:09:18Z</time>
      </trkpt>
      <trkpt lat="37.401999000" lon="-4.727353000">
        <ele>247.7</ele>
        <time>2020-10-16T08:09:20Z</time>
      </trkpt>
      <trkpt lat="37.401965000" lon="-4.727521000">
        <ele>247.7</ele>
        <time>2020-10-16T08:09:22Z</time>
      </trkpt>
      <trkpt lat="37.401933000" lon="-4.727684000">
        <ele>247.6</ele>
        <time>2020-10-16T08:09:24Z</time>
      </trkpt>
      <trkpt lat="37.401905000" lon="-4.727845000">
        <ele>247.5</ele>
        <time>2020-10-16T08:09:26Z</time>
      </trkpt>
      <trkpt lat="37.401873000" lon="-4.728004000">
        <ele>247.5</ele>
        <time>2020-10-16T08:09:28Z</time>
      </trkpt>
      <trkpt lat="37.401841000" lon="-4.728172000">
        <ele>247.5</ele>
        <time>2020-10-16T08:09:30Z</time>
      </trkpt>
      <trkpt lat="37.401804000" lon="-4.728334000">
        <ele>247.5</ele>
        <time>2020-10-16T08:09:32Z</time>
      </trkpt>
      <trkpt lat="37.401775000" lon="-4.728494000">
        <ele>247.5</ele>
        <time>2020-10-16T08:09:34Z</time>
      </trkpt>
      <trkpt lat="37.401740000" lon="-4.728649000">
        <ele>247.8</ele>
        <time>2020-10-16T08:09:36Z</time>
      </trkpt>
      <trkpt lat="37.401706000" lon="-4.728806000">
        <ele>248.1</ele>
        <time>2020-10-16T08:09:38Z</time>
      </trkpt>
      <trkpt lat="37.401676000" lon="-4.728962000">
        <ele>248.3</ele>
        <time>2020-10-16T08:09:40Z</time>
      </trkpt>
      <trkpt lat="37.401649000" lon="-4.729118000">
        <ele>248.5</ele>
        <time>2020-10-16T08:09:42Z</time>
      </trkpt>
      <trkpt lat="37.401616000" lon="-4.729279000">
        <ele>248.5</ele>
        <time>2020-10-16T08:09:44Z</time>
      </trkpt>
      <trkpt lat="37.401580000" lon="-4.729441000">
        <ele>248.6</ele>
        <time>2020-10-16T08:09:46Z</time>
      </trkpt>
      <trkpt lat="37.401550000" lon="-4.729596000">
        <ele>248.7</ele>
        <time>2020-10-16T08:09:48Z</time>
      </trkpt>
      <trkpt lat="37.401524000" lon="-4.729751000">
        <ele>248.7</ele>
        <time>2020-10-16T08:09:50Z</time>
      </trkpt>
      <trkpt lat="37.401502000" lon="-4.729909000">
        <ele>248.9</ele>
        <time>2020-10-16T08:09:52Z</time>
      </trkpt>
      <trkpt lat="37.401488000" lon="-4.730082000">
        <ele>249.0</ele>
        <time>2020-10-16T08:09:54Z</time>
      </trkpt>
      <trkpt lat="37.401485000" lon="-4.730255000">
        <ele>249.1</ele>
        <time>2020-10-16T08:09:56Z</time>
      </trkpt>
      <trkpt lat="37.401484000" lon="-4.730433000">
        <ele>249.1</ele>
        <time>2020-10-16T08:09:58Z</time>
      </trkpt>
      <trkpt lat="37.401491000" lon="-4.730609000">
        <ele>249.1</ele>
        <time>2020-10-16T08:10:00Z</time>
      </trkpt>
      <trkpt lat="37.401503000" lon="-4.730786000">
        <ele>249.1</ele>
        <time>2020-10-16T08:10:02Z</time>
      </trkpt>
      <trkpt lat="37.401528000" lon="-4.730961000">
        <ele>248.9</ele>
        <time>2020-10-16T08:10:04Z</time>
      </trkpt>
      <trkpt lat="37.401561000" lon="-4.731133000">
        <ele>248.6</ele>
        <time>2020-10-16T08:10:06Z</time>
      </trkpt>
      <trkpt lat="37.401596000" lon="-4.731301000">
        <ele>248.5</ele>
        <time>2020-10-16T08:10:08Z</time>
      </trkpt>
      <trkpt lat="37.401638000" lon="-4.731467000">
        <ele>248.5</ele>
        <time>2020-10-16T08:10:10Z</time>
      </trkpt>
      <trkpt lat="37.401690000" lon="-4.731627000">
        <ele>248.5</ele>
        <time>2020-10-16T08:10:12Z</time>
      </trkpt>
      <trkpt lat="37.401738000" lon="-4.731800000">
        <ele>248.4</ele>
        <time>2020-10-16T08:10:14Z</time>
      </trkpt>
      <trkpt lat="37.401795000" lon="-4.731960000">
        <ele>248.2</ele>
        <time>2020-10-16T08:10:16Z</time>
      </trkpt>
      <trkpt lat="37.401848000" lon="-4.732121000">
        <ele>248.0</ele>
        <time>2020-10-16T08:10:18Z</time>
      </trkpt>
      <trkpt lat="37.401898000" lon="-4.732283000">
        <ele>247.8</ele>
        <time>2020-10-16T08:10:20Z</time>
      </trkpt>
      <trkpt lat="37.401951000" lon="-4.732448000">
        <ele>247.5</ele>
        <time>2020-10-16T08:10:22Z</time>
      </trkpt>
      <trkpt lat="37.402004000" lon="-4.732611000">
        <ele>247.3</ele>
        <time>2020-10-16T08:10:24Z</time>
      </trkpt>
      <trkpt lat="37.402054000" lon="-4.732774000">
        <ele>247.0</ele>
        <time>2020-10-16T08:10:26Z</time>
      </trkpt>
      <trkpt lat="37.402102000" lon="-4.732936000">
        <ele>246.7</ele>
        <time>2020-10-16T08:10:28Z</time>
      </trkpt>
      <trkpt lat="37.402152000" lon="-4.733099000">
        <ele>246.4</ele>
        <time>2020-10-16T08:10:30Z</time>
      </trkpt>
      <trkpt lat="37.402200000" lon="-4.733268000">
        <ele>245.9</ele>
        <time>2020-10-16T08:10:32Z</time>
      </trkpt>
      <trkpt lat="37.402247000" lon="-4.733435000">
        <ele>245.5</ele>
        <time>2020-10-16T08:10:34Z</time>
      </trkpt>
      <trkpt lat="37.402293000" lon="-4.733612000">
        <ele>245.0</ele>
        <time>2020-10-16T08:10:36Z</time>
      </trkpt>
      <trkpt lat="37.402329000" lon="-4.733799000">
        <ele>244.5</ele>
        <time>2020-10-16T08:10:38Z</time>
      </trkpt>
      <trkpt lat="37.402358000" lon="-4.733986000">
        <ele>244.1</ele>
        <time>2020-10-16T08:10:40Z</time>
      </trkpt>
      <trkpt lat="37.402385000" lon="-4.734177000">
        <ele>243.6</ele>
        <time>2020-10-16T08:10:42Z</time>
      </trkpt>
      <trkpt lat="37.402395000" lon="-4.734279000">
        <ele>243.2</ele>
        <time>2020-10-16T08:10:43Z</time>
      </trkpt>
      <trkpt lat="37.402406000" lon="-4.734476000">
        <ele>242.7</ele>
        <time>2020-10-16T08:10:45Z</time>
      </trkpt>
      <trkpt lat="37.402411000" lon="-4.734677000">
        <ele>242.3</ele>
        <time>2020-10-16T08:10:47Z</time>
      </trkpt>
      <trkpt lat="37.402415000" lon="-4.734780000">
        <ele>241.9</ele>
        <time>2020-10-16T08:10:48Z</time>
      </trkpt>
      <trkpt lat="37.402416000" lon="-4.734887000">
        <ele>241.5</ele>
        <time>2020-10-16T08:10:49Z</time>
      </trkpt>
      <trkpt lat="37.402417000" lon="-4.734994000">
        <ele>241.2</ele>
        <time>2020-10-16T08:10:50Z</time>
      </trkpt>
      <trkpt lat="37.402419000" lon="-4.735100000">
        <ele>240.8</ele>
        <time>2020-10-16T08:10:51Z</time>
      </trkpt>
      <trkpt lat="37.402418000" lon="-4.735204000">
        <ele>240.5</ele>
        <time>2020-10-16T08:10:52Z</time>
      </trkpt>
      <trkpt lat="37.402419000" lon="-4.735307000">
        <ele>240.3</ele>
        <time>2020-10-16T08:10:53Z</time>
      </trkpt>
      <trkpt lat="37.402417000" lon="-4.735412000">
        <ele>240.0</ele>
        <time>2020-10-16T08:10:54Z</time>
      </trkpt>
      <trkpt lat="37.402417000" lon="-4.735516000">
        <ele>239.7</ele>
        <time>2020-10-16T08:10:55Z</time>
      </trkpt>
      <trkpt lat="37.402417000" lon="-4.735618000">
        <ele>239.5</ele>
        <time>2020-10-16T08:10:56Z</time>
      </trkpt>
      <trkpt lat="37.402416000" lon="-4.735817000">
        <ele>239.3</ele>
        <time>2020-10-16T08:10:58Z</time>
      </trkpt>
      <trkpt lat="37.402414000" lon="-4.736009000">
        <ele>239.1</ele>
        <time>2020-10-16T08:11:00Z</time>
      </trkpt>
      <trkpt lat="37.402415000" lon="-4.736193000">
        <ele>238.8</ele>
        <time>2020-10-16T08:11:02Z</time>
      </trkpt>
      <trkpt lat="37.402419000" lon="-4.736378000">
        <ele>238.5</ele>
        <time>2020-10-16T08:11:04Z</time>
      </trkpt>
      <trkpt lat="37.402419000" lon="-4.736560000">
        <ele>238.4</ele>
        <time>2020-10-16T08:11:06Z</time>
      </trkpt>
      <trkpt lat="37.402416000" lon="-4.736737000">
        <ele>238.1</ele>
        <time>2020-10-16T08:11:08Z</time>
      </trkpt>
      <trkpt lat="37.402417000" lon="-4.736923000">
        <ele>237.8</ele>
        <time>2020-10-16T08:11:10Z</time>
      </trkpt>
      <trkpt lat="37.402422000" lon="-4.737103000">
        <ele>237.4</ele>
        <time>2020-10-16T08:11:12Z</time>
      </trkpt>
      <trkpt lat="37.402421000" lon="-4.737274000">
        <ele>237.0</ele>
        <time>2020-10-16T08:11:14Z</time>
      </trkpt>
      <trkpt lat="37.402424000" lon="-4.737450000">
        <ele>236.6</ele>
        <time>2020-10-16T08:11:16Z</time>
      </trkpt>
      <trkpt lat="37.402422000" lon="-4.737621000">
        <ele>236.3</ele>
        <time>2020-10-16T08:11:18Z</time>
      </trkpt>
      <trkpt lat="37.402428000" lon="-4.737797000">
        <ele>236.1</ele>
        <time>2020-10-16T08:11:20Z</time>
      </trkpt>
      <trkpt lat="37.402421000" lon="-4.737967000">
        <ele>235.9</ele>
        <time>2020-10-16T08:11:22Z</time>
      </trkpt>
      <trkpt lat="37.402422000" lon="-4.738138000">
        <ele>235.9</ele>
        <time>2020-10-16T08:11:24Z</time>
      </trkpt>
      <trkpt lat="37.402424000" lon="-4.738306000">
        <ele>235.9</ele>
        <time>2020-10-16T08:11:26Z</time>
      </trkpt>
      <trkpt lat="37.402425000" lon="-4.738472000">
        <ele>235.9</ele>
        <time>2020-10-16T08:11:28Z</time>
      </trkpt>
      <trkpt lat="37.402424000" lon="-4.738634000">
        <ele>235.9</ele>
        <time>2020-10-16T08:11:30Z</time>
      </trkpt>
      <trkpt lat="37.402427000" lon="-4.738796000">
        <ele>235.9</ele>
        <time>2020-10-16T08:11:32Z</time>
      </trkpt>
      <trkpt lat="37.402425000" lon="-4.738953000">
        <ele>235.9</ele>
        <time>2020-10-16T08:11:34Z</time>
      </trkpt>
      <trkpt lat="37.402418000" lon="-4.739107000">
        <ele>235.9</ele>
        <time>2020-10-16T08:11:36Z</time>
      </trkpt>
      <trkpt lat="37.402410000" lon="-4.739257000">
        <ele>235.9</ele>
        <time>2020-10-16T08:11:38Z</time>
      </trkpt>
      <trkpt lat="37.402397000" lon="-4.739406000">
        <ele>235.9</ele>
        <time>2020-10-16T08:11:40Z</time>
      </trkpt>
      <trkpt lat="37.402376000" lon="-4.739543000">
        <ele>235.9</ele>
        <time>2020-10-16T08:11:42Z</time>
      </trkpt>
      <trkpt lat="37.402350000" lon="-4.739673000">
        <ele>235.9</ele>
        <time>2020-10-16T08:11:44Z</time>
      </trkpt>
      <trkpt lat="37.402313000" lon="-4.739789000">
        <ele>235.8</ele>
        <time>2020-10-16T08:11:46Z</time>
      </trkpt>
      <trkpt lat="37.402274000" lon="-4.739911000">
        <ele>235.7</ele>
        <time>2020-10-16T08:11:48Z</time>
      </trkpt>
      <trkpt lat="37.402231000" lon="-4.740022000">
        <ele>235.6</ele>
        <time>2020-10-16T08:11:50Z</time>
      </trkpt>
      <trkpt lat="37.402197000" lon="-4.740129000">
        <ele>235.6</ele>
        <time>2020-10-16T08:11:52Z</time>
      </trkpt>
      <trkpt lat="37.402149000" lon="-4.740235000">
        <ele>235.7</ele>
        <time>2020-10-16T08:11:54Z</time>
      </trkpt>
      <trkpt lat="37.402110000" lon="-4.740339000">
        <ele>235.9</ele>
        <time>2020-10-16T08:11:56Z</time>
      </trkpt>
      <trkpt lat="37.402070000" lon="-4.740440000">
        <ele>236.0</ele>
        <time>2020-10-16T08:11:58Z</time>
      </trkpt>
      <trkpt lat="37.402030000" lon="-4.740541000">
        <ele>236.1</ele>
        <time>2020-10-16T08:12:00Z</time>
      </trkpt>
      <trkpt lat="37.401986000" lon="-4.740656000">
        <ele>236.1</ele>
        <time>2020-10-16T08:12:02Z</time>
      </trkpt>
      <trkpt lat="37.401942000" lon="-4.740767000">
        <ele>236.0</ele>
        <time>2020-10-16T08:12:04Z</time>
      </trkpt>
      <trkpt lat="37.401890000" lon="-4.740887000">
        <ele>235.9</ele>
        <time>2020-10-16T08:12:06Z</time>
      </trkpt>
      <trkpt lat="37.401838000" lon="-4.741012000">
        <ele>235.8</ele>
        <time>2020-10-16T08:12:08Z</time>
      </trkpt>
      <trkpt lat="37.401789000" lon="-4.741147000">
        <ele>235.7</ele>
        <time>2020-10-16T08:12:10Z</time>
      </trkpt>
      <trkpt lat="37.401737000" lon="-4.741283000">
        <ele>235.6</ele>
        <time>2020-10-16T08:12:12Z</time>
      </trkpt>
      <trkpt lat="37.401685000" lon="-4.741425000">
        <ele>235.5</ele>
        <time>2020-10-16T08:12:14Z</time>
      </trkpt>
      <trkpt lat="37.401618000" lon="-4.741585000">
        <ele>235.4</ele>
        <time>2020-10-16T08:12:16Z</time>
      </trkpt>
      <trkpt lat="37.401552000" lon="-4.741753000">
        <ele>235.1</ele>
        <time>2020-10-16T08:12:18Z</time>
      </trkpt>
      <trkpt lat="37.401481000" lon="-4.741936000">
        <ele>234.8</ele>
        <time>2020-10-16T08:12:20Z</time>
      </trkpt>
      <trkpt lat="37.401444000" lon="-4.742034000">
        <ele>234.5</ele>
        <time>2020-10-16T08:12:21Z</time>
      </trkpt>
      <trkpt lat="37.401405000" lon="-4.742135000">
        <ele>234.4</ele>
        <time>2020-10-16T08:12:22Z</time>
      </trkpt>
      <trkpt lat="37.401364000" lon="-4.742238000">
        <ele>234.1</ele>
        <time>2020-10-16T08:12:23Z</time>
      </trkpt>
      <trkpt lat="37.401319000" lon="-4.742342000">
        <ele>233.8</ele>
        <time>2020-10-16T08:12:24Z</time>
      </trkpt>
      <trkpt lat="37.401276000" lon="-4.742452000">
        <ele>233.5</ele>
        <time>2020-10-16T08:12:25Z</time>
      </trkpt>
      <trkpt lat="37.401236000" lon="-4.742570000">
        <ele>233.1</ele>
        <time>2020-10-16T08:12:26Z</time>
      </trkpt>
      <trkpt lat="37.401193000" lon="-4.742682000">
        <ele>232.7</ele>
        <time>2020-10-16T08:12:27Z</time>
      </trkpt>
      <trkpt lat="37.401152000" lon="-4.742794000">
        <ele>232.4</ele>
        <time>2020-10-16T08:12:28Z</time>
      </trkpt>
      <trkpt lat="37.401110000" lon="-4.742908000">
        <ele>231.9</ele>
        <time>2020-10-16T08:12:29Z</time>
      </trkpt>
      <trkpt lat="37.401070000" lon="-4.743021000">
        <ele>231.5</ele>
        <time>2020-10-16T08:12:30Z</time>
      </trkpt>
      <trkpt lat="37.401030000" lon="-4.743128000">
        <ele>231.3</ele>
        <time>2020-10-16T08:12:31Z</time>
      </trkpt>
      <trkpt lat="37.400991000" lon="-4.743234000">
        <ele>230.9</ele>
        <time>2020-10-16T08:12:32Z</time>
      </trkpt>
      <trkpt lat="37.400956000" lon="-4.743337000">
        <ele>230.5</ele>
        <time>2020-10-16T08:12:33Z</time>
      </trkpt>
      <trkpt lat="37.400923000" lon="-4.743442000">
        <ele>230.1</ele>
        <time>2020-10-16T08:12:34Z</time>
      </trkpt>
      <trkpt lat="37.400888000" lon="-4.743544000">
        <ele>229.7</ele>
        <time>2020-10-16T08:12:35Z</time>
      </trkpt>
      <trkpt lat="37.400861000" lon="-4.743646000">
        <ele>229.4</ele>
        <time>2020-10-16T08:12:36Z</time>
      </trkpt>
      <trkpt lat="37.400837000" lon="-4.743752000">
        <ele>229.0</ele>
        <time>2020-10-16T08:12:37Z</time>
      </trkpt>
      <trkpt lat="37.400814000" lon="-4.743853000">
        <ele>228.6</ele>
        <time>2020-10-16T08:12:38Z</time>
      </trkpt>
      <trkpt lat="37.400800000" lon="-4.743963000">
        <ele>228.3</ele>
        <time>2020-10-16T08:12:39Z</time>
      </trkpt>
      <trkpt lat="37.400785000" lon="-4.744074000">
        <ele>228.1</ele>
        <time>2020-10-16T08:12:40Z</time>
      </trkpt>
      <trkpt lat="37.400778000" lon="-4.744181000">
        <ele>227.9</ele>
        <time>2020-10-16T08:12:41Z</time>
      </trkpt>
      <trkpt lat="37.400771000" lon="-4.744283000">
        <ele>227.7</ele>
        <time>2020-10-16T08:12:42Z</time>
      </trkpt>
      <trkpt lat="37.400766000" lon="-4.744387000">
        <ele>227.6</ele>
        <time>2020-10-16T08:12:43Z</time>
      </trkpt>
      <trkpt lat="37.400759000" lon="-4.744492000">
        <ele>227.6</ele>
        <time>2020-10-16T08:12:44Z</time>
      </trkpt>
      <trkpt lat="37.400757000" lon="-4.744597000">
        <ele>227.6</ele>
        <time>2020-10-16T08:12:45Z</time>
      </trkpt>
      <trkpt lat="37.400751000" lon="-4.744702000">
        <ele>227.6</ele>
        <time>2020-10-16T08:12:46Z</time>
      </trkpt>
      <trkpt lat="37.400749000" lon="-4.744806000">
        <ele>227.7</ele>
        <time>2020-10-16T08:12:47Z</time>
      </trkpt>
      <trkpt lat="37.400747000" lon="-4.744910000">
        <ele>227.8</ele>
        <time>2020-10-16T08:12:48Z</time>
      </trkpt>
      <trkpt lat="37.400743000" lon="-4.745015000">
        <ele>227.9</ele>
        <time>2020-10-16T08:12:49Z</time>
      </trkpt>
      <trkpt lat="37.400732000" lon="-4.745219000">
        <ele>227.9</ele>
        <time>2020-10-16T08:12:51Z</time>
      </trkpt>
      <trkpt lat="37.400727000" lon="-4.745323000">
        <ele>227.8</ele>
        <time>2020-10-16T08:12:52Z</time>
      </trkpt>
      <trkpt lat="37.400722000" lon="-4.745425000">
        <ele>227.7</ele>
        <time>2020-10-16T08:12:53Z</time>
      </trkpt>
      <trkpt lat="37.400712000" lon="-4.745628000">
        <ele>227.5</ele>
        <time>2020-10-16T08:12:55Z</time>
      </trkpt>
      <trkpt lat="37.400704000" lon="-4.745824000">
        <ele>227.4</ele>
        <time>2020-10-16T08:12:57Z</time>
      </trkpt>
      <trkpt lat="37.400693000" lon="-4.746013000">
        <ele>227.2</ele>
        <time>2020-10-16T08:12:59Z</time>
      </trkpt>
      <trkpt lat="37.400683000" lon="-4.746203000">
        <ele>227.0</ele>
        <time>2020-10-16T08:13:01Z</time>
      </trkpt>
      <trkpt lat="37.400677000" lon="-4.746385000">
        <ele>226.9</ele>
        <time>2020-10-16T08:13:03Z</time>
      </trkpt>
      <trkpt lat="37.400670000" lon="-4.746563000">
        <ele>226.8</ele>
        <time>2020-10-16T08:13:05Z</time>
      </trkpt>
      <trkpt lat="37.400659000" lon="-4.746733000">
        <ele>226.7</ele>
        <time>2020-10-16T08:13:07Z</time>
      </trkpt>
      <trkpt lat="37.400652000" lon="-4.746901000">
        <ele>226.7</ele>
        <time>2020-10-16T08:13:09Z</time>
      </trkpt>
      <trkpt lat="37.400644000" lon="-4.747066000">
        <ele>226.9</ele>
        <time>2020-10-16T08:13:11Z</time>
      </trkpt>
      <trkpt lat="37.400645000" lon="-4.747230000">
        <ele>227.1</ele>
        <time>2020-10-16T08:13:13Z</time>
      </trkpt>
      <trkpt lat="37.400660000" lon="-4.747377000">
        <ele>227.4</ele>
        <time>2020-10-16T08:13:15Z</time>
      </trkpt>
      <trkpt lat="37.400732000" lon="-4.747503000">
        <ele>227.7</ele>
        <time>2020-10-16T08:13:17Z</time>
      </trkpt>
      <trkpt lat="37.400836000" lon="-4.747600000">
        <ele>228.0</ele>
        <time>2020-10-16T08:13:19Z</time>
      </trkpt>
      <trkpt lat="37.400899000" lon="-4.747727000">
        <ele>228.3</ele>
        <time>2020-10-16T08:13:21Z</time>
      </trkpt>
      <trkpt lat="37.400903000" lon="-4.747877000">
        <ele>228.5</ele>
        <time>2020-10-16T08:13:23Z</time>
      </trkpt>
      <trkpt lat="37.400857000" lon="-4.748027000">
        <ele>228.7</ele>
        <time>2020-10-16T08:13:25Z</time>
      </trkpt>
      <trkpt lat="37.400795000" lon="-4.748131000">
        <ele>229.0</ele>
        <time>2020-10-16T08:13:27Z</time>
      </trkpt>
      <trkpt lat="37.400718000" lon="-4.748236000">
        <ele>229.2</ele>
        <time>2020-10-16T08:13:29Z</time>
      </trkpt>
      <trkpt lat="37.400652000" lon="-4.748359000">
        <ele>229.2</ele>
        <time>2020-10-16T08:13:31Z</time>
      </trkpt>
      <trkpt lat="37.400614000" lon="-4.748495000">
        <ele>229.0</ele>
        <time>2020-10-16T08:13:33Z</time>
      </trkpt>
      <trkpt lat="37.400590000" lon="-4.748618000">
        <ele>228.7</ele>
        <time>2020-10-16T08:13:35Z</time>
      </trkpt>
      <trkpt lat="37.400578000" lon="-4.748730000">
        <ele>228.3</ele>
        <time>2020-10-16T08:13:38Z</time>
      </trkpt>
      <trkpt lat="37.400498000" lon="-4.748659000">
        <ele>227.8</ele>
        <time>2020-10-16T08:13:59Z</time>
      </trkpt>
      <trkpt lat="37.400461000" lon="-4.748544000">
        <ele>227.5</ele>
        <time>2020-10-16T08:14:02Z</time>
      </trkpt>
      <trkpt lat="37.400409000" lon="-4.748428000">
        <ele>227.3</ele>
        <time>2020-10-16T08:14:05Z</time>
      </trkpt>
      <trkpt lat="37.400333000" lon="-4.748317000">
        <ele>227.0</ele>
        <time>2020-10-16T08:14:08Z</time>
      </trkpt>
      <trkpt lat="37.400258000" lon="-4.748273000">
        <ele>226.8</ele>
        <time>2020-10-16T08:14:10Z</time>
      </trkpt>
      <trkpt lat="37.400157000" lon="-4.748249000">
        <ele>226.5</ele>
        <time>2020-10-16T08:14:12Z</time>
      </trkpt>
      <trkpt lat="37.400054000" lon="-4.748281000">
        <ele>226.4</ele>
        <time>2020-10-16T08:14:14Z</time>
      </trkpt>
      <trkpt lat="37.399961000" lon="-4.748356000">
        <ele>226.3</ele>
        <time>2020-10-16T08:14:16Z</time>
      </trkpt>
      <trkpt lat="37.399867000" lon="-4.748437000">
        <ele>226.2</ele>
        <time>2020-10-16T08:14:18Z</time>
      </trkpt>
      <trkpt lat="37.399771000" lon="-4.748512000">
        <ele>226.2</ele>
        <time>2020-10-16T08:14:20Z</time>
      </trkpt>
      <trkpt lat="37.399682000" lon="-4.748590000">
        <ele>226.2</ele>
        <time>2020-10-16T08:14:23Z</time>
      </trkpt>
      <trkpt lat="37.399586000" lon="-4.748674000">
        <ele>226.2</ele>
        <time>2020-10-16T08:14:24Z</time>
      </trkpt>
      <trkpt lat="37.399490000" lon="-4.748758000">
        <ele>226.0</ele>
        <time>2020-10-16T08:14:26Z</time>
      </trkpt>
      <trkpt lat="37.399393000" lon="-4.748836000">
        <ele>225.8</ele>
        <time>2020-10-16T08:14:28Z</time>
      </trkpt>
      <trkpt lat="37.399296000" lon="-4.748925000">
        <ele>225.6</ele>
        <time>2020-10-16T08:14:30Z</time>
      </trkpt>
      <trkpt lat="37.399200000" lon="-4.749013000">
        <ele>225.3</ele>
        <time>2020-10-16T08:14:32Z</time>
      </trkpt>
      <trkpt lat="37.399096000" lon="-4.749099000">
        <ele>224.8</ele>
        <time>2020-10-16T08:14:34Z</time>
      </trkpt>
      <trkpt lat="37.398991000" lon="-4.749191000">
        <ele>224.4</ele>
        <time>2020-10-16T08:14:36Z</time>
      </trkpt>
      <trkpt lat="37.398884000" lon="-4.749281000">
        <ele>223.9</ele>
        <time>2020-10-16T08:14:38Z</time>
      </trkpt>
      <trkpt lat="37.398777000" lon="-4.749382000">
        <ele>223.5</ele>
        <time>2020-10-16T08:14:40Z</time>
      </trkpt>
      <trkpt lat="37.398669000" lon="-4.749482000">
        <ele>223.2</ele>
        <time>2020-10-16T08:14:42Z</time>
      </trkpt>
      <trkpt lat="37.398556000" lon="-4.749571000">
        <ele>223.0</ele>
        <time>2020-10-16T08:14:44Z</time>
      </trkpt>
      <trkpt lat="37.398458000" lon="-4.749674000">
        <ele>222.8</ele>
        <time>2020-10-16T08:14:46Z</time>
      </trkpt>
      <trkpt lat="37.398352000" lon="-4.749776000">
        <ele>222.7</ele>
        <time>2020-10-16T08:14:48Z</time>
      </trkpt>
      <trkpt lat="37.398256000" lon="-4.749882000">
        <ele>222.6</ele>
        <time>2020-10-16T08:14:50Z</time>
      </trkpt>
      <trkpt lat="37.398161000" lon="-4.749994000">
        <ele>222.6</ele>
        <time>2020-10-16T08:14:52Z</time>
      </trkpt>
      <trkpt lat="37.398064000" lon="-4.750113000">
        <ele>222.6</ele>
        <time>2020-10-16T08:14:54Z</time>
      </trkpt>
      <trkpt lat="37.397974000" lon="-4.750228000">
        <ele>222.7</ele>
        <time>2020-10-16T08:14:56Z</time>
      </trkpt>
      <trkpt lat="37.397890000" lon="-4.750351000">
        <ele>222.8</ele>
        <time>2020-10-16T08:14:58Z</time>
      </trkpt>
      <trkpt lat="37.397804000" lon="-4.750479000">
        <ele>222.9</ele>
        <time>2020-10-16T08:15:00Z</time>
      </trkpt>
      <trkpt lat="37.397716000" lon="-4.750608000">
        <ele>223.0</ele>
        <time>2020-10-16T08:15:02Z</time>
      </trkpt>
      <trkpt lat="37.397634000" lon="-4.750726000">
        <ele>223.0</ele>
        <time>2020-10-16T08:15:04Z</time>
      </trkpt>
      <trkpt lat="37.397558000" lon="-4.750843000">
        <ele>222.9</ele>
        <time>2020-10-16T08:15:06Z</time>
      </trkpt>
      <trkpt lat="37.397511000" lon="-4.750975000">
        <ele>222.7</ele>
        <time>2020-10-16T08:15:08Z</time>
      </trkpt>
      <trkpt lat="37.397489000" lon="-4.751108000">
        <ele>222.5</ele>
        <time>2020-10-16T08:15:10Z</time>
      </trkpt>
      <trkpt lat="37.397448000" lon="-4.751234000">
        <ele>222.4</ele>
        <time>2020-10-16T08:15:12Z</time>
      </trkpt>
      <trkpt lat="37.397395000" lon="-4.751349000">
        <ele>222.1</ele>
        <time>2020-10-16T08:15:14Z</time>
      </trkpt>
      <trkpt lat="37.397333000" lon="-4.751458000">
        <ele>221.9</ele>
        <time>2020-10-16T08:15:16Z</time>
      </trkpt>
      <trkpt lat="37.397254000" lon="-4.751560000">
        <ele>221.8</ele>
        <time>2020-10-16T08:15:18Z</time>
      </trkpt>
      <trkpt lat="37.397190000" lon="-4.751677000">
        <ele>221.7</ele>
        <time>2020-10-16T08:15:20Z</time>
      </trkpt>
      <trkpt lat="37.397131000" lon="-4.751797000">
        <ele>221.6</ele>
        <time>2020-10-16T08:15:22Z</time>
      </trkpt>
      <trkpt lat="37.397075000" lon="-4.751915000">
        <ele>221.5</ele>
        <time>2020-10-16T08:15:24Z</time>
      </trkpt>
      <trkpt lat="37.397017000" lon="-4.752030000">
        <ele>221.5</ele>
        <time>2020-10-16T08:15:26Z</time>
      </trkpt>
      <trkpt lat="37.396949000" lon="-4.752137000">
        <ele>221.6</ele>
        <time>2020-10-16T08:15:28Z</time>
      </trkpt>
      <trkpt lat="37.396885000" lon="-4.752241000">
        <ele>221.8</ele>
        <time>2020-10-16T08:15:30Z</time>
      </trkpt>
      <trkpt lat="37.396814000" lon="-4.752342000">
        <ele>222.0</ele>
        <time>2020-10-16T08:15:32Z</time>
      </trkpt>
      <trkpt lat="37.396745000" lon="-4.752447000">
        <ele>222.2</ele>
        <time>2020-10-16T08:15:34Z</time>
      </trkpt>
      <trkpt lat="37.396674000" lon="-4.752553000">
        <ele>222.5</ele>
        <time>2020-10-16T08:15:36Z</time>
      </trkpt>
      <trkpt lat="37.396611000" lon="-4.752657000">
        <ele>222.7</ele>
        <time>2020-10-16T08:15:38Z</time>
      </trkpt>
      <trkpt lat="37.396539000" lon="-4.752764000">
        <ele>222.9</ele>
        <time>2020-10-16T08:15:40Z</time>
      </trkpt>
      <trkpt lat="37.396467000" lon="-4.752868000">
        <ele>223.0</ele>
        <time>2020-10-16T08:15:42Z</time>
      </trkpt>
      <trkpt lat="37.396393000" lon="-4.752966000">
        <ele>223.1</ele>
        <time>2020-10-16T08:15:44Z</time>
      </trkpt>
      <trkpt lat="37.396326000" lon="-4.753068000">
        <ele>223.3</ele>
        <time>2020-10-16T08:15:46Z</time>
      </trkpt>
      <trkpt lat="37.396251000" lon="-4.753161000">
        <ele>223.5</ele>
        <time>2020-10-16T08:15:48Z</time>
      </trkpt>
      <trkpt lat="37.396193000" lon="-4.753258000">
        <ele>223.6</ele>
        <time>2020-10-16T08:15:50Z</time>
      </trkpt>
      <trkpt lat="37.396130000" lon="-4.753357000">
        <ele>223.8</ele>
        <time>2020-10-16T08:15:52Z</time>
      </trkpt>
      <trkpt lat="37.396066000" lon="-4.753460000">
        <ele>224.0</ele>
        <time>2020-10-16T08:15:54Z</time>
      </trkpt>
      <trkpt lat="37.395999000" lon="-4.753559000">
        <ele>224.2</ele>
        <time>2020-10-16T08:15:56Z</time>
      </trkpt>
      <trkpt lat="37.395934000" lon="-4.753655000">
        <ele>224.3</ele>
        <time>2020-10-16T08:15:58Z</time>
      </trkpt>
      <trkpt lat="37.395876000" lon="-4.753756000">
        <ele>224.4</ele>
        <time>2020-10-16T08:16:00Z</time>
      </trkpt>
      <trkpt lat="37.395819000" lon="-4.753849000">
        <ele>224.5</ele>
        <time>2020-10-16T08:16:02Z</time>
      </trkpt>
      <trkpt lat="37.395761000" lon="-4.753940000">
        <ele>224.6</ele>
        <time>2020-10-16T08:16:04Z</time>
      </trkpt>
      <trkpt lat="37.395707000" lon="-4.754034000">
        <ele>224.8</ele>
        <time>2020-10-16T08:16:06Z</time>
      </trkpt>
      <trkpt lat="37.395669000" lon="-4.754148000">
        <ele>224.9</ele>
        <time>2020-10-16T08:16:08Z</time>
      </trkpt>
      <trkpt lat="37.395637000" lon="-4.754254000">
        <ele>225.1</ele>
        <time>2020-10-16T08:16:10Z</time>
      </trkpt>
      <trkpt lat="37.395597000" lon="-4.754361000">
        <ele>225.2</ele>
        <time>2020-10-16T08:16:12Z</time>
      </trkpt>
      <trkpt lat="37.395563000" lon="-4.754469000">
        <ele>225.3</ele>
        <time>2020-10-16T08:16:14Z</time>
      </trkpt>
      <trkpt lat="37.395530000" lon="-4.754573000">
        <ele>225.4</ele>
        <time>2020-10-16T08:16:16Z</time>
      </trkpt>
      <trkpt lat="37.395498000" lon="-4.754679000">
        <ele>225.4</ele>
        <time>2020-10-16T08:16:18Z</time>
      </trkpt>
      <trkpt lat="37.395465000" lon="-4.754792000">
        <ele>225.4</ele>
        <time>2020-10-16T08:16:20Z</time>
      </trkpt>
      <trkpt lat="37.395435000" lon="-4.754898000">
        <ele>225.4</ele>
        <time>2020-10-16T08:16:22Z</time>
      </trkpt>
      <trkpt lat="37.395400000" lon="-4.755012000">
        <ele>225.4</ele>
        <time>2020-10-16T08:16:24Z</time>
      </trkpt>
      <trkpt lat="37.395365000" lon="-4.755124000">
        <ele>225.3</ele>
        <time>2020-10-16T08:16:26Z</time>
      </trkpt>
      <trkpt lat="37.395331000" lon="-4.755238000">
        <ele>225.2</ele>
        <time>2020-10-16T08:16:28Z</time>
      </trkpt>
      <trkpt lat="37.395294000" lon="-4.755353000">
        <ele>225.0</ele>
        <time>2020-10-16T08:16:30Z</time>
      </trkpt>
      <trkpt lat="37.395265000" lon="-4.755481000">
        <ele>224.7</ele>
        <time>2020-10-16T08:16:32Z</time>
      </trkpt>
      <trkpt lat="37.395230000" lon="-4.755599000">
        <ele>224.4</ele>
        <time>2020-10-16T08:16:34Z</time>
      </trkpt>
      <trkpt lat="37.395193000" lon="-4.755724000">
        <ele>223.9</ele>
        <time>2020-10-16T08:16:36Z</time>
      </trkpt>
      <trkpt lat="37.395146000" lon="-4.755846000">
        <ele>223.5</ele>
        <time>2020-10-16T08:16:38Z</time>
      </trkpt>
      <trkpt lat="37.395108000" lon="-4.755970000">
        <ele>223.0</ele>
        <time>2020-10-16T08:16:40Z</time>
      </trkpt>
      <trkpt lat="37.395064000" lon="-4.756100000">
        <ele>222.5</ele>
        <time>2020-10-16T08:16:42Z</time>
      </trkpt>
      <trkpt lat="37.395016000" lon="-4.756228000">
        <ele>222.1</ele>
        <time>2020-10-16T08:16:44Z</time>
      </trkpt>
      <trkpt lat="37.394977000" lon="-4.756362000">
        <ele>221.7</ele>
        <time>2020-10-16T08:16:46Z</time>
      </trkpt>
      <trkpt lat="37.394925000" lon="-4.756508000">
        <ele>221.5</ele>
        <time>2020-10-16T08:16:48Z</time>
      </trkpt>
      <trkpt lat="37.394880000" lon="-4.756670000">
        <ele>221.1</ele>
        <time>2020-10-16T08:16:50Z</time>
      </trkpt>
      <trkpt lat="37.394834000" lon="-4.756822000">
        <ele>220.8</ele>
        <time>2020-10-16T08:16:52Z</time>
      </trkpt>
      <trkpt lat="37.394790000" lon="-4.756978000">
        <ele>220.5</ele>
        <time>2020-10-16T08:16:54Z</time>
      </trkpt>
      <trkpt lat="37.394739000" lon="-4.757135000">
        <ele>220.3</ele>
        <time>2020-10-16T08:16:56Z</time>
      </trkpt>
      <trkpt lat="37.394691000" lon="-4.757282000">
        <ele>220.0</ele>
        <time>2020-10-16T08:16:58Z</time>
      </trkpt>
      <trkpt lat="37.394647000" lon="-4.757427000">
        <ele>219.7</ele>
        <time>2020-10-16T08:17:00Z</time>
      </trkpt>
      <trkpt lat="37.394610000" lon="-4.757574000">
        <ele>219.5</ele>
        <time>2020-10-16T08:17:02Z</time>
      </trkpt>
      <trkpt lat="37.394563000" lon="-4.757722000">
        <ele>219.4</ele>
        <time>2020-10-16T08:17:04Z</time>
      </trkpt>
      <trkpt lat="37.394511000" lon="-4.757867000">
        <ele>219.2</ele>
        <time>2020-10-16T08:17:06Z</time>
      </trkpt>
      <trkpt lat="37.394465000" lon="-4.758006000">
        <ele>219.0</ele>
        <time>2020-10-16T08:17:08Z</time>
      </trkpt>
      <trkpt lat="37.394425000" lon="-4.758149000">
        <ele>218.8</ele>
        <time>2020-10-16T08:17:10Z</time>
      </trkpt>
      <trkpt lat="37.394377000" lon="-4.758281000">
        <ele>218.7</ele>
        <time>2020-10-16T08:17:12Z</time>
      </trkpt>
      <trkpt lat="37.394332000" lon="-4.758422000">
        <ele>218.5</ele>
        <time>2020-10-16T08:17:14Z</time>
      </trkpt>
      <trkpt lat="37.394288000" lon="-4.758567000">
        <ele>218.4</ele>
        <time>2020-10-16T08:17:16Z</time>
      </trkpt>
      <trkpt lat="37.394245000" lon="-4.758710000">
        <ele>218.2</ele>
        <time>2020-10-16T08:17:18Z</time>
      </trkpt>
      <trkpt lat="37.394196000" lon="-4.758851000">
        <ele>218.2</ele>
        <time>2020-10-16T08:17:20Z</time>
      </trkpt>
      <trkpt lat="37.394151000" lon="-4.759001000">
        <ele>218.2</ele>
        <time>2020-10-16T08:17:22Z</time>
      </trkpt>
      <trkpt lat="37.394107000" lon="-4.759146000">
        <ele>218.2</ele>
        <time>2020-10-16T08:17:24Z</time>
      </trkpt>
      <trkpt lat="37.394059000" lon="-4.759290000">
        <ele>218.2</ele>
        <time>2020-10-16T08:17:26Z</time>
      </trkpt>
      <trkpt lat="37.394009000" lon="-4.759426000">
        <ele>218.2</ele>
        <time>2020-10-16T08:17:28Z</time>
      </trkpt>
      <trkpt lat="37.393968000" lon="-4.759553000">
        <ele>218.0</ele>
        <time>2020-10-16T08:17:30Z</time>
      </trkpt>
      <trkpt lat="37.393934000" lon="-4.759688000">
        <ele>217.8</ele>
        <time>2020-10-16T08:17:32Z</time>
      </trkpt>
      <trkpt lat="37.393906000" lon="-4.759806000">
        <ele>217.6</ele>
        <time>2020-10-16T08:17:34Z</time>
      </trkpt>
      <trkpt lat="37.393878000" lon="-4.759924000">
        <ele>217.5</ele>
        <time>2020-10-16T08:17:36Z</time>
      </trkpt>
      <trkpt lat="37.393856000" lon="-4.760026000">
        <ele>217.4</ele>
        <time>2020-10-16T08:17:38Z</time>
      </trkpt>
      <trkpt lat="37.393828000" lon="-4.760124000">
        <ele>217.3</ele>
        <time>2020-10-16T08:17:42Z</time>
      </trkpt>
      <trkpt lat="37.393793000" lon="-4.760217000">
        <ele>217.0</ele>
        <time>2020-10-16T08:17:56Z</time>
      </trkpt>
      <trkpt lat="37.393771000" lon="-4.760346000">
        <ele>216.7</ele>
        <time>2020-10-16T08:18:00Z</time>
      </trkpt>
      <trkpt lat="37.393751000" lon="-4.760475000">
        <ele>216.5</ele>
        <time>2020-10-16T08:18:03Z</time>
      </trkpt>
      <trkpt lat="37.393736000" lon="-4.760575000">
        <ele>216.2</ele>
        <time>2020-10-16T08:18:05Z</time>
      </trkpt>
      <trkpt lat="37.393719000" lon="-4.760684000">
        <ele>216.0</ele>
        <time>2020-10-16T08:18:07Z</time>
      </trkpt>
      <trkpt lat="37.393698000" lon="-4.760790000">
        <ele>215.9</ele>
        <time>2020-10-16T08:18:09Z</time>
      </trkpt>
      <trkpt lat="37.393674000" lon="-4.760890000">
        <ele>215.8</ele>
        <time>2020-10-16T08:18:11Z</time>
      </trkpt>
      <trkpt lat="37.393650000" lon="-4.761029000">
        <ele>215.8</ele>
        <time>2020-10-16T08:18:14Z</time>
      </trkpt>
      <trkpt lat="37.393630000" lon="-4.761171000">
        <ele>215.8</ele>
        <time>2020-10-16T08:18:17Z</time>
      </trkpt>
      <trkpt lat="37.393612000" lon="-4.761274000">
        <ele>215.9</ele>
        <time>2020-10-16T08:18:19Z</time>
      </trkpt>
      <trkpt lat="37.393601000" lon="-4.761396000">
        <ele>216.0</ele>
        <time>2020-10-16T08:18:21Z</time>
      </trkpt>
      <trkpt lat="37.393580000" lon="-4.761504000">
        <ele>216.2</ele>
        <time>2020-10-16T08:18:23Z</time>
      </trkpt>
      <trkpt lat="37.393567000" lon="-4.761621000">
        <ele>216.4</ele>
        <time>2020-10-16T08:18:25Z</time>
      </trkpt>
      <trkpt lat="37.393550000" lon="-4.761737000">
        <ele>216.5</ele>
        <time>2020-10-16T08:18:27Z</time>
      </trkpt>
      <trkpt lat="37.393527000" lon="-4.761841000">
        <ele>216.7</ele>
        <time>2020-10-16T08:18:29Z</time>
      </trkpt>
      <trkpt lat="37.393514000" lon="-4.761948000">
        <ele>216.7</ele>
        <time>2020-10-16T08:18:34Z</time>
      </trkpt>
      <trkpt lat="37.393502000" lon="-4.762056000">
        <ele>216.7</ele>
        <time>2020-10-16T08:18:41Z</time>
      </trkpt>
      <trkpt lat="37.393479000" lon="-4.762196000">
        <ele>216.7</ele>
        <time>2020-10-16T08:18:45Z</time>
      </trkpt>
      <trkpt lat="37.393467000" lon="-4.762334000">
        <ele>216.6</ele>
        <time>2020-10-16T08:18:48Z</time>
      </trkpt>
      <trkpt lat="37.393447000" lon="-4.762489000">
        <ele>216.5</ele>
        <time>2020-10-16T08:18:51Z</time>
      </trkpt>
      <trkpt lat="37.393408000" lon="-4.762600000">
        <ele>216.5</ele>
        <time>2020-10-16T08:18:53Z</time>
      </trkpt>
      <trkpt lat="37.393387000" lon="-4.762714000">
        <ele>216.4</ele>
        <time>2020-10-16T08:18:55Z</time>
      </trkpt>
      <trkpt lat="37.393366000" lon="-4.762829000">
        <ele>216.3</ele>
        <time>2020-10-16T08:18:57Z</time>
      </trkpt>
      <trkpt lat="37.393346000" lon="-4.762964000">
        <ele>216.2</ele>
        <time>2020-10-16T08:19:00Z</time>
      </trkpt>
      <trkpt lat="37.393330000" lon="-4.763083000">
        <ele>216.1</ele>
        <time>2020-10-16T08:19:04Z</time>
      </trkpt>
      <trkpt lat="37.393294000" lon="-4.763197000">
        <ele>216.0</ele>
        <time>2020-10-16T08:19:08Z</time>
      </trkpt>
      <trkpt lat="37.393286000" lon="-4.763326000">
        <ele>216.0</ele>
        <time>2020-10-16T08:19:11Z</time>
      </trkpt>
      <trkpt lat="37.393278000" lon="-4.763440000">
        <ele>216.0</ele>
        <time>2020-10-16T08:19:13Z</time>
      </trkpt>
      <trkpt lat="37.393247000" lon="-4.763576000">
        <ele>216.0</ele>
        <time>2020-10-16T08:19:15Z</time>
      </trkpt>
      <trkpt lat="37.393221000" lon="-4.763709000">
        <ele>216.1</ele>
        <time>2020-10-16T08:19:17Z</time>
      </trkpt>
      <trkpt lat="37.393198000" lon="-4.763832000">
        <ele>216.2</ele>
        <time>2020-10-16T08:19:19Z</time>
      </trkpt>
      <trkpt lat="37.393169000" lon="-4.763954000">
        <ele>216.3</ele>
        <time>2020-10-16T08:19:21Z</time>
      </trkpt>
      <trkpt lat="37.393145000" lon="-4.764080000">
        <ele>216.4</ele>
        <time>2020-10-16T08:19:23Z</time>
      </trkpt>
      <trkpt lat="37.393120000" lon="-4.764196000">
        <ele>216.4</ele>
        <time>2020-10-16T08:19:25Z</time>
      </trkpt>
      <trkpt lat="37.393085000" lon="-4.764305000">
        <ele>216.4</ele>
        <time>2020-10-16T08:19:27Z</time>
      </trkpt>
      <trkpt lat="37.393061000" lon="-4.764423000">
        <ele>216.5</ele>
        <time>2020-10-16T08:19:29Z</time>
      </trkpt>
      <trkpt lat="37.393033000" lon="-4.764522000">
        <ele>216.5</ele>
        <time>2020-10-16T08:19:31Z</time>
      </trkpt>
      <trkpt lat="37.393013000" lon="-4.764643000">
        <ele>216.6</ele>
        <time>2020-10-16T08:19:33Z</time>
      </trkpt>
      <trkpt lat="37.392995000" lon="-4.764751000">
        <ele>216.7</ele>
        <time>2020-10-16T08:19:35Z</time>
      </trkpt>
      <trkpt lat="37.392985000" lon="-4.764868000">
        <ele>216.8</ele>
        <time>2020-10-16T08:19:37Z</time>
      </trkpt>
      <trkpt lat="37.392962000" lon="-4.764983000">
        <ele>216.8</ele>
        <time>2020-10-16T08:19:39Z</time>
      </trkpt>
      <trkpt lat="37.392970000" lon="-4.765101000">
        <ele>216.8</ele>
        <time>2020-10-16T08:19:41Z</time>
      </trkpt>
      <trkpt lat="37.392973000" lon="-4.765214000">
        <ele>216.8</ele>
        <time>2020-10-16T08:19:43Z</time>
      </trkpt>
      <trkpt lat="37.392977000" lon="-4.765327000">
        <ele>216.8</ele>
        <time>2020-10-16T08:19:45Z</time>
      </trkpt>
      <trkpt lat="37.392992000" lon="-4.765437000">
        <ele>216.8</ele>
        <time>2020-10-16T08:19:47Z</time>
      </trkpt>
      <trkpt lat="37.393017000" lon="-4.765547000">
        <ele>216.8</ele>
        <time>2020-10-16T08:19:49Z</time>
      </trkpt>
      <trkpt lat="37.393060000" lon="-4.765656000">
        <ele>216.7</ele>
        <time>2020-10-16T08:19:51Z</time>
      </trkpt>
      <trkpt lat="37.393108000" lon="-4.765755000">
        <ele>216.7</ele>
        <time>2020-10-16T08:19:53Z</time>
      </trkpt>
      <trkpt lat="37.393160000" lon="-4.765846000">
        <ele>216.7</ele>
        <time>2020-10-16T08:19:55Z</time>
      </trkpt>
      <trkpt lat="37.393223000" lon="-4.765927000">
        <ele>216.7</ele>
        <time>2020-10-16T08:19:57Z</time>
      </trkpt>
      <trkpt lat="37.393271000" lon="-4.766021000">
        <ele>216.8</ele>
        <time>2020-10-16T08:19:59Z</time>
      </trkpt>
      <trkpt lat="37.393240000" lon="-4.766152000">
        <ele>216.9</ele>
        <time>2020-10-16T08:20:02Z</time>
      </trkpt>
      <trkpt lat="37.393128000" lon="-4.766176000">
        <ele>217.1</ele>
        <time>2020-10-16T08:20:05Z</time>
      </trkpt>
      <trkpt lat="37.393014000" lon="-4.766157000">
        <ele>217.3</ele>
        <time>2020-10-16T08:20:08Z</time>
      </trkpt>
      <trkpt lat="37.392930000" lon="-4.766140000">
        <ele>217.5</ele>
        <time>2020-10-16T08:20:10Z</time>
      </trkpt>
      <trkpt lat="37.392826000" lon="-4.766134000">
        <ele>217.8</ele>
        <time>2020-10-16T08:20:12Z</time>
      </trkpt>
      <trkpt lat="37.392729000" lon="-4.766128000">
        <ele>218.2</ele>
        <time>2020-10-16T08:20:14Z</time>
      </trkpt>
      <trkpt lat="37.392609000" lon="-4.766115000">
        <ele>218.5</ele>
        <time>2020-10-16T08:20:17Z</time>
      </trkpt>
      <trkpt lat="37.392513000" lon="-4.766097000">
        <ele>218.6</ele>
        <time>2020-10-16T08:20:19Z</time>
      </trkpt>
      <trkpt lat="37.392385000" lon="-4.766064000">
        <ele>218.8</ele>
        <time>2020-10-16T08:20:22Z</time>
      </trkpt>
      <trkpt lat="37.392284000" lon="-4.766023000">
        <ele>219.0</ele>
        <time>2020-10-16T08:20:24Z</time>
      </trkpt>
      <trkpt lat="37.392206000" lon="-4.765985000">
        <ele>219.1</ele>
        <time>2020-10-16T08:20:30Z</time>
      </trkpt>
      <trkpt lat="37.392108000" lon="-4.765996000">
        <ele>219.2</ele>
        <time>2020-10-16T08:20:34Z</time>
      </trkpt>
      <trkpt lat="37.392033000" lon="-4.766050000">
        <ele>219.2</ele>
        <time>2020-10-16T08:20:37Z</time>
      </trkpt>
      <trkpt lat="37.391959000" lon="-4.766092000">
        <ele>219.2</ele>
        <time>2020-10-16T08:20:40Z</time>
      </trkpt>
      <trkpt lat="37.391911000" lon="-4.766185000">
        <ele>219.2</ele>
        <time>2020-10-16T08:20:44Z</time>
      </trkpt>
      <trkpt lat="37.391862000" lon="-4.766290000">
        <ele>219.1</ele>
        <time>2020-10-16T08:20:48Z</time>
      </trkpt>
      <trkpt lat="37.391818000" lon="-4.766392000">
        <ele>219.1</ele>
        <time>2020-10-16T08:20:52Z</time>
      </trkpt>
      <trkpt lat="37.391754000" lon="-4.766470000">
        <ele>219.2</ele>
        <time>2020-10-16T08:20:56Z</time>
      </trkpt>
      <trkpt lat="37.391731000" lon="-4.766575000">
        <ele>219.4</ele>
        <time>2020-10-16T08:21:01Z</time>
      </trkpt>
      <trkpt lat="37.391681000" lon="-4.766697000">
        <ele>219.6</ele>
        <time>2020-10-16T08:21:05Z</time>
      </trkpt>
      <trkpt lat="37.391635000" lon="-4.766808000">
        <ele>219.9</ele>
        <time>2020-10-16T08:21:08Z</time>
      </trkpt>
      <trkpt lat="37.391589000" lon="-4.766916000">
        <ele>220.3</ele>
        <time>2020-10-16T08:21:11Z</time>
      </trkpt>
      <trkpt lat="37.391548000" lon="-4.767026000">
        <ele>220.6</ele>
        <time>2020-10-16T08:21:14Z</time>
      </trkpt>
      <trkpt lat="37.391502000" lon="-4.767134000">
        <ele>221.0</ele>
        <time>2020-10-16T08:21:17Z</time>
      </trkpt>
      <trkpt lat="37.391455000" lon="-4.767238000">
        <ele>221.4</ele>
        <time>2020-10-16T08:21:20Z</time>
      </trkpt>
      <trkpt lat="37.391412000" lon="-4.767368000">
        <ele>221.7</ele>
        <time>2020-10-16T08:21:23Z</time>
      </trkpt>
      <trkpt lat="37.391373000" lon="-4.767495000">
        <ele>222.1</ele>
        <time>2020-10-16T08:21:26Z</time>
      </trkpt>
      <trkpt lat="37.391326000" lon="-4.767609000">
        <ele>222.3</ele>
        <time>2020-10-16T08:21:29Z</time>
      </trkpt>
      <trkpt lat="37.391276000" lon="-4.767720000">
        <ele>222.5</ele>
        <time>2020-10-16T08:21:32Z</time>
      </trkpt>
      <trkpt lat="37.391226000" lon="-4.767838000">
        <ele>222.5</ele>
        <time>2020-10-16T08:21:35Z</time>
      </trkpt>
      <trkpt lat="37.391178000" lon="-4.767939000">
        <ele>222.5</ele>
        <time>2020-10-16T08:21:38Z</time>
      </trkpt>
      <trkpt lat="37.391123000" lon="-4.768040000">
        <ele>222.5</ele>
        <time>2020-10-16T08:21:41Z</time>
      </trkpt>
      <trkpt lat="37.391063000" lon="-4.768152000">
        <ele>222.5</ele>
        <time>2020-10-16T08:21:44Z</time>
      </trkpt>
      <trkpt lat="37.391007000" lon="-4.768249000">
        <ele>222.5</ele>
        <time>2020-10-16T08:21:47Z</time>
      </trkpt>
      <trkpt lat="37.390952000" lon="-4.768359000">
        <ele>222.5</ele>
        <time>2020-10-16T08:21:53Z</time>
      </trkpt>
      <trkpt lat="37.390889000" lon="-4.768463000">
        <ele>222.5</ele>
        <time>2020-10-16T08:21:56Z</time>
      </trkpt>
      <trkpt lat="37.390848000" lon="-4.768553000">
        <ele>222.5</ele>
        <time>2020-10-16T08:21:58Z</time>
      </trkpt>
      <trkpt lat="37.390793000" lon="-4.768692000">
        <ele>222.5</ele>
        <time>2020-10-16T08:22:01Z</time>
      </trkpt>
      <trkpt lat="37.390743000" lon="-4.768821000">
        <ele>222.6</ele>
        <time>2020-10-16T08:22:04Z</time>
      </trkpt>
      <trkpt lat="37.390700000" lon="-4.768913000">
        <ele>222.8</ele>
        <time>2020-10-16T08:22:10Z</time>
      </trkpt>
      <trkpt lat="37.390664000" lon="-4.769030000">
        <ele>222.9</ele>
        <time>2020-10-16T08:22:14Z</time>
      </trkpt>
      <trkpt lat="37.390638000" lon="-4.769152000">
        <ele>223.0</ele>
        <time>2020-10-16T08:22:17Z</time>
      </trkpt>
      <trkpt lat="37.390602000" lon="-4.769246000">
        <ele>223.1</ele>
        <time>2020-10-16T08:22:19Z</time>
      </trkpt>
      <trkpt lat="37.390572000" lon="-4.769345000">
        <ele>223.2</ele>
        <time>2020-10-16T08:22:21Z</time>
      </trkpt>
      <trkpt lat="37.390527000" lon="-4.769487000">
        <ele>223.2</ele>
        <time>2020-10-16T08:22:24Z</time>
      </trkpt>
      <trkpt lat="37.390497000" lon="-4.769589000">
        <ele>223.2</ele>
        <time>2020-10-16T08:22:26Z</time>
      </trkpt>
      <trkpt lat="37.390452000" lon="-4.769704000">
        <ele>223.2</ele>
        <time>2020-10-16T08:22:29Z</time>
      </trkpt>
      <trkpt lat="37.390413000" lon="-4.769819000">
        <ele>223.1</ele>
        <time>2020-10-16T08:22:32Z</time>
      </trkpt>
      <trkpt lat="37.390380000" lon="-4.769938000">
        <ele>223.0</ele>
        <time>2020-10-16T08:22:35Z</time>
      </trkpt>
      <trkpt lat="37.390337000" lon="-4.770077000">
        <ele>222.8</ele>
        <time>2020-10-16T08:22:38Z</time>
      </trkpt>
      <trkpt lat="37.390287000" lon="-4.770213000">
        <ele>222.7</ele>
        <time>2020-10-16T08:22:41Z</time>
      </trkpt>
      <trkpt lat="37.390244000" lon="-4.770345000">
        <ele>222.7</ele>
        <time>2020-10-16T08:22:44Z</time>
      </trkpt>
      <trkpt lat="37.390201000" lon="-4.770476000">
        <ele>222.7</ele>
        <time>2020-10-16T08:22:47Z</time>
      </trkpt>
      <trkpt lat="37.390155000" lon="-4.770593000">
        <ele>222.7</ele>
        <time>2020-10-16T08:22:50Z</time>
      </trkpt>
      <trkpt lat="37.390097000" lon="-4.770706000">
        <ele>222.7</ele>
        <time>2020-10-16T08:22:53Z</time>
      </trkpt>
      <trkpt lat="37.390044000" lon="-4.770797000">
        <ele>222.8</ele>
        <time>2020-10-16T08:22:55Z</time>
      </trkpt>
      <trkpt lat="37.390005000" lon="-4.770916000">
        <ele>222.9</ele>
        <time>2020-10-16T08:22:58Z</time>
      </trkpt>
      <trkpt lat="37.389965000" lon="-4.771024000">
        <ele>223.0</ele>
        <time>2020-10-16T08:23:01Z</time>
      </trkpt>
      <trkpt lat="37.389932000" lon="-4.771138000">
        <ele>223.2</ele>
        <time>2020-10-16T08:23:04Z</time>
      </trkpt>
      <trkpt lat="37.389902000" lon="-4.771238000">
        <ele>223.5</ele>
        <time>2020-10-16T08:23:07Z</time>
      </trkpt>
      <trkpt lat="37.389867000" lon="-4.771345000">
        <ele>223.7</ele>
        <time>2020-10-16T08:23:10Z</time>
      </trkpt>
      <trkpt lat="37.389844000" lon="-4.771444000">
        <ele>223.9</ele>
        <time>2020-10-16T08:23:13Z</time>
      </trkpt>
      <trkpt lat="37.389832000" lon="-4.771577000">
        <ele>224.0</ele>
        <time>2020-10-16T08:23:17Z</time>
      </trkpt>
      <trkpt lat="37.389833000" lon="-4.771679000">
        <ele>224.1</ele>
        <time>2020-10-16T08:23:23Z</time>
      </trkpt>
      <trkpt lat="37.389740000" lon="-4.771695000">
        <ele>224.1</ele>
        <time>2020-10-16T08:23:53Z</time>
      </trkpt>
      <trkpt lat="37.389661000" lon="-4.771749000">
        <ele>224.1</ele>
        <time>2020-10-16T08:23:58Z</time>
      </trkpt>
      <trkpt lat="37.389607000" lon="-4.771831000">
        <ele>223.9</ele>
        <time>2020-10-16T08:24:01Z</time>
      </trkpt>
      <trkpt lat="37.389555000" lon="-4.771931000">
        <ele>223.7</ele>
        <time>2020-10-16T08:24:04Z</time>
      </trkpt>
      <trkpt lat="37.389504000" lon="-4.772046000">
        <ele>223.5</ele>
        <time>2020-10-16T08:24:07Z</time>
      </trkpt>
      <trkpt lat="37.389456000" lon="-4.772178000">
        <ele>223.4</ele>
        <time>2020-10-16T08:24:10Z</time>
      </trkpt>
      <trkpt lat="37.389428000" lon="-4.772285000">
        <ele>223.1</ele>
        <time>2020-10-16T08:24:12Z</time>
      </trkpt>
      <trkpt lat="37.389386000" lon="-4.772402000">
        <ele>222.7</ele>
        <time>2020-10-16T08:24:14Z</time>
      </trkpt>
      <trkpt lat="37.389354000" lon="-4.772520000">
        <ele>222.4</ele>
        <time>2020-10-16T08:24:16Z</time>
      </trkpt>
      <trkpt lat="37.389302000" lon="-4.772630000">
        <ele>222.1</ele>
        <time>2020-10-16T08:24:18Z</time>
      </trkpt>
      <trkpt lat="37.389233000" lon="-4.772733000">
        <ele>221.8</ele>
        <time>2020-10-16T08:24:20Z</time>
      </trkpt>
      <trkpt lat="37.389167000" lon="-4.772841000">
        <ele>221.5</ele>
        <time>2020-10-16T08:24:22Z</time>
      </trkpt>
      <trkpt lat="37.389103000" lon="-4.772946000">
        <ele>221.3</ele>
        <time>2020-10-16T08:24:24Z</time>
      </trkpt>
      <trkpt lat="37.389045000" lon="-4.773055000">
        <ele>221.0</ele>
        <time>2020-10-16T08:24:26Z</time>
      </trkpt>
      <trkpt lat="37.388990000" lon="-4.773146000">
        <ele>220.7</ele>
        <time>2020-10-16T08:24:28Z</time>
      </trkpt>
      <trkpt lat="37.388954000" lon="-4.773255000">
        <ele>220.5</ele>
        <time>2020-10-16T08:24:30Z</time>
      </trkpt>
      <trkpt lat="37.388921000" lon="-4.773354000">
        <ele>220.1</ele>
        <time>2020-10-16T08:24:32Z</time>
      </trkpt>
      <trkpt lat="37.388892000" lon="-4.773455000">
        <ele>219.7</ele>
        <time>2020-10-16T08:24:34Z</time>
      </trkpt>
      <trkpt lat="37.388868000" lon="-4.773569000">
        <ele>219.4</ele>
        <time>2020-10-16T08:24:36Z</time>
      </trkpt>
      <trkpt lat="37.388832000" lon="-4.773670000">
        <ele>218.9</ele>
        <time>2020-10-16T08:24:38Z</time>
      </trkpt>
      <trkpt lat="37.388794000" lon="-4.773782000">
        <ele>218.4</ele>
        <time>2020-10-16T08:24:41Z</time>
      </trkpt>
      <trkpt lat="37.388766000" lon="-4.773885000">
        <ele>217.7</ele>
        <time>2020-10-16T08:24:44Z</time>
      </trkpt>
      <trkpt lat="37.388719000" lon="-4.773986000">
        <ele>217.1</ele>
        <time>2020-10-16T08:24:50Z</time>
      </trkpt>
      <trkpt lat="37.388691000" lon="-4.774088000">
        <ele>216.5</ele>
        <time>2020-10-16T08:24:53Z</time>
      </trkpt>
      <trkpt lat="37.388644000" lon="-4.774204000">
        <ele>215.9</ele>
        <time>2020-10-16T08:24:56Z</time>
      </trkpt>
      <trkpt lat="37.388624000" lon="-4.774317000">
        <ele>215.4</ele>
        <time>2020-10-16T08:24:58Z</time>
      </trkpt>
      <trkpt lat="37.388619000" lon="-4.774425000">
        <ele>214.8</ele>
        <time>2020-10-16T08:25:00Z</time>
      </trkpt>
      <trkpt lat="37.388624000" lon="-4.774560000">
        <ele>214.3</ele>
        <time>2020-10-16T08:25:03Z</time>
      </trkpt>
      <trkpt lat="37.388601000" lon="-4.774681000">
        <ele>213.7</ele>
        <time>2020-10-16T08:25:07Z</time>
      </trkpt>
      <trkpt lat="37.388571000" lon="-4.774805000">
        <ele>213.2</ele>
        <time>2020-10-16T08:25:11Z</time>
      </trkpt>
      <trkpt lat="37.388536000" lon="-4.774922000">
        <ele>212.6</ele>
        <time>2020-10-16T08:25:14Z</time>
      </trkpt>
      <trkpt lat="37.388497000" lon="-4.775061000">
        <ele>212.1</ele>
        <time>2020-10-16T08:25:17Z</time>
      </trkpt>
      <trkpt lat="37.388480000" lon="-4.775166000">
        <ele>211.5</ele>
        <time>2020-10-16T08:25:19Z</time>
      </trkpt>
      <trkpt lat="37.388456000" lon="-4.775268000">
        <ele>211.0</ele>
        <time>2020-10-16T08:25:21Z</time>
      </trkpt>
      <trkpt lat="37.388422000" lon="-4.775387000">
        <ele>210.5</ele>
        <time>2020-10-16T08:25:24Z</time>
      </trkpt>
      <trkpt lat="37.388400000" lon="-4.775486000">
        <ele>209.9</ele>
        <time>2020-10-16T08:25:27Z</time>
      </trkpt>
      <trkpt lat="37.388369000" lon="-4.775611000">
        <ele>209.3</ele>
        <time>2020-10-16T08:25:31Z</time>
      </trkpt>
      <trkpt lat="37.388336000" lon="-4.775733000">
        <ele>208.5</ele>
        <time>2020-10-16T08:25:34Z</time>
      </trkpt>
      <trkpt lat="37.388306000" lon="-4.775851000">
        <ele>207.8</ele>
        <time>2020-10-16T08:25:37Z</time>
      </trkpt>
      <trkpt lat="37.388281000" lon="-4.775975000">
        <ele>207.0</ele>
        <time>2020-10-16T08:25:40Z</time>
      </trkpt>
      <trkpt lat="37.388270000" lon="-4.776109000">
        <ele>206.2</ele>
        <time>2020-10-16T08:25:43Z</time>
      </trkpt>
      <trkpt lat="37.388251000" lon="-4.776217000">
        <ele>205.4</ele>
        <time>2020-10-16T08:25:46Z</time>
      </trkpt>
      <trkpt lat="37.388248000" lon="-4.776344000">
        <ele>204.6</ele>
        <time>2020-10-16T08:25:49Z</time>
      </trkpt>
      <trkpt lat="37.388251000" lon="-4.776447000">
        <ele>204.0</ele>
        <time>2020-10-16T08:25:51Z</time>
      </trkpt>
      <trkpt lat="37.388244000" lon="-4.776590000">
        <ele>203.4</ele>
        <time>2020-10-16T08:25:54Z</time>
      </trkpt>
      <trkpt lat="37.388248000" lon="-4.776699000">
        <ele>202.7</ele>
        <time>2020-10-16T08:25:57Z</time>
      </trkpt>
      <trkpt lat="37.388307000" lon="-4.776784000">
        <ele>202.1</ele>
        <time>2020-10-16T08:26:03Z</time>
      </trkpt>
      <trkpt lat="37.388389000" lon="-4.776769000">
        <ele>201.5</ele>
        <time>2020-10-16T08:26:06Z</time>
      </trkpt>
      <trkpt lat="37.388486000" lon="-4.776748000">
        <ele>200.8</ele>
        <time>2020-10-16T08:26:09Z</time>
      </trkpt>
      <trkpt lat="37.388576000" lon="-4.776748000">
        <ele>200.2</ele>
        <time>2020-10-16T08:26:12Z</time>
      </trkpt>
      <trkpt lat="37.388484000" lon="-4.776770000">
        <ele>199.5</ele>
        <time>2020-10-16T08:26:36Z</time>
      </trkpt>
      <trkpt lat="37.388395000" lon="-4.776828000">
        <ele>198.9</ele>
        <time>2020-10-16T08:26:41Z</time>
      </trkpt>
      <trkpt lat="37.388347000" lon="-4.776922000">
        <ele>198.3</ele>
        <time>2020-10-16T08:26:45Z</time>
      </trkpt>
      <trkpt lat="37.388288000" lon="-4.777012000">
        <ele>197.5</ele>
        <time>2020-10-16T08:26:49Z</time>
      </trkpt>
      <trkpt lat="37.388235000" lon="-4.777092000">
        <ele>196.5</ele>
        <time>2020-10-16T08:26:53Z</time>
      </trkpt>
      <trkpt lat="37.388163000" lon="-4.777152000">
        <ele>195.6</ele>
        <time>2020-10-16T08:26:57Z</time>
      </trkpt>
      <trkpt lat="37.388089000" lon="-4.777239000">
        <ele>194.5</ele>
        <time>2020-10-16T08:27:01Z</time>
      </trkpt>
      <trkpt lat="37.388031000" lon="-4.777340000">
        <ele>193.4</ele>
        <time>2020-10-16T08:27:05Z</time>
      </trkpt>
      <trkpt lat="37.387970000" lon="-4.777430000">
        <ele>192.2</ele>
        <time>2020-10-16T08:27:09Z</time>
      </trkpt>
      <trkpt lat="37.387912000" lon="-4.777538000">
        <ele>191.0</ele>
        <time>2020-10-16T08:27:13Z</time>
      </trkpt>
      <trkpt lat="37.387849000" lon="-4.777642000">
        <ele>189.8</ele>
        <time>2020-10-16T08:27:17Z</time>
      </trkpt>
      <trkpt lat="37.387793000" lon="-4.777737000">
        <ele>188.6</ele>
        <time>2020-10-16T08:27:20Z</time>
      </trkpt>
      <trkpt lat="37.387742000" lon="-4.777826000">
        <ele>187.3</ele>
        <time>2020-10-16T08:27:23Z</time>
      </trkpt>
      <trkpt lat="37.387677000" lon="-4.777896000">
        <ele>185.9</ele>
        <time>2020-10-16T08:27:27Z</time>
      </trkpt>
      <trkpt lat="37.387600000" lon="-4.777981000">
        <ele>184.6</ele>
        <time>2020-10-16T08:27:31Z</time>
      </trkpt>
      <trkpt lat="37.387539000" lon="-4.778057000">
        <ele>183.4</ele>
        <time>2020-10-16T08:27:34Z</time>
      </trkpt>
      <trkpt lat="37.387487000" lon="-4.778142000">
        <ele>182.1</ele>
        <time>2020-10-16T08:27:37Z</time>
      </trkpt>
      <trkpt lat="37.387432000" lon="-4.778262000">
        <ele>180.9</ele>
        <time>2020-10-16T08:27:41Z</time>
      </trkpt>
      <trkpt lat="37.387397000" lon="-4.778369000">
        <ele>179.7</ele>
        <time>2020-10-16T08:27:46Z</time>
      </trkpt>
      <trkpt lat="37.387423000" lon="-4.778473000">
        <ele>178.6</ele>
        <time>2020-10-16T08:27:50Z</time>
      </trkpt>
      <trkpt lat="37.387459000" lon="-4.778571000">
        <ele>177.5</ele>
        <time>2020-10-16T08:27:53Z</time>
      </trkpt>
      <trkpt lat="37.387484000" lon="-4.778681000">
        <ele>176.4</ele>
        <time>2020-10-16T08:27:56Z</time>
      </trkpt>
      <trkpt lat="37.387468000" lon="-4.778798000">
        <ele>175.1</ele>
        <time>2020-10-16T08:28:01Z</time>
      </trkpt>
      <trkpt lat="37.387441000" lon="-4.778902000">
        <ele>173.9</ele>
        <time>2020-10-16T08:28:14Z</time>
      </trkpt>
      <trkpt lat="37.387508000" lon="-4.778990000">
        <ele>172.6</ele>
        <time>2020-10-16T08:28:20Z</time>
      </trkpt>
      <trkpt lat="37.387568000" lon="-4.779095000">
        <ele>171.3</ele>
        <time>2020-10-16T08:28:24Z</time>
      </trkpt>
      <trkpt lat="37.387570000" lon="-4.779219000">
        <ele>169.9</ele>
        <time>2020-10-16T08:28:29Z</time>
      </trkpt>
      <trkpt lat="37.387498000" lon="-4.779288000">
        <ele>168.6</ele>
        <time>2020-10-16T08:28:34Z</time>
      </trkpt>
      <trkpt lat="37.387418000" lon="-4.779322000">
        <ele>167.5</ele>
        <time>2020-10-16T08:28:38Z</time>
      </trkpt>
      <trkpt lat="37.387341000" lon="-4.779377000">
        <ele>166.6</ele>
        <time>2020-10-16T08:28:42Z</time>
      </trkpt>
      <trkpt lat="37.387271000" lon="-4.779436000">
        <ele>165.8</ele>
        <time>2020-10-16T08:28:46Z</time>
      </trkpt>
      <trkpt lat="37.387203000" lon="-4.779500000">
        <ele>165.4</ele>
        <time>2020-10-16T08:28:50Z</time>
      </trkpt>
      <trkpt lat="37.387126000" lon="-4.779571000">
        <ele>165.3</ele>
        <time>2020-10-16T08:28:54Z</time>
      </trkpt>
      <trkpt lat="37.387053000" lon="-4.779627000">
        <ele>165.5</ele>
        <time>2020-10-16T08:28:57Z</time>
      </trkpt>
      <trkpt lat="37.386980000" lon="-4.779700000">
        <ele>165.9</ele>
        <time>2020-10-16T08:29:00Z</time>
      </trkpt>
      <trkpt lat="37.386899000" lon="-4.779779000">
        <ele>166.6</ele>
        <time>2020-10-16T08:29:03Z</time>
      </trkpt>
      <trkpt lat="37.386795000" lon="-4.779855000">
        <ele>167.6</ele>
        <time>2020-10-16T08:29:06Z</time>
      </trkpt>
      <trkpt lat="37.386716000" lon="-4.779878000">
        <ele>168.7</ele>
        <time>2020-10-16T08:29:08Z</time>
      </trkpt>
      <trkpt lat="37.386616000" lon="-4.779875000">
        <ele>169.8</ele>
        <time>2020-10-16T08:29:11Z</time>
      </trkpt>
      <trkpt lat="37.386524000" lon="-4.779860000">
        <ele>170.8</ele>
        <time>2020-10-16T08:29:14Z</time>
      </trkpt>
      <trkpt lat="37.386430000" lon="-4.779840000">
        <ele>171.6</ele>
        <time>2020-10-16T08:29:17Z</time>
      </trkpt>
      <trkpt lat="37.386314000" lon="-4.779829000">
        <ele>172.4</ele>
        <time>2020-10-16T08:29:20Z</time>
      </trkpt>
      <trkpt lat="37.386231000" lon="-4.779829000">
        <ele>172.8</ele>
        <time>2020-10-16T08:29:22Z</time>
      </trkpt>
      <trkpt lat="37.386131000" lon="-4.779835000">
        <ele>173.1</ele>
        <time>2020-10-16T08:29:24Z</time>
      </trkpt>
      <trkpt lat="37.386035000" lon="-4.779841000">
        <ele>173.2</ele>
        <time>2020-10-16T08:29:26Z</time>
      </trkpt>
      <trkpt lat="37.385919000" lon="-4.779868000">
        <ele>173.2</ele>
        <time>2020-10-16T08:29:28Z</time>
      </trkpt>
      <trkpt lat="37.385796000" lon="-4.779896000">
        <ele>173.0</ele>
        <time>2020-10-16T08:29:30Z</time>
      </trkpt>
      <trkpt lat="37.385668000" lon="-4.779913000">
        <ele>172.8</ele>
        <time>2020-10-16T08:29:32Z</time>
      </trkpt>
      <trkpt lat="37.385554000" lon="-4.779934000">
        <ele>172.6</ele>
        <time>2020-10-16T08:29:34Z</time>
      </trkpt>
      <trkpt lat="37.385446000" lon="-4.779965000">
        <ele>172.5</ele>
        <time>2020-10-16T08:29:36Z</time>
      </trkpt>
      <trkpt lat="37.385352000" lon="-4.779991000">
        <ele>172.3</ele>
        <time>2020-10-16T08:29:38Z</time>
      </trkpt>
      <trkpt lat="37.385256000" lon="-4.780044000">
        <ele>172.1</ele>
        <time>2020-10-16T08:29:40Z</time>
      </trkpt>
      <trkpt lat="37.385216000" lon="-4.780140000">
        <ele>171.9</ele>
        <time>2020-10-16T08:29:42Z</time>
      </trkpt>
      <trkpt lat="37.385148000" lon="-4.780229000">
        <ele>171.7</ele>
        <time>2020-10-16T08:29:46Z</time>
      </trkpt>
      <trkpt lat="37.385062000" lon="-4.780231000">
        <ele>171.5</ele>
        <time>2020-10-16T08:29:49Z</time>
      </trkpt>
      <trkpt lat="37.384954000" lon="-4.780256000">
        <ele>171.5</ele>
        <time>2020-10-16T08:29:52Z</time>
      </trkpt>
      <trkpt lat="37.384835000" lon="-4.780280000">
        <ele>171.4</ele>
        <time>2020-10-16T08:29:55Z</time>
      </trkpt>
      <trkpt lat="37.384753000" lon="-4.780303000">
        <ele>171.4</ele>
        <time>2020-10-16T08:29:57Z</time>
      </trkpt>
      <trkpt lat="37.384670000" lon="-4.780323000">
        <ele>171.3</ele>
        <time>2020-10-16T08:29:59Z</time>
      </trkpt>
      <trkpt lat="37.384586000" lon="-4.780345000">
        <ele>171.1</ele>
        <time>2020-10-16T08:30:01Z</time>
      </trkpt>
      <trkpt lat="37.384502000" lon="-4.780358000">
        <ele>170.9</ele>
        <time>2020-10-16T08:30:03Z</time>
      </trkpt>
      <trkpt lat="37.384383000" lon="-4.780372000">
        <ele>170.6</ele>
        <time>2020-10-16T08:30:06Z</time>
      </trkpt>
      <trkpt lat="37.384265000" lon="-4.780385000">
        <ele>170.5</ele>
        <time>2020-10-16T08:30:09Z</time>
      </trkpt>
      <trkpt lat="37.384152000" lon="-4.780405000">
        <ele>170.5</ele>
        <time>2020-10-16T08:30:12Z</time>
      </trkpt>
      <trkpt lat="37.384044000" lon="-4.780427000">
        <ele>170.4</ele>
        <time>2020-10-16T08:30:15Z</time>
      </trkpt>
      <trkpt lat="37.383931000" lon="-4.780461000">
        <ele>170.4</ele>
        <time>2020-10-16T08:30:18Z</time>
      </trkpt>
      <trkpt lat="37.383850000" lon="-4.780484000">
        <ele>170.5</ele>
        <time>2020-10-16T08:30:20Z</time>
      </trkpt>
      <trkpt lat="37.383770000" lon="-4.780513000">
        <ele>170.5</ele>
        <time>2020-10-16T08:30:22Z</time>
      </trkpt>
      <trkpt lat="37.383694000" lon="-4.780548000">
        <ele>170.7</ele>
        <time>2020-10-16T08:30:24Z</time>
      </trkpt>
      <trkpt lat="37.383613000" lon="-4.780582000">
        <ele>171.0</ele>
        <time>2020-10-16T08:30:26Z</time>
      </trkpt>
      <trkpt lat="37.383535000" lon="-4.780619000">
        <ele>171.4</ele>
        <time>2020-10-16T08:30:28Z</time>
      </trkpt>
      <trkpt lat="37.383423000" lon="-4.780663000">
        <ele>171.7</ele>
        <time>2020-10-16T08:30:31Z</time>
      </trkpt>
      <trkpt lat="37.383349000" lon="-4.780707000">
        <ele>172.3</ele>
        <time>2020-10-16T08:30:33Z</time>
      </trkpt>
      <trkpt lat="37.383242000" lon="-4.780765000">
        <ele>172.7</ele>
        <time>2020-10-16T08:30:36Z</time>
      </trkpt>
      <trkpt lat="37.383163000" lon="-4.780803000">
        <ele>173.2</ele>
        <time>2020-10-16T08:30:38Z</time>
      </trkpt>
      <trkpt lat="37.383079000" lon="-4.780836000">
        <ele>173.7</ele>
        <time>2020-10-16T08:30:40Z</time>
      </trkpt>
      <trkpt lat="37.383000000" lon="-4.780876000">
        <ele>174.2</ele>
        <time>2020-10-16T08:30:42Z</time>
      </trkpt>
      <trkpt lat="37.382891000" lon="-4.780924000">
        <ele>174.5</ele>
        <time>2020-10-16T08:30:45Z</time>
      </trkpt>
      <trkpt lat="37.382781000" lon="-4.780973000">
        <ele>174.9</ele>
        <time>2020-10-16T08:30:48Z</time>
      </trkpt>
      <trkpt lat="37.382666000" lon="-4.780998000">
        <ele>175.2</ele>
        <time>2020-10-16T08:30:51Z</time>
      </trkpt>
      <trkpt lat="37.382552000" lon="-4.781033000">
        <ele>175.4</ele>
        <time>2020-10-16T08:30:54Z</time>
      </trkpt>
      <trkpt lat="37.382435000" lon="-4.781064000">
        <ele>175.5</ele>
        <time>2020-10-16T08:30:57Z</time>
      </trkpt>
      <trkpt lat="37.382326000" lon="-4.781098000">
        <ele>175.7</ele>
        <time>2020-10-16T08:31:00Z</time>
      </trkpt>
      <trkpt lat="37.382228000" lon="-4.781137000">
        <ele>175.8</ele>
        <time>2020-10-16T08:31:03Z</time>
      </trkpt>
      <trkpt lat="37.382132000" lon="-4.781154000">
        <ele>175.9</ele>
        <time>2020-10-16T08:31:06Z</time>
      </trkpt>
      <trkpt lat="37.382042000" lon="-4.781159000">
        <ele>176.0</ele>
        <time>2020-10-16T08:31:09Z</time>
      </trkpt>
      <trkpt lat="37.381956000" lon="-4.781196000">
        <ele>176.0</ele>
        <time>2020-10-16T08:31:12Z</time>
      </trkpt>
      <trkpt lat="37.381870000" lon="-4.781211000">
        <ele>176.0</ele>
        <time>2020-10-16T08:31:15Z</time>
      </trkpt>
      <trkpt lat="37.381772000" lon="-4.781217000">
        <ele>176.1</ele>
        <time>2020-10-16T08:31:18Z</time>
      </trkpt>
      <trkpt lat="37.381674000" lon="-4.781220000">
        <ele>176.3</ele>
        <time>2020-10-16T08:31:21Z</time>
      </trkpt>
      <trkpt lat="37.381574000" lon="-4.781223000">
        <ele>176.5</ele>
        <time>2020-10-16T08:31:24Z</time>
      </trkpt>
      <trkpt lat="37.381473000" lon="-4.781228000">
        <ele>176.6</ele>
        <time>2020-10-16T08:31:27Z</time>
      </trkpt>
      <trkpt lat="37.381377000" lon="-4.781233000">
        <ele>176.8</ele>
        <time>2020-10-16T08:31:30Z</time>
      </trkpt>
      <trkpt lat="37.381272000" lon="-4.781244000">
        <ele>177.0</ele>
        <time>2020-10-16T08:31:33Z</time>
      </trkpt>
      <trkpt lat="37.381169000" lon="-4.781254000">
        <ele>177.2</ele>
        <time>2020-10-16T08:31:36Z</time>
      </trkpt>
      <trkpt lat="37.381047000" lon="-4.781223000">
        <ele>177.3</ele>
        <time>2020-10-16T08:31:39Z</time>
      </trkpt>
      <trkpt lat="37.380954000" lon="-4.781210000">
        <ele>177.4</ele>
        <time>2020-10-16T08:31:41Z</time>
      </trkpt>
      <trkpt lat="37.380859000" lon="-4.781206000">
        <ele>177.5</ele>
        <time>2020-10-16T08:31:43Z</time>
      </trkpt>
      <trkpt lat="37.380767000" lon="-4.781197000">
        <ele>177.5</ele>
        <time>2020-10-16T08:31:45Z</time>
      </trkpt>
      <trkpt lat="37.380675000" lon="-4.781197000">
        <ele>177.6</ele>
        <time>2020-10-16T08:31:47Z</time>
      </trkpt>
      <trkpt lat="37.380587000" lon="-4.781194000">
        <ele>177.6</ele>
        <time>2020-10-16T08:31:49Z</time>
      </trkpt>
      <trkpt lat="37.380500000" lon="-4.781207000">
        <ele>177.7</ele>
        <time>2020-10-16T08:31:51Z</time>
      </trkpt>
      <trkpt lat="37.380413000" lon="-4.781219000">
        <ele>177.8</ele>
        <time>2020-10-16T08:31:53Z</time>
      </trkpt>
      <trkpt lat="37.380325000" lon="-4.781240000">
        <ele>177.9</ele>
        <time>2020-10-16T08:31:55Z</time>
      </trkpt>
      <trkpt lat="37.380242000" lon="-4.781275000">
        <ele>178.1</ele>
        <time>2020-10-16T08:31:57Z</time>
      </trkpt>
      <trkpt lat="37.380159000" lon="-4.781309000">
        <ele>178.3</ele>
        <time>2020-10-16T08:31:59Z</time>
      </trkpt>
      <trkpt lat="37.380074000" lon="-4.781346000">
        <ele>178.5</ele>
        <time>2020-10-16T08:32:01Z</time>
      </trkpt>
      <trkpt lat="37.379985000" lon="-4.781378000">
        <ele>178.8</ele>
        <time>2020-10-16T08:32:03Z</time>
      </trkpt>
      <trkpt lat="37.379900000" lon="-4.781414000">
        <ele>179.1</ele>
        <time>2020-10-16T08:32:05Z</time>
      </trkpt>
      <trkpt lat="37.379811000" lon="-4.781441000">
        <ele>179.4</ele>
        <time>2020-10-16T08:32:07Z</time>
      </trkpt>
      <trkpt lat="37.379720000" lon="-4.781466000">
        <ele>179.6</ele>
        <time>2020-10-16T08:32:09Z</time>
      </trkpt>
      <trkpt lat="37.379632000" lon="-4.781500000">
        <ele>179.9</ele>
        <time>2020-10-16T08:32:11Z</time>
      </trkpt>
      <trkpt lat="37.379545000" lon="-4.781534000">
        <ele>180.1</ele>
        <time>2020-10-16T08:32:13Z</time>
      </trkpt>
      <trkpt lat="37.379453000" lon="-4.781564000">
        <ele>180.3</ele>
        <time>2020-10-16T08:32:15Z</time>
      </trkpt>
      <trkpt lat="37.379365000" lon="-4.781597000">
        <ele>180.5</ele>
        <time>2020-10-16T08:32:17Z</time>
      </trkpt>
      <trkpt lat="37.379282000" lon="-4.781629000">
        <ele>180.7</ele>
        <time>2020-10-16T08:32:19Z</time>
      </trkpt>
      <trkpt lat="37.379192000" lon="-4.781658000">
        <ele>180.9</ele>
        <time>2020-10-16T08:32:21Z</time>
      </trkpt>
      <trkpt lat="37.379110000" lon="-4.781689000">
        <ele>181.1</ele>
        <time>2020-10-16T08:32:23Z</time>
      </trkpt>
      <trkpt lat="37.379028000" lon="-4.781715000">
        <ele>181.3</ele>
        <time>2020-10-16T08:32:25Z</time>
      </trkpt>
      <trkpt lat="37.378924000" lon="-4.781750000">
        <ele>181.5</ele>
        <time>2020-10-16T08:32:28Z</time>
      </trkpt>
      <trkpt lat="37.378836000" lon="-4.781784000">
        <ele>181.6</ele>
        <time>2020-10-16T08:32:31Z</time>
      </trkpt>
      <trkpt lat="37.378754000" lon="-4.781834000">
        <ele>181.7</ele>
        <time>2020-10-16T08:32:35Z</time>
      </trkpt>
      <trkpt lat="37.378664000" lon="-4.781864000">
        <ele>181.9</ele>
        <time>2020-10-16T08:32:39Z</time>
      </trkpt>
      <trkpt lat="37.378594000" lon="-4.781919000">
        <ele>182.2</ele>
        <time>2020-10-16T08:34:19Z</time>
      </trkpt>
      <trkpt lat="37.378511000" lon="-4.781911000">
        <ele>182.5</ele>
        <time>2020-10-16T08:34:34Z</time>
      </trkpt>
      <trkpt lat="37.378428000" lon="-4.781935000">
        <ele>182.7</ele>
        <time>2020-10-16T08:34:43Z</time>
      </trkpt>
      <trkpt lat="37.378349000" lon="-4.781961000">
        <ele>183.1</ele>
        <time>2020-10-16T08:34:47Z</time>
      </trkpt>
      <trkpt lat="37.378253000" lon="-4.781990000">
        <ele>183.5</ele>
        <time>2020-10-16T08:34:51Z</time>
      </trkpt>
      <trkpt lat="37.378174000" lon="-4.782019000">
        <ele>184.1</ele>
        <time>2020-10-16T08:34:54Z</time>
      </trkpt>
      <trkpt lat="37.378086000" lon="-4.782043000">
        <ele>184.6</ele>
        <time>2020-10-16T08:34:57Z</time>
      </trkpt>
      <trkpt lat="37.377999000" lon="-4.782075000">
        <ele>185.2</ele>
        <time>2020-10-16T08:35:00Z</time>
      </trkpt>
      <trkpt lat="37.377918000" lon="-4.782100000">
        <ele>185.7</ele>
        <time>2020-10-16T08:35:03Z</time>
      </trkpt>
      <trkpt lat="37.377837000" lon="-4.782123000">
        <ele>186.5</ele>
        <time>2020-10-16T08:35:06Z</time>
      </trkpt>
      <trkpt lat="37.377741000" lon="-4.782145000">
        <ele>187.2</ele>
        <time>2020-10-16T08:35:10Z</time>
      </trkpt>
      <trkpt lat="37.377642000" lon="-4.782166000">
        <ele>187.9</ele>
        <time>2020-10-16T08:35:14Z</time>
      </trkpt>
      <trkpt lat="37.377553000" lon="-4.782167000">
        <ele>188.7</ele>
        <time>2020-10-16T08:35:18Z</time>
      </trkpt>
      <trkpt lat="37.377465000" lon="-4.782156000">
        <ele>189.5</ele>
        <time>2020-10-16T08:35:22Z</time>
      </trkpt>
      <trkpt lat="37.377376000" lon="-4.782143000">
        <ele>190.2</ele>
        <time>2020-10-16T08:35:26Z</time>
      </trkpt>
      <trkpt lat="37.377292000" lon="-4.782104000">
        <ele>190.9</ele>
        <time>2020-10-16T08:35:30Z</time>
      </trkpt>
      <trkpt lat="37.377213000" lon="-4.782048000">
        <ele>191.6</ele>
        <time>2020-10-16T08:35:34Z</time>
      </trkpt>
      <trkpt lat="37.377143000" lon="-4.781971000">
        <ele>192.5</ele>
        <time>2020-10-16T08:35:38Z</time>
      </trkpt>
      <trkpt lat="37.377085000" lon="-4.781872000">
        <ele>193.4</ele>
        <time>2020-10-16T08:35:42Z</time>
      </trkpt>
      <trkpt lat="37.377022000" lon="-4.781782000">
        <ele>194.3</ele>
        <time>2020-10-16T08:35:46Z</time>
      </trkpt>
      <trkpt lat="37.376957000" lon="-4.781698000">
        <ele>195.0</ele>
        <time>2020-10-16T08:35:50Z</time>
      </trkpt>
      <trkpt lat="37.376885000" lon="-4.781624000">
        <ele>195.7</ele>
        <time>2020-10-16T08:35:54Z</time>
      </trkpt>
      <trkpt lat="37.376801000" lon="-4.781574000">
        <ele>196.4</ele>
        <time>2020-10-16T08:35:58Z</time>
      </trkpt>
      <trkpt lat="37.376706000" lon="-4.781544000">
        <ele>196.9</ele>
        <time>2020-10-16T08:36:02Z</time>
      </trkpt>
      <trkpt lat="37.376603000" lon="-4.781538000">
        <ele>197.5</ele>
        <time>2020-10-16T08:36:06Z</time>
      </trkpt>
      <trkpt lat="37.376498000" lon="-4.781556000">
        <ele>198.2</ele>
        <time>2020-10-16T08:36:10Z</time>
      </trkpt>
      <trkpt lat="37.376401000" lon="-4.781605000">
        <ele>198.8</ele>
        <time>2020-10-16T08:36:14Z</time>
      </trkpt>
      <trkpt lat="37.376307000" lon="-4.781667000">
        <ele>199.4</ele>
        <time>2020-10-16T08:36:18Z</time>
      </trkpt>
      <trkpt lat="37.376226000" lon="-4.781732000">
        <ele>199.9</ele>
        <time>2020-10-16T08:36:22Z</time>
      </trkpt>
      <trkpt lat="37.376154000" lon="-4.781803000">
        <ele>200.4</ele>
        <time>2020-10-16T08:36:26Z</time>
      </trkpt>
      <trkpt lat="37.376092000" lon="-4.781875000">
        <ele>201.0</ele>
        <time>2020-10-16T08:36:30Z</time>
      </trkpt>
      <trkpt lat="37.376036000" lon="-4.781955000">
        <ele>201.7</ele>
        <time>2020-10-16T08:36:34Z</time>
      </trkpt>
      <trkpt lat="37.375979000" lon="-4.782038000">
        <ele>202.5</ele>
        <time>2020-10-16T08:36:38Z</time>
      </trkpt>
      <trkpt lat="37.375919000" lon="-4.782139000">
        <ele>203.5</ele>
        <time>2020-10-16T08:36:43Z</time>
      </trkpt>
      <trkpt lat="37.375860000" lon="-4.782238000">
        <ele>204.5</ele>
        <time>2020-10-16T08:36:48Z</time>
      </trkpt>
      <trkpt lat="37.375805000" lon="-4.782338000">
        <ele>205.5</ele>
        <time>2020-10-16T08:36:53Z</time>
      </trkpt>
      <trkpt lat="37.375762000" lon="-4.782427000">
        <ele>206.4</ele>
        <time>2020-10-16T08:36:57Z</time>
      </trkpt>
      <trkpt lat="37.375710000" lon="-4.782531000">
        <ele>207.3</ele>
        <time>2020-10-16T08:37:02Z</time>
      </trkpt>
      <trkpt lat="37.375650000" lon="-4.782630000">
        <ele>208.2</ele>
        <time>2020-10-16T08:37:07Z</time>
      </trkpt>
      <trkpt lat="37.375590000" lon="-4.782733000">
        <ele>209.0</ele>
        <time>2020-10-16T08:37:12Z</time>
      </trkpt>
      <trkpt lat="37.375528000" lon="-4.782832000">
        <ele>209.8</ele>
        <time>2020-10-16T08:37:17Z</time>
      </trkpt>
      <trkpt lat="37.375466000" lon="-4.782933000">
        <ele>210.5</ele>
        <time>2020-10-16T08:37:22Z</time>
      </trkpt>
      <trkpt lat="37.375413000" lon="-4.783020000">
        <ele>211.1</ele>
        <time>2020-10-16T08:37:26Z</time>
      </trkpt>
      <trkpt lat="37.375361000" lon="-4.783113000">
        <ele>211.6</ele>
        <time>2020-10-16T08:37:30Z</time>
      </trkpt>
      <trkpt lat="37.375307000" lon="-4.783205000">
        <ele>212.3</ele>
        <time>2020-10-16T08:37:34Z</time>
      </trkpt>
      <trkpt lat="37.375245000" lon="-4.783291000">
        <ele>212.9</ele>
        <time>2020-10-16T08:37:38Z</time>
      </trkpt>
      <trkpt lat="37.375184000" lon="-4.783372000">
        <ele>213.6</ele>
        <time>2020-10-16T08:37:42Z</time>
      </trkpt>
      <trkpt lat="37.375112000" lon="-4.783438000">
        <ele>214.5</ele>
        <time>2020-10-16T08:37:46Z</time>
      </trkpt>
      <trkpt lat="37.375032000" lon="-4.783498000">
        <ele>215.2</ele>
        <time>2020-10-16T08:37:50Z</time>
      </trkpt>
      <trkpt lat="37.374953000" lon="-4.783547000">
        <ele>215.9</ele>
        <time>2020-10-16T08:37:54Z</time>
      </trkpt>
      <trkpt lat="37.374868000" lon="-4.783599000">
        <ele>216.7</ele>
        <time>2020-10-16T08:37:58Z</time>
      </trkpt>
      <trkpt lat="37.374784000" lon="-4.783655000">
        <ele>217.5</ele>
        <time>2020-10-16T08:38:02Z</time>
      </trkpt>
      <trkpt lat="37.374695000" lon="-4.783705000">
        <ele>218.5</ele>
        <time>2020-10-16T08:38:06Z</time>
      </trkpt>
      <trkpt lat="37.374609000" lon="-4.783746000">
        <ele>219.3</ele>
        <time>2020-10-16T08:38:10Z</time>
      </trkpt>
      <trkpt lat="37.374521000" lon="-4.783788000">
        <ele>220.2</ele>
        <time>2020-10-16T08:38:14Z</time>
      </trkpt>
      <trkpt lat="37.374435000" lon="-4.783827000">
        <ele>221.0</ele>
        <time>2020-10-16T08:38:18Z</time>
      </trkpt>
      <trkpt lat="37.374348000" lon="-4.783855000">
        <ele>221.8</ele>
        <time>2020-10-16T08:38:22Z</time>
      </trkpt>
      <trkpt lat="37.374255000" lon="-4.783876000">
        <ele>222.5</ele>
        <time>2020-10-16T08:38:26Z</time>
      </trkpt>
      <trkpt lat="37.374161000" lon="-4.783893000">
        <ele>223.3</ele>
        <time>2020-10-16T08:38:30Z</time>
      </trkpt>
      <trkpt lat="37.374062000" lon="-4.783892000">
        <ele>224.2</ele>
        <time>2020-10-16T08:38:34Z</time>
      </trkpt>
      <trkpt lat="37.373964000" lon="-4.783886000">
        <ele>225.2</ele>
        <time>2020-10-16T08:38:38Z</time>
      </trkpt>
      <trkpt lat="37.373862000" lon="-4.783864000">
        <ele>226.2</ele>
        <time>2020-10-16T08:38:42Z</time>
      </trkpt>
      <trkpt lat="37.373779000" lon="-4.783839000">
        <ele>227.2</ele>
        <time>2020-10-16T08:38:45Z</time>
      </trkpt>
      <trkpt lat="37.373702000" lon="-4.783805000">
        <ele>228.2</ele>
        <time>2020-10-16T08:38:48Z</time>
      </trkpt>
      <trkpt lat="37.373606000" lon="-4.783748000">
        <ele>229.3</ele>
        <time>2020-10-16T08:38:52Z</time>
      </trkpt>
      <trkpt lat="37.373513000" lon="-4.783685000">
        <ele>230.2</ele>
        <time>2020-10-16T08:38:56Z</time>
      </trkpt>
      <trkpt lat="37.373427000" lon="-4.783614000">
        <ele>231.0</ele>
        <time>2020-10-16T08:39:00Z</time>
      </trkpt>
      <trkpt lat="37.373334000" lon="-4.783548000">
        <ele>231.7</ele>
        <time>2020-10-16T08:39:04Z</time>
      </trkpt>
      <trkpt lat="37.373242000" lon="-4.783485000">
        <ele>232.4</ele>
        <time>2020-10-16T08:39:08Z</time>
      </trkpt>
      <trkpt lat="37.373167000" lon="-4.783436000">
        <ele>232.9</ele>
        <time>2020-10-16T08:39:11Z</time>
      </trkpt>
      <trkpt lat="37.373091000" lon="-4.783389000">
        <ele>233.3</ele>
        <time>2020-10-16T08:39:14Z</time>
      </trkpt>
      <trkpt lat="37.373009000" lon="-4.783355000">
        <ele>233.5</ele>
        <time>2020-10-16T08:39:17Z</time>
      </trkpt>
      <trkpt lat="37.372927000" lon="-4.783326000">
        <ele>233.7</ele>
        <time>2020-10-16T08:39:20Z</time>
      </trkpt>
      <trkpt lat="37.372844000" lon="-4.783301000">
        <ele>233.9</ele>
        <time>2020-10-16T08:39:23Z</time>
      </trkpt>
      <trkpt lat="37.372763000" lon="-4.783283000">
        <ele>234.0</ele>
        <time>2020-10-16T08:39:26Z</time>
      </trkpt>
      <trkpt lat="37.372659000" lon="-4.783267000">
        <ele>234.0</ele>
        <time>2020-10-16T08:39:30Z</time>
      </trkpt>
      <trkpt lat="37.372555000" lon="-4.783266000">
        <ele>234.0</ele>
        <time>2020-10-16T08:39:34Z</time>
      </trkpt>
      <trkpt lat="37.372449000" lon="-4.783270000">
        <ele>234.0</ele>
        <time>2020-10-16T08:39:38Z</time>
      </trkpt>
      <trkpt lat="37.372365000" lon="-4.783294000">
        <ele>234.0</ele>
        <time>2020-10-16T08:39:41Z</time>
      </trkpt>
      <trkpt lat="37.372276000" lon="-4.783320000">
        <ele>234.0</ele>
        <time>2020-10-16T08:39:44Z</time>
      </trkpt>
      <trkpt lat="37.372185000" lon="-4.783357000">
        <ele>234.0</ele>
        <time>2020-10-16T08:39:47Z</time>
      </trkpt>
      <trkpt lat="37.372090000" lon="-4.783388000">
        <ele>234.0</ele>
        <time>2020-10-16T08:39:50Z</time>
      </trkpt>
      <trkpt lat="37.371994000" lon="-4.783423000">
        <ele>234.1</ele>
        <time>2020-10-16T08:39:53Z</time>
      </trkpt>
      <trkpt lat="37.371896000" lon="-4.783457000">
        <ele>234.3</ele>
        <time>2020-10-16T08:39:56Z</time>
      </trkpt>
      <trkpt lat="37.371799000" lon="-4.783495000">
        <ele>234.5</ele>
        <time>2020-10-16T08:39:59Z</time>
      </trkpt>
      <trkpt lat="37.371706000" lon="-4.783534000">
        <ele>234.9</ele>
        <time>2020-10-16T08:40:02Z</time>
      </trkpt>
      <trkpt lat="37.371615000" lon="-4.783581000">
        <ele>235.3</ele>
        <time>2020-10-16T08:40:05Z</time>
      </trkpt>
      <trkpt lat="37.371526000" lon="-4.783629000">
        <ele>235.6</ele>
        <time>2020-10-16T08:40:08Z</time>
      </trkpt>
      <trkpt lat="37.371437000" lon="-4.783683000">
        <ele>236.1</ele>
        <time>2020-10-16T08:40:11Z</time>
      </trkpt>
      <trkpt lat="37.371351000" lon="-4.783746000">
        <ele>236.5</ele>
        <time>2020-10-16T08:40:14Z</time>
      </trkpt>
      <trkpt lat="37.371273000" lon="-4.783812000">
        <ele>237.1</ele>
        <time>2020-10-16T08:40:17Z</time>
      </trkpt>
      <trkpt lat="37.371202000" lon="-4.783887000">
        <ele>237.6</ele>
        <time>2020-10-16T08:40:20Z</time>
      </trkpt>
      <trkpt lat="37.371134000" lon="-4.783961000">
        <ele>238.2</ele>
        <time>2020-10-16T08:40:23Z</time>
      </trkpt>
      <trkpt lat="37.371073000" lon="-4.784043000">
        <ele>238.6</ele>
        <time>2020-10-16T08:40:26Z</time>
      </trkpt>
      <trkpt lat="37.371015000" lon="-4.784126000">
        <ele>239.0</ele>
        <time>2020-10-16T08:40:29Z</time>
      </trkpt>
      <trkpt lat="37.370960000" lon="-4.784214000">
        <ele>239.3</ele>
        <time>2020-10-16T08:40:32Z</time>
      </trkpt>
      <trkpt lat="37.370913000" lon="-4.784307000">
        <ele>239.5</ele>
        <time>2020-10-16T08:40:35Z</time>
      </trkpt>
      <trkpt lat="37.370867000" lon="-4.784403000">
        <ele>239.6</ele>
        <time>2020-10-16T08:40:38Z</time>
      </trkpt>
      <trkpt lat="37.370819000" lon="-4.784502000">
        <ele>239.8</ele>
        <time>2020-10-16T08:40:41Z</time>
      </trkpt>
      <trkpt lat="37.370779000" lon="-4.784603000">
        <ele>239.9</ele>
        <time>2020-10-16T08:40:44Z</time>
      </trkpt>
      <trkpt lat="37.370741000" lon="-4.784706000">
        <ele>240.0</ele>
        <time>2020-10-16T08:40:47Z</time>
      </trkpt>
      <trkpt lat="37.370711000" lon="-4.784816000">
        <ele>240.0</ele>
        <time>2020-10-16T08:40:50Z</time>
      </trkpt>
      <trkpt lat="37.370684000" lon="-4.784935000">
        <ele>240.0</ele>
        <time>2020-10-16T08:40:53Z</time>
      </trkpt>
      <trkpt lat="37.370661000" lon="-4.785073000">
        <ele>240.1</ele>
        <time>2020-10-16T08:40:56Z</time>
      </trkpt>
      <trkpt lat="37.370644000" lon="-4.785220000">
        <ele>240.2</ele>
        <time>2020-10-16T08:40:59Z</time>
      </trkpt>
      <trkpt lat="37.370633000" lon="-4.785369000">
        <ele>240.3</ele>
        <time>2020-10-16T08:41:02Z</time>
      </trkpt>
      <trkpt lat="37.370629000" lon="-4.785471000">
        <ele>240.4</ele>
        <time>2020-10-16T08:41:04Z</time>
      </trkpt>
      <trkpt lat="37.370625000" lon="-4.785576000">
        <ele>240.5</ele>
        <time>2020-10-16T08:41:06Z</time>
      </trkpt>
      <trkpt lat="37.370623000" lon="-4.785685000">
        <ele>240.5</ele>
        <time>2020-10-16T08:41:08Z</time>
      </trkpt>
      <trkpt lat="37.370619000" lon="-4.785797000">
        <ele>240.5</ele>
        <time>2020-10-16T08:41:10Z</time>
      </trkpt>
      <trkpt lat="37.370616000" lon="-4.785918000">
        <ele>240.5</ele>
        <time>2020-10-16T08:41:12Z</time>
      </trkpt>
      <trkpt lat="37.370610000" lon="-4.786035000">
        <ele>240.5</ele>
        <time>2020-10-16T08:41:14Z</time>
      </trkpt>
      <trkpt lat="37.370607000" lon="-4.786147000">
        <ele>240.6</ele>
        <time>2020-10-16T08:41:16Z</time>
      </trkpt>
      <trkpt lat="37.370600000" lon="-4.786272000">
        <ele>240.8</ele>
        <time>2020-10-16T08:41:18Z</time>
      </trkpt>
      <trkpt lat="37.370592000" lon="-4.786386000">
        <ele>240.9</ele>
        <time>2020-10-16T08:41:20Z</time>
      </trkpt>
      <trkpt lat="37.370590000" lon="-4.786503000">
        <ele>241.1</ele>
        <time>2020-10-16T08:41:22Z</time>
      </trkpt>
      <trkpt lat="37.370583000" lon="-4.786616000">
        <ele>241.3</ele>
        <time>2020-10-16T08:41:24Z</time>
      </trkpt>
      <trkpt lat="37.370578000" lon="-4.786738000">
        <ele>241.5</ele>
        <time>2020-10-16T08:41:26Z</time>
      </trkpt>
      <trkpt lat="37.370575000" lon="-4.786864000">
        <ele>241.6</ele>
        <time>2020-10-16T08:41:28Z</time>
      </trkpt>
      <trkpt lat="37.370571000" lon="-4.786987000">
        <ele>241.8</ele>
        <time>2020-10-16T08:41:30Z</time>
      </trkpt>
      <trkpt lat="37.370569000" lon="-4.787113000">
        <ele>242.0</ele>
        <time>2020-10-16T08:41:32Z</time>
      </trkpt>
      <trkpt lat="37.370565000" lon="-4.787233000">
        <ele>242.2</ele>
        <time>2020-10-16T08:41:34Z</time>
      </trkpt>
      <trkpt lat="37.370560000" lon="-4.787355000">
        <ele>242.4</ele>
        <time>2020-10-16T08:41:36Z</time>
      </trkpt>
      <trkpt lat="37.370554000" lon="-4.787479000">
        <ele>242.5</ele>
        <time>2020-10-16T08:41:38Z</time>
      </trkpt>
      <trkpt lat="37.370555000" lon="-4.787601000">
        <ele>242.6</ele>
        <time>2020-10-16T08:41:40Z</time>
      </trkpt>
      <trkpt lat="37.370551000" lon="-4.787716000">
        <ele>242.7</ele>
        <time>2020-10-16T08:41:42Z</time>
      </trkpt>
      <trkpt lat="37.370541000" lon="-4.787828000">
        <ele>242.7</ele>
        <time>2020-10-16T08:41:44Z</time>
      </trkpt>
      <trkpt lat="37.370532000" lon="-4.787936000">
        <ele>242.7</ele>
        <time>2020-10-16T08:41:46Z</time>
      </trkpt>
      <trkpt lat="37.370527000" lon="-4.788050000">
        <ele>242.7</ele>
        <time>2020-10-16T08:41:48Z</time>
      </trkpt>
      <trkpt lat="37.370526000" lon="-4.788158000">
        <ele>242.7</ele>
        <time>2020-10-16T08:41:50Z</time>
      </trkpt>
      <trkpt lat="37.370522000" lon="-4.788263000">
        <ele>242.7</ele>
        <time>2020-10-16T08:41:52Z</time>
      </trkpt>
      <trkpt lat="37.370520000" lon="-4.788367000">
        <ele>242.8</ele>
        <time>2020-10-16T08:41:54Z</time>
      </trkpt>
      <trkpt lat="37.370511000" lon="-4.788475000">
        <ele>242.9</ele>
        <time>2020-10-16T08:41:56Z</time>
      </trkpt>
      <trkpt lat="37.370508000" lon="-4.788581000">
        <ele>243.0</ele>
        <time>2020-10-16T08:41:58Z</time>
      </trkpt>
      <trkpt lat="37.370503000" lon="-4.788687000">
        <ele>243.0</ele>
        <time>2020-10-16T08:42:00Z</time>
      </trkpt>
      <trkpt lat="37.370497000" lon="-4.788794000">
        <ele>243.1</ele>
        <time>2020-10-16T08:42:02Z</time>
      </trkpt>
      <trkpt lat="37.370491000" lon="-4.788900000">
        <ele>243.2</ele>
        <time>2020-10-16T08:42:04Z</time>
      </trkpt>
      <trkpt lat="37.370487000" lon="-4.789002000">
        <ele>243.4</ele>
        <time>2020-10-16T08:42:06Z</time>
      </trkpt>
      <trkpt lat="37.370484000" lon="-4.789104000">
        <ele>243.5</ele>
        <time>2020-10-16T08:42:08Z</time>
      </trkpt>
      <trkpt lat="37.370477000" lon="-4.789256000">
        <ele>243.7</ele>
        <time>2020-10-16T08:42:11Z</time>
      </trkpt>
      <trkpt lat="37.370473000" lon="-4.789358000">
        <ele>243.9</ele>
        <time>2020-10-16T08:42:13Z</time>
      </trkpt>
      <trkpt lat="37.370470000" lon="-4.789511000">
        <ele>244.1</ele>
        <time>2020-10-16T08:42:16Z</time>
      </trkpt>
      <trkpt lat="37.370463000" lon="-4.789614000">
        <ele>244.3</ele>
        <time>2020-10-16T08:42:18Z</time>
      </trkpt>
      <trkpt lat="37.370457000" lon="-4.789759000">
        <ele>244.5</ele>
        <time>2020-10-16T08:42:21Z</time>
      </trkpt>
      <trkpt lat="37.370449000" lon="-4.789905000">
        <ele>244.6</ele>
        <time>2020-10-16T08:42:24Z</time>
      </trkpt>
      <trkpt lat="37.370441000" lon="-4.790051000">
        <ele>244.8</ele>
        <time>2020-10-16T08:42:27Z</time>
      </trkpt>
      <trkpt lat="37.370435000" lon="-4.790197000">
        <ele>244.9</ele>
        <time>2020-10-16T08:42:30Z</time>
      </trkpt>
      <trkpt lat="37.370428000" lon="-4.790343000">
        <ele>245.1</ele>
        <time>2020-10-16T08:42:33Z</time>
      </trkpt>
      <trkpt lat="37.370421000" lon="-4.790489000">
        <ele>245.2</ele>
        <time>2020-10-16T08:42:36Z</time>
      </trkpt>
      <trkpt lat="37.370413000" lon="-4.790630000">
        <ele>245.4</ele>
        <time>2020-10-16T08:42:39Z</time>
      </trkpt>
      <trkpt lat="37.370406000" lon="-4.790766000">
        <ele>245.6</ele>
        <time>2020-10-16T08:42:42Z</time>
      </trkpt>
      <trkpt lat="37.370403000" lon="-4.790900000">
        <ele>246.0</ele>
        <time>2020-10-16T08:42:45Z</time>
      </trkpt>
      <trkpt lat="37.370398000" lon="-4.791037000">
        <ele>246.4</ele>
        <time>2020-10-16T08:42:48Z</time>
      </trkpt>
      <trkpt lat="37.370395000" lon="-4.791175000">
        <ele>246.8</ele>
        <time>2020-10-16T08:42:51Z</time>
      </trkpt>
      <trkpt lat="37.370392000" lon="-4.791312000">
        <ele>247.3</ele>
        <time>2020-10-16T08:42:54Z</time>
      </trkpt>
      <trkpt lat="37.370383000" lon="-4.791449000">
        <ele>247.7</ele>
        <time>2020-10-16T08:42:57Z</time>
      </trkpt>
      <trkpt lat="37.370376000" lon="-4.791579000">
        <ele>248.3</ele>
        <time>2020-10-16T08:43:00Z</time>
      </trkpt>
      <trkpt lat="37.370371000" lon="-4.791701000">
        <ele>248.8</ele>
        <time>2020-10-16T08:43:03Z</time>
      </trkpt>
      <trkpt lat="37.370368000" lon="-4.791820000">
        <ele>249.3</ele>
        <time>2020-10-16T08:43:06Z</time>
      </trkpt>
      <trkpt lat="37.370374000" lon="-4.791941000">
        <ele>249.7</ele>
        <time>2020-10-16T08:43:09Z</time>
      </trkpt>
      <trkpt lat="37.370409000" lon="-4.792059000">
        <ele>250.2</ele>
        <time>2020-10-16T08:43:12Z</time>
      </trkpt>
      <trkpt lat="37.370457000" lon="-4.792170000">
        <ele>250.5</ele>
        <time>2020-10-16T08:43:15Z</time>
      </trkpt>
      <trkpt lat="37.370513000" lon="-4.792262000">
        <ele>250.9</ele>
        <time>2020-10-16T08:43:18Z</time>
      </trkpt>
      <trkpt lat="37.370580000" lon="-4.792338000">
        <ele>251.3</ele>
        <time>2020-10-16T08:43:21Z</time>
      </trkpt>
      <trkpt lat="37.370642000" lon="-4.792428000">
        <ele>251.5</ele>
        <time>2020-10-16T08:43:24Z</time>
      </trkpt>
      <trkpt lat="37.370710000" lon="-4.792512000">
        <ele>251.8</ele>
        <time>2020-10-16T08:43:27Z</time>
      </trkpt>
      <trkpt lat="37.370770000" lon="-4.792594000">
        <ele>252.1</ele>
        <time>2020-10-16T08:43:30Z</time>
      </trkpt>
      <trkpt lat="37.370806000" lon="-4.792724000">
        <ele>252.4</ele>
        <time>2020-10-16T08:43:57Z</time>
      </trkpt>
      <trkpt lat="37.370775000" lon="-4.792824000">
        <ele>252.6</ele>
        <time>2020-10-16T08:43:59Z</time>
      </trkpt>
      <trkpt lat="37.370719000" lon="-4.792935000">
        <ele>252.9</ele>
        <time>2020-10-16T08:44:01Z</time>
      </trkpt>
      <trkpt lat="37.370654000" lon="-4.793027000">
        <ele>253.2</ele>
        <time>2020-10-16T08:44:03Z</time>
      </trkpt>
      <trkpt lat="37.370590000" lon="-4.793126000">
        <ele>253.3</ele>
        <time>2020-10-16T08:44:05Z</time>
      </trkpt>
      <trkpt lat="37.370527000" lon="-4.793225000">
        <ele>253.3</ele>
        <time>2020-10-16T08:44:07Z</time>
      </trkpt>
      <trkpt lat="37.370465000" lon="-4.793337000">
        <ele>253.1</ele>
        <time>2020-10-16T08:44:09Z</time>
      </trkpt>
      <trkpt lat="37.370408000" lon="-4.793450000">
        <ele>252.9</ele>
        <time>2020-10-16T08:44:11Z</time>
      </trkpt>
      <trkpt lat="37.370352000" lon="-4.793578000">
        <ele>252.6</ele>
        <time>2020-10-16T08:44:13Z</time>
      </trkpt>
      <trkpt lat="37.370291000" lon="-4.793707000">
        <ele>252.4</ele>
        <time>2020-10-16T08:44:15Z</time>
      </trkpt>
      <trkpt lat="37.370249000" lon="-4.793847000">
        <ele>252.0</ele>
        <time>2020-10-16T08:44:17Z</time>
      </trkpt>
      <trkpt lat="37.370203000" lon="-4.793993000">
        <ele>251.5</ele>
        <time>2020-10-16T08:44:19Z</time>
      </trkpt>
      <trkpt lat="37.370162000" lon="-4.794150000">
        <ele>251.0</ele>
        <time>2020-10-16T08:44:21Z</time>
      </trkpt>
      <trkpt lat="37.370132000" lon="-4.794314000">
        <ele>250.5</ele>
        <time>2020-10-16T08:44:23Z</time>
      </trkpt>
      <trkpt lat="37.370106000" lon="-4.794473000">
        <ele>249.9</ele>
        <time>2020-10-16T08:44:25Z</time>
      </trkpt>
      <trkpt lat="37.370082000" lon="-4.794640000">
        <ele>249.5</ele>
        <time>2020-10-16T08:44:27Z</time>
      </trkpt>
      <trkpt lat="37.370064000" lon="-4.794811000">
        <ele>249.3</ele>
        <time>2020-10-16T08:44:29Z</time>
      </trkpt>
      <trkpt lat="37.370047000" lon="-4.794982000">
        <ele>249.2</ele>
        <time>2020-10-16T08:44:31Z</time>
      </trkpt>
      <trkpt lat="37.370029000" lon="-4.795150000">
        <ele>249.1</ele>
        <time>2020-10-16T08:44:33Z</time>
      </trkpt>
      <trkpt lat="37.370008000" lon="-4.795316000">
        <ele>249.1</ele>
        <time>2020-10-16T08:44:35Z</time>
      </trkpt>
      <trkpt lat="37.369991000" lon="-4.795487000">
        <ele>249.1</ele>
        <time>2020-10-16T08:44:37Z</time>
      </trkpt>
      <trkpt lat="37.369970000" lon="-4.795651000">
        <ele>249.2</ele>
        <time>2020-10-16T08:44:39Z</time>
      </trkpt>
      <trkpt lat="37.369953000" lon="-4.795818000">
        <ele>249.2</ele>
        <time>2020-10-16T08:44:41Z</time>
      </trkpt>
      <trkpt lat="37.369939000" lon="-4.795978000">
        <ele>249.3</ele>
        <time>2020-10-16T08:44:43Z</time>
      </trkpt>
      <trkpt lat="37.369923000" lon="-4.796141000">
        <ele>249.4</ele>
        <time>2020-10-16T08:44:45Z</time>
      </trkpt>
      <trkpt lat="37.369906000" lon="-4.796305000">
        <ele>249.4</ele>
        <time>2020-10-16T08:44:47Z</time>
      </trkpt>
      <trkpt lat="37.369886000" lon="-4.796459000">
        <ele>249.3</ele>
        <time>2020-10-16T08:44:49Z</time>
      </trkpt>
      <trkpt lat="37.369870000" lon="-4.796614000">
        <ele>249.2</ele>
        <time>2020-10-16T08:44:51Z</time>
      </trkpt>
      <trkpt lat="37.369852000" lon="-4.796766000">
        <ele>249.1</ele>
        <time>2020-10-16T08:44:53Z</time>
      </trkpt>
      <trkpt lat="37.369835000" lon="-4.796913000">
        <ele>249.0</ele>
        <time>2020-10-16T08:44:55Z</time>
      </trkpt>
      <trkpt lat="37.369818000" lon="-4.797062000">
        <ele>249.0</ele>
        <time>2020-10-16T08:44:57Z</time>
      </trkpt>
      <trkpt lat="37.369801000" lon="-4.797205000">
        <ele>249.1</ele>
        <time>2020-10-16T08:44:59Z</time>
      </trkpt>
      <trkpt lat="37.369784000" lon="-4.797345000">
        <ele>249.2</ele>
        <time>2020-10-16T08:45:01Z</time>
      </trkpt>
      <trkpt lat="37.369767000" lon="-4.797488000">
        <ele>249.4</ele>
        <time>2020-10-16T08:45:03Z</time>
      </trkpt>
      <trkpt lat="37.369752000" lon="-4.797631000">
        <ele>249.5</ele>
        <time>2020-10-16T08:45:05Z</time>
      </trkpt>
      <trkpt lat="37.369741000" lon="-4.797776000">
        <ele>249.8</ele>
        <time>2020-10-16T08:45:07Z</time>
      </trkpt>
      <trkpt lat="37.369721000" lon="-4.797924000">
        <ele>250.2</ele>
        <time>2020-10-16T08:45:09Z</time>
      </trkpt>
      <trkpt lat="37.369706000" lon="-4.798070000">
        <ele>250.5</ele>
        <time>2020-10-16T08:45:11Z</time>
      </trkpt>
      <trkpt lat="37.369687000" lon="-4.798211000">
        <ele>250.9</ele>
        <time>2020-10-16T08:45:13Z</time>
      </trkpt>
      <trkpt lat="37.369667000" lon="-4.798355000">
        <ele>251.2</ele>
        <time>2020-10-16T08:45:15Z</time>
      </trkpt>
      <trkpt lat="37.369654000" lon="-4.798494000">
        <ele>251.5</ele>
        <time>2020-10-16T08:45:17Z</time>
      </trkpt>
      <trkpt lat="37.369636000" lon="-4.798636000">
        <ele>251.6</ele>
        <time>2020-10-16T08:45:19Z</time>
      </trkpt>
      <trkpt lat="37.369626000" lon="-4.798771000">
        <ele>251.6</ele>
        <time>2020-10-16T08:45:21Z</time>
      </trkpt>
      <trkpt lat="37.369609000" lon="-4.798905000">
        <ele>251.6</ele>
        <time>2020-10-16T08:45:23Z</time>
      </trkpt>
      <trkpt lat="37.369589000" lon="-4.799037000">
        <ele>251.6</ele>
        <time>2020-10-16T08:45:25Z</time>
      </trkpt>
      <trkpt lat="37.369567000" lon="-4.799170000">
        <ele>251.6</ele>
        <time>2020-10-16T08:45:27Z</time>
      </trkpt>
      <trkpt lat="37.369555000" lon="-4.799300000">
        <ele>251.5</ele>
        <time>2020-10-16T08:45:29Z</time>
      </trkpt>
      <trkpt lat="37.369545000" lon="-4.799430000">
        <ele>251.5</ele>
        <time>2020-10-16T08:45:31Z</time>
      </trkpt>
      <trkpt lat="37.369530000" lon="-4.799565000">
        <ele>251.5</ele>
        <time>2020-10-16T08:45:33Z</time>
      </trkpt>
      <trkpt lat="37.369510000" lon="-4.799699000">
        <ele>251.5</ele>
        <time>2020-10-16T08:45:35Z</time>
      </trkpt>
      <trkpt lat="37.369486000" lon="-4.799823000">
        <ele>251.5</ele>
        <time>2020-10-16T08:45:37Z</time>
      </trkpt>
      <trkpt lat="37.369470000" lon="-4.799953000">
        <ele>251.6</ele>
        <time>2020-10-16T08:45:39Z</time>
      </trkpt>
      <trkpt lat="37.369454000" lon="-4.800080000">
        <ele>251.7</ele>
        <time>2020-10-16T08:45:41Z</time>
      </trkpt>
      <trkpt lat="37.369442000" lon="-4.800210000">
        <ele>251.9</ele>
        <time>2020-10-16T08:45:43Z</time>
      </trkpt>
      <trkpt lat="37.369421000" lon="-4.800356000">
        <ele>252.1</ele>
        <time>2020-10-16T08:45:45Z</time>
      </trkpt>
      <trkpt lat="37.369405000" lon="-4.800478000">
        <ele>252.3</ele>
        <time>2020-10-16T08:45:47Z</time>
      </trkpt>
      <trkpt lat="37.369399000" lon="-4.800604000">
        <ele>252.5</ele>
        <time>2020-10-16T08:45:49Z</time>
      </trkpt>
      <trkpt lat="37.369380000" lon="-4.800732000">
        <ele>252.6</ele>
        <time>2020-10-16T08:45:51Z</time>
      </trkpt>
      <trkpt lat="37.369367000" lon="-4.800855000">
        <ele>252.9</ele>
        <time>2020-10-16T08:45:53Z</time>
      </trkpt>
      <trkpt lat="37.369356000" lon="-4.800973000">
        <ele>253.1</ele>
        <time>2020-10-16T08:45:55Z</time>
      </trkpt>
      <trkpt lat="37.369339000" lon="-4.801091000">
        <ele>253.3</ele>
        <time>2020-10-16T08:45:57Z</time>
      </trkpt>
      <trkpt lat="37.369328000" lon="-4.801211000">
        <ele>253.4</ele>
        <time>2020-10-16T08:45:59Z</time>
      </trkpt>
      <trkpt lat="37.369315000" lon="-4.801332000">
        <ele>253.5</ele>
        <time>2020-10-16T08:46:01Z</time>
      </trkpt>
      <trkpt lat="37.369303000" lon="-4.801451000">
        <ele>253.5</ele>
        <time>2020-10-16T08:46:03Z</time>
      </trkpt>
      <trkpt lat="37.369289000" lon="-4.801566000">
        <ele>253.6</ele>
        <time>2020-10-16T08:46:05Z</time>
      </trkpt>
      <trkpt lat="37.369276000" lon="-4.801683000">
        <ele>253.7</ele>
        <time>2020-10-16T08:46:07Z</time>
      </trkpt>
      <trkpt lat="37.369263000" lon="-4.801806000">
        <ele>253.8</ele>
        <time>2020-10-16T08:46:09Z</time>
      </trkpt>
      <trkpt lat="37.369253000" lon="-4.801927000">
        <ele>253.9</ele>
        <time>2020-10-16T08:46:11Z</time>
      </trkpt>
      <trkpt lat="37.369240000" lon="-4.802042000">
        <ele>254.0</ele>
        <time>2020-10-16T08:46:13Z</time>
      </trkpt>
      <trkpt lat="37.369223000" lon="-4.802162000">
        <ele>254.1</ele>
        <time>2020-10-16T08:46:15Z</time>
      </trkpt>
      <trkpt lat="37.369209000" lon="-4.802281000">
        <ele>254.2</ele>
        <time>2020-10-16T08:46:17Z</time>
      </trkpt>
      <trkpt lat="37.369191000" lon="-4.802398000">
        <ele>254.3</ele>
        <time>2020-10-16T08:46:19Z</time>
      </trkpt>
      <trkpt lat="37.369179000" lon="-4.802512000">
        <ele>254.4</ele>
        <time>2020-10-16T08:46:21Z</time>
      </trkpt>
      <trkpt lat="37.369163000" lon="-4.802629000">
        <ele>254.5</ele>
        <time>2020-10-16T08:46:23Z</time>
      </trkpt>
      <trkpt lat="37.369146000" lon="-4.802744000">
        <ele>254.5</ele>
        <time>2020-10-16T08:46:25Z</time>
      </trkpt>
      <trkpt lat="37.369135000" lon="-4.802862000">
        <ele>254.7</ele>
        <time>2020-10-16T08:46:27Z</time>
      </trkpt>
      <trkpt lat="37.369118000" lon="-4.802976000">
        <ele>254.9</ele>
        <time>2020-10-16T08:46:29Z</time>
      </trkpt>
      <trkpt lat="37.369108000" lon="-4.803094000">
        <ele>255.1</ele>
        <time>2020-10-16T08:46:31Z</time>
      </trkpt>
      <trkpt lat="37.369093000" lon="-4.803202000">
        <ele>255.3</ele>
        <time>2020-10-16T08:46:33Z</time>
      </trkpt>
      <trkpt lat="37.369078000" lon="-4.803310000">
        <ele>255.5</ele>
        <time>2020-10-16T08:46:35Z</time>
      </trkpt>
      <trkpt lat="37.369066000" lon="-4.803416000">
        <ele>255.5</ele>
        <time>2020-10-16T08:46:37Z</time>
      </trkpt>
      <trkpt lat="37.369055000" lon="-4.803519000">
        <ele>255.6</ele>
        <time>2020-10-16T08:46:39Z</time>
      </trkpt>
      <trkpt lat="37.369040000" lon="-4.803624000">
        <ele>255.7</ele>
        <time>2020-10-16T08:46:41Z</time>
      </trkpt>
      <trkpt lat="37.369031000" lon="-4.803733000">
        <ele>255.9</ele>
        <time>2020-10-16T08:46:43Z</time>
      </trkpt>
      <trkpt lat="37.369020000" lon="-4.803837000">
        <ele>256.1</ele>
        <time>2020-10-16T08:46:45Z</time>
      </trkpt>
      <trkpt lat="37.369007000" lon="-4.803937000">
        <ele>256.4</ele>
        <time>2020-10-16T08:46:47Z</time>
      </trkpt>
      <trkpt lat="37.368991000" lon="-4.804084000">
        <ele>256.6</ele>
        <time>2020-10-16T08:46:50Z</time>
      </trkpt>
      <trkpt lat="37.368974000" lon="-4.804230000">
        <ele>257.0</ele>
        <time>2020-10-16T08:46:53Z</time>
      </trkpt>
      <trkpt lat="37.368958000" lon="-4.804372000">
        <ele>257.4</ele>
        <time>2020-10-16T08:46:56Z</time>
      </trkpt>
      <trkpt lat="37.368942000" lon="-4.804512000">
        <ele>257.8</ele>
        <time>2020-10-16T08:46:59Z</time>
      </trkpt>
      <trkpt lat="37.368928000" lon="-4.804652000">
        <ele>258.4</ele>
        <time>2020-10-16T08:47:02Z</time>
      </trkpt>
      <trkpt lat="37.368907000" lon="-4.804789000">
        <ele>259.0</ele>
        <time>2020-10-16T08:47:05Z</time>
      </trkpt>
      <trkpt lat="37.368894000" lon="-4.804925000">
        <ele>259.7</ele>
        <time>2020-10-16T08:47:08Z</time>
      </trkpt>
      <trkpt lat="37.368875000" lon="-4.805060000">
        <ele>260.5</ele>
        <time>2020-10-16T08:47:11Z</time>
      </trkpt>
      <trkpt lat="37.368850000" lon="-4.805203000">
        <ele>261.4</ele>
        <time>2020-10-16T08:47:14Z</time>
      </trkpt>
      <trkpt lat="37.368827000" lon="-4.805347000">
        <ele>262.3</ele>
        <time>2020-10-16T08:47:17Z</time>
      </trkpt>
      <trkpt lat="37.368810000" lon="-4.805483000">
        <ele>263.1</ele>
        <time>2020-10-16T08:47:20Z</time>
      </trkpt>
      <trkpt lat="37.368788000" lon="-4.805625000">
        <ele>263.8</ele>
        <time>2020-10-16T08:47:23Z</time>
      </trkpt>
      <trkpt lat="37.368765000" lon="-4.805765000">
        <ele>264.5</ele>
        <time>2020-10-16T08:47:26Z</time>
      </trkpt>
      <trkpt lat="37.368745000" lon="-4.805894000">
        <ele>265.1</ele>
        <time>2020-10-16T08:47:29Z</time>
      </trkpt>
      <trkpt lat="37.368723000" lon="-4.806013000">
        <ele>265.6</ele>
        <time>2020-10-16T08:47:32Z</time>
      </trkpt>
      <trkpt lat="37.368704000" lon="-4.806125000">
        <ele>266.1</ele>
        <time>2020-10-16T08:47:35Z</time>
      </trkpt>
      <trkpt lat="37.368683000" lon="-4.806241000">
        <ele>266.5</ele>
        <time>2020-10-16T08:47:38Z</time>
      </trkpt>
      <trkpt lat="37.368656000" lon="-4.806349000">
        <ele>266.9</ele>
        <time>2020-10-16T08:47:41Z</time>
      </trkpt>
      <trkpt lat="37.368633000" lon="-4.806479000">
        <ele>267.2</ele>
        <time>2020-10-16T08:47:45Z</time>
      </trkpt>
      <trkpt lat="37.368580000" lon="-4.806558000">
        <ele>267.5</ele>
        <time>2020-10-16T08:49:23Z</time>
      </trkpt>
      <trkpt lat="37.368496000" lon="-4.806546000">
        <ele>267.6</ele>
        <time>2020-10-16T08:49:29Z</time>
      </trkpt>
      <trkpt lat="37.368414000" lon="-4.806577000">
        <ele>267.8</ele>
        <time>2020-10-16T08:50:15Z</time>
      </trkpt>
      <trkpt lat="37.368338000" lon="-4.806629000">
        <ele>267.9</ele>
        <time>2020-10-16T08:50:21Z</time>
      </trkpt>
      <trkpt lat="37.368254000" lon="-4.806648000">
        <ele>268.0</ele>
        <time>2020-10-16T08:50:27Z</time>
      </trkpt>
      <trkpt lat="37.368167000" lon="-4.806646000">
        <ele>268.1</ele>
        <time>2020-10-16T08:50:34Z</time>
      </trkpt>
      <trkpt lat="37.368085000" lon="-4.806598000">
        <ele>268.2</ele>
        <time>2020-10-16T08:50:41Z</time>
      </trkpt>
      <trkpt lat="37.368159000" lon="-4.806652000">
        <ele>268.3</ele>
        <time>2020-10-16T08:54:17Z</time>
      </trkpt>
      <trkpt lat="37.368260000" lon="-4.806630000">
        <ele>268.4</ele>
        <time>2020-10-16T08:54:21Z</time>
      </trkpt>
      <trkpt lat="37.368346000" lon="-4.806651000">
        <ele>268.5</ele>
        <time>2020-10-16T08:54:24Z</time>
      </trkpt>
      <trkpt lat="37.368419000" lon="-4.806712000">
        <ele>268.6</ele>
        <time>2020-10-16T08:54:28Z</time>
      </trkpt>
      <trkpt lat="37.368439000" lon="-4.806821000">
        <ele>268.8</ele>
        <time>2020-10-16T08:54:36Z</time>
      </trkpt>
      <trkpt lat="37.368461000" lon="-4.806939000">
        <ele>269.1</ele>
        <time>2020-10-16T08:54:42Z</time>
      </trkpt>
      <trkpt lat="37.368449000" lon="-4.807043000">
        <ele>269.5</ele>
        <time>2020-10-16T08:54:47Z</time>
      </trkpt>
      <trkpt lat="37.368432000" lon="-4.807143000">
        <ele>270.0</ele>
        <time>2020-10-16T08:54:52Z</time>
      </trkpt>
      <trkpt lat="37.368405000" lon="-4.807242000">
        <ele>270.6</ele>
        <time>2020-10-16T08:54:57Z</time>
      </trkpt>
      <trkpt lat="37.368387000" lon="-4.807343000">
        <ele>271.3</ele>
        <time>2020-10-16T08:55:02Z</time>
      </trkpt>
      <trkpt lat="37.368366000" lon="-4.807445000">
        <ele>272.0</ele>
        <time>2020-10-16T08:55:07Z</time>
      </trkpt>
      <trkpt lat="37.368338000" lon="-4.807548000">
        <ele>272.8</ele>
        <time>2020-10-16T08:55:12Z</time>
      </trkpt>
      <trkpt lat="37.368315000" lon="-4.807652000">
        <ele>273.5</ele>
        <time>2020-10-16T08:55:17Z</time>
      </trkpt>
      <trkpt lat="37.368293000" lon="-4.807756000">
        <ele>274.3</ele>
        <time>2020-10-16T08:55:22Z</time>
      </trkpt>
      <trkpt lat="37.368265000" lon="-4.807860000">
        <ele>274.9</ele>
        <time>2020-10-16T08:55:27Z</time>
      </trkpt>
      <trkpt lat="37.368245000" lon="-4.807963000">
        <ele>275.5</ele>
        <time>2020-10-16T08:55:32Z</time>
      </trkpt>
      <trkpt lat="37.368222000" lon="-4.808067000">
        <ele>276.1</ele>
        <time>2020-10-16T08:55:37Z</time>
      </trkpt>
      <trkpt lat="37.368200000" lon="-4.808170000">
        <ele>276.6</ele>
        <time>2020-10-16T08:55:42Z</time>
      </trkpt>
      <trkpt lat="37.368178000" lon="-4.808274000">
        <ele>277.1</ele>
        <time>2020-10-16T08:55:47Z</time>
      </trkpt>
      <trkpt lat="37.368152000" lon="-4.808374000">
        <ele>277.5</ele>
        <time>2020-10-16T08:55:52Z</time>
      </trkpt>
      <trkpt lat="37.368127000" lon="-4.808476000">
        <ele>278.0</ele>
        <time>2020-10-16T08:55:57Z</time>
      </trkpt>
      <trkpt lat="37.368103000" lon="-4.808579000">
        <ele>278.4</ele>
        <time>2020-10-16T08:56:02Z</time>
      </trkpt>
      <trkpt lat="37.368076000" lon="-4.808682000">
        <ele>278.6</ele>
        <time>2020-10-16T08:56:07Z</time>
      </trkpt>
      <trkpt lat="37.368053000" lon="-4.808783000">
        <ele>278.9</ele>
        <time>2020-10-16T08:56:12Z</time>
      </trkpt>
      <trkpt lat="37.368020000" lon="-4.808897000">
        <ele>279.2</ele>
        <time>2020-10-16T08:56:18Z</time>
      </trkpt>
      <trkpt lat="37.367994000" lon="-4.808996000">
        <ele>279.5</ele>
        <time>2020-10-16T08:56:23Z</time>
      </trkpt>
      <trkpt lat="37.367965000" lon="-4.809095000">
        <ele>279.6</ele>
        <time>2020-10-16T08:56:28Z</time>
      </trkpt>
      <trkpt lat="37.367938000" lon="-4.809200000">
        <ele>279.7</ele>
        <time>2020-10-16T08:56:33Z</time>
      </trkpt>
      <trkpt lat="37.367912000" lon="-4.809300000">
        <ele>279.7</ele>
        <time>2020-10-16T08:56:38Z</time>
      </trkpt>
      <trkpt lat="37.367885000" lon="-4.809396000">
        <ele>279.7</ele>
        <time>2020-10-16T08:56:43Z</time>
      </trkpt>
      <trkpt lat="37.367861000" lon="-4.809496000">
        <ele>279.6</ele>
        <time>2020-10-16T08:56:48Z</time>
      </trkpt>
      <trkpt lat="37.367838000" lon="-4.809600000">
        <ele>279.5</ele>
        <time>2020-10-16T08:56:53Z</time>
      </trkpt>
      <trkpt lat="37.367821000" lon="-4.809711000">
        <ele>279.5</ele>
        <time>2020-10-16T08:56:58Z</time>
      </trkpt>
      <trkpt lat="37.367805000" lon="-4.809819000">
        <ele>279.5</ele>
        <time>2020-10-16T08:57:03Z</time>
      </trkpt>
      <trkpt lat="37.367783000" lon="-4.809925000">
        <ele>279.5</ele>
        <time>2020-10-16T08:57:08Z</time>
      </trkpt>
      <trkpt lat="37.367749000" lon="-4.810028000">
        <ele>279.5</ele>
        <time>2020-10-16T08:57:13Z</time>
      </trkpt>
      <trkpt lat="37.367697000" lon="-4.810136000">
        <ele>279.5</ele>
        <time>2020-10-16T08:57:17Z</time>
      </trkpt>
      <trkpt lat="37.367661000" lon="-4.810244000">
        <ele>279.5</ele>
        <time>2020-10-16T08:57:20Z</time>
      </trkpt>
      <trkpt lat="37.367636000" lon="-4.810364000">
        <ele>279.7</ele>
        <time>2020-10-16T08:57:24Z</time>
      </trkpt>
      <trkpt lat="37.367657000" lon="-4.810481000">
        <ele>279.9</ele>
        <time>2020-10-16T08:57:30Z</time>
      </trkpt>
      <trkpt lat="37.367653000" lon="-4.810590000">
        <ele>280.2</ele>
        <time>2020-10-16T08:57:35Z</time>
      </trkpt>
      <trkpt lat="37.367632000" lon="-4.810696000">
        <ele>280.5</ele>
        <time>2020-10-16T08:57:40Z</time>
      </trkpt>
      <trkpt lat="37.367605000" lon="-4.810801000">
        <ele>281.0</ele>
        <time>2020-10-16T08:57:45Z</time>
      </trkpt>
      <trkpt lat="37.367585000" lon="-4.810902000">
        <ele>281.4</ele>
        <time>2020-10-16T08:57:50Z</time>
      </trkpt>
      <trkpt lat="37.367562000" lon="-4.811003000">
        <ele>281.8</ele>
        <time>2020-10-16T08:57:55Z</time>
      </trkpt>
      <trkpt lat="37.367549000" lon="-4.811108000">
        <ele>282.3</ele>
        <time>2020-10-16T08:58:00Z</time>
      </trkpt>
      <trkpt lat="37.367525000" lon="-4.811225000">
        <ele>282.7</ele>
        <time>2020-10-16T08:58:06Z</time>
      </trkpt>
      <trkpt lat="37.367508000" lon="-4.811330000">
        <ele>283.2</ele>
        <time>2020-10-16T08:58:11Z</time>
      </trkpt>
      <trkpt lat="37.367490000" lon="-4.811436000">
        <ele>283.6</ele>
        <time>2020-10-16T08:58:16Z</time>
      </trkpt>
      <trkpt lat="37.367471000" lon="-4.811537000">
        <ele>284.0</ele>
        <time>2020-10-16T08:58:21Z</time>
      </trkpt>
      <trkpt lat="37.367447000" lon="-4.811640000">
        <ele>284.4</ele>
        <time>2020-10-16T08:58:26Z</time>
      </trkpt>
      <trkpt lat="37.367430000" lon="-4.811744000">
        <ele>284.7</ele>
        <time>2020-10-16T08:58:31Z</time>
      </trkpt>
      <trkpt lat="37.367414000" lon="-4.811847000">
        <ele>285.0</ele>
        <time>2020-10-16T08:58:36Z</time>
      </trkpt>
      <trkpt lat="37.367399000" lon="-4.811954000">
        <ele>285.2</ele>
        <time>2020-10-16T08:58:41Z</time>
      </trkpt>
      <trkpt lat="37.367384000" lon="-4.812059000">
        <ele>285.5</ele>
        <time>2020-10-16T08:58:46Z</time>
      </trkpt>
      <trkpt lat="37.367368000" lon="-4.812163000">
        <ele>285.6</ele>
        <time>2020-10-16T08:58:51Z</time>
      </trkpt>
      <trkpt lat="37.367350000" lon="-4.812268000">
        <ele>285.8</ele>
        <time>2020-10-16T08:58:56Z</time>
      </trkpt>
      <trkpt lat="37.367330000" lon="-4.812370000">
        <ele>286.0</ele>
        <time>2020-10-16T08:59:01Z</time>
      </trkpt>
      <trkpt lat="37.367313000" lon="-4.812478000">
        <ele>286.1</ele>
        <time>2020-10-16T08:59:06Z</time>
      </trkpt>
      <trkpt lat="37.367293000" lon="-4.812585000">
        <ele>286.2</ele>
        <time>2020-10-16T08:59:11Z</time>
      </trkpt>
      <trkpt lat="37.367272000" lon="-4.812690000">
        <ele>286.3</ele>
        <time>2020-10-16T08:59:16Z</time>
      </trkpt>
      <trkpt lat="37.367251000" lon="-4.812796000">
        <ele>286.5</ele>
        <time>2020-10-16T08:59:21Z</time>
      </trkpt>
      <trkpt lat="37.367231000" lon="-4.812899000">
        <ele>286.5</ele>
        <time>2020-10-16T08:59:26Z</time>
      </trkpt>
      <trkpt lat="37.367211000" lon="-4.813015000">
        <ele>286.6</ele>
        <time>2020-10-16T08:59:32Z</time>
      </trkpt>
      <trkpt lat="37.367194000" lon="-4.813115000">
        <ele>286.8</ele>
        <time>2020-10-16T08:59:37Z</time>
      </trkpt>
      <trkpt lat="37.367173000" lon="-4.813230000">
        <ele>286.9</ele>
        <time>2020-10-16T08:59:43Z</time>
      </trkpt>
      <trkpt lat="37.367151000" lon="-4.813333000">
        <ele>287.0</ele>
        <time>2020-10-16T08:59:48Z</time>
      </trkpt>
      <trkpt lat="37.367131000" lon="-4.813439000">
        <ele>287.1</ele>
        <time>2020-10-16T08:59:53Z</time>
      </trkpt>
      <trkpt lat="37.367114000" lon="-4.813543000">
        <ele>287.3</ele>
        <time>2020-10-16T08:59:58Z</time>
      </trkpt>
      <trkpt lat="37.367091000" lon="-4.813647000">
        <ele>287.5</ele>
        <time>2020-10-16T09:00:03Z</time>
      </trkpt>
      <trkpt lat="37.367066000" lon="-4.813751000">
        <ele>287.8</ele>
        <time>2020-10-16T09:00:08Z</time>
      </trkpt>
      <trkpt lat="37.367041000" lon="-4.813858000">
        <ele>288.2</ele>
        <time>2020-10-16T09:00:13Z</time>
      </trkpt>
      <trkpt lat="37.367021000" lon="-4.813960000">
        <ele>288.5</ele>
        <time>2020-10-16T09:00:18Z</time>
      </trkpt>
      <trkpt lat="37.367000000" lon="-4.814062000">
        <ele>288.7</ele>
        <time>2020-10-16T09:00:23Z</time>
      </trkpt>
      <trkpt lat="37.366978000" lon="-4.814179000">
        <ele>289.0</ele>
        <time>2020-10-16T09:00:29Z</time>
      </trkpt>
      <trkpt lat="37.366956000" lon="-4.814279000">
        <ele>289.2</ele>
        <time>2020-10-16T09:00:34Z</time>
      </trkpt>
      <trkpt lat="37.366932000" lon="-4.814383000">
        <ele>289.3</ele>
        <time>2020-10-16T09:01:15Z</time>
      </trkpt>
      <trkpt lat="37.366888000" lon="-4.814490000">
        <ele>289.4</ele>
        <time>2020-10-16T09:01:18Z</time>
      </trkpt>
      <trkpt lat="37.366855000" lon="-4.814583000">
        <ele>289.5</ele>
        <time>2020-10-16T09:01:21Z</time>
      </trkpt>
      <trkpt lat="37.366828000" lon="-4.814695000">
        <ele>289.5</ele>
        <time>2020-10-16T09:01:25Z</time>
      </trkpt>
      <trkpt lat="37.366808000" lon="-4.814806000">
        <ele>289.5</ele>
        <time>2020-10-16T09:01:29Z</time>
      </trkpt>
      <trkpt lat="37.366794000" lon="-4.814908000">
        <ele>289.5</ele>
        <time>2020-10-16T09:01:33Z</time>
      </trkpt>
      <trkpt lat="37.366778000" lon="-4.815029000">
        <ele>289.4</ele>
        <time>2020-10-16T09:01:38Z</time>
      </trkpt>
      <trkpt lat="37.366762000" lon="-4.815147000">
        <ele>289.4</ele>
        <time>2020-10-16T09:01:43Z</time>
      </trkpt>
      <trkpt lat="37.366749000" lon="-4.815259000">
        <ele>289.4</ele>
        <time>2020-10-16T09:01:48Z</time>
      </trkpt>
      <trkpt lat="37.366731000" lon="-4.815364000">
        <ele>289.4</ele>
        <time>2020-10-16T09:01:53Z</time>
      </trkpt>
      <trkpt lat="37.366716000" lon="-4.815481000">
        <ele>289.5</ele>
        <time>2020-10-16T09:02:01Z</time>
      </trkpt>
      <trkpt lat="37.366696000" lon="-4.815595000">
        <ele>289.6</ele>
        <time>2020-10-16T09:02:05Z</time>
      </trkpt>
      <trkpt lat="37.366674000" lon="-4.815698000">
        <ele>289.8</ele>
        <time>2020-10-16T09:02:11Z</time>
      </trkpt>
      <trkpt lat="37.366649000" lon="-4.815816000">
        <ele>290.0</ele>
        <time>2020-10-16T09:02:17Z</time>
      </trkpt>
      <trkpt lat="37.366624000" lon="-4.815932000">
        <ele>290.1</ele>
        <time>2020-10-16T09:02:23Z</time>
      </trkpt>
      <trkpt lat="37.366604000" lon="-4.816046000">
        <ele>290.2</ele>
        <time>2020-10-16T09:02:29Z</time>
      </trkpt>
      <trkpt lat="37.366609000" lon="-4.816161000">
        <ele>290.3</ele>
        <time>2020-10-16T09:02:38Z</time>
      </trkpt>
      <trkpt lat="37.366615000" lon="-4.816279000">
        <ele>290.3</ele>
        <time>2020-10-16T09:02:45Z</time>
      </trkpt>
      <trkpt lat="37.366590000" lon="-4.816384000">
        <ele>290.2</ele>
        <time>2020-10-16T09:02:48Z</time>
      </trkpt>
      <trkpt lat="37.366560000" lon="-4.816530000">
        <ele>290.0</ele>
        <time>2020-10-16T09:02:51Z</time>
      </trkpt>
      <trkpt lat="37.366540000" lon="-4.816649000">
        <ele>289.8</ele>
        <time>2020-10-16T09:02:53Z</time>
      </trkpt>
      <trkpt lat="37.366514000" lon="-4.816776000">
        <ele>289.5</ele>
        <time>2020-10-16T09:02:55Z</time>
      </trkpt>
      <trkpt lat="37.366486000" lon="-4.816907000">
        <ele>289.2</ele>
        <time>2020-10-16T09:02:57Z</time>
      </trkpt>
      <trkpt lat="37.366461000" lon="-4.817052000">
        <ele>288.7</ele>
        <time>2020-10-16T09:02:59Z</time>
      </trkpt>
      <trkpt lat="37.366430000" lon="-4.817201000">
        <ele>288.2</ele>
        <time>2020-10-16T09:03:01Z</time>
      </trkpt>
      <trkpt lat="37.366397000" lon="-4.817347000">
        <ele>287.6</ele>
        <time>2020-10-16T09:03:03Z</time>
      </trkpt>
      <trkpt lat="37.366361000" lon="-4.817505000">
        <ele>287.1</ele>
        <time>2020-10-16T09:03:05Z</time>
      </trkpt>
      <trkpt lat="37.366331000" lon="-4.817664000">
        <ele>286.5</ele>
        <time>2020-10-16T09:03:07Z</time>
      </trkpt>
      <trkpt lat="37.366295000" lon="-4.817823000">
        <ele>285.8</ele>
        <time>2020-10-16T09:03:09Z</time>
      </trkpt>
      <trkpt lat="37.366257000" lon="-4.817982000">
        <ele>285.2</ele>
        <time>2020-10-16T09:03:11Z</time>
      </trkpt>
      <trkpt lat="37.366220000" lon="-4.818145000">
        <ele>284.6</ele>
        <time>2020-10-16T09:03:13Z</time>
      </trkpt>
      <trkpt lat="37.366173000" lon="-4.818307000">
        <ele>284.1</ele>
        <time>2020-10-16T09:03:15Z</time>
      </trkpt>
      <trkpt lat="37.366126000" lon="-4.818469000">
        <ele>283.5</ele>
        <time>2020-10-16T09:03:17Z</time>
      </trkpt>
      <trkpt lat="37.366073000" lon="-4.818624000">
        <ele>283.0</ele>
        <time>2020-10-16T09:03:19Z</time>
      </trkpt>
      <trkpt lat="37.366017000" lon="-4.818785000">
        <ele>282.5</ele>
        <time>2020-10-16T09:03:21Z</time>
      </trkpt>
      <trkpt lat="37.365959000" lon="-4.818947000">
        <ele>282.1</ele>
        <time>2020-10-16T09:03:23Z</time>
      </trkpt>
      <trkpt lat="37.365898000" lon="-4.819105000">
        <ele>281.6</ele>
        <time>2020-10-16T09:03:25Z</time>
      </trkpt>
      <trkpt lat="37.365835000" lon="-4.819264000">
        <ele>281.2</ele>
        <time>2020-10-16T09:03:27Z</time>
      </trkpt>
      <trkpt lat="37.365771000" lon="-4.819433000">
        <ele>280.8</ele>
        <time>2020-10-16T09:03:29Z</time>
      </trkpt>
      <trkpt lat="37.365707000" lon="-4.819592000">
        <ele>280.5</ele>
        <time>2020-10-16T09:03:31Z</time>
      </trkpt>
      <trkpt lat="37.365639000" lon="-4.819757000">
        <ele>280.1</ele>
        <time>2020-10-16T09:03:33Z</time>
      </trkpt>
      <trkpt lat="37.365567000" lon="-4.819930000">
        <ele>279.7</ele>
        <time>2020-10-16T09:03:35Z</time>
      </trkpt>
      <trkpt lat="37.365495000" lon="-4.820099000">
        <ele>279.4</ele>
        <time>2020-10-16T09:03:37Z</time>
      </trkpt>
      <trkpt lat="37.365421000" lon="-4.820271000">
        <ele>279.0</ele>
        <time>2020-10-16T09:03:39Z</time>
      </trkpt>
      <trkpt lat="37.365347000" lon="-4.820449000">
        <ele>278.6</ele>
        <time>2020-10-16T09:03:41Z</time>
      </trkpt>
      <trkpt lat="37.365273000" lon="-4.820616000">
        <ele>278.3</ele>
        <time>2020-10-16T09:03:43Z</time>
      </trkpt>
      <trkpt lat="37.365200000" lon="-4.820796000">
        <ele>277.9</ele>
        <time>2020-10-16T09:03:45Z</time>
      </trkpt>
      <trkpt lat="37.365130000" lon="-4.820973000">
        <ele>277.6</ele>
        <time>2020-10-16T09:03:47Z</time>
      </trkpt>
      <trkpt lat="37.365055000" lon="-4.821143000">
        <ele>277.4</ele>
        <time>2020-10-16T09:03:49Z</time>
      </trkpt>
      <trkpt lat="37.364981000" lon="-4.821316000">
        <ele>277.1</ele>
        <time>2020-10-16T09:03:51Z</time>
      </trkpt>
      <trkpt lat="37.364913000" lon="-4.821484000">
        <ele>277.0</ele>
        <time>2020-10-16T09:03:53Z</time>
      </trkpt>
      <trkpt lat="37.364841000" lon="-4.821657000">
        <ele>276.9</ele>
        <time>2020-10-16T09:03:55Z</time>
      </trkpt>
      <trkpt lat="37.364774000" lon="-4.821831000">
        <ele>276.8</ele>
        <time>2020-10-16T09:03:57Z</time>
      </trkpt>
      <trkpt lat="37.364711000" lon="-4.821994000">
        <ele>276.6</ele>
        <time>2020-10-16T09:03:59Z</time>
      </trkpt>
      <trkpt lat="37.364651000" lon="-4.822144000">
        <ele>276.5</ele>
        <time>2020-10-16T09:04:01Z</time>
      </trkpt>
      <trkpt lat="37.364592000" lon="-4.822295000">
        <ele>276.5</ele>
        <time>2020-10-16T09:04:03Z</time>
      </trkpt>
      <trkpt lat="37.364540000" lon="-4.822436000">
        <ele>276.5</ele>
        <time>2020-10-16T09:04:05Z</time>
      </trkpt>
      <trkpt lat="37.364497000" lon="-4.822574000">
        <ele>276.8</ele>
        <time>2020-10-16T09:04:07Z</time>
      </trkpt>
      <trkpt lat="37.364476000" lon="-4.822703000">
        <ele>277.2</ele>
        <time>2020-10-16T09:04:09Z</time>
      </trkpt>
      <trkpt lat="37.364460000" lon="-4.822810000">
        <ele>277.6</ele>
        <time>2020-10-16T09:04:11Z</time>
      </trkpt>
      <trkpt lat="37.364420000" lon="-4.822924000">
        <ele>278.2</ele>
        <time>2020-10-16T09:04:14Z</time>
      </trkpt>
      <trkpt lat="37.364385000" lon="-4.823035000">
        <ele>278.6</ele>
        <time>2020-10-16T09:04:20Z</time>
      </trkpt>
      <trkpt lat="37.364353000" lon="-4.823142000">
        <ele>279.1</ele>
        <time>2020-10-16T09:04:25Z</time>
      </trkpt>
      <trkpt lat="37.364320000" lon="-4.823249000">
        <ele>279.5</ele>
        <time>2020-10-16T09:04:30Z</time>
      </trkpt>
      <trkpt lat="37.364291000" lon="-4.823350000">
        <ele>280.1</ele>
        <time>2020-10-16T09:04:35Z</time>
      </trkpt>
      <trkpt lat="37.364264000" lon="-4.823452000">
        <ele>280.6</ele>
        <time>2020-10-16T09:04:40Z</time>
      </trkpt>
      <trkpt lat="37.364232000" lon="-4.823556000">
        <ele>281.2</ele>
        <time>2020-10-16T09:04:45Z</time>
      </trkpt>
      <trkpt lat="37.364199000" lon="-4.823656000">
        <ele>281.6</ele>
        <time>2020-10-16T09:04:50Z</time>
      </trkpt>
      <trkpt lat="37.364167000" lon="-4.823761000">
        <ele>282.1</ele>
        <time>2020-10-16T09:04:55Z</time>
      </trkpt>
      <trkpt lat="37.364136000" lon="-4.823865000">
        <ele>282.5</ele>
        <time>2020-10-16T09:05:00Z</time>
      </trkpt>
      <trkpt lat="37.364108000" lon="-4.823971000">
        <ele>282.8</ele>
        <time>2020-10-16T09:05:05Z</time>
      </trkpt>
      <trkpt lat="37.364077000" lon="-4.824075000">
        <ele>283.1</ele>
        <time>2020-10-16T09:05:10Z</time>
      </trkpt>
      <trkpt lat="37.364044000" lon="-4.824177000">
        <ele>283.4</ele>
        <time>2020-10-16T09:05:15Z</time>
      </trkpt>
      <trkpt lat="37.364006000" lon="-4.824276000">
        <ele>283.6</ele>
        <time>2020-10-16T09:05:20Z</time>
      </trkpt>
      <trkpt lat="37.363965000" lon="-4.824370000">
        <ele>283.9</ele>
        <time>2020-10-16T09:05:25Z</time>
      </trkpt>
      <trkpt lat="37.363930000" lon="-4.824468000">
        <ele>284.2</ele>
        <time>2020-10-16T09:05:30Z</time>
      </trkpt>
      <trkpt lat="37.363901000" lon="-4.824572000">
        <ele>284.5</ele>
        <time>2020-10-16T09:05:35Z</time>
      </trkpt>
      <trkpt lat="37.363871000" lon="-4.824678000">
        <ele>284.8</ele>
        <time>2020-10-16T09:05:40Z</time>
      </trkpt>
      <trkpt lat="37.363843000" lon="-4.824783000">
        <ele>285.1</ele>
        <time>2020-10-16T09:05:45Z</time>
      </trkpt>
      <trkpt lat="37.363815000" lon="-4.824886000">
        <ele>285.3</ele>
        <time>2020-10-16T09:05:50Z</time>
      </trkpt>
      <trkpt lat="37.363789000" lon="-4.824994000">
        <ele>285.5</ele>
        <time>2020-10-16T09:05:55Z</time>
      </trkpt>
      <trkpt lat="37.363758000" lon="-4.825094000">
        <ele>285.5</ele>
        <time>2020-10-16T09:06:00Z</time>
      </trkpt>
      <trkpt lat="37.363730000" lon="-4.825191000">
        <ele>285.5</ele>
        <time>2020-10-16T09:06:05Z</time>
      </trkpt>
      <trkpt lat="37.363701000" lon="-4.825287000">
        <ele>285.5</ele>
        <time>2020-10-16T09:06:10Z</time>
      </trkpt>
      <trkpt lat="37.363675000" lon="-4.825386000">
        <ele>285.5</ele>
        <time>2020-10-16T09:06:15Z</time>
      </trkpt>
      <trkpt lat="37.363652000" lon="-4.825503000">
        <ele>285.5</ele>
        <time>2020-10-16T09:06:21Z</time>
      </trkpt>
      <trkpt lat="37.363627000" lon="-4.825621000">
        <ele>285.5</ele>
        <time>2020-10-16T09:06:27Z</time>
      </trkpt>
      <trkpt lat="37.363605000" lon="-4.825727000">
        <ele>285.4</ele>
        <time>2020-10-16T09:06:33Z</time>
      </trkpt>
      <trkpt lat="37.363596000" lon="-4.825851000">
        <ele>285.2</ele>
        <time>2020-10-16T09:06:43Z</time>
      </trkpt>
      <trkpt lat="37.363579000" lon="-4.825953000">
        <ele>285.0</ele>
        <time>2020-10-16T09:06:46Z</time>
      </trkpt>
      <trkpt lat="37.363561000" lon="-4.826055000">
        <ele>284.8</ele>
        <time>2020-10-16T09:06:49Z</time>
      </trkpt>
      <trkpt lat="37.363542000" lon="-4.826156000">
        <ele>284.6</ele>
        <time>2020-10-16T09:06:52Z</time>
      </trkpt>
      <trkpt lat="37.363526000" lon="-4.826290000">
        <ele>284.5</ele>
        <time>2020-10-16T09:06:56Z</time>
      </trkpt>
      <trkpt lat="37.363511000" lon="-4.826413000">
        <ele>284.4</ele>
        <time>2020-10-16T09:06:59Z</time>
      </trkpt>
      <trkpt lat="37.363496000" lon="-4.826544000">
        <ele>284.4</ele>
        <time>2020-10-16T09:07:02Z</time>
      </trkpt>
      <trkpt lat="37.363485000" lon="-4.826690000">
        <ele>284.4</ele>
        <time>2020-10-16T09:07:05Z</time>
      </trkpt>
      <trkpt lat="37.363477000" lon="-4.826795000">
        <ele>284.4</ele>
        <time>2020-10-16T09:07:07Z</time>
      </trkpt>
      <trkpt lat="37.363468000" lon="-4.826903000">
        <ele>284.3</ele>
        <time>2020-10-16T09:07:09Z</time>
      </trkpt>
      <trkpt lat="37.363457000" lon="-4.827014000">
        <ele>284.3</ele>
        <time>2020-10-16T09:07:11Z</time>
      </trkpt>
      <trkpt lat="37.363450000" lon="-4.827133000">
        <ele>284.2</ele>
        <time>2020-10-16T09:07:13Z</time>
      </trkpt>
      <trkpt lat="37.363437000" lon="-4.827260000">
        <ele>284.0</ele>
        <time>2020-10-16T09:07:15Z</time>
      </trkpt>
      <trkpt lat="37.363426000" lon="-4.827401000">
        <ele>283.7</ele>
        <time>2020-10-16T09:07:17Z</time>
      </trkpt>
      <trkpt lat="37.363418000" lon="-4.827549000">
        <ele>283.5</ele>
        <time>2020-10-16T09:07:19Z</time>
      </trkpt>
      <trkpt lat="37.363405000" lon="-4.827709000">
        <ele>283.3</ele>
        <time>2020-10-16T09:07:21Z</time>
      </trkpt>
      <trkpt lat="37.363391000" lon="-4.827873000">
        <ele>283.1</ele>
        <time>2020-10-16T09:07:23Z</time>
      </trkpt>
      <trkpt lat="37.363381000" lon="-4.828035000">
        <ele>282.8</ele>
        <time>2020-10-16T09:07:25Z</time>
      </trkpt>
      <trkpt lat="37.363369000" lon="-4.828197000">
        <ele>282.5</ele>
        <time>2020-10-16T09:07:27Z</time>
      </trkpt>
      <trkpt lat="37.363360000" lon="-4.828351000">
        <ele>282.3</ele>
        <time>2020-10-16T09:07:29Z</time>
      </trkpt>
      <trkpt lat="37.363347000" lon="-4.828500000">
        <ele>282.0</ele>
        <time>2020-10-16T09:07:31Z</time>
      </trkpt>
      <trkpt lat="37.363335000" lon="-4.828642000">
        <ele>281.8</ele>
        <time>2020-10-16T09:07:33Z</time>
      </trkpt>
      <trkpt lat="37.363324000" lon="-4.828778000">
        <ele>281.7</ele>
        <time>2020-10-16T09:07:35Z</time>
      </trkpt>
      <trkpt lat="37.363320000" lon="-4.828894000">
        <ele>281.8</ele>
        <time>2020-10-16T09:07:37Z</time>
      </trkpt>
      <trkpt lat="37.363311000" lon="-4.829035000">
        <ele>282.1</ele>
        <time>2020-10-16T09:07:40Z</time>
      </trkpt>
      <trkpt lat="37.363288000" lon="-4.829146000">
        <ele>282.5</ele>
        <time>2020-10-16T09:07:47Z</time>
      </trkpt>
      <trkpt lat="37.363242000" lon="-4.829237000">
        <ele>282.8</ele>
        <time>2020-10-16T09:07:53Z</time>
      </trkpt>
      <trkpt lat="37.363226000" lon="-4.829338000">
        <ele>283.3</ele>
        <time>2020-10-16T09:07:58Z</time>
      </trkpt>
      <trkpt lat="37.363220000" lon="-4.829445000">
        <ele>283.9</ele>
        <time>2020-10-16T09:08:03Z</time>
      </trkpt>
      <trkpt lat="37.363211000" lon="-4.829552000">
        <ele>284.6</ele>
        <time>2020-10-16T09:08:08Z</time>
      </trkpt>
      <trkpt lat="37.363201000" lon="-4.829657000">
        <ele>285.5</ele>
        <time>2020-10-16T09:08:13Z</time>
      </trkpt>
      <trkpt lat="37.363195000" lon="-4.829763000">
        <ele>286.6</ele>
        <time>2020-10-16T09:08:18Z</time>
      </trkpt>
      <trkpt lat="37.363186000" lon="-4.829870000">
        <ele>287.7</ele>
        <time>2020-10-16T09:08:23Z</time>
      </trkpt>
      <trkpt lat="37.363179000" lon="-4.829988000">
        <ele>288.9</ele>
        <time>2020-10-16T09:08:29Z</time>
      </trkpt>
      <trkpt lat="37.363166000" lon="-4.830101000">
        <ele>290.0</ele>
        <time>2020-10-16T09:08:35Z</time>
      </trkpt>
      <trkpt lat="37.363156000" lon="-4.830214000">
        <ele>291.0</ele>
        <time>2020-10-16T09:08:41Z</time>
      </trkpt>
      <trkpt lat="37.363149000" lon="-4.830319000">
        <ele>292.0</ele>
        <time>2020-10-16T09:08:47Z</time>
      </trkpt>
      <trkpt lat="37.363141000" lon="-4.830424000">
        <ele>293.0</ele>
        <time>2020-10-16T09:08:53Z</time>
      </trkpt>
      <trkpt lat="37.363130000" lon="-4.830538000">
        <ele>293.9</ele>
        <time>2020-10-16T09:08:59Z</time>
      </trkpt>
      <trkpt lat="37.363125000" lon="-4.830641000">
        <ele>294.7</ele>
        <time>2020-10-16T09:09:04Z</time>
      </trkpt>
      <trkpt lat="37.363118000" lon="-4.830745000">
        <ele>295.5</ele>
        <time>2020-10-16T09:09:09Z</time>
      </trkpt>
      <trkpt lat="37.363109000" lon="-4.830848000">
        <ele>296.2</ele>
        <time>2020-10-16T09:09:14Z</time>
      </trkpt>
      <trkpt lat="37.363103000" lon="-4.830951000">
        <ele>296.7</ele>
        <time>2020-10-16T09:09:19Z</time>
      </trkpt>
      <trkpt lat="37.363095000" lon="-4.831054000">
        <ele>297.1</ele>
        <time>2020-10-16T09:09:24Z</time>
      </trkpt>
      <trkpt lat="37.363088000" lon="-4.831164000">
        <ele>297.4</ele>
        <time>2020-10-16T09:09:29Z</time>
      </trkpt>
      <trkpt lat="37.363074000" lon="-4.831267000">
        <ele>297.5</ele>
        <time>2020-10-16T09:09:34Z</time>
      </trkpt>
      <trkpt lat="37.363061000" lon="-4.831368000">
        <ele>297.5</ele>
        <time>2020-10-16T09:09:39Z</time>
      </trkpt>
      <trkpt lat="37.363071000" lon="-4.831487000">
        <ele>297.2</ele>
        <time>2020-10-16T09:09:45Z</time>
      </trkpt>
      <trkpt lat="37.363082000" lon="-4.831607000">
        <ele>296.7</ele>
        <time>2020-10-16T09:09:51Z</time>
      </trkpt>
      <trkpt lat="37.363088000" lon="-4.831724000">
        <ele>296.2</ele>
        <time>2020-10-16T09:09:59Z</time>
      </trkpt>
      <trkpt lat="37.363090000" lon="-4.831860000">
        <ele>295.5</ele>
        <time>2020-10-16T09:10:03Z</time>
      </trkpt>
      <trkpt lat="37.363073000" lon="-4.831992000">
        <ele>294.6</ele>
        <time>2020-10-16T09:10:06Z</time>
      </trkpt>
      <trkpt lat="37.363030000" lon="-4.832104000">
        <ele>293.8</ele>
        <time>2020-10-16T09:10:08Z</time>
      </trkpt>
      <trkpt lat="37.363017000" lon="-4.832226000">
        <ele>293.0</ele>
        <time>2020-10-16T09:10:10Z</time>
      </trkpt>
      <trkpt lat="37.362999000" lon="-4.832365000">
        <ele>292.3</ele>
        <time>2020-10-16T09:10:12Z</time>
      </trkpt>
      <trkpt lat="37.362976000" lon="-4.832523000">
        <ele>291.5</ele>
        <time>2020-10-16T09:10:14Z</time>
      </trkpt>
      <trkpt lat="37.362955000" lon="-4.832691000">
        <ele>290.7</ele>
        <time>2020-10-16T09:10:16Z</time>
      </trkpt>
      <trkpt lat="37.362930000" lon="-4.832871000">
        <ele>290.0</ele>
        <time>2020-10-16T09:10:18Z</time>
      </trkpt>
      <trkpt lat="37.362907000" lon="-4.833064000">
        <ele>289.4</ele>
        <time>2020-10-16T09:10:20Z</time>
      </trkpt>
      <trkpt lat="37.362893000" lon="-4.833171000">
        <ele>288.8</ele>
        <time>2020-10-16T09:10:21Z</time>
      </trkpt>
      <trkpt lat="37.362878000" lon="-4.833277000">
        <ele>288.4</ele>
        <time>2020-10-16T09:10:22Z</time>
      </trkpt>
      <trkpt lat="37.362866000" lon="-4.833390000">
        <ele>288.0</ele>
        <time>2020-10-16T09:10:23Z</time>
      </trkpt>
      <trkpt lat="37.362852000" lon="-4.833499000">
        <ele>287.6</ele>
        <time>2020-10-16T09:10:24Z</time>
      </trkpt>
      <trkpt lat="37.362841000" lon="-4.833611000">
        <ele>287.3</ele>
        <time>2020-10-16T09:10:25Z</time>
      </trkpt>
      <trkpt lat="37.362823000" lon="-4.833727000">
        <ele>286.9</ele>
        <time>2020-10-16T09:10:26Z</time>
      </trkpt>
      <trkpt lat="37.362807000" lon="-4.833844000">
        <ele>286.5</ele>
        <time>2020-10-16T09:10:27Z</time>
      </trkpt>
      <trkpt lat="37.362793000" lon="-4.833958000">
        <ele>286.1</ele>
        <time>2020-10-16T09:10:28Z</time>
      </trkpt>
      <trkpt lat="37.362778000" lon="-4.834073000">
        <ele>285.7</ele>
        <time>2020-10-16T09:10:29Z</time>
      </trkpt>
      <trkpt lat="37.362762000" lon="-4.834187000">
        <ele>285.4</ele>
        <time>2020-10-16T09:10:30Z</time>
      </trkpt>
      <trkpt lat="37.362745000" lon="-4.834298000">
        <ele>285.1</ele>
        <time>2020-10-16T09:10:31Z</time>
      </trkpt>
      <trkpt lat="37.362728000" lon="-4.834409000">
        <ele>284.7</ele>
        <time>2020-10-16T09:10:32Z</time>
      </trkpt>
      <trkpt lat="37.362713000" lon="-4.834520000">
        <ele>284.4</ele>
        <time>2020-10-16T09:10:33Z</time>
      </trkpt>
      <trkpt lat="37.362698000" lon="-4.834629000">
        <ele>284.0</ele>
        <time>2020-10-16T09:10:34Z</time>
      </trkpt>
      <trkpt lat="37.362683000" lon="-4.834740000">
        <ele>283.6</ele>
        <time>2020-10-16T09:10:35Z</time>
      </trkpt>
      <trkpt lat="37.362667000" lon="-4.834843000">
        <ele>283.4</ele>
        <time>2020-10-16T09:10:36Z</time>
      </trkpt>
      <trkpt lat="37.362654000" lon="-4.834949000">
        <ele>283.1</ele>
        <time>2020-10-16T09:10:37Z</time>
      </trkpt>
      <trkpt lat="37.362642000" lon="-4.835054000">
        <ele>282.9</ele>
        <time>2020-10-16T09:10:38Z</time>
      </trkpt>
      <trkpt lat="37.362614000" lon="-4.835254000">
        <ele>282.7</ele>
        <time>2020-10-16T09:10:40Z</time>
      </trkpt>
      <trkpt lat="37.362588000" lon="-4.835446000">
        <ele>282.5</ele>
        <time>2020-10-16T09:10:42Z</time>
      </trkpt>
      <trkpt lat="37.362564000" lon="-4.835634000">
        <ele>282.4</ele>
        <time>2020-10-16T09:10:44Z</time>
      </trkpt>
      <trkpt lat="37.362535000" lon="-4.835821000">
        <ele>282.2</ele>
        <time>2020-10-16T09:10:46Z</time>
      </trkpt>
      <trkpt lat="37.362514000" lon="-4.836003000">
        <ele>282.1</ele>
        <time>2020-10-16T09:10:48Z</time>
      </trkpt>
      <trkpt lat="37.362492000" lon="-4.836183000">
        <ele>282.0</ele>
        <time>2020-10-16T09:10:50Z</time>
      </trkpt>
      <trkpt lat="37.362469000" lon="-4.836358000">
        <ele>281.9</ele>
        <time>2020-10-16T09:10:52Z</time>
      </trkpt>
      <trkpt lat="37.362447000" lon="-4.836533000">
        <ele>281.8</ele>
        <time>2020-10-16T09:10:54Z</time>
      </trkpt>
      <trkpt lat="37.362421000" lon="-4.836701000">
        <ele>281.5</ele>
        <time>2020-10-16T09:10:56Z</time>
      </trkpt>
      <trkpt lat="37.362400000" lon="-4.836866000">
        <ele>281.3</ele>
        <time>2020-10-16T09:10:58Z</time>
      </trkpt>
      <trkpt lat="37.362379000" lon="-4.837026000">
        <ele>280.9</ele>
        <time>2020-10-16T09:11:00Z</time>
      </trkpt>
      <trkpt lat="37.362359000" lon="-4.837172000">
        <ele>280.5</ele>
        <time>2020-10-16T09:11:02Z</time>
      </trkpt>
      <trkpt lat="37.362339000" lon="-4.837312000">
        <ele>280.0</ele>
        <time>2020-10-16T09:11:04Z</time>
      </trkpt>
      <trkpt lat="37.362316000" lon="-4.837447000">
        <ele>279.4</ele>
        <time>2020-10-16T09:11:06Z</time>
      </trkpt>
      <trkpt lat="37.362294000" lon="-4.837579000">
        <ele>278.5</ele>
        <time>2020-10-16T09:11:08Z</time>
      </trkpt>
      <trkpt lat="37.362278000" lon="-4.837720000">
        <ele>277.7</ele>
        <time>2020-10-16T09:11:10Z</time>
      </trkpt>
      <trkpt lat="37.362254000" lon="-4.837873000">
        <ele>276.9</ele>
        <time>2020-10-16T09:11:12Z</time>
      </trkpt>
      <trkpt lat="37.362225000" lon="-4.838052000">
        <ele>276.1</ele>
        <time>2020-10-16T09:11:14Z</time>
      </trkpt>
      <trkpt lat="37.362193000" lon="-4.838244000">
        <ele>275.4</ele>
        <time>2020-10-16T09:11:16Z</time>
      </trkpt>
      <trkpt lat="37.362159000" lon="-4.838451000">
        <ele>274.7</ele>
        <time>2020-10-16T09:11:18Z</time>
      </trkpt>
      <trkpt lat="37.362137000" lon="-4.838558000">
        <ele>274.1</ele>
        <time>2020-10-16T09:11:19Z</time>
      </trkpt>
      <trkpt lat="37.362118000" lon="-4.838671000">
        <ele>273.5</ele>
        <time>2020-10-16T09:11:20Z</time>
      </trkpt>
      <trkpt lat="37.362096000" lon="-4.838785000">
        <ele>272.9</ele>
        <time>2020-10-16T09:11:21Z</time>
      </trkpt>
      <trkpt lat="37.362075000" lon="-4.838900000">
        <ele>272.4</ele>
        <time>2020-10-16T09:11:22Z</time>
      </trkpt>
      <trkpt lat="37.362049000" lon="-4.839022000">
        <ele>272.1</ele>
        <time>2020-10-16T09:11:23Z</time>
      </trkpt>
      <trkpt lat="37.362026000" lon="-4.839143000">
        <ele>272.0</ele>
        <time>2020-10-16T09:11:24Z</time>
      </trkpt>
      <trkpt lat="37.362002000" lon="-4.839268000">
        <ele>271.9</ele>
        <time>2020-10-16T09:11:25Z</time>
      </trkpt>
      <trkpt lat="37.361983000" lon="-4.839397000">
        <ele>271.9</ele>
        <time>2020-10-16T09:11:26Z</time>
      </trkpt>
      <trkpt lat="37.361960000" lon="-4.839527000">
        <ele>271.9</ele>
        <time>2020-10-16T09:11:27Z</time>
      </trkpt>
      <trkpt lat="37.361935000" lon="-4.839654000">
        <ele>271.8</ele>
        <time>2020-10-16T09:11:28Z</time>
      </trkpt>
      <trkpt lat="37.361913000" lon="-4.839784000">
        <ele>271.8</ele>
        <time>2020-10-16T09:11:29Z</time>
      </trkpt>
      <trkpt lat="37.361890000" lon="-4.839911000">
        <ele>271.8</ele>
        <time>2020-10-16T09:11:30Z</time>
      </trkpt>
      <trkpt lat="37.361864000" lon="-4.840042000">
        <ele>271.9</ele>
        <time>2020-10-16T09:11:31Z</time>
      </trkpt>
      <trkpt lat="37.361845000" lon="-4.840163000">
        <ele>272.0</ele>
        <time>2020-10-16T09:11:32Z</time>
      </trkpt>
      <trkpt lat="37.361825000" lon="-4.840284000">
        <ele>272.1</ele>
        <time>2020-10-16T09:11:33Z</time>
      </trkpt>
      <trkpt lat="37.361806000" lon="-4.840400000">
        <ele>272.1</ele>
        <time>2020-10-16T09:11:34Z</time>
      </trkpt>
      <trkpt lat="37.361782000" lon="-4.840513000">
        <ele>271.9</ele>
        <time>2020-10-16T09:11:35Z</time>
      </trkpt>
      <trkpt lat="37.361760000" lon="-4.840625000">
        <ele>271.6</ele>
        <time>2020-10-16T09:11:36Z</time>
      </trkpt>
      <trkpt lat="37.361741000" lon="-4.840732000">
        <ele>271.2</ele>
        <time>2020-10-16T09:11:37Z</time>
      </trkpt>
      <trkpt lat="37.361722000" lon="-4.840832000">
        <ele>270.6</ele>
        <time>2020-10-16T09:11:38Z</time>
      </trkpt>
      <trkpt lat="37.361705000" lon="-4.840934000">
        <ele>270.0</ele>
        <time>2020-10-16T09:11:39Z</time>
      </trkpt>
      <trkpt lat="37.361680000" lon="-4.841126000">
        <ele>269.3</ele>
        <time>2020-10-16T09:11:41Z</time>
      </trkpt>
      <trkpt lat="37.361673000" lon="-4.841287000">
        <ele>268.5</ele>
        <time>2020-10-16T09:11:43Z</time>
      </trkpt>
      <trkpt lat="37.361685000" lon="-4.841419000">
        <ele>267.8</ele>
        <time>2020-10-16T09:11:45Z</time>
      </trkpt>
      <trkpt lat="37.361729000" lon="-4.841539000">
        <ele>267.0</ele>
        <time>2020-10-16T09:11:47Z</time>
      </trkpt>
      <trkpt lat="37.361735000" lon="-4.841659000">
        <ele>266.3</ele>
        <time>2020-10-16T09:11:49Z</time>
      </trkpt>
      <trkpt lat="37.361678000" lon="-4.841755000">
        <ele>265.6</ele>
        <time>2020-10-16T09:11:51Z</time>
      </trkpt>
      <trkpt lat="37.361599000" lon="-4.841822000">
        <ele>265.1</ele>
        <time>2020-10-16T09:11:53Z</time>
      </trkpt>
      <trkpt lat="37.361547000" lon="-4.841921000">
        <ele>264.6</ele>
        <time>2020-10-16T09:11:55Z</time>
      </trkpt>
      <trkpt lat="37.361520000" lon="-4.842038000">
        <ele>264.2</ele>
        <time>2020-10-16T09:11:57Z</time>
      </trkpt>
      <trkpt lat="37.361502000" lon="-4.842158000">
        <ele>263.8</ele>
        <time>2020-10-16T09:11:59Z</time>
      </trkpt>
      <trkpt lat="37.361489000" lon="-4.842282000">
        <ele>263.5</ele>
        <time>2020-10-16T09:12:01Z</time>
      </trkpt>
      <trkpt lat="37.361482000" lon="-4.842419000">
        <ele>263.3</ele>
        <time>2020-10-16T09:12:03Z</time>
      </trkpt>
      <trkpt lat="37.361477000" lon="-4.842559000">
        <ele>263.0</ele>
        <time>2020-10-16T09:12:05Z</time>
      </trkpt>
      <trkpt lat="37.361479000" lon="-4.842708000">
        <ele>262.8</ele>
        <time>2020-10-16T09:12:07Z</time>
      </trkpt>
      <trkpt lat="37.361484000" lon="-4.842860000">
        <ele>262.7</ele>
        <time>2020-10-16T09:12:09Z</time>
      </trkpt>
      <trkpt lat="37.361493000" lon="-4.843016000">
        <ele>262.6</ele>
        <time>2020-10-16T09:12:11Z</time>
      </trkpt>
      <trkpt lat="37.361497000" lon="-4.843177000">
        <ele>262.5</ele>
        <time>2020-10-16T09:12:13Z</time>
      </trkpt>
      <trkpt lat="37.361496000" lon="-4.843340000">
        <ele>262.3</ele>
        <time>2020-10-16T09:12:15Z</time>
      </trkpt>
      <trkpt lat="37.361500000" lon="-4.843501000">
        <ele>262.0</ele>
        <time>2020-10-16T09:12:17Z</time>
      </trkpt>
      <trkpt lat="37.361506000" lon="-4.843664000">
        <ele>261.7</ele>
        <time>2020-10-16T09:12:19Z</time>
      </trkpt>
      <trkpt lat="37.361509000" lon="-4.843826000">
        <ele>261.5</ele>
        <time>2020-10-16T09:12:21Z</time>
      </trkpt>
      <trkpt lat="37.361511000" lon="-4.843986000">
        <ele>261.1</ele>
        <time>2020-10-16T09:12:23Z</time>
      </trkpt>
      <trkpt lat="37.361516000" lon="-4.844140000">
        <ele>260.7</ele>
        <time>2020-10-16T09:12:25Z</time>
      </trkpt>
      <trkpt lat="37.361522000" lon="-4.844300000">
        <ele>260.5</ele>
        <time>2020-10-16T09:12:27Z</time>
      </trkpt>
      <trkpt lat="37.361525000" lon="-4.844442000">
        <ele>260.1</ele>
        <time>2020-10-16T09:12:29Z</time>
      </trkpt>
      <trkpt lat="37.361536000" lon="-4.844579000">
        <ele>259.7</ele>
        <time>2020-10-16T09:12:31Z</time>
      </trkpt>
      <trkpt lat="37.361547000" lon="-4.844744000">
        <ele>259.4</ele>
        <time>2020-10-16T09:12:33Z</time>
      </trkpt>
      <trkpt lat="37.361555000" lon="-4.844916000">
        <ele>259.0</ele>
        <time>2020-10-16T09:12:35Z</time>
      </trkpt>
      <trkpt lat="37.361566000" lon="-4.845087000">
        <ele>258.6</ele>
        <time>2020-10-16T09:12:37Z</time>
      </trkpt>
      <trkpt lat="37.361574000" lon="-4.845258000">
        <ele>258.2</ele>
        <time>2020-10-16T09:12:39Z</time>
      </trkpt>
      <trkpt lat="37.361582000" lon="-4.845435000">
        <ele>257.6</ele>
        <time>2020-10-16T09:12:41Z</time>
      </trkpt>
      <trkpt lat="37.361590000" lon="-4.845609000">
        <ele>257.1</ele>
        <time>2020-10-16T09:12:43Z</time>
      </trkpt>
      <trkpt lat="37.361596000" lon="-4.845798000">
        <ele>256.5</ele>
        <time>2020-10-16T09:12:45Z</time>
      </trkpt>
      <trkpt lat="37.361607000" lon="-4.845992000">
        <ele>256.0</ele>
        <time>2020-10-16T09:12:47Z</time>
      </trkpt>
      <trkpt lat="37.361612000" lon="-4.846185000">
        <ele>255.4</ele>
        <time>2020-10-16T09:12:49Z</time>
      </trkpt>
      <trkpt lat="37.361612000" lon="-4.846384000">
        <ele>254.7</ele>
        <time>2020-10-16T09:12:51Z</time>
      </trkpt>
      <trkpt lat="37.361610000" lon="-4.846486000">
        <ele>254.2</ele>
        <time>2020-10-16T09:12:52Z</time>
      </trkpt>
      <trkpt lat="37.361613000" lon="-4.846588000">
        <ele>253.6</ele>
        <time>2020-10-16T09:12:53Z</time>
      </trkpt>
      <trkpt lat="37.361610000" lon="-4.846793000">
        <ele>253.1</ele>
        <time>2020-10-16T09:12:55Z</time>
      </trkpt>
      <trkpt lat="37.361617000" lon="-4.846987000">
        <ele>252.6</ele>
        <time>2020-10-16T09:12:57Z</time>
      </trkpt>
      <trkpt lat="37.361627000" lon="-4.847178000">
        <ele>252.4</ele>
        <time>2020-10-16T09:12:59Z</time>
      </trkpt>
      <trkpt lat="37.361641000" lon="-4.847371000">
        <ele>252.2</ele>
        <time>2020-10-16T09:13:01Z</time>
      </trkpt>
      <trkpt lat="37.361653000" lon="-4.847547000">
        <ele>252.0</ele>
        <time>2020-10-16T09:13:03Z</time>
      </trkpt>
      <trkpt lat="37.361666000" lon="-4.847721000">
        <ele>251.8</ele>
        <time>2020-10-16T09:13:05Z</time>
      </trkpt>
      <trkpt lat="37.361677000" lon="-4.847901000">
        <ele>251.6</ele>
        <time>2020-10-16T09:13:07Z</time>
      </trkpt>
      <trkpt lat="37.361684000" lon="-4.848057000">
        <ele>251.5</ele>
        <time>2020-10-16T09:13:09Z</time>
      </trkpt>
      <trkpt lat="37.361692000" lon="-4.848199000">
        <ele>251.3</ele>
        <time>2020-10-16T09:13:11Z</time>
      </trkpt>
      <trkpt lat="37.361701000" lon="-4.848340000">
        <ele>251.0</ele>
        <time>2020-10-16T09:13:13Z</time>
      </trkpt>
      <trkpt lat="37.361705000" lon="-4.848466000">
        <ele>250.7</ele>
        <time>2020-10-16T09:13:15Z</time>
      </trkpt>
      <trkpt lat="37.361722000" lon="-4.848572000">
        <ele>250.5</ele>
        <time>2020-10-16T09:13:17Z</time>
      </trkpt>
      <trkpt lat="37.361724000" lon="-4.848682000">
        <ele>250.5</ele>
        <time>2020-10-16T09:13:19Z</time>
      </trkpt>
      <trkpt lat="37.361738000" lon="-4.848790000">
        <ele>250.4</ele>
        <time>2020-10-16T09:13:21Z</time>
      </trkpt>
      <trkpt lat="37.361743000" lon="-4.848896000">
        <ele>250.4</ele>
        <time>2020-10-16T09:13:23Z</time>
      </trkpt>
      <trkpt lat="37.361735000" lon="-4.849037000">
        <ele>250.4</ele>
        <time>2020-10-16T09:13:26Z</time>
      </trkpt>
      <trkpt lat="37.361747000" lon="-4.849173000">
        <ele>250.4</ele>
        <time>2020-10-16T09:13:29Z</time>
      </trkpt>
      <trkpt lat="37.361756000" lon="-4.849299000">
        <ele>250.4</ele>
        <time>2020-10-16T09:13:33Z</time>
      </trkpt>
      <trkpt lat="37.361750000" lon="-4.849415000">
        <ele>250.4</ele>
        <time>2020-10-16T09:13:38Z</time>
      </trkpt>
      <trkpt lat="37.361774000" lon="-4.849305000">
        <ele>250.4</ele>
        <time>2020-10-16T09:14:52Z</time>
      </trkpt>
      <trkpt lat="37.361801000" lon="-4.849197000">
        <ele>250.4</ele>
        <time>2020-10-16T09:15:04Z</time>
      </trkpt>
      <trkpt lat="37.361726000" lon="-4.849129000">
        <ele>250.4</ele>
        <time>2020-10-16T09:15:13Z</time>
      </trkpt>
      <trkpt lat="37.361741000" lon="-4.849026000">
        <ele>250.4</ele>
        <time>2020-10-16T09:15:21Z</time>
      </trkpt>
      <trkpt lat="37.361774000" lon="-4.848912000">
        <ele>250.3</ele>
        <time>2020-10-16T09:15:30Z</time>
      </trkpt>
      <trkpt lat="37.361825000" lon="-4.848830000">
        <ele>250.2</ele>
        <time>2020-10-16T09:15:34Z</time>
      </trkpt>
      <trkpt lat="37.361893000" lon="-4.848761000">
        <ele>250.1</ele>
        <time>2020-10-16T09:15:39Z</time>
      </trkpt>
      <trkpt lat="37.361977000" lon="-4.848693000">
        <ele>250.0</ele>
        <time>2020-10-16T09:15:44Z</time>
      </trkpt>
      <trkpt lat="37.362032000" lon="-4.848604000">
        <ele>249.9</ele>
        <time>2020-10-16T09:15:49Z</time>
      </trkpt>
      <trkpt lat="37.362076000" lon="-4.848512000">
        <ele>249.8</ele>
        <time>2020-10-16T09:15:55Z</time>
      </trkpt>
      <trkpt lat="37.362139000" lon="-4.848427000">
        <ele>249.7</ele>
        <time>2020-10-16T09:16:04Z</time>
      </trkpt>
      <trkpt lat="37.362239000" lon="-4.848396000">
        <ele>249.6</ele>
        <time>2020-10-16T09:16:12Z</time>
      </trkpt>
      <trkpt lat="37.362345000" lon="-4.848396000">
        <ele>249.5</ele>
        <time>2020-10-16T09:16:14Z</time>
      </trkpt>
      <trkpt lat="37.362442000" lon="-4.848388000">
        <ele>249.5</ele>
        <time>2020-10-16T09:16:17Z</time>
      </trkpt>
      <trkpt lat="37.362532000" lon="-4.848376000">
        <ele>249.4</ele>
        <time>2020-10-16T09:16:20Z</time>
      </trkpt>
      <trkpt lat="37.362618000" lon="-4.848371000">
        <ele>249.3</ele>
        <time>2020-10-16T09:16:23Z</time>
      </trkpt>
      <trkpt lat="37.362701000" lon="-4.848368000">
        <ele>249.2</ele>
        <time>2020-10-16T09:16:26Z</time>
      </trkpt>
      <trkpt lat="37.362800000" lon="-4.848375000">
        <ele>249.1</ele>
        <time>2020-10-16T09:16:30Z</time>
      </trkpt>
      <trkpt lat="37.362899000" lon="-4.848391000">
        <ele>249.1</ele>
        <time>2020-10-16T09:16:34Z</time>
      </trkpt>
      <trkpt lat="37.362994000" lon="-4.848386000">
        <ele>249.1</ele>
        <time>2020-10-16T09:16:37Z</time>
      </trkpt>
      <trkpt lat="37.363083000" lon="-4.848410000">
        <ele>249.1</ele>
        <time>2020-10-16T09:16:40Z</time>
      </trkpt>
      <trkpt lat="37.363169000" lon="-4.848439000">
        <ele>249.1</ele>
        <time>2020-10-16T09:16:43Z</time>
      </trkpt>
      <trkpt lat="37.363262000" lon="-4.848458000">
        <ele>249.1</ele>
        <time>2020-10-16T09:16:46Z</time>
      </trkpt>
      <trkpt lat="37.363356000" lon="-4.848487000">
        <ele>249.0</ele>
        <time>2020-10-16T09:16:49Z</time>
      </trkpt>
      <trkpt lat="37.363462000" lon="-4.848514000">
        <ele>248.9</ele>
        <time>2020-10-16T09:16:52Z</time>
      </trkpt>
      <trkpt lat="37.363564000" lon="-4.848558000">
        <ele>248.8</ele>
        <time>2020-10-16T09:16:55Z</time>
      </trkpt>
      <trkpt lat="37.363646000" lon="-4.848576000">
        <ele>248.7</ele>
        <time>2020-10-16T09:16:58Z</time>
      </trkpt>
      <trkpt lat="37.363737000" lon="-4.848585000">
        <ele>248.5</ele>
        <time>2020-10-16T09:17:09Z</time>
      </trkpt>
      <trkpt lat="37.363814000" lon="-4.848623000">
        <ele>248.4</ele>
        <time>2020-10-16T09:17:14Z</time>
      </trkpt>
      <trkpt lat="37.363864000" lon="-4.848710000">
        <ele>248.1</ele>
        <time>2020-10-16T09:17:25Z</time>
      </trkpt>
      <trkpt lat="37.363937000" lon="-4.848792000">
        <ele>248.0</ele>
        <time>2020-10-16T09:17:31Z</time>
      </trkpt>
      <trkpt lat="37.364011000" lon="-4.848857000">
        <ele>247.9</ele>
        <time>2020-10-16T09:17:34Z</time>
      </trkpt>
      <trkpt lat="37.364085000" lon="-4.848908000">
        <ele>247.8</ele>
        <time>2020-10-16T09:17:39Z</time>
      </trkpt>
      <trkpt lat="37.364165000" lon="-4.848932000">
        <ele>247.8</ele>
        <time>2020-10-16T09:30:43Z</time>
      </trkpt>
      <trkpt lat="37.364089000" lon="-4.848894000">
        <ele>247.9</ele>
        <time>2020-10-16T09:39:00Z</time>
      </trkpt>
      <trkpt lat="37.363982000" lon="-4.848833000">
        <ele>248.0</ele>
        <time>2020-10-16T09:39:03Z</time>
      </trkpt>
      <trkpt lat="37.363906000" lon="-4.848752000">
        <ele>248.1</ele>
        <time>2020-10-16T09:39:06Z</time>
      </trkpt>
      <trkpt lat="37.363838000" lon="-4.848683000">
        <ele>248.2</ele>
        <time>2020-10-16T09:39:09Z</time>
      </trkpt>
      <trkpt lat="37.363761000" lon="-4.848639000">
        <ele>248.4</ele>
        <time>2020-10-16T09:39:12Z</time>
      </trkpt>
      <trkpt lat="37.363684000" lon="-4.848609000">
        <ele>248.5</ele>
        <time>2020-10-16T09:39:15Z</time>
      </trkpt>
      <trkpt lat="37.363587000" lon="-4.848557000">
        <ele>248.7</ele>
        <time>2020-10-16T09:39:19Z</time>
      </trkpt>
      <trkpt lat="37.363509000" lon="-4.848518000">
        <ele>248.8</ele>
        <time>2020-10-16T09:39:22Z</time>
      </trkpt>
      <trkpt lat="37.363413000" lon="-4.848472000">
        <ele>248.9</ele>
        <time>2020-10-16T09:39:26Z</time>
      </trkpt>
      <trkpt lat="37.363309000" lon="-4.848437000">
        <ele>249.0</ele>
        <time>2020-10-16T09:39:30Z</time>
      </trkpt>
      <trkpt lat="37.363216000" lon="-4.848410000">
        <ele>249.0</ele>
        <time>2020-10-16T09:39:33Z</time>
      </trkpt>
      <trkpt lat="37.363119000" lon="-4.848389000">
        <ele>249.0</ele>
        <time>2020-10-16T09:39:36Z</time>
      </trkpt>
      <trkpt lat="37.363021000" lon="-4.848371000">
        <ele>249.0</ele>
        <time>2020-10-16T09:39:39Z</time>
      </trkpt>
      <trkpt lat="37.362918000" lon="-4.848372000">
        <ele>249.0</ele>
        <time>2020-10-16T09:39:42Z</time>
      </trkpt>
      <trkpt lat="37.362821000" lon="-4.848361000">
        <ele>249.1</ele>
        <time>2020-10-16T09:39:45Z</time>
      </trkpt>
      <trkpt lat="37.362729000" lon="-4.848365000">
        <ele>249.2</ele>
        <time>2020-10-16T09:39:48Z</time>
      </trkpt>
      <trkpt lat="37.362639000" lon="-4.848378000">
        <ele>249.3</ele>
        <time>2020-10-16T09:39:51Z</time>
      </trkpt>
      <trkpt lat="37.362545000" lon="-4.848382000">
        <ele>249.4</ele>
        <time>2020-10-16T09:39:54Z</time>
      </trkpt>
      <trkpt lat="37.362455000" lon="-4.848391000">
        <ele>249.5</ele>
        <time>2020-10-16T09:39:57Z</time>
      </trkpt>
      <trkpt lat="37.362361000" lon="-4.848395000">
        <ele>249.5</ele>
        <time>2020-10-16T09:40:00Z</time>
      </trkpt>
      <trkpt lat="37.362273000" lon="-4.848405000">
        <ele>249.6</ele>
        <time>2020-10-16T09:40:03Z</time>
      </trkpt>
      <trkpt lat="37.362189000" lon="-4.848404000">
        <ele>249.7</ele>
        <time>2020-10-16T09:40:06Z</time>
      </trkpt>
      <trkpt lat="37.362130000" lon="-4.848518000">
        <ele>249.8</ele>
        <time>2020-10-16T09:40:10Z</time>
      </trkpt>
      <trkpt lat="37.362094000" lon="-4.848630000">
        <ele>249.9</ele>
        <time>2020-10-16T09:40:13Z</time>
      </trkpt>
      <trkpt lat="37.362028000" lon="-4.848697000">
        <ele>250.0</ele>
        <time>2020-10-16T09:40:16Z</time>
      </trkpt>
      <trkpt lat="37.361945000" lon="-4.848732000">
        <ele>250.1</ele>
        <time>2020-10-16T09:40:46Z</time>
      </trkpt>
      <trkpt lat="37.361850000" lon="-4.848765000">
        <ele>250.2</ele>
        <time>2020-10-16T09:40:50Z</time>
      </trkpt>
      <trkpt lat="37.361790000" lon="-4.848868000">
        <ele>250.3</ele>
        <time>2020-10-16T09:40:54Z</time>
      </trkpt>
      <trkpt lat="37.361765000" lon="-4.848988000">
        <ele>250.5</ele>
        <time>2020-10-16T09:40:57Z</time>
      </trkpt>
      <trkpt lat="37.361775000" lon="-4.849109000">
        <ele>250.6</ele>
        <time>2020-10-16T09:41:00Z</time>
      </trkpt>
      <trkpt lat="37.361789000" lon="-4.849224000">
        <ele>250.8</ele>
        <time>2020-10-16T09:41:03Z</time>
      </trkpt>
      <trkpt lat="37.361788000" lon="-4.849348000">
        <ele>251.0</ele>
        <time>2020-10-16T09:41:06Z</time>
      </trkpt>
      <trkpt lat="37.361783000" lon="-4.849468000">
        <ele>251.2</ele>
        <time>2020-10-16T09:41:09Z</time>
      </trkpt>
      <trkpt lat="37.361785000" lon="-4.849577000">
        <ele>251.4</ele>
        <time>2020-10-16T09:41:12Z</time>
      </trkpt>
      <trkpt lat="37.361788000" lon="-4.849706000">
        <ele>251.5</ele>
        <time>2020-10-16T09:41:16Z</time>
      </trkpt>
      <trkpt lat="37.361801000" lon="-4.849818000">
        <ele>251.5</ele>
        <time>2020-10-16T09:41:21Z</time>
      </trkpt>
      <trkpt lat="37.361812000" lon="-4.849932000">
        <ele>251.4</ele>
        <time>2020-10-16T09:41:35Z</time>
      </trkpt>
      <trkpt lat="37.361897000" lon="-4.850023000">
        <ele>251.3</ele>
        <time>2020-10-16T09:41:36Z</time>
      </trkpt>
      <trkpt lat="37.361996000" lon="-4.850057000">
        <ele>251.2</ele>
        <time>2020-10-16T09:41:53Z</time>
      </trkpt>
      <trkpt lat="37.362073000" lon="-4.850133000">
        <ele>251.0</ele>
        <time>2020-10-16T09:41:56Z</time>
      </trkpt>
      <trkpt lat="37.362166000" lon="-4.850205000">
        <ele>250.8</ele>
        <time>2020-10-16T09:41:59Z</time>
      </trkpt>
      <trkpt lat="37.362270000" lon="-4.850283000">
        <ele>250.6</ele>
        <time>2020-10-16T09:42:02Z</time>
      </trkpt>
      <trkpt lat="37.362347000" lon="-4.850343000">
        <ele>250.5</ele>
        <time>2020-10-16T09:42:04Z</time>
      </trkpt>
      <trkpt lat="37.362428000" lon="-4.850421000">
        <ele>250.2</ele>
        <time>2020-10-16T09:42:06Z</time>
      </trkpt>
      <trkpt lat="37.362512000" lon="-4.850476000">
        <ele>249.9</ele>
        <time>2020-10-16T09:42:08Z</time>
      </trkpt>
      <trkpt lat="37.362590000" lon="-4.850537000">
        <ele>249.7</ele>
        <time>2020-10-16T09:42:10Z</time>
      </trkpt>
      <trkpt lat="37.362668000" lon="-4.850615000">
        <ele>249.6</ele>
        <time>2020-10-16T09:42:12Z</time>
      </trkpt>
      <trkpt lat="37.362746000" lon="-4.850683000">
        <ele>249.5</ele>
        <time>2020-10-16T09:42:14Z</time>
      </trkpt>
      <trkpt lat="37.362828000" lon="-4.850740000">
        <ele>249.4</ele>
        <time>2020-10-16T09:42:16Z</time>
      </trkpt>
      <trkpt lat="37.362911000" lon="-4.850788000">
        <ele>249.2</ele>
        <time>2020-10-16T09:42:18Z</time>
      </trkpt>
      <trkpt lat="37.362988000" lon="-4.850855000">
        <ele>249.1</ele>
        <time>2020-10-16T09:42:20Z</time>
      </trkpt>
      <trkpt lat="37.363071000" lon="-4.850916000">
        <ele>249.0</ele>
        <time>2020-10-16T09:42:22Z</time>
      </trkpt>
      <trkpt lat="37.363162000" lon="-4.850954000">
        <ele>248.9</ele>
        <time>2020-10-16T09:42:24Z</time>
      </trkpt>
      <trkpt lat="37.363255000" lon="-4.850991000">
        <ele>248.7</ele>
        <time>2020-10-16T09:42:26Z</time>
      </trkpt>
      <trkpt lat="37.363351000" lon="-4.851024000">
        <ele>248.6</ele>
        <time>2020-10-16T09:42:28Z</time>
      </trkpt>
      <trkpt lat="37.363448000" lon="-4.851060000">
        <ele>248.5</ele>
        <time>2020-10-16T09:42:30Z</time>
      </trkpt>
      <trkpt lat="37.363537000" lon="-4.851102000">
        <ele>248.4</ele>
        <time>2020-10-16T09:42:32Z</time>
      </trkpt>
      <trkpt lat="37.363630000" lon="-4.851133000">
        <ele>248.2</ele>
        <time>2020-10-16T09:42:34Z</time>
      </trkpt>
      <trkpt lat="37.363718000" lon="-4.851160000">
        <ele>247.9</ele>
        <time>2020-10-16T09:42:36Z</time>
      </trkpt>
      <trkpt lat="37.363809000" lon="-4.851193000">
        <ele>247.7</ele>
        <time>2020-10-16T09:42:39Z</time>
      </trkpt>
      <trkpt lat="37.363896000" lon="-4.851218000">
        <ele>247.5</ele>
        <time>2020-10-16T09:42:40Z</time>
      </trkpt>
      <trkpt lat="37.363992000" lon="-4.851255000">
        <ele>247.3</ele>
        <time>2020-10-16T09:42:43Z</time>
      </trkpt>
      <trkpt lat="37.364068000" lon="-4.851302000">
        <ele>247.0</ele>
        <time>2020-10-16T09:42:51Z</time>
      </trkpt>
      <trkpt lat="37.364146000" lon="-4.851344000">
        <ele>246.7</ele>
        <time>2020-10-16T09:42:54Z</time>
      </trkpt>
      <trkpt lat="37.364223000" lon="-4.851403000">
        <ele>246.5</ele>
        <time>2020-10-16T09:42:57Z</time>
      </trkpt>
      <trkpt lat="37.364295000" lon="-4.851514000">
        <ele>246.4</ele>
        <time>2020-10-16T09:43:00Z</time>
      </trkpt>
      <trkpt lat="37.364297000" lon="-4.851617000">
        <ele>246.2</ele>
        <time>2020-10-16T09:43:02Z</time>
      </trkpt>
      <trkpt lat="37.364271000" lon="-4.851719000">
        <ele>246.1</ele>
        <time>2020-10-16T09:43:04Z</time>
      </trkpt>
      <trkpt lat="37.364248000" lon="-4.851819000">
        <ele>246.0</ele>
        <time>2020-10-16T09:43:06Z</time>
      </trkpt>
      <trkpt lat="37.364215000" lon="-4.851914000">
        <ele>246.0</ele>
        <time>2020-10-16T09:43:08Z</time>
      </trkpt>
      <trkpt lat="37.364175000" lon="-4.852011000">
        <ele>245.9</ele>
        <time>2020-10-16T09:43:10Z</time>
      </trkpt>
      <trkpt lat="37.364132000" lon="-4.852151000">
        <ele>245.8</ele>
        <time>2020-10-16T09:43:13Z</time>
      </trkpt>
      <trkpt lat="37.364082000" lon="-4.852290000">
        <ele>245.6</ele>
        <time>2020-10-16T09:43:16Z</time>
      </trkpt>
      <trkpt lat="37.364049000" lon="-4.852387000">
        <ele>245.5</ele>
        <time>2020-10-16T09:43:18Z</time>
      </trkpt>
      <trkpt lat="37.363994000" lon="-4.852489000">
        <ele>245.3</ele>
        <time>2020-10-16T09:43:20Z</time>
      </trkpt>
      <trkpt lat="37.363961000" lon="-4.852594000">
        <ele>245.1</ele>
        <time>2020-10-16T09:43:22Z</time>
      </trkpt>
      <trkpt lat="37.363924000" lon="-4.852703000">
        <ele>244.8</ele>
        <time>2020-10-16T09:43:24Z</time>
      </trkpt>
      <trkpt lat="37.363884000" lon="-4.852815000">
        <ele>244.5</ele>
        <time>2020-10-16T09:43:26Z</time>
      </trkpt>
      <trkpt lat="37.363849000" lon="-4.852924000">
        <ele>244.3</ele>
        <time>2020-10-16T09:43:28Z</time>
      </trkpt>
      <trkpt lat="37.363815000" lon="-4.853024000">
        <ele>244.0</ele>
        <time>2020-10-16T09:43:30Z</time>
      </trkpt>
      <trkpt lat="37.363789000" lon="-4.853134000">
        <ele>243.8</ele>
        <time>2020-10-16T09:43:32Z</time>
      </trkpt>
      <trkpt lat="37.363761000" lon="-4.853260000">
        <ele>243.7</ele>
        <time>2020-10-16T09:43:34Z</time>
      </trkpt>
      <trkpt lat="37.363743000" lon="-4.853382000">
        <ele>243.6</ele>
        <time>2020-10-16T09:43:36Z</time>
      </trkpt>
      <trkpt lat="37.363734000" lon="-4.853509000">
        <ele>243.7</ele>
        <time>2020-10-16T09:43:38Z</time>
      </trkpt>
      <trkpt lat="37.363728000" lon="-4.853638000">
        <ele>243.7</ele>
        <time>2020-10-16T09:43:41Z</time>
      </trkpt>
      <trkpt lat="37.363721000" lon="-4.853767000">
        <ele>243.7</ele>
        <time>2020-10-16T09:43:42Z</time>
      </trkpt>
      <trkpt lat="37.363713000" lon="-4.853903000">
        <ele>243.6</ele>
        <time>2020-10-16T09:43:44Z</time>
      </trkpt>
      <trkpt lat="37.363704000" lon="-4.854031000">
        <ele>243.6</ele>
        <time>2020-10-16T09:43:46Z</time>
      </trkpt>
      <trkpt lat="37.363691000" lon="-4.854174000">
        <ele>243.6</ele>
        <time>2020-10-16T09:43:48Z</time>
      </trkpt>
      <trkpt lat="37.363673000" lon="-4.854316000">
        <ele>243.6</ele>
        <time>2020-10-16T09:43:50Z</time>
      </trkpt>
      <trkpt lat="37.363664000" lon="-4.854451000">
        <ele>243.5</ele>
        <time>2020-10-16T09:43:52Z</time>
      </trkpt>
      <trkpt lat="37.363663000" lon="-4.854597000">
        <ele>243.4</ele>
        <time>2020-10-16T09:43:54Z</time>
      </trkpt>
      <trkpt lat="37.363664000" lon="-4.854752000">
        <ele>243.1</ele>
        <time>2020-10-16T09:43:56Z</time>
      </trkpt>
      <trkpt lat="37.363660000" lon="-4.854908000">
        <ele>242.8</ele>
        <time>2020-10-16T09:43:58Z</time>
      </trkpt>
      <trkpt lat="37.363657000" lon="-4.855054000">
        <ele>242.4</ele>
        <time>2020-10-16T09:44:00Z</time>
      </trkpt>
      <trkpt lat="37.363650000" lon="-4.855198000">
        <ele>242.0</ele>
        <time>2020-10-16T09:44:02Z</time>
      </trkpt>
      <trkpt lat="37.363639000" lon="-4.855349000">
        <ele>241.5</ele>
        <time>2020-10-16T09:44:04Z</time>
      </trkpt>
      <trkpt lat="37.363636000" lon="-4.855500000">
        <ele>241.2</ele>
        <time>2020-10-16T09:44:06Z</time>
      </trkpt>
      <trkpt lat="37.363635000" lon="-4.855642000">
        <ele>240.7</ele>
        <time>2020-10-16T09:44:08Z</time>
      </trkpt>
      <trkpt lat="37.363633000" lon="-4.855782000">
        <ele>240.3</ele>
        <time>2020-10-16T09:44:10Z</time>
      </trkpt>
      <trkpt lat="37.363631000" lon="-4.855920000">
        <ele>239.8</ele>
        <time>2020-10-16T09:44:12Z</time>
      </trkpt>
      <trkpt lat="37.363638000" lon="-4.856060000">
        <ele>239.5</ele>
        <time>2020-10-16T09:44:14Z</time>
      </trkpt>
      <trkpt lat="37.363650000" lon="-4.856183000">
        <ele>239.2</ele>
        <time>2020-10-16T09:44:16Z</time>
      </trkpt>
      <trkpt lat="37.363664000" lon="-4.856322000">
        <ele>239.0</ele>
        <time>2020-10-16T09:44:18Z</time>
      </trkpt>
      <trkpt lat="37.363679000" lon="-4.856458000">
        <ele>238.9</ele>
        <time>2020-10-16T09:44:21Z</time>
      </trkpt>
      <trkpt lat="37.363707000" lon="-4.856585000">
        <ele>238.9</ele>
        <time>2020-10-16T09:44:22Z</time>
      </trkpt>
      <trkpt lat="37.363734000" lon="-4.856706000">
        <ele>239.0</ele>
        <time>2020-10-16T09:44:24Z</time>
      </trkpt>
      <trkpt lat="37.363766000" lon="-4.856832000">
        <ele>239.3</ele>
        <time>2020-10-16T09:44:26Z</time>
      </trkpt>
      <trkpt lat="37.363793000" lon="-4.856958000">
        <ele>239.6</ele>
        <time>2020-10-16T09:44:29Z</time>
      </trkpt>
      <trkpt lat="37.363826000" lon="-4.857085000">
        <ele>240.2</ele>
        <time>2020-10-16T09:44:30Z</time>
      </trkpt>
      <trkpt lat="37.363858000" lon="-4.857211000">
        <ele>240.7</ele>
        <time>2020-10-16T09:44:32Z</time>
      </trkpt>
      <trkpt lat="37.363889000" lon="-4.857337000">
        <ele>241.4</ele>
        <time>2020-10-16T09:44:34Z</time>
      </trkpt>
      <trkpt lat="37.363912000" lon="-4.857455000">
        <ele>242.0</ele>
        <time>2020-10-16T09:44:36Z</time>
      </trkpt>
      <trkpt lat="37.363938000" lon="-4.857569000">
        <ele>242.5</ele>
        <time>2020-10-16T09:44:38Z</time>
      </trkpt>
      <trkpt lat="37.363958000" lon="-4.857683000">
        <ele>243.1</ele>
        <time>2020-10-16T09:44:40Z</time>
      </trkpt>
      <trkpt lat="37.363984000" lon="-4.857794000">
        <ele>243.5</ele>
        <time>2020-10-16T09:44:42Z</time>
      </trkpt>
      <trkpt lat="37.364010000" lon="-4.857901000">
        <ele>244.0</ele>
        <time>2020-10-16T09:44:44Z</time>
      </trkpt>
      <trkpt lat="37.364032000" lon="-4.858003000">
        <ele>244.4</ele>
        <time>2020-10-16T09:44:46Z</time>
      </trkpt>
      <trkpt lat="37.364047000" lon="-4.858110000">
        <ele>244.6</ele>
        <time>2020-10-16T09:44:48Z</time>
      </trkpt>
      <trkpt lat="37.364063000" lon="-4.858221000">
        <ele>244.7</ele>
        <time>2020-10-16T09:44:50Z</time>
      </trkpt>
      <trkpt lat="37.364074000" lon="-4.858331000">
        <ele>244.7</ele>
        <time>2020-10-16T09:44:52Z</time>
      </trkpt>
      <trkpt lat="37.364084000" lon="-4.858437000">
        <ele>244.7</ele>
        <time>2020-10-16T09:44:54Z</time>
      </trkpt>
      <trkpt lat="37.364091000" lon="-4.858539000">
        <ele>244.6</ele>
        <time>2020-10-16T09:44:56Z</time>
      </trkpt>
      <trkpt lat="37.364091000" lon="-4.858642000">
        <ele>244.5</ele>
        <time>2020-10-16T09:44:58Z</time>
      </trkpt>
      <trkpt lat="37.364089000" lon="-4.858745000">
        <ele>244.5</ele>
        <time>2020-10-16T09:45:00Z</time>
      </trkpt>
      <trkpt lat="37.364090000" lon="-4.858850000">
        <ele>244.4</ele>
        <time>2020-10-16T09:45:02Z</time>
      </trkpt>
      <trkpt lat="37.364090000" lon="-4.858956000">
        <ele>244.4</ele>
        <time>2020-10-16T09:45:04Z</time>
      </trkpt>
      <trkpt lat="37.364088000" lon="-4.859062000">
        <ele>244.4</ele>
        <time>2020-10-16T09:45:06Z</time>
      </trkpt>
      <trkpt lat="37.364086000" lon="-4.859173000">
        <ele>244.5</ele>
        <time>2020-10-16T09:45:08Z</time>
      </trkpt>
      <trkpt lat="37.364085000" lon="-4.859290000">
        <ele>244.5</ele>
        <time>2020-10-16T09:45:10Z</time>
      </trkpt>
      <trkpt lat="37.364092000" lon="-4.859401000">
        <ele>244.7</ele>
        <time>2020-10-16T09:45:12Z</time>
      </trkpt>
      <trkpt lat="37.364097000" lon="-4.859518000">
        <ele>244.9</ele>
        <time>2020-10-16T09:45:14Z</time>
      </trkpt>
      <trkpt lat="37.364103000" lon="-4.859637000">
        <ele>245.2</ele>
        <time>2020-10-16T09:45:16Z</time>
      </trkpt>
      <trkpt lat="37.364116000" lon="-4.859751000">
        <ele>245.5</ele>
        <time>2020-10-16T09:45:18Z</time>
      </trkpt>
      <trkpt lat="37.364126000" lon="-4.859860000">
        <ele>245.7</ele>
        <time>2020-10-16T09:45:20Z</time>
      </trkpt>
      <trkpt lat="37.364131000" lon="-4.859971000">
        <ele>246.1</ele>
        <time>2020-10-16T09:45:22Z</time>
      </trkpt>
      <trkpt lat="37.364141000" lon="-4.860083000">
        <ele>246.5</ele>
        <time>2020-10-16T09:45:24Z</time>
      </trkpt>
      <trkpt lat="37.364156000" lon="-4.860185000">
        <ele>246.7</ele>
        <time>2020-10-16T09:45:26Z</time>
      </trkpt>
      <trkpt lat="37.364164000" lon="-4.860295000">
        <ele>246.9</ele>
        <time>2020-10-16T09:45:28Z</time>
      </trkpt>
      <trkpt lat="37.364175000" lon="-4.860405000">
        <ele>247.0</ele>
        <time>2020-10-16T09:45:30Z</time>
      </trkpt>
      <trkpt lat="37.364182000" lon="-4.860520000">
        <ele>247.1</ele>
        <time>2020-10-16T09:45:32Z</time>
      </trkpt>
      <trkpt lat="37.364199000" lon="-4.860632000">
        <ele>247.2</ele>
        <time>2020-10-16T09:45:34Z</time>
      </trkpt>
      <trkpt lat="37.364210000" lon="-4.860739000">
        <ele>247.3</ele>
        <time>2020-10-16T09:45:36Z</time>
      </trkpt>
      <trkpt lat="37.364223000" lon="-4.860849000">
        <ele>247.3</ele>
        <time>2020-10-16T09:45:38Z</time>
      </trkpt>
      <trkpt lat="37.364232000" lon="-4.860957000">
        <ele>247.3</ele>
        <time>2020-10-16T09:45:40Z</time>
      </trkpt>
      <trkpt lat="37.364242000" lon="-4.861067000">
        <ele>247.3</ele>
        <time>2020-10-16T09:45:42Z</time>
      </trkpt>
      <trkpt lat="37.364256000" lon="-4.861174000">
        <ele>247.3</ele>
        <time>2020-10-16T09:45:44Z</time>
      </trkpt>
      <trkpt lat="37.364267000" lon="-4.861282000">
        <ele>247.3</ele>
        <time>2020-10-16T09:45:46Z</time>
      </trkpt>
      <trkpt lat="37.364278000" lon="-4.861392000">
        <ele>247.3</ele>
        <time>2020-10-16T09:45:48Z</time>
      </trkpt>
      <trkpt lat="37.364297000" lon="-4.861508000">
        <ele>247.4</ele>
        <time>2020-10-16T09:45:50Z</time>
      </trkpt>
      <trkpt lat="37.364304000" lon="-4.861623000">
        <ele>247.5</ele>
        <time>2020-10-16T09:45:52Z</time>
      </trkpt>
      <trkpt lat="37.364319000" lon="-4.861746000">
        <ele>247.7</ele>
        <time>2020-10-16T09:45:54Z</time>
      </trkpt>
      <trkpt lat="37.364333000" lon="-4.861870000">
        <ele>247.9</ele>
        <time>2020-10-16T09:45:56Z</time>
      </trkpt>
      <trkpt lat="37.364351000" lon="-4.861993000">
        <ele>248.0</ele>
        <time>2020-10-16T09:45:58Z</time>
      </trkpt>
      <trkpt lat="37.364364000" lon="-4.862116000">
        <ele>248.1</ele>
        <time>2020-10-16T09:46:00Z</time>
      </trkpt>
      <trkpt lat="37.364376000" lon="-4.862248000">
        <ele>248.2</ele>
        <time>2020-10-16T09:46:02Z</time>
      </trkpt>
      <trkpt lat="37.364390000" lon="-4.862379000">
        <ele>248.3</ele>
        <time>2020-10-16T09:46:04Z</time>
      </trkpt>
      <trkpt lat="37.364410000" lon="-4.862509000">
        <ele>248.2</ele>
        <time>2020-10-16T09:46:06Z</time>
      </trkpt>
      <trkpt lat="37.364428000" lon="-4.862636000">
        <ele>248.0</ele>
        <time>2020-10-16T09:46:08Z</time>
      </trkpt>
      <trkpt lat="37.364441000" lon="-4.862775000">
        <ele>247.8</ele>
        <time>2020-10-16T09:46:10Z</time>
      </trkpt>
      <trkpt lat="37.364461000" lon="-4.862911000">
        <ele>247.6</ele>
        <time>2020-10-16T09:46:12Z</time>
      </trkpt>
      <trkpt lat="37.364472000" lon="-4.863049000">
        <ele>247.4</ele>
        <time>2020-10-16T09:46:14Z</time>
      </trkpt>
      <trkpt lat="37.364488000" lon="-4.863179000">
        <ele>247.1</ele>
        <time>2020-10-16T09:46:16Z</time>
      </trkpt>
      <trkpt lat="37.364503000" lon="-4.863316000">
        <ele>246.8</ele>
        <time>2020-10-16T09:46:18Z</time>
      </trkpt>
      <trkpt lat="37.364522000" lon="-4.863455000">
        <ele>246.6</ele>
        <time>2020-10-16T09:46:20Z</time>
      </trkpt>
      <trkpt lat="37.364549000" lon="-4.863593000">
        <ele>246.5</ele>
        <time>2020-10-16T09:46:22Z</time>
      </trkpt>
      <trkpt lat="37.364584000" lon="-4.863744000">
        <ele>246.3</ele>
        <time>2020-10-16T09:46:24Z</time>
      </trkpt>
      <trkpt lat="37.364626000" lon="-4.863892000">
        <ele>246.0</ele>
        <time>2020-10-16T09:46:26Z</time>
      </trkpt>
      <trkpt lat="37.364665000" lon="-4.864042000">
        <ele>245.8</ele>
        <time>2020-10-16T09:46:28Z</time>
      </trkpt>
      <trkpt lat="37.364705000" lon="-4.864200000">
        <ele>245.7</ele>
        <time>2020-10-16T09:46:30Z</time>
      </trkpt>
      <trkpt lat="37.364750000" lon="-4.864362000">
        <ele>245.6</ele>
        <time>2020-10-16T09:46:32Z</time>
      </trkpt>
      <trkpt lat="37.364791000" lon="-4.864526000">
        <ele>245.5</ele>
        <time>2020-10-16T09:46:34Z</time>
      </trkpt>
      <trkpt lat="37.364829000" lon="-4.864687000">
        <ele>245.5</ele>
        <time>2020-10-16T09:46:36Z</time>
      </trkpt>
      <trkpt lat="37.364871000" lon="-4.864847000">
        <ele>245.4</ele>
        <time>2020-10-16T09:46:38Z</time>
      </trkpt>
      <trkpt lat="37.364914000" lon="-4.865008000">
        <ele>245.3</ele>
        <time>2020-10-16T09:46:40Z</time>
      </trkpt>
      <trkpt lat="37.364954000" lon="-4.865165000">
        <ele>245.2</ele>
        <time>2020-10-16T09:46:42Z</time>
      </trkpt>
      <trkpt lat="37.364994000" lon="-4.865319000">
        <ele>245.1</ele>
        <time>2020-10-16T09:46:44Z</time>
      </trkpt>
      <trkpt lat="37.365035000" lon="-4.865467000">
        <ele>245.0</ele>
        <time>2020-10-16T09:46:46Z</time>
      </trkpt>
      <trkpt lat="37.365073000" lon="-4.865615000">
        <ele>244.9</ele>
        <time>2020-10-16T09:46:48Z</time>
      </trkpt>
      <trkpt lat="37.365115000" lon="-4.865768000">
        <ele>244.8</ele>
        <time>2020-10-16T09:46:50Z</time>
      </trkpt>
      <trkpt lat="37.365164000" lon="-4.865922000">
        <ele>244.7</ele>
        <time>2020-10-16T09:46:52Z</time>
      </trkpt>
      <trkpt lat="37.365215000" lon="-4.866078000">
        <ele>244.7</ele>
        <time>2020-10-16T09:46:54Z</time>
      </trkpt>
      <trkpt lat="37.365270000" lon="-4.866234000">
        <ele>244.7</ele>
        <time>2020-10-16T09:46:56Z</time>
      </trkpt>
      <trkpt lat="37.365331000" lon="-4.866380000">
        <ele>244.7</ele>
        <time>2020-10-16T09:46:58Z</time>
      </trkpt>
      <trkpt lat="37.365395000" lon="-4.866525000">
        <ele>244.7</ele>
        <time>2020-10-16T09:47:00Z</time>
      </trkpt>
      <trkpt lat="37.365456000" lon="-4.866665000">
        <ele>244.8</ele>
        <time>2020-10-16T09:47:02Z</time>
      </trkpt>
      <trkpt lat="37.365515000" lon="-4.866805000">
        <ele>244.9</ele>
        <time>2020-10-16T09:47:04Z</time>
      </trkpt>
      <trkpt lat="37.365577000" lon="-4.866944000">
        <ele>245.0</ele>
        <time>2020-10-16T09:47:06Z</time>
      </trkpt>
      <trkpt lat="37.365632000" lon="-4.867077000">
        <ele>245.1</ele>
        <time>2020-10-16T09:47:08Z</time>
      </trkpt>
      <trkpt lat="37.365688000" lon="-4.867208000">
        <ele>245.4</ele>
        <time>2020-10-16T09:47:10Z</time>
      </trkpt>
      <trkpt lat="37.365744000" lon="-4.867331000">
        <ele>245.6</ele>
        <time>2020-10-16T09:47:12Z</time>
      </trkpt>
      <trkpt lat="37.365794000" lon="-4.867444000">
        <ele>245.9</ele>
        <time>2020-10-16T09:47:14Z</time>
      </trkpt>
      <trkpt lat="37.365851000" lon="-4.867555000">
        <ele>246.2</ele>
        <time>2020-10-16T09:47:16Z</time>
      </trkpt>
      <trkpt lat="37.365900000" lon="-4.867662000">
        <ele>246.5</ele>
        <time>2020-10-16T09:47:18Z</time>
      </trkpt>
      <trkpt lat="37.365955000" lon="-4.867761000">
        <ele>246.7</ele>
        <time>2020-10-16T09:47:20Z</time>
      </trkpt>
      <trkpt lat="37.366003000" lon="-4.867855000">
        <ele>247.0</ele>
        <time>2020-10-16T09:47:22Z</time>
      </trkpt>
      <trkpt lat="37.366050000" lon="-4.867943000">
        <ele>247.2</ele>
        <time>2020-10-16T09:47:24Z</time>
      </trkpt>
      <trkpt lat="37.366094000" lon="-4.868032000">
        <ele>247.5</ele>
        <time>2020-10-16T09:47:26Z</time>
      </trkpt>
      <trkpt lat="37.366145000" lon="-4.868119000">
        <ele>247.7</ele>
        <time>2020-10-16T09:47:28Z</time>
      </trkpt>
      <trkpt lat="37.366192000" lon="-4.868204000">
        <ele>248.1</ele>
        <time>2020-10-16T09:47:30Z</time>
      </trkpt>
      <trkpt lat="37.366260000" lon="-4.868323000">
        <ele>248.4</ele>
        <time>2020-10-16T09:47:33Z</time>
      </trkpt>
      <trkpt lat="37.366328000" lon="-4.868444000">
        <ele>248.7</ele>
        <time>2020-10-16T09:47:36Z</time>
      </trkpt>
      <trkpt lat="37.366395000" lon="-4.868571000">
        <ele>249.2</ele>
        <time>2020-10-16T09:47:39Z</time>
      </trkpt>
      <trkpt lat="37.366443000" lon="-4.868657000">
        <ele>249.5</ele>
        <time>2020-10-16T09:47:41Z</time>
      </trkpt>
      <trkpt lat="37.366493000" lon="-4.868740000">
        <ele>249.8</ele>
        <time>2020-10-16T09:47:43Z</time>
      </trkpt>
      <trkpt lat="37.366536000" lon="-4.868827000">
        <ele>250.0</ele>
        <time>2020-10-16T09:47:45Z</time>
      </trkpt>
      <trkpt lat="37.366600000" lon="-4.868948000">
        <ele>250.1</ele>
        <time>2020-10-16T09:47:48Z</time>
      </trkpt>
      <trkpt lat="37.366664000" lon="-4.869065000">
        <ele>250.2</ele>
        <time>2020-10-16T09:47:51Z</time>
      </trkpt>
      <trkpt lat="37.366728000" lon="-4.869181000">
        <ele>250.1</ele>
        <time>2020-10-16T09:47:54Z</time>
      </trkpt>
      <trkpt lat="37.366791000" lon="-4.869295000">
        <ele>250.0</ele>
        <time>2020-10-16T09:47:57Z</time>
      </trkpt>
      <trkpt lat="37.366856000" lon="-4.869410000">
        <ele>249.8</ele>
        <time>2020-10-16T09:48:00Z</time>
      </trkpt>
      <trkpt lat="37.366920000" lon="-4.869525000">
        <ele>249.6</ele>
        <time>2020-10-16T09:48:03Z</time>
      </trkpt>
      <trkpt lat="37.366985000" lon="-4.869640000">
        <ele>249.4</ele>
        <time>2020-10-16T09:48:06Z</time>
      </trkpt>
      <trkpt lat="37.367050000" lon="-4.869763000">
        <ele>249.0</ele>
        <time>2020-10-16T09:48:09Z</time>
      </trkpt>
      <trkpt lat="37.367094000" lon="-4.869850000">
        <ele>248.7</ele>
        <time>2020-10-16T09:48:11Z</time>
      </trkpt>
      <trkpt lat="37.367139000" lon="-4.869939000">
        <ele>248.6</ele>
        <time>2020-10-16T09:48:13Z</time>
      </trkpt>
      <trkpt lat="37.367183000" lon="-4.870030000">
        <ele>248.7</ele>
        <time>2020-10-16T09:48:15Z</time>
      </trkpt>
      <trkpt lat="37.367227000" lon="-4.870125000">
        <ele>248.9</ele>
        <time>2020-10-16T09:48:17Z</time>
      </trkpt>
      <trkpt lat="37.367268000" lon="-4.870224000">
        <ele>249.1</ele>
        <time>2020-10-16T09:48:19Z</time>
      </trkpt>
      <trkpt lat="37.367307000" lon="-4.870324000">
        <ele>249.4</ele>
        <time>2020-10-16T09:48:21Z</time>
      </trkpt>
      <trkpt lat="37.367343000" lon="-4.870426000">
        <ele>249.6</ele>
        <time>2020-10-16T09:48:23Z</time>
      </trkpt>
      <trkpt lat="37.367380000" lon="-4.870533000">
        <ele>249.9</ele>
        <time>2020-10-16T09:48:25Z</time>
      </trkpt>
      <trkpt lat="37.367414000" lon="-4.870638000">
        <ele>250.2</ele>
        <time>2020-10-16T09:48:27Z</time>
      </trkpt>
      <trkpt lat="37.367449000" lon="-4.870744000">
        <ele>250.5</ele>
        <time>2020-10-16T09:48:29Z</time>
      </trkpt>
      <trkpt lat="37.367482000" lon="-4.870859000">
        <ele>250.7</ele>
        <time>2020-10-16T09:48:31Z</time>
      </trkpt>
      <trkpt lat="37.367514000" lon="-4.870971000">
        <ele>251.0</ele>
        <time>2020-10-16T09:48:33Z</time>
      </trkpt>
      <trkpt lat="37.367548000" lon="-4.871087000">
        <ele>251.2</ele>
        <time>2020-10-16T09:48:35Z</time>
      </trkpt>
      <trkpt lat="37.367585000" lon="-4.871207000">
        <ele>251.3</ele>
        <time>2020-10-16T09:48:37Z</time>
      </trkpt>
      <trkpt lat="37.367620000" lon="-4.871332000">
        <ele>251.4</ele>
        <time>2020-10-16T09:48:39Z</time>
      </trkpt>
      <trkpt lat="37.367660000" lon="-4.871454000">
        <ele>251.5</ele>
        <time>2020-10-16T09:48:41Z</time>
      </trkpt>
      <trkpt lat="37.367700000" lon="-4.871574000">
        <ele>251.5</ele>
        <time>2020-10-16T09:48:43Z</time>
      </trkpt>
      <trkpt lat="37.367734000" lon="-4.871708000">
        <ele>251.6</ele>
        <time>2020-10-16T09:48:45Z</time>
      </trkpt>
      <trkpt lat="37.367776000" lon="-4.871835000">
        <ele>251.7</ele>
        <time>2020-10-16T09:48:47Z</time>
      </trkpt>
      <trkpt lat="37.367816000" lon="-4.871968000">
        <ele>251.8</ele>
        <time>2020-10-16T09:48:49Z</time>
      </trkpt>
      <trkpt lat="37.367859000" lon="-4.872092000">
        <ele>251.9</ele>
        <time>2020-10-16T09:48:51Z</time>
      </trkpt>
      <trkpt lat="37.367905000" lon="-4.872218000">
        <ele>252.0</ele>
        <time>2020-10-16T09:48:53Z</time>
      </trkpt>
      <trkpt lat="37.367956000" lon="-4.872343000">
        <ele>252.0</ele>
        <time>2020-10-16T09:48:55Z</time>
      </trkpt>
      <trkpt lat="37.368007000" lon="-4.872456000">
        <ele>252.0</ele>
        <time>2020-10-16T09:48:57Z</time>
      </trkpt>
      <trkpt lat="37.368060000" lon="-4.872573000">
        <ele>252.0</ele>
        <time>2020-10-16T09:48:59Z</time>
      </trkpt>
      <trkpt lat="37.368117000" lon="-4.872696000">
        <ele>252.0</ele>
        <time>2020-10-16T09:49:01Z</time>
      </trkpt>
      <trkpt lat="37.368171000" lon="-4.872818000">
        <ele>251.9</ele>
        <time>2020-10-16T09:49:03Z</time>
      </trkpt>
      <trkpt lat="37.368225000" lon="-4.872936000">
        <ele>251.9</ele>
        <time>2020-10-16T09:49:05Z</time>
      </trkpt>
      <trkpt lat="37.368274000" lon="-4.873057000">
        <ele>251.9</ele>
        <time>2020-10-16T09:49:07Z</time>
      </trkpt>
      <trkpt lat="37.368321000" lon="-4.873167000">
        <ele>251.9</ele>
        <time>2020-10-16T09:49:09Z</time>
      </trkpt>
      <trkpt lat="37.368369000" lon="-4.873278000">
        <ele>251.9</ele>
        <time>2020-10-16T09:49:11Z</time>
      </trkpt>
      <trkpt lat="37.368420000" lon="-4.873383000">
        <ele>251.9</ele>
        <time>2020-10-16T09:49:13Z</time>
      </trkpt>
      <trkpt lat="37.368470000" lon="-4.873490000">
        <ele>251.9</ele>
        <time>2020-10-16T09:49:15Z</time>
      </trkpt>
      <trkpt lat="37.368519000" lon="-4.873597000">
        <ele>251.9</ele>
        <time>2020-10-16T09:49:17Z</time>
      </trkpt>
      <trkpt lat="37.368571000" lon="-4.873699000">
        <ele>251.9</ele>
        <time>2020-10-16T09:49:19Z</time>
      </trkpt>
      <trkpt lat="37.368622000" lon="-4.873806000">
        <ele>251.9</ele>
        <time>2020-10-16T09:49:21Z</time>
      </trkpt>
      <trkpt lat="37.368676000" lon="-4.873918000">
        <ele>251.9</ele>
        <time>2020-10-16T09:49:23Z</time>
      </trkpt>
      <trkpt lat="37.368728000" lon="-4.874024000">
        <ele>252.0</ele>
        <time>2020-10-16T09:49:25Z</time>
      </trkpt>
      <trkpt lat="37.368781000" lon="-4.874130000">
        <ele>252.1</ele>
        <time>2020-10-16T09:49:27Z</time>
      </trkpt>
      <trkpt lat="37.368828000" lon="-4.874234000">
        <ele>252.2</ele>
        <time>2020-10-16T09:49:29Z</time>
      </trkpt>
      <trkpt lat="37.368877000" lon="-4.874336000">
        <ele>252.4</ele>
        <time>2020-10-16T09:49:31Z</time>
      </trkpt>
      <trkpt lat="37.368925000" lon="-4.874447000">
        <ele>252.5</ele>
        <time>2020-10-16T09:49:33Z</time>
      </trkpt>
      <trkpt lat="37.368973000" lon="-4.874550000">
        <ele>252.7</ele>
        <time>2020-10-16T09:49:35Z</time>
      </trkpt>
      <trkpt lat="37.369020000" lon="-4.874653000">
        <ele>252.9</ele>
        <time>2020-10-16T09:49:37Z</time>
      </trkpt>
      <trkpt lat="37.369064000" lon="-4.874758000">
        <ele>253.1</ele>
        <time>2020-10-16T09:49:39Z</time>
      </trkpt>
      <trkpt lat="37.369107000" lon="-4.874873000">
        <ele>253.2</ele>
        <time>2020-10-16T09:49:41Z</time>
      </trkpt>
      <trkpt lat="37.369152000" lon="-4.874977000">
        <ele>253.3</ele>
        <time>2020-10-16T09:49:43Z</time>
      </trkpt>
      <trkpt lat="37.369194000" lon="-4.875081000">
        <ele>253.4</ele>
        <time>2020-10-16T09:49:45Z</time>
      </trkpt>
      <trkpt lat="37.369240000" lon="-4.875193000">
        <ele>253.5</ele>
        <time>2020-10-16T09:49:47Z</time>
      </trkpt>
      <trkpt lat="37.369277000" lon="-4.875299000">
        <ele>253.5</ele>
        <time>2020-10-16T09:49:49Z</time>
      </trkpt>
      <trkpt lat="37.369316000" lon="-4.875410000">
        <ele>253.5</ele>
        <time>2020-10-16T09:49:51Z</time>
      </trkpt>
      <trkpt lat="37.369353000" lon="-4.875527000">
        <ele>253.4</ele>
        <time>2020-10-16T09:49:53Z</time>
      </trkpt>
      <trkpt lat="37.369386000" lon="-4.875653000">
        <ele>253.2</ele>
        <time>2020-10-16T09:49:55Z</time>
      </trkpt>
      <trkpt lat="37.369423000" lon="-4.875786000">
        <ele>253.0</ele>
        <time>2020-10-16T09:49:57Z</time>
      </trkpt>
      <trkpt lat="37.369453000" lon="-4.875925000">
        <ele>252.8</ele>
        <time>2020-10-16T09:49:59Z</time>
      </trkpt>
      <trkpt lat="37.369474000" lon="-4.876071000">
        <ele>252.6</ele>
        <time>2020-10-16T09:50:01Z</time>
      </trkpt>
      <trkpt lat="37.369494000" lon="-4.876226000">
        <ele>252.5</ele>
        <time>2020-10-16T09:50:03Z</time>
      </trkpt>
      <trkpt lat="37.369512000" lon="-4.876386000">
        <ele>252.5</ele>
        <time>2020-10-16T09:50:05Z</time>
      </trkpt>
      <trkpt lat="37.369532000" lon="-4.876547000">
        <ele>252.3</ele>
        <time>2020-10-16T09:50:07Z</time>
      </trkpt>
      <trkpt lat="37.369548000" lon="-4.876710000">
        <ele>252.0</ele>
        <time>2020-10-16T09:50:09Z</time>
      </trkpt>
      <trkpt lat="37.369562000" lon="-4.876869000">
        <ele>251.7</ele>
        <time>2020-10-16T09:50:11Z</time>
      </trkpt>
      <trkpt lat="37.369573000" lon="-4.877030000">
        <ele>251.5</ele>
        <time>2020-10-16T09:50:13Z</time>
      </trkpt>
      <trkpt lat="37.369587000" lon="-4.877192000">
        <ele>251.1</ele>
        <time>2020-10-16T09:50:15Z</time>
      </trkpt>
      <trkpt lat="37.369592000" lon="-4.877356000">
        <ele>250.8</ele>
        <time>2020-10-16T09:50:17Z</time>
      </trkpt>
      <trkpt lat="37.369590000" lon="-4.877521000">
        <ele>250.5</ele>
        <time>2020-10-16T09:50:19Z</time>
      </trkpt>
      <trkpt lat="37.369585000" lon="-4.877694000">
        <ele>250.3</ele>
        <time>2020-10-16T09:50:21Z</time>
      </trkpt>
      <trkpt lat="37.369575000" lon="-4.877865000">
        <ele>250.0</ele>
        <time>2020-10-16T09:50:23Z</time>
      </trkpt>
      <trkpt lat="37.369569000" lon="-4.878039000">
        <ele>249.7</ele>
        <time>2020-10-16T09:50:25Z</time>
      </trkpt>
      <trkpt lat="37.369554000" lon="-4.878210000">
        <ele>249.5</ele>
        <time>2020-10-16T09:50:27Z</time>
      </trkpt>
      <trkpt lat="37.369546000" lon="-4.878380000">
        <ele>249.2</ele>
        <time>2020-10-16T09:50:29Z</time>
      </trkpt>
      <trkpt lat="37.369539000" lon="-4.878542000">
        <ele>249.0</ele>
        <time>2020-10-16T09:50:31Z</time>
      </trkpt>
      <trkpt lat="37.369529000" lon="-4.878702000">
        <ele>248.8</ele>
        <time>2020-10-16T09:50:33Z</time>
      </trkpt>
      <trkpt lat="37.369525000" lon="-4.878861000">
        <ele>248.5</ele>
        <time>2020-10-16T09:50:35Z</time>
      </trkpt>
      <trkpt lat="37.369513000" lon="-4.879020000">
        <ele>248.4</ele>
        <time>2020-10-16T09:50:37Z</time>
      </trkpt>
      <trkpt lat="37.369500000" lon="-4.879171000">
        <ele>248.1</ele>
        <time>2020-10-16T09:50:39Z</time>
      </trkpt>
      <trkpt lat="37.369485000" lon="-4.879321000">
        <ele>247.7</ele>
        <time>2020-10-16T09:50:41Z</time>
      </trkpt>
      <trkpt lat="37.369465000" lon="-4.879472000">
        <ele>247.3</ele>
        <time>2020-10-16T09:50:43Z</time>
      </trkpt>
      <trkpt lat="37.369445000" lon="-4.879635000">
        <ele>246.8</ele>
        <time>2020-10-16T09:50:45Z</time>
      </trkpt>
      <trkpt lat="37.369418000" lon="-4.879801000">
        <ele>246.3</ele>
        <time>2020-10-16T09:50:47Z</time>
      </trkpt>
      <trkpt lat="37.369395000" lon="-4.879970000">
        <ele>245.7</ele>
        <time>2020-10-16T09:50:49Z</time>
      </trkpt>
      <trkpt lat="37.369370000" lon="-4.880139000">
        <ele>245.3</ele>
        <time>2020-10-16T09:50:51Z</time>
      </trkpt>
      <trkpt lat="37.369339000" lon="-4.880307000">
        <ele>244.8</ele>
        <time>2020-10-16T09:50:53Z</time>
      </trkpt>
      <trkpt lat="37.369313000" lon="-4.880482000">
        <ele>244.5</ele>
        <time>2020-10-16T09:50:55Z</time>
      </trkpt>
      <trkpt lat="37.369286000" lon="-4.880647000">
        <ele>244.2</ele>
        <time>2020-10-16T09:50:57Z</time>
      </trkpt>
      <trkpt lat="37.369259000" lon="-4.880819000">
        <ele>243.9</ele>
        <time>2020-10-16T09:50:59Z</time>
      </trkpt>
      <trkpt lat="37.369230000" lon="-4.880987000">
        <ele>243.6</ele>
        <time>2020-10-16T09:51:01Z</time>
      </trkpt>
      <trkpt lat="37.369203000" lon="-4.881156000">
        <ele>243.5</ele>
        <time>2020-10-16T09:51:03Z</time>
      </trkpt>
      <trkpt lat="37.369176000" lon="-4.881336000">
        <ele>243.3</ele>
        <time>2020-10-16T09:51:05Z</time>
      </trkpt>
      <trkpt lat="37.369150000" lon="-4.881514000">
        <ele>243.1</ele>
        <time>2020-10-16T09:51:07Z</time>
      </trkpt>
      <trkpt lat="37.369133000" lon="-4.881695000">
        <ele>243.1</ele>
        <time>2020-10-16T09:51:09Z</time>
      </trkpt>
      <trkpt lat="37.369123000" lon="-4.881878000">
        <ele>243.1</ele>
        <time>2020-10-16T09:51:11Z</time>
      </trkpt>
      <trkpt lat="37.369111000" lon="-4.882064000">
        <ele>243.2</ele>
        <time>2020-10-16T09:51:13Z</time>
      </trkpt>
      <trkpt lat="37.369105000" lon="-4.882244000">
        <ele>243.3</ele>
        <time>2020-10-16T09:51:15Z</time>
      </trkpt>
      <trkpt lat="37.369100000" lon="-4.882428000">
        <ele>243.3</ele>
        <time>2020-10-16T09:51:17Z</time>
      </trkpt>
      <trkpt lat="37.369096000" lon="-4.882611000">
        <ele>243.4</ele>
        <time>2020-10-16T09:51:19Z</time>
      </trkpt>
      <trkpt lat="37.369092000" lon="-4.882788000">
        <ele>243.5</ele>
        <time>2020-10-16T09:51:21Z</time>
      </trkpt>
      <trkpt lat="37.369084000" lon="-4.882970000">
        <ele>243.6</ele>
        <time>2020-10-16T09:51:23Z</time>
      </trkpt>
      <trkpt lat="37.369075000" lon="-4.883157000">
        <ele>243.7</ele>
        <time>2020-10-16T09:51:25Z</time>
      </trkpt>
      <trkpt lat="37.369070000" lon="-4.883335000">
        <ele>243.8</ele>
        <time>2020-10-16T09:51:27Z</time>
      </trkpt>
      <trkpt lat="37.369059000" lon="-4.883516000">
        <ele>243.8</ele>
        <time>2020-10-16T09:51:29Z</time>
      </trkpt>
      <trkpt lat="37.369049000" lon="-4.883695000">
        <ele>243.7</ele>
        <time>2020-10-16T09:51:31Z</time>
      </trkpt>
      <trkpt lat="37.369045000" lon="-4.883873000">
        <ele>243.5</ele>
        <time>2020-10-16T09:51:33Z</time>
      </trkpt>
      <trkpt lat="37.369036000" lon="-4.884048000">
        <ele>243.3</ele>
        <time>2020-10-16T09:51:35Z</time>
      </trkpt>
      <trkpt lat="37.369020000" lon="-4.884219000">
        <ele>243.1</ele>
        <time>2020-10-16T09:51:37Z</time>
      </trkpt>
      <trkpt lat="37.369003000" lon="-4.884383000">
        <ele>242.9</ele>
        <time>2020-10-16T09:51:39Z</time>
      </trkpt>
      <trkpt lat="37.368993000" lon="-4.884550000">
        <ele>242.6</ele>
        <time>2020-10-16T09:51:41Z</time>
      </trkpt>
      <trkpt lat="37.368983000" lon="-4.884718000">
        <ele>242.3</ele>
        <time>2020-10-16T09:51:43Z</time>
      </trkpt>
      <trkpt lat="37.368967000" lon="-4.884885000">
        <ele>241.8</ele>
        <time>2020-10-16T09:51:45Z</time>
      </trkpt>
      <trkpt lat="37.368957000" lon="-4.885051000">
        <ele>241.5</ele>
        <time>2020-10-16T09:51:47Z</time>
      </trkpt>
      <trkpt lat="37.368949000" lon="-4.885213000">
        <ele>241.2</ele>
        <time>2020-10-16T09:51:49Z</time>
      </trkpt>
      <trkpt lat="37.368934000" lon="-4.885370000">
        <ele>241.0</ele>
        <time>2020-10-16T09:51:51Z</time>
      </trkpt>
      <trkpt lat="37.368921000" lon="-4.885528000">
        <ele>240.9</ele>
        <time>2020-10-16T09:51:53Z</time>
      </trkpt>
      <trkpt lat="37.368914000" lon="-4.885686000">
        <ele>241.0</ele>
        <time>2020-10-16T09:51:55Z</time>
      </trkpt>
      <trkpt lat="37.368903000" lon="-4.885841000">
        <ele>241.1</ele>
        <time>2020-10-16T09:51:57Z</time>
      </trkpt>
      <trkpt lat="37.368890000" lon="-4.885990000">
        <ele>241.1</ele>
        <time>2020-10-16T09:51:59Z</time>
      </trkpt>
      <trkpt lat="37.368875000" lon="-4.886129000">
        <ele>241.1</ele>
        <time>2020-10-16T09:52:01Z</time>
      </trkpt>
      <trkpt lat="37.368864000" lon="-4.886271000">
        <ele>241.1</ele>
        <time>2020-10-16T09:52:03Z</time>
      </trkpt>
      <trkpt lat="37.368852000" lon="-4.886410000">
        <ele>241.2</ele>
        <time>2020-10-16T09:52:05Z</time>
      </trkpt>
      <trkpt lat="37.368844000" lon="-4.886546000">
        <ele>241.4</ele>
        <time>2020-10-16T09:52:07Z</time>
      </trkpt>
      <trkpt lat="37.368832000" lon="-4.886680000">
        <ele>241.5</ele>
        <time>2020-10-16T09:52:09Z</time>
      </trkpt>
      <trkpt lat="37.368820000" lon="-4.886812000">
        <ele>241.7</ele>
        <time>2020-10-16T09:52:11Z</time>
      </trkpt>
      <trkpt lat="37.368815000" lon="-4.886945000">
        <ele>241.9</ele>
        <time>2020-10-16T09:52:13Z</time>
      </trkpt>
      <trkpt lat="37.368809000" lon="-4.887074000">
        <ele>242.0</ele>
        <time>2020-10-16T09:52:15Z</time>
      </trkpt>
      <trkpt lat="37.368797000" lon="-4.887207000">
        <ele>242.0</ele>
        <time>2020-10-16T09:52:17Z</time>
      </trkpt>
      <trkpt lat="37.368784000" lon="-4.887336000">
        <ele>242.0</ele>
        <time>2020-10-16T09:52:19Z</time>
      </trkpt>
      <trkpt lat="37.368772000" lon="-4.887468000">
        <ele>242.0</ele>
        <time>2020-10-16T09:52:21Z</time>
      </trkpt>
      <trkpt lat="37.368764000" lon="-4.887602000">
        <ele>242.0</ele>
        <time>2020-10-16T09:52:23Z</time>
      </trkpt>
      <trkpt lat="37.368757000" lon="-4.887736000">
        <ele>242.0</ele>
        <time>2020-10-16T09:52:25Z</time>
      </trkpt>
      <trkpt lat="37.368748000" lon="-4.887875000">
        <ele>242.0</ele>
        <time>2020-10-16T09:52:27Z</time>
      </trkpt>
      <trkpt lat="37.368741000" lon="-4.888019000">
        <ele>242.0</ele>
        <time>2020-10-16T09:52:29Z</time>
      </trkpt>
      <trkpt lat="37.368744000" lon="-4.888158000">
        <ele>242.0</ele>
        <time>2020-10-16T09:52:31Z</time>
      </trkpt>
      <trkpt lat="37.368755000" lon="-4.888296000">
        <ele>242.0</ele>
        <time>2020-10-16T09:52:33Z</time>
      </trkpt>
      <trkpt lat="37.368775000" lon="-4.888433000">
        <ele>242.1</ele>
        <time>2020-10-16T09:52:35Z</time>
      </trkpt>
      <trkpt lat="37.368796000" lon="-4.888567000">
        <ele>242.2</ele>
        <time>2020-10-16T09:52:37Z</time>
      </trkpt>
      <trkpt lat="37.368824000" lon="-4.888699000">
        <ele>242.3</ele>
        <time>2020-10-16T09:52:39Z</time>
      </trkpt>
      <trkpt lat="37.368862000" lon="-4.888830000">
        <ele>242.3</ele>
        <time>2020-10-16T09:52:41Z</time>
      </trkpt>
      <trkpt lat="37.368901000" lon="-4.888956000">
        <ele>242.4</ele>
        <time>2020-10-16T09:52:43Z</time>
      </trkpt>
      <trkpt lat="37.368938000" lon="-4.889081000">
        <ele>242.5</ele>
        <time>2020-10-16T09:52:45Z</time>
      </trkpt>
      <trkpt lat="37.368973000" lon="-4.889203000">
        <ele>242.6</ele>
        <time>2020-10-16T09:52:47Z</time>
      </trkpt>
      <trkpt lat="37.369013000" lon="-4.889327000">
        <ele>242.8</ele>
        <time>2020-10-16T09:52:49Z</time>
      </trkpt>
      <trkpt lat="37.369051000" lon="-4.889447000">
        <ele>243.1</ele>
        <time>2020-10-16T09:52:51Z</time>
      </trkpt>
      <trkpt lat="37.369092000" lon="-4.889570000">
        <ele>243.3</ele>
        <time>2020-10-16T09:52:53Z</time>
      </trkpt>
      <trkpt lat="37.369138000" lon="-4.889682000">
        <ele>243.5</ele>
        <time>2020-10-16T09:52:55Z</time>
      </trkpt>
      <trkpt lat="37.369176000" lon="-4.889798000">
        <ele>243.5</ele>
        <time>2020-10-16T09:52:57Z</time>
      </trkpt>
      <trkpt lat="37.369216000" lon="-4.889911000">
        <ele>243.4</ele>
        <time>2020-10-16T09:52:59Z</time>
      </trkpt>
      <trkpt lat="37.369255000" lon="-4.890023000">
        <ele>243.3</ele>
        <time>2020-10-16T09:53:01Z</time>
      </trkpt>
      <trkpt lat="37.369285000" lon="-4.890137000">
        <ele>243.2</ele>
        <time>2020-10-16T09:53:03Z</time>
      </trkpt>
      <trkpt lat="37.369328000" lon="-4.890264000">
        <ele>243.0</ele>
        <time>2020-10-16T09:53:06Z</time>
      </trkpt>
      <trkpt lat="37.369364000" lon="-4.890359000">
        <ele>242.8</ele>
        <time>2020-10-16T09:53:10Z</time>
      </trkpt>
      <trkpt lat="37.369409000" lon="-4.890483000">
        <ele>242.5</ele>
        <time>2020-10-16T09:53:14Z</time>
      </trkpt>
      <trkpt lat="37.369451000" lon="-4.890601000">
        <ele>242.1</ele>
        <time>2020-10-16T09:53:17Z</time>
      </trkpt>
      <trkpt lat="37.369484000" lon="-4.890696000">
        <ele>241.7</ele>
        <time>2020-10-16T09:53:19Z</time>
      </trkpt>
      <trkpt lat="37.369515000" lon="-4.890807000">
        <ele>241.5</ele>
        <time>2020-10-16T09:53:21Z</time>
      </trkpt>
      <trkpt lat="37.369554000" lon="-4.890917000">
        <ele>241.2</ele>
        <time>2020-10-16T09:53:23Z</time>
      </trkpt>
      <trkpt lat="37.369594000" lon="-4.891033000">
        <ele>240.9</ele>
        <time>2020-10-16T09:53:25Z</time>
      </trkpt>
      <trkpt lat="37.369635000" lon="-4.891151000">
        <ele>240.7</ele>
        <time>2020-10-16T09:53:27Z</time>
      </trkpt>
      <trkpt lat="37.369674000" lon="-4.891277000">
        <ele>240.5</ele>
        <time>2020-10-16T09:53:29Z</time>
      </trkpt>
      <trkpt lat="37.369715000" lon="-4.891400000">
        <ele>240.5</ele>
        <time>2020-10-16T09:53:31Z</time>
      </trkpt>
      <trkpt lat="37.369761000" lon="-4.891538000">
        <ele>240.3</ele>
        <time>2020-10-16T09:53:33Z</time>
      </trkpt>
      <trkpt lat="37.369799000" lon="-4.891679000">
        <ele>240.1</ele>
        <time>2020-10-16T09:53:35Z</time>
      </trkpt>
      <trkpt lat="37.369842000" lon="-4.891828000">
        <ele>240.0</ele>
        <time>2020-10-16T09:53:37Z</time>
      </trkpt>
      <trkpt lat="37.369879000" lon="-4.891983000">
        <ele>239.9</ele>
        <time>2020-10-16T09:53:39Z</time>
      </trkpt>
      <trkpt lat="37.369907000" lon="-4.892135000">
        <ele>239.6</ele>
        <time>2020-10-16T09:53:41Z</time>
      </trkpt>
      <trkpt lat="37.369934000" lon="-4.892308000">
        <ele>239.3</ele>
        <time>2020-10-16T09:53:43Z</time>
      </trkpt>
      <trkpt lat="37.369954000" lon="-4.892478000">
        <ele>238.7</ele>
        <time>2020-10-16T09:53:45Z</time>
      </trkpt>
      <trkpt lat="37.369974000" lon="-4.892652000">
        <ele>238.2</ele>
        <time>2020-10-16T09:53:47Z</time>
      </trkpt>
      <trkpt lat="37.369996000" lon="-4.892835000">
        <ele>237.6</ele>
        <time>2020-10-16T09:53:49Z</time>
      </trkpt>
      <trkpt lat="37.370015000" lon="-4.893024000">
        <ele>237.0</ele>
        <time>2020-10-16T09:53:51Z</time>
      </trkpt>
      <trkpt lat="37.370036000" lon="-4.893217000">
        <ele>236.3</ele>
        <time>2020-10-16T09:53:53Z</time>
      </trkpt>
      <trkpt lat="37.370059000" lon="-4.893417000">
        <ele>235.6</ele>
        <time>2020-10-16T09:53:55Z</time>
      </trkpt>
      <trkpt lat="37.370070000" lon="-4.893519000">
        <ele>234.9</ele>
        <time>2020-10-16T09:53:56Z</time>
      </trkpt>
      <trkpt lat="37.370083000" lon="-4.893623000">
        <ele>234.2</ele>
        <time>2020-10-16T09:53:57Z</time>
      </trkpt>
      <trkpt lat="37.370098000" lon="-4.893829000">
        <ele>233.5</ele>
        <time>2020-10-16T09:53:59Z</time>
      </trkpt>
      <trkpt lat="37.370105000" lon="-4.893933000">
        <ele>233.0</ele>
        <time>2020-10-16T09:54:00Z</time>
      </trkpt>
      <trkpt lat="37.370107000" lon="-4.894041000">
        <ele>232.5</ele>
        <time>2020-10-16T09:54:01Z</time>
      </trkpt>
      <trkpt lat="37.370108000" lon="-4.894153000">
        <ele>232.2</ele>
        <time>2020-10-16T09:54:02Z</time>
      </trkpt>
      <trkpt lat="37.370105000" lon="-4.894263000">
        <ele>231.9</ele>
        <time>2020-10-16T09:54:03Z</time>
      </trkpt>
      <trkpt lat="37.370101000" lon="-4.894374000">
        <ele>231.6</ele>
        <time>2020-10-16T09:54:04Z</time>
      </trkpt>
      <trkpt lat="37.370095000" lon="-4.894486000">
        <ele>231.4</ele>
        <time>2020-10-16T09:54:05Z</time>
      </trkpt>
      <trkpt lat="37.370088000" lon="-4.894600000">
        <ele>231.2</ele>
        <time>2020-10-16T09:54:06Z</time>
      </trkpt>
      <trkpt lat="37.370076000" lon="-4.894710000">
        <ele>231.0</ele>
        <time>2020-10-16T09:54:07Z</time>
      </trkpt>
      <trkpt lat="37.370068000" lon="-4.894818000">
        <ele>230.8</ele>
        <time>2020-10-16T09:54:08Z</time>
      </trkpt>
      <trkpt lat="37.370059000" lon="-4.894932000">
        <ele>230.6</ele>
        <time>2020-10-16T09:54:09Z</time>
      </trkpt>
      <trkpt lat="37.370050000" lon="-4.895037000">
        <ele>230.3</ele>
        <time>2020-10-16T09:54:10Z</time>
      </trkpt>
      <trkpt lat="37.370045000" lon="-4.895143000">
        <ele>230.0</ele>
        <time>2020-10-16T09:54:11Z</time>
      </trkpt>
      <trkpt lat="37.370035000" lon="-4.895251000">
        <ele>229.7</ele>
        <time>2020-10-16T09:54:12Z</time>
      </trkpt>
      <trkpt lat="37.370022000" lon="-4.895451000">
        <ele>229.6</ele>
        <time>2020-10-16T09:54:14Z</time>
      </trkpt>
      <trkpt lat="37.370006000" lon="-4.895640000">
        <ele>229.5</ele>
        <time>2020-10-16T09:54:16Z</time>
      </trkpt>
      <trkpt lat="37.369993000" lon="-4.895823000">
        <ele>229.5</ele>
        <time>2020-10-16T09:54:18Z</time>
      </trkpt>
      <trkpt lat="37.369979000" lon="-4.896013000">
        <ele>229.4</ele>
        <time>2020-10-16T09:54:20Z</time>
      </trkpt>
      <trkpt lat="37.369969000" lon="-4.896197000">
        <ele>229.3</ele>
        <time>2020-10-16T09:54:22Z</time>
      </trkpt>
      <trkpt lat="37.369965000" lon="-4.896372000">
        <ele>229.1</ele>
        <time>2020-10-16T09:54:24Z</time>
      </trkpt>
      <trkpt lat="37.369950000" lon="-4.896552000">
        <ele>229.0</ele>
        <time>2020-10-16T09:54:26Z</time>
      </trkpt>
      <trkpt lat="37.369934000" lon="-4.896726000">
        <ele>228.9</ele>
        <time>2020-10-16T09:54:28Z</time>
      </trkpt>
      <trkpt lat="37.369924000" lon="-4.896893000">
        <ele>229.0</ele>
        <time>2020-10-16T09:54:30Z</time>
      </trkpt>
      <trkpt lat="37.369912000" lon="-4.897056000">
        <ele>229.0</ele>
        <time>2020-10-16T09:54:32Z</time>
      </trkpt>
      <trkpt lat="37.369901000" lon="-4.897224000">
        <ele>229.0</ele>
        <time>2020-10-16T09:54:34Z</time>
      </trkpt>
      <trkpt lat="37.369887000" lon="-4.897383000">
        <ele>228.8</ele>
        <time>2020-10-16T09:54:36Z</time>
      </trkpt>
      <trkpt lat="37.369879000" lon="-4.897541000">
        <ele>228.5</ele>
        <time>2020-10-16T09:54:38Z</time>
      </trkpt>
      <trkpt lat="37.369866000" lon="-4.897697000">
        <ele>228.3</ele>
        <time>2020-10-16T09:54:40Z</time>
      </trkpt>
      <trkpt lat="37.369856000" lon="-4.897842000">
        <ele>228.0</ele>
        <time>2020-10-16T09:54:42Z</time>
      </trkpt>
      <trkpt lat="37.369856000" lon="-4.897990000">
        <ele>227.6</ele>
        <time>2020-10-16T09:54:44Z</time>
      </trkpt>
      <trkpt lat="37.369843000" lon="-4.898145000">
        <ele>227.4</ele>
        <time>2020-10-16T09:54:46Z</time>
      </trkpt>
      <trkpt lat="37.369828000" lon="-4.898304000">
        <ele>227.1</ele>
        <time>2020-10-16T09:54:48Z</time>
      </trkpt>
      <trkpt lat="37.369812000" lon="-4.898465000">
        <ele>226.8</ele>
        <time>2020-10-16T09:54:50Z</time>
      </trkpt>
      <trkpt lat="37.369797000" lon="-4.898627000">
        <ele>226.5</ele>
        <time>2020-10-16T09:54:52Z</time>
      </trkpt>
      <trkpt lat="37.369783000" lon="-4.898792000">
        <ele>226.2</ele>
        <time>2020-10-16T09:54:54Z</time>
      </trkpt>
      <trkpt lat="37.369762000" lon="-4.898951000">
        <ele>225.9</ele>
        <time>2020-10-16T09:54:56Z</time>
      </trkpt>
      <trkpt lat="37.369742000" lon="-4.899113000">
        <ele>225.7</ele>
        <time>2020-10-16T09:54:58Z</time>
      </trkpt>
      <trkpt lat="37.369715000" lon="-4.899278000">
        <ele>225.5</ele>
        <time>2020-10-16T09:55:00Z</time>
      </trkpt>
      <trkpt lat="37.369692000" lon="-4.899449000">
        <ele>225.3</ele>
        <time>2020-10-16T09:55:02Z</time>
      </trkpt>
      <trkpt lat="37.369663000" lon="-4.899621000">
        <ele>225.1</ele>
        <time>2020-10-16T09:55:04Z</time>
      </trkpt>
      <trkpt lat="37.369634000" lon="-4.899796000">
        <ele>225.0</ele>
        <time>2020-10-16T09:55:06Z</time>
      </trkpt>
      <trkpt lat="37.369608000" lon="-4.899980000">
        <ele>224.9</ele>
        <time>2020-10-16T09:55:08Z</time>
      </trkpt>
      <trkpt lat="37.369582000" lon="-4.900162000">
        <ele>224.8</ele>
        <time>2020-10-16T09:55:10Z</time>
      </trkpt>
      <trkpt lat="37.369548000" lon="-4.900351000">
        <ele>224.7</ele>
        <time>2020-10-16T09:55:12Z</time>
      </trkpt>
      <trkpt lat="37.369520000" lon="-4.900536000">
        <ele>224.6</ele>
        <time>2020-10-16T09:55:14Z</time>
      </trkpt>
      <trkpt lat="37.369492000" lon="-4.900722000">
        <ele>224.5</ele>
        <time>2020-10-16T09:55:16Z</time>
      </trkpt>
      <trkpt lat="37.369459000" lon="-4.900910000">
        <ele>224.3</ele>
        <time>2020-10-16T09:55:18Z</time>
      </trkpt>
      <trkpt lat="37.369430000" lon="-4.901095000">
        <ele>224.1</ele>
        <time>2020-10-16T09:55:20Z</time>
      </trkpt>
      <trkpt lat="37.369398000" lon="-4.901280000">
        <ele>224.0</ele>
        <time>2020-10-16T09:55:22Z</time>
      </trkpt>
      <trkpt lat="37.369368000" lon="-4.901462000">
        <ele>223.9</ele>
        <time>2020-10-16T09:55:24Z</time>
      </trkpt>
      <trkpt lat="37.369343000" lon="-4.901636000">
        <ele>223.8</ele>
        <time>2020-10-16T09:55:26Z</time>
      </trkpt>
      <trkpt lat="37.369318000" lon="-4.901803000">
        <ele>223.7</ele>
        <time>2020-10-16T09:55:28Z</time>
      </trkpt>
      <trkpt lat="37.369297000" lon="-4.901968000">
        <ele>223.6</ele>
        <time>2020-10-16T09:55:30Z</time>
      </trkpt>
      <trkpt lat="37.369269000" lon="-4.902127000">
        <ele>223.5</ele>
        <time>2020-10-16T09:55:32Z</time>
      </trkpt>
      <trkpt lat="37.369244000" lon="-4.902291000">
        <ele>223.5</ele>
        <time>2020-10-16T09:55:34Z</time>
      </trkpt>
      <trkpt lat="37.369220000" lon="-4.902447000">
        <ele>223.5</ele>
        <time>2020-10-16T09:55:36Z</time>
      </trkpt>
      <trkpt lat="37.369198000" lon="-4.902606000">
        <ele>223.6</ele>
        <time>2020-10-16T09:55:38Z</time>
      </trkpt>
      <trkpt lat="37.369182000" lon="-4.902747000">
        <ele>223.7</ele>
        <time>2020-10-16T09:55:40Z</time>
      </trkpt>
      <trkpt lat="37.369171000" lon="-4.902894000">
        <ele>223.8</ele>
        <time>2020-10-16T09:55:42Z</time>
      </trkpt>
      <trkpt lat="37.369154000" lon="-4.903041000">
        <ele>223.9</ele>
        <time>2020-10-16T09:55:44Z</time>
      </trkpt>
      <trkpt lat="37.369137000" lon="-4.903183000">
        <ele>224.0</ele>
        <time>2020-10-16T09:55:46Z</time>
      </trkpt>
      <trkpt lat="37.369122000" lon="-4.903327000">
        <ele>224.0</ele>
        <time>2020-10-16T09:55:48Z</time>
      </trkpt>
      <trkpt lat="37.369107000" lon="-4.903478000">
        <ele>223.9</ele>
        <time>2020-10-16T09:55:50Z</time>
      </trkpt>
      <trkpt lat="37.369096000" lon="-4.903627000">
        <ele>223.7</ele>
        <time>2020-10-16T09:55:52Z</time>
      </trkpt>
      <trkpt lat="37.369091000" lon="-4.903774000">
        <ele>223.5</ele>
        <time>2020-10-16T09:55:54Z</time>
      </trkpt>
      <trkpt lat="37.369095000" lon="-4.903915000">
        <ele>223.1</ele>
        <time>2020-10-16T09:55:56Z</time>
      </trkpt>
      <trkpt lat="37.369105000" lon="-4.904062000">
        <ele>222.8</ele>
        <time>2020-10-16T09:55:58Z</time>
      </trkpt>
      <trkpt lat="37.369107000" lon="-4.904206000">
        <ele>222.5</ele>
        <time>2020-10-16T09:56:00Z</time>
      </trkpt>
      <trkpt lat="37.369114000" lon="-4.904354000">
        <ele>222.4</ele>
        <time>2020-10-16T09:56:02Z</time>
      </trkpt>
      <trkpt lat="37.369123000" lon="-4.904499000">
        <ele>222.3</ele>
        <time>2020-10-16T09:56:04Z</time>
      </trkpt>
      <trkpt lat="37.369137000" lon="-4.904647000">
        <ele>222.2</ele>
        <time>2020-10-16T09:56:06Z</time>
      </trkpt>
      <trkpt lat="37.369151000" lon="-4.904795000">
        <ele>222.3</ele>
        <time>2020-10-16T09:56:08Z</time>
      </trkpt>
      <trkpt lat="37.369163000" lon="-4.904954000">
        <ele>222.5</ele>
        <time>2020-10-16T09:56:10Z</time>
      </trkpt>
      <trkpt lat="37.369176000" lon="-4.905107000">
        <ele>222.9</ele>
        <time>2020-10-16T09:56:12Z</time>
      </trkpt>
      <trkpt lat="37.369191000" lon="-4.905246000">
        <ele>223.4</ele>
        <time>2020-10-16T09:56:14Z</time>
      </trkpt>
      <trkpt lat="37.369219000" lon="-4.905384000">
        <ele>224.0</ele>
        <time>2020-10-16T09:56:16Z</time>
      </trkpt>
      <trkpt lat="37.369248000" lon="-4.905506000">
        <ele>224.6</ele>
        <time>2020-10-16T09:56:18Z</time>
      </trkpt>
      <trkpt lat="37.369275000" lon="-4.905614000">
        <ele>225.2</ele>
        <time>2020-10-16T09:56:20Z</time>
      </trkpt>
      <trkpt lat="37.369308000" lon="-4.905718000">
        <ele>225.7</ele>
        <time>2020-10-16T09:56:22Z</time>
      </trkpt>
      <trkpt lat="37.369341000" lon="-4.905820000">
        <ele>226.3</ele>
        <time>2020-10-16T09:56:24Z</time>
      </trkpt>
      <trkpt lat="37.369379000" lon="-4.905921000">
        <ele>226.7</ele>
        <time>2020-10-16T09:56:26Z</time>
      </trkpt>
      <trkpt lat="37.369417000" lon="-4.906024000">
        <ele>227.3</ele>
        <time>2020-10-16T09:56:28Z</time>
      </trkpt>
      <trkpt lat="37.369451000" lon="-4.906120000">
        <ele>227.7</ele>
        <time>2020-10-16T09:56:30Z</time>
      </trkpt>
      <trkpt lat="37.369490000" lon="-4.906215000">
        <ele>228.1</ele>
        <time>2020-10-16T09:56:32Z</time>
      </trkpt>
      <trkpt lat="37.369527000" lon="-4.906319000">
        <ele>228.5</ele>
        <time>2020-10-16T09:56:34Z</time>
      </trkpt>
      <trkpt lat="37.369561000" lon="-4.906427000">
        <ele>228.8</ele>
        <time>2020-10-16T09:56:36Z</time>
      </trkpt>
      <trkpt lat="37.369594000" lon="-4.906536000">
        <ele>229.1</ele>
        <time>2020-10-16T09:56:38Z</time>
      </trkpt>
      <trkpt lat="37.369629000" lon="-4.906643000">
        <ele>229.5</ele>
        <time>2020-10-16T09:56:40Z</time>
      </trkpt>
      <trkpt lat="37.369663000" lon="-4.906742000">
        <ele>229.8</ele>
        <time>2020-10-16T09:56:42Z</time>
      </trkpt>
      <trkpt lat="37.369691000" lon="-4.906839000">
        <ele>230.2</ele>
        <time>2020-10-16T09:56:44Z</time>
      </trkpt>
      <trkpt lat="37.369723000" lon="-4.906986000">
        <ele>230.5</ele>
        <time>2020-10-16T09:56:47Z</time>
      </trkpt>
      <trkpt lat="37.369737000" lon="-4.907088000">
        <ele>230.9</ele>
        <time>2020-10-16T09:56:49Z</time>
      </trkpt>
      <trkpt lat="37.369754000" lon="-4.907193000">
        <ele>231.2</ele>
        <time>2020-10-16T09:56:51Z</time>
      </trkpt>
      <trkpt lat="37.369766000" lon="-4.907298000">
        <ele>231.5</ele>
        <time>2020-10-16T09:56:53Z</time>
      </trkpt>
      <trkpt lat="37.369776000" lon="-4.907404000">
        <ele>231.7</ele>
        <time>2020-10-16T09:56:55Z</time>
      </trkpt>
      <trkpt lat="37.369785000" lon="-4.907510000">
        <ele>232.0</ele>
        <time>2020-10-16T09:56:57Z</time>
      </trkpt>
      <trkpt lat="37.369793000" lon="-4.907615000">
        <ele>232.3</ele>
        <time>2020-10-16T09:56:59Z</time>
      </trkpt>
      <trkpt lat="37.369806000" lon="-4.907721000">
        <ele>232.5</ele>
        <time>2020-10-16T09:57:01Z</time>
      </trkpt>
      <trkpt lat="37.369816000" lon="-4.907828000">
        <ele>232.5</ele>
        <time>2020-10-16T09:57:03Z</time>
      </trkpt>
      <trkpt lat="37.369823000" lon="-4.907934000">
        <ele>232.6</ele>
        <time>2020-10-16T09:57:05Z</time>
      </trkpt>
      <trkpt lat="37.369833000" lon="-4.908041000">
        <ele>232.6</ele>
        <time>2020-10-16T09:57:07Z</time>
      </trkpt>
      <trkpt lat="37.369844000" lon="-4.908148000">
        <ele>232.5</ele>
        <time>2020-10-16T09:57:09Z</time>
      </trkpt>
      <trkpt lat="37.369855000" lon="-4.908253000">
        <ele>232.5</ele>
        <time>2020-10-16T09:57:11Z</time>
      </trkpt>
      <trkpt lat="37.369863000" lon="-4.908358000">
        <ele>232.5</ele>
        <time>2020-10-16T09:57:13Z</time>
      </trkpt>
      <trkpt lat="37.369874000" lon="-4.908463000">
        <ele>232.6</ele>
        <time>2020-10-16T09:57:15Z</time>
      </trkpt>
      <trkpt lat="37.369883000" lon="-4.908566000">
        <ele>232.7</ele>
        <time>2020-10-16T09:57:17Z</time>
      </trkpt>
      <trkpt lat="37.369893000" lon="-4.908671000">
        <ele>232.9</ele>
        <time>2020-10-16T09:57:19Z</time>
      </trkpt>
      <trkpt lat="37.369903000" lon="-4.908773000">
        <ele>233.1</ele>
        <time>2020-10-16T09:57:21Z</time>
      </trkpt>
      <trkpt lat="37.369917000" lon="-4.908922000">
        <ele>233.5</ele>
        <time>2020-10-16T09:57:24Z</time>
      </trkpt>
      <trkpt lat="37.369930000" lon="-4.909066000">
        <ele>233.9</ele>
        <time>2020-10-16T09:57:27Z</time>
      </trkpt>
      <trkpt lat="37.369941000" lon="-4.909202000">
        <ele>234.5</ele>
        <time>2020-10-16T09:57:30Z</time>
      </trkpt>
      <trkpt lat="37.369956000" lon="-4.909340000">
        <ele>235.1</ele>
        <time>2020-10-16T09:57:33Z</time>
      </trkpt>
      <trkpt lat="37.369968000" lon="-4.909475000">
        <ele>235.7</ele>
        <time>2020-10-16T09:57:36Z</time>
      </trkpt>
      <trkpt lat="37.369982000" lon="-4.909616000">
        <ele>236.4</ele>
        <time>2020-10-16T09:57:39Z</time>
      </trkpt>
      <trkpt lat="37.369999000" lon="-4.909751000">
        <ele>237.0</ele>
        <time>2020-10-16T09:57:42Z</time>
      </trkpt>
      <trkpt lat="37.370012000" lon="-4.909878000">
        <ele>237.5</ele>
        <time>2020-10-16T09:57:45Z</time>
      </trkpt>
      <trkpt lat="37.370025000" lon="-4.910003000">
        <ele>238.1</ele>
        <time>2020-10-16T09:57:48Z</time>
      </trkpt>
      <trkpt lat="37.370036000" lon="-4.910130000">
        <ele>238.6</ele>
        <time>2020-10-16T09:57:51Z</time>
      </trkpt>
      <trkpt lat="37.370047000" lon="-4.910251000">
        <ele>239.2</ele>
        <time>2020-10-16T09:57:54Z</time>
      </trkpt>
      <trkpt lat="37.370055000" lon="-4.910367000">
        <ele>239.7</ele>
        <time>2020-10-16T09:57:57Z</time>
      </trkpt>
      <trkpt lat="37.370063000" lon="-4.910486000">
        <ele>240.2</ele>
        <time>2020-10-16T09:58:00Z</time>
      </trkpt>
      <trkpt lat="37.370073000" lon="-4.910594000">
        <ele>240.6</ele>
        <time>2020-10-16T09:58:03Z</time>
      </trkpt>
      <trkpt lat="37.370088000" lon="-4.910728000">
        <ele>241.1</ele>
        <time>2020-10-16T09:58:07Z</time>
      </trkpt>
      <trkpt lat="37.370097000" lon="-4.910831000">
        <ele>241.5</ele>
        <time>2020-10-16T09:58:10Z</time>
      </trkpt>
      <trkpt lat="37.370110000" lon="-4.910939000">
        <ele>242.0</ele>
        <time>2020-10-16T09:58:13Z</time>
      </trkpt>
      <trkpt lat="37.370117000" lon="-4.911043000">
        <ele>242.5</ele>
        <time>2020-10-16T09:58:16Z</time>
      </trkpt>
      <trkpt lat="37.370127000" lon="-4.911149000">
        <ele>243.2</ele>
        <time>2020-10-16T09:58:19Z</time>
      </trkpt>
      <trkpt lat="37.370135000" lon="-4.911260000">
        <ele>243.8</ele>
        <time>2020-10-16T09:58:22Z</time>
      </trkpt>
      <trkpt lat="37.370143000" lon="-4.911372000">
        <ele>244.5</ele>
        <time>2020-10-16T09:58:25Z</time>
      </trkpt>
      <trkpt lat="37.370154000" lon="-4.911488000">
        <ele>245.1</ele>
        <time>2020-10-16T09:58:28Z</time>
      </trkpt>
      <trkpt lat="37.370164000" lon="-4.911605000">
        <ele>245.6</ele>
        <time>2020-10-16T09:58:31Z</time>
      </trkpt>
      <trkpt lat="37.370177000" lon="-4.911732000">
        <ele>246.2</ele>
        <time>2020-10-16T09:58:34Z</time>
      </trkpt>
      <trkpt lat="37.370186000" lon="-4.911857000">
        <ele>246.7</ele>
        <time>2020-10-16T09:58:37Z</time>
      </trkpt>
      <trkpt lat="37.370192000" lon="-4.911978000">
        <ele>247.2</ele>
        <time>2020-10-16T09:58:40Z</time>
      </trkpt>
      <trkpt lat="37.370201000" lon="-4.912092000">
        <ele>247.6</ele>
        <time>2020-10-16T09:58:43Z</time>
      </trkpt>
      <trkpt lat="37.370208000" lon="-4.912198000">
        <ele>248.0</ele>
        <time>2020-10-16T09:58:46Z</time>
      </trkpt>
      <trkpt lat="37.370215000" lon="-4.912305000">
        <ele>248.3</ele>
        <time>2020-10-16T09:58:49Z</time>
      </trkpt>
      <trkpt lat="37.370224000" lon="-4.912410000">
        <ele>248.5</ele>
        <time>2020-10-16T09:58:52Z</time>
      </trkpt>
      <trkpt lat="37.370230000" lon="-4.912517000">
        <ele>248.6</ele>
        <time>2020-10-16T09:58:55Z</time>
      </trkpt>
      <trkpt lat="37.370233000" lon="-4.912624000">
        <ele>248.8</ele>
        <time>2020-10-16T09:58:58Z</time>
      </trkpt>
      <trkpt lat="37.370236000" lon="-4.912735000">
        <ele>249.0</ele>
        <time>2020-10-16T09:59:01Z</time>
      </trkpt>
      <trkpt lat="37.370242000" lon="-4.912859000">
        <ele>249.2</ele>
        <time>2020-10-16T09:59:04Z</time>
      </trkpt>
      <trkpt lat="37.370237000" lon="-4.912992000">
        <ele>249.3</ele>
        <time>2020-10-16T09:59:07Z</time>
      </trkpt>
      <trkpt lat="37.370235000" lon="-4.913133000">
        <ele>249.3</ele>
        <time>2020-10-16T09:59:10Z</time>
      </trkpt>
      <trkpt lat="37.370234000" lon="-4.913235000">
        <ele>249.3</ele>
        <time>2020-10-16T09:59:12Z</time>
      </trkpt>
      <trkpt lat="37.370234000" lon="-4.913342000">
        <ele>249.2</ele>
        <time>2020-10-16T09:59:14Z</time>
      </trkpt>
      <trkpt lat="37.370234000" lon="-4.913453000">
        <ele>249.1</ele>
        <time>2020-10-16T09:59:16Z</time>
      </trkpt>
      <trkpt lat="37.370238000" lon="-4.913566000">
        <ele>248.9</ele>
        <time>2020-10-16T09:59:18Z</time>
      </trkpt>
      <trkpt lat="37.370236000" lon="-4.913690000">
        <ele>248.6</ele>
        <time>2020-10-16T09:59:20Z</time>
      </trkpt>
      <trkpt lat="37.370234000" lon="-4.913812000">
        <ele>248.4</ele>
        <time>2020-10-16T09:59:22Z</time>
      </trkpt>
      <trkpt lat="37.370231000" lon="-4.913940000">
        <ele>248.0</ele>
        <time>2020-10-16T09:59:24Z</time>
      </trkpt>
      <trkpt lat="37.370229000" lon="-4.914074000">
        <ele>247.6</ele>
        <time>2020-10-16T09:59:26Z</time>
      </trkpt>
      <trkpt lat="37.370225000" lon="-4.914216000">
        <ele>247.3</ele>
        <time>2020-10-16T09:59:28Z</time>
      </trkpt>
      <trkpt lat="37.370226000" lon="-4.914365000">
        <ele>247.0</ele>
        <time>2020-10-16T09:59:30Z</time>
      </trkpt>
      <trkpt lat="37.370224000" lon="-4.914519000">
        <ele>246.7</ele>
        <time>2020-10-16T09:59:32Z</time>
      </trkpt>
      <trkpt lat="37.370227000" lon="-4.914677000">
        <ele>246.5</ele>
        <time>2020-10-16T09:59:34Z</time>
      </trkpt>
      <trkpt lat="37.370225000" lon="-4.914838000">
        <ele>246.3</ele>
        <time>2020-10-16T09:59:36Z</time>
      </trkpt>
      <trkpt lat="37.370222000" lon="-4.914997000">
        <ele>246.1</ele>
        <time>2020-10-16T09:59:38Z</time>
      </trkpt>
      <trkpt lat="37.370223000" lon="-4.915155000">
        <ele>246.0</ele>
        <time>2020-10-16T09:59:40Z</time>
      </trkpt>
      <trkpt lat="37.370224000" lon="-4.915306000">
        <ele>246.1</ele>
        <time>2020-10-16T09:59:42Z</time>
      </trkpt>
      <trkpt lat="37.370236000" lon="-4.915454000">
        <ele>246.2</ele>
        <time>2020-10-16T09:59:44Z</time>
      </trkpt>
      <trkpt lat="37.370246000" lon="-4.915603000">
        <ele>246.3</ele>
        <time>2020-10-16T09:59:46Z</time>
      </trkpt>
      <trkpt lat="37.370252000" lon="-4.915747000">
        <ele>246.4</ele>
        <time>2020-10-16T09:59:48Z</time>
      </trkpt>
      <trkpt lat="37.370264000" lon="-4.915887000">
        <ele>246.5</ele>
        <time>2020-10-16T09:59:50Z</time>
      </trkpt>
      <trkpt lat="37.370275000" lon="-4.916020000">
        <ele>246.7</ele>
        <time>2020-10-16T09:59:52Z</time>
      </trkpt>
      <trkpt lat="37.370288000" lon="-4.916156000">
        <ele>246.9</ele>
        <time>2020-10-16T09:59:54Z</time>
      </trkpt>
      <trkpt lat="37.370303000" lon="-4.916279000">
        <ele>247.2</ele>
        <time>2020-10-16T09:59:56Z</time>
      </trkpt>
      <trkpt lat="37.370318000" lon="-4.916398000">
        <ele>247.5</ele>
        <time>2020-10-16T09:59:58Z</time>
      </trkpt>
      <trkpt lat="37.370327000" lon="-4.916519000">
        <ele>247.8</ele>
        <time>2020-10-16T10:00:00Z</time>
      </trkpt>
      <trkpt lat="37.370338000" lon="-4.916638000">
        <ele>248.2</ele>
        <time>2020-10-16T10:00:02Z</time>
      </trkpt>
      <trkpt lat="37.370348000" lon="-4.916757000">
        <ele>248.5</ele>
        <time>2020-10-16T10:00:04Z</time>
      </trkpt>
      <trkpt lat="37.370367000" lon="-4.916877000">
        <ele>248.8</ele>
        <time>2020-10-16T10:00:06Z</time>
      </trkpt>
      <trkpt lat="37.370380000" lon="-4.916995000">
        <ele>249.2</ele>
        <time>2020-10-16T10:00:08Z</time>
      </trkpt>
      <trkpt lat="37.370395000" lon="-4.917118000">
        <ele>249.5</ele>
        <time>2020-10-16T10:00:10Z</time>
      </trkpt>
      <trkpt lat="37.370410000" lon="-4.917234000">
        <ele>249.8</ele>
        <time>2020-10-16T10:00:12Z</time>
      </trkpt>
      <trkpt lat="37.370425000" lon="-4.917348000">
        <ele>250.2</ele>
        <time>2020-10-16T10:00:14Z</time>
      </trkpt>
      <trkpt lat="37.370439000" lon="-4.917455000">
        <ele>250.5</ele>
        <time>2020-10-16T10:00:16Z</time>
      </trkpt>
      <trkpt lat="37.370450000" lon="-4.917558000">
        <ele>250.9</ele>
        <time>2020-10-16T10:00:18Z</time>
      </trkpt>
      <trkpt lat="37.370461000" lon="-4.917661000">
        <ele>251.3</ele>
        <time>2020-10-16T10:00:20Z</time>
      </trkpt>
      <trkpt lat="37.370480000" lon="-4.917806000">
        <ele>251.5</ele>
        <time>2020-10-16T10:00:23Z</time>
      </trkpt>
      <trkpt lat="37.370495000" lon="-4.917956000">
        <ele>251.8</ele>
        <time>2020-10-16T10:00:26Z</time>
      </trkpt>
      <trkpt lat="37.370510000" lon="-4.918099000">
        <ele>252.2</ele>
        <time>2020-10-16T10:00:29Z</time>
      </trkpt>
      <trkpt lat="37.370521000" lon="-4.918234000">
        <ele>252.5</ele>
        <time>2020-10-16T10:00:32Z</time>
      </trkpt>
      <trkpt lat="37.370533000" lon="-4.918372000">
        <ele>252.7</ele>
        <time>2020-10-16T10:00:35Z</time>
      </trkpt>
      <trkpt lat="37.370552000" lon="-4.918506000">
        <ele>253.1</ele>
        <time>2020-10-16T10:00:38Z</time>
      </trkpt>
      <trkpt lat="37.370567000" lon="-4.918643000">
        <ele>253.4</ele>
        <time>2020-10-16T10:00:41Z</time>
      </trkpt>
      <trkpt lat="37.370580000" lon="-4.918781000">
        <ele>253.5</ele>
        <time>2020-10-16T10:00:44Z</time>
      </trkpt>
      <trkpt lat="37.370594000" lon="-4.918916000">
        <ele>253.8</ele>
        <time>2020-10-16T10:00:47Z</time>
      </trkpt>
      <trkpt lat="37.370608000" lon="-4.919054000">
        <ele>254.0</ele>
        <time>2020-10-16T10:00:50Z</time>
      </trkpt>
      <trkpt lat="37.370623000" lon="-4.919190000">
        <ele>254.2</ele>
        <time>2020-10-16T10:00:53Z</time>
      </trkpt>
      <trkpt lat="37.370640000" lon="-4.919322000">
        <ele>254.5</ele>
        <time>2020-10-16T10:00:56Z</time>
      </trkpt>
      <trkpt lat="37.370655000" lon="-4.919460000">
        <ele>254.7</ele>
        <time>2020-10-16T10:00:59Z</time>
      </trkpt>
      <trkpt lat="37.370667000" lon="-4.919604000">
        <ele>254.9</ele>
        <time>2020-10-16T10:01:02Z</time>
      </trkpt>
      <trkpt lat="37.370682000" lon="-4.919755000">
        <ele>255.1</ele>
        <time>2020-10-16T10:01:05Z</time>
      </trkpt>
      <trkpt lat="37.370696000" lon="-4.919907000">
        <ele>255.3</ele>
        <time>2020-10-16T10:01:08Z</time>
      </trkpt>
      <trkpt lat="37.370712000" lon="-4.920059000">
        <ele>255.3</ele>
        <time>2020-10-16T10:01:11Z</time>
      </trkpt>
      <trkpt lat="37.370723000" lon="-4.920165000">
        <ele>255.4</ele>
        <time>2020-10-16T10:01:13Z</time>
      </trkpt>
      <trkpt lat="37.370733000" lon="-4.920271000">
        <ele>255.5</ele>
        <time>2020-10-16T10:01:15Z</time>
      </trkpt>
      <trkpt lat="37.370743000" lon="-4.920378000">
        <ele>255.5</ele>
        <time>2020-10-16T10:01:17Z</time>
      </trkpt>
      <trkpt lat="37.370757000" lon="-4.920494000">
        <ele>255.4</ele>
        <time>2020-10-16T10:01:19Z</time>
      </trkpt>
      <trkpt lat="37.370772000" lon="-4.920605000">
        <ele>255.3</ele>
        <time>2020-10-16T10:01:21Z</time>
      </trkpt>
      <trkpt lat="37.370784000" lon="-4.920718000">
        <ele>255.1</ele>
        <time>2020-10-16T10:01:23Z</time>
      </trkpt>
      <trkpt lat="37.370794000" lon="-4.920836000">
        <ele>254.9</ele>
        <time>2020-10-16T10:01:25Z</time>
      </trkpt>
      <trkpt lat="37.370807000" lon="-4.920958000">
        <ele>254.8</ele>
        <time>2020-10-16T10:01:27Z</time>
      </trkpt>
      <trkpt lat="37.370826000" lon="-4.921081000">
        <ele>254.7</ele>
        <time>2020-10-16T10:01:29Z</time>
      </trkpt>
      <trkpt lat="37.370844000" lon="-4.921215000">
        <ele>254.7</ele>
        <time>2020-10-16T10:01:31Z</time>
      </trkpt>
      <trkpt lat="37.370867000" lon="-4.921339000">
        <ele>254.8</ele>
        <time>2020-10-16T10:01:33Z</time>
      </trkpt>
      <trkpt lat="37.370889000" lon="-4.921466000">
        <ele>254.9</ele>
        <time>2020-10-16T10:01:35Z</time>
      </trkpt>
      <trkpt lat="37.370909000" lon="-4.921605000">
        <ele>255.0</ele>
        <time>2020-10-16T10:01:37Z</time>
      </trkpt>
      <trkpt lat="37.370935000" lon="-4.921741000">
        <ele>255.0</ele>
        <time>2020-10-16T10:01:39Z</time>
      </trkpt>
      <trkpt lat="37.370963000" lon="-4.921882000">
        <ele>255.1</ele>
        <time>2020-10-16T10:01:41Z</time>
      </trkpt>
      <trkpt lat="37.370990000" lon="-4.922022000">
        <ele>255.1</ele>
        <time>2020-10-16T10:01:43Z</time>
      </trkpt>
      <trkpt lat="37.371018000" lon="-4.922171000">
        <ele>255.1</ele>
        <time>2020-10-16T10:01:45Z</time>
      </trkpt>
      <trkpt lat="37.371048000" lon="-4.922313000">
        <ele>255.1</ele>
        <time>2020-10-16T10:01:47Z</time>
      </trkpt>
      <trkpt lat="37.371079000" lon="-4.922455000">
        <ele>255.0</ele>
        <time>2020-10-16T10:01:49Z</time>
      </trkpt>
      <trkpt lat="37.371107000" lon="-4.922604000">
        <ele>254.9</ele>
        <time>2020-10-16T10:01:51Z</time>
      </trkpt>
      <trkpt lat="37.371134000" lon="-4.922745000">
        <ele>254.7</ele>
        <time>2020-10-16T10:01:53Z</time>
      </trkpt>
      <trkpt lat="37.371168000" lon="-4.922892000">
        <ele>254.5</ele>
        <time>2020-10-16T10:01:55Z</time>
      </trkpt>
      <trkpt lat="37.371197000" lon="-4.923033000">
        <ele>254.3</ele>
        <time>2020-10-16T10:01:57Z</time>
      </trkpt>
      <trkpt lat="37.371233000" lon="-4.923170000">
        <ele>254.1</ele>
        <time>2020-10-16T10:01:59Z</time>
      </trkpt>
      <trkpt lat="37.371268000" lon="-4.923311000">
        <ele>254.0</ele>
        <time>2020-10-16T10:02:01Z</time>
      </trkpt>
      <trkpt lat="37.371301000" lon="-4.923451000">
        <ele>253.9</ele>
        <time>2020-10-16T10:02:03Z</time>
      </trkpt>
      <trkpt lat="37.371333000" lon="-4.923588000">
        <ele>253.9</ele>
        <time>2020-10-16T10:02:05Z</time>
      </trkpt>
      <trkpt lat="37.371367000" lon="-4.923733000">
        <ele>253.9</ele>
        <time>2020-10-16T10:02:07Z</time>
      </trkpt>
      <trkpt lat="37.371404000" lon="-4.923874000">
        <ele>253.9</ele>
        <time>2020-10-16T10:02:09Z</time>
      </trkpt>
      <trkpt lat="37.371435000" lon="-4.924019000">
        <ele>253.9</ele>
        <time>2020-10-16T10:02:11Z</time>
      </trkpt>
      <trkpt lat="37.371465000" lon="-4.924160000">
        <ele>254.0</ele>
        <time>2020-10-16T10:02:13Z</time>
      </trkpt>
      <trkpt lat="37.371499000" lon="-4.924298000">
        <ele>254.1</ele>
        <time>2020-10-16T10:02:15Z</time>
      </trkpt>
      <trkpt lat="37.371534000" lon="-4.924435000">
        <ele>254.3</ele>
        <time>2020-10-16T10:02:17Z</time>
      </trkpt>
      <trkpt lat="37.371568000" lon="-4.924577000">
        <ele>254.4</ele>
        <time>2020-10-16T10:02:19Z</time>
      </trkpt>
      <trkpt lat="37.371600000" lon="-4.924717000">
        <ele>254.5</ele>
        <time>2020-10-16T10:02:21Z</time>
      </trkpt>
      <trkpt lat="37.371635000" lon="-4.924856000">
        <ele>254.5</ele>
        <time>2020-10-16T10:02:23Z</time>
      </trkpt>
      <trkpt lat="37.371670000" lon="-4.924994000">
        <ele>254.5</ele>
        <time>2020-10-16T10:02:25Z</time>
      </trkpt>
      <trkpt lat="37.371707000" lon="-4.925128000">
        <ele>254.5</ele>
        <time>2020-10-16T10:02:27Z</time>
      </trkpt>
      <trkpt lat="37.371741000" lon="-4.925265000">
        <ele>254.5</ele>
        <time>2020-10-16T10:02:29Z</time>
      </trkpt>
      <trkpt lat="37.371773000" lon="-4.925402000">
        <ele>254.5</ele>
        <time>2020-10-16T10:02:31Z</time>
      </trkpt>
      <trkpt lat="37.371806000" lon="-4.925533000">
        <ele>254.6</ele>
        <time>2020-10-16T10:02:33Z</time>
      </trkpt>
      <trkpt lat="37.371839000" lon="-4.925657000">
        <ele>254.6</ele>
        <time>2020-10-16T10:02:35Z</time>
      </trkpt>
      <trkpt lat="37.371871000" lon="-4.925787000">
        <ele>254.7</ele>
        <time>2020-10-16T10:02:37Z</time>
      </trkpt>
      <trkpt lat="37.371897000" lon="-4.925912000">
        <ele>254.8</ele>
        <time>2020-10-16T10:02:39Z</time>
      </trkpt>
      <trkpt lat="37.371927000" lon="-4.926033000">
        <ele>254.9</ele>
        <time>2020-10-16T10:02:41Z</time>
      </trkpt>
      <trkpt lat="37.371961000" lon="-4.926159000">
        <ele>255.1</ele>
        <time>2020-10-16T10:02:43Z</time>
      </trkpt>
      <trkpt lat="37.371989000" lon="-4.926284000">
        <ele>255.4</ele>
        <time>2020-10-16T10:02:45Z</time>
      </trkpt>
      <trkpt lat="37.372015000" lon="-4.926405000">
        <ele>255.6</ele>
        <time>2020-10-16T10:02:47Z</time>
      </trkpt>
      <trkpt lat="37.372044000" lon="-4.926528000">
        <ele>255.9</ele>
        <time>2020-10-16T10:02:49Z</time>
      </trkpt>
      <trkpt lat="37.372069000" lon="-4.926646000">
        <ele>256.1</ele>
        <time>2020-10-16T10:02:51Z</time>
      </trkpt>
      <trkpt lat="37.372091000" lon="-4.926751000">
        <ele>256.2</ele>
        <time>2020-10-16T10:02:53Z</time>
      </trkpt>
      <trkpt lat="37.372117000" lon="-4.926854000">
        <ele>256.3</ele>
        <time>2020-10-16T10:02:55Z</time>
      </trkpt>
      <trkpt lat="37.372138000" lon="-4.926959000">
        <ele>256.4</ele>
        <time>2020-10-16T10:02:57Z</time>
      </trkpt>
      <trkpt lat="37.372166000" lon="-4.927065000">
        <ele>256.4</ele>
        <time>2020-10-16T10:02:59Z</time>
      </trkpt>
      <trkpt lat="37.372190000" lon="-4.927170000">
        <ele>256.4</ele>
        <time>2020-10-16T10:03:01Z</time>
      </trkpt>
      <trkpt lat="37.372213000" lon="-4.927280000">
        <ele>256.4</ele>
        <time>2020-10-16T10:03:03Z</time>
      </trkpt>
      <trkpt lat="37.372239000" lon="-4.927395000">
        <ele>256.3</ele>
        <time>2020-10-16T10:03:05Z</time>
      </trkpt>
      <trkpt lat="37.372265000" lon="-4.927505000">
        <ele>256.2</ele>
        <time>2020-10-16T10:03:07Z</time>
      </trkpt>
      <trkpt lat="37.372294000" lon="-4.927617000">
        <ele>256.1</ele>
        <time>2020-10-16T10:03:09Z</time>
      </trkpt>
      <trkpt lat="37.372324000" lon="-4.927732000">
        <ele>256.0</ele>
        <time>2020-10-16T10:03:11Z</time>
      </trkpt>
      <trkpt lat="37.372354000" lon="-4.927855000">
        <ele>255.9</ele>
        <time>2020-10-16T10:03:13Z</time>
      </trkpt>
      <trkpt lat="37.372386000" lon="-4.927978000">
        <ele>255.8</ele>
        <time>2020-10-16T10:03:15Z</time>
      </trkpt>
      <trkpt lat="37.372421000" lon="-4.928102000">
        <ele>255.7</ele>
        <time>2020-10-16T10:03:17Z</time>
      </trkpt>
      <trkpt lat="37.372454000" lon="-4.928230000">
        <ele>255.5</ele>
        <time>2020-10-16T10:03:19Z</time>
      </trkpt>
      <trkpt lat="37.372495000" lon="-4.928364000">
        <ele>255.3</ele>
        <time>2020-10-16T10:03:21Z</time>
      </trkpt>
      <trkpt lat="37.372540000" lon="-4.928498000">
        <ele>255.0</ele>
        <time>2020-10-16T10:03:23Z</time>
      </trkpt>
      <trkpt lat="37.372587000" lon="-4.928646000">
        <ele>254.6</ele>
        <time>2020-10-16T10:03:25Z</time>
      </trkpt>
      <trkpt lat="37.372639000" lon="-4.928792000">
        <ele>254.3</ele>
        <time>2020-10-16T10:03:27Z</time>
      </trkpt>
      <trkpt lat="37.372691000" lon="-4.928947000">
        <ele>253.8</ele>
        <time>2020-10-16T10:03:29Z</time>
      </trkpt>
      <trkpt lat="37.372749000" lon="-4.929101000">
        <ele>253.3</ele>
        <time>2020-10-16T10:03:31Z</time>
      </trkpt>
      <trkpt lat="37.372805000" lon="-4.929263000">
        <ele>252.7</ele>
        <time>2020-10-16T10:03:33Z</time>
      </trkpt>
      <trkpt lat="37.372868000" lon="-4.929422000">
        <ele>252.2</ele>
        <time>2020-10-16T10:03:35Z</time>
      </trkpt>
      <trkpt lat="37.372929000" lon="-4.929596000">
        <ele>251.6</ele>
        <time>2020-10-16T10:03:37Z</time>
      </trkpt>
      <trkpt lat="37.372988000" lon="-4.929777000">
        <ele>251.1</ele>
        <time>2020-10-16T10:03:39Z</time>
      </trkpt>
      <trkpt lat="37.373055000" lon="-4.929956000">
        <ele>250.5</ele>
        <time>2020-10-16T10:03:41Z</time>
      </trkpt>
      <trkpt lat="37.373119000" lon="-4.930134000">
        <ele>250.0</ele>
        <time>2020-10-16T10:03:43Z</time>
      </trkpt>
      <trkpt lat="37.373188000" lon="-4.930314000">
        <ele>249.5</ele>
        <time>2020-10-16T10:03:45Z</time>
      </trkpt>
      <trkpt lat="37.373257000" lon="-4.930493000">
        <ele>248.9</ele>
        <time>2020-10-16T10:03:47Z</time>
      </trkpt>
      <trkpt lat="37.373293000" lon="-4.930585000">
        <ele>248.3</ele>
        <time>2020-10-16T10:03:48Z</time>
      </trkpt>
      <trkpt lat="37.373325000" lon="-4.930681000">
        <ele>247.7</ele>
        <time>2020-10-16T10:03:49Z</time>
      </trkpt>
      <trkpt lat="37.373356000" lon="-4.930779000">
        <ele>247.3</ele>
        <time>2020-10-16T10:03:50Z</time>
      </trkpt>
      <trkpt lat="37.373390000" lon="-4.930876000">
        <ele>246.8</ele>
        <time>2020-10-16T10:03:51Z</time>
      </trkpt>
      <trkpt lat="37.373421000" lon="-4.930973000">
        <ele>246.5</ele>
        <time>2020-10-16T10:03:52Z</time>
      </trkpt>
      <trkpt lat="37.373487000" lon="-4.931163000">
        <ele>246.1</ele>
        <time>2020-10-16T10:03:54Z</time>
      </trkpt>
      <trkpt lat="37.373521000" lon="-4.931263000">
        <ele>245.7</ele>
        <time>2020-10-16T10:03:55Z</time>
      </trkpt>
      <trkpt lat="37.373559000" lon="-4.931364000">
        <ele>245.5</ele>
        <time>2020-10-16T10:03:56Z</time>
      </trkpt>
      <trkpt lat="37.373593000" lon="-4.931461000">
        <ele>245.4</ele>
        <time>2020-10-16T10:03:57Z</time>
      </trkpt>
      <trkpt lat="37.373627000" lon="-4.931557000">
        <ele>245.2</ele>
        <time>2020-10-16T10:03:58Z</time>
      </trkpt>
      <trkpt lat="37.373660000" lon="-4.931652000">
        <ele>245.0</ele>
        <time>2020-10-16T10:03:59Z</time>
      </trkpt>
      <trkpt lat="37.373695000" lon="-4.931747000">
        <ele>244.9</ele>
        <time>2020-10-16T10:04:00Z</time>
      </trkpt>
      <trkpt lat="37.373762000" lon="-4.931929000">
        <ele>244.8</ele>
        <time>2020-10-16T10:04:02Z</time>
      </trkpt>
      <trkpt lat="37.373829000" lon="-4.932107000">
        <ele>244.7</ele>
        <time>2020-10-16T10:04:04Z</time>
      </trkpt>
      <trkpt lat="37.373894000" lon="-4.932281000">
        <ele>244.7</ele>
        <time>2020-10-16T10:04:06Z</time>
      </trkpt>
      <trkpt lat="37.373948000" lon="-4.932444000">
        <ele>244.6</ele>
        <time>2020-10-16T10:04:08Z</time>
      </trkpt>
      <trkpt lat="37.374002000" lon="-4.932612000">
        <ele>244.5</ele>
        <time>2020-10-16T10:04:10Z</time>
      </trkpt>
      <trkpt lat="37.374053000" lon="-4.932773000">
        <ele>244.5</ele>
        <time>2020-10-16T10:04:12Z</time>
      </trkpt>
      <trkpt lat="37.374099000" lon="-4.932936000">
        <ele>244.2</ele>
        <time>2020-10-16T10:04:14Z</time>
      </trkpt>
      <trkpt lat="37.374138000" lon="-4.933092000">
        <ele>244.0</ele>
        <time>2020-10-16T10:04:16Z</time>
      </trkpt>
      <trkpt lat="37.374178000" lon="-4.933248000">
        <ele>243.7</ele>
        <time>2020-10-16T10:04:18Z</time>
      </trkpt>
      <trkpt lat="37.374219000" lon="-4.933407000">
        <ele>243.5</ele>
        <time>2020-10-16T10:04:20Z</time>
      </trkpt>
      <trkpt lat="37.374255000" lon="-4.933573000">
        <ele>243.5</ele>
        <time>2020-10-16T10:04:22Z</time>
      </trkpt>
      <trkpt lat="37.374287000" lon="-4.933728000">
        <ele>243.4</ele>
        <time>2020-10-16T10:04:24Z</time>
      </trkpt>
      <trkpt lat="37.374319000" lon="-4.933888000">
        <ele>243.3</ele>
        <time>2020-10-16T10:04:26Z</time>
      </trkpt>
      <trkpt lat="37.374356000" lon="-4.934038000">
        <ele>243.2</ele>
        <time>2020-10-16T10:04:28Z</time>
      </trkpt>
      <trkpt lat="37.374388000" lon="-4.934189000">
        <ele>243.2</ele>
        <time>2020-10-16T10:04:30Z</time>
      </trkpt>
      <trkpt lat="37.374422000" lon="-4.934334000">
        <ele>243.2</ele>
        <time>2020-10-16T10:04:32Z</time>
      </trkpt>
      <trkpt lat="37.374457000" lon="-4.934481000">
        <ele>243.2</ele>
        <time>2020-10-16T10:04:34Z</time>
      </trkpt>
      <trkpt lat="37.374492000" lon="-4.934621000">
        <ele>243.3</ele>
        <time>2020-10-16T10:04:36Z</time>
      </trkpt>
      <trkpt lat="37.374522000" lon="-4.934761000">
        <ele>243.5</ele>
        <time>2020-10-16T10:04:38Z</time>
      </trkpt>
      <trkpt lat="37.374548000" lon="-4.934904000">
        <ele>243.7</ele>
        <time>2020-10-16T10:04:40Z</time>
      </trkpt>
      <trkpt lat="37.374581000" lon="-4.935033000">
        <ele>244.1</ele>
        <time>2020-10-16T10:04:42Z</time>
      </trkpt>
      <trkpt lat="37.374611000" lon="-4.935150000">
        <ele>244.4</ele>
        <time>2020-10-16T10:04:44Z</time>
      </trkpt>
      <trkpt lat="37.374633000" lon="-4.935262000">
        <ele>244.6</ele>
        <time>2020-10-16T10:04:46Z</time>
      </trkpt>
      <trkpt lat="37.374656000" lon="-4.935372000">
        <ele>245.0</ele>
        <time>2020-10-16T10:04:48Z</time>
      </trkpt>
      <trkpt lat="37.374683000" lon="-4.935490000">
        <ele>245.3</ele>
        <time>2020-10-16T10:04:50Z</time>
      </trkpt>
      <trkpt lat="37.374709000" lon="-4.935604000">
        <ele>245.5</ele>
        <time>2020-10-16T10:04:52Z</time>
      </trkpt>
      <trkpt lat="37.374731000" lon="-4.935715000">
        <ele>245.9</ele>
        <time>2020-10-16T10:04:54Z</time>
      </trkpt>
      <trkpt lat="37.374757000" lon="-4.935827000">
        <ele>246.3</ele>
        <time>2020-10-16T10:04:56Z</time>
      </trkpt>
      <trkpt lat="37.374781000" lon="-4.935935000">
        <ele>246.6</ele>
        <time>2020-10-16T10:04:58Z</time>
      </trkpt>
      <trkpt lat="37.374805000" lon="-4.936040000">
        <ele>246.9</ele>
        <time>2020-10-16T10:05:00Z</time>
      </trkpt>
      <trkpt lat="37.374836000" lon="-4.936188000">
        <ele>247.2</ele>
        <time>2020-10-16T10:05:03Z</time>
      </trkpt>
      <trkpt lat="37.374869000" lon="-4.936334000">
        <ele>247.5</ele>
        <time>2020-10-16T10:05:06Z</time>
      </trkpt>
      <trkpt lat="37.374898000" lon="-4.936476000">
        <ele>247.7</ele>
        <time>2020-10-16T10:05:09Z</time>
      </trkpt>
      <trkpt lat="37.374921000" lon="-4.936576000">
        <ele>247.8</ele>
        <time>2020-10-16T10:05:11Z</time>
      </trkpt>
      <trkpt lat="37.374943000" lon="-4.936687000">
        <ele>247.7</ele>
        <time>2020-10-16T10:05:13Z</time>
      </trkpt>
      <trkpt lat="37.374968000" lon="-4.936806000">
        <ele>247.6</ele>
        <time>2020-10-16T10:05:15Z</time>
      </trkpt>
      <trkpt lat="37.374993000" lon="-4.936920000">
        <ele>247.5</ele>
        <time>2020-10-16T10:05:17Z</time>
      </trkpt>
      <trkpt lat="37.375030000" lon="-4.937045000">
        <ele>247.3</ele>
        <time>2020-10-16T10:05:26Z</time>
      </trkpt>
      <trkpt lat="37.375242000" lon="-4.937563000">
        <ele>247.0</ele>
        <time>2020-10-16T10:05:27Z</time>
      </trkpt>
      <trkpt lat="37.375300000" lon="-4.937694000">
        <ele>246.7</ele>
        <time>2020-10-16T10:05:29Z</time>
      </trkpt>
      <trkpt lat="37.375363000" lon="-4.937821000">
        <ele>246.4</ele>
        <time>2020-10-16T10:05:31Z</time>
      </trkpt>
      <trkpt lat="37.375426000" lon="-4.937940000">
        <ele>245.9</ele>
        <time>2020-10-16T10:05:33Z</time>
      </trkpt>
      <trkpt lat="37.375493000" lon="-4.938064000">
        <ele>245.3</ele>
        <time>2020-10-16T10:05:35Z</time>
      </trkpt>
      <trkpt lat="37.375565000" lon="-4.938194000">
        <ele>244.6</ele>
        <time>2020-10-16T10:05:37Z</time>
      </trkpt>
      <trkpt lat="37.375636000" lon="-4.938339000">
        <ele>244.1</ele>
        <time>2020-10-16T10:05:39Z</time>
      </trkpt>
      <trkpt lat="37.375709000" lon="-4.938474000">
        <ele>243.6</ele>
        <time>2020-10-16T10:05:41Z</time>
      </trkpt>
      <trkpt lat="37.375782000" lon="-4.938623000">
        <ele>243.1</ele>
        <time>2020-10-16T10:05:43Z</time>
      </trkpt>
      <trkpt lat="37.375855000" lon="-4.938773000">
        <ele>242.5</ele>
        <time>2020-10-16T10:05:45Z</time>
      </trkpt>
      <trkpt lat="37.375941000" lon="-4.938932000">
        <ele>242.0</ele>
        <time>2020-10-16T10:05:47Z</time>
      </trkpt>
      <trkpt lat="37.376023000" lon="-4.939090000">
        <ele>241.5</ele>
        <time>2020-10-16T10:05:49Z</time>
      </trkpt>
      <trkpt lat="37.376102000" lon="-4.939240000">
        <ele>240.8</ele>
        <time>2020-10-16T10:05:51Z</time>
      </trkpt>
      <trkpt lat="37.376173000" lon="-4.939398000">
        <ele>240.2</ele>
        <time>2020-10-16T10:05:53Z</time>
      </trkpt>
      <trkpt lat="37.376251000" lon="-4.939541000">
        <ele>239.5</ele>
        <time>2020-10-16T10:05:55Z</time>
      </trkpt>
      <trkpt lat="37.376332000" lon="-4.939693000">
        <ele>238.9</ele>
        <time>2020-10-16T10:05:57Z</time>
      </trkpt>
      <trkpt lat="37.376405000" lon="-4.939845000">
        <ele>238.3</ele>
        <time>2020-10-16T10:05:59Z</time>
      </trkpt>
      <trkpt lat="37.376475000" lon="-4.940006000">
        <ele>237.6</ele>
        <time>2020-10-16T10:06:01Z</time>
      </trkpt>
      <trkpt lat="37.376520000" lon="-4.940175000">
        <ele>237.0</ele>
        <time>2020-10-16T10:06:03Z</time>
      </trkpt>
      <trkpt lat="37.376548000" lon="-4.940350000">
        <ele>236.5</ele>
        <time>2020-10-16T10:06:05Z</time>
      </trkpt>
      <trkpt lat="37.376567000" lon="-4.940531000">
        <ele>235.9</ele>
        <time>2020-10-16T10:06:07Z</time>
      </trkpt>
      <trkpt lat="37.376579000" lon="-4.940632000">
        <ele>235.4</ele>
        <time>2020-10-16T10:06:08Z</time>
      </trkpt>
      <trkpt lat="37.376592000" lon="-4.940812000">
        <ele>234.8</ele>
        <time>2020-10-16T10:06:10Z</time>
      </trkpt>
      <trkpt lat="37.376604000" lon="-4.940996000">
        <ele>234.3</ele>
        <time>2020-10-16T10:06:12Z</time>
      </trkpt>
      <trkpt lat="37.376619000" lon="-4.941182000">
        <ele>233.6</ele>
        <time>2020-10-16T10:06:14Z</time>
      </trkpt>
      <trkpt lat="37.376634000" lon="-4.941374000">
        <ele>233.0</ele>
        <time>2020-10-16T10:06:16Z</time>
      </trkpt>
      <trkpt lat="37.376641000" lon="-4.941568000">
        <ele>232.4</ele>
        <time>2020-10-16T10:06:18Z</time>
      </trkpt>
      <trkpt lat="37.376634000" lon="-4.941758000">
        <ele>231.7</ele>
        <time>2020-10-16T10:06:20Z</time>
      </trkpt>
      <trkpt lat="37.376588000" lon="-4.941940000">
        <ele>231.2</ele>
        <time>2020-10-16T10:06:22Z</time>
      </trkpt>
      <trkpt lat="37.376546000" lon="-4.942115000">
        <ele>230.5</ele>
        <time>2020-10-16T10:06:24Z</time>
      </trkpt>
      <trkpt lat="37.376500000" lon="-4.942278000">
        <ele>229.9</ele>
        <time>2020-10-16T10:06:26Z</time>
      </trkpt>
      <trkpt lat="37.376442000" lon="-4.942430000">
        <ele>229.2</ele>
        <time>2020-10-16T10:06:28Z</time>
      </trkpt>
      <trkpt lat="37.376390000" lon="-4.942603000">
        <ele>228.5</ele>
        <time>2020-10-16T10:06:30Z</time>
      </trkpt>
      <trkpt lat="37.376382000" lon="-4.942783000">
        <ele>227.8</ele>
        <time>2020-10-16T10:06:32Z</time>
      </trkpt>
      <trkpt lat="37.376391000" lon="-4.942971000">
        <ele>227.2</ele>
        <time>2020-10-16T10:06:34Z</time>
      </trkpt>
      <trkpt lat="37.376435000" lon="-4.943150000">
        <ele>226.6</ele>
        <time>2020-10-16T10:06:36Z</time>
      </trkpt>
      <trkpt lat="37.376472000" lon="-4.943321000">
        <ele>226.2</ele>
        <time>2020-10-16T10:06:38Z</time>
      </trkpt>
      <trkpt lat="37.376507000" lon="-4.943492000">
        <ele>225.8</ele>
        <time>2020-10-16T10:06:40Z</time>
      </trkpt>
      <trkpt lat="37.376543000" lon="-4.943671000">
        <ele>225.5</ele>
        <time>2020-10-16T10:06:42Z</time>
      </trkpt>
      <trkpt lat="37.376582000" lon="-4.943843000">
        <ele>225.0</ele>
        <time>2020-10-16T10:06:44Z</time>
      </trkpt>
      <trkpt lat="37.376615000" lon="-4.944003000">
        <ele>224.6</ele>
        <time>2020-10-16T10:06:46Z</time>
      </trkpt>
      <trkpt lat="37.376652000" lon="-4.944165000">
        <ele>224.3</ele>
        <time>2020-10-16T10:06:48Z</time>
      </trkpt>
      <trkpt lat="37.376686000" lon="-4.944322000">
        <ele>224.0</ele>
        <time>2020-10-16T10:06:50Z</time>
      </trkpt>
      <trkpt lat="37.376715000" lon="-4.944487000">
        <ele>223.7</ele>
        <time>2020-10-16T10:06:52Z</time>
      </trkpt>
      <trkpt lat="37.376747000" lon="-4.944655000">
        <ele>223.5</ele>
        <time>2020-10-16T10:06:54Z</time>
      </trkpt>
      <trkpt lat="37.376773000" lon="-4.944822000">
        <ele>223.4</ele>
        <time>2020-10-16T10:06:56Z</time>
      </trkpt>
      <trkpt lat="37.376796000" lon="-4.944991000">
        <ele>223.3</ele>
        <time>2020-10-16T10:06:58Z</time>
      </trkpt>
      <trkpt lat="37.376809000" lon="-4.945150000">
        <ele>223.2</ele>
        <time>2020-10-16T10:07:00Z</time>
      </trkpt>
      <trkpt lat="37.376796000" lon="-4.945302000">
        <ele>223.0</ele>
        <time>2020-10-16T10:07:02Z</time>
      </trkpt>
      <trkpt lat="37.376768000" lon="-4.945463000">
        <ele>222.8</ele>
        <time>2020-10-16T10:07:04Z</time>
      </trkpt>
      <trkpt lat="37.376733000" lon="-4.945625000">
        <ele>222.7</ele>
        <time>2020-10-16T10:07:06Z</time>
      </trkpt>
      <trkpt lat="37.376703000" lon="-4.945779000">
        <ele>222.6</ele>
        <time>2020-10-16T10:07:08Z</time>
      </trkpt>
      <trkpt lat="37.376675000" lon="-4.945935000">
        <ele>222.5</ele>
        <time>2020-10-16T10:07:10Z</time>
      </trkpt>
      <trkpt lat="37.376645000" lon="-4.946085000">
        <ele>222.5</ele>
        <time>2020-10-16T10:07:12Z</time>
      </trkpt>
      <trkpt lat="37.376618000" lon="-4.946229000">
        <ele>222.4</ele>
        <time>2020-10-16T10:07:14Z</time>
      </trkpt>
      <trkpt lat="37.376581000" lon="-4.946356000">
        <ele>222.3</ele>
        <time>2020-10-16T10:07:16Z</time>
      </trkpt>
      <trkpt lat="37.376562000" lon="-4.946485000">
        <ele>222.2</ele>
        <time>2020-10-16T10:07:18Z</time>
      </trkpt>
      <trkpt lat="37.376536000" lon="-4.946615000">
        <ele>222.1</ele>
        <time>2020-10-16T10:07:20Z</time>
      </trkpt>
      <trkpt lat="37.376513000" lon="-4.946753000">
        <ele>222.0</ele>
        <time>2020-10-16T10:07:22Z</time>
      </trkpt>
      <trkpt lat="37.376480000" lon="-4.946888000">
        <ele>222.0</ele>
        <time>2020-10-16T10:07:24Z</time>
      </trkpt>
      <trkpt lat="37.376449000" lon="-4.947023000">
        <ele>221.9</ele>
        <time>2020-10-16T10:07:26Z</time>
      </trkpt>
      <trkpt lat="37.376425000" lon="-4.947153000">
        <ele>221.8</ele>
        <time>2020-10-16T10:07:28Z</time>
      </trkpt>
      <trkpt lat="37.376396000" lon="-4.947296000">
        <ele>221.6</ele>
        <time>2020-10-16T10:07:30Z</time>
      </trkpt>
      <trkpt lat="37.376367000" lon="-4.947428000">
        <ele>221.5</ele>
        <time>2020-10-16T10:07:32Z</time>
      </trkpt>
      <trkpt lat="37.376334000" lon="-4.947560000">
        <ele>221.3</ele>
        <time>2020-10-16T10:07:34Z</time>
      </trkpt>
      <trkpt lat="37.376309000" lon="-4.947704000">
        <ele>221.1</ele>
        <time>2020-10-16T10:07:36Z</time>
      </trkpt>
      <trkpt lat="37.376286000" lon="-4.947825000">
        <ele>220.9</ele>
        <time>2020-10-16T10:07:38Z</time>
      </trkpt>
      <trkpt lat="37.376258000" lon="-4.947974000">
        <ele>220.7</ele>
        <time>2020-10-16T10:07:40Z</time>
      </trkpt>
      <trkpt lat="37.376228000" lon="-4.948095000">
        <ele>220.5</ele>
        <time>2020-10-16T10:07:42Z</time>
      </trkpt>
      <trkpt lat="37.376191000" lon="-4.948258000">
        <ele>220.4</ele>
        <time>2020-10-16T10:07:44Z</time>
      </trkpt>
      <trkpt lat="37.376157000" lon="-4.948391000">
        <ele>220.1</ele>
        <time>2020-10-16T10:07:46Z</time>
      </trkpt>
      <trkpt lat="37.376131000" lon="-4.948522000">
        <ele>219.9</ele>
        <time>2020-10-16T10:07:48Z</time>
      </trkpt>
      <trkpt lat="37.376101000" lon="-4.948650000">
        <ele>219.7</ele>
        <time>2020-10-16T10:07:50Z</time>
      </trkpt>
      <trkpt lat="37.376077000" lon="-4.948783000">
        <ele>219.6</ele>
        <time>2020-10-16T10:07:52Z</time>
      </trkpt>
      <trkpt lat="37.376044000" lon="-4.948928000">
        <ele>219.6</ele>
        <time>2020-10-16T10:07:54Z</time>
      </trkpt>
      <trkpt lat="37.376017000" lon="-4.949072000">
        <ele>219.6</ele>
        <time>2020-10-16T10:07:56Z</time>
      </trkpt>
      <trkpt lat="37.375988000" lon="-4.949203000">
        <ele>219.7</ele>
        <time>2020-10-16T10:07:58Z</time>
      </trkpt>
      <trkpt lat="37.375969000" lon="-4.949341000">
        <ele>219.8</ele>
        <time>2020-10-16T10:08:00Z</time>
      </trkpt>
      <trkpt lat="37.375935000" lon="-4.949477000">
        <ele>219.8</ele>
        <time>2020-10-16T10:08:02Z</time>
      </trkpt>
      <trkpt lat="37.375911000" lon="-4.949601000">
        <ele>219.7</ele>
        <time>2020-10-16T10:08:04Z</time>
      </trkpt>
      <trkpt lat="37.375883000" lon="-4.949728000">
        <ele>219.5</ele>
        <time>2020-10-16T10:08:06Z</time>
      </trkpt>
      <trkpt lat="37.375845000" lon="-4.949873000">
        <ele>219.5</ele>
        <time>2020-10-16T10:08:08Z</time>
      </trkpt>
      <trkpt lat="37.375813000" lon="-4.950000000">
        <ele>219.3</ele>
        <time>2020-10-16T10:08:10Z</time>
      </trkpt>
      <trkpt lat="37.375776000" lon="-4.950132000">
        <ele>219.1</ele>
        <time>2020-10-16T10:08:12Z</time>
      </trkpt>
      <trkpt lat="37.375739000" lon="-4.950262000">
        <ele>218.9</ele>
        <time>2020-10-16T10:08:14Z</time>
      </trkpt>
      <trkpt lat="37.375697000" lon="-4.950405000">
        <ele>218.6</ele>
        <time>2020-10-16T10:08:16Z</time>
      </trkpt>
      <trkpt lat="37.375667000" lon="-4.950524000">
        <ele>218.4</ele>
        <time>2020-10-16T10:08:18Z</time>
      </trkpt>
      <trkpt lat="37.375640000" lon="-4.950648000">
        <ele>217.9</ele>
        <time>2020-10-16T10:08:20Z</time>
      </trkpt>
      <trkpt lat="37.375594000" lon="-4.950783000">
        <ele>217.5</ele>
        <time>2020-10-16T10:08:22Z</time>
      </trkpt>
      <trkpt lat="37.375548000" lon="-4.950927000">
        <ele>217.0</ele>
        <time>2020-10-16T10:08:24Z</time>
      </trkpt>
      <trkpt lat="37.375505000" lon="-4.951070000">
        <ele>216.6</ele>
        <time>2020-10-16T10:08:26Z</time>
      </trkpt>
      <trkpt lat="37.375456000" lon="-4.951213000">
        <ele>216.4</ele>
        <time>2020-10-16T10:08:28Z</time>
      </trkpt>
      <trkpt lat="37.375409000" lon="-4.951334000">
        <ele>216.1</ele>
        <time>2020-10-16T10:08:30Z</time>
      </trkpt>
      <trkpt lat="37.375356000" lon="-4.951480000">
        <ele>215.8</ele>
        <time>2020-10-16T10:08:32Z</time>
      </trkpt>
      <trkpt lat="37.375299000" lon="-4.951602000">
        <ele>215.5</ele>
        <time>2020-10-16T10:08:34Z</time>
      </trkpt>
      <trkpt lat="37.375254000" lon="-4.951738000">
        <ele>215.3</ele>
        <time>2020-10-16T10:08:36Z</time>
      </trkpt>
      <trkpt lat="37.375197000" lon="-4.951860000">
        <ele>215.0</ele>
        <time>2020-10-16T10:08:38Z</time>
      </trkpt>
      <trkpt lat="37.375146000" lon="-4.952007000">
        <ele>214.6</ele>
        <time>2020-10-16T10:08:40Z</time>
      </trkpt>
      <trkpt lat="37.375091000" lon="-4.952139000">
        <ele>214.4</ele>
        <time>2020-10-16T10:08:42Z</time>
      </trkpt>
      <trkpt lat="37.375038000" lon="-4.952277000">
        <ele>214.0</ele>
        <time>2020-10-16T10:08:44Z</time>
      </trkpt>
      <trkpt lat="37.374981000" lon="-4.952410000">
        <ele>213.7</ele>
        <time>2020-10-16T10:08:46Z</time>
      </trkpt>
      <trkpt lat="37.374926000" lon="-4.952552000">
        <ele>213.5</ele>
        <time>2020-10-16T10:08:48Z</time>
      </trkpt>
      <trkpt lat="37.374859000" lon="-4.952698000">
        <ele>213.2</ele>
        <time>2020-10-16T10:08:50Z</time>
      </trkpt>
      <trkpt lat="37.374805000" lon="-4.952847000">
        <ele>213.0</ele>
        <time>2020-10-16T10:08:52Z</time>
      </trkpt>
      <trkpt lat="37.374740000" lon="-4.953007000">
        <ele>212.8</ele>
        <time>2020-10-16T10:08:54Z</time>
      </trkpt>
      <trkpt lat="37.374681000" lon="-4.953160000">
        <ele>212.6</ele>
        <time>2020-10-16T10:08:56Z</time>
      </trkpt>
      <trkpt lat="37.374620000" lon="-4.953304000">
        <ele>212.5</ele>
        <time>2020-10-16T10:08:58Z</time>
      </trkpt>
      <trkpt lat="37.374561000" lon="-4.953454000">
        <ele>212.3</ele>
        <time>2020-10-16T10:09:00Z</time>
      </trkpt>
      <trkpt lat="37.374509000" lon="-4.953615000">
        <ele>212.2</ele>
        <time>2020-10-16T10:09:02Z</time>
      </trkpt>
      <trkpt lat="37.374461000" lon="-4.953767000">
        <ele>212.1</ele>
        <time>2020-10-16T10:09:04Z</time>
      </trkpt>
      <trkpt lat="37.374419000" lon="-4.953921000">
        <ele>212.1</ele>
        <time>2020-10-16T10:09:06Z</time>
      </trkpt>
      <trkpt lat="37.374381000" lon="-4.954071000">
        <ele>212.1</ele>
        <time>2020-10-16T10:09:08Z</time>
      </trkpt>
      <trkpt lat="37.374348000" lon="-4.954227000">
        <ele>212.1</ele>
        <time>2020-10-16T10:09:10Z</time>
      </trkpt>
      <trkpt lat="37.374319000" lon="-4.954382000">
        <ele>212.0</ele>
        <time>2020-10-16T10:09:12Z</time>
      </trkpt>
      <trkpt lat="37.374291000" lon="-4.954537000">
        <ele>211.8</ele>
        <time>2020-10-16T10:09:14Z</time>
      </trkpt>
      <trkpt lat="37.374261000" lon="-4.954693000">
        <ele>211.6</ele>
        <time>2020-10-16T10:09:16Z</time>
      </trkpt>
      <trkpt lat="37.374229000" lon="-4.954849000">
        <ele>211.4</ele>
        <time>2020-10-16T10:09:18Z</time>
      </trkpt>
      <trkpt lat="37.374194000" lon="-4.955006000">
        <ele>211.1</ele>
        <time>2020-10-16T10:09:20Z</time>
      </trkpt>
      <trkpt lat="37.374161000" lon="-4.955156000">
        <ele>210.8</ele>
        <time>2020-10-16T10:09:22Z</time>
      </trkpt>
      <trkpt lat="37.374120000" lon="-4.955288000">
        <ele>210.5</ele>
        <time>2020-10-16T10:09:24Z</time>
      </trkpt>
      <trkpt lat="37.374081000" lon="-4.955430000">
        <ele>210.3</ele>
        <time>2020-10-16T10:09:26Z</time>
      </trkpt>
      <trkpt lat="37.374029000" lon="-4.955569000">
        <ele>209.9</ele>
        <time>2020-10-16T10:09:28Z</time>
      </trkpt>
      <trkpt lat="37.373978000" lon="-4.955700000">
        <ele>209.5</ele>
        <time>2020-10-16T10:09:30Z</time>
      </trkpt>
      <trkpt lat="37.373923000" lon="-4.955837000">
        <ele>209.2</ele>
        <time>2020-10-16T10:09:32Z</time>
      </trkpt>
      <trkpt lat="37.373867000" lon="-4.955969000">
        <ele>208.8</ele>
        <time>2020-10-16T10:09:34Z</time>
      </trkpt>
      <trkpt lat="37.373817000" lon="-4.956101000">
        <ele>208.5</ele>
        <time>2020-10-16T10:09:36Z</time>
      </trkpt>
      <trkpt lat="37.373766000" lon="-4.956236000">
        <ele>208.2</ele>
        <time>2020-10-16T10:09:38Z</time>
      </trkpt>
      <trkpt lat="37.373709000" lon="-4.956367000">
        <ele>208.0</ele>
        <time>2020-10-16T10:09:40Z</time>
      </trkpt>
      <trkpt lat="37.373658000" lon="-4.956504000">
        <ele>207.8</ele>
        <time>2020-10-16T10:09:42Z</time>
      </trkpt>
      <trkpt lat="37.373604000" lon="-4.956634000">
        <ele>207.6</ele>
        <time>2020-10-16T10:09:44Z</time>
      </trkpt>
      <trkpt lat="37.373560000" lon="-4.956765000">
        <ele>207.5</ele>
        <time>2020-10-16T10:09:46Z</time>
      </trkpt>
      <trkpt lat="37.373514000" lon="-4.956892000">
        <ele>207.2</ele>
        <time>2020-10-16T10:09:48Z</time>
      </trkpt>
      <trkpt lat="37.373458000" lon="-4.957024000">
        <ele>207.0</ele>
        <time>2020-10-16T10:09:50Z</time>
      </trkpt>
      <trkpt lat="37.373399000" lon="-4.957159000">
        <ele>206.8</ele>
        <time>2020-10-16T10:09:52Z</time>
      </trkpt>
      <trkpt lat="37.373328000" lon="-4.957288000">
        <ele>206.6</ele>
        <time>2020-10-16T10:09:54Z</time>
      </trkpt>
      <trkpt lat="37.373259000" lon="-4.957407000">
        <ele>206.5</ele>
        <time>2020-10-16T10:09:56Z</time>
      </trkpt>
      <trkpt lat="37.373183000" lon="-4.957525000">
        <ele>206.5</ele>
        <time>2020-10-16T10:09:58Z</time>
      </trkpt>
      <trkpt lat="37.373104000" lon="-4.957635000">
        <ele>206.4</ele>
        <time>2020-10-16T10:10:00Z</time>
      </trkpt>
      <trkpt lat="37.373022000" lon="-4.957748000">
        <ele>206.2</ele>
        <time>2020-10-16T10:10:02Z</time>
      </trkpt>
      <trkpt lat="37.372936000" lon="-4.957856000">
        <ele>206.0</ele>
        <time>2020-10-16T10:10:04Z</time>
      </trkpt>
      <trkpt lat="37.372846000" lon="-4.957965000">
        <ele>205.7</ele>
        <time>2020-10-16T10:10:06Z</time>
      </trkpt>
      <trkpt lat="37.372758000" lon="-4.958067000">
        <ele>205.5</ele>
        <time>2020-10-16T10:10:08Z</time>
      </trkpt>
      <trkpt lat="37.372671000" lon="-4.958176000">
        <ele>205.2</ele>
        <time>2020-10-16T10:10:10Z</time>
      </trkpt>
      <trkpt lat="37.372587000" lon="-4.958293000">
        <ele>204.9</ele>
        <time>2020-10-16T10:10:12Z</time>
      </trkpt>
      <trkpt lat="37.372507000" lon="-4.958405000">
        <ele>204.6</ele>
        <time>2020-10-16T10:10:14Z</time>
      </trkpt>
      <trkpt lat="37.372454000" lon="-4.958539000">
        <ele>204.4</ele>
        <time>2020-10-16T10:10:16Z</time>
      </trkpt>
      <trkpt lat="37.372369000" lon="-4.958668000">
        <ele>204.1</ele>
        <time>2020-10-16T10:10:18Z</time>
      </trkpt>
      <trkpt lat="37.372288000" lon="-4.958796000">
        <ele>203.8</ele>
        <time>2020-10-16T10:10:20Z</time>
      </trkpt>
      <trkpt lat="37.372211000" lon="-4.958930000">
        <ele>203.5</ele>
        <time>2020-10-16T10:10:22Z</time>
      </trkpt>
      <trkpt lat="37.372127000" lon="-4.959068000">
        <ele>203.4</ele>
        <time>2020-10-16T10:10:24Z</time>
      </trkpt>
      <trkpt lat="37.372040000" lon="-4.959204000">
        <ele>203.2</ele>
        <time>2020-10-16T10:10:26Z</time>
      </trkpt>
      <trkpt lat="37.371951000" lon="-4.959342000">
        <ele>203.1</ele>
        <time>2020-10-16T10:10:28Z</time>
      </trkpt>
      <trkpt lat="37.371863000" lon="-4.959481000">
        <ele>203.0</ele>
        <time>2020-10-16T10:10:30Z</time>
      </trkpt>
      <trkpt lat="37.371771000" lon="-4.959606000">
        <ele>203.0</ele>
        <time>2020-10-16T10:10:32Z</time>
      </trkpt>
      <trkpt lat="37.371683000" lon="-4.959721000">
        <ele>203.0</ele>
        <time>2020-10-16T10:10:34Z</time>
      </trkpt>
      <trkpt lat="37.371587000" lon="-4.959851000">
        <ele>203.0</ele>
        <time>2020-10-16T10:10:36Z</time>
      </trkpt>
      <trkpt lat="37.371496000" lon="-4.959972000">
        <ele>203.0</ele>
        <time>2020-10-16T10:10:38Z</time>
      </trkpt>
      <trkpt lat="37.371400000" lon="-4.960086000">
        <ele>203.0</ele>
        <time>2020-10-16T10:10:40Z</time>
      </trkpt>
      <trkpt lat="37.371305000" lon="-4.960200000">
        <ele>203.0</ele>
        <time>2020-10-16T10:10:42Z</time>
      </trkpt>
      <trkpt lat="37.371214000" lon="-4.960322000">
        <ele>203.0</ele>
        <time>2020-10-16T10:10:44Z</time>
      </trkpt>
      <trkpt lat="37.371119000" lon="-4.960436000">
        <ele>202.9</ele>
        <time>2020-10-16T10:10:46Z</time>
      </trkpt>
      <trkpt lat="37.371039000" lon="-4.960555000">
        <ele>202.8</ele>
        <time>2020-10-16T10:10:48Z</time>
      </trkpt>
      <trkpt lat="37.370962000" lon="-4.960678000">
        <ele>202.6</ele>
        <time>2020-10-16T10:10:50Z</time>
      </trkpt>
      <trkpt lat="37.370904000" lon="-4.960811000">
        <ele>202.5</ele>
        <time>2020-10-16T10:10:52Z</time>
      </trkpt>
      <trkpt lat="37.370846000" lon="-4.960939000">
        <ele>202.2</ele>
        <time>2020-10-16T10:10:54Z</time>
      </trkpt>
      <trkpt lat="37.370790000" lon="-4.961066000">
        <ele>201.9</ele>
        <time>2020-10-16T10:10:56Z</time>
      </trkpt>
      <trkpt lat="37.370738000" lon="-4.961209000">
        <ele>201.6</ele>
        <time>2020-10-16T10:10:58Z</time>
      </trkpt>
      <trkpt lat="37.370673000" lon="-4.961356000">
        <ele>201.4</ele>
        <time>2020-10-16T10:11:00Z</time>
      </trkpt>
      <trkpt lat="37.370618000" lon="-4.961504000">
        <ele>201.1</ele>
        <time>2020-10-16T10:11:02Z</time>
      </trkpt>
      <trkpt lat="37.370563000" lon="-4.961658000">
        <ele>200.8</ele>
        <time>2020-10-16T10:11:04Z</time>
      </trkpt>
      <trkpt lat="37.370509000" lon="-4.961807000">
        <ele>200.6</ele>
        <time>2020-10-16T10:11:06Z</time>
      </trkpt>
      <trkpt lat="37.370450000" lon="-4.961946000">
        <ele>200.5</ele>
        <time>2020-10-16T10:11:08Z</time>
      </trkpt>
      <trkpt lat="37.370390000" lon="-4.962077000">
        <ele>200.5</ele>
        <time>2020-10-16T10:11:10Z</time>
      </trkpt>
      <trkpt lat="37.370318000" lon="-4.962209000">
        <ele>200.5</ele>
        <time>2020-10-16T10:11:12Z</time>
      </trkpt>
      <trkpt lat="37.370246000" lon="-4.962337000">
        <ele>200.4</ele>
        <time>2020-10-16T10:11:14Z</time>
      </trkpt>
      <trkpt lat="37.370178000" lon="-4.962472000">
        <ele>200.4</ele>
        <time>2020-10-16T10:11:16Z</time>
      </trkpt>
      <trkpt lat="37.370112000" lon="-4.962602000">
        <ele>200.4</ele>
        <time>2020-10-16T10:11:18Z</time>
      </trkpt>
      <trkpt lat="37.370045000" lon="-4.962717000">
        <ele>200.3</ele>
        <time>2020-10-16T10:11:20Z</time>
      </trkpt>
      <trkpt lat="37.369979000" lon="-4.962831000">
        <ele>200.2</ele>
        <time>2020-10-16T10:11:22Z</time>
      </trkpt>
      <trkpt lat="37.369909000" lon="-4.962950000">
        <ele>200.0</ele>
        <time>2020-10-16T10:11:24Z</time>
      </trkpt>
      <trkpt lat="37.369844000" lon="-4.963060000">
        <ele>199.8</ele>
        <time>2020-10-16T10:11:26Z</time>
      </trkpt>
      <trkpt lat="37.369783000" lon="-4.963165000">
        <ele>199.5</ele>
        <time>2020-10-16T10:11:28Z</time>
      </trkpt>
      <trkpt lat="37.369733000" lon="-4.963270000">
        <ele>199.1</ele>
        <time>2020-10-16T10:11:30Z</time>
      </trkpt>
      <trkpt lat="37.369680000" lon="-4.963369000">
        <ele>198.7</ele>
        <time>2020-10-16T10:11:32Z</time>
      </trkpt>
      <trkpt lat="37.369617000" lon="-4.963465000">
        <ele>198.4</ele>
        <time>2020-10-16T10:11:34Z</time>
      </trkpt>
      <trkpt lat="37.369561000" lon="-4.963563000">
        <ele>198.1</ele>
        <time>2020-10-16T10:11:36Z</time>
      </trkpt>
      <trkpt lat="37.369504000" lon="-4.963660000">
        <ele>197.8</ele>
        <time>2020-10-16T10:11:38Z</time>
      </trkpt>
      <trkpt lat="37.369449000" lon="-4.963762000">
        <ele>197.5</ele>
        <time>2020-10-16T10:11:40Z</time>
      </trkpt>
      <trkpt lat="37.369401000" lon="-4.963869000">
        <ele>197.5</ele>
        <time>2020-10-16T10:11:42Z</time>
      </trkpt>
      <trkpt lat="37.369340000" lon="-4.963975000">
        <ele>197.3</ele>
        <time>2020-10-16T10:11:44Z</time>
      </trkpt>
      <trkpt lat="37.369279000" lon="-4.964085000">
        <ele>197.2</ele>
        <time>2020-10-16T10:11:46Z</time>
      </trkpt>
      <trkpt lat="37.369220000" lon="-4.964193000">
        <ele>197.0</ele>
        <time>2020-10-16T10:11:48Z</time>
      </trkpt>
      <trkpt lat="37.369161000" lon="-4.964299000">
        <ele>196.9</ele>
        <time>2020-10-16T10:11:50Z</time>
      </trkpt>
      <trkpt lat="37.369097000" lon="-4.964409000">
        <ele>196.8</ele>
        <time>2020-10-16T10:11:52Z</time>
      </trkpt>
      <trkpt lat="37.369039000" lon="-4.964526000">
        <ele>196.6</ele>
        <time>2020-10-16T10:11:54Z</time>
      </trkpt>
      <trkpt lat="37.368972000" lon="-4.964640000">
        <ele>196.5</ele>
        <time>2020-10-16T10:11:56Z</time>
      </trkpt>
      <trkpt lat="37.368909000" lon="-4.964755000">
        <ele>196.3</ele>
        <time>2020-10-16T10:11:58Z</time>
      </trkpt>
      <trkpt lat="37.368849000" lon="-4.964872000">
        <ele>196.1</ele>
        <time>2020-10-16T10:12:00Z</time>
      </trkpt>
      <trkpt lat="37.368780000" lon="-4.964992000">
        <ele>195.8</ele>
        <time>2020-10-16T10:12:02Z</time>
      </trkpt>
      <trkpt lat="37.368711000" lon="-4.965119000">
        <ele>195.5</ele>
        <time>2020-10-16T10:12:04Z</time>
      </trkpt>
      <trkpt lat="37.368639000" lon="-4.965245000">
        <ele>195.4</ele>
        <time>2020-10-16T10:12:06Z</time>
      </trkpt>
      <trkpt lat="37.368565000" lon="-4.965373000">
        <ele>195.1</ele>
        <time>2020-10-16T10:12:08Z</time>
      </trkpt>
      <trkpt lat="37.368497000" lon="-4.965501000">
        <ele>194.9</ele>
        <time>2020-10-16T10:12:10Z</time>
      </trkpt>
      <trkpt lat="37.368429000" lon="-4.965627000">
        <ele>194.6</ele>
        <time>2020-10-16T10:12:12Z</time>
      </trkpt>
      <trkpt lat="37.368355000" lon="-4.965754000">
        <ele>194.4</ele>
        <time>2020-10-16T10:12:14Z</time>
      </trkpt>
      <trkpt lat="37.368276000" lon="-4.965882000">
        <ele>194.2</ele>
        <time>2020-10-16T10:12:16Z</time>
      </trkpt>
      <trkpt lat="37.368200000" lon="-4.966011000">
        <ele>194.1</ele>
        <time>2020-10-16T10:12:18Z</time>
      </trkpt>
      <trkpt lat="37.368129000" lon="-4.966132000">
        <ele>194.0</ele>
        <time>2020-10-16T10:12:20Z</time>
      </trkpt>
      <trkpt lat="37.368059000" lon="-4.966255000">
        <ele>193.9</ele>
        <time>2020-10-16T10:12:22Z</time>
      </trkpt>
      <trkpt lat="37.367989000" lon="-4.966382000">
        <ele>193.8</ele>
        <time>2020-10-16T10:12:24Z</time>
      </trkpt>
      <trkpt lat="37.367918000" lon="-4.966501000">
        <ele>193.6</ele>
        <time>2020-10-16T10:12:26Z</time>
      </trkpt>
      <trkpt lat="37.367849000" lon="-4.966622000">
        <ele>193.5</ele>
        <time>2020-10-16T10:12:28Z</time>
      </trkpt>
      <trkpt lat="37.367776000" lon="-4.966747000">
        <ele>193.4</ele>
        <time>2020-10-16T10:12:30Z</time>
      </trkpt>
      <trkpt lat="37.367706000" lon="-4.966874000">
        <ele>193.3</ele>
        <time>2020-10-16T10:12:32Z</time>
      </trkpt>
      <trkpt lat="37.367634000" lon="-4.966999000">
        <ele>193.3</ele>
        <time>2020-10-16T10:12:34Z</time>
      </trkpt>
      <trkpt lat="37.367578000" lon="-4.967120000">
        <ele>193.3</ele>
        <time>2020-10-16T10:12:36Z</time>
      </trkpt>
      <trkpt lat="37.367510000" lon="-4.967239000">
        <ele>193.3</ele>
        <time>2020-10-16T10:12:38Z</time>
      </trkpt>
      <trkpt lat="37.367445000" lon="-4.967356000">
        <ele>193.1</ele>
        <time>2020-10-16T10:12:40Z</time>
      </trkpt>
      <trkpt lat="37.367370000" lon="-4.967475000">
        <ele>192.9</ele>
        <time>2020-10-16T10:12:42Z</time>
      </trkpt>
      <trkpt lat="37.367300000" lon="-4.967596000">
        <ele>192.6</ele>
        <time>2020-10-16T10:12:44Z</time>
      </trkpt>
      <trkpt lat="37.367235000" lon="-4.967716000">
        <ele>192.4</ele>
        <time>2020-10-16T10:12:46Z</time>
      </trkpt>
      <trkpt lat="37.367169000" lon="-4.967830000">
        <ele>192.1</ele>
        <time>2020-10-16T10:12:48Z</time>
      </trkpt>
      <trkpt lat="37.367110000" lon="-4.967937000">
        <ele>191.8</ele>
        <time>2020-10-16T10:12:50Z</time>
      </trkpt>
      <trkpt lat="37.367050000" lon="-4.968054000">
        <ele>191.5</ele>
        <time>2020-10-16T10:12:52Z</time>
      </trkpt>
      <trkpt lat="37.366982000" lon="-4.968175000">
        <ele>191.4</ele>
        <time>2020-10-16T10:12:54Z</time>
      </trkpt>
      <trkpt lat="37.366920000" lon="-4.968285000">
        <ele>191.2</ele>
        <time>2020-10-16T10:12:57Z</time>
      </trkpt>
      <trkpt lat="37.366856000" lon="-4.968392000">
        <ele>191.1</ele>
        <time>2020-10-16T10:12:58Z</time>
      </trkpt>
      <trkpt lat="37.366787000" lon="-4.968502000">
        <ele>191.0</ele>
        <time>2020-10-16T10:13:00Z</time>
      </trkpt>
      <trkpt lat="37.366717000" lon="-4.968616000">
        <ele>191.0</ele>
        <time>2020-10-16T10:13:02Z</time>
      </trkpt>
      <trkpt lat="37.366653000" lon="-4.968732000">
        <ele>191.0</ele>
        <time>2020-10-16T10:13:04Z</time>
      </trkpt>
      <trkpt lat="37.366589000" lon="-4.968849000">
        <ele>191.1</ele>
        <time>2020-10-16T10:13:06Z</time>
      </trkpt>
      <trkpt lat="37.366523000" lon="-4.968966000">
        <ele>191.3</ele>
        <time>2020-10-16T10:13:08Z</time>
      </trkpt>
      <trkpt lat="37.366458000" lon="-4.969092000">
        <ele>191.5</ele>
        <time>2020-10-16T10:13:10Z</time>
      </trkpt>
      <trkpt lat="37.366390000" lon="-4.969212000">
        <ele>191.6</ele>
        <time>2020-10-16T10:13:12Z</time>
      </trkpt>
      <trkpt lat="37.366322000" lon="-4.969331000">
        <ele>191.8</ele>
        <time>2020-10-16T10:13:14Z</time>
      </trkpt>
      <trkpt lat="37.366252000" lon="-4.969456000">
        <ele>191.9</ele>
        <time>2020-10-16T10:13:16Z</time>
      </trkpt>
      <trkpt lat="37.366184000" lon="-4.969576000">
        <ele>192.0</ele>
        <time>2020-10-16T10:13:18Z</time>
      </trkpt>
      <trkpt lat="37.366117000" lon="-4.969689000">
        <ele>192.0</ele>
        <time>2020-10-16T10:13:20Z</time>
      </trkpt>
      <trkpt lat="37.366045000" lon="-4.969810000">
        <ele>192.1</ele>
        <time>2020-10-16T10:13:22Z</time>
      </trkpt>
      <trkpt lat="37.365973000" lon="-4.969934000">
        <ele>192.2</ele>
        <time>2020-10-16T10:13:24Z</time>
      </trkpt>
      <trkpt lat="37.365902000" lon="-4.970051000">
        <ele>192.4</ele>
        <time>2020-10-16T10:13:26Z</time>
      </trkpt>
      <trkpt lat="37.365833000" lon="-4.970169000">
        <ele>192.5</ele>
        <time>2020-10-16T10:13:28Z</time>
      </trkpt>
      <trkpt lat="37.365764000" lon="-4.970289000">
        <ele>192.5</ele>
        <time>2020-10-16T10:13:30Z</time>
      </trkpt>
      <trkpt lat="37.365696000" lon="-4.970412000">
        <ele>192.7</ele>
        <time>2020-10-16T10:13:32Z</time>
      </trkpt>
      <trkpt lat="37.365628000" lon="-4.970536000">
        <ele>192.9</ele>
        <time>2020-10-16T10:13:34Z</time>
      </trkpt>
      <trkpt lat="37.365563000" lon="-4.970655000">
        <ele>193.1</ele>
        <time>2020-10-16T10:13:36Z</time>
      </trkpt>
      <trkpt lat="37.365500000" lon="-4.970774000">
        <ele>193.3</ele>
        <time>2020-10-16T10:13:38Z</time>
      </trkpt>
      <trkpt lat="37.365436000" lon="-4.970897000">
        <ele>193.5</ele>
        <time>2020-10-16T10:13:40Z</time>
      </trkpt>
      <trkpt lat="37.365372000" lon="-4.971017000">
        <ele>193.6</ele>
        <time>2020-10-16T10:13:42Z</time>
      </trkpt>
      <trkpt lat="37.365309000" lon="-4.971133000">
        <ele>193.7</ele>
        <time>2020-10-16T10:13:44Z</time>
      </trkpt>
      <trkpt lat="37.365244000" lon="-4.971238000">
        <ele>193.8</ele>
        <time>2020-10-16T10:13:46Z</time>
      </trkpt>
      <trkpt lat="37.365183000" lon="-4.971346000">
        <ele>193.8</ele>
        <time>2020-10-16T10:13:48Z</time>
      </trkpt>
      <trkpt lat="37.365123000" lon="-4.971460000">
        <ele>193.9</ele>
        <time>2020-10-16T10:13:50Z</time>
      </trkpt>
      <trkpt lat="37.365059000" lon="-4.971575000">
        <ele>194.1</ele>
        <time>2020-10-16T10:13:52Z</time>
      </trkpt>
      <trkpt lat="37.364999000" lon="-4.971678000">
        <ele>194.2</ele>
        <time>2020-10-16T10:13:54Z</time>
      </trkpt>
      <trkpt lat="37.364942000" lon="-4.971788000">
        <ele>194.3</ele>
        <time>2020-10-16T10:13:56Z</time>
      </trkpt>
      <trkpt lat="37.364881000" lon="-4.971893000">
        <ele>194.4</ele>
        <time>2020-10-16T10:13:58Z</time>
      </trkpt>
      <trkpt lat="37.364823000" lon="-4.971991000">
        <ele>194.5</ele>
        <time>2020-10-16T10:14:00Z</time>
      </trkpt>
      <trkpt lat="37.364759000" lon="-4.972100000">
        <ele>194.5</ele>
        <time>2020-10-16T10:14:02Z</time>
      </trkpt>
      <trkpt lat="37.364704000" lon="-4.972208000">
        <ele>194.5</ele>
        <time>2020-10-16T10:14:04Z</time>
      </trkpt>
      <trkpt lat="37.364647000" lon="-4.972316000">
        <ele>194.4</ele>
        <time>2020-10-16T10:14:06Z</time>
      </trkpt>
      <trkpt lat="37.364589000" lon="-4.972425000">
        <ele>194.3</ele>
        <time>2020-10-16T10:14:08Z</time>
      </trkpt>
      <trkpt lat="37.364527000" lon="-4.972539000">
        <ele>194.2</ele>
        <time>2020-10-16T10:14:10Z</time>
      </trkpt>
      <trkpt lat="37.364464000" lon="-4.972644000">
        <ele>194.0</ele>
        <time>2020-10-16T10:14:12Z</time>
      </trkpt>
      <trkpt lat="37.364403000" lon="-4.972758000">
        <ele>193.7</ele>
        <time>2020-10-16T10:14:14Z</time>
      </trkpt>
      <trkpt lat="37.364343000" lon="-4.972865000">
        <ele>193.5</ele>
        <time>2020-10-16T10:14:16Z</time>
      </trkpt>
      <trkpt lat="37.364283000" lon="-4.972979000">
        <ele>193.2</ele>
        <time>2020-10-16T10:14:18Z</time>
      </trkpt>
      <trkpt lat="37.364217000" lon="-4.973084000">
        <ele>193.0</ele>
        <time>2020-10-16T10:14:20Z</time>
      </trkpt>
      <trkpt lat="37.364156000" lon="-4.973192000">
        <ele>192.8</ele>
        <time>2020-10-16T10:14:22Z</time>
      </trkpt>
      <trkpt lat="37.364098000" lon="-4.973300000">
        <ele>192.7</ele>
        <time>2020-10-16T10:14:24Z</time>
      </trkpt>
      <trkpt lat="37.364047000" lon="-4.973409000">
        <ele>192.7</ele>
        <time>2020-10-16T10:14:26Z</time>
      </trkpt>
      <trkpt lat="37.363991000" lon="-4.973517000">
        <ele>192.7</ele>
        <time>2020-10-16T10:14:28Z</time>
      </trkpt>
      <trkpt lat="37.363932000" lon="-4.973630000">
        <ele>192.7</ele>
        <time>2020-10-16T10:14:30Z</time>
      </trkpt>
      <trkpt lat="37.363874000" lon="-4.973738000">
        <ele>192.6</ele>
        <time>2020-10-16T10:14:32Z</time>
      </trkpt>
      <trkpt lat="37.363812000" lon="-4.973850000">
        <ele>192.5</ele>
        <time>2020-10-16T10:14:34Z</time>
      </trkpt>
      <trkpt lat="37.363750000" lon="-4.973958000">
        <ele>192.5</ele>
        <time>2020-10-16T10:14:36Z</time>
      </trkpt>
      <trkpt lat="37.363696000" lon="-4.974070000">
        <ele>192.3</ele>
        <time>2020-10-16T10:14:38Z</time>
      </trkpt>
      <trkpt lat="37.363638000" lon="-4.974187000">
        <ele>192.0</ele>
        <time>2020-10-16T10:14:40Z</time>
      </trkpt>
      <trkpt lat="37.363575000" lon="-4.974300000">
        <ele>191.7</ele>
        <time>2020-10-16T10:14:42Z</time>
      </trkpt>
      <trkpt lat="37.363516000" lon="-4.974409000">
        <ele>191.5</ele>
        <time>2020-10-16T10:14:44Z</time>
      </trkpt>
      <trkpt lat="37.363456000" lon="-4.974525000">
        <ele>191.3</ele>
        <time>2020-10-16T10:14:46Z</time>
      </trkpt>
      <trkpt lat="37.363400000" lon="-4.974639000">
        <ele>191.1</ele>
        <time>2020-10-16T10:14:48Z</time>
      </trkpt>
      <trkpt lat="37.363338000" lon="-4.974751000">
        <ele>191.0</ele>
        <time>2020-10-16T10:14:50Z</time>
      </trkpt>
      <trkpt lat="37.363280000" lon="-4.974869000">
        <ele>190.9</ele>
        <time>2020-10-16T10:14:52Z</time>
      </trkpt>
      <trkpt lat="37.363217000" lon="-4.974993000">
        <ele>190.9</ele>
        <time>2020-10-16T10:14:54Z</time>
      </trkpt>
      <trkpt lat="37.363148000" lon="-4.975122000">
        <ele>191.0</ele>
        <time>2020-10-16T10:14:56Z</time>
      </trkpt>
      <trkpt lat="37.363088000" lon="-4.975239000">
        <ele>191.1</ele>
        <time>2020-10-16T10:14:58Z</time>
      </trkpt>
      <trkpt lat="37.363026000" lon="-4.975363000">
        <ele>191.4</ele>
        <time>2020-10-16T10:15:00Z</time>
      </trkpt>
      <trkpt lat="37.362965000" lon="-4.975484000">
        <ele>191.7</ele>
        <time>2020-10-16T10:15:02Z</time>
      </trkpt>
      <trkpt lat="37.362904000" lon="-4.975611000">
        <ele>192.0</ele>
        <time>2020-10-16T10:15:04Z</time>
      </trkpt>
      <trkpt lat="37.362838000" lon="-4.975736000">
        <ele>192.3</ele>
        <time>2020-10-16T10:15:06Z</time>
      </trkpt>
      <trkpt lat="37.362770000" lon="-4.975863000">
        <ele>192.5</ele>
        <time>2020-10-16T10:15:08Z</time>
      </trkpt>
      <trkpt lat="37.362703000" lon="-4.975984000">
        <ele>192.5</ele>
        <time>2020-10-16T10:15:10Z</time>
      </trkpt>
      <trkpt lat="37.362635000" lon="-4.976115000">
        <ele>192.7</ele>
        <time>2020-10-16T10:15:12Z</time>
      </trkpt>
      <trkpt lat="37.362565000" lon="-4.976239000">
        <ele>192.8</ele>
        <time>2020-10-16T10:15:14Z</time>
      </trkpt>
      <trkpt lat="37.362498000" lon="-4.976354000">
        <ele>192.9</ele>
        <time>2020-10-16T10:15:16Z</time>
      </trkpt>
      <trkpt lat="37.362435000" lon="-4.976475000">
        <ele>193.0</ele>
        <time>2020-10-16T10:15:18Z</time>
      </trkpt>
      <trkpt lat="37.362368000" lon="-4.976596000">
        <ele>193.1</ele>
        <time>2020-10-16T10:15:20Z</time>
      </trkpt>
      <trkpt lat="37.362294000" lon="-4.976712000">
        <ele>193.0</ele>
        <time>2020-10-16T10:15:22Z</time>
      </trkpt>
      <trkpt lat="37.362230000" lon="-4.976836000">
        <ele>192.8</ele>
        <time>2020-10-16T10:15:24Z</time>
      </trkpt>
      <trkpt lat="37.362160000" lon="-4.976964000">
        <ele>192.6</ele>
        <time>2020-10-16T10:15:26Z</time>
      </trkpt>
      <trkpt lat="37.362088000" lon="-4.977096000">
        <ele>192.5</ele>
        <time>2020-10-16T10:15:28Z</time>
      </trkpt>
      <trkpt lat="37.362019000" lon="-4.977224000">
        <ele>192.3</ele>
        <time>2020-10-16T10:15:30Z</time>
      </trkpt>
      <trkpt lat="37.361955000" lon="-4.977356000">
        <ele>192.1</ele>
        <time>2020-10-16T10:15:32Z</time>
      </trkpt>
      <trkpt lat="37.361890000" lon="-4.977490000">
        <ele>191.8</ele>
        <time>2020-10-16T10:15:34Z</time>
      </trkpt>
      <trkpt lat="37.361816000" lon="-4.977625000">
        <ele>191.5</ele>
        <time>2020-10-16T10:15:36Z</time>
      </trkpt>
      <trkpt lat="37.361742000" lon="-4.977765000">
        <ele>191.3</ele>
        <time>2020-10-16T10:15:38Z</time>
      </trkpt>
      <trkpt lat="37.361660000" lon="-4.977926000">
        <ele>191.0</ele>
        <time>2020-10-16T10:15:40Z</time>
      </trkpt>
      <trkpt lat="37.361569000" lon="-4.978088000">
        <ele>190.5</ele>
        <time>2020-10-16T10:15:42Z</time>
      </trkpt>
      <trkpt lat="37.361479000" lon="-4.978250000">
        <ele>190.1</ele>
        <time>2020-10-16T10:15:44Z</time>
      </trkpt>
      <trkpt lat="37.361434000" lon="-4.978340000">
        <ele>189.6</ele>
        <time>2020-10-16T10:15:45Z</time>
      </trkpt>
      <trkpt lat="37.361391000" lon="-4.978428000">
        <ele>189.2</ele>
        <time>2020-10-16T10:15:46Z</time>
      </trkpt>
      <trkpt lat="37.361345000" lon="-4.978514000">
        <ele>188.7</ele>
        <time>2020-10-16T10:15:47Z</time>
      </trkpt>
      <trkpt lat="37.361262000" lon="-4.978675000">
        <ele>188.4</ele>
        <time>2020-10-16T10:15:49Z</time>
      </trkpt>
      <trkpt lat="37.361180000" lon="-4.978829000">
        <ele>188.0</ele>
        <time>2020-10-16T10:15:51Z</time>
      </trkpt>
      <trkpt lat="37.361097000" lon="-4.978988000">
        <ele>187.6</ele>
        <time>2020-10-16T10:15:53Z</time>
      </trkpt>
      <trkpt lat="37.361020000" lon="-4.979142000">
        <ele>187.5</ele>
        <time>2020-10-16T10:15:55Z</time>
      </trkpt>
      <trkpt lat="37.360943000" lon="-4.979290000">
        <ele>187.3</ele>
        <time>2020-10-16T10:15:57Z</time>
      </trkpt>
      <trkpt lat="37.360864000" lon="-4.979432000">
        <ele>187.1</ele>
        <time>2020-10-16T10:15:59Z</time>
      </trkpt>
      <trkpt lat="37.360790000" lon="-4.979574000">
        <ele>187.1</ele>
        <time>2020-10-16T10:16:01Z</time>
      </trkpt>
      <trkpt lat="37.360705000" lon="-4.979719000">
        <ele>187.2</ele>
        <time>2020-10-16T10:16:03Z</time>
      </trkpt>
      <trkpt lat="37.360631000" lon="-4.979867000">
        <ele>187.4</ele>
        <time>2020-10-16T10:16:05Z</time>
      </trkpt>
      <trkpt lat="37.360558000" lon="-4.980009000">
        <ele>187.6</ele>
        <time>2020-10-16T10:16:07Z</time>
      </trkpt>
      <trkpt lat="37.360485000" lon="-4.980153000">
        <ele>187.9</ele>
        <time>2020-10-16T10:16:09Z</time>
      </trkpt>
      <trkpt lat="37.360411000" lon="-4.980297000">
        <ele>188.1</ele>
        <time>2020-10-16T10:16:11Z</time>
      </trkpt>
      <trkpt lat="37.360337000" lon="-4.980432000">
        <ele>188.3</ele>
        <time>2020-10-16T10:16:13Z</time>
      </trkpt>
      <trkpt lat="37.360268000" lon="-4.980571000">
        <ele>188.5</ele>
        <time>2020-10-16T10:16:15Z</time>
      </trkpt>
      <trkpt lat="37.360196000" lon="-4.980705000">
        <ele>188.5</ele>
        <time>2020-10-16T10:16:17Z</time>
      </trkpt>
      <trkpt lat="37.360126000" lon="-4.980839000">
        <ele>188.5</ele>
        <time>2020-10-16T10:16:19Z</time>
      </trkpt>
      <trkpt lat="37.360056000" lon="-4.980973000">
        <ele>188.4</ele>
        <time>2020-10-16T10:16:21Z</time>
      </trkpt>
      <trkpt lat="37.359987000" lon="-4.981102000">
        <ele>188.3</ele>
        <time>2020-10-16T10:16:23Z</time>
      </trkpt>
      <trkpt lat="37.359915000" lon="-4.981228000">
        <ele>188.2</ele>
        <time>2020-10-16T10:16:25Z</time>
      </trkpt>
      <trkpt lat="37.359853000" lon="-4.981350000">
        <ele>188.1</ele>
        <time>2020-10-16T10:16:27Z</time>
      </trkpt>
      <trkpt lat="37.359783000" lon="-4.981476000">
        <ele>187.9</ele>
        <time>2020-10-16T10:16:29Z</time>
      </trkpt>
      <trkpt lat="37.359718000" lon="-4.981598000">
        <ele>187.7</ele>
        <time>2020-10-16T10:16:31Z</time>
      </trkpt>
      <trkpt lat="37.359652000" lon="-4.981725000">
        <ele>187.5</ele>
        <time>2020-10-16T10:16:33Z</time>
      </trkpt>
      <trkpt lat="37.359590000" lon="-4.981860000">
        <ele>187.4</ele>
        <time>2020-10-16T10:16:35Z</time>
      </trkpt>
      <trkpt lat="37.359523000" lon="-4.981995000">
        <ele>187.1</ele>
        <time>2020-10-16T10:16:37Z</time>
      </trkpt>
      <trkpt lat="37.359468000" lon="-4.982129000">
        <ele>186.9</ele>
        <time>2020-10-16T10:16:39Z</time>
      </trkpt>
      <trkpt lat="37.359424000" lon="-4.982269000">
        <ele>186.6</ele>
        <time>2020-10-16T10:16:41Z</time>
      </trkpt>
      <trkpt lat="37.359389000" lon="-4.982413000">
        <ele>186.5</ele>
        <time>2020-10-16T10:16:43Z</time>
      </trkpt>
      <trkpt lat="37.359367000" lon="-4.982563000">
        <ele>186.3</ele>
        <time>2020-10-16T10:16:45Z</time>
      </trkpt>
      <trkpt lat="37.359360000" lon="-4.982712000">
        <ele>186.1</ele>
        <time>2020-10-16T10:16:47Z</time>
      </trkpt>
      <trkpt lat="37.359352000" lon="-4.982836000">
        <ele>185.9</ele>
        <time>2020-10-16T10:16:49Z</time>
      </trkpt>
      <trkpt lat="37.359338000" lon="-4.982952000">
        <ele>185.7</ele>
        <time>2020-10-16T10:16:51Z</time>
      </trkpt>
      <trkpt lat="37.359333000" lon="-4.983066000">
        <ele>185.6</ele>
        <time>2020-10-16T10:16:53Z</time>
      </trkpt>
      <trkpt lat="37.359320000" lon="-4.983187000">
        <ele>185.6</ele>
        <time>2020-10-16T10:16:55Z</time>
      </trkpt>
      <trkpt lat="37.359312000" lon="-4.983311000">
        <ele>185.7</ele>
        <time>2020-10-16T10:16:57Z</time>
      </trkpt>
      <trkpt lat="37.359309000" lon="-4.983444000">
        <ele>186.0</ele>
        <time>2020-10-16T10:16:59Z</time>
      </trkpt>
      <trkpt lat="37.359298000" lon="-4.983576000">
        <ele>186.3</ele>
        <time>2020-10-16T10:17:01Z</time>
      </trkpt>
      <trkpt lat="37.359290000" lon="-4.983711000">
        <ele>186.7</ele>
        <time>2020-10-16T10:17:03Z</time>
      </trkpt>
      <trkpt lat="37.359262000" lon="-4.983848000">
        <ele>187.3</ele>
        <time>2020-10-16T10:17:05Z</time>
      </trkpt>
      <trkpt lat="37.359198000" lon="-4.983975000">
        <ele>187.8</ele>
        <time>2020-10-16T10:17:07Z</time>
      </trkpt>
      <trkpt lat="37.359110000" lon="-4.984077000">
        <ele>188.5</ele>
        <time>2020-10-16T10:17:09Z</time>
      </trkpt>
      <trkpt lat="37.359001000" lon="-4.984144000">
        <ele>189.1</ele>
        <time>2020-10-16T10:17:11Z</time>
      </trkpt>
      <trkpt lat="37.358920000" lon="-4.984190000">
        <ele>189.7</ele>
        <time>2020-10-16T10:17:13Z</time>
      </trkpt>
      <trkpt lat="37.358814000" lon="-4.984197000">
        <ele>190.4</ele>
        <time>2020-10-16T10:17:15Z</time>
      </trkpt>
      <trkpt lat="37.358716000" lon="-4.984186000">
        <ele>190.8</ele>
        <time>2020-10-16T10:17:17Z</time>
      </trkpt>
      <trkpt lat="37.358612000" lon="-4.984172000">
        <ele>191.2</ele>
        <time>2020-10-16T10:17:19Z</time>
      </trkpt>
      <trkpt lat="37.358519000" lon="-4.984149000">
        <ele>191.5</ele>
        <time>2020-10-16T10:17:21Z</time>
      </trkpt>
      <trkpt lat="37.358427000" lon="-4.984123000">
        <ele>191.9</ele>
        <time>2020-10-16T10:17:23Z</time>
      </trkpt>
      <trkpt lat="37.358342000" lon="-4.984102000">
        <ele>192.3</ele>
        <time>2020-10-16T10:17:25Z</time>
      </trkpt>
      <trkpt lat="37.358258000" lon="-4.984075000">
        <ele>192.5</ele>
        <time>2020-10-16T10:17:27Z</time>
      </trkpt>
      <trkpt lat="37.358141000" lon="-4.984052000">
        <ele>192.8</ele>
        <time>2020-10-16T10:17:30Z</time>
      </trkpt>
      <trkpt lat="37.358037000" lon="-4.984024000">
        <ele>193.0</ele>
        <time>2020-10-16T10:17:33Z</time>
      </trkpt>
      <trkpt lat="37.357926000" lon="-4.984004000">
        <ele>193.2</ele>
        <time>2020-10-16T10:17:36Z</time>
      </trkpt>
      <trkpt lat="37.357807000" lon="-4.983982000">
        <ele>193.4</ele>
        <time>2020-10-16T10:17:39Z</time>
      </trkpt>
      <trkpt lat="37.357719000" lon="-4.983967000">
        <ele>193.5</ele>
        <time>2020-10-16T10:17:41Z</time>
      </trkpt>
      <trkpt lat="37.357633000" lon="-4.983949000">
        <ele>193.7</ele>
        <time>2020-10-16T10:17:43Z</time>
      </trkpt>
      <trkpt lat="37.357552000" lon="-4.983940000">
        <ele>194.1</ele>
        <time>2020-10-16T10:17:45Z</time>
      </trkpt>
      <trkpt lat="37.357469000" lon="-4.983930000">
        <ele>194.5</ele>
        <time>2020-10-16T10:17:47Z</time>
      </trkpt>
      <trkpt lat="37.357353000" lon="-4.983917000">
        <ele>194.9</ele>
        <time>2020-10-16T10:17:50Z</time>
      </trkpt>
      <trkpt lat="37.357246000" lon="-4.983911000">
        <ele>195.3</ele>
        <time>2020-10-16T10:17:53Z</time>
      </trkpt>
      <trkpt lat="37.357149000" lon="-4.983932000">
        <ele>195.7</ele>
        <time>2020-10-16T10:17:56Z</time>
      </trkpt>
      <trkpt lat="37.357078000" lon="-4.983984000">
        <ele>196.2</ele>
        <time>2020-10-16T10:17:59Z</time>
      </trkpt>
      <trkpt lat="37.357052000" lon="-4.984096000">
        <ele>196.5</ele>
        <time>2020-10-16T10:18:03Z</time>
      </trkpt>
      <trkpt lat="37.357038000" lon="-4.984214000">
        <ele>197.0</ele>
        <time>2020-10-16T10:18:07Z</time>
      </trkpt>
      <trkpt lat="37.357037000" lon="-4.984320000">
        <ele>197.5</ele>
        <time>2020-10-16T10:18:27Z</time>
      </trkpt>
      <trkpt lat="37.357037000" lon="-4.984432000">
        <ele>198.2</ele>
        <time>2020-10-16T10:18:29Z</time>
      </trkpt>
      <trkpt lat="37.357043000" lon="-4.984554000">
        <ele>198.8</ele>
        <time>2020-10-16T10:18:29Z</time>
      </trkpt>
      <trkpt lat="37.357038000" lon="-4.984684000">
        <ele>199.4</ele>
        <time>2020-10-16T10:18:29Z</time>
      </trkpt>
      <trkpt lat="37.357039000" lon="-4.984802000">
        <ele>199.9</ele>
        <time>2020-10-16T10:18:30Z</time>
      </trkpt>
      <trkpt lat="37.357030000" lon="-4.984966000">
        <ele>200.4</ele>
        <time>2020-10-16T10:18:31Z</time>
      </trkpt>
      <trkpt lat="37.357024000" lon="-4.985076000">
        <ele>200.7</ele>
        <time>2020-10-16T10:18:33Z</time>
      </trkpt>
      <trkpt lat="37.357003000" lon="-4.985202000">
        <ele>201.0</ele>
        <time>2020-10-16T10:18:38Z</time>
      </trkpt>
      <trkpt lat="37.356982000" lon="-4.985320000">
        <ele>201.3</ele>
        <time>2020-10-16T10:18:42Z</time>
      </trkpt>
      <trkpt lat="37.356944000" lon="-4.985424000">
        <ele>201.6</ele>
        <time>2020-10-16T10:18:46Z</time>
      </trkpt>
      <trkpt lat="37.356883000" lon="-4.985494000">
        <ele>201.9</ele>
        <time>2020-10-16T10:18:49Z</time>
      </trkpt>
      <trkpt lat="37.356797000" lon="-4.985568000">
        <ele>202.1</ele>
        <time>2020-10-16T10:18:53Z</time>
      </trkpt>
      <trkpt lat="37.356723000" lon="-4.985636000">
        <ele>202.2</ele>
        <time>2020-10-16T10:18:56Z</time>
      </trkpt>
      <trkpt lat="37.356645000" lon="-4.985707000">
        <ele>202.1</ele>
        <time>2020-10-16T10:18:59Z</time>
      </trkpt>
      <trkpt lat="37.356567000" lon="-4.985777000">
        <ele>202.0</ele>
        <time>2020-10-16T10:19:02Z</time>
      </trkpt>
      <trkpt lat="37.356489000" lon="-4.985849000">
        <ele>201.8</ele>
        <time>2020-10-16T10:19:05Z</time>
      </trkpt>
      <trkpt lat="37.356401000" lon="-4.985915000">
        <ele>201.6</ele>
        <time>2020-10-16T10:19:08Z</time>
      </trkpt>
      <trkpt lat="37.356320000" lon="-4.985994000">
        <ele>201.6</ele>
        <time>2020-10-16T10:19:11Z</time>
      </trkpt>
      <trkpt lat="37.356221000" lon="-4.986065000">
        <ele>201.7</ele>
        <time>2020-10-16T10:19:14Z</time>
      </trkpt>
      <trkpt lat="37.356129000" lon="-4.986157000">
        <ele>201.8</ele>
        <time>2020-10-16T10:19:17Z</time>
      </trkpt>
      <trkpt lat="37.356051000" lon="-4.986263000">
        <ele>201.9</ele>
        <time>2020-10-16T10:19:20Z</time>
      </trkpt>
      <trkpt lat="37.355986000" lon="-4.986364000">
        <ele>202.0</ele>
        <time>2020-10-16T10:19:23Z</time>
      </trkpt>
      <trkpt lat="37.355911000" lon="-4.986478000">
        <ele>202.1</ele>
        <time>2020-10-16T10:19:26Z</time>
      </trkpt>
      <trkpt lat="37.355861000" lon="-4.986560000">
        <ele>202.3</ele>
        <time>2020-10-16T10:19:28Z</time>
      </trkpt>
      <trkpt lat="37.355814000" lon="-4.986645000">
        <ele>202.5</ele>
        <time>2020-10-16T10:19:30Z</time>
      </trkpt>
      <trkpt lat="37.355749000" lon="-4.986774000">
        <ele>202.8</ele>
        <time>2020-10-16T10:19:33Z</time>
      </trkpt>
      <trkpt lat="37.355705000" lon="-4.986864000">
        <ele>203.1</ele>
        <time>2020-10-16T10:19:35Z</time>
      </trkpt>
      <trkpt lat="37.355649000" lon="-4.986993000">
        <ele>203.4</ele>
        <time>2020-10-16T10:19:38Z</time>
      </trkpt>
      <trkpt lat="37.355597000" lon="-4.987108000">
        <ele>203.5</ele>
        <time>2020-10-16T10:19:41Z</time>
      </trkpt>
      <trkpt lat="37.355564000" lon="-4.987225000">
        <ele>203.7</ele>
        <time>2020-10-16T10:19:44Z</time>
      </trkpt>
      <trkpt lat="37.355514000" lon="-4.987334000">
        <ele>203.9</ele>
        <time>2020-10-16T10:19:47Z</time>
      </trkpt>
      <trkpt lat="37.355473000" lon="-4.987440000">
        <ele>204.2</ele>
        <time>2020-10-16T10:19:51Z</time>
      </trkpt>
      <trkpt lat="37.355434000" lon="-4.987555000">
        <ele>204.5</ele>
        <time>2020-10-16T10:19:53Z</time>
      </trkpt>
      <trkpt lat="37.355393000" lon="-4.987686000">
        <ele>204.7</ele>
        <time>2020-10-16T10:19:56Z</time>
      </trkpt>
      <trkpt lat="37.355351000" lon="-4.987826000">
        <ele>205.0</ele>
        <time>2020-10-16T10:19:59Z</time>
      </trkpt>
      <trkpt lat="37.355320000" lon="-4.987922000">
        <ele>205.3</ele>
        <time>2020-10-16T10:20:01Z</time>
      </trkpt>
      <trkpt lat="37.355289000" lon="-4.988019000">
        <ele>205.5</ele>
        <time>2020-10-16T10:20:03Z</time>
      </trkpt>
      <trkpt lat="37.355238000" lon="-4.988163000">
        <ele>205.8</ele>
        <time>2020-10-16T10:20:06Z</time>
      </trkpt>
      <trkpt lat="37.355200000" lon="-4.988258000">
        <ele>206.1</ele>
        <time>2020-10-16T10:20:08Z</time>
      </trkpt>
      <trkpt lat="37.355165000" lon="-4.988352000">
        <ele>206.5</ele>
        <time>2020-10-16T10:20:10Z</time>
      </trkpt>
      <trkpt lat="37.355118000" lon="-4.988482000">
        <ele>206.6</ele>
        <time>2020-10-16T10:20:13Z</time>
      </trkpt>
      <trkpt lat="37.355082000" lon="-4.988597000">
        <ele>206.8</ele>
        <time>2020-10-16T10:20:16Z</time>
      </trkpt>
      <trkpt lat="37.355048000" lon="-4.988694000">
        <ele>206.8</ele>
        <time>2020-10-16T10:20:19Z</time>
      </trkpt>
      <trkpt lat="37.354952000" lon="-4.988675000">
        <ele>206.8</ele>
        <time>2020-10-16T10:20:24Z</time>
      </trkpt>
      <trkpt lat="37.354858000" lon="-4.988618000">
        <ele>206.8</ele>
        <time>2020-10-16T10:20:28Z</time>
      </trkpt>
      <trkpt lat="37.354780000" lon="-4.988558000">
        <ele>206.6</ele>
        <time>2020-10-16T10:20:31Z</time>
      </trkpt>
      <trkpt lat="37.354692000" lon="-4.988496000">
        <ele>206.5</ele>
        <time>2020-10-16T10:20:34Z</time>
      </trkpt>
      <trkpt lat="37.354588000" lon="-4.988421000">
        <ele>206.3</ele>
        <time>2020-10-16T10:20:37Z</time>
      </trkpt>
      <trkpt lat="37.354514000" lon="-4.988369000">
        <ele>206.1</ele>
        <time>2020-10-16T10:20:39Z</time>
      </trkpt>
      <trkpt lat="37.354438000" lon="-4.988327000">
        <ele>205.9</ele>
        <time>2020-10-16T10:20:41Z</time>
      </trkpt>
      <trkpt lat="37.354331000" lon="-4.988272000">
        <ele>205.6</ele>
        <time>2020-10-16T10:20:44Z</time>
      </trkpt>
      <trkpt lat="37.354233000" lon="-4.988280000">
        <ele>205.5</ele>
        <time>2020-10-16T10:20:48Z</time>
      </trkpt>
      <trkpt lat="37.354147000" lon="-4.988364000">
        <ele>205.3</ele>
        <time>2020-10-16T10:20:52Z</time>
      </trkpt>
      <trkpt lat="37.354060000" lon="-4.988446000">
        <ele>205.2</ele>
        <time>2020-10-16T10:20:55Z</time>
      </trkpt>
      <trkpt lat="37.353971000" lon="-4.988534000">
        <ele>205.1</ele>
        <time>2020-10-16T10:20:58Z</time>
      </trkpt>
      <trkpt lat="37.353878000" lon="-4.988625000">
        <ele>205.0</ele>
        <time>2020-10-16T10:21:01Z</time>
      </trkpt>
      <trkpt lat="37.353810000" lon="-4.988688000">
        <ele>205.0</ele>
        <time>2020-10-16T10:21:03Z</time>
      </trkpt>
      <trkpt lat="37.353810000" lon="-4.988688000">
        <ele>205.0</ele>
        <time>2020-10-16T10:21:03Z</time>
      </trkpt>
      <trkpt lat="37.345137000" lon="-5.019978000">
        <ele>213.0</ele>
        <time>2020-10-16T10:39:19Z</time>
      </trkpt>
      <trkpt lat="37.345067000" lon="-5.020081000">
        <ele>212.7</ele>
        <time>2020-10-16T10:39:30Z</time>
      </trkpt>
      <trkpt lat="37.345026000" lon="-5.020201000">
        <ele>212.5</ele>
        <time>2020-10-16T10:39:43Z</time>
      </trkpt>
      <trkpt lat="37.344915000" lon="-5.020602000">
        <ele>212.3</ele>
        <time>2020-10-16T10:39:52Z</time>
      </trkpt>
      <trkpt lat="37.344585000" lon="-5.021623000">
        <ele>212.1</ele>
        <time>2020-10-16T10:39:54Z</time>
      </trkpt>
      <trkpt lat="37.344542000" lon="-5.021773000">
        <ele>211.9</ele>
        <time>2020-10-16T10:39:56Z</time>
      </trkpt>
      <trkpt lat="37.344498000" lon="-5.021918000">
        <ele>211.5</ele>
        <time>2020-10-16T10:39:58Z</time>
      </trkpt>
      <trkpt lat="37.344453000" lon="-5.022056000">
        <ele>211.2</ele>
        <time>2020-10-16T10:40:00Z</time>
      </trkpt>
      <trkpt lat="37.344416000" lon="-5.022198000">
        <ele>210.8</ele>
        <time>2020-10-16T10:40:02Z</time>
      </trkpt>
      <trkpt lat="37.344402000" lon="-5.022334000">
        <ele>210.5</ele>
        <time>2020-10-16T10:40:04Z</time>
      </trkpt>
      <trkpt lat="37.344413000" lon="-5.022472000">
        <ele>210.3</ele>
        <time>2020-10-16T10:40:06Z</time>
      </trkpt>
      <trkpt lat="37.344445000" lon="-5.022597000">
        <ele>210.0</ele>
        <time>2020-10-16T10:40:08Z</time>
      </trkpt>
      <trkpt lat="37.344505000" lon="-5.022714000">
        <ele>209.7</ele>
        <time>2020-10-16T10:40:10Z</time>
      </trkpt>
      <trkpt lat="37.344563000" lon="-5.022826000">
        <ele>209.5</ele>
        <time>2020-10-16T10:40:12Z</time>
      </trkpt>
      <trkpt lat="37.344626000" lon="-5.022935000">
        <ele>209.1</ele>
        <time>2020-10-16T10:40:14Z</time>
      </trkpt>
      <trkpt lat="37.344701000" lon="-5.023050000">
        <ele>208.8</ele>
        <time>2020-10-16T10:40:17Z</time>
      </trkpt>
      <trkpt lat="37.344770000" lon="-5.023167000">
        <ele>208.5</ele>
        <time>2020-10-16T10:40:18Z</time>
      </trkpt>
      <trkpt lat="37.344847000" lon="-5.023289000">
        <ele>208.3</ele>
        <time>2020-10-16T10:40:20Z</time>
      </trkpt>
      <trkpt lat="37.344932000" lon="-5.023399000">
        <ele>208.0</ele>
        <time>2020-10-16T10:40:22Z</time>
      </trkpt>
      <trkpt lat="37.345030000" lon="-5.023492000">
        <ele>207.7</ele>
        <time>2020-10-16T10:40:24Z</time>
      </trkpt>
      <trkpt lat="37.345146000" lon="-5.023563000">
        <ele>207.4</ele>
        <time>2020-10-16T10:40:26Z</time>
      </trkpt>
      <trkpt lat="37.345268000" lon="-5.023610000">
        <ele>207.0</ele>
        <time>2020-10-16T10:40:28Z</time>
      </trkpt>
      <trkpt lat="37.345389000" lon="-5.023651000">
        <ele>206.6</ele>
        <time>2020-10-16T10:40:30Z</time>
      </trkpt>
      <trkpt lat="37.345505000" lon="-5.023691000">
        <ele>206.2</ele>
        <time>2020-10-16T10:40:32Z</time>
      </trkpt>
      <trkpt lat="37.345624000" lon="-5.023734000">
        <ele>205.7</ele>
        <time>2020-10-16T10:40:34Z</time>
      </trkpt>
      <trkpt lat="37.345744000" lon="-5.023788000">
        <ele>205.4</ele>
        <time>2020-10-16T10:40:36Z</time>
      </trkpt>
      <trkpt lat="37.345860000" lon="-5.023851000">
        <ele>205.0</ele>
        <time>2020-10-16T10:40:38Z</time>
      </trkpt>
      <trkpt lat="37.345977000" lon="-5.023919000">
        <ele>204.5</ele>
        <time>2020-10-16T10:40:40Z</time>
      </trkpt>
      <trkpt lat="37.346097000" lon="-5.023991000">
        <ele>204.1</ele>
        <time>2020-10-16T10:40:42Z</time>
      </trkpt>
      <trkpt lat="37.346215000" lon="-5.024061000">
        <ele>203.6</ele>
        <time>2020-10-16T10:40:44Z</time>
      </trkpt>
      <trkpt lat="37.346338000" lon="-5.024139000">
        <ele>203.2</ele>
        <time>2020-10-16T10:40:46Z</time>
      </trkpt>
      <trkpt lat="37.346458000" lon="-5.024219000">
        <ele>202.8</ele>
        <time>2020-10-16T10:40:48Z</time>
      </trkpt>
      <trkpt lat="37.346570000" lon="-5.024303000">
        <ele>202.5</ele>
        <time>2020-10-16T10:40:50Z</time>
      </trkpt>
      <trkpt lat="37.346667000" lon="-5.024405000">
        <ele>202.1</ele>
        <time>2020-10-16T10:40:52Z</time>
      </trkpt>
      <trkpt lat="37.346764000" lon="-5.024528000">
        <ele>201.8</ele>
        <time>2020-10-16T10:40:54Z</time>
      </trkpt>
      <trkpt lat="37.346845000" lon="-5.024665000">
        <ele>201.5</ele>
        <time>2020-10-16T10:40:56Z</time>
      </trkpt>
      <trkpt lat="37.346932000" lon="-5.024811000">
        <ele>201.1</ele>
        <time>2020-10-16T10:40:58Z</time>
      </trkpt>
      <trkpt lat="37.347017000" lon="-5.024973000">
        <ele>200.6</ele>
        <time>2020-10-16T10:41:00Z</time>
      </trkpt>
      <trkpt lat="37.347106000" lon="-5.025138000">
        <ele>200.4</ele>
        <time>2020-10-16T10:41:02Z</time>
      </trkpt>
      <trkpt lat="37.347151000" lon="-5.025229000">
        <ele>200.1</ele>
        <time>2020-10-16T10:41:03Z</time>
      </trkpt>
      <trkpt lat="37.347201000" lon="-5.025314000">
        <ele>199.8</ele>
        <time>2020-10-16T10:41:09Z</time>
      </trkpt>
      <trkpt lat="37.347533000" lon="-5.025897000">
        <ele>199.5</ele>
        <time>2020-10-16T10:41:11Z</time>
      </trkpt>
      <trkpt lat="37.347620000" lon="-5.026053000">
        <ele>199.2</ele>
        <time>2020-10-16T10:41:13Z</time>
      </trkpt>
      <trkpt lat="37.347702000" lon="-5.026203000">
        <ele>198.9</ele>
        <time>2020-10-16T10:41:15Z</time>
      </trkpt>
      <trkpt lat="37.347783000" lon="-5.026349000">
        <ele>198.6</ele>
        <time>2020-10-16T10:41:17Z</time>
      </trkpt>
      <trkpt lat="37.347861000" lon="-5.026491000">
        <ele>198.4</ele>
        <time>2020-10-16T10:41:19Z</time>
      </trkpt>
      <trkpt lat="37.347939000" lon="-5.026627000">
        <ele>198.1</ele>
        <time>2020-10-16T10:41:21Z</time>
      </trkpt>
      <trkpt lat="37.348021000" lon="-5.026763000">
        <ele>198.0</ele>
        <time>2020-10-16T10:41:23Z</time>
      </trkpt>
      <trkpt lat="37.348102000" lon="-5.026902000">
        <ele>197.9</ele>
        <time>2020-10-16T10:41:25Z</time>
      </trkpt>
      <trkpt lat="37.348185000" lon="-5.027042000">
        <ele>197.7</ele>
        <time>2020-10-16T10:41:27Z</time>
      </trkpt>
      <trkpt lat="37.348265000" lon="-5.027173000">
        <ele>197.5</ele>
        <time>2020-10-16T10:41:29Z</time>
      </trkpt>
      <trkpt lat="37.348343000" lon="-5.027309000">
        <ele>197.4</ele>
        <time>2020-10-16T10:41:31Z</time>
      </trkpt>
      <trkpt lat="37.348421000" lon="-5.027438000">
        <ele>197.2</ele>
        <time>2020-10-16T10:41:33Z</time>
      </trkpt>
      <trkpt lat="37.348490000" lon="-5.027564000">
        <ele>197.0</ele>
        <time>2020-10-16T10:41:35Z</time>
      </trkpt>
      <trkpt lat="37.348558000" lon="-5.027672000">
        <ele>196.8</ele>
        <time>2020-10-16T10:41:37Z</time>
      </trkpt>
      <trkpt lat="37.348619000" lon="-5.027771000">
        <ele>196.7</ele>
        <time>2020-10-16T10:41:39Z</time>
      </trkpt>
      <trkpt lat="37.348672000" lon="-5.027861000">
        <ele>196.6</ele>
        <time>2020-10-16T10:41:41Z</time>
      </trkpt>
      <trkpt lat="37.348723000" lon="-5.027940000">
        <ele>196.5</ele>
        <time>2020-10-16T10:41:52Z</time>
      </trkpt>
      <trkpt lat="37.348755000" lon="-5.028039000">
        <ele>196.3</ele>
        <time>2020-10-16T10:44:34Z</time>
      </trkpt>
      <trkpt lat="37.348813000" lon="-5.028152000">
        <ele>196.0</ele>
        <time>2020-10-16T10:44:37Z</time>
      </trkpt>
      <trkpt lat="37.348860000" lon="-5.028247000">
        <ele>195.6</ele>
        <time>2020-10-16T10:44:39Z</time>
      </trkpt>
      <trkpt lat="37.348916000" lon="-5.028363000">
        <ele>195.2</ele>
        <time>2020-10-16T10:44:41Z</time>
      </trkpt>
      <trkpt lat="37.348980000" lon="-5.028495000">
        <ele>194.5</ele>
        <time>2020-10-16T10:44:43Z</time>
      </trkpt>
      <trkpt lat="37.349048000" lon="-5.028639000">
        <ele>193.8</ele>
        <time>2020-10-16T10:44:45Z</time>
      </trkpt>
      <trkpt lat="37.349126000" lon="-5.028789000">
        <ele>193.2</ele>
        <time>2020-10-16T10:44:47Z</time>
      </trkpt>
      <trkpt lat="37.349207000" lon="-5.028948000">
        <ele>192.6</ele>
        <time>2020-10-16T10:44:49Z</time>
      </trkpt>
      <trkpt lat="37.349287000" lon="-5.029119000">
        <ele>192.1</ele>
        <time>2020-10-16T10:44:51Z</time>
      </trkpt>
      <trkpt lat="37.349373000" lon="-5.029291000">
        <ele>191.5</ele>
        <time>2020-10-16T10:44:53Z</time>
      </trkpt>
      <trkpt lat="37.349456000" lon="-5.029459000">
        <ele>191.0</ele>
        <time>2020-10-16T10:44:55Z</time>
      </trkpt>
      <trkpt lat="37.349538000" lon="-5.029626000">
        <ele>190.5</ele>
        <time>2020-10-16T10:44:57Z</time>
      </trkpt>
      <trkpt lat="37.349621000" lon="-5.029781000">
        <ele>190.0</ele>
        <time>2020-10-16T10:44:59Z</time>
      </trkpt>
      <trkpt lat="37.349698000" lon="-5.029931000">
        <ele>189.6</ele>
        <time>2020-10-16T10:45:01Z</time>
      </trkpt>
      <trkpt lat="37.349770000" lon="-5.030090000">
        <ele>189.4</ele>
        <time>2020-10-16T10:45:03Z</time>
      </trkpt>
      <trkpt lat="37.349834000" lon="-5.030247000">
        <ele>189.3</ele>
        <time>2020-10-16T10:45:05Z</time>
      </trkpt>
      <trkpt lat="37.349882000" lon="-5.030402000">
        <ele>189.4</ele>
        <time>2020-10-16T10:45:07Z</time>
      </trkpt>
      <trkpt lat="37.349913000" lon="-5.030563000">
        <ele>189.5</ele>
        <time>2020-10-16T10:45:09Z</time>
      </trkpt>
      <trkpt lat="37.349931000" lon="-5.030735000">
        <ele>189.7</ele>
        <time>2020-10-16T10:45:11Z</time>
      </trkpt>
      <trkpt lat="37.349947000" lon="-5.030904000">
        <ele>190.0</ele>
        <time>2020-10-16T10:45:13Z</time>
      </trkpt>
      <trkpt lat="37.349966000" lon="-5.031062000">
        <ele>190.4</ele>
        <time>2020-10-16T10:45:15Z</time>
      </trkpt>
      <trkpt lat="37.349980000" lon="-5.031207000">
        <ele>190.9</ele>
        <time>2020-10-16T10:45:17Z</time>
      </trkpt>
      <trkpt lat="37.349995000" lon="-5.031334000">
        <ele>191.5</ele>
        <time>2020-10-16T10:45:19Z</time>
      </trkpt>
      <trkpt lat="37.350010000" lon="-5.031451000">
        <ele>192.2</ele>
        <time>2020-10-16T10:45:21Z</time>
      </trkpt>
      <trkpt lat="37.350021000" lon="-5.031554000">
        <ele>192.9</ele>
        <time>2020-10-16T10:45:23Z</time>
      </trkpt>
      <trkpt lat="37.350031000" lon="-5.031689000">
        <ele>193.6</ele>
        <time>2020-10-16T10:45:26Z</time>
      </trkpt>
      <trkpt lat="37.350047000" lon="-5.031800000">
        <ele>194.4</ele>
        <time>2020-10-16T10:45:29Z</time>
      </trkpt>
      <trkpt lat="37.350061000" lon="-5.031907000">
        <ele>195.0</ele>
        <time>2020-10-16T10:45:32Z</time>
      </trkpt>
      <trkpt lat="37.350072000" lon="-5.032011000">
        <ele>195.5</ele>
        <time>2020-10-16T10:45:35Z</time>
      </trkpt>
      <trkpt lat="37.350081000" lon="-5.032145000">
        <ele>196.0</ele>
        <time>2020-10-16T10:45:39Z</time>
      </trkpt>
      <trkpt lat="37.350083000" lon="-5.032278000">
        <ele>196.4</ele>
        <time>2020-10-16T10:45:43Z</time>
      </trkpt>
      <trkpt lat="37.350083000" lon="-5.032389000">
        <ele>196.6</ele>
        <time>2020-10-16T10:45:46Z</time>
      </trkpt>
      <trkpt lat="37.350075000" lon="-5.032507000">
        <ele>196.8</ele>
        <time>2020-10-16T10:45:49Z</time>
      </trkpt>
      <trkpt lat="37.350059000" lon="-5.032645000">
        <ele>196.9</ele>
        <time>2020-10-16T10:45:52Z</time>
      </trkpt>
      <trkpt lat="37.350046000" lon="-5.032750000">
        <ele>196.9</ele>
        <time>2020-10-16T10:45:54Z</time>
      </trkpt>
      <trkpt lat="37.350031000" lon="-5.032868000">
        <ele>196.9</ele>
        <time>2020-10-16T10:45:56Z</time>
      </trkpt>
      <trkpt lat="37.350013000" lon="-5.032984000">
        <ele>196.9</ele>
        <time>2020-10-16T10:45:58Z</time>
      </trkpt>
      <trkpt lat="37.349989000" lon="-5.033108000">
        <ele>196.9</ele>
        <time>2020-10-16T10:46:00Z</time>
      </trkpt>
      <trkpt lat="37.349972000" lon="-5.033233000">
        <ele>196.9</ele>
        <time>2020-10-16T10:46:02Z</time>
      </trkpt>
      <trkpt lat="37.349954000" lon="-5.033359000">
        <ele>196.8</ele>
        <time>2020-10-16T10:46:04Z</time>
      </trkpt>
      <trkpt lat="37.349931000" lon="-5.033495000">
        <ele>196.6</ele>
        <time>2020-10-16T10:46:06Z</time>
      </trkpt>
      <trkpt lat="37.349912000" lon="-5.033628000">
        <ele>196.4</ele>
        <time>2020-10-16T10:46:08Z</time>
      </trkpt>
      <trkpt lat="37.349891000" lon="-5.033769000">
        <ele>196.0</ele>
        <time>2020-10-16T10:46:10Z</time>
      </trkpt>
      <trkpt lat="37.349866000" lon="-5.033911000">
        <ele>195.6</ele>
        <time>2020-10-16T10:46:12Z</time>
      </trkpt>
      <trkpt lat="37.349845000" lon="-5.034064000">
        <ele>195.2</ele>
        <time>2020-10-16T10:46:14Z</time>
      </trkpt>
      <trkpt lat="37.349823000" lon="-5.034225000">
        <ele>194.9</ele>
        <time>2020-10-16T10:46:16Z</time>
      </trkpt>
      <trkpt lat="37.349795000" lon="-5.034396000">
        <ele>194.5</ele>
        <time>2020-10-16T10:46:18Z</time>
      </trkpt>
      <trkpt lat="37.349763000" lon="-5.034575000">
        <ele>194.3</ele>
        <time>2020-10-16T10:46:20Z</time>
      </trkpt>
      <trkpt lat="37.349737000" lon="-5.034756000">
        <ele>194.0</ele>
        <time>2020-10-16T10:46:22Z</time>
      </trkpt>
      <trkpt lat="37.349710000" lon="-5.034943000">
        <ele>193.7</ele>
        <time>2020-10-16T10:46:24Z</time>
      </trkpt>
      <trkpt lat="37.349686000" lon="-5.035128000">
        <ele>193.6</ele>
        <time>2020-10-16T10:46:26Z</time>
      </trkpt>
      <trkpt lat="37.349663000" lon="-5.035304000">
        <ele>193.7</ele>
        <time>2020-10-16T10:46:28Z</time>
      </trkpt>
      <trkpt lat="37.349634000" lon="-5.035469000">
        <ele>193.9</ele>
        <time>2020-10-16T10:46:30Z</time>
      </trkpt>
      <trkpt lat="37.349613000" lon="-5.035632000">
        <ele>194.3</ele>
        <time>2020-10-16T10:46:32Z</time>
      </trkpt>
      <trkpt lat="37.349591000" lon="-5.035785000">
        <ele>194.6</ele>
        <time>2020-10-16T10:46:34Z</time>
      </trkpt>
      <trkpt lat="37.349566000" lon="-5.035935000">
        <ele>195.2</ele>
        <time>2020-10-16T10:46:36Z</time>
      </trkpt>
      <trkpt lat="37.349550000" lon="-5.036082000">
        <ele>195.6</ele>
        <time>2020-10-16T10:46:38Z</time>
      </trkpt>
      <trkpt lat="37.349522000" lon="-5.036212000">
        <ele>196.1</ele>
        <time>2020-10-16T10:46:40Z</time>
      </trkpt>
      <trkpt lat="37.349506000" lon="-5.036335000">
        <ele>196.5</ele>
        <time>2020-10-16T10:46:42Z</time>
      </trkpt>
      <trkpt lat="37.349486000" lon="-5.036451000">
        <ele>196.7</ele>
        <time>2020-10-16T10:46:44Z</time>
      </trkpt>
      <trkpt lat="37.349472000" lon="-5.036558000">
        <ele>197.0</ele>
        <time>2020-10-16T10:46:46Z</time>
      </trkpt>
      <trkpt lat="37.349448000" lon="-5.036696000">
        <ele>197.3</ele>
        <time>2020-10-16T10:46:49Z</time>
      </trkpt>
      <trkpt lat="37.349427000" lon="-5.036837000">
        <ele>197.5</ele>
        <time>2020-10-16T10:46:52Z</time>
      </trkpt>
      <trkpt lat="37.349401000" lon="-5.036980000">
        <ele>197.7</ele>
        <time>2020-10-16T10:46:55Z</time>
      </trkpt>
      <trkpt lat="37.349377000" lon="-5.037119000">
        <ele>198.0</ele>
        <time>2020-10-16T10:46:58Z</time>
      </trkpt>
      <trkpt lat="37.349353000" lon="-5.037266000">
        <ele>198.3</ele>
        <time>2020-10-16T10:47:01Z</time>
      </trkpt>
      <trkpt lat="37.349330000" lon="-5.037409000">
        <ele>198.5</ele>
        <time>2020-10-16T10:47:04Z</time>
      </trkpt>
      <trkpt lat="37.349315000" lon="-5.037540000">
        <ele>198.8</ele>
        <time>2020-10-16T10:47:07Z</time>
      </trkpt>
      <trkpt lat="37.349296000" lon="-5.037665000">
        <ele>199.2</ele>
        <time>2020-10-16T10:47:10Z</time>
      </trkpt>
      <trkpt lat="37.349280000" lon="-5.037790000">
        <ele>199.5</ele>
        <time>2020-10-16T10:47:13Z</time>
      </trkpt>
      <trkpt lat="37.349261000" lon="-5.037919000">
        <ele>199.8</ele>
        <time>2020-10-16T10:47:16Z</time>
      </trkpt>
      <trkpt lat="37.349242000" lon="-5.038054000">
        <ele>200.2</ele>
        <time>2020-10-16T10:47:19Z</time>
      </trkpt>
      <trkpt lat="37.349231000" lon="-5.038183000">
        <ele>200.4</ele>
        <time>2020-10-16T10:47:22Z</time>
      </trkpt>
      <trkpt lat="37.349223000" lon="-5.038311000">
        <ele>200.5</ele>
        <time>2020-10-16T10:47:25Z</time>
      </trkpt>
      <trkpt lat="37.349226000" lon="-5.038445000">
        <ele>200.6</ele>
        <time>2020-10-16T10:47:28Z</time>
      </trkpt>
      <trkpt lat="37.349238000" lon="-5.038586000">
        <ele>200.5</ele>
        <time>2020-10-16T10:47:31Z</time>
      </trkpt>
      <trkpt lat="37.349249000" lon="-5.038690000">
        <ele>200.5</ele>
        <time>2020-10-16T10:47:33Z</time>
      </trkpt>
      <trkpt lat="37.349262000" lon="-5.038805000">
        <ele>200.3</ele>
        <time>2020-10-16T10:47:35Z</time>
      </trkpt>
      <trkpt lat="37.349274000" lon="-5.038917000">
        <ele>200.2</ele>
        <time>2020-10-16T10:47:37Z</time>
      </trkpt>
      <trkpt lat="37.349287000" lon="-5.039041000">
        <ele>200.0</ele>
        <time>2020-10-16T10:47:39Z</time>
      </trkpt>
      <trkpt lat="37.349300000" lon="-5.039165000">
        <ele>200.0</ele>
        <time>2020-10-16T10:47:41Z</time>
      </trkpt>
      <trkpt lat="37.349311000" lon="-5.039287000">
        <ele>200.1</ele>
        <time>2020-10-16T10:47:43Z</time>
      </trkpt>
      <trkpt lat="37.349331000" lon="-5.039415000">
        <ele>200.2</ele>
        <time>2020-10-16T10:47:45Z</time>
      </trkpt>
      <trkpt lat="37.349344000" lon="-5.039545000">
        <ele>200.5</ele>
        <time>2020-10-16T10:47:47Z</time>
      </trkpt>
      <trkpt lat="37.349360000" lon="-5.039675000">
        <ele>200.7</ele>
        <time>2020-10-16T10:47:49Z</time>
      </trkpt>
      <trkpt lat="37.349375000" lon="-5.039801000">
        <ele>201.0</ele>
        <time>2020-10-16T10:47:51Z</time>
      </trkpt>
      <trkpt lat="37.349385000" lon="-5.039927000">
        <ele>201.5</ele>
        <time>2020-10-16T10:47:53Z</time>
      </trkpt>
      <trkpt lat="37.349400000" lon="-5.040043000">
        <ele>202.0</ele>
        <time>2020-10-16T10:47:55Z</time>
      </trkpt>
      <trkpt lat="37.349417000" lon="-5.040161000">
        <ele>202.5</ele>
        <time>2020-10-16T10:47:57Z</time>
      </trkpt>
      <trkpt lat="37.349430000" lon="-5.040281000">
        <ele>203.1</ele>
        <time>2020-10-16T10:47:59Z</time>
      </trkpt>
      <trkpt lat="37.349442000" lon="-5.040401000">
        <ele>203.6</ele>
        <time>2020-10-16T10:48:01Z</time>
      </trkpt>
      <trkpt lat="37.349454000" lon="-5.040521000">
        <ele>204.0</ele>
        <time>2020-10-16T10:48:03Z</time>
      </trkpt>
      <trkpt lat="37.349463000" lon="-5.040645000">
        <ele>204.3</ele>
        <time>2020-10-16T10:48:05Z</time>
      </trkpt>
      <trkpt lat="37.349477000" lon="-5.040770000">
        <ele>204.5</ele>
        <time>2020-10-16T10:48:07Z</time>
      </trkpt>
      <trkpt lat="37.349493000" lon="-5.040895000">
        <ele>204.7</ele>
        <time>2020-10-16T10:48:09Z</time>
      </trkpt>
      <trkpt lat="37.349508000" lon="-5.041021000">
        <ele>204.9</ele>
        <time>2020-10-16T10:48:11Z</time>
      </trkpt>
      <trkpt lat="37.349524000" lon="-5.041152000">
        <ele>205.0</ele>
        <time>2020-10-16T10:48:13Z</time>
      </trkpt>
      <trkpt lat="37.349537000" lon="-5.041274000">
        <ele>205.0</ele>
        <time>2020-10-16T10:48:15Z</time>
      </trkpt>
      <trkpt lat="37.349548000" lon="-5.041401000">
        <ele>204.9</ele>
        <time>2020-10-16T10:48:17Z</time>
      </trkpt>
      <trkpt lat="37.349563000" lon="-5.041525000">
        <ele>204.8</ele>
        <time>2020-10-16T10:48:19Z</time>
      </trkpt>
      <trkpt lat="37.349579000" lon="-5.041648000">
        <ele>204.6</ele>
        <time>2020-10-16T10:48:21Z</time>
      </trkpt>
      <trkpt lat="37.349602000" lon="-5.041763000">
        <ele>204.5</ele>
        <time>2020-10-16T10:48:23Z</time>
      </trkpt>
      <trkpt lat="37.349613000" lon="-5.041879000">
        <ele>204.5</ele>
        <time>2020-10-16T10:48:25Z</time>
      </trkpt>
      <trkpt lat="37.349628000" lon="-5.041997000">
        <ele>204.5</ele>
        <time>2020-10-16T10:48:27Z</time>
      </trkpt>
      <trkpt lat="37.349645000" lon="-5.042115000">
        <ele>204.5</ele>
        <time>2020-10-16T10:48:29Z</time>
      </trkpt>
      <trkpt lat="37.349660000" lon="-5.042233000">
        <ele>204.5</ele>
        <time>2020-10-16T10:48:31Z</time>
      </trkpt>
      <trkpt lat="37.349674000" lon="-5.042355000">
        <ele>204.6</ele>
        <time>2020-10-16T10:48:33Z</time>
      </trkpt>
      <trkpt lat="37.349693000" lon="-5.042475000">
        <ele>204.8</ele>
        <time>2020-10-16T10:48:35Z</time>
      </trkpt>
      <trkpt lat="37.349712000" lon="-5.042597000">
        <ele>205.0</ele>
        <time>2020-10-16T10:48:37Z</time>
      </trkpt>
      <trkpt lat="37.349731000" lon="-5.042717000">
        <ele>205.3</ele>
        <time>2020-10-16T10:48:39Z</time>
      </trkpt>
      <trkpt lat="37.349754000" lon="-5.042845000">
        <ele>205.6</ele>
        <time>2020-10-16T10:48:41Z</time>
      </trkpt>
      <trkpt lat="37.349775000" lon="-5.042969000">
        <ele>206.0</ele>
        <time>2020-10-16T10:48:43Z</time>
      </trkpt>
      <trkpt lat="37.349802000" lon="-5.043093000">
        <ele>206.4</ele>
        <time>2020-10-16T10:48:45Z</time>
      </trkpt>
      <trkpt lat="37.349823000" lon="-5.043218000">
        <ele>206.7</ele>
        <time>2020-10-16T10:48:47Z</time>
      </trkpt>
      <trkpt lat="37.349842000" lon="-5.043342000">
        <ele>207.2</ele>
        <time>2020-10-16T10:48:49Z</time>
      </trkpt>
      <trkpt lat="37.349864000" lon="-5.043462000">
        <ele>207.5</ele>
        <time>2020-10-16T10:48:51Z</time>
      </trkpt>
      <trkpt lat="37.349885000" lon="-5.043572000">
        <ele>207.9</ele>
        <time>2020-10-16T10:48:53Z</time>
      </trkpt>
      <trkpt lat="37.349904000" lon="-5.043681000">
        <ele>208.2</ele>
        <time>2020-10-16T10:48:55Z</time>
      </trkpt>
      <trkpt lat="37.349922000" lon="-5.043785000">
        <ele>208.5</ele>
        <time>2020-10-16T10:48:57Z</time>
      </trkpt>
      <trkpt lat="37.349940000" lon="-5.043888000">
        <ele>208.7</ele>
        <time>2020-10-16T10:48:59Z</time>
      </trkpt>
      <trkpt lat="37.349958000" lon="-5.043992000">
        <ele>208.9</ele>
        <time>2020-10-16T10:49:01Z</time>
      </trkpt>
      <trkpt lat="37.349984000" lon="-5.044133000">
        <ele>209.0</ele>
        <time>2020-10-16T10:49:04Z</time>
      </trkpt>
      <trkpt lat="37.350005000" lon="-5.044265000">
        <ele>209.1</ele>
        <time>2020-10-16T10:49:07Z</time>
      </trkpt>
      <trkpt lat="37.350025000" lon="-5.044393000">
        <ele>209.1</ele>
        <time>2020-10-16T10:49:10Z</time>
      </trkpt>
      <trkpt lat="37.350044000" lon="-5.044527000">
        <ele>209.1</ele>
        <time>2020-10-16T10:49:13Z</time>
      </trkpt>
      <trkpt lat="37.350052000" lon="-5.044669000">
        <ele>209.0</ele>
        <time>2020-10-16T10:49:16Z</time>
      </trkpt>
      <trkpt lat="37.350045000" lon="-5.044773000">
        <ele>209.0</ele>
        <time>2020-10-16T10:49:18Z</time>
      </trkpt>
      <trkpt lat="37.350032000" lon="-5.044874000">
        <ele>209.0</ele>
        <time>2020-10-16T10:49:20Z</time>
      </trkpt>
      <trkpt lat="37.349997000" lon="-5.045014000">
        <ele>209.0</ele>
        <time>2020-10-16T10:49:23Z</time>
      </trkpt>
      <trkpt lat="37.349946000" lon="-5.045142000">
        <ele>209.0</ele>
        <time>2020-10-16T10:49:26Z</time>
      </trkpt>
      <trkpt lat="37.349896000" lon="-5.045259000">
        <ele>209.0</ele>
        <time>2020-10-16T10:49:29Z</time>
      </trkpt>
      <trkpt lat="37.349840000" lon="-5.045370000">
        <ele>209.1</ele>
        <time>2020-10-16T10:49:32Z</time>
      </trkpt>
      <trkpt lat="37.349788000" lon="-5.045485000">
        <ele>209.3</ele>
        <time>2020-10-16T10:49:35Z</time>
      </trkpt>
      <trkpt lat="37.349735000" lon="-5.045613000">
        <ele>209.5</ele>
        <time>2020-10-16T10:49:38Z</time>
      </trkpt>
      <trkpt lat="37.349676000" lon="-5.045748000">
        <ele>209.7</ele>
        <time>2020-10-16T10:49:41Z</time>
      </trkpt>
      <trkpt lat="37.349632000" lon="-5.045853000">
        <ele>210.0</ele>
        <time>2020-10-16T10:49:43Z</time>
      </trkpt>
      <trkpt lat="37.349578000" lon="-5.045964000">
        <ele>210.3</ele>
        <time>2020-10-16T10:49:45Z</time>
      </trkpt>
      <trkpt lat="37.349526000" lon="-5.046082000">
        <ele>210.5</ele>
        <time>2020-10-16T10:49:47Z</time>
      </trkpt>
      <trkpt lat="37.349467000" lon="-5.046206000">
        <ele>210.5</ele>
        <time>2020-10-16T10:49:49Z</time>
      </trkpt>
      <trkpt lat="37.349415000" lon="-5.046337000">
        <ele>210.4</ele>
        <time>2020-10-16T10:49:51Z</time>
      </trkpt>
      <trkpt lat="37.349353000" lon="-5.046473000">
        <ele>210.2</ele>
        <time>2020-10-16T10:49:53Z</time>
      </trkpt>
      <trkpt lat="37.349291000" lon="-5.046616000">
        <ele>210.0</ele>
        <time>2020-10-16T10:49:55Z</time>
      </trkpt>
      <trkpt lat="37.349222000" lon="-5.046765000">
        <ele>209.7</ele>
        <time>2020-10-16T10:49:57Z</time>
      </trkpt>
      <trkpt lat="37.349151000" lon="-5.046920000">
        <ele>209.4</ele>
        <time>2020-10-16T10:49:59Z</time>
      </trkpt>
      <trkpt lat="37.349082000" lon="-5.047081000">
        <ele>209.0</ele>
        <time>2020-10-16T10:50:01Z</time>
      </trkpt>
      <trkpt lat="37.349011000" lon="-5.047250000">
        <ele>208.5</ele>
        <time>2020-10-16T10:50:03Z</time>
      </trkpt>
      <trkpt lat="37.348944000" lon="-5.047428000">
        <ele>208.1</ele>
        <time>2020-10-16T10:50:05Z</time>
      </trkpt>
      <trkpt lat="37.348897000" lon="-5.047615000">
        <ele>207.6</ele>
        <time>2020-10-16T10:50:07Z</time>
      </trkpt>
      <trkpt lat="37.348872000" lon="-5.047817000">
        <ele>207.2</ele>
        <time>2020-10-16T10:50:09Z</time>
      </trkpt>
      <trkpt lat="37.348868000" lon="-5.048013000">
        <ele>206.9</ele>
        <time>2020-10-16T10:50:11Z</time>
      </trkpt>
      <trkpt lat="37.348869000" lon="-5.048203000">
        <ele>206.6</ele>
        <time>2020-10-16T10:50:13Z</time>
      </trkpt>
      <trkpt lat="37.348882000" lon="-5.048396000">
        <ele>206.5</ele>
        <time>2020-10-16T10:50:15Z</time>
      </trkpt>
      <trkpt lat="37.348893000" lon="-5.048578000">
        <ele>206.3</ele>
        <time>2020-10-16T10:50:17Z</time>
      </trkpt>
      <trkpt lat="37.348901000" lon="-5.048761000">
        <ele>206.0</ele>
        <time>2020-10-16T10:50:19Z</time>
      </trkpt>
      <trkpt lat="37.348910000" lon="-5.048945000">
        <ele>205.7</ele>
        <time>2020-10-16T10:50:21Z</time>
      </trkpt>
      <trkpt lat="37.348916000" lon="-5.049129000">
        <ele>205.4</ele>
        <time>2020-10-16T10:50:23Z</time>
      </trkpt>
      <trkpt lat="37.348923000" lon="-5.049313000">
        <ele>205.0</ele>
        <time>2020-10-16T10:50:25Z</time>
      </trkpt>
      <trkpt lat="37.348938000" lon="-5.049496000">
        <ele>204.6</ele>
        <time>2020-10-16T10:50:27Z</time>
      </trkpt>
      <trkpt lat="37.348951000" lon="-5.049691000">
        <ele>204.2</ele>
        <time>2020-10-16T10:50:29Z</time>
      </trkpt>
      <trkpt lat="37.348968000" lon="-5.049884000">
        <ele>203.8</ele>
        <time>2020-10-16T10:50:31Z</time>
      </trkpt>
      <trkpt lat="37.348982000" lon="-5.050072000">
        <ele>203.5</ele>
        <time>2020-10-16T10:50:33Z</time>
      </trkpt>
      <trkpt lat="37.348993000" lon="-5.050264000">
        <ele>203.3</ele>
        <time>2020-10-16T10:50:35Z</time>
      </trkpt>
      <trkpt lat="37.349001000" lon="-5.050454000">
        <ele>203.1</ele>
        <time>2020-10-16T10:50:37Z</time>
      </trkpt>
      <trkpt lat="37.349002000" lon="-5.050643000">
        <ele>202.9</ele>
        <time>2020-10-16T10:50:39Z</time>
      </trkpt>
      <trkpt lat="37.348993000" lon="-5.050833000">
        <ele>202.7</ele>
        <time>2020-10-16T10:50:41Z</time>
      </trkpt>
      <trkpt lat="37.348980000" lon="-5.051018000">
        <ele>202.5</ele>
        <time>2020-10-16T10:50:43Z</time>
      </trkpt>
      <trkpt lat="37.348960000" lon="-5.051202000">
        <ele>202.4</ele>
        <time>2020-10-16T10:50:45Z</time>
      </trkpt>
      <trkpt lat="37.348945000" lon="-5.051387000">
        <ele>202.2</ele>
        <time>2020-10-16T10:50:47Z</time>
      </trkpt>
      <trkpt lat="37.348927000" lon="-5.051570000">
        <ele>202.1</ele>
        <time>2020-10-16T10:50:49Z</time>
      </trkpt>
      <trkpt lat="37.348906000" lon="-5.051755000">
        <ele>202.1</ele>
        <time>2020-10-16T10:50:51Z</time>
      </trkpt>
      <trkpt lat="37.348891000" lon="-5.051936000">
        <ele>202.2</ele>
        <time>2020-10-16T10:50:53Z</time>
      </trkpt>
      <trkpt lat="37.348884000" lon="-5.052113000">
        <ele>202.3</ele>
        <time>2020-10-16T10:50:55Z</time>
      </trkpt>
      <trkpt lat="37.348863000" lon="-5.052288000">
        <ele>202.3</ele>
        <time>2020-10-16T10:50:57Z</time>
      </trkpt>
      <trkpt lat="37.348845000" lon="-5.052460000">
        <ele>202.3</ele>
        <time>2020-10-16T10:50:59Z</time>
      </trkpt>
      <trkpt lat="37.348834000" lon="-5.052626000">
        <ele>202.2</ele>
        <time>2020-10-16T10:51:01Z</time>
      </trkpt>
      <trkpt lat="37.348821000" lon="-5.052793000">
        <ele>202.2</ele>
        <time>2020-10-16T10:51:03Z</time>
      </trkpt>
      <trkpt lat="37.348809000" lon="-5.052964000">
        <ele>202.2</ele>
        <time>2020-10-16T10:51:05Z</time>
      </trkpt>
      <trkpt lat="37.348794000" lon="-5.053132000">
        <ele>202.2</ele>
        <time>2020-10-16T10:51:07Z</time>
      </trkpt>
      <trkpt lat="37.348783000" lon="-5.053296000">
        <ele>202.1</ele>
        <time>2020-10-16T10:51:09Z</time>
      </trkpt>
      <trkpt lat="37.348764000" lon="-5.053456000">
        <ele>201.8</ele>
        <time>2020-10-16T10:51:11Z</time>
      </trkpt>
      <trkpt lat="37.348751000" lon="-5.053606000">
        <ele>201.5</ele>
        <time>2020-10-16T10:51:13Z</time>
      </trkpt>
      <trkpt lat="37.348735000" lon="-5.053757000">
        <ele>201.0</ele>
        <time>2020-10-16T10:51:15Z</time>
      </trkpt>
      <trkpt lat="37.348722000" lon="-5.053913000">
        <ele>200.5</ele>
        <time>2020-10-16T10:51:17Z</time>
      </trkpt>
      <trkpt lat="37.348706000" lon="-5.054066000">
        <ele>199.9</ele>
        <time>2020-10-16T10:51:19Z</time>
      </trkpt>
      <trkpt lat="37.348696000" lon="-5.054231000">
        <ele>199.4</ele>
        <time>2020-10-16T10:51:21Z</time>
      </trkpt>
      <trkpt lat="37.348684000" lon="-5.054394000">
        <ele>198.9</ele>
        <time>2020-10-16T10:51:23Z</time>
      </trkpt>
      <trkpt lat="37.348669000" lon="-5.054568000">
        <ele>198.4</ele>
        <time>2020-10-16T10:51:25Z</time>
      </trkpt>
      <trkpt lat="37.348652000" lon="-5.054748000">
        <ele>197.8</ele>
        <time>2020-10-16T10:51:27Z</time>
      </trkpt>
      <trkpt lat="37.348634000" lon="-5.054938000">
        <ele>197.4</ele>
        <time>2020-10-16T10:51:29Z</time>
      </trkpt>
      <trkpt lat="37.348619000" lon="-5.055137000">
        <ele>197.0</ele>
        <time>2020-10-16T10:51:31Z</time>
      </trkpt>
      <trkpt lat="37.348603000" lon="-5.055336000">
        <ele>196.7</ele>
        <time>2020-10-16T10:51:33Z</time>
      </trkpt>
      <trkpt lat="37.348583000" lon="-5.055536000">
        <ele>196.5</ele>
        <time>2020-10-16T10:51:35Z</time>
      </trkpt>
      <trkpt lat="37.348566000" lon="-5.055734000">
        <ele>196.4</ele>
        <time>2020-10-16T10:51:37Z</time>
      </trkpt>
      <trkpt lat="37.348548000" lon="-5.055929000">
        <ele>196.2</ele>
        <time>2020-10-16T10:51:39Z</time>
      </trkpt>
      <trkpt lat="37.348535000" lon="-5.056124000">
        <ele>196.0</ele>
        <time>2020-10-16T10:51:41Z</time>
      </trkpt>
      <trkpt lat="37.348525000" lon="-5.056317000">
        <ele>195.7</ele>
        <time>2020-10-16T10:51:43Z</time>
      </trkpt>
      <trkpt lat="37.348524000" lon="-5.056507000">
        <ele>195.5</ele>
        <time>2020-10-16T10:51:45Z</time>
      </trkpt>
      <trkpt lat="37.348530000" lon="-5.056701000">
        <ele>195.4</ele>
        <time>2020-10-16T10:51:47Z</time>
      </trkpt>
      <trkpt lat="37.348553000" lon="-5.056880000">
        <ele>195.3</ele>
        <time>2020-10-16T10:51:49Z</time>
      </trkpt>
      <trkpt lat="37.348587000" lon="-5.057058000">
        <ele>195.3</ele>
        <time>2020-10-16T10:51:51Z</time>
      </trkpt>
      <trkpt lat="37.348624000" lon="-5.057227000">
        <ele>195.4</ele>
        <time>2020-10-16T10:51:53Z</time>
      </trkpt>
      <trkpt lat="37.348666000" lon="-5.057397000">
        <ele>195.5</ele>
        <time>2020-10-16T10:51:55Z</time>
      </trkpt>
      <trkpt lat="37.348708000" lon="-5.057567000">
        <ele>195.7</ele>
        <time>2020-10-16T10:51:57Z</time>
      </trkpt>
      <trkpt lat="37.348751000" lon="-5.057725000">
        <ele>195.9</ele>
        <time>2020-10-16T10:51:59Z</time>
      </trkpt>
      <trkpt lat="37.348800000" lon="-5.057878000">
        <ele>196.2</ele>
        <time>2020-10-16T10:52:01Z</time>
      </trkpt>
      <trkpt lat="37.348852000" lon="-5.058022000">
        <ele>196.5</ele>
        <time>2020-10-16T10:52:03Z</time>
      </trkpt>
      <trkpt lat="37.348912000" lon="-5.058153000">
        <ele>196.8</ele>
        <time>2020-10-16T10:52:05Z</time>
      </trkpt>
      <trkpt lat="37.348972000" lon="-5.058275000">
        <ele>197.2</ele>
        <time>2020-10-16T10:52:07Z</time>
      </trkpt>
      <trkpt lat="37.349035000" lon="-5.058380000">
        <ele>197.5</ele>
        <time>2020-10-16T10:52:09Z</time>
      </trkpt>
      <trkpt lat="37.349099000" lon="-5.058480000">
        <ele>197.9</ele>
        <time>2020-10-16T10:52:11Z</time>
      </trkpt>
      <trkpt lat="37.349157000" lon="-5.058578000">
        <ele>198.2</ele>
        <time>2020-10-16T10:52:13Z</time>
      </trkpt>
      <trkpt lat="37.349219000" lon="-5.058673000">
        <ele>198.5</ele>
        <time>2020-10-16T10:52:15Z</time>
      </trkpt>
      <trkpt lat="37.349279000" lon="-5.058770000">
        <ele>198.6</ele>
        <time>2020-10-16T10:52:17Z</time>
      </trkpt>
      <trkpt lat="37.349335000" lon="-5.058859000">
        <ele>198.8</ele>
        <time>2020-10-16T10:52:19Z</time>
      </trkpt>
      <trkpt lat="37.349387000" lon="-5.058956000">
        <ele>199.0</ele>
        <time>2020-10-16T10:52:21Z</time>
      </trkpt>
      <trkpt lat="37.349436000" lon="-5.059058000">
        <ele>199.2</ele>
        <time>2020-10-16T10:52:23Z</time>
      </trkpt>
      <trkpt lat="37.349476000" lon="-5.059159000">
        <ele>199.3</ele>
        <time>2020-10-16T10:52:25Z</time>
      </trkpt>
      <trkpt lat="37.349512000" lon="-5.059266000">
        <ele>199.4</ele>
        <time>2020-10-16T10:52:27Z</time>
      </trkpt>
      <trkpt lat="37.349557000" lon="-5.059374000">
        <ele>199.5</ele>
        <time>2020-10-16T10:52:29Z</time>
      </trkpt>
      <trkpt lat="37.349595000" lon="-5.059495000">
        <ele>199.4</ele>
        <time>2020-10-16T10:52:31Z</time>
      </trkpt>
      <trkpt lat="37.349636000" lon="-5.059616000">
        <ele>199.3</ele>
        <time>2020-10-16T10:52:33Z</time>
      </trkpt>
      <trkpt lat="37.349680000" lon="-5.059747000">
        <ele>199.2</ele>
        <time>2020-10-16T10:52:35Z</time>
      </trkpt>
      <trkpt lat="37.349729000" lon="-5.059878000">
        <ele>198.9</ele>
        <time>2020-10-16T10:52:37Z</time>
      </trkpt>
      <trkpt lat="37.349775000" lon="-5.060015000">
        <ele>198.6</ele>
        <time>2020-10-16T10:52:39Z</time>
      </trkpt>
      <trkpt lat="37.349822000" lon="-5.060154000">
        <ele>198.4</ele>
        <time>2020-10-16T10:52:41Z</time>
      </trkpt>
      <trkpt lat="37.349870000" lon="-5.060299000">
        <ele>198.0</ele>
        <time>2020-10-16T10:52:43Z</time>
      </trkpt>
      <trkpt lat="37.349924000" lon="-5.060445000">
        <ele>197.6</ele>
        <time>2020-10-16T10:52:45Z</time>
      </trkpt>
      <trkpt lat="37.349973000" lon="-5.060590000">
        <ele>197.4</ele>
        <time>2020-10-16T10:52:47Z</time>
      </trkpt>
      <trkpt lat="37.350022000" lon="-5.060741000">
        <ele>197.1</ele>
        <time>2020-10-16T10:52:49Z</time>
      </trkpt>
      <trkpt lat="37.350067000" lon="-5.060883000">
        <ele>196.7</ele>
        <time>2020-10-16T10:52:51Z</time>
      </trkpt>
      <trkpt lat="37.350109000" lon="-5.061037000">
        <ele>196.5</ele>
        <time>2020-10-16T10:52:53Z</time>
      </trkpt>
      <trkpt lat="37.350150000" lon="-5.061192000">
        <ele>196.1</ele>
        <time>2020-10-16T10:52:55Z</time>
      </trkpt>
      <trkpt lat="37.350187000" lon="-5.061351000">
        <ele>195.6</ele>
        <time>2020-10-16T10:52:57Z</time>
      </trkpt>
      <trkpt lat="37.350224000" lon="-5.061511000">
        <ele>195.2</ele>
        <time>2020-10-16T10:52:59Z</time>
      </trkpt>
      <trkpt lat="37.350264000" lon="-5.061682000">
        <ele>194.7</ele>
        <time>2020-10-16T10:53:01Z</time>
      </trkpt>
      <trkpt lat="37.350304000" lon="-5.061851000">
        <ele>194.3</ele>
        <time>2020-10-16T10:53:03Z</time>
      </trkpt>
      <trkpt lat="37.350344000" lon="-5.062028000">
        <ele>193.9</ele>
        <time>2020-10-16T10:53:05Z</time>
      </trkpt>
      <trkpt lat="37.350388000" lon="-5.062206000">
        <ele>193.5</ele>
        <time>2020-10-16T10:53:07Z</time>
      </trkpt>
      <trkpt lat="37.350431000" lon="-5.062384000">
        <ele>193.2</ele>
        <time>2020-10-16T10:53:09Z</time>
      </trkpt>
      <trkpt lat="37.350476000" lon="-5.062560000">
        <ele>192.8</ele>
        <time>2020-10-16T10:53:11Z</time>
      </trkpt>
      <trkpt lat="37.350522000" lon="-5.062746000">
        <ele>192.5</ele>
        <time>2020-10-16T10:53:13Z</time>
      </trkpt>
      <trkpt lat="37.350573000" lon="-5.062932000">
        <ele>192.1</ele>
        <time>2020-10-16T10:53:15Z</time>
      </trkpt>
      <trkpt lat="37.350621000" lon="-5.063126000">
        <ele>191.8</ele>
        <time>2020-10-16T10:53:17Z</time>
      </trkpt>
      <trkpt lat="37.350645000" lon="-5.063223000">
        <ele>191.6</ele>
        <time>2020-10-16T10:53:18Z</time>
      </trkpt>
      <trkpt lat="37.350670000" lon="-5.063321000">
        <ele>191.5</ele>
        <time>2020-10-16T10:53:19Z</time>
      </trkpt>
      <trkpt lat="37.350716000" lon="-5.063509000">
        <ele>191.5</ele>
        <time>2020-10-16T10:53:21Z</time>
      </trkpt>
      <trkpt lat="37.350764000" lon="-5.063699000">
        <ele>191.3</ele>
        <time>2020-10-16T10:53:23Z</time>
      </trkpt>
      <trkpt lat="37.350808000" lon="-5.063895000">
        <ele>191.1</ele>
        <time>2020-10-16T10:53:25Z</time>
      </trkpt>
      <trkpt lat="37.350866000" lon="-5.064081000">
        <ele>190.8</ele>
        <time>2020-10-16T10:53:27Z</time>
      </trkpt>
      <trkpt lat="37.350930000" lon="-5.064257000">
        <ele>190.5</ele>
        <time>2020-10-16T10:53:29Z</time>
      </trkpt>
      <trkpt lat="37.350966000" lon="-5.064349000">
        <ele>190.1</ele>
        <time>2020-10-16T10:53:30Z</time>
      </trkpt>
      <trkpt lat="37.351048000" lon="-5.064519000">
        <ele>189.8</ele>
        <time>2020-10-16T10:53:32Z</time>
      </trkpt>
      <trkpt lat="37.351143000" lon="-5.064676000">
        <ele>189.5</ele>
        <time>2020-10-16T10:53:34Z</time>
      </trkpt>
      <trkpt lat="37.351232000" lon="-5.064832000">
        <ele>189.3</ele>
        <time>2020-10-16T10:53:36Z</time>
      </trkpt>
      <trkpt lat="37.351324000" lon="-5.064983000">
        <ele>188.9</ele>
        <time>2020-10-16T10:53:38Z</time>
      </trkpt>
      <trkpt lat="37.351404000" lon="-5.065126000">
        <ele>188.5</ele>
        <time>2020-10-16T10:53:40Z</time>
      </trkpt>
      <trkpt lat="37.351489000" lon="-5.065263000">
        <ele>188.1</ele>
        <time>2020-10-16T10:53:42Z</time>
      </trkpt>
      <trkpt lat="37.351571000" lon="-5.065400000">
        <ele>187.7</ele>
        <time>2020-10-16T10:53:44Z</time>
      </trkpt>
      <trkpt lat="37.351648000" lon="-5.065535000">
        <ele>187.4</ele>
        <time>2020-10-16T10:53:46Z</time>
      </trkpt>
      <trkpt lat="37.351727000" lon="-5.065667000">
        <ele>187.2</ele>
        <time>2020-10-16T10:53:48Z</time>
      </trkpt>
      <trkpt lat="37.351804000" lon="-5.065799000">
        <ele>187.1</ele>
        <time>2020-10-16T10:53:50Z</time>
      </trkpt>
      <trkpt lat="37.351876000" lon="-5.065926000">
        <ele>187.0</ele>
        <time>2020-10-16T10:53:52Z</time>
      </trkpt>
      <trkpt lat="37.351951000" lon="-5.066049000">
        <ele>187.0</ele>
        <time>2020-10-16T10:53:54Z</time>
      </trkpt>
      <trkpt lat="37.352022000" lon="-5.066175000">
        <ele>187.0</ele>
        <time>2020-10-16T10:53:56Z</time>
      </trkpt>
      <trkpt lat="37.352091000" lon="-5.066293000">
        <ele>187.1</ele>
        <time>2020-10-16T10:53:58Z</time>
      </trkpt>
      <trkpt lat="37.352159000" lon="-5.066412000">
        <ele>187.3</ele>
        <time>2020-10-16T10:54:00Z</time>
      </trkpt>
      <trkpt lat="37.352224000" lon="-5.066519000">
        <ele>187.5</ele>
        <time>2020-10-16T10:54:02Z</time>
      </trkpt>
      <trkpt lat="37.352286000" lon="-5.066620000">
        <ele>187.7</ele>
        <time>2020-10-16T10:54:04Z</time>
      </trkpt>
      <trkpt lat="37.352343000" lon="-5.066718000">
        <ele>188.1</ele>
        <time>2020-10-16T10:54:06Z</time>
      </trkpt>
      <trkpt lat="37.352403000" lon="-5.066814000">
        <ele>188.4</ele>
        <time>2020-10-16T10:54:08Z</time>
      </trkpt>
      <trkpt lat="37.352461000" lon="-5.066894000">
        <ele>188.5</ele>
        <time>2020-10-16T10:54:10Z</time>
      </trkpt>
      <trkpt lat="37.352514000" lon="-5.066983000">
        <ele>188.7</ele>
        <time>2020-10-16T10:54:12Z</time>
      </trkpt>
      <trkpt lat="37.352570000" lon="-5.067079000">
        <ele>188.9</ele>
        <time>2020-10-16T10:54:14Z</time>
      </trkpt>
      <trkpt lat="37.352621000" lon="-5.067175000">
        <ele>189.0</ele>
        <time>2020-10-16T10:54:16Z</time>
      </trkpt>
      <trkpt lat="37.352678000" lon="-5.067273000">
        <ele>189.1</ele>
        <time>2020-10-16T10:54:18Z</time>
      </trkpt>
      <trkpt lat="37.352737000" lon="-5.067367000">
        <ele>189.1</ele>
        <time>2020-10-16T10:54:20Z</time>
      </trkpt>
      <trkpt lat="37.352796000" lon="-5.067460000">
        <ele>189.1</ele>
        <time>2020-10-16T10:54:22Z</time>
      </trkpt>
      <trkpt lat="37.352858000" lon="-5.067555000">
        <ele>189.1</ele>
        <time>2020-10-16T10:54:24Z</time>
      </trkpt>
      <trkpt lat="37.352923000" lon="-5.067645000">
        <ele>189.1</ele>
        <time>2020-10-16T10:54:26Z</time>
      </trkpt>
      <trkpt lat="37.352994000" lon="-5.067741000">
        <ele>189.0</ele>
        <time>2020-10-16T10:54:28Z</time>
      </trkpt>
      <trkpt lat="37.353069000" lon="-5.067832000">
        <ele>189.0</ele>
        <time>2020-10-16T10:54:30Z</time>
      </trkpt>
      <trkpt lat="37.353144000" lon="-5.067927000">
        <ele>189.0</ele>
        <time>2020-10-16T10:54:32Z</time>
      </trkpt>
      <trkpt lat="37.353221000" lon="-5.068031000">
        <ele>189.0</ele>
        <time>2020-10-16T10:54:34Z</time>
      </trkpt>
      <trkpt lat="37.353301000" lon="-5.068129000">
        <ele>189.0</ele>
        <time>2020-10-16T10:54:36Z</time>
      </trkpt>
      <trkpt lat="37.353384000" lon="-5.068229000">
        <ele>188.9</ele>
        <time>2020-10-16T10:54:38Z</time>
      </trkpt>
      <trkpt lat="37.353465000" lon="-5.068335000">
        <ele>188.8</ele>
        <time>2020-10-16T10:54:40Z</time>
      </trkpt>
      <trkpt lat="37.353546000" lon="-5.068441000">
        <ele>188.7</ele>
        <time>2020-10-16T10:54:42Z</time>
      </trkpt>
      <trkpt lat="37.353622000" lon="-5.068552000">
        <ele>188.6</ele>
        <time>2020-10-16T10:54:44Z</time>
      </trkpt>
      <trkpt lat="37.353687000" lon="-5.068671000">
        <ele>188.5</ele>
        <time>2020-10-16T10:54:46Z</time>
      </trkpt>
      <trkpt lat="37.353746000" lon="-5.068796000">
        <ele>188.4</ele>
        <time>2020-10-16T10:54:48Z</time>
      </trkpt>
      <trkpt lat="37.353799000" lon="-5.068920000">
        <ele>188.3</ele>
        <time>2020-10-16T10:54:50Z</time>
      </trkpt>
      <trkpt lat="37.353853000" lon="-5.069048000">
        <ele>188.2</ele>
        <time>2020-10-16T10:54:52Z</time>
      </trkpt>
      <trkpt lat="37.353898000" lon="-5.069171000">
        <ele>188.1</ele>
        <time>2020-10-16T10:54:54Z</time>
      </trkpt>
      <trkpt lat="37.353943000" lon="-5.069298000">
        <ele>188.1</ele>
        <time>2020-10-16T10:54:56Z</time>
      </trkpt>
      <trkpt lat="37.353991000" lon="-5.069420000">
        <ele>188.1</ele>
        <time>2020-10-16T10:54:58Z</time>
      </trkpt>
      <trkpt lat="37.354034000" lon="-5.069543000">
        <ele>188.2</ele>
        <time>2020-10-16T10:55:00Z</time>
      </trkpt>
      <trkpt lat="37.354081000" lon="-5.069659000">
        <ele>188.3</ele>
        <time>2020-10-16T10:55:02Z</time>
      </trkpt>
      <trkpt lat="37.354118000" lon="-5.069767000">
        <ele>188.5</ele>
        <time>2020-10-16T10:55:04Z</time>
      </trkpt>
      <trkpt lat="37.354156000" lon="-5.069874000">
        <ele>188.6</ele>
        <time>2020-10-16T10:55:06Z</time>
      </trkpt>
      <trkpt lat="37.354192000" lon="-5.069970000">
        <ele>188.8</ele>
        <time>2020-10-16T10:55:08Z</time>
      </trkpt>
      <trkpt lat="37.354223000" lon="-5.070071000">
        <ele>189.1</ele>
        <time>2020-10-16T10:55:10Z</time>
      </trkpt>
      <trkpt lat="37.354272000" lon="-5.070208000">
        <ele>189.3</ele>
        <time>2020-10-16T10:55:13Z</time>
      </trkpt>
      <trkpt lat="37.354315000" lon="-5.070355000">
        <ele>189.5</ele>
        <time>2020-10-16T10:55:16Z</time>
      </trkpt>
      <trkpt lat="37.354338000" lon="-5.070461000">
        <ele>189.6</ele>
        <time>2020-10-16T10:55:18Z</time>
      </trkpt>
      <trkpt lat="37.354357000" lon="-5.070568000">
        <ele>189.7</ele>
        <time>2020-10-16T10:55:20Z</time>
      </trkpt>
      <trkpt lat="37.354373000" lon="-5.070675000">
        <ele>189.8</ele>
        <time>2020-10-16T10:55:22Z</time>
      </trkpt>
      <trkpt lat="37.354394000" lon="-5.070787000">
        <ele>189.9</ele>
        <time>2020-10-16T10:55:24Z</time>
      </trkpt>
      <trkpt lat="37.354407000" lon="-5.070910000">
        <ele>190.0</ele>
        <time>2020-10-16T10:55:26Z</time>
      </trkpt>
      <trkpt lat="37.354429000" lon="-5.071025000">
        <ele>190.0</ele>
        <time>2020-10-16T10:55:28Z</time>
      </trkpt>
      <trkpt lat="37.354444000" lon="-5.071148000">
        <ele>189.9</ele>
        <time>2020-10-16T10:55:30Z</time>
      </trkpt>
      <trkpt lat="37.354461000" lon="-5.071281000">
        <ele>189.7</ele>
        <time>2020-10-16T10:55:32Z</time>
      </trkpt>
      <trkpt lat="37.354485000" lon="-5.071417000">
        <ele>189.5</ele>
        <time>2020-10-16T10:55:34Z</time>
      </trkpt>
      <trkpt lat="37.354510000" lon="-5.071555000">
        <ele>189.3</ele>
        <time>2020-10-16T10:55:36Z</time>
      </trkpt>
      <trkpt lat="37.354542000" lon="-5.071696000">
        <ele>189.0</ele>
        <time>2020-10-16T10:55:38Z</time>
      </trkpt>
      <trkpt lat="37.354579000" lon="-5.071842000">
        <ele>188.7</ele>
        <time>2020-10-16T10:55:40Z</time>
      </trkpt>
      <trkpt lat="37.354616000" lon="-5.071981000">
        <ele>188.5</ele>
        <time>2020-10-16T10:55:42Z</time>
      </trkpt>
      <trkpt lat="37.354653000" lon="-5.072123000">
        <ele>188.2</ele>
        <time>2020-10-16T10:55:44Z</time>
      </trkpt>
      <trkpt lat="37.354690000" lon="-5.072266000">
        <ele>187.9</ele>
        <time>2020-10-16T10:55:46Z</time>
      </trkpt>
      <trkpt lat="37.354731000" lon="-5.072405000">
        <ele>187.7</ele>
        <time>2020-10-16T10:55:48Z</time>
      </trkpt>
      <trkpt lat="37.354770000" lon="-5.072548000">
        <ele>187.5</ele>
        <time>2020-10-16T10:55:50Z</time>
      </trkpt>
      <trkpt lat="37.354804000" lon="-5.072690000">
        <ele>187.5</ele>
        <time>2020-10-16T10:55:52Z</time>
      </trkpt>
      <trkpt lat="37.354845000" lon="-5.072830000">
        <ele>187.5</ele>
        <time>2020-10-16T10:55:54Z</time>
      </trkpt>
      <trkpt lat="37.354880000" lon="-5.072970000">
        <ele>187.6</ele>
        <time>2020-10-16T10:55:56Z</time>
      </trkpt>
      <trkpt lat="37.354915000" lon="-5.073101000">
        <ele>187.9</ele>
        <time>2020-10-16T10:55:58Z</time>
      </trkpt>
      <trkpt lat="37.354945000" lon="-5.073229000">
        <ele>188.3</ele>
        <time>2020-10-16T10:56:00Z</time>
      </trkpt>
      <trkpt lat="37.354976000" lon="-5.073355000">
        <ele>188.6</ele>
        <time>2020-10-16T10:56:02Z</time>
      </trkpt>
      <trkpt lat="37.355011000" lon="-5.073473000">
        <ele>189.1</ele>
        <time>2020-10-16T10:56:04Z</time>
      </trkpt>
      <trkpt lat="37.355043000" lon="-5.073591000">
        <ele>189.6</ele>
        <time>2020-10-16T10:56:06Z</time>
      </trkpt>
      <trkpt lat="37.355066000" lon="-5.073706000">
        <ele>190.2</ele>
        <time>2020-10-16T10:56:08Z</time>
      </trkpt>
      <trkpt lat="37.355091000" lon="-5.073821000">
        <ele>190.7</ele>
        <time>2020-10-16T10:56:10Z</time>
      </trkpt>
      <trkpt lat="37.355119000" lon="-5.073935000">
        <ele>191.3</ele>
        <time>2020-10-16T10:56:12Z</time>
      </trkpt>
      <trkpt lat="37.355149000" lon="-5.074043000">
        <ele>191.8</ele>
        <time>2020-10-16T10:56:14Z</time>
      </trkpt>
      <trkpt lat="37.355175000" lon="-5.074157000">
        <ele>192.3</ele>
        <time>2020-10-16T10:56:16Z</time>
      </trkpt>
      <trkpt lat="37.355200000" lon="-5.074274000">
        <ele>192.7</ele>
        <time>2020-10-16T10:56:18Z</time>
      </trkpt>
      <trkpt lat="37.355226000" lon="-5.074391000">
        <ele>193.1</ele>
        <time>2020-10-16T10:56:20Z</time>
      </trkpt>
      <trkpt lat="37.355258000" lon="-5.074504000">
        <ele>193.4</ele>
        <time>2020-10-16T10:56:22Z</time>
      </trkpt>
      <trkpt lat="37.355286000" lon="-5.074623000">
        <ele>193.7</ele>
        <time>2020-10-16T10:56:24Z</time>
      </trkpt>
      <trkpt lat="37.355310000" lon="-5.074735000">
        <ele>194.0</ele>
        <time>2020-10-16T10:56:26Z</time>
      </trkpt>
      <trkpt lat="37.355339000" lon="-5.074849000">
        <ele>194.2</ele>
        <time>2020-10-16T10:56:28Z</time>
      </trkpt>
      <trkpt lat="37.355366000" lon="-5.074961000">
        <ele>194.4</ele>
        <time>2020-10-16T10:56:30Z</time>
      </trkpt>
      <trkpt lat="37.355391000" lon="-5.075066000">
        <ele>194.5</ele>
        <time>2020-10-16T10:56:32Z</time>
      </trkpt>
      <trkpt lat="37.355421000" lon="-5.075176000">
        <ele>194.5</ele>
        <time>2020-10-16T10:56:34Z</time>
      </trkpt>
      <trkpt lat="37.355454000" lon="-5.075278000">
        <ele>194.6</ele>
        <time>2020-10-16T10:56:36Z</time>
      </trkpt>
      <trkpt lat="37.355485000" lon="-5.075372000">
        <ele>194.8</ele>
        <time>2020-10-16T10:56:38Z</time>
      </trkpt>
      <trkpt lat="37.355518000" lon="-5.075467000">
        <ele>195.0</ele>
        <time>2020-10-16T10:56:40Z</time>
      </trkpt>
      <trkpt lat="37.355561000" lon="-5.075555000">
        <ele>195.2</ele>
        <time>2020-10-16T10:56:42Z</time>
      </trkpt>
      <trkpt lat="37.355623000" lon="-5.075678000">
        <ele>195.5</ele>
        <time>2020-10-16T10:56:45Z</time>
      </trkpt>
      <trkpt lat="37.355683000" lon="-5.075799000">
        <ele>195.6</ele>
        <time>2020-10-16T10:56:48Z</time>
      </trkpt>
      <trkpt lat="37.355739000" lon="-5.075908000">
        <ele>195.8</ele>
        <time>2020-10-16T10:56:51Z</time>
      </trkpt>
      <trkpt lat="37.355797000" lon="-5.076011000">
        <ele>196.1</ele>
        <time>2020-10-16T10:56:54Z</time>
      </trkpt>
      <trkpt lat="37.355848000" lon="-5.076113000">
        <ele>196.4</ele>
        <time>2020-10-16T10:56:57Z</time>
      </trkpt>
      <trkpt lat="37.355906000" lon="-5.076221000">
        <ele>196.7</ele>
        <time>2020-10-16T10:57:00Z</time>
      </trkpt>
      <trkpt lat="37.355963000" lon="-5.076325000">
        <ele>197.1</ele>
        <time>2020-10-16T10:57:03Z</time>
      </trkpt>
      <trkpt lat="37.356025000" lon="-5.076427000">
        <ele>197.5</ele>
        <time>2020-10-16T10:57:06Z</time>
      </trkpt>
      <trkpt lat="37.356082000" lon="-5.076532000">
        <ele>197.9</ele>
        <time>2020-10-16T10:57:09Z</time>
      </trkpt>
      <trkpt lat="37.356138000" lon="-5.076636000">
        <ele>198.3</ele>
        <time>2020-10-16T10:57:12Z</time>
      </trkpt>
      <trkpt lat="37.356197000" lon="-5.076740000">
        <ele>198.7</ele>
        <time>2020-10-16T10:57:15Z</time>
      </trkpt>
      <trkpt lat="37.356256000" lon="-5.076839000">
        <ele>199.1</ele>
        <time>2020-10-16T10:57:18Z</time>
      </trkpt>
      <trkpt lat="37.356311000" lon="-5.076935000">
        <ele>199.5</ele>
        <time>2020-10-16T10:57:21Z</time>
      </trkpt>
      <trkpt lat="37.356365000" lon="-5.077031000">
        <ele>200.0</ele>
        <time>2020-10-16T10:57:24Z</time>
      </trkpt>
      <trkpt lat="37.356421000" lon="-5.077121000">
        <ele>200.5</ele>
        <time>2020-10-16T10:57:27Z</time>
      </trkpt>
      <trkpt lat="37.356472000" lon="-5.077219000">
        <ele>200.9</ele>
        <time>2020-10-16T10:57:30Z</time>
      </trkpt>
      <trkpt lat="37.356524000" lon="-5.077316000">
        <ele>201.4</ele>
        <time>2020-10-16T10:57:33Z</time>
      </trkpt>
      <trkpt lat="37.356577000" lon="-5.077406000">
        <ele>201.8</ele>
        <time>2020-10-16T10:57:36Z</time>
      </trkpt>
      <trkpt lat="37.356627000" lon="-5.077497000">
        <ele>202.2</ele>
        <time>2020-10-16T10:57:39Z</time>
      </trkpt>
      <trkpt lat="37.356690000" lon="-5.077605000">
        <ele>202.6</ele>
        <time>2020-10-16T10:57:43Z</time>
      </trkpt>
      <trkpt lat="37.356747000" lon="-5.077704000">
        <ele>203.1</ele>
        <time>2020-10-16T10:57:47Z</time>
      </trkpt>
      <trkpt lat="37.356795000" lon="-5.077792000">
        <ele>203.5</ele>
        <time>2020-10-16T10:57:50Z</time>
      </trkpt>
      <trkpt lat="37.356861000" lon="-5.077891000">
        <ele>204.0</ele>
        <time>2020-10-16T10:57:54Z</time>
      </trkpt>
      <trkpt lat="37.356915000" lon="-5.077971000">
        <ele>204.4</ele>
        <time>2020-10-16T10:57:57Z</time>
      </trkpt>
      <trkpt lat="37.356964000" lon="-5.078052000">
        <ele>204.7</ele>
        <time>2020-10-16T10:58:00Z</time>
      </trkpt>
      <trkpt lat="37.357019000" lon="-5.078131000">
        <ele>205.0</ele>
        <time>2020-10-16T10:58:03Z</time>
      </trkpt>
      <trkpt lat="37.357073000" lon="-5.078208000">
        <ele>205.3</ele>
        <time>2020-10-16T10:58:06Z</time>
      </trkpt>
      <trkpt lat="37.357145000" lon="-5.078307000">
        <ele>205.5</ele>
        <time>2020-10-16T10:58:10Z</time>
      </trkpt>
      <trkpt lat="37.357200000" lon="-5.078383000">
        <ele>205.6</ele>
        <time>2020-10-16T10:58:13Z</time>
      </trkpt>
      <trkpt lat="37.357260000" lon="-5.078466000">
        <ele>205.9</ele>
        <time>2020-10-16T10:58:16Z</time>
      </trkpt>
      <trkpt lat="37.357323000" lon="-5.078551000">
        <ele>206.2</ele>
        <time>2020-10-16T10:58:19Z</time>
      </trkpt>
      <trkpt lat="37.357385000" lon="-5.078648000">
        <ele>206.5</ele>
        <time>2020-10-16T10:58:22Z</time>
      </trkpt>
      <trkpt lat="37.357454000" lon="-5.078738000">
        <ele>206.7</ele>
        <time>2020-10-16T10:58:25Z</time>
      </trkpt>
      <trkpt lat="37.357518000" lon="-5.078833000">
        <ele>206.9</ele>
        <time>2020-10-16T10:58:28Z</time>
      </trkpt>
      <trkpt lat="37.357587000" lon="-5.078926000">
        <ele>207.1</ele>
        <time>2020-10-16T10:58:31Z</time>
      </trkpt>
      <trkpt lat="37.357657000" lon="-5.079018000">
        <ele>207.4</ele>
        <time>2020-10-16T10:58:34Z</time>
      </trkpt>
      <trkpt lat="37.357730000" lon="-5.079109000">
        <ele>207.6</ele>
        <time>2020-10-16T10:58:37Z</time>
      </trkpt>
      <trkpt lat="37.357798000" lon="-5.079207000">
        <ele>207.9</ele>
        <time>2020-10-16T10:58:40Z</time>
      </trkpt>
      <trkpt lat="37.357869000" lon="-5.079304000">
        <ele>208.2</ele>
        <time>2020-10-16T10:58:43Z</time>
      </trkpt>
      <trkpt lat="37.357948000" lon="-5.079400000">
        <ele>208.5</ele>
        <time>2020-10-16T10:58:46Z</time>
      </trkpt>
      <trkpt lat="37.358025000" lon="-5.079498000">
        <ele>208.6</ele>
        <time>2020-10-16T10:58:49Z</time>
      </trkpt>
      <trkpt lat="37.358097000" lon="-5.079598000">
        <ele>208.8</ele>
        <time>2020-10-16T10:58:52Z</time>
      </trkpt>
      <trkpt lat="37.358170000" lon="-5.079693000">
        <ele>209.0</ele>
        <time>2020-10-16T10:58:55Z</time>
      </trkpt>
      <trkpt lat="37.358242000" lon="-5.079790000">
        <ele>209.1</ele>
        <time>2020-10-16T10:58:58Z</time>
      </trkpt>
      <trkpt lat="37.358321000" lon="-5.079878000">
        <ele>209.3</ele>
        <time>2020-10-16T10:59:01Z</time>
      </trkpt>
      <trkpt lat="37.358404000" lon="-5.079957000">
        <ele>209.5</ele>
        <time>2020-10-16T10:59:04Z</time>
      </trkpt>
      <trkpt lat="37.358494000" lon="-5.080026000">
        <ele>209.5</ele>
        <time>2020-10-16T10:59:07Z</time>
      </trkpt>
      <trkpt lat="37.358589000" lon="-5.080098000">
        <ele>209.5</ele>
        <time>2020-10-16T10:59:10Z</time>
      </trkpt>
      <trkpt lat="37.358691000" lon="-5.080179000">
        <ele>209.5</ele>
        <time>2020-10-16T10:59:13Z</time>
      </trkpt>
      <trkpt lat="37.358767000" lon="-5.080231000">
        <ele>209.5</ele>
        <time>2020-10-16T10:59:15Z</time>
      </trkpt>
      <trkpt lat="37.358841000" lon="-5.080289000">
        <ele>209.5</ele>
        <time>2020-10-16T10:59:17Z</time>
      </trkpt>
      <trkpt lat="37.358913000" lon="-5.080354000">
        <ele>209.6</ele>
        <time>2020-10-16T10:59:19Z</time>
      </trkpt>
      <trkpt lat="37.358983000" lon="-5.080426000">
        <ele>209.6</ele>
        <time>2020-10-16T10:59:21Z</time>
      </trkpt>
      <trkpt lat="37.359048000" lon="-5.080503000">
        <ele>209.7</ele>
        <time>2020-10-16T10:59:23Z</time>
      </trkpt>
      <trkpt lat="37.359110000" lon="-5.080584000">
        <ele>209.8</ele>
        <time>2020-10-16T10:59:25Z</time>
      </trkpt>
      <trkpt lat="37.359171000" lon="-5.080669000">
        <ele>209.9</ele>
        <time>2020-10-16T10:59:27Z</time>
      </trkpt>
      <trkpt lat="37.359230000" lon="-5.080756000">
        <ele>210.0</ele>
        <time>2020-10-16T10:59:29Z</time>
      </trkpt>
      <trkpt lat="37.359288000" lon="-5.080836000">
        <ele>210.3</ele>
        <time>2020-10-16T10:59:31Z</time>
      </trkpt>
      <trkpt lat="37.359345000" lon="-5.080918000">
        <ele>210.5</ele>
        <time>2020-10-16T10:59:33Z</time>
      </trkpt>
      <trkpt lat="37.359400000" lon="-5.080999000">
        <ele>210.9</ele>
        <time>2020-10-16T10:59:35Z</time>
      </trkpt>
      <trkpt lat="37.359454000" lon="-5.081081000">
        <ele>211.3</ele>
        <time>2020-10-16T10:59:37Z</time>
      </trkpt>
      <trkpt lat="37.359509000" lon="-5.081162000">
        <ele>211.6</ele>
        <time>2020-10-16T10:59:39Z</time>
      </trkpt>
      <trkpt lat="37.359567000" lon="-5.081239000">
        <ele>212.1</ele>
        <time>2020-10-16T10:59:41Z</time>
      </trkpt>
      <trkpt lat="37.359622000" lon="-5.081313000">
        <ele>212.6</ele>
        <time>2020-10-16T10:59:43Z</time>
      </trkpt>
      <trkpt lat="37.359700000" lon="-5.081425000">
        <ele>213.1</ele>
        <time>2020-10-16T10:59:46Z</time>
      </trkpt>
      <trkpt lat="37.359776000" lon="-5.081537000">
        <ele>213.6</ele>
        <time>2020-10-16T10:59:49Z</time>
      </trkpt>
      <trkpt lat="37.359848000" lon="-5.081649000">
        <ele>214.2</ele>
        <time>2020-10-16T10:59:52Z</time>
      </trkpt>
      <trkpt lat="37.359917000" lon="-5.081747000">
        <ele>214.8</ele>
        <time>2020-10-16T10:59:55Z</time>
      </trkpt>
      <trkpt lat="37.359977000" lon="-5.081844000">
        <ele>215.4</ele>
        <time>2020-10-16T10:59:58Z</time>
      </trkpt>
      <trkpt lat="37.360045000" lon="-5.081934000">
        <ele>215.9</ele>
        <time>2020-10-16T11:00:01Z</time>
      </trkpt>
      <trkpt lat="37.360114000" lon="-5.082032000">
        <ele>216.4</ele>
        <time>2020-10-16T11:00:04Z</time>
      </trkpt>
      <trkpt lat="37.360171000" lon="-5.082117000">
        <ele>216.8</ele>
        <time>2020-10-16T11:00:07Z</time>
      </trkpt>
      <trkpt lat="37.360222000" lon="-5.082198000">
        <ele>217.2</ele>
        <time>2020-10-16T11:00:10Z</time>
      </trkpt>
      <trkpt lat="37.360271000" lon="-5.082282000">
        <ele>217.5</ele>
        <time>2020-10-16T11:00:13Z</time>
      </trkpt>
      <trkpt lat="37.360334000" lon="-5.082375000">
        <ele>217.5</ele>
        <time>2020-10-16T11:00:17Z</time>
      </trkpt>
      <trkpt lat="37.360405000" lon="-5.082479000">
        <ele>217.5</ele>
        <time>2020-10-16T11:00:21Z</time>
      </trkpt>
      <trkpt lat="37.360476000" lon="-5.082581000">
        <ele>217.5</ele>
        <time>2020-10-16T11:00:24Z</time>
      </trkpt>
      <trkpt lat="37.360530000" lon="-5.082661000">
        <ele>217.3</ele>
        <time>2020-10-16T11:00:26Z</time>
      </trkpt>
      <trkpt lat="37.360604000" lon="-5.082766000">
        <ele>216.9</ele>
        <time>2020-10-16T11:00:29Z</time>
      </trkpt>
      <trkpt lat="37.360659000" lon="-5.082847000">
        <ele>216.5</ele>
        <time>2020-10-16T11:00:32Z</time>
      </trkpt>
      <trkpt lat="37.360718000" lon="-5.082930000">
        <ele>216.1</ele>
        <time>2020-10-16T11:00:36Z</time>
      </trkpt>
      <trkpt lat="37.360802000" lon="-5.082932000">
        <ele>215.5</ele>
        <time>2020-10-16T11:00:46Z</time>
      </trkpt>
      <trkpt lat="37.360778000" lon="-5.083038000">
        <ele>214.8</ele>
        <time>2020-10-16T11:06:16Z</time>
      </trkpt>
      <trkpt lat="37.360830000" lon="-5.083126000">
        <ele>213.9</ele>
        <time>2020-10-16T11:06:19Z</time>
      </trkpt>
      <trkpt lat="37.360900000" lon="-5.083209000">
        <ele>212.9</ele>
        <time>2020-10-16T11:06:21Z</time>
      </trkpt>
      <trkpt lat="37.360969000" lon="-5.083305000">
        <ele>211.8</ele>
        <time>2020-10-16T11:06:23Z</time>
      </trkpt>
      <trkpt lat="37.361053000" lon="-5.083427000">
        <ele>210.7</ele>
        <time>2020-10-16T11:06:25Z</time>
      </trkpt>
      <trkpt lat="37.361146000" lon="-5.083560000">
        <ele>209.5</ele>
        <time>2020-10-16T11:06:27Z</time>
      </trkpt>
      <trkpt lat="37.361247000" lon="-5.083710000">
        <ele>208.4</ele>
        <time>2020-10-16T11:06:29Z</time>
      </trkpt>
      <trkpt lat="37.361301000" lon="-5.083794000">
        <ele>207.3</ele>
        <time>2020-10-16T11:06:30Z</time>
      </trkpt>
      <trkpt lat="37.361361000" lon="-5.083878000">
        <ele>206.2</ele>
        <time>2020-10-16T11:06:31Z</time>
      </trkpt>
      <trkpt lat="37.361421000" lon="-5.083966000">
        <ele>205.1</ele>
        <time>2020-10-16T11:06:32Z</time>
      </trkpt>
      <trkpt lat="37.361482000" lon="-5.084056000">
        <ele>204.1</ele>
        <time>2020-10-16T11:06:33Z</time>
      </trkpt>
      <trkpt lat="37.361546000" lon="-5.084150000">
        <ele>203.2</ele>
        <time>2020-10-16T11:06:34Z</time>
      </trkpt>
      <trkpt lat="37.361609000" lon="-5.084241000">
        <ele>202.5</ele>
        <time>2020-10-16T11:06:35Z</time>
      </trkpt>
      <trkpt lat="37.361674000" lon="-5.084334000">
        <ele>201.8</ele>
        <time>2020-10-16T11:06:36Z</time>
      </trkpt>
      <trkpt lat="37.361738000" lon="-5.084427000">
        <ele>201.3</ele>
        <time>2020-10-16T11:06:37Z</time>
      </trkpt>
      <trkpt lat="37.361804000" lon="-5.084522000">
        <ele>200.8</ele>
        <time>2020-10-16T11:06:38Z</time>
      </trkpt>
      <trkpt lat="37.361871000" lon="-5.084617000">
        <ele>200.4</ele>
        <time>2020-10-16T11:06:39Z</time>
      </trkpt>
      <trkpt lat="37.361938000" lon="-5.084710000">
        <ele>200.0</ele>
        <time>2020-10-16T11:06:40Z</time>
      </trkpt>
      <trkpt lat="37.362008000" lon="-5.084807000">
        <ele>199.5</ele>
        <time>2020-10-16T11:06:41Z</time>
      </trkpt>
      <trkpt lat="37.362075000" lon="-5.084909000">
        <ele>199.0</ele>
        <time>2020-10-16T11:06:42Z</time>
      </trkpt>
      <trkpt lat="37.362140000" lon="-5.085004000">
        <ele>198.5</ele>
        <time>2020-10-16T11:06:43Z</time>
      </trkpt>
      <trkpt lat="37.362208000" lon="-5.085097000">
        <ele>197.9</ele>
        <time>2020-10-16T11:06:44Z</time>
      </trkpt>
      <trkpt lat="37.362273000" lon="-5.085192000">
        <ele>197.4</ele>
        <time>2020-10-16T11:06:45Z</time>
      </trkpt>
      <trkpt lat="37.362340000" lon="-5.085291000">
        <ele>196.8</ele>
        <time>2020-10-16T11:06:46Z</time>
      </trkpt>
      <trkpt lat="37.362402000" lon="-5.085390000">
        <ele>196.3</ele>
        <time>2020-10-16T11:06:47Z</time>
      </trkpt>
      <trkpt lat="37.362461000" lon="-5.085492000">
        <ele>195.8</ele>
        <time>2020-10-16T11:06:48Z</time>
      </trkpt>
      <trkpt lat="37.362518000" lon="-5.085591000">
        <ele>195.4</ele>
        <time>2020-10-16T11:06:49Z</time>
      </trkpt>
      <trkpt lat="37.362569000" lon="-5.085692000">
        <ele>195.0</ele>
        <time>2020-10-16T11:06:50Z</time>
      </trkpt>
      <trkpt lat="37.362618000" lon="-5.085791000">
        <ele>194.5</ele>
        <time>2020-10-16T11:06:51Z</time>
      </trkpt>
      <trkpt lat="37.362661000" lon="-5.085890000">
        <ele>194.2</ele>
        <time>2020-10-16T11:06:52Z</time>
      </trkpt>
      <trkpt lat="37.362701000" lon="-5.085989000">
        <ele>193.8</ele>
        <time>2020-10-16T11:06:53Z</time>
      </trkpt>
      <trkpt lat="37.362743000" lon="-5.086089000">
        <ele>193.5</ele>
        <time>2020-10-16T11:06:54Z</time>
      </trkpt>
      <trkpt lat="37.362784000" lon="-5.086184000">
        <ele>193.3</ele>
        <time>2020-10-16T11:06:55Z</time>
      </trkpt>
      <trkpt lat="37.362828000" lon="-5.086285000">
        <ele>193.0</ele>
        <time>2020-10-16T11:06:56Z</time>
      </trkpt>
      <trkpt lat="37.362866000" lon="-5.086383000">
        <ele>192.7</ele>
        <time>2020-10-16T11:06:57Z</time>
      </trkpt>
      <trkpt lat="37.362909000" lon="-5.086475000">
        <ele>192.5</ele>
        <time>2020-10-16T11:06:58Z</time>
      </trkpt>
      <trkpt lat="37.362951000" lon="-5.086574000">
        <ele>192.2</ele>
        <time>2020-10-16T11:06:59Z</time>
      </trkpt>
      <trkpt lat="37.362992000" lon="-5.086670000">
        <ele>191.9</ele>
        <time>2020-10-16T11:07:00Z</time>
      </trkpt>
      <trkpt lat="37.363033000" lon="-5.086767000">
        <ele>191.5</ele>
        <time>2020-10-16T11:07:01Z</time>
      </trkpt>
      <trkpt lat="37.363073000" lon="-5.086861000">
        <ele>191.2</ele>
        <time>2020-10-16T11:07:02Z</time>
      </trkpt>
      <trkpt lat="37.363111000" lon="-5.086952000">
        <ele>190.8</ele>
        <time>2020-10-16T11:07:03Z</time>
      </trkpt>
      <trkpt lat="37.363152000" lon="-5.087047000">
        <ele>190.5</ele>
        <time>2020-10-16T11:07:04Z</time>
      </trkpt>
      <trkpt lat="37.363189000" lon="-5.087141000">
        <ele>190.1</ele>
        <time>2020-10-16T11:07:05Z</time>
      </trkpt>
      <trkpt lat="37.363230000" lon="-5.087232000">
        <ele>189.7</ele>
        <time>2020-10-16T11:07:06Z</time>
      </trkpt>
      <trkpt lat="37.363306000" lon="-5.087411000">
        <ele>189.4</ele>
        <time>2020-10-16T11:07:08Z</time>
      </trkpt>
      <trkpt lat="37.363383000" lon="-5.087593000">
        <ele>189.0</ele>
        <time>2020-10-16T11:07:10Z</time>
      </trkpt>
      <trkpt lat="37.363421000" lon="-5.087685000">
        <ele>188.5</ele>
        <time>2020-10-16T11:07:11Z</time>
      </trkpt>
      <trkpt lat="37.363499000" lon="-5.087862000">
        <ele>188.0</ele>
        <time>2020-10-16T11:07:13Z</time>
      </trkpt>
      <trkpt lat="37.363577000" lon="-5.088039000">
        <ele>187.5</ele>
        <time>2020-10-16T11:07:15Z</time>
      </trkpt>
      <trkpt lat="37.363620000" lon="-5.088128000">
        <ele>186.9</ele>
        <time>2020-10-16T11:07:16Z</time>
      </trkpt>
      <trkpt lat="37.363662000" lon="-5.088215000">
        <ele>186.5</ele>
        <time>2020-10-16T11:07:17Z</time>
      </trkpt>
      <trkpt lat="37.363707000" lon="-5.088302000">
        <ele>186.0</ele>
        <time>2020-10-16T11:07:18Z</time>
      </trkpt>
      <trkpt lat="37.363755000" lon="-5.088386000">
        <ele>185.6</ele>
        <time>2020-10-16T11:07:19Z</time>
      </trkpt>
      <trkpt lat="37.363803000" lon="-5.088472000">
        <ele>185.3</ele>
        <time>2020-10-16T11:07:20Z</time>
      </trkpt>
      <trkpt lat="37.363852000" lon="-5.088558000">
        <ele>184.9</ele>
        <time>2020-10-16T11:07:21Z</time>
      </trkpt>
      <trkpt lat="37.363902000" lon="-5.088640000">
        <ele>184.6</ele>
        <time>2020-10-16T11:07:22Z</time>
      </trkpt>
      <trkpt lat="37.363957000" lon="-5.088722000">
        <ele>184.4</ele>
        <time>2020-10-16T11:07:23Z</time>
      </trkpt>
      <trkpt lat="37.364015000" lon="-5.088802000">
        <ele>184.2</ele>
        <time>2020-10-16T11:07:24Z</time>
      </trkpt>
      <trkpt lat="37.364074000" lon="-5.088881000">
        <ele>184.0</ele>
        <time>2020-10-16T11:07:25Z</time>
      </trkpt>
      <trkpt lat="37.364138000" lon="-5.088958000">
        <ele>183.8</ele>
        <time>2020-10-16T11:07:26Z</time>
      </trkpt>
      <trkpt lat="37.364204000" lon="-5.089030000">
        <ele>183.6</ele>
        <time>2020-10-16T11:07:27Z</time>
      </trkpt>
      <trkpt lat="37.364273000" lon="-5.089105000">
        <ele>183.5</ele>
        <time>2020-10-16T11:07:28Z</time>
      </trkpt>
      <trkpt lat="37.364344000" lon="-5.089177000">
        <ele>183.3</ele>
        <time>2020-10-16T11:07:29Z</time>
      </trkpt>
      <trkpt lat="37.364415000" lon="-5.089249000">
        <ele>183.0</ele>
        <time>2020-10-16T11:07:30Z</time>
      </trkpt>
      <trkpt lat="37.364485000" lon="-5.089316000">
        <ele>182.7</ele>
        <time>2020-10-16T11:07:31Z</time>
      </trkpt>
      <trkpt lat="37.364556000" lon="-5.089388000">
        <ele>182.5</ele>
        <time>2020-10-16T11:07:32Z</time>
      </trkpt>
      <trkpt lat="37.364628000" lon="-5.089455000">
        <ele>182.2</ele>
        <time>2020-10-16T11:07:33Z</time>
      </trkpt>
      <trkpt lat="37.364700000" lon="-5.089524000">
        <ele>181.9</ele>
        <time>2020-10-16T11:07:34Z</time>
      </trkpt>
      <trkpt lat="37.364772000" lon="-5.089589000">
        <ele>181.6</ele>
        <time>2020-10-16T11:07:35Z</time>
      </trkpt>
      <trkpt lat="37.364840000" lon="-5.089657000">
        <ele>181.4</ele>
        <time>2020-10-16T11:07:36Z</time>
      </trkpt>
      <trkpt lat="37.364912000" lon="-5.089725000">
        <ele>181.0</ele>
        <time>2020-10-16T11:07:37Z</time>
      </trkpt>
      <trkpt lat="37.364980000" lon="-5.089792000">
        <ele>180.7</ele>
        <time>2020-10-16T11:07:38Z</time>
      </trkpt>
      <trkpt lat="37.365048000" lon="-5.089859000">
        <ele>180.5</ele>
        <time>2020-10-16T11:07:39Z</time>
      </trkpt>
      <trkpt lat="37.365116000" lon="-5.089920000">
        <ele>180.2</ele>
        <time>2020-10-16T11:07:40Z</time>
      </trkpt>
      <trkpt lat="37.365241000" lon="-5.090043000">
        <ele>180.0</ele>
        <time>2020-10-16T11:07:42Z</time>
      </trkpt>
      <trkpt lat="37.365363000" lon="-5.090158000">
        <ele>179.8</ele>
        <time>2020-10-16T11:07:44Z</time>
      </trkpt>
      <trkpt lat="37.365479000" lon="-5.090268000">
        <ele>179.6</ele>
        <time>2020-10-16T11:07:46Z</time>
      </trkpt>
      <trkpt lat="37.365589000" lon="-5.090371000">
        <ele>179.5</ele>
        <time>2020-10-16T11:07:48Z</time>
      </trkpt>
      <trkpt lat="37.365692000" lon="-5.090471000">
        <ele>179.3</ele>
        <time>2020-10-16T11:07:50Z</time>
      </trkpt>
      <trkpt lat="37.365792000" lon="-5.090563000">
        <ele>179.2</ele>
        <time>2020-10-16T11:07:52Z</time>
      </trkpt>
      <trkpt lat="37.365891000" lon="-5.090656000">
        <ele>179.2</ele>
        <time>2020-10-16T11:07:54Z</time>
      </trkpt>
      <trkpt lat="37.365989000" lon="-5.090750000">
        <ele>179.3</ele>
        <time>2020-10-16T11:07:56Z</time>
      </trkpt>
      <trkpt lat="37.366084000" lon="-5.090840000">
        <ele>179.4</ele>
        <time>2020-10-16T11:07:58Z</time>
      </trkpt>
      <trkpt lat="37.366174000" lon="-5.090928000">
        <ele>179.5</ele>
        <time>2020-10-16T11:08:00Z</time>
      </trkpt>
      <trkpt lat="37.366263000" lon="-5.091009000">
        <ele>179.7</ele>
        <time>2020-10-16T11:08:02Z</time>
      </trkpt>
      <trkpt lat="37.366347000" lon="-5.091089000">
        <ele>180.0</ele>
        <time>2020-10-16T11:08:04Z</time>
      </trkpt>
      <trkpt lat="37.366429000" lon="-5.091164000">
        <ele>180.3</ele>
        <time>2020-10-16T11:08:06Z</time>
      </trkpt>
      <trkpt lat="37.366507000" lon="-5.091236000">
        <ele>180.6</ele>
        <time>2020-10-16T11:08:08Z</time>
      </trkpt>
      <trkpt lat="37.366576000" lon="-5.091312000">
        <ele>181.0</ele>
        <time>2020-10-16T11:08:10Z</time>
      </trkpt>
      <trkpt lat="37.366648000" lon="-5.091376000">
        <ele>181.5</ele>
        <time>2020-10-16T11:08:12Z</time>
      </trkpt>
      <trkpt lat="37.366744000" lon="-5.091467000">
        <ele>181.8</ele>
        <time>2020-10-16T11:08:15Z</time>
      </trkpt>
      <trkpt lat="37.366831000" lon="-5.091558000">
        <ele>182.3</ele>
        <time>2020-10-16T11:08:18Z</time>
      </trkpt>
      <trkpt lat="37.366917000" lon="-5.091636000">
        <ele>182.7</ele>
        <time>2020-10-16T11:08:21Z</time>
      </trkpt>
      <trkpt lat="37.366993000" lon="-5.091720000">
        <ele>183.3</ele>
        <time>2020-10-16T11:08:24Z</time>
      </trkpt>
      <trkpt lat="37.367072000" lon="-5.091789000">
        <ele>183.7</ele>
        <time>2020-10-16T11:08:27Z</time>
      </trkpt>
      <trkpt lat="37.367141000" lon="-5.091871000">
        <ele>184.3</ele>
        <time>2020-10-16T11:08:30Z</time>
      </trkpt>
      <trkpt lat="37.367203000" lon="-5.091954000">
        <ele>184.8</ele>
        <time>2020-10-16T11:08:33Z</time>
      </trkpt>
      <trkpt lat="37.367267000" lon="-5.092025000">
        <ele>185.5</ele>
        <time>2020-10-16T11:08:36Z</time>
      </trkpt>
      <trkpt lat="37.367325000" lon="-5.092104000">
        <ele>186.0</ele>
        <time>2020-10-16T11:08:39Z</time>
      </trkpt>
      <trkpt lat="37.367377000" lon="-5.092190000">
        <ele>186.5</ele>
        <time>2020-10-16T11:08:42Z</time>
      </trkpt>
      <trkpt lat="37.367435000" lon="-5.092268000">
        <ele>187.1</ele>
        <time>2020-10-16T11:08:45Z</time>
      </trkpt>
      <trkpt lat="37.367488000" lon="-5.092351000">
        <ele>187.6</ele>
        <time>2020-10-16T11:08:48Z</time>
      </trkpt>
      <trkpt lat="37.367540000" lon="-5.092434000">
        <ele>188.1</ele>
        <time>2020-10-16T11:08:51Z</time>
      </trkpt>
      <trkpt lat="37.367590000" lon="-5.092516000">
        <ele>188.5</ele>
        <time>2020-10-16T11:08:54Z</time>
      </trkpt>
      <trkpt lat="37.367645000" lon="-5.092602000">
        <ele>189.0</ele>
        <time>2020-10-16T11:08:57Z</time>
      </trkpt>
      <trkpt lat="37.367696000" lon="-5.092689000">
        <ele>189.5</ele>
        <time>2020-10-16T11:09:00Z</time>
      </trkpt>
      <trkpt lat="37.367748000" lon="-5.092773000">
        <ele>189.9</ele>
        <time>2020-10-16T11:09:03Z</time>
      </trkpt>
      <trkpt lat="37.367802000" lon="-5.092854000">
        <ele>190.3</ele>
        <time>2020-10-16T11:09:06Z</time>
      </trkpt>
      <trkpt lat="37.367853000" lon="-5.092942000">
        <ele>190.6</ele>
        <time>2020-10-16T11:09:09Z</time>
      </trkpt>
      <trkpt lat="37.367909000" lon="-5.093030000">
        <ele>191.0</ele>
        <time>2020-10-16T11:09:12Z</time>
      </trkpt>
      <trkpt lat="37.367963000" lon="-5.093127000">
        <ele>191.4</ele>
        <time>2020-10-16T11:09:15Z</time>
      </trkpt>
      <trkpt lat="37.368020000" lon="-5.093220000">
        <ele>191.7</ele>
        <time>2020-10-16T11:09:18Z</time>
      </trkpt>
      <trkpt lat="37.368071000" lon="-5.093311000">
        <ele>192.1</ele>
        <time>2020-10-16T11:09:21Z</time>
      </trkpt>
      <trkpt lat="37.368125000" lon="-5.093408000">
        <ele>192.5</ele>
        <time>2020-10-16T11:09:24Z</time>
      </trkpt>
      <trkpt lat="37.368185000" lon="-5.093496000">
        <ele>192.8</ele>
        <time>2020-10-16T11:09:27Z</time>
      </trkpt>
      <trkpt lat="37.368240000" lon="-5.093594000">
        <ele>193.1</ele>
        <time>2020-10-16T11:09:30Z</time>
      </trkpt>
      <trkpt lat="37.368290000" lon="-5.093689000">
        <ele>193.5</ele>
        <time>2020-10-16T11:09:33Z</time>
      </trkpt>
      <trkpt lat="37.368338000" lon="-5.093782000">
        <ele>193.7</ele>
        <time>2020-10-16T11:09:36Z</time>
      </trkpt>
      <trkpt lat="37.368391000" lon="-5.093878000">
        <ele>194.0</ele>
        <time>2020-10-16T11:09:39Z</time>
      </trkpt>
      <trkpt lat="37.368446000" lon="-5.093974000">
        <ele>194.2</ele>
        <time>2020-10-16T11:09:42Z</time>
      </trkpt>
      <trkpt lat="37.368501000" lon="-5.094071000">
        <ele>194.3</ele>
        <time>2020-10-16T11:09:45Z</time>
      </trkpt>
      <trkpt lat="37.368556000" lon="-5.094172000">
        <ele>194.4</ele>
        <time>2020-10-16T11:09:48Z</time>
      </trkpt>
      <trkpt lat="37.368613000" lon="-5.094271000">
        <ele>194.4</ele>
        <time>2020-10-16T11:09:51Z</time>
      </trkpt>
      <trkpt lat="37.368674000" lon="-5.094371000">
        <ele>194.4</ele>
        <time>2020-10-16T11:09:54Z</time>
      </trkpt>
      <trkpt lat="37.368736000" lon="-5.094477000">
        <ele>194.4</ele>
        <time>2020-10-16T11:09:57Z</time>
      </trkpt>
      <trkpt lat="37.368798000" lon="-5.094594000">
        <ele>194.5</ele>
        <time>2020-10-16T11:10:00Z</time>
      </trkpt>
      <trkpt lat="37.368867000" lon="-5.094716000">
        <ele>194.6</ele>
        <time>2020-10-16T11:10:03Z</time>
      </trkpt>
      <trkpt lat="37.368938000" lon="-5.094838000">
        <ele>194.8</ele>
        <time>2020-10-16T11:10:06Z</time>
      </trkpt>
      <trkpt lat="37.369006000" lon="-5.094964000">
        <ele>195.1</ele>
        <time>2020-10-16T11:10:09Z</time>
      </trkpt>
      <trkpt lat="37.369075000" lon="-5.095089000">
        <ele>195.5</ele>
        <time>2020-10-16T11:10:12Z</time>
      </trkpt>
      <trkpt lat="37.369145000" lon="-5.095213000">
        <ele>195.9</ele>
        <time>2020-10-16T11:10:15Z</time>
      </trkpt>
      <trkpt lat="37.369210000" lon="-5.095337000">
        <ele>196.5</ele>
        <time>2020-10-16T11:10:18Z</time>
      </trkpt>
      <trkpt lat="37.369274000" lon="-5.095461000">
        <ele>197.1</ele>
        <time>2020-10-16T11:10:21Z</time>
      </trkpt>
      <trkpt lat="37.369336000" lon="-5.095581000">
        <ele>197.7</ele>
        <time>2020-10-16T11:10:24Z</time>
      </trkpt>
      <trkpt lat="37.369399000" lon="-5.095699000">
        <ele>198.4</ele>
        <time>2020-10-16T11:10:27Z</time>
      </trkpt>
      <trkpt lat="37.369467000" lon="-5.095814000">
        <ele>199.0</ele>
        <time>2020-10-16T11:10:30Z</time>
      </trkpt>
      <trkpt lat="37.369532000" lon="-5.095933000">
        <ele>199.5</ele>
        <time>2020-10-16T11:10:33Z</time>
      </trkpt>
      <trkpt lat="37.369606000" lon="-5.096052000">
        <ele>199.8</ele>
        <time>2020-10-16T11:10:36Z</time>
      </trkpt>
      <trkpt lat="37.369660000" lon="-5.096130000">
        <ele>200.1</ele>
        <time>2020-10-16T11:10:38Z</time>
      </trkpt>
      <trkpt lat="37.369715000" lon="-5.096211000">
        <ele>200.2</ele>
        <time>2020-10-16T11:10:40Z</time>
      </trkpt>
      <trkpt lat="37.369769000" lon="-5.096294000">
        <ele>200.2</ele>
        <time>2020-10-16T11:10:42Z</time>
      </trkpt>
      <trkpt lat="37.369824000" lon="-5.096372000">
        <ele>200.1</ele>
        <time>2020-10-16T11:10:44Z</time>
      </trkpt>
      <trkpt lat="37.369877000" lon="-5.096453000">
        <ele>200.0</ele>
        <time>2020-10-16T11:10:46Z</time>
      </trkpt>
      <trkpt lat="37.369932000" lon="-5.096531000">
        <ele>199.8</ele>
        <time>2020-10-16T11:10:48Z</time>
      </trkpt>
      <trkpt lat="37.369988000" lon="-5.096606000">
        <ele>199.6</ele>
        <time>2020-10-16T11:10:50Z</time>
      </trkpt>
      <trkpt lat="37.370046000" lon="-5.096678000">
        <ele>199.4</ele>
        <time>2020-10-16T11:10:52Z</time>
      </trkpt>
      <trkpt lat="37.370103000" lon="-5.096752000">
        <ele>199.0</ele>
        <time>2020-10-16T11:10:54Z</time>
      </trkpt>
      <trkpt lat="37.370160000" lon="-5.096826000">
        <ele>198.6</ele>
        <time>2020-10-16T11:10:56Z</time>
      </trkpt>
      <trkpt lat="37.370219000" lon="-5.096902000">
        <ele>198.2</ele>
        <time>2020-10-16T11:10:58Z</time>
      </trkpt>
      <trkpt lat="37.370280000" lon="-5.096982000">
        <ele>197.7</ele>
        <time>2020-10-16T11:11:00Z</time>
      </trkpt>
      <trkpt lat="37.370340000" lon="-5.097071000">
        <ele>197.4</ele>
        <time>2020-10-16T11:11:02Z</time>
      </trkpt>
      <trkpt lat="37.370404000" lon="-5.097160000">
        <ele>196.9</ele>
        <time>2020-10-16T11:11:04Z</time>
      </trkpt>
      <trkpt lat="37.370478000" lon="-5.097255000">
        <ele>196.4</ele>
        <time>2020-10-16T11:11:06Z</time>
      </trkpt>
      <trkpt lat="37.370561000" lon="-5.097366000">
        <ele>195.7</ele>
        <time>2020-10-16T11:11:08Z</time>
      </trkpt>
      <trkpt lat="37.370643000" lon="-5.097488000">
        <ele>195.1</ele>
        <time>2020-10-16T11:11:10Z</time>
      </trkpt>
      <trkpt lat="37.370736000" lon="-5.097617000">
        <ele>194.4</ele>
        <time>2020-10-16T11:11:12Z</time>
      </trkpt>
      <trkpt lat="37.370835000" lon="-5.097754000">
        <ele>193.7</ele>
        <time>2020-10-16T11:11:14Z</time>
      </trkpt>
      <trkpt lat="37.370936000" lon="-5.097892000">
        <ele>193.2</ele>
        <time>2020-10-16T11:11:16Z</time>
      </trkpt>
      <trkpt lat="37.371045000" lon="-5.098041000">
        <ele>192.7</ele>
        <time>2020-10-16T11:11:18Z</time>
      </trkpt>
      <trkpt lat="37.371101000" lon="-5.098117000">
        <ele>192.3</ele>
        <time>2020-10-16T11:11:19Z</time>
      </trkpt>
      <trkpt lat="37.371161000" lon="-5.098194000">
        <ele>191.7</ele>
        <time>2020-10-16T11:11:20Z</time>
      </trkpt>
      <trkpt lat="37.371222000" lon="-5.098275000">
        <ele>191.1</ele>
        <time>2020-10-16T11:11:21Z</time>
      </trkpt>
      <trkpt lat="37.371283000" lon="-5.098354000">
        <ele>190.5</ele>
        <time>2020-10-16T11:11:22Z</time>
      </trkpt>
      <trkpt lat="37.371346000" lon="-5.098439000">
        <ele>189.8</ele>
        <time>2020-10-16T11:11:23Z</time>
      </trkpt>
      <trkpt lat="37.371410000" lon="-5.098523000">
        <ele>189.2</ele>
        <time>2020-10-16T11:11:24Z</time>
      </trkpt>
      <trkpt lat="37.371475000" lon="-5.098609000">
        <ele>188.5</ele>
        <time>2020-10-16T11:11:25Z</time>
      </trkpt>
      <trkpt lat="37.371537000" lon="-5.098697000">
        <ele>187.7</ele>
        <time>2020-10-16T11:11:26Z</time>
      </trkpt>
      <trkpt lat="37.371604000" lon="-5.098785000">
        <ele>187.0</ele>
        <time>2020-10-16T11:11:27Z</time>
      </trkpt>
      <trkpt lat="37.371670000" lon="-5.098873000">
        <ele>186.3</ele>
        <time>2020-10-16T11:11:28Z</time>
      </trkpt>
      <trkpt lat="37.371737000" lon="-5.098963000">
        <ele>185.5</ele>
        <time>2020-10-16T11:11:29Z</time>
      </trkpt>
      <trkpt lat="37.371805000" lon="-5.099055000">
        <ele>184.8</ele>
        <time>2020-10-16T11:11:30Z</time>
      </trkpt>
      <trkpt lat="37.371874000" lon="-5.099148000">
        <ele>184.1</ele>
        <time>2020-10-16T11:11:31Z</time>
      </trkpt>
      <trkpt lat="37.371941000" lon="-5.099239000">
        <ele>183.5</ele>
        <time>2020-10-16T11:11:32Z</time>
      </trkpt>
      <trkpt lat="37.372009000" lon="-5.099333000">
        <ele>182.8</ele>
        <time>2020-10-16T11:11:33Z</time>
      </trkpt>
      <trkpt lat="37.372076000" lon="-5.099427000">
        <ele>182.3</ele>
        <time>2020-10-16T11:11:34Z</time>
      </trkpt>
      <trkpt lat="37.372147000" lon="-5.099524000">
        <ele>181.7</ele>
        <time>2020-10-16T11:11:35Z</time>
      </trkpt>
      <trkpt lat="37.372215000" lon="-5.099621000">
        <ele>181.3</ele>
        <time>2020-10-16T11:11:36Z</time>
      </trkpt>
      <trkpt lat="37.372284000" lon="-5.099715000">
        <ele>180.9</ele>
        <time>2020-10-16T11:11:37Z</time>
      </trkpt>
      <trkpt lat="37.372353000" lon="-5.099810000">
        <ele>180.5</ele>
        <time>2020-10-16T11:11:38Z</time>
      </trkpt>
      <trkpt lat="37.372421000" lon="-5.099904000">
        <ele>180.2</ele>
        <time>2020-10-16T11:11:39Z</time>
      </trkpt>
      <trkpt lat="37.372491000" lon="-5.100000000">
        <ele>179.8</ele>
        <time>2020-10-16T11:11:40Z</time>
      </trkpt>
      <trkpt lat="37.372556000" lon="-5.100098000">
        <ele>179.5</ele>
        <time>2020-10-16T11:11:41Z</time>
      </trkpt>
      <trkpt lat="37.372625000" lon="-5.100192000">
        <ele>179.4</ele>
        <time>2020-10-16T11:11:42Z</time>
      </trkpt>
      <trkpt lat="37.372691000" lon="-5.100279000">
        <ele>179.1</ele>
        <time>2020-10-16T11:11:43Z</time>
      </trkpt>
      <trkpt lat="37.372758000" lon="-5.100371000">
        <ele>178.8</ele>
        <time>2020-10-16T11:11:44Z</time>
      </trkpt>
      <trkpt lat="37.372822000" lon="-5.100461000">
        <ele>178.5</ele>
        <time>2020-10-16T11:11:45Z</time>
      </trkpt>
      <trkpt lat="37.372886000" lon="-5.100548000">
        <ele>178.2</ele>
        <time>2020-10-16T11:11:46Z</time>
      </trkpt>
      <trkpt lat="37.372946000" lon="-5.100635000">
        <ele>177.8</ele>
        <time>2020-10-16T11:11:47Z</time>
      </trkpt>
      <trkpt lat="37.373009000" lon="-5.100720000">
        <ele>177.4</ele>
        <time>2020-10-16T11:11:48Z</time>
      </trkpt>
      <trkpt lat="37.373069000" lon="-5.100801000">
        <ele>176.9</ele>
        <time>2020-10-16T11:11:49Z</time>
      </trkpt>
      <trkpt lat="37.373129000" lon="-5.100884000">
        <ele>176.5</ele>
        <time>2020-10-16T11:11:50Z</time>
      </trkpt>
      <trkpt lat="37.373194000" lon="-5.100969000">
        <ele>176.0</ele>
        <time>2020-10-16T11:11:51Z</time>
      </trkpt>
      <trkpt lat="37.373260000" lon="-5.101050000">
        <ele>175.5</ele>
        <time>2020-10-16T11:11:52Z</time>
      </trkpt>
      <trkpt lat="37.373326000" lon="-5.101130000">
        <ele>175.2</ele>
        <time>2020-10-16T11:11:53Z</time>
      </trkpt>
      <trkpt lat="37.373391000" lon="-5.101211000">
        <ele>174.9</ele>
        <time>2020-10-16T11:11:54Z</time>
      </trkpt>
      <trkpt lat="37.373457000" lon="-5.101290000">
        <ele>174.7</ele>
        <time>2020-10-16T11:11:55Z</time>
      </trkpt>
      <trkpt lat="37.373523000" lon="-5.101364000">
        <ele>174.5</ele>
        <time>2020-10-16T11:11:56Z</time>
      </trkpt>
      <trkpt lat="37.373587000" lon="-5.101439000">
        <ele>174.4</ele>
        <time>2020-10-16T11:11:57Z</time>
      </trkpt>
      <trkpt lat="37.373652000" lon="-5.101513000">
        <ele>174.3</ele>
        <time>2020-10-16T11:11:58Z</time>
      </trkpt>
      <trkpt lat="37.373718000" lon="-5.101588000">
        <ele>174.2</ele>
        <time>2020-10-16T11:11:59Z</time>
      </trkpt>
      <trkpt lat="37.373784000" lon="-5.101662000">
        <ele>174.1</ele>
        <time>2020-10-16T11:12:00Z</time>
      </trkpt>
      <trkpt lat="37.373849000" lon="-5.101736000">
        <ele>173.9</ele>
        <time>2020-10-16T11:12:01Z</time>
      </trkpt>
      <trkpt lat="37.373916000" lon="-5.101812000">
        <ele>173.7</ele>
        <time>2020-10-16T11:12:02Z</time>
      </trkpt>
      <trkpt lat="37.373983000" lon="-5.101887000">
        <ele>173.5</ele>
        <time>2020-10-16T11:12:03Z</time>
      </trkpt>
      <trkpt lat="37.374049000" lon="-5.101964000">
        <ele>173.3</ele>
        <time>2020-10-16T11:12:04Z</time>
      </trkpt>
      <trkpt lat="37.374114000" lon="-5.102039000">
        <ele>172.9</ele>
        <time>2020-10-16T11:12:05Z</time>
      </trkpt>
      <trkpt lat="37.374183000" lon="-5.102118000">
        <ele>172.5</ele>
        <time>2020-10-16T11:12:06Z</time>
      </trkpt>
      <trkpt lat="37.374249000" lon="-5.102198000">
        <ele>172.1</ele>
        <time>2020-10-16T11:12:07Z</time>
      </trkpt>
      <trkpt lat="37.374316000" lon="-5.102273000">
        <ele>171.6</ele>
        <time>2020-10-16T11:12:08Z</time>
      </trkpt>
      <trkpt lat="37.374382000" lon="-5.102351000">
        <ele>171.1</ele>
        <time>2020-10-16T11:12:09Z</time>
      </trkpt>
      <trkpt lat="37.374450000" lon="-5.102427000">
        <ele>170.6</ele>
        <time>2020-10-16T11:12:10Z</time>
      </trkpt>
      <trkpt lat="37.374515000" lon="-5.102504000">
        <ele>170.2</ele>
        <time>2020-10-16T11:12:11Z</time>
      </trkpt>
      <trkpt lat="37.374581000" lon="-5.102580000">
        <ele>169.7</ele>
        <time>2020-10-16T11:12:12Z</time>
      </trkpt>
      <trkpt lat="37.374648000" lon="-5.102656000">
        <ele>169.3</ele>
        <time>2020-10-16T11:12:13Z</time>
      </trkpt>
      <trkpt lat="37.374715000" lon="-5.102732000">
        <ele>168.8</ele>
        <time>2020-10-16T11:12:14Z</time>
      </trkpt>
      <trkpt lat="37.374780000" lon="-5.102807000">
        <ele>168.4</ele>
        <time>2020-10-16T11:12:15Z</time>
      </trkpt>
      <trkpt lat="37.374846000" lon="-5.102884000">
        <ele>168.1</ele>
        <time>2020-10-16T11:12:16Z</time>
      </trkpt>
      <trkpt lat="37.374912000" lon="-5.102958000">
        <ele>167.9</ele>
        <time>2020-10-16T11:12:17Z</time>
      </trkpt>
      <trkpt lat="37.374978000" lon="-5.103032000">
        <ele>167.7</ele>
        <time>2020-10-16T11:12:18Z</time>
      </trkpt>
      <trkpt lat="37.375044000" lon="-5.103102000">
        <ele>167.6</ele>
        <time>2020-10-16T11:12:19Z</time>
      </trkpt>
      <trkpt lat="37.375104000" lon="-5.103175000">
        <ele>167.6</ele>
        <time>2020-10-16T11:12:20Z</time>
      </trkpt>
      <trkpt lat="37.375163000" lon="-5.103245000">
        <ele>167.6</ele>
        <time>2020-10-16T11:12:21Z</time>
      </trkpt>
      <trkpt lat="37.375220000" lon="-5.103317000">
        <ele>167.6</ele>
        <time>2020-10-16T11:12:22Z</time>
      </trkpt>
      <trkpt lat="37.375277000" lon="-5.103391000">
        <ele>167.7</ele>
        <time>2020-10-16T11:12:23Z</time>
      </trkpt>
      <trkpt lat="37.375377000" lon="-5.103545000">
        <ele>167.9</ele>
        <time>2020-10-16T11:12:25Z</time>
      </trkpt>
      <trkpt lat="37.375463000" lon="-5.103695000">
        <ele>168.2</ele>
        <time>2020-10-16T11:12:27Z</time>
      </trkpt>
      <trkpt lat="37.375543000" lon="-5.103851000">
        <ele>168.5</ele>
        <time>2020-10-16T11:12:29Z</time>
      </trkpt>
      <trkpt lat="37.375618000" lon="-5.103997000">
        <ele>168.6</ele>
        <time>2020-10-16T11:12:31Z</time>
      </trkpt>
      <trkpt lat="37.375693000" lon="-5.104136000">
        <ele>168.8</ele>
        <time>2020-10-16T11:12:33Z</time>
      </trkpt>
      <trkpt lat="37.375756000" lon="-5.104265000">
        <ele>168.9</ele>
        <time>2020-10-16T11:12:35Z</time>
      </trkpt>
      <trkpt lat="37.375814000" lon="-5.104389000">
        <ele>169.0</ele>
        <time>2020-10-16T11:12:37Z</time>
      </trkpt>
      <trkpt lat="37.375873000" lon="-5.104502000">
        <ele>169.1</ele>
        <time>2020-10-16T11:12:39Z</time>
      </trkpt>
      <trkpt lat="37.375922000" lon="-5.104604000">
        <ele>169.2</ele>
        <time>2020-10-16T11:12:41Z</time>
      </trkpt>
      <trkpt lat="37.375968000" lon="-5.104699000">
        <ele>169.4</ele>
        <time>2020-10-16T11:12:43Z</time>
      </trkpt>
      <trkpt lat="37.376012000" lon="-5.104793000">
        <ele>169.5</ele>
        <time>2020-10-16T11:12:45Z</time>
      </trkpt>
      <trkpt lat="37.376057000" lon="-5.104883000">
        <ele>169.7</ele>
        <time>2020-10-16T11:12:47Z</time>
      </trkpt>
      <trkpt lat="37.376098000" lon="-5.104971000">
        <ele>169.8</ele>
        <time>2020-10-16T11:12:49Z</time>
      </trkpt>
      <trkpt lat="37.376156000" lon="-5.105101000">
        <ele>169.9</ele>
        <time>2020-10-16T11:12:52Z</time>
      </trkpt>
      <trkpt lat="37.376212000" lon="-5.105217000">
        <ele>170.1</ele>
        <time>2020-10-16T11:12:55Z</time>
      </trkpt>
      <trkpt lat="37.376268000" lon="-5.105328000">
        <ele>170.3</ele>
        <time>2020-10-16T11:12:58Z</time>
      </trkpt>
      <trkpt lat="37.376319000" lon="-5.105441000">
        <ele>170.6</ele>
        <time>2020-10-16T11:13:01Z</time>
      </trkpt>
      <trkpt lat="37.376374000" lon="-5.105555000">
        <ele>171.0</ele>
        <time>2020-10-16T11:13:04Z</time>
      </trkpt>
      <trkpt lat="37.376432000" lon="-5.105677000">
        <ele>171.4</ele>
        <time>2020-10-16T11:13:07Z</time>
      </trkpt>
      <trkpt lat="37.376490000" lon="-5.105804000">
        <ele>171.6</ele>
        <time>2020-10-16T11:13:10Z</time>
      </trkpt>
      <trkpt lat="37.376550000" lon="-5.105935000">
        <ele>171.8</ele>
        <time>2020-10-16T11:13:13Z</time>
      </trkpt>
      <trkpt lat="37.376613000" lon="-5.106064000">
        <ele>171.9</ele>
        <time>2020-10-16T11:13:16Z</time>
      </trkpt>
      <trkpt lat="37.376654000" lon="-5.106152000">
        <ele>171.9</ele>
        <time>2020-10-16T11:13:18Z</time>
      </trkpt>
      <trkpt lat="37.376689000" lon="-5.106245000">
        <ele>171.9</ele>
        <time>2020-10-16T11:13:20Z</time>
      </trkpt>
      <trkpt lat="37.376726000" lon="-5.106340000">
        <ele>171.9</ele>
        <time>2020-10-16T11:13:22Z</time>
      </trkpt>
      <trkpt lat="37.376759000" lon="-5.106442000">
        <ele>171.8</ele>
        <time>2020-10-16T11:13:24Z</time>
      </trkpt>
      <trkpt lat="37.376789000" lon="-5.106554000">
        <ele>171.7</ele>
        <time>2020-10-16T11:13:26Z</time>
      </trkpt>
      <trkpt lat="37.376819000" lon="-5.106662000">
        <ele>171.5</ele>
        <time>2020-10-16T11:13:28Z</time>
      </trkpt>
      <trkpt lat="37.376847000" lon="-5.106769000">
        <ele>171.4</ele>
        <time>2020-10-16T11:13:30Z</time>
      </trkpt>
      <trkpt lat="37.376869000" lon="-5.106881000">
        <ele>171.2</ele>
        <time>2020-10-16T11:13:32Z</time>
      </trkpt>
      <trkpt lat="37.376890000" lon="-5.106992000">
        <ele>171.1</ele>
        <time>2020-10-16T11:13:34Z</time>
      </trkpt>
      <trkpt lat="37.376921000" lon="-5.107101000">
        <ele>170.9</ele>
        <time>2020-10-16T11:13:36Z</time>
      </trkpt>
      <trkpt lat="37.376949000" lon="-5.107218000">
        <ele>170.8</ele>
        <time>2020-10-16T11:13:38Z</time>
      </trkpt>
      <trkpt lat="37.376979000" lon="-5.107345000">
        <ele>170.6</ele>
        <time>2020-10-16T11:13:40Z</time>
      </trkpt>
      <trkpt lat="37.377011000" lon="-5.107482000">
        <ele>170.4</ele>
        <time>2020-10-16T11:13:42Z</time>
      </trkpt>
      <trkpt lat="37.377045000" lon="-5.107629000">
        <ele>170.0</ele>
        <time>2020-10-16T11:13:44Z</time>
      </trkpt>
      <trkpt lat="37.377079000" lon="-5.107778000">
        <ele>169.5</ele>
        <time>2020-10-16T11:13:46Z</time>
      </trkpt>
      <trkpt lat="37.377113000" lon="-5.107932000">
        <ele>169.1</ele>
        <time>2020-10-16T11:13:48Z</time>
      </trkpt>
      <trkpt lat="37.377150000" lon="-5.108085000">
        <ele>168.5</ele>
        <time>2020-10-16T11:13:50Z</time>
      </trkpt>
      <trkpt lat="37.377180000" lon="-5.108243000">
        <ele>168.0</ele>
        <time>2020-10-16T11:13:52Z</time>
      </trkpt>
      <trkpt lat="37.377217000" lon="-5.108409000">
        <ele>167.5</ele>
        <time>2020-10-16T11:13:54Z</time>
      </trkpt>
      <trkpt lat="37.377257000" lon="-5.108575000">
        <ele>166.8</ele>
        <time>2020-10-16T11:13:56Z</time>
      </trkpt>
      <trkpt lat="37.377296000" lon="-5.108748000">
        <ele>166.2</ele>
        <time>2020-10-16T11:13:58Z</time>
      </trkpt>
      <trkpt lat="37.377337000" lon="-5.108924000">
        <ele>165.5</ele>
        <time>2020-10-16T11:14:00Z</time>
      </trkpt>
      <trkpt lat="37.377381000" lon="-5.109102000">
        <ele>164.9</ele>
        <time>2020-10-16T11:14:02Z</time>
      </trkpt>
      <trkpt lat="37.377421000" lon="-5.109286000">
        <ele>164.4</ele>
        <time>2020-10-16T11:14:04Z</time>
      </trkpt>
      <trkpt lat="37.377464000" lon="-5.109471000">
        <ele>163.8</ele>
        <time>2020-10-16T11:14:06Z</time>
      </trkpt>
      <trkpt lat="37.377514000" lon="-5.109656000">
        <ele>163.4</ele>
        <time>2020-10-16T11:14:08Z</time>
      </trkpt>
      <trkpt lat="37.377555000" lon="-5.109834000">
        <ele>162.9</ele>
        <time>2020-10-16T11:14:10Z</time>
      </trkpt>
      <trkpt lat="37.377596000" lon="-5.110010000">
        <ele>162.5</ele>
        <time>2020-10-16T11:14:12Z</time>
      </trkpt>
      <trkpt lat="37.377638000" lon="-5.110182000">
        <ele>162.1</ele>
        <time>2020-10-16T11:14:14Z</time>
      </trkpt>
      <trkpt lat="37.377674000" lon="-5.110349000">
        <ele>161.6</ele>
        <time>2020-10-16T11:14:16Z</time>
      </trkpt>
      <trkpt lat="37.377715000" lon="-5.110520000">
        <ele>161.3</ele>
        <time>2020-10-16T11:14:18Z</time>
      </trkpt>
      <trkpt lat="37.377751000" lon="-5.110696000">
        <ele>161.0</ele>
        <time>2020-10-16T11:14:20Z</time>
      </trkpt>
      <trkpt lat="37.377790000" lon="-5.110867000">
        <ele>160.6</ele>
        <time>2020-10-16T11:14:22Z</time>
      </trkpt>
      <trkpt lat="37.377828000" lon="-5.111043000">
        <ele>160.4</ele>
        <time>2020-10-16T11:14:24Z</time>
      </trkpt>
      <trkpt lat="37.377863000" lon="-5.111212000">
        <ele>160.1</ele>
        <time>2020-10-16T11:14:26Z</time>
      </trkpt>
      <trkpt lat="37.377892000" lon="-5.111384000">
        <ele>159.8</ele>
        <time>2020-10-16T11:14:28Z</time>
      </trkpt>
      <trkpt lat="37.377921000" lon="-5.111561000">
        <ele>159.5</ele>
        <time>2020-10-16T11:14:30Z</time>
      </trkpt>
      <trkpt lat="37.377950000" lon="-5.111732000">
        <ele>159.3</ele>
        <time>2020-10-16T11:14:32Z</time>
      </trkpt>
      <trkpt lat="37.377977000" lon="-5.111907000">
        <ele>159.1</ele>
        <time>2020-10-16T11:14:34Z</time>
      </trkpt>
      <trkpt lat="37.377996000" lon="-5.112080000">
        <ele>159.0</ele>
        <time>2020-10-16T11:14:36Z</time>
      </trkpt>
      <trkpt lat="37.378017000" lon="-5.112247000">
        <ele>159.0</ele>
        <time>2020-10-16T11:14:38Z</time>
      </trkpt>
      <trkpt lat="37.378039000" lon="-5.112408000">
        <ele>159.0</ele>
        <time>2020-10-16T11:14:40Z</time>
      </trkpt>
      <trkpt lat="37.378060000" lon="-5.112560000">
        <ele>159.1</ele>
        <time>2020-10-16T11:14:42Z</time>
      </trkpt>
      <trkpt lat="37.378081000" lon="-5.112710000">
        <ele>159.3</ele>
        <time>2020-10-16T11:14:44Z</time>
      </trkpt>
      <trkpt lat="37.378101000" lon="-5.112846000">
        <ele>159.5</ele>
        <time>2020-10-16T11:14:46Z</time>
      </trkpt>
      <trkpt lat="37.378113000" lon="-5.112970000">
        <ele>159.8</ele>
        <time>2020-10-16T11:14:48Z</time>
      </trkpt>
      <trkpt lat="37.378134000" lon="-5.113092000">
        <ele>160.3</ele>
        <time>2020-10-16T11:14:50Z</time>
      </trkpt>
      <trkpt lat="37.378150000" lon="-5.113202000">
        <ele>160.8</ele>
        <time>2020-10-16T11:14:52Z</time>
      </trkpt>
      <trkpt lat="37.378164000" lon="-5.113307000">
        <ele>161.5</ele>
        <time>2020-10-16T11:14:54Z</time>
      </trkpt>
      <trkpt lat="37.378183000" lon="-5.113412000">
        <ele>162.1</ele>
        <time>2020-10-16T11:14:56Z</time>
      </trkpt>
      <trkpt lat="37.378204000" lon="-5.113516000">
        <ele>162.8</ele>
        <time>2020-10-16T11:14:58Z</time>
      </trkpt>
      <trkpt lat="37.378216000" lon="-5.113626000">
        <ele>163.5</ele>
        <time>2020-10-16T11:15:00Z</time>
      </trkpt>
      <trkpt lat="37.378242000" lon="-5.113772000">
        <ele>164.3</ele>
        <time>2020-10-16T11:15:03Z</time>
      </trkpt>
      <trkpt lat="37.378267000" lon="-5.113911000">
        <ele>164.8</ele>
        <time>2020-10-16T11:15:06Z</time>
      </trkpt>
      <trkpt lat="37.378292000" lon="-5.114046000">
        <ele>165.4</ele>
        <time>2020-10-16T11:15:09Z</time>
      </trkpt>
      <trkpt lat="37.378323000" lon="-5.114180000">
        <ele>165.8</ele>
        <time>2020-10-16T11:15:12Z</time>
      </trkpt>
      <trkpt lat="37.378355000" lon="-5.114315000">
        <ele>166.3</ele>
        <time>2020-10-16T11:15:15Z</time>
      </trkpt>
      <trkpt lat="37.378386000" lon="-5.114445000">
        <ele>166.5</ele>
        <time>2020-10-16T11:15:18Z</time>
      </trkpt>
      <trkpt lat="37.378417000" lon="-5.114573000">
        <ele>166.7</ele>
        <time>2020-10-16T11:15:21Z</time>
      </trkpt>
      <trkpt lat="37.378451000" lon="-5.114703000">
        <ele>166.8</ele>
        <time>2020-10-16T11:15:24Z</time>
      </trkpt>
      <trkpt lat="37.378485000" lon="-5.114839000">
        <ele>166.9</ele>
        <time>2020-10-16T11:15:27Z</time>
      </trkpt>
      <trkpt lat="37.378522000" lon="-5.114974000">
        <ele>166.9</ele>
        <time>2020-10-16T11:15:30Z</time>
      </trkpt>
      <trkpt lat="37.378560000" lon="-5.115117000">
        <ele>166.9</ele>
        <time>2020-10-16T11:15:33Z</time>
      </trkpt>
      <trkpt lat="37.378589000" lon="-5.115215000">
        <ele>166.9</ele>
        <time>2020-10-16T11:15:35Z</time>
      </trkpt>
      <trkpt lat="37.378617000" lon="-5.115313000">
        <ele>167.1</ele>
        <time>2020-10-16T11:15:37Z</time>
      </trkpt>
      <trkpt lat="37.378645000" lon="-5.115410000">
        <ele>167.3</ele>
        <time>2020-10-16T11:15:39Z</time>
      </trkpt>
      <trkpt lat="37.378686000" lon="-5.115553000">
        <ele>167.5</ele>
        <time>2020-10-16T11:15:42Z</time>
      </trkpt>
      <trkpt lat="37.378725000" lon="-5.115696000">
        <ele>167.6</ele>
        <time>2020-10-16T11:15:45Z</time>
      </trkpt>
      <trkpt lat="37.378763000" lon="-5.115838000">
        <ele>167.9</ele>
        <time>2020-10-16T11:15:48Z</time>
      </trkpt>
      <trkpt lat="37.378789000" lon="-5.115935000">
        <ele>168.2</ele>
        <time>2020-10-16T11:15:50Z</time>
      </trkpt>
      <trkpt lat="37.378829000" lon="-5.116077000">
        <ele>168.5</ele>
        <time>2020-10-16T11:15:53Z</time>
      </trkpt>
      <trkpt lat="37.378854000" lon="-5.116174000">
        <ele>168.6</ele>
        <time>2020-10-16T11:15:55Z</time>
      </trkpt>
      <trkpt lat="37.378877000" lon="-5.116273000">
        <ele>168.8</ele>
        <time>2020-10-16T11:15:57Z</time>
      </trkpt>
      <trkpt lat="37.378896000" lon="-5.116374000">
        <ele>168.9</ele>
        <time>2020-10-16T11:15:59Z</time>
      </trkpt>
      <trkpt lat="37.378915000" lon="-5.116477000">
        <ele>169.0</ele>
        <time>2020-10-16T11:16:01Z</time>
      </trkpt>
      <trkpt lat="37.378933000" lon="-5.116582000">
        <ele>169.0</ele>
        <time>2020-10-16T11:16:03Z</time>
      </trkpt>
      <trkpt lat="37.378946000" lon="-5.116688000">
        <ele>169.1</ele>
        <time>2020-10-16T11:16:05Z</time>
      </trkpt>
      <trkpt lat="37.378962000" lon="-5.116793000">
        <ele>169.1</ele>
        <time>2020-10-16T11:16:07Z</time>
      </trkpt>
      <trkpt lat="37.378977000" lon="-5.116898000">
        <ele>169.1</ele>
        <time>2020-10-16T11:16:09Z</time>
      </trkpt>
      <trkpt lat="37.378989000" lon="-5.117004000">
        <ele>169.0</ele>
        <time>2020-10-16T11:16:11Z</time>
      </trkpt>
      <trkpt lat="37.379001000" lon="-5.117116000">
        <ele>168.8</ele>
        <time>2020-10-16T11:16:13Z</time>
      </trkpt>
      <trkpt lat="37.379010000" lon="-5.117232000">
        <ele>168.6</ele>
        <time>2020-10-16T11:16:15Z</time>
      </trkpt>
      <trkpt lat="37.379028000" lon="-5.117353000">
        <ele>168.4</ele>
        <time>2020-10-16T11:16:17Z</time>
      </trkpt>
      <trkpt lat="37.379043000" lon="-5.117481000">
        <ele>167.9</ele>
        <time>2020-10-16T11:16:19Z</time>
      </trkpt>
      <trkpt lat="37.379061000" lon="-5.117612000">
        <ele>167.4</ele>
        <time>2020-10-16T11:16:21Z</time>
      </trkpt>
      <trkpt lat="37.379080000" lon="-5.117742000">
        <ele>166.8</ele>
        <time>2020-10-16T11:16:23Z</time>
      </trkpt>
      <trkpt lat="37.379101000" lon="-5.117878000">
        <ele>166.3</ele>
        <time>2020-10-16T11:16:25Z</time>
      </trkpt>
      <trkpt lat="37.379131000" lon="-5.118015000">
        <ele>165.6</ele>
        <time>2020-10-16T11:16:27Z</time>
      </trkpt>
      <trkpt lat="37.379165000" lon="-5.118155000">
        <ele>165.0</ele>
        <time>2020-10-16T11:16:29Z</time>
      </trkpt>
      <trkpt lat="37.379213000" lon="-5.118293000">
        <ele>164.3</ele>
        <time>2020-10-16T11:16:31Z</time>
      </trkpt>
      <trkpt lat="37.379266000" lon="-5.118430000">
        <ele>163.5</ele>
        <time>2020-10-16T11:16:33Z</time>
      </trkpt>
      <trkpt lat="37.379328000" lon="-5.118572000">
        <ele>162.8</ele>
        <time>2020-10-16T11:16:35Z</time>
      </trkpt>
      <trkpt lat="37.379393000" lon="-5.118709000">
        <ele>162.0</ele>
        <time>2020-10-16T11:16:37Z</time>
      </trkpt>
      <trkpt lat="37.379455000" lon="-5.118849000">
        <ele>161.3</ele>
        <time>2020-10-16T11:16:39Z</time>
      </trkpt>
      <trkpt lat="37.379526000" lon="-5.118982000">
        <ele>160.7</ele>
        <time>2020-10-16T11:16:41Z</time>
      </trkpt>
      <trkpt lat="37.379585000" lon="-5.119110000">
        <ele>160.3</ele>
        <time>2020-10-16T11:16:43Z</time>
      </trkpt>
      <trkpt lat="37.379649000" lon="-5.119237000">
        <ele>159.8</ele>
        <time>2020-10-16T11:16:45Z</time>
      </trkpt>
      <trkpt lat="37.379704000" lon="-5.119353000">
        <ele>159.4</ele>
        <time>2020-10-16T11:16:47Z</time>
      </trkpt>
      <trkpt lat="37.379755000" lon="-5.119444000">
        <ele>159.0</ele>
        <time>2020-10-16T11:16:49Z</time>
      </trkpt>
      <trkpt lat="37.379799000" lon="-5.119535000">
        <ele>158.7</ele>
        <time>2020-10-16T11:16:52Z</time>
      </trkpt>
      <trkpt lat="37.379821000" lon="-5.119654000">
        <ele>158.5</ele>
        <time>2020-10-16T11:17:41Z</time>
      </trkpt>
      <trkpt lat="37.379845000" lon="-5.119779000">
        <ele>158.5</ele>
        <time>2020-10-16T11:17:44Z</time>
      </trkpt>
      <trkpt lat="37.379851000" lon="-5.119914000">
        <ele>158.4</ele>
        <time>2020-10-16T11:17:47Z</time>
      </trkpt>
      <trkpt lat="37.379815000" lon="-5.120026000">
        <ele>158.5</ele>
        <time>2020-10-16T11:17:50Z</time>
      </trkpt>
      <trkpt lat="37.379717000" lon="-5.120096000">
        <ele>158.5</ele>
        <time>2020-10-16T11:17:53Z</time>
      </trkpt>
      <trkpt lat="37.379645000" lon="-5.120147000">
        <ele>158.7</ele>
        <time>2020-10-16T11:17:55Z</time>
      </trkpt>
      <trkpt lat="37.379554000" lon="-5.120168000">
        <ele>158.9</ele>
        <time>2020-10-16T11:17:57Z</time>
      </trkpt>
      <trkpt lat="37.379461000" lon="-5.120182000">
        <ele>159.1</ele>
        <time>2020-10-16T11:17:59Z</time>
      </trkpt>
      <trkpt lat="37.379367000" lon="-5.120201000">
        <ele>159.3</ele>
        <time>2020-10-16T11:18:01Z</time>
      </trkpt>
      <trkpt lat="37.379274000" lon="-5.120214000">
        <ele>159.4</ele>
        <time>2020-10-16T11:18:03Z</time>
      </trkpt>
      <trkpt lat="37.379184000" lon="-5.120218000">
        <ele>159.4</ele>
        <time>2020-10-16T11:18:05Z</time>
      </trkpt>
      <trkpt lat="37.379096000" lon="-5.120228000">
        <ele>159.3</ele>
        <time>2020-10-16T11:18:07Z</time>
      </trkpt>
      <trkpt lat="37.379007000" lon="-5.120232000">
        <ele>159.2</ele>
        <time>2020-10-16T11:18:09Z</time>
      </trkpt>
      <trkpt lat="37.378919000" lon="-5.120239000">
        <ele>159.3</ele>
        <time>2020-10-16T11:18:11Z</time>
      </trkpt>
      <trkpt lat="37.378825000" lon="-5.120242000">
        <ele>159.3</ele>
        <time>2020-10-16T11:18:13Z</time>
      </trkpt>
      <trkpt lat="37.378730000" lon="-5.120244000">
        <ele>159.2</ele>
        <time>2020-10-16T11:18:15Z</time>
      </trkpt>
      <trkpt lat="37.378633000" lon="-5.120244000">
        <ele>158.9</ele>
        <time>2020-10-16T11:18:17Z</time>
      </trkpt>
      <trkpt lat="37.378540000" lon="-5.120252000">
        <ele>158.5</ele>
        <time>2020-10-16T11:18:19Z</time>
      </trkpt>
      <trkpt lat="37.378453000" lon="-5.120286000">
        <ele>158.1</ele>
        <time>2020-10-16T11:18:21Z</time>
      </trkpt>
      <trkpt lat="37.378367000" lon="-5.120358000">
        <ele>157.5</ele>
        <time>2020-10-16T11:18:23Z</time>
      </trkpt>
      <trkpt lat="37.378306000" lon="-5.120471000">
        <ele>156.9</ele>
        <time>2020-10-16T11:18:25Z</time>
      </trkpt>
      <trkpt lat="37.378291000" lon="-5.120607000">
        <ele>156.4</ele>
        <time>2020-10-16T11:18:27Z</time>
      </trkpt>
      <trkpt lat="37.378316000" lon="-5.120740000">
        <ele>155.8</ele>
        <time>2020-10-16T11:18:29Z</time>
      </trkpt>
      <trkpt lat="37.378347000" lon="-5.120873000">
        <ele>155.4</ele>
        <time>2020-10-16T11:18:31Z</time>
      </trkpt>
      <trkpt lat="37.378388000" lon="-5.121005000">
        <ele>154.8</ele>
        <time>2020-10-16T11:18:33Z</time>
      </trkpt>
      <trkpt lat="37.378433000" lon="-5.121133000">
        <ele>154.3</ele>
        <time>2020-10-16T11:18:35Z</time>
      </trkpt>
      <trkpt lat="37.378477000" lon="-5.121268000">
        <ele>153.8</ele>
        <time>2020-10-16T11:18:37Z</time>
      </trkpt>
      <trkpt lat="37.378527000" lon="-5.121404000">
        <ele>153.5</ele>
        <time>2020-10-16T11:18:39Z</time>
      </trkpt>
      <trkpt lat="37.378575000" lon="-5.121543000">
        <ele>153.2</ele>
        <time>2020-10-16T11:18:41Z</time>
      </trkpt>
      <trkpt lat="37.378630000" lon="-5.121678000">
        <ele>153.0</ele>
        <time>2020-10-16T11:18:43Z</time>
      </trkpt>
      <trkpt lat="37.378690000" lon="-5.121815000">
        <ele>152.9</ele>
        <time>2020-10-16T11:18:45Z</time>
      </trkpt>
      <trkpt lat="37.378752000" lon="-5.121947000">
        <ele>153.0</ele>
        <time>2020-10-16T11:18:47Z</time>
      </trkpt>
      <trkpt lat="37.378821000" lon="-5.122075000">
        <ele>153.2</ele>
        <time>2020-10-16T11:18:49Z</time>
      </trkpt>
      <trkpt lat="37.378901000" lon="-5.122203000">
        <ele>153.5</ele>
        <time>2020-10-16T11:18:51Z</time>
      </trkpt>
      <trkpt lat="37.378982000" lon="-5.122326000">
        <ele>153.8</ele>
        <time>2020-10-16T11:18:53Z</time>
      </trkpt>
      <trkpt lat="37.379075000" lon="-5.122444000">
        <ele>154.1</ele>
        <time>2020-10-16T11:18:55Z</time>
      </trkpt>
      <trkpt lat="37.379163000" lon="-5.122556000">
        <ele>154.4</ele>
        <time>2020-10-16T11:18:57Z</time>
      </trkpt>
      <trkpt lat="37.379254000" lon="-5.122663000">
        <ele>154.5</ele>
        <time>2020-10-16T11:18:59Z</time>
      </trkpt>
      <trkpt lat="37.379347000" lon="-5.122770000">
        <ele>154.7</ele>
        <time>2020-10-16T11:19:01Z</time>
      </trkpt>
      <trkpt lat="37.379432000" lon="-5.122875000">
        <ele>154.9</ele>
        <time>2020-10-16T11:19:03Z</time>
      </trkpt>
      <trkpt lat="37.379516000" lon="-5.122988000">
        <ele>155.0</ele>
        <time>2020-10-16T11:19:05Z</time>
      </trkpt>
      <trkpt lat="37.379593000" lon="-5.123103000">
        <ele>155.2</ele>
        <time>2020-10-16T11:19:07Z</time>
      </trkpt>
      <trkpt lat="37.379667000" lon="-5.123232000">
        <ele>155.3</ele>
        <time>2020-10-16T11:19:09Z</time>
      </trkpt>
      <trkpt lat="37.379734000" lon="-5.123358000">
        <ele>155.3</ele>
        <time>2020-10-16T11:19:11Z</time>
      </trkpt>
      <trkpt lat="37.379790000" lon="-5.123494000">
        <ele>155.3</ele>
        <time>2020-10-16T11:19:13Z</time>
      </trkpt>
      <trkpt lat="37.379842000" lon="-5.123635000">
        <ele>155.3</ele>
        <time>2020-10-16T11:19:15Z</time>
      </trkpt>
      <trkpt lat="37.379885000" lon="-5.123778000">
        <ele>155.3</ele>
        <time>2020-10-16T11:19:17Z</time>
      </trkpt>
      <trkpt lat="37.379920000" lon="-5.123919000">
        <ele>155.3</ele>
        <time>2020-10-16T11:19:19Z</time>
      </trkpt>
      <trkpt lat="37.379950000" lon="-5.124062000">
        <ele>155.3</ele>
        <time>2020-10-16T11:19:21Z</time>
      </trkpt>
      <trkpt lat="37.379982000" lon="-5.124196000">
        <ele>155.3</ele>
        <time>2020-10-16T11:19:23Z</time>
      </trkpt>
      <trkpt lat="37.380016000" lon="-5.124341000">
        <ele>155.2</ele>
        <time>2020-10-16T11:19:25Z</time>
      </trkpt>
      <trkpt lat="37.380052000" lon="-5.124498000">
        <ele>155.2</ele>
        <time>2020-10-16T11:19:27Z</time>
      </trkpt>
      <trkpt lat="37.380090000" lon="-5.124656000">
        <ele>155.0</ele>
        <time>2020-10-16T11:19:29Z</time>
      </trkpt>
      <trkpt lat="37.380122000" lon="-5.124820000">
        <ele>154.8</ele>
        <time>2020-10-16T11:19:31Z</time>
      </trkpt>
      <trkpt lat="37.380161000" lon="-5.124982000">
        <ele>154.6</ele>
        <time>2020-10-16T11:19:33Z</time>
      </trkpt>
      <trkpt lat="37.380196000" lon="-5.125141000">
        <ele>154.4</ele>
        <time>2020-10-16T11:19:35Z</time>
      </trkpt>
      <trkpt lat="37.380222000" lon="-5.125299000">
        <ele>154.1</ele>
        <time>2020-10-16T11:19:37Z</time>
      </trkpt>
      <trkpt lat="37.380231000" lon="-5.125460000">
        <ele>153.7</ele>
        <time>2020-10-16T11:19:39Z</time>
      </trkpt>
      <trkpt lat="37.380223000" lon="-5.125620000">
        <ele>153.4</ele>
        <time>2020-10-16T11:19:41Z</time>
      </trkpt>
      <trkpt lat="37.380192000" lon="-5.125779000">
        <ele>153.1</ele>
        <time>2020-10-16T11:19:43Z</time>
      </trkpt>
      <trkpt lat="37.380152000" lon="-5.125936000">
        <ele>152.8</ele>
        <time>2020-10-16T11:19:45Z</time>
      </trkpt>
      <trkpt lat="37.380111000" lon="-5.126090000">
        <ele>152.5</ele>
        <time>2020-10-16T11:19:47Z</time>
      </trkpt>
      <trkpt lat="37.380065000" lon="-5.126232000">
        <ele>152.3</ele>
        <time>2020-10-16T11:19:49Z</time>
      </trkpt>
      <trkpt lat="37.380017000" lon="-5.126379000">
        <ele>152.1</ele>
        <time>2020-10-16T11:19:51Z</time>
      </trkpt>
      <trkpt lat="37.379977000" lon="-5.126522000">
        <ele>151.9</ele>
        <time>2020-10-16T11:19:53Z</time>
      </trkpt>
      <trkpt lat="37.379934000" lon="-5.126662000">
        <ele>151.7</ele>
        <time>2020-10-16T11:19:55Z</time>
      </trkpt>
      <trkpt lat="37.379890000" lon="-5.126796000">
        <ele>151.5</ele>
        <time>2020-10-16T11:19:57Z</time>
      </trkpt>
      <trkpt lat="37.379851000" lon="-5.126931000">
        <ele>151.4</ele>
        <time>2020-10-16T11:19:59Z</time>
      </trkpt>
      <trkpt lat="37.379808000" lon="-5.127066000">
        <ele>151.3</ele>
        <time>2020-10-16T11:20:01Z</time>
      </trkpt>
      <trkpt lat="37.379763000" lon="-5.127205000">
        <ele>151.2</ele>
        <time>2020-10-16T11:20:03Z</time>
      </trkpt>
      <trkpt lat="37.379720000" lon="-5.127337000">
        <ele>151.1</ele>
        <time>2020-10-16T11:20:05Z</time>
      </trkpt>
      <trkpt lat="37.379679000" lon="-5.127466000">
        <ele>151.0</ele>
        <time>2020-10-16T11:20:07Z</time>
      </trkpt>
      <trkpt lat="37.379642000" lon="-5.127598000">
        <ele>151.0</ele>
        <time>2020-10-16T11:20:09Z</time>
      </trkpt>
      <trkpt lat="37.379606000" lon="-5.127726000">
        <ele>151.1</ele>
        <time>2020-10-16T11:20:11Z</time>
      </trkpt>
      <trkpt lat="37.379572000" lon="-5.127857000">
        <ele>151.3</ele>
        <time>2020-10-16T11:20:13Z</time>
      </trkpt>
      <trkpt lat="37.379532000" lon="-5.127984000">
        <ele>151.5</ele>
        <time>2020-10-16T11:20:15Z</time>
      </trkpt>
      <trkpt lat="37.379491000" lon="-5.128105000">
        <ele>151.7</ele>
        <time>2020-10-16T11:20:17Z</time>
      </trkpt>
      <trkpt lat="37.379455000" lon="-5.128222000">
        <ele>152.0</ele>
        <time>2020-10-16T11:20:19Z</time>
      </trkpt>
      <trkpt lat="37.379419000" lon="-5.128344000">
        <ele>152.4</ele>
        <time>2020-10-16T11:20:21Z</time>
      </trkpt>
      <trkpt lat="37.379389000" lon="-5.128460000">
        <ele>152.6</ele>
        <time>2020-10-16T11:20:23Z</time>
      </trkpt>
      <trkpt lat="37.379357000" lon="-5.128572000">
        <ele>152.8</ele>
        <time>2020-10-16T11:20:25Z</time>
      </trkpt>
      <trkpt lat="37.379320000" lon="-5.128682000">
        <ele>153.0</ele>
        <time>2020-10-16T11:20:27Z</time>
      </trkpt>
      <trkpt lat="37.379281000" lon="-5.128794000">
        <ele>153.1</ele>
        <time>2020-10-16T11:20:29Z</time>
      </trkpt>
      <trkpt lat="37.379238000" lon="-5.128907000">
        <ele>153.2</ele>
        <time>2020-10-16T11:20:31Z</time>
      </trkpt>
      <trkpt lat="37.379192000" lon="-5.129015000">
        <ele>153.2</ele>
        <time>2020-10-16T11:20:33Z</time>
      </trkpt>
      <trkpt lat="37.379140000" lon="-5.129122000">
        <ele>153.1</ele>
        <time>2020-10-16T11:20:35Z</time>
      </trkpt>
      <trkpt lat="37.379079000" lon="-5.129223000">
        <ele>153.0</ele>
        <time>2020-10-16T11:20:37Z</time>
      </trkpt>
      <trkpt lat="37.379016000" lon="-5.129318000">
        <ele>152.8</ele>
        <time>2020-10-16T11:20:39Z</time>
      </trkpt>
      <trkpt lat="37.378940000" lon="-5.129423000">
        <ele>152.5</ele>
        <time>2020-10-16T11:20:41Z</time>
      </trkpt>
      <trkpt lat="37.378862000" lon="-5.129531000">
        <ele>152.2</ele>
        <time>2020-10-16T11:20:43Z</time>
      </trkpt>
      <trkpt lat="37.378785000" lon="-5.129645000">
        <ele>151.9</ele>
        <time>2020-10-16T11:20:45Z</time>
      </trkpt>
      <trkpt lat="37.378707000" lon="-5.129755000">
        <ele>151.7</ele>
        <time>2020-10-16T11:20:47Z</time>
      </trkpt>
      <trkpt lat="37.378625000" lon="-5.129865000">
        <ele>151.5</ele>
        <time>2020-10-16T11:20:49Z</time>
      </trkpt>
      <trkpt lat="37.378535000" lon="-5.129975000">
        <ele>151.5</ele>
        <time>2020-10-16T11:20:51Z</time>
      </trkpt>
      <trkpt lat="37.378450000" lon="-5.130093000">
        <ele>151.4</ele>
        <time>2020-10-16T11:20:53Z</time>
      </trkpt>
      <trkpt lat="37.378361000" lon="-5.130210000">
        <ele>151.3</ele>
        <time>2020-10-16T11:20:55Z</time>
      </trkpt>
      <trkpt lat="37.378278000" lon="-5.130330000">
        <ele>151.2</ele>
        <time>2020-10-16T11:20:57Z</time>
      </trkpt>
      <trkpt lat="37.378186000" lon="-5.130443000">
        <ele>151.1</ele>
        <time>2020-10-16T11:20:59Z</time>
      </trkpt>
      <trkpt lat="37.378100000" lon="-5.130564000">
        <ele>151.0</ele>
        <time>2020-10-16T11:21:01Z</time>
      </trkpt>
      <trkpt lat="37.378013000" lon="-5.130690000">
        <ele>151.0</ele>
        <time>2020-10-16T11:21:03Z</time>
      </trkpt>
      <trkpt lat="37.377928000" lon="-5.130809000">
        <ele>151.0</ele>
        <time>2020-10-16T11:21:05Z</time>
      </trkpt>
      <trkpt lat="37.377845000" lon="-5.130924000">
        <ele>151.0</ele>
        <time>2020-10-16T11:21:07Z</time>
      </trkpt>
      <trkpt lat="37.377757000" lon="-5.131031000">
        <ele>151.0</ele>
        <time>2020-10-16T11:21:09Z</time>
      </trkpt>
      <trkpt lat="37.377672000" lon="-5.131147000">
        <ele>151.1</ele>
        <time>2020-10-16T11:21:11Z</time>
      </trkpt>
      <trkpt lat="37.377586000" lon="-5.131255000">
        <ele>151.2</ele>
        <time>2020-10-16T11:21:13Z</time>
      </trkpt>
      <trkpt lat="37.377506000" lon="-5.131365000">
        <ele>151.3</ele>
        <time>2020-10-16T11:21:15Z</time>
      </trkpt>
      <trkpt lat="37.377426000" lon="-5.131475000">
        <ele>151.4</ele>
        <time>2020-10-16T11:21:17Z</time>
      </trkpt>
      <trkpt lat="37.377351000" lon="-5.131580000">
        <ele>151.5</ele>
        <time>2020-10-16T11:21:19Z</time>
      </trkpt>
      <trkpt lat="37.377282000" lon="-5.131690000">
        <ele>151.7</ele>
        <time>2020-10-16T11:21:21Z</time>
      </trkpt>
      <trkpt lat="37.377214000" lon="-5.131803000">
        <ele>151.9</ele>
        <time>2020-10-16T11:21:23Z</time>
      </trkpt>
      <trkpt lat="37.377156000" lon="-5.131923000">
        <ele>152.1</ele>
        <time>2020-10-16T11:21:25Z</time>
      </trkpt>
      <trkpt lat="37.377105000" lon="-5.132045000">
        <ele>152.3</ele>
        <time>2020-10-16T11:21:27Z</time>
      </trkpt>
      <trkpt lat="37.377060000" lon="-5.132166000">
        <ele>152.4</ele>
        <time>2020-10-16T11:21:29Z</time>
      </trkpt>
      <trkpt lat="37.377012000" lon="-5.132287000">
        <ele>152.5</ele>
        <time>2020-10-16T11:21:31Z</time>
      </trkpt>
      <trkpt lat="37.376967000" lon="-5.132409000">
        <ele>152.5</ele>
        <time>2020-10-16T11:21:33Z</time>
      </trkpt>
      <trkpt lat="37.376921000" lon="-5.132529000">
        <ele>152.5</ele>
        <time>2020-10-16T11:21:36Z</time>
      </trkpt>
      <trkpt lat="37.376872000" lon="-5.132648000">
        <ele>152.5</ele>
        <time>2020-10-16T11:21:37Z</time>
      </trkpt>
      <trkpt lat="37.376828000" lon="-5.132768000">
        <ele>152.5</ele>
        <time>2020-10-16T11:21:39Z</time>
      </trkpt>
      <trkpt lat="37.376779000" lon="-5.132884000">
        <ele>152.4</ele>
        <time>2020-10-16T11:21:41Z</time>
      </trkpt>
      <trkpt lat="37.376738000" lon="-5.133006000">
        <ele>152.3</ele>
        <time>2020-10-16T11:21:43Z</time>
      </trkpt>
      <trkpt lat="37.376694000" lon="-5.133125000">
        <ele>152.2</ele>
        <time>2020-10-16T11:21:45Z</time>
      </trkpt>
      <trkpt lat="37.376648000" lon="-5.133243000">
        <ele>152.1</ele>
        <time>2020-10-16T11:21:47Z</time>
      </trkpt>
      <trkpt lat="37.376604000" lon="-5.133364000">
        <ele>152.0</ele>
        <time>2020-10-16T11:21:49Z</time>
      </trkpt>
      <trkpt lat="37.376560000" lon="-5.133486000">
        <ele>152.1</ele>
        <time>2020-10-16T11:21:51Z</time>
      </trkpt>
      <trkpt lat="37.376515000" lon="-5.133608000">
        <ele>152.2</ele>
        <time>2020-10-16T11:21:53Z</time>
      </trkpt>
      <trkpt lat="37.376470000" lon="-5.133735000">
        <ele>152.3</ele>
        <time>2020-10-16T11:21:55Z</time>
      </trkpt>
      <trkpt lat="37.376422000" lon="-5.133862000">
        <ele>152.3</ele>
        <time>2020-10-16T11:21:57Z</time>
      </trkpt>
      <trkpt lat="37.376374000" lon="-5.133992000">
        <ele>152.3</ele>
        <time>2020-10-16T11:21:59Z</time>
      </trkpt>
      <trkpt lat="37.376325000" lon="-5.134134000">
        <ele>152.2</ele>
        <time>2020-10-16T11:22:01Z</time>
      </trkpt>
      <trkpt lat="37.376279000" lon="-5.134276000">
        <ele>152.0</ele>
        <time>2020-10-16T11:22:03Z</time>
      </trkpt>
      <trkpt lat="37.376234000" lon="-5.134423000">
        <ele>151.7</ele>
        <time>2020-10-16T11:22:05Z</time>
      </trkpt>
      <trkpt lat="37.376185000" lon="-5.134569000">
        <ele>151.4</ele>
        <time>2020-10-16T11:22:07Z</time>
      </trkpt>
      <trkpt lat="37.376138000" lon="-5.134720000">
        <ele>150.9</ele>
        <time>2020-10-16T11:22:09Z</time>
      </trkpt>
      <trkpt lat="37.376099000" lon="-5.134870000">
        <ele>150.5</ele>
        <time>2020-10-16T11:22:11Z</time>
      </trkpt>
      <trkpt lat="37.376066000" lon="-5.135027000">
        <ele>150.0</ele>
        <time>2020-10-16T11:22:13Z</time>
      </trkpt>
      <trkpt lat="37.376039000" lon="-5.135186000">
        <ele>149.6</ele>
        <time>2020-10-16T11:22:15Z</time>
      </trkpt>
      <trkpt lat="37.376021000" lon="-5.135348000">
        <ele>149.3</ele>
        <time>2020-10-16T11:22:17Z</time>
      </trkpt>
      <trkpt lat="37.376008000" lon="-5.135504000">
        <ele>149.1</ele>
        <time>2020-10-16T11:22:19Z</time>
      </trkpt>
      <trkpt lat="37.375996000" lon="-5.135668000">
        <ele>148.9</ele>
        <time>2020-10-16T11:22:21Z</time>
      </trkpt>
      <trkpt lat="37.375989000" lon="-5.135823000">
        <ele>148.8</ele>
        <time>2020-10-16T11:22:23Z</time>
      </trkpt>
      <trkpt lat="37.375984000" lon="-5.135975000">
        <ele>148.7</ele>
        <time>2020-10-16T11:22:25Z</time>
      </trkpt>
      <trkpt lat="37.375975000" lon="-5.136128000">
        <ele>148.7</ele>
        <time>2020-10-16T11:22:27Z</time>
      </trkpt>
      <trkpt lat="37.375973000" lon="-5.136281000">
        <ele>148.8</ele>
        <time>2020-10-16T11:22:29Z</time>
      </trkpt>
      <trkpt lat="37.375967000" lon="-5.136432000">
        <ele>149.0</ele>
        <time>2020-10-16T11:22:31Z</time>
      </trkpt>
      <trkpt lat="37.375962000" lon="-5.136591000">
        <ele>149.2</ele>
        <time>2020-10-16T11:22:33Z</time>
      </trkpt>
      <trkpt lat="37.375956000" lon="-5.136749000">
        <ele>149.3</ele>
        <time>2020-10-16T11:22:35Z</time>
      </trkpt>
      <trkpt lat="37.375955000" lon="-5.136907000">
        <ele>149.3</ele>
        <time>2020-10-16T11:22:37Z</time>
      </trkpt>
      <trkpt lat="37.375952000" lon="-5.137057000">
        <ele>149.3</ele>
        <time>2020-10-16T11:22:39Z</time>
      </trkpt>
      <trkpt lat="37.375946000" lon="-5.137210000">
        <ele>149.2</ele>
        <time>2020-10-16T11:22:41Z</time>
      </trkpt>
      <trkpt lat="37.375944000" lon="-5.137352000">
        <ele>149.0</ele>
        <time>2020-10-16T11:22:43Z</time>
      </trkpt>
      <trkpt lat="37.375943000" lon="-5.137497000">
        <ele>148.8</ele>
        <time>2020-10-16T11:22:45Z</time>
      </trkpt>
      <trkpt lat="37.375942000" lon="-5.137638000">
        <ele>148.7</ele>
        <time>2020-10-16T11:22:47Z</time>
      </trkpt>
      <trkpt lat="37.375943000" lon="-5.137772000">
        <ele>148.6</ele>
        <time>2020-10-16T11:22:49Z</time>
      </trkpt>
      <trkpt lat="37.375941000" lon="-5.137913000">
        <ele>148.5</ele>
        <time>2020-10-16T11:22:51Z</time>
      </trkpt>
      <trkpt lat="37.375937000" lon="-5.138053000">
        <ele>148.5</ele>
        <time>2020-10-16T11:22:53Z</time>
      </trkpt>
      <trkpt lat="37.375930000" lon="-5.138194000">
        <ele>148.4</ele>
        <time>2020-10-16T11:22:55Z</time>
      </trkpt>
      <trkpt lat="37.375925000" lon="-5.138339000">
        <ele>148.3</ele>
        <time>2020-10-16T11:22:57Z</time>
      </trkpt>
      <trkpt lat="37.375922000" lon="-5.138478000">
        <ele>148.2</ele>
        <time>2020-10-16T11:22:59Z</time>
      </trkpt>
      <trkpt lat="37.375919000" lon="-5.138626000">
        <ele>148.1</ele>
        <time>2020-10-16T11:23:01Z</time>
      </trkpt>
      <trkpt lat="37.375919000" lon="-5.138769000">
        <ele>148.0</ele>
        <time>2020-10-16T11:23:03Z</time>
      </trkpt>
      <trkpt lat="37.375911000" lon="-5.138917000">
        <ele>148.0</ele>
        <time>2020-10-16T11:23:05Z</time>
      </trkpt>
      <trkpt lat="37.375911000" lon="-5.139065000">
        <ele>147.9</ele>
        <time>2020-10-16T11:23:07Z</time>
      </trkpt>
      <trkpt lat="37.375910000" lon="-5.139217000">
        <ele>147.8</ele>
        <time>2020-10-16T11:23:09Z</time>
      </trkpt>
      <trkpt lat="37.375903000" lon="-5.139372000">
        <ele>147.7</ele>
        <time>2020-10-16T11:23:11Z</time>
      </trkpt>
      <trkpt lat="37.375901000" lon="-5.139526000">
        <ele>147.5</ele>
        <time>2020-10-16T11:23:13Z</time>
      </trkpt>
      <trkpt lat="37.375895000" lon="-5.139679000">
        <ele>147.4</ele>
        <time>2020-10-16T11:23:15Z</time>
      </trkpt>
      <trkpt lat="37.375893000" lon="-5.139823000">
        <ele>147.2</ele>
        <time>2020-10-16T11:23:17Z</time>
      </trkpt>
      <trkpt lat="37.375891000" lon="-5.139977000">
        <ele>147.0</ele>
        <time>2020-10-16T11:23:19Z</time>
      </trkpt>
      <trkpt lat="37.375885000" lon="-5.140127000">
        <ele>146.8</ele>
        <time>2020-10-16T11:23:21Z</time>
      </trkpt>
      <trkpt lat="37.375887000" lon="-5.140271000">
        <ele>146.6</ele>
        <time>2020-10-16T11:23:23Z</time>
      </trkpt>
      <trkpt lat="37.375885000" lon="-5.140418000">
        <ele>146.5</ele>
        <time>2020-10-16T11:23:25Z</time>
      </trkpt>
      <trkpt lat="37.375881000" lon="-5.140569000">
        <ele>146.4</ele>
        <time>2020-10-16T11:23:27Z</time>
      </trkpt>
      <trkpt lat="37.375878000" lon="-5.140721000">
        <ele>146.4</ele>
        <time>2020-10-16T11:23:29Z</time>
      </trkpt>
      <trkpt lat="37.375874000" lon="-5.140873000">
        <ele>146.5</ele>
        <time>2020-10-16T11:23:31Z</time>
      </trkpt>
      <trkpt lat="37.375873000" lon="-5.141028000">
        <ele>146.5</ele>
        <time>2020-10-16T11:23:33Z</time>
      </trkpt>
      <trkpt lat="37.375868000" lon="-5.141179000">
        <ele>146.8</ele>
        <time>2020-10-16T11:23:35Z</time>
      </trkpt>
      <trkpt lat="37.375861000" lon="-5.141335000">
        <ele>147.0</ele>
        <time>2020-10-16T11:23:37Z</time>
      </trkpt>
      <trkpt lat="37.375856000" lon="-5.141490000">
        <ele>147.2</ele>
        <time>2020-10-16T11:23:39Z</time>
      </trkpt>
      <trkpt lat="37.375854000" lon="-5.141648000">
        <ele>147.3</ele>
        <time>2020-10-16T11:23:41Z</time>
      </trkpt>
      <trkpt lat="37.375853000" lon="-5.141796000">
        <ele>147.4</ele>
        <time>2020-10-16T11:23:43Z</time>
      </trkpt>
      <trkpt lat="37.375847000" lon="-5.141952000">
        <ele>147.5</ele>
        <time>2020-10-16T11:23:45Z</time>
      </trkpt>
      <trkpt lat="37.375844000" lon="-5.142099000">
        <ele>147.5</ele>
        <time>2020-10-16T11:23:47Z</time>
      </trkpt>
      <trkpt lat="37.375840000" lon="-5.142243000">
        <ele>147.6</ele>
        <time>2020-10-16T11:23:49Z</time>
      </trkpt>
      <trkpt lat="37.375836000" lon="-5.142382000">
        <ele>147.8</ele>
        <time>2020-10-16T11:23:51Z</time>
      </trkpt>
      <trkpt lat="37.375834000" lon="-5.142514000">
        <ele>147.9</ele>
        <time>2020-10-16T11:23:53Z</time>
      </trkpt>
      <trkpt lat="37.375831000" lon="-5.142643000">
        <ele>148.1</ele>
        <time>2020-10-16T11:23:55Z</time>
      </trkpt>
      <trkpt lat="37.375825000" lon="-5.142767000">
        <ele>148.2</ele>
        <time>2020-10-16T11:23:57Z</time>
      </trkpt>
      <trkpt lat="37.375816000" lon="-5.142892000">
        <ele>148.3</ele>
        <time>2020-10-16T11:23:59Z</time>
      </trkpt>
      <trkpt lat="37.375807000" lon="-5.143019000">
        <ele>148.4</ele>
        <time>2020-10-16T11:24:01Z</time>
      </trkpt>
      <trkpt lat="37.375797000" lon="-5.143152000">
        <ele>148.5</ele>
        <time>2020-10-16T11:24:03Z</time>
      </trkpt>
      <trkpt lat="37.375787000" lon="-5.143288000">
        <ele>148.6</ele>
        <time>2020-10-16T11:24:05Z</time>
      </trkpt>
      <trkpt lat="37.375775000" lon="-5.143426000">
        <ele>148.7</ele>
        <time>2020-10-16T11:24:07Z</time>
      </trkpt>
      <trkpt lat="37.375762000" lon="-5.143563000">
        <ele>148.7</ele>
        <time>2020-10-16T11:24:09Z</time>
      </trkpt>
      <trkpt lat="37.375748000" lon="-5.143692000">
        <ele>148.6</ele>
        <time>2020-10-16T11:24:11Z</time>
      </trkpt>
      <trkpt lat="37.375730000" lon="-5.143821000">
        <ele>148.5</ele>
        <time>2020-10-16T11:24:13Z</time>
      </trkpt>
      <trkpt lat="37.375719000" lon="-5.143953000">
        <ele>148.2</ele>
        <time>2020-10-16T11:24:15Z</time>
      </trkpt>
      <trkpt lat="37.375702000" lon="-5.144091000">
        <ele>147.8</ele>
        <time>2020-10-16T11:24:17Z</time>
      </trkpt>
      <trkpt lat="37.375690000" lon="-5.144225000">
        <ele>147.5</ele>
        <time>2020-10-16T11:24:19Z</time>
      </trkpt>
      <trkpt lat="37.375681000" lon="-5.144351000">
        <ele>147.4</ele>
        <time>2020-10-16T11:24:21Z</time>
      </trkpt>
      <trkpt lat="37.375669000" lon="-5.144483000">
        <ele>147.2</ele>
        <time>2020-10-16T11:24:23Z</time>
      </trkpt>
      <trkpt lat="37.375654000" lon="-5.144616000">
        <ele>147.0</ele>
        <time>2020-10-16T11:24:25Z</time>
      </trkpt>
      <trkpt lat="37.375637000" lon="-5.144749000">
        <ele>146.9</ele>
        <time>2020-10-16T11:24:27Z</time>
      </trkpt>
      <trkpt lat="37.375622000" lon="-5.144878000">
        <ele>146.7</ele>
        <time>2020-10-16T11:24:29Z</time>
      </trkpt>
      <trkpt lat="37.375611000" lon="-5.145010000">
        <ele>146.6</ele>
        <time>2020-10-16T11:24:31Z</time>
      </trkpt>
      <trkpt lat="37.375598000" lon="-5.145142000">
        <ele>146.5</ele>
        <time>2020-10-16T11:24:33Z</time>
      </trkpt>
      <trkpt lat="37.375581000" lon="-5.145272000">
        <ele>146.5</ele>
        <time>2020-10-16T11:24:35Z</time>
      </trkpt>
      <trkpt lat="37.375566000" lon="-5.145400000">
        <ele>146.5</ele>
        <time>2020-10-16T11:24:37Z</time>
      </trkpt>
      <trkpt lat="37.375549000" lon="-5.145533000">
        <ele>146.6</ele>
        <time>2020-10-16T11:24:39Z</time>
      </trkpt>
      <trkpt lat="37.375542000" lon="-5.145648000">
        <ele>146.6</ele>
        <time>2020-10-16T11:24:41Z</time>
      </trkpt>
      <trkpt lat="37.375528000" lon="-5.145775000">
        <ele>146.6</ele>
        <time>2020-10-16T11:24:43Z</time>
      </trkpt>
      <trkpt lat="37.375512000" lon="-5.145903000">
        <ele>146.6</ele>
        <time>2020-10-16T11:24:45Z</time>
      </trkpt>
      <trkpt lat="37.375499000" lon="-5.146033000">
        <ele>146.6</ele>
        <time>2020-10-16T11:24:47Z</time>
      </trkpt>
      <trkpt lat="37.375482000" lon="-5.146169000">
        <ele>146.6</ele>
        <time>2020-10-16T11:24:49Z</time>
      </trkpt>
      <trkpt lat="37.375469000" lon="-5.146308000">
        <ele>146.6</ele>
        <time>2020-10-16T11:24:51Z</time>
      </trkpt>
      <trkpt lat="37.375453000" lon="-5.146447000">
        <ele>146.6</ele>
        <time>2020-10-16T11:24:53Z</time>
      </trkpt>
      <trkpt lat="37.375437000" lon="-5.146588000">
        <ele>146.6</ele>
        <time>2020-10-16T11:24:55Z</time>
      </trkpt>
      <trkpt lat="37.375418000" lon="-5.146735000">
        <ele>146.6</ele>
        <time>2020-10-16T11:24:57Z</time>
      </trkpt>
      <trkpt lat="37.375407000" lon="-5.146872000">
        <ele>146.5</ele>
        <time>2020-10-16T11:24:59Z</time>
      </trkpt>
      <trkpt lat="37.375398000" lon="-5.147006000">
        <ele>146.5</ele>
        <time>2020-10-16T11:25:01Z</time>
      </trkpt>
      <trkpt lat="37.375385000" lon="-5.147139000">
        <ele>146.4</ele>
        <time>2020-10-16T11:25:03Z</time>
      </trkpt>
      <trkpt lat="37.375374000" lon="-5.147274000">
        <ele>146.3</ele>
        <time>2020-10-16T11:25:05Z</time>
      </trkpt>
      <trkpt lat="37.375359000" lon="-5.147410000">
        <ele>146.2</ele>
        <time>2020-10-16T11:25:07Z</time>
      </trkpt>
      <trkpt lat="37.375346000" lon="-5.147551000">
        <ele>146.0</ele>
        <time>2020-10-16T11:25:09Z</time>
      </trkpt>
      <trkpt lat="37.375330000" lon="-5.147692000">
        <ele>145.8</ele>
        <time>2020-10-16T11:25:11Z</time>
      </trkpt>
      <trkpt lat="37.375315000" lon="-5.147830000">
        <ele>145.8</ele>
        <time>2020-10-16T11:25:13Z</time>
      </trkpt>
      <trkpt lat="37.375302000" lon="-5.147962000">
        <ele>145.8</ele>
        <time>2020-10-16T11:25:15Z</time>
      </trkpt>
      <trkpt lat="37.375287000" lon="-5.148093000">
        <ele>145.8</ele>
        <time>2020-10-16T11:25:17Z</time>
      </trkpt>
      <trkpt lat="37.375273000" lon="-5.148221000">
        <ele>145.8</ele>
        <time>2020-10-16T11:25:19Z</time>
      </trkpt>
      <trkpt lat="37.375259000" lon="-5.148358000">
        <ele>145.8</ele>
        <time>2020-10-16T11:25:21Z</time>
      </trkpt>
      <trkpt lat="37.375242000" lon="-5.148489000">
        <ele>145.8</ele>
        <time>2020-10-16T11:25:23Z</time>
      </trkpt>
      <trkpt lat="37.375230000" lon="-5.148616000">
        <ele>145.7</ele>
        <time>2020-10-16T11:25:25Z</time>
      </trkpt>
      <trkpt lat="37.375213000" lon="-5.148745000">
        <ele>145.6</ele>
        <time>2020-10-16T11:25:27Z</time>
      </trkpt>
      <trkpt lat="37.375201000" lon="-5.148873000">
        <ele>145.6</ele>
        <time>2020-10-16T11:25:29Z</time>
      </trkpt>
      <trkpt lat="37.375188000" lon="-5.148998000">
        <ele>145.7</ele>
        <time>2020-10-16T11:25:31Z</time>
      </trkpt>
      <trkpt lat="37.375174000" lon="-5.149127000">
        <ele>145.8</ele>
        <time>2020-10-16T11:25:33Z</time>
      </trkpt>
      <trkpt lat="37.375162000" lon="-5.149255000">
        <ele>145.8</ele>
        <time>2020-10-16T11:25:35Z</time>
      </trkpt>
      <trkpt lat="37.375148000" lon="-5.149382000">
        <ele>145.8</ele>
        <time>2020-10-16T11:25:37Z</time>
      </trkpt>
      <trkpt lat="37.375133000" lon="-5.149513000">
        <ele>145.7</ele>
        <time>2020-10-16T11:25:39Z</time>
      </trkpt>
      <trkpt lat="37.375125000" lon="-5.149648000">
        <ele>145.6</ele>
        <time>2020-10-16T11:25:41Z</time>
      </trkpt>
      <trkpt lat="37.375112000" lon="-5.149779000">
        <ele>145.5</ele>
        <time>2020-10-16T11:25:43Z</time>
      </trkpt>
      <trkpt lat="37.375099000" lon="-5.149908000">
        <ele>145.5</ele>
        <time>2020-10-16T11:25:45Z</time>
      </trkpt>
      <trkpt lat="37.375086000" lon="-5.150038000">
        <ele>145.5</ele>
        <time>2020-10-16T11:25:47Z</time>
      </trkpt>
      <trkpt lat="37.375074000" lon="-5.150168000">
        <ele>145.5</ele>
        <time>2020-10-16T11:25:49Z</time>
      </trkpt>
      <trkpt lat="37.375063000" lon="-5.150295000">
        <ele>145.4</ele>
        <time>2020-10-16T11:25:51Z</time>
      </trkpt>
      <trkpt lat="37.375051000" lon="-5.150426000">
        <ele>145.3</ele>
        <time>2020-10-16T11:25:53Z</time>
      </trkpt>
      <trkpt lat="37.375038000" lon="-5.150553000">
        <ele>145.2</ele>
        <time>2020-10-16T11:25:55Z</time>
      </trkpt>
      <trkpt lat="37.375027000" lon="-5.150686000">
        <ele>145.2</ele>
        <time>2020-10-16T11:25:57Z</time>
      </trkpt>
      <trkpt lat="37.375015000" lon="-5.150819000">
        <ele>145.2</ele>
        <time>2020-10-16T11:25:59Z</time>
      </trkpt>
      <trkpt lat="37.375003000" lon="-5.150952000">
        <ele>145.2</ele>
        <time>2020-10-16T11:26:01Z</time>
      </trkpt>
      <trkpt lat="37.374996000" lon="-5.151081000">
        <ele>145.2</ele>
        <time>2020-10-16T11:26:03Z</time>
      </trkpt>
      <trkpt lat="37.374985000" lon="-5.151206000">
        <ele>145.2</ele>
        <time>2020-10-16T11:26:05Z</time>
      </trkpt>
      <trkpt lat="37.374969000" lon="-5.151334000">
        <ele>145.2</ele>
        <time>2020-10-16T11:26:07Z</time>
      </trkpt>
      <trkpt lat="37.374949000" lon="-5.151468000">
        <ele>145.1</ele>
        <time>2020-10-16T11:26:09Z</time>
      </trkpt>
      <trkpt lat="37.374929000" lon="-5.151601000">
        <ele>145.0</ele>
        <time>2020-10-16T11:26:11Z</time>
      </trkpt>
      <trkpt lat="37.374912000" lon="-5.151733000">
        <ele>144.9</ele>
        <time>2020-10-16T11:26:13Z</time>
      </trkpt>
      <trkpt lat="37.374893000" lon="-5.151858000">
        <ele>144.9</ele>
        <time>2020-10-16T11:26:15Z</time>
      </trkpt>
      <trkpt lat="37.374878000" lon="-5.151983000">
        <ele>144.9</ele>
        <time>2020-10-16T11:26:17Z</time>
      </trkpt>
      <trkpt lat="37.374857000" lon="-5.152106000">
        <ele>144.8</ele>
        <time>2020-10-16T11:26:19Z</time>
      </trkpt>
      <trkpt lat="37.374838000" lon="-5.152229000">
        <ele>144.7</ele>
        <time>2020-10-16T11:26:21Z</time>
      </trkpt>
      <trkpt lat="37.374818000" lon="-5.152349000">
        <ele>144.7</ele>
        <time>2020-10-16T11:26:23Z</time>
      </trkpt>
      <trkpt lat="37.374797000" lon="-5.152473000">
        <ele>144.7</ele>
        <time>2020-10-16T11:26:25Z</time>
      </trkpt>
      <trkpt lat="37.374777000" lon="-5.152590000">
        <ele>144.7</ele>
        <time>2020-10-16T11:26:27Z</time>
      </trkpt>
      <trkpt lat="37.374752000" lon="-5.152712000">
        <ele>144.7</ele>
        <time>2020-10-16T11:26:29Z</time>
      </trkpt>
      <trkpt lat="37.374728000" lon="-5.152834000">
        <ele>144.8</ele>
        <time>2020-10-16T11:26:31Z</time>
      </trkpt>
      <trkpt lat="37.374706000" lon="-5.152955000">
        <ele>145.0</ele>
        <time>2020-10-16T11:26:33Z</time>
      </trkpt>
      <trkpt lat="37.374680000" lon="-5.153077000">
        <ele>145.2</ele>
        <time>2020-10-16T11:26:35Z</time>
      </trkpt>
      <trkpt lat="37.374658000" lon="-5.153205000">
        <ele>145.3</ele>
        <time>2020-10-16T11:26:37Z</time>
      </trkpt>
      <trkpt lat="37.374638000" lon="-5.153330000">
        <ele>145.4</ele>
        <time>2020-10-16T11:26:39Z</time>
      </trkpt>
      <trkpt lat="37.374616000" lon="-5.153459000">
        <ele>145.5</ele>
        <time>2020-10-16T11:26:41Z</time>
      </trkpt>
      <trkpt lat="37.374592000" lon="-5.153591000">
        <ele>145.5</ele>
        <time>2020-10-16T11:26:43Z</time>
      </trkpt>
      <trkpt lat="37.374561000" lon="-5.153727000">
        <ele>145.6</ele>
        <time>2020-10-16T11:26:45Z</time>
      </trkpt>
      <trkpt lat="37.374525000" lon="-5.153868000">
        <ele>145.7</ele>
        <time>2020-10-16T11:26:47Z</time>
      </trkpt>
      <trkpt lat="37.374497000" lon="-5.154004000">
        <ele>145.8</ele>
        <time>2020-10-16T11:26:49Z</time>
      </trkpt>
      <trkpt lat="37.374469000" lon="-5.154135000">
        <ele>146.0</ele>
        <time>2020-10-16T11:26:51Z</time>
      </trkpt>
      <trkpt lat="37.374435000" lon="-5.154272000">
        <ele>146.2</ele>
        <time>2020-10-16T11:26:53Z</time>
      </trkpt>
      <trkpt lat="37.374404000" lon="-5.154412000">
        <ele>146.3</ele>
        <time>2020-10-16T11:26:55Z</time>
      </trkpt>
      <trkpt lat="37.374365000" lon="-5.154545000">
        <ele>146.4</ele>
        <time>2020-10-16T11:26:57Z</time>
      </trkpt>
      <trkpt lat="37.374323000" lon="-5.154675000">
        <ele>146.5</ele>
        <time>2020-10-16T11:26:59Z</time>
      </trkpt>
      <trkpt lat="37.374278000" lon="-5.154817000">
        <ele>146.5</ele>
        <time>2020-10-16T11:27:01Z</time>
      </trkpt>
      <trkpt lat="37.374237000" lon="-5.154954000">
        <ele>146.6</ele>
        <time>2020-10-16T11:27:03Z</time>
      </trkpt>
      <trkpt lat="37.374195000" lon="-5.155089000">
        <ele>146.6</ele>
        <time>2020-10-16T11:27:05Z</time>
      </trkpt>
      <trkpt lat="37.374156000" lon="-5.155222000">
        <ele>146.6</ele>
        <time>2020-10-16T11:27:07Z</time>
      </trkpt>
      <trkpt lat="37.374106000" lon="-5.155346000">
        <ele>146.6</ele>
        <time>2020-10-16T11:27:09Z</time>
      </trkpt>
      <trkpt lat="37.374065000" lon="-5.155474000">
        <ele>146.6</ele>
        <time>2020-10-16T11:27:11Z</time>
      </trkpt>
      <trkpt lat="37.374019000" lon="-5.155597000">
        <ele>146.5</ele>
        <time>2020-10-16T11:27:13Z</time>
      </trkpt>
      <trkpt lat="37.373978000" lon="-5.155712000">
        <ele>146.5</ele>
        <time>2020-10-16T11:27:15Z</time>
      </trkpt>
      <trkpt lat="37.373935000" lon="-5.155832000">
        <ele>146.5</ele>
        <time>2020-10-16T11:27:17Z</time>
      </trkpt>
      <trkpt lat="37.373894000" lon="-5.155952000">
        <ele>146.5</ele>
        <time>2020-10-16T11:27:19Z</time>
      </trkpt>
      <trkpt lat="37.373848000" lon="-5.156065000">
        <ele>146.5</ele>
        <time>2020-10-16T11:27:21Z</time>
      </trkpt>
      <trkpt lat="37.373802000" lon="-5.156186000">
        <ele>146.5</ele>
        <time>2020-10-16T11:27:23Z</time>
      </trkpt>
      <trkpt lat="37.373761000" lon="-5.156305000">
        <ele>146.5</ele>
        <time>2020-10-16T11:27:25Z</time>
      </trkpt>
      <trkpt lat="37.373724000" lon="-5.156423000">
        <ele>146.5</ele>
        <time>2020-10-16T11:27:27Z</time>
      </trkpt>
      <trkpt lat="37.373681000" lon="-5.156542000">
        <ele>146.6</ele>
        <time>2020-10-16T11:27:29Z</time>
      </trkpt>
      <trkpt lat="37.373640000" lon="-5.156666000">
        <ele>146.7</ele>
        <time>2020-10-16T11:27:31Z</time>
      </trkpt>
      <trkpt lat="37.373596000" lon="-5.156791000">
        <ele>146.9</ele>
        <time>2020-10-16T11:27:33Z</time>
      </trkpt>
      <trkpt lat="37.373549000" lon="-5.156916000">
        <ele>147.1</ele>
        <time>2020-10-16T11:27:35Z</time>
      </trkpt>
      <trkpt lat="37.373502000" lon="-5.157045000">
        <ele>147.3</ele>
        <time>2020-10-16T11:27:37Z</time>
      </trkpt>
      <trkpt lat="37.373454000" lon="-5.157176000">
        <ele>147.4</ele>
        <time>2020-10-16T11:27:39Z</time>
      </trkpt>
      <trkpt lat="37.373407000" lon="-5.157312000">
        <ele>147.5</ele>
        <time>2020-10-16T11:27:41Z</time>
      </trkpt>
      <trkpt lat="37.373358000" lon="-5.157449000">
        <ele>147.5</ele>
        <time>2020-10-16T11:27:43Z</time>
      </trkpt>
      <trkpt lat="37.373309000" lon="-5.157591000">
        <ele>147.5</ele>
        <time>2020-10-16T11:27:45Z</time>
      </trkpt>
      <trkpt lat="37.373258000" lon="-5.157738000">
        <ele>147.4</ele>
        <time>2020-10-16T11:27:47Z</time>
      </trkpt>
      <trkpt lat="37.373205000" lon="-5.157882000">
        <ele>147.3</ele>
        <time>2020-10-16T11:27:49Z</time>
      </trkpt>
      <trkpt lat="37.373158000" lon="-5.158038000">
        <ele>147.2</ele>
        <time>2020-10-16T11:27:51Z</time>
      </trkpt>
      <trkpt lat="37.373108000" lon="-5.158187000">
        <ele>147.1</ele>
        <time>2020-10-16T11:27:53Z</time>
      </trkpt>
      <trkpt lat="37.373060000" lon="-5.158339000">
        <ele>146.9</ele>
        <time>2020-10-16T11:27:55Z</time>
      </trkpt>
      <trkpt lat="37.373016000" lon="-5.158486000">
        <ele>146.7</ele>
        <time>2020-10-16T11:27:57Z</time>
      </trkpt>
      <trkpt lat="37.372968000" lon="-5.158641000">
        <ele>146.5</ele>
        <time>2020-10-16T11:27:59Z</time>
      </trkpt>
      <trkpt lat="37.372921000" lon="-5.158793000">
        <ele>146.4</ele>
        <time>2020-10-16T11:28:01Z</time>
      </trkpt>
      <trkpt lat="37.372872000" lon="-5.158950000">
        <ele>146.2</ele>
        <time>2020-10-16T11:28:03Z</time>
      </trkpt>
      <trkpt lat="37.372836000" lon="-5.159109000">
        <ele>146.1</ele>
        <time>2020-10-16T11:28:05Z</time>
      </trkpt>
      <trkpt lat="37.372816000" lon="-5.159276000">
        <ele>146.0</ele>
        <time>2020-10-16T11:28:07Z</time>
      </trkpt>
      <trkpt lat="37.372800000" lon="-5.159445000">
        <ele>145.9</ele>
        <time>2020-10-16T11:28:09Z</time>
      </trkpt>
      <trkpt lat="37.372792000" lon="-5.159619000">
        <ele>145.7</ele>
        <time>2020-10-16T11:28:11Z</time>
      </trkpt>
      <trkpt lat="37.372786000" lon="-5.159789000">
        <ele>145.5</ele>
        <time>2020-10-16T11:28:13Z</time>
      </trkpt>
      <trkpt lat="37.372778000" lon="-5.159962000">
        <ele>145.3</ele>
        <time>2020-10-16T11:28:15Z</time>
      </trkpt>
      <trkpt lat="37.372768000" lon="-5.160134000">
        <ele>145.1</ele>
        <time>2020-10-16T11:28:17Z</time>
      </trkpt>
      <trkpt lat="37.372760000" lon="-5.160307000">
        <ele>144.9</ele>
        <time>2020-10-16T11:28:19Z</time>
      </trkpt>
      <trkpt lat="37.372751000" lon="-5.160476000">
        <ele>144.8</ele>
        <time>2020-10-16T11:28:21Z</time>
      </trkpt>
      <trkpt lat="37.372742000" lon="-5.160643000">
        <ele>144.7</ele>
        <time>2020-10-16T11:28:23Z</time>
      </trkpt>
      <trkpt lat="37.372737000" lon="-5.160806000">
        <ele>144.6</ele>
        <time>2020-10-16T11:28:25Z</time>
      </trkpt>
      <trkpt lat="37.372729000" lon="-5.160964000">
        <ele>144.5</ele>
        <time>2020-10-16T11:28:27Z</time>
      </trkpt>
      <trkpt lat="37.372736000" lon="-5.161120000">
        <ele>144.5</ele>
        <time>2020-10-16T11:28:29Z</time>
      </trkpt>
      <trkpt lat="37.372734000" lon="-5.161277000">
        <ele>144.6</ele>
        <time>2020-10-16T11:28:31Z</time>
      </trkpt>
      <trkpt lat="37.372737000" lon="-5.161430000">
        <ele>144.8</ele>
        <time>2020-10-16T11:28:33Z</time>
      </trkpt>
      <trkpt lat="37.372739000" lon="-5.161580000">
        <ele>145.0</ele>
        <time>2020-10-16T11:28:35Z</time>
      </trkpt>
      <trkpt lat="37.372754000" lon="-5.161728000">
        <ele>145.3</ele>
        <time>2020-10-16T11:28:37Z</time>
      </trkpt>
      <trkpt lat="37.372778000" lon="-5.161870000">
        <ele>145.5</ele>
        <time>2020-10-16T11:28:39Z</time>
      </trkpt>
      <trkpt lat="37.372813000" lon="-5.162005000">
        <ele>145.6</ele>
        <time>2020-10-16T11:28:41Z</time>
      </trkpt>
      <trkpt lat="37.372853000" lon="-5.162130000">
        <ele>145.8</ele>
        <time>2020-10-16T11:28:43Z</time>
      </trkpt>
      <trkpt lat="37.372895000" lon="-5.162255000">
        <ele>146.0</ele>
        <time>2020-10-16T11:28:45Z</time>
      </trkpt>
      <trkpt lat="37.372939000" lon="-5.162375000">
        <ele>146.2</ele>
        <time>2020-10-16T11:28:47Z</time>
      </trkpt>
      <trkpt lat="37.372986000" lon="-5.162500000">
        <ele>146.4</ele>
        <time>2020-10-16T11:28:49Z</time>
      </trkpt>
      <trkpt lat="37.373033000" lon="-5.162618000">
        <ele>146.5</ele>
        <time>2020-10-16T11:28:51Z</time>
      </trkpt>
      <trkpt lat="37.373069000" lon="-5.162731000">
        <ele>146.5</ele>
        <time>2020-10-16T11:28:53Z</time>
      </trkpt>
      <trkpt lat="37.373112000" lon="-5.162848000">
        <ele>146.6</ele>
        <time>2020-10-16T11:28:55Z</time>
      </trkpt>
      <trkpt lat="37.373157000" lon="-5.162977000">
        <ele>146.6</ele>
        <time>2020-10-16T11:28:57Z</time>
      </trkpt>
      <trkpt lat="37.373200000" lon="-5.163097000">
        <ele>146.6</ele>
        <time>2020-10-16T11:28:59Z</time>
      </trkpt>
      <trkpt lat="37.373235000" lon="-5.163209000">
        <ele>146.5</ele>
        <time>2020-10-16T11:29:01Z</time>
      </trkpt>
      <trkpt lat="37.373279000" lon="-5.163311000">
        <ele>146.5</ele>
        <time>2020-10-16T11:29:03Z</time>
      </trkpt>
      <trkpt lat="37.373326000" lon="-5.163431000">
        <ele>146.3</ele>
        <time>2020-10-16T11:29:05Z</time>
      </trkpt>
      <trkpt lat="37.373375000" lon="-5.163547000">
        <ele>146.1</ele>
        <time>2020-10-16T11:29:07Z</time>
      </trkpt>
      <trkpt lat="37.373414000" lon="-5.163665000">
        <ele>145.9</ele>
        <time>2020-10-16T11:29:09Z</time>
      </trkpt>
      <trkpt lat="37.373449000" lon="-5.163780000">
        <ele>145.7</ele>
        <time>2020-10-16T11:29:11Z</time>
      </trkpt>
      <trkpt lat="37.373490000" lon="-5.163889000">
        <ele>145.5</ele>
        <time>2020-10-16T11:29:13Z</time>
      </trkpt>
      <trkpt lat="37.373537000" lon="-5.164013000">
        <ele>145.4</ele>
        <time>2020-10-16T11:29:15Z</time>
      </trkpt>
      <trkpt lat="37.373578000" lon="-5.164133000">
        <ele>145.2</ele>
        <time>2020-10-16T11:29:17Z</time>
      </trkpt>
      <trkpt lat="37.373624000" lon="-5.164253000">
        <ele>145.1</ele>
        <time>2020-10-16T11:29:19Z</time>
      </trkpt>
      <trkpt lat="37.373670000" lon="-5.164376000">
        <ele>145.0</ele>
        <time>2020-10-16T11:29:21Z</time>
      </trkpt>
      <trkpt lat="37.373719000" lon="-5.164500000">
        <ele>145.0</ele>
        <time>2020-10-16T11:29:23Z</time>
      </trkpt>
      <trkpt lat="37.373763000" lon="-5.164622000">
        <ele>145.0</ele>
        <time>2020-10-16T11:29:25Z</time>
      </trkpt>
      <trkpt lat="37.373809000" lon="-5.164742000">
        <ele>145.0</ele>
        <time>2020-10-16T11:29:27Z</time>
      </trkpt>
      <trkpt lat="37.373850000" lon="-5.164864000">
        <ele>145.0</ele>
        <time>2020-10-16T11:29:29Z</time>
      </trkpt>
      <trkpt lat="37.373886000" lon="-5.164993000">
        <ele>145.0</ele>
        <time>2020-10-16T11:29:31Z</time>
      </trkpt>
      <trkpt lat="37.373914000" lon="-5.165121000">
        <ele>145.0</ele>
        <time>2020-10-16T11:29:33Z</time>
      </trkpt>
      <trkpt lat="37.373935000" lon="-5.165260000">
        <ele>145.0</ele>
        <time>2020-10-16T11:29:35Z</time>
      </trkpt>
      <trkpt lat="37.373961000" lon="-5.165395000">
        <ele>145.0</ele>
        <time>2020-10-16T11:29:37Z</time>
      </trkpt>
      <trkpt lat="37.373988000" lon="-5.165530000">
        <ele>145.0</ele>
        <time>2020-10-16T11:29:39Z</time>
      </trkpt>
      <trkpt lat="37.374013000" lon="-5.165670000">
        <ele>145.0</ele>
        <time>2020-10-16T11:29:41Z</time>
      </trkpt>
      <trkpt lat="37.374030000" lon="-5.165803000">
        <ele>145.0</ele>
        <time>2020-10-16T11:29:43Z</time>
      </trkpt>
      <trkpt lat="37.374050000" lon="-5.165931000">
        <ele>145.1</ele>
        <time>2020-10-16T11:29:45Z</time>
      </trkpt>
      <trkpt lat="37.374070000" lon="-5.166064000">
        <ele>145.2</ele>
        <time>2020-10-16T11:29:47Z</time>
      </trkpt>
      <trkpt lat="37.374093000" lon="-5.166200000">
        <ele>145.3</ele>
        <time>2020-10-16T11:29:49Z</time>
      </trkpt>
      <trkpt lat="37.374111000" lon="-5.166329000">
        <ele>145.4</ele>
        <time>2020-10-16T11:29:51Z</time>
      </trkpt>
      <trkpt lat="37.374129000" lon="-5.166457000">
        <ele>145.5</ele>
        <time>2020-10-16T11:29:53Z</time>
      </trkpt>
      <trkpt lat="37.374143000" lon="-5.166585000">
        <ele>145.5</ele>
        <time>2020-10-16T11:29:55Z</time>
      </trkpt>
      <trkpt lat="37.374164000" lon="-5.166715000">
        <ele>145.5</ele>
        <time>2020-10-16T11:29:57Z</time>
      </trkpt>
      <trkpt lat="37.374182000" lon="-5.166842000">
        <ele>145.5</ele>
        <time>2020-10-16T11:29:59Z</time>
      </trkpt>
      <trkpt lat="37.374201000" lon="-5.166966000">
        <ele>145.5</ele>
        <time>2020-10-16T11:30:01Z</time>
      </trkpt>
      <trkpt lat="37.374220000" lon="-5.167095000">
        <ele>145.5</ele>
        <time>2020-10-16T11:30:03Z</time>
      </trkpt>
      <trkpt lat="37.374239000" lon="-5.167215000">
        <ele>145.5</ele>
        <time>2020-10-16T11:30:05Z</time>
      </trkpt>
      <trkpt lat="37.374260000" lon="-5.167343000">
        <ele>145.5</ele>
        <time>2020-10-16T11:30:07Z</time>
      </trkpt>
      <trkpt lat="37.374280000" lon="-5.167464000">
        <ele>145.5</ele>
        <time>2020-10-16T11:30:09Z</time>
      </trkpt>
      <trkpt lat="37.374297000" lon="-5.167589000">
        <ele>145.5</ele>
        <time>2020-10-16T11:30:11Z</time>
      </trkpt>
      <trkpt lat="37.374312000" lon="-5.167713000">
        <ele>145.5</ele>
        <time>2020-10-16T11:30:13Z</time>
      </trkpt>
      <trkpt lat="37.374332000" lon="-5.167839000">
        <ele>145.4</ele>
        <time>2020-10-16T11:30:15Z</time>
      </trkpt>
      <trkpt lat="37.374355000" lon="-5.167958000">
        <ele>145.3</ele>
        <time>2020-10-16T11:30:17Z</time>
      </trkpt>
      <trkpt lat="37.374377000" lon="-5.168078000">
        <ele>145.2</ele>
        <time>2020-10-16T11:30:19Z</time>
      </trkpt>
      <trkpt lat="37.374395000" lon="-5.168202000">
        <ele>145.1</ele>
        <time>2020-10-16T11:30:21Z</time>
      </trkpt>
      <trkpt lat="37.374412000" lon="-5.168327000">
        <ele>145.0</ele>
        <time>2020-10-16T11:30:23Z</time>
      </trkpt>
      <trkpt lat="37.374429000" lon="-5.168450000">
        <ele>144.9</ele>
        <time>2020-10-16T11:30:25Z</time>
      </trkpt>
      <trkpt lat="37.374450000" lon="-5.168578000">
        <ele>144.7</ele>
        <time>2020-10-16T11:30:27Z</time>
      </trkpt>
      <trkpt lat="37.374467000" lon="-5.168705000">
        <ele>144.5</ele>
        <time>2020-10-16T11:30:29Z</time>
      </trkpt>
      <trkpt lat="37.374484000" lon="-5.168832000">
        <ele>144.4</ele>
        <time>2020-10-16T11:30:31Z</time>
      </trkpt>
      <trkpt lat="37.374503000" lon="-5.168964000">
        <ele>144.2</ele>
        <time>2020-10-16T11:30:33Z</time>
      </trkpt>
      <trkpt lat="37.374522000" lon="-5.169096000">
        <ele>144.1</ele>
        <time>2020-10-16T11:30:35Z</time>
      </trkpt>
      <trkpt lat="37.374544000" lon="-5.169237000">
        <ele>144.0</ele>
        <time>2020-10-16T11:30:37Z</time>
      </trkpt>
      <trkpt lat="37.374564000" lon="-5.169375000">
        <ele>144.1</ele>
        <time>2020-10-16T11:30:39Z</time>
      </trkpt>
      <trkpt lat="37.374582000" lon="-5.169514000">
        <ele>144.1</ele>
        <time>2020-10-16T11:30:41Z</time>
      </trkpt>
      <trkpt lat="37.374593000" lon="-5.169654000">
        <ele>144.1</ele>
        <time>2020-10-16T11:30:43Z</time>
      </trkpt>
      <trkpt lat="37.374598000" lon="-5.169794000">
        <ele>144.1</ele>
        <time>2020-10-16T11:30:45Z</time>
      </trkpt>
      <trkpt lat="37.374587000" lon="-5.169936000">
        <ele>144.1</ele>
        <time>2020-10-16T11:30:47Z</time>
      </trkpt>
      <trkpt lat="37.374570000" lon="-5.170078000">
        <ele>144.1</ele>
        <time>2020-10-16T11:30:49Z</time>
      </trkpt>
      <trkpt lat="37.374538000" lon="-5.170215000">
        <ele>144.0</ele>
        <time>2020-10-16T11:30:51Z</time>
      </trkpt>
      <trkpt lat="37.374498000" lon="-5.170349000">
        <ele>143.9</ele>
        <time>2020-10-16T11:30:53Z</time>
      </trkpt>
      <trkpt lat="37.374457000" lon="-5.170480000">
        <ele>143.8</ele>
        <time>2020-10-16T11:30:55Z</time>
      </trkpt>
      <trkpt lat="37.374410000" lon="-5.170611000">
        <ele>143.6</ele>
        <time>2020-10-16T11:30:57Z</time>
      </trkpt>
      <trkpt lat="37.374360000" lon="-5.170737000">
        <ele>143.5</ele>
        <time>2020-10-16T11:30:59Z</time>
      </trkpt>
      <trkpt lat="37.374321000" lon="-5.170870000">
        <ele>143.2</ele>
        <time>2020-10-16T11:31:01Z</time>
      </trkpt>
      <trkpt lat="37.374271000" lon="-5.170994000">
        <ele>143.0</ele>
        <time>2020-10-16T11:31:03Z</time>
      </trkpt>
      <trkpt lat="37.374226000" lon="-5.171121000">
        <ele>142.8</ele>
        <time>2020-10-16T11:31:05Z</time>
      </trkpt>
      <trkpt lat="37.374182000" lon="-5.171243000">
        <ele>142.6</ele>
        <time>2020-10-16T11:31:07Z</time>
      </trkpt>
      <trkpt lat="37.374144000" lon="-5.171368000">
        <ele>142.5</ele>
        <time>2020-10-16T11:31:09Z</time>
      </trkpt>
      <trkpt lat="37.374095000" lon="-5.171488000">
        <ele>142.5</ele>
        <time>2020-10-16T11:31:11Z</time>
      </trkpt>
      <trkpt lat="37.374050000" lon="-5.171611000">
        <ele>142.5</ele>
        <time>2020-10-16T11:31:13Z</time>
      </trkpt>
      <trkpt lat="37.374008000" lon="-5.171733000">
        <ele>142.6</ele>
        <time>2020-10-16T11:31:15Z</time>
      </trkpt>
      <trkpt lat="37.373968000" lon="-5.171858000">
        <ele>142.8</ele>
        <time>2020-10-16T11:31:17Z</time>
      </trkpt>
      <trkpt lat="37.373923000" lon="-5.171973000">
        <ele>143.1</ele>
        <time>2020-10-16T11:31:19Z</time>
      </trkpt>
      <trkpt lat="37.373880000" lon="-5.172091000">
        <ele>143.4</ele>
        <time>2020-10-16T11:31:21Z</time>
      </trkpt>
      <trkpt lat="37.373837000" lon="-5.172211000">
        <ele>143.6</ele>
        <time>2020-10-16T11:31:23Z</time>
      </trkpt>
      <trkpt lat="37.373793000" lon="-5.172314000">
        <ele>143.8</ele>
        <time>2020-10-16T11:31:25Z</time>
      </trkpt>
      <trkpt lat="37.373754000" lon="-5.172425000">
        <ele>144.0</ele>
        <time>2020-10-16T11:31:27Z</time>
      </trkpt>
      <trkpt lat="37.373711000" lon="-5.172539000">
        <ele>144.1</ele>
        <time>2020-10-16T11:31:29Z</time>
      </trkpt>
      <trkpt lat="37.373670000" lon="-5.172655000">
        <ele>144.1</ele>
        <time>2020-10-16T11:31:31Z</time>
      </trkpt>
      <trkpt lat="37.373627000" lon="-5.172774000">
        <ele>144.1</ele>
        <time>2020-10-16T11:31:33Z</time>
      </trkpt>
      <trkpt lat="37.373585000" lon="-5.172885000">
        <ele>144.1</ele>
        <time>2020-10-16T11:31:35Z</time>
      </trkpt>
      <trkpt lat="37.373544000" lon="-5.172998000">
        <ele>144.1</ele>
        <time>2020-10-16T11:31:37Z</time>
      </trkpt>
      <trkpt lat="37.373499000" lon="-5.173115000">
        <ele>144.0</ele>
        <time>2020-10-16T11:31:39Z</time>
      </trkpt>
      <trkpt lat="37.373458000" lon="-5.173234000">
        <ele>143.9</ele>
        <time>2020-10-16T11:31:41Z</time>
      </trkpt>
      <trkpt lat="37.373419000" lon="-5.173349000">
        <ele>143.8</ele>
        <time>2020-10-16T11:31:43Z</time>
      </trkpt>
      <trkpt lat="37.373372000" lon="-5.173465000">
        <ele>143.7</ele>
        <time>2020-10-16T11:31:45Z</time>
      </trkpt>
      <trkpt lat="37.373333000" lon="-5.173572000">
        <ele>143.7</ele>
        <time>2020-10-16T11:31:47Z</time>
      </trkpt>
      <trkpt lat="37.373290000" lon="-5.173684000">
        <ele>143.7</ele>
        <time>2020-10-16T11:31:49Z</time>
      </trkpt>
      <trkpt lat="37.373250000" lon="-5.173791000">
        <ele>143.9</ele>
        <time>2020-10-16T11:31:51Z</time>
      </trkpt>
      <trkpt lat="37.373209000" lon="-5.173899000">
        <ele>144.1</ele>
        <time>2020-10-16T11:31:53Z</time>
      </trkpt>
      <trkpt lat="37.373168000" lon="-5.174012000">
        <ele>144.3</ele>
        <time>2020-10-16T11:31:55Z</time>
      </trkpt>
      <trkpt lat="37.373126000" lon="-5.174124000">
        <ele>144.4</ele>
        <time>2020-10-16T11:31:57Z</time>
      </trkpt>
      <trkpt lat="37.373084000" lon="-5.174237000">
        <ele>144.5</ele>
        <time>2020-10-16T11:31:59Z</time>
      </trkpt>
      <trkpt lat="37.373045000" lon="-5.174355000">
        <ele>144.5</ele>
        <time>2020-10-16T11:32:01Z</time>
      </trkpt>
      <trkpt lat="37.373006000" lon="-5.174471000">
        <ele>144.6</ele>
        <time>2020-10-16T11:32:03Z</time>
      </trkpt>
      <trkpt lat="37.372959000" lon="-5.174585000">
        <ele>144.7</ele>
        <time>2020-10-16T11:32:05Z</time>
      </trkpt>
      <trkpt lat="37.372915000" lon="-5.174701000">
        <ele>144.8</ele>
        <time>2020-10-16T11:32:07Z</time>
      </trkpt>
      <trkpt lat="37.372875000" lon="-5.174816000">
        <ele>144.9</ele>
        <time>2020-10-16T11:32:09Z</time>
      </trkpt>
      <trkpt lat="37.372834000" lon="-5.174929000">
        <ele>145.0</ele>
        <time>2020-10-16T11:32:11Z</time>
      </trkpt>
      <trkpt lat="37.372794000" lon="-5.175037000">
        <ele>145.1</ele>
        <time>2020-10-16T11:32:13Z</time>
      </trkpt>
      <trkpt lat="37.372760000" lon="-5.175142000">
        <ele>145.2</ele>
        <time>2020-10-16T11:32:15Z</time>
      </trkpt>
      <trkpt lat="37.372723000" lon="-5.175240000">
        <ele>145.3</ele>
        <time>2020-10-16T11:32:17Z</time>
      </trkpt>
      <trkpt lat="37.372685000" lon="-5.175340000">
        <ele>145.5</ele>
        <time>2020-10-16T11:32:19Z</time>
      </trkpt>
      <trkpt lat="37.372651000" lon="-5.175434000">
        <ele>145.7</ele>
        <time>2020-10-16T11:32:21Z</time>
      </trkpt>
      <trkpt lat="37.372595000" lon="-5.175565000">
        <ele>146.0</ele>
        <time>2020-10-16T11:32:24Z</time>
      </trkpt>
      <trkpt lat="37.372547000" lon="-5.175697000">
        <ele>146.4</ele>
        <time>2020-10-16T11:32:27Z</time>
      </trkpt>
      <trkpt lat="37.372500000" lon="-5.175828000">
        <ele>146.8</ele>
        <time>2020-10-16T11:32:30Z</time>
      </trkpt>
      <trkpt lat="37.372456000" lon="-5.175952000">
        <ele>147.3</ele>
        <time>2020-10-16T11:32:33Z</time>
      </trkpt>
      <trkpt lat="37.372416000" lon="-5.176068000">
        <ele>147.7</ele>
        <time>2020-10-16T11:32:36Z</time>
      </trkpt>
      <trkpt lat="37.372378000" lon="-5.176186000">
        <ele>148.2</ele>
        <time>2020-10-16T11:32:39Z</time>
      </trkpt>
      <trkpt lat="37.372335000" lon="-5.176303000">
        <ele>148.5</ele>
        <time>2020-10-16T11:32:42Z</time>
      </trkpt>
      <trkpt lat="37.372287000" lon="-5.176426000">
        <ele>149.0</ele>
        <time>2020-10-16T11:32:45Z</time>
      </trkpt>
      <trkpt lat="37.372242000" lon="-5.176548000">
        <ele>149.5</ele>
        <time>2020-10-16T11:32:48Z</time>
      </trkpt>
      <trkpt lat="37.372197000" lon="-5.176674000">
        <ele>149.8</ele>
        <time>2020-10-16T11:32:51Z</time>
      </trkpt>
      <trkpt lat="37.372153000" lon="-5.176795000">
        <ele>150.1</ele>
        <time>2020-10-16T11:32:54Z</time>
      </trkpt>
      <trkpt lat="37.372111000" lon="-5.176921000">
        <ele>150.4</ele>
        <time>2020-10-16T11:32:57Z</time>
      </trkpt>
      <trkpt lat="37.372068000" lon="-5.177053000">
        <ele>150.5</ele>
        <time>2020-10-16T11:33:00Z</time>
      </trkpt>
      <trkpt lat="37.372030000" lon="-5.177193000">
        <ele>150.5</ele>
        <time>2020-10-16T11:33:03Z</time>
      </trkpt>
      <trkpt lat="37.372009000" lon="-5.177295000">
        <ele>150.5</ele>
        <time>2020-10-16T11:33:05Z</time>
      </trkpt>
      <trkpt lat="37.371988000" lon="-5.177402000">
        <ele>150.5</ele>
        <time>2020-10-16T11:33:07Z</time>
      </trkpt>
      <trkpt lat="37.371969000" lon="-5.177519000">
        <ele>150.5</ele>
        <time>2020-10-16T11:33:09Z</time>
      </trkpt>
      <trkpt lat="37.371943000" lon="-5.177648000">
        <ele>150.5</ele>
        <time>2020-10-16T11:33:11Z</time>
      </trkpt>
      <trkpt lat="37.371922000" lon="-5.177778000">
        <ele>150.4</ele>
        <time>2020-10-16T11:33:13Z</time>
      </trkpt>
      <trkpt lat="37.371901000" lon="-5.177898000">
        <ele>150.4</ele>
        <time>2020-10-16T11:33:15Z</time>
      </trkpt>
      <trkpt lat="37.371875000" lon="-5.178019000">
        <ele>150.4</ele>
        <time>2020-10-16T11:33:17Z</time>
      </trkpt>
      <trkpt lat="37.371853000" lon="-5.178146000">
        <ele>150.3</ele>
        <time>2020-10-16T11:33:19Z</time>
      </trkpt>
      <trkpt lat="37.371830000" lon="-5.178278000">
        <ele>150.2</ele>
        <time>2020-10-16T11:33:21Z</time>
      </trkpt>
      <trkpt lat="37.371805000" lon="-5.178408000">
        <ele>150.2</ele>
        <time>2020-10-16T11:33:23Z</time>
      </trkpt>
      <trkpt lat="37.371783000" lon="-5.178547000">
        <ele>150.2</ele>
        <time>2020-10-16T11:33:25Z</time>
      </trkpt>
      <trkpt lat="37.371757000" lon="-5.178678000">
        <ele>150.1</ele>
        <time>2020-10-16T11:33:27Z</time>
      </trkpt>
      <trkpt lat="37.371732000" lon="-5.178813000">
        <ele>150.0</ele>
        <time>2020-10-16T11:33:29Z</time>
      </trkpt>
      <trkpt lat="37.371708000" lon="-5.178942000">
        <ele>149.9</ele>
        <time>2020-10-16T11:33:31Z</time>
      </trkpt>
      <trkpt lat="37.371684000" lon="-5.179068000">
        <ele>149.8</ele>
        <time>2020-10-16T11:33:33Z</time>
      </trkpt>
      <trkpt lat="37.371662000" lon="-5.179190000">
        <ele>149.8</ele>
        <time>2020-10-16T11:33:35Z</time>
      </trkpt>
      <trkpt lat="37.371635000" lon="-5.179311000">
        <ele>149.7</ele>
        <time>2020-10-16T11:33:37Z</time>
      </trkpt>
      <trkpt lat="37.371608000" lon="-5.179433000">
        <ele>149.6</ele>
        <time>2020-10-16T11:33:39Z</time>
      </trkpt>
      <trkpt lat="37.371588000" lon="-5.179553000">
        <ele>149.6</ele>
        <time>2020-10-16T11:33:41Z</time>
      </trkpt>
      <trkpt lat="37.371565000" lon="-5.179664000">
        <ele>149.6</ele>
        <time>2020-10-16T11:33:43Z</time>
      </trkpt>
      <trkpt lat="37.371546000" lon="-5.179780000">
        <ele>149.6</ele>
        <time>2020-10-16T11:33:45Z</time>
      </trkpt>
      <trkpt lat="37.371525000" lon="-5.179901000">
        <ele>149.6</ele>
        <time>2020-10-16T11:33:47Z</time>
      </trkpt>
      <trkpt lat="37.371503000" lon="-5.180030000">
        <ele>149.7</ele>
        <time>2020-10-16T11:33:49Z</time>
      </trkpt>
      <trkpt lat="37.371482000" lon="-5.180161000">
        <ele>149.8</ele>
        <time>2020-10-16T11:33:51Z</time>
      </trkpt>
      <trkpt lat="37.371458000" lon="-5.180287000">
        <ele>149.9</ele>
        <time>2020-10-16T11:33:53Z</time>
      </trkpt>
      <trkpt lat="37.371439000" lon="-5.180410000">
        <ele>150.0</ele>
        <time>2020-10-16T11:33:55Z</time>
      </trkpt>
      <trkpt lat="37.371421000" lon="-5.180543000">
        <ele>150.0</ele>
        <time>2020-10-16T11:33:57Z</time>
      </trkpt>
      <trkpt lat="37.371404000" lon="-5.180674000">
        <ele>150.0</ele>
        <time>2020-10-16T11:33:59Z</time>
      </trkpt>
      <trkpt lat="37.371391000" lon="-5.180813000">
        <ele>150.1</ele>
        <time>2020-10-16T11:34:01Z</time>
      </trkpt>
      <trkpt lat="37.371376000" lon="-5.180951000">
        <ele>150.2</ele>
        <time>2020-10-16T11:34:03Z</time>
      </trkpt>
      <trkpt lat="37.371357000" lon="-5.181098000">
        <ele>150.3</ele>
        <time>2020-10-16T11:34:05Z</time>
      </trkpt>
      <trkpt lat="37.371338000" lon="-5.181243000">
        <ele>150.3</ele>
        <time>2020-10-16T11:34:07Z</time>
      </trkpt>
      <trkpt lat="37.371323000" lon="-5.181393000">
        <ele>150.3</ele>
        <time>2020-10-16T11:34:09Z</time>
      </trkpt>
      <trkpt lat="37.371309000" lon="-5.181544000">
        <ele>150.2</ele>
        <time>2020-10-16T11:34:11Z</time>
      </trkpt>
      <trkpt lat="37.371296000" lon="-5.181702000">
        <ele>150.0</ele>
        <time>2020-10-16T11:34:13Z</time>
      </trkpt>
      <trkpt lat="37.371278000" lon="-5.181867000">
        <ele>149.7</ele>
        <time>2020-10-16T11:34:15Z</time>
      </trkpt>
      <trkpt lat="37.371258000" lon="-5.182042000">
        <ele>149.4</ele>
        <time>2020-10-16T11:34:17Z</time>
      </trkpt>
      <trkpt lat="37.371237000" lon="-5.182225000">
        <ele>149.0</ele>
        <time>2020-10-16T11:34:19Z</time>
      </trkpt>
      <trkpt lat="37.371219000" lon="-5.182411000">
        <ele>148.5</ele>
        <time>2020-10-16T11:34:21Z</time>
      </trkpt>
      <trkpt lat="37.371200000" lon="-5.182595000">
        <ele>148.0</ele>
        <time>2020-10-16T11:34:23Z</time>
      </trkpt>
      <trkpt lat="37.371179000" lon="-5.182783000">
        <ele>147.5</ele>
        <time>2020-10-16T11:34:25Z</time>
      </trkpt>
      <trkpt lat="37.371165000" lon="-5.182978000">
        <ele>146.9</ele>
        <time>2020-10-16T11:34:27Z</time>
      </trkpt>
      <trkpt lat="37.371141000" lon="-5.183166000">
        <ele>146.5</ele>
        <time>2020-10-16T11:34:29Z</time>
      </trkpt>
      <trkpt lat="37.371120000" lon="-5.183346000">
        <ele>146.0</ele>
        <time>2020-10-16T11:34:31Z</time>
      </trkpt>
      <trkpt lat="37.371105000" lon="-5.183520000">
        <ele>145.6</ele>
        <time>2020-10-16T11:34:33Z</time>
      </trkpt>
      <trkpt lat="37.371089000" lon="-5.183689000">
        <ele>145.4</ele>
        <time>2020-10-16T11:34:35Z</time>
      </trkpt>
      <trkpt lat="37.371073000" lon="-5.183854000">
        <ele>145.3</ele>
        <time>2020-10-16T11:34:37Z</time>
      </trkpt>
      <trkpt lat="37.371051000" lon="-5.184018000">
        <ele>145.3</ele>
        <time>2020-10-16T11:34:39Z</time>
      </trkpt>
      <trkpt lat="37.371036000" lon="-5.184176000">
        <ele>145.3</ele>
        <time>2020-10-16T11:34:41Z</time>
      </trkpt>
      <trkpt lat="37.371019000" lon="-5.184326000">
        <ele>145.4</ele>
        <time>2020-10-16T11:34:43Z</time>
      </trkpt>
      <trkpt lat="37.371009000" lon="-5.184474000">
        <ele>145.4</ele>
        <time>2020-10-16T11:34:45Z</time>
      </trkpt>
      <trkpt lat="37.370991000" lon="-5.184622000">
        <ele>145.3</ele>
        <time>2020-10-16T11:34:47Z</time>
      </trkpt>
      <trkpt lat="37.370977000" lon="-5.184768000">
        <ele>145.2</ele>
        <time>2020-10-16T11:34:49Z</time>
      </trkpt>
      <trkpt lat="37.370964000" lon="-5.184909000">
        <ele>145.1</ele>
        <time>2020-10-16T11:34:51Z</time>
      </trkpt>
      <trkpt lat="37.370951000" lon="-5.185048000">
        <ele>145.0</ele>
        <time>2020-10-16T11:34:53Z</time>
      </trkpt>
      <trkpt lat="37.370931000" lon="-5.185182000">
        <ele>144.9</ele>
        <time>2020-10-16T11:34:55Z</time>
      </trkpt>
      <trkpt lat="37.370916000" lon="-5.185315000">
        <ele>144.8</ele>
        <time>2020-10-16T11:34:57Z</time>
      </trkpt>
      <trkpt lat="37.370903000" lon="-5.185447000">
        <ele>144.6</ele>
        <time>2020-10-16T11:34:59Z</time>
      </trkpt>
      <trkpt lat="37.370888000" lon="-5.185579000">
        <ele>144.5</ele>
        <time>2020-10-16T11:35:01Z</time>
      </trkpt>
      <trkpt lat="37.370875000" lon="-5.185715000">
        <ele>144.4</ele>
        <time>2020-10-16T11:35:03Z</time>
      </trkpt>
      <trkpt lat="37.370861000" lon="-5.185850000">
        <ele>144.4</ele>
        <time>2020-10-16T11:35:05Z</time>
      </trkpt>
      <trkpt lat="37.370850000" lon="-5.185981000">
        <ele>144.5</ele>
        <time>2020-10-16T11:35:07Z</time>
      </trkpt>
      <trkpt lat="37.370833000" lon="-5.186109000">
        <ele>144.9</ele>
        <time>2020-10-16T11:35:09Z</time>
      </trkpt>
      <trkpt lat="37.370819000" lon="-5.186238000">
        <ele>145.4</ele>
        <time>2020-10-16T11:35:11Z</time>
      </trkpt>
      <trkpt lat="37.370811000" lon="-5.186373000">
        <ele>145.8</ele>
        <time>2020-10-16T11:35:13Z</time>
      </trkpt>
      <trkpt lat="37.370793000" lon="-5.186507000">
        <ele>146.3</ele>
        <time>2020-10-16T11:35:15Z</time>
      </trkpt>
      <trkpt lat="37.370779000" lon="-5.186635000">
        <ele>146.7</ele>
        <time>2020-10-16T11:35:17Z</time>
      </trkpt>
      <trkpt lat="37.370763000" lon="-5.186766000">
        <ele>147.1</ele>
        <time>2020-10-16T11:35:19Z</time>
      </trkpt>
      <trkpt lat="37.370750000" lon="-5.186896000">
        <ele>147.4</ele>
        <time>2020-10-16T11:35:21Z</time>
      </trkpt>
      <trkpt lat="37.370734000" lon="-5.187028000">
        <ele>147.6</ele>
        <time>2020-10-16T11:35:23Z</time>
      </trkpt>
      <trkpt lat="37.370718000" lon="-5.187161000">
        <ele>147.8</ele>
        <time>2020-10-16T11:35:25Z</time>
      </trkpt>
      <trkpt lat="37.370704000" lon="-5.187295000">
        <ele>147.9</ele>
        <time>2020-10-16T11:35:27Z</time>
      </trkpt>
      <trkpt lat="37.370690000" lon="-5.187429000">
        <ele>147.9</ele>
        <time>2020-10-16T11:35:29Z</time>
      </trkpt>
      <trkpt lat="37.370679000" lon="-5.187565000">
        <ele>147.8</ele>
        <time>2020-10-16T11:35:31Z</time>
      </trkpt>
      <trkpt lat="37.370666000" lon="-5.187698000">
        <ele>147.6</ele>
        <time>2020-10-16T11:35:33Z</time>
      </trkpt>
      <trkpt lat="37.370650000" lon="-5.187835000">
        <ele>147.4</ele>
        <time>2020-10-16T11:35:35Z</time>
      </trkpt>
      <trkpt lat="37.370634000" lon="-5.187969000">
        <ele>147.1</ele>
        <time>2020-10-16T11:35:37Z</time>
      </trkpt>
      <trkpt lat="37.370620000" lon="-5.188105000">
        <ele>146.7</ele>
        <time>2020-10-16T11:35:39Z</time>
      </trkpt>
      <trkpt lat="37.370608000" lon="-5.188242000">
        <ele>146.5</ele>
        <time>2020-10-16T11:35:41Z</time>
      </trkpt>
      <trkpt lat="37.370595000" lon="-5.188384000">
        <ele>146.3</ele>
        <time>2020-10-16T11:35:43Z</time>
      </trkpt>
      <trkpt lat="37.370579000" lon="-5.188521000">
        <ele>146.1</ele>
        <time>2020-10-16T11:35:45Z</time>
      </trkpt>
      <trkpt lat="37.370562000" lon="-5.188662000">
        <ele>146.0</ele>
        <time>2020-10-16T11:35:47Z</time>
      </trkpt>
      <trkpt lat="37.370546000" lon="-5.188804000">
        <ele>145.9</ele>
        <time>2020-10-16T11:35:49Z</time>
      </trkpt>
      <trkpt lat="37.370532000" lon="-5.188954000">
        <ele>145.7</ele>
        <time>2020-10-16T11:35:51Z</time>
      </trkpt>
      <trkpt lat="37.370513000" lon="-5.189098000">
        <ele>145.5</ele>
        <time>2020-10-16T11:35:53Z</time>
      </trkpt>
      <trkpt lat="37.370494000" lon="-5.189238000">
        <ele>145.5</ele>
        <time>2020-10-16T11:35:55Z</time>
      </trkpt>
      <trkpt lat="37.370478000" lon="-5.189378000">
        <ele>145.5</ele>
        <time>2020-10-16T11:35:57Z</time>
      </trkpt>
      <trkpt lat="37.370465000" lon="-5.189514000">
        <ele>145.5</ele>
        <time>2020-10-16T11:35:59Z</time>
      </trkpt>
      <trkpt lat="37.370455000" lon="-5.189648000">
        <ele>145.5</ele>
        <time>2020-10-16T11:36:01Z</time>
      </trkpt>
      <trkpt lat="37.370440000" lon="-5.189778000">
        <ele>145.7</ele>
        <time>2020-10-16T11:36:03Z</time>
      </trkpt>
      <trkpt lat="37.370426000" lon="-5.189910000">
        <ele>145.9</ele>
        <time>2020-10-16T11:36:05Z</time>
      </trkpt>
      <trkpt lat="37.370414000" lon="-5.190036000">
        <ele>146.1</ele>
        <time>2020-10-16T11:36:07Z</time>
      </trkpt>
      <trkpt lat="37.370406000" lon="-5.190168000">
        <ele>146.2</ele>
        <time>2020-10-16T11:36:09Z</time>
      </trkpt>
      <trkpt lat="37.370394000" lon="-5.190297000">
        <ele>146.3</ele>
        <time>2020-10-16T11:36:11Z</time>
      </trkpt>
      <trkpt lat="37.370376000" lon="-5.190434000">
        <ele>146.4</ele>
        <time>2020-10-16T11:36:13Z</time>
      </trkpt>
      <trkpt lat="37.370366000" lon="-5.190561000">
        <ele>146.5</ele>
        <time>2020-10-16T11:36:15Z</time>
      </trkpt>
      <trkpt lat="37.370356000" lon="-5.190685000">
        <ele>146.5</ele>
        <time>2020-10-16T11:36:17Z</time>
      </trkpt>
      <trkpt lat="37.370344000" lon="-5.190803000">
        <ele>146.6</ele>
        <time>2020-10-16T11:36:19Z</time>
      </trkpt>
      <trkpt lat="37.370329000" lon="-5.190925000">
        <ele>146.7</ele>
        <time>2020-10-16T11:36:21Z</time>
      </trkpt>
      <trkpt lat="37.370316000" lon="-5.191051000">
        <ele>146.8</ele>
        <time>2020-10-16T11:36:23Z</time>
      </trkpt>
      <trkpt lat="37.370300000" lon="-5.191173000">
        <ele>146.8</ele>
        <time>2020-10-16T11:36:25Z</time>
      </trkpt>
      <trkpt lat="37.370283000" lon="-5.191295000">
        <ele>146.8</ele>
        <time>2020-10-16T11:36:27Z</time>
      </trkpt>
      <trkpt lat="37.370271000" lon="-5.191417000">
        <ele>146.8</ele>
        <time>2020-10-16T11:36:29Z</time>
      </trkpt>
      <trkpt lat="37.370260000" lon="-5.191539000">
        <ele>146.8</ele>
        <time>2020-10-16T11:36:31Z</time>
      </trkpt>
      <trkpt lat="37.370247000" lon="-5.191658000">
        <ele>146.8</ele>
        <time>2020-10-16T11:36:33Z</time>
      </trkpt>
      <trkpt lat="37.370241000" lon="-5.191782000">
        <ele>146.9</ele>
        <time>2020-10-16T11:36:35Z</time>
      </trkpt>
      <trkpt lat="37.370227000" lon="-5.191905000">
        <ele>147.0</ele>
        <time>2020-10-16T11:36:37Z</time>
      </trkpt>
      <trkpt lat="37.370211000" lon="-5.192030000">
        <ele>147.0</ele>
        <time>2020-10-16T11:36:39Z</time>
      </trkpt>
      <trkpt lat="37.370200000" lon="-5.192148000">
        <ele>146.9</ele>
        <time>2020-10-16T11:36:41Z</time>
      </trkpt>
      <trkpt lat="37.370181000" lon="-5.192263000">
        <ele>146.8</ele>
        <time>2020-10-16T11:36:43Z</time>
      </trkpt>
      <trkpt lat="37.370172000" lon="-5.192379000">
        <ele>146.6</ele>
        <time>2020-10-16T11:36:45Z</time>
      </trkpt>
      <trkpt lat="37.370159000" lon="-5.192495000">
        <ele>146.5</ele>
        <time>2020-10-16T11:36:47Z</time>
      </trkpt>
      <trkpt lat="37.370146000" lon="-5.192615000">
        <ele>146.5</ele>
        <time>2020-10-16T11:36:49Z</time>
      </trkpt>
      <trkpt lat="37.370129000" lon="-5.192744000">
        <ele>146.4</ele>
        <time>2020-10-16T11:36:51Z</time>
      </trkpt>
      <trkpt lat="37.370119000" lon="-5.192873000">
        <ele>146.3</ele>
        <time>2020-10-16T11:36:53Z</time>
      </trkpt>
      <trkpt lat="37.370105000" lon="-5.193005000">
        <ele>146.3</ele>
        <time>2020-10-16T11:36:55Z</time>
      </trkpt>
      <trkpt lat="37.370094000" lon="-5.193134000">
        <ele>146.3</ele>
        <time>2020-10-16T11:36:57Z</time>
      </trkpt>
      <trkpt lat="37.370081000" lon="-5.193259000">
        <ele>146.3</ele>
        <time>2020-10-16T11:36:59Z</time>
      </trkpt>
      <trkpt lat="37.370066000" lon="-5.193378000">
        <ele>146.3</ele>
        <time>2020-10-16T11:37:01Z</time>
      </trkpt>
      <trkpt lat="37.370058000" lon="-5.193503000">
        <ele>146.4</ele>
        <time>2020-10-16T11:37:03Z</time>
      </trkpt>
      <trkpt lat="37.370046000" lon="-5.193628000">
        <ele>146.5</ele>
        <time>2020-10-16T11:37:05Z</time>
      </trkpt>
      <trkpt lat="37.370026000" lon="-5.193754000">
        <ele>146.6</ele>
        <time>2020-10-16T11:37:07Z</time>
      </trkpt>
      <trkpt lat="37.370012000" lon="-5.193872000">
        <ele>146.8</ele>
        <time>2020-10-16T11:37:09Z</time>
      </trkpt>
      <trkpt lat="37.370001000" lon="-5.193993000">
        <ele>147.0</ele>
        <time>2020-10-16T11:37:11Z</time>
      </trkpt>
      <trkpt lat="37.369986000" lon="-5.194113000">
        <ele>147.2</ele>
        <time>2020-10-16T11:37:13Z</time>
      </trkpt>
      <trkpt lat="37.369978000" lon="-5.194273000">
        <ele>147.4</ele>
        <time>2020-10-16T11:37:16Z</time>
      </trkpt>
      <trkpt lat="37.369964000" lon="-5.194390000">
        <ele>147.5</ele>
        <time>2020-10-16T11:37:18Z</time>
      </trkpt>
      <trkpt lat="37.369950000" lon="-5.194514000">
        <ele>147.6</ele>
        <time>2020-10-16T11:37:20Z</time>
      </trkpt>
      <trkpt lat="37.369936000" lon="-5.194638000">
        <ele>147.6</ele>
        <time>2020-10-16T11:37:22Z</time>
      </trkpt>
      <trkpt lat="37.369923000" lon="-5.194757000">
        <ele>147.6</ele>
        <time>2020-10-16T11:37:24Z</time>
      </trkpt>
      <trkpt lat="37.369905000" lon="-5.194882000">
        <ele>147.5</ele>
        <time>2020-10-16T11:37:26Z</time>
      </trkpt>
      <trkpt lat="37.369890000" lon="-5.195005000">
        <ele>147.5</ele>
        <time>2020-10-16T11:37:28Z</time>
      </trkpt>
      <trkpt lat="37.369876000" lon="-5.195127000">
        <ele>147.4</ele>
        <time>2020-10-16T11:37:30Z</time>
      </trkpt>
      <trkpt lat="37.369864000" lon="-5.195251000">
        <ele>147.2</ele>
        <time>2020-10-16T11:37:32Z</time>
      </trkpt>
      <trkpt lat="37.369849000" lon="-5.195393000">
        <ele>147.0</ele>
        <time>2020-10-16T11:37:34Z</time>
      </trkpt>
      <trkpt lat="37.369837000" lon="-5.195533000">
        <ele>146.8</ele>
        <time>2020-10-16T11:37:36Z</time>
      </trkpt>
      <trkpt lat="37.369819000" lon="-5.195671000">
        <ele>146.6</ele>
        <time>2020-10-16T11:37:38Z</time>
      </trkpt>
      <trkpt lat="37.369803000" lon="-5.195810000">
        <ele>146.4</ele>
        <time>2020-10-16T11:37:40Z</time>
      </trkpt>
      <trkpt lat="37.369788000" lon="-5.195950000">
        <ele>146.2</ele>
        <time>2020-10-16T11:37:42Z</time>
      </trkpt>
      <trkpt lat="37.369778000" lon="-5.196087000">
        <ele>146.1</ele>
        <time>2020-10-16T11:37:44Z</time>
      </trkpt>
      <trkpt lat="37.369760000" lon="-5.196225000">
        <ele>145.9</ele>
        <time>2020-10-16T11:37:46Z</time>
      </trkpt>
      <trkpt lat="37.369749000" lon="-5.196353000">
        <ele>145.8</ele>
        <time>2020-10-16T11:37:48Z</time>
      </trkpt>
      <trkpt lat="37.369735000" lon="-5.196482000">
        <ele>145.6</ele>
        <time>2020-10-16T11:37:50Z</time>
      </trkpt>
      <trkpt lat="37.369725000" lon="-5.196615000">
        <ele>145.5</ele>
        <time>2020-10-16T11:37:52Z</time>
      </trkpt>
      <trkpt lat="37.369709000" lon="-5.196743000">
        <ele>145.3</ele>
        <time>2020-10-16T11:37:54Z</time>
      </trkpt>
      <trkpt lat="37.369698000" lon="-5.196877000">
        <ele>145.2</ele>
        <time>2020-10-16T11:37:56Z</time>
      </trkpt>
      <trkpt lat="37.369687000" lon="-5.197016000">
        <ele>145.1</ele>
        <time>2020-10-16T11:37:58Z</time>
      </trkpt>
      <trkpt lat="37.369672000" lon="-5.197154000">
        <ele>145.1</ele>
        <time>2020-10-16T11:38:00Z</time>
      </trkpt>
      <trkpt lat="37.369654000" lon="-5.197290000">
        <ele>145.1</ele>
        <time>2020-10-16T11:38:02Z</time>
      </trkpt>
      <trkpt lat="37.369647000" lon="-5.197422000">
        <ele>145.0</ele>
        <time>2020-10-16T11:38:04Z</time>
      </trkpt>
      <trkpt lat="37.369634000" lon="-5.197548000">
        <ele>144.9</ele>
        <time>2020-10-16T11:38:06Z</time>
      </trkpt>
      <trkpt lat="37.369620000" lon="-5.197680000">
        <ele>144.9</ele>
        <time>2020-10-16T11:38:08Z</time>
      </trkpt>
      <trkpt lat="37.369603000" lon="-5.197813000">
        <ele>144.9</ele>
        <time>2020-10-16T11:38:10Z</time>
      </trkpt>
      <trkpt lat="37.369589000" lon="-5.197949000">
        <ele>145.0</ele>
        <time>2020-10-16T11:38:12Z</time>
      </trkpt>
      <trkpt lat="37.369571000" lon="-5.198087000">
        <ele>145.2</ele>
        <time>2020-10-16T11:38:14Z</time>
      </trkpt>
      <trkpt lat="37.369555000" lon="-5.198219000">
        <ele>145.4</ele>
        <time>2020-10-16T11:38:16Z</time>
      </trkpt>
      <trkpt lat="37.369540000" lon="-5.198344000">
        <ele>145.5</ele>
        <time>2020-10-16T11:38:18Z</time>
      </trkpt>
      <trkpt lat="37.369524000" lon="-5.198474000">
        <ele>145.6</ele>
        <time>2020-10-16T11:38:20Z</time>
      </trkpt>
      <trkpt lat="37.369506000" lon="-5.198598000">
        <ele>145.7</ele>
        <time>2020-10-16T11:38:22Z</time>
      </trkpt>
      <trkpt lat="37.369494000" lon="-5.198723000">
        <ele>145.7</ele>
        <time>2020-10-16T11:38:24Z</time>
      </trkpt>
      <trkpt lat="37.369484000" lon="-5.198844000">
        <ele>145.8</ele>
        <time>2020-10-16T11:38:26Z</time>
      </trkpt>
      <trkpt lat="37.369475000" lon="-5.198962000">
        <ele>145.9</ele>
        <time>2020-10-16T11:38:28Z</time>
      </trkpt>
      <trkpt lat="37.369459000" lon="-5.199077000">
        <ele>146.0</ele>
        <time>2020-10-16T11:38:30Z</time>
      </trkpt>
      <trkpt lat="37.369447000" lon="-5.199202000">
        <ele>146.1</ele>
        <time>2020-10-16T11:38:32Z</time>
      </trkpt>
      <trkpt lat="37.369432000" lon="-5.199312000">
        <ele>146.2</ele>
        <time>2020-10-16T11:38:34Z</time>
      </trkpt>
      <trkpt lat="37.369425000" lon="-5.199426000">
        <ele>146.2</ele>
        <time>2020-10-16T11:38:36Z</time>
      </trkpt>
      <trkpt lat="37.369415000" lon="-5.199536000">
        <ele>146.2</ele>
        <time>2020-10-16T11:38:38Z</time>
      </trkpt>
      <trkpt lat="37.369403000" lon="-5.199641000">
        <ele>146.3</ele>
        <time>2020-10-16T11:38:40Z</time>
      </trkpt>
      <trkpt lat="37.369393000" lon="-5.199751000">
        <ele>146.3</ele>
        <time>2020-10-16T11:38:42Z</time>
      </trkpt>
      <trkpt lat="37.369379000" lon="-5.199856000">
        <ele>146.3</ele>
        <time>2020-10-16T11:38:44Z</time>
      </trkpt>
      <trkpt lat="37.369365000" lon="-5.199965000">
        <ele>146.4</ele>
        <time>2020-10-16T11:38:46Z</time>
      </trkpt>
      <trkpt lat="37.369352000" lon="-5.200075000">
        <ele>146.5</ele>
        <time>2020-10-16T11:38:48Z</time>
      </trkpt>
      <trkpt lat="37.369339000" lon="-5.200186000">
        <ele>146.5</ele>
        <time>2020-10-16T11:38:50Z</time>
      </trkpt>
      <trkpt lat="37.369330000" lon="-5.200298000">
        <ele>146.6</ele>
        <time>2020-10-16T11:38:52Z</time>
      </trkpt>
      <trkpt lat="37.369319000" lon="-5.200410000">
        <ele>146.7</ele>
        <time>2020-10-16T11:38:54Z</time>
      </trkpt>
      <trkpt lat="37.369308000" lon="-5.200520000">
        <ele>146.8</ele>
        <time>2020-10-16T11:38:56Z</time>
      </trkpt>
      <trkpt lat="37.369298000" lon="-5.200629000">
        <ele>147.0</ele>
        <time>2020-10-16T11:38:58Z</time>
      </trkpt>
      <trkpt lat="37.369286000" lon="-5.200738000">
        <ele>147.2</ele>
        <time>2020-10-16T11:39:00Z</time>
      </trkpt>
      <trkpt lat="37.369272000" lon="-5.200846000">
        <ele>147.3</ele>
        <time>2020-10-16T11:39:02Z</time>
      </trkpt>
      <trkpt lat="37.369258000" lon="-5.200955000">
        <ele>147.5</ele>
        <time>2020-10-16T11:39:04Z</time>
      </trkpt>
      <trkpt lat="37.369247000" lon="-5.201067000">
        <ele>147.6</ele>
        <time>2020-10-16T11:39:06Z</time>
      </trkpt>
      <trkpt lat="37.369240000" lon="-5.201182000">
        <ele>147.8</ele>
        <time>2020-10-16T11:39:08Z</time>
      </trkpt>
      <trkpt lat="37.369227000" lon="-5.201296000">
        <ele>147.9</ele>
        <time>2020-10-16T11:39:10Z</time>
      </trkpt>
      <trkpt lat="37.369215000" lon="-5.201411000">
        <ele>147.9</ele>
        <time>2020-10-16T11:39:12Z</time>
      </trkpt>
      <trkpt lat="37.369202000" lon="-5.201531000">
        <ele>147.9</ele>
        <time>2020-10-16T11:39:14Z</time>
      </trkpt>
      <trkpt lat="37.369183000" lon="-5.201648000">
        <ele>147.8</ele>
        <time>2020-10-16T11:39:16Z</time>
      </trkpt>
      <trkpt lat="37.369165000" lon="-5.201767000">
        <ele>147.6</ele>
        <time>2020-10-16T11:39:18Z</time>
      </trkpt>
      <trkpt lat="37.369138000" lon="-5.201895000">
        <ele>147.4</ele>
        <time>2020-10-16T11:39:20Z</time>
      </trkpt>
      <trkpt lat="37.369111000" lon="-5.202025000">
        <ele>147.1</ele>
        <time>2020-10-16T11:39:22Z</time>
      </trkpt>
      <trkpt lat="37.369078000" lon="-5.202147000">
        <ele>146.8</ele>
        <time>2020-10-16T11:39:24Z</time>
      </trkpt>
      <trkpt lat="37.369048000" lon="-5.202264000">
        <ele>146.5</ele>
        <time>2020-10-16T11:39:26Z</time>
      </trkpt>
      <trkpt lat="37.369013000" lon="-5.202385000">
        <ele>146.2</ele>
        <time>2020-10-16T11:39:28Z</time>
      </trkpt>
      <trkpt lat="37.368982000" lon="-5.202516000">
        <ele>145.9</ele>
        <time>2020-10-16T11:39:30Z</time>
      </trkpt>
      <trkpt lat="37.368949000" lon="-5.202643000">
        <ele>145.8</ele>
        <time>2020-10-16T11:39:32Z</time>
      </trkpt>
      <trkpt lat="37.368921000" lon="-5.202777000">
        <ele>145.8</ele>
        <time>2020-10-16T11:39:34Z</time>
      </trkpt>
      <trkpt lat="37.368883000" lon="-5.202907000">
        <ele>145.7</ele>
        <time>2020-10-16T11:39:36Z</time>
      </trkpt>
      <trkpt lat="37.368854000" lon="-5.203039000">
        <ele>145.7</ele>
        <time>2020-10-16T11:39:38Z</time>
      </trkpt>
      <trkpt lat="37.368820000" lon="-5.203175000">
        <ele>145.7</ele>
        <time>2020-10-16T11:39:40Z</time>
      </trkpt>
      <trkpt lat="37.368788000" lon="-5.203304000">
        <ele>145.6</ele>
        <time>2020-10-16T11:39:42Z</time>
      </trkpt>
      <trkpt lat="37.368749000" lon="-5.203428000">
        <ele>145.5</ele>
        <time>2020-10-16T11:39:44Z</time>
      </trkpt>
      <trkpt lat="37.368715000" lon="-5.203554000">
        <ele>145.5</ele>
        <time>2020-10-16T11:39:46Z</time>
      </trkpt>
      <trkpt lat="37.368682000" lon="-5.203677000">
        <ele>145.4</ele>
        <time>2020-10-16T11:39:48Z</time>
      </trkpt>
      <trkpt lat="37.368649000" lon="-5.203795000">
        <ele>145.2</ele>
        <time>2020-10-16T11:39:50Z</time>
      </trkpt>
      <trkpt lat="37.368615000" lon="-5.203911000">
        <ele>145.0</ele>
        <time>2020-10-16T11:39:52Z</time>
      </trkpt>
      <trkpt lat="37.368576000" lon="-5.204025000">
        <ele>144.8</ele>
        <time>2020-10-16T11:39:54Z</time>
      </trkpt>
      <trkpt lat="37.368537000" lon="-5.204137000">
        <ele>144.6</ele>
        <time>2020-10-16T11:39:56Z</time>
      </trkpt>
      <trkpt lat="37.368497000" lon="-5.204245000">
        <ele>144.6</ele>
        <time>2020-10-16T11:39:58Z</time>
      </trkpt>
      <trkpt lat="37.368452000" lon="-5.204350000">
        <ele>144.6</ele>
        <time>2020-10-16T11:40:00Z</time>
      </trkpt>
      <trkpt lat="37.368405000" lon="-5.204451000">
        <ele>144.8</ele>
        <time>2020-10-16T11:40:02Z</time>
      </trkpt>
      <trkpt lat="37.368356000" lon="-5.204548000">
        <ele>145.1</ele>
        <time>2020-10-16T11:40:04Z</time>
      </trkpt>
      <trkpt lat="37.368304000" lon="-5.204639000">
        <ele>145.4</ele>
        <time>2020-10-16T11:40:06Z</time>
      </trkpt>
      <trkpt lat="37.368256000" lon="-5.204733000">
        <ele>145.6</ele>
        <time>2020-10-16T11:40:08Z</time>
      </trkpt>
      <trkpt lat="37.368204000" lon="-5.204825000">
        <ele>145.9</ele>
        <time>2020-10-16T11:40:10Z</time>
      </trkpt>
      <trkpt lat="37.368152000" lon="-5.204919000">
        <ele>146.1</ele>
        <time>2020-10-16T11:40:12Z</time>
      </trkpt>
      <trkpt lat="37.368096000" lon="-5.205011000">
        <ele>146.3</ele>
        <time>2020-10-16T11:40:14Z</time>
      </trkpt>
      <trkpt lat="37.368043000" lon="-5.205111000">
        <ele>146.4</ele>
        <time>2020-10-16T11:40:16Z</time>
      </trkpt>
      <trkpt lat="37.367987000" lon="-5.205212000">
        <ele>146.5</ele>
        <time>2020-10-16T11:40:18Z</time>
      </trkpt>
      <trkpt lat="37.367924000" lon="-5.205310000">
        <ele>146.4</ele>
        <time>2020-10-16T11:40:20Z</time>
      </trkpt>
      <trkpt lat="37.367862000" lon="-5.205411000">
        <ele>146.3</ele>
        <time>2020-10-16T11:40:22Z</time>
      </trkpt>
      <trkpt lat="37.367801000" lon="-5.205513000">
        <ele>146.0</ele>
        <time>2020-10-16T11:40:24Z</time>
      </trkpt>
      <trkpt lat="37.367737000" lon="-5.205614000">
        <ele>145.7</ele>
        <time>2020-10-16T11:40:26Z</time>
      </trkpt>
      <trkpt lat="37.367681000" lon="-5.205721000">
        <ele>145.5</ele>
        <time>2020-10-16T11:40:28Z</time>
      </trkpt>
      <trkpt lat="37.367621000" lon="-5.205833000">
        <ele>145.3</ele>
        <time>2020-10-16T11:40:30Z</time>
      </trkpt>
      <trkpt lat="37.367559000" lon="-5.205938000">
        <ele>145.0</ele>
        <time>2020-10-16T11:40:32Z</time>
      </trkpt>
      <trkpt lat="37.367493000" lon="-5.206039000">
        <ele>144.8</ele>
        <time>2020-10-16T11:40:34Z</time>
      </trkpt>
      <trkpt lat="37.367428000" lon="-5.206140000">
        <ele>144.6</ele>
        <time>2020-10-16T11:40:36Z</time>
      </trkpt>
      <trkpt lat="37.367367000" lon="-5.206253000">
        <ele>144.5</ele>
        <time>2020-10-16T11:40:38Z</time>
      </trkpt>
      <trkpt lat="37.367305000" lon="-5.206363000">
        <ele>144.3</ele>
        <time>2020-10-16T11:40:40Z</time>
      </trkpt>
      <trkpt lat="37.367243000" lon="-5.206469000">
        <ele>144.2</ele>
        <time>2020-10-16T11:40:42Z</time>
      </trkpt>
      <trkpt lat="37.367180000" lon="-5.206575000">
        <ele>144.2</ele>
        <time>2020-10-16T11:40:44Z</time>
      </trkpt>
      <trkpt lat="37.367112000" lon="-5.206678000">
        <ele>144.3</ele>
        <time>2020-10-16T11:40:46Z</time>
      </trkpt>
      <trkpt lat="37.367053000" lon="-5.206786000">
        <ele>144.4</ele>
        <time>2020-10-16T11:40:48Z</time>
      </trkpt>
      <trkpt lat="37.366988000" lon="-5.206894000">
        <ele>144.5</ele>
        <time>2020-10-16T11:40:50Z</time>
      </trkpt>
      <trkpt lat="37.366923000" lon="-5.206999000">
        <ele>144.6</ele>
        <time>2020-10-16T11:40:52Z</time>
      </trkpt>
      <trkpt lat="37.366862000" lon="-5.207110000">
        <ele>144.8</ele>
        <time>2020-10-16T11:40:54Z</time>
      </trkpt>
      <trkpt lat="37.366799000" lon="-5.207217000">
        <ele>144.9</ele>
        <time>2020-10-16T11:40:56Z</time>
      </trkpt>
      <trkpt lat="37.366728000" lon="-5.207322000">
        <ele>145.0</ele>
        <time>2020-10-16T11:40:58Z</time>
      </trkpt>
      <trkpt lat="37.366655000" lon="-5.207422000">
        <ele>145.1</ele>
        <time>2020-10-16T11:41:00Z</time>
      </trkpt>
      <trkpt lat="37.366583000" lon="-5.207526000">
        <ele>145.2</ele>
        <time>2020-10-16T11:41:02Z</time>
      </trkpt>
      <trkpt lat="37.366498000" lon="-5.207624000">
        <ele>145.3</ele>
        <time>2020-10-16T11:41:04Z</time>
      </trkpt>
      <trkpt lat="37.366413000" lon="-5.207725000">
        <ele>145.3</ele>
        <time>2020-10-16T11:41:06Z</time>
      </trkpt>
      <trkpt lat="37.366325000" lon="-5.207817000">
        <ele>145.4</ele>
        <time>2020-10-16T11:41:08Z</time>
      </trkpt>
      <trkpt lat="37.366240000" lon="-5.207899000">
        <ele>145.5</ele>
        <time>2020-10-16T11:41:10Z</time>
      </trkpt>
      <trkpt lat="37.366157000" lon="-5.207979000">
        <ele>145.5</ele>
        <time>2020-10-16T11:41:12Z</time>
      </trkpt>
      <trkpt lat="37.366083000" lon="-5.208055000">
        <ele>145.4</ele>
        <time>2020-10-16T11:41:14Z</time>
      </trkpt>
      <trkpt lat="37.366008000" lon="-5.208129000">
        <ele>145.3</ele>
        <time>2020-10-16T11:41:16Z</time>
      </trkpt>
      <trkpt lat="37.365930000" lon="-5.208210000">
        <ele>145.3</ele>
        <time>2020-10-16T11:41:18Z</time>
      </trkpt>
      <trkpt lat="37.365845000" lon="-5.208294000">
        <ele>145.3</ele>
        <time>2020-10-16T11:41:20Z</time>
      </trkpt>
      <trkpt lat="37.365753000" lon="-5.208384000">
        <ele>145.2</ele>
        <time>2020-10-16T11:41:22Z</time>
      </trkpt>
      <trkpt lat="37.365667000" lon="-5.208472000">
        <ele>145.1</ele>
        <time>2020-10-16T11:41:24Z</time>
      </trkpt>
      <trkpt lat="37.365586000" lon="-5.208558000">
        <ele>145.0</ele>
        <time>2020-10-16T11:41:26Z</time>
      </trkpt>
      <trkpt lat="37.365508000" lon="-5.208633000">
        <ele>144.9</ele>
        <time>2020-10-16T11:41:28Z</time>
      </trkpt>
      <trkpt lat="37.365435000" lon="-5.208704000">
        <ele>144.7</ele>
        <time>2020-10-16T11:41:30Z</time>
      </trkpt>
      <trkpt lat="37.365364000" lon="-5.208775000">
        <ele>144.5</ele>
        <time>2020-10-16T11:41:32Z</time>
      </trkpt>
      <trkpt lat="37.365291000" lon="-5.208856000">
        <ele>144.5</ele>
        <time>2020-10-16T11:41:34Z</time>
      </trkpt>
      <trkpt lat="37.365211000" lon="-5.208937000">
        <ele>144.5</ele>
        <time>2020-10-16T11:41:36Z</time>
      </trkpt>
      <trkpt lat="37.365121000" lon="-5.209025000">
        <ele>144.6</ele>
        <time>2020-10-16T11:41:38Z</time>
      </trkpt>
      <trkpt lat="37.365025000" lon="-5.209111000">
        <ele>144.7</ele>
        <time>2020-10-16T11:41:40Z</time>
      </trkpt>
      <trkpt lat="37.364938000" lon="-5.209201000">
        <ele>144.8</ele>
        <time>2020-10-16T11:41:42Z</time>
      </trkpt>
      <trkpt lat="37.364855000" lon="-5.209284000">
        <ele>145.1</ele>
        <time>2020-10-16T11:41:44Z</time>
      </trkpt>
      <trkpt lat="37.364774000" lon="-5.209365000">
        <ele>145.4</ele>
        <time>2020-10-16T11:41:46Z</time>
      </trkpt>
      <trkpt lat="37.364698000" lon="-5.209447000">
        <ele>145.5</ele>
        <time>2020-10-16T11:41:48Z</time>
      </trkpt>
      <trkpt lat="37.364621000" lon="-5.209535000">
        <ele>145.7</ele>
        <time>2020-10-16T11:41:50Z</time>
      </trkpt>
      <trkpt lat="37.364545000" lon="-5.209620000">
        <ele>145.8</ele>
        <time>2020-10-16T11:41:52Z</time>
      </trkpt>
      <trkpt lat="37.364471000" lon="-5.209709000">
        <ele>145.9</ele>
        <time>2020-10-16T11:41:54Z</time>
      </trkpt>
      <trkpt lat="37.364401000" lon="-5.209801000">
        <ele>145.9</ele>
        <time>2020-10-16T11:41:56Z</time>
      </trkpt>
      <trkpt lat="37.364331000" lon="-5.209893000">
        <ele>145.8</ele>
        <time>2020-10-16T11:41:58Z</time>
      </trkpt>
      <trkpt lat="37.364261000" lon="-5.209991000">
        <ele>145.7</ele>
        <time>2020-10-16T11:42:00Z</time>
      </trkpt>
      <trkpt lat="37.364194000" lon="-5.210086000">
        <ele>145.6</ele>
        <time>2020-10-16T11:42:02Z</time>
      </trkpt>
      <trkpt lat="37.364128000" lon="-5.210182000">
        <ele>145.5</ele>
        <time>2020-10-16T11:42:04Z</time>
      </trkpt>
      <trkpt lat="37.364060000" lon="-5.210280000">
        <ele>145.4</ele>
        <time>2020-10-16T11:42:06Z</time>
      </trkpt>
      <trkpt lat="37.364000000" lon="-5.210383000">
        <ele>145.1</ele>
        <time>2020-10-16T11:42:08Z</time>
      </trkpt>
      <trkpt lat="37.363936000" lon="-5.210482000">
        <ele>145.0</ele>
        <time>2020-10-16T11:42:10Z</time>
      </trkpt>
      <trkpt lat="37.363868000" lon="-5.210576000">
        <ele>144.9</ele>
        <time>2020-10-16T11:42:12Z</time>
      </trkpt>
      <trkpt lat="37.363803000" lon="-5.210671000">
        <ele>144.8</ele>
        <time>2020-10-16T11:42:14Z</time>
      </trkpt>
      <trkpt lat="37.363740000" lon="-5.210773000">
        <ele>144.7</ele>
        <time>2020-10-16T11:42:16Z</time>
      </trkpt>
      <trkpt lat="37.363679000" lon="-5.210873000">
        <ele>144.6</ele>
        <time>2020-10-16T11:42:18Z</time>
      </trkpt>
      <trkpt lat="37.363620000" lon="-5.210972000">
        <ele>144.5</ele>
        <time>2020-10-16T11:42:20Z</time>
      </trkpt>
      <trkpt lat="37.363561000" lon="-5.211069000">
        <ele>144.5</ele>
        <time>2020-10-16T11:42:22Z</time>
      </trkpt>
      <trkpt lat="37.363500000" lon="-5.211163000">
        <ele>144.4</ele>
        <time>2020-10-16T11:42:24Z</time>
      </trkpt>
      <trkpt lat="37.363439000" lon="-5.211256000">
        <ele>144.3</ele>
        <time>2020-10-16T11:42:26Z</time>
      </trkpt>
      <trkpt lat="37.363377000" lon="-5.211353000">
        <ele>144.2</ele>
        <time>2020-10-16T11:42:28Z</time>
      </trkpt>
      <trkpt lat="37.363318000" lon="-5.211452000">
        <ele>144.2</ele>
        <time>2020-10-16T11:42:30Z</time>
      </trkpt>
      <trkpt lat="37.363255000" lon="-5.211550000">
        <ele>144.1</ele>
        <time>2020-10-16T11:42:32Z</time>
      </trkpt>
      <trkpt lat="37.363192000" lon="-5.211644000">
        <ele>144.1</ele>
        <time>2020-10-16T11:42:34Z</time>
      </trkpt>
      <trkpt lat="37.363130000" lon="-5.211744000">
        <ele>144.2</ele>
        <time>2020-10-16T11:42:36Z</time>
      </trkpt>
      <trkpt lat="37.363068000" lon="-5.211844000">
        <ele>144.3</ele>
        <time>2020-10-16T11:42:38Z</time>
      </trkpt>
      <trkpt lat="37.363004000" lon="-5.211947000">
        <ele>144.4</ele>
        <time>2020-10-16T11:42:40Z</time>
      </trkpt>
      <trkpt lat="37.362938000" lon="-5.212044000">
        <ele>144.5</ele>
        <time>2020-10-16T11:42:42Z</time>
      </trkpt>
      <trkpt lat="37.362879000" lon="-5.212148000">
        <ele>144.5</ele>
        <time>2020-10-16T11:42:44Z</time>
      </trkpt>
      <trkpt lat="37.362816000" lon="-5.212251000">
        <ele>144.5</ele>
        <time>2020-10-16T11:42:46Z</time>
      </trkpt>
      <trkpt lat="37.362748000" lon="-5.212353000">
        <ele>144.5</ele>
        <time>2020-10-16T11:42:48Z</time>
      </trkpt>
      <trkpt lat="37.362685000" lon="-5.212447000">
        <ele>144.5</ele>
        <time>2020-10-16T11:42:50Z</time>
      </trkpt>
      <trkpt lat="37.362616000" lon="-5.212547000">
        <ele>144.5</ele>
        <time>2020-10-16T11:42:52Z</time>
      </trkpt>
      <trkpt lat="37.362557000" lon="-5.212651000">
        <ele>144.4</ele>
        <time>2020-10-16T11:42:54Z</time>
      </trkpt>
      <trkpt lat="37.362491000" lon="-5.212757000">
        <ele>144.2</ele>
        <time>2020-10-16T11:42:56Z</time>
      </trkpt>
      <trkpt lat="37.362422000" lon="-5.212852000">
        <ele>144.0</ele>
        <time>2020-10-16T11:42:58Z</time>
      </trkpt>
      <trkpt lat="37.362348000" lon="-5.212954000">
        <ele>143.8</ele>
        <time>2020-10-16T11:43:00Z</time>
      </trkpt>
      <trkpt lat="37.362275000" lon="-5.213058000">
        <ele>143.6</ele>
        <time>2020-10-16T11:43:02Z</time>
      </trkpt>
      <trkpt lat="37.362204000" lon="-5.213163000">
        <ele>143.5</ele>
        <time>2020-10-16T11:43:04Z</time>
      </trkpt>
      <trkpt lat="37.362138000" lon="-5.213268000">
        <ele>143.2</ele>
        <time>2020-10-16T11:43:06Z</time>
      </trkpt>
      <trkpt lat="37.362071000" lon="-5.213378000">
        <ele>143.0</ele>
        <time>2020-10-16T11:43:08Z</time>
      </trkpt>
      <trkpt lat="37.362000000" lon="-5.213481000">
        <ele>142.8</ele>
        <time>2020-10-16T11:43:10Z</time>
      </trkpt>
      <trkpt lat="37.361930000" lon="-5.213583000">
        <ele>142.7</ele>
        <time>2020-10-16T11:43:12Z</time>
      </trkpt>
      <trkpt lat="37.361859000" lon="-5.213688000">
        <ele>142.7</ele>
        <time>2020-10-16T11:43:14Z</time>
      </trkpt>
      <trkpt lat="37.361789000" lon="-5.213798000">
        <ele>142.8</ele>
        <time>2020-10-16T11:43:16Z</time>
      </trkpt>
      <trkpt lat="37.361721000" lon="-5.213906000">
        <ele>142.9</ele>
        <time>2020-10-16T11:43:18Z</time>
      </trkpt>
      <trkpt lat="37.361654000" lon="-5.214015000">
        <ele>143.0</ele>
        <time>2020-10-16T11:43:20Z</time>
      </trkpt>
      <trkpt lat="37.361585000" lon="-5.214117000">
        <ele>143.1</ele>
        <time>2020-10-16T11:43:22Z</time>
      </trkpt>
      <trkpt lat="37.361519000" lon="-5.214221000">
        <ele>143.2</ele>
        <time>2020-10-16T11:43:24Z</time>
      </trkpt>
      <trkpt lat="37.361453000" lon="-5.214324000">
        <ele>143.3</ele>
        <time>2020-10-16T11:43:26Z</time>
      </trkpt>
      <trkpt lat="37.361388000" lon="-5.214420000">
        <ele>143.5</ele>
        <time>2020-10-16T11:43:28Z</time>
      </trkpt>
      <trkpt lat="37.361324000" lon="-5.214526000">
        <ele>143.7</ele>
        <time>2020-10-16T11:43:30Z</time>
      </trkpt>
      <trkpt lat="37.361258000" lon="-5.214620000">
        <ele>143.9</ele>
        <time>2020-10-16T11:43:32Z</time>
      </trkpt>
      <trkpt lat="37.361194000" lon="-5.214709000">
        <ele>144.1</ele>
        <time>2020-10-16T11:43:34Z</time>
      </trkpt>
      <trkpt lat="37.361129000" lon="-5.214800000">
        <ele>144.3</ele>
        <time>2020-10-16T11:43:36Z</time>
      </trkpt>
      <trkpt lat="37.361072000" lon="-5.214902000">
        <ele>144.3</ele>
        <time>2020-10-16T11:43:38Z</time>
      </trkpt>
      <trkpt lat="37.361012000" lon="-5.215002000">
        <ele>144.3</ele>
        <time>2020-10-16T11:43:40Z</time>
      </trkpt>
      <trkpt lat="37.360948000" lon="-5.215104000">
        <ele>144.3</ele>
        <time>2020-10-16T11:43:42Z</time>
      </trkpt>
      <trkpt lat="37.360882000" lon="-5.215203000">
        <ele>144.2</ele>
        <time>2020-10-16T11:43:44Z</time>
      </trkpt>
      <trkpt lat="37.360816000" lon="-5.215302000">
        <ele>144.0</ele>
        <time>2020-10-16T11:43:46Z</time>
      </trkpt>
      <trkpt lat="37.360757000" lon="-5.215399000">
        <ele>143.8</ele>
        <time>2020-10-16T11:43:48Z</time>
      </trkpt>
      <trkpt lat="37.360698000" lon="-5.215504000">
        <ele>143.6</ele>
        <time>2020-10-16T11:43:50Z</time>
      </trkpt>
      <trkpt lat="37.360630000" lon="-5.215611000">
        <ele>143.4</ele>
        <time>2020-10-16T11:43:52Z</time>
      </trkpt>
      <trkpt lat="37.360563000" lon="-5.215712000">
        <ele>143.2</ele>
        <time>2020-10-16T11:43:54Z</time>
      </trkpt>
      <trkpt lat="37.360500000" lon="-5.215814000">
        <ele>142.9</ele>
        <time>2020-10-16T11:43:56Z</time>
      </trkpt>
      <trkpt lat="37.360431000" lon="-5.215922000">
        <ele>142.7</ele>
        <time>2020-10-16T11:43:58Z</time>
      </trkpt>
      <trkpt lat="37.360373000" lon="-5.216024000">
        <ele>142.6</ele>
        <time>2020-10-16T11:44:00Z</time>
      </trkpt>
      <trkpt lat="37.360314000" lon="-5.216130000">
        <ele>142.5</ele>
        <time>2020-10-16T11:44:02Z</time>
      </trkpt>
      <trkpt lat="37.360256000" lon="-5.216232000">
        <ele>142.5</ele>
        <time>2020-10-16T11:44:04Z</time>
      </trkpt>
      <trkpt lat="37.360195000" lon="-5.216336000">
        <ele>142.5</ele>
        <time>2020-10-16T11:44:06Z</time>
      </trkpt>
      <trkpt lat="37.360137000" lon="-5.216446000">
        <ele>142.5</ele>
        <time>2020-10-16T11:44:08Z</time>
      </trkpt>
      <trkpt lat="37.360078000" lon="-5.216543000">
        <ele>142.7</ele>
        <time>2020-10-16T11:44:10Z</time>
      </trkpt>
      <trkpt lat="37.360023000" lon="-5.216641000">
        <ele>142.9</ele>
        <time>2020-10-16T11:44:12Z</time>
      </trkpt>
      <trkpt lat="37.359969000" lon="-5.216742000">
        <ele>143.1</ele>
        <time>2020-10-16T11:44:14Z</time>
      </trkpt>
      <trkpt lat="37.359916000" lon="-5.216828000">
        <ele>143.3</ele>
        <time>2020-10-16T11:44:16Z</time>
      </trkpt>
      <trkpt lat="37.359876000" lon="-5.216921000">
        <ele>143.5</ele>
        <time>2020-10-16T11:44:18Z</time>
      </trkpt>
      <trkpt lat="37.359828000" lon="-5.217015000">
        <ele>143.7</ele>
        <time>2020-10-16T11:44:20Z</time>
      </trkpt>
      <trkpt lat="37.359785000" lon="-5.217113000">
        <ele>143.9</ele>
        <time>2020-10-16T11:44:22Z</time>
      </trkpt>
      <trkpt lat="37.359733000" lon="-5.217208000">
        <ele>144.1</ele>
        <time>2020-10-16T11:44:24Z</time>
      </trkpt>
      <trkpt lat="37.359688000" lon="-5.217303000">
        <ele>144.3</ele>
        <time>2020-10-16T11:44:26Z</time>
      </trkpt>
      <trkpt lat="37.359637000" lon="-5.217391000">
        <ele>144.5</ele>
        <time>2020-10-16T11:44:28Z</time>
      </trkpt>
      <trkpt lat="37.359583000" lon="-5.217484000">
        <ele>144.6</ele>
        <time>2020-10-16T11:44:30Z</time>
      </trkpt>
      <trkpt lat="37.359529000" lon="-5.217577000">
        <ele>144.6</ele>
        <time>2020-10-16T11:44:32Z</time>
      </trkpt>
      <trkpt lat="37.359471000" lon="-5.217671000">
        <ele>144.6</ele>
        <time>2020-10-16T11:44:34Z</time>
      </trkpt>
      <trkpt lat="37.359419000" lon="-5.217772000">
        <ele>144.6</ele>
        <time>2020-10-16T11:44:36Z</time>
      </trkpt>
      <trkpt lat="37.359358000" lon="-5.217876000">
        <ele>144.6</ele>
        <time>2020-10-16T11:44:38Z</time>
      </trkpt>
      <trkpt lat="37.359305000" lon="-5.217980000">
        <ele>144.5</ele>
        <time>2020-10-16T11:44:40Z</time>
      </trkpt>
      <trkpt lat="37.359256000" lon="-5.218081000">
        <ele>144.3</ele>
        <time>2020-10-16T11:44:42Z</time>
      </trkpt>
      <trkpt lat="37.359207000" lon="-5.218182000">
        <ele>144.1</ele>
        <time>2020-10-16T11:44:44Z</time>
      </trkpt>
      <trkpt lat="37.359153000" lon="-5.218285000">
        <ele>143.9</ele>
        <time>2020-10-16T11:44:46Z</time>
      </trkpt>
      <trkpt lat="37.359104000" lon="-5.218387000">
        <ele>143.7</ele>
        <time>2020-10-16T11:44:48Z</time>
      </trkpt>
      <trkpt lat="37.359050000" lon="-5.218485000">
        <ele>143.5</ele>
        <time>2020-10-16T11:44:50Z</time>
      </trkpt>
      <trkpt lat="37.358997000" lon="-5.218587000">
        <ele>143.4</ele>
        <time>2020-10-16T11:44:52Z</time>
      </trkpt>
      <trkpt lat="37.358938000" lon="-5.218686000">
        <ele>143.3</ele>
        <time>2020-10-16T11:44:54Z</time>
      </trkpt>
      <trkpt lat="37.358887000" lon="-5.218789000">
        <ele>143.3</ele>
        <time>2020-10-16T11:44:56Z</time>
      </trkpt>
      <trkpt lat="37.358830000" lon="-5.218885000">
        <ele>143.4</ele>
        <time>2020-10-16T11:44:58Z</time>
      </trkpt>
      <trkpt lat="37.358774000" lon="-5.218982000">
        <ele>143.5</ele>
        <time>2020-10-16T11:45:00Z</time>
      </trkpt>
      <trkpt lat="37.358720000" lon="-5.219083000">
        <ele>143.6</ele>
        <time>2020-10-16T11:45:02Z</time>
      </trkpt>
      <trkpt lat="37.358671000" lon="-5.219188000">
        <ele>143.8</ele>
        <time>2020-10-16T11:45:04Z</time>
      </trkpt>
      <trkpt lat="37.358613000" lon="-5.219286000">
        <ele>144.0</ele>
        <time>2020-10-16T11:45:06Z</time>
      </trkpt>
      <trkpt lat="37.358560000" lon="-5.219382000">
        <ele>144.2</ele>
        <time>2020-10-16T11:45:08Z</time>
      </trkpt>
      <trkpt lat="37.358511000" lon="-5.219481000">
        <ele>144.4</ele>
        <time>2020-10-16T11:45:10Z</time>
      </trkpt>
      <trkpt lat="37.358451000" lon="-5.219583000">
        <ele>144.5</ele>
        <time>2020-10-16T11:45:12Z</time>
      </trkpt>
      <trkpt lat="37.358395000" lon="-5.219675000">
        <ele>144.7</ele>
        <time>2020-10-16T11:45:14Z</time>
      </trkpt>
      <trkpt lat="37.358341000" lon="-5.219761000">
        <ele>144.9</ele>
        <time>2020-10-16T11:45:16Z</time>
      </trkpt>
      <trkpt lat="37.358297000" lon="-5.219863000">
        <ele>145.0</ele>
        <time>2020-10-16T11:45:18Z</time>
      </trkpt>
      <trkpt lat="37.358243000" lon="-5.219969000">
        <ele>145.0</ele>
        <time>2020-10-16T11:45:20Z</time>
      </trkpt>
      <trkpt lat="37.358184000" lon="-5.220054000">
        <ele>145.0</ele>
        <time>2020-10-16T11:45:22Z</time>
      </trkpt>
      <trkpt lat="37.358119000" lon="-5.220135000">
        <ele>144.9</ele>
        <time>2020-10-16T11:45:24Z</time>
      </trkpt>
      <trkpt lat="37.358060000" lon="-5.220207000">
        <ele>144.8</ele>
        <time>2020-10-16T11:45:26Z</time>
      </trkpt>
      <trkpt lat="37.357967000" lon="-5.220290000">
        <ele>144.7</ele>
        <time>2020-10-16T11:45:29Z</time>
      </trkpt>
      <trkpt lat="37.357897000" lon="-5.220349000">
        <ele>144.6</ele>
        <time>2020-10-16T11:45:31Z</time>
      </trkpt>
      <trkpt lat="37.357830000" lon="-5.220416000">
        <ele>144.5</ele>
        <time>2020-10-16T11:45:33Z</time>
      </trkpt>
      <trkpt lat="37.357750000" lon="-5.220483000">
        <ele>144.5</ele>
        <time>2020-10-16T11:45:35Z</time>
      </trkpt>
      <trkpt lat="37.357671000" lon="-5.220543000">
        <ele>144.5</ele>
        <time>2020-10-16T11:45:37Z</time>
      </trkpt>
      <trkpt lat="37.357595000" lon="-5.220615000">
        <ele>144.5</ele>
        <time>2020-10-16T11:45:39Z</time>
      </trkpt>
      <trkpt lat="37.357514000" lon="-5.220680000">
        <ele>144.5</ele>
        <time>2020-10-16T11:45:41Z</time>
      </trkpt>
      <trkpt lat="37.357432000" lon="-5.220752000">
        <ele>144.5</ele>
        <time>2020-10-16T11:45:43Z</time>
      </trkpt>
      <trkpt lat="37.357353000" lon="-5.220823000">
        <ele>144.5</ele>
        <time>2020-10-16T11:45:45Z</time>
      </trkpt>
      <trkpt lat="37.357268000" lon="-5.220890000">
        <ele>144.6</ele>
        <time>2020-10-16T11:45:47Z</time>
      </trkpt>
      <trkpt lat="37.357189000" lon="-5.220963000">
        <ele>144.7</ele>
        <time>2020-10-16T11:45:49Z</time>
      </trkpt>
      <trkpt lat="37.357108000" lon="-5.221028000">
        <ele>144.8</ele>
        <time>2020-10-16T11:45:51Z</time>
      </trkpt>
      <trkpt lat="37.357032000" lon="-5.221098000">
        <ele>144.9</ele>
        <time>2020-10-16T11:45:53Z</time>
      </trkpt>
      <trkpt lat="37.356952000" lon="-5.221167000">
        <ele>145.0</ele>
        <time>2020-10-16T11:45:55Z</time>
      </trkpt>
      <trkpt lat="37.356873000" lon="-5.221229000">
        <ele>145.0</ele>
        <time>2020-10-16T11:45:57Z</time>
      </trkpt>
      <trkpt lat="37.356800000" lon="-5.221277000">
        <ele>145.0</ele>
        <time>2020-10-16T11:45:59Z</time>
      </trkpt>
      <trkpt lat="37.356709000" lon="-5.221343000">
        <ele>145.0</ele>
        <time>2020-10-16T11:46:02Z</time>
      </trkpt>
      <trkpt lat="37.356624000" lon="-5.221337000">
        <ele>145.0</ele>
        <time>2020-10-16T11:46:06Z</time>
      </trkpt>
      <trkpt lat="37.356637000" lon="-5.221234000">
        <ele>145.0</ele>
        <time>2020-10-16T11:46:12Z</time>
      </trkpt>
      <trkpt lat="37.356652000" lon="-5.221268000">
        <ele>145.0</ele>
        <time>2020-10-16T11:47:09Z</time>
      </trkpt>
      <trkpt lat="37.356358000" lon="-5.221820000">
        <ele>145.0</ele>
        <time>2020-10-16T12:24:01Z</time>
      </trkpt>
      <trkpt lat="37.356330000" lon="-5.221847000">
        <ele>145.0</ele>
        <time>2020-10-16T12:25:17Z</time>
      </trkpt>
      <trkpt lat="37.356250000" lon="-5.221895000">
        <ele>145.0</ele>
        <time>2020-10-16T12:25:21Z</time>
      </trkpt>
      <trkpt lat="37.356161000" lon="-5.221908000">
        <ele>145.0</ele>
        <time>2020-10-16T12:25:25Z</time>
      </trkpt>
      <trkpt lat="37.356144000" lon="-5.222027000">
        <ele>145.0</ele>
        <time>2020-10-16T12:25:29Z</time>
      </trkpt>
      <trkpt lat="37.356142000" lon="-5.222150000">
        <ele>145.1</ele>
        <time>2020-10-16T12:25:31Z</time>
      </trkpt>
      <trkpt lat="37.356136000" lon="-5.222280000">
        <ele>145.2</ele>
        <time>2020-10-16T12:25:34Z</time>
      </trkpt>
      <trkpt lat="37.356100000" lon="-5.222406000">
        <ele>145.4</ele>
        <time>2020-10-16T12:25:37Z</time>
      </trkpt>
      <trkpt lat="37.356047000" lon="-5.222522000">
        <ele>145.5</ele>
        <time>2020-10-16T12:25:40Z</time>
      </trkpt>
      <trkpt lat="37.355991000" lon="-5.222644000">
        <ele>145.8</ele>
        <time>2020-10-16T12:25:43Z</time>
      </trkpt>
      <trkpt lat="37.355945000" lon="-5.222776000">
        <ele>146.1</ele>
        <time>2020-10-16T12:25:46Z</time>
      </trkpt>
      <trkpt lat="37.355894000" lon="-5.222901000">
        <ele>146.5</ele>
        <time>2020-10-16T12:25:49Z</time>
      </trkpt>
      <trkpt lat="37.355848000" lon="-5.223024000">
        <ele>146.9</ele>
        <time>2020-10-16T12:25:52Z</time>
      </trkpt>
      <trkpt lat="37.355801000" lon="-5.223139000">
        <ele>147.4</ele>
        <time>2020-10-16T12:25:55Z</time>
      </trkpt>
      <trkpt lat="37.355751000" lon="-5.223261000">
        <ele>147.9</ele>
        <time>2020-10-16T12:25:58Z</time>
      </trkpt>
      <trkpt lat="37.355699000" lon="-5.223373000">
        <ele>148.5</ele>
        <time>2020-10-16T12:26:01Z</time>
      </trkpt>
      <trkpt lat="37.355651000" lon="-5.223486000">
        <ele>148.9</ele>
        <time>2020-10-16T12:26:04Z</time>
      </trkpt>
      <trkpt lat="37.355609000" lon="-5.223603000">
        <ele>149.4</ele>
        <time>2020-10-16T12:26:07Z</time>
      </trkpt>
      <trkpt lat="37.355567000" lon="-5.223716000">
        <ele>149.8</ele>
        <time>2020-10-16T12:26:10Z</time>
      </trkpt>
      <trkpt lat="37.355522000" lon="-5.223821000">
        <ele>150.3</ele>
        <time>2020-10-16T12:26:13Z</time>
      </trkpt>
      <trkpt lat="37.355475000" lon="-5.223924000">
        <ele>150.6</ele>
        <time>2020-10-16T12:26:16Z</time>
      </trkpt>
      <trkpt lat="37.355438000" lon="-5.224022000">
        <ele>151.0</ele>
        <time>2020-10-16T12:26:19Z</time>
      </trkpt>
      <trkpt lat="37.355392000" lon="-5.224122000">
        <ele>151.3</ele>
        <time>2020-10-16T12:26:22Z</time>
      </trkpt>
      <trkpt lat="37.355345000" lon="-5.224227000">
        <ele>151.5</ele>
        <time>2020-10-16T12:26:25Z</time>
      </trkpt>
      <trkpt lat="37.355292000" lon="-5.224328000">
        <ele>151.6</ele>
        <time>2020-10-16T12:26:28Z</time>
      </trkpt>
      <trkpt lat="37.355246000" lon="-5.224434000">
        <ele>151.8</ele>
        <time>2020-10-16T12:26:31Z</time>
      </trkpt>
      <trkpt lat="37.355192000" lon="-5.224549000">
        <ele>152.0</ele>
        <time>2020-10-16T12:26:34Z</time>
      </trkpt>
      <trkpt lat="37.355148000" lon="-5.224656000">
        <ele>152.3</ele>
        <time>2020-10-16T12:26:37Z</time>
      </trkpt>
      <trkpt lat="37.355108000" lon="-5.224785000">
        <ele>152.5</ele>
        <time>2020-10-16T12:26:41Z</time>
      </trkpt>
      <trkpt lat="37.355072000" lon="-5.224898000">
        <ele>152.7</ele>
        <time>2020-10-16T12:26:44Z</time>
      </trkpt>
      <trkpt lat="37.355044000" lon="-5.225017000">
        <ele>152.9</ele>
        <time>2020-10-16T12:26:47Z</time>
      </trkpt>
      <trkpt lat="37.355026000" lon="-5.225139000">
        <ele>153.0</ele>
        <time>2020-10-16T12:26:50Z</time>
      </trkpt>
      <trkpt lat="37.355034000" lon="-5.225253000">
        <ele>153.2</ele>
        <time>2020-10-16T12:26:53Z</time>
      </trkpt>
      <trkpt lat="37.355062000" lon="-5.225376000">
        <ele>153.4</ele>
        <time>2020-10-16T12:26:56Z</time>
      </trkpt>
      <trkpt lat="37.355115000" lon="-5.225498000">
        <ele>153.5</ele>
        <time>2020-10-16T12:26:59Z</time>
      </trkpt>
      <trkpt lat="37.355187000" lon="-5.225607000">
        <ele>153.7</ele>
        <time>2020-10-16T12:27:02Z</time>
      </trkpt>
      <trkpt lat="37.355257000" lon="-5.225693000">
        <ele>153.8</ele>
        <time>2020-10-16T12:27:05Z</time>
      </trkpt>
      <trkpt lat="37.355160000" lon="-5.225668000">
        <ele>153.9</ele>
        <time>2020-10-16T12:27:23Z</time>
      </trkpt>
      <trkpt lat="37.355097000" lon="-5.225565000">
        <ele>153.9</ele>
        <time>2020-10-16T12:27:26Z</time>
      </trkpt>
      <trkpt lat="37.355035000" lon="-5.225453000">
        <ele>153.9</ele>
        <time>2020-10-16T12:27:29Z</time>
      </trkpt>
      <trkpt lat="37.354978000" lon="-5.225334000">
        <ele>153.9</ele>
        <time>2020-10-16T12:27:32Z</time>
      </trkpt>
      <trkpt lat="37.354898000" lon="-5.225223000">
        <ele>153.9</ele>
        <time>2020-10-16T12:27:35Z</time>
      </trkpt>
      <trkpt lat="37.354805000" lon="-5.225136000">
        <ele>154.0</ele>
        <time>2020-10-16T12:27:38Z</time>
      </trkpt>
      <trkpt lat="37.354714000" lon="-5.225071000">
        <ele>154.0</ele>
        <time>2020-10-16T12:27:41Z</time>
      </trkpt>
      <trkpt lat="37.354631000" lon="-5.225061000">
        <ele>154.0</ele>
        <time>2020-10-16T12:27:44Z</time>
      </trkpt>
      <trkpt lat="37.354564000" lon="-5.225166000">
        <ele>154.0</ele>
        <time>2020-10-16T12:27:48Z</time>
      </trkpt>
      <trkpt lat="37.354499000" lon="-5.225258000">
        <ele>154.0</ele>
        <time>2020-10-16T12:27:51Z</time>
      </trkpt>
      <trkpt lat="37.354444000" lon="-5.225356000">
        <ele>154.0</ele>
        <time>2020-10-16T12:27:54Z</time>
      </trkpt>
      <trkpt lat="37.354383000" lon="-5.225477000">
        <ele>154.0</ele>
        <time>2020-10-16T12:27:57Z</time>
      </trkpt>
      <trkpt lat="37.354330000" lon="-5.225562000">
        <ele>154.1</ele>
        <time>2020-10-16T12:27:59Z</time>
      </trkpt>
      <trkpt lat="37.354274000" lon="-5.225649000">
        <ele>154.2</ele>
        <time>2020-10-16T12:28:01Z</time>
      </trkpt>
      <trkpt lat="37.354224000" lon="-5.225740000">
        <ele>154.4</ele>
        <time>2020-10-16T12:28:03Z</time>
      </trkpt>
      <trkpt lat="37.354170000" lon="-5.225836000">
        <ele>154.5</ele>
        <time>2020-10-16T12:28:05Z</time>
      </trkpt>
      <trkpt lat="37.354116000" lon="-5.225926000">
        <ele>154.7</ele>
        <time>2020-10-16T12:28:07Z</time>
      </trkpt>
      <trkpt lat="37.354059000" lon="-5.226017000">
        <ele>154.9</ele>
        <time>2020-10-16T12:28:09Z</time>
      </trkpt>
      <trkpt lat="37.354008000" lon="-5.226111000">
        <ele>155.1</ele>
        <time>2020-10-16T12:28:11Z</time>
      </trkpt>
      <trkpt lat="37.353958000" lon="-5.226196000">
        <ele>155.4</ele>
        <time>2020-10-16T12:28:13Z</time>
      </trkpt>
      <trkpt lat="37.353910000" lon="-5.226286000">
        <ele>155.6</ele>
        <time>2020-10-16T12:28:15Z</time>
      </trkpt>
      <trkpt lat="37.353860000" lon="-5.226376000">
        <ele>155.9</ele>
        <time>2020-10-16T12:28:17Z</time>
      </trkpt>
      <trkpt lat="37.353808000" lon="-5.226458000">
        <ele>156.2</ele>
        <time>2020-10-16T12:28:19Z</time>
      </trkpt>
      <trkpt lat="37.353753000" lon="-5.226537000">
        <ele>156.4</ele>
        <time>2020-10-16T12:28:21Z</time>
      </trkpt>
      <trkpt lat="37.353697000" lon="-5.226613000">
        <ele>156.5</ele>
        <time>2020-10-16T12:28:23Z</time>
      </trkpt>
      <trkpt lat="37.353614000" lon="-5.226714000">
        <ele>156.6</ele>
        <time>2020-10-16T12:28:26Z</time>
      </trkpt>
      <trkpt lat="37.353536000" lon="-5.226822000">
        <ele>156.7</ele>
        <time>2020-10-16T12:28:29Z</time>
      </trkpt>
      <trkpt lat="37.353456000" lon="-5.226929000">
        <ele>156.8</ele>
        <time>2020-10-16T12:28:32Z</time>
      </trkpt>
      <trkpt lat="37.353396000" lon="-5.227044000">
        <ele>156.9</ele>
        <time>2020-10-16T12:28:35Z</time>
      </trkpt>
      <trkpt lat="37.353331000" lon="-5.227162000">
        <ele>157.0</ele>
        <time>2020-10-16T12:28:38Z</time>
      </trkpt>
      <trkpt lat="37.353263000" lon="-5.227268000">
        <ele>157.0</ele>
        <time>2020-10-16T12:28:41Z</time>
      </trkpt>
      <trkpt lat="37.353217000" lon="-5.227387000">
        <ele>157.0</ele>
        <time>2020-10-16T12:28:44Z</time>
      </trkpt>
      <trkpt lat="37.353172000" lon="-5.227504000">
        <ele>157.0</ele>
        <time>2020-10-16T12:28:47Z</time>
      </trkpt>
      <trkpt lat="37.353119000" lon="-5.227626000">
        <ele>157.0</ele>
        <time>2020-10-16T12:28:50Z</time>
      </trkpt>
      <trkpt lat="37.353060000" lon="-5.227756000">
        <ele>157.0</ele>
        <time>2020-10-16T12:28:53Z</time>
      </trkpt>
      <trkpt lat="37.353018000" lon="-5.227844000">
        <ele>157.0</ele>
        <time>2020-10-16T12:28:55Z</time>
      </trkpt>
      <trkpt lat="37.352971000" lon="-5.227927000">
        <ele>157.0</ele>
        <time>2020-10-16T12:28:57Z</time>
      </trkpt>
      <trkpt lat="37.352877000" lon="-5.228026000">
        <ele>157.0</ele>
        <time>2020-10-16T12:29:00Z</time>
      </trkpt>
      <trkpt lat="37.352815000" lon="-5.228095000">
        <ele>157.0</ele>
        <time>2020-10-16T12:29:02Z</time>
      </trkpt>
      <trkpt lat="37.352750000" lon="-5.228172000">
        <ele>157.0</ele>
        <time>2020-10-16T12:29:06Z</time>
      </trkpt>
      <trkpt lat="37.352641000" lon="-5.228291000">
        <ele>157.0</ele>
        <time>2020-10-16T12:29:07Z</time>
      </trkpt>
      <trkpt lat="37.352569000" lon="-5.228370000">
        <ele>157.0</ele>
        <time>2020-10-16T12:29:09Z</time>
      </trkpt>
      <trkpt lat="37.352502000" lon="-5.228454000">
        <ele>157.0</ele>
        <time>2020-10-16T12:29:11Z</time>
      </trkpt>
      <trkpt lat="37.352437000" lon="-5.228544000">
        <ele>157.0</ele>
        <time>2020-10-16T12:29:13Z</time>
      </trkpt>
      <trkpt lat="37.352404000" lon="-5.228657000">
        <ele>157.0</ele>
        <time>2020-10-16T12:29:15Z</time>
      </trkpt>
      <trkpt lat="37.352372000" lon="-5.228765000">
        <ele>157.0</ele>
        <time>2020-10-16T12:29:17Z</time>
      </trkpt>
      <trkpt lat="37.352338000" lon="-5.228874000">
        <ele>157.0</ele>
        <time>2020-10-16T12:29:19Z</time>
      </trkpt>
      <trkpt lat="37.352291000" lon="-5.228962000">
        <ele>157.0</ele>
        <time>2020-10-16T12:29:21Z</time>
      </trkpt>
      <trkpt lat="37.352238000" lon="-5.229064000">
        <ele>157.0</ele>
        <time>2020-10-16T12:29:23Z</time>
      </trkpt>
      <trkpt lat="37.352176000" lon="-5.229146000">
        <ele>156.9</ele>
        <time>2020-10-16T12:29:25Z</time>
      </trkpt>
      <trkpt lat="37.352119000" lon="-5.229219000">
        <ele>156.8</ele>
        <time>2020-10-16T12:29:27Z</time>
      </trkpt>
      <trkpt lat="37.352046000" lon="-5.229291000">
        <ele>156.6</ele>
        <time>2020-10-16T12:29:29Z</time>
      </trkpt>
      <trkpt lat="37.351972000" lon="-5.229349000">
        <ele>156.4</ele>
        <time>2020-10-16T12:29:31Z</time>
      </trkpt>
      <trkpt lat="37.351872000" lon="-5.229414000">
        <ele>156.1</ele>
        <time>2020-10-16T12:29:34Z</time>
      </trkpt>
      <trkpt lat="37.351789000" lon="-5.229473000">
        <ele>155.7</ele>
        <time>2020-10-16T12:29:37Z</time>
      </trkpt>
      <trkpt lat="37.351696000" lon="-5.229530000">
        <ele>155.4</ele>
        <time>2020-10-16T12:29:40Z</time>
      </trkpt>
      <trkpt lat="37.351590000" lon="-5.229589000">
        <ele>155.0</ele>
        <time>2020-10-16T12:29:43Z</time>
      </trkpt>
      <trkpt lat="37.351506000" lon="-5.229634000">
        <ele>154.6</ele>
        <time>2020-10-16T12:29:45Z</time>
      </trkpt>
      <trkpt lat="37.351415000" lon="-5.229678000">
        <ele>154.2</ele>
        <time>2020-10-16T12:29:47Z</time>
      </trkpt>
      <trkpt lat="37.351317000" lon="-5.229726000">
        <ele>153.7</ele>
        <time>2020-10-16T12:29:49Z</time>
      </trkpt>
      <trkpt lat="37.351215000" lon="-5.229775000">
        <ele>153.3</ele>
        <time>2020-10-16T12:29:51Z</time>
      </trkpt>
      <trkpt lat="37.351104000" lon="-5.229836000">
        <ele>152.7</ele>
        <time>2020-10-16T12:29:53Z</time>
      </trkpt>
      <trkpt lat="37.350989000" lon="-5.229890000">
        <ele>152.2</ele>
        <time>2020-10-16T12:29:55Z</time>
      </trkpt>
      <trkpt lat="37.350879000" lon="-5.229950000">
        <ele>151.6</ele>
        <time>2020-10-16T12:29:57Z</time>
      </trkpt>
      <trkpt lat="37.350776000" lon="-5.230024000">
        <ele>151.1</ele>
        <time>2020-10-16T12:29:59Z</time>
      </trkpt>
      <trkpt lat="37.350692000" lon="-5.230101000">
        <ele>150.6</ele>
        <time>2020-10-16T12:30:01Z</time>
      </trkpt>
      <trkpt lat="37.350618000" lon="-5.230205000">
        <ele>150.2</ele>
        <time>2020-10-16T12:30:03Z</time>
      </trkpt>
      <trkpt lat="37.350548000" lon="-5.230329000">
        <ele>149.6</ele>
        <time>2020-10-16T12:30:05Z</time>
      </trkpt>
      <trkpt lat="37.350480000" lon="-5.230469000">
        <ele>149.1</ele>
        <time>2020-10-16T12:30:07Z</time>
      </trkpt>
      <trkpt lat="37.350423000" lon="-5.230616000">
        <ele>148.6</ele>
        <time>2020-10-16T12:30:09Z</time>
      </trkpt>
      <trkpt lat="37.350382000" lon="-5.230769000">
        <ele>148.2</ele>
        <time>2020-10-16T12:30:11Z</time>
      </trkpt>
      <trkpt lat="37.350366000" lon="-5.230925000">
        <ele>147.7</ele>
        <time>2020-10-16T12:30:13Z</time>
      </trkpt>
      <trkpt lat="37.350351000" lon="-5.231083000">
        <ele>147.3</ele>
        <time>2020-10-16T12:30:15Z</time>
      </trkpt>
      <trkpt lat="37.350343000" lon="-5.231233000">
        <ele>146.9</ele>
        <time>2020-10-16T12:30:17Z</time>
      </trkpt>
      <trkpt lat="37.350334000" lon="-5.231390000">
        <ele>146.5</ele>
        <time>2020-10-16T12:30:19Z</time>
      </trkpt>
      <trkpt lat="37.350323000" lon="-5.231546000">
        <ele>146.2</ele>
        <time>2020-10-16T12:30:21Z</time>
      </trkpt>
      <trkpt lat="37.350316000" lon="-5.231700000">
        <ele>145.7</ele>
        <time>2020-10-16T12:30:23Z</time>
      </trkpt>
      <trkpt lat="37.350307000" lon="-5.231854000">
        <ele>145.3</ele>
        <time>2020-10-16T12:30:25Z</time>
      </trkpt>
      <trkpt lat="37.350301000" lon="-5.232007000">
        <ele>144.9</ele>
        <time>2020-10-16T12:30:27Z</time>
      </trkpt>
      <trkpt lat="37.350289000" lon="-5.232165000">
        <ele>144.6</ele>
        <time>2020-10-16T12:30:29Z</time>
      </trkpt>
      <trkpt lat="37.350282000" lon="-5.232324000">
        <ele>144.4</ele>
        <time>2020-10-16T12:30:31Z</time>
      </trkpt>
      <trkpt lat="37.350276000" lon="-5.232479000">
        <ele>144.2</ele>
        <time>2020-10-16T12:30:33Z</time>
      </trkpt>
      <trkpt lat="37.350282000" lon="-5.232634000">
        <ele>144.1</ele>
        <time>2020-10-16T12:30:35Z</time>
      </trkpt>
      <trkpt lat="37.350294000" lon="-5.232788000">
        <ele>144.1</ele>
        <time>2020-10-16T12:30:37Z</time>
      </trkpt>
      <trkpt lat="37.350307000" lon="-5.232938000">
        <ele>144.1</ele>
        <time>2020-10-16T12:30:39Z</time>
      </trkpt>
      <trkpt lat="37.350326000" lon="-5.233093000">
        <ele>144.2</ele>
        <time>2020-10-16T12:30:41Z</time>
      </trkpt>
      <trkpt lat="37.350358000" lon="-5.233242000">
        <ele>144.2</ele>
        <time>2020-10-16T12:30:43Z</time>
      </trkpt>
      <trkpt lat="37.350382000" lon="-5.233390000">
        <ele>144.2</ele>
        <time>2020-10-16T12:30:45Z</time>
      </trkpt>
      <trkpt lat="37.350406000" lon="-5.233544000">
        <ele>144.1</ele>
        <time>2020-10-16T12:30:47Z</time>
      </trkpt>
      <trkpt lat="37.350430000" lon="-5.233703000">
        <ele>144.0</ele>
        <time>2020-10-16T12:30:49Z</time>
      </trkpt>
      <trkpt lat="37.350445000" lon="-5.233867000">
        <ele>143.7</ele>
        <time>2020-10-16T12:30:51Z</time>
      </trkpt>
      <trkpt lat="37.350448000" lon="-5.234032000">
        <ele>143.5</ele>
        <time>2020-10-16T12:30:53Z</time>
      </trkpt>
      <trkpt lat="37.350439000" lon="-5.234195000">
        <ele>143.1</ele>
        <time>2020-10-16T12:30:55Z</time>
      </trkpt>
      <trkpt lat="37.350422000" lon="-5.234358000">
        <ele>142.8</ele>
        <time>2020-10-16T12:30:57Z</time>
      </trkpt>
      <trkpt lat="37.350411000" lon="-5.234532000">
        <ele>142.5</ele>
        <time>2020-10-16T12:30:59Z</time>
      </trkpt>
      <trkpt lat="37.350398000" lon="-5.234693000">
        <ele>142.4</ele>
        <time>2020-10-16T12:31:01Z</time>
      </trkpt>
      <trkpt lat="37.350388000" lon="-5.234856000">
        <ele>142.2</ele>
        <time>2020-10-16T12:31:03Z</time>
      </trkpt>
      <trkpt lat="37.350376000" lon="-5.235028000">
        <ele>142.2</ele>
        <time>2020-10-16T12:31:05Z</time>
      </trkpt>
      <trkpt lat="37.350366000" lon="-5.235192000">
        <ele>142.3</ele>
        <time>2020-10-16T12:31:07Z</time>
      </trkpt>
      <trkpt lat="37.350351000" lon="-5.235357000">
        <ele>142.5</ele>
        <time>2020-10-16T12:31:09Z</time>
      </trkpt>
      <trkpt lat="37.350339000" lon="-5.235513000">
        <ele>142.5</ele>
        <time>2020-10-16T12:31:11Z</time>
      </trkpt>
      <trkpt lat="37.350321000" lon="-5.235666000">
        <ele>142.7</ele>
        <time>2020-10-16T12:31:13Z</time>
      </trkpt>
      <trkpt lat="37.350308000" lon="-5.235820000">
        <ele>142.9</ele>
        <time>2020-10-16T12:31:15Z</time>
      </trkpt>
      <trkpt lat="37.350291000" lon="-5.235966000">
        <ele>143.0</ele>
        <time>2020-10-16T12:31:17Z</time>
      </trkpt>
      <trkpt lat="37.350276000" lon="-5.236109000">
        <ele>143.0</ele>
        <time>2020-10-16T12:31:19Z</time>
      </trkpt>
      <trkpt lat="37.350256000" lon="-5.236251000">
        <ele>142.9</ele>
        <time>2020-10-16T12:31:21Z</time>
      </trkpt>
      <trkpt lat="37.350236000" lon="-5.236387000">
        <ele>142.7</ele>
        <time>2020-10-16T12:31:23Z</time>
      </trkpt>
      <trkpt lat="37.350210000" lon="-5.236519000">
        <ele>142.5</ele>
        <time>2020-10-16T12:31:25Z</time>
      </trkpt>
      <trkpt lat="37.350179000" lon="-5.236641000">
        <ele>142.3</ele>
        <time>2020-10-16T12:31:27Z</time>
      </trkpt>
      <trkpt lat="37.350141000" lon="-5.236761000">
        <ele>142.0</ele>
        <time>2020-10-16T12:31:29Z</time>
      </trkpt>
      <trkpt lat="37.350097000" lon="-5.236874000">
        <ele>141.7</ele>
        <time>2020-10-16T12:31:31Z</time>
      </trkpt>
      <trkpt lat="37.350044000" lon="-5.236982000">
        <ele>141.5</ele>
        <time>2020-10-16T12:31:33Z</time>
      </trkpt>
      <trkpt lat="37.349996000" lon="-5.237086000">
        <ele>141.4</ele>
        <time>2020-10-16T12:31:35Z</time>
      </trkpt>
      <trkpt lat="37.349944000" lon="-5.237188000">
        <ele>141.3</ele>
        <time>2020-10-16T12:31:37Z</time>
      </trkpt>
      <trkpt lat="37.349889000" lon="-5.237296000">
        <ele>141.3</ele>
        <time>2020-10-16T12:31:39Z</time>
      </trkpt>
      <trkpt lat="37.349839000" lon="-5.237403000">
        <ele>141.3</ele>
        <time>2020-10-16T12:31:41Z</time>
      </trkpt>
      <trkpt lat="37.349784000" lon="-5.237506000">
        <ele>141.4</ele>
        <time>2020-10-16T12:31:43Z</time>
      </trkpt>
      <trkpt lat="37.349729000" lon="-5.237623000">
        <ele>141.5</ele>
        <time>2020-10-16T12:31:45Z</time>
      </trkpt>
      <trkpt lat="37.349675000" lon="-5.237744000">
        <ele>141.5</ele>
        <time>2020-10-16T12:31:47Z</time>
      </trkpt>
      <trkpt lat="37.349614000" lon="-5.237873000">
        <ele>141.5</ele>
        <time>2020-10-16T12:31:49Z</time>
      </trkpt>
      <trkpt lat="37.349550000" lon="-5.238007000">
        <ele>141.5</ele>
        <time>2020-10-16T12:31:51Z</time>
      </trkpt>
      <trkpt lat="37.349486000" lon="-5.238141000">
        <ele>141.5</ele>
        <time>2020-10-16T12:31:53Z</time>
      </trkpt>
      <trkpt lat="37.349418000" lon="-5.238274000">
        <ele>141.5</ele>
        <time>2020-10-16T12:31:55Z</time>
      </trkpt>
      <trkpt lat="37.349348000" lon="-5.238408000">
        <ele>141.5</ele>
        <time>2020-10-16T12:31:57Z</time>
      </trkpt>
      <trkpt lat="37.349288000" lon="-5.238537000">
        <ele>141.5</ele>
        <time>2020-10-16T12:31:59Z</time>
      </trkpt>
      <trkpt lat="37.349232000" lon="-5.238664000">
        <ele>141.4</ele>
        <time>2020-10-16T12:32:01Z</time>
      </trkpt>
      <trkpt lat="37.349166000" lon="-5.238792000">
        <ele>141.2</ele>
        <time>2020-10-16T12:32:03Z</time>
      </trkpt>
      <trkpt lat="37.349105000" lon="-5.238917000">
        <ele>141.0</ele>
        <time>2020-10-16T12:32:05Z</time>
      </trkpt>
      <trkpt lat="37.349047000" lon="-5.239037000">
        <ele>140.8</ele>
        <time>2020-10-16T12:32:07Z</time>
      </trkpt>
      <trkpt lat="37.348990000" lon="-5.239158000">
        <ele>140.6</ele>
        <time>2020-10-16T12:32:09Z</time>
      </trkpt>
      <trkpt lat="37.348931000" lon="-5.239275000">
        <ele>140.5</ele>
        <time>2020-10-16T12:32:11Z</time>
      </trkpt>
      <trkpt lat="37.348873000" lon="-5.239394000">
        <ele>140.5</ele>
        <time>2020-10-16T12:32:13Z</time>
      </trkpt>
      <trkpt lat="37.348816000" lon="-5.239513000">
        <ele>140.5</ele>
        <time>2020-10-16T12:32:15Z</time>
      </trkpt>
      <trkpt lat="37.348760000" lon="-5.239633000">
        <ele>140.5</ele>
        <time>2020-10-16T12:32:17Z</time>
      </trkpt>
      <trkpt lat="37.348706000" lon="-5.239740000">
        <ele>140.6</ele>
        <time>2020-10-16T12:32:19Z</time>
      </trkpt>
      <trkpt lat="37.348653000" lon="-5.239846000">
        <ele>140.7</ele>
        <time>2020-10-16T12:32:21Z</time>
      </trkpt>
      <trkpt lat="37.348604000" lon="-5.239950000">
        <ele>140.8</ele>
        <time>2020-10-16T12:32:23Z</time>
      </trkpt>
      <trkpt lat="37.348555000" lon="-5.240053000">
        <ele>141.0</ele>
        <time>2020-10-16T12:32:25Z</time>
      </trkpt>
      <trkpt lat="37.348510000" lon="-5.240152000">
        <ele>141.2</ele>
        <time>2020-10-16T12:32:27Z</time>
      </trkpt>
      <trkpt lat="37.348463000" lon="-5.240243000">
        <ele>141.4</ele>
        <time>2020-10-16T12:32:29Z</time>
      </trkpt>
      <trkpt lat="37.348418000" lon="-5.240334000">
        <ele>141.6</ele>
        <time>2020-10-16T12:32:31Z</time>
      </trkpt>
      <trkpt lat="37.348375000" lon="-5.240430000">
        <ele>141.9</ele>
        <time>2020-10-16T12:32:33Z</time>
      </trkpt>
      <trkpt lat="37.348327000" lon="-5.240529000">
        <ele>142.2</ele>
        <time>2020-10-16T12:32:35Z</time>
      </trkpt>
      <trkpt lat="37.348278000" lon="-5.240632000">
        <ele>142.5</ele>
        <time>2020-10-16T12:32:37Z</time>
      </trkpt>
      <trkpt lat="37.348225000" lon="-5.240736000">
        <ele>142.6</ele>
        <time>2020-10-16T12:32:39Z</time>
      </trkpt>
      <trkpt lat="37.348174000" lon="-5.240843000">
        <ele>142.7</ele>
        <time>2020-10-16T12:32:41Z</time>
      </trkpt>
      <trkpt lat="37.348122000" lon="-5.240947000">
        <ele>142.7</ele>
        <time>2020-10-16T12:32:43Z</time>
      </trkpt>
      <trkpt lat="37.348070000" lon="-5.241060000">
        <ele>142.6</ele>
        <time>2020-10-16T12:32:45Z</time>
      </trkpt>
      <trkpt lat="37.348013000" lon="-5.241174000">
        <ele>142.5</ele>
        <time>2020-10-16T12:32:47Z</time>
      </trkpt>
      <trkpt lat="37.347957000" lon="-5.241293000">
        <ele>142.3</ele>
        <time>2020-10-16T12:32:49Z</time>
      </trkpt>
      <trkpt lat="37.347899000" lon="-5.241412000">
        <ele>142.0</ele>
        <time>2020-10-16T12:32:51Z</time>
      </trkpt>
      <trkpt lat="37.347843000" lon="-5.241526000">
        <ele>141.6</ele>
        <time>2020-10-16T12:32:53Z</time>
      </trkpt>
      <trkpt lat="37.347787000" lon="-5.241641000">
        <ele>141.2</ele>
        <time>2020-10-16T12:32:55Z</time>
      </trkpt>
      <trkpt lat="37.347733000" lon="-5.241761000">
        <ele>140.7</ele>
        <time>2020-10-16T12:32:57Z</time>
      </trkpt>
      <trkpt lat="37.347677000" lon="-5.241880000">
        <ele>140.3</ele>
        <time>2020-10-16T12:32:59Z</time>
      </trkpt>
      <trkpt lat="37.347625000" lon="-5.241999000">
        <ele>139.9</ele>
        <time>2020-10-16T12:33:01Z</time>
      </trkpt>
      <trkpt lat="37.347576000" lon="-5.242119000">
        <ele>139.5</ele>
        <time>2020-10-16T12:33:03Z</time>
      </trkpt>
      <trkpt lat="37.347539000" lon="-5.242246000">
        <ele>139.1</ele>
        <time>2020-10-16T12:33:05Z</time>
      </trkpt>
      <trkpt lat="37.347512000" lon="-5.242382000">
        <ele>138.8</ele>
        <time>2020-10-16T12:33:07Z</time>
      </trkpt>
      <trkpt lat="37.347493000" lon="-5.242510000">
        <ele>138.7</ele>
        <time>2020-10-16T12:33:09Z</time>
      </trkpt>
      <trkpt lat="37.347478000" lon="-5.242644000">
        <ele>138.6</ele>
        <time>2020-10-16T12:33:11Z</time>
      </trkpt>
      <trkpt lat="37.347464000" lon="-5.242779000">
        <ele>138.7</ele>
        <time>2020-10-16T12:33:13Z</time>
      </trkpt>
      <trkpt lat="37.347448000" lon="-5.242924000">
        <ele>138.9</ele>
        <time>2020-10-16T12:33:15Z</time>
      </trkpt>
      <trkpt lat="37.347437000" lon="-5.243072000">
        <ele>139.2</ele>
        <time>2020-10-16T12:33:17Z</time>
      </trkpt>
      <trkpt lat="37.347425000" lon="-5.243212000">
        <ele>139.5</ele>
        <time>2020-10-16T12:33:19Z</time>
      </trkpt>
      <trkpt lat="37.347410000" lon="-5.243360000">
        <ele>139.7</ele>
        <time>2020-10-16T12:33:21Z</time>
      </trkpt>
      <trkpt lat="37.347402000" lon="-5.243508000">
        <ele>140.1</ele>
        <time>2020-10-16T12:33:23Z</time>
      </trkpt>
      <trkpt lat="37.347393000" lon="-5.243661000">
        <ele>140.5</ele>
        <time>2020-10-16T12:33:25Z</time>
      </trkpt>
      <trkpt lat="37.347386000" lon="-5.243817000">
        <ele>141.1</ele>
        <time>2020-10-16T12:33:27Z</time>
      </trkpt>
      <trkpt lat="37.347379000" lon="-5.243969000">
        <ele>141.6</ele>
        <time>2020-10-16T12:33:29Z</time>
      </trkpt>
      <trkpt lat="37.347372000" lon="-5.244127000">
        <ele>142.0</ele>
        <time>2020-10-16T12:33:31Z</time>
      </trkpt>
      <trkpt lat="37.347366000" lon="-5.244285000">
        <ele>142.3</ele>
        <time>2020-10-16T12:33:33Z</time>
      </trkpt>
      <trkpt lat="37.347357000" lon="-5.244443000">
        <ele>142.4</ele>
        <time>2020-10-16T12:33:35Z</time>
      </trkpt>
      <trkpt lat="37.347350000" lon="-5.244600000">
        <ele>142.3</ele>
        <time>2020-10-16T12:33:37Z</time>
      </trkpt>
      <trkpt lat="37.347345000" lon="-5.244749000">
        <ele>142.1</ele>
        <time>2020-10-16T12:33:39Z</time>
      </trkpt>
      <trkpt lat="37.347340000" lon="-5.244896000">
        <ele>141.8</ele>
        <time>2020-10-16T12:33:41Z</time>
      </trkpt>
      <trkpt lat="37.347335000" lon="-5.245050000">
        <ele>141.5</ele>
        <time>2020-10-16T12:33:43Z</time>
      </trkpt>
      <trkpt lat="37.347328000" lon="-5.245202000">
        <ele>141.2</ele>
        <time>2020-10-16T12:33:45Z</time>
      </trkpt>
      <trkpt lat="37.347315000" lon="-5.245355000">
        <ele>140.9</ele>
        <time>2020-10-16T12:33:47Z</time>
      </trkpt>
      <trkpt lat="37.347307000" lon="-5.245503000">
        <ele>140.6</ele>
        <time>2020-10-16T12:33:49Z</time>
      </trkpt>
      <trkpt lat="37.347300000" lon="-5.245655000">
        <ele>140.4</ele>
        <time>2020-10-16T12:33:51Z</time>
      </trkpt>
      <trkpt lat="37.347293000" lon="-5.245812000">
        <ele>140.2</ele>
        <time>2020-10-16T12:33:53Z</time>
      </trkpt>
      <trkpt lat="37.347289000" lon="-5.245969000">
        <ele>140.1</ele>
        <time>2020-10-16T12:33:55Z</time>
      </trkpt>
      <trkpt lat="37.347284000" lon="-5.246132000">
        <ele>140.2</ele>
        <time>2020-10-16T12:33:57Z</time>
      </trkpt>
      <trkpt lat="37.347279000" lon="-5.246289000">
        <ele>140.4</ele>
        <time>2020-10-16T12:33:59Z</time>
      </trkpt>
      <trkpt lat="37.347278000" lon="-5.246448000">
        <ele>140.6</ele>
        <time>2020-10-16T12:34:01Z</time>
      </trkpt>
      <trkpt lat="37.347281000" lon="-5.246604000">
        <ele>140.9</ele>
        <time>2020-10-16T12:34:03Z</time>
      </trkpt>
      <trkpt lat="37.347286000" lon="-5.246758000">
        <ele>141.2</ele>
        <time>2020-10-16T12:34:05Z</time>
      </trkpt>
      <trkpt lat="37.347286000" lon="-5.246915000">
        <ele>141.4</ele>
        <time>2020-10-16T12:34:07Z</time>
      </trkpt>
      <trkpt lat="37.347288000" lon="-5.247068000">
        <ele>141.5</ele>
        <time>2020-10-16T12:34:09Z</time>
      </trkpt>
      <trkpt lat="37.347291000" lon="-5.247216000">
        <ele>141.4</ele>
        <time>2020-10-16T12:34:11Z</time>
      </trkpt>
      <trkpt lat="37.347292000" lon="-5.247360000">
        <ele>141.3</ele>
        <time>2020-10-16T12:34:13Z</time>
      </trkpt>
      <trkpt lat="37.347294000" lon="-5.247504000">
        <ele>141.2</ele>
        <time>2020-10-16T12:34:15Z</time>
      </trkpt>
      <trkpt lat="37.347295000" lon="-5.247654000">
        <ele>141.0</ele>
        <time>2020-10-16T12:34:17Z</time>
      </trkpt>
      <trkpt lat="37.347297000" lon="-5.247801000">
        <ele>140.7</ele>
        <time>2020-10-16T12:34:19Z</time>
      </trkpt>
      <trkpt lat="37.347306000" lon="-5.247945000">
        <ele>140.4</ele>
        <time>2020-10-16T12:34:21Z</time>
      </trkpt>
      <trkpt lat="37.347306000" lon="-5.248097000">
        <ele>140.0</ele>
        <time>2020-10-16T12:34:23Z</time>
      </trkpt>
      <trkpt lat="37.347305000" lon="-5.248247000">
        <ele>139.7</ele>
        <time>2020-10-16T12:34:25Z</time>
      </trkpt>
      <trkpt lat="37.347305000" lon="-5.248396000">
        <ele>139.5</ele>
        <time>2020-10-16T12:34:27Z</time>
      </trkpt>
      <trkpt lat="37.347306000" lon="-5.248548000">
        <ele>139.3</ele>
        <time>2020-10-16T12:34:29Z</time>
      </trkpt>
      <trkpt lat="37.347309000" lon="-5.248694000">
        <ele>139.2</ele>
        <time>2020-10-16T12:34:31Z</time>
      </trkpt>
      <trkpt lat="37.347315000" lon="-5.248845000">
        <ele>139.2</ele>
        <time>2020-10-16T12:34:33Z</time>
      </trkpt>
      <trkpt lat="37.347320000" lon="-5.248988000">
        <ele>139.2</ele>
        <time>2020-10-16T12:34:35Z</time>
      </trkpt>
      <trkpt lat="37.347323000" lon="-5.249129000">
        <ele>139.2</ele>
        <time>2020-10-16T12:34:37Z</time>
      </trkpt>
      <trkpt lat="37.347329000" lon="-5.249262000">
        <ele>139.2</ele>
        <time>2020-10-16T12:34:39Z</time>
      </trkpt>
      <trkpt lat="37.347330000" lon="-5.249402000">
        <ele>139.1</ele>
        <time>2020-10-16T12:34:41Z</time>
      </trkpt>
      <trkpt lat="37.347329000" lon="-5.249544000">
        <ele>139.1</ele>
        <time>2020-10-16T12:34:43Z</time>
      </trkpt>
      <trkpt lat="37.347329000" lon="-5.249679000">
        <ele>139.1</ele>
        <time>2020-10-16T12:34:45Z</time>
      </trkpt>
      <trkpt lat="37.347331000" lon="-5.249814000">
        <ele>139.0</ele>
        <time>2020-10-16T12:34:47Z</time>
      </trkpt>
      <trkpt lat="37.347335000" lon="-5.249949000">
        <ele>138.9</ele>
        <time>2020-10-16T12:34:49Z</time>
      </trkpt>
      <trkpt lat="37.347340000" lon="-5.250084000">
        <ele>138.8</ele>
        <time>2020-10-16T12:34:51Z</time>
      </trkpt>
      <trkpt lat="37.347348000" lon="-5.250213000">
        <ele>138.6</ele>
        <time>2020-10-16T12:34:53Z</time>
      </trkpt>
      <trkpt lat="37.347345000" lon="-5.250339000">
        <ele>138.5</ele>
        <time>2020-10-16T12:34:55Z</time>
      </trkpt>
      <trkpt lat="37.347345000" lon="-5.250464000">
        <ele>138.5</ele>
        <time>2020-10-16T12:34:57Z</time>
      </trkpt>
      <trkpt lat="37.347343000" lon="-5.250590000">
        <ele>138.4</ele>
        <time>2020-10-16T12:34:59Z</time>
      </trkpt>
      <trkpt lat="37.347340000" lon="-5.250717000">
        <ele>138.4</ele>
        <time>2020-10-16T12:35:01Z</time>
      </trkpt>
      <trkpt lat="37.347336000" lon="-5.250843000">
        <ele>138.5</ele>
        <time>2020-10-16T12:35:03Z</time>
      </trkpt>
      <trkpt lat="37.347329000" lon="-5.250964000">
        <ele>138.5</ele>
        <time>2020-10-16T12:35:05Z</time>
      </trkpt>
      <trkpt lat="37.347315000" lon="-5.251093000">
        <ele>138.6</ele>
        <time>2020-10-16T12:35:07Z</time>
      </trkpt>
      <trkpt lat="37.347291000" lon="-5.251216000">
        <ele>138.7</ele>
        <time>2020-10-16T12:35:09Z</time>
      </trkpt>
      <trkpt lat="37.347265000" lon="-5.251337000">
        <ele>138.8</ele>
        <time>2020-10-16T12:35:11Z</time>
      </trkpt>
      <trkpt lat="37.347225000" lon="-5.251458000">
        <ele>138.9</ele>
        <time>2020-10-16T12:35:13Z</time>
      </trkpt>
      <trkpt lat="37.347182000" lon="-5.251580000">
        <ele>139.0</ele>
        <time>2020-10-16T12:35:15Z</time>
      </trkpt>
      <trkpt lat="37.347139000" lon="-5.251700000">
        <ele>139.0</ele>
        <time>2020-10-16T12:35:17Z</time>
      </trkpt>
      <trkpt lat="37.347098000" lon="-5.251809000">
        <ele>139.0</ele>
        <time>2020-10-16T12:35:19Z</time>
      </trkpt>
      <trkpt lat="37.347054000" lon="-5.251920000">
        <ele>138.9</ele>
        <time>2020-10-16T12:35:21Z</time>
      </trkpt>
      <trkpt lat="37.347008000" lon="-5.252035000">
        <ele>138.8</ele>
        <time>2020-10-16T12:35:23Z</time>
      </trkpt>
      <trkpt lat="37.346969000" lon="-5.252143000">
        <ele>138.7</ele>
        <time>2020-10-16T12:35:25Z</time>
      </trkpt>
      <trkpt lat="37.346925000" lon="-5.252261000">
        <ele>138.6</ele>
        <time>2020-10-16T12:35:27Z</time>
      </trkpt>
      <trkpt lat="37.346882000" lon="-5.252373000">
        <ele>138.5</ele>
        <time>2020-10-16T12:35:29Z</time>
      </trkpt>
      <trkpt lat="37.346837000" lon="-5.252487000">
        <ele>138.3</ele>
        <time>2020-10-16T12:35:31Z</time>
      </trkpt>
      <trkpt lat="37.346792000" lon="-5.252601000">
        <ele>138.1</ele>
        <time>2020-10-16T12:35:33Z</time>
      </trkpt>
      <trkpt lat="37.346748000" lon="-5.252715000">
        <ele>137.9</ele>
        <time>2020-10-16T12:35:35Z</time>
      </trkpt>
      <trkpt lat="37.346699000" lon="-5.252836000">
        <ele>137.8</ele>
        <time>2020-10-16T12:35:37Z</time>
      </trkpt>
      <trkpt lat="37.346657000" lon="-5.252946000">
        <ele>137.7</ele>
        <time>2020-10-16T12:35:39Z</time>
      </trkpt>
      <trkpt lat="37.346615000" lon="-5.253056000">
        <ele>137.6</ele>
        <time>2020-10-16T12:35:41Z</time>
      </trkpt>
      <trkpt lat="37.346572000" lon="-5.253168000">
        <ele>137.7</ele>
        <time>2020-10-16T12:35:43Z</time>
      </trkpt>
      <trkpt lat="37.346527000" lon="-5.253274000">
        <ele>137.8</ele>
        <time>2020-10-16T12:35:45Z</time>
      </trkpt>
      <trkpt lat="37.346478000" lon="-5.253383000">
        <ele>137.9</ele>
        <time>2020-10-16T12:35:47Z</time>
      </trkpt>
      <trkpt lat="37.346434000" lon="-5.253489000">
        <ele>138.1</ele>
        <time>2020-10-16T12:35:49Z</time>
      </trkpt>
      <trkpt lat="37.346385000" lon="-5.253592000">
        <ele>138.4</ele>
        <time>2020-10-16T12:35:51Z</time>
      </trkpt>
      <trkpt lat="37.346337000" lon="-5.253695000">
        <ele>138.6</ele>
        <time>2020-10-16T12:35:53Z</time>
      </trkpt>
      <trkpt lat="37.346284000" lon="-5.253790000">
        <ele>138.9</ele>
        <time>2020-10-16T12:35:55Z</time>
      </trkpt>
      <trkpt lat="37.346226000" lon="-5.253891000">
        <ele>139.3</ele>
        <time>2020-10-16T12:35:57Z</time>
      </trkpt>
      <trkpt lat="37.346172000" lon="-5.253992000">
        <ele>139.5</ele>
        <time>2020-10-16T12:35:59Z</time>
      </trkpt>
      <trkpt lat="37.346118000" lon="-5.254082000">
        <ele>139.8</ele>
        <time>2020-10-16T12:36:01Z</time>
      </trkpt>
      <trkpt lat="37.346067000" lon="-5.254173000">
        <ele>140.1</ele>
        <time>2020-10-16T12:36:03Z</time>
      </trkpt>
      <trkpt lat="37.346016000" lon="-5.254261000">
        <ele>140.3</ele>
        <time>2020-10-16T12:36:05Z</time>
      </trkpt>
      <trkpt lat="37.345968000" lon="-5.254352000">
        <ele>140.5</ele>
        <time>2020-10-16T12:36:07Z</time>
      </trkpt>
      <trkpt lat="37.345915000" lon="-5.254444000">
        <ele>140.6</ele>
        <time>2020-10-16T12:36:09Z</time>
      </trkpt>
      <trkpt lat="37.345859000" lon="-5.254534000">
        <ele>140.7</ele>
        <time>2020-10-16T12:36:11Z</time>
      </trkpt>
      <trkpt lat="37.345804000" lon="-5.254621000">
        <ele>140.8</ele>
        <time>2020-10-16T12:36:13Z</time>
      </trkpt>
      <trkpt lat="37.345754000" lon="-5.254716000">
        <ele>140.9</ele>
        <time>2020-10-16T12:36:15Z</time>
      </trkpt>
      <trkpt lat="37.345699000" lon="-5.254808000">
        <ele>141.0</ele>
        <time>2020-10-16T12:36:17Z</time>
      </trkpt>
      <trkpt lat="37.345648000" lon="-5.254905000">
        <ele>141.0</ele>
        <time>2020-10-16T12:36:19Z</time>
      </trkpt>
      <trkpt lat="37.345602000" lon="-5.255008000">
        <ele>141.0</ele>
        <time>2020-10-16T12:36:21Z</time>
      </trkpt>
      <trkpt lat="37.345558000" lon="-5.255114000">
        <ele>141.0</ele>
        <time>2020-10-16T12:36:23Z</time>
      </trkpt>
      <trkpt lat="37.345526000" lon="-5.255222000">
        <ele>141.1</ele>
        <time>2020-10-16T12:36:25Z</time>
      </trkpt>
      <trkpt lat="37.345495000" lon="-5.255331000">
        <ele>141.2</ele>
        <time>2020-10-16T12:36:27Z</time>
      </trkpt>
      <trkpt lat="37.345464000" lon="-5.255443000">
        <ele>141.3</ele>
        <time>2020-10-16T12:36:29Z</time>
      </trkpt>
      <trkpt lat="37.345437000" lon="-5.255556000">
        <ele>141.4</ele>
        <time>2020-10-16T12:36:31Z</time>
      </trkpt>
      <trkpt lat="37.345406000" lon="-5.255666000">
        <ele>141.5</ele>
        <time>2020-10-16T12:36:33Z</time>
      </trkpt>
      <trkpt lat="37.345378000" lon="-5.255776000">
        <ele>141.5</ele>
        <time>2020-10-16T12:36:35Z</time>
      </trkpt>
      <trkpt lat="37.345345000" lon="-5.255888000">
        <ele>141.5</ele>
        <time>2020-10-16T12:36:37Z</time>
      </trkpt>
      <trkpt lat="37.345315000" lon="-5.255995000">
        <ele>141.5</ele>
        <time>2020-10-16T12:36:39Z</time>
      </trkpt>
      <trkpt lat="37.345285000" lon="-5.256103000">
        <ele>141.4</ele>
        <time>2020-10-16T12:36:41Z</time>
      </trkpt>
      <trkpt lat="37.345254000" lon="-5.256204000">
        <ele>141.3</ele>
        <time>2020-10-16T12:36:43Z</time>
      </trkpt>
      <trkpt lat="37.345224000" lon="-5.256311000">
        <ele>141.1</ele>
        <time>2020-10-16T12:36:45Z</time>
      </trkpt>
      <trkpt lat="37.345198000" lon="-5.256421000">
        <ele>140.8</ele>
        <time>2020-10-16T12:36:47Z</time>
      </trkpt>
      <trkpt lat="37.345171000" lon="-5.256530000">
        <ele>140.5</ele>
        <time>2020-10-16T12:36:49Z</time>
      </trkpt>
      <trkpt lat="37.345144000" lon="-5.256637000">
        <ele>140.3</ele>
        <time>2020-10-16T12:36:51Z</time>
      </trkpt>
      <trkpt lat="37.345115000" lon="-5.256750000">
        <ele>140.0</ele>
        <time>2020-10-16T12:36:53Z</time>
      </trkpt>
      <trkpt lat="37.345085000" lon="-5.256860000">
        <ele>139.7</ele>
        <time>2020-10-16T12:36:55Z</time>
      </trkpt>
      <trkpt lat="37.345051000" lon="-5.256964000">
        <ele>139.5</ele>
        <time>2020-10-16T12:36:57Z</time>
      </trkpt>
      <trkpt lat="37.345007000" lon="-5.257068000">
        <ele>139.4</ele>
        <time>2020-10-16T12:36:59Z</time>
      </trkpt>
      <trkpt lat="37.344943000" lon="-5.257156000">
        <ele>139.2</ele>
        <time>2020-10-16T12:37:01Z</time>
      </trkpt>
      <trkpt lat="37.344863000" lon="-5.257217000">
        <ele>139.1</ele>
        <time>2020-10-16T12:37:03Z</time>
      </trkpt>
      <trkpt lat="37.344770000" lon="-5.257248000">
        <ele>139.0</ele>
        <time>2020-10-16T12:37:05Z</time>
      </trkpt>
      <trkpt lat="37.344674000" lon="-5.257273000">
        <ele>139.1</ele>
        <time>2020-10-16T12:37:07Z</time>
      </trkpt>
      <trkpt lat="37.344579000" lon="-5.257294000">
        <ele>139.2</ele>
        <time>2020-10-16T12:37:09Z</time>
      </trkpt>
      <trkpt lat="37.344490000" lon="-5.257313000">
        <ele>139.3</ele>
        <time>2020-10-16T12:37:11Z</time>
      </trkpt>
      <trkpt lat="37.344403000" lon="-5.257336000">
        <ele>139.5</ele>
        <time>2020-10-16T12:37:13Z</time>
      </trkpt>
      <trkpt lat="37.344282000" lon="-5.257374000">
        <ele>139.6</ele>
        <time>2020-10-16T12:37:16Z</time>
      </trkpt>
      <trkpt lat="37.344199000" lon="-5.257394000">
        <ele>139.8</ele>
        <time>2020-10-16T12:37:18Z</time>
      </trkpt>
      <trkpt lat="37.344118000" lon="-5.257419000">
        <ele>140.0</ele>
        <time>2020-10-16T12:37:20Z</time>
      </trkpt>
      <trkpt lat="37.344037000" lon="-5.257448000">
        <ele>140.2</ele>
        <time>2020-10-16T12:37:22Z</time>
      </trkpt>
      <trkpt lat="37.343957000" lon="-5.257487000">
        <ele>140.4</ele>
        <time>2020-10-16T12:37:24Z</time>
      </trkpt>
      <trkpt lat="37.343882000" lon="-5.257537000">
        <ele>140.5</ele>
        <time>2020-10-16T12:37:26Z</time>
      </trkpt>
      <trkpt lat="37.343814000" lon="-5.257599000">
        <ele>140.7</ele>
        <time>2020-10-16T12:37:28Z</time>
      </trkpt>
      <trkpt lat="37.343751000" lon="-5.257666000">
        <ele>140.7</ele>
        <time>2020-10-16T12:37:30Z</time>
      </trkpt>
      <trkpt lat="37.343691000" lon="-5.257740000">
        <ele>140.7</ele>
        <time>2020-10-16T12:37:32Z</time>
      </trkpt>
      <trkpt lat="37.343635000" lon="-5.257818000">
        <ele>140.7</ele>
        <time>2020-10-16T12:37:34Z</time>
      </trkpt>
      <trkpt lat="37.343577000" lon="-5.257900000">
        <ele>140.6</ele>
        <time>2020-10-16T12:37:36Z</time>
      </trkpt>
      <trkpt lat="37.343520000" lon="-5.257984000">
        <ele>140.6</ele>
        <time>2020-10-16T12:37:38Z</time>
      </trkpt>
      <trkpt lat="37.343464000" lon="-5.258087000">
        <ele>140.6</ele>
        <time>2020-10-16T12:37:40Z</time>
      </trkpt>
      <trkpt lat="37.343414000" lon="-5.258196000">
        <ele>140.7</ele>
        <time>2020-10-16T12:37:42Z</time>
      </trkpt>
      <trkpt lat="37.343380000" lon="-5.258314000">
        <ele>140.8</ele>
        <time>2020-10-16T12:37:44Z</time>
      </trkpt>
      <trkpt lat="37.343348000" lon="-5.258435000">
        <ele>140.9</ele>
        <time>2020-10-16T12:37:46Z</time>
      </trkpt>
      <trkpt lat="37.343321000" lon="-5.258552000">
        <ele>141.0</ele>
        <time>2020-10-16T12:37:48Z</time>
      </trkpt>
      <trkpt lat="37.343295000" lon="-5.258684000">
        <ele>141.1</ele>
        <time>2020-10-16T12:37:50Z</time>
      </trkpt>
      <trkpt lat="37.343265000" lon="-5.258807000">
        <ele>141.3</ele>
        <time>2020-10-16T12:37:52Z</time>
      </trkpt>
      <trkpt lat="37.343235000" lon="-5.258935000">
        <ele>141.5</ele>
        <time>2020-10-16T12:37:54Z</time>
      </trkpt>
      <trkpt lat="37.343205000" lon="-5.259055000">
        <ele>141.6</ele>
        <time>2020-10-16T12:37:56Z</time>
      </trkpt>
      <trkpt lat="37.343184000" lon="-5.259178000">
        <ele>141.8</ele>
        <time>2020-10-16T12:37:58Z</time>
      </trkpt>
      <trkpt lat="37.343159000" lon="-5.259298000">
        <ele>142.0</ele>
        <time>2020-10-16T12:38:00Z</time>
      </trkpt>
      <trkpt lat="37.343132000" lon="-5.259418000">
        <ele>142.2</ele>
        <time>2020-10-16T12:38:02Z</time>
      </trkpt>
      <trkpt lat="37.343101000" lon="-5.259537000">
        <ele>142.3</ele>
        <time>2020-10-16T12:38:04Z</time>
      </trkpt>
      <trkpt lat="37.343075000" lon="-5.259656000">
        <ele>142.3</ele>
        <time>2020-10-16T12:38:06Z</time>
      </trkpt>
      <trkpt lat="37.343050000" lon="-5.259767000">
        <ele>142.3</ele>
        <time>2020-10-16T12:38:08Z</time>
      </trkpt>
      <trkpt lat="37.343027000" lon="-5.259881000">
        <ele>142.4</ele>
        <time>2020-10-16T12:38:10Z</time>
      </trkpt>
      <trkpt lat="37.343000000" lon="-5.259997000">
        <ele>142.5</ele>
        <time>2020-10-16T12:38:12Z</time>
      </trkpt>
      <trkpt lat="37.342977000" lon="-5.260113000">
        <ele>142.5</ele>
        <time>2020-10-16T12:38:14Z</time>
      </trkpt>
      <trkpt lat="37.342950000" lon="-5.260228000">
        <ele>142.6</ele>
        <time>2020-10-16T12:38:16Z</time>
      </trkpt>
      <trkpt lat="37.342923000" lon="-5.260347000">
        <ele>142.7</ele>
        <time>2020-10-16T12:38:18Z</time>
      </trkpt>
      <trkpt lat="37.342893000" lon="-5.260464000">
        <ele>142.8</ele>
        <time>2020-10-16T12:38:20Z</time>
      </trkpt>
      <trkpt lat="37.342868000" lon="-5.260576000">
        <ele>142.8</ele>
        <time>2020-10-16T12:38:22Z</time>
      </trkpt>
      <trkpt lat="37.342841000" lon="-5.260691000">
        <ele>142.8</ele>
        <time>2020-10-16T12:38:24Z</time>
      </trkpt>
      <trkpt lat="37.342814000" lon="-5.260802000">
        <ele>142.7</ele>
        <time>2020-10-16T12:38:26Z</time>
      </trkpt>
      <trkpt lat="37.342788000" lon="-5.260913000">
        <ele>142.7</ele>
        <time>2020-10-16T12:38:28Z</time>
      </trkpt>
      <trkpt lat="37.342765000" lon="-5.261021000">
        <ele>142.8</ele>
        <time>2020-10-16T12:38:30Z</time>
      </trkpt>
      <trkpt lat="37.342739000" lon="-5.261130000">
        <ele>142.8</ele>
        <time>2020-10-16T12:38:32Z</time>
      </trkpt>
      <trkpt lat="37.342712000" lon="-5.261247000">
        <ele>142.8</ele>
        <time>2020-10-16T12:38:34Z</time>
      </trkpt>
      <trkpt lat="37.342688000" lon="-5.261359000">
        <ele>142.8</ele>
        <time>2020-10-16T12:38:36Z</time>
      </trkpt>
      <trkpt lat="37.342663000" lon="-5.261469000">
        <ele>142.8</ele>
        <time>2020-10-16T12:38:38Z</time>
      </trkpt>
      <trkpt lat="37.342635000" lon="-5.261581000">
        <ele>142.8</ele>
        <time>2020-10-16T12:38:40Z</time>
      </trkpt>
      <trkpt lat="37.342605000" lon="-5.261696000">
        <ele>142.8</ele>
        <time>2020-10-16T12:38:42Z</time>
      </trkpt>
      <trkpt lat="37.342582000" lon="-5.261811000">
        <ele>142.8</ele>
        <time>2020-10-16T12:38:44Z</time>
      </trkpt>
      <trkpt lat="37.342556000" lon="-5.261928000">
        <ele>142.9</ele>
        <time>2020-10-16T12:38:46Z</time>
      </trkpt>
      <trkpt lat="37.342528000" lon="-5.262036000">
        <ele>143.1</ele>
        <time>2020-10-16T12:38:48Z</time>
      </trkpt>
      <trkpt lat="37.342501000" lon="-5.262143000">
        <ele>143.3</ele>
        <time>2020-10-16T12:38:50Z</time>
      </trkpt>
      <trkpt lat="37.342476000" lon="-5.262250000">
        <ele>143.4</ele>
        <time>2020-10-16T12:38:52Z</time>
      </trkpt>
      <trkpt lat="37.342440000" lon="-5.262394000">
        <ele>143.5</ele>
        <time>2020-10-16T12:39:09Z</time>
      </trkpt>
      <trkpt lat="37.342285000" lon="-5.263219000">
        <ele>143.5</ele>
        <time>2020-10-16T12:39:11Z</time>
      </trkpt>
      <trkpt lat="37.342268000" lon="-5.263328000">
        <ele>143.5</ele>
        <time>2020-10-16T12:39:24Z</time>
      </trkpt>
      <trkpt lat="37.342258000" lon="-5.263430000">
        <ele>143.5</ele>
        <time>2020-10-16T12:39:27Z</time>
      </trkpt>
      <trkpt lat="37.342243000" lon="-5.263571000">
        <ele>143.4</ele>
        <time>2020-10-16T12:39:30Z</time>
      </trkpt>
      <trkpt lat="37.342229000" lon="-5.263675000">
        <ele>143.3</ele>
        <time>2020-10-16T12:39:32Z</time>
      </trkpt>
      <trkpt lat="37.342215000" lon="-5.263785000">
        <ele>143.1</ele>
        <time>2020-10-16T12:39:34Z</time>
      </trkpt>
      <trkpt lat="37.342182000" lon="-5.263903000">
        <ele>142.8</ele>
        <time>2020-10-16T12:39:36Z</time>
      </trkpt>
      <trkpt lat="37.342165000" lon="-5.264019000">
        <ele>142.5</ele>
        <time>2020-10-16T12:39:38Z</time>
      </trkpt>
      <trkpt lat="37.342142000" lon="-5.264138000">
        <ele>142.3</ele>
        <time>2020-10-16T12:39:40Z</time>
      </trkpt>
      <trkpt lat="37.342120000" lon="-5.264258000">
        <ele>141.9</ele>
        <time>2020-10-16T12:39:42Z</time>
      </trkpt>
      <trkpt lat="37.342094000" lon="-5.264383000">
        <ele>141.5</ele>
        <time>2020-10-16T12:39:44Z</time>
      </trkpt>
      <trkpt lat="37.342072000" lon="-5.264512000">
        <ele>141.2</ele>
        <time>2020-10-16T12:39:46Z</time>
      </trkpt>
      <trkpt lat="37.342048000" lon="-5.264641000">
        <ele>140.8</ele>
        <time>2020-10-16T12:39:48Z</time>
      </trkpt>
      <trkpt lat="37.342025000" lon="-5.264772000">
        <ele>140.5</ele>
        <time>2020-10-16T12:39:50Z</time>
      </trkpt>
      <trkpt lat="37.341999000" lon="-5.264903000">
        <ele>140.2</ele>
        <time>2020-10-16T12:39:52Z</time>
      </trkpt>
      <trkpt lat="37.341970000" lon="-5.265029000">
        <ele>139.9</ele>
        <time>2020-10-16T12:39:54Z</time>
      </trkpt>
      <trkpt lat="37.341947000" lon="-5.265161000">
        <ele>139.8</ele>
        <time>2020-10-16T12:39:56Z</time>
      </trkpt>
      <trkpt lat="37.341920000" lon="-5.265293000">
        <ele>139.8</ele>
        <time>2020-10-16T12:39:58Z</time>
      </trkpt>
      <trkpt lat="37.341893000" lon="-5.265420000">
        <ele>139.8</ele>
        <time>2020-10-16T12:40:00Z</time>
      </trkpt>
      <trkpt lat="37.341865000" lon="-5.265553000">
        <ele>139.9</ele>
        <time>2020-10-16T12:40:02Z</time>
      </trkpt>
      <trkpt lat="37.341838000" lon="-5.265680000">
        <ele>140.1</ele>
        <time>2020-10-16T12:40:04Z</time>
      </trkpt>
      <trkpt lat="37.341816000" lon="-5.265818000">
        <ele>140.3</ele>
        <time>2020-10-16T12:40:06Z</time>
      </trkpt>
      <trkpt lat="37.341788000" lon="-5.265948000">
        <ele>140.5</ele>
        <time>2020-10-16T12:40:08Z</time>
      </trkpt>
      <trkpt lat="37.341761000" lon="-5.266077000">
        <ele>140.8</ele>
        <time>2020-10-16T12:40:10Z</time>
      </trkpt>
      <trkpt lat="37.341732000" lon="-5.266216000">
        <ele>141.1</ele>
        <time>2020-10-16T12:40:13Z</time>
      </trkpt>
      <trkpt lat="37.341701000" lon="-5.266354000">
        <ele>141.3</ele>
        <time>2020-10-16T12:40:14Z</time>
      </trkpt>
      <trkpt lat="37.341679000" lon="-5.266491000">
        <ele>141.5</ele>
        <time>2020-10-16T12:40:16Z</time>
      </trkpt>
      <trkpt lat="37.341651000" lon="-5.266629000">
        <ele>141.6</ele>
        <time>2020-10-16T12:40:18Z</time>
      </trkpt>
      <trkpt lat="37.341625000" lon="-5.266761000">
        <ele>141.6</ele>
        <time>2020-10-16T12:40:20Z</time>
      </trkpt>
      <trkpt lat="37.341602000" lon="-5.266893000">
        <ele>141.5</ele>
        <time>2020-10-16T12:40:22Z</time>
      </trkpt>
      <trkpt lat="37.341581000" lon="-5.267022000">
        <ele>141.3</ele>
        <time>2020-10-16T12:40:24Z</time>
      </trkpt>
      <trkpt lat="37.341565000" lon="-5.267152000">
        <ele>140.9</ele>
        <time>2020-10-16T12:40:26Z</time>
      </trkpt>
      <trkpt lat="37.341547000" lon="-5.267289000">
        <ele>140.5</ele>
        <time>2020-10-16T12:40:28Z</time>
      </trkpt>
      <trkpt lat="37.341527000" lon="-5.267427000">
        <ele>139.9</ele>
        <time>2020-10-16T12:40:30Z</time>
      </trkpt>
      <trkpt lat="37.341508000" lon="-5.267576000">
        <ele>139.3</ele>
        <time>2020-10-16T12:40:32Z</time>
      </trkpt>
      <trkpt lat="37.341488000" lon="-5.267735000">
        <ele>138.5</ele>
        <time>2020-10-16T12:40:34Z</time>
      </trkpt>
      <trkpt lat="37.341471000" lon="-5.267900000">
        <ele>137.9</ele>
        <time>2020-10-16T12:40:36Z</time>
      </trkpt>
      <trkpt lat="37.341451000" lon="-5.268080000">
        <ele>137.2</ele>
        <time>2020-10-16T12:40:38Z</time>
      </trkpt>
      <trkpt lat="37.341429000" lon="-5.268262000">
        <ele>136.5</ele>
        <time>2020-10-16T12:40:40Z</time>
      </trkpt>
      <trkpt lat="37.341408000" lon="-5.268442000">
        <ele>135.9</ele>
        <time>2020-10-16T12:40:42Z</time>
      </trkpt>
      <trkpt lat="37.341389000" lon="-5.268623000">
        <ele>135.4</ele>
        <time>2020-10-16T12:40:44Z</time>
      </trkpt>
      <trkpt lat="37.341368000" lon="-5.268799000">
        <ele>134.9</ele>
        <time>2020-10-16T12:40:46Z</time>
      </trkpt>
      <trkpt lat="37.341346000" lon="-5.268966000">
        <ele>134.5</ele>
        <time>2020-10-16T12:40:48Z</time>
      </trkpt>
      <trkpt lat="37.341323000" lon="-5.269129000">
        <ele>134.2</ele>
        <time>2020-10-16T12:40:50Z</time>
      </trkpt>
      <trkpt lat="37.341306000" lon="-5.269284000">
        <ele>134.0</ele>
        <time>2020-10-16T12:40:52Z</time>
      </trkpt>
      <trkpt lat="37.341288000" lon="-5.269442000">
        <ele>133.9</ele>
        <time>2020-10-16T12:40:54Z</time>
      </trkpt>
      <trkpt lat="37.341272000" lon="-5.269599000">
        <ele>134.0</ele>
        <time>2020-10-16T12:40:56Z</time>
      </trkpt>
      <trkpt lat="37.341251000" lon="-5.269759000">
        <ele>134.2</ele>
        <time>2020-10-16T12:40:58Z</time>
      </trkpt>
      <trkpt lat="37.341229000" lon="-5.269923000">
        <ele>134.5</ele>
        <time>2020-10-16T12:41:00Z</time>
      </trkpt>
      <trkpt lat="37.341212000" lon="-5.270080000">
        <ele>134.7</ele>
        <time>2020-10-16T12:41:02Z</time>
      </trkpt>
      <trkpt lat="37.341195000" lon="-5.270239000">
        <ele>135.0</ele>
        <time>2020-10-16T12:41:04Z</time>
      </trkpt>
      <trkpt lat="37.341180000" lon="-5.270394000">
        <ele>135.3</ele>
        <time>2020-10-16T12:41:06Z</time>
      </trkpt>
      <trkpt lat="37.341167000" lon="-5.270554000">
        <ele>135.5</ele>
        <time>2020-10-16T12:41:08Z</time>
      </trkpt>
      <trkpt lat="37.341154000" lon="-5.270708000">
        <ele>135.9</ele>
        <time>2020-10-16T12:41:10Z</time>
      </trkpt>
      <trkpt lat="37.341136000" lon="-5.270849000">
        <ele>136.4</ele>
        <time>2020-10-16T12:41:12Z</time>
      </trkpt>
      <trkpt lat="37.341116000" lon="-5.270988000">
        <ele>136.7</ele>
        <time>2020-10-16T12:41:14Z</time>
      </trkpt>
      <trkpt lat="37.341098000" lon="-5.271122000">
        <ele>137.1</ele>
        <time>2020-10-16T12:41:16Z</time>
      </trkpt>
      <trkpt lat="37.341076000" lon="-5.271259000">
        <ele>137.4</ele>
        <time>2020-10-16T12:41:18Z</time>
      </trkpt>
      <trkpt lat="37.341056000" lon="-5.271389000">
        <ele>137.5</ele>
        <time>2020-10-16T12:41:20Z</time>
      </trkpt>
      <trkpt lat="37.341033000" lon="-5.271514000">
        <ele>137.6</ele>
        <time>2020-10-16T12:41:22Z</time>
      </trkpt>
      <trkpt lat="37.341017000" lon="-5.271642000">
        <ele>137.7</ele>
        <time>2020-10-16T12:41:24Z</time>
      </trkpt>
      <trkpt lat="37.340998000" lon="-5.271765000">
        <ele>137.7</ele>
        <time>2020-10-16T12:41:26Z</time>
      </trkpt>
      <trkpt lat="37.340979000" lon="-5.271886000">
        <ele>137.7</ele>
        <time>2020-10-16T12:41:28Z</time>
      </trkpt>
      <trkpt lat="37.340958000" lon="-5.272009000">
        <ele>137.7</ele>
        <time>2020-10-16T12:41:30Z</time>
      </trkpt>
      <trkpt lat="37.340937000" lon="-5.272133000">
        <ele>137.6</ele>
        <time>2020-10-16T12:41:32Z</time>
      </trkpt>
      <trkpt lat="37.340916000" lon="-5.272253000">
        <ele>137.5</ele>
        <time>2020-10-16T12:41:34Z</time>
      </trkpt>
      <trkpt lat="37.340896000" lon="-5.272377000">
        <ele>137.5</ele>
        <time>2020-10-16T12:41:36Z</time>
      </trkpt>
      <trkpt lat="37.340875000" lon="-5.272495000">
        <ele>137.4</ele>
        <time>2020-10-16T12:41:38Z</time>
      </trkpt>
      <trkpt lat="37.340858000" lon="-5.272605000">
        <ele>137.3</ele>
        <time>2020-10-16T12:41:40Z</time>
      </trkpt>
      <trkpt lat="37.340833000" lon="-5.272722000">
        <ele>137.2</ele>
        <time>2020-10-16T12:41:42Z</time>
      </trkpt>
      <trkpt lat="37.340810000" lon="-5.272832000">
        <ele>137.1</ele>
        <time>2020-10-16T12:41:44Z</time>
      </trkpt>
      <trkpt lat="37.340781000" lon="-5.272940000">
        <ele>137.1</ele>
        <time>2020-10-16T12:41:46Z</time>
      </trkpt>
      <trkpt lat="37.340754000" lon="-5.273055000">
        <ele>137.3</ele>
        <time>2020-10-16T12:41:48Z</time>
      </trkpt>
      <trkpt lat="37.340721000" lon="-5.273173000">
        <ele>137.5</ele>
        <time>2020-10-16T12:41:50Z</time>
      </trkpt>
      <trkpt lat="37.340694000" lon="-5.273287000">
        <ele>137.8</ele>
        <time>2020-10-16T12:41:52Z</time>
      </trkpt>
      <trkpt lat="37.340658000" lon="-5.273413000">
        <ele>138.1</ele>
        <time>2020-10-16T12:41:54Z</time>
      </trkpt>
      <trkpt lat="37.340622000" lon="-5.273534000">
        <ele>138.4</ele>
        <time>2020-10-16T12:41:56Z</time>
      </trkpt>
      <trkpt lat="37.340590000" lon="-5.273657000">
        <ele>138.5</ele>
        <time>2020-10-16T12:41:58Z</time>
      </trkpt>
      <trkpt lat="37.340550000" lon="-5.273776000">
        <ele>138.7</ele>
        <time>2020-10-16T12:42:00Z</time>
      </trkpt>
      <trkpt lat="37.340503000" lon="-5.273893000">
        <ele>138.9</ele>
        <time>2020-10-16T12:42:02Z</time>
      </trkpt>
      <trkpt lat="37.340458000" lon="-5.274007000">
        <ele>139.1</ele>
        <time>2020-10-16T12:42:04Z</time>
      </trkpt>
      <trkpt lat="37.340412000" lon="-5.274122000">
        <ele>139.3</ele>
        <time>2020-10-16T12:42:06Z</time>
      </trkpt>
      <trkpt lat="37.340363000" lon="-5.274239000">
        <ele>139.3</ele>
        <time>2020-10-16T12:42:08Z</time>
      </trkpt>
      <trkpt lat="37.340324000" lon="-5.274365000">
        <ele>139.2</ele>
        <time>2020-10-16T12:42:10Z</time>
      </trkpt>
      <trkpt lat="37.340292000" lon="-5.274491000">
        <ele>139.0</ele>
        <time>2020-10-16T12:42:12Z</time>
      </trkpt>
      <trkpt lat="37.340265000" lon="-5.274618000">
        <ele>138.7</ele>
        <time>2020-10-16T12:42:14Z</time>
      </trkpt>
      <trkpt lat="37.340239000" lon="-5.274747000">
        <ele>138.5</ele>
        <time>2020-10-16T12:42:16Z</time>
      </trkpt>
      <trkpt lat="37.340209000" lon="-5.274878000">
        <ele>138.2</ele>
        <time>2020-10-16T12:42:18Z</time>
      </trkpt>
      <trkpt lat="37.340183000" lon="-5.275014000">
        <ele>138.0</ele>
        <time>2020-10-16T12:42:20Z</time>
      </trkpt>
      <trkpt lat="37.340161000" lon="-5.275145000">
        <ele>137.8</ele>
        <time>2020-10-16T12:42:22Z</time>
      </trkpt>
      <trkpt lat="37.340150000" lon="-5.275285000">
        <ele>137.6</ele>
        <time>2020-10-16T12:42:24Z</time>
      </trkpt>
      <trkpt lat="37.340137000" lon="-5.275416000">
        <ele>137.5</ele>
        <time>2020-10-16T12:42:26Z</time>
      </trkpt>
      <trkpt lat="37.340122000" lon="-5.275552000">
        <ele>137.3</ele>
        <time>2020-10-16T12:42:28Z</time>
      </trkpt>
      <trkpt lat="37.340106000" lon="-5.275686000">
        <ele>137.2</ele>
        <time>2020-10-16T12:42:30Z</time>
      </trkpt>
      <trkpt lat="37.340088000" lon="-5.275826000">
        <ele>137.1</ele>
        <time>2020-10-16T12:42:32Z</time>
      </trkpt>
      <trkpt lat="37.340067000" lon="-5.275968000">
        <ele>137.0</ele>
        <time>2020-10-16T12:42:34Z</time>
      </trkpt>
      <trkpt lat="37.340045000" lon="-5.276112000">
        <ele>137.0</ele>
        <time>2020-10-16T12:42:36Z</time>
      </trkpt>
      <trkpt lat="37.340024000" lon="-5.276260000">
        <ele>137.0</ele>
        <time>2020-10-16T12:42:38Z</time>
      </trkpt>
      <trkpt lat="37.339997000" lon="-5.276402000">
        <ele>137.0</ele>
        <time>2020-10-16T12:42:40Z</time>
      </trkpt>
      <trkpt lat="37.339976000" lon="-5.276548000">
        <ele>137.1</ele>
        <time>2020-10-16T12:42:42Z</time>
      </trkpt>
      <trkpt lat="37.339958000" lon="-5.276699000">
        <ele>137.3</ele>
        <time>2020-10-16T12:42:44Z</time>
      </trkpt>
      <trkpt lat="37.339937000" lon="-5.276857000">
        <ele>137.5</ele>
        <time>2020-10-16T12:42:46Z</time>
      </trkpt>
      <trkpt lat="37.339911000" lon="-5.277010000">
        <ele>137.7</ele>
        <time>2020-10-16T12:42:48Z</time>
      </trkpt>
      <trkpt lat="37.339890000" lon="-5.277168000">
        <ele>138.0</ele>
        <time>2020-10-16T12:42:50Z</time>
      </trkpt>
      <trkpt lat="37.339872000" lon="-5.277333000">
        <ele>138.3</ele>
        <time>2020-10-16T12:42:52Z</time>
      </trkpt>
      <trkpt lat="37.339851000" lon="-5.277496000">
        <ele>138.5</ele>
        <time>2020-10-16T12:42:54Z</time>
      </trkpt>
      <trkpt lat="37.339832000" lon="-5.277662000">
        <ele>138.6</ele>
        <time>2020-10-16T12:42:56Z</time>
      </trkpt>
      <trkpt lat="37.339814000" lon="-5.277819000">
        <ele>138.8</ele>
        <time>2020-10-16T12:42:58Z</time>
      </trkpt>
      <trkpt lat="37.339793000" lon="-5.277971000">
        <ele>139.0</ele>
        <time>2020-10-16T12:43:00Z</time>
      </trkpt>
      <trkpt lat="37.339780000" lon="-5.278127000">
        <ele>139.1</ele>
        <time>2020-10-16T12:43:02Z</time>
      </trkpt>
      <trkpt lat="37.339761000" lon="-5.278267000">
        <ele>139.1</ele>
        <time>2020-10-16T12:43:04Z</time>
      </trkpt>
      <trkpt lat="37.339744000" lon="-5.278398000">
        <ele>138.9</ele>
        <time>2020-10-16T12:43:06Z</time>
      </trkpt>
      <trkpt lat="37.339728000" lon="-5.278530000">
        <ele>138.7</ele>
        <time>2020-10-16T12:43:08Z</time>
      </trkpt>
      <trkpt lat="37.339712000" lon="-5.278660000">
        <ele>138.4</ele>
        <time>2020-10-16T12:43:10Z</time>
      </trkpt>
      <trkpt lat="37.339692000" lon="-5.278800000">
        <ele>138.0</ele>
        <time>2020-10-16T12:43:12Z</time>
      </trkpt>
      <trkpt lat="37.339672000" lon="-5.278950000">
        <ele>137.5</ele>
        <time>2020-10-16T12:43:14Z</time>
      </trkpt>
      <trkpt lat="37.339651000" lon="-5.279105000">
        <ele>137.2</ele>
        <time>2020-10-16T12:43:16Z</time>
      </trkpt>
      <trkpt lat="37.339632000" lon="-5.279260000">
        <ele>136.8</ele>
        <time>2020-10-16T12:43:18Z</time>
      </trkpt>
      <trkpt lat="37.339612000" lon="-5.279419000">
        <ele>136.4</ele>
        <time>2020-10-16T12:43:20Z</time>
      </trkpt>
      <trkpt lat="37.339596000" lon="-5.279579000">
        <ele>135.9</ele>
        <time>2020-10-16T12:43:22Z</time>
      </trkpt>
      <trkpt lat="37.339574000" lon="-5.279745000">
        <ele>135.5</ele>
        <time>2020-10-16T12:43:24Z</time>
      </trkpt>
      <trkpt lat="37.339551000" lon="-5.279915000">
        <ele>135.2</ele>
        <time>2020-10-16T12:43:26Z</time>
      </trkpt>
      <trkpt lat="37.339525000" lon="-5.280087000">
        <ele>134.9</ele>
        <time>2020-10-16T12:43:28Z</time>
      </trkpt>
      <trkpt lat="37.339501000" lon="-5.280263000">
        <ele>134.6</ele>
        <time>2020-10-16T12:43:30Z</time>
      </trkpt>
      <trkpt lat="37.339468000" lon="-5.280431000">
        <ele>134.5</ele>
        <time>2020-10-16T12:43:32Z</time>
      </trkpt>
      <trkpt lat="37.339432000" lon="-5.280597000">
        <ele>134.5</ele>
        <time>2020-10-16T12:43:34Z</time>
      </trkpt>
      <trkpt lat="37.339401000" lon="-5.280754000">
        <ele>134.5</ele>
        <time>2020-10-16T12:43:36Z</time>
      </trkpt>
      <trkpt lat="37.339371000" lon="-5.280910000">
        <ele>134.5</ele>
        <time>2020-10-16T12:43:38Z</time>
      </trkpt>
      <trkpt lat="37.339340000" lon="-5.281057000">
        <ele>134.5</ele>
        <time>2020-10-16T12:43:40Z</time>
      </trkpt>
      <trkpt lat="37.339311000" lon="-5.281202000">
        <ele>134.5</ele>
        <time>2020-10-16T12:43:42Z</time>
      </trkpt>
      <trkpt lat="37.339280000" lon="-5.281349000">
        <ele>134.6</ele>
        <time>2020-10-16T12:43:44Z</time>
      </trkpt>
      <trkpt lat="37.339252000" lon="-5.281494000">
        <ele>134.7</ele>
        <time>2020-10-16T12:43:46Z</time>
      </trkpt>
      <trkpt lat="37.339219000" lon="-5.281642000">
        <ele>134.8</ele>
        <time>2020-10-16T12:43:48Z</time>
      </trkpt>
      <trkpt lat="37.339191000" lon="-5.281789000">
        <ele>134.8</ele>
        <time>2020-10-16T12:43:50Z</time>
      </trkpt>
      <trkpt lat="37.339162000" lon="-5.281933000">
        <ele>134.8</ele>
        <time>2020-10-16T12:43:52Z</time>
      </trkpt>
      <trkpt lat="37.339133000" lon="-5.282076000">
        <ele>134.6</ele>
        <time>2020-10-16T12:43:54Z</time>
      </trkpt>
      <trkpt lat="37.339107000" lon="-5.282218000">
        <ele>134.5</ele>
        <time>2020-10-16T12:43:56Z</time>
      </trkpt>
      <trkpt lat="37.339079000" lon="-5.282359000">
        <ele>134.3</ele>
        <time>2020-10-16T12:43:58Z</time>
      </trkpt>
      <trkpt lat="37.339049000" lon="-5.282502000">
        <ele>134.1</ele>
        <time>2020-10-16T12:44:00Z</time>
      </trkpt>
      <trkpt lat="37.339022000" lon="-5.282640000">
        <ele>133.9</ele>
        <time>2020-10-16T12:44:02Z</time>
      </trkpt>
      <trkpt lat="37.338995000" lon="-5.282778000">
        <ele>133.7</ele>
        <time>2020-10-16T12:44:04Z</time>
      </trkpt>
      <trkpt lat="37.338967000" lon="-5.282914000">
        <ele>133.5</ele>
        <time>2020-10-16T12:44:06Z</time>
      </trkpt>
      <trkpt lat="37.338939000" lon="-5.283047000">
        <ele>133.2</ele>
        <time>2020-10-16T12:44:08Z</time>
      </trkpt>
      <trkpt lat="37.338913000" lon="-5.283181000">
        <ele>132.9</ele>
        <time>2020-10-16T12:44:10Z</time>
      </trkpt>
      <trkpt lat="37.338887000" lon="-5.283313000">
        <ele>132.7</ele>
        <time>2020-10-16T12:44:12Z</time>
      </trkpt>
      <trkpt lat="37.338865000" lon="-5.283444000">
        <ele>132.6</ele>
        <time>2020-10-16T12:44:14Z</time>
      </trkpt>
      <trkpt lat="37.338835000" lon="-5.283580000">
        <ele>132.6</ele>
        <time>2020-10-16T12:44:16Z</time>
      </trkpt>
      <trkpt lat="37.338808000" lon="-5.283718000">
        <ele>132.6</ele>
        <time>2020-10-16T12:44:18Z</time>
      </trkpt>
      <trkpt lat="37.338778000" lon="-5.283856000">
        <ele>132.6</ele>
        <time>2020-10-16T12:44:20Z</time>
      </trkpt>
      <trkpt lat="37.338751000" lon="-5.283987000">
        <ele>132.5</ele>
        <time>2020-10-16T12:44:22Z</time>
      </trkpt>
      <trkpt lat="37.338722000" lon="-5.284121000">
        <ele>132.3</ele>
        <time>2020-10-16T12:44:24Z</time>
      </trkpt>
      <trkpt lat="37.338697000" lon="-5.284250000">
        <ele>132.1</ele>
        <time>2020-10-16T12:44:26Z</time>
      </trkpt>
      <trkpt lat="37.338675000" lon="-5.284390000">
        <ele>132.0</ele>
        <time>2020-10-16T12:44:28Z</time>
      </trkpt>
      <trkpt lat="37.338647000" lon="-5.284527000">
        <ele>131.9</ele>
        <time>2020-10-16T12:44:30Z</time>
      </trkpt>
      <trkpt lat="37.338618000" lon="-5.284663000">
        <ele>131.9</ele>
        <time>2020-10-16T12:44:32Z</time>
      </trkpt>
      <trkpt lat="37.338591000" lon="-5.284799000">
        <ele>131.9</ele>
        <time>2020-10-16T12:44:34Z</time>
      </trkpt>
      <trkpt lat="37.338572000" lon="-5.284938000">
        <ele>131.9</ele>
        <time>2020-10-16T12:44:36Z</time>
      </trkpt>
      <trkpt lat="37.338549000" lon="-5.285077000">
        <ele>131.9</ele>
        <time>2020-10-16T12:44:38Z</time>
      </trkpt>
      <trkpt lat="37.338527000" lon="-5.285215000">
        <ele>131.9</ele>
        <time>2020-10-16T12:44:40Z</time>
      </trkpt>
      <trkpt lat="37.338507000" lon="-5.285352000">
        <ele>131.8</ele>
        <time>2020-10-16T12:44:42Z</time>
      </trkpt>
      <trkpt lat="37.338486000" lon="-5.285497000">
        <ele>131.9</ele>
        <time>2020-10-16T12:44:44Z</time>
      </trkpt>
      <trkpt lat="37.338466000" lon="-5.285641000">
        <ele>132.0</ele>
        <time>2020-10-16T12:44:46Z</time>
      </trkpt>
      <trkpt lat="37.338441000" lon="-5.285780000">
        <ele>132.1</ele>
        <time>2020-10-16T12:44:48Z</time>
      </trkpt>
      <trkpt lat="37.338417000" lon="-5.285908000">
        <ele>132.2</ele>
        <time>2020-10-16T12:44:50Z</time>
      </trkpt>
      <trkpt lat="37.338399000" lon="-5.286033000">
        <ele>132.4</ele>
        <time>2020-10-16T12:44:52Z</time>
      </trkpt>
      <trkpt lat="37.338378000" lon="-5.286152000">
        <ele>132.5</ele>
        <time>2020-10-16T12:44:54Z</time>
      </trkpt>
      <trkpt lat="37.338359000" lon="-5.286269000">
        <ele>132.6</ele>
        <time>2020-10-16T12:44:56Z</time>
      </trkpt>
      <trkpt lat="37.338343000" lon="-5.286375000">
        <ele>132.7</ele>
        <time>2020-10-16T12:44:58Z</time>
      </trkpt>
      <trkpt lat="37.338321000" lon="-5.286477000">
        <ele>132.8</ele>
        <time>2020-10-16T12:45:00Z</time>
      </trkpt>
      <trkpt lat="37.338292000" lon="-5.286621000">
        <ele>132.9</ele>
        <time>2020-10-16T12:45:03Z</time>
      </trkpt>
      <trkpt lat="37.338266000" lon="-5.286740000">
        <ele>133.1</ele>
        <time>2020-10-16T12:45:06Z</time>
      </trkpt>
      <trkpt lat="37.338246000" lon="-5.286849000">
        <ele>133.3</ele>
        <time>2020-10-16T12:45:10Z</time>
      </trkpt>
      <trkpt lat="37.338225000" lon="-5.286955000">
        <ele>133.5</ele>
        <time>2020-10-16T12:45:14Z</time>
      </trkpt>
      <trkpt lat="37.338231000" lon="-5.287068000">
        <ele>133.6</ele>
        <time>2020-10-16T12:45:17Z</time>
      </trkpt>
      <trkpt lat="37.338229000" lon="-5.287207000">
        <ele>133.8</ele>
        <time>2020-10-16T12:45:20Z</time>
      </trkpt>
      <trkpt lat="37.338219000" lon="-5.287309000">
        <ele>133.9</ele>
        <time>2020-10-16T12:45:22Z</time>
      </trkpt>
      <trkpt lat="37.338210000" lon="-5.287460000">
        <ele>134.0</ele>
        <time>2020-10-16T12:45:25Z</time>
      </trkpt>
      <trkpt lat="37.338202000" lon="-5.287568000">
        <ele>134.0</ele>
        <time>2020-10-16T12:45:27Z</time>
      </trkpt>
      <trkpt lat="37.338194000" lon="-5.287687000">
        <ele>134.0</ele>
        <time>2020-10-16T12:45:29Z</time>
      </trkpt>
      <trkpt lat="37.338182000" lon="-5.287797000">
        <ele>134.1</ele>
        <time>2020-10-16T12:45:35Z</time>
      </trkpt>
      <trkpt lat="37.338142000" lon="-5.288023000">
        <ele>134.2</ele>
        <time>2020-10-16T12:45:35Z</time>
      </trkpt>
      <trkpt lat="37.338098000" lon="-5.288238000">
        <ele>134.3</ele>
        <time>2020-10-16T12:45:39Z</time>
      </trkpt>
      <trkpt lat="37.338074000" lon="-5.288346000">
        <ele>134.4</ele>
        <time>2020-10-16T12:45:41Z</time>
      </trkpt>
      <trkpt lat="37.338049000" lon="-5.288467000">
        <ele>134.5</ele>
        <time>2020-10-16T12:45:43Z</time>
      </trkpt>
      <trkpt lat="37.338026000" lon="-5.288587000">
        <ele>134.5</ele>
        <time>2020-10-16T12:45:45Z</time>
      </trkpt>
      <trkpt lat="37.338001000" lon="-5.288705000">
        <ele>134.6</ele>
        <time>2020-10-16T12:45:47Z</time>
      </trkpt>
      <trkpt lat="37.337974000" lon="-5.288828000">
        <ele>134.6</ele>
        <time>2020-10-16T12:45:49Z</time>
      </trkpt>
      <trkpt lat="37.337944000" lon="-5.288948000">
        <ele>134.6</ele>
        <time>2020-10-16T12:45:51Z</time>
      </trkpt>
      <trkpt lat="37.337912000" lon="-5.289067000">
        <ele>134.5</ele>
        <time>2020-10-16T12:45:53Z</time>
      </trkpt>
      <trkpt lat="37.337869000" lon="-5.289190000">
        <ele>134.5</ele>
        <time>2020-10-16T12:45:55Z</time>
      </trkpt>
      <trkpt lat="37.337827000" lon="-5.289314000">
        <ele>134.2</ele>
        <time>2020-10-16T12:45:57Z</time>
      </trkpt>
      <trkpt lat="37.337781000" lon="-5.289445000">
        <ele>133.9</ele>
        <time>2020-10-16T12:45:59Z</time>
      </trkpt>
      <trkpt lat="37.337738000" lon="-5.289571000">
        <ele>133.7</ele>
        <time>2020-10-16T12:46:01Z</time>
      </trkpt>
      <trkpt lat="37.337690000" lon="-5.289701000">
        <ele>133.5</ele>
        <time>2020-10-16T12:46:03Z</time>
      </trkpt>
      <trkpt lat="37.337645000" lon="-5.289827000">
        <ele>133.5</ele>
        <time>2020-10-16T12:46:05Z</time>
      </trkpt>
      <trkpt lat="37.337598000" lon="-5.289950000">
        <ele>133.5</ele>
        <time>2020-10-16T12:46:07Z</time>
      </trkpt>
      <trkpt lat="37.337551000" lon="-5.290066000">
        <ele>133.5</ele>
        <time>2020-10-16T12:46:09Z</time>
      </trkpt>
      <trkpt lat="37.337509000" lon="-5.290185000">
        <ele>133.6</ele>
        <time>2020-10-16T12:46:11Z</time>
      </trkpt>
      <trkpt lat="37.337463000" lon="-5.290308000">
        <ele>133.8</ele>
        <time>2020-10-16T12:46:13Z</time>
      </trkpt>
      <trkpt lat="37.337418000" lon="-5.290423000">
        <ele>134.0</ele>
        <time>2020-10-16T12:46:15Z</time>
      </trkpt>
      <trkpt lat="37.337372000" lon="-5.290542000">
        <ele>134.2</ele>
        <time>2020-10-16T12:46:17Z</time>
      </trkpt>
      <trkpt lat="37.337324000" lon="-5.290654000">
        <ele>134.5</ele>
        <time>2020-10-16T12:46:19Z</time>
      </trkpt>
      <trkpt lat="37.337280000" lon="-5.290773000">
        <ele>134.7</ele>
        <time>2020-10-16T12:46:21Z</time>
      </trkpt>
      <trkpt lat="37.337232000" lon="-5.290892000">
        <ele>134.9</ele>
        <time>2020-10-16T12:46:23Z</time>
      </trkpt>
      <trkpt lat="37.337183000" lon="-5.291009000">
        <ele>135.2</ele>
        <time>2020-10-16T12:46:25Z</time>
      </trkpt>
      <trkpt lat="37.337139000" lon="-5.291123000">
        <ele>135.4</ele>
        <time>2020-10-16T12:46:27Z</time>
      </trkpt>
      <trkpt lat="37.337093000" lon="-5.291241000">
        <ele>135.5</ele>
        <time>2020-10-16T12:46:29Z</time>
      </trkpt>
      <trkpt lat="37.337047000" lon="-5.291354000">
        <ele>135.6</ele>
        <time>2020-10-16T12:46:31Z</time>
      </trkpt>
      <trkpt lat="37.337004000" lon="-5.291459000">
        <ele>135.7</ele>
        <time>2020-10-16T12:46:33Z</time>
      </trkpt>
      <trkpt lat="37.336965000" lon="-5.291561000">
        <ele>135.8</ele>
        <time>2020-10-16T12:46:35Z</time>
      </trkpt>
      <trkpt lat="37.336927000" lon="-5.291659000">
        <ele>136.0</ele>
        <time>2020-10-16T12:46:37Z</time>
      </trkpt>
      <trkpt lat="37.336880000" lon="-5.291793000">
        <ele>136.3</ele>
        <time>2020-10-16T12:46:40Z</time>
      </trkpt>
      <trkpt lat="37.336826000" lon="-5.291930000">
        <ele>136.5</ele>
        <time>2020-10-16T12:46:43Z</time>
      </trkpt>
      <trkpt lat="37.336787000" lon="-5.292020000">
        <ele>136.9</ele>
        <time>2020-10-16T12:46:45Z</time>
      </trkpt>
      <trkpt lat="37.336750000" lon="-5.292112000">
        <ele>137.3</ele>
        <time>2020-10-16T12:46:47Z</time>
      </trkpt>
      <trkpt lat="37.336700000" lon="-5.292236000">
        <ele>137.5</ele>
        <time>2020-10-16T12:46:50Z</time>
      </trkpt>
      <trkpt lat="37.336653000" lon="-5.292358000">
        <ele>137.9</ele>
        <time>2020-10-16T12:46:53Z</time>
      </trkpt>
      <trkpt lat="37.336601000" lon="-5.292485000">
        <ele>138.3</ele>
        <time>2020-10-16T12:46:56Z</time>
      </trkpt>
      <trkpt lat="37.336548000" lon="-5.292616000">
        <ele>138.5</ele>
        <time>2020-10-16T12:46:59Z</time>
      </trkpt>
      <trkpt lat="37.336502000" lon="-5.292735000">
        <ele>138.8</ele>
        <time>2020-10-16T12:47:02Z</time>
      </trkpt>
      <trkpt lat="37.336449000" lon="-5.292856000">
        <ele>139.2</ele>
        <time>2020-10-16T12:47:05Z</time>
      </trkpt>
      <trkpt lat="37.336399000" lon="-5.292979000">
        <ele>139.5</ele>
        <time>2020-10-16T12:47:08Z</time>
      </trkpt>
      <trkpt lat="37.336352000" lon="-5.293098000">
        <ele>139.8</ele>
        <time>2020-10-16T12:47:11Z</time>
      </trkpt>
      <trkpt lat="37.336301000" lon="-5.293209000">
        <ele>140.2</ele>
        <time>2020-10-16T12:47:14Z</time>
      </trkpt>
      <trkpt lat="37.336245000" lon="-5.293324000">
        <ele>140.5</ele>
        <time>2020-10-16T12:47:17Z</time>
      </trkpt>
      <trkpt lat="37.336183000" lon="-5.293431000">
        <ele>140.7</ele>
        <time>2020-10-16T12:47:20Z</time>
      </trkpt>
      <trkpt lat="37.336119000" lon="-5.293540000">
        <ele>141.0</ele>
        <time>2020-10-16T12:47:23Z</time>
      </trkpt>
      <trkpt lat="37.336052000" lon="-5.293647000">
        <ele>141.2</ele>
        <time>2020-10-16T12:47:26Z</time>
      </trkpt>
      <trkpt lat="37.335984000" lon="-5.293762000">
        <ele>141.3</ele>
        <time>2020-10-16T12:47:29Z</time>
      </trkpt>
      <trkpt lat="37.335911000" lon="-5.293884000">
        <ele>141.4</ele>
        <time>2020-10-16T12:47:32Z</time>
      </trkpt>
      <trkpt lat="37.335863000" lon="-5.293978000">
        <ele>141.4</ele>
        <time>2020-10-16T12:47:34Z</time>
      </trkpt>
      <trkpt lat="37.335805000" lon="-5.294070000">
        <ele>141.3</ele>
        <time>2020-10-16T12:47:36Z</time>
      </trkpt>
      <trkpt lat="37.335744000" lon="-5.294163000">
        <ele>141.1</ele>
        <time>2020-10-16T12:47:38Z</time>
      </trkpt>
      <trkpt lat="37.335682000" lon="-5.294265000">
        <ele>140.9</ele>
        <time>2020-10-16T12:47:40Z</time>
      </trkpt>
      <trkpt lat="37.335616000" lon="-5.294371000">
        <ele>140.6</ele>
        <time>2020-10-16T12:47:42Z</time>
      </trkpt>
      <trkpt lat="37.335545000" lon="-5.294484000">
        <ele>140.4</ele>
        <time>2020-10-16T12:47:44Z</time>
      </trkpt>
      <trkpt lat="37.335473000" lon="-5.294593000">
        <ele>140.0</ele>
        <time>2020-10-16T12:47:46Z</time>
      </trkpt>
      <trkpt lat="37.335400000" lon="-5.294705000">
        <ele>139.6</ele>
        <time>2020-10-16T12:47:48Z</time>
      </trkpt>
      <trkpt lat="37.335327000" lon="-5.294819000">
        <ele>139.2</ele>
        <time>2020-10-16T12:47:50Z</time>
      </trkpt>
      <trkpt lat="37.335254000" lon="-5.294928000">
        <ele>138.8</ele>
        <time>2020-10-16T12:47:52Z</time>
      </trkpt>
      <trkpt lat="37.335180000" lon="-5.295044000">
        <ele>138.5</ele>
        <time>2020-10-16T12:47:54Z</time>
      </trkpt>
      <trkpt lat="37.335109000" lon="-5.295164000">
        <ele>138.2</ele>
        <time>2020-10-16T12:47:56Z</time>
      </trkpt>
      <trkpt lat="37.335047000" lon="-5.295300000">
        <ele>138.0</ele>
        <time>2020-10-16T12:47:58Z</time>
      </trkpt>
      <trkpt lat="37.335009000" lon="-5.295452000">
        <ele>137.9</ele>
        <time>2020-10-16T12:48:00Z</time>
      </trkpt>
      <trkpt lat="37.334996000" lon="-5.295611000">
        <ele>137.8</ele>
        <time>2020-10-16T12:48:02Z</time>
      </trkpt>
      <trkpt lat="37.334985000" lon="-5.295772000">
        <ele>137.6</ele>
        <time>2020-10-16T12:48:04Z</time>
      </trkpt>
      <trkpt lat="37.334976000" lon="-5.295941000">
        <ele>137.4</ele>
        <time>2020-10-16T12:48:06Z</time>
      </trkpt>
      <trkpt lat="37.334961000" lon="-5.296103000">
        <ele>137.2</ele>
        <time>2020-10-16T12:48:08Z</time>
      </trkpt>
      <trkpt lat="37.334946000" lon="-5.296271000">
        <ele>137.0</ele>
        <time>2020-10-16T12:48:10Z</time>
      </trkpt>
      <trkpt lat="37.334933000" lon="-5.296434000">
        <ele>136.8</ele>
        <time>2020-10-16T12:48:12Z</time>
      </trkpt>
      <trkpt lat="37.334919000" lon="-5.296594000">
        <ele>136.7</ele>
        <time>2020-10-16T12:48:14Z</time>
      </trkpt>
      <trkpt lat="37.334907000" lon="-5.296752000">
        <ele>136.7</ele>
        <time>2020-10-16T12:48:16Z</time>
      </trkpt>
      <trkpt lat="37.334895000" lon="-5.296904000">
        <ele>136.7</ele>
        <time>2020-10-16T12:48:18Z</time>
      </trkpt>
      <trkpt lat="37.334881000" lon="-5.297060000">
        <ele>136.6</ele>
        <time>2020-10-16T12:48:20Z</time>
      </trkpt>
      <trkpt lat="37.334870000" lon="-5.297216000">
        <ele>136.5</ele>
        <time>2020-10-16T12:48:22Z</time>
      </trkpt>
      <trkpt lat="37.334856000" lon="-5.297370000">
        <ele>136.5</ele>
        <time>2020-10-16T12:48:24Z</time>
      </trkpt>
      <trkpt lat="37.334846000" lon="-5.297521000">
        <ele>136.5</ele>
        <time>2020-10-16T12:48:26Z</time>
      </trkpt>
      <trkpt lat="37.334832000" lon="-5.297665000">
        <ele>136.5</ele>
        <time>2020-10-16T12:48:28Z</time>
      </trkpt>
      <trkpt lat="37.334820000" lon="-5.297812000">
        <ele>136.6</ele>
        <time>2020-10-16T12:48:30Z</time>
      </trkpt>
      <trkpt lat="37.334803000" lon="-5.297953000">
        <ele>136.7</ele>
        <time>2020-10-16T12:48:32Z</time>
      </trkpt>
      <trkpt lat="37.334789000" lon="-5.298098000">
        <ele>137.0</ele>
        <time>2020-10-16T12:48:34Z</time>
      </trkpt>
      <trkpt lat="37.334767000" lon="-5.298235000">
        <ele>137.2</ele>
        <time>2020-10-16T12:48:36Z</time>
      </trkpt>
      <trkpt lat="37.334748000" lon="-5.298371000">
        <ele>137.3</ele>
        <time>2020-10-16T12:48:38Z</time>
      </trkpt>
      <trkpt lat="37.334718000" lon="-5.298503000">
        <ele>137.4</ele>
        <time>2020-10-16T12:48:40Z</time>
      </trkpt>
      <trkpt lat="37.334682000" lon="-5.298633000">
        <ele>137.5</ele>
        <time>2020-10-16T12:48:42Z</time>
      </trkpt>
      <trkpt lat="37.334652000" lon="-5.298759000">
        <ele>137.7</ele>
        <time>2020-10-16T12:48:44Z</time>
      </trkpt>
      <trkpt lat="37.334624000" lon="-5.298882000">
        <ele>138.0</ele>
        <time>2020-10-16T12:48:46Z</time>
      </trkpt>
      <trkpt lat="37.334598000" lon="-5.299004000">
        <ele>138.4</ele>
        <time>2020-10-16T12:48:48Z</time>
      </trkpt>
      <trkpt lat="37.334569000" lon="-5.299121000">
        <ele>138.8</ele>
        <time>2020-10-16T12:48:50Z</time>
      </trkpt>
      <trkpt lat="37.334539000" lon="-5.299241000">
        <ele>139.3</ele>
        <time>2020-10-16T12:48:52Z</time>
      </trkpt>
      <trkpt lat="37.334509000" lon="-5.299362000">
        <ele>139.8</ele>
        <time>2020-10-16T12:48:54Z</time>
      </trkpt>
      <trkpt lat="37.334476000" lon="-5.299484000">
        <ele>140.3</ele>
        <time>2020-10-16T12:48:56Z</time>
      </trkpt>
      <trkpt lat="37.334451000" lon="-5.299606000">
        <ele>140.7</ele>
        <time>2020-10-16T12:48:58Z</time>
      </trkpt>
      <trkpt lat="37.334422000" lon="-5.299723000">
        <ele>141.2</ele>
        <time>2020-10-16T12:49:00Z</time>
      </trkpt>
      <trkpt lat="37.334398000" lon="-5.299832000">
        <ele>141.5</ele>
        <time>2020-10-16T12:49:02Z</time>
      </trkpt>
      <trkpt lat="37.334374000" lon="-5.299945000">
        <ele>141.8</ele>
        <time>2020-10-16T12:49:04Z</time>
      </trkpt>
      <trkpt lat="37.334342000" lon="-5.300051000">
        <ele>142.1</ele>
        <time>2020-10-16T12:49:06Z</time>
      </trkpt>
      <trkpt lat="37.334321000" lon="-5.300157000">
        <ele>142.3</ele>
        <time>2020-10-16T12:49:08Z</time>
      </trkpt>
      <trkpt lat="37.334298000" lon="-5.300254000">
        <ele>142.4</ele>
        <time>2020-10-16T12:49:10Z</time>
      </trkpt>
      <trkpt lat="37.334263000" lon="-5.300391000">
        <ele>142.4</ele>
        <time>2020-10-16T12:49:13Z</time>
      </trkpt>
      <trkpt lat="37.334229000" lon="-5.300540000">
        <ele>142.4</ele>
        <time>2020-10-16T12:49:16Z</time>
      </trkpt>
      <trkpt lat="37.334204000" lon="-5.300645000">
        <ele>142.3</ele>
        <time>2020-10-16T12:49:18Z</time>
      </trkpt>
      <trkpt lat="37.334174000" lon="-5.300791000">
        <ele>142.2</ele>
        <time>2020-10-16T12:49:21Z</time>
      </trkpt>
      <trkpt lat="37.334155000" lon="-5.300899000">
        <ele>142.1</ele>
        <time>2020-10-16T12:49:23Z</time>
      </trkpt>
      <trkpt lat="37.334130000" lon="-5.301004000">
        <ele>142.0</ele>
        <time>2020-10-16T12:49:25Z</time>
      </trkpt>
      <trkpt lat="37.334106000" lon="-5.301117000">
        <ele>142.0</ele>
        <time>2020-10-16T12:49:27Z</time>
      </trkpt>
      <trkpt lat="37.334079000" lon="-5.301222000">
        <ele>141.9</ele>
        <time>2020-10-16T12:49:29Z</time>
      </trkpt>
      <trkpt lat="37.334051000" lon="-5.301326000">
        <ele>141.8</ele>
        <time>2020-10-16T12:49:31Z</time>
      </trkpt>
      <trkpt lat="37.334025000" lon="-5.301440000">
        <ele>141.7</ele>
        <time>2020-10-16T12:49:33Z</time>
      </trkpt>
      <trkpt lat="37.334000000" lon="-5.301552000">
        <ele>141.6</ele>
        <time>2020-10-16T12:49:35Z</time>
      </trkpt>
      <trkpt lat="37.333977000" lon="-5.301670000">
        <ele>141.5</ele>
        <time>2020-10-16T12:49:37Z</time>
      </trkpt>
      <trkpt lat="37.333947000" lon="-5.301782000">
        <ele>141.5</ele>
        <time>2020-10-16T12:49:39Z</time>
      </trkpt>
      <trkpt lat="37.333919000" lon="-5.301897000">
        <ele>141.5</ele>
        <time>2020-10-16T12:49:41Z</time>
      </trkpt>
      <trkpt lat="37.333896000" lon="-5.302016000">
        <ele>141.5</ele>
        <time>2020-10-16T12:49:43Z</time>
      </trkpt>
      <trkpt lat="37.333869000" lon="-5.302130000">
        <ele>141.5</ele>
        <time>2020-10-16T12:49:45Z</time>
      </trkpt>
      <trkpt lat="37.333846000" lon="-5.302240000">
        <ele>141.5</ele>
        <time>2020-10-16T12:49:47Z</time>
      </trkpt>
      <trkpt lat="37.333829000" lon="-5.302348000">
        <ele>141.5</ele>
        <time>2020-10-16T12:49:49Z</time>
      </trkpt>
      <trkpt lat="37.333805000" lon="-5.302461000">
        <ele>141.5</ele>
        <time>2020-10-16T12:49:51Z</time>
      </trkpt>
      <trkpt lat="37.333779000" lon="-5.302573000">
        <ele>141.6</ele>
        <time>2020-10-16T12:49:53Z</time>
      </trkpt>
      <trkpt lat="37.333750000" lon="-5.302688000">
        <ele>141.7</ele>
        <time>2020-10-16T12:49:55Z</time>
      </trkpt>
      <trkpt lat="37.333722000" lon="-5.302807000">
        <ele>141.8</ele>
        <time>2020-10-16T12:49:57Z</time>
      </trkpt>
      <trkpt lat="37.333695000" lon="-5.302921000">
        <ele>141.9</ele>
        <time>2020-10-16T12:49:59Z</time>
      </trkpt>
      <trkpt lat="37.333669000" lon="-5.303039000">
        <ele>142.0</ele>
        <time>2020-10-16T12:50:01Z</time>
      </trkpt>
      <trkpt lat="37.333645000" lon="-5.303155000">
        <ele>142.0</ele>
        <time>2020-10-16T12:50:03Z</time>
      </trkpt>
      <trkpt lat="37.333613000" lon="-5.303273000">
        <ele>142.0</ele>
        <time>2020-10-16T12:50:05Z</time>
      </trkpt>
      <trkpt lat="37.333589000" lon="-5.303393000">
        <ele>142.0</ele>
        <time>2020-10-16T12:50:07Z</time>
      </trkpt>
      <trkpt lat="37.333566000" lon="-5.303516000">
        <ele>142.0</ele>
        <time>2020-10-16T12:50:09Z</time>
      </trkpt>
      <trkpt lat="37.333536000" lon="-5.303635000">
        <ele>142.0</ele>
        <time>2020-10-16T12:50:11Z</time>
      </trkpt>
      <trkpt lat="37.333512000" lon="-5.303760000">
        <ele>142.1</ele>
        <time>2020-10-16T12:50:13Z</time>
      </trkpt>
      <trkpt lat="37.333487000" lon="-5.303878000">
        <ele>142.2</ele>
        <time>2020-10-16T12:50:15Z</time>
      </trkpt>
      <trkpt lat="37.333459000" lon="-5.303990000">
        <ele>142.3</ele>
        <time>2020-10-16T12:50:17Z</time>
      </trkpt>
      <trkpt lat="37.333434000" lon="-5.304110000">
        <ele>142.5</ele>
        <time>2020-10-16T12:50:19Z</time>
      </trkpt>
      <trkpt lat="37.333406000" lon="-5.304229000">
        <ele>142.6</ele>
        <time>2020-10-16T12:50:21Z</time>
      </trkpt>
      <trkpt lat="37.333383000" lon="-5.304346000">
        <ele>142.8</ele>
        <time>2020-10-16T12:50:23Z</time>
      </trkpt>
      <trkpt lat="37.333356000" lon="-5.304458000">
        <ele>143.0</ele>
        <time>2020-10-16T12:50:25Z</time>
      </trkpt>
      <trkpt lat="37.333332000" lon="-5.304570000">
        <ele>143.1</ele>
        <time>2020-10-16T12:50:27Z</time>
      </trkpt>
      <trkpt lat="37.333311000" lon="-5.304686000">
        <ele>143.2</ele>
        <time>2020-10-16T12:50:29Z</time>
      </trkpt>
      <trkpt lat="37.333284000" lon="-5.304796000">
        <ele>143.3</ele>
        <time>2020-10-16T12:50:31Z</time>
      </trkpt>
      <trkpt lat="37.333260000" lon="-5.304913000">
        <ele>143.3</ele>
        <time>2020-10-16T12:50:33Z</time>
      </trkpt>
      <trkpt lat="37.333234000" lon="-5.305037000">
        <ele>143.2</ele>
        <time>2020-10-16T12:50:35Z</time>
      </trkpt>
      <trkpt lat="37.333216000" lon="-5.305163000">
        <ele>143.1</ele>
        <time>2020-10-16T12:50:37Z</time>
      </trkpt>
      <trkpt lat="37.333204000" lon="-5.305294000">
        <ele>142.9</ele>
        <time>2020-10-16T12:50:39Z</time>
      </trkpt>
      <trkpt lat="37.333213000" lon="-5.305428000">
        <ele>142.6</ele>
        <time>2020-10-16T12:50:41Z</time>
      </trkpt>
      <trkpt lat="37.333228000" lon="-5.305569000">
        <ele>142.3</ele>
        <time>2020-10-16T12:50:43Z</time>
      </trkpt>
      <trkpt lat="37.333256000" lon="-5.305709000">
        <ele>141.8</ele>
        <time>2020-10-16T12:50:45Z</time>
      </trkpt>
      <trkpt lat="37.333279000" lon="-5.305850000">
        <ele>141.3</ele>
        <time>2020-10-16T12:50:47Z</time>
      </trkpt>
      <trkpt lat="37.333304000" lon="-5.305999000">
        <ele>140.8</ele>
        <time>2020-10-16T12:50:49Z</time>
      </trkpt>
      <trkpt lat="37.333330000" lon="-5.306152000">
        <ele>140.4</ele>
        <time>2020-10-16T12:50:51Z</time>
      </trkpt>
      <trkpt lat="37.333358000" lon="-5.306310000">
        <ele>139.9</ele>
        <time>2020-10-16T12:50:53Z</time>
      </trkpt>
      <trkpt lat="37.333391000" lon="-5.306467000">
        <ele>139.5</ele>
        <time>2020-10-16T12:50:55Z</time>
      </trkpt>
      <trkpt lat="37.333417000" lon="-5.306623000">
        <ele>139.2</ele>
        <time>2020-10-16T12:50:57Z</time>
      </trkpt>
      <trkpt lat="37.333443000" lon="-5.306781000">
        <ele>138.8</ele>
        <time>2020-10-16T12:50:59Z</time>
      </trkpt>
      <trkpt lat="37.333459000" lon="-5.306934000">
        <ele>138.5</ele>
        <time>2020-10-16T12:51:01Z</time>
      </trkpt>
      <trkpt lat="37.333474000" lon="-5.307092000">
        <ele>138.0</ele>
        <time>2020-10-16T12:51:03Z</time>
      </trkpt>
      <trkpt lat="37.333479000" lon="-5.307248000">
        <ele>137.6</ele>
        <time>2020-10-16T12:51:05Z</time>
      </trkpt>
      <trkpt lat="37.333485000" lon="-5.307402000">
        <ele>137.2</ele>
        <time>2020-10-16T12:51:07Z</time>
      </trkpt>
      <trkpt lat="37.333488000" lon="-5.307562000">
        <ele>136.7</ele>
        <time>2020-10-16T12:51:09Z</time>
      </trkpt>
      <trkpt lat="37.333485000" lon="-5.307723000">
        <ele>136.3</ele>
        <time>2020-10-16T12:51:11Z</time>
      </trkpt>
      <trkpt lat="37.333469000" lon="-5.307889000">
        <ele>135.7</ele>
        <time>2020-10-16T12:51:13Z</time>
      </trkpt>
      <trkpt lat="37.333434000" lon="-5.308058000">
        <ele>135.2</ele>
        <time>2020-10-16T12:51:15Z</time>
      </trkpt>
      <trkpt lat="37.333384000" lon="-5.308237000">
        <ele>134.5</ele>
        <time>2020-10-16T12:51:17Z</time>
      </trkpt>
      <trkpt lat="37.333333000" lon="-5.308432000">
        <ele>133.8</ele>
        <time>2020-10-16T12:51:19Z</time>
      </trkpt>
      <trkpt lat="37.333307000" lon="-5.308532000">
        <ele>133.0</ele>
        <time>2020-10-16T12:51:20Z</time>
      </trkpt>
      <trkpt lat="37.333283000" lon="-5.308634000">
        <ele>132.3</ele>
        <time>2020-10-16T12:51:21Z</time>
      </trkpt>
      <trkpt lat="37.333254000" lon="-5.308738000">
        <ele>131.5</ele>
        <time>2020-10-16T12:51:22Z</time>
      </trkpt>
      <trkpt lat="37.333224000" lon="-5.308846000">
        <ele>130.7</ele>
        <time>2020-10-16T12:51:23Z</time>
      </trkpt>
      <trkpt lat="37.333190000" lon="-5.308957000">
        <ele>130.1</ele>
        <time>2020-10-16T12:51:24Z</time>
      </trkpt>
      <trkpt lat="37.333159000" lon="-5.309067000">
        <ele>129.6</ele>
        <time>2020-10-16T12:51:25Z</time>
      </trkpt>
      <trkpt lat="37.333126000" lon="-5.309180000">
        <ele>129.2</ele>
        <time>2020-10-16T12:51:26Z</time>
      </trkpt>
      <trkpt lat="37.333093000" lon="-5.309295000">
        <ele>128.7</ele>
        <time>2020-10-16T12:51:27Z</time>
      </trkpt>
      <trkpt lat="37.333060000" lon="-5.309410000">
        <ele>128.3</ele>
        <time>2020-10-16T12:51:28Z</time>
      </trkpt>
      <trkpt lat="37.333025000" lon="-5.309524000">
        <ele>127.9</ele>
        <time>2020-10-16T12:51:29Z</time>
      </trkpt>
      <trkpt lat="37.332991000" lon="-5.309640000">
        <ele>127.6</ele>
        <time>2020-10-16T12:51:30Z</time>
      </trkpt>
      <trkpt lat="37.332959000" lon="-5.309762000">
        <ele>127.5</ele>
        <time>2020-10-16T12:51:31Z</time>
      </trkpt>
      <trkpt lat="37.332924000" lon="-5.309880000">
        <ele>127.2</ele>
        <time>2020-10-16T12:51:32Z</time>
      </trkpt>
      <trkpt lat="37.332889000" lon="-5.309998000">
        <ele>127.0</ele>
        <time>2020-10-16T12:51:33Z</time>
      </trkpt>
      <trkpt lat="37.332852000" lon="-5.310119000">
        <ele>126.7</ele>
        <time>2020-10-16T12:51:34Z</time>
      </trkpt>
      <trkpt lat="37.332818000" lon="-5.310241000">
        <ele>126.4</ele>
        <time>2020-10-16T12:51:35Z</time>
      </trkpt>
      <trkpt lat="37.332783000" lon="-5.310363000">
        <ele>125.8</ele>
        <time>2020-10-16T12:51:36Z</time>
      </trkpt>
      <trkpt lat="37.332750000" lon="-5.310489000">
        <ele>125.2</ele>
        <time>2020-10-16T12:51:37Z</time>
      </trkpt>
      <trkpt lat="37.332712000" lon="-5.310609000">
        <ele>124.5</ele>
        <time>2020-10-16T12:51:38Z</time>
      </trkpt>
      <trkpt lat="37.332675000" lon="-5.310734000">
        <ele>123.8</ele>
        <time>2020-10-16T12:51:39Z</time>
      </trkpt>
      <trkpt lat="37.332636000" lon="-5.310858000">
        <ele>123.1</ele>
        <time>2020-10-16T12:51:40Z</time>
      </trkpt>
      <trkpt lat="37.332602000" lon="-5.310976000">
        <ele>122.4</ele>
        <time>2020-10-16T12:51:41Z</time>
      </trkpt>
      <trkpt lat="37.332569000" lon="-5.311098000">
        <ele>121.6</ele>
        <time>2020-10-16T12:51:42Z</time>
      </trkpt>
      <trkpt lat="37.332533000" lon="-5.311221000">
        <ele>121.1</ele>
        <time>2020-10-16T12:51:43Z</time>
      </trkpt>
      <trkpt lat="37.332499000" lon="-5.311338000">
        <ele>120.5</ele>
        <time>2020-10-16T12:51:44Z</time>
      </trkpt>
      <trkpt lat="37.332463000" lon="-5.311457000">
        <ele>120.2</ele>
        <time>2020-10-16T12:51:45Z</time>
      </trkpt>
      <trkpt lat="37.332431000" lon="-5.311573000">
        <ele>120.0</ele>
        <time>2020-10-16T12:51:46Z</time>
      </trkpt>
      <trkpt lat="37.332397000" lon="-5.311691000">
        <ele>119.9</ele>
        <time>2020-10-16T12:51:47Z</time>
      </trkpt>
      <trkpt lat="37.332368000" lon="-5.311807000">
        <ele>119.9</ele>
        <time>2020-10-16T12:51:48Z</time>
      </trkpt>
      <trkpt lat="37.332335000" lon="-5.311919000">
        <ele>119.9</ele>
        <time>2020-10-16T12:51:49Z</time>
      </trkpt>
      <trkpt lat="37.332306000" lon="-5.312031000">
        <ele>120.0</ele>
        <time>2020-10-16T12:51:50Z</time>
      </trkpt>
      <trkpt lat="37.332276000" lon="-5.312143000">
        <ele>120.1</ele>
        <time>2020-10-16T12:51:51Z</time>
      </trkpt>
      <trkpt lat="37.332248000" lon="-5.312253000">
        <ele>120.2</ele>
        <time>2020-10-16T12:51:52Z</time>
      </trkpt>
      <trkpt lat="37.332217000" lon="-5.312360000">
        <ele>120.3</ele>
        <time>2020-10-16T12:51:53Z</time>
      </trkpt>
      <trkpt lat="37.332191000" lon="-5.312468000">
        <ele>120.2</ele>
        <time>2020-10-16T12:51:54Z</time>
      </trkpt>
      <trkpt lat="37.332159000" lon="-5.312576000">
        <ele>120.1</ele>
        <time>2020-10-16T12:51:55Z</time>
      </trkpt>
      <trkpt lat="37.332131000" lon="-5.312687000">
        <ele>120.0</ele>
        <time>2020-10-16T12:51:56Z</time>
      </trkpt>
      <trkpt lat="37.332100000" lon="-5.312796000">
        <ele>119.7</ele>
        <time>2020-10-16T12:51:57Z</time>
      </trkpt>
      <trkpt lat="37.332071000" lon="-5.312901000">
        <ele>119.5</ele>
        <time>2020-10-16T12:51:58Z</time>
      </trkpt>
      <trkpt lat="37.332042000" lon="-5.313001000">
        <ele>119.1</ele>
        <time>2020-10-16T12:51:59Z</time>
      </trkpt>
      <trkpt lat="37.332015000" lon="-5.313105000">
        <ele>118.6</ele>
        <time>2020-10-16T12:52:00Z</time>
      </trkpt>
      <trkpt lat="37.331985000" lon="-5.313208000">
        <ele>118.2</ele>
        <time>2020-10-16T12:52:01Z</time>
      </trkpt>
      <trkpt lat="37.331956000" lon="-5.313304000">
        <ele>117.5</ele>
        <time>2020-10-16T12:52:02Z</time>
      </trkpt>
      <trkpt lat="37.331926000" lon="-5.313405000">
        <ele>116.8</ele>
        <time>2020-10-16T12:52:03Z</time>
      </trkpt>
      <trkpt lat="37.331867000" lon="-5.313598000">
        <ele>116.1</ele>
        <time>2020-10-16T12:52:05Z</time>
      </trkpt>
      <trkpt lat="37.331813000" lon="-5.313789000">
        <ele>115.5</ele>
        <time>2020-10-16T12:52:07Z</time>
      </trkpt>
      <trkpt lat="37.331787000" lon="-5.313887000">
        <ele>114.8</ele>
        <time>2020-10-16T12:52:08Z</time>
      </trkpt>
      <trkpt lat="37.331732000" lon="-5.314075000">
        <ele>114.3</ele>
        <time>2020-10-16T12:52:10Z</time>
      </trkpt>
      <trkpt lat="37.331680000" lon="-5.314249000">
        <ele>113.8</ele>
        <time>2020-10-16T12:52:12Z</time>
      </trkpt>
      <trkpt lat="37.331632000" lon="-5.314423000">
        <ele>113.3</ele>
        <time>2020-10-16T12:52:14Z</time>
      </trkpt>
      <trkpt lat="37.331588000" lon="-5.314585000">
        <ele>112.8</ele>
        <time>2020-10-16T12:52:16Z</time>
      </trkpt>
      <trkpt lat="37.331540000" lon="-5.314743000">
        <ele>112.5</ele>
        <time>2020-10-16T12:52:18Z</time>
      </trkpt>
      <trkpt lat="37.331499000" lon="-5.314900000">
        <ele>112.3</ele>
        <time>2020-10-16T12:52:20Z</time>
      </trkpt>
      <trkpt lat="37.331452000" lon="-5.315047000">
        <ele>112.2</ele>
        <time>2020-10-16T12:52:22Z</time>
      </trkpt>
      <trkpt lat="37.331413000" lon="-5.315198000">
        <ele>112.1</ele>
        <time>2020-10-16T12:52:24Z</time>
      </trkpt>
      <trkpt lat="37.331378000" lon="-5.315345000">
        <ele>112.0</ele>
        <time>2020-10-16T12:52:26Z</time>
      </trkpt>
      <trkpt lat="37.331341000" lon="-5.315493000">
        <ele>111.9</ele>
        <time>2020-10-16T12:52:28Z</time>
      </trkpt>
      <trkpt lat="37.331307000" lon="-5.315634000">
        <ele>111.7</ele>
        <time>2020-10-16T12:52:30Z</time>
      </trkpt>
      <trkpt lat="37.331273000" lon="-5.315772000">
        <ele>111.5</ele>
        <time>2020-10-16T12:52:32Z</time>
      </trkpt>
      <trkpt lat="37.331233000" lon="-5.315905000">
        <ele>111.2</ele>
        <time>2020-10-16T12:52:34Z</time>
      </trkpt>
      <trkpt lat="37.331202000" lon="-5.316039000">
        <ele>111.0</ele>
        <time>2020-10-16T12:52:36Z</time>
      </trkpt>
      <trkpt lat="37.331172000" lon="-5.316176000">
        <ele>110.9</ele>
        <time>2020-10-16T12:52:38Z</time>
      </trkpt>
      <trkpt lat="37.331141000" lon="-5.316315000">
        <ele>110.8</ele>
        <time>2020-10-16T12:52:40Z</time>
      </trkpt>
      <trkpt lat="37.331108000" lon="-5.316447000">
        <ele>110.8</ele>
        <time>2020-10-16T12:52:42Z</time>
      </trkpt>
      <trkpt lat="37.331074000" lon="-5.316574000">
        <ele>110.9</ele>
        <time>2020-10-16T12:52:44Z</time>
      </trkpt>
      <trkpt lat="37.331045000" lon="-5.316697000">
        <ele>111.2</ele>
        <time>2020-10-16T12:52:46Z</time>
      </trkpt>
      <trkpt lat="37.331014000" lon="-5.316819000">
        <ele>111.5</ele>
        <time>2020-10-16T12:52:48Z</time>
      </trkpt>
      <trkpt lat="37.330988000" lon="-5.316939000">
        <ele>111.7</ele>
        <time>2020-10-16T12:52:50Z</time>
      </trkpt>
      <trkpt lat="37.330961000" lon="-5.317064000">
        <ele>112.1</ele>
        <time>2020-10-16T12:52:52Z</time>
      </trkpt>
      <trkpt lat="37.330931000" lon="-5.317178000">
        <ele>112.5</ele>
        <time>2020-10-16T12:52:54Z</time>
      </trkpt>
      <trkpt lat="37.330902000" lon="-5.317295000">
        <ele>112.8</ele>
        <time>2020-10-16T12:52:56Z</time>
      </trkpt>
      <trkpt lat="37.330877000" lon="-5.317413000">
        <ele>113.2</ele>
        <time>2020-10-16T12:52:58Z</time>
      </trkpt>
      <trkpt lat="37.330848000" lon="-5.317527000">
        <ele>113.4</ele>
        <time>2020-10-16T12:53:00Z</time>
      </trkpt>
      <trkpt lat="37.330816000" lon="-5.317639000">
        <ele>113.5</ele>
        <time>2020-10-16T12:53:02Z</time>
      </trkpt>
      <trkpt lat="37.330781000" lon="-5.317756000">
        <ele>113.5</ele>
        <time>2020-10-16T12:53:04Z</time>
      </trkpt>
      <trkpt lat="37.330749000" lon="-5.317874000">
        <ele>113.3</ele>
        <time>2020-10-16T12:53:06Z</time>
      </trkpt>
      <trkpt lat="37.330718000" lon="-5.317985000">
        <ele>112.9</ele>
        <time>2020-10-16T12:53:08Z</time>
      </trkpt>
      <trkpt lat="37.330684000" lon="-5.318100000">
        <ele>112.5</ele>
        <time>2020-10-16T12:53:10Z</time>
      </trkpt>
      <trkpt lat="37.330656000" lon="-5.318222000">
        <ele>112.1</ele>
        <time>2020-10-16T12:53:12Z</time>
      </trkpt>
      <trkpt lat="37.330628000" lon="-5.318348000">
        <ele>111.5</ele>
        <time>2020-10-16T12:53:14Z</time>
      </trkpt>
      <trkpt lat="37.330597000" lon="-5.318469000">
        <ele>111.0</ele>
        <time>2020-10-16T12:53:17Z</time>
      </trkpt>
      <trkpt lat="37.330569000" lon="-5.318591000">
        <ele>110.5</ele>
        <time>2020-10-16T12:53:18Z</time>
      </trkpt>
      <trkpt lat="37.330538000" lon="-5.318717000">
        <ele>110.0</ele>
        <time>2020-10-16T12:53:20Z</time>
      </trkpt>
      <trkpt lat="37.330500000" lon="-5.318844000">
        <ele>109.7</ele>
        <time>2020-10-16T12:53:22Z</time>
      </trkpt>
      <trkpt lat="37.330470000" lon="-5.318978000">
        <ele>109.5</ele>
        <time>2020-10-16T12:53:24Z</time>
      </trkpt>
      <trkpt lat="37.330436000" lon="-5.319113000">
        <ele>109.2</ele>
        <time>2020-10-16T12:53:26Z</time>
      </trkpt>
      <trkpt lat="37.330403000" lon="-5.319249000">
        <ele>109.1</ele>
        <time>2020-10-16T12:53:28Z</time>
      </trkpt>
      <trkpt lat="37.330362000" lon="-5.319383000">
        <ele>109.1</ele>
        <time>2020-10-16T12:53:30Z</time>
      </trkpt>
      <trkpt lat="37.330325000" lon="-5.319523000">
        <ele>109.1</ele>
        <time>2020-10-16T12:53:32Z</time>
      </trkpt>
      <trkpt lat="37.330288000" lon="-5.319668000">
        <ele>109.2</ele>
        <time>2020-10-16T12:53:34Z</time>
      </trkpt>
      <trkpt lat="37.330256000" lon="-5.319811000">
        <ele>109.4</ele>
        <time>2020-10-16T12:53:36Z</time>
      </trkpt>
      <trkpt lat="37.330222000" lon="-5.319951000">
        <ele>109.5</ele>
        <time>2020-10-16T12:53:38Z</time>
      </trkpt>
      <trkpt lat="37.330189000" lon="-5.320092000">
        <ele>109.7</ele>
        <time>2020-10-16T12:53:40Z</time>
      </trkpt>
      <trkpt lat="37.330155000" lon="-5.320240000">
        <ele>109.8</ele>
        <time>2020-10-16T12:53:42Z</time>
      </trkpt>
      <trkpt lat="37.330118000" lon="-5.320386000">
        <ele>109.7</ele>
        <time>2020-10-16T12:53:44Z</time>
      </trkpt>
      <trkpt lat="37.330079000" lon="-5.320527000">
        <ele>109.7</ele>
        <time>2020-10-16T12:53:46Z</time>
      </trkpt>
      <trkpt lat="37.330044000" lon="-5.320667000">
        <ele>109.7</ele>
        <time>2020-10-16T12:53:48Z</time>
      </trkpt>
      <trkpt lat="37.330010000" lon="-5.320797000">
        <ele>109.5</ele>
        <time>2020-10-16T12:53:50Z</time>
      </trkpt>
      <trkpt lat="37.329982000" lon="-5.320928000">
        <ele>109.4</ele>
        <time>2020-10-16T12:53:52Z</time>
      </trkpt>
      <trkpt lat="37.329951000" lon="-5.321056000">
        <ele>109.1</ele>
        <time>2020-10-16T12:53:54Z</time>
      </trkpt>
      <trkpt lat="37.329922000" lon="-5.321179000">
        <ele>108.8</ele>
        <time>2020-10-16T12:53:56Z</time>
      </trkpt>
      <trkpt lat="37.329899000" lon="-5.321308000">
        <ele>108.5</ele>
        <time>2020-10-16T12:53:58Z</time>
      </trkpt>
      <trkpt lat="37.329865000" lon="-5.321435000">
        <ele>108.1</ele>
        <time>2020-10-16T12:54:00Z</time>
      </trkpt>
      <trkpt lat="37.329830000" lon="-5.321564000">
        <ele>107.8</ele>
        <time>2020-10-16T12:54:02Z</time>
      </trkpt>
      <trkpt lat="37.329806000" lon="-5.321698000">
        <ele>107.6</ele>
        <time>2020-10-16T12:54:04Z</time>
      </trkpt>
      <trkpt lat="37.329776000" lon="-5.321819000">
        <ele>107.6</ele>
        <time>2020-10-16T12:54:06Z</time>
      </trkpt>
      <trkpt lat="37.329740000" lon="-5.321939000">
        <ele>107.7</ele>
        <time>2020-10-16T12:54:08Z</time>
      </trkpt>
      <trkpt lat="37.329714000" lon="-5.322068000">
        <ele>107.8</ele>
        <time>2020-10-16T12:54:10Z</time>
      </trkpt>
      <trkpt lat="37.329687000" lon="-5.322197000">
        <ele>108.1</ele>
        <time>2020-10-16T12:54:12Z</time>
      </trkpt>
      <trkpt lat="37.329652000" lon="-5.322323000">
        <ele>108.4</ele>
        <time>2020-10-16T12:54:14Z</time>
      </trkpt>
      <trkpt lat="37.329621000" lon="-5.322446000">
        <ele>108.7</ele>
        <time>2020-10-16T12:54:16Z</time>
      </trkpt>
      <trkpt lat="37.329589000" lon="-5.322565000">
        <ele>109.1</ele>
        <time>2020-10-16T12:54:18Z</time>
      </trkpt>
      <trkpt lat="37.329564000" lon="-5.322675000">
        <ele>109.6</ele>
        <time>2020-10-16T12:54:20Z</time>
      </trkpt>
      <trkpt lat="37.329536000" lon="-5.322777000">
        <ele>110.2</ele>
        <time>2020-10-16T12:54:22Z</time>
      </trkpt>
      <trkpt lat="37.329501000" lon="-5.322924000">
        <ele>110.6</ele>
        <time>2020-10-16T12:54:25Z</time>
      </trkpt>
      <trkpt lat="37.329479000" lon="-5.323025000">
        <ele>111.0</ele>
        <time>2020-10-16T12:54:27Z</time>
      </trkpt>
      <trkpt lat="37.329461000" lon="-5.323127000">
        <ele>111.3</ele>
        <time>2020-10-16T12:54:29Z</time>
      </trkpt>
      <trkpt lat="37.329427000" lon="-5.323274000">
        <ele>111.5</ele>
        <time>2020-10-16T12:54:32Z</time>
      </trkpt>
      <trkpt lat="37.329405000" lon="-5.323373000">
        <ele>111.6</ele>
        <time>2020-10-16T12:54:34Z</time>
      </trkpt>
      <trkpt lat="37.329377000" lon="-5.323514000">
        <ele>111.8</ele>
        <time>2020-10-16T12:54:37Z</time>
      </trkpt>
      <trkpt lat="37.329349000" lon="-5.323641000">
        <ele>112.1</ele>
        <time>2020-10-16T12:54:40Z</time>
      </trkpt>
      <trkpt lat="37.329316000" lon="-5.323768000">
        <ele>112.5</ele>
        <time>2020-10-16T12:54:43Z</time>
      </trkpt>
      <trkpt lat="37.329286000" lon="-5.323898000">
        <ele>112.9</ele>
        <time>2020-10-16T12:54:46Z</time>
      </trkpt>
      <trkpt lat="37.329254000" lon="-5.324032000">
        <ele>113.5</ele>
        <time>2020-10-16T12:54:49Z</time>
      </trkpt>
      <trkpt lat="37.329225000" lon="-5.324163000">
        <ele>114.0</ele>
        <time>2020-10-16T12:54:52Z</time>
      </trkpt>
      <trkpt lat="37.329193000" lon="-5.324302000">
        <ele>114.6</ele>
        <time>2020-10-16T12:54:55Z</time>
      </trkpt>
      <trkpt lat="37.329162000" lon="-5.324429000">
        <ele>115.3</ele>
        <time>2020-10-16T12:54:58Z</time>
      </trkpt>
      <trkpt lat="37.329133000" lon="-5.324551000">
        <ele>116.0</ele>
        <time>2020-10-16T12:55:01Z</time>
      </trkpt>
      <trkpt lat="37.329106000" lon="-5.324674000">
        <ele>116.7</ele>
        <time>2020-10-16T12:55:04Z</time>
      </trkpt>
      <trkpt lat="37.329083000" lon="-5.324798000">
        <ele>117.5</ele>
        <time>2020-10-16T12:55:07Z</time>
      </trkpt>
      <trkpt lat="37.329059000" lon="-5.324916000">
        <ele>118.1</ele>
        <time>2020-10-16T12:55:10Z</time>
      </trkpt>
      <trkpt lat="37.329032000" lon="-5.325041000">
        <ele>118.6</ele>
        <time>2020-10-16T12:55:13Z</time>
      </trkpt>
      <trkpt lat="37.329002000" lon="-5.325168000">
        <ele>119.1</ele>
        <time>2020-10-16T12:55:16Z</time>
      </trkpt>
      <trkpt lat="37.328976000" lon="-5.325294000">
        <ele>119.5</ele>
        <time>2020-10-16T12:55:19Z</time>
      </trkpt>
      <trkpt lat="37.328947000" lon="-5.325421000">
        <ele>119.5</ele>
        <time>2020-10-16T12:55:22Z</time>
      </trkpt>
      <trkpt lat="37.328916000" lon="-5.325543000">
        <ele>119.6</ele>
        <time>2020-10-16T12:55:25Z</time>
      </trkpt>
      <trkpt lat="37.328886000" lon="-5.325659000">
        <ele>119.6</ele>
        <time>2020-10-16T12:55:28Z</time>
      </trkpt>
      <trkpt lat="37.328858000" lon="-5.325779000">
        <ele>119.6</ele>
        <time>2020-10-16T12:55:31Z</time>
      </trkpt>
      <trkpt lat="37.328834000" lon="-5.325904000">
        <ele>119.5</ele>
        <time>2020-10-16T12:55:34Z</time>
      </trkpt>
      <trkpt lat="37.328806000" lon="-5.326032000">
        <ele>119.3</ele>
        <time>2020-10-16T12:55:37Z</time>
      </trkpt>
      <trkpt lat="37.328775000" lon="-5.326170000">
        <ele>119.0</ele>
        <time>2020-10-16T12:55:40Z</time>
      </trkpt>
      <trkpt lat="37.328755000" lon="-5.326269000">
        <ele>118.7</ele>
        <time>2020-10-16T12:55:42Z</time>
      </trkpt>
      <trkpt lat="37.328735000" lon="-5.326375000">
        <ele>118.4</ele>
        <time>2020-10-16T12:55:44Z</time>
      </trkpt>
      <trkpt lat="37.328708000" lon="-5.326489000">
        <ele>117.9</ele>
        <time>2020-10-16T12:55:46Z</time>
      </trkpt>
      <trkpt lat="37.328682000" lon="-5.326607000">
        <ele>117.5</ele>
        <time>2020-10-16T12:55:48Z</time>
      </trkpt>
      <trkpt lat="37.328656000" lon="-5.326724000">
        <ele>117.1</ele>
        <time>2020-10-16T12:55:50Z</time>
      </trkpt>
      <trkpt lat="37.328624000" lon="-5.326850000">
        <ele>116.7</ele>
        <time>2020-10-16T12:55:52Z</time>
      </trkpt>
      <trkpt lat="37.328594000" lon="-5.326983000">
        <ele>116.5</ele>
        <time>2020-10-16T12:55:54Z</time>
      </trkpt>
      <trkpt lat="37.328566000" lon="-5.327118000">
        <ele>116.2</ele>
        <time>2020-10-16T12:55:56Z</time>
      </trkpt>
      <trkpt lat="37.328541000" lon="-5.327252000">
        <ele>116.1</ele>
        <time>2020-10-16T12:55:58Z</time>
      </trkpt>
      <trkpt lat="37.328517000" lon="-5.327386000">
        <ele>116.0</ele>
        <time>2020-10-16T12:56:00Z</time>
      </trkpt>
      <trkpt lat="37.328488000" lon="-5.327523000">
        <ele>115.9</ele>
        <time>2020-10-16T12:56:02Z</time>
      </trkpt>
      <trkpt lat="37.328457000" lon="-5.327663000">
        <ele>115.8</ele>
        <time>2020-10-16T12:56:04Z</time>
      </trkpt>
      <trkpt lat="37.328426000" lon="-5.327802000">
        <ele>115.7</ele>
        <time>2020-10-16T12:56:06Z</time>
      </trkpt>
      <trkpt lat="37.328400000" lon="-5.327936000">
        <ele>115.6</ele>
        <time>2020-10-16T12:56:08Z</time>
      </trkpt>
      <trkpt lat="37.328366000" lon="-5.328072000">
        <ele>115.5</ele>
        <time>2020-10-16T12:56:10Z</time>
      </trkpt>
      <trkpt lat="37.328334000" lon="-5.328206000">
        <ele>115.3</ele>
        <time>2020-10-16T12:56:12Z</time>
      </trkpt>
      <trkpt lat="37.328306000" lon="-5.328342000">
        <ele>115.1</ele>
        <time>2020-10-16T12:56:14Z</time>
      </trkpt>
      <trkpt lat="37.328272000" lon="-5.328480000">
        <ele>114.9</ele>
        <time>2020-10-16T12:56:16Z</time>
      </trkpt>
      <trkpt lat="37.328237000" lon="-5.328619000">
        <ele>114.7</ele>
        <time>2020-10-16T12:56:18Z</time>
      </trkpt>
      <trkpt lat="37.328208000" lon="-5.328757000">
        <ele>114.5</ele>
        <time>2020-10-16T12:56:20Z</time>
      </trkpt>
      <trkpt lat="37.328175000" lon="-5.328897000">
        <ele>114.2</ele>
        <time>2020-10-16T12:56:22Z</time>
      </trkpt>
      <trkpt lat="37.328144000" lon="-5.329036000">
        <ele>114.0</ele>
        <time>2020-10-16T12:56:24Z</time>
      </trkpt>
      <trkpt lat="37.328110000" lon="-5.329177000">
        <ele>113.8</ele>
        <time>2020-10-16T12:56:26Z</time>
      </trkpt>
      <trkpt lat="37.328079000" lon="-5.329319000">
        <ele>113.6</ele>
        <time>2020-10-16T12:56:28Z</time>
      </trkpt>
      <trkpt lat="37.328049000" lon="-5.329461000">
        <ele>113.5</ele>
        <time>2020-10-16T12:56:30Z</time>
      </trkpt>
      <trkpt lat="37.328022000" lon="-5.329607000">
        <ele>113.5</ele>
        <time>2020-10-16T12:56:32Z</time>
      </trkpt>
      <trkpt lat="37.327995000" lon="-5.329746000">
        <ele>113.5</ele>
        <time>2020-10-16T12:56:34Z</time>
      </trkpt>
      <trkpt lat="37.327962000" lon="-5.329888000">
        <ele>113.6</ele>
        <time>2020-10-16T12:56:36Z</time>
      </trkpt>
      <trkpt lat="37.327934000" lon="-5.330027000">
        <ele>113.5</ele>
        <time>2020-10-16T12:56:38Z</time>
      </trkpt>
      <trkpt lat="37.327910000" lon="-5.330160000">
        <ele>113.5</ele>
        <time>2020-10-16T12:56:40Z</time>
      </trkpt>
      <trkpt lat="37.327880000" lon="-5.330298000">
        <ele>113.4</ele>
        <time>2020-10-16T12:56:42Z</time>
      </trkpt>
      <trkpt lat="37.327853000" lon="-5.330432000">
        <ele>113.3</ele>
        <time>2020-10-16T12:56:44Z</time>
      </trkpt>
      <trkpt lat="37.327824000" lon="-5.330566000">
        <ele>113.2</ele>
        <time>2020-10-16T12:56:46Z</time>
      </trkpt>
      <trkpt lat="37.327796000" lon="-5.330707000">
        <ele>113.0</ele>
        <time>2020-10-16T12:56:48Z</time>
      </trkpt>
      <trkpt lat="37.327767000" lon="-5.330840000">
        <ele>113.0</ele>
        <time>2020-10-16T12:56:50Z</time>
      </trkpt>
      <trkpt lat="37.327736000" lon="-5.330973000">
        <ele>113.1</ele>
        <time>2020-10-16T12:56:52Z</time>
      </trkpt>
      <trkpt lat="37.327709000" lon="-5.331106000">
        <ele>113.2</ele>
        <time>2020-10-16T12:56:54Z</time>
      </trkpt>
      <trkpt lat="37.327682000" lon="-5.331241000">
        <ele>113.3</ele>
        <time>2020-10-16T12:56:56Z</time>
      </trkpt>
      <trkpt lat="37.327653000" lon="-5.331372000">
        <ele>113.3</ele>
        <time>2020-10-16T12:56:58Z</time>
      </trkpt>
      <trkpt lat="37.327620000" lon="-5.331506000">
        <ele>113.4</ele>
        <time>2020-10-16T12:57:00Z</time>
      </trkpt>
      <trkpt lat="37.327596000" lon="-5.331637000">
        <ele>113.4</ele>
        <time>2020-10-16T12:57:02Z</time>
      </trkpt>
      <trkpt lat="37.327570000" lon="-5.331769000">
        <ele>113.3</ele>
        <time>2020-10-16T12:57:04Z</time>
      </trkpt>
      <trkpt lat="37.327542000" lon="-5.331900000">
        <ele>113.2</ele>
        <time>2020-10-16T12:57:06Z</time>
      </trkpt>
      <trkpt lat="37.327516000" lon="-5.332035000">
        <ele>113.0</ele>
        <time>2020-10-16T12:57:08Z</time>
      </trkpt>
      <trkpt lat="37.327490000" lon="-5.332169000">
        <ele>112.8</ele>
        <time>2020-10-16T12:57:10Z</time>
      </trkpt>
      <trkpt lat="37.327462000" lon="-5.332303000">
        <ele>112.5</ele>
        <time>2020-10-16T12:57:12Z</time>
      </trkpt>
      <trkpt lat="37.327432000" lon="-5.332431000">
        <ele>112.2</ele>
        <time>2020-10-16T12:57:14Z</time>
      </trkpt>
      <trkpt lat="37.327404000" lon="-5.332555000">
        <ele>111.9</ele>
        <time>2020-10-16T12:57:16Z</time>
      </trkpt>
      <trkpt lat="37.327379000" lon="-5.332677000">
        <ele>111.7</ele>
        <time>2020-10-16T12:57:18Z</time>
      </trkpt>
      <trkpt lat="37.327352000" lon="-5.332796000">
        <ele>111.5</ele>
        <time>2020-10-16T12:57:20Z</time>
      </trkpt>
      <trkpt lat="37.327328000" lon="-5.332915000">
        <ele>111.4</ele>
        <time>2020-10-16T12:57:22Z</time>
      </trkpt>
      <trkpt lat="37.327305000" lon="-5.333036000">
        <ele>111.3</ele>
        <time>2020-10-16T12:57:24Z</time>
      </trkpt>
      <trkpt lat="37.327278000" lon="-5.333155000">
        <ele>111.3</ele>
        <time>2020-10-16T12:57:26Z</time>
      </trkpt>
      <trkpt lat="37.327251000" lon="-5.333268000">
        <ele>111.2</ele>
        <time>2020-10-16T12:57:28Z</time>
      </trkpt>
      <trkpt lat="37.327221000" lon="-5.333386000">
        <ele>111.2</ele>
        <time>2020-10-16T12:57:30Z</time>
      </trkpt>
      <trkpt lat="37.327195000" lon="-5.333509000">
        <ele>111.4</ele>
        <time>2020-10-16T12:57:32Z</time>
      </trkpt>
      <trkpt lat="37.327167000" lon="-5.333627000">
        <ele>111.5</ele>
        <time>2020-10-16T12:57:34Z</time>
      </trkpt>
      <trkpt lat="37.327141000" lon="-5.333754000">
        <ele>111.7</ele>
        <time>2020-10-16T12:57:36Z</time>
      </trkpt>
      <trkpt lat="37.327111000" lon="-5.333878000">
        <ele>111.8</ele>
        <time>2020-10-16T12:57:38Z</time>
      </trkpt>
      <trkpt lat="37.327092000" lon="-5.333995000">
        <ele>111.8</ele>
        <time>2020-10-16T12:57:40Z</time>
      </trkpt>
      <trkpt lat="37.327068000" lon="-5.334110000">
        <ele>111.8</ele>
        <time>2020-10-16T12:57:42Z</time>
      </trkpt>
      <trkpt lat="37.327045000" lon="-5.334222000">
        <ele>111.8</ele>
        <time>2020-10-16T12:57:44Z</time>
      </trkpt>
      <trkpt lat="37.327023000" lon="-5.334330000">
        <ele>111.9</ele>
        <time>2020-10-16T12:57:46Z</time>
      </trkpt>
      <trkpt lat="37.327000000" lon="-5.334443000">
        <ele>112.0</ele>
        <time>2020-10-16T12:57:48Z</time>
      </trkpt>
      <trkpt lat="37.326977000" lon="-5.334554000">
        <ele>112.2</ele>
        <time>2020-10-16T12:57:50Z</time>
      </trkpt>
      <trkpt lat="37.326952000" lon="-5.334665000">
        <ele>112.4</ele>
        <time>2020-10-16T12:57:52Z</time>
      </trkpt>
      <trkpt lat="37.326930000" lon="-5.334770000">
        <ele>112.4</ele>
        <time>2020-10-16T12:57:54Z</time>
      </trkpt>
      <trkpt lat="37.326908000" lon="-5.334880000">
        <ele>112.5</ele>
        <time>2020-10-16T12:57:56Z</time>
      </trkpt>
      <trkpt lat="37.326883000" lon="-5.334981000">
        <ele>112.5</ele>
        <time>2020-10-16T12:57:58Z</time>
      </trkpt>
      <trkpt lat="37.326859000" lon="-5.335089000">
        <ele>112.6</ele>
        <time>2020-10-16T12:58:00Z</time>
      </trkpt>
      <trkpt lat="37.326839000" lon="-5.335195000">
        <ele>112.7</ele>
        <time>2020-10-16T12:58:02Z</time>
      </trkpt>
      <trkpt lat="37.326815000" lon="-5.335299000">
        <ele>112.8</ele>
        <time>2020-10-16T12:58:04Z</time>
      </trkpt>
      <trkpt lat="37.326795000" lon="-5.335403000">
        <ele>112.9</ele>
        <time>2020-10-16T12:58:06Z</time>
      </trkpt>
      <trkpt lat="37.326775000" lon="-5.335506000">
        <ele>112.8</ele>
        <time>2020-10-16T12:58:08Z</time>
      </trkpt>
      <trkpt lat="37.326754000" lon="-5.335609000">
        <ele>112.7</ele>
        <time>2020-10-16T12:58:10Z</time>
      </trkpt>
      <trkpt lat="37.326728000" lon="-5.335711000">
        <ele>112.6</ele>
        <time>2020-10-16T12:58:12Z</time>
      </trkpt>
      <trkpt lat="37.326704000" lon="-5.335815000">
        <ele>112.5</ele>
        <time>2020-10-16T12:58:14Z</time>
      </trkpt>
      <trkpt lat="37.326682000" lon="-5.335920000">
        <ele>112.5</ele>
        <time>2020-10-16T12:58:16Z</time>
      </trkpt>
      <trkpt lat="37.326661000" lon="-5.336024000">
        <ele>112.5</ele>
        <time>2020-10-16T12:58:18Z</time>
      </trkpt>
      <trkpt lat="37.326638000" lon="-5.336129000">
        <ele>112.5</ele>
        <time>2020-10-16T12:58:20Z</time>
      </trkpt>
      <trkpt lat="37.326615000" lon="-5.336237000">
        <ele>112.5</ele>
        <time>2020-10-16T12:58:22Z</time>
      </trkpt>
      <trkpt lat="37.326591000" lon="-5.336344000">
        <ele>112.5</ele>
        <time>2020-10-16T12:58:24Z</time>
      </trkpt>
      <trkpt lat="37.326567000" lon="-5.336451000">
        <ele>112.4</ele>
        <time>2020-10-16T12:58:26Z</time>
      </trkpt>
      <trkpt lat="37.326548000" lon="-5.336562000">
        <ele>112.3</ele>
        <time>2020-10-16T12:58:28Z</time>
      </trkpt>
      <trkpt lat="37.326525000" lon="-5.336669000">
        <ele>112.3</ele>
        <time>2020-10-16T12:58:30Z</time>
      </trkpt>
      <trkpt lat="37.326498000" lon="-5.336774000">
        <ele>112.3</ele>
        <time>2020-10-16T12:58:32Z</time>
      </trkpt>
      <trkpt lat="37.326475000" lon="-5.336883000">
        <ele>112.2</ele>
        <time>2020-10-16T12:58:34Z</time>
      </trkpt>
      <trkpt lat="37.326451000" lon="-5.336996000">
        <ele>112.1</ele>
        <time>2020-10-16T12:58:36Z</time>
      </trkpt>
      <trkpt lat="37.326425000" lon="-5.337109000">
        <ele>112.0</ele>
        <time>2020-10-16T12:58:38Z</time>
      </trkpt>
      <trkpt lat="37.326402000" lon="-5.337224000">
        <ele>111.9</ele>
        <time>2020-10-16T12:58:40Z</time>
      </trkpt>
      <trkpt lat="37.326381000" lon="-5.337339000">
        <ele>111.7</ele>
        <time>2020-10-16T12:58:42Z</time>
      </trkpt>
      <trkpt lat="37.326354000" lon="-5.337455000">
        <ele>111.6</ele>
        <time>2020-10-16T12:58:44Z</time>
      </trkpt>
      <trkpt lat="37.326325000" lon="-5.337571000">
        <ele>111.5</ele>
        <time>2020-10-16T12:58:46Z</time>
      </trkpt>
      <trkpt lat="37.326301000" lon="-5.337681000">
        <ele>111.5</ele>
        <time>2020-10-16T12:58:48Z</time>
      </trkpt>
      <trkpt lat="37.326277000" lon="-5.337793000">
        <ele>111.5</ele>
        <time>2020-10-16T12:58:50Z</time>
      </trkpt>
      <trkpt lat="37.326257000" lon="-5.337908000">
        <ele>111.5</ele>
        <time>2020-10-16T12:58:52Z</time>
      </trkpt>
      <trkpt lat="37.326234000" lon="-5.338021000">
        <ele>111.5</ele>
        <time>2020-10-16T12:58:54Z</time>
      </trkpt>
      <trkpt lat="37.326207000" lon="-5.338134000">
        <ele>111.6</ele>
        <time>2020-10-16T12:58:56Z</time>
      </trkpt>
      <trkpt lat="37.326180000" lon="-5.338245000">
        <ele>111.7</ele>
        <time>2020-10-16T12:58:58Z</time>
      </trkpt>
      <trkpt lat="37.326155000" lon="-5.338362000">
        <ele>111.8</ele>
        <time>2020-10-16T12:59:00Z</time>
      </trkpt>
      <trkpt lat="37.326134000" lon="-5.338478000">
        <ele>111.9</ele>
        <time>2020-10-16T12:59:02Z</time>
      </trkpt>
      <trkpt lat="37.326114000" lon="-5.338599000">
        <ele>112.0</ele>
        <time>2020-10-16T12:59:04Z</time>
      </trkpt>
      <trkpt lat="37.326087000" lon="-5.338719000">
        <ele>112.0</ele>
        <time>2020-10-16T12:59:06Z</time>
      </trkpt>
      <trkpt lat="37.326058000" lon="-5.338842000">
        <ele>112.0</ele>
        <time>2020-10-16T12:59:08Z</time>
      </trkpt>
      <trkpt lat="37.326031000" lon="-5.338961000">
        <ele>112.0</ele>
        <time>2020-10-16T12:59:10Z</time>
      </trkpt>
      <trkpt lat="37.326003000" lon="-5.339080000">
        <ele>112.0</ele>
        <time>2020-10-16T12:59:12Z</time>
      </trkpt>
      <trkpt lat="37.325979000" lon="-5.339201000">
        <ele>112.0</ele>
        <time>2020-10-16T12:59:14Z</time>
      </trkpt>
      <trkpt lat="37.325955000" lon="-5.339319000">
        <ele>111.9</ele>
        <time>2020-10-16T12:59:16Z</time>
      </trkpt>
      <trkpt lat="37.325929000" lon="-5.339440000">
        <ele>111.8</ele>
        <time>2020-10-16T12:59:18Z</time>
      </trkpt>
      <trkpt lat="37.325905000" lon="-5.339568000">
        <ele>111.7</ele>
        <time>2020-10-16T12:59:20Z</time>
      </trkpt>
      <trkpt lat="37.325879000" lon="-5.339695000">
        <ele>111.6</ele>
        <time>2020-10-16T12:59:22Z</time>
      </trkpt>
      <trkpt lat="37.325851000" lon="-5.339817000">
        <ele>111.5</ele>
        <time>2020-10-16T12:59:24Z</time>
      </trkpt>
      <trkpt lat="37.325826000" lon="-5.339937000">
        <ele>111.5</ele>
        <time>2020-10-16T12:59:26Z</time>
      </trkpt>
      <trkpt lat="37.325799000" lon="-5.340060000">
        <ele>111.4</ele>
        <time>2020-10-16T12:59:28Z</time>
      </trkpt>
      <trkpt lat="37.325774000" lon="-5.340182000">
        <ele>111.3</ele>
        <time>2020-10-16T12:59:30Z</time>
      </trkpt>
      <trkpt lat="37.325748000" lon="-5.340306000">
        <ele>111.2</ele>
        <time>2020-10-16T12:59:32Z</time>
      </trkpt>
      <trkpt lat="37.325719000" lon="-5.340421000">
        <ele>111.2</ele>
        <time>2020-10-16T12:59:34Z</time>
      </trkpt>
      <trkpt lat="37.325696000" lon="-5.340544000">
        <ele>111.2</ele>
        <time>2020-10-16T12:59:36Z</time>
      </trkpt>
      <trkpt lat="37.325672000" lon="-5.340670000">
        <ele>111.2</ele>
        <time>2020-10-16T12:59:38Z</time>
      </trkpt>
      <trkpt lat="37.325649000" lon="-5.340791000">
        <ele>111.2</ele>
        <time>2020-10-16T12:59:40Z</time>
      </trkpt>
      <trkpt lat="37.325624000" lon="-5.340906000">
        <ele>111.3</ele>
        <time>2020-10-16T12:59:42Z</time>
      </trkpt>
      <trkpt lat="37.325599000" lon="-5.341021000">
        <ele>111.4</ele>
        <time>2020-10-16T12:59:44Z</time>
      </trkpt>
      <trkpt lat="37.325571000" lon="-5.341141000">
        <ele>111.5</ele>
        <time>2020-10-16T12:59:46Z</time>
      </trkpt>
      <trkpt lat="37.325544000" lon="-5.341257000">
        <ele>111.6</ele>
        <time>2020-10-16T12:59:48Z</time>
      </trkpt>
      <trkpt lat="37.325512000" lon="-5.341366000">
        <ele>111.9</ele>
        <time>2020-10-16T12:59:50Z</time>
      </trkpt>
      <trkpt lat="37.325486000" lon="-5.341481000">
        <ele>112.1</ele>
        <time>2020-10-16T12:59:52Z</time>
      </trkpt>
      <trkpt lat="37.325456000" lon="-5.341603000">
        <ele>112.3</ele>
        <time>2020-10-16T12:59:54Z</time>
      </trkpt>
      <trkpt lat="37.325432000" lon="-5.341720000">
        <ele>112.4</ele>
        <time>2020-10-16T12:59:56Z</time>
      </trkpt>
      <trkpt lat="37.325401000" lon="-5.341846000">
        <ele>112.4</ele>
        <time>2020-10-16T12:59:58Z</time>
      </trkpt>
      <trkpt lat="37.325367000" lon="-5.341964000">
        <ele>112.4</ele>
        <time>2020-10-16T13:00:00Z</time>
      </trkpt>
      <trkpt lat="37.325340000" lon="-5.342086000">
        <ele>112.4</ele>
        <time>2020-10-16T13:00:02Z</time>
      </trkpt>
      <trkpt lat="37.325312000" lon="-5.342206000">
        <ele>112.2</ele>
        <time>2020-10-16T13:00:04Z</time>
      </trkpt>
      <trkpt lat="37.325284000" lon="-5.342326000">
        <ele>112.0</ele>
        <time>2020-10-16T13:00:06Z</time>
      </trkpt>
      <trkpt lat="37.325251000" lon="-5.342452000">
        <ele>111.8</ele>
        <time>2020-10-16T13:00:08Z</time>
      </trkpt>
      <trkpt lat="37.325226000" lon="-5.342577000">
        <ele>111.6</ele>
        <time>2020-10-16T13:00:10Z</time>
      </trkpt>
      <trkpt lat="37.325197000" lon="-5.342695000">
        <ele>111.4</ele>
        <time>2020-10-16T13:00:12Z</time>
      </trkpt>
      <trkpt lat="37.325171000" lon="-5.342815000">
        <ele>111.2</ele>
        <time>2020-10-16T13:00:14Z</time>
      </trkpt>
      <trkpt lat="37.325153000" lon="-5.342939000">
        <ele>111.0</ele>
        <time>2020-10-16T13:00:16Z</time>
      </trkpt>
      <trkpt lat="37.325141000" lon="-5.343070000">
        <ele>110.8</ele>
        <time>2020-10-16T13:00:18Z</time>
      </trkpt>
      <trkpt lat="37.325134000" lon="-5.343203000">
        <ele>110.7</ele>
        <time>2020-10-16T13:00:20Z</time>
      </trkpt>
      <trkpt lat="37.325140000" lon="-5.343331000">
        <ele>110.7</ele>
        <time>2020-10-16T13:00:22Z</time>
      </trkpt>
      <trkpt lat="37.325146000" lon="-5.343455000">
        <ele>110.7</ele>
        <time>2020-10-16T13:00:24Z</time>
      </trkpt>
      <trkpt lat="37.325156000" lon="-5.343583000">
        <ele>110.9</ele>
        <time>2020-10-16T13:00:26Z</time>
      </trkpt>
      <trkpt lat="37.325163000" lon="-5.343699000">
        <ele>111.1</ele>
        <time>2020-10-16T13:00:28Z</time>
      </trkpt>
      <trkpt lat="37.325166000" lon="-5.343813000">
        <ele>111.3</ele>
        <time>2020-10-16T13:00:30Z</time>
      </trkpt>
      <trkpt lat="37.325166000" lon="-5.343917000">
        <ele>111.4</ele>
        <time>2020-10-16T13:00:32Z</time>
      </trkpt>
      <trkpt lat="37.325159000" lon="-5.344058000">
        <ele>111.5</ele>
        <time>2020-10-16T13:00:35Z</time>
      </trkpt>
      <trkpt lat="37.325150000" lon="-5.344187000">
        <ele>111.5</ele>
        <time>2020-10-16T13:00:38Z</time>
      </trkpt>
      <trkpt lat="37.325122000" lon="-5.344316000">
        <ele>111.6</ele>
        <time>2020-10-16T13:00:41Z</time>
      </trkpt>
      <trkpt lat="37.325093000" lon="-5.344429000">
        <ele>111.7</ele>
        <time>2020-10-16T13:00:44Z</time>
      </trkpt>
      <trkpt lat="37.325058000" lon="-5.344526000">
        <ele>111.8</ele>
        <time>2020-10-16T13:00:47Z</time>
      </trkpt>
      <trkpt lat="37.325020000" lon="-5.344626000">
        <ele>111.9</ele>
        <time>2020-10-16T13:00:50Z</time>
      </trkpt>
      <trkpt lat="37.324970000" lon="-5.344721000">
        <ele>112.0</ele>
        <time>2020-10-16T13:00:53Z</time>
      </trkpt>
      <trkpt lat="37.324912000" lon="-5.344810000">
        <ele>112.0</ele>
        <time>2020-10-16T13:00:56Z</time>
      </trkpt>
      <trkpt lat="37.324855000" lon="-5.344891000">
        <ele>112.0</ele>
        <time>2020-10-16T13:00:59Z</time>
      </trkpt>
      <trkpt lat="37.324778000" lon="-5.344987000">
        <ele>112.0</ele>
        <time>2020-10-16T13:01:03Z</time>
      </trkpt>
      <trkpt lat="37.324709000" lon="-5.345058000">
        <ele>112.0</ele>
        <time>2020-10-16T13:01:06Z</time>
      </trkpt>
      <trkpt lat="37.324634000" lon="-5.345122000">
        <ele>112.0</ele>
        <time>2020-10-16T13:01:09Z</time>
      </trkpt>
      <trkpt lat="37.324560000" lon="-5.345183000">
        <ele>112.0</ele>
        <time>2020-10-16T13:01:12Z</time>
      </trkpt>
      <trkpt lat="37.324483000" lon="-5.345239000">
        <ele>112.0</ele>
        <time>2020-10-16T13:01:15Z</time>
      </trkpt>
      <trkpt lat="37.324404000" lon="-5.345281000">
        <ele>112.0</ele>
        <time>2020-10-16T13:01:18Z</time>
      </trkpt>
      <trkpt lat="37.324330000" lon="-5.345335000">
        <ele>112.0</ele>
        <time>2020-10-16T13:01:21Z</time>
      </trkpt>
      <trkpt lat="37.324253000" lon="-5.345385000">
        <ele>112.0</ele>
        <time>2020-10-16T13:01:24Z</time>
      </trkpt>
      <trkpt lat="37.324174000" lon="-5.345439000">
        <ele>112.1</ele>
        <time>2020-10-16T13:01:27Z</time>
      </trkpt>
      <trkpt lat="37.324089000" lon="-5.345497000">
        <ele>112.2</ele>
        <time>2020-10-16T13:01:30Z</time>
      </trkpt>
      <trkpt lat="37.323990000" lon="-5.345560000">
        <ele>112.3</ele>
        <time>2020-10-16T13:01:33Z</time>
      </trkpt>
      <trkpt lat="37.323880000" lon="-5.345634000">
        <ele>112.5</ele>
        <time>2020-10-16T13:01:36Z</time>
      </trkpt>
      <trkpt lat="37.323795000" lon="-5.345694000">
        <ele>112.6</ele>
        <time>2020-10-16T13:01:38Z</time>
      </trkpt>
      <trkpt lat="37.323713000" lon="-5.345779000">
        <ele>112.8</ele>
        <time>2020-10-16T13:01:40Z</time>
      </trkpt>
      <trkpt lat="37.323623000" lon="-5.345877000">
        <ele>113.0</ele>
        <time>2020-10-16T13:01:42Z</time>
      </trkpt>
      <trkpt lat="37.323527000" lon="-5.345995000">
        <ele>113.2</ele>
        <time>2020-10-16T13:01:44Z</time>
      </trkpt>
      <trkpt lat="37.323434000" lon="-5.346131000">
        <ele>113.4</ele>
        <time>2020-10-16T13:01:46Z</time>
      </trkpt>
      <trkpt lat="37.323361000" lon="-5.346296000">
        <ele>113.5</ele>
        <time>2020-10-16T13:01:48Z</time>
      </trkpt>
      <trkpt lat="37.323300000" lon="-5.346483000">
        <ele>113.5</ele>
        <time>2020-10-16T13:01:50Z</time>
      </trkpt>
      <trkpt lat="37.323278000" lon="-5.346586000">
        <ele>113.5</ele>
        <time>2020-10-16T13:01:51Z</time>
      </trkpt>
      <trkpt lat="37.323256000" lon="-5.346692000">
        <ele>113.4</ele>
        <time>2020-10-16T13:01:52Z</time>
      </trkpt>
      <trkpt lat="37.323239000" lon="-5.346799000">
        <ele>113.3</ele>
        <time>2020-10-16T13:01:53Z</time>
      </trkpt>
      <trkpt lat="37.323224000" lon="-5.346911000">
        <ele>113.1</ele>
        <time>2020-10-16T13:01:54Z</time>
      </trkpt>
      <trkpt lat="37.323215000" lon="-5.347024000">
        <ele>112.9</ele>
        <time>2020-10-16T13:01:55Z</time>
      </trkpt>
      <trkpt lat="37.323205000" lon="-5.347135000">
        <ele>112.8</ele>
        <time>2020-10-16T13:01:56Z</time>
      </trkpt>
      <trkpt lat="37.323198000" lon="-5.347249000">
        <ele>112.7</ele>
        <time>2020-10-16T13:01:57Z</time>
      </trkpt>
      <trkpt lat="37.323192000" lon="-5.347356000">
        <ele>112.6</ele>
        <time>2020-10-16T13:01:58Z</time>
      </trkpt>
      <trkpt lat="37.323186000" lon="-5.347459000">
        <ele>112.5</ele>
        <time>2020-10-16T13:01:59Z</time>
      </trkpt>
      <trkpt lat="37.323180000" lon="-5.347562000">
        <ele>112.4</ele>
        <time>2020-10-16T13:02:00Z</time>
      </trkpt>
      <trkpt lat="37.323180000" lon="-5.347664000">
        <ele>112.2</ele>
        <time>2020-10-16T13:02:01Z</time>
      </trkpt>
      <trkpt lat="37.323175000" lon="-5.347850000">
        <ele>112.0</ele>
        <time>2020-10-16T13:02:03Z</time>
      </trkpt>
      <trkpt lat="37.323169000" lon="-5.348029000">
        <ele>111.7</ele>
        <time>2020-10-16T13:02:05Z</time>
      </trkpt>
      <trkpt lat="37.323165000" lon="-5.348196000">
        <ele>111.5</ele>
        <time>2020-10-16T13:02:07Z</time>
      </trkpt>
      <trkpt lat="37.323165000" lon="-5.348351000">
        <ele>111.2</ele>
        <time>2020-10-16T13:02:09Z</time>
      </trkpt>
      <trkpt lat="37.323168000" lon="-5.348509000">
        <ele>110.9</ele>
        <time>2020-10-16T13:02:11Z</time>
      </trkpt>
      <trkpt lat="37.323166000" lon="-5.348660000">
        <ele>110.6</ele>
        <time>2020-10-16T13:02:13Z</time>
      </trkpt>
      <trkpt lat="37.323162000" lon="-5.348809000">
        <ele>110.4</ele>
        <time>2020-10-16T13:02:15Z</time>
      </trkpt>
      <trkpt lat="37.323158000" lon="-5.348954000">
        <ele>110.1</ele>
        <time>2020-10-16T13:02:17Z</time>
      </trkpt>
      <trkpt lat="37.323155000" lon="-5.349093000">
        <ele>109.9</ele>
        <time>2020-10-16T13:02:19Z</time>
      </trkpt>
      <trkpt lat="37.323160000" lon="-5.349226000">
        <ele>109.6</ele>
        <time>2020-10-16T13:02:21Z</time>
      </trkpt>
      <trkpt lat="37.323159000" lon="-5.349358000">
        <ele>109.5</ele>
        <time>2020-10-16T13:02:23Z</time>
      </trkpt>
      <trkpt lat="37.323154000" lon="-5.349485000">
        <ele>109.3</ele>
        <time>2020-10-16T13:02:25Z</time>
      </trkpt>
      <trkpt lat="37.323150000" lon="-5.349605000">
        <ele>109.2</ele>
        <time>2020-10-16T13:02:27Z</time>
      </trkpt>
      <trkpt lat="37.323145000" lon="-5.349716000">
        <ele>109.0</ele>
        <time>2020-10-16T13:02:29Z</time>
      </trkpt>
      <trkpt lat="37.323138000" lon="-5.349824000">
        <ele>108.8</ele>
        <time>2020-10-16T13:02:31Z</time>
      </trkpt>
      <trkpt lat="37.323132000" lon="-5.349959000">
        <ele>108.5</ele>
        <time>2020-10-16T13:02:34Z</time>
      </trkpt>
      <trkpt lat="37.323089000" lon="-5.350060000">
        <ele>108.2</ele>
        <time>2020-10-16T13:02:39Z</time>
      </trkpt>
      <trkpt lat="37.323059000" lon="-5.350170000">
        <ele>107.6</ele>
        <time>2020-10-16T13:02:55Z</time>
      </trkpt>
      <trkpt lat="37.323044000" lon="-5.350277000">
        <ele>107.0</ele>
        <time>2020-10-16T13:03:02Z</time>
      </trkpt>
      <trkpt lat="37.323036000" lon="-5.350385000">
        <ele>106.3</ele>
        <time>2020-10-16T13:03:08Z</time>
      </trkpt>
      <trkpt lat="37.322999000" lon="-5.350489000">
        <ele>105.6</ele>
        <time>2020-10-16T13:03:14Z</time>
      </trkpt>
      <trkpt lat="37.322945000" lon="-5.350580000">
        <ele>105.0</ele>
        <time>2020-10-16T13:03:20Z</time>
      </trkpt>
      <trkpt lat="37.322882000" lon="-5.350658000">
        <ele>104.4</ele>
        <time>2020-10-16T13:03:26Z</time>
      </trkpt>
      <trkpt lat="37.322822000" lon="-5.350742000">
        <ele>103.7</ele>
        <time>2020-10-16T13:03:32Z</time>
      </trkpt>
      <trkpt lat="37.322759000" lon="-5.350816000">
        <ele>103.3</ele>
        <time>2020-10-16T13:03:38Z</time>
      </trkpt>
      <trkpt lat="37.322688000" lon="-5.350879000">
        <ele>103.0</ele>
        <time>2020-10-16T13:05:40Z</time>
      </trkpt>
      <trkpt lat="37.322624000" lon="-5.350943000">
        <ele>102.9</ele>
        <time>2020-10-16T13:05:46Z</time>
      </trkpt>
      <trkpt lat="37.322554000" lon="-5.351012000">
        <ele>102.9</ele>
        <time>2020-10-16T13:05:52Z</time>
      </trkpt>
      <trkpt lat="37.322502000" lon="-5.351093000">
        <ele>103.1</ele>
        <time>2020-10-16T13:06:00Z</time>
      </trkpt>
      <trkpt lat="37.322419000" lon="-5.351148000">
        <ele>103.4</ele>
        <time>2020-10-16T13:06:20Z</time>
      </trkpt>
      <trkpt lat="37.322355000" lon="-5.351219000">
        <ele>103.7</ele>
        <time>2020-10-16T13:06:46Z</time>
      </trkpt>
      <trkpt lat="37.322283000" lon="-5.351287000">
        <ele>104.1</ele>
        <time>2020-10-16T13:06:52Z</time>
      </trkpt>
      <trkpt lat="37.322245000" lon="-5.351383000">
        <ele>104.5</ele>
        <time>2020-10-16T13:07:01Z</time>
      </trkpt>
      <trkpt lat="37.322182000" lon="-5.351449000">
        <ele>104.9</ele>
        <time>2020-10-16T13:07:07Z</time>
      </trkpt>
      <trkpt lat="37.322108000" lon="-5.351511000">
        <ele>105.4</ele>
        <time>2020-10-16T13:07:13Z</time>
      </trkpt>
      <trkpt lat="37.322037000" lon="-5.351588000">
        <ele>105.8</ele>
        <time>2020-10-16T13:07:19Z</time>
      </trkpt>
      <trkpt lat="37.321969000" lon="-5.351671000">
        <ele>106.1</ele>
        <time>2020-10-16T13:07:25Z</time>
      </trkpt>
      <trkpt lat="37.321907000" lon="-5.351749000">
        <ele>106.4</ele>
        <time>2020-10-16T13:07:31Z</time>
      </trkpt>
      <trkpt lat="37.321846000" lon="-5.351826000">
        <ele>106.5</ele>
        <time>2020-10-16T13:07:37Z</time>
      </trkpt>
      <trkpt lat="37.321769000" lon="-5.351866000">
        <ele>106.7</ele>
        <time>2020-10-16T13:07:46Z</time>
      </trkpt>
      <trkpt lat="37.321705000" lon="-5.351947000">
        <ele>106.9</ele>
        <time>2020-10-16T13:09:58Z</time>
      </trkpt>
      <trkpt lat="37.321647000" lon="-5.352026000">
        <ele>107.1</ele>
        <time>2020-10-16T13:10:01Z</time>
      </trkpt>
      <trkpt lat="37.321574000" lon="-5.352120000">
        <ele>107.3</ele>
        <time>2020-10-16T13:10:04Z</time>
      </trkpt>
      <trkpt lat="37.321485000" lon="-5.352222000">
        <ele>107.4</ele>
        <time>2020-10-16T13:10:07Z</time>
      </trkpt>
      <trkpt lat="37.321426000" lon="-5.352306000">
        <ele>107.5</ele>
        <time>2020-10-16T13:10:09Z</time>
      </trkpt>
      <trkpt lat="37.321369000" lon="-5.352410000">
        <ele>107.5</ele>
        <time>2020-10-16T13:10:11Z</time>
      </trkpt>
      <trkpt lat="37.321327000" lon="-5.352517000">
        <ele>107.5</ele>
        <time>2020-10-16T13:10:13Z</time>
      </trkpt>
      <trkpt lat="37.321299000" lon="-5.352634000">
        <ele>107.5</ele>
        <time>2020-10-16T13:10:15Z</time>
      </trkpt>
      <trkpt lat="37.321285000" lon="-5.352761000">
        <ele>107.5</ele>
        <time>2020-10-16T13:10:17Z</time>
      </trkpt>
      <trkpt lat="37.321280000" lon="-5.352891000">
        <ele>107.3</ele>
        <time>2020-10-16T13:10:19Z</time>
      </trkpt>
      <trkpt lat="37.321274000" lon="-5.353016000">
        <ele>107.0</ele>
        <time>2020-10-16T13:10:21Z</time>
      </trkpt>
      <trkpt lat="37.321278000" lon="-5.353138000">
        <ele>106.6</ele>
        <time>2020-10-16T13:10:23Z</time>
      </trkpt>
      <trkpt lat="37.321277000" lon="-5.353255000">
        <ele>106.3</ele>
        <time>2020-10-16T13:10:25Z</time>
      </trkpt>
      <trkpt lat="37.321280000" lon="-5.353378000">
        <ele>105.9</ele>
        <time>2020-10-16T13:10:27Z</time>
      </trkpt>
      <trkpt lat="37.321287000" lon="-5.353497000">
        <ele>105.6</ele>
        <time>2020-10-16T13:10:29Z</time>
      </trkpt>
      <trkpt lat="37.321286000" lon="-5.353608000">
        <ele>105.5</ele>
        <time>2020-10-16T13:10:31Z</time>
      </trkpt>
      <trkpt lat="37.321291000" lon="-5.353727000">
        <ele>105.3</ele>
        <time>2020-10-16T13:10:33Z</time>
      </trkpt>
      <trkpt lat="37.321300000" lon="-5.353841000">
        <ele>105.2</ele>
        <time>2020-10-16T13:10:35Z</time>
      </trkpt>
      <trkpt lat="37.321306000" lon="-5.353957000">
        <ele>105.1</ele>
        <time>2020-10-16T13:10:37Z</time>
      </trkpt>
      <trkpt lat="37.321320000" lon="-5.354078000">
        <ele>105.1</ele>
        <time>2020-10-16T13:10:39Z</time>
      </trkpt>
      <trkpt lat="37.321329000" lon="-5.354196000">
        <ele>105.2</ele>
        <time>2020-10-16T13:10:41Z</time>
      </trkpt>
      <trkpt lat="37.321334000" lon="-5.354317000">
        <ele>105.3</ele>
        <time>2020-10-16T13:10:43Z</time>
      </trkpt>
      <trkpt lat="37.321344000" lon="-5.354438000">
        <ele>105.5</ele>
        <time>2020-10-16T13:10:45Z</time>
      </trkpt>
      <trkpt lat="37.321347000" lon="-5.354562000">
        <ele>105.5</ele>
        <time>2020-10-16T13:10:47Z</time>
      </trkpt>
      <trkpt lat="37.321353000" lon="-5.354688000">
        <ele>105.6</ele>
        <time>2020-10-16T13:10:49Z</time>
      </trkpt>
      <trkpt lat="37.321357000" lon="-5.354806000">
        <ele>105.7</ele>
        <time>2020-10-16T13:10:51Z</time>
      </trkpt>
      <trkpt lat="37.321366000" lon="-5.354922000">
        <ele>105.7</ele>
        <time>2020-10-16T13:10:53Z</time>
      </trkpt>
      <trkpt lat="37.321369000" lon="-5.355052000">
        <ele>105.7</ele>
        <time>2020-10-16T13:10:55Z</time>
      </trkpt>
      <trkpt lat="37.321377000" lon="-5.355176000">
        <ele>105.6</ele>
        <time>2020-10-16T13:10:57Z</time>
      </trkpt>
      <trkpt lat="37.321380000" lon="-5.355301000">
        <ele>105.5</ele>
        <time>2020-10-16T13:10:59Z</time>
      </trkpt>
      <trkpt lat="37.321386000" lon="-5.355424000">
        <ele>105.4</ele>
        <time>2020-10-16T13:11:01Z</time>
      </trkpt>
      <trkpt lat="37.321394000" lon="-5.355548000">
        <ele>105.2</ele>
        <time>2020-10-16T13:11:03Z</time>
      </trkpt>
      <trkpt lat="37.321398000" lon="-5.355669000">
        <ele>105.0</ele>
        <time>2020-10-16T13:11:05Z</time>
      </trkpt>
      <trkpt lat="37.321407000" lon="-5.355802000">
        <ele>104.8</ele>
        <time>2020-10-16T13:11:07Z</time>
      </trkpt>
      <trkpt lat="37.321418000" lon="-5.355934000">
        <ele>104.7</ele>
        <time>2020-10-16T13:11:09Z</time>
      </trkpt>
      <trkpt lat="37.321424000" lon="-5.356062000">
        <ele>104.6</ele>
        <time>2020-10-16T13:11:11Z</time>
      </trkpt>
      <trkpt lat="37.321430000" lon="-5.356196000">
        <ele>104.6</ele>
        <time>2020-10-16T13:11:13Z</time>
      </trkpt>
      <trkpt lat="37.321432000" lon="-5.356334000">
        <ele>104.6</ele>
        <time>2020-10-16T13:11:15Z</time>
      </trkpt>
      <trkpt lat="37.321438000" lon="-5.356464000">
        <ele>104.6</ele>
        <time>2020-10-16T13:11:17Z</time>
      </trkpt>
      <trkpt lat="37.321448000" lon="-5.356596000">
        <ele>104.6</ele>
        <time>2020-10-16T13:11:19Z</time>
      </trkpt>
      <trkpt lat="37.321454000" lon="-5.356733000">
        <ele>104.6</ele>
        <time>2020-10-16T13:11:21Z</time>
      </trkpt>
      <trkpt lat="37.321460000" lon="-5.356861000">
        <ele>104.7</ele>
        <time>2020-10-16T13:11:23Z</time>
      </trkpt>
      <trkpt lat="37.321468000" lon="-5.356991000">
        <ele>104.8</ele>
        <time>2020-10-16T13:11:25Z</time>
      </trkpt>
      <trkpt lat="37.321472000" lon="-5.357123000">
        <ele>105.0</ele>
        <time>2020-10-16T13:11:27Z</time>
      </trkpt>
      <trkpt lat="37.321478000" lon="-5.357251000">
        <ele>105.3</ele>
        <time>2020-10-16T13:11:29Z</time>
      </trkpt>
      <trkpt lat="37.321482000" lon="-5.357374000">
        <ele>105.5</ele>
        <time>2020-10-16T13:11:31Z</time>
      </trkpt>
      <trkpt lat="37.321486000" lon="-5.357497000">
        <ele>105.8</ele>
        <time>2020-10-16T13:11:33Z</time>
      </trkpt>
      <trkpt lat="37.321494000" lon="-5.357615000">
        <ele>106.0</ele>
        <time>2020-10-16T13:11:35Z</time>
      </trkpt>
      <trkpt lat="37.321495000" lon="-5.357738000">
        <ele>106.2</ele>
        <time>2020-10-16T13:11:37Z</time>
      </trkpt>
      <trkpt lat="37.321503000" lon="-5.357856000">
        <ele>106.4</ele>
        <time>2020-10-16T13:11:39Z</time>
      </trkpt>
      <trkpt lat="37.321508000" lon="-5.357976000">
        <ele>106.5</ele>
        <time>2020-10-16T13:11:41Z</time>
      </trkpt>
      <trkpt lat="37.321510000" lon="-5.358091000">
        <ele>106.7</ele>
        <time>2020-10-16T13:11:43Z</time>
      </trkpt>
      <trkpt lat="37.321515000" lon="-5.358203000">
        <ele>106.8</ele>
        <time>2020-10-16T13:11:45Z</time>
      </trkpt>
      <trkpt lat="37.321523000" lon="-5.358316000">
        <ele>106.8</ele>
        <time>2020-10-16T13:11:47Z</time>
      </trkpt>
      <trkpt lat="37.321527000" lon="-5.358427000">
        <ele>106.8</ele>
        <time>2020-10-16T13:11:49Z</time>
      </trkpt>
      <trkpt lat="37.321528000" lon="-5.358535000">
        <ele>106.7</ele>
        <time>2020-10-16T13:11:51Z</time>
      </trkpt>
      <trkpt lat="37.321529000" lon="-5.358641000">
        <ele>106.6</ele>
        <time>2020-10-16T13:11:53Z</time>
      </trkpt>
      <trkpt lat="37.321529000" lon="-5.358750000">
        <ele>106.5</ele>
        <time>2020-10-16T13:11:55Z</time>
      </trkpt>
      <trkpt lat="37.321527000" lon="-5.358860000">
        <ele>106.5</ele>
        <time>2020-10-16T13:11:57Z</time>
      </trkpt>
      <trkpt lat="37.321531000" lon="-5.358969000">
        <ele>106.5</ele>
        <time>2020-10-16T13:11:59Z</time>
      </trkpt>
      <trkpt lat="37.321535000" lon="-5.359081000">
        <ele>106.5</ele>
        <time>2020-10-16T13:12:01Z</time>
      </trkpt>
      <trkpt lat="37.321537000" lon="-5.359191000">
        <ele>106.5</ele>
        <time>2020-10-16T13:12:03Z</time>
      </trkpt>
      <trkpt lat="37.321540000" lon="-5.359300000">
        <ele>106.5</ele>
        <time>2020-10-16T13:12:05Z</time>
      </trkpt>
      <trkpt lat="37.321544000" lon="-5.359409000">
        <ele>106.5</ele>
        <time>2020-10-16T13:12:07Z</time>
      </trkpt>
      <trkpt lat="37.321547000" lon="-5.359519000">
        <ele>106.5</ele>
        <time>2020-10-16T13:12:09Z</time>
      </trkpt>
      <trkpt lat="37.321548000" lon="-5.359630000">
        <ele>106.6</ele>
        <time>2020-10-16T13:12:11Z</time>
      </trkpt>
      <trkpt lat="37.321548000" lon="-5.359735000">
        <ele>106.7</ele>
        <time>2020-10-16T13:12:13Z</time>
      </trkpt>
      <trkpt lat="37.321547000" lon="-5.359840000">
        <ele>106.8</ele>
        <time>2020-10-16T13:12:15Z</time>
      </trkpt>
      <trkpt lat="37.321551000" lon="-5.359945000">
        <ele>106.9</ele>
        <time>2020-10-16T13:12:17Z</time>
      </trkpt>
      <trkpt lat="37.321553000" lon="-5.360095000">
        <ele>107.0</ele>
        <time>2020-10-16T13:12:20Z</time>
      </trkpt>
      <trkpt lat="37.321557000" lon="-5.360241000">
        <ele>106.9</ele>
        <time>2020-10-16T13:12:23Z</time>
      </trkpt>
      <trkpt lat="37.321560000" lon="-5.360391000">
        <ele>106.8</ele>
        <time>2020-10-16T13:12:26Z</time>
      </trkpt>
      <trkpt lat="37.321562000" lon="-5.360538000">
        <ele>106.7</ele>
        <time>2020-10-16T13:12:29Z</time>
      </trkpt>
      <trkpt lat="37.321561000" lon="-5.360680000">
        <ele>106.6</ele>
        <time>2020-10-16T13:12:32Z</time>
      </trkpt>
      <trkpt lat="37.321562000" lon="-5.360820000">
        <ele>106.5</ele>
        <time>2020-10-16T13:12:35Z</time>
      </trkpt>
      <trkpt lat="37.321565000" lon="-5.360966000">
        <ele>106.5</ele>
        <time>2020-10-16T13:12:38Z</time>
      </trkpt>
      <trkpt lat="37.321570000" lon="-5.361115000">
        <ele>106.4</ele>
        <time>2020-10-16T13:12:41Z</time>
      </trkpt>
      <trkpt lat="37.321572000" lon="-5.361218000">
        <ele>106.3</ele>
        <time>2020-10-16T13:12:43Z</time>
      </trkpt>
      <trkpt lat="37.321572000" lon="-5.361323000">
        <ele>106.1</ele>
        <time>2020-10-16T13:12:45Z</time>
      </trkpt>
      <trkpt lat="37.321575000" lon="-5.361430000">
        <ele>105.9</ele>
        <time>2020-10-16T13:12:47Z</time>
      </trkpt>
      <trkpt lat="37.321578000" lon="-5.361537000">
        <ele>105.7</ele>
        <time>2020-10-16T13:12:49Z</time>
      </trkpt>
      <trkpt lat="37.321583000" lon="-5.361645000">
        <ele>105.6</ele>
        <time>2020-10-16T13:12:51Z</time>
      </trkpt>
      <trkpt lat="37.321590000" lon="-5.361751000">
        <ele>105.5</ele>
        <time>2020-10-16T13:12:53Z</time>
      </trkpt>
      <trkpt lat="37.321593000" lon="-5.361859000">
        <ele>105.4</ele>
        <time>2020-10-16T13:12:55Z</time>
      </trkpt>
      <trkpt lat="37.321595000" lon="-5.361970000">
        <ele>105.2</ele>
        <time>2020-10-16T13:12:57Z</time>
      </trkpt>
      <trkpt lat="37.321597000" lon="-5.362088000">
        <ele>105.0</ele>
        <time>2020-10-16T13:12:59Z</time>
      </trkpt>
      <trkpt lat="37.321600000" lon="-5.362205000">
        <ele>104.8</ele>
        <time>2020-10-16T13:13:01Z</time>
      </trkpt>
      <trkpt lat="37.321598000" lon="-5.362321000">
        <ele>104.7</ele>
        <time>2020-10-16T13:13:03Z</time>
      </trkpt>
      <trkpt lat="37.321597000" lon="-5.362441000">
        <ele>104.6</ele>
        <time>2020-10-16T13:13:05Z</time>
      </trkpt>
      <trkpt lat="37.321598000" lon="-5.362559000">
        <ele>104.6</ele>
        <time>2020-10-16T13:13:07Z</time>
      </trkpt>
      <trkpt lat="37.321602000" lon="-5.362674000">
        <ele>104.7</ele>
        <time>2020-10-16T13:13:09Z</time>
      </trkpt>
      <trkpt lat="37.321607000" lon="-5.362785000">
        <ele>104.8</ele>
        <time>2020-10-16T13:13:11Z</time>
      </trkpt>
      <trkpt lat="37.321609000" lon="-5.362894000">
        <ele>105.0</ele>
        <time>2020-10-16T13:13:13Z</time>
      </trkpt>
      <trkpt lat="37.321614000" lon="-5.363006000">
        <ele>105.3</ele>
        <time>2020-10-16T13:13:15Z</time>
      </trkpt>
      <trkpt lat="37.321612000" lon="-5.363118000">
        <ele>105.6</ele>
        <time>2020-10-16T13:13:17Z</time>
      </trkpt>
      <trkpt lat="37.321618000" lon="-5.363226000">
        <ele>106.1</ele>
        <time>2020-10-16T13:13:19Z</time>
      </trkpt>
      <trkpt lat="37.321621000" lon="-5.363334000">
        <ele>106.6</ele>
        <time>2020-10-16T13:13:21Z</time>
      </trkpt>
      <trkpt lat="37.321622000" lon="-5.363436000">
        <ele>107.3</ele>
        <time>2020-10-16T13:13:23Z</time>
      </trkpt>
      <trkpt lat="37.321625000" lon="-5.363586000">
        <ele>107.8</ele>
        <time>2020-10-16T13:13:26Z</time>
      </trkpt>
      <trkpt lat="37.321626000" lon="-5.363731000">
        <ele>108.5</ele>
        <time>2020-10-16T13:13:29Z</time>
      </trkpt>
      <trkpt lat="37.321627000" lon="-5.363873000">
        <ele>109.2</ele>
        <time>2020-10-16T13:13:32Z</time>
      </trkpt>
      <trkpt lat="37.321634000" lon="-5.364007000">
        <ele>109.9</ele>
        <time>2020-10-16T13:13:35Z</time>
      </trkpt>
      <trkpt lat="37.321639000" lon="-5.364140000">
        <ele>110.6</ele>
        <time>2020-10-16T13:13:38Z</time>
      </trkpt>
      <trkpt lat="37.321643000" lon="-5.364274000">
        <ele>111.4</ele>
        <time>2020-10-16T13:13:41Z</time>
      </trkpt>
      <trkpt lat="37.321644000" lon="-5.364416000">
        <ele>112.0</ele>
        <time>2020-10-16T13:13:44Z</time>
      </trkpt>
      <trkpt lat="37.321643000" lon="-5.364554000">
        <ele>112.5</ele>
        <time>2020-10-16T13:13:47Z</time>
      </trkpt>
      <trkpt lat="37.321646000" lon="-5.364687000">
        <ele>113.0</ele>
        <time>2020-10-16T13:13:50Z</time>
      </trkpt>
      <trkpt lat="37.321648000" lon="-5.364819000">
        <ele>113.3</ele>
        <time>2020-10-16T13:13:53Z</time>
      </trkpt>
      <trkpt lat="37.321654000" lon="-5.364952000">
        <ele>113.5</ele>
        <time>2020-10-16T13:13:56Z</time>
      </trkpt>
      <trkpt lat="37.321663000" lon="-5.365081000">
        <ele>113.5</ele>
        <time>2020-10-16T13:13:59Z</time>
      </trkpt>
      <trkpt lat="37.321678000" lon="-5.365210000">
        <ele>113.5</ele>
        <time>2020-10-16T13:14:02Z</time>
      </trkpt>
      <trkpt lat="37.321690000" lon="-5.365341000">
        <ele>113.5</ele>
        <time>2020-10-16T13:14:05Z</time>
      </trkpt>
      <trkpt lat="37.321704000" lon="-5.365473000">
        <ele>113.3</ele>
        <time>2020-10-16T13:14:08Z</time>
      </trkpt>
      <trkpt lat="37.321721000" lon="-5.365604000">
        <ele>113.1</ele>
        <time>2020-10-16T13:14:11Z</time>
      </trkpt>
      <trkpt lat="37.321736000" lon="-5.365735000">
        <ele>112.8</ele>
        <time>2020-10-16T13:14:14Z</time>
      </trkpt>
      <trkpt lat="37.321758000" lon="-5.365868000">
        <ele>112.5</ele>
        <time>2020-10-16T13:14:17Z</time>
      </trkpt>
      <trkpt lat="37.321779000" lon="-5.366007000">
        <ele>112.4</ele>
        <time>2020-10-16T13:14:20Z</time>
      </trkpt>
      <trkpt lat="37.321797000" lon="-5.366150000">
        <ele>112.2</ele>
        <time>2020-10-16T13:14:23Z</time>
      </trkpt>
      <trkpt lat="37.321812000" lon="-5.366300000">
        <ele>112.0</ele>
        <time>2020-10-16T13:14:26Z</time>
      </trkpt>
      <trkpt lat="37.321825000" lon="-5.366406000">
        <ele>111.8</ele>
        <time>2020-10-16T13:14:28Z</time>
      </trkpt>
      <trkpt lat="37.321845000" lon="-5.366521000">
        <ele>111.6</ele>
        <time>2020-10-16T13:14:30Z</time>
      </trkpt>
      <trkpt lat="37.321855000" lon="-5.366634000">
        <ele>111.5</ele>
        <time>2020-10-16T13:14:32Z</time>
      </trkpt>
      <trkpt lat="37.321869000" lon="-5.366754000">
        <ele>111.2</ele>
        <time>2020-10-16T13:14:34Z</time>
      </trkpt>
      <trkpt lat="37.321884000" lon="-5.366875000">
        <ele>110.8</ele>
        <time>2020-10-16T13:14:36Z</time>
      </trkpt>
      <trkpt lat="37.321902000" lon="-5.366998000">
        <ele>110.5</ele>
        <time>2020-10-16T13:14:38Z</time>
      </trkpt>
      <trkpt lat="37.321916000" lon="-5.367124000">
        <ele>110.1</ele>
        <time>2020-10-16T13:14:40Z</time>
      </trkpt>
      <trkpt lat="37.321934000" lon="-5.367249000">
        <ele>109.7</ele>
        <time>2020-10-16T13:14:42Z</time>
      </trkpt>
      <trkpt lat="37.321952000" lon="-5.367378000">
        <ele>109.4</ele>
        <time>2020-10-16T13:14:44Z</time>
      </trkpt>
      <trkpt lat="37.321968000" lon="-5.367509000">
        <ele>109.0</ele>
        <time>2020-10-16T13:14:46Z</time>
      </trkpt>
      <trkpt lat="37.321988000" lon="-5.367645000">
        <ele>108.7</ele>
        <time>2020-10-16T13:14:48Z</time>
      </trkpt>
      <trkpt lat="37.322002000" lon="-5.367780000">
        <ele>108.5</ele>
        <time>2020-10-16T13:14:50Z</time>
      </trkpt>
      <trkpt lat="37.322018000" lon="-5.367918000">
        <ele>108.4</ele>
        <time>2020-10-16T13:14:52Z</time>
      </trkpt>
      <trkpt lat="37.322032000" lon="-5.368054000">
        <ele>108.3</ele>
        <time>2020-10-16T13:14:54Z</time>
      </trkpt>
      <trkpt lat="37.322054000" lon="-5.368191000">
        <ele>108.4</ele>
        <time>2020-10-16T13:14:56Z</time>
      </trkpt>
      <trkpt lat="37.322074000" lon="-5.368332000">
        <ele>108.5</ele>
        <time>2020-10-16T13:14:58Z</time>
      </trkpt>
      <trkpt lat="37.322092000" lon="-5.368472000">
        <ele>108.8</ele>
        <time>2020-10-16T13:15:00Z</time>
      </trkpt>
      <trkpt lat="37.322109000" lon="-5.368609000">
        <ele>109.1</ele>
        <time>2020-10-16T13:15:02Z</time>
      </trkpt>
      <trkpt lat="37.322123000" lon="-5.368739000">
        <ele>109.3</ele>
        <time>2020-10-16T13:15:04Z</time>
      </trkpt>
      <trkpt lat="37.322138000" lon="-5.368869000">
        <ele>109.5</ele>
        <time>2020-10-16T13:15:06Z</time>
      </trkpt>
      <trkpt lat="37.322154000" lon="-5.369001000">
        <ele>109.5</ele>
        <time>2020-10-16T13:15:08Z</time>
      </trkpt>
      <trkpt lat="37.322170000" lon="-5.369137000">
        <ele>109.6</ele>
        <time>2020-10-16T13:15:10Z</time>
      </trkpt>
      <trkpt lat="37.322185000" lon="-5.369263000">
        <ele>109.8</ele>
        <time>2020-10-16T13:15:12Z</time>
      </trkpt>
      <trkpt lat="37.322200000" lon="-5.369395000">
        <ele>109.9</ele>
        <time>2020-10-16T13:15:14Z</time>
      </trkpt>
      <trkpt lat="37.322210000" lon="-5.369522000">
        <ele>110.1</ele>
        <time>2020-10-16T13:15:16Z</time>
      </trkpt>
      <trkpt lat="37.322233000" lon="-5.369656000">
        <ele>110.3</ele>
        <time>2020-10-16T13:15:18Z</time>
      </trkpt>
      <trkpt lat="37.322249000" lon="-5.369788000">
        <ele>110.5</ele>
        <time>2020-10-16T13:15:20Z</time>
      </trkpt>
      <trkpt lat="37.322266000" lon="-5.369918000">
        <ele>110.5</ele>
        <time>2020-10-16T13:15:22Z</time>
      </trkpt>
      <trkpt lat="37.322286000" lon="-5.370054000">
        <ele>110.6</ele>
        <time>2020-10-16T13:15:24Z</time>
      </trkpt>
      <trkpt lat="37.322304000" lon="-5.370186000">
        <ele>110.8</ele>
        <time>2020-10-16T13:15:26Z</time>
      </trkpt>
      <trkpt lat="37.322322000" lon="-5.370317000">
        <ele>110.9</ele>
        <time>2020-10-16T13:15:28Z</time>
      </trkpt>
      <trkpt lat="37.322338000" lon="-5.370457000">
        <ele>111.1</ele>
        <time>2020-10-16T13:15:30Z</time>
      </trkpt>
      <trkpt lat="37.322355000" lon="-5.370601000">
        <ele>111.2</ele>
        <time>2020-10-16T13:15:32Z</time>
      </trkpt>
      <trkpt lat="37.322376000" lon="-5.370744000">
        <ele>111.2</ele>
        <time>2020-10-16T13:15:34Z</time>
      </trkpt>
      <trkpt lat="37.322398000" lon="-5.370892000">
        <ele>111.2</ele>
        <time>2020-10-16T13:15:36Z</time>
      </trkpt>
      <trkpt lat="37.322416000" lon="-5.371036000">
        <ele>111.0</ele>
        <time>2020-10-16T13:15:38Z</time>
      </trkpt>
      <trkpt lat="37.322434000" lon="-5.371197000">
        <ele>110.6</ele>
        <time>2020-10-16T13:15:40Z</time>
      </trkpt>
      <trkpt lat="37.322449000" lon="-5.371349000">
        <ele>110.3</ele>
        <time>2020-10-16T13:15:42Z</time>
      </trkpt>
      <trkpt lat="37.322469000" lon="-5.371503000">
        <ele>109.8</ele>
        <time>2020-10-16T13:15:44Z</time>
      </trkpt>
      <trkpt lat="37.322487000" lon="-5.371658000">
        <ele>109.4</ele>
        <time>2020-10-16T13:15:46Z</time>
      </trkpt>
      <trkpt lat="37.322513000" lon="-5.371815000">
        <ele>108.8</ele>
        <time>2020-10-16T13:15:48Z</time>
      </trkpt>
      <trkpt lat="37.322533000" lon="-5.371968000">
        <ele>108.4</ele>
        <time>2020-10-16T13:15:50Z</time>
      </trkpt>
      <trkpt lat="37.322555000" lon="-5.372121000">
        <ele>107.9</ele>
        <time>2020-10-16T13:15:52Z</time>
      </trkpt>
      <trkpt lat="37.322574000" lon="-5.372272000">
        <ele>107.5</ele>
        <time>2020-10-16T13:15:54Z</time>
      </trkpt>
      <trkpt lat="37.322596000" lon="-5.372420000">
        <ele>107.2</ele>
        <time>2020-10-16T13:15:56Z</time>
      </trkpt>
      <trkpt lat="37.322610000" lon="-5.372566000">
        <ele>106.8</ele>
        <time>2020-10-16T13:15:58Z</time>
      </trkpt>
      <trkpt lat="37.322628000" lon="-5.372705000">
        <ele>106.5</ele>
        <time>2020-10-16T13:16:00Z</time>
      </trkpt>
      <trkpt lat="37.322646000" lon="-5.372849000">
        <ele>106.2</ele>
        <time>2020-10-16T13:16:02Z</time>
      </trkpt>
      <trkpt lat="37.322663000" lon="-5.372990000">
        <ele>105.9</ele>
        <time>2020-10-16T13:16:04Z</time>
      </trkpt>
      <trkpt lat="37.322679000" lon="-5.373121000">
        <ele>105.6</ele>
        <time>2020-10-16T13:16:06Z</time>
      </trkpt>
      <trkpt lat="37.322695000" lon="-5.373259000">
        <ele>105.4</ele>
        <time>2020-10-16T13:16:08Z</time>
      </trkpt>
      <trkpt lat="37.322710000" lon="-5.373389000">
        <ele>105.2</ele>
        <time>2020-10-16T13:16:10Z</time>
      </trkpt>
      <trkpt lat="37.322729000" lon="-5.373514000">
        <ele>105.0</ele>
        <time>2020-10-16T13:16:12Z</time>
      </trkpt>
      <trkpt lat="37.322744000" lon="-5.373640000">
        <ele>104.8</ele>
        <time>2020-10-16T13:16:14Z</time>
      </trkpt>
      <trkpt lat="37.322757000" lon="-5.373761000">
        <ele>104.7</ele>
        <time>2020-10-16T13:16:16Z</time>
      </trkpt>
      <trkpt lat="37.322770000" lon="-5.373880000">
        <ele>104.6</ele>
        <time>2020-10-16T13:16:18Z</time>
      </trkpt>
      <trkpt lat="37.322788000" lon="-5.374002000">
        <ele>104.6</ele>
        <time>2020-10-16T13:16:20Z</time>
      </trkpt>
      <trkpt lat="37.322804000" lon="-5.374122000">
        <ele>104.7</ele>
        <time>2020-10-16T13:16:22Z</time>
      </trkpt>
      <trkpt lat="37.322823000" lon="-5.374245000">
        <ele>104.9</ele>
        <time>2020-10-16T13:16:24Z</time>
      </trkpt>
      <trkpt lat="37.322838000" lon="-5.374363000">
        <ele>105.1</ele>
        <time>2020-10-16T13:16:26Z</time>
      </trkpt>
      <trkpt lat="37.322855000" lon="-5.374484000">
        <ele>105.5</ele>
        <time>2020-10-16T13:16:28Z</time>
      </trkpt>
      <trkpt lat="37.322878000" lon="-5.374597000">
        <ele>105.7</ele>
        <time>2020-10-16T13:16:30Z</time>
      </trkpt>
      <trkpt lat="37.322899000" lon="-5.374705000">
        <ele>106.0</ele>
        <time>2020-10-16T13:16:32Z</time>
      </trkpt>
      <trkpt lat="37.322926000" lon="-5.374821000">
        <ele>106.2</ele>
        <time>2020-10-16T13:16:34Z</time>
      </trkpt>
      <trkpt lat="37.322954000" lon="-5.374934000">
        <ele>106.4</ele>
        <time>2020-10-16T13:16:36Z</time>
      </trkpt>
      <trkpt lat="37.322980000" lon="-5.375052000">
        <ele>106.5</ele>
        <time>2020-10-16T13:16:38Z</time>
      </trkpt>
      <trkpt lat="37.323016000" lon="-5.375167000">
        <ele>106.5</ele>
        <time>2020-10-16T13:16:40Z</time>
      </trkpt>
      <trkpt lat="37.323050000" lon="-5.375280000">
        <ele>106.5</ele>
        <time>2020-10-16T13:16:42Z</time>
      </trkpt>
      <trkpt lat="37.323076000" lon="-5.375389000">
        <ele>106.5</ele>
        <time>2020-10-16T13:16:44Z</time>
      </trkpt>
      <trkpt lat="37.323106000" lon="-5.375496000">
        <ele>106.5</ele>
        <time>2020-10-16T13:16:46Z</time>
      </trkpt>
      <trkpt lat="37.323127000" lon="-5.375599000">
        <ele>106.5</ele>
        <time>2020-10-16T13:16:48Z</time>
      </trkpt>
      <trkpt lat="37.323158000" lon="-5.375699000">
        <ele>106.5</ele>
        <time>2020-10-16T13:16:50Z</time>
      </trkpt>
      <trkpt lat="37.323183000" lon="-5.375799000">
        <ele>106.6</ele>
        <time>2020-10-16T13:16:52Z</time>
      </trkpt>
      <trkpt lat="37.323213000" lon="-5.375901000">
        <ele>106.7</ele>
        <time>2020-10-16T13:16:54Z</time>
      </trkpt>
      <trkpt lat="37.323240000" lon="-5.376006000">
        <ele>106.9</ele>
        <time>2020-10-16T13:16:56Z</time>
      </trkpt>
      <trkpt lat="37.323270000" lon="-5.376113000">
        <ele>107.2</ele>
        <time>2020-10-16T13:16:58Z</time>
      </trkpt>
      <trkpt lat="37.323298000" lon="-5.376219000">
        <ele>107.5</ele>
        <time>2020-10-16T13:17:00Z</time>
      </trkpt>
      <trkpt lat="37.323326000" lon="-5.376319000">
        <ele>108.0</ele>
        <time>2020-10-16T13:17:02Z</time>
      </trkpt>
      <trkpt lat="37.323366000" lon="-5.376454000">
        <ele>108.6</ele>
        <time>2020-10-16T13:17:05Z</time>
      </trkpt>
      <trkpt lat="37.323402000" lon="-5.376590000">
        <ele>109.4</ele>
        <time>2020-10-16T13:17:08Z</time>
      </trkpt>
      <trkpt lat="37.323432000" lon="-5.376720000">
        <ele>110.0</ele>
        <time>2020-10-16T13:17:11Z</time>
      </trkpt>
      <trkpt lat="37.323465000" lon="-5.376844000">
        <ele>110.6</ele>
        <time>2020-10-16T13:17:14Z</time>
      </trkpt>
      <trkpt lat="37.323499000" lon="-5.376961000">
        <ele>111.2</ele>
        <time>2020-10-16T13:17:17Z</time>
      </trkpt>
      <trkpt lat="37.323529000" lon="-5.377078000">
        <ele>111.7</ele>
        <time>2020-10-16T13:17:20Z</time>
      </trkpt>
      <trkpt lat="37.323571000" lon="-5.377209000">
        <ele>112.3</ele>
        <time>2020-10-16T13:17:23Z</time>
      </trkpt>
      <trkpt lat="37.323607000" lon="-5.377345000">
        <ele>112.8</ele>
        <time>2020-10-16T13:17:26Z</time>
      </trkpt>
      <trkpt lat="37.323643000" lon="-5.377465000">
        <ele>113.4</ele>
        <time>2020-10-16T13:17:29Z</time>
      </trkpt>
      <trkpt lat="37.323672000" lon="-5.377582000">
        <ele>113.9</ele>
        <time>2020-10-16T13:17:32Z</time>
      </trkpt>
      <trkpt lat="37.323705000" lon="-5.377699000">
        <ele>114.4</ele>
        <time>2020-10-16T13:17:35Z</time>
      </trkpt>
      <trkpt lat="37.323736000" lon="-5.377816000">
        <ele>114.6</ele>
        <time>2020-10-16T13:17:38Z</time>
      </trkpt>
      <trkpt lat="37.323765000" lon="-5.377931000">
        <ele>114.8</ele>
        <time>2020-10-16T13:17:41Z</time>
      </trkpt>
      <trkpt lat="37.323796000" lon="-5.378047000">
        <ele>114.9</ele>
        <time>2020-10-16T13:17:44Z</time>
      </trkpt>
      <trkpt lat="37.323828000" lon="-5.378174000">
        <ele>115.0</ele>
        <time>2020-10-16T13:17:47Z</time>
      </trkpt>
      <trkpt lat="37.323861000" lon="-5.378300000">
        <ele>115.0</ele>
        <time>2020-10-16T13:17:50Z</time>
      </trkpt>
      <trkpt lat="37.323894000" lon="-5.378423000">
        <ele>115.0</ele>
        <time>2020-10-16T13:17:53Z</time>
      </trkpt>
      <trkpt lat="37.323924000" lon="-5.378550000">
        <ele>114.9</ele>
        <time>2020-10-16T13:17:56Z</time>
      </trkpt>
      <trkpt lat="37.323950000" lon="-5.378683000">
        <ele>114.9</ele>
        <time>2020-10-16T13:17:59Z</time>
      </trkpt>
      <trkpt lat="37.323983000" lon="-5.378874000">
        <ele>114.8</ele>
        <time>2020-10-16T13:18:03Z</time>
      </trkpt>
      <trkpt lat="37.323996000" lon="-5.378980000">
        <ele>114.6</ele>
        <time>2020-10-16T13:18:05Z</time>
      </trkpt>
      <trkpt lat="37.324010000" lon="-5.379095000">
        <ele>114.5</ele>
        <time>2020-10-16T13:18:07Z</time>
      </trkpt>
      <trkpt lat="37.324035000" lon="-5.379208000">
        <ele>114.3</ele>
        <time>2020-10-16T13:18:09Z</time>
      </trkpt>
      <trkpt lat="37.324058000" lon="-5.379323000">
        <ele>114.1</ele>
        <time>2020-10-16T13:18:11Z</time>
      </trkpt>
      <trkpt lat="37.324075000" lon="-5.379452000">
        <ele>114.0</ele>
        <time>2020-10-16T13:18:13Z</time>
      </trkpt>
      <trkpt lat="37.324095000" lon="-5.379582000">
        <ele>113.9</ele>
        <time>2020-10-16T13:18:15Z</time>
      </trkpt>
      <trkpt lat="37.324119000" lon="-5.379713000">
        <ele>113.8</ele>
        <time>2020-10-16T13:18:17Z</time>
      </trkpt>
      <trkpt lat="37.324139000" lon="-5.379836000">
        <ele>113.6</ele>
        <time>2020-10-16T13:18:19Z</time>
      </trkpt>
      <trkpt lat="37.324162000" lon="-5.379966000">
        <ele>113.5</ele>
        <time>2020-10-16T13:18:21Z</time>
      </trkpt>
      <trkpt lat="37.324185000" lon="-5.380092000">
        <ele>113.4</ele>
        <time>2020-10-16T13:18:23Z</time>
      </trkpt>
      <trkpt lat="37.324205000" lon="-5.380219000">
        <ele>113.2</ele>
        <time>2020-10-16T13:18:25Z</time>
      </trkpt>
      <trkpt lat="37.324222000" lon="-5.380346000">
        <ele>113.1</ele>
        <time>2020-10-16T13:18:27Z</time>
      </trkpt>
      <trkpt lat="37.324245000" lon="-5.380472000">
        <ele>113.0</ele>
        <time>2020-10-16T13:18:29Z</time>
      </trkpt>
      <trkpt lat="37.324266000" lon="-5.380599000">
        <ele>112.9</ele>
        <time>2020-10-16T13:18:31Z</time>
      </trkpt>
      <trkpt lat="37.324288000" lon="-5.380723000">
        <ele>112.9</ele>
        <time>2020-10-16T13:18:33Z</time>
      </trkpt>
      <trkpt lat="37.324307000" lon="-5.380846000">
        <ele>112.9</ele>
        <time>2020-10-16T13:18:35Z</time>
      </trkpt>
      <trkpt lat="37.324326000" lon="-5.380972000">
        <ele>112.9</ele>
        <time>2020-10-16T13:18:37Z</time>
      </trkpt>
      <trkpt lat="37.324346000" lon="-5.381099000">
        <ele>112.9</ele>
        <time>2020-10-16T13:18:39Z</time>
      </trkpt>
      <trkpt lat="37.324366000" lon="-5.381217000">
        <ele>113.0</ele>
        <time>2020-10-16T13:18:41Z</time>
      </trkpt>
      <trkpt lat="37.324380000" lon="-5.381337000">
        <ele>113.1</ele>
        <time>2020-10-16T13:18:43Z</time>
      </trkpt>
      <trkpt lat="37.324397000" lon="-5.381454000">
        <ele>113.2</ele>
        <time>2020-10-16T13:18:45Z</time>
      </trkpt>
      <trkpt lat="37.324414000" lon="-5.381571000">
        <ele>113.3</ele>
        <time>2020-10-16T13:18:47Z</time>
      </trkpt>
      <trkpt lat="37.324430000" lon="-5.381686000">
        <ele>113.2</ele>
        <time>2020-10-16T13:18:49Z</time>
      </trkpt>
      <trkpt lat="37.324450000" lon="-5.381805000">
        <ele>113.1</ele>
        <time>2020-10-16T13:18:52Z</time>
      </trkpt>
      <trkpt lat="37.324470000" lon="-5.381922000">
        <ele>113.1</ele>
        <time>2020-10-16T13:18:53Z</time>
      </trkpt>
      <trkpt lat="37.324489000" lon="-5.382039000">
        <ele>113.0</ele>
        <time>2020-10-16T13:18:55Z</time>
      </trkpt>
      <trkpt lat="37.324504000" lon="-5.382150000">
        <ele>112.9</ele>
        <time>2020-10-16T13:18:57Z</time>
      </trkpt>
      <trkpt lat="37.324524000" lon="-5.382260000">
        <ele>112.8</ele>
        <time>2020-10-16T13:18:59Z</time>
      </trkpt>
      <trkpt lat="37.324543000" lon="-5.382373000">
        <ele>112.8</ele>
        <time>2020-10-16T13:19:01Z</time>
      </trkpt>
      <trkpt lat="37.324561000" lon="-5.382482000">
        <ele>112.9</ele>
        <time>2020-10-16T13:19:03Z</time>
      </trkpt>
      <trkpt lat="37.324579000" lon="-5.382590000">
        <ele>113.0</ele>
        <time>2020-10-16T13:19:05Z</time>
      </trkpt>
      <trkpt lat="37.324599000" lon="-5.382696000">
        <ele>113.1</ele>
        <time>2020-10-16T13:19:07Z</time>
      </trkpt>
      <trkpt lat="37.324615000" lon="-5.382800000">
        <ele>113.2</ele>
        <time>2020-10-16T13:19:09Z</time>
      </trkpt>
      <trkpt lat="37.324629000" lon="-5.382904000">
        <ele>113.5</ele>
        <time>2020-10-16T13:19:11Z</time>
      </trkpt>
      <trkpt lat="37.324645000" lon="-5.383009000">
        <ele>113.7</ele>
        <time>2020-10-16T13:19:13Z</time>
      </trkpt>
      <trkpt lat="37.324662000" lon="-5.383115000">
        <ele>113.9</ele>
        <time>2020-10-16T13:19:15Z</time>
      </trkpt>
      <trkpt lat="37.324680000" lon="-5.383222000">
        <ele>114.1</ele>
        <time>2020-10-16T13:19:17Z</time>
      </trkpt>
      <trkpt lat="37.324693000" lon="-5.383332000">
        <ele>114.3</ele>
        <time>2020-10-16T13:19:19Z</time>
      </trkpt>
      <trkpt lat="37.324709000" lon="-5.383440000">
        <ele>114.5</ele>
        <time>2020-10-16T13:19:21Z</time>
      </trkpt>
      <trkpt lat="37.324728000" lon="-5.383548000">
        <ele>114.5</ele>
        <time>2020-10-16T13:19:23Z</time>
      </trkpt>
      <trkpt lat="37.324744000" lon="-5.383659000">
        <ele>114.5</ele>
        <time>2020-10-16T13:19:25Z</time>
      </trkpt>
      <trkpt lat="37.324762000" lon="-5.383766000">
        <ele>114.5</ele>
        <time>2020-10-16T13:19:27Z</time>
      </trkpt>
      <trkpt lat="37.324778000" lon="-5.383876000">
        <ele>114.5</ele>
        <time>2020-10-16T13:19:29Z</time>
      </trkpt>
      <trkpt lat="37.324793000" lon="-5.383984000">
        <ele>114.5</ele>
        <time>2020-10-16T13:19:31Z</time>
      </trkpt>
      <trkpt lat="37.324811000" lon="-5.384085000">
        <ele>114.5</ele>
        <time>2020-10-16T13:19:33Z</time>
      </trkpt>
      <trkpt lat="37.324830000" lon="-5.384192000">
        <ele>114.6</ele>
        <time>2020-10-16T13:19:35Z</time>
      </trkpt>
      <trkpt lat="37.324845000" lon="-5.384296000">
        <ele>114.8</ele>
        <time>2020-10-16T13:19:37Z</time>
      </trkpt>
      <trkpt lat="37.324863000" lon="-5.384402000">
        <ele>115.1</ele>
        <time>2020-10-16T13:19:39Z</time>
      </trkpt>
      <trkpt lat="37.324882000" lon="-5.384509000">
        <ele>115.4</ele>
        <time>2020-10-16T13:19:41Z</time>
      </trkpt>
      <trkpt lat="37.324901000" lon="-5.384617000">
        <ele>115.5</ele>
        <time>2020-10-16T13:19:43Z</time>
      </trkpt>
      <trkpt lat="37.324920000" lon="-5.384726000">
        <ele>115.6</ele>
        <time>2020-10-16T13:19:45Z</time>
      </trkpt>
      <trkpt lat="37.324937000" lon="-5.384841000">
        <ele>115.6</ele>
        <time>2020-10-16T13:19:47Z</time>
      </trkpt>
      <trkpt lat="37.324955000" lon="-5.384955000">
        <ele>115.5</ele>
        <time>2020-10-16T13:19:49Z</time>
      </trkpt>
      <trkpt lat="37.324966000" lon="-5.385057000">
        <ele>115.4</ele>
        <time>2020-10-16T13:19:51Z</time>
      </trkpt>
      <trkpt lat="37.324982000" lon="-5.385158000">
        <ele>115.3</ele>
        <time>2020-10-16T13:19:53Z</time>
      </trkpt>
      <trkpt lat="37.325003000" lon="-5.385273000">
        <ele>115.1</ele>
        <time>2020-10-16T13:19:55Z</time>
      </trkpt>
      <trkpt lat="37.325033000" lon="-5.385398000">
        <ele>114.7</ele>
        <time>2020-10-16T13:19:57Z</time>
      </trkpt>
      <trkpt lat="37.325058000" lon="-5.385534000">
        <ele>114.2</ele>
        <time>2020-10-16T13:19:59Z</time>
      </trkpt>
      <trkpt lat="37.325091000" lon="-5.385677000">
        <ele>113.5</ele>
        <time>2020-10-16T13:20:01Z</time>
      </trkpt>
      <trkpt lat="37.325118000" lon="-5.385834000">
        <ele>112.6</ele>
        <time>2020-10-16T13:20:03Z</time>
      </trkpt>
      <trkpt lat="37.325147000" lon="-5.385997000">
        <ele>111.9</ele>
        <time>2020-10-16T13:20:05Z</time>
      </trkpt>
      <trkpt lat="37.325180000" lon="-5.386167000">
        <ele>111.3</ele>
        <time>2020-10-16T13:20:07Z</time>
      </trkpt>
      <trkpt lat="37.325212000" lon="-5.386348000">
        <ele>110.6</ele>
        <time>2020-10-16T13:20:09Z</time>
      </trkpt>
      <trkpt lat="37.325252000" lon="-5.386538000">
        <ele>110.1</ele>
        <time>2020-10-16T13:20:11Z</time>
      </trkpt>
      <trkpt lat="37.325285000" lon="-5.386719000">
        <ele>109.6</ele>
        <time>2020-10-16T13:20:13Z</time>
      </trkpt>
      <trkpt lat="37.325317000" lon="-5.386906000">
        <ele>109.1</ele>
        <time>2020-10-16T13:20:15Z</time>
      </trkpt>
      <trkpt lat="37.325352000" lon="-5.387101000">
        <ele>108.5</ele>
        <time>2020-10-16T13:20:17Z</time>
      </trkpt>
      <trkpt lat="37.325384000" lon="-5.387294000">
        <ele>108.1</ele>
        <time>2020-10-16T13:20:19Z</time>
      </trkpt>
      <trkpt lat="37.325415000" lon="-5.387478000">
        <ele>107.8</ele>
        <time>2020-10-16T13:20:21Z</time>
      </trkpt>
      <trkpt lat="37.325445000" lon="-5.387661000">
        <ele>107.7</ele>
        <time>2020-10-16T13:20:23Z</time>
      </trkpt>
      <trkpt lat="37.325497000" lon="-5.387832000">
        <ele>107.8</ele>
        <time>2020-10-16T13:20:25Z</time>
      </trkpt>
      <trkpt lat="37.325564000" lon="-5.387978000">
        <ele>107.9</ele>
        <time>2020-10-16T13:20:27Z</time>
      </trkpt>
      <trkpt lat="37.325602000" lon="-5.388130000">
        <ele>108.2</ele>
        <time>2020-10-16T13:20:29Z</time>
      </trkpt>
      <trkpt lat="37.325611000" lon="-5.388281000">
        <ele>108.5</ele>
        <time>2020-10-16T13:20:31Z</time>
      </trkpt>
      <trkpt lat="37.325619000" lon="-5.388427000">
        <ele>108.9</ele>
        <time>2020-10-16T13:20:33Z</time>
      </trkpt>
      <trkpt lat="37.325636000" lon="-5.388568000">
        <ele>109.3</ele>
        <time>2020-10-16T13:20:35Z</time>
      </trkpt>
      <trkpt lat="37.325661000" lon="-5.388690000">
        <ele>109.6</ele>
        <time>2020-10-16T13:20:37Z</time>
      </trkpt>
      <trkpt lat="37.325683000" lon="-5.388807000">
        <ele>110.0</ele>
        <time>2020-10-16T13:20:39Z</time>
      </trkpt>
      <trkpt lat="37.325719000" lon="-5.388911000">
        <ele>110.4</ele>
        <time>2020-10-16T13:20:41Z</time>
      </trkpt>
      <trkpt lat="37.325776000" lon="-5.389018000">
        <ele>110.5</ele>
        <time>2020-10-16T13:20:43Z</time>
      </trkpt>
      <trkpt lat="37.325822000" lon="-5.389117000">
        <ele>110.6</ele>
        <time>2020-10-16T13:20:45Z</time>
      </trkpt>
      <trkpt lat="37.325846000" lon="-5.389225000">
        <ele>110.6</ele>
        <time>2020-10-16T13:20:47Z</time>
      </trkpt>
      <trkpt lat="37.325859000" lon="-5.389340000">
        <ele>110.5</ele>
        <time>2020-10-16T13:20:49Z</time>
      </trkpt>
      <trkpt lat="37.325866000" lon="-5.389459000">
        <ele>110.5</ele>
        <time>2020-10-16T13:20:51Z</time>
      </trkpt>
      <trkpt lat="37.325872000" lon="-5.389583000">
        <ele>110.4</ele>
        <time>2020-10-16T13:20:53Z</time>
      </trkpt>
      <trkpt lat="37.325897000" lon="-5.389710000">
        <ele>110.3</ele>
        <time>2020-10-16T13:20:55Z</time>
      </trkpt>
      <trkpt lat="37.325926000" lon="-5.389837000">
        <ele>110.2</ele>
        <time>2020-10-16T13:20:57Z</time>
      </trkpt>
      <trkpt lat="37.325955000" lon="-5.389977000">
        <ele>110.1</ele>
        <time>2020-10-16T13:20:59Z</time>
      </trkpt>
      <trkpt lat="37.325989000" lon="-5.390122000">
        <ele>110.1</ele>
        <time>2020-10-16T13:21:01Z</time>
      </trkpt>
      <trkpt lat="37.326019000" lon="-5.390257000">
        <ele>110.1</ele>
        <time>2020-10-16T13:21:03Z</time>
      </trkpt>
      <trkpt lat="37.326050000" lon="-5.390398000">
        <ele>110.2</ele>
        <time>2020-10-16T13:21:05Z</time>
      </trkpt>
      <trkpt lat="37.326075000" lon="-5.390536000">
        <ele>110.3</ele>
        <time>2020-10-16T13:21:07Z</time>
      </trkpt>
      <trkpt lat="37.326110000" lon="-5.390673000">
        <ele>110.4</ele>
        <time>2020-10-16T13:21:09Z</time>
      </trkpt>
      <trkpt lat="37.326140000" lon="-5.390815000">
        <ele>110.5</ele>
        <time>2020-10-16T13:21:11Z</time>
      </trkpt>
      <trkpt lat="37.326171000" lon="-5.390954000">
        <ele>110.6</ele>
        <time>2020-10-16T13:21:13Z</time>
      </trkpt>
      <trkpt lat="37.326207000" lon="-5.391096000">
        <ele>110.7</ele>
        <time>2020-10-16T13:21:15Z</time>
      </trkpt>
      <trkpt lat="37.326234000" lon="-5.391244000">
        <ele>110.8</ele>
        <time>2020-10-16T13:21:17Z</time>
      </trkpt>
      <trkpt lat="37.326268000" lon="-5.391388000">
        <ele>111.0</ele>
        <time>2020-10-16T13:21:19Z</time>
      </trkpt>
      <trkpt lat="37.326298000" lon="-5.391527000">
        <ele>111.3</ele>
        <time>2020-10-16T13:21:21Z</time>
      </trkpt>
      <trkpt lat="37.326327000" lon="-5.391671000">
        <ele>111.5</ele>
        <time>2020-10-16T13:21:23Z</time>
      </trkpt>
      <trkpt lat="37.326362000" lon="-5.391809000">
        <ele>111.6</ele>
        <time>2020-10-16T13:21:25Z</time>
      </trkpt>
      <trkpt lat="37.326395000" lon="-5.391955000">
        <ele>111.8</ele>
        <time>2020-10-16T13:21:27Z</time>
      </trkpt>
      <trkpt lat="37.326427000" lon="-5.392095000">
        <ele>111.9</ele>
        <time>2020-10-16T13:21:29Z</time>
      </trkpt>
      <trkpt lat="37.326459000" lon="-5.392235000">
        <ele>111.9</ele>
        <time>2020-10-16T13:21:31Z</time>
      </trkpt>
      <trkpt lat="37.326493000" lon="-5.392375000">
        <ele>111.8</ele>
        <time>2020-10-16T13:21:33Z</time>
      </trkpt>
      <trkpt lat="37.326525000" lon="-5.392509000">
        <ele>111.6</ele>
        <time>2020-10-16T13:21:35Z</time>
      </trkpt>
      <trkpt lat="37.326555000" lon="-5.392649000">
        <ele>111.4</ele>
        <time>2020-10-16T13:21:37Z</time>
      </trkpt>
      <trkpt lat="37.326591000" lon="-5.392787000">
        <ele>111.1</ele>
        <time>2020-10-16T13:21:39Z</time>
      </trkpt>
      <trkpt lat="37.326621000" lon="-5.392922000">
        <ele>110.6</ele>
        <time>2020-10-16T13:21:41Z</time>
      </trkpt>
      <trkpt lat="37.326653000" lon="-5.393059000">
        <ele>110.1</ele>
        <time>2020-10-16T13:21:43Z</time>
      </trkpt>
      <trkpt lat="37.326686000" lon="-5.393192000">
        <ele>109.5</ele>
        <time>2020-10-16T13:21:45Z</time>
      </trkpt>
      <trkpt lat="37.326713000" lon="-5.393328000">
        <ele>109.0</ele>
        <time>2020-10-16T13:21:47Z</time>
      </trkpt>
      <trkpt lat="37.326743000" lon="-5.393459000">
        <ele>108.5</ele>
        <time>2020-10-16T13:21:49Z</time>
      </trkpt>
      <trkpt lat="37.326777000" lon="-5.393595000">
        <ele>108.0</ele>
        <time>2020-10-16T13:21:51Z</time>
      </trkpt>
      <trkpt lat="37.326813000" lon="-5.393732000">
        <ele>107.6</ele>
        <time>2020-10-16T13:21:53Z</time>
      </trkpt>
      <trkpt lat="37.326842000" lon="-5.393874000">
        <ele>107.4</ele>
        <time>2020-10-16T13:21:55Z</time>
      </trkpt>
      <trkpt lat="37.326879000" lon="-5.394008000">
        <ele>107.2</ele>
        <time>2020-10-16T13:21:57Z</time>
      </trkpt>
      <trkpt lat="37.326907000" lon="-5.394142000">
        <ele>107.1</ele>
        <time>2020-10-16T13:21:59Z</time>
      </trkpt>
      <trkpt lat="37.326942000" lon="-5.394282000">
        <ele>107.0</ele>
        <time>2020-10-16T13:22:01Z</time>
      </trkpt>
      <trkpt lat="37.326972000" lon="-5.394418000">
        <ele>107.0</ele>
        <time>2020-10-16T13:22:03Z</time>
      </trkpt>
      <trkpt lat="37.327006000" lon="-5.394559000">
        <ele>107.1</ele>
        <time>2020-10-16T13:22:05Z</time>
      </trkpt>
      <trkpt lat="37.327035000" lon="-5.394700000">
        <ele>107.2</ele>
        <time>2020-10-16T13:22:07Z</time>
      </trkpt>
      <trkpt lat="37.327066000" lon="-5.394833000">
        <ele>107.2</ele>
        <time>2020-10-16T13:22:09Z</time>
      </trkpt>
      <trkpt lat="37.327094000" lon="-5.394964000">
        <ele>107.2</ele>
        <time>2020-10-16T13:22:11Z</time>
      </trkpt>
      <trkpt lat="37.327125000" lon="-5.395096000">
        <ele>107.3</ele>
        <time>2020-10-16T13:22:13Z</time>
      </trkpt>
      <trkpt lat="37.327155000" lon="-5.395234000">
        <ele>107.4</ele>
        <time>2020-10-16T13:22:15Z</time>
      </trkpt>
      <trkpt lat="37.327185000" lon="-5.395360000">
        <ele>107.5</ele>
        <time>2020-10-16T13:22:17Z</time>
      </trkpt>
      <trkpt lat="37.327213000" lon="-5.395488000">
        <ele>107.5</ele>
        <time>2020-10-16T13:22:19Z</time>
      </trkpt>
      <trkpt lat="37.327243000" lon="-5.395613000">
        <ele>107.5</ele>
        <time>2020-10-16T13:22:21Z</time>
      </trkpt>
      <trkpt lat="37.327269000" lon="-5.395739000">
        <ele>107.5</ele>
        <time>2020-10-16T13:22:23Z</time>
      </trkpt>
      <trkpt lat="37.327294000" lon="-5.395862000">
        <ele>107.5</ele>
        <time>2020-10-16T13:22:25Z</time>
      </trkpt>
      <trkpt lat="37.327321000" lon="-5.395984000">
        <ele>107.5</ele>
        <time>2020-10-16T13:22:27Z</time>
      </trkpt>
      <trkpt lat="37.327349000" lon="-5.396097000">
        <ele>107.4</ele>
        <time>2020-10-16T13:22:29Z</time>
      </trkpt>
      <trkpt lat="37.327375000" lon="-5.396210000">
        <ele>107.4</ele>
        <time>2020-10-16T13:22:31Z</time>
      </trkpt>
      <trkpt lat="37.327401000" lon="-5.396322000">
        <ele>107.3</ele>
        <time>2020-10-16T13:22:33Z</time>
      </trkpt>
      <trkpt lat="37.327421000" lon="-5.396433000">
        <ele>107.1</ele>
        <time>2020-10-16T13:22:35Z</time>
      </trkpt>
      <trkpt lat="37.327450000" lon="-5.396552000">
        <ele>106.9</ele>
        <time>2020-10-16T13:22:37Z</time>
      </trkpt>
      <trkpt lat="37.327478000" lon="-5.396666000">
        <ele>106.8</ele>
        <time>2020-10-16T13:22:39Z</time>
      </trkpt>
      <trkpt lat="37.327508000" lon="-5.396776000">
        <ele>106.7</ele>
        <time>2020-10-16T13:22:41Z</time>
      </trkpt>
      <trkpt lat="37.327544000" lon="-5.396875000">
        <ele>106.7</ele>
        <time>2020-10-16T13:22:43Z</time>
      </trkpt>
      <trkpt lat="37.327576000" lon="-5.396982000">
        <ele>106.7</ele>
        <time>2020-10-16T13:22:45Z</time>
      </trkpt>
      <trkpt lat="37.327611000" lon="-5.397089000">
        <ele>106.7</ele>
        <time>2020-10-16T13:22:47Z</time>
      </trkpt>
      <trkpt lat="37.327654000" lon="-5.397199000">
        <ele>106.6</ele>
        <time>2020-10-16T13:22:49Z</time>
      </trkpt>
      <trkpt lat="37.327689000" lon="-5.397308000">
        <ele>106.5</ele>
        <time>2020-10-16T13:22:51Z</time>
      </trkpt>
      <trkpt lat="37.327728000" lon="-5.397421000">
        <ele>106.5</ele>
        <time>2020-10-16T13:22:53Z</time>
      </trkpt>
      <trkpt lat="37.327766000" lon="-5.397537000">
        <ele>106.5</ele>
        <time>2020-10-16T13:22:55Z</time>
      </trkpt>
      <trkpt lat="37.327809000" lon="-5.397646000">
        <ele>106.5</ele>
        <time>2020-10-16T13:22:57Z</time>
      </trkpt>
      <trkpt lat="37.327851000" lon="-5.397751000">
        <ele>106.5</ele>
        <time>2020-10-16T13:22:59Z</time>
      </trkpt>
      <trkpt lat="37.327894000" lon="-5.397858000">
        <ele>106.4</ele>
        <time>2020-10-16T13:23:01Z</time>
      </trkpt>
      <trkpt lat="37.327939000" lon="-5.397967000">
        <ele>106.3</ele>
        <time>2020-10-16T13:23:03Z</time>
      </trkpt>
      <trkpt lat="37.327976000" lon="-5.398081000">
        <ele>106.2</ele>
        <time>2020-10-16T13:23:05Z</time>
      </trkpt>
      <trkpt lat="37.328013000" lon="-5.398190000">
        <ele>106.1</ele>
        <time>2020-10-16T13:23:07Z</time>
      </trkpt>
      <trkpt lat="37.328057000" lon="-5.398297000">
        <ele>106.1</ele>
        <time>2020-10-16T13:23:09Z</time>
      </trkpt>
      <trkpt lat="37.328096000" lon="-5.398403000">
        <ele>106.2</ele>
        <time>2020-10-16T13:23:11Z</time>
      </trkpt>
      <trkpt lat="37.328134000" lon="-5.398510000">
        <ele>106.3</ele>
        <time>2020-10-16T13:23:13Z</time>
      </trkpt>
      <trkpt lat="37.328172000" lon="-5.398613000">
        <ele>106.5</ele>
        <time>2020-10-16T13:23:15Z</time>
      </trkpt>
      <trkpt lat="37.328210000" lon="-5.398715000">
        <ele>106.6</ele>
        <time>2020-10-16T13:23:17Z</time>
      </trkpt>
      <trkpt lat="37.328253000" lon="-5.398814000">
        <ele>106.8</ele>
        <time>2020-10-16T13:23:19Z</time>
      </trkpt>
      <trkpt lat="37.328288000" lon="-5.398918000">
        <ele>107.0</ele>
        <time>2020-10-16T13:23:21Z</time>
      </trkpt>
      <trkpt lat="37.328327000" lon="-5.399020000">
        <ele>107.2</ele>
        <time>2020-10-16T13:23:23Z</time>
      </trkpt>
      <trkpt lat="37.328362000" lon="-5.399121000">
        <ele>107.4</ele>
        <time>2020-10-16T13:23:25Z</time>
      </trkpt>
      <trkpt lat="37.328397000" lon="-5.399214000">
        <ele>107.5</ele>
        <time>2020-10-16T13:23:27Z</time>
      </trkpt>
      <trkpt lat="37.328436000" lon="-5.399308000">
        <ele>107.7</ele>
        <time>2020-10-16T13:23:29Z</time>
      </trkpt>
      <trkpt lat="37.328472000" lon="-5.399406000">
        <ele>107.8</ele>
        <time>2020-10-16T13:23:31Z</time>
      </trkpt>
      <trkpt lat="37.328504000" lon="-5.399502000">
        <ele>107.9</ele>
        <time>2020-10-16T13:23:33Z</time>
      </trkpt>
      <trkpt lat="37.328540000" lon="-5.399595000">
        <ele>108.0</ele>
        <time>2020-10-16T13:23:35Z</time>
      </trkpt>
      <trkpt lat="37.328576000" lon="-5.399691000">
        <ele>108.0</ele>
        <time>2020-10-16T13:23:37Z</time>
      </trkpt>
      <trkpt lat="37.328616000" lon="-5.399789000">
        <ele>108.0</ele>
        <time>2020-10-16T13:23:39Z</time>
      </trkpt>
      <trkpt lat="37.328651000" lon="-5.399888000">
        <ele>108.0</ele>
        <time>2020-10-16T13:23:41Z</time>
      </trkpt>
      <trkpt lat="37.328688000" lon="-5.399985000">
        <ele>108.1</ele>
        <time>2020-10-16T13:23:43Z</time>
      </trkpt>
      <trkpt lat="37.328724000" lon="-5.400081000">
        <ele>108.2</ele>
        <time>2020-10-16T13:23:45Z</time>
      </trkpt>
      <trkpt lat="37.328762000" lon="-5.400189000">
        <ele>108.3</ele>
        <time>2020-10-16T13:23:47Z</time>
      </trkpt>
      <trkpt lat="37.328802000" lon="-5.400299000">
        <ele>108.4</ele>
        <time>2020-10-16T13:23:49Z</time>
      </trkpt>
      <trkpt lat="37.328837000" lon="-5.400393000">
        <ele>108.5</ele>
        <time>2020-10-16T13:23:51Z</time>
      </trkpt>
      <trkpt lat="37.328888000" lon="-5.400528000">
        <ele>108.5</ele>
        <time>2020-10-16T13:23:54Z</time>
      </trkpt>
      <trkpt lat="37.328925000" lon="-5.400632000">
        <ele>108.7</ele>
        <time>2020-10-16T13:23:56Z</time>
      </trkpt>
      <trkpt lat="37.328961000" lon="-5.400742000">
        <ele>109.0</ele>
        <time>2020-10-16T13:23:58Z</time>
      </trkpt>
      <trkpt lat="37.328999000" lon="-5.400836000">
        <ele>109.4</ele>
        <time>2020-10-16T13:24:00Z</time>
      </trkpt>
      <trkpt lat="37.329033000" lon="-5.400930000">
        <ele>109.7</ele>
        <time>2020-10-16T13:24:02Z</time>
      </trkpt>
      <trkpt lat="37.329091000" lon="-5.401063000">
        <ele>110.1</ele>
        <time>2020-10-16T13:24:05Z</time>
      </trkpt>
      <trkpt lat="37.329138000" lon="-5.401189000">
        <ele>110.3</ele>
        <time>2020-10-16T13:24:08Z</time>
      </trkpt>
      <trkpt lat="37.329183000" lon="-5.401321000">
        <ele>110.5</ele>
        <time>2020-10-16T13:24:11Z</time>
      </trkpt>
      <trkpt lat="37.329230000" lon="-5.401452000">
        <ele>110.6</ele>
        <time>2020-10-16T13:24:14Z</time>
      </trkpt>
      <trkpt lat="37.329277000" lon="-5.401584000">
        <ele>110.8</ele>
        <time>2020-10-16T13:24:17Z</time>
      </trkpt>
      <trkpt lat="37.329318000" lon="-5.401713000">
        <ele>111.0</ele>
        <time>2020-10-16T13:24:20Z</time>
      </trkpt>
      <trkpt lat="37.329347000" lon="-5.401834000">
        <ele>111.3</ele>
        <time>2020-10-16T13:24:23Z</time>
      </trkpt>
      <trkpt lat="37.329384000" lon="-5.401956000">
        <ele>111.5</ele>
        <time>2020-10-16T13:24:26Z</time>
      </trkpt>
      <trkpt lat="37.329416000" lon="-5.402082000">
        <ele>111.6</ele>
        <time>2020-10-16T13:24:29Z</time>
      </trkpt>
      <trkpt lat="37.329450000" lon="-5.402214000">
        <ele>111.8</ele>
        <time>2020-10-16T13:24:32Z</time>
      </trkpt>
      <trkpt lat="37.329480000" lon="-5.402351000">
        <ele>112.1</ele>
        <time>2020-10-16T13:24:35Z</time>
      </trkpt>
      <trkpt lat="37.329508000" lon="-5.402486000">
        <ele>112.5</ele>
        <time>2020-10-16T13:24:38Z</time>
      </trkpt>
      <trkpt lat="37.329533000" lon="-5.402623000">
        <ele>112.9</ele>
        <time>2020-10-16T13:24:41Z</time>
      </trkpt>
      <trkpt lat="37.329562000" lon="-5.402762000">
        <ele>113.5</ele>
        <time>2020-10-16T13:24:44Z</time>
      </trkpt>
      <trkpt lat="37.329588000" lon="-5.402904000">
        <ele>114.1</ele>
        <time>2020-10-16T13:24:47Z</time>
      </trkpt>
      <trkpt lat="37.329613000" lon="-5.403048000">
        <ele>114.7</ele>
        <time>2020-10-16T13:24:50Z</time>
      </trkpt>
      <trkpt lat="37.329644000" lon="-5.403194000">
        <ele>115.3</ele>
        <time>2020-10-16T13:24:53Z</time>
      </trkpt>
      <trkpt lat="37.329671000" lon="-5.403337000">
        <ele>115.7</ele>
        <time>2020-10-16T13:24:56Z</time>
      </trkpt>
      <trkpt lat="37.329698000" lon="-5.403474000">
        <ele>116.2</ele>
        <time>2020-10-16T13:24:59Z</time>
      </trkpt>
      <trkpt lat="37.329720000" lon="-5.403602000">
        <ele>116.5</ele>
        <time>2020-10-16T13:25:02Z</time>
      </trkpt>
      <trkpt lat="37.329741000" lon="-5.403728000">
        <ele>116.9</ele>
        <time>2020-10-16T13:25:05Z</time>
      </trkpt>
      <trkpt lat="37.329761000" lon="-5.403851000">
        <ele>117.3</ele>
        <time>2020-10-16T13:25:08Z</time>
      </trkpt>
      <trkpt lat="37.329785000" lon="-5.403966000">
        <ele>117.6</ele>
        <time>2020-10-16T13:25:11Z</time>
      </trkpt>
      <trkpt lat="37.329807000" lon="-5.404077000">
        <ele>118.1</ele>
        <time>2020-10-16T13:25:14Z</time>
      </trkpt>
      <trkpt lat="37.329826000" lon="-5.404187000">
        <ele>118.5</ele>
        <time>2020-10-16T13:25:17Z</time>
      </trkpt>
      <trkpt lat="37.329846000" lon="-5.404299000">
        <ele>119.0</ele>
        <time>2020-10-16T13:25:20Z</time>
      </trkpt>
      <trkpt lat="37.329866000" lon="-5.404407000">
        <ele>119.5</ele>
        <time>2020-10-16T13:25:23Z</time>
      </trkpt>
      <trkpt lat="37.329882000" lon="-5.404508000">
        <ele>120.0</ele>
        <time>2020-10-16T13:25:26Z</time>
      </trkpt>
      <trkpt lat="37.329900000" lon="-5.404608000">
        <ele>120.5</ele>
        <time>2020-10-16T13:25:29Z</time>
      </trkpt>
      <trkpt lat="37.329929000" lon="-5.404739000">
        <ele>121.1</ele>
        <time>2020-10-16T13:25:33Z</time>
      </trkpt>
      <trkpt lat="37.329953000" lon="-5.404842000">
        <ele>121.6</ele>
        <time>2020-10-16T13:25:36Z</time>
      </trkpt>
      <trkpt lat="37.329973000" lon="-5.404950000">
        <ele>122.2</ele>
        <time>2020-10-16T13:25:39Z</time>
      </trkpt>
      <trkpt lat="37.329994000" lon="-5.405063000">
        <ele>122.6</ele>
        <time>2020-10-16T13:25:42Z</time>
      </trkpt>
      <trkpt lat="37.330013000" lon="-5.405166000">
        <ele>123.0</ele>
        <time>2020-10-16T13:25:45Z</time>
      </trkpt>
      <trkpt lat="37.330036000" lon="-5.405292000">
        <ele>123.3</ele>
        <time>2020-10-16T13:25:49Z</time>
      </trkpt>
      <trkpt lat="37.330061000" lon="-5.405414000">
        <ele>123.5</ele>
        <time>2020-10-16T13:25:53Z</time>
      </trkpt>
      <trkpt lat="37.330082000" lon="-5.405513000">
        <ele>123.8</ele>
        <time>2020-10-16T13:25:56Z</time>
      </trkpt>
      <trkpt lat="37.330104000" lon="-5.405617000">
        <ele>124.3</ele>
        <time>2020-10-16T13:25:59Z</time>
      </trkpt>
      <trkpt lat="37.330122000" lon="-5.405721000">
        <ele>124.8</ele>
        <time>2020-10-16T13:26:02Z</time>
      </trkpt>
      <trkpt lat="37.330141000" lon="-5.405832000">
        <ele>125.5</ele>
        <time>2020-10-16T13:26:05Z</time>
      </trkpt>
      <trkpt lat="37.330159000" lon="-5.405938000">
        <ele>126.3</ele>
        <time>2020-10-16T13:26:08Z</time>
      </trkpt>
      <trkpt lat="37.330173000" lon="-5.406039000">
        <ele>127.0</ele>
        <time>2020-10-16T13:26:11Z</time>
      </trkpt>
      <trkpt lat="37.330193000" lon="-5.406173000">
        <ele>127.7</ele>
        <time>2020-10-16T13:26:15Z</time>
      </trkpt>
      <trkpt lat="37.330224000" lon="-5.406298000">
        <ele>128.5</ele>
        <time>2020-10-16T13:26:19Z</time>
      </trkpt>
      <trkpt lat="37.330243000" lon="-5.406415000">
        <ele>129.3</ele>
        <time>2020-10-16T13:26:23Z</time>
      </trkpt>
      <trkpt lat="37.330263000" lon="-5.406540000">
        <ele>130.1</ele>
        <time>2020-10-16T13:26:27Z</time>
      </trkpt>
      <trkpt lat="37.330268000" lon="-5.406661000">
        <ele>130.9</ele>
        <time>2020-10-16T13:26:31Z</time>
      </trkpt>
      <trkpt lat="37.330267000" lon="-5.406791000">
        <ele>131.7</ele>
        <time>2020-10-16T13:26:35Z</time>
      </trkpt>
      <trkpt lat="37.330263000" lon="-5.406901000">
        <ele>132.5</ele>
        <time>2020-10-16T13:26:38Z</time>
      </trkpt>
      <trkpt lat="37.330253000" lon="-5.407003000">
        <ele>133.2</ele>
        <time>2020-10-16T13:26:41Z</time>
      </trkpt>
      <trkpt lat="37.330238000" lon="-5.407134000">
        <ele>133.8</ele>
        <time>2020-10-16T13:26:45Z</time>
      </trkpt>
      <trkpt lat="37.330227000" lon="-5.407236000">
        <ele>134.5</ele>
        <time>2020-10-16T13:26:48Z</time>
      </trkpt>
      <trkpt lat="37.330207000" lon="-5.407365000">
        <ele>135.3</ele>
        <time>2020-10-16T13:26:52Z</time>
      </trkpt>
      <trkpt lat="37.330180000" lon="-5.407461000">
        <ele>135.9</ele>
        <time>2020-10-16T13:26:55Z</time>
      </trkpt>
      <trkpt lat="37.330153000" lon="-5.407558000">
        <ele>136.6</ele>
        <time>2020-10-16T13:26:58Z</time>
      </trkpt>
      <trkpt lat="37.330117000" lon="-5.407683000">
        <ele>137.3</ele>
        <time>2020-10-16T13:27:02Z</time>
      </trkpt>
      <trkpt lat="37.330081000" lon="-5.407803000">
        <ele>137.9</ele>
        <time>2020-10-16T13:27:06Z</time>
      </trkpt>
      <trkpt lat="37.330054000" lon="-5.407932000">
        <ele>138.5</ele>
        <time>2020-10-16T13:27:10Z</time>
      </trkpt>
      <trkpt lat="37.330039000" lon="-5.408066000">
        <ele>139.0</ele>
        <time>2020-10-16T13:27:14Z</time>
      </trkpt>
      <trkpt lat="37.330027000" lon="-5.408170000">
        <ele>139.5</ele>
        <time>2020-10-16T13:27:17Z</time>
      </trkpt>
      <trkpt lat="37.330027000" lon="-5.408290000">
        <ele>139.8</ele>
        <time>2020-10-16T13:27:20Z</time>
      </trkpt>
      <trkpt lat="37.330071000" lon="-5.408445000">
        <ele>140.1</ele>
        <time>2020-10-16T13:27:23Z</time>
      </trkpt>
      <trkpt lat="37.330139000" lon="-5.408547000">
        <ele>140.3</ele>
        <time>2020-10-16T13:27:25Z</time>
      </trkpt>
      <trkpt lat="37.330183000" lon="-5.408663000">
        <ele>140.4</ele>
        <time>2020-10-16T13:27:27Z</time>
      </trkpt>
      <trkpt lat="37.330171000" lon="-5.408774000">
        <ele>140.5</ele>
        <time>2020-10-16T13:27:29Z</time>
      </trkpt>
      <trkpt lat="37.330100000" lon="-5.408837000">
        <ele>140.5</ele>
        <time>2020-10-16T13:27:31Z</time>
      </trkpt>
      <trkpt lat="37.330016000" lon="-5.408844000">
        <ele>140.4</ele>
        <time>2020-10-16T13:27:33Z</time>
      </trkpt>
      <trkpt lat="37.329931000" lon="-5.408845000">
        <ele>140.3</ele>
        <time>2020-10-16T13:27:35Z</time>
      </trkpt>
      <trkpt lat="37.329847000" lon="-5.408883000">
        <ele>140.1</ele>
        <time>2020-10-16T13:27:37Z</time>
      </trkpt>
      <trkpt lat="37.329765000" lon="-5.408925000">
        <ele>139.8</ele>
        <time>2020-10-16T13:27:39Z</time>
      </trkpt>
      <trkpt lat="37.329653000" lon="-5.408980000">
        <ele>139.5</ele>
        <time>2020-10-16T13:27:42Z</time>
      </trkpt>
      <trkpt lat="37.329574000" lon="-5.409004000">
        <ele>139.3</ele>
        <time>2020-10-16T13:27:44Z</time>
      </trkpt>
      <trkpt lat="37.329465000" lon="-5.409042000">
        <ele>139.0</ele>
        <time>2020-10-16T13:27:47Z</time>
      </trkpt>
      <trkpt lat="37.329371000" lon="-5.409071000">
        <ele>138.8</ele>
        <time>2020-10-16T13:27:50Z</time>
      </trkpt>
      <trkpt lat="37.329280000" lon="-5.409092000">
        <ele>138.7</ele>
        <time>2020-10-16T13:27:53Z</time>
      </trkpt>
      <trkpt lat="37.329197000" lon="-5.409128000">
        <ele>138.6</ele>
        <time>2020-10-16T13:27:56Z</time>
      </trkpt>
      <trkpt lat="37.329155000" lon="-5.409218000">
        <ele>138.5</ele>
        <time>2020-10-16T13:28:00Z</time>
      </trkpt>
      <trkpt lat="37.329096000" lon="-5.409310000">
        <ele>138.5</ele>
        <time>2020-10-16T13:28:06Z</time>
      </trkpt>
      <trkpt lat="37.329023000" lon="-5.409255000">
        <ele>138.5</ele>
        <time>2020-10-16T13:28:09Z</time>
      </trkpt>
      <trkpt lat="37.328954000" lon="-5.409201000">
        <ele>138.5</ele>
        <time>2020-10-16T13:28:12Z</time>
      </trkpt>
      <trkpt lat="37.328846000" lon="-5.409181000">
        <ele>138.5</ele>
        <time>2020-10-16T13:28:16Z</time>
      </trkpt>
      <trkpt lat="37.328748000" lon="-5.409163000">
        <ele>138.5</ele>
        <time>2020-10-16T13:28:19Z</time>
      </trkpt>
      <trkpt lat="37.328649000" lon="-5.409143000">
        <ele>138.5</ele>
        <time>2020-10-16T13:28:22Z</time>
      </trkpt>
      <trkpt lat="37.328549000" lon="-5.409140000">
        <ele>138.5</ele>
        <time>2020-10-16T13:28:25Z</time>
      </trkpt>
      <trkpt lat="37.328439000" lon="-5.409137000">
        <ele>138.5</ele>
        <time>2020-10-16T13:28:28Z</time>
      </trkpt>
      <trkpt lat="37.328322000" lon="-5.409130000">
        <ele>138.5</ele>
        <time>2020-10-16T13:28:31Z</time>
      </trkpt>
      <trkpt lat="37.328239000" lon="-5.409125000">
        <ele>138.5</ele>
        <time>2020-10-16T13:28:33Z</time>
      </trkpt>
      <trkpt lat="37.328122000" lon="-5.409119000">
        <ele>138.5</ele>
        <time>2020-10-16T13:28:36Z</time>
      </trkpt>
      <trkpt lat="37.328003000" lon="-5.409116000">
        <ele>138.6</ele>
        <time>2020-10-16T13:28:39Z</time>
      </trkpt>
      <trkpt lat="37.327886000" lon="-5.409118000">
        <ele>138.7</ele>
        <time>2020-10-16T13:28:42Z</time>
      </trkpt>
      <trkpt lat="37.327774000" lon="-5.409121000">
        <ele>138.9</ele>
        <time>2020-10-16T13:28:45Z</time>
      </trkpt>
      <trkpt lat="37.327664000" lon="-5.409122000">
        <ele>139.2</ele>
        <time>2020-10-16T13:28:48Z</time>
      </trkpt>
      <trkpt lat="37.327555000" lon="-5.409124000">
        <ele>139.4</ele>
        <time>2020-10-16T13:28:51Z</time>
      </trkpt>
      <trkpt lat="37.327447000" lon="-5.409137000">
        <ele>139.5</ele>
        <time>2020-10-16T13:28:54Z</time>
      </trkpt>
      <trkpt lat="37.327340000" lon="-5.409156000">
        <ele>139.5</ele>
        <time>2020-10-16T13:28:57Z</time>
      </trkpt>
      <trkpt lat="37.327238000" lon="-5.409189000">
        <ele>139.5</ele>
        <time>2020-10-16T13:29:00Z</time>
      </trkpt>
      <trkpt lat="37.327140000" lon="-5.409232000">
        <ele>139.5</ele>
        <time>2020-10-16T13:29:03Z</time>
      </trkpt>
      <trkpt lat="37.327045000" lon="-5.409291000">
        <ele>139.4</ele>
        <time>2020-10-16T13:29:06Z</time>
      </trkpt>
      <trkpt lat="37.326951000" lon="-5.409362000">
        <ele>139.0</ele>
        <time>2020-10-16T13:29:09Z</time>
      </trkpt>
      <trkpt lat="37.326864000" lon="-5.409447000">
        <ele>138.5</ele>
        <time>2020-10-16T13:29:12Z</time>
      </trkpt>
      <trkpt lat="37.326785000" lon="-5.409535000">
        <ele>138.1</ele>
        <time>2020-10-16T13:29:15Z</time>
      </trkpt>
      <trkpt lat="37.326704000" lon="-5.409639000">
        <ele>137.5</ele>
        <time>2020-10-16T13:29:18Z</time>
      </trkpt>
      <trkpt lat="37.326632000" lon="-5.409754000">
        <ele>137.0</ele>
        <time>2020-10-16T13:29:21Z</time>
      </trkpt>
      <trkpt lat="37.326570000" lon="-5.409882000">
        <ele>136.5</ele>
        <time>2020-10-16T13:29:24Z</time>
      </trkpt>
      <trkpt lat="37.326518000" lon="-5.410012000">
        <ele>136.1</ele>
        <time>2020-10-16T13:29:27Z</time>
      </trkpt>
      <trkpt lat="37.326474000" lon="-5.410144000">
        <ele>135.7</ele>
        <time>2020-10-16T13:29:30Z</time>
      </trkpt>
      <trkpt lat="37.326434000" lon="-5.410285000">
        <ele>135.4</ele>
        <time>2020-10-16T13:29:33Z</time>
      </trkpt>
      <trkpt lat="37.326399000" lon="-5.410424000">
        <ele>135.2</ele>
        <time>2020-10-16T13:29:36Z</time>
      </trkpt>
      <trkpt lat="37.326363000" lon="-5.410555000">
        <ele>134.9</ele>
        <time>2020-10-16T13:29:39Z</time>
      </trkpt>
      <trkpt lat="37.326328000" lon="-5.410675000">
        <ele>134.8</ele>
        <time>2020-10-16T13:29:42Z</time>
      </trkpt>
      <trkpt lat="37.326362000" lon="-5.410772000">
        <ele>134.8</ele>
        <time>2020-10-16T13:29:46Z</time>
      </trkpt>
      <trkpt lat="37.326449000" lon="-5.410784000">
        <ele>134.7</ele>
        <time>2020-10-16T13:29:50Z</time>
      </trkpt>
      <trkpt lat="37.326486000" lon="-5.410811000">
        <ele>134.8</ele>
        <time>2020-10-16T13:30:38Z</time>
      </trkpt>
      <trkpt lat="37.326302000" lon="-5.411274000">
        <ele>137.5</ele>
        <time>2020-10-16T13:47:09Z</time>
      </trkpt>
      <trkpt lat="37.326259000" lon="-5.411390000">
        <ele>137.3</ele>
        <time>2020-10-16T13:47:13Z</time>
      </trkpt>
      <trkpt lat="37.326213000" lon="-5.411495000">
        <ele>137.0</ele>
        <time>2020-10-16T13:47:17Z</time>
      </trkpt>
      <trkpt lat="37.326165000" lon="-5.411584000">
        <ele>136.8</ele>
        <time>2020-10-16T13:47:21Z</time>
      </trkpt>
      <trkpt lat="37.326072000" lon="-5.411638000">
        <ele>136.6</ele>
        <time>2020-10-16T13:47:25Z</time>
      </trkpt>
      <trkpt lat="37.326012000" lon="-5.411716000">
        <ele>136.5</ele>
        <time>2020-10-16T13:47:28Z</time>
      </trkpt>
      <trkpt lat="37.325953000" lon="-5.411812000">
        <ele>136.2</ele>
        <time>2020-10-16T13:47:31Z</time>
      </trkpt>
      <trkpt lat="37.325900000" lon="-5.411919000">
        <ele>135.9</ele>
        <time>2020-10-16T13:47:34Z</time>
      </trkpt>
      <trkpt lat="37.325842000" lon="-5.412025000">
        <ele>135.5</ele>
        <time>2020-10-16T13:47:37Z</time>
      </trkpt>
      <trkpt lat="37.325784000" lon="-5.412116000">
        <ele>135.3</ele>
        <time>2020-10-16T13:47:41Z</time>
      </trkpt>
      <trkpt lat="37.325718000" lon="-5.412226000">
        <ele>135.0</ele>
        <time>2020-10-16T13:48:49Z</time>
      </trkpt>
      <trkpt lat="37.325661000" lon="-5.412356000">
        <ele>134.8</ele>
        <time>2020-10-16T13:48:52Z</time>
      </trkpt>
      <trkpt lat="37.325604000" lon="-5.412440000">
        <ele>134.7</ele>
        <time>2020-10-16T13:48:54Z</time>
      </trkpt>
      <trkpt lat="37.325539000" lon="-5.412521000">
        <ele>134.8</ele>
        <time>2020-10-16T13:48:56Z</time>
      </trkpt>
      <trkpt lat="37.325471000" lon="-5.412600000">
        <ele>134.9</ele>
        <time>2020-10-16T13:48:58Z</time>
      </trkpt>
      <trkpt lat="37.325374000" lon="-5.412666000">
        <ele>135.1</ele>
        <time>2020-10-16T13:49:00Z</time>
      </trkpt>
      <trkpt lat="37.325312000" lon="-5.412749000">
        <ele>135.3</ele>
        <time>2020-10-16T13:49:02Z</time>
      </trkpt>
      <trkpt lat="37.325251000" lon="-5.412828000">
        <ele>135.5</ele>
        <time>2020-10-16T13:49:04Z</time>
      </trkpt>
      <trkpt lat="37.325187000" lon="-5.412902000">
        <ele>135.7</ele>
        <time>2020-10-16T13:49:06Z</time>
      </trkpt>
      <trkpt lat="37.325126000" lon="-5.412975000">
        <ele>135.9</ele>
        <time>2020-10-16T13:49:08Z</time>
      </trkpt>
      <trkpt lat="37.325069000" lon="-5.413049000">
        <ele>136.0</ele>
        <time>2020-10-16T13:49:10Z</time>
      </trkpt>
      <trkpt lat="37.324984000" lon="-5.413151000">
        <ele>136.1</ele>
        <time>2020-10-16T13:49:13Z</time>
      </trkpt>
      <trkpt lat="37.324900000" lon="-5.413253000">
        <ele>136.2</ele>
        <time>2020-10-16T13:49:16Z</time>
      </trkpt>
      <trkpt lat="37.324842000" lon="-5.413325000">
        <ele>136.4</ele>
        <time>2020-10-16T13:49:18Z</time>
      </trkpt>
      <trkpt lat="37.324783000" lon="-5.413398000">
        <ele>136.5</ele>
        <time>2020-10-16T13:49:20Z</time>
      </trkpt>
      <trkpt lat="37.324724000" lon="-5.413475000">
        <ele>136.5</ele>
        <time>2020-10-16T13:49:22Z</time>
      </trkpt>
      <trkpt lat="37.324669000" lon="-5.413552000">
        <ele>136.5</ele>
        <time>2020-10-16T13:49:24Z</time>
      </trkpt>
      <trkpt lat="37.324590000" lon="-5.413658000">
        <ele>136.5</ele>
        <time>2020-10-16T13:49:27Z</time>
      </trkpt>
      <trkpt lat="37.324511000" lon="-5.413762000">
        <ele>136.5</ele>
        <time>2020-10-16T13:49:30Z</time>
      </trkpt>
      <trkpt lat="37.324436000" lon="-5.413861000">
        <ele>136.7</ele>
        <time>2020-10-16T13:49:33Z</time>
      </trkpt>
      <trkpt lat="37.324360000" lon="-5.413956000">
        <ele>136.9</ele>
        <time>2020-10-16T13:49:36Z</time>
      </trkpt>
      <trkpt lat="37.324285000" lon="-5.414049000">
        <ele>137.1</ele>
        <time>2020-10-16T13:49:39Z</time>
      </trkpt>
      <trkpt lat="37.324211000" lon="-5.414143000">
        <ele>137.4</ele>
        <time>2020-10-16T13:49:42Z</time>
      </trkpt>
      <trkpt lat="37.324136000" lon="-5.414244000">
        <ele>137.6</ele>
        <time>2020-10-16T13:49:45Z</time>
      </trkpt>
      <trkpt lat="37.324061000" lon="-5.414339000">
        <ele>137.8</ele>
        <time>2020-10-16T13:49:48Z</time>
      </trkpt>
      <trkpt lat="37.323982000" lon="-5.414436000">
        <ele>138.0</ele>
        <time>2020-10-16T13:49:51Z</time>
      </trkpt>
      <trkpt lat="37.323902000" lon="-5.414527000">
        <ele>138.2</ele>
        <time>2020-10-16T13:49:54Z</time>
      </trkpt>
      <trkpt lat="37.323828000" lon="-5.414614000">
        <ele>138.4</ele>
        <time>2020-10-16T13:49:57Z</time>
      </trkpt>
      <trkpt lat="37.323762000" lon="-5.414697000">
        <ele>138.5</ele>
        <time>2020-10-16T13:50:00Z</time>
      </trkpt>
      <trkpt lat="37.323699000" lon="-5.414781000">
        <ele>138.7</ele>
        <time>2020-10-16T13:50:03Z</time>
      </trkpt>
      <trkpt lat="37.323637000" lon="-5.414864000">
        <ele>138.8</ele>
        <time>2020-10-16T13:50:06Z</time>
      </trkpt>
      <trkpt lat="37.323580000" lon="-5.414957000">
        <ele>139.0</ele>
        <time>2020-10-16T13:50:09Z</time>
      </trkpt>
      <trkpt lat="37.323518000" lon="-5.415065000">
        <ele>139.2</ele>
        <time>2020-10-16T13:50:13Z</time>
      </trkpt>
      <trkpt lat="37.323469000" lon="-5.415161000">
        <ele>139.4</ele>
        <time>2020-10-16T13:50:17Z</time>
      </trkpt>
      <trkpt lat="37.323543000" lon="-5.415215000">
        <ele>139.6</ele>
        <time>2020-10-16T13:50:39Z</time>
      </trkpt>
      <trkpt lat="37.323619000" lon="-5.415254000">
        <ele>139.9</ele>
        <time>2020-10-16T13:50:43Z</time>
      </trkpt>
      <trkpt lat="37.323704000" lon="-5.415308000">
        <ele>140.2</ele>
        <time>2020-10-16T13:50:47Z</time>
      </trkpt>
      <trkpt lat="37.323787000" lon="-5.415335000">
        <ele>140.5</ele>
        <time>2020-10-16T13:50:50Z</time>
      </trkpt>
      <trkpt lat="37.323886000" lon="-5.415375000">
        <ele>140.7</ele>
        <time>2020-10-16T13:50:53Z</time>
      </trkpt>
      <trkpt lat="37.323997000" lon="-5.415413000">
        <ele>140.9</ele>
        <time>2020-10-16T13:50:56Z</time>
      </trkpt>
      <trkpt lat="37.324076000" lon="-5.415437000">
        <ele>141.0</ele>
        <time>2020-10-16T13:50:58Z</time>
      </trkpt>
      <trkpt lat="37.324158000" lon="-5.415470000">
        <ele>141.0</ele>
        <time>2020-10-16T13:51:00Z</time>
      </trkpt>
      <trkpt lat="37.324245000" lon="-5.415501000">
        <ele>140.9</ele>
        <time>2020-10-16T13:51:02Z</time>
      </trkpt>
      <trkpt lat="37.324340000" lon="-5.415522000">
        <ele>140.7</ele>
        <time>2020-10-16T13:51:04Z</time>
      </trkpt>
      <trkpt lat="37.324426000" lon="-5.415551000">
        <ele>140.4</ele>
        <time>2020-10-16T13:51:06Z</time>
      </trkpt>
      <trkpt lat="37.324513000" lon="-5.415589000">
        <ele>139.9</ele>
        <time>2020-10-16T13:51:08Z</time>
      </trkpt>
      <trkpt lat="37.324594000" lon="-5.415620000">
        <ele>139.5</ele>
        <time>2020-10-16T13:51:10Z</time>
      </trkpt>
      <trkpt lat="37.324669000" lon="-5.415662000">
        <ele>139.0</ele>
        <time>2020-10-16T13:51:12Z</time>
      </trkpt>
      <trkpt lat="37.324785000" lon="-5.415710000">
        <ele>138.5</ele>
        <time>2020-10-16T13:51:15Z</time>
      </trkpt>
      <trkpt lat="37.324899000" lon="-5.415745000">
        <ele>138.0</ele>
        <time>2020-10-16T13:51:18Z</time>
      </trkpt>
      <trkpt lat="37.325013000" lon="-5.415768000">
        <ele>137.5</ele>
        <time>2020-10-16T13:51:21Z</time>
      </trkpt>
      <trkpt lat="37.325128000" lon="-5.415803000">
        <ele>137.1</ele>
        <time>2020-10-16T13:51:24Z</time>
      </trkpt>
      <trkpt lat="37.325240000" lon="-5.415790000">
        <ele>136.7</ele>
        <time>2020-10-16T13:51:27Z</time>
      </trkpt>
      <trkpt lat="37.325344000" lon="-5.415811000">
        <ele>136.4</ele>
        <time>2020-10-16T13:51:30Z</time>
      </trkpt>
      <trkpt lat="37.325463000" lon="-5.415836000">
        <ele>136.0</ele>
        <time>2020-10-16T13:51:33Z</time>
      </trkpt>
      <trkpt lat="37.325582000" lon="-5.415858000">
        <ele>135.6</ele>
        <time>2020-10-16T13:51:36Z</time>
      </trkpt>
      <trkpt lat="37.325699000" lon="-5.415879000">
        <ele>135.3</ele>
        <time>2020-10-16T13:51:39Z</time>
      </trkpt>
      <trkpt lat="37.325780000" lon="-5.415893000">
        <ele>134.9</ele>
        <time>2020-10-16T13:51:41Z</time>
      </trkpt>
      <trkpt lat="37.325864000" lon="-5.415901000">
        <ele>134.5</ele>
        <time>2020-10-16T13:51:43Z</time>
      </trkpt>
      <trkpt lat="37.325951000" lon="-5.415910000">
        <ele>134.2</ele>
        <time>2020-10-16T13:51:45Z</time>
      </trkpt>
      <trkpt lat="37.326039000" lon="-5.415921000">
        <ele>133.9</ele>
        <time>2020-10-16T13:51:47Z</time>
      </trkpt>
      <trkpt lat="37.326127000" lon="-5.415935000">
        <ele>133.6</ele>
        <time>2020-10-16T13:51:49Z</time>
      </trkpt>
      <trkpt lat="37.326207000" lon="-5.415949000">
        <ele>133.5</ele>
        <time>2020-10-16T13:51:51Z</time>
      </trkpt>
      <trkpt lat="37.326322000" lon="-5.415973000">
        <ele>133.3</ele>
        <time>2020-10-16T13:51:54Z</time>
      </trkpt>
      <trkpt lat="37.326437000" lon="-5.415999000">
        <ele>133.1</ele>
        <time>2020-10-16T13:51:57Z</time>
      </trkpt>
      <trkpt lat="37.326554000" lon="-5.416018000">
        <ele>133.0</ele>
        <time>2020-10-16T13:52:00Z</time>
      </trkpt>
      <trkpt lat="37.326669000" lon="-5.416039000">
        <ele>133.1</ele>
        <time>2020-10-16T13:52:03Z</time>
      </trkpt>
      <trkpt lat="37.326751000" lon="-5.416058000">
        <ele>133.2</ele>
        <time>2020-10-16T13:52:05Z</time>
      </trkpt>
      <trkpt lat="37.326834000" lon="-5.416079000">
        <ele>133.4</ele>
        <time>2020-10-16T13:52:07Z</time>
      </trkpt>
      <trkpt lat="37.326916000" lon="-5.416096000">
        <ele>133.5</ele>
        <time>2020-10-16T13:52:09Z</time>
      </trkpt>
      <trkpt lat="37.326998000" lon="-5.416113000">
        <ele>133.8</ele>
        <time>2020-10-16T13:52:11Z</time>
      </trkpt>
      <trkpt lat="37.327108000" lon="-5.416136000">
        <ele>134.1</ele>
        <time>2020-10-16T13:52:14Z</time>
      </trkpt>
      <trkpt lat="37.327202000" lon="-5.416142000">
        <ele>134.4</ele>
        <time>2020-10-16T13:52:17Z</time>
      </trkpt>
      <trkpt lat="37.327309000" lon="-5.416163000">
        <ele>134.6</ele>
        <time>2020-10-16T13:52:21Z</time>
      </trkpt>
      <trkpt lat="37.327386000" lon="-5.416195000">
        <ele>134.9</ele>
        <time>2020-10-16T13:52:24Z</time>
      </trkpt>
      <trkpt lat="37.327471000" lon="-5.416229000">
        <ele>135.1</ele>
        <time>2020-10-16T13:52:27Z</time>
      </trkpt>
      <trkpt lat="37.327569000" lon="-5.416267000">
        <ele>135.2</ele>
        <time>2020-10-16T13:52:31Z</time>
      </trkpt>
      <trkpt lat="37.327657000" lon="-5.416301000">
        <ele>135.1</ele>
        <time>2020-10-16T13:52:35Z</time>
      </trkpt>
      <trkpt lat="37.327739000" lon="-5.416336000">
        <ele>134.9</ele>
        <time>2020-10-16T13:52:38Z</time>
      </trkpt>
      <trkpt lat="37.327822000" lon="-5.416375000">
        <ele>134.6</ele>
        <time>2020-10-16T13:52:41Z</time>
      </trkpt>
      <trkpt lat="37.327909000" lon="-5.416416000">
        <ele>134.4</ele>
        <time>2020-10-16T13:52:44Z</time>
      </trkpt>
      <trkpt lat="37.327983000" lon="-5.416462000">
        <ele>133.9</ele>
        <time>2020-10-16T13:52:48Z</time>
      </trkpt>
      <trkpt lat="37.328047000" lon="-5.416540000">
        <ele>133.5</ele>
        <time>2020-10-16T13:52:53Z</time>
      </trkpt>
      <trkpt lat="37.328103000" lon="-5.416636000">
        <ele>133.2</ele>
        <time>2020-10-16T13:52:57Z</time>
      </trkpt>
      <trkpt lat="37.328145000" lon="-5.416743000">
        <ele>132.9</ele>
        <time>2020-10-16T13:53:00Z</time>
      </trkpt>
      <trkpt lat="37.328182000" lon="-5.416840000">
        <ele>132.6</ele>
        <time>2020-10-16T13:53:03Z</time>
      </trkpt>
      <trkpt lat="37.328220000" lon="-5.416937000">
        <ele>132.5</ele>
        <time>2020-10-16T13:53:06Z</time>
      </trkpt>
      <trkpt lat="37.328249000" lon="-5.417033000">
        <ele>132.5</ele>
        <time>2020-10-16T13:53:09Z</time>
      </trkpt>
      <trkpt lat="37.328278000" lon="-5.417149000">
        <ele>132.5</ele>
        <time>2020-10-16T13:53:13Z</time>
      </trkpt>
      <trkpt lat="37.328297000" lon="-5.417261000">
        <ele>132.6</ele>
        <time>2020-10-16T13:53:17Z</time>
      </trkpt>
      <trkpt lat="37.328326000" lon="-5.417386000">
        <ele>132.8</ele>
        <time>2020-10-16T13:53:21Z</time>
      </trkpt>
      <trkpt lat="37.328349000" lon="-5.417509000">
        <ele>133.0</ele>
        <time>2020-10-16T13:53:25Z</time>
      </trkpt>
      <trkpt lat="37.328373000" lon="-5.417621000">
        <ele>133.4</ele>
        <time>2020-10-16T13:53:29Z</time>
      </trkpt>
      <trkpt lat="37.328407000" lon="-5.417719000">
        <ele>133.6</ele>
        <time>2020-10-16T13:53:34Z</time>
      </trkpt>
      <trkpt lat="37.328424000" lon="-5.417820000">
        <ele>133.9</ele>
        <time>2020-10-16T13:54:08Z</time>
      </trkpt>
      <trkpt lat="37.328450000" lon="-5.417925000">
        <ele>134.2</ele>
        <time>2020-10-16T13:54:14Z</time>
      </trkpt>
      <trkpt lat="37.328460000" lon="-5.418027000">
        <ele>134.5</ele>
        <time>2020-10-16T13:54:19Z</time>
      </trkpt>
      <trkpt lat="37.328501000" lon="-5.418126000">
        <ele>134.9</ele>
        <time>2020-10-16T13:54:24Z</time>
      </trkpt>
      <trkpt lat="37.328565000" lon="-5.418196000">
        <ele>135.4</ele>
        <time>2020-10-16T13:54:30Z</time>
      </trkpt>
      <trkpt lat="37.328646000" lon="-5.418232000">
        <ele>135.9</ele>
        <time>2020-10-16T13:54:36Z</time>
      </trkpt>
      <trkpt lat="37.328673000" lon="-5.418330000">
        <ele>136.5</ele>
        <time>2020-10-16T13:54:50Z</time>
      </trkpt>
      <trkpt lat="37.328621000" lon="-5.418409000">
        <ele>137.1</ele>
        <time>2020-10-16T13:54:54Z</time>
      </trkpt>
      <trkpt lat="37.328566000" lon="-5.418504000">
        <ele>137.6</ele>
        <time>2020-10-16T13:54:58Z</time>
      </trkpt>
      <trkpt lat="37.328532000" lon="-5.418619000">
        <ele>138.1</ele>
        <time>2020-10-16T13:55:03Z</time>
      </trkpt>
      <trkpt lat="37.328495000" lon="-5.418722000">
        <ele>138.5</ele>
        <time>2020-10-16T13:55:07Z</time>
      </trkpt>
      <trkpt lat="37.328452000" lon="-5.418833000">
        <ele>139.0</ele>
        <time>2020-10-16T13:55:11Z</time>
      </trkpt>
      <trkpt lat="37.328415000" lon="-5.418948000">
        <ele>139.4</ele>
        <time>2020-10-16T13:55:15Z</time>
      </trkpt>
      <trkpt lat="37.328385000" lon="-5.419044000">
        <ele>139.6</ele>
        <time>2020-10-16T13:55:18Z</time>
      </trkpt>
      <trkpt lat="37.328352000" lon="-5.419164000">
        <ele>139.8</ele>
        <time>2020-10-16T13:55:22Z</time>
      </trkpt>
      <trkpt lat="37.328326000" lon="-5.419282000">
        <ele>139.9</ele>
        <time>2020-10-16T13:55:26Z</time>
      </trkpt>
      <trkpt lat="37.328311000" lon="-5.419412000">
        <ele>140.0</ele>
        <time>2020-10-16T13:55:30Z</time>
      </trkpt>
      <trkpt lat="37.328295000" lon="-5.419532000">
        <ele>140.0</ele>
        <time>2020-10-16T13:55:33Z</time>
      </trkpt>
      <trkpt lat="37.328273000" lon="-5.419654000">
        <ele>140.0</ele>
        <time>2020-10-16T13:55:36Z</time>
      </trkpt>
      <trkpt lat="37.328252000" lon="-5.419777000">
        <ele>140.0</ele>
        <time>2020-10-16T13:55:39Z</time>
      </trkpt>
      <trkpt lat="37.328241000" lon="-5.419905000">
        <ele>140.0</ele>
        <time>2020-10-16T13:55:42Z</time>
      </trkpt>
      <trkpt lat="37.328229000" lon="-5.420035000">
        <ele>140.0</ele>
        <time>2020-10-16T13:55:45Z</time>
      </trkpt>
      <trkpt lat="37.328214000" lon="-5.420163000">
        <ele>139.9</ele>
        <time>2020-10-16T13:55:48Z</time>
      </trkpt>
      <trkpt lat="37.328208000" lon="-5.420279000">
        <ele>139.8</ele>
        <time>2020-10-16T13:55:56Z</time>
      </trkpt>
      <trkpt lat="37.328173000" lon="-5.420376000">
        <ele>139.6</ele>
        <time>2020-10-16T13:56:00Z</time>
      </trkpt>
      <trkpt lat="37.328141000" lon="-5.420509000">
        <ele>139.4</ele>
        <time>2020-10-16T13:56:04Z</time>
      </trkpt>
      <trkpt lat="37.328154000" lon="-5.420652000">
        <ele>139.1</ele>
        <time>2020-10-16T13:56:07Z</time>
      </trkpt>
      <trkpt lat="37.328172000" lon="-5.420751000">
        <ele>138.7</ele>
        <time>2020-10-16T13:56:09Z</time>
      </trkpt>
      <trkpt lat="37.328210000" lon="-5.420845000">
        <ele>138.3</ele>
        <time>2020-10-16T13:56:11Z</time>
      </trkpt>
      <trkpt lat="37.328250000" lon="-5.420948000">
        <ele>137.7</ele>
        <time>2020-10-16T13:56:13Z</time>
      </trkpt>
      <trkpt lat="37.328267000" lon="-5.421093000">
        <ele>137.1</ele>
        <time>2020-10-16T13:56:15Z</time>
      </trkpt>
      <trkpt lat="37.328301000" lon="-5.421224000">
        <ele>136.4</ele>
        <time>2020-10-16T13:56:17Z</time>
      </trkpt>
      <trkpt lat="37.328346000" lon="-5.421369000">
        <ele>135.5</ele>
        <time>2020-10-16T13:56:19Z</time>
      </trkpt>
      <trkpt lat="37.328386000" lon="-5.421513000">
        <ele>134.6</ele>
        <time>2020-10-16T13:56:21Z</time>
      </trkpt>
      <trkpt lat="37.328428000" lon="-5.421646000">
        <ele>133.5</ele>
        <time>2020-10-16T13:56:23Z</time>
      </trkpt>
      <trkpt lat="37.328466000" lon="-5.421761000">
        <ele>132.5</ele>
        <time>2020-10-16T13:56:25Z</time>
      </trkpt>
      <trkpt lat="37.328509000" lon="-5.421856000">
        <ele>131.4</ele>
        <time>2020-10-16T13:56:27Z</time>
      </trkpt>
      <trkpt lat="37.328555000" lon="-5.421986000">
        <ele>130.2</ele>
        <time>2020-10-16T13:56:30Z</time>
      </trkpt>
      <trkpt lat="37.328586000" lon="-5.422086000">
        <ele>129.0</ele>
        <time>2020-10-16T13:56:32Z</time>
      </trkpt>
      <trkpt lat="37.328588000" lon="-5.422191000">
        <ele>127.9</ele>
        <time>2020-10-16T13:56:34Z</time>
      </trkpt>
      <trkpt lat="37.328587000" lon="-5.422303000">
        <ele>126.7</ele>
        <time>2020-10-16T13:56:36Z</time>
      </trkpt>
      <trkpt lat="37.328583000" lon="-5.422420000">
        <ele>125.5</ele>
        <time>2020-10-16T13:56:38Z</time>
      </trkpt>
      <trkpt lat="37.328576000" lon="-5.422548000">
        <ele>124.4</ele>
        <time>2020-10-16T13:56:40Z</time>
      </trkpt>
      <trkpt lat="37.328565000" lon="-5.422677000">
        <ele>123.2</ele>
        <time>2020-10-16T13:56:42Z</time>
      </trkpt>
      <trkpt lat="37.328552000" lon="-5.422800000">
        <ele>122.1</ele>
        <time>2020-10-16T13:56:44Z</time>
      </trkpt>
      <trkpt lat="37.328541000" lon="-5.422934000">
        <ele>121.2</ele>
        <time>2020-10-16T13:56:46Z</time>
      </trkpt>
      <trkpt lat="37.328534000" lon="-5.423079000">
        <ele>120.2</ele>
        <time>2020-10-16T13:56:48Z</time>
      </trkpt>
      <trkpt lat="37.328533000" lon="-5.423221000">
        <ele>119.3</ele>
        <time>2020-10-16T13:56:50Z</time>
      </trkpt>
      <trkpt lat="37.328519000" lon="-5.423363000">
        <ele>118.4</ele>
        <time>2020-10-16T13:56:52Z</time>
      </trkpt>
      <trkpt lat="37.328508000" lon="-5.423520000">
        <ele>117.5</ele>
        <time>2020-10-16T13:56:54Z</time>
      </trkpt>
      <trkpt lat="37.328497000" lon="-5.423678000">
        <ele>116.6</ele>
        <time>2020-10-16T13:56:56Z</time>
      </trkpt>
      <trkpt lat="37.328482000" lon="-5.423824000">
        <ele>115.8</ele>
        <time>2020-10-16T13:56:58Z</time>
      </trkpt>
      <trkpt lat="37.328473000" lon="-5.423969000">
        <ele>115.0</ele>
        <time>2020-10-16T13:57:00Z</time>
      </trkpt>
      <trkpt lat="37.328459000" lon="-5.424109000">
        <ele>114.1</ele>
        <time>2020-10-16T13:57:02Z</time>
      </trkpt>
      <trkpt lat="37.328446000" lon="-5.424264000">
        <ele>113.2</ele>
        <time>2020-10-16T13:57:04Z</time>
      </trkpt>
      <trkpt lat="37.328436000" lon="-5.424428000">
        <ele>112.3</ele>
        <time>2020-10-16T13:57:06Z</time>
      </trkpt>
      <trkpt lat="37.328427000" lon="-5.424573000">
        <ele>111.3</ele>
        <time>2020-10-16T13:57:08Z</time>
      </trkpt>
      <trkpt lat="37.328416000" lon="-5.424720000">
        <ele>110.5</ele>
        <time>2020-10-16T13:57:10Z</time>
      </trkpt>
      <trkpt lat="37.328404000" lon="-5.424864000">
        <ele>109.7</ele>
        <time>2020-10-16T13:57:12Z</time>
      </trkpt>
      <trkpt lat="37.328391000" lon="-5.425004000">
        <ele>109.1</ele>
        <time>2020-10-16T13:57:14Z</time>
      </trkpt>
      <trkpt lat="37.328390000" lon="-5.425117000">
        <ele>108.5</ele>
        <time>2020-10-16T13:57:16Z</time>
      </trkpt>
      <trkpt lat="37.328446000" lon="-5.425215000">
        <ele>108.0</ele>
        <time>2020-10-16T13:57:19Z</time>
      </trkpt>
      <trkpt lat="37.328531000" lon="-5.425226000">
        <ele>107.5</ele>
        <time>2020-10-16T13:57:23Z</time>
      </trkpt>
      <trkpt lat="37.328630000" lon="-5.425207000">
        <ele>107.2</ele>
        <time>2020-10-16T13:58:00Z</time>
      </trkpt>
      <trkpt lat="37.328727000" lon="-5.425184000">
        <ele>107.0</ele>
        <time>2020-10-16T13:58:03Z</time>
      </trkpt>
      <trkpt lat="37.328810000" lon="-5.425164000">
        <ele>106.9</ele>
        <time>2020-10-16T13:58:05Z</time>
      </trkpt>
      <trkpt lat="37.328912000" lon="-5.425119000">
        <ele>106.8</ele>
        <time>2020-10-16T13:58:07Z</time>
      </trkpt>
      <trkpt lat="37.329010000" lon="-5.425110000">
        <ele>106.8</ele>
        <time>2020-10-16T13:58:09Z</time>
      </trkpt>
      <trkpt lat="37.329106000" lon="-5.425086000">
        <ele>106.7</ele>
        <time>2020-10-16T13:58:11Z</time>
      </trkpt>
      <trkpt lat="37.329211000" lon="-5.425058000">
        <ele>106.5</ele>
        <time>2020-10-16T13:58:13Z</time>
      </trkpt>
      <trkpt lat="37.329302000" lon="-5.425031000">
        <ele>106.1</ele>
        <time>2020-10-16T13:58:15Z</time>
      </trkpt>
      <trkpt lat="37.329385000" lon="-5.425005000">
        <ele>105.6</ele>
        <time>2020-10-16T13:58:17Z</time>
      </trkpt>
      <trkpt lat="37.329480000" lon="-5.424987000">
        <ele>105.0</ele>
        <time>2020-10-16T13:58:19Z</time>
      </trkpt>
      <trkpt lat="37.329568000" lon="-5.424963000">
        <ele>104.4</ele>
        <time>2020-10-16T13:58:21Z</time>
      </trkpt>
      <trkpt lat="37.329655000" lon="-5.424931000">
        <ele>103.6</ele>
        <time>2020-10-16T13:58:23Z</time>
      </trkpt>
      <trkpt lat="37.329737000" lon="-5.424887000">
        <ele>102.9</ele>
        <time>2020-10-16T13:58:25Z</time>
      </trkpt>
      <trkpt lat="37.329828000" lon="-5.424869000">
        <ele>102.2</ele>
        <time>2020-10-16T13:58:27Z</time>
      </trkpt>
      <trkpt lat="37.329923000" lon="-5.424844000">
        <ele>101.6</ele>
        <time>2020-10-16T13:58:29Z</time>
      </trkpt>
      <trkpt lat="37.330021000" lon="-5.424822000">
        <ele>101.1</ele>
        <time>2020-10-16T13:58:31Z</time>
      </trkpt>
      <trkpt lat="37.330128000" lon="-5.424796000">
        <ele>100.7</ele>
        <time>2020-10-16T13:58:33Z</time>
      </trkpt>
      <trkpt lat="37.330224000" lon="-5.424771000">
        <ele>100.5</ele>
        <time>2020-10-16T13:58:35Z</time>
      </trkpt>
      <trkpt lat="37.330320000" lon="-5.424747000">
        <ele>100.4</ele>
        <time>2020-10-16T13:58:37Z</time>
      </trkpt>
      <trkpt lat="37.330421000" lon="-5.424722000">
        <ele>100.5</ele>
        <time>2020-10-16T13:58:39Z</time>
      </trkpt>
      <trkpt lat="37.330515000" lon="-5.424706000">
        <ele>100.6</ele>
        <time>2020-10-16T13:58:41Z</time>
      </trkpt>
      <trkpt lat="37.330596000" lon="-5.424678000">
        <ele>101.0</ele>
        <time>2020-10-16T13:58:43Z</time>
      </trkpt>
      <trkpt lat="37.330682000" lon="-5.424658000">
        <ele>101.5</ele>
        <time>2020-10-16T13:58:45Z</time>
      </trkpt>
      <trkpt lat="37.330803000" lon="-5.424642000">
        <ele>101.9</ele>
        <time>2020-10-16T13:58:48Z</time>
      </trkpt>
      <trkpt lat="37.330886000" lon="-5.424630000">
        <ele>102.4</ele>
        <time>2020-10-16T13:58:50Z</time>
      </trkpt>
      <trkpt lat="37.331003000" lon="-5.424606000">
        <ele>102.6</ele>
        <time>2020-10-16T13:58:53Z</time>
      </trkpt>
      <trkpt lat="37.331109000" lon="-5.424573000">
        <ele>102.8</ele>
        <time>2020-10-16T13:58:56Z</time>
      </trkpt>
      <trkpt lat="37.331189000" lon="-5.424589000">
        <ele>102.9</ele>
        <time>2020-10-16T13:58:59Z</time>
      </trkpt>
      <trkpt lat="37.331272000" lon="-5.424644000">
        <ele>102.9</ele>
        <time>2020-10-16T13:59:04Z</time>
      </trkpt>
      <trkpt lat="37.331348000" lon="-5.424684000">
        <ele>102.7</ele>
        <time>2020-10-16T13:59:08Z</time>
      </trkpt>
      <trkpt lat="37.331396000" lon="-5.424799000">
        <ele>102.5</ele>
        <time>2020-10-16T13:59:11Z</time>
      </trkpt>
      <trkpt lat="37.331439000" lon="-5.424927000">
        <ele>102.2</ele>
        <time>2020-10-16T13:59:14Z</time>
      </trkpt>
      <trkpt lat="37.331482000" lon="-5.425057000">
        <ele>101.8</ele>
        <time>2020-10-16T13:59:17Z</time>
      </trkpt>
      <trkpt lat="37.331529000" lon="-5.425198000">
        <ele>101.5</ele>
        <time>2020-10-16T13:59:20Z</time>
      </trkpt>
      <trkpt lat="37.331564000" lon="-5.425299000">
        <ele>101.3</ele>
        <time>2020-10-16T13:59:22Z</time>
      </trkpt>
      <trkpt lat="37.331593000" lon="-5.425415000">
        <ele>101.0</ele>
        <time>2020-10-16T13:59:24Z</time>
      </trkpt>
      <trkpt lat="37.331637000" lon="-5.425521000">
        <ele>100.9</ele>
        <time>2020-10-16T13:59:26Z</time>
      </trkpt>
      <trkpt lat="37.331678000" lon="-5.425631000">
        <ele>100.9</ele>
        <time>2020-10-16T13:59:28Z</time>
      </trkpt>
      <trkpt lat="37.331723000" lon="-5.425738000">
        <ele>100.9</ele>
        <time>2020-10-16T13:59:30Z</time>
      </trkpt>
      <trkpt lat="37.331764000" lon="-5.425848000">
        <ele>101.0</ele>
        <time>2020-10-16T13:59:32Z</time>
      </trkpt>
      <trkpt lat="37.331802000" lon="-5.425944000">
        <ele>101.2</ele>
        <time>2020-10-16T13:59:34Z</time>
      </trkpt>
      <trkpt lat="37.331831000" lon="-5.426045000">
        <ele>101.3</ele>
        <time>2020-10-16T13:59:36Z</time>
      </trkpt>
      <trkpt lat="37.331865000" lon="-5.426138000">
        <ele>101.4</ele>
        <time>2020-10-16T13:59:38Z</time>
      </trkpt>
      <trkpt lat="37.331919000" lon="-5.426269000">
        <ele>101.4</ele>
        <time>2020-10-16T13:59:41Z</time>
      </trkpt>
      <trkpt lat="37.331966000" lon="-5.426401000">
        <ele>101.2</ele>
        <time>2020-10-16T13:59:44Z</time>
      </trkpt>
      <trkpt lat="37.332012000" lon="-5.426526000">
        <ele>101.0</ele>
        <time>2020-10-16T13:59:47Z</time>
      </trkpt>
      <trkpt lat="37.332061000" lon="-5.426638000">
        <ele>100.8</ele>
        <time>2020-10-16T13:59:50Z</time>
      </trkpt>
      <trkpt lat="37.332101000" lon="-5.426749000">
        <ele>100.5</ele>
        <time>2020-10-16T13:59:53Z</time>
      </trkpt>
      <trkpt lat="37.332156000" lon="-5.426878000">
        <ele>100.2</ele>
        <time>2020-10-16T13:59:56Z</time>
      </trkpt>
      <trkpt lat="37.332195000" lon="-5.426975000">
        <ele>99.8</ele>
        <time>2020-10-16T13:59:58Z</time>
      </trkpt>
      <trkpt lat="37.332233000" lon="-5.427076000">
        <ele>99.5</ele>
        <time>2020-10-16T14:00:00Z</time>
      </trkpt>
      <trkpt lat="37.332281000" lon="-5.427178000">
        <ele>99.1</ele>
        <time>2020-10-16T14:00:02Z</time>
      </trkpt>
      <trkpt lat="37.332318000" lon="-5.427282000">
        <ele>98.8</ele>
        <time>2020-10-16T14:00:04Z</time>
      </trkpt>
      <trkpt lat="37.332356000" lon="-5.427389000">
        <ele>98.5</ele>
        <time>2020-10-16T14:00:06Z</time>
      </trkpt>
      <trkpt lat="37.332399000" lon="-5.427488000">
        <ele>98.4</ele>
        <time>2020-10-16T14:00:08Z</time>
      </trkpt>
      <trkpt lat="37.332443000" lon="-5.427599000">
        <ele>98.3</ele>
        <time>2020-10-16T14:00:10Z</time>
      </trkpt>
      <trkpt lat="37.332480000" lon="-5.427703000">
        <ele>98.2</ele>
        <time>2020-10-16T14:00:12Z</time>
      </trkpt>
      <trkpt lat="37.332525000" lon="-5.427804000">
        <ele>98.1</ele>
        <time>2020-10-16T14:00:14Z</time>
      </trkpt>
      <trkpt lat="37.332560000" lon="-5.427915000">
        <ele>97.9</ele>
        <time>2020-10-16T14:00:16Z</time>
      </trkpt>
      <trkpt lat="37.332595000" lon="-5.428023000">
        <ele>97.8</ele>
        <time>2020-10-16T14:00:18Z</time>
      </trkpt>
      <trkpt lat="37.332631000" lon="-5.428123000">
        <ele>97.7</ele>
        <time>2020-10-16T14:00:20Z</time>
      </trkpt>
      <trkpt lat="37.332663000" lon="-5.428218000">
        <ele>97.6</ele>
        <time>2020-10-16T14:00:22Z</time>
      </trkpt>
      <trkpt lat="37.332706000" lon="-5.428355000">
        <ele>97.5</ele>
        <time>2020-10-16T14:00:25Z</time>
      </trkpt>
      <trkpt lat="37.332744000" lon="-5.428457000">
        <ele>97.5</ele>
        <time>2020-10-16T14:01:02Z</time>
      </trkpt>
      <trkpt lat="37.332775000" lon="-5.428565000">
        <ele>97.3</ele>
        <time>2020-10-16T14:01:06Z</time>
      </trkpt>
      <trkpt lat="37.332808000" lon="-5.428691000">
        <ele>97.1</ele>
        <time>2020-10-16T14:01:09Z</time>
      </trkpt>
      <trkpt lat="37.332846000" lon="-5.428833000">
        <ele>97.0</ele>
        <time>2020-10-16T14:01:12Z</time>
      </trkpt>
      <trkpt lat="37.332874000" lon="-5.428934000">
        <ele>96.9</ele>
        <time>2020-10-16T14:01:14Z</time>
      </trkpt>
      <trkpt lat="37.332899000" lon="-5.429038000">
        <ele>96.8</ele>
        <time>2020-10-16T14:01:16Z</time>
      </trkpt>
      <trkpt lat="37.332925000" lon="-5.429141000">
        <ele>96.8</ele>
        <time>2020-10-16T14:01:18Z</time>
      </trkpt>
      <trkpt lat="37.332954000" lon="-5.429242000">
        <ele>96.8</ele>
        <time>2020-10-16T14:01:20Z</time>
      </trkpt>
      <trkpt lat="37.332981000" lon="-5.429344000">
        <ele>96.7</ele>
        <time>2020-10-16T14:01:22Z</time>
      </trkpt>
      <trkpt lat="37.333008000" lon="-5.429447000">
        <ele>96.5</ele>
        <time>2020-10-16T14:01:24Z</time>
      </trkpt>
      <trkpt lat="37.333039000" lon="-5.429549000">
        <ele>96.3</ele>
        <time>2020-10-16T14:01:26Z</time>
      </trkpt>
      <trkpt lat="37.333077000" lon="-5.429650000">
        <ele>95.9</ele>
        <time>2020-10-16T14:01:28Z</time>
      </trkpt>
      <trkpt lat="37.333115000" lon="-5.429757000">
        <ele>95.5</ele>
        <time>2020-10-16T14:01:30Z</time>
      </trkpt>
      <trkpt lat="37.333159000" lon="-5.429859000">
        <ele>95.3</ele>
        <time>2020-10-16T14:01:32Z</time>
      </trkpt>
      <trkpt lat="37.333196000" lon="-5.429957000">
        <ele>94.9</ele>
        <time>2020-10-16T14:01:34Z</time>
      </trkpt>
      <trkpt lat="37.333243000" lon="-5.430095000">
        <ele>94.6</ele>
        <time>2020-10-16T14:01:37Z</time>
      </trkpt>
      <trkpt lat="37.333280000" lon="-5.430226000">
        <ele>94.5</ele>
        <time>2020-10-16T14:01:40Z</time>
      </trkpt>
      <trkpt lat="37.333313000" lon="-5.430336000">
        <ele>94.2</ele>
        <time>2020-10-16T14:01:42Z</time>
      </trkpt>
      <trkpt lat="37.333354000" lon="-5.430462000">
        <ele>93.9</ele>
        <time>2020-10-16T14:01:44Z</time>
      </trkpt>
      <trkpt lat="37.333391000" lon="-5.430589000">
        <ele>93.6</ele>
        <time>2020-10-16T14:01:46Z</time>
      </trkpt>
      <trkpt lat="37.333428000" lon="-5.430720000">
        <ele>93.4</ele>
        <time>2020-10-16T14:01:48Z</time>
      </trkpt>
      <trkpt lat="37.333460000" lon="-5.430845000">
        <ele>93.1</ele>
        <time>2020-10-16T14:01:50Z</time>
      </trkpt>
      <trkpt lat="37.333484000" lon="-5.430973000">
        <ele>92.8</ele>
        <time>2020-10-16T14:01:52Z</time>
      </trkpt>
      <trkpt lat="37.333510000" lon="-5.431096000">
        <ele>92.6</ele>
        <time>2020-10-16T14:01:54Z</time>
      </trkpt>
      <trkpt lat="37.333524000" lon="-5.431213000">
        <ele>92.5</ele>
        <time>2020-10-16T14:01:56Z</time>
      </trkpt>
      <trkpt lat="37.333536000" lon="-5.431330000">
        <ele>92.5</ele>
        <time>2020-10-16T14:01:58Z</time>
      </trkpt>
      <trkpt lat="37.333560000" lon="-5.431448000">
        <ele>92.6</ele>
        <time>2020-10-16T14:02:00Z</time>
      </trkpt>
      <trkpt lat="37.333577000" lon="-5.431569000">
        <ele>92.7</ele>
        <time>2020-10-16T14:02:02Z</time>
      </trkpt>
      <trkpt lat="37.333594000" lon="-5.431692000">
        <ele>92.9</ele>
        <time>2020-10-16T14:02:04Z</time>
      </trkpt>
      <trkpt lat="37.333604000" lon="-5.431819000">
        <ele>93.0</ele>
        <time>2020-10-16T14:02:06Z</time>
      </trkpt>
      <trkpt lat="37.333613000" lon="-5.431948000">
        <ele>93.2</ele>
        <time>2020-10-16T14:02:08Z</time>
      </trkpt>
      <trkpt lat="37.333626000" lon="-5.432081000">
        <ele>93.5</ele>
        <time>2020-10-16T14:02:10Z</time>
      </trkpt>
      <trkpt lat="37.333641000" lon="-5.432215000">
        <ele>93.8</ele>
        <time>2020-10-16T14:02:12Z</time>
      </trkpt>
      <trkpt lat="37.333654000" lon="-5.432344000">
        <ele>94.3</ele>
        <time>2020-10-16T14:02:14Z</time>
      </trkpt>
      <trkpt lat="37.333667000" lon="-5.432481000">
        <ele>94.7</ele>
        <time>2020-10-16T14:02:16Z</time>
      </trkpt>
      <trkpt lat="37.333680000" lon="-5.432614000">
        <ele>95.0</ele>
        <time>2020-10-16T14:02:18Z</time>
      </trkpt>
      <trkpt lat="37.333693000" lon="-5.432741000">
        <ele>95.1</ele>
        <time>2020-10-16T14:02:20Z</time>
      </trkpt>
      <trkpt lat="37.333695000" lon="-5.432862000">
        <ele>95.0</ele>
        <time>2020-10-16T14:02:22Z</time>
      </trkpt>
      <trkpt lat="37.333700000" lon="-5.432987000">
        <ele>94.7</ele>
        <time>2020-10-16T14:02:24Z</time>
      </trkpt>
      <trkpt lat="37.333698000" lon="-5.433112000">
        <ele>94.5</ele>
        <time>2020-10-16T14:02:26Z</time>
      </trkpt>
      <trkpt lat="37.333703000" lon="-5.433236000">
        <ele>94.2</ele>
        <time>2020-10-16T14:02:28Z</time>
      </trkpt>
      <trkpt lat="37.333714000" lon="-5.433348000">
        <ele>94.0</ele>
        <time>2020-10-16T14:02:30Z</time>
      </trkpt>
      <trkpt lat="37.333718000" lon="-5.433472000">
        <ele>93.8</ele>
        <time>2020-10-16T14:02:32Z</time>
      </trkpt>
      <trkpt lat="37.333715000" lon="-5.433595000">
        <ele>93.6</ele>
        <time>2020-10-16T14:02:34Z</time>
      </trkpt>
      <trkpt lat="37.333718000" lon="-5.433715000">
        <ele>93.5</ele>
        <time>2020-10-16T14:02:36Z</time>
      </trkpt>
      <trkpt lat="37.333719000" lon="-5.433841000">
        <ele>93.4</ele>
        <time>2020-10-16T14:02:38Z</time>
      </trkpt>
      <trkpt lat="37.333721000" lon="-5.433969000">
        <ele>93.3</ele>
        <time>2020-10-16T14:02:40Z</time>
      </trkpt>
      <trkpt lat="37.333720000" lon="-5.434088000">
        <ele>93.3</ele>
        <time>2020-10-16T14:02:42Z</time>
      </trkpt>
      <trkpt lat="37.333713000" lon="-5.434210000">
        <ele>93.3</ele>
        <time>2020-10-16T14:02:44Z</time>
      </trkpt>
      <trkpt lat="37.333704000" lon="-5.434331000">
        <ele>93.4</ele>
        <time>2020-10-16T14:02:46Z</time>
      </trkpt>
      <trkpt lat="37.333680000" lon="-5.434450000">
        <ele>93.5</ele>
        <time>2020-10-16T14:02:48Z</time>
      </trkpt>
      <trkpt lat="37.333657000" lon="-5.434563000">
        <ele>93.6</ele>
        <time>2020-10-16T14:02:50Z</time>
      </trkpt>
      <trkpt lat="37.333627000" lon="-5.434679000">
        <ele>93.7</ele>
        <time>2020-10-16T14:02:52Z</time>
      </trkpt>
      <trkpt lat="37.333599000" lon="-5.434796000">
        <ele>93.8</ele>
        <time>2020-10-16T14:02:54Z</time>
      </trkpt>
      <trkpt lat="37.333581000" lon="-5.434911000">
        <ele>93.8</ele>
        <time>2020-10-16T14:02:56Z</time>
      </trkpt>
      <trkpt lat="37.333565000" lon="-5.435031000">
        <ele>93.8</ele>
        <time>2020-10-16T14:02:58Z</time>
      </trkpt>
      <trkpt lat="37.333555000" lon="-5.435152000">
        <ele>93.6</ele>
        <time>2020-10-16T14:03:00Z</time>
      </trkpt>
      <trkpt lat="37.333551000" lon="-5.435257000">
        <ele>93.5</ele>
        <time>2020-10-16T14:03:02Z</time>
      </trkpt>
      <trkpt lat="37.333559000" lon="-5.435368000">
        <ele>93.3</ele>
        <time>2020-10-16T14:03:04Z</time>
      </trkpt>
      <trkpt lat="37.333570000" lon="-5.435486000">
        <ele>93.2</ele>
        <time>2020-10-16T14:03:06Z</time>
      </trkpt>
      <trkpt lat="37.333593000" lon="-5.435596000">
        <ele>93.1</ele>
        <time>2020-10-16T14:03:08Z</time>
      </trkpt>
      <trkpt lat="37.333612000" lon="-5.435712000">
        <ele>93.1</ele>
        <time>2020-10-16T14:03:10Z</time>
      </trkpt>
      <trkpt lat="37.333630000" lon="-5.435833000">
        <ele>93.1</ele>
        <time>2020-10-16T14:03:12Z</time>
      </trkpt>
      <trkpt lat="37.333644000" lon="-5.435949000">
        <ele>93.1</ele>
        <time>2020-10-16T14:03:14Z</time>
      </trkpt>
      <trkpt lat="37.333665000" lon="-5.436064000">
        <ele>93.1</ele>
        <time>2020-10-16T14:03:16Z</time>
      </trkpt>
      <trkpt lat="37.333685000" lon="-5.436179000">
        <ele>93.2</ele>
        <time>2020-10-16T14:03:18Z</time>
      </trkpt>
      <trkpt lat="37.333709000" lon="-5.436288000">
        <ele>93.2</ele>
        <time>2020-10-16T14:03:20Z</time>
      </trkpt>
      <trkpt lat="37.333722000" lon="-5.436403000">
        <ele>93.2</ele>
        <time>2020-10-16T14:03:22Z</time>
      </trkpt>
      <trkpt lat="37.333740000" lon="-5.436520000">
        <ele>93.2</ele>
        <time>2020-10-16T14:03:24Z</time>
      </trkpt>
      <trkpt lat="37.333758000" lon="-5.436630000">
        <ele>93.2</ele>
        <time>2020-10-16T14:03:26Z</time>
      </trkpt>
      <trkpt lat="37.333775000" lon="-5.436750000">
        <ele>93.1</ele>
        <time>2020-10-16T14:03:28Z</time>
      </trkpt>
      <trkpt lat="37.333800000" lon="-5.436859000">
        <ele>93.1</ele>
        <time>2020-10-16T14:03:30Z</time>
      </trkpt>
      <trkpt lat="37.333823000" lon="-5.436980000">
        <ele>93.0</ele>
        <time>2020-10-16T14:03:32Z</time>
      </trkpt>
      <trkpt lat="37.333840000" lon="-5.437094000">
        <ele>92.9</ele>
        <time>2020-10-16T14:03:34Z</time>
      </trkpt>
      <trkpt lat="37.333855000" lon="-5.437202000">
        <ele>92.8</ele>
        <time>2020-10-16T14:03:36Z</time>
      </trkpt>
      <trkpt lat="37.333878000" lon="-5.437313000">
        <ele>92.8</ele>
        <time>2020-10-16T14:03:38Z</time>
      </trkpt>
      <trkpt lat="37.333902000" lon="-5.437427000">
        <ele>92.8</ele>
        <time>2020-10-16T14:03:40Z</time>
      </trkpt>
      <trkpt lat="37.333927000" lon="-5.437542000">
        <ele>92.9</ele>
        <time>2020-10-16T14:03:42Z</time>
      </trkpt>
      <trkpt lat="37.333948000" lon="-5.437650000">
        <ele>93.2</ele>
        <time>2020-10-16T14:03:44Z</time>
      </trkpt>
      <trkpt lat="37.333967000" lon="-5.437764000">
        <ele>93.5</ele>
        <time>2020-10-16T14:03:46Z</time>
      </trkpt>
      <trkpt lat="37.333979000" lon="-5.437880000">
        <ele>93.7</ele>
        <time>2020-10-16T14:03:48Z</time>
      </trkpt>
      <trkpt lat="37.333994000" lon="-5.437995000">
        <ele>94.1</ele>
        <time>2020-10-16T14:03:50Z</time>
      </trkpt>
      <trkpt lat="37.334017000" lon="-5.438114000">
        <ele>94.4</ele>
        <time>2020-10-16T14:03:52Z</time>
      </trkpt>
      <trkpt lat="37.334032000" lon="-5.438224000">
        <ele>94.5</ele>
        <time>2020-10-16T14:03:54Z</time>
      </trkpt>
      <trkpt lat="37.334041000" lon="-5.438339000">
        <ele>94.7</ele>
        <time>2020-10-16T14:03:56Z</time>
      </trkpt>
      <trkpt lat="37.334053000" lon="-5.438450000">
        <ele>94.8</ele>
        <time>2020-10-16T14:03:58Z</time>
      </trkpt>
      <trkpt lat="37.334068000" lon="-5.438563000">
        <ele>94.7</ele>
        <time>2020-10-16T14:04:00Z</time>
      </trkpt>
      <trkpt lat="37.334089000" lon="-5.438674000">
        <ele>94.5</ele>
        <time>2020-10-16T14:04:02Z</time>
      </trkpt>
      <trkpt lat="37.334098000" lon="-5.438786000">
        <ele>94.3</ele>
        <time>2020-10-16T14:04:04Z</time>
      </trkpt>
      <trkpt lat="37.334108000" lon="-5.438898000">
        <ele>93.9</ele>
        <time>2020-10-16T14:04:06Z</time>
      </trkpt>
      <trkpt lat="37.334119000" lon="-5.439011000">
        <ele>93.5</ele>
        <time>2020-10-16T14:04:08Z</time>
      </trkpt>
      <trkpt lat="37.334133000" lon="-5.439123000">
        <ele>93.3</ele>
        <time>2020-10-16T14:04:10Z</time>
      </trkpt>
      <trkpt lat="37.334149000" lon="-5.439238000">
        <ele>92.9</ele>
        <time>2020-10-16T14:04:12Z</time>
      </trkpt>
      <trkpt lat="37.334164000" lon="-5.439351000">
        <ele>92.6</ele>
        <time>2020-10-16T14:04:14Z</time>
      </trkpt>
      <trkpt lat="37.334179000" lon="-5.439464000">
        <ele>92.5</ele>
        <time>2020-10-16T14:04:16Z</time>
      </trkpt>
      <trkpt lat="37.334193000" lon="-5.439580000">
        <ele>92.4</ele>
        <time>2020-10-16T14:04:18Z</time>
      </trkpt>
      <trkpt lat="37.334205000" lon="-5.439684000">
        <ele>92.4</ele>
        <time>2020-10-16T14:04:20Z</time>
      </trkpt>
      <trkpt lat="37.334216000" lon="-5.439795000">
        <ele>92.5</ele>
        <time>2020-10-16T14:04:22Z</time>
      </trkpt>
      <trkpt lat="37.334231000" lon="-5.439900000">
        <ele>92.8</ele>
        <time>2020-10-16T14:04:24Z</time>
      </trkpt>
      <trkpt lat="37.334247000" lon="-5.440004000">
        <ele>93.2</ele>
        <time>2020-10-16T14:04:26Z</time>
      </trkpt>
      <trkpt lat="37.334263000" lon="-5.440108000">
        <ele>93.5</ele>
        <time>2020-10-16T14:04:28Z</time>
      </trkpt>
      <trkpt lat="37.334279000" lon="-5.440214000">
        <ele>93.8</ele>
        <time>2020-10-16T14:04:30Z</time>
      </trkpt>
      <trkpt lat="37.334295000" lon="-5.440319000">
        <ele>94.0</ele>
        <time>2020-10-16T14:04:32Z</time>
      </trkpt>
      <trkpt lat="37.334313000" lon="-5.440423000">
        <ele>94.2</ele>
        <time>2020-10-16T14:04:34Z</time>
      </trkpt>
      <trkpt lat="37.334331000" lon="-5.440528000">
        <ele>94.3</ele>
        <time>2020-10-16T14:04:36Z</time>
      </trkpt>
      <trkpt lat="37.334350000" lon="-5.440634000">
        <ele>94.2</ele>
        <time>2020-10-16T14:04:38Z</time>
      </trkpt>
      <trkpt lat="37.334368000" lon="-5.440747000">
        <ele>93.9</ele>
        <time>2020-10-16T14:04:40Z</time>
      </trkpt>
      <trkpt lat="37.334393000" lon="-5.440857000">
        <ele>93.5</ele>
        <time>2020-10-16T14:04:42Z</time>
      </trkpt>
      <trkpt lat="37.334419000" lon="-5.441001000">
        <ele>93.0</ele>
        <time>2020-10-16T14:04:45Z</time>
      </trkpt>
      <trkpt lat="37.334440000" lon="-5.441135000">
        <ele>92.4</ele>
        <time>2020-10-16T14:04:48Z</time>
      </trkpt>
      <trkpt lat="37.334457000" lon="-5.441271000">
        <ele>91.7</ele>
        <time>2020-10-16T14:04:51Z</time>
      </trkpt>
      <trkpt lat="37.334473000" lon="-5.441418000">
        <ele>91.2</ele>
        <time>2020-10-16T14:04:54Z</time>
      </trkpt>
      <trkpt lat="37.334486000" lon="-5.441520000">
        <ele>90.9</ele>
        <time>2020-10-16T14:04:56Z</time>
      </trkpt>
      <trkpt lat="37.334498000" lon="-5.441633000">
        <ele>90.7</ele>
        <time>2020-10-16T14:04:58Z</time>
      </trkpt>
      <trkpt lat="37.334510000" lon="-5.441738000">
        <ele>90.5</ele>
        <time>2020-10-16T14:05:00Z</time>
      </trkpt>
      <trkpt lat="37.334520000" lon="-5.441879000">
        <ele>90.5</ele>
        <time>2020-10-16T14:05:03Z</time>
      </trkpt>
      <trkpt lat="37.334534000" lon="-5.442036000">
        <ele>90.6</ele>
        <time>2020-10-16T14:05:06Z</time>
      </trkpt>
      <trkpt lat="37.334545000" lon="-5.442149000">
        <ele>90.9</ele>
        <time>2020-10-16T14:05:08Z</time>
      </trkpt>
      <trkpt lat="37.334554000" lon="-5.442262000">
        <ele>91.3</ele>
        <time>2020-10-16T14:05:10Z</time>
      </trkpt>
      <trkpt lat="37.334559000" lon="-5.442368000">
        <ele>91.6</ele>
        <time>2020-10-16T14:05:12Z</time>
      </trkpt>
      <trkpt lat="37.334557000" lon="-5.442474000">
        <ele>92.1</ele>
        <time>2020-10-16T14:05:14Z</time>
      </trkpt>
      <trkpt lat="37.334555000" lon="-5.442578000">
        <ele>92.5</ele>
        <time>2020-10-16T14:05:16Z</time>
      </trkpt>
      <trkpt lat="37.334551000" lon="-5.442727000">
        <ele>92.9</ele>
        <time>2020-10-16T14:05:19Z</time>
      </trkpt>
      <trkpt lat="37.334560000" lon="-5.442867000">
        <ele>93.1</ele>
        <time>2020-10-16T14:05:22Z</time>
      </trkpt>
      <trkpt lat="37.334566000" lon="-5.443017000">
        <ele>93.2</ele>
        <time>2020-10-16T14:05:25Z</time>
      </trkpt>
      <trkpt lat="37.334569000" lon="-5.443122000">
        <ele>93.3</ele>
        <time>2020-10-16T14:05:27Z</time>
      </trkpt>
      <trkpt lat="37.334582000" lon="-5.443227000">
        <ele>93.3</ele>
        <time>2020-10-16T14:05:29Z</time>
      </trkpt>
      <trkpt lat="37.334592000" lon="-5.443336000">
        <ele>93.2</ele>
        <time>2020-10-16T14:05:31Z</time>
      </trkpt>
      <trkpt lat="37.334602000" lon="-5.443453000">
        <ele>93.1</ele>
        <time>2020-10-16T14:05:33Z</time>
      </trkpt>
      <trkpt lat="37.334611000" lon="-5.443566000">
        <ele>93.1</ele>
        <time>2020-10-16T14:05:35Z</time>
      </trkpt>
      <trkpt lat="37.334630000" lon="-5.443672000">
        <ele>93.2</ele>
        <time>2020-10-16T14:05:37Z</time>
      </trkpt>
      <trkpt lat="37.334642000" lon="-5.443788000">
        <ele>93.4</ele>
        <time>2020-10-16T14:05:39Z</time>
      </trkpt>
      <trkpt lat="37.334660000" lon="-5.443901000">
        <ele>93.5</ele>
        <time>2020-10-16T14:05:41Z</time>
      </trkpt>
      <trkpt lat="37.334673000" lon="-5.444016000">
        <ele>93.7</ele>
        <time>2020-10-16T14:05:43Z</time>
      </trkpt>
      <trkpt lat="37.334691000" lon="-5.444128000">
        <ele>93.9</ele>
        <time>2020-10-16T14:05:45Z</time>
      </trkpt>
      <trkpt lat="37.334704000" lon="-5.444241000">
        <ele>94.1</ele>
        <time>2020-10-16T14:05:47Z</time>
      </trkpt>
      <trkpt lat="37.334722000" lon="-5.444342000">
        <ele>94.3</ele>
        <time>2020-10-16T14:05:49Z</time>
      </trkpt>
      <trkpt lat="37.334743000" lon="-5.444490000">
        <ele>94.5</ele>
        <time>2020-10-16T14:05:52Z</time>
      </trkpt>
      <trkpt lat="37.334759000" lon="-5.444596000">
        <ele>94.7</ele>
        <time>2020-10-16T14:05:54Z</time>
      </trkpt>
      <trkpt lat="37.334779000" lon="-5.444744000">
        <ele>94.9</ele>
        <time>2020-10-16T14:05:57Z</time>
      </trkpt>
      <trkpt lat="37.334797000" lon="-5.444888000">
        <ele>95.0</ele>
        <time>2020-10-16T14:06:00Z</time>
      </trkpt>
      <trkpt lat="37.334816000" lon="-5.445026000">
        <ele>95.1</ele>
        <time>2020-10-16T14:06:03Z</time>
      </trkpt>
      <trkpt lat="37.334836000" lon="-5.445165000">
        <ele>95.0</ele>
        <time>2020-10-16T14:06:06Z</time>
      </trkpt>
      <trkpt lat="37.334853000" lon="-5.445314000">
        <ele>94.9</ele>
        <time>2020-10-16T14:06:09Z</time>
      </trkpt>
      <trkpt lat="37.334864000" lon="-5.445417000">
        <ele>94.8</ele>
        <time>2020-10-16T14:06:11Z</time>
      </trkpt>
      <trkpt lat="37.334878000" lon="-5.445517000">
        <ele>94.8</ele>
        <time>2020-10-16T14:06:13Z</time>
      </trkpt>
      <trkpt lat="37.334896000" lon="-5.445662000">
        <ele>94.8</ele>
        <time>2020-10-16T14:06:16Z</time>
      </trkpt>
      <trkpt lat="37.334912000" lon="-5.445807000">
        <ele>94.8</ele>
        <time>2020-10-16T14:06:19Z</time>
      </trkpt>
      <trkpt lat="37.334930000" lon="-5.445953000">
        <ele>94.7</ele>
        <time>2020-10-16T14:06:22Z</time>
      </trkpt>
      <trkpt lat="37.334951000" lon="-5.446101000">
        <ele>94.5</ele>
        <time>2020-10-16T14:06:25Z</time>
      </trkpt>
      <trkpt lat="37.334964000" lon="-5.446251000">
        <ele>94.4</ele>
        <time>2020-10-16T14:06:28Z</time>
      </trkpt>
      <trkpt lat="37.334975000" lon="-5.446403000">
        <ele>94.2</ele>
        <time>2020-10-16T14:06:31Z</time>
      </trkpt>
      <trkpt lat="37.334983000" lon="-5.446507000">
        <ele>94.0</ele>
        <time>2020-10-16T14:06:33Z</time>
      </trkpt>
      <trkpt lat="37.334990000" lon="-5.446610000">
        <ele>94.0</ele>
        <time>2020-10-16T14:06:35Z</time>
      </trkpt>
      <trkpt lat="37.334992000" lon="-5.446714000">
        <ele>94.0</ele>
        <time>2020-10-16T14:06:37Z</time>
      </trkpt>
      <trkpt lat="37.334991000" lon="-5.446816000">
        <ele>94.1</ele>
        <time>2020-10-16T14:06:39Z</time>
      </trkpt>
      <trkpt lat="37.334990000" lon="-5.446969000">
        <ele>94.1</ele>
        <time>2020-10-16T14:06:42Z</time>
      </trkpt>
      <trkpt lat="37.334989000" lon="-5.447075000">
        <ele>94.1</ele>
        <time>2020-10-16T14:06:44Z</time>
      </trkpt>
      <trkpt lat="37.334994000" lon="-5.447181000">
        <ele>94.1</ele>
        <time>2020-10-16T14:06:46Z</time>
      </trkpt>
      <trkpt lat="37.335003000" lon="-5.447288000">
        <ele>94.2</ele>
        <time>2020-10-16T14:06:48Z</time>
      </trkpt>
      <trkpt lat="37.335012000" lon="-5.447394000">
        <ele>94.3</ele>
        <time>2020-10-16T14:06:50Z</time>
      </trkpt>
      <trkpt lat="37.335021000" lon="-5.447500000">
        <ele>94.5</ele>
        <time>2020-10-16T14:06:52Z</time>
      </trkpt>
      <trkpt lat="37.335032000" lon="-5.447603000">
        <ele>94.6</ele>
        <time>2020-10-16T14:06:54Z</time>
      </trkpt>
      <trkpt lat="37.335047000" lon="-5.447705000">
        <ele>94.8</ele>
        <time>2020-10-16T14:06:56Z</time>
      </trkpt>
      <trkpt lat="37.335058000" lon="-5.447808000">
        <ele>94.8</ele>
        <time>2020-10-16T14:06:58Z</time>
      </trkpt>
      <trkpt lat="37.335069000" lon="-5.447911000">
        <ele>94.8</ele>
        <time>2020-10-16T14:07:00Z</time>
      </trkpt>
      <trkpt lat="37.335078000" lon="-5.448014000">
        <ele>94.7</ele>
        <time>2020-10-16T14:07:02Z</time>
      </trkpt>
      <trkpt lat="37.335090000" lon="-5.448118000">
        <ele>94.6</ele>
        <time>2020-10-16T14:07:04Z</time>
      </trkpt>
      <trkpt lat="37.335105000" lon="-5.448222000">
        <ele>94.6</ele>
        <time>2020-10-16T14:07:06Z</time>
      </trkpt>
      <trkpt lat="37.335123000" lon="-5.448328000">
        <ele>94.6</ele>
        <time>2020-10-16T14:07:08Z</time>
      </trkpt>
      <trkpt lat="37.335142000" lon="-5.448432000">
        <ele>94.6</ele>
        <time>2020-10-16T14:07:12Z</time>
      </trkpt>
      <trkpt lat="37.335159000" lon="-5.448536000">
        <ele>94.6</ele>
        <time>2020-10-16T14:07:12Z</time>
      </trkpt>
      <trkpt lat="37.335185000" lon="-5.448735000">
        <ele>94.5</ele>
        <time>2020-10-16T14:07:16Z</time>
      </trkpt>
      <trkpt lat="37.335207000" lon="-5.448884000">
        <ele>94.5</ele>
        <time>2020-10-16T14:07:19Z</time>
      </trkpt>
      <trkpt lat="37.335218000" lon="-5.448986000">
        <ele>94.3</ele>
        <time>2020-10-16T14:07:21Z</time>
      </trkpt>
      <trkpt lat="37.335229000" lon="-5.449088000">
        <ele>94.2</ele>
        <time>2020-10-16T14:07:23Z</time>
      </trkpt>
      <trkpt lat="37.335245000" lon="-5.449190000">
        <ele>94.1</ele>
        <time>2020-10-16T14:07:25Z</time>
      </trkpt>
      <trkpt lat="37.335262000" lon="-5.449336000">
        <ele>94.0</ele>
        <time>2020-10-16T14:07:28Z</time>
      </trkpt>
      <trkpt lat="37.335277000" lon="-5.449472000">
        <ele>94.0</ele>
        <time>2020-10-16T14:07:31Z</time>
      </trkpt>
      <trkpt lat="37.335288000" lon="-5.449588000">
        <ele>94.0</ele>
        <time>2020-10-16T14:07:34Z</time>
      </trkpt>
      <trkpt lat="37.335292000" lon="-5.449692000">
        <ele>94.1</ele>
        <time>2020-10-16T14:08:28Z</time>
      </trkpt>
      <trkpt lat="37.335299000" lon="-5.449795000">
        <ele>94.3</ele>
        <time>2020-10-16T14:08:31Z</time>
      </trkpt>
      <trkpt lat="37.335303000" lon="-5.449933000">
        <ele>94.5</ele>
        <time>2020-10-16T14:08:34Z</time>
      </trkpt>
      <trkpt lat="37.335308000" lon="-5.450079000">
        <ele>94.8</ele>
        <time>2020-10-16T14:08:37Z</time>
      </trkpt>
      <trkpt lat="37.335311000" lon="-5.450222000">
        <ele>95.2</ele>
        <time>2020-10-16T14:08:40Z</time>
      </trkpt>
      <trkpt lat="37.335316000" lon="-5.450363000">
        <ele>95.6</ele>
        <time>2020-10-16T14:08:43Z</time>
      </trkpt>
      <trkpt lat="37.335318000" lon="-5.450504000">
        <ele>96.0</ele>
        <time>2020-10-16T14:08:46Z</time>
      </trkpt>
      <trkpt lat="37.335318000" lon="-5.450645000">
        <ele>96.4</ele>
        <time>2020-10-16T14:08:49Z</time>
      </trkpt>
      <trkpt lat="37.335319000" lon="-5.450779000">
        <ele>96.6</ele>
        <time>2020-10-16T14:08:52Z</time>
      </trkpt>
      <trkpt lat="37.335319000" lon="-5.450913000">
        <ele>96.7</ele>
        <time>2020-10-16T14:08:55Z</time>
      </trkpt>
      <trkpt lat="37.335318000" lon="-5.451046000">
        <ele>96.7</ele>
        <time>2020-10-16T14:08:58Z</time>
      </trkpt>
      <trkpt lat="37.335316000" lon="-5.451178000">
        <ele>96.6</ele>
        <time>2020-10-16T14:09:01Z</time>
      </trkpt>
      <trkpt lat="37.335310000" lon="-5.451314000">
        <ele>96.5</ele>
        <time>2020-10-16T14:09:04Z</time>
      </trkpt>
      <trkpt lat="37.335309000" lon="-5.451453000">
        <ele>96.3</ele>
        <time>2020-10-16T14:09:07Z</time>
      </trkpt>
      <trkpt lat="37.335307000" lon="-5.451599000">
        <ele>96.0</ele>
        <time>2020-10-16T14:09:10Z</time>
      </trkpt>
      <trkpt lat="37.335310000" lon="-5.451743000">
        <ele>95.7</ele>
        <time>2020-10-16T14:09:13Z</time>
      </trkpt>
      <trkpt lat="37.335312000" lon="-5.451888000">
        <ele>95.5</ele>
        <time>2020-10-16T14:09:16Z</time>
      </trkpt>
      <trkpt lat="37.335309000" lon="-5.452037000">
        <ele>95.5</ele>
        <time>2020-10-16T14:09:19Z</time>
      </trkpt>
      <trkpt lat="37.335306000" lon="-5.452183000">
        <ele>95.5</ele>
        <time>2020-10-16T14:09:22Z</time>
      </trkpt>
      <trkpt lat="37.335301000" lon="-5.452327000">
        <ele>95.6</ele>
        <time>2020-10-16T14:09:25Z</time>
      </trkpt>
      <trkpt lat="37.335299000" lon="-5.452474000">
        <ele>95.9</ele>
        <time>2020-10-16T14:09:28Z</time>
      </trkpt>
      <trkpt lat="37.335297000" lon="-5.452623000">
        <ele>96.2</ele>
        <time>2020-10-16T14:09:31Z</time>
      </trkpt>
      <trkpt lat="37.335290000" lon="-5.452771000">
        <ele>96.5</ele>
        <time>2020-10-16T14:09:34Z</time>
      </trkpt>
      <trkpt lat="37.335292000" lon="-5.452918000">
        <ele>96.7</ele>
        <time>2020-10-16T14:09:37Z</time>
      </trkpt>
      <trkpt lat="37.335289000" lon="-5.453065000">
        <ele>97.0</ele>
        <time>2020-10-16T14:09:40Z</time>
      </trkpt>
      <trkpt lat="37.335291000" lon="-5.453214000">
        <ele>97.3</ele>
        <time>2020-10-16T14:09:43Z</time>
      </trkpt>
      <trkpt lat="37.335287000" lon="-5.453364000">
        <ele>97.5</ele>
        <time>2020-10-16T14:09:46Z</time>
      </trkpt>
      <trkpt lat="37.335285000" lon="-5.453514000">
        <ele>97.7</ele>
        <time>2020-10-16T14:09:49Z</time>
      </trkpt>
      <trkpt lat="37.335278000" lon="-5.453660000">
        <ele>97.9</ele>
        <time>2020-10-16T14:09:52Z</time>
      </trkpt>
      <trkpt lat="37.335277000" lon="-5.453800000">
        <ele>98.1</ele>
        <time>2020-10-16T14:09:55Z</time>
      </trkpt>
      <trkpt lat="37.335275000" lon="-5.453941000">
        <ele>98.3</ele>
        <time>2020-10-16T14:09:58Z</time>
      </trkpt>
      <trkpt lat="37.335275000" lon="-5.454082000">
        <ele>98.4</ele>
        <time>2020-10-16T14:10:01Z</time>
      </trkpt>
      <trkpt lat="37.335277000" lon="-5.454222000">
        <ele>98.5</ele>
        <time>2020-10-16T14:10:04Z</time>
      </trkpt>
      <trkpt lat="37.335274000" lon="-5.454362000">
        <ele>98.5</ele>
        <time>2020-10-16T14:10:07Z</time>
      </trkpt>
      <trkpt lat="37.335268000" lon="-5.454500000">
        <ele>98.6</ele>
        <time>2020-10-16T14:10:10Z</time>
      </trkpt>
      <trkpt lat="37.335269000" lon="-5.454642000">
        <ele>98.7</ele>
        <time>2020-10-16T14:10:13Z</time>
      </trkpt>
      <trkpt lat="37.335269000" lon="-5.454783000">
        <ele>98.8</ele>
        <time>2020-10-16T14:10:16Z</time>
      </trkpt>
      <trkpt lat="37.335269000" lon="-5.454922000">
        <ele>98.9</ele>
        <time>2020-10-16T14:10:19Z</time>
      </trkpt>
      <trkpt lat="37.335267000" lon="-5.455056000">
        <ele>99.0</ele>
        <time>2020-10-16T14:10:22Z</time>
      </trkpt>
      <trkpt lat="37.335268000" lon="-5.455187000">
        <ele>98.9</ele>
        <time>2020-10-16T14:10:25Z</time>
      </trkpt>
      <trkpt lat="37.335265000" lon="-5.455314000">
        <ele>98.8</ele>
        <time>2020-10-16T14:10:28Z</time>
      </trkpt>
      <trkpt lat="37.335264000" lon="-5.455436000">
        <ele>98.7</ele>
        <time>2020-10-16T14:10:31Z</time>
      </trkpt>
      <trkpt lat="37.335261000" lon="-5.455562000">
        <ele>98.6</ele>
        <time>2020-10-16T14:10:34Z</time>
      </trkpt>
      <trkpt lat="37.335260000" lon="-5.455688000">
        <ele>98.6</ele>
        <time>2020-10-16T14:10:37Z</time>
      </trkpt>
      <trkpt lat="37.335261000" lon="-5.455814000">
        <ele>98.6</ele>
        <time>2020-10-16T14:10:40Z</time>
      </trkpt>
      <trkpt lat="37.335268000" lon="-5.455938000">
        <ele>98.7</ele>
        <time>2020-10-16T14:10:43Z</time>
      </trkpt>
      <trkpt lat="37.335268000" lon="-5.456055000">
        <ele>98.8</ele>
        <time>2020-10-16T14:10:46Z</time>
      </trkpt>
      <trkpt lat="37.335273000" lon="-5.456170000">
        <ele>99.0</ele>
        <time>2020-10-16T14:10:49Z</time>
      </trkpt>
      <trkpt lat="37.335281000" lon="-5.456286000">
        <ele>99.3</ele>
        <time>2020-10-16T14:10:52Z</time>
      </trkpt>
      <trkpt lat="37.335282000" lon="-5.456407000">
        <ele>99.6</ele>
        <time>2020-10-16T14:10:55Z</time>
      </trkpt>
      <trkpt lat="37.335285000" lon="-5.456525000">
        <ele>100.2</ele>
        <time>2020-10-16T14:10:58Z</time>
      </trkpt>
      <trkpt lat="37.335286000" lon="-5.456645000">
        <ele>100.8</ele>
        <time>2020-10-16T14:11:01Z</time>
      </trkpt>
      <trkpt lat="37.335291000" lon="-5.456774000">
        <ele>101.5</ele>
        <time>2020-10-16T14:11:04Z</time>
      </trkpt>
      <trkpt lat="37.335295000" lon="-5.456883000">
        <ele>102.0</ele>
        <time>2020-10-16T14:11:07Z</time>
      </trkpt>
      <trkpt lat="37.335298000" lon="-5.456990000">
        <ele>102.5</ele>
        <time>2020-10-16T14:11:10Z</time>
      </trkpt>
      <trkpt lat="37.335303000" lon="-5.457106000">
        <ele>102.8</ele>
        <time>2020-10-16T14:11:13Z</time>
      </trkpt>
      <trkpt lat="37.335309000" lon="-5.457236000">
        <ele>103.1</ele>
        <time>2020-10-16T14:11:16Z</time>
      </trkpt>
      <trkpt lat="37.335322000" lon="-5.457366000">
        <ele>103.4</ele>
        <time>2020-10-16T14:11:19Z</time>
      </trkpt>
      <trkpt lat="37.335336000" lon="-5.457495000">
        <ele>103.5</ele>
        <time>2020-10-16T14:11:22Z</time>
      </trkpt>
      <trkpt lat="37.335364000" lon="-5.457634000">
        <ele>103.6</ele>
        <time>2020-10-16T14:11:25Z</time>
      </trkpt>
      <trkpt lat="37.335410000" lon="-5.457777000">
        <ele>103.6</ele>
        <time>2020-10-16T14:11:28Z</time>
      </trkpt>
      <trkpt lat="37.335456000" lon="-5.457868000">
        <ele>103.5</ele>
        <time>2020-10-16T14:11:30Z</time>
      </trkpt>
      <trkpt lat="37.335517000" lon="-5.457949000">
        <ele>103.4</ele>
        <time>2020-10-16T14:11:32Z</time>
      </trkpt>
      <trkpt lat="37.335574000" lon="-5.458027000">
        <ele>103.2</ele>
        <time>2020-10-16T14:11:34Z</time>
      </trkpt>
      <trkpt lat="37.335660000" lon="-5.458134000">
        <ele>103.2</ele>
        <time>2020-10-16T14:11:37Z</time>
      </trkpt>
      <trkpt lat="37.335740000" lon="-5.458245000">
        <ele>103.2</ele>
        <time>2020-10-16T14:11:40Z</time>
      </trkpt>
      <trkpt lat="37.335817000" lon="-5.458354000">
        <ele>103.3</ele>
        <time>2020-10-16T14:11:43Z</time>
      </trkpt>
      <trkpt lat="37.335895000" lon="-5.458455000">
        <ele>103.4</ele>
        <time>2020-10-16T14:11:46Z</time>
      </trkpt>
      <trkpt lat="37.335973000" lon="-5.458551000">
        <ele>103.5</ele>
        <time>2020-10-16T14:11:49Z</time>
      </trkpt>
      <trkpt lat="37.336044000" lon="-5.458642000">
        <ele>103.5</ele>
        <time>2020-10-16T14:11:52Z</time>
      </trkpt>
      <trkpt lat="37.336113000" lon="-5.458723000">
        <ele>103.6</ele>
        <time>2020-10-16T14:11:55Z</time>
      </trkpt>
      <trkpt lat="37.336181000" lon="-5.458804000">
        <ele>103.8</ele>
        <time>2020-10-16T14:11:58Z</time>
      </trkpt>
      <trkpt lat="37.336249000" lon="-5.458891000">
        <ele>103.9</ele>
        <time>2020-10-16T14:12:01Z</time>
      </trkpt>
      <trkpt lat="37.336320000" lon="-5.458978000">
        <ele>104.0</ele>
        <time>2020-10-16T14:12:04Z</time>
      </trkpt>
      <trkpt lat="37.336392000" lon="-5.459065000">
        <ele>104.2</ele>
        <time>2020-10-16T14:12:07Z</time>
      </trkpt>
      <trkpt lat="37.336464000" lon="-5.459153000">
        <ele>104.4</ele>
        <time>2020-10-16T14:12:10Z</time>
      </trkpt>
      <trkpt lat="37.336534000" lon="-5.459232000">
        <ele>104.5</ele>
        <time>2020-10-16T14:12:13Z</time>
      </trkpt>
      <trkpt lat="37.336610000" lon="-5.459313000">
        <ele>104.7</ele>
        <time>2020-10-16T14:12:16Z</time>
      </trkpt>
      <trkpt lat="37.336693000" lon="-5.459398000">
        <ele>104.9</ele>
        <time>2020-10-16T14:12:19Z</time>
      </trkpt>
      <trkpt lat="37.336771000" lon="-5.459491000">
        <ele>105.2</ele>
        <time>2020-10-16T14:12:22Z</time>
      </trkpt>
      <trkpt lat="37.336854000" lon="-5.459585000">
        <ele>105.5</ele>
        <time>2020-10-16T14:12:25Z</time>
      </trkpt>
      <trkpt lat="37.336939000" lon="-5.459683000">
        <ele>105.7</ele>
        <time>2020-10-16T14:12:28Z</time>
      </trkpt>
      <trkpt lat="37.337020000" lon="-5.459777000">
        <ele>106.0</ele>
        <time>2020-10-16T14:12:31Z</time>
      </trkpt>
      <trkpt lat="37.337099000" lon="-5.459874000">
        <ele>106.5</ele>
        <time>2020-10-16T14:12:34Z</time>
      </trkpt>
      <trkpt lat="37.337172000" lon="-5.459977000">
        <ele>107.1</ele>
        <time>2020-10-16T14:12:37Z</time>
      </trkpt>
      <trkpt lat="37.337244000" lon="-5.460084000">
        <ele>107.8</ele>
        <time>2020-10-16T14:12:40Z</time>
      </trkpt>
      <trkpt lat="37.337315000" lon="-5.460188000">
        <ele>108.6</ele>
        <time>2020-10-16T14:12:43Z</time>
      </trkpt>
      <trkpt lat="37.337383000" lon="-5.460288000">
        <ele>109.5</ele>
        <time>2020-10-16T14:12:46Z</time>
      </trkpt>
      <trkpt lat="37.337445000" lon="-5.460389000">
        <ele>110.5</ele>
        <time>2020-10-16T14:12:49Z</time>
      </trkpt>
      <trkpt lat="37.337505000" lon="-5.460490000">
        <ele>111.4</ele>
        <time>2020-10-16T14:12:54Z</time>
      </trkpt>
      <trkpt lat="37.337562000" lon="-5.460592000">
        <ele>112.0</ele>
        <time>2020-10-16T14:12:55Z</time>
      </trkpt>
      <trkpt lat="37.337617000" lon="-5.460693000">
        <ele>112.5</ele>
        <time>2020-10-16T14:12:58Z</time>
      </trkpt>
      <trkpt lat="37.337668000" lon="-5.460793000">
        <ele>113.0</ele>
        <time>2020-10-16T14:13:01Z</time>
      </trkpt>
      <trkpt lat="37.337717000" lon="-5.460890000">
        <ele>113.4</ele>
        <time>2020-10-16T14:13:04Z</time>
      </trkpt>
      <trkpt lat="37.337765000" lon="-5.460987000">
        <ele>113.6</ele>
        <time>2020-10-16T14:13:07Z</time>
      </trkpt>
      <trkpt lat="37.337817000" lon="-5.461086000">
        <ele>113.7</ele>
        <time>2020-10-16T14:13:10Z</time>
      </trkpt>
      <trkpt lat="37.337879000" lon="-5.461187000">
        <ele>113.6</ele>
        <time>2020-10-16T14:13:13Z</time>
      </trkpt>
      <trkpt lat="37.337940000" lon="-5.461290000">
        <ele>113.4</ele>
        <time>2020-10-16T14:13:16Z</time>
      </trkpt>
      <trkpt lat="37.338003000" lon="-5.461388000">
        <ele>113.0</ele>
        <time>2020-10-16T14:13:19Z</time>
      </trkpt>
      <trkpt lat="37.338064000" lon="-5.461477000">
        <ele>112.6</ele>
        <time>2020-10-16T14:13:22Z</time>
      </trkpt>
      <trkpt lat="37.338135000" lon="-5.461589000">
        <ele>112.3</ele>
        <time>2020-10-16T14:13:25Z</time>
      </trkpt>
      <trkpt lat="37.338211000" lon="-5.461685000">
        <ele>112.1</ele>
        <time>2020-10-16T14:13:28Z</time>
      </trkpt>
      <trkpt lat="37.338284000" lon="-5.461783000">
        <ele>111.9</ele>
        <time>2020-10-16T14:13:31Z</time>
      </trkpt>
      <trkpt lat="37.338361000" lon="-5.461884000">
        <ele>111.8</ele>
        <time>2020-10-16T14:13:34Z</time>
      </trkpt>
      <trkpt lat="37.338446000" lon="-5.461987000">
        <ele>111.7</ele>
        <time>2020-10-16T14:13:37Z</time>
      </trkpt>
      <trkpt lat="37.338500000" lon="-5.462062000">
        <ele>111.5</ele>
        <time>2020-10-16T14:13:39Z</time>
      </trkpt>
      <trkpt lat="37.338560000" lon="-5.462137000">
        <ele>111.4</ele>
        <time>2020-10-16T14:13:41Z</time>
      </trkpt>
      <trkpt lat="37.338622000" lon="-5.462214000">
        <ele>111.3</ele>
        <time>2020-10-16T14:13:43Z</time>
      </trkpt>
      <trkpt lat="37.338684000" lon="-5.462288000">
        <ele>111.2</ele>
        <time>2020-10-16T14:13:45Z</time>
      </trkpt>
      <trkpt lat="37.338748000" lon="-5.462367000">
        <ele>111.1</ele>
        <time>2020-10-16T14:13:47Z</time>
      </trkpt>
      <trkpt lat="37.338815000" lon="-5.462447000">
        <ele>111.0</ele>
        <time>2020-10-16T14:13:49Z</time>
      </trkpt>
      <trkpt lat="37.338885000" lon="-5.462542000">
        <ele>110.9</ele>
        <time>2020-10-16T14:13:51Z</time>
      </trkpt>
      <trkpt lat="37.338948000" lon="-5.462641000">
        <ele>110.8</ele>
        <time>2020-10-16T14:13:53Z</time>
      </trkpt>
      <trkpt lat="37.338985000" lon="-5.462751000">
        <ele>110.8</ele>
        <time>2020-10-16T14:13:55Z</time>
      </trkpt>
      <trkpt lat="37.339032000" lon="-5.462872000">
        <ele>110.9</ele>
        <time>2020-10-16T14:13:57Z</time>
      </trkpt>
      <trkpt lat="37.339079000" lon="-5.463010000">
        <ele>111.0</ele>
        <time>2020-10-16T14:14:00Z</time>
      </trkpt>
      <trkpt lat="37.339119000" lon="-5.463152000">
        <ele>111.2</ele>
        <time>2020-10-16T14:14:03Z</time>
      </trkpt>
      <trkpt lat="37.339154000" lon="-5.463294000">
        <ele>111.4</ele>
        <time>2020-10-16T14:14:06Z</time>
      </trkpt>
      <trkpt lat="37.339177000" lon="-5.463395000">
        <ele>111.5</ele>
        <time>2020-10-16T14:14:08Z</time>
      </trkpt>
      <trkpt lat="37.339202000" lon="-5.463495000">
        <ele>111.5</ele>
        <time>2020-10-16T14:14:10Z</time>
      </trkpt>
      <trkpt lat="37.339244000" lon="-5.463636000">
        <ele>111.6</ele>
        <time>2020-10-16T14:14:15Z</time>
      </trkpt>
      <trkpt lat="37.339292000" lon="-5.463771000">
        <ele>111.7</ele>
        <time>2020-10-16T14:14:16Z</time>
      </trkpt>
      <trkpt lat="37.339344000" lon="-5.463895000">
        <ele>111.8</ele>
        <time>2020-10-16T14:14:19Z</time>
      </trkpt>
      <trkpt lat="37.339396000" lon="-5.464017000">
        <ele>111.9</ele>
        <time>2020-10-16T14:14:22Z</time>
      </trkpt>
      <trkpt lat="37.339446000" lon="-5.464132000">
        <ele>112.0</ele>
        <time>2020-10-16T14:14:25Z</time>
      </trkpt>
      <trkpt lat="37.339501000" lon="-5.464253000">
        <ele>112.0</ele>
        <time>2020-10-16T14:14:28Z</time>
      </trkpt>
      <trkpt lat="37.339562000" lon="-5.464379000">
        <ele>112.1</ele>
        <time>2020-10-16T14:14:31Z</time>
      </trkpt>
      <trkpt lat="37.339627000" lon="-5.464504000">
        <ele>112.2</ele>
        <time>2020-10-16T14:14:34Z</time>
      </trkpt>
      <trkpt lat="37.339690000" lon="-5.464628000">
        <ele>112.2</ele>
        <time>2020-10-16T14:14:37Z</time>
      </trkpt>
      <trkpt lat="37.339754000" lon="-5.464752000">
        <ele>112.1</ele>
        <time>2020-10-16T14:14:40Z</time>
      </trkpt>
      <trkpt lat="37.339824000" lon="-5.464876000">
        <ele>112.0</ele>
        <time>2020-10-16T14:14:43Z</time>
      </trkpt>
      <trkpt lat="37.339897000" lon="-5.464994000">
        <ele>111.8</ele>
        <time>2020-10-16T14:14:46Z</time>
      </trkpt>
      <trkpt lat="37.339966000" lon="-5.465104000">
        <ele>111.6</ele>
        <time>2020-10-16T14:14:49Z</time>
      </trkpt>
      <trkpt lat="37.340039000" lon="-5.465210000">
        <ele>111.5</ele>
        <time>2020-10-16T14:14:52Z</time>
      </trkpt>
      <trkpt lat="37.340118000" lon="-5.465317000">
        <ele>111.5</ele>
        <time>2020-10-16T14:14:55Z</time>
      </trkpt>
      <trkpt lat="37.340198000" lon="-5.465426000">
        <ele>111.5</ele>
        <time>2020-10-16T14:14:58Z</time>
      </trkpt>
      <trkpt lat="37.340275000" lon="-5.465534000">
        <ele>111.5</ele>
        <time>2020-10-16T14:15:01Z</time>
      </trkpt>
      <trkpt lat="37.340351000" lon="-5.465645000">
        <ele>111.5</ele>
        <time>2020-10-16T14:15:04Z</time>
      </trkpt>
      <trkpt lat="37.340424000" lon="-5.465757000">
        <ele>111.5</ele>
        <time>2020-10-16T14:15:07Z</time>
      </trkpt>
      <trkpt lat="37.340497000" lon="-5.465874000">
        <ele>111.7</ele>
        <time>2020-10-16T14:15:10Z</time>
      </trkpt>
      <trkpt lat="37.340560000" lon="-5.465998000">
        <ele>112.1</ele>
        <time>2020-10-16T14:15:13Z</time>
      </trkpt>
      <trkpt lat="37.340620000" lon="-5.466124000">
        <ele>112.5</ele>
        <time>2020-10-16T14:15:16Z</time>
      </trkpt>
      <trkpt lat="37.340671000" lon="-5.466254000">
        <ele>113.0</ele>
        <time>2020-10-16T14:15:19Z</time>
      </trkpt>
      <trkpt lat="37.340719000" lon="-5.466386000">
        <ele>113.5</ele>
        <time>2020-10-16T14:15:22Z</time>
      </trkpt>
      <trkpt lat="37.340758000" lon="-5.466516000">
        <ele>114.1</ele>
        <time>2020-10-16T14:15:25Z</time>
      </trkpt>
      <trkpt lat="37.340794000" lon="-5.466632000">
        <ele>114.7</ele>
        <time>2020-10-16T14:15:28Z</time>
      </trkpt>
      <trkpt lat="37.340818000" lon="-5.466743000">
        <ele>115.5</ele>
        <time>2020-10-16T14:15:31Z</time>
      </trkpt>
      <trkpt lat="37.340849000" lon="-5.466848000">
        <ele>116.3</ele>
        <time>2020-10-16T14:15:34Z</time>
      </trkpt>
      <trkpt lat="37.340884000" lon="-5.466953000">
        <ele>117.1</ele>
        <time>2020-10-16T14:15:37Z</time>
      </trkpt>
      <trkpt lat="37.340918000" lon="-5.467056000">
        <ele>117.8</ele>
        <time>2020-10-16T14:15:40Z</time>
      </trkpt>
      <trkpt lat="37.340945000" lon="-5.467165000">
        <ele>118.6</ele>
        <time>2020-10-16T14:15:43Z</time>
      </trkpt>
      <trkpt lat="37.340978000" lon="-5.467281000">
        <ele>119.4</ele>
        <time>2020-10-16T14:15:46Z</time>
      </trkpt>
      <trkpt lat="37.341013000" lon="-5.467396000">
        <ele>120.2</ele>
        <time>2020-10-16T14:15:49Z</time>
      </trkpt>
      <trkpt lat="37.341043000" lon="-5.467500000">
        <ele>121.0</ele>
        <time>2020-10-16T14:15:52Z</time>
      </trkpt>
      <trkpt lat="37.341077000" lon="-5.467624000">
        <ele>121.9</ele>
        <time>2020-10-16T14:15:56Z</time>
      </trkpt>
      <trkpt lat="37.341117000" lon="-5.467742000">
        <ele>122.7</ele>
        <time>2020-10-16T14:16:00Z</time>
      </trkpt>
      <trkpt lat="37.341144000" lon="-5.467839000">
        <ele>123.5</ele>
        <time>2020-10-16T14:16:03Z</time>
      </trkpt>
      <trkpt lat="37.341170000" lon="-5.467969000">
        <ele>124.0</ele>
        <time>2020-10-16T14:16:07Z</time>
      </trkpt>
      <trkpt lat="37.341211000" lon="-5.468089000">
        <ele>124.5</ele>
        <time>2020-10-16T14:16:11Z</time>
      </trkpt>
      <trkpt lat="37.341251000" lon="-5.468208000">
        <ele>124.8</ele>
        <time>2020-10-16T14:16:15Z</time>
      </trkpt>
      <trkpt lat="37.341274000" lon="-5.468305000">
        <ele>125.2</ele>
        <time>2020-10-16T14:16:18Z</time>
      </trkpt>
      <trkpt lat="37.341301000" lon="-5.468405000">
        <ele>125.5</ele>
        <time>2020-10-16T14:16:21Z</time>
      </trkpt>
      <trkpt lat="37.341328000" lon="-5.468501000">
        <ele>125.8</ele>
        <time>2020-10-16T14:16:24Z</time>
      </trkpt>
      <trkpt lat="37.341342000" lon="-5.468606000">
        <ele>126.1</ele>
        <time>2020-10-16T14:16:27Z</time>
      </trkpt>
      <trkpt lat="37.341365000" lon="-5.468717000">
        <ele>126.3</ele>
        <time>2020-10-16T14:16:30Z</time>
      </trkpt>
      <trkpt lat="37.341382000" lon="-5.468833000">
        <ele>126.3</ele>
        <time>2020-10-16T14:16:33Z</time>
      </trkpt>
      <trkpt lat="37.341385000" lon="-5.468955000">
        <ele>126.4</ele>
        <time>2020-10-16T14:16:36Z</time>
      </trkpt>
      <trkpt lat="37.341370000" lon="-5.469077000">
        <ele>126.4</ele>
        <time>2020-10-16T14:16:39Z</time>
      </trkpt>
      <trkpt lat="37.341345000" lon="-5.469191000">
        <ele>126.4</ele>
        <time>2020-10-16T14:16:42Z</time>
      </trkpt>
      <trkpt lat="37.341305000" lon="-5.469303000">
        <ele>126.3</ele>
        <time>2020-10-16T14:16:45Z</time>
      </trkpt>
      <trkpt lat="37.341259000" lon="-5.469428000">
        <ele>126.0</ele>
        <time>2020-10-16T14:16:48Z</time>
      </trkpt>
      <trkpt lat="37.341204000" lon="-5.469554000">
        <ele>125.8</ele>
        <time>2020-10-16T14:16:51Z</time>
      </trkpt>
      <trkpt lat="37.341186000" lon="-5.469681000">
        <ele>125.7</ele>
        <time>2020-10-16T14:16:54Z</time>
      </trkpt>
      <trkpt lat="37.341226000" lon="-5.469792000">
        <ele>125.6</ele>
        <time>2020-10-16T14:16:57Z</time>
      </trkpt>
      <trkpt lat="37.341290000" lon="-5.469898000">
        <ele>125.6</ele>
        <time>2020-10-16T14:17:00Z</time>
      </trkpt>
      <trkpt lat="37.341358000" lon="-5.470002000">
        <ele>125.6</ele>
        <time>2020-10-16T14:17:03Z</time>
      </trkpt>
      <trkpt lat="37.341416000" lon="-5.470117000">
        <ele>125.7</ele>
        <time>2020-10-16T14:17:06Z</time>
      </trkpt>
      <trkpt lat="37.341463000" lon="-5.470238000">
        <ele>125.7</ele>
        <time>2020-10-16T14:17:09Z</time>
      </trkpt>
      <trkpt lat="37.341512000" lon="-5.470357000">
        <ele>125.8</ele>
        <time>2020-10-16T14:17:12Z</time>
      </trkpt>
      <trkpt lat="37.341577000" lon="-5.470461000">
        <ele>125.9</ele>
        <time>2020-10-16T14:17:15Z</time>
      </trkpt>
      <trkpt lat="37.341646000" lon="-5.470550000">
        <ele>126.1</ele>
        <time>2020-10-16T14:17:18Z</time>
      </trkpt>
      <trkpt lat="37.341711000" lon="-5.470634000">
        <ele>126.5</ele>
        <time>2020-10-16T14:17:21Z</time>
      </trkpt>
      <trkpt lat="37.341773000" lon="-5.470708000">
        <ele>126.6</ele>
        <time>2020-10-16T14:17:24Z</time>
      </trkpt>
      <trkpt lat="37.341843000" lon="-5.470803000">
        <ele>126.6</ele>
        <time>2020-10-16T14:17:28Z</time>
      </trkpt>
      <trkpt lat="37.341911000" lon="-5.470886000">
        <ele>126.5</ele>
        <time>2020-10-16T14:17:31Z</time>
      </trkpt>
      <trkpt lat="37.341994000" lon="-5.470998000">
        <ele>126.4</ele>
        <time>2020-10-16T14:17:34Z</time>
      </trkpt>
      <trkpt lat="37.342066000" lon="-5.471090000">
        <ele>126.1</ele>
        <time>2020-10-16T14:17:36Z</time>
      </trkpt>
      <trkpt lat="37.342139000" lon="-5.471189000">
        <ele>125.9</ele>
        <time>2020-10-16T14:17:38Z</time>
      </trkpt>
      <trkpt lat="37.342217000" lon="-5.471298000">
        <ele>125.7</ele>
        <time>2020-10-16T14:17:40Z</time>
      </trkpt>
      <trkpt lat="37.342303000" lon="-5.471410000">
        <ele>125.5</ele>
        <time>2020-10-16T14:17:42Z</time>
      </trkpt>
      <trkpt lat="37.342389000" lon="-5.471522000">
        <ele>125.4</ele>
        <time>2020-10-16T14:17:44Z</time>
      </trkpt>
      <trkpt lat="37.342461000" lon="-5.471634000">
        <ele>125.2</ele>
        <time>2020-10-16T14:17:46Z</time>
      </trkpt>
      <trkpt lat="37.342520000" lon="-5.471762000">
        <ele>124.9</ele>
        <time>2020-10-16T14:17:48Z</time>
      </trkpt>
      <trkpt lat="37.342567000" lon="-5.471881000">
        <ele>124.6</ele>
        <time>2020-10-16T14:17:50Z</time>
      </trkpt>
      <trkpt lat="37.342608000" lon="-5.472004000">
        <ele>124.4</ele>
        <time>2020-10-16T14:17:52Z</time>
      </trkpt>
      <trkpt lat="37.342661000" lon="-5.472135000">
        <ele>123.9</ele>
        <time>2020-10-16T14:17:54Z</time>
      </trkpt>
      <trkpt lat="37.342723000" lon="-5.472259000">
        <ele>123.5</ele>
        <time>2020-10-16T14:17:56Z</time>
      </trkpt>
      <trkpt lat="37.342799000" lon="-5.472379000">
        <ele>123.1</ele>
        <time>2020-10-16T14:17:58Z</time>
      </trkpt>
      <trkpt lat="37.342876000" lon="-5.472503000">
        <ele>122.6</ele>
        <time>2020-10-16T14:18:00Z</time>
      </trkpt>
      <trkpt lat="37.342958000" lon="-5.472631000">
        <ele>122.1</ele>
        <time>2020-10-16T14:18:02Z</time>
      </trkpt>
      <trkpt lat="37.343035000" lon="-5.472767000">
        <ele>121.5</ele>
        <time>2020-10-16T14:18:04Z</time>
      </trkpt>
      <trkpt lat="37.343112000" lon="-5.472903000">
        <ele>120.9</ele>
        <time>2020-10-16T14:18:06Z</time>
      </trkpt>
      <trkpt lat="37.343182000" lon="-5.473049000">
        <ele>120.3</ele>
        <time>2020-10-16T14:18:08Z</time>
      </trkpt>
      <trkpt lat="37.343237000" lon="-5.473189000">
        <ele>119.7</ele>
        <time>2020-10-16T14:18:10Z</time>
      </trkpt>
      <trkpt lat="37.343284000" lon="-5.473319000">
        <ele>119.3</ele>
        <time>2020-10-16T14:18:12Z</time>
      </trkpt>
      <trkpt lat="37.343332000" lon="-5.473440000">
        <ele>118.9</ele>
        <time>2020-10-16T14:18:14Z</time>
      </trkpt>
      <trkpt lat="37.343376000" lon="-5.473550000">
        <ele>118.7</ele>
        <time>2020-10-16T14:18:16Z</time>
      </trkpt>
      <trkpt lat="37.343414000" lon="-5.473655000">
        <ele>118.5</ele>
        <time>2020-10-16T14:18:18Z</time>
      </trkpt>
      <trkpt lat="37.343452000" lon="-5.473749000">
        <ele>118.4</ele>
        <time>2020-10-16T14:18:20Z</time>
      </trkpt>
      <trkpt lat="37.343484000" lon="-5.473845000">
        <ele>118.2</ele>
        <time>2020-10-16T14:18:22Z</time>
      </trkpt>
      <trkpt lat="37.343521000" lon="-5.473950000">
        <ele>118.1</ele>
        <time>2020-10-16T14:18:24Z</time>
      </trkpt>
      <trkpt lat="37.343574000" lon="-5.474064000">
        <ele>118.0</ele>
        <time>2020-10-16T14:18:26Z</time>
      </trkpt>
      <trkpt lat="37.343637000" lon="-5.474173000">
        <ele>117.9</ele>
        <time>2020-10-16T14:18:28Z</time>
      </trkpt>
      <trkpt lat="37.343706000" lon="-5.474277000">
        <ele>117.8</ele>
        <time>2020-10-16T14:18:30Z</time>
      </trkpt>
      <trkpt lat="37.343771000" lon="-5.474377000">
        <ele>117.6</ele>
        <time>2020-10-16T14:18:32Z</time>
      </trkpt>
      <trkpt lat="37.343843000" lon="-5.474485000">
        <ele>117.5</ele>
        <time>2020-10-16T14:18:34Z</time>
      </trkpt>
      <trkpt lat="37.343908000" lon="-5.474605000">
        <ele>117.2</ele>
        <time>2020-10-16T14:18:36Z</time>
      </trkpt>
      <trkpt lat="37.343964000" lon="-5.474727000">
        <ele>116.9</ele>
        <time>2020-10-16T14:18:38Z</time>
      </trkpt>
      <trkpt lat="37.344014000" lon="-5.474854000">
        <ele>116.6</ele>
        <time>2020-10-16T14:18:40Z</time>
      </trkpt>
      <trkpt lat="37.344055000" lon="-5.474985000">
        <ele>116.3</ele>
        <time>2020-10-16T14:18:42Z</time>
      </trkpt>
      <trkpt lat="37.344091000" lon="-5.475120000">
        <ele>115.8</ele>
        <time>2020-10-16T14:18:44Z</time>
      </trkpt>
      <trkpt lat="37.344134000" lon="-5.475258000">
        <ele>115.3</ele>
        <time>2020-10-16T14:18:46Z</time>
      </trkpt>
      <trkpt lat="37.344177000" lon="-5.475404000">
        <ele>114.6</ele>
        <time>2020-10-16T14:18:48Z</time>
      </trkpt>
      <trkpt lat="37.344218000" lon="-5.475560000">
        <ele>114.0</ele>
        <time>2020-10-16T14:18:50Z</time>
      </trkpt>
      <trkpt lat="37.344259000" lon="-5.475716000">
        <ele>113.4</ele>
        <time>2020-10-16T14:18:52Z</time>
      </trkpt>
      <trkpt lat="37.344308000" lon="-5.475857000">
        <ele>112.7</ele>
        <time>2020-10-16T14:18:54Z</time>
      </trkpt>
      <trkpt lat="37.344356000" lon="-5.476005000">
        <ele>112.1</ele>
        <time>2020-10-16T14:18:56Z</time>
      </trkpt>
      <trkpt lat="37.344406000" lon="-5.476144000">
        <ele>111.5</ele>
        <time>2020-10-16T14:18:58Z</time>
      </trkpt>
      <trkpt lat="37.344455000" lon="-5.476284000">
        <ele>110.7</ele>
        <time>2020-10-16T14:19:00Z</time>
      </trkpt>
      <trkpt lat="37.344500000" lon="-5.476413000">
        <ele>110.0</ele>
        <time>2020-10-16T14:19:02Z</time>
      </trkpt>
      <trkpt lat="37.344507000" lon="-5.476551000">
        <ele>109.4</ele>
        <time>2020-10-16T14:19:04Z</time>
      </trkpt>
      <trkpt lat="37.344501000" lon="-5.476684000">
        <ele>108.9</ele>
        <time>2020-10-16T14:19:06Z</time>
      </trkpt>
      <trkpt lat="37.344480000" lon="-5.476806000">
        <ele>108.6</ele>
        <time>2020-10-16T14:19:08Z</time>
      </trkpt>
      <trkpt lat="37.344462000" lon="-5.476915000">
        <ele>108.5</ele>
        <time>2020-10-16T14:19:10Z</time>
      </trkpt>
      <trkpt lat="37.344432000" lon="-5.477013000">
        <ele>108.5</ele>
        <time>2020-10-16T14:19:12Z</time>
      </trkpt>
      <trkpt lat="37.344387000" lon="-5.477143000">
        <ele>108.5</ele>
        <time>2020-10-16T14:19:15Z</time>
      </trkpt>
      <trkpt lat="37.344351000" lon="-5.477265000">
        <ele>108.8</ele>
        <time>2020-10-16T14:19:18Z</time>
      </trkpt>
      <trkpt lat="37.344344000" lon="-5.477369000">
        <ele>109.1</ele>
        <time>2020-10-16T14:19:21Z</time>
      </trkpt>
      <trkpt lat="37.344361000" lon="-5.477476000">
        <ele>109.5</ele>
        <time>2020-10-16T14:19:33Z</time>
      </trkpt>
      <trkpt lat="37.344376000" lon="-5.477577000">
        <ele>110.2</ele>
        <time>2020-10-16T14:19:37Z</time>
      </trkpt>
      <trkpt lat="37.344396000" lon="-5.477685000">
        <ele>110.8</ele>
        <time>2020-10-16T14:19:40Z</time>
      </trkpt>
      <trkpt lat="37.344408000" lon="-5.477812000">
        <ele>111.5</ele>
        <time>2020-10-16T14:19:44Z</time>
      </trkpt>
      <trkpt lat="37.344389000" lon="-5.477944000">
        <ele>112.2</ele>
        <time>2020-10-16T14:19:48Z</time>
      </trkpt>
      <trkpt lat="37.344372000" lon="-5.478045000">
        <ele>112.7</ele>
        <time>2020-10-16T14:19:51Z</time>
      </trkpt>
      <trkpt lat="37.344362000" lon="-5.478147000">
        <ele>113.3</ele>
        <time>2020-10-16T14:19:54Z</time>
      </trkpt>
      <trkpt lat="37.344333000" lon="-5.478274000">
        <ele>113.7</ele>
        <time>2020-10-16T14:19:58Z</time>
      </trkpt>
      <trkpt lat="37.344330000" lon="-5.478376000">
        <ele>114.1</ele>
        <time>2020-10-16T14:20:01Z</time>
      </trkpt>
      <trkpt lat="37.344325000" lon="-5.478479000">
        <ele>114.5</ele>
        <time>2020-10-16T14:20:04Z</time>
      </trkpt>
      <trkpt lat="37.344324000" lon="-5.478586000">
        <ele>114.9</ele>
        <time>2020-10-16T14:20:07Z</time>
      </trkpt>
      <trkpt lat="37.344326000" lon="-5.478694000">
        <ele>115.4</ele>
        <time>2020-10-16T14:20:10Z</time>
      </trkpt>
      <trkpt lat="37.344327000" lon="-5.478804000">
        <ele>115.8</ele>
        <time>2020-10-16T14:20:13Z</time>
      </trkpt>
      <trkpt lat="37.344331000" lon="-5.478918000">
        <ele>116.4</ele>
        <time>2020-10-16T14:20:16Z</time>
      </trkpt>
      <trkpt lat="37.344338000" lon="-5.479032000">
        <ele>116.9</ele>
        <time>2020-10-16T14:20:19Z</time>
      </trkpt>
      <trkpt lat="37.344351000" lon="-5.479148000">
        <ele>117.5</ele>
        <time>2020-10-16T14:20:22Z</time>
      </trkpt>
      <trkpt lat="37.344371000" lon="-5.479261000">
        <ele>118.0</ele>
        <time>2020-10-16T14:20:25Z</time>
      </trkpt>
      <trkpt lat="37.344386000" lon="-5.479373000">
        <ele>118.5</ele>
        <time>2020-10-16T14:20:28Z</time>
      </trkpt>
      <trkpt lat="37.344394000" lon="-5.479484000">
        <ele>118.9</ele>
        <time>2020-10-16T14:20:31Z</time>
      </trkpt>
      <trkpt lat="37.344411000" lon="-5.479596000">
        <ele>119.4</ele>
        <time>2020-10-16T14:20:34Z</time>
      </trkpt>
      <trkpt lat="37.344430000" lon="-5.479716000">
        <ele>119.7</ele>
        <time>2020-10-16T14:20:37Z</time>
      </trkpt>
      <trkpt lat="37.344443000" lon="-5.479846000">
        <ele>120.0</ele>
        <time>2020-10-16T14:20:40Z</time>
      </trkpt>
      <trkpt lat="37.344458000" lon="-5.479969000">
        <ele>120.2</ele>
        <time>2020-10-16T14:20:43Z</time>
      </trkpt>
      <trkpt lat="37.344476000" lon="-5.480087000">
        <ele>120.3</ele>
        <time>2020-10-16T14:20:46Z</time>
      </trkpt>
      <trkpt lat="37.344495000" lon="-5.480204000">
        <ele>120.3</ele>
        <time>2020-10-16T14:20:49Z</time>
      </trkpt>
      <trkpt lat="37.344523000" lon="-5.480328000">
        <ele>120.3</ele>
        <time>2020-10-16T14:20:52Z</time>
      </trkpt>
      <trkpt lat="37.344552000" lon="-5.480460000">
        <ele>120.4</ele>
        <time>2020-10-16T14:20:55Z</time>
      </trkpt>
      <trkpt lat="37.344580000" lon="-5.480604000">
        <ele>120.5</ele>
        <time>2020-10-16T14:20:58Z</time>
      </trkpt>
      <trkpt lat="37.344616000" lon="-5.480739000">
        <ele>120.6</ele>
        <time>2020-10-16T14:21:01Z</time>
      </trkpt>
      <trkpt lat="37.344646000" lon="-5.480875000">
        <ele>120.8</ele>
        <time>2020-10-16T14:21:04Z</time>
      </trkpt>
      <trkpt lat="37.344682000" lon="-5.481009000">
        <ele>121.0</ele>
        <time>2020-10-16T14:21:07Z</time>
      </trkpt>
      <trkpt lat="37.344704000" lon="-5.481147000">
        <ele>121.2</ele>
        <time>2020-10-16T14:21:10Z</time>
      </trkpt>
      <trkpt lat="37.344724000" lon="-5.481288000">
        <ele>121.4</ele>
        <time>2020-10-16T14:21:13Z</time>
      </trkpt>
      <trkpt lat="37.344735000" lon="-5.481435000">
        <ele>121.6</ele>
        <time>2020-10-16T14:21:16Z</time>
      </trkpt>
      <trkpt lat="37.344748000" lon="-5.481586000">
        <ele>121.9</ele>
        <time>2020-10-16T14:21:19Z</time>
      </trkpt>
      <trkpt lat="37.344757000" lon="-5.481688000">
        <ele>122.2</ele>
        <time>2020-10-16T14:21:21Z</time>
      </trkpt>
      <trkpt lat="37.344768000" lon="-5.481790000">
        <ele>122.4</ele>
        <time>2020-10-16T14:21:23Z</time>
      </trkpt>
      <trkpt lat="37.344777000" lon="-5.481936000">
        <ele>122.5</ele>
        <time>2020-10-16T14:21:26Z</time>
      </trkpt>
      <trkpt lat="37.344784000" lon="-5.482076000">
        <ele>122.5</ele>
        <time>2020-10-16T14:21:29Z</time>
      </trkpt>
      <trkpt lat="37.344788000" lon="-5.482205000">
        <ele>122.5</ele>
        <time>2020-10-16T14:21:32Z</time>
      </trkpt>
      <trkpt lat="37.344778000" lon="-5.482320000">
        <ele>122.5</ele>
        <time>2020-10-16T14:21:35Z</time>
      </trkpt>
      <trkpt lat="37.344763000" lon="-5.482454000">
        <ele>122.5</ele>
        <time>2020-10-16T14:21:39Z</time>
      </trkpt>
      <trkpt lat="37.344745000" lon="-5.482565000">
        <ele>122.5</ele>
        <time>2020-10-16T14:21:42Z</time>
      </trkpt>
      <trkpt lat="37.344712000" lon="-5.482690000">
        <ele>122.4</ele>
        <time>2020-10-16T14:21:45Z</time>
      </trkpt>
      <trkpt lat="37.344661000" lon="-5.482820000">
        <ele>122.2</ele>
        <time>2020-10-16T14:21:48Z</time>
      </trkpt>
      <trkpt lat="37.344629000" lon="-5.482916000">
        <ele>122.0</ele>
        <time>2020-10-16T14:21:50Z</time>
      </trkpt>
      <trkpt lat="37.344597000" lon="-5.483023000">
        <ele>121.7</ele>
        <time>2020-10-16T14:21:52Z</time>
      </trkpt>
      <trkpt lat="37.344570000" lon="-5.483140000">
        <ele>121.5</ele>
        <time>2020-10-16T14:21:54Z</time>
      </trkpt>
      <trkpt lat="37.344537000" lon="-5.483260000">
        <ele>121.2</ele>
        <time>2020-10-16T14:21:56Z</time>
      </trkpt>
      <trkpt lat="37.344507000" lon="-5.483379000">
        <ele>120.9</ele>
        <time>2020-10-16T14:21:58Z</time>
      </trkpt>
      <trkpt lat="37.344475000" lon="-5.483500000">
        <ele>120.6</ele>
        <time>2020-10-16T14:22:00Z</time>
      </trkpt>
      <trkpt lat="37.344440000" lon="-5.483625000">
        <ele>120.5</ele>
        <time>2020-10-16T14:22:02Z</time>
      </trkpt>
      <trkpt lat="37.344403000" lon="-5.483756000">
        <ele>120.2</ele>
        <time>2020-10-16T14:22:04Z</time>
      </trkpt>
      <trkpt lat="37.344372000" lon="-5.483888000">
        <ele>120.1</ele>
        <time>2020-10-16T14:22:06Z</time>
      </trkpt>
      <trkpt lat="37.344339000" lon="-5.484020000">
        <ele>120.0</ele>
        <time>2020-10-16T14:22:08Z</time>
      </trkpt>
      <trkpt lat="37.344303000" lon="-5.484146000">
        <ele>119.9</ele>
        <time>2020-10-16T14:22:10Z</time>
      </trkpt>
      <trkpt lat="37.344271000" lon="-5.484280000">
        <ele>119.8</ele>
        <time>2020-10-16T14:22:12Z</time>
      </trkpt>
      <trkpt lat="37.344235000" lon="-5.484410000">
        <ele>119.8</ele>
        <time>2020-10-16T14:22:14Z</time>
      </trkpt>
      <trkpt lat="37.344197000" lon="-5.484537000">
        <ele>119.7</ele>
        <time>2020-10-16T14:22:16Z</time>
      </trkpt>
      <trkpt lat="37.344160000" lon="-5.484663000">
        <ele>119.6</ele>
        <time>2020-10-16T14:22:18Z</time>
      </trkpt>
      <trkpt lat="37.344121000" lon="-5.484783000">
        <ele>119.5</ele>
        <time>2020-10-16T14:22:20Z</time>
      </trkpt>
      <trkpt lat="37.344079000" lon="-5.484901000">
        <ele>119.5</ele>
        <time>2020-10-16T14:22:22Z</time>
      </trkpt>
      <trkpt lat="37.344046000" lon="-5.485011000">
        <ele>119.3</ele>
        <time>2020-10-16T14:22:24Z</time>
      </trkpt>
      <trkpt lat="37.344012000" lon="-5.485112000">
        <ele>119.2</ele>
        <time>2020-10-16T14:22:26Z</time>
      </trkpt>
      <trkpt lat="37.343981000" lon="-5.485211000">
        <ele>119.0</ele>
        <time>2020-10-16T14:22:28Z</time>
      </trkpt>
      <trkpt lat="37.343949000" lon="-5.485312000">
        <ele>118.8</ele>
        <time>2020-10-16T14:22:30Z</time>
      </trkpt>
      <trkpt lat="37.343909000" lon="-5.485455000">
        <ele>118.5</ele>
        <time>2020-10-16T14:22:33Z</time>
      </trkpt>
      <trkpt lat="37.343867000" lon="-5.485603000">
        <ele>118.3</ele>
        <time>2020-10-16T14:22:36Z</time>
      </trkpt>
      <trkpt lat="37.343810000" lon="-5.485726000">
        <ele>117.9</ele>
        <time>2020-10-16T14:22:39Z</time>
      </trkpt>
      <trkpt lat="37.343761000" lon="-5.485842000">
        <ele>117.5</ele>
        <time>2020-10-16T14:22:43Z</time>
      </trkpt>
      <trkpt lat="37.343737000" lon="-5.485955000">
        <ele>116.9</ele>
        <time>2020-10-16T14:22:46Z</time>
      </trkpt>
      <trkpt lat="37.343720000" lon="-5.486089000">
        <ele>116.3</ele>
        <time>2020-10-16T14:22:49Z</time>
      </trkpt>
      <trkpt lat="37.343699000" lon="-5.486203000">
        <ele>115.6</ele>
        <time>2020-10-16T14:22:51Z</time>
      </trkpt>
      <trkpt lat="37.343677000" lon="-5.486338000">
        <ele>115.0</ele>
        <time>2020-10-16T14:22:53Z</time>
      </trkpt>
      <trkpt lat="37.343650000" lon="-5.486487000">
        <ele>114.4</ele>
        <time>2020-10-16T14:22:55Z</time>
      </trkpt>
      <trkpt lat="37.343627000" lon="-5.486631000">
        <ele>113.7</ele>
        <time>2020-10-16T14:22:57Z</time>
      </trkpt>
      <trkpt lat="37.343596000" lon="-5.486773000">
        <ele>113.1</ele>
        <time>2020-10-16T14:22:59Z</time>
      </trkpt>
      <trkpt lat="37.343565000" lon="-5.486924000">
        <ele>112.5</ele>
        <time>2020-10-16T14:23:01Z</time>
      </trkpt>
      <trkpt lat="37.343544000" lon="-5.487072000">
        <ele>112.0</ele>
        <time>2020-10-16T14:23:03Z</time>
      </trkpt>
      <trkpt lat="37.343527000" lon="-5.487199000">
        <ele>111.5</ele>
        <time>2020-10-16T14:23:05Z</time>
      </trkpt>
      <trkpt lat="37.343513000" lon="-5.487312000">
        <ele>111.3</ele>
        <time>2020-10-16T14:23:07Z</time>
      </trkpt>
      <trkpt lat="37.343504000" lon="-5.487426000">
        <ele>111.1</ele>
        <time>2020-10-16T14:23:09Z</time>
      </trkpt>
      <trkpt lat="37.343486000" lon="-5.487541000">
        <ele>111.0</ele>
        <time>2020-10-16T14:23:11Z</time>
      </trkpt>
      <trkpt lat="37.343470000" lon="-5.487653000">
        <ele>111.0</ele>
        <time>2020-10-16T14:23:13Z</time>
      </trkpt>
      <trkpt lat="37.343452000" lon="-5.487769000">
        <ele>111.0</ele>
        <time>2020-10-16T14:23:15Z</time>
      </trkpt>
      <trkpt lat="37.343428000" lon="-5.487883000">
        <ele>111.1</ele>
        <time>2020-10-16T14:23:17Z</time>
      </trkpt>
      <trkpt lat="37.343404000" lon="-5.487991000">
        <ele>111.2</ele>
        <time>2020-10-16T14:23:19Z</time>
      </trkpt>
      <trkpt lat="37.343374000" lon="-5.488093000">
        <ele>111.3</ele>
        <time>2020-10-16T14:23:21Z</time>
      </trkpt>
      <trkpt lat="37.343339000" lon="-5.488189000">
        <ele>111.4</ele>
        <time>2020-10-16T14:23:23Z</time>
      </trkpt>
      <trkpt lat="37.343307000" lon="-5.488290000">
        <ele>111.5</ele>
        <time>2020-10-16T14:23:25Z</time>
      </trkpt>
      <trkpt lat="37.343279000" lon="-5.488390000">
        <ele>111.5</ele>
        <time>2020-10-16T14:23:27Z</time>
      </trkpt>
      <trkpt lat="37.343260000" lon="-5.488500000">
        <ele>111.5</ele>
        <time>2020-10-16T14:23:29Z</time>
      </trkpt>
      <trkpt lat="37.343243000" lon="-5.488611000">
        <ele>111.4</ele>
        <time>2020-10-16T14:23:31Z</time>
      </trkpt>
      <trkpt lat="37.343229000" lon="-5.488727000">
        <ele>111.3</ele>
        <time>2020-10-16T14:23:33Z</time>
      </trkpt>
      <trkpt lat="37.343220000" lon="-5.488836000">
        <ele>111.1</ele>
        <time>2020-10-16T14:23:35Z</time>
      </trkpt>
      <trkpt lat="37.343214000" lon="-5.488941000">
        <ele>110.9</ele>
        <time>2020-10-16T14:23:37Z</time>
      </trkpt>
      <trkpt lat="37.343207000" lon="-5.489045000">
        <ele>110.6</ele>
        <time>2020-10-16T14:23:39Z</time>
      </trkpt>
      <trkpt lat="37.343199000" lon="-5.489148000">
        <ele>110.4</ele>
        <time>2020-10-16T14:23:41Z</time>
      </trkpt>
      <trkpt lat="37.343184000" lon="-5.489301000">
        <ele>110.2</ele>
        <time>2020-10-16T14:23:44Z</time>
      </trkpt>
      <trkpt lat="37.343175000" lon="-5.489404000">
        <ele>110.1</ele>
        <time>2020-10-16T14:23:46Z</time>
      </trkpt>
      <trkpt lat="37.343163000" lon="-5.489511000">
        <ele>110.0</ele>
        <time>2020-10-16T14:23:48Z</time>
      </trkpt>
      <trkpt lat="37.343150000" lon="-5.489619000">
        <ele>109.9</ele>
        <time>2020-10-16T14:23:50Z</time>
      </trkpt>
      <trkpt lat="37.343146000" lon="-5.489727000">
        <ele>109.8</ele>
        <time>2020-10-16T14:23:52Z</time>
      </trkpt>
      <trkpt lat="37.343134000" lon="-5.489847000">
        <ele>109.7</ele>
        <time>2020-10-16T14:23:54Z</time>
      </trkpt>
      <trkpt lat="37.343121000" lon="-5.489966000">
        <ele>109.5</ele>
        <time>2020-10-16T14:23:56Z</time>
      </trkpt>
      <trkpt lat="37.343111000" lon="-5.490097000">
        <ele>109.4</ele>
        <time>2020-10-16T14:23:58Z</time>
      </trkpt>
      <trkpt lat="37.343101000" lon="-5.490235000">
        <ele>109.2</ele>
        <time>2020-10-16T14:24:00Z</time>
      </trkpt>
      <trkpt lat="37.343083000" lon="-5.490360000">
        <ele>109.0</ele>
        <time>2020-10-16T14:24:02Z</time>
      </trkpt>
      <trkpt lat="37.343056000" lon="-5.490486000">
        <ele>108.7</ele>
        <time>2020-10-16T14:24:04Z</time>
      </trkpt>
      <trkpt lat="37.343022000" lon="-5.490619000">
        <ele>108.4</ele>
        <time>2020-10-16T14:24:06Z</time>
      </trkpt>
      <trkpt lat="37.342985000" lon="-5.490742000">
        <ele>107.9</ele>
        <time>2020-10-16T14:24:08Z</time>
      </trkpt>
      <trkpt lat="37.342953000" lon="-5.490873000">
        <ele>107.5</ele>
        <time>2020-10-16T14:24:10Z</time>
      </trkpt>
      <trkpt lat="37.342930000" lon="-5.490990000">
        <ele>107.1</ele>
        <time>2020-10-16T14:24:12Z</time>
      </trkpt>
      <trkpt lat="37.342913000" lon="-5.491112000">
        <ele>106.7</ele>
        <time>2020-10-16T14:24:14Z</time>
      </trkpt>
      <trkpt lat="37.342898000" lon="-5.491232000">
        <ele>106.5</ele>
        <time>2020-10-16T14:24:16Z</time>
      </trkpt>
      <trkpt lat="37.342893000" lon="-5.491349000">
        <ele>106.3</ele>
        <time>2020-10-16T14:24:18Z</time>
      </trkpt>
      <trkpt lat="37.342891000" lon="-5.491474000">
        <ele>106.2</ele>
        <time>2020-10-16T14:24:20Z</time>
      </trkpt>
      <trkpt lat="37.342893000" lon="-5.491604000">
        <ele>106.1</ele>
        <time>2020-10-16T14:24:22Z</time>
      </trkpt>
      <trkpt lat="37.342901000" lon="-5.491725000">
        <ele>106.1</ele>
        <time>2020-10-16T14:24:24Z</time>
      </trkpt>
      <trkpt lat="37.342919000" lon="-5.491844000">
        <ele>106.2</ele>
        <time>2020-10-16T14:24:26Z</time>
      </trkpt>
      <trkpt lat="37.342929000" lon="-5.491961000">
        <ele>106.3</ele>
        <time>2020-10-16T14:24:28Z</time>
      </trkpt>
      <trkpt lat="37.342936000" lon="-5.492078000">
        <ele>106.5</ele>
        <time>2020-10-16T14:24:30Z</time>
      </trkpt>
      <trkpt lat="37.342925000" lon="-5.492182000">
        <ele>106.6</ele>
        <time>2020-10-16T14:24:32Z</time>
      </trkpt>
      <trkpt lat="37.342905000" lon="-5.492284000">
        <ele>106.8</ele>
        <time>2020-10-16T14:24:34Z</time>
      </trkpt>
      <trkpt lat="37.342878000" lon="-5.492389000">
        <ele>106.9</ele>
        <time>2020-10-16T14:24:36Z</time>
      </trkpt>
      <trkpt lat="37.342856000" lon="-5.492498000">
        <ele>107.0</ele>
        <time>2020-10-16T14:24:38Z</time>
      </trkpt>
      <trkpt lat="37.342852000" lon="-5.492614000">
        <ele>107.1</ele>
        <time>2020-10-16T14:24:40Z</time>
      </trkpt>
      <trkpt lat="37.342853000" lon="-5.492720000">
        <ele>107.2</ele>
        <time>2020-10-16T14:24:42Z</time>
      </trkpt>
      <trkpt lat="37.342839000" lon="-5.492821000">
        <ele>107.3</ele>
        <time>2020-10-16T14:24:44Z</time>
      </trkpt>
      <trkpt lat="37.342825000" lon="-5.492939000">
        <ele>107.3</ele>
        <time>2020-10-16T14:24:46Z</time>
      </trkpt>
      <trkpt lat="37.342818000" lon="-5.493041000">
        <ele>107.4</ele>
        <time>2020-10-16T14:24:48Z</time>
      </trkpt>
      <trkpt lat="37.342805000" lon="-5.493156000">
        <ele>107.5</ele>
        <time>2020-10-16T14:24:50Z</time>
      </trkpt>
      <trkpt lat="37.342801000" lon="-5.493264000">
        <ele>107.5</ele>
        <time>2020-10-16T14:24:52Z</time>
      </trkpt>
      <trkpt lat="37.342801000" lon="-5.493376000">
        <ele>107.5</ele>
        <time>2020-10-16T14:24:54Z</time>
      </trkpt>
      <trkpt lat="37.342815000" lon="-5.493484000">
        <ele>107.6</ele>
        <time>2020-10-16T14:24:56Z</time>
      </trkpt>
      <trkpt lat="37.342828000" lon="-5.493588000">
        <ele>107.8</ele>
        <time>2020-10-16T14:24:58Z</time>
      </trkpt>
      <trkpt lat="37.342842000" lon="-5.493691000">
        <ele>108.0</ele>
        <time>2020-10-16T14:25:00Z</time>
      </trkpt>
      <trkpt lat="37.342858000" lon="-5.493798000">
        <ele>108.2</ele>
        <time>2020-10-16T14:25:02Z</time>
      </trkpt>
      <trkpt lat="37.342871000" lon="-5.493905000">
        <ele>108.4</ele>
        <time>2020-10-16T14:25:04Z</time>
      </trkpt>
      <trkpt lat="37.342885000" lon="-5.494016000">
        <ele>108.5</ele>
        <time>2020-10-16T14:25:06Z</time>
      </trkpt>
      <trkpt lat="37.342895000" lon="-5.494128000">
        <ele>108.7</ele>
        <time>2020-10-16T14:25:08Z</time>
      </trkpt>
      <trkpt lat="37.342904000" lon="-5.494244000">
        <ele>108.8</ele>
        <time>2020-10-16T14:25:10Z</time>
      </trkpt>
      <trkpt lat="37.342915000" lon="-5.494364000">
        <ele>108.8</ele>
        <time>2020-10-16T14:25:12Z</time>
      </trkpt>
      <trkpt lat="37.342928000" lon="-5.494490000">
        <ele>108.8</ele>
        <time>2020-10-16T14:25:14Z</time>
      </trkpt>
      <trkpt lat="37.342936000" lon="-5.494612000">
        <ele>108.6</ele>
        <time>2020-10-16T14:25:16Z</time>
      </trkpt>
      <trkpt lat="37.342948000" lon="-5.494716000">
        <ele>108.5</ele>
        <time>2020-10-16T14:25:18Z</time>
      </trkpt>
      <trkpt lat="37.342962000" lon="-5.494846000">
        <ele>108.5</ele>
        <time>2020-10-16T14:25:21Z</time>
      </trkpt>
      <trkpt lat="37.342969000" lon="-5.494993000">
        <ele>108.5</ele>
        <time>2020-10-16T14:25:24Z</time>
      </trkpt>
      <trkpt lat="37.342979000" lon="-5.495129000">
        <ele>108.5</ele>
        <time>2020-10-16T14:25:27Z</time>
      </trkpt>
      <trkpt lat="37.342992000" lon="-5.495270000">
        <ele>108.5</ele>
        <time>2020-10-16T14:25:30Z</time>
      </trkpt>
      <trkpt lat="37.342996000" lon="-5.495401000">
        <ele>108.5</ele>
        <time>2020-10-16T14:25:33Z</time>
      </trkpt>
      <trkpt lat="37.343000000" lon="-5.495518000">
        <ele>108.5</ele>
        <time>2020-10-16T14:25:36Z</time>
      </trkpt>
      <trkpt lat="37.343005000" lon="-5.495639000">
        <ele>108.5</ele>
        <time>2020-10-16T14:25:39Z</time>
      </trkpt>
      <trkpt lat="37.343011000" lon="-5.495767000">
        <ele>108.6</ele>
        <time>2020-10-16T14:25:42Z</time>
      </trkpt>
      <trkpt lat="37.343023000" lon="-5.495901000">
        <ele>108.6</ele>
        <time>2020-10-16T14:25:45Z</time>
      </trkpt>
      <trkpt lat="37.343035000" lon="-5.496042000">
        <ele>108.7</ele>
        <time>2020-10-16T14:25:48Z</time>
      </trkpt>
      <trkpt lat="37.343043000" lon="-5.496184000">
        <ele>108.6</ele>
        <time>2020-10-16T14:25:51Z</time>
      </trkpt>
      <trkpt lat="37.343049000" lon="-5.496319000">
        <ele>108.4</ele>
        <time>2020-10-16T14:25:54Z</time>
      </trkpt>
      <trkpt lat="37.343055000" lon="-5.496454000">
        <ele>108.0</ele>
        <time>2020-10-16T14:25:57Z</time>
      </trkpt>
      <trkpt lat="37.343057000" lon="-5.496589000">
        <ele>107.6</ele>
        <time>2020-10-16T14:26:00Z</time>
      </trkpt>
      <trkpt lat="37.343062000" lon="-5.496717000">
        <ele>107.3</ele>
        <time>2020-10-16T14:26:03Z</time>
      </trkpt>
      <trkpt lat="37.343064000" lon="-5.496837000">
        <ele>106.9</ele>
        <time>2020-10-16T14:26:06Z</time>
      </trkpt>
      <trkpt lat="37.343066000" lon="-5.496960000">
        <ele>106.6</ele>
        <time>2020-10-16T14:26:09Z</time>
      </trkpt>
      <trkpt lat="37.343067000" lon="-5.497086000">
        <ele>106.5</ele>
        <time>2020-10-16T14:26:12Z</time>
      </trkpt>
      <trkpt lat="37.343068000" lon="-5.497216000">
        <ele>106.5</ele>
        <time>2020-10-16T14:26:15Z</time>
      </trkpt>
      <trkpt lat="37.343070000" lon="-5.497344000">
        <ele>106.6</ele>
        <time>2020-10-16T14:26:18Z</time>
      </trkpt>
      <trkpt lat="37.343077000" lon="-5.497468000">
        <ele>106.9</ele>
        <time>2020-10-16T14:26:21Z</time>
      </trkpt>
      <trkpt lat="37.343081000" lon="-5.497592000">
        <ele>107.3</ele>
        <time>2020-10-16T14:26:24Z</time>
      </trkpt>
      <trkpt lat="37.343081000" lon="-5.497709000">
        <ele>107.8</ele>
        <time>2020-10-16T14:26:27Z</time>
      </trkpt>
      <trkpt lat="37.343077000" lon="-5.497827000">
        <ele>108.4</ele>
        <time>2020-10-16T14:26:30Z</time>
      </trkpt>
      <trkpt lat="37.343084000" lon="-5.497946000">
        <ele>108.9</ele>
        <time>2020-10-16T14:26:33Z</time>
      </trkpt>
      <trkpt lat="37.343092000" lon="-5.498070000">
        <ele>109.4</ele>
        <time>2020-10-16T14:26:36Z</time>
      </trkpt>
      <trkpt lat="37.343092000" lon="-5.498196000">
        <ele>109.8</ele>
        <time>2020-10-16T14:26:39Z</time>
      </trkpt>
      <trkpt lat="37.343097000" lon="-5.498326000">
        <ele>110.2</ele>
        <time>2020-10-16T14:26:42Z</time>
      </trkpt>
      <trkpt lat="37.343102000" lon="-5.498457000">
        <ele>110.5</ele>
        <time>2020-10-16T14:26:45Z</time>
      </trkpt>
      <trkpt lat="37.343105000" lon="-5.498597000">
        <ele>110.5</ele>
        <time>2020-10-16T14:26:48Z</time>
      </trkpt>
      <trkpt lat="37.343109000" lon="-5.498734000">
        <ele>110.5</ele>
        <time>2020-10-16T14:26:51Z</time>
      </trkpt>
      <trkpt lat="37.343113000" lon="-5.498865000">
        <ele>110.5</ele>
        <time>2020-10-16T14:26:54Z</time>
      </trkpt>
      <trkpt lat="37.343120000" lon="-5.498997000">
        <ele>110.5</ele>
        <time>2020-10-16T14:26:57Z</time>
      </trkpt>
      <trkpt lat="37.343124000" lon="-5.499126000">
        <ele>110.5</ele>
        <time>2020-10-16T14:27:00Z</time>
      </trkpt>
      <trkpt lat="37.343126000" lon="-5.499254000">
        <ele>110.6</ele>
        <time>2020-10-16T14:27:03Z</time>
      </trkpt>
      <trkpt lat="37.343129000" lon="-5.499390000">
        <ele>110.8</ele>
        <time>2020-10-16T14:27:06Z</time>
      </trkpt>
      <trkpt lat="37.343135000" lon="-5.499529000">
        <ele>111.1</ele>
        <time>2020-10-16T14:27:09Z</time>
      </trkpt>
      <trkpt lat="37.343138000" lon="-5.499654000">
        <ele>111.5</ele>
        <time>2020-10-16T14:27:12Z</time>
      </trkpt>
      <trkpt lat="37.343141000" lon="-5.499768000">
        <ele>111.9</ele>
        <time>2020-10-16T14:27:15Z</time>
      </trkpt>
      <trkpt lat="37.343145000" lon="-5.499878000">
        <ele>112.5</ele>
        <time>2020-10-16T14:27:18Z</time>
      </trkpt>
      <trkpt lat="37.343145000" lon="-5.499984000">
        <ele>113.3</ele>
        <time>2020-10-16T14:27:21Z</time>
      </trkpt>
      <trkpt lat="37.343156000" lon="-5.500089000">
        <ele>114.2</ele>
        <time>2020-10-16T14:27:24Z</time>
      </trkpt>
      <trkpt lat="37.343163000" lon="-5.500195000">
        <ele>115.1</ele>
        <time>2020-10-16T14:27:27Z</time>
      </trkpt>
      <trkpt lat="37.343170000" lon="-5.500327000">
        <ele>116.0</ele>
        <time>2020-10-16T14:27:31Z</time>
      </trkpt>
      <trkpt lat="37.343172000" lon="-5.500431000">
        <ele>116.9</ele>
        <time>2020-10-16T14:27:34Z</time>
      </trkpt>
      <trkpt lat="37.343179000" lon="-5.500558000">
        <ele>117.8</ele>
        <time>2020-10-16T14:27:38Z</time>
      </trkpt>
      <trkpt lat="37.343182000" lon="-5.500670000">
        <ele>118.6</ele>
        <time>2020-10-16T14:27:42Z</time>
      </trkpt>
      <trkpt lat="37.343188000" lon="-5.500779000">
        <ele>119.5</ele>
        <time>2020-10-16T14:27:47Z</time>
      </trkpt>
      <trkpt lat="37.343202000" lon="-5.500881000">
        <ele>120.2</ele>
        <time>2020-10-16T14:27:52Z</time>
      </trkpt>
      <trkpt lat="37.343212000" lon="-5.501006000">
        <ele>120.8</ele>
        <time>2020-10-16T14:27:57Z</time>
      </trkpt>
      <trkpt lat="37.343222000" lon="-5.501123000">
        <ele>121.2</ele>
        <time>2020-10-16T14:28:02Z</time>
      </trkpt>
      <trkpt lat="37.343228000" lon="-5.501225000">
        <ele>121.5</ele>
        <time>2020-10-16T14:28:06Z</time>
      </trkpt>
      <trkpt lat="37.343241000" lon="-5.501334000">
        <ele>121.5</ele>
        <time>2020-10-16T14:28:10Z</time>
      </trkpt>
      <trkpt lat="37.343265000" lon="-5.501433000">
        <ele>121.5</ele>
        <time>2020-10-16T14:28:14Z</time>
      </trkpt>
      <trkpt lat="37.343288000" lon="-5.501546000">
        <ele>121.6</ele>
        <time>2020-10-16T14:28:19Z</time>
      </trkpt>
      <trkpt lat="37.343301000" lon="-5.501647000">
        <ele>121.8</ele>
        <time>2020-10-16T14:29:21Z</time>
      </trkpt>
      <trkpt lat="37.343302000" lon="-5.501751000">
        <ele>122.1</ele>
        <time>2020-10-16T14:29:25Z</time>
      </trkpt>
      <trkpt lat="37.343304000" lon="-5.501862000">
        <ele>122.5</ele>
        <time>2020-10-16T14:29:29Z</time>
      </trkpt>
      <trkpt lat="37.343303000" lon="-5.501965000">
        <ele>123.0</ele>
        <time>2020-10-16T14:29:33Z</time>
      </trkpt>
      <trkpt lat="37.343305000" lon="-5.502076000">
        <ele>123.5</ele>
        <time>2020-10-16T14:29:37Z</time>
      </trkpt>
      <trkpt lat="37.343311000" lon="-5.502200000">
        <ele>123.9</ele>
        <time>2020-10-16T14:29:42Z</time>
      </trkpt>
      <trkpt lat="37.343318000" lon="-5.502330000">
        <ele>124.5</ele>
        <time>2020-10-16T14:29:47Z</time>
      </trkpt>
      <trkpt lat="37.343326000" lon="-5.502445000">
        <ele>125.1</ele>
        <time>2020-10-16T14:29:51Z</time>
      </trkpt>
      <trkpt lat="37.343330000" lon="-5.502572000">
        <ele>125.7</ele>
        <time>2020-10-16T14:29:55Z</time>
      </trkpt>
      <trkpt lat="37.343336000" lon="-5.502674000">
        <ele>126.5</ele>
        <time>2020-10-16T14:29:58Z</time>
      </trkpt>
      <trkpt lat="37.343346000" lon="-5.502777000">
        <ele>127.2</ele>
        <time>2020-10-16T14:30:01Z</time>
      </trkpt>
      <trkpt lat="37.343350000" lon="-5.502883000">
        <ele>127.8</ele>
        <time>2020-10-16T14:30:04Z</time>
      </trkpt>
      <trkpt lat="37.343355000" lon="-5.502993000">
        <ele>128.5</ele>
        <time>2020-10-16T14:30:07Z</time>
      </trkpt>
      <trkpt lat="37.343359000" lon="-5.503102000">
        <ele>128.9</ele>
        <time>2020-10-16T14:30:10Z</time>
      </trkpt>
      <trkpt lat="37.343357000" lon="-5.503235000">
        <ele>129.5</ele>
        <time>2020-10-16T14:30:14Z</time>
      </trkpt>
      <trkpt lat="37.343374000" lon="-5.503356000">
        <ele>130.0</ele>
        <time>2020-10-16T14:30:18Z</time>
      </trkpt>
      <trkpt lat="37.343381000" lon="-5.503460000">
        <ele>130.5</ele>
        <time>2020-10-16T14:30:22Z</time>
      </trkpt>
      <trkpt lat="37.343385000" lon="-5.503583000">
        <ele>131.0</ele>
        <time>2020-10-16T14:30:28Z</time>
      </trkpt>
      <trkpt lat="37.343391000" lon="-5.503693000">
        <ele>131.4</ele>
        <time>2020-10-16T14:30:33Z</time>
      </trkpt>
      <trkpt lat="37.343399000" lon="-5.503805000">
        <ele>131.6</ele>
        <time>2020-10-16T14:30:38Z</time>
      </trkpt>
      <trkpt lat="37.343398000" lon="-5.503907000">
        <ele>131.8</ele>
        <time>2020-10-16T14:30:42Z</time>
      </trkpt>
      <trkpt lat="37.343396000" lon="-5.504017000">
        <ele>131.8</ele>
        <time>2020-10-16T14:30:46Z</time>
      </trkpt>
      <trkpt lat="37.343394000" lon="-5.504150000">
        <ele>131.7</ele>
        <time>2020-10-16T14:30:50Z</time>
      </trkpt>
      <trkpt lat="37.343385000" lon="-5.504265000">
        <ele>131.6</ele>
        <time>2020-10-16T14:30:53Z</time>
      </trkpt>
      <trkpt lat="37.343377000" lon="-5.504391000">
        <ele>131.5</ele>
        <time>2020-10-16T14:30:56Z</time>
      </trkpt>
      <trkpt lat="37.343368000" lon="-5.504526000">
        <ele>131.4</ele>
        <time>2020-10-16T14:30:59Z</time>
      </trkpt>
      <trkpt lat="37.343363000" lon="-5.504632000">
        <ele>131.2</ele>
        <time>2020-10-16T14:31:01Z</time>
      </trkpt>
      <trkpt lat="37.343359000" lon="-5.504756000">
        <ele>130.9</ele>
        <time>2020-10-16T14:31:03Z</time>
      </trkpt>
      <trkpt lat="37.343339000" lon="-5.504883000">
        <ele>130.7</ele>
        <time>2020-10-16T14:31:05Z</time>
      </trkpt>
      <trkpt lat="37.343316000" lon="-5.505004000">
        <ele>130.5</ele>
        <time>2020-10-16T14:31:07Z</time>
      </trkpt>
      <trkpt lat="37.343299000" lon="-5.505119000">
        <ele>130.5</ele>
        <time>2020-10-16T14:31:09Z</time>
      </trkpt>
      <trkpt lat="37.343285000" lon="-5.505236000">
        <ele>130.4</ele>
        <time>2020-10-16T14:31:11Z</time>
      </trkpt>
      <trkpt lat="37.343277000" lon="-5.505358000">
        <ele>130.4</ele>
        <time>2020-10-16T14:31:13Z</time>
      </trkpt>
      <trkpt lat="37.343275000" lon="-5.505467000">
        <ele>130.4</ele>
        <time>2020-10-16T14:31:15Z</time>
      </trkpt>
      <trkpt lat="37.343287000" lon="-5.505608000">
        <ele>130.2</ele>
        <time>2020-10-16T14:31:18Z</time>
      </trkpt>
      <trkpt lat="37.343292000" lon="-5.505731000">
        <ele>130.0</ele>
        <time>2020-10-16T14:31:21Z</time>
      </trkpt>
      <trkpt lat="37.343294000" lon="-5.505840000">
        <ele>129.8</ele>
        <time>2020-10-16T14:31:24Z</time>
      </trkpt>
      <trkpt lat="37.343259000" lon="-5.505961000">
        <ele>129.6</ele>
        <time>2020-10-16T14:31:28Z</time>
      </trkpt>
      <trkpt lat="37.343216000" lon="-5.506072000">
        <ele>129.5</ele>
        <time>2020-10-16T14:31:32Z</time>
      </trkpt>
      <trkpt lat="37.343158000" lon="-5.506186000">
        <ele>129.5</ele>
        <time>2020-10-16T14:31:36Z</time>
      </trkpt>
      <trkpt lat="37.343112000" lon="-5.506275000">
        <ele>129.4</ele>
        <time>2020-10-16T14:31:39Z</time>
      </trkpt>
      <trkpt lat="37.343056000" lon="-5.506372000">
        <ele>129.3</ele>
        <time>2020-10-16T14:31:42Z</time>
      </trkpt>
      <trkpt lat="37.342997000" lon="-5.506458000">
        <ele>129.2</ele>
        <time>2020-10-16T14:31:53Z</time>
      </trkpt>
      <trkpt lat="37.342859000" lon="-5.506599000">
        <ele>129.1</ele>
        <time>2020-10-16T14:31:54Z</time>
      </trkpt>
      <trkpt lat="37.342908000" lon="-5.506516000">
        <ele>129.1</ele>
        <time>2020-10-16T14:32:03Z</time>
      </trkpt>
      <trkpt lat="37.342980000" lon="-5.506430000">
        <ele>129.2</ele>
        <time>2020-10-16T14:32:03Z</time>
      </trkpt>
      <trkpt lat="37.343048000" lon="-5.506343000">
        <ele>129.3</ele>
        <time>2020-10-16T14:32:06Z</time>
      </trkpt>
      <trkpt lat="37.343110000" lon="-5.506250000">
        <ele>129.5</ele>
        <time>2020-10-16T14:32:09Z</time>
      </trkpt>
      <trkpt lat="37.343165000" lon="-5.506164000">
        <ele>129.8</ele>
        <time>2020-10-16T14:32:12Z</time>
      </trkpt>
      <trkpt lat="37.343220000" lon="-5.506050000">
        <ele>130.1</ele>
        <time>2020-10-16T14:32:16Z</time>
      </trkpt>
      <trkpt lat="37.343264000" lon="-5.505948000">
        <ele>130.4</ele>
        <time>2020-10-16T14:32:20Z</time>
      </trkpt>
      <trkpt lat="37.343288000" lon="-5.505837000">
        <ele>130.6</ele>
        <time>2020-10-16T14:33:23Z</time>
      </trkpt>
      <trkpt lat="37.343646000" lon="-5.505531000">
        <ele>131.0</ele>
        <time>2020-10-16T14:33:24Z</time>
      </trkpt>
      <trkpt lat="37.343728000" lon="-5.505527000">
        <ele>131.4</ele>
        <time>2020-10-16T14:33:27Z</time>
      </trkpt>
      <trkpt lat="37.343814000" lon="-5.505508000">
        <ele>131.7</ele>
        <time>2020-10-16T14:33:31Z</time>
      </trkpt>
      <trkpt lat="37.343897000" lon="-5.505485000">
        <ele>132.0</ele>
        <time>2020-10-16T14:33:56Z</time>
      </trkpt>
      <trkpt lat="37.344002000" lon="-5.505473000">
        <ele>132.3</ele>
        <time>2020-10-16T14:34:00Z</time>
      </trkpt>
      <trkpt lat="37.344097000" lon="-5.505470000">
        <ele>132.5</ele>
        <time>2020-10-16T14:34:03Z</time>
      </trkpt>
      <trkpt lat="37.344201000" lon="-5.505473000">
        <ele>132.7</ele>
        <time>2020-10-16T14:34:06Z</time>
      </trkpt>
      <trkpt lat="37.344308000" lon="-5.505472000">
        <ele>132.8</ele>
        <time>2020-10-16T14:34:09Z</time>
      </trkpt>
      <trkpt lat="37.344420000" lon="-5.505470000">
        <ele>132.9</ele>
        <time>2020-10-16T14:34:14Z</time>
      </trkpt>
      <trkpt lat="37.344528000" lon="-5.505465000">
        <ele>132.9</ele>
        <time>2020-10-16T14:34:15Z</time>
      </trkpt>
      <trkpt lat="37.344634000" lon="-5.505453000">
        <ele>132.9</ele>
        <time>2020-10-16T14:34:18Z</time>
      </trkpt>
      <trkpt lat="37.344737000" lon="-5.505437000">
        <ele>132.8</ele>
        <time>2020-10-16T14:34:21Z</time>
      </trkpt>
      <trkpt lat="37.344842000" lon="-5.505418000">
        <ele>132.7</ele>
        <time>2020-10-16T14:34:24Z</time>
      </trkpt>
      <trkpt lat="37.344957000" lon="-5.505389000">
        <ele>132.6</ele>
        <time>2020-10-16T14:34:27Z</time>
      </trkpt>
      <trkpt lat="37.345039000" lon="-5.505362000">
        <ele>132.5</ele>
        <time>2020-10-16T14:34:29Z</time>
      </trkpt>
      <trkpt lat="37.345154000" lon="-5.505331000">
        <ele>132.5</ele>
        <time>2020-10-16T14:34:32Z</time>
      </trkpt>
      <trkpt lat="37.345256000" lon="-5.505308000">
        <ele>132.4</ele>
        <time>2020-10-16T14:34:35Z</time>
      </trkpt>
      <trkpt lat="37.345350000" lon="-5.505277000">
        <ele>132.2</ele>
        <time>2020-10-16T14:34:38Z</time>
      </trkpt>
      <trkpt lat="37.345456000" lon="-5.505232000">
        <ele>132.1</ele>
        <time>2020-10-16T14:34:41Z</time>
      </trkpt>
      <trkpt lat="37.345563000" lon="-5.505173000">
        <ele>132.1</ele>
        <time>2020-10-16T14:34:44Z</time>
      </trkpt>
      <trkpt lat="37.345670000" lon="-5.505106000">
        <ele>132.2</ele>
        <time>2020-10-16T14:34:47Z</time>
      </trkpt>
      <trkpt lat="37.345776000" lon="-5.505037000">
        <ele>132.3</ele>
        <time>2020-10-16T14:34:50Z</time>
      </trkpt>
      <trkpt lat="37.345877000" lon="-5.504953000">
        <ele>132.4</ele>
        <time>2020-10-16T14:34:53Z</time>
      </trkpt>
      <trkpt lat="37.345947000" lon="-5.504893000">
        <ele>132.5</ele>
        <time>2020-10-16T14:34:55Z</time>
      </trkpt>
      <trkpt lat="37.346016000" lon="-5.504835000">
        <ele>132.5</ele>
        <time>2020-10-16T14:34:57Z</time>
      </trkpt>
      <trkpt lat="37.346082000" lon="-5.504774000">
        <ele>132.6</ele>
        <time>2020-10-16T14:34:59Z</time>
      </trkpt>
      <trkpt lat="37.346150000" lon="-5.504715000">
        <ele>132.7</ele>
        <time>2020-10-16T14:35:01Z</time>
      </trkpt>
      <trkpt lat="37.346218000" lon="-5.504656000">
        <ele>132.9</ele>
        <time>2020-10-16T14:35:03Z</time>
      </trkpt>
      <trkpt lat="37.346313000" lon="-5.504562000">
        <ele>133.1</ele>
        <time>2020-10-16T14:35:06Z</time>
      </trkpt>
      <trkpt lat="37.346394000" lon="-5.504462000">
        <ele>133.3</ele>
        <time>2020-10-16T14:35:09Z</time>
      </trkpt>
      <trkpt lat="37.346451000" lon="-5.504371000">
        <ele>133.4</ele>
        <time>2020-10-16T14:35:12Z</time>
      </trkpt>
      <trkpt lat="37.346513000" lon="-5.504282000">
        <ele>133.5</ele>
        <time>2020-10-16T14:35:15Z</time>
      </trkpt>
      <trkpt lat="37.346577000" lon="-5.504182000">
        <ele>133.5</ele>
        <time>2020-10-16T14:35:18Z</time>
      </trkpt>
      <trkpt lat="37.346647000" lon="-5.504090000">
        <ele>133.5</ele>
        <time>2020-10-16T14:35:21Z</time>
      </trkpt>
      <trkpt lat="37.346720000" lon="-5.504003000">
        <ele>133.5</ele>
        <time>2020-10-16T14:35:24Z</time>
      </trkpt>
      <trkpt lat="37.346795000" lon="-5.503901000">
        <ele>133.5</ele>
        <time>2020-10-16T14:35:27Z</time>
      </trkpt>
      <trkpt lat="37.346883000" lon="-5.503808000">
        <ele>133.5</ele>
        <time>2020-10-16T14:35:30Z</time>
      </trkpt>
      <trkpt lat="37.346966000" lon="-5.503712000">
        <ele>133.7</ele>
        <time>2020-10-16T14:35:33Z</time>
      </trkpt>
      <trkpt lat="37.347048000" lon="-5.503612000">
        <ele>133.9</ele>
        <time>2020-10-16T14:35:36Z</time>
      </trkpt>
      <trkpt lat="37.347130000" lon="-5.503509000">
        <ele>134.2</ele>
        <time>2020-10-16T14:35:39Z</time>
      </trkpt>
      <trkpt lat="37.347208000" lon="-5.503407000">
        <ele>134.5</ele>
        <time>2020-10-16T14:35:42Z</time>
      </trkpt>
      <trkpt lat="37.347285000" lon="-5.503313000">
        <ele>134.7</ele>
        <time>2020-10-16T14:35:45Z</time>
      </trkpt>
      <trkpt lat="37.347369000" lon="-5.503232000">
        <ele>135.2</ele>
        <time>2020-10-16T14:35:48Z</time>
      </trkpt>
      <trkpt lat="37.347442000" lon="-5.503146000">
        <ele>135.6</ele>
        <time>2020-10-16T14:35:51Z</time>
      </trkpt>
      <trkpt lat="37.347517000" lon="-5.503062000">
        <ele>136.0</ele>
        <time>2020-10-16T14:35:54Z</time>
      </trkpt>
      <trkpt lat="37.347596000" lon="-5.502977000">
        <ele>136.4</ele>
        <time>2020-10-16T14:35:57Z</time>
      </trkpt>
      <trkpt lat="37.347688000" lon="-5.502933000">
        <ele>136.6</ele>
        <time>2020-10-16T14:36:00Z</time>
      </trkpt>
      <trkpt lat="37.347766000" lon="-5.503007000">
        <ele>136.8</ele>
        <time>2020-10-16T14:36:04Z</time>
      </trkpt>
      <trkpt lat="37.347792000" lon="-5.503139000">
        <ele>136.8</ele>
        <time>2020-10-16T14:36:08Z</time>
      </trkpt>
      <trkpt lat="37.347820000" lon="-5.503265000">
        <ele>136.7</ele>
        <time>2020-10-16T14:36:11Z</time>
      </trkpt>
      <trkpt lat="37.347858000" lon="-5.503410000">
        <ele>136.5</ele>
        <time>2020-10-16T14:36:14Z</time>
      </trkpt>
      <trkpt lat="37.347894000" lon="-5.503525000">
        <ele>136.4</ele>
        <time>2020-10-16T14:36:16Z</time>
      </trkpt>
      <trkpt lat="37.347929000" lon="-5.503630000">
        <ele>136.2</ele>
        <time>2020-10-16T14:36:18Z</time>
      </trkpt>
      <trkpt lat="37.347964000" lon="-5.503742000">
        <ele>135.8</ele>
        <time>2020-10-16T14:36:20Z</time>
      </trkpt>
      <trkpt lat="37.347991000" lon="-5.503840000">
        <ele>135.5</ele>
        <time>2020-10-16T14:36:22Z</time>
      </trkpt>
      <trkpt lat="37.348014000" lon="-5.503940000">
        <ele>135.5</ele>
        <time>2020-10-16T14:36:24Z</time>
      </trkpt>
      <trkpt lat="37.348054000" lon="-5.504073000">
        <ele>135.5</ele>
        <time>2020-10-16T14:36:27Z</time>
      </trkpt>
      <trkpt lat="37.348088000" lon="-5.504199000">
        <ele>135.5</ele>
        <time>2020-10-16T14:36:30Z</time>
      </trkpt>
      <trkpt lat="37.348114000" lon="-5.504302000">
        <ele>135.6</ele>
        <time>2020-10-16T14:36:33Z</time>
      </trkpt>
      <trkpt lat="37.348128000" lon="-5.504404000">
        <ele>135.8</ele>
        <time>2020-10-16T14:36:49Z</time>
      </trkpt>
      <trkpt lat="37.348155000" lon="-5.504502000">
        <ele>136.0</ele>
        <time>2020-10-16T14:36:58Z</time>
      </trkpt>
      <trkpt lat="37.348191000" lon="-5.504606000">
        <ele>136.1</ele>
        <time>2020-10-16T14:37:06Z</time>
      </trkpt>
      <trkpt lat="37.348227000" lon="-5.504726000">
        <ele>136.2</ele>
        <time>2020-10-16T14:37:11Z</time>
      </trkpt>
      <trkpt lat="37.348254000" lon="-5.504826000">
        <ele>136.3</ele>
        <time>2020-10-16T14:37:14Z</time>
      </trkpt>
      <trkpt lat="37.348288000" lon="-5.504938000">
        <ele>136.4</ele>
        <time>2020-10-16T14:37:17Z</time>
      </trkpt>
      <trkpt lat="37.348327000" lon="-5.505070000">
        <ele>136.4</ele>
        <time>2020-10-16T14:37:20Z</time>
      </trkpt>
      <trkpt lat="37.348350000" lon="-5.505170000">
        <ele>136.3</ele>
        <time>2020-10-16T14:37:22Z</time>
      </trkpt>
      <trkpt lat="37.348378000" lon="-5.505273000">
        <ele>136.1</ele>
        <time>2020-10-16T14:37:24Z</time>
      </trkpt>
      <trkpt lat="37.348405000" lon="-5.505382000">
        <ele>135.9</ele>
        <time>2020-10-16T14:37:26Z</time>
      </trkpt>
      <trkpt lat="37.348433000" lon="-5.505493000">
        <ele>135.7</ele>
        <time>2020-10-16T14:37:28Z</time>
      </trkpt>
      <trkpt lat="37.348471000" lon="-5.505602000">
        <ele>135.5</ele>
        <time>2020-10-16T14:37:30Z</time>
      </trkpt>
      <trkpt lat="37.348507000" lon="-5.505715000">
        <ele>135.4</ele>
        <time>2020-10-16T14:37:32Z</time>
      </trkpt>
      <trkpt lat="37.348541000" lon="-5.505838000">
        <ele>135.3</ele>
        <time>2020-10-16T14:37:34Z</time>
      </trkpt>
      <trkpt lat="37.348577000" lon="-5.505959000">
        <ele>135.2</ele>
        <time>2020-10-16T14:37:36Z</time>
      </trkpt>
      <trkpt lat="37.348610000" lon="-5.506081000">
        <ele>135.1</ele>
        <time>2020-10-16T14:37:38Z</time>
      </trkpt>
      <trkpt lat="37.348647000" lon="-5.506198000">
        <ele>135.0</ele>
        <time>2020-10-16T14:37:40Z</time>
      </trkpt>
      <trkpt lat="37.348681000" lon="-5.506321000">
        <ele>135.0</ele>
        <time>2020-10-16T14:37:42Z</time>
      </trkpt>
      <trkpt lat="37.348717000" lon="-5.506440000">
        <ele>135.0</ele>
        <time>2020-10-16T14:37:44Z</time>
      </trkpt>
      <trkpt lat="37.348756000" lon="-5.506561000">
        <ele>134.9</ele>
        <time>2020-10-16T14:37:46Z</time>
      </trkpt>
      <trkpt lat="37.348786000" lon="-5.506686000">
        <ele>134.8</ele>
        <time>2020-10-16T14:37:48Z</time>
      </trkpt>
      <trkpt lat="37.348820000" lon="-5.506812000">
        <ele>134.8</ele>
        <time>2020-10-16T14:37:50Z</time>
      </trkpt>
      <trkpt lat="37.348854000" lon="-5.506924000">
        <ele>134.8</ele>
        <time>2020-10-16T14:37:52Z</time>
      </trkpt>
      <trkpt lat="37.348884000" lon="-5.507042000">
        <ele>135.0</ele>
        <time>2020-10-16T14:37:54Z</time>
      </trkpt>
      <trkpt lat="37.348921000" lon="-5.507151000">
        <ele>135.4</ele>
        <time>2020-10-16T14:37:56Z</time>
      </trkpt>
      <trkpt lat="37.348954000" lon="-5.507256000">
        <ele>135.8</ele>
        <time>2020-10-16T14:37:58Z</time>
      </trkpt>
      <trkpt lat="37.348985000" lon="-5.507360000">
        <ele>136.3</ele>
        <time>2020-10-16T14:38:00Z</time>
      </trkpt>
      <trkpt lat="37.349026000" lon="-5.507478000">
        <ele>136.7</ele>
        <time>2020-10-16T14:38:02Z</time>
      </trkpt>
      <trkpt lat="37.349064000" lon="-5.507603000">
        <ele>137.2</ele>
        <time>2020-10-16T14:38:04Z</time>
      </trkpt>
      <trkpt lat="37.349102000" lon="-5.507741000">
        <ele>137.5</ele>
        <time>2020-10-16T14:38:06Z</time>
      </trkpt>
      <trkpt lat="37.349134000" lon="-5.507879000">
        <ele>138.0</ele>
        <time>2020-10-16T14:38:08Z</time>
      </trkpt>
      <trkpt lat="37.349169000" lon="-5.507996000">
        <ele>138.4</ele>
        <time>2020-10-16T14:38:10Z</time>
      </trkpt>
      <trkpt lat="37.349206000" lon="-5.508116000">
        <ele>138.5</ele>
        <time>2020-10-16T14:38:12Z</time>
      </trkpt>
      <trkpt lat="37.349239000" lon="-5.508235000">
        <ele>138.6</ele>
        <time>2020-10-16T14:38:14Z</time>
      </trkpt>
      <trkpt lat="37.349273000" lon="-5.508357000">
        <ele>138.5</ele>
        <time>2020-10-16T14:38:16Z</time>
      </trkpt>
      <trkpt lat="37.349305000" lon="-5.508476000">
        <ele>138.2</ele>
        <time>2020-10-16T14:38:18Z</time>
      </trkpt>
      <trkpt lat="37.349341000" lon="-5.508602000">
        <ele>137.7</ele>
        <time>2020-10-16T14:38:20Z</time>
      </trkpt>
      <trkpt lat="37.349373000" lon="-5.508737000">
        <ele>137.3</ele>
        <time>2020-10-16T14:38:22Z</time>
      </trkpt>
      <trkpt lat="37.349415000" lon="-5.508861000">
        <ele>136.9</ele>
        <time>2020-10-16T14:38:24Z</time>
      </trkpt>
      <trkpt lat="37.349453000" lon="-5.508989000">
        <ele>136.5</ele>
        <time>2020-10-16T14:38:26Z</time>
      </trkpt>
      <trkpt lat="37.349488000" lon="-5.509112000">
        <ele>136.2</ele>
        <time>2020-10-16T14:38:28Z</time>
      </trkpt>
      <trkpt lat="37.349528000" lon="-5.509225000">
        <ele>135.8</ele>
        <time>2020-10-16T14:38:30Z</time>
      </trkpt>
      <trkpt lat="37.349564000" lon="-5.509331000">
        <ele>135.5</ele>
        <time>2020-10-16T14:38:32Z</time>
      </trkpt>
      <trkpt lat="37.349594000" lon="-5.509427000">
        <ele>135.3</ele>
        <time>2020-10-16T14:38:34Z</time>
      </trkpt>
      <trkpt lat="37.349626000" lon="-5.509528000">
        <ele>135.2</ele>
        <time>2020-10-16T14:38:36Z</time>
      </trkpt>
      <trkpt lat="37.349681000" lon="-5.509649000">
        <ele>135.0</ele>
        <time>2020-10-16T14:38:39Z</time>
      </trkpt>
      <trkpt lat="37.349739000" lon="-5.509758000">
        <ele>134.9</ele>
        <time>2020-10-16T14:38:42Z</time>
      </trkpt>
      <trkpt lat="37.349827000" lon="-5.509750000">
        <ele>134.7</ele>
        <time>2020-10-16T14:39:17Z</time>
      </trkpt>
      <trkpt lat="37.349897000" lon="-5.509682000">
        <ele>134.5</ele>
        <time>2020-10-16T14:39:20Z</time>
      </trkpt>
      <trkpt lat="37.349987000" lon="-5.509593000">
        <ele>134.3</ele>
        <time>2020-10-16T14:39:23Z</time>
      </trkpt>
      <trkpt lat="37.350055000" lon="-5.509523000">
        <ele>134.0</ele>
        <time>2020-10-16T14:39:25Z</time>
      </trkpt>
      <trkpt lat="37.350134000" lon="-5.509436000">
        <ele>133.8</ele>
        <time>2020-10-16T14:39:27Z</time>
      </trkpt>
      <trkpt lat="37.350207000" lon="-5.509365000">
        <ele>133.5</ele>
        <time>2020-10-16T14:39:29Z</time>
      </trkpt>
      <trkpt lat="37.350280000" lon="-5.509283000">
        <ele>133.4</ele>
        <time>2020-10-16T14:39:31Z</time>
      </trkpt>
      <trkpt lat="37.350360000" lon="-5.509206000">
        <ele>133.0</ele>
        <time>2020-10-16T14:39:33Z</time>
      </trkpt>
      <trkpt lat="37.350436000" lon="-5.509125000">
        <ele>132.6</ele>
        <time>2020-10-16T14:39:35Z</time>
      </trkpt>
      <trkpt lat="37.350519000" lon="-5.509035000">
        <ele>132.3</ele>
        <time>2020-10-16T14:39:37Z</time>
      </trkpt>
      <trkpt lat="37.350600000" lon="-5.508944000">
        <ele>131.9</ele>
        <time>2020-10-16T14:39:39Z</time>
      </trkpt>
      <trkpt lat="37.350685000" lon="-5.508851000">
        <ele>131.5</ele>
        <time>2020-10-16T14:39:41Z</time>
      </trkpt>
      <trkpt lat="37.350772000" lon="-5.508752000">
        <ele>131.2</ele>
        <time>2020-10-16T14:39:43Z</time>
      </trkpt>
      <trkpt lat="37.350868000" lon="-5.508654000">
        <ele>130.7</ele>
        <time>2020-10-16T14:39:45Z</time>
      </trkpt>
      <trkpt lat="37.350969000" lon="-5.508556000">
        <ele>130.2</ele>
        <time>2020-10-16T14:39:47Z</time>
      </trkpt>
      <trkpt lat="37.351080000" lon="-5.508471000">
        <ele>129.5</ele>
        <time>2020-10-16T14:39:49Z</time>
      </trkpt>
      <trkpt lat="37.351202000" lon="-5.508393000">
        <ele>128.9</ele>
        <time>2020-10-16T14:39:51Z</time>
      </trkpt>
      <trkpt lat="37.351325000" lon="-5.508337000">
        <ele>128.3</ele>
        <time>2020-10-16T14:39:53Z</time>
      </trkpt>
      <trkpt lat="37.351460000" lon="-5.508316000">
        <ele>127.6</ele>
        <time>2020-10-16T14:39:55Z</time>
      </trkpt>
      <trkpt lat="37.351592000" lon="-5.508306000">
        <ele>126.9</ele>
        <time>2020-10-16T14:39:57Z</time>
      </trkpt>
      <trkpt lat="37.351728000" lon="-5.508310000">
        <ele>126.2</ele>
        <time>2020-10-16T14:39:59Z</time>
      </trkpt>
      <trkpt lat="37.351859000" lon="-5.508323000">
        <ele>125.4</ele>
        <time>2020-10-16T14:40:01Z</time>
      </trkpt>
      <trkpt lat="37.351990000" lon="-5.508338000">
        <ele>124.6</ele>
        <time>2020-10-16T14:40:03Z</time>
      </trkpt>
      <trkpt lat="37.352124000" lon="-5.508349000">
        <ele>123.8</ele>
        <time>2020-10-16T14:40:05Z</time>
      </trkpt>
      <trkpt lat="37.352261000" lon="-5.508358000">
        <ele>123.1</ele>
        <time>2020-10-16T14:40:07Z</time>
      </trkpt>
      <trkpt lat="37.352405000" lon="-5.508370000">
        <ele>122.5</ele>
        <time>2020-10-16T14:40:09Z</time>
      </trkpt>
      <trkpt lat="37.352551000" lon="-5.508377000">
        <ele>121.8</ele>
        <time>2020-10-16T14:40:11Z</time>
      </trkpt>
      <trkpt lat="37.352699000" lon="-5.508392000">
        <ele>121.2</ele>
        <time>2020-10-16T14:40:13Z</time>
      </trkpt>
      <trkpt lat="37.352844000" lon="-5.508401000">
        <ele>120.5</ele>
        <time>2020-10-16T14:40:15Z</time>
      </trkpt>
      <trkpt lat="37.352960000" lon="-5.508409000">
        <ele>119.8</ele>
        <time>2020-10-16T14:40:17Z</time>
      </trkpt>
      <trkpt lat="37.353066000" lon="-5.508425000">
        <ele>119.2</ele>
        <time>2020-10-16T14:40:20Z</time>
      </trkpt>
      <trkpt lat="37.353004000" lon="-5.508495000">
        <ele>118.7</ele>
        <time>2020-10-16T14:40:47Z</time>
      </trkpt>
      <trkpt lat="37.353074000" lon="-5.508560000">
        <ele>118.5</ele>
        <time>2020-10-16T14:40:50Z</time>
      </trkpt>
      <trkpt lat="37.353181000" lon="-5.508647000">
        <ele>118.3</ele>
        <time>2020-10-16T14:40:53Z</time>
      </trkpt>
      <trkpt lat="37.353227000" lon="-5.508762000">
        <ele>118.2</ele>
        <time>2020-10-16T14:40:55Z</time>
      </trkpt>
      <trkpt lat="37.353266000" lon="-5.508884000">
        <ele>118.1</ele>
        <time>2020-10-16T14:40:57Z</time>
      </trkpt>
      <trkpt lat="37.353311000" lon="-5.508995000">
        <ele>117.9</ele>
        <time>2020-10-16T14:40:59Z</time>
      </trkpt>
      <trkpt lat="37.353358000" lon="-5.509092000">
        <ele>117.7</ele>
        <time>2020-10-16T14:41:01Z</time>
      </trkpt>
      <trkpt lat="37.353405000" lon="-5.509189000">
        <ele>117.5</ele>
        <time>2020-10-16T14:41:03Z</time>
      </trkpt>
      <trkpt lat="37.353452000" lon="-5.509277000">
        <ele>117.4</ele>
        <time>2020-10-16T14:41:05Z</time>
      </trkpt>
      <trkpt lat="37.353515000" lon="-5.509404000">
        <ele>117.1</ele>
        <time>2020-10-16T14:41:08Z</time>
      </trkpt>
      <trkpt lat="37.353571000" lon="-5.509533000">
        <ele>116.9</ele>
        <time>2020-10-16T14:41:11Z</time>
      </trkpt>
      <trkpt lat="37.353637000" lon="-5.509654000">
        <ele>116.6</ele>
        <time>2020-10-16T14:41:14Z</time>
      </trkpt>
      <trkpt lat="37.353696000" lon="-5.509770000">
        <ele>116.3</ele>
        <time>2020-10-16T14:41:17Z</time>
      </trkpt>
      <trkpt lat="37.353748000" lon="-5.509873000">
        <ele>115.8</ele>
        <time>2020-10-16T14:41:20Z</time>
      </trkpt>
      <trkpt lat="37.353799000" lon="-5.509975000">
        <ele>115.3</ele>
        <time>2020-10-16T14:41:23Z</time>
      </trkpt>
      <trkpt lat="37.353846000" lon="-5.510074000">
        <ele>114.7</ele>
        <time>2020-10-16T14:41:26Z</time>
      </trkpt>
      <trkpt lat="37.353888000" lon="-5.510185000">
        <ele>114.3</ele>
        <time>2020-10-16T14:42:15Z</time>
      </trkpt>
      <trkpt lat="37.353944000" lon="-5.510288000">
        <ele>113.8</ele>
        <time>2020-10-16T14:42:18Z</time>
      </trkpt>
      <trkpt lat="37.354005000" lon="-5.510421000">
        <ele>113.5</ele>
        <time>2020-10-16T14:42:21Z</time>
      </trkpt>
      <trkpt lat="37.354042000" lon="-5.510526000">
        <ele>113.2</ele>
        <time>2020-10-16T14:42:23Z</time>
      </trkpt>
      <trkpt lat="37.354082000" lon="-5.510633000">
        <ele>113.0</ele>
        <time>2020-10-16T14:42:25Z</time>
      </trkpt>
      <trkpt lat="37.354124000" lon="-5.510743000">
        <ele>112.8</ele>
        <time>2020-10-16T14:42:27Z</time>
      </trkpt>
      <trkpt lat="37.354167000" lon="-5.510856000">
        <ele>112.6</ele>
        <time>2020-10-16T14:42:29Z</time>
      </trkpt>
      <trkpt lat="37.354200000" lon="-5.510972000">
        <ele>112.5</ele>
        <time>2020-10-16T14:42:31Z</time>
      </trkpt>
      <trkpt lat="37.354220000" lon="-5.511073000">
        <ele>112.2</ele>
        <time>2020-10-16T14:42:33Z</time>
      </trkpt>
      <trkpt lat="37.354233000" lon="-5.511175000">
        <ele>112.0</ele>
        <time>2020-10-16T14:42:35Z</time>
      </trkpt>
      <trkpt lat="37.354261000" lon="-5.511279000">
        <ele>111.7</ele>
        <time>2020-10-16T14:42:37Z</time>
      </trkpt>
      <trkpt lat="37.354298000" lon="-5.511379000">
        <ele>111.5</ele>
        <time>2020-10-16T14:42:39Z</time>
      </trkpt>
      <trkpt lat="37.354338000" lon="-5.511486000">
        <ele>111.2</ele>
        <time>2020-10-16T14:42:41Z</time>
      </trkpt>
      <trkpt lat="37.354376000" lon="-5.511599000">
        <ele>110.9</ele>
        <time>2020-10-16T14:42:43Z</time>
      </trkpt>
      <trkpt lat="37.354423000" lon="-5.511700000">
        <ele>110.5</ele>
        <time>2020-10-16T14:42:45Z</time>
      </trkpt>
      <trkpt lat="37.354466000" lon="-5.511799000">
        <ele>110.2</ele>
        <time>2020-10-16T14:42:47Z</time>
      </trkpt>
      <trkpt lat="37.354502000" lon="-5.511900000">
        <ele>109.8</ele>
        <time>2020-10-16T14:42:49Z</time>
      </trkpt>
      <trkpt lat="37.354538000" lon="-5.512000000">
        <ele>109.5</ele>
        <time>2020-10-16T14:42:51Z</time>
      </trkpt>
      <trkpt lat="37.354576000" lon="-5.512097000">
        <ele>109.1</ele>
        <time>2020-10-16T14:42:53Z</time>
      </trkpt>
      <trkpt lat="37.354619000" lon="-5.512195000">
        <ele>108.9</ele>
        <time>2020-10-16T14:42:55Z</time>
      </trkpt>
      <trkpt lat="37.354660000" lon="-5.512297000">
        <ele>108.7</ele>
        <time>2020-10-16T14:42:57Z</time>
      </trkpt>
      <trkpt lat="37.354704000" lon="-5.512388000">
        <ele>108.6</ele>
        <time>2020-10-16T14:42:59Z</time>
      </trkpt>
      <trkpt lat="37.354745000" lon="-5.512482000">
        <ele>108.6</ele>
        <time>2020-10-16T14:43:01Z</time>
      </trkpt>
      <trkpt lat="37.354781000" lon="-5.512575000">
        <ele>108.7</ele>
        <time>2020-10-16T14:43:03Z</time>
      </trkpt>
      <trkpt lat="37.354825000" lon="-5.512661000">
        <ele>108.8</ele>
        <time>2020-10-16T14:43:05Z</time>
      </trkpt>
      <trkpt lat="37.354880000" lon="-5.512741000">
        <ele>109.0</ele>
        <time>2020-10-16T14:43:07Z</time>
      </trkpt>
      <trkpt lat="37.354917000" lon="-5.512844000">
        <ele>109.2</ele>
        <time>2020-10-16T14:43:09Z</time>
      </trkpt>
      <trkpt lat="37.354936000" lon="-5.512972000">
        <ele>109.4</ele>
        <time>2020-10-16T14:43:11Z</time>
      </trkpt>
      <trkpt lat="37.354954000" lon="-5.513103000">
        <ele>109.5</ele>
        <time>2020-10-16T14:43:13Z</time>
      </trkpt>
      <trkpt lat="37.354974000" lon="-5.513235000">
        <ele>109.5</ele>
        <time>2020-10-16T14:43:15Z</time>
      </trkpt>
      <trkpt lat="37.354973000" lon="-5.513367000">
        <ele>109.4</ele>
        <time>2020-10-16T14:43:17Z</time>
      </trkpt>
      <trkpt lat="37.354950000" lon="-5.513492000">
        <ele>109.3</ele>
        <time>2020-10-16T14:43:19Z</time>
      </trkpt>
      <trkpt lat="37.354938000" lon="-5.513618000">
        <ele>109.2</ele>
        <time>2020-10-16T14:43:21Z</time>
      </trkpt>
      <trkpt lat="37.354939000" lon="-5.513744000">
        <ele>108.9</ele>
        <time>2020-10-16T14:43:23Z</time>
      </trkpt>
      <trkpt lat="37.354955000" lon="-5.513859000">
        <ele>108.6</ele>
        <time>2020-10-16T14:43:25Z</time>
      </trkpt>
      <trkpt lat="37.354983000" lon="-5.513982000">
        <ele>108.4</ele>
        <time>2020-10-16T14:43:27Z</time>
      </trkpt>
      <trkpt lat="37.355019000" lon="-5.514101000">
        <ele>108.1</ele>
        <time>2020-10-16T14:43:29Z</time>
      </trkpt>
      <trkpt lat="37.355072000" lon="-5.514213000">
        <ele>107.7</ele>
        <time>2020-10-16T14:43:31Z</time>
      </trkpt>
      <trkpt lat="37.355140000" lon="-5.514312000">
        <ele>107.4</ele>
        <time>2020-10-16T14:43:33Z</time>
      </trkpt>
      <trkpt lat="37.355203000" lon="-5.514420000">
        <ele>107.0</ele>
        <time>2020-10-16T14:43:35Z</time>
      </trkpt>
      <trkpt lat="37.355261000" lon="-5.514534000">
        <ele>106.6</ele>
        <time>2020-10-16T14:43:37Z</time>
      </trkpt>
      <trkpt lat="37.355302000" lon="-5.514655000">
        <ele>106.2</ele>
        <time>2020-10-16T14:43:39Z</time>
      </trkpt>
      <trkpt lat="37.355344000" lon="-5.514775000">
        <ele>105.6</ele>
        <time>2020-10-16T14:43:41Z</time>
      </trkpt>
      <trkpt lat="37.355384000" lon="-5.514876000">
        <ele>105.1</ele>
        <time>2020-10-16T14:43:43Z</time>
      </trkpt>
      <trkpt lat="37.355441000" lon="-5.514997000">
        <ele>104.6</ele>
        <time>2020-10-16T14:43:46Z</time>
      </trkpt>
      <trkpt lat="37.355501000" lon="-5.515127000">
        <ele>104.2</ele>
        <time>2020-10-16T14:43:49Z</time>
      </trkpt>
      <trkpt lat="37.355563000" lon="-5.515258000">
        <ele>103.7</ele>
        <time>2020-10-16T14:43:52Z</time>
      </trkpt>
      <trkpt lat="37.355633000" lon="-5.515388000">
        <ele>103.3</ele>
        <time>2020-10-16T14:43:55Z</time>
      </trkpt>
      <trkpt lat="37.355685000" lon="-5.515488000">
        <ele>102.8</ele>
        <time>2020-10-16T14:43:57Z</time>
      </trkpt>
      <trkpt lat="37.355741000" lon="-5.515590000">
        <ele>102.4</ele>
        <time>2020-10-16T14:43:59Z</time>
      </trkpt>
      <trkpt lat="37.355797000" lon="-5.515691000">
        <ele>101.9</ele>
        <time>2020-10-16T14:44:01Z</time>
      </trkpt>
      <trkpt lat="37.355848000" lon="-5.515803000">
        <ele>101.5</ele>
        <time>2020-10-16T14:44:03Z</time>
      </trkpt>
      <trkpt lat="37.355900000" lon="-5.515912000">
        <ele>101.3</ele>
        <time>2020-10-16T14:44:05Z</time>
      </trkpt>
      <trkpt lat="37.355956000" lon="-5.516026000">
        <ele>101.2</ele>
        <time>2020-10-16T14:44:07Z</time>
      </trkpt>
      <trkpt lat="37.356013000" lon="-5.516129000">
        <ele>101.1</ele>
        <time>2020-10-16T14:44:09Z</time>
      </trkpt>
      <trkpt lat="37.356068000" lon="-5.516225000">
        <ele>101.1</ele>
        <time>2020-10-16T14:44:11Z</time>
      </trkpt>
      <trkpt lat="37.356117000" lon="-5.516325000">
        <ele>101.3</ele>
        <time>2020-10-16T14:44:13Z</time>
      </trkpt>
      <trkpt lat="37.356172000" lon="-5.516427000">
        <ele>101.5</ele>
        <time>2020-10-16T14:44:15Z</time>
      </trkpt>
      <trkpt lat="37.356226000" lon="-5.516536000">
        <ele>101.7</ele>
        <time>2020-10-16T14:44:17Z</time>
      </trkpt>
      <trkpt lat="37.356281000" lon="-5.516645000">
        <ele>102.1</ele>
        <time>2020-10-16T14:44:19Z</time>
      </trkpt>
      <trkpt lat="37.356328000" lon="-5.516763000">
        <ele>102.5</ele>
        <time>2020-10-16T14:44:21Z</time>
      </trkpt>
      <trkpt lat="37.356376000" lon="-5.516885000">
        <ele>103.0</ele>
        <time>2020-10-16T14:44:23Z</time>
      </trkpt>
      <trkpt lat="37.356428000" lon="-5.517014000">
        <ele>103.5</ele>
        <time>2020-10-16T14:44:25Z</time>
      </trkpt>
      <trkpt lat="37.356481000" lon="-5.517128000">
        <ele>103.9</ele>
        <time>2020-10-16T14:44:27Z</time>
      </trkpt>
      <trkpt lat="37.356531000" lon="-5.517246000">
        <ele>104.3</ele>
        <time>2020-10-16T14:44:29Z</time>
      </trkpt>
      <trkpt lat="37.356574000" lon="-5.517367000">
        <ele>104.5</ele>
        <time>2020-10-16T14:44:31Z</time>
      </trkpt>
      <trkpt lat="37.356606000" lon="-5.517493000">
        <ele>104.7</ele>
        <time>2020-10-16T14:44:33Z</time>
      </trkpt>
      <trkpt lat="37.356648000" lon="-5.517624000">
        <ele>104.6</ele>
        <time>2020-10-16T14:44:35Z</time>
      </trkpt>
      <trkpt lat="37.356684000" lon="-5.517753000">
        <ele>104.5</ele>
        <time>2020-10-16T14:44:37Z</time>
      </trkpt>
      <trkpt lat="37.356720000" lon="-5.517880000">
        <ele>104.3</ele>
        <time>2020-10-16T14:44:39Z</time>
      </trkpt>
      <trkpt lat="37.356754000" lon="-5.518004000">
        <ele>103.9</ele>
        <time>2020-10-16T14:44:41Z</time>
      </trkpt>
      <trkpt lat="37.356783000" lon="-5.518135000">
        <ele>103.5</ele>
        <time>2020-10-16T14:44:43Z</time>
      </trkpt>
      <trkpt lat="37.356812000" lon="-5.518263000">
        <ele>103.0</ele>
        <time>2020-10-16T14:44:45Z</time>
      </trkpt>
      <trkpt lat="37.356829000" lon="-5.518399000">
        <ele>102.5</ele>
        <time>2020-10-16T14:44:47Z</time>
      </trkpt>
      <trkpt lat="37.356853000" lon="-5.518531000">
        <ele>102.0</ele>
        <time>2020-10-16T14:44:49Z</time>
      </trkpt>
      <trkpt lat="37.356864000" lon="-5.518658000">
        <ele>101.5</ele>
        <time>2020-10-16T14:44:51Z</time>
      </trkpt>
      <trkpt lat="37.356878000" lon="-5.518780000">
        <ele>101.0</ele>
        <time>2020-10-16T14:44:53Z</time>
      </trkpt>
      <trkpt lat="37.356895000" lon="-5.518902000">
        <ele>100.5</ele>
        <time>2020-10-16T14:44:55Z</time>
      </trkpt>
      <trkpt lat="37.356916000" lon="-5.519027000">
        <ele>100.2</ele>
        <time>2020-10-16T14:44:57Z</time>
      </trkpt>
      <trkpt lat="37.356947000" lon="-5.519140000">
        <ele>99.7</ele>
        <time>2020-10-16T14:44:59Z</time>
      </trkpt>
      <trkpt lat="37.356979000" lon="-5.519251000">
        <ele>99.4</ele>
        <time>2020-10-16T14:45:01Z</time>
      </trkpt>
      <trkpt lat="37.357009000" lon="-5.519365000">
        <ele>99.1</ele>
        <time>2020-10-16T14:45:03Z</time>
      </trkpt>
      <trkpt lat="37.357024000" lon="-5.519480000">
        <ele>98.8</ele>
        <time>2020-10-16T14:45:05Z</time>
      </trkpt>
      <trkpt lat="37.357034000" lon="-5.519595000">
        <ele>98.7</ele>
        <time>2020-10-16T14:45:07Z</time>
      </trkpt>
      <trkpt lat="37.357036000" lon="-5.519714000">
        <ele>98.6</ele>
        <time>2020-10-16T14:45:09Z</time>
      </trkpt>
      <trkpt lat="37.357036000" lon="-5.519829000">
        <ele>98.6</ele>
        <time>2020-10-16T14:45:11Z</time>
      </trkpt>
      <trkpt lat="37.357036000" lon="-5.519938000">
        <ele>98.6</ele>
        <time>2020-10-16T14:45:13Z</time>
      </trkpt>
      <trkpt lat="37.357040000" lon="-5.520062000">
        <ele>98.6</ele>
        <time>2020-10-16T14:45:15Z</time>
      </trkpt>
      <trkpt lat="37.357043000" lon="-5.520173000">
        <ele>98.5</ele>
        <time>2020-10-16T14:45:17Z</time>
      </trkpt>
      <trkpt lat="37.357055000" lon="-5.520286000">
        <ele>98.5</ele>
        <time>2020-10-16T14:45:19Z</time>
      </trkpt>
      <trkpt lat="37.357079000" lon="-5.520396000">
        <ele>98.4</ele>
        <time>2020-10-16T14:45:21Z</time>
      </trkpt>
      <trkpt lat="37.357115000" lon="-5.520504000">
        <ele>98.2</ele>
        <time>2020-10-16T14:45:23Z</time>
      </trkpt>
      <trkpt lat="37.357143000" lon="-5.520606000">
        <ele>98.0</ele>
        <time>2020-10-16T14:45:25Z</time>
      </trkpt>
      <trkpt lat="37.357182000" lon="-5.520737000">
        <ele>97.7</ele>
        <time>2020-10-16T14:45:28Z</time>
      </trkpt>
      <trkpt lat="37.357254000" lon="-5.520816000">
        <ele>97.3</ele>
        <time>2020-10-16T14:45:31Z</time>
      </trkpt>
      <trkpt lat="37.357347000" lon="-5.520836000">
        <ele>96.8</ele>
        <time>2020-10-16T14:45:34Z</time>
      </trkpt>
      <trkpt lat="37.357443000" lon="-5.520843000">
        <ele>96.4</ele>
        <time>2020-10-16T14:45:37Z</time>
      </trkpt>
      <trkpt lat="37.357518000" lon="-5.520892000">
        <ele>95.9</ele>
        <time>2020-10-16T14:45:40Z</time>
      </trkpt>
      <trkpt lat="37.357592000" lon="-5.520977000">
        <ele>95.5</ele>
        <time>2020-10-16T14:45:55Z</time>
      </trkpt>
      <trkpt lat="37.357675000" lon="-5.521067000">
        <ele>95.1</ele>
        <time>2020-10-16T14:45:59Z</time>
      </trkpt>
      <trkpt lat="37.357755000" lon="-5.521135000">
        <ele>94.7</ele>
        <time>2020-10-16T14:46:02Z</time>
      </trkpt>
      <trkpt lat="37.357847000" lon="-5.521207000">
        <ele>94.4</ele>
        <time>2020-10-16T14:46:05Z</time>
      </trkpt>
      <trkpt lat="37.357918000" lon="-5.521259000">
        <ele>94.1</ele>
        <time>2020-10-16T14:46:07Z</time>
      </trkpt>
      <trkpt lat="37.358022000" lon="-5.521337000">
        <ele>93.8</ele>
        <time>2020-10-16T14:46:10Z</time>
      </trkpt>
      <trkpt lat="37.358094000" lon="-5.521392000">
        <ele>93.6</ele>
        <time>2020-10-16T14:46:12Z</time>
      </trkpt>
      <trkpt lat="37.358170000" lon="-5.521449000">
        <ele>93.5</ele>
        <time>2020-10-16T14:46:14Z</time>
      </trkpt>
      <trkpt lat="37.358252000" lon="-5.521509000">
        <ele>93.5</ele>
        <time>2020-10-16T14:46:16Z</time>
      </trkpt>
      <trkpt lat="37.358336000" lon="-5.521570000">
        <ele>93.5</ele>
        <time>2020-10-16T14:46:18Z</time>
      </trkpt>
      <trkpt lat="37.358417000" lon="-5.521632000">
        <ele>93.5</ele>
        <time>2020-10-16T14:46:20Z</time>
      </trkpt>
      <trkpt lat="37.358503000" lon="-5.521695000">
        <ele>93.5</ele>
        <time>2020-10-16T14:46:22Z</time>
      </trkpt>
      <trkpt lat="37.358593000" lon="-5.521758000">
        <ele>93.5</ele>
        <time>2020-10-16T14:46:24Z</time>
      </trkpt>
      <trkpt lat="37.358684000" lon="-5.521818000">
        <ele>93.5</ele>
        <time>2020-10-16T14:46:26Z</time>
      </trkpt>
      <trkpt lat="37.358776000" lon="-5.521879000">
        <ele>93.6</ele>
        <time>2020-10-16T14:46:28Z</time>
      </trkpt>
      <trkpt lat="37.358869000" lon="-5.521945000">
        <ele>93.7</ele>
        <time>2020-10-16T14:46:30Z</time>
      </trkpt>
      <trkpt lat="37.358965000" lon="-5.522014000">
        <ele>93.7</ele>
        <time>2020-10-16T14:46:32Z</time>
      </trkpt>
      <trkpt lat="37.359053000" lon="-5.522093000">
        <ele>93.7</ele>
        <time>2020-10-16T14:46:34Z</time>
      </trkpt>
      <trkpt lat="37.359134000" lon="-5.522171000">
        <ele>93.7</ele>
        <time>2020-10-16T14:46:36Z</time>
      </trkpt>
      <trkpt lat="37.359214000" lon="-5.522250000">
        <ele>93.5</ele>
        <time>2020-10-16T14:46:38Z</time>
      </trkpt>
      <trkpt lat="37.359284000" lon="-5.522336000">
        <ele>93.4</ele>
        <time>2020-10-16T14:46:40Z</time>
      </trkpt>
      <trkpt lat="37.359356000" lon="-5.522413000">
        <ele>93.2</ele>
        <time>2020-10-16T14:46:42Z</time>
      </trkpt>
      <trkpt lat="37.359435000" lon="-5.522493000">
        <ele>92.9</ele>
        <time>2020-10-16T14:46:44Z</time>
      </trkpt>
      <trkpt lat="37.359516000" lon="-5.522572000">
        <ele>92.6</ele>
        <time>2020-10-16T14:46:46Z</time>
      </trkpt>
      <trkpt lat="37.359602000" lon="-5.522642000">
        <ele>92.4</ele>
        <time>2020-10-16T14:46:48Z</time>
      </trkpt>
      <trkpt lat="37.359695000" lon="-5.522709000">
        <ele>92.1</ele>
        <time>2020-10-16T14:46:50Z</time>
      </trkpt>
      <trkpt lat="37.359784000" lon="-5.522779000">
        <ele>91.8</ele>
        <time>2020-10-16T14:46:52Z</time>
      </trkpt>
      <trkpt lat="37.359866000" lon="-5.522853000">
        <ele>91.6</ele>
        <time>2020-10-16T14:46:54Z</time>
      </trkpt>
      <trkpt lat="37.359949000" lon="-5.522943000">
        <ele>91.5</ele>
        <time>2020-10-16T14:46:56Z</time>
      </trkpt>
      <trkpt lat="37.360030000" lon="-5.523028000">
        <ele>91.3</ele>
        <time>2020-10-16T14:46:58Z</time>
      </trkpt>
      <trkpt lat="37.360108000" lon="-5.523119000">
        <ele>91.2</ele>
        <time>2020-10-16T14:47:00Z</time>
      </trkpt>
      <trkpt lat="37.360184000" lon="-5.523214000">
        <ele>91.1</ele>
        <time>2020-10-16T14:47:02Z</time>
      </trkpt>
      <trkpt lat="37.360258000" lon="-5.523310000">
        <ele>91.0</ele>
        <time>2020-10-16T14:47:04Z</time>
      </trkpt>
      <trkpt lat="37.360338000" lon="-5.523402000">
        <ele>91.0</ele>
        <time>2020-10-16T14:47:06Z</time>
      </trkpt>
      <trkpt lat="37.360415000" lon="-5.523493000">
        <ele>91.0</ele>
        <time>2020-10-16T14:47:08Z</time>
      </trkpt>
      <trkpt lat="37.360492000" lon="-5.523588000">
        <ele>91.1</ele>
        <time>2020-10-16T14:47:10Z</time>
      </trkpt>
      <trkpt lat="37.360568000" lon="-5.523685000">
        <ele>91.2</ele>
        <time>2020-10-16T14:47:12Z</time>
      </trkpt>
      <trkpt lat="37.360640000" lon="-5.523787000">
        <ele>91.4</ele>
        <time>2020-10-16T14:47:14Z</time>
      </trkpt>
      <trkpt lat="37.360713000" lon="-5.523890000">
        <ele>91.6</ele>
        <time>2020-10-16T14:47:16Z</time>
      </trkpt>
      <trkpt lat="37.360785000" lon="-5.523988000">
        <ele>91.8</ele>
        <time>2020-10-16T14:47:18Z</time>
      </trkpt>
      <trkpt lat="37.360854000" lon="-5.524102000">
        <ele>91.9</ele>
        <time>2020-10-16T14:47:20Z</time>
      </trkpt>
      <trkpt lat="37.360918000" lon="-5.524211000">
        <ele>91.9</ele>
        <time>2020-10-16T14:47:22Z</time>
      </trkpt>
      <trkpt lat="37.360979000" lon="-5.524318000">
        <ele>91.8</ele>
        <time>2020-10-16T14:47:24Z</time>
      </trkpt>
      <trkpt lat="37.361042000" lon="-5.524420000">
        <ele>91.5</ele>
        <time>2020-10-16T14:47:26Z</time>
      </trkpt>
      <trkpt lat="37.361102000" lon="-5.524522000">
        <ele>91.3</ele>
        <time>2020-10-16T14:47:28Z</time>
      </trkpt>
      <trkpt lat="37.361160000" lon="-5.524627000">
        <ele>91.0</ele>
        <time>2020-10-16T14:47:30Z</time>
      </trkpt>
      <trkpt lat="37.361224000" lon="-5.524738000">
        <ele>90.6</ele>
        <time>2020-10-16T14:47:32Z</time>
      </trkpt>
      <trkpt lat="37.361290000" lon="-5.524845000">
        <ele>90.3</ele>
        <time>2020-10-16T14:47:34Z</time>
      </trkpt>
      <trkpt lat="37.361358000" lon="-5.524948000">
        <ele>89.8</ele>
        <time>2020-10-16T14:47:36Z</time>
      </trkpt>
      <trkpt lat="37.361425000" lon="-5.525040000">
        <ele>89.3</ele>
        <time>2020-10-16T14:47:38Z</time>
      </trkpt>
      <trkpt lat="37.361494000" lon="-5.525139000">
        <ele>88.7</ele>
        <time>2020-10-16T14:47:40Z</time>
      </trkpt>
      <trkpt lat="37.361557000" lon="-5.525228000">
        <ele>88.3</ele>
        <time>2020-10-16T14:47:42Z</time>
      </trkpt>
      <trkpt lat="37.361620000" lon="-5.525322000">
        <ele>87.9</ele>
        <time>2020-10-16T14:47:44Z</time>
      </trkpt>
      <trkpt lat="37.361686000" lon="-5.525419000">
        <ele>87.6</ele>
        <time>2020-10-16T14:47:46Z</time>
      </trkpt>
      <trkpt lat="37.361747000" lon="-5.525516000">
        <ele>87.6</ele>
        <time>2020-10-16T14:47:48Z</time>
      </trkpt>
      <trkpt lat="37.361817000" lon="-5.525608000">
        <ele>87.6</ele>
        <time>2020-10-16T14:47:50Z</time>
      </trkpt>
      <trkpt lat="37.361887000" lon="-5.525709000">
        <ele>87.6</ele>
        <time>2020-10-16T14:47:52Z</time>
      </trkpt>
      <trkpt lat="37.361955000" lon="-5.525808000">
        <ele>87.6</ele>
        <time>2020-10-16T14:47:54Z</time>
      </trkpt>
      <trkpt lat="37.362027000" lon="-5.525903000">
        <ele>87.6</ele>
        <time>2020-10-16T14:47:56Z</time>
      </trkpt>
      <trkpt lat="37.362101000" lon="-5.525994000">
        <ele>87.6</ele>
        <time>2020-10-16T14:47:58Z</time>
      </trkpt>
      <trkpt lat="37.362170000" lon="-5.526088000">
        <ele>87.6</ele>
        <time>2020-10-16T14:48:00Z</time>
      </trkpt>
      <trkpt lat="37.362246000" lon="-5.526186000">
        <ele>87.7</ele>
        <time>2020-10-16T14:48:02Z</time>
      </trkpt>
      <trkpt lat="37.362323000" lon="-5.526285000">
        <ele>87.8</ele>
        <time>2020-10-16T14:48:04Z</time>
      </trkpt>
      <trkpt lat="37.362399000" lon="-5.526382000">
        <ele>87.9</ele>
        <time>2020-10-16T14:48:06Z</time>
      </trkpt>
      <trkpt lat="37.362476000" lon="-5.526476000">
        <ele>88.1</ele>
        <time>2020-10-16T14:48:08Z</time>
      </trkpt>
      <trkpt lat="37.362559000" lon="-5.526568000">
        <ele>88.3</ele>
        <time>2020-10-16T14:48:10Z</time>
      </trkpt>
      <trkpt lat="37.362644000" lon="-5.526655000">
        <ele>88.5</ele>
        <time>2020-10-16T14:48:12Z</time>
      </trkpt>
      <trkpt lat="37.362728000" lon="-5.526737000">
        <ele>88.6</ele>
        <time>2020-10-16T14:48:14Z</time>
      </trkpt>
      <trkpt lat="37.362809000" lon="-5.526804000">
        <ele>88.8</ele>
        <time>2020-10-16T14:48:16Z</time>
      </trkpt>
      <trkpt lat="37.362904000" lon="-5.526864000">
        <ele>89.0</ele>
        <time>2020-10-16T14:48:18Z</time>
      </trkpt>
      <trkpt lat="37.362997000" lon="-5.526917000">
        <ele>89.2</ele>
        <time>2020-10-16T14:48:20Z</time>
      </trkpt>
      <trkpt lat="37.363078000" lon="-5.526991000">
        <ele>89.4</ele>
        <time>2020-10-16T14:48:22Z</time>
      </trkpt>
      <trkpt lat="37.363136000" lon="-5.527087000">
        <ele>89.5</ele>
        <time>2020-10-16T14:48:24Z</time>
      </trkpt>
      <trkpt lat="37.363195000" lon="-5.527178000">
        <ele>89.7</ele>
        <time>2020-10-16T14:48:26Z</time>
      </trkpt>
      <trkpt lat="37.363261000" lon="-5.527266000">
        <ele>89.8</ele>
        <time>2020-10-16T14:48:28Z</time>
      </trkpt>
      <trkpt lat="37.363329000" lon="-5.527361000">
        <ele>89.8</ele>
        <time>2020-10-16T14:48:30Z</time>
      </trkpt>
      <trkpt lat="37.363394000" lon="-5.527449000">
        <ele>89.6</ele>
        <time>2020-10-16T14:48:32Z</time>
      </trkpt>
      <trkpt lat="37.363461000" lon="-5.527538000">
        <ele>89.4</ele>
        <time>2020-10-16T14:48:34Z</time>
      </trkpt>
      <trkpt lat="37.363532000" lon="-5.527617000">
        <ele>89.0</ele>
        <time>2020-10-16T14:48:36Z</time>
      </trkpt>
      <trkpt lat="37.363601000" lon="-5.527695000">
        <ele>88.6</ele>
        <time>2020-10-16T14:48:38Z</time>
      </trkpt>
      <trkpt lat="37.363669000" lon="-5.527781000">
        <ele>88.3</ele>
        <time>2020-10-16T14:48:40Z</time>
      </trkpt>
      <trkpt lat="37.363737000" lon="-5.527873000">
        <ele>88.0</ele>
        <time>2020-10-16T14:48:42Z</time>
      </trkpt>
      <trkpt lat="37.363800000" lon="-5.527962000">
        <ele>87.7</ele>
        <time>2020-10-16T14:48:44Z</time>
      </trkpt>
      <trkpt lat="37.363861000" lon="-5.528056000">
        <ele>87.5</ele>
        <time>2020-10-16T14:48:46Z</time>
      </trkpt>
      <trkpt lat="37.363919000" lon="-5.528162000">
        <ele>87.2</ele>
        <time>2020-10-16T14:48:48Z</time>
      </trkpt>
      <trkpt lat="37.363969000" lon="-5.528270000">
        <ele>87.0</ele>
        <time>2020-10-16T14:48:50Z</time>
      </trkpt>
      <trkpt lat="37.364014000" lon="-5.528372000">
        <ele>86.9</ele>
        <time>2020-10-16T14:48:52Z</time>
      </trkpt>
      <trkpt lat="37.364060000" lon="-5.528473000">
        <ele>86.8</ele>
        <time>2020-10-16T14:48:54Z</time>
      </trkpt>
      <trkpt lat="37.364111000" lon="-5.528566000">
        <ele>86.8</ele>
        <time>2020-10-16T14:48:56Z</time>
      </trkpt>
      <trkpt lat="37.364179000" lon="-5.528642000">
        <ele>86.9</ele>
        <time>2020-10-16T14:48:58Z</time>
      </trkpt>
      <trkpt lat="37.364252000" lon="-5.528700000">
        <ele>87.1</ele>
        <time>2020-10-16T14:49:00Z</time>
      </trkpt>
      <trkpt lat="37.364341000" lon="-5.528730000">
        <ele>87.3</ele>
        <time>2020-10-16T14:49:02Z</time>
      </trkpt>
      <trkpt lat="37.364422000" lon="-5.528768000">
        <ele>87.4</ele>
        <time>2020-10-16T14:49:04Z</time>
      </trkpt>
      <trkpt lat="37.364494000" lon="-5.528827000">
        <ele>87.5</ele>
        <time>2020-10-16T14:49:06Z</time>
      </trkpt>
      <trkpt lat="37.364562000" lon="-5.528905000">
        <ele>87.6</ele>
        <time>2020-10-16T14:49:08Z</time>
      </trkpt>
      <trkpt lat="37.364642000" lon="-5.528972000">
        <ele>87.8</ele>
        <time>2020-10-16T14:49:10Z</time>
      </trkpt>
      <trkpt lat="37.364727000" lon="-5.529019000">
        <ele>88.0</ele>
        <time>2020-10-16T14:49:12Z</time>
      </trkpt>
      <trkpt lat="37.364807000" lon="-5.529069000">
        <ele>88.0</ele>
        <time>2020-10-16T14:49:14Z</time>
      </trkpt>
      <trkpt lat="37.364884000" lon="-5.529124000">
        <ele>88.2</ele>
        <time>2020-10-16T14:49:16Z</time>
      </trkpt>
      <trkpt lat="37.364969000" lon="-5.529167000">
        <ele>88.4</ele>
        <time>2020-10-16T14:49:18Z</time>
      </trkpt>
      <trkpt lat="37.365058000" lon="-5.529205000">
        <ele>88.5</ele>
        <time>2020-10-16T14:49:20Z</time>
      </trkpt>
      <trkpt lat="37.365148000" lon="-5.529231000">
        <ele>88.6</ele>
        <time>2020-10-16T14:49:22Z</time>
      </trkpt>
      <trkpt lat="37.365238000" lon="-5.529260000">
        <ele>88.6</ele>
        <time>2020-10-16T14:49:24Z</time>
      </trkpt>
      <trkpt lat="37.365323000" lon="-5.529294000">
        <ele>88.5</ele>
        <time>2020-10-16T14:49:26Z</time>
      </trkpt>
      <trkpt lat="37.365407000" lon="-5.529350000">
        <ele>88.5</ele>
        <time>2020-10-16T14:49:28Z</time>
      </trkpt>
      <trkpt lat="37.365486000" lon="-5.529427000">
        <ele>88.2</ele>
        <time>2020-10-16T14:49:30Z</time>
      </trkpt>
      <trkpt lat="37.365552000" lon="-5.529509000">
        <ele>87.9</ele>
        <time>2020-10-16T14:49:32Z</time>
      </trkpt>
      <trkpt lat="37.365617000" lon="-5.529589000">
        <ele>87.5</ele>
        <time>2020-10-16T14:49:34Z</time>
      </trkpt>
      <trkpt lat="37.365677000" lon="-5.529664000">
        <ele>87.4</ele>
        <time>2020-10-16T14:49:36Z</time>
      </trkpt>
      <trkpt lat="37.365743000" lon="-5.529732000">
        <ele>87.1</ele>
        <time>2020-10-16T14:49:38Z</time>
      </trkpt>
      <trkpt lat="37.365834000" lon="-5.529829000">
        <ele>86.8</ele>
        <time>2020-10-16T14:49:41Z</time>
      </trkpt>
      <trkpt lat="37.365918000" lon="-5.529923000">
        <ele>86.5</ele>
        <time>2020-10-16T14:49:44Z</time>
      </trkpt>
      <trkpt lat="37.366006000" lon="-5.530017000">
        <ele>86.1</ele>
        <time>2020-10-16T14:49:47Z</time>
      </trkpt>
      <trkpt lat="37.366097000" lon="-5.530105000">
        <ele>85.7</ele>
        <time>2020-10-16T14:49:50Z</time>
      </trkpt>
      <trkpt lat="37.366181000" lon="-5.530192000">
        <ele>85.5</ele>
        <time>2020-10-16T14:49:53Z</time>
      </trkpt>
      <trkpt lat="37.366268000" lon="-5.530300000">
        <ele>85.1</ele>
        <time>2020-10-16T14:49:56Z</time>
      </trkpt>
      <trkpt lat="37.366332000" lon="-5.530367000">
        <ele>84.8</ele>
        <time>2020-10-16T14:49:58Z</time>
      </trkpt>
      <trkpt lat="37.366425000" lon="-5.530457000">
        <ele>84.6</ele>
        <time>2020-10-16T14:50:01Z</time>
      </trkpt>
      <trkpt lat="37.366513000" lon="-5.530552000">
        <ele>84.6</ele>
        <time>2020-10-16T14:50:04Z</time>
      </trkpt>
      <trkpt lat="37.366566000" lon="-5.530632000">
        <ele>84.5</ele>
        <time>2020-10-16T14:50:06Z</time>
      </trkpt>
      <trkpt lat="37.366631000" lon="-5.530758000">
        <ele>84.5</ele>
        <time>2020-10-16T14:50:09Z</time>
      </trkpt>
      <trkpt lat="37.366692000" lon="-5.530875000">
        <ele>84.4</ele>
        <time>2020-10-16T14:50:12Z</time>
      </trkpt>
      <trkpt lat="37.366764000" lon="-5.531001000">
        <ele>84.3</ele>
        <time>2020-10-16T14:50:15Z</time>
      </trkpt>
      <trkpt lat="37.366814000" lon="-5.531118000">
        <ele>84.2</ele>
        <time>2020-10-16T14:50:18Z</time>
      </trkpt>
      <trkpt lat="37.366845000" lon="-5.531239000">
        <ele>84.2</ele>
        <time>2020-10-16T14:50:21Z</time>
      </trkpt>
      <trkpt lat="37.366884000" lon="-5.531371000">
        <ele>84.2</ele>
        <time>2020-10-16T14:50:24Z</time>
      </trkpt>
      <trkpt lat="37.366936000" lon="-5.531504000">
        <ele>84.3</ele>
        <time>2020-10-16T14:50:27Z</time>
      </trkpt>
      <trkpt lat="37.366987000" lon="-5.531642000">
        <ele>84.5</ele>
        <time>2020-10-16T14:50:30Z</time>
      </trkpt>
      <trkpt lat="37.367018000" lon="-5.531741000">
        <ele>84.5</ele>
        <time>2020-10-16T14:50:32Z</time>
      </trkpt>
      <trkpt lat="37.367051000" lon="-5.531843000">
        <ele>84.6</ele>
        <time>2020-10-16T14:50:34Z</time>
      </trkpt>
      <trkpt lat="37.367078000" lon="-5.531954000">
        <ele>84.7</ele>
        <time>2020-10-16T14:50:36Z</time>
      </trkpt>
      <trkpt lat="37.367111000" lon="-5.532065000">
        <ele>84.8</ele>
        <time>2020-10-16T14:50:38Z</time>
      </trkpt>
      <trkpt lat="37.367149000" lon="-5.532175000">
        <ele>84.9</ele>
        <time>2020-10-16T14:50:40Z</time>
      </trkpt>
      <trkpt lat="37.367184000" lon="-5.532284000">
        <ele>85.1</ele>
        <time>2020-10-16T14:50:42Z</time>
      </trkpt>
      <trkpt lat="37.367225000" lon="-5.532386000">
        <ele>85.3</ele>
        <time>2020-10-16T14:50:44Z</time>
      </trkpt>
      <trkpt lat="37.367263000" lon="-5.532485000">
        <ele>85.5</ele>
        <time>2020-10-16T14:50:46Z</time>
      </trkpt>
      <trkpt lat="37.367294000" lon="-5.532587000">
        <ele>85.5</ele>
        <time>2020-10-16T14:50:48Z</time>
      </trkpt>
      <trkpt lat="37.367322000" lon="-5.532688000">
        <ele>85.6</ele>
        <time>2020-10-16T14:50:50Z</time>
      </trkpt>
      <trkpt lat="37.367350000" lon="-5.532787000">
        <ele>85.6</ele>
        <time>2020-10-16T14:50:52Z</time>
      </trkpt>
      <trkpt lat="37.367383000" lon="-5.532929000">
        <ele>85.6</ele>
        <time>2020-10-16T14:50:55Z</time>
      </trkpt>
      <trkpt lat="37.367418000" lon="-5.533065000">
        <ele>85.5</ele>
        <time>2020-10-16T14:50:58Z</time>
      </trkpt>
      <trkpt lat="37.367460000" lon="-5.533193000">
        <ele>85.5</ele>
        <time>2020-10-16T14:51:01Z</time>
      </trkpt>
      <trkpt lat="37.367505000" lon="-5.533320000">
        <ele>85.5</ele>
        <time>2020-10-16T14:51:04Z</time>
      </trkpt>
      <trkpt lat="37.367555000" lon="-5.533444000">
        <ele>85.5</ele>
        <time>2020-10-16T14:51:07Z</time>
      </trkpt>
      <trkpt lat="37.367606000" lon="-5.533566000">
        <ele>85.5</ele>
        <time>2020-10-16T14:51:10Z</time>
      </trkpt>
      <trkpt lat="37.367662000" lon="-5.533692000">
        <ele>85.5</ele>
        <time>2020-10-16T14:51:13Z</time>
      </trkpt>
      <trkpt lat="37.367728000" lon="-5.533814000">
        <ele>85.5</ele>
        <time>2020-10-16T14:51:16Z</time>
      </trkpt>
      <trkpt lat="37.367802000" lon="-5.533934000">
        <ele>85.5</ele>
        <time>2020-10-16T14:51:19Z</time>
      </trkpt>
      <trkpt lat="37.367864000" lon="-5.534020000">
        <ele>85.5</ele>
        <time>2020-10-16T14:51:21Z</time>
      </trkpt>
      <trkpt lat="37.367925000" lon="-5.534112000">
        <ele>85.5</ele>
        <time>2020-10-16T14:51:23Z</time>
      </trkpt>
      <trkpt lat="37.367987000" lon="-5.534201000">
        <ele>85.5</ele>
        <time>2020-10-16T14:51:25Z</time>
      </trkpt>
      <trkpt lat="37.368049000" lon="-5.534294000">
        <ele>85.5</ele>
        <time>2020-10-16T14:51:27Z</time>
      </trkpt>
      <trkpt lat="37.368114000" lon="-5.534383000">
        <ele>85.5</ele>
        <time>2020-10-16T14:51:29Z</time>
      </trkpt>
      <trkpt lat="37.368174000" lon="-5.534472000">
        <ele>85.4</ele>
        <time>2020-10-16T14:51:31Z</time>
      </trkpt>
      <trkpt lat="37.368234000" lon="-5.534565000">
        <ele>85.3</ele>
        <time>2020-10-16T14:51:33Z</time>
      </trkpt>
      <trkpt lat="37.368296000" lon="-5.534653000">
        <ele>85.2</ele>
        <time>2020-10-16T14:51:35Z</time>
      </trkpt>
      <trkpt lat="37.368350000" lon="-5.534736000">
        <ele>85.0</ele>
        <time>2020-10-16T14:51:37Z</time>
      </trkpt>
      <trkpt lat="37.368402000" lon="-5.534819000">
        <ele>84.8</ele>
        <time>2020-10-16T14:51:39Z</time>
      </trkpt>
      <trkpt lat="37.368454000" lon="-5.534897000">
        <ele>84.8</ele>
        <time>2020-10-16T14:51:41Z</time>
      </trkpt>
      <trkpt lat="37.368524000" lon="-5.535008000">
        <ele>84.9</ele>
        <time>2020-10-16T14:51:44Z</time>
      </trkpt>
      <trkpt lat="37.368591000" lon="-5.535110000">
        <ele>85.0</ele>
        <time>2020-10-16T14:51:47Z</time>
      </trkpt>
      <trkpt lat="37.368663000" lon="-5.535217000">
        <ele>85.1</ele>
        <time>2020-10-16T14:51:50Z</time>
      </trkpt>
      <trkpt lat="37.368733000" lon="-5.535328000">
        <ele>85.1</ele>
        <time>2020-10-16T14:51:53Z</time>
      </trkpt>
      <trkpt lat="37.368800000" lon="-5.535425000">
        <ele>85.1</ele>
        <time>2020-10-16T14:51:56Z</time>
      </trkpt>
      <trkpt lat="37.368867000" lon="-5.535518000">
        <ele>85.1</ele>
        <time>2020-10-16T14:51:59Z</time>
      </trkpt>
      <trkpt lat="37.368924000" lon="-5.535601000">
        <ele>85.1</ele>
        <time>2020-10-16T14:52:02Z</time>
      </trkpt>
      <trkpt lat="37.368979000" lon="-5.535680000">
        <ele>85.0</ele>
        <time>2020-10-16T14:52:11Z</time>
      </trkpt>
      <trkpt lat="37.369020000" lon="-5.535798000">
        <ele>85.0</ele>
        <time>2020-10-16T14:52:56Z</time>
      </trkpt>
      <trkpt lat="37.369068000" lon="-5.535916000">
        <ele>84.9</ele>
        <time>2020-10-16T14:52:59Z</time>
      </trkpt>
      <trkpt lat="37.369120000" lon="-5.536004000">
        <ele>84.7</ele>
        <time>2020-10-16T14:53:01Z</time>
      </trkpt>
      <trkpt lat="37.369196000" lon="-5.536090000">
        <ele>84.4</ele>
        <time>2020-10-16T14:53:03Z</time>
      </trkpt>
      <trkpt lat="37.369252000" lon="-5.536186000">
        <ele>84.0</ele>
        <time>2020-10-16T14:53:05Z</time>
      </trkpt>
      <trkpt lat="37.369306000" lon="-5.536285000">
        <ele>83.5</ele>
        <time>2020-10-16T14:53:07Z</time>
      </trkpt>
      <trkpt lat="37.369361000" lon="-5.536391000">
        <ele>83.2</ele>
        <time>2020-10-16T14:53:09Z</time>
      </trkpt>
      <trkpt lat="37.369417000" lon="-5.536488000">
        <ele>82.9</ele>
        <time>2020-10-16T14:53:11Z</time>
      </trkpt>
      <trkpt lat="37.369462000" lon="-5.536585000">
        <ele>82.6</ele>
        <time>2020-10-16T14:53:13Z</time>
      </trkpt>
      <trkpt lat="37.369503000" lon="-5.536699000">
        <ele>82.5</ele>
        <time>2020-10-16T14:53:15Z</time>
      </trkpt>
      <trkpt lat="37.369549000" lon="-5.536809000">
        <ele>82.4</ele>
        <time>2020-10-16T14:53:17Z</time>
      </trkpt>
      <trkpt lat="37.369610000" lon="-5.536894000">
        <ele>82.3</ele>
        <time>2020-10-16T14:53:19Z</time>
      </trkpt>
      <trkpt lat="37.369676000" lon="-5.536969000">
        <ele>82.2</ele>
        <time>2020-10-16T14:53:21Z</time>
      </trkpt>
      <trkpt lat="37.369743000" lon="-5.537034000">
        <ele>82.1</ele>
        <time>2020-10-16T14:53:23Z</time>
      </trkpt>
      <trkpt lat="37.369815000" lon="-5.537136000">
        <ele>82.1</ele>
        <time>2020-10-16T14:53:26Z</time>
      </trkpt>
      <trkpt lat="37.369884000" lon="-5.537243000">
        <ele>82.0</ele>
        <time>2020-10-16T14:53:29Z</time>
      </trkpt>
      <trkpt lat="37.369956000" lon="-5.537349000">
        <ele>82.0</ele>
        <time>2020-10-16T14:53:32Z</time>
      </trkpt>
      <trkpt lat="37.370032000" lon="-5.537455000">
        <ele>82.0</ele>
        <time>2020-10-16T14:53:35Z</time>
      </trkpt>
      <trkpt lat="37.370104000" lon="-5.537572000">
        <ele>81.9</ele>
        <time>2020-10-16T14:53:38Z</time>
      </trkpt>
      <trkpt lat="37.370176000" lon="-5.537688000">
        <ele>81.8</ele>
        <time>2020-10-16T14:53:41Z</time>
      </trkpt>
      <trkpt lat="37.370247000" lon="-5.537811000">
        <ele>81.6</ele>
        <time>2020-10-16T14:53:44Z</time>
      </trkpt>
      <trkpt lat="37.370291000" lon="-5.537900000">
        <ele>81.5</ele>
        <time>2020-10-16T14:53:46Z</time>
      </trkpt>
      <trkpt lat="37.370334000" lon="-5.537992000">
        <ele>81.4</ele>
        <time>2020-10-16T14:53:48Z</time>
      </trkpt>
      <trkpt lat="37.370382000" lon="-5.538084000">
        <ele>81.4</ele>
        <time>2020-10-16T14:53:50Z</time>
      </trkpt>
      <trkpt lat="37.370435000" lon="-5.538167000">
        <ele>81.4</ele>
        <time>2020-10-16T14:53:52Z</time>
      </trkpt>
      <trkpt lat="37.370492000" lon="-5.538244000">
        <ele>81.4</ele>
        <time>2020-10-16T14:53:54Z</time>
      </trkpt>
      <trkpt lat="37.370551000" lon="-5.538317000">
        <ele>81.5</ele>
        <time>2020-10-16T14:53:56Z</time>
      </trkpt>
      <trkpt lat="37.370607000" lon="-5.538395000">
        <ele>81.5</ele>
        <time>2020-10-16T14:53:58Z</time>
      </trkpt>
      <trkpt lat="37.370661000" lon="-5.538477000">
        <ele>81.6</ele>
        <time>2020-10-16T14:54:00Z</time>
      </trkpt>
      <trkpt lat="37.370715000" lon="-5.538561000">
        <ele>81.7</ele>
        <time>2020-10-16T14:54:02Z</time>
      </trkpt>
      <trkpt lat="37.370768000" lon="-5.538646000">
        <ele>81.8</ele>
        <time>2020-10-16T14:54:04Z</time>
      </trkpt>
      <trkpt lat="37.370821000" lon="-5.538730000">
        <ele>82.0</ele>
        <time>2020-10-16T14:54:06Z</time>
      </trkpt>
      <trkpt lat="37.370873000" lon="-5.538812000">
        <ele>82.2</ele>
        <time>2020-10-16T14:54:08Z</time>
      </trkpt>
      <trkpt lat="37.370950000" lon="-5.538929000">
        <ele>82.4</ele>
        <time>2020-10-16T14:54:11Z</time>
      </trkpt>
      <trkpt lat="37.371025000" lon="-5.539045000">
        <ele>82.5</ele>
        <time>2020-10-16T14:54:14Z</time>
      </trkpt>
      <trkpt lat="37.371077000" lon="-5.539123000">
        <ele>82.7</ele>
        <time>2020-10-16T14:54:16Z</time>
      </trkpt>
      <trkpt lat="37.371152000" lon="-5.539241000">
        <ele>82.9</ele>
        <time>2020-10-16T14:54:19Z</time>
      </trkpt>
      <trkpt lat="37.371230000" lon="-5.539356000">
        <ele>83.1</ele>
        <time>2020-10-16T14:54:22Z</time>
      </trkpt>
      <trkpt lat="37.371284000" lon="-5.539433000">
        <ele>83.4</ele>
        <time>2020-10-16T14:54:24Z</time>
      </trkpt>
      <trkpt lat="37.371339000" lon="-5.539510000">
        <ele>83.6</ele>
        <time>2020-10-16T14:54:26Z</time>
      </trkpt>
      <trkpt lat="37.371396000" lon="-5.539585000">
        <ele>83.9</ele>
        <time>2020-10-16T14:54:28Z</time>
      </trkpt>
      <trkpt lat="37.371455000" lon="-5.539659000">
        <ele>84.3</ele>
        <time>2020-10-16T14:54:30Z</time>
      </trkpt>
      <trkpt lat="37.371516000" lon="-5.539728000">
        <ele>84.6</ele>
        <time>2020-10-16T14:54:32Z</time>
      </trkpt>
      <trkpt lat="37.371580000" lon="-5.539795000">
        <ele>85.1</ele>
        <time>2020-10-16T14:54:34Z</time>
      </trkpt>
      <trkpt lat="37.371647000" lon="-5.539861000">
        <ele>85.5</ele>
        <time>2020-10-16T14:54:36Z</time>
      </trkpt>
      <trkpt lat="37.371712000" lon="-5.539935000">
        <ele>85.7</ele>
        <time>2020-10-16T14:54:38Z</time>
      </trkpt>
      <trkpt lat="37.371769000" lon="-5.540019000">
        <ele>86.0</ele>
        <time>2020-10-16T14:54:40Z</time>
      </trkpt>
      <trkpt lat="37.371834000" lon="-5.540134000">
        <ele>86.3</ele>
        <time>2020-10-16T14:54:43Z</time>
      </trkpt>
      <trkpt lat="37.371900000" lon="-5.540251000">
        <ele>86.5</ele>
        <time>2020-10-16T14:54:46Z</time>
      </trkpt>
      <trkpt lat="37.371968000" lon="-5.540354000">
        <ele>86.5</ele>
        <time>2020-10-16T14:54:49Z</time>
      </trkpt>
      <trkpt lat="37.372037000" lon="-5.540459000">
        <ele>86.6</ele>
        <time>2020-10-16T14:54:52Z</time>
      </trkpt>
      <trkpt lat="37.372114000" lon="-5.540569000">
        <ele>86.6</ele>
        <time>2020-10-16T14:54:55Z</time>
      </trkpt>
      <trkpt lat="37.372188000" lon="-5.540674000">
        <ele>86.5</ele>
        <time>2020-10-16T14:54:58Z</time>
      </trkpt>
      <trkpt lat="37.372270000" lon="-5.540760000">
        <ele>86.4</ele>
        <time>2020-10-16T14:55:01Z</time>
      </trkpt>
      <trkpt lat="37.372350000" lon="-5.540842000">
        <ele>86.2</ele>
        <time>2020-10-16T14:55:04Z</time>
      </trkpt>
      <trkpt lat="37.372430000" lon="-5.540908000">
        <ele>86.1</ele>
        <time>2020-10-16T14:55:07Z</time>
      </trkpt>
      <trkpt lat="37.372513000" lon="-5.540962000">
        <ele>86.2</ele>
        <time>2020-10-16T14:55:10Z</time>
      </trkpt>
      <trkpt lat="37.372596000" lon="-5.541025000">
        <ele>86.3</ele>
        <time>2020-10-16T14:55:13Z</time>
      </trkpt>
      <trkpt lat="37.372669000" lon="-5.541109000">
        <ele>86.5</ele>
        <time>2020-10-16T14:55:16Z</time>
      </trkpt>
      <trkpt lat="37.372735000" lon="-5.541205000">
        <ele>86.7</ele>
        <time>2020-10-16T14:55:19Z</time>
      </trkpt>
      <trkpt lat="37.372801000" lon="-5.541297000">
        <ele>87.0</ele>
        <time>2020-10-16T14:55:22Z</time>
      </trkpt>
      <trkpt lat="37.372867000" lon="-5.541387000">
        <ele>87.3</ele>
        <time>2020-10-16T14:55:25Z</time>
      </trkpt>
      <trkpt lat="37.372938000" lon="-5.541476000">
        <ele>87.6</ele>
        <time>2020-10-16T14:55:28Z</time>
      </trkpt>
      <trkpt lat="37.373011000" lon="-5.541568000">
        <ele>88.0</ele>
        <time>2020-10-16T14:55:31Z</time>
      </trkpt>
      <trkpt lat="37.373085000" lon="-5.541657000">
        <ele>88.5</ele>
        <time>2020-10-16T14:55:34Z</time>
      </trkpt>
      <trkpt lat="37.373154000" lon="-5.541748000">
        <ele>88.8</ele>
        <time>2020-10-16T14:55:37Z</time>
      </trkpt>
      <trkpt lat="37.373224000" lon="-5.541843000">
        <ele>89.2</ele>
        <time>2020-10-16T14:55:40Z</time>
      </trkpt>
      <trkpt lat="37.373297000" lon="-5.541932000">
        <ele>89.5</ele>
        <time>2020-10-16T14:55:43Z</time>
      </trkpt>
      <trkpt lat="37.373369000" lon="-5.542022000">
        <ele>89.7</ele>
        <time>2020-10-16T14:55:46Z</time>
      </trkpt>
      <trkpt lat="37.373442000" lon="-5.542110000">
        <ele>89.9</ele>
        <time>2020-10-16T14:55:49Z</time>
      </trkpt>
      <trkpt lat="37.373516000" lon="-5.542193000">
        <ele>90.1</ele>
        <time>2020-10-16T14:55:52Z</time>
      </trkpt>
      <trkpt lat="37.373588000" lon="-5.542273000">
        <ele>90.2</ele>
        <time>2020-10-16T14:55:55Z</time>
      </trkpt>
      <trkpt lat="37.373662000" lon="-5.542352000">
        <ele>90.3</ele>
        <time>2020-10-16T14:55:58Z</time>
      </trkpt>
      <trkpt lat="37.373733000" lon="-5.542430000">
        <ele>90.5</ele>
        <time>2020-10-16T14:56:01Z</time>
      </trkpt>
      <trkpt lat="37.373811000" lon="-5.542504000">
        <ele>90.6</ele>
        <time>2020-10-16T14:56:04Z</time>
      </trkpt>
      <trkpt lat="37.373882000" lon="-5.542586000">
        <ele>90.8</ele>
        <time>2020-10-16T14:56:07Z</time>
      </trkpt>
      <trkpt lat="37.373940000" lon="-5.542672000">
        <ele>91.1</ele>
        <time>2020-10-16T14:56:10Z</time>
      </trkpt>
      <trkpt lat="37.374001000" lon="-5.542754000">
        <ele>91.5</ele>
        <time>2020-10-16T14:56:13Z</time>
      </trkpt>
      <trkpt lat="37.374063000" lon="-5.542853000">
        <ele>91.8</ele>
        <time>2020-10-16T14:56:17Z</time>
      </trkpt>
      <trkpt lat="37.374115000" lon="-5.542945000">
        <ele>92.3</ele>
        <time>2020-10-16T14:56:21Z</time>
      </trkpt>
      <trkpt lat="37.374171000" lon="-5.543031000">
        <ele>92.8</ele>
        <time>2020-10-16T14:56:25Z</time>
      </trkpt>
      <trkpt lat="37.374222000" lon="-5.543126000">
        <ele>93.4</ele>
        <time>2020-10-16T14:56:29Z</time>
      </trkpt>
      <trkpt lat="37.374275000" lon="-5.543225000">
        <ele>94.0</ele>
        <time>2020-10-16T14:56:33Z</time>
      </trkpt>
      <trkpt lat="37.374325000" lon="-5.543322000">
        <ele>94.5</ele>
        <time>2020-10-16T14:56:37Z</time>
      </trkpt>
      <trkpt lat="37.374385000" lon="-5.543415000">
        <ele>95.0</ele>
        <time>2020-10-16T14:56:41Z</time>
      </trkpt>
      <trkpt lat="37.374433000" lon="-5.543503000">
        <ele>95.5</ele>
        <time>2020-10-16T14:56:45Z</time>
      </trkpt>
      <trkpt lat="37.374486000" lon="-5.543594000">
        <ele>95.9</ele>
        <time>2020-10-16T14:56:49Z</time>
      </trkpt>
      <trkpt lat="37.374535000" lon="-5.543679000">
        <ele>96.3</ele>
        <time>2020-10-16T14:56:53Z</time>
      </trkpt>
      <trkpt lat="37.374584000" lon="-5.543787000">
        <ele>96.5</ele>
        <time>2020-10-16T14:56:58Z</time>
      </trkpt>
      <trkpt lat="37.374632000" lon="-5.543878000">
        <ele>96.7</ele>
        <time>2020-10-16T14:57:02Z</time>
      </trkpt>
      <trkpt lat="37.374676000" lon="-5.543968000">
        <ele>96.9</ele>
        <time>2020-10-16T14:57:06Z</time>
      </trkpt>
      <trkpt lat="37.374728000" lon="-5.544048000">
        <ele>96.9</ele>
        <time>2020-10-16T14:57:10Z</time>
      </trkpt>
      <trkpt lat="37.374773000" lon="-5.544142000">
        <ele>96.9</ele>
        <time>2020-10-16T14:57:13Z</time>
      </trkpt>
      <trkpt lat="37.374825000" lon="-5.544267000">
        <ele>96.8</ele>
        <time>2020-10-16T14:57:16Z</time>
      </trkpt>
      <trkpt lat="37.374862000" lon="-5.544361000">
        <ele>96.7</ele>
        <time>2020-10-16T14:57:18Z</time>
      </trkpt>
      <trkpt lat="37.374901000" lon="-5.544457000">
        <ele>96.5</ele>
        <time>2020-10-16T14:57:20Z</time>
      </trkpt>
      <trkpt lat="37.374948000" lon="-5.544555000">
        <ele>96.3</ele>
        <time>2020-10-16T14:57:22Z</time>
      </trkpt>
      <trkpt lat="37.375013000" lon="-5.544645000">
        <ele>95.8</ele>
        <time>2020-10-16T14:57:24Z</time>
      </trkpt>
      <trkpt lat="37.375080000" lon="-5.544744000">
        <ele>95.3</ele>
        <time>2020-10-16T14:57:26Z</time>
      </trkpt>
      <trkpt lat="37.375153000" lon="-5.544849000">
        <ele>94.6</ele>
        <time>2020-10-16T14:57:28Z</time>
      </trkpt>
      <trkpt lat="37.375226000" lon="-5.544958000">
        <ele>93.8</ele>
        <time>2020-10-16T14:57:30Z</time>
      </trkpt>
      <trkpt lat="37.375296000" lon="-5.545063000">
        <ele>93.0</ele>
        <time>2020-10-16T14:57:32Z</time>
      </trkpt>
      <trkpt lat="37.375362000" lon="-5.545160000">
        <ele>92.3</ele>
        <time>2020-10-16T14:57:34Z</time>
      </trkpt>
      <trkpt lat="37.375432000" lon="-5.545265000">
        <ele>91.5</ele>
        <time>2020-10-16T14:57:36Z</time>
      </trkpt>
      <trkpt lat="37.375505000" lon="-5.545374000">
        <ele>91.0</ele>
        <time>2020-10-16T14:57:38Z</time>
      </trkpt>
      <trkpt lat="37.375580000" lon="-5.545488000">
        <ele>90.5</ele>
        <time>2020-10-16T14:57:40Z</time>
      </trkpt>
      <trkpt lat="37.375658000" lon="-5.545597000">
        <ele>90.3</ele>
        <time>2020-10-16T14:57:42Z</time>
      </trkpt>
      <trkpt lat="37.375734000" lon="-5.545712000">
        <ele>90.1</ele>
        <time>2020-10-16T14:57:44Z</time>
      </trkpt>
      <trkpt lat="37.375805000" lon="-5.545822000">
        <ele>89.9</ele>
        <time>2020-10-16T14:57:46Z</time>
      </trkpt>
      <trkpt lat="37.375876000" lon="-5.545935000">
        <ele>89.8</ele>
        <time>2020-10-16T14:57:48Z</time>
      </trkpt>
      <trkpt lat="37.375949000" lon="-5.546037000">
        <ele>89.8</ele>
        <time>2020-10-16T14:57:50Z</time>
      </trkpt>
      <trkpt lat="37.376025000" lon="-5.546142000">
        <ele>89.8</ele>
        <time>2020-10-16T14:57:52Z</time>
      </trkpt>
      <trkpt lat="37.376102000" lon="-5.546236000">
        <ele>89.8</ele>
        <time>2020-10-16T14:57:54Z</time>
      </trkpt>
      <trkpt lat="37.376190000" lon="-5.546327000">
        <ele>89.8</ele>
        <time>2020-10-16T14:57:56Z</time>
      </trkpt>
      <trkpt lat="37.376275000" lon="-5.546412000">
        <ele>89.8</ele>
        <time>2020-10-16T14:57:58Z</time>
      </trkpt>
      <trkpt lat="37.376357000" lon="-5.546500000">
        <ele>89.7</ele>
        <time>2020-10-16T14:58:00Z</time>
      </trkpt>
      <trkpt lat="37.376426000" lon="-5.546596000">
        <ele>89.6</ele>
        <time>2020-10-16T14:58:02Z</time>
      </trkpt>
      <trkpt lat="37.376471000" lon="-5.546703000">
        <ele>89.5</ele>
        <time>2020-10-16T14:58:04Z</time>
      </trkpt>
      <trkpt lat="37.376513000" lon="-5.546803000">
        <ele>89.5</ele>
        <time>2020-10-16T14:58:06Z</time>
      </trkpt>
      <trkpt lat="37.376557000" lon="-5.546891000">
        <ele>89.6</ele>
        <time>2020-10-16T14:58:08Z</time>
      </trkpt>
      <trkpt lat="37.376635000" lon="-5.547005000">
        <ele>89.8</ele>
        <time>2020-10-16T14:58:11Z</time>
      </trkpt>
      <trkpt lat="37.376708000" lon="-5.547101000">
        <ele>90.0</ele>
        <time>2020-10-16T14:58:14Z</time>
      </trkpt>
      <trkpt lat="37.376767000" lon="-5.547203000">
        <ele>90.3</ele>
        <time>2020-10-16T14:58:17Z</time>
      </trkpt>
      <trkpt lat="37.376823000" lon="-5.547312000">
        <ele>90.6</ele>
        <time>2020-10-16T14:58:20Z</time>
      </trkpt>
      <trkpt lat="37.376879000" lon="-5.547412000">
        <ele>91.1</ele>
        <time>2020-10-16T14:58:23Z</time>
      </trkpt>
      <trkpt lat="37.376942000" lon="-5.547503000">
        <ele>91.5</ele>
        <time>2020-10-16T14:58:26Z</time>
      </trkpt>
      <trkpt lat="37.376997000" lon="-5.547590000">
        <ele>92.1</ele>
        <time>2020-10-16T14:58:29Z</time>
      </trkpt>
      <trkpt lat="37.377057000" lon="-5.547676000">
        <ele>92.6</ele>
        <time>2020-10-16T14:58:32Z</time>
      </trkpt>
      <trkpt lat="37.377121000" lon="-5.547765000">
        <ele>93.2</ele>
        <time>2020-10-16T14:58:35Z</time>
      </trkpt>
      <trkpt lat="37.377180000" lon="-5.547850000">
        <ele>93.6</ele>
        <time>2020-10-16T14:58:38Z</time>
      </trkpt>
      <trkpt lat="37.377243000" lon="-5.547936000">
        <ele>94.2</ele>
        <time>2020-10-16T14:58:41Z</time>
      </trkpt>
      <trkpt lat="37.377309000" lon="-5.548021000">
        <ele>94.6</ele>
        <time>2020-10-16T14:58:44Z</time>
      </trkpt>
      <trkpt lat="37.377379000" lon="-5.548095000">
        <ele>95.2</ele>
        <time>2020-10-16T14:58:47Z</time>
      </trkpt>
      <trkpt lat="37.377448000" lon="-5.548163000">
        <ele>95.7</ele>
        <time>2020-10-16T14:58:50Z</time>
      </trkpt>
      <trkpt lat="37.377520000" lon="-5.548232000">
        <ele>96.2</ele>
        <time>2020-10-16T14:58:53Z</time>
      </trkpt>
      <trkpt lat="37.377589000" lon="-5.548298000">
        <ele>96.6</ele>
        <time>2020-10-16T14:58:56Z</time>
      </trkpt>
      <trkpt lat="37.377656000" lon="-5.548356000">
        <ele>97.1</ele>
        <time>2020-10-16T14:58:59Z</time>
      </trkpt>
      <trkpt lat="37.377728000" lon="-5.548421000">
        <ele>97.5</ele>
        <time>2020-10-16T14:59:02Z</time>
      </trkpt>
      <trkpt lat="37.377803000" lon="-5.548490000">
        <ele>97.8</ele>
        <time>2020-10-16T14:59:05Z</time>
      </trkpt>
      <trkpt lat="37.377879000" lon="-5.548556000">
        <ele>98.1</ele>
        <time>2020-10-16T14:59:08Z</time>
      </trkpt>
      <trkpt lat="37.377948000" lon="-5.548624000">
        <ele>98.4</ele>
        <time>2020-10-16T14:59:11Z</time>
      </trkpt>
      <trkpt lat="37.378022000" lon="-5.548683000">
        <ele>98.5</ele>
        <time>2020-10-16T14:59:14Z</time>
      </trkpt>
      <trkpt lat="37.378099000" lon="-5.548747000">
        <ele>98.5</ele>
        <time>2020-10-16T14:59:17Z</time>
      </trkpt>
      <trkpt lat="37.378180000" lon="-5.548807000">
        <ele>98.4</ele>
        <time>2020-10-16T14:59:20Z</time>
      </trkpt>
      <trkpt lat="37.378254000" lon="-5.548858000">
        <ele>98.3</ele>
        <time>2020-10-16T14:59:23Z</time>
      </trkpt>
      <trkpt lat="37.378337000" lon="-5.548922000">
        <ele>98.2</ele>
        <time>2020-10-16T14:59:26Z</time>
      </trkpt>
      <trkpt lat="37.378424000" lon="-5.548992000">
        <ele>98.1</ele>
        <time>2020-10-16T14:59:29Z</time>
      </trkpt>
      <trkpt lat="37.378511000" lon="-5.549054000">
        <ele>98.1</ele>
        <time>2020-10-16T14:59:32Z</time>
      </trkpt>
      <trkpt lat="37.378597000" lon="-5.549114000">
        <ele>98.1</ele>
        <time>2020-10-16T14:59:35Z</time>
      </trkpt>
      <trkpt lat="37.378688000" lon="-5.549174000">
        <ele>98.1</ele>
        <time>2020-10-16T14:59:38Z</time>
      </trkpt>
      <trkpt lat="37.378782000" lon="-5.549241000">
        <ele>98.0</ele>
        <time>2020-10-16T14:59:41Z</time>
      </trkpt>
      <trkpt lat="37.378883000" lon="-5.549303000">
        <ele>97.9</ele>
        <time>2020-10-16T14:59:44Z</time>
      </trkpt>
      <trkpt lat="37.378982000" lon="-5.549360000">
        <ele>97.8</ele>
        <time>2020-10-16T14:59:47Z</time>
      </trkpt>
      <trkpt lat="37.379083000" lon="-5.549417000">
        <ele>97.7</ele>
        <time>2020-10-16T14:59:50Z</time>
      </trkpt>
      <trkpt lat="37.379165000" lon="-5.549494000">
        <ele>97.6</ele>
        <time>2020-10-16T14:59:53Z</time>
      </trkpt>
      <trkpt lat="37.379255000" lon="-5.549544000">
        <ele>97.5</ele>
        <time>2020-10-16T15:00:58Z</time>
      </trkpt>
      <trkpt lat="37.379354000" lon="-5.549606000">
        <ele>97.3</ele>
        <time>2020-10-16T15:01:01Z</time>
      </trkpt>
      <trkpt lat="37.379452000" lon="-5.549654000">
        <ele>96.9</ele>
        <time>2020-10-16T15:01:03Z</time>
      </trkpt>
      <trkpt lat="37.379550000" lon="-5.549712000">
        <ele>96.5</ele>
        <time>2020-10-16T15:01:05Z</time>
      </trkpt>
      <trkpt lat="37.379646000" lon="-5.549780000">
        <ele>96.0</ele>
        <time>2020-10-16T15:01:07Z</time>
      </trkpt>
      <trkpt lat="37.379738000" lon="-5.549848000">
        <ele>95.5</ele>
        <time>2020-10-16T15:01:09Z</time>
      </trkpt>
      <trkpt lat="37.379836000" lon="-5.549915000">
        <ele>95.0</ele>
        <time>2020-10-16T15:01:11Z</time>
      </trkpt>
      <trkpt lat="37.379939000" lon="-5.549990000">
        <ele>94.5</ele>
        <time>2020-10-16T15:01:13Z</time>
      </trkpt>
      <trkpt lat="37.380044000" lon="-5.550065000">
        <ele>93.9</ele>
        <time>2020-10-16T15:01:15Z</time>
      </trkpt>
      <trkpt lat="37.380148000" lon="-5.550141000">
        <ele>93.4</ele>
        <time>2020-10-16T15:01:17Z</time>
      </trkpt>
      <trkpt lat="37.380256000" lon="-5.550221000">
        <ele>92.7</ele>
        <time>2020-10-16T15:01:19Z</time>
      </trkpt>
      <trkpt lat="37.380363000" lon="-5.550307000">
        <ele>92.2</ele>
        <time>2020-10-16T15:01:21Z</time>
      </trkpt>
      <trkpt lat="37.380464000" lon="-5.550398000">
        <ele>91.5</ele>
        <time>2020-10-16T15:01:23Z</time>
      </trkpt>
      <trkpt lat="37.380566000" lon="-5.550496000">
        <ele>91.0</ele>
        <time>2020-10-16T15:01:25Z</time>
      </trkpt>
      <trkpt lat="37.380666000" lon="-5.550593000">
        <ele>90.5</ele>
        <time>2020-10-16T15:01:27Z</time>
      </trkpt>
      <trkpt lat="37.380771000" lon="-5.550673000">
        <ele>90.1</ele>
        <time>2020-10-16T15:01:29Z</time>
      </trkpt>
      <trkpt lat="37.380867000" lon="-5.550752000">
        <ele>89.7</ele>
        <time>2020-10-16T15:01:31Z</time>
      </trkpt>
      <trkpt lat="37.380951000" lon="-5.550853000">
        <ele>89.4</ele>
        <time>2020-10-16T15:01:33Z</time>
      </trkpt>
      <trkpt lat="37.381018000" lon="-5.550959000">
        <ele>89.1</ele>
        <time>2020-10-16T15:01:35Z</time>
      </trkpt>
      <trkpt lat="37.381077000" lon="-5.551071000">
        <ele>88.9</ele>
        <time>2020-10-16T15:01:37Z</time>
      </trkpt>
      <trkpt lat="37.381132000" lon="-5.551181000">
        <ele>88.8</ele>
        <time>2020-10-16T15:01:39Z</time>
      </trkpt>
      <trkpt lat="37.381189000" lon="-5.551279000">
        <ele>88.8</ele>
        <time>2020-10-16T15:01:41Z</time>
      </trkpt>
      <trkpt lat="37.381243000" lon="-5.551363000">
        <ele>88.8</ele>
        <time>2020-10-16T15:01:43Z</time>
      </trkpt>
      <trkpt lat="37.381293000" lon="-5.551449000">
        <ele>88.9</ele>
        <time>2020-10-16T15:01:45Z</time>
      </trkpt>
      <trkpt lat="37.381364000" lon="-5.551571000">
        <ele>89.1</ele>
        <time>2020-10-16T15:01:48Z</time>
      </trkpt>
      <trkpt lat="37.381435000" lon="-5.551688000">
        <ele>89.3</ele>
        <time>2020-10-16T15:01:51Z</time>
      </trkpt>
      <trkpt lat="37.381505000" lon="-5.551794000">
        <ele>89.5</ele>
        <time>2020-10-16T15:01:54Z</time>
      </trkpt>
      <trkpt lat="37.381569000" lon="-5.551896000">
        <ele>89.6</ele>
        <time>2020-10-16T15:01:57Z</time>
      </trkpt>
      <trkpt lat="37.381634000" lon="-5.551985000">
        <ele>89.9</ele>
        <time>2020-10-16T15:02:00Z</time>
      </trkpt>
      <trkpt lat="37.381694000" lon="-5.552072000">
        <ele>90.2</ele>
        <time>2020-10-16T15:02:03Z</time>
      </trkpt>
      <trkpt lat="37.381756000" lon="-5.552155000">
        <ele>90.5</ele>
        <time>2020-10-16T15:02:06Z</time>
      </trkpt>
      <trkpt lat="37.381817000" lon="-5.552234000">
        <ele>91.0</ele>
        <time>2020-10-16T15:02:09Z</time>
      </trkpt>
      <trkpt lat="37.381877000" lon="-5.552317000">
        <ele>91.5</ele>
        <time>2020-10-16T15:02:12Z</time>
      </trkpt>
      <trkpt lat="37.381942000" lon="-5.552404000">
        <ele>92.1</ele>
        <time>2020-10-16T15:02:15Z</time>
      </trkpt>
      <trkpt lat="37.382002000" lon="-5.552492000">
        <ele>92.7</ele>
        <time>2020-10-16T15:02:18Z</time>
      </trkpt>
      <trkpt lat="37.382061000" lon="-5.552578000">
        <ele>93.3</ele>
        <time>2020-10-16T15:02:21Z</time>
      </trkpt>
      <trkpt lat="37.382128000" lon="-5.552671000">
        <ele>93.7</ele>
        <time>2020-10-16T15:02:24Z</time>
      </trkpt>
      <trkpt lat="37.382199000" lon="-5.552772000">
        <ele>94.1</ele>
        <time>2020-10-16T15:02:27Z</time>
      </trkpt>
      <trkpt lat="37.382278000" lon="-5.552872000">
        <ele>94.5</ele>
        <time>2020-10-16T15:02:30Z</time>
      </trkpt>
      <trkpt lat="37.382350000" lon="-5.552980000">
        <ele>94.7</ele>
        <time>2020-10-16T15:02:33Z</time>
      </trkpt>
      <trkpt lat="37.382428000" lon="-5.553090000">
        <ele>94.9</ele>
        <time>2020-10-16T15:02:36Z</time>
      </trkpt>
      <trkpt lat="37.382483000" lon="-5.553167000">
        <ele>95.0</ele>
        <time>2020-10-16T15:02:38Z</time>
      </trkpt>
      <trkpt lat="37.382565000" lon="-5.553276000">
        <ele>94.9</ele>
        <time>2020-10-16T15:02:41Z</time>
      </trkpt>
      <trkpt lat="37.382646000" lon="-5.553372000">
        <ele>94.8</ele>
        <time>2020-10-16T15:02:44Z</time>
      </trkpt>
      <trkpt lat="37.382729000" lon="-5.553459000">
        <ele>94.7</ele>
        <time>2020-10-16T15:02:47Z</time>
      </trkpt>
      <trkpt lat="37.382808000" lon="-5.553534000">
        <ele>94.6</ele>
        <time>2020-10-16T15:02:50Z</time>
      </trkpt>
      <trkpt lat="37.382884000" lon="-5.553607000">
        <ele>94.5</ele>
        <time>2020-10-16T15:02:53Z</time>
      </trkpt>
      <trkpt lat="37.382958000" lon="-5.553676000">
        <ele>94.5</ele>
        <time>2020-10-16T15:02:56Z</time>
      </trkpt>
      <trkpt lat="37.383006000" lon="-5.553760000">
        <ele>94.6</ele>
        <time>2020-10-16T15:02:59Z</time>
      </trkpt>
      <trkpt lat="37.383005000" lon="-5.553886000">
        <ele>94.7</ele>
        <time>2020-10-16T15:03:03Z</time>
      </trkpt>
      <trkpt lat="37.383056000" lon="-5.553991000">
        <ele>94.8</ele>
        <time>2020-10-16T15:03:07Z</time>
      </trkpt>
      <trkpt lat="37.383143000" lon="-5.554064000">
        <ele>95.0</ele>
        <time>2020-10-16T15:03:22Z</time>
      </trkpt>
      <trkpt lat="37.383214000" lon="-5.554132000">
        <ele>95.2</ele>
        <time>2020-10-16T15:03:25Z</time>
      </trkpt>
      <trkpt lat="37.383285000" lon="-5.554212000">
        <ele>95.5</ele>
        <time>2020-10-16T15:03:28Z</time>
      </trkpt>
      <trkpt lat="37.383363000" lon="-5.554283000">
        <ele>95.8</ele>
        <time>2020-10-16T15:03:31Z</time>
      </trkpt>
      <trkpt lat="37.383443000" lon="-5.554348000">
        <ele>96.1</ele>
        <time>2020-10-16T15:03:34Z</time>
      </trkpt>
      <trkpt lat="37.383503000" lon="-5.554434000">
        <ele>96.4</ele>
        <time>2020-10-16T15:03:37Z</time>
      </trkpt>
      <trkpt lat="37.383569000" lon="-5.554512000">
        <ele>96.6</ele>
        <time>2020-10-16T15:03:40Z</time>
      </trkpt>
      <trkpt lat="37.383636000" lon="-5.554590000">
        <ele>96.9</ele>
        <time>2020-10-16T15:03:43Z</time>
      </trkpt>
      <trkpt lat="37.383701000" lon="-5.554669000">
        <ele>97.3</ele>
        <time>2020-10-16T15:03:46Z</time>
      </trkpt>
      <trkpt lat="37.383775000" lon="-5.554740000">
        <ele>97.7</ele>
        <time>2020-10-16T15:03:49Z</time>
      </trkpt>
      <trkpt lat="37.383850000" lon="-5.554808000">
        <ele>98.2</ele>
        <time>2020-10-16T15:03:52Z</time>
      </trkpt>
      <trkpt lat="37.383925000" lon="-5.554859000">
        <ele>98.7</ele>
        <time>2020-10-16T15:03:55Z</time>
      </trkpt>
      <trkpt lat="37.383992000" lon="-5.554931000">
        <ele>99.3</ele>
        <time>2020-10-16T15:03:58Z</time>
      </trkpt>
      <trkpt lat="37.384055000" lon="-5.554999000">
        <ele>99.7</ele>
        <time>2020-10-16T15:04:01Z</time>
      </trkpt>
      <trkpt lat="37.384130000" lon="-5.555086000">
        <ele>100.2</ele>
        <time>2020-10-16T15:04:05Z</time>
      </trkpt>
      <trkpt lat="37.384201000" lon="-5.555183000">
        <ele>100.6</ele>
        <time>2020-10-16T15:04:09Z</time>
      </trkpt>
      <trkpt lat="37.384281000" lon="-5.555265000">
        <ele>101.0</ele>
        <time>2020-10-16T15:04:13Z</time>
      </trkpt>
      <trkpt lat="37.384368000" lon="-5.555327000">
        <ele>101.4</ele>
        <time>2020-10-16T15:04:17Z</time>
      </trkpt>
      <trkpt lat="37.384461000" lon="-5.555375000">
        <ele>101.6</ele>
        <time>2020-10-16T15:04:21Z</time>
      </trkpt>
      <trkpt lat="37.384549000" lon="-5.555416000">
        <ele>101.8</ele>
        <time>2020-10-16T15:04:25Z</time>
      </trkpt>
      <trkpt lat="37.384643000" lon="-5.555466000">
        <ele>102.0</ele>
        <time>2020-10-16T15:04:29Z</time>
      </trkpt>
      <trkpt lat="37.384716000" lon="-5.555514000">
        <ele>102.2</ele>
        <time>2020-10-16T15:04:32Z</time>
      </trkpt>
      <trkpt lat="37.384808000" lon="-5.555582000">
        <ele>102.3</ele>
        <time>2020-10-16T15:04:36Z</time>
      </trkpt>
      <trkpt lat="37.384877000" lon="-5.555642000">
        <ele>102.5</ele>
        <time>2020-10-16T15:04:39Z</time>
      </trkpt>
      <trkpt lat="37.384971000" lon="-5.555707000">
        <ele>102.6</ele>
        <time>2020-10-16T15:04:43Z</time>
      </trkpt>
      <trkpt lat="37.385043000" lon="-5.555757000">
        <ele>102.8</ele>
        <time>2020-10-16T15:04:46Z</time>
      </trkpt>
      <trkpt lat="37.385125000" lon="-5.555798000">
        <ele>103.1</ele>
        <time>2020-10-16T15:04:49Z</time>
      </trkpt>
      <trkpt lat="37.385215000" lon="-5.555851000">
        <ele>103.4</ele>
        <time>2020-10-16T15:04:52Z</time>
      </trkpt>
      <trkpt lat="37.385301000" lon="-5.555912000">
        <ele>103.6</ele>
        <time>2020-10-16T15:04:55Z</time>
      </trkpt>
      <trkpt lat="37.385376000" lon="-5.555982000">
        <ele>104.0</ele>
        <time>2020-10-16T15:04:58Z</time>
      </trkpt>
      <trkpt lat="37.385454000" lon="-5.556037000">
        <ele>104.4</ele>
        <time>2020-10-16T15:05:01Z</time>
      </trkpt>
      <trkpt lat="37.385535000" lon="-5.556090000">
        <ele>104.6</ele>
        <time>2020-10-16T15:05:04Z</time>
      </trkpt>
      <trkpt lat="37.385613000" lon="-5.556144000">
        <ele>104.9</ele>
        <time>2020-10-16T15:05:07Z</time>
      </trkpt>
      <trkpt lat="37.385687000" lon="-5.556207000">
        <ele>105.2</ele>
        <time>2020-10-16T15:05:10Z</time>
      </trkpt>
      <trkpt lat="37.385761000" lon="-5.556265000">
        <ele>105.4</ele>
        <time>2020-10-16T15:05:13Z</time>
      </trkpt>
      <trkpt lat="37.385838000" lon="-5.556313000">
        <ele>105.5</ele>
        <time>2020-10-16T15:05:16Z</time>
      </trkpt>
      <trkpt lat="37.385923000" lon="-5.556362000">
        <ele>105.7</ele>
        <time>2020-10-16T15:05:19Z</time>
      </trkpt>
      <trkpt lat="37.386004000" lon="-5.556426000">
        <ele>105.8</ele>
        <time>2020-10-16T15:05:22Z</time>
      </trkpt>
      <trkpt lat="37.386096000" lon="-5.556455000">
        <ele>105.9</ele>
        <time>2020-10-16T15:05:25Z</time>
      </trkpt>
      <trkpt lat="37.386185000" lon="-5.556499000">
        <ele>106.0</ele>
        <time>2020-10-16T15:05:28Z</time>
      </trkpt>
      <trkpt lat="37.386273000" lon="-5.556561000">
        <ele>106.0</ele>
        <time>2020-10-16T15:05:31Z</time>
      </trkpt>
      <trkpt lat="37.386358000" lon="-5.556631000">
        <ele>106.1</ele>
        <time>2020-10-16T15:05:34Z</time>
      </trkpt>
      <trkpt lat="37.386444000" lon="-5.556706000">
        <ele>106.3</ele>
        <time>2020-10-16T15:05:37Z</time>
      </trkpt>
      <trkpt lat="37.386531000" lon="-5.556788000">
        <ele>106.5</ele>
        <time>2020-10-16T15:05:40Z</time>
      </trkpt>
      <trkpt lat="37.386620000" lon="-5.556856000">
        <ele>106.7</ele>
        <time>2020-10-16T15:05:43Z</time>
      </trkpt>
      <trkpt lat="37.386712000" lon="-5.556924000">
        <ele>107.0</ele>
        <time>2020-10-16T15:05:46Z</time>
      </trkpt>
      <trkpt lat="37.386806000" lon="-5.556998000">
        <ele>107.3</ele>
        <time>2020-10-16T15:05:49Z</time>
      </trkpt>
      <trkpt lat="37.386899000" lon="-5.557071000">
        <ele>107.5</ele>
        <time>2020-10-16T15:05:52Z</time>
      </trkpt>
      <trkpt lat="37.386997000" lon="-5.557139000">
        <ele>107.8</ele>
        <time>2020-10-16T15:05:55Z</time>
      </trkpt>
      <trkpt lat="37.387092000" lon="-5.557198000">
        <ele>108.2</ele>
        <time>2020-10-16T15:05:58Z</time>
      </trkpt>
      <trkpt lat="37.387186000" lon="-5.557244000">
        <ele>108.5</ele>
        <time>2020-10-16T15:06:01Z</time>
      </trkpt>
      <trkpt lat="37.387278000" lon="-5.557290000">
        <ele>109.0</ele>
        <time>2020-10-16T15:06:04Z</time>
      </trkpt>
      <trkpt lat="37.387362000" lon="-5.557331000">
        <ele>109.4</ele>
        <time>2020-10-16T15:06:07Z</time>
      </trkpt>
      <trkpt lat="37.387450000" lon="-5.557369000">
        <ele>109.7</ele>
        <time>2020-10-16T15:06:10Z</time>
      </trkpt>
      <trkpt lat="37.387541000" lon="-5.557417000">
        <ele>110.2</ele>
        <time>2020-10-16T15:06:13Z</time>
      </trkpt>
      <trkpt lat="37.387631000" lon="-5.557463000">
        <ele>110.5</ele>
        <time>2020-10-16T15:06:16Z</time>
      </trkpt>
      <trkpt lat="37.387717000" lon="-5.557513000">
        <ele>111.0</ele>
        <time>2020-10-16T15:06:19Z</time>
      </trkpt>
      <trkpt lat="37.387804000" lon="-5.557568000">
        <ele>111.5</ele>
        <time>2020-10-16T15:06:22Z</time>
      </trkpt>
      <trkpt lat="37.387890000" lon="-5.557619000">
        <ele>111.9</ele>
        <time>2020-10-16T15:06:25Z</time>
      </trkpt>
      <trkpt lat="37.387971000" lon="-5.557670000">
        <ele>112.5</ele>
        <time>2020-10-16T15:06:28Z</time>
      </trkpt>
      <trkpt lat="37.388039000" lon="-5.557726000">
        <ele>112.9</ele>
        <time>2020-10-16T15:06:31Z</time>
      </trkpt>
      <trkpt lat="37.388124000" lon="-5.557762000">
        <ele>113.4</ele>
        <time>2020-10-16T15:06:34Z</time>
      </trkpt>
      <trkpt lat="37.388214000" lon="-5.557810000">
        <ele>113.7</ele>
        <time>2020-10-16T15:06:37Z</time>
      </trkpt>
      <trkpt lat="37.388293000" lon="-5.557860000">
        <ele>114.2</ele>
        <time>2020-10-16T15:06:40Z</time>
      </trkpt>
      <trkpt lat="37.388371000" lon="-5.557891000">
        <ele>114.5</ele>
        <time>2020-10-16T15:06:43Z</time>
      </trkpt>
      <trkpt lat="37.388451000" lon="-5.557937000">
        <ele>114.9</ele>
        <time>2020-10-16T15:06:46Z</time>
      </trkpt>
      <trkpt lat="37.388531000" lon="-5.557991000">
        <ele>115.3</ele>
        <time>2020-10-16T15:06:49Z</time>
      </trkpt>
      <trkpt lat="37.388615000" lon="-5.558047000">
        <ele>115.6</ele>
        <time>2020-10-16T15:06:52Z</time>
      </trkpt>
      <trkpt lat="37.388702000" lon="-5.558092000">
        <ele>116.1</ele>
        <time>2020-10-16T15:06:55Z</time>
      </trkpt>
      <trkpt lat="37.388786000" lon="-5.558135000">
        <ele>116.5</ele>
        <time>2020-10-16T15:06:58Z</time>
      </trkpt>
      <trkpt lat="37.388866000" lon="-5.558177000">
        <ele>116.9</ele>
        <time>2020-10-16T15:07:01Z</time>
      </trkpt>
      <trkpt lat="37.388945000" lon="-5.558215000">
        <ele>117.4</ele>
        <time>2020-10-16T15:07:04Z</time>
      </trkpt>
      <trkpt lat="37.389026000" lon="-5.558247000">
        <ele>117.8</ele>
        <time>2020-10-16T15:07:07Z</time>
      </trkpt>
      <trkpt lat="37.389106000" lon="-5.558283000">
        <ele>118.2</ele>
        <time>2020-10-16T15:07:10Z</time>
      </trkpt>
      <trkpt lat="37.389188000" lon="-5.558311000">
        <ele>118.4</ele>
        <time>2020-10-16T15:07:13Z</time>
      </trkpt>
      <trkpt lat="37.389267000" lon="-5.558339000">
        <ele>118.5</ele>
        <time>2020-10-16T15:07:16Z</time>
      </trkpt>
      <trkpt lat="37.389348000" lon="-5.558366000">
        <ele>118.4</ele>
        <time>2020-10-16T15:07:20Z</time>
      </trkpt>
      <trkpt lat="37.389447000" lon="-5.558399000">
        <ele>118.2</ele>
        <time>2020-10-16T15:07:49Z</time>
      </trkpt>
      <trkpt lat="37.389542000" lon="-5.558438000">
        <ele>117.8</ele>
        <time>2020-10-16T15:07:52Z</time>
      </trkpt>
      <trkpt lat="37.389647000" lon="-5.558470000">
        <ele>117.3</ele>
        <time>2020-10-16T15:07:55Z</time>
      </trkpt>
      <trkpt lat="37.389740000" lon="-5.558517000">
        <ele>116.6</ele>
        <time>2020-10-16T15:07:59Z</time>
      </trkpt>
      <trkpt lat="37.389829000" lon="-5.558530000">
        <ele>116.0</ele>
        <time>2020-10-16T15:08:29Z</time>
      </trkpt>
      <trkpt lat="37.389908000" lon="-5.558569000">
        <ele>115.1</ele>
        <time>2020-10-16T15:08:32Z</time>
      </trkpt>
      <trkpt lat="37.390010000" lon="-5.558625000">
        <ele>114.0</ele>
        <time>2020-10-16T15:08:35Z</time>
      </trkpt>
      <trkpt lat="37.390111000" lon="-5.558690000">
        <ele>112.9</ele>
        <time>2020-10-16T15:08:38Z</time>
      </trkpt>
      <trkpt lat="37.390183000" lon="-5.558737000">
        <ele>111.8</ele>
        <time>2020-10-16T15:08:40Z</time>
      </trkpt>
      <trkpt lat="37.390259000" lon="-5.558791000">
        <ele>110.7</ele>
        <time>2020-10-16T15:08:42Z</time>
      </trkpt>
      <trkpt lat="37.390341000" lon="-5.558851000">
        <ele>109.6</ele>
        <time>2020-10-16T15:08:44Z</time>
      </trkpt>
      <trkpt lat="37.390423000" lon="-5.558917000">
        <ele>108.5</ele>
        <time>2020-10-16T15:08:46Z</time>
      </trkpt>
      <trkpt lat="37.390512000" lon="-5.558974000">
        <ele>107.5</ele>
        <time>2020-10-16T15:08:48Z</time>
      </trkpt>
      <trkpt lat="37.390598000" lon="-5.559041000">
        <ele>106.6</ele>
        <time>2020-10-16T15:08:50Z</time>
      </trkpt>
      <trkpt lat="37.390680000" lon="-5.559107000">
        <ele>105.8</ele>
        <time>2020-10-16T15:08:52Z</time>
      </trkpt>
      <trkpt lat="37.390757000" lon="-5.559158000">
        <ele>104.9</ele>
        <time>2020-10-16T15:08:54Z</time>
      </trkpt>
      <trkpt lat="37.390837000" lon="-5.559203000">
        <ele>104.2</ele>
        <time>2020-10-16T15:08:56Z</time>
      </trkpt>
      <trkpt lat="37.390909000" lon="-5.559256000">
        <ele>103.5</ele>
        <time>2020-10-16T15:08:58Z</time>
      </trkpt>
      <trkpt lat="37.390984000" lon="-5.559304000">
        <ele>103.0</ele>
        <time>2020-10-16T15:09:00Z</time>
      </trkpt>
      <trkpt lat="37.391060000" lon="-5.559364000">
        <ele>102.5</ele>
        <time>2020-10-16T15:09:02Z</time>
      </trkpt>
      <trkpt lat="37.391141000" lon="-5.559426000">
        <ele>101.9</ele>
        <time>2020-10-16T15:09:04Z</time>
      </trkpt>
      <trkpt lat="37.391227000" lon="-5.559485000">
        <ele>101.4</ele>
        <time>2020-10-16T15:09:06Z</time>
      </trkpt>
      <trkpt lat="37.391309000" lon="-5.559536000">
        <ele>100.8</ele>
        <time>2020-10-16T15:09:08Z</time>
      </trkpt>
      <trkpt lat="37.391406000" lon="-5.559584000">
        <ele>100.3</ele>
        <time>2020-10-16T15:09:11Z</time>
      </trkpt>
      <trkpt lat="37.391495000" lon="-5.559631000">
        <ele>99.6</ele>
        <time>2020-10-16T15:09:14Z</time>
      </trkpt>
      <trkpt lat="37.391610000" lon="-5.559699000">
        <ele>99.0</ele>
        <time>2020-10-16T15:09:17Z</time>
      </trkpt>
      <trkpt lat="37.391692000" lon="-5.559755000">
        <ele>98.4</ele>
        <time>2020-10-16T15:09:19Z</time>
      </trkpt>
      <trkpt lat="37.391772000" lon="-5.559809000">
        <ele>97.7</ele>
        <time>2020-10-16T15:09:21Z</time>
      </trkpt>
      <trkpt lat="37.391857000" lon="-5.559854000">
        <ele>97.2</ele>
        <time>2020-10-16T15:09:23Z</time>
      </trkpt>
      <trkpt lat="37.391942000" lon="-5.559908000">
        <ele>96.5</ele>
        <time>2020-10-16T15:09:25Z</time>
      </trkpt>
      <trkpt lat="37.392034000" lon="-5.559965000">
        <ele>96.0</ele>
        <time>2020-10-16T15:09:27Z</time>
      </trkpt>
      <trkpt lat="37.392134000" lon="-5.560015000">
        <ele>95.5</ele>
        <time>2020-10-16T15:09:29Z</time>
      </trkpt>
      <trkpt lat="37.392225000" lon="-5.560066000">
        <ele>95.1</ele>
        <time>2020-10-16T15:09:31Z</time>
      </trkpt>
      <trkpt lat="37.392319000" lon="-5.560123000">
        <ele>94.7</ele>
        <time>2020-10-16T15:09:33Z</time>
      </trkpt>
      <trkpt lat="37.392416000" lon="-5.560178000">
        <ele>94.3</ele>
        <time>2020-10-16T15:09:35Z</time>
      </trkpt>
      <trkpt lat="37.392506000" lon="-5.560235000">
        <ele>93.9</ele>
        <time>2020-10-16T15:09:37Z</time>
      </trkpt>
      <trkpt lat="37.392595000" lon="-5.560295000">
        <ele>93.6</ele>
        <time>2020-10-16T15:09:39Z</time>
      </trkpt>
      <trkpt lat="37.392674000" lon="-5.560351000">
        <ele>93.5</ele>
        <time>2020-10-16T15:09:41Z</time>
      </trkpt>
      <trkpt lat="37.392755000" lon="-5.560408000">
        <ele>93.3</ele>
        <time>2020-10-16T15:09:43Z</time>
      </trkpt>
      <trkpt lat="37.392836000" lon="-5.560474000">
        <ele>93.1</ele>
        <time>2020-10-16T15:09:45Z</time>
      </trkpt>
      <trkpt lat="37.392906000" lon="-5.560534000">
        <ele>93.0</ele>
        <time>2020-10-16T15:09:47Z</time>
      </trkpt>
      <trkpt lat="37.392974000" lon="-5.560594000">
        <ele>92.9</ele>
        <time>2020-10-16T15:09:49Z</time>
      </trkpt>
      <trkpt lat="37.393068000" lon="-5.560677000">
        <ele>92.8</ele>
        <time>2020-10-16T15:09:52Z</time>
      </trkpt>
      <trkpt lat="37.393139000" lon="-5.560755000">
        <ele>92.9</ele>
        <time>2020-10-16T15:09:55Z</time>
      </trkpt>
      <trkpt lat="37.393210000" lon="-5.560818000">
        <ele>93.0</ele>
        <time>2020-10-16T15:09:59Z</time>
      </trkpt>
      <trkpt lat="37.393299000" lon="-5.560836000">
        <ele>93.2</ele>
        <time>2020-10-16T15:10:38Z</time>
      </trkpt>
      <trkpt lat="37.393389000" lon="-5.560828000">
        <ele>93.4</ele>
        <time>2020-10-16T15:10:42Z</time>
      </trkpt>
      <trkpt lat="37.393455000" lon="-5.560922000">
        <ele>93.5</ele>
        <time>2020-10-16T15:10:46Z</time>
      </trkpt>
      <trkpt lat="37.393491000" lon="-5.561028000">
        <ele>93.6</ele>
        <time>2020-10-16T15:10:49Z</time>
      </trkpt>
      <trkpt lat="37.393545000" lon="-5.561129000">
        <ele>93.8</ele>
        <time>2020-10-16T15:10:52Z</time>
      </trkpt>
      <trkpt lat="37.393612000" lon="-5.561207000">
        <ele>94.0</ele>
        <time>2020-10-16T15:10:55Z</time>
      </trkpt>
      <trkpt lat="37.393686000" lon="-5.561288000">
        <ele>94.2</ele>
        <time>2020-10-16T15:10:59Z</time>
      </trkpt>
      <trkpt lat="37.393763000" lon="-5.561374000">
        <ele>94.4</ele>
        <time>2020-10-16T15:11:03Z</time>
      </trkpt>
      <trkpt lat="37.393835000" lon="-5.561465000">
        <ele>94.5</ele>
        <time>2020-10-16T15:11:07Z</time>
      </trkpt>
      <trkpt lat="37.393896000" lon="-5.561542000">
        <ele>94.7</ele>
        <time>2020-10-16T15:11:29Z</time>
      </trkpt>
      <trkpt lat="37.393961000" lon="-5.561612000">
        <ele>94.9</ele>
        <time>2020-10-16T15:11:34Z</time>
      </trkpt>
      <trkpt lat="37.394036000" lon="-5.561701000">
        <ele>95.1</ele>
        <time>2020-10-16T15:11:39Z</time>
      </trkpt>
      <trkpt lat="37.394104000" lon="-5.561771000">
        <ele>95.3</ele>
        <time>2020-10-16T15:11:41Z</time>
      </trkpt>
      <trkpt lat="37.394179000" lon="-5.561846000">
        <ele>95.5</ele>
        <time>2020-10-16T15:11:44Z</time>
      </trkpt>
      <trkpt lat="37.394254000" lon="-5.561921000">
        <ele>95.5</ele>
        <time>2020-10-16T15:11:47Z</time>
      </trkpt>
      <trkpt lat="37.394325000" lon="-5.562000000">
        <ele>95.7</ele>
        <time>2020-10-16T15:11:50Z</time>
      </trkpt>
      <trkpt lat="37.394400000" lon="-5.562081000">
        <ele>95.9</ele>
        <time>2020-10-16T15:11:53Z</time>
      </trkpt>
      <trkpt lat="37.394472000" lon="-5.562164000">
        <ele>96.2</ele>
        <time>2020-10-16T15:11:56Z</time>
      </trkpt>
      <trkpt lat="37.394547000" lon="-5.562244000">
        <ele>96.5</ele>
        <time>2020-10-16T15:11:59Z</time>
      </trkpt>
      <trkpt lat="37.394616000" lon="-5.562324000">
        <ele>96.8</ele>
        <time>2020-10-16T15:12:02Z</time>
      </trkpt>
      <trkpt lat="37.394684000" lon="-5.562395000">
        <ele>97.1</ele>
        <time>2020-10-16T15:12:05Z</time>
      </trkpt>
      <trkpt lat="37.394761000" lon="-5.562481000">
        <ele>97.4</ele>
        <time>2020-10-16T15:12:09Z</time>
      </trkpt>
      <trkpt lat="37.394825000" lon="-5.562558000">
        <ele>97.6</ele>
        <time>2020-10-16T15:12:12Z</time>
      </trkpt>
      <trkpt lat="37.394900000" lon="-5.562645000">
        <ele>97.9</ele>
        <time>2020-10-16T15:12:15Z</time>
      </trkpt>
      <trkpt lat="37.394958000" lon="-5.562716000">
        <ele>98.2</ele>
        <time>2020-10-16T15:12:17Z</time>
      </trkpt>
      <trkpt lat="37.395018000" lon="-5.562788000">
        <ele>98.5</ele>
        <time>2020-10-16T15:12:19Z</time>
      </trkpt>
      <trkpt lat="37.395104000" lon="-5.562887000">
        <ele>98.6</ele>
        <time>2020-10-16T15:12:22Z</time>
      </trkpt>
      <trkpt lat="37.395164000" lon="-5.562959000">
        <ele>98.8</ele>
        <time>2020-10-16T15:12:24Z</time>
      </trkpt>
      <trkpt lat="37.395226000" lon="-5.563034000">
        <ele>98.9</ele>
        <time>2020-10-16T15:12:26Z</time>
      </trkpt>
      <trkpt lat="37.395291000" lon="-5.563108000">
        <ele>99.0</ele>
        <time>2020-10-16T15:12:28Z</time>
      </trkpt>
      <trkpt lat="37.395359000" lon="-5.563182000">
        <ele>98.9</ele>
        <time>2020-10-16T15:12:30Z</time>
      </trkpt>
      <trkpt lat="37.395428000" lon="-5.563267000">
        <ele>98.8</ele>
        <time>2020-10-16T15:12:32Z</time>
      </trkpt>
      <trkpt lat="37.395496000" lon="-5.563347000">
        <ele>98.7</ele>
        <time>2020-10-16T15:12:34Z</time>
      </trkpt>
      <trkpt lat="37.395567000" lon="-5.563420000">
        <ele>98.5</ele>
        <time>2020-10-16T15:12:36Z</time>
      </trkpt>
      <trkpt lat="37.395633000" lon="-5.563496000">
        <ele>98.4</ele>
        <time>2020-10-16T15:12:38Z</time>
      </trkpt>
      <trkpt lat="37.395698000" lon="-5.563574000">
        <ele>98.2</ele>
        <time>2020-10-16T15:12:40Z</time>
      </trkpt>
      <trkpt lat="37.395766000" lon="-5.563657000">
        <ele>97.9</ele>
        <time>2020-10-16T15:12:42Z</time>
      </trkpt>
      <trkpt lat="37.395831000" lon="-5.563734000">
        <ele>97.6</ele>
        <time>2020-10-16T15:12:44Z</time>
      </trkpt>
      <trkpt lat="37.395899000" lon="-5.563807000">
        <ele>97.4</ele>
        <time>2020-10-16T15:12:46Z</time>
      </trkpt>
      <trkpt lat="37.395964000" lon="-5.563882000">
        <ele>97.2</ele>
        <time>2020-10-16T15:12:48Z</time>
      </trkpt>
      <trkpt lat="37.396026000" lon="-5.563949000">
        <ele>97.0</ele>
        <time>2020-10-16T15:12:50Z</time>
      </trkpt>
      <trkpt lat="37.396088000" lon="-5.564027000">
        <ele>96.9</ele>
        <time>2020-10-16T15:12:52Z</time>
      </trkpt>
      <trkpt lat="37.396148000" lon="-5.564099000">
        <ele>96.9</ele>
        <time>2020-10-16T15:12:54Z</time>
      </trkpt>
      <trkpt lat="37.396234000" lon="-5.564197000">
        <ele>96.9</ele>
        <time>2020-10-16T15:12:57Z</time>
      </trkpt>
      <trkpt lat="37.396321000" lon="-5.564295000">
        <ele>97.0</ele>
        <time>2020-10-16T15:13:00Z</time>
      </trkpt>
      <trkpt lat="37.396406000" lon="-5.564396000">
        <ele>97.2</ele>
        <time>2020-10-16T15:13:03Z</time>
      </trkpt>
      <trkpt lat="37.396495000" lon="-5.564490000">
        <ele>97.4</ele>
        <time>2020-10-16T15:13:06Z</time>
      </trkpt>
      <trkpt lat="37.396580000" lon="-5.564591000">
        <ele>97.7</ele>
        <time>2020-10-16T15:13:09Z</time>
      </trkpt>
      <trkpt lat="37.396643000" lon="-5.564656000">
        <ele>98.1</ele>
        <time>2020-10-16T15:13:11Z</time>
      </trkpt>
      <trkpt lat="37.396704000" lon="-5.564724000">
        <ele>98.5</ele>
        <time>2020-10-16T15:13:13Z</time>
      </trkpt>
      <trkpt lat="37.396787000" lon="-5.564817000">
        <ele>98.9</ele>
        <time>2020-10-16T15:13:16Z</time>
      </trkpt>
      <trkpt lat="37.396866000" lon="-5.564909000">
        <ele>99.3</ele>
        <time>2020-10-16T15:13:19Z</time>
      </trkpt>
      <trkpt lat="37.396954000" lon="-5.564999000">
        <ele>99.6</ele>
        <time>2020-10-16T15:13:22Z</time>
      </trkpt>
      <trkpt lat="37.397024000" lon="-5.565082000">
        <ele>99.9</ele>
        <time>2020-10-16T15:13:25Z</time>
      </trkpt>
      <trkpt lat="37.397097000" lon="-5.565169000">
        <ele>100.2</ele>
        <time>2020-10-16T15:13:28Z</time>
      </trkpt>
      <trkpt lat="37.397170000" lon="-5.565261000">
        <ele>100.5</ele>
        <time>2020-10-16T15:13:31Z</time>
      </trkpt>
      <trkpt lat="37.397245000" lon="-5.565350000">
        <ele>100.6</ele>
        <time>2020-10-16T15:13:34Z</time>
      </trkpt>
      <trkpt lat="37.397315000" lon="-5.565442000">
        <ele>100.9</ele>
        <time>2020-10-16T15:13:37Z</time>
      </trkpt>
      <trkpt lat="37.397386000" lon="-5.565534000">
        <ele>101.1</ele>
        <time>2020-10-16T15:13:40Z</time>
      </trkpt>
      <trkpt lat="37.397447000" lon="-5.565634000">
        <ele>101.3</ele>
        <time>2020-10-16T15:13:43Z</time>
      </trkpt>
      <trkpt lat="37.397503000" lon="-5.565751000">
        <ele>101.4</ele>
        <time>2020-10-16T15:13:46Z</time>
      </trkpt>
      <trkpt lat="37.397551000" lon="-5.565835000">
        <ele>101.5</ele>
        <time>2020-10-16T15:13:48Z</time>
      </trkpt>
      <trkpt lat="37.397604000" lon="-5.565922000">
        <ele>101.5</ele>
        <time>2020-10-16T15:13:50Z</time>
      </trkpt>
      <trkpt lat="37.397661000" lon="-5.566012000">
        <ele>101.5</ele>
        <time>2020-10-16T15:13:52Z</time>
      </trkpt>
      <trkpt lat="37.397717000" lon="-5.566104000">
        <ele>101.5</ele>
        <time>2020-10-16T15:13:54Z</time>
      </trkpt>
      <trkpt lat="37.397768000" lon="-5.566198000">
        <ele>101.5</ele>
        <time>2020-10-16T15:13:56Z</time>
      </trkpt>
      <trkpt lat="37.397825000" lon="-5.566304000">
        <ele>101.5</ele>
        <time>2020-10-16T15:13:58Z</time>
      </trkpt>
      <trkpt lat="37.397884000" lon="-5.566398000">
        <ele>101.4</ele>
        <time>2020-10-16T15:14:00Z</time>
      </trkpt>
      <trkpt lat="37.397948000" lon="-5.566495000">
        <ele>101.1</ele>
        <time>2020-10-16T15:14:02Z</time>
      </trkpt>
      <trkpt lat="37.398006000" lon="-5.566599000">
        <ele>100.7</ele>
        <time>2020-10-16T15:14:04Z</time>
      </trkpt>
      <trkpt lat="37.398064000" lon="-5.566704000">
        <ele>100.4</ele>
        <time>2020-10-16T15:14:06Z</time>
      </trkpt>
      <trkpt lat="37.398120000" lon="-5.566811000">
        <ele>100.0</ele>
        <time>2020-10-16T15:14:08Z</time>
      </trkpt>
      <trkpt lat="37.398174000" lon="-5.566921000">
        <ele>99.6</ele>
        <time>2020-10-16T15:14:10Z</time>
      </trkpt>
      <trkpt lat="37.398223000" lon="-5.567037000">
        <ele>99.2</ele>
        <time>2020-10-16T15:14:12Z</time>
      </trkpt>
      <trkpt lat="37.398280000" lon="-5.567148000">
        <ele>98.8</ele>
        <time>2020-10-16T15:14:14Z</time>
      </trkpt>
      <trkpt lat="37.398340000" lon="-5.567253000">
        <ele>98.5</ele>
        <time>2020-10-16T15:14:16Z</time>
      </trkpt>
      <trkpt lat="37.398402000" lon="-5.567365000">
        <ele>98.1</ele>
        <time>2020-10-16T15:14:18Z</time>
      </trkpt>
      <trkpt lat="37.398459000" lon="-5.567467000">
        <ele>97.7</ele>
        <time>2020-10-16T15:14:20Z</time>
      </trkpt>
      <trkpt lat="37.398519000" lon="-5.567565000">
        <ele>97.4</ele>
        <time>2020-10-16T15:14:22Z</time>
      </trkpt>
      <trkpt lat="37.398578000" lon="-5.567654000">
        <ele>97.1</ele>
        <time>2020-10-16T15:14:24Z</time>
      </trkpt>
      <trkpt lat="37.398635000" lon="-5.567733000">
        <ele>97.0</ele>
        <time>2020-10-16T15:14:26Z</time>
      </trkpt>
      <trkpt lat="37.398697000" lon="-5.567811000">
        <ele>96.9</ele>
        <time>2020-10-16T15:14:28Z</time>
      </trkpt>
      <trkpt lat="37.398770000" lon="-5.567926000">
        <ele>96.8</ele>
        <time>2020-10-16T15:14:31Z</time>
      </trkpt>
      <trkpt lat="37.398826000" lon="-5.568013000">
        <ele>96.7</ele>
        <time>2020-10-16T15:14:33Z</time>
      </trkpt>
      <trkpt lat="37.398873000" lon="-5.568119000">
        <ele>96.8</ele>
        <time>2020-10-16T15:14:35Z</time>
      </trkpt>
      <trkpt lat="37.398897000" lon="-5.568227000">
        <ele>96.9</ele>
        <time>2020-10-16T15:14:37Z</time>
      </trkpt>
      <trkpt lat="37.398927000" lon="-5.568322000">
        <ele>97.0</ele>
        <time>2020-10-16T15:14:39Z</time>
      </trkpt>
      <trkpt lat="37.398965000" lon="-5.568415000">
        <ele>97.2</ele>
        <time>2020-10-16T15:14:41Z</time>
      </trkpt>
      <trkpt lat="37.399023000" lon="-5.568547000">
        <ele>97.5</ele>
        <time>2020-10-16T15:14:44Z</time>
      </trkpt>
      <trkpt lat="37.399063000" lon="-5.568636000">
        <ele>97.8</ele>
        <time>2020-10-16T15:14:46Z</time>
      </trkpt>
      <trkpt lat="37.399116000" lon="-5.568772000">
        <ele>98.2</ele>
        <time>2020-10-16T15:14:49Z</time>
      </trkpt>
      <trkpt lat="37.399152000" lon="-5.568865000">
        <ele>98.5</ele>
        <time>2020-10-16T15:14:51Z</time>
      </trkpt>
      <trkpt lat="37.399191000" lon="-5.568958000">
        <ele>98.7</ele>
        <time>2020-10-16T15:14:53Z</time>
      </trkpt>
      <trkpt lat="37.399235000" lon="-5.569050000">
        <ele>99.0</ele>
        <time>2020-10-16T15:14:55Z</time>
      </trkpt>
      <trkpt lat="37.399279000" lon="-5.569140000">
        <ele>99.2</ele>
        <time>2020-10-16T15:14:57Z</time>
      </trkpt>
      <trkpt lat="37.399343000" lon="-5.569258000">
        <ele>99.3</ele>
        <time>2020-10-16T15:15:00Z</time>
      </trkpt>
      <trkpt lat="37.399398000" lon="-5.569362000">
        <ele>99.4</ele>
        <time>2020-10-16T15:15:03Z</time>
      </trkpt>
      <trkpt lat="37.399451000" lon="-5.569465000">
        <ele>99.5</ele>
        <time>2020-10-16T15:15:06Z</time>
      </trkpt>
      <trkpt lat="37.399503000" lon="-5.569550000">
        <ele>99.5</ele>
        <time>2020-10-16T15:15:09Z</time>
      </trkpt>
      <trkpt lat="37.399560000" lon="-5.569653000">
        <ele>99.5</ele>
        <time>2020-10-16T15:15:13Z</time>
      </trkpt>
      <trkpt lat="37.399609000" lon="-5.569764000">
        <ele>99.4</ele>
        <time>2020-10-16T15:15:17Z</time>
      </trkpt>
      <trkpt lat="37.399653000" lon="-5.569878000">
        <ele>99.2</ele>
        <time>2020-10-16T15:15:21Z</time>
      </trkpt>
      <trkpt lat="37.399676000" lon="-5.569993000">
        <ele>99.0</ele>
        <time>2020-10-16T15:15:25Z</time>
      </trkpt>
      <trkpt lat="37.399690000" lon="-5.570100000">
        <ele>98.8</ele>
        <time>2020-10-16T15:15:29Z</time>
      </trkpt>
      <trkpt lat="37.399707000" lon="-5.570210000">
        <ele>98.6</ele>
        <time>2020-10-16T15:15:32Z</time>
      </trkpt>
      <trkpt lat="37.399729000" lon="-5.570322000">
        <ele>98.5</ele>
        <time>2020-10-16T15:15:35Z</time>
      </trkpt>
      <trkpt lat="37.399758000" lon="-5.570452000">
        <ele>98.5</ele>
        <time>2020-10-16T15:15:38Z</time>
      </trkpt>
      <trkpt lat="37.399806000" lon="-5.570580000">
        <ele>98.5</ele>
        <time>2020-10-16T15:15:41Z</time>
      </trkpt>
      <trkpt lat="37.399871000" lon="-5.570685000">
        <ele>98.5</ele>
        <time>2020-10-16T15:15:44Z</time>
      </trkpt>
      <trkpt lat="37.399947000" lon="-5.570765000">
        <ele>98.4</ele>
        <time>2020-10-16T15:15:47Z</time>
      </trkpt>
      <trkpt lat="37.400030000" lon="-5.570842000">
        <ele>98.4</ele>
        <time>2020-10-16T15:15:50Z</time>
      </trkpt>
      <trkpt lat="37.400104000" lon="-5.570927000">
        <ele>98.3</ele>
        <time>2020-10-16T15:15:53Z</time>
      </trkpt>
      <trkpt lat="37.400158000" lon="-5.571027000">
        <ele>98.3</ele>
        <time>2020-10-16T15:15:57Z</time>
      </trkpt>
      <trkpt lat="37.400201000" lon="-5.571126000">
        <ele>98.3</ele>
        <time>2020-10-16T15:16:45Z</time>
      </trkpt>
      <trkpt lat="37.400289000" lon="-5.571280000">
        <ele>98.3</ele>
        <time>2020-10-16T15:16:47Z</time>
      </trkpt>
      <trkpt lat="37.400349000" lon="-5.571378000">
        <ele>98.3</ele>
        <time>2020-10-16T15:16:48Z</time>
      </trkpt>
      <trkpt lat="37.400415000" lon="-5.571485000">
        <ele>98.3</ele>
        <time>2020-10-16T15:16:50Z</time>
      </trkpt>
      <trkpt lat="37.400492000" lon="-5.571602000">
        <ele>98.2</ele>
        <time>2020-10-16T15:16:53Z</time>
      </trkpt>
      <trkpt lat="37.400558000" lon="-5.571709000">
        <ele>98.0</ele>
        <time>2020-10-16T15:16:56Z</time>
      </trkpt>
      <trkpt lat="37.400609000" lon="-5.571788000">
        <ele>97.9</ele>
        <time>2020-10-16T15:17:36Z</time>
      </trkpt>
      <trkpt lat="37.400670000" lon="-5.571878000">
        <ele>97.7</ele>
        <time>2020-10-16T15:17:40Z</time>
      </trkpt>
      <trkpt lat="37.400726000" lon="-5.571976000">
        <ele>97.5</ele>
        <time>2020-10-16T15:18:05Z</time>
      </trkpt>
      <trkpt lat="37.400781000" lon="-5.572094000">
        <ele>97.3</ele>
        <time>2020-10-16T15:18:06Z</time>
      </trkpt>
      <trkpt lat="37.400848000" lon="-5.572206000">
        <ele>97.0</ele>
        <time>2020-10-16T15:18:06Z</time>
      </trkpt>
      <trkpt lat="37.401003000" lon="-5.572374000">
        <ele>96.7</ele>
        <time>2020-10-16T15:18:07Z</time>
      </trkpt>
      <trkpt lat="37.401155000" lon="-5.572474000">
        <ele>96.5</ele>
        <time>2020-10-16T15:18:08Z</time>
      </trkpt>
      <trkpt lat="37.401263000" lon="-5.572506000">
        <ele>96.2</ele>
        <time>2020-10-16T15:18:08Z</time>
      </trkpt>
      <trkpt lat="37.401394000" lon="-5.572555000">
        <ele>95.9</ele>
        <time>2020-10-16T15:18:09Z</time>
      </trkpt>
      <trkpt lat="37.401482000" lon="-5.572583000">
        <ele>95.6</ele>
        <time>2020-10-16T15:18:12Z</time>
      </trkpt>
      <trkpt lat="37.401578000" lon="-5.572598000">
        <ele>95.5</ele>
        <time>2020-10-16T15:18:15Z</time>
      </trkpt>
      <trkpt lat="37.401679000" lon="-5.572610000">
        <ele>95.3</ele>
        <time>2020-10-16T15:18:18Z</time>
      </trkpt>
      <trkpt lat="37.401760000" lon="-5.572619000">
        <ele>95.1</ele>
        <time>2020-10-16T15:18:20Z</time>
      </trkpt>
      <trkpt lat="37.401872000" lon="-5.572630000">
        <ele>94.9</ele>
        <time>2020-10-16T15:18:22Z</time>
      </trkpt>
      <trkpt lat="37.401982000" lon="-5.572633000">
        <ele>94.8</ele>
        <time>2020-10-16T15:18:24Z</time>
      </trkpt>
      <trkpt lat="37.402088000" lon="-5.572636000">
        <ele>94.8</ele>
        <time>2020-10-16T15:18:26Z</time>
      </trkpt>
      <trkpt lat="37.402201000" lon="-5.572645000">
        <ele>94.8</ele>
        <time>2020-10-16T15:18:28Z</time>
      </trkpt>
      <trkpt lat="37.402525000" lon="-5.572761000">
        <ele>94.9</ele>
        <time>2020-10-16T15:18:30Z</time>
      </trkpt>
      <trkpt lat="37.402615000" lon="-5.572709000">
        <ele>95.0</ele>
        <time>2020-10-16T15:18:33Z</time>
      </trkpt>
      <trkpt lat="37.402695000" lon="-5.572637000">
        <ele>95.1</ele>
        <time>2020-10-16T15:18:36Z</time>
      </trkpt>
      <trkpt lat="37.402773000" lon="-5.572553000">
        <ele>95.1</ele>
        <time>2020-10-16T15:18:39Z</time>
      </trkpt>
      <trkpt lat="37.402865000" lon="-5.572491000">
        <ele>95.1</ele>
        <time>2020-10-16T15:18:42Z</time>
      </trkpt>
      <trkpt lat="37.402968000" lon="-5.572476000">
        <ele>95.0</ele>
        <time>2020-10-16T15:18:45Z</time>
      </trkpt>
      <trkpt lat="37.403051000" lon="-5.572546000">
        <ele>95.0</ele>
        <time>2020-10-16T15:18:48Z</time>
      </trkpt>
      <trkpt lat="37.403061000" lon="-5.572652000">
        <ele>95.0</ele>
        <time>2020-10-16T15:18:51Z</time>
      </trkpt>
      <trkpt lat="37.403051000" lon="-5.572766000">
        <ele>94.9</ele>
        <time>2020-10-16T15:18:54Z</time>
      </trkpt>
      <trkpt lat="37.403036000" lon="-5.572878000">
        <ele>94.7</ele>
        <time>2020-10-16T15:18:57Z</time>
      </trkpt>
      <trkpt lat="37.403039000" lon="-5.572995000">
        <ele>94.5</ele>
        <time>2020-10-16T15:19:00Z</time>
      </trkpt>
      <trkpt lat="37.403082000" lon="-5.573103000">
        <ele>94.3</ele>
        <time>2020-10-16T15:19:04Z</time>
      </trkpt>
      <trkpt lat="37.403155000" lon="-5.573171000">
        <ele>94.0</ele>
        <time>2020-10-16T15:22:49Z</time>
      </trkpt>
      <trkpt lat="37.403226000" lon="-5.573222000">
        <ele>93.7</ele>
        <time>2020-10-16T15:22:52Z</time>
      </trkpt>
      <trkpt lat="37.403311000" lon="-5.573314000">
        <ele>93.5</ele>
        <time>2020-10-16T15:22:55Z</time>
      </trkpt>
      <trkpt lat="37.403380000" lon="-5.573380000">
        <ele>93.4</ele>
        <time>2020-10-16T15:22:58Z</time>
      </trkpt>
      <trkpt lat="37.403450000" lon="-5.573464000">
        <ele>93.3</ele>
        <time>2020-10-16T15:22:59Z</time>
      </trkpt>
      <trkpt lat="37.403517000" lon="-5.573552000">
        <ele>93.2</ele>
        <time>2020-10-16T15:23:01Z</time>
      </trkpt>
      <trkpt lat="37.403571000" lon="-5.573642000">
        <ele>93.1</ele>
        <time>2020-10-16T15:23:03Z</time>
      </trkpt>
      <trkpt lat="37.403621000" lon="-5.573731000">
        <ele>93.0</ele>
        <time>2020-10-16T15:23:05Z</time>
      </trkpt>
      <trkpt lat="37.403672000" lon="-5.573825000">
        <ele>93.0</ele>
        <time>2020-10-16T15:23:07Z</time>
      </trkpt>
      <trkpt lat="37.403721000" lon="-5.573909000">
        <ele>93.0</ele>
        <time>2020-10-16T15:23:09Z</time>
      </trkpt>
      <trkpt lat="37.403778000" lon="-5.573987000">
        <ele>93.1</ele>
        <time>2020-10-16T15:23:11Z</time>
      </trkpt>
      <trkpt lat="37.403835000" lon="-5.574076000">
        <ele>93.2</ele>
        <time>2020-10-16T15:23:13Z</time>
      </trkpt>
      <trkpt lat="37.403897000" lon="-5.574196000">
        <ele>93.4</ele>
        <time>2020-10-16T15:23:16Z</time>
      </trkpt>
      <trkpt lat="37.403950000" lon="-5.574287000">
        <ele>93.5</ele>
        <time>2020-10-16T15:23:19Z</time>
      </trkpt>
      <trkpt lat="37.404004000" lon="-5.574388000">
        <ele>93.5</ele>
        <time>2020-10-16T15:23:23Z</time>
      </trkpt>
      <trkpt lat="37.404053000" lon="-5.574486000">
        <ele>93.5</ele>
        <time>2020-10-16T15:23:26Z</time>
      </trkpt>
      <trkpt lat="37.404110000" lon="-5.574577000">
        <ele>93.5</ele>
        <time>2020-10-16T15:23:29Z</time>
      </trkpt>
      <trkpt lat="37.404170000" lon="-5.574678000">
        <ele>93.5</ele>
        <time>2020-10-16T15:23:32Z</time>
      </trkpt>
      <trkpt lat="37.404233000" lon="-5.574798000">
        <ele>93.3</ele>
        <time>2020-10-16T15:23:35Z</time>
      </trkpt>
      <trkpt lat="37.404278000" lon="-5.574883000">
        <ele>93.0</ele>
        <time>2020-10-16T15:23:37Z</time>
      </trkpt>
      <trkpt lat="37.404327000" lon="-5.574966000">
        <ele>92.6</ele>
        <time>2020-10-16T15:23:39Z</time>
      </trkpt>
      <trkpt lat="37.404396000" lon="-5.575035000">
        <ele>92.1</ele>
        <time>2020-10-16T15:23:41Z</time>
      </trkpt>
      <trkpt lat="37.404471000" lon="-5.575106000">
        <ele>91.5</ele>
        <time>2020-10-16T15:23:43Z</time>
      </trkpt>
      <trkpt lat="37.404550000" lon="-5.575181000">
        <ele>90.8</ele>
        <time>2020-10-16T15:23:45Z</time>
      </trkpt>
      <trkpt lat="37.404629000" lon="-5.575258000">
        <ele>90.2</ele>
        <time>2020-10-16T15:23:47Z</time>
      </trkpt>
      <trkpt lat="37.404711000" lon="-5.575336000">
        <ele>89.5</ele>
        <time>2020-10-16T15:23:49Z</time>
      </trkpt>
      <trkpt lat="37.404795000" lon="-5.575409000">
        <ele>89.1</ele>
        <time>2020-10-16T15:23:51Z</time>
      </trkpt>
      <trkpt lat="37.404884000" lon="-5.575490000">
        <ele>88.5</ele>
        <time>2020-10-16T15:23:53Z</time>
      </trkpt>
      <trkpt lat="37.404971000" lon="-5.575570000">
        <ele>88.1</ele>
        <time>2020-10-16T15:23:55Z</time>
      </trkpt>
      <trkpt lat="37.405063000" lon="-5.575655000">
        <ele>87.7</ele>
        <time>2020-10-16T15:23:57Z</time>
      </trkpt>
      <trkpt lat="37.405146000" lon="-5.575741000">
        <ele>87.5</ele>
        <time>2020-10-16T15:23:59Z</time>
      </trkpt>
      <trkpt lat="37.405226000" lon="-5.575823000">
        <ele>87.3</ele>
        <time>2020-10-16T15:24:01Z</time>
      </trkpt>
      <trkpt lat="37.405308000" lon="-5.575909000">
        <ele>87.3</ele>
        <time>2020-10-16T15:24:03Z</time>
      </trkpt>
      <trkpt lat="37.405382000" lon="-5.575973000">
        <ele>87.3</ele>
        <time>2020-10-16T15:24:05Z</time>
      </trkpt>
      <trkpt lat="37.405456000" lon="-5.576040000">
        <ele>87.4</ele>
        <time>2020-10-16T15:24:07Z</time>
      </trkpt>
      <trkpt lat="37.405537000" lon="-5.576129000">
        <ele>87.5</ele>
        <time>2020-10-16T15:24:09Z</time>
      </trkpt>
      <trkpt lat="37.405625000" lon="-5.576205000">
        <ele>87.5</ele>
        <time>2020-10-16T15:24:11Z</time>
      </trkpt>
      <trkpt lat="37.405711000" lon="-5.576282000">
        <ele>87.5</ele>
        <time>2020-10-16T15:24:13Z</time>
      </trkpt>
      <trkpt lat="37.405795000" lon="-5.576366000">
        <ele>87.6</ele>
        <time>2020-10-16T15:24:15Z</time>
      </trkpt>
      <trkpt lat="37.405881000" lon="-5.576444000">
        <ele>87.6</ele>
        <time>2020-10-16T15:24:17Z</time>
      </trkpt>
      <trkpt lat="37.405965000" lon="-5.576524000">
        <ele>87.6</ele>
        <time>2020-10-16T15:24:19Z</time>
      </trkpt>
      <trkpt lat="37.406046000" lon="-5.576603000">
        <ele>87.6</ele>
        <time>2020-10-16T15:24:21Z</time>
      </trkpt>
      <trkpt lat="37.406127000" lon="-5.576687000">
        <ele>87.6</ele>
        <time>2020-10-16T15:24:23Z</time>
      </trkpt>
      <trkpt lat="37.406210000" lon="-5.576770000">
        <ele>87.5</ele>
        <time>2020-10-16T15:24:25Z</time>
      </trkpt>
      <trkpt lat="37.406287000" lon="-5.576848000">
        <ele>87.3</ele>
        <time>2020-10-16T15:24:27Z</time>
      </trkpt>
      <trkpt lat="37.406365000" lon="-5.576931000">
        <ele>87.0</ele>
        <time>2020-10-16T15:24:29Z</time>
      </trkpt>
      <trkpt lat="37.406446000" lon="-5.577015000">
        <ele>86.7</ele>
        <time>2020-10-16T15:24:31Z</time>
      </trkpt>
      <trkpt lat="37.406527000" lon="-5.577097000">
        <ele>86.4</ele>
        <time>2020-10-16T15:24:33Z</time>
      </trkpt>
      <trkpt lat="37.406614000" lon="-5.577178000">
        <ele>85.9</ele>
        <time>2020-10-16T15:24:35Z</time>
      </trkpt>
      <trkpt lat="37.406707000" lon="-5.577262000">
        <ele>85.5</ele>
        <time>2020-10-16T15:24:37Z</time>
      </trkpt>
      <trkpt lat="37.406791000" lon="-5.577344000">
        <ele>85.0</ele>
        <time>2020-10-16T15:24:39Z</time>
      </trkpt>
      <trkpt lat="37.406885000" lon="-5.577431000">
        <ele>84.5</ele>
        <time>2020-10-16T15:24:41Z</time>
      </trkpt>
      <trkpt lat="37.406984000" lon="-5.577512000">
        <ele>83.9</ele>
        <time>2020-10-16T15:24:43Z</time>
      </trkpt>
      <trkpt lat="37.407085000" lon="-5.577600000">
        <ele>83.3</ele>
        <time>2020-10-16T15:24:45Z</time>
      </trkpt>
      <trkpt lat="37.407189000" lon="-5.577682000">
        <ele>82.6</ele>
        <time>2020-10-16T15:24:47Z</time>
      </trkpt>
      <trkpt lat="37.407291000" lon="-5.577760000">
        <ele>82.0</ele>
        <time>2020-10-16T15:24:49Z</time>
      </trkpt>
      <trkpt lat="37.407390000" lon="-5.577837000">
        <ele>81.4</ele>
        <time>2020-10-16T15:24:51Z</time>
      </trkpt>
      <trkpt lat="37.407495000" lon="-5.577915000">
        <ele>80.7</ele>
        <time>2020-10-16T15:24:53Z</time>
      </trkpt>
      <trkpt lat="37.407594000" lon="-5.577995000">
        <ele>80.2</ele>
        <time>2020-10-16T15:24:55Z</time>
      </trkpt>
      <trkpt lat="37.407696000" lon="-5.578078000">
        <ele>79.7</ele>
        <time>2020-10-16T15:24:57Z</time>
      </trkpt>
      <trkpt lat="37.407794000" lon="-5.578161000">
        <ele>79.3</ele>
        <time>2020-10-16T15:24:59Z</time>
      </trkpt>
      <trkpt lat="37.407892000" lon="-5.578241000">
        <ele>78.9</ele>
        <time>2020-10-16T15:25:01Z</time>
      </trkpt>
      <trkpt lat="37.407982000" lon="-5.578319000">
        <ele>78.6</ele>
        <time>2020-10-16T15:25:03Z</time>
      </trkpt>
      <trkpt lat="37.408072000" lon="-5.578385000">
        <ele>78.4</ele>
        <time>2020-10-16T15:25:05Z</time>
      </trkpt>
      <trkpt lat="37.408161000" lon="-5.578456000">
        <ele>78.2</ele>
        <time>2020-10-16T15:25:07Z</time>
      </trkpt>
      <trkpt lat="37.408251000" lon="-5.578525000">
        <ele>78.1</ele>
        <time>2020-10-16T15:25:09Z</time>
      </trkpt>
      <trkpt lat="37.408343000" lon="-5.578590000">
        <ele>78.1</ele>
        <time>2020-10-16T15:25:11Z</time>
      </trkpt>
      <trkpt lat="37.408436000" lon="-5.578656000">
        <ele>78.2</ele>
        <time>2020-10-16T15:25:13Z</time>
      </trkpt>
      <trkpt lat="37.408530000" lon="-5.578728000">
        <ele>78.3</ele>
        <time>2020-10-16T15:25:15Z</time>
      </trkpt>
      <trkpt lat="37.408623000" lon="-5.578792000">
        <ele>78.4</ele>
        <time>2020-10-16T15:25:17Z</time>
      </trkpt>
      <trkpt lat="37.408720000" lon="-5.578866000">
        <ele>78.5</ele>
        <time>2020-10-16T15:25:19Z</time>
      </trkpt>
      <trkpt lat="37.408815000" lon="-5.578949000">
        <ele>78.5</ele>
        <time>2020-10-16T15:25:21Z</time>
      </trkpt>
      <trkpt lat="37.408905000" lon="-5.579042000">
        <ele>78.6</ele>
        <time>2020-10-16T15:25:23Z</time>
      </trkpt>
      <trkpt lat="37.408991000" lon="-5.579123000">
        <ele>78.6</ele>
        <time>2020-10-16T15:25:25Z</time>
      </trkpt>
      <trkpt lat="37.409071000" lon="-5.579199000">
        <ele>78.6</ele>
        <time>2020-10-16T15:25:27Z</time>
      </trkpt>
      <trkpt lat="37.409153000" lon="-5.579276000">
        <ele>78.6</ele>
        <time>2020-10-16T15:25:29Z</time>
      </trkpt>
      <trkpt lat="37.409230000" lon="-5.579355000">
        <ele>78.6</ele>
        <time>2020-10-16T15:25:31Z</time>
      </trkpt>
      <trkpt lat="37.409314000" lon="-5.579433000">
        <ele>78.5</ele>
        <time>2020-10-16T15:25:33Z</time>
      </trkpt>
      <trkpt lat="37.409395000" lon="-5.579510000">
        <ele>78.5</ele>
        <time>2020-10-16T15:25:35Z</time>
      </trkpt>
      <trkpt lat="37.409478000" lon="-5.579586000">
        <ele>78.3</ele>
        <time>2020-10-16T15:25:37Z</time>
      </trkpt>
      <trkpt lat="37.409557000" lon="-5.579664000">
        <ele>78.1</ele>
        <time>2020-10-16T15:25:39Z</time>
      </trkpt>
      <trkpt lat="37.409635000" lon="-5.579740000">
        <ele>77.9</ele>
        <time>2020-10-16T15:25:41Z</time>
      </trkpt>
      <trkpt lat="37.409714000" lon="-5.579815000">
        <ele>77.6</ele>
        <time>2020-10-16T15:25:43Z</time>
      </trkpt>
      <trkpt lat="37.409795000" lon="-5.579885000">
        <ele>77.3</ele>
        <time>2020-10-16T15:25:45Z</time>
      </trkpt>
      <trkpt lat="37.409876000" lon="-5.579951000">
        <ele>77.0</ele>
        <time>2020-10-16T15:25:47Z</time>
      </trkpt>
      <trkpt lat="37.409959000" lon="-5.580017000">
        <ele>76.7</ele>
        <time>2020-10-16T15:25:49Z</time>
      </trkpt>
      <trkpt lat="37.410041000" lon="-5.580089000">
        <ele>76.4</ele>
        <time>2020-10-16T15:25:51Z</time>
      </trkpt>
      <trkpt lat="37.410124000" lon="-5.580142000">
        <ele>76.0</ele>
        <time>2020-10-16T15:25:53Z</time>
      </trkpt>
      <trkpt lat="37.410211000" lon="-5.580194000">
        <ele>75.6</ele>
        <time>2020-10-16T15:25:55Z</time>
      </trkpt>
      <trkpt lat="37.410287000" lon="-5.580268000">
        <ele>75.3</ele>
        <time>2020-10-16T15:25:57Z</time>
      </trkpt>
      <trkpt lat="37.410344000" lon="-5.580346000">
        <ele>74.9</ele>
        <time>2020-10-16T15:25:59Z</time>
      </trkpt>
      <trkpt lat="37.410422000" lon="-5.580429000">
        <ele>74.5</ele>
        <time>2020-10-16T15:26:01Z</time>
      </trkpt>
      <trkpt lat="37.410498000" lon="-5.580509000">
        <ele>74.2</ele>
        <time>2020-10-16T15:26:03Z</time>
      </trkpt>
      <trkpt lat="37.410582000" lon="-5.580575000">
        <ele>73.8</ele>
        <time>2020-10-16T15:26:05Z</time>
      </trkpt>
      <trkpt lat="37.410671000" lon="-5.580635000">
        <ele>73.5</ele>
        <time>2020-10-16T15:26:07Z</time>
      </trkpt>
      <trkpt lat="37.410762000" lon="-5.580688000">
        <ele>73.3</ele>
        <time>2020-10-16T15:26:09Z</time>
      </trkpt>
      <trkpt lat="37.410857000" lon="-5.580741000">
        <ele>72.9</ele>
        <time>2020-10-16T15:26:11Z</time>
      </trkpt>
      <trkpt lat="37.410946000" lon="-5.580800000">
        <ele>72.6</ele>
        <time>2020-10-16T15:26:13Z</time>
      </trkpt>
      <trkpt lat="37.411032000" lon="-5.580859000">
        <ele>72.5</ele>
        <time>2020-10-16T15:26:15Z</time>
      </trkpt>
      <trkpt lat="37.411114000" lon="-5.580930000">
        <ele>72.3</ele>
        <time>2020-10-16T15:26:17Z</time>
      </trkpt>
      <trkpt lat="37.411202000" lon="-5.581007000">
        <ele>72.1</ele>
        <time>2020-10-16T15:26:19Z</time>
      </trkpt>
      <trkpt lat="37.411281000" lon="-5.581099000">
        <ele>72.0</ele>
        <time>2020-10-16T15:26:21Z</time>
      </trkpt>
      <trkpt lat="37.411361000" lon="-5.581192000">
        <ele>71.9</ele>
        <time>2020-10-16T15:26:23Z</time>
      </trkpt>
      <trkpt lat="37.411445000" lon="-5.581292000">
        <ele>71.8</ele>
        <time>2020-10-16T15:26:25Z</time>
      </trkpt>
      <trkpt lat="37.411523000" lon="-5.581390000">
        <ele>71.8</ele>
        <time>2020-10-16T15:26:27Z</time>
      </trkpt>
      <trkpt lat="37.411608000" lon="-5.581479000">
        <ele>71.8</ele>
        <time>2020-10-16T15:26:29Z</time>
      </trkpt>
      <trkpt lat="37.411687000" lon="-5.581563000">
        <ele>71.8</ele>
        <time>2020-10-16T15:26:31Z</time>
      </trkpt>
      <trkpt lat="37.411761000" lon="-5.581649000">
        <ele>71.9</ele>
        <time>2020-10-16T15:26:33Z</time>
      </trkpt>
      <trkpt lat="37.411833000" lon="-5.581738000">
        <ele>72.0</ele>
        <time>2020-10-16T15:26:35Z</time>
      </trkpt>
      <trkpt lat="37.411901000" lon="-5.581834000">
        <ele>72.0</ele>
        <time>2020-10-16T15:26:37Z</time>
      </trkpt>
      <trkpt lat="37.411959000" lon="-5.581925000">
        <ele>71.9</ele>
        <time>2020-10-16T15:26:39Z</time>
      </trkpt>
      <trkpt lat="37.412013000" lon="-5.582017000">
        <ele>71.7</ele>
        <time>2020-10-16T15:26:41Z</time>
      </trkpt>
      <trkpt lat="37.412068000" lon="-5.582110000">
        <ele>71.5</ele>
        <time>2020-10-16T15:26:43Z</time>
      </trkpt>
      <trkpt lat="37.412119000" lon="-5.582195000">
        <ele>71.3</ele>
        <time>2020-10-16T15:26:45Z</time>
      </trkpt>
      <trkpt lat="37.412177000" lon="-5.582285000">
        <ele>71.0</ele>
        <time>2020-10-16T15:26:47Z</time>
      </trkpt>
      <trkpt lat="37.412236000" lon="-5.582383000">
        <ele>70.7</ele>
        <time>2020-10-16T15:26:49Z</time>
      </trkpt>
      <trkpt lat="37.412292000" lon="-5.582472000">
        <ele>70.5</ele>
        <time>2020-10-16T15:26:51Z</time>
      </trkpt>
      <trkpt lat="37.412347000" lon="-5.582564000">
        <ele>70.2</ele>
        <time>2020-10-16T15:26:53Z</time>
      </trkpt>
      <trkpt lat="37.412398000" lon="-5.582646000">
        <ele>69.9</ele>
        <time>2020-10-16T15:26:55Z</time>
      </trkpt>
      <trkpt lat="37.412453000" lon="-5.582732000">
        <ele>69.6</ele>
        <time>2020-10-16T15:26:57Z</time>
      </trkpt>
      <trkpt lat="37.412514000" lon="-5.582820000">
        <ele>69.4</ele>
        <time>2020-10-16T15:26:59Z</time>
      </trkpt>
      <trkpt lat="37.412571000" lon="-5.582911000">
        <ele>69.2</ele>
        <time>2020-10-16T15:27:01Z</time>
      </trkpt>
      <trkpt lat="37.412625000" lon="-5.583010000">
        <ele>69.1</ele>
        <time>2020-10-16T15:27:03Z</time>
      </trkpt>
      <trkpt lat="37.412677000" lon="-5.583103000">
        <ele>68.9</ele>
        <time>2020-10-16T15:27:05Z</time>
      </trkpt>
      <trkpt lat="37.412735000" lon="-5.583197000">
        <ele>68.8</ele>
        <time>2020-10-16T15:27:07Z</time>
      </trkpt>
      <trkpt lat="37.412792000" lon="-5.583292000">
        <ele>68.7</ele>
        <time>2020-10-16T15:27:09Z</time>
      </trkpt>
      <trkpt lat="37.412860000" lon="-5.583375000">
        <ele>68.6</ele>
        <time>2020-10-16T15:27:11Z</time>
      </trkpt>
      <trkpt lat="37.412962000" lon="-5.583452000">
        <ele>68.5</ele>
        <time>2020-10-16T15:27:14Z</time>
      </trkpt>
      <trkpt lat="37.413020000" lon="-5.583535000">
        <ele>68.3</ele>
        <time>2020-10-16T15:27:16Z</time>
      </trkpt>
      <trkpt lat="37.413080000" lon="-5.583660000">
        <ele>68.2</ele>
        <time>2020-10-16T15:27:19Z</time>
      </trkpt>
      <trkpt lat="37.413134000" lon="-5.583740000">
        <ele>68.1</ele>
        <time>2020-10-16T15:27:21Z</time>
      </trkpt>
      <trkpt lat="37.413194000" lon="-5.583815000">
        <ele>68.0</ele>
        <time>2020-10-16T15:27:23Z</time>
      </trkpt>
      <trkpt lat="37.413251000" lon="-5.583896000">
        <ele>68.0</ele>
        <time>2020-10-16T15:27:25Z</time>
      </trkpt>
      <trkpt lat="37.413309000" lon="-5.583974000">
        <ele>68.0</ele>
        <time>2020-10-16T15:27:27Z</time>
      </trkpt>
      <trkpt lat="37.413367000" lon="-5.584057000">
        <ele>68.1</ele>
        <time>2020-10-16T15:27:29Z</time>
      </trkpt>
      <trkpt lat="37.413423000" lon="-5.584142000">
        <ele>68.1</ele>
        <time>2020-10-16T15:27:31Z</time>
      </trkpt>
      <trkpt lat="37.413478000" lon="-5.584230000">
        <ele>68.1</ele>
        <time>2020-10-16T15:27:33Z</time>
      </trkpt>
      <trkpt lat="37.413535000" lon="-5.584324000">
        <ele>68.1</ele>
        <time>2020-10-16T15:27:35Z</time>
      </trkpt>
      <trkpt lat="37.413593000" lon="-5.584416000">
        <ele>68.2</ele>
        <time>2020-10-16T15:27:37Z</time>
      </trkpt>
      <trkpt lat="37.413651000" lon="-5.584518000">
        <ele>68.3</ele>
        <time>2020-10-16T15:27:39Z</time>
      </trkpt>
      <trkpt lat="37.413715000" lon="-5.584611000">
        <ele>68.2</ele>
        <time>2020-10-16T15:27:41Z</time>
      </trkpt>
      <trkpt lat="37.413768000" lon="-5.584707000">
        <ele>68.1</ele>
        <time>2020-10-16T15:27:43Z</time>
      </trkpt>
      <trkpt lat="37.413833000" lon="-5.584798000">
        <ele>68.0</ele>
        <time>2020-10-16T15:27:45Z</time>
      </trkpt>
      <trkpt lat="37.413886000" lon="-5.584876000">
        <ele>67.8</ele>
        <time>2020-10-16T15:27:47Z</time>
      </trkpt>
      <trkpt lat="37.413967000" lon="-5.584985000">
        <ele>67.6</ele>
        <time>2020-10-16T15:27:50Z</time>
      </trkpt>
      <trkpt lat="37.414029000" lon="-5.585060000">
        <ele>67.5</ele>
        <time>2020-10-16T15:27:52Z</time>
      </trkpt>
      <trkpt lat="37.414110000" lon="-5.585160000">
        <ele>67.4</ele>
        <time>2020-10-16T15:27:55Z</time>
      </trkpt>
      <trkpt lat="37.414196000" lon="-5.585265000">
        <ele>67.3</ele>
        <time>2020-10-16T15:27:58Z</time>
      </trkpt>
      <trkpt lat="37.414284000" lon="-5.585365000">
        <ele>67.3</ele>
        <time>2020-10-16T15:28:01Z</time>
      </trkpt>
      <trkpt lat="37.414366000" lon="-5.585463000">
        <ele>67.3</ele>
        <time>2020-10-16T15:28:04Z</time>
      </trkpt>
      <trkpt lat="37.414448000" lon="-5.585559000">
        <ele>67.4</ele>
        <time>2020-10-16T15:28:07Z</time>
      </trkpt>
      <trkpt lat="37.414522000" lon="-5.585641000">
        <ele>67.5</ele>
        <time>2020-10-16T15:28:10Z</time>
      </trkpt>
      <trkpt lat="37.414581000" lon="-5.585725000">
        <ele>67.7</ele>
        <time>2020-10-16T15:28:13Z</time>
      </trkpt>
      <trkpt lat="37.414646000" lon="-5.585806000">
        <ele>67.9</ele>
        <time>2020-10-16T15:28:16Z</time>
      </trkpt>
      <trkpt lat="37.414733000" lon="-5.585892000">
        <ele>68.1</ele>
        <time>2020-10-16T15:28:19Z</time>
      </trkpt>
      <trkpt lat="37.414815000" lon="-5.585961000">
        <ele>68.2</ele>
        <time>2020-10-16T15:28:22Z</time>
      </trkpt>
      <trkpt lat="37.414889000" lon="-5.586024000">
        <ele>68.3</ele>
        <time>2020-10-16T15:28:25Z</time>
      </trkpt>
      <trkpt lat="37.414980000" lon="-5.586101000">
        <ele>68.4</ele>
        <time>2020-10-16T15:28:28Z</time>
      </trkpt>
      <trkpt lat="37.415064000" lon="-5.586169000">
        <ele>68.5</ele>
        <time>2020-10-16T15:28:31Z</time>
      </trkpt>
      <trkpt lat="37.415147000" lon="-5.586228000">
        <ele>68.6</ele>
        <time>2020-10-16T15:28:34Z</time>
      </trkpt>
      <trkpt lat="37.415229000" lon="-5.586304000">
        <ele>68.7</ele>
        <time>2020-10-16T15:28:37Z</time>
      </trkpt>
      <trkpt lat="37.415301000" lon="-5.586375000">
        <ele>68.7</ele>
        <time>2020-10-16T15:28:40Z</time>
      </trkpt>
      <trkpt lat="37.415363000" lon="-5.586453000">
        <ele>68.8</ele>
        <time>2020-10-16T15:28:43Z</time>
      </trkpt>
      <trkpt lat="37.415423000" lon="-5.586532000">
        <ele>68.9</ele>
        <time>2020-10-16T15:28:46Z</time>
      </trkpt>
      <trkpt lat="37.415495000" lon="-5.586631000">
        <ele>69.0</ele>
        <time>2020-10-16T15:28:50Z</time>
      </trkpt>
      <trkpt lat="37.415570000" lon="-5.586723000">
        <ele>69.2</ele>
        <time>2020-10-16T15:28:54Z</time>
      </trkpt>
      <trkpt lat="37.415628000" lon="-5.586798000">
        <ele>69.5</ele>
        <time>2020-10-16T15:28:57Z</time>
      </trkpt>
      <trkpt lat="37.415688000" lon="-5.586878000">
        <ele>69.7</ele>
        <time>2020-10-16T15:29:00Z</time>
      </trkpt>
      <trkpt lat="37.415751000" lon="-5.586959000">
        <ele>70.0</ele>
        <time>2020-10-16T15:29:03Z</time>
      </trkpt>
      <trkpt lat="37.415813000" lon="-5.587043000">
        <ele>70.3</ele>
        <time>2020-10-16T15:29:06Z</time>
      </trkpt>
      <trkpt lat="37.415870000" lon="-5.587119000">
        <ele>70.5</ele>
        <time>2020-10-16T15:29:09Z</time>
      </trkpt>
      <trkpt lat="37.415927000" lon="-5.587198000">
        <ele>70.8</ele>
        <time>2020-10-16T15:29:12Z</time>
      </trkpt>
      <trkpt lat="37.415993000" lon="-5.587302000">
        <ele>71.1</ele>
        <time>2020-10-16T15:29:16Z</time>
      </trkpt>
      <trkpt lat="37.416041000" lon="-5.587384000">
        <ele>71.3</ele>
        <time>2020-10-16T15:29:19Z</time>
      </trkpt>
      <trkpt lat="37.416097000" lon="-5.587462000">
        <ele>71.5</ele>
        <time>2020-10-16T15:29:22Z</time>
      </trkpt>
      <trkpt lat="37.416171000" lon="-5.587559000">
        <ele>71.5</ele>
        <time>2020-10-16T15:29:26Z</time>
      </trkpt>
      <trkpt lat="37.416231000" lon="-5.587630000">
        <ele>71.5</ele>
        <time>2020-10-16T15:29:29Z</time>
      </trkpt>
      <trkpt lat="37.416312000" lon="-5.587723000">
        <ele>71.5</ele>
        <time>2020-10-16T15:29:33Z</time>
      </trkpt>
      <trkpt lat="37.416368000" lon="-5.587809000">
        <ele>71.4</ele>
        <time>2020-10-16T15:29:36Z</time>
      </trkpt>
      <trkpt lat="37.416426000" lon="-5.587911000">
        <ele>71.2</ele>
        <time>2020-10-16T15:29:39Z</time>
      </trkpt>
      <trkpt lat="37.416476000" lon="-5.588011000">
        <ele>70.9</ele>
        <time>2020-10-16T15:29:42Z</time>
      </trkpt>
      <trkpt lat="37.416522000" lon="-5.588101000">
        <ele>70.6</ele>
        <time>2020-10-16T15:29:45Z</time>
      </trkpt>
      <trkpt lat="37.416573000" lon="-5.588184000">
        <ele>70.5</ele>
        <time>2020-10-16T15:29:48Z</time>
      </trkpt>
      <trkpt lat="37.416644000" lon="-5.588236000">
        <ele>70.2</ele>
        <time>2020-10-16T15:29:51Z</time>
      </trkpt>
      <trkpt lat="37.416726000" lon="-5.588221000">
        <ele>69.9</ele>
        <time>2020-10-16T15:29:54Z</time>
      </trkpt>
      <trkpt lat="37.416791000" lon="-5.588125000">
        <ele>69.6</ele>
        <time>2020-10-16T15:29:57Z</time>
      </trkpt>
      <trkpt lat="37.416845000" lon="-5.588030000">
        <ele>69.5</ele>
        <time>2020-10-16T15:30:00Z</time>
      </trkpt>
      <trkpt lat="37.416891000" lon="-5.587933000">
        <ele>69.3</ele>
        <time>2020-10-16T15:30:04Z</time>
      </trkpt>
      <trkpt lat="37.416855000" lon="-5.588025000">
        <ele>69.3</ele>
        <time>2020-10-16T15:30:59Z</time>
      </trkpt>
      <trkpt lat="37.416798000" lon="-5.588125000">
        <ele>69.3</ele>
        <time>2020-10-16T15:31:02Z</time>
      </trkpt>
      <trkpt lat="37.416730000" lon="-5.588244000">
        <ele>69.4</ele>
        <time>2020-10-16T15:31:05Z</time>
      </trkpt>
      <trkpt lat="37.416685000" lon="-5.588333000">
        <ele>69.5</ele>
        <time>2020-10-16T15:31:07Z</time>
      </trkpt>
      <trkpt lat="37.416647000" lon="-5.588429000">
        <ele>69.5</ele>
        <time>2020-10-16T15:31:09Z</time>
      </trkpt>
      <trkpt lat="37.416613000" lon="-5.588524000">
        <ele>69.5</ele>
        <time>2020-10-16T15:31:11Z</time>
      </trkpt>
      <trkpt lat="37.416580000" lon="-5.588621000">
        <ele>69.4</ele>
        <time>2020-10-16T15:31:13Z</time>
      </trkpt>
      <trkpt lat="37.416542000" lon="-5.588718000">
        <ele>69.3</ele>
        <time>2020-10-16T15:31:15Z</time>
      </trkpt>
      <trkpt lat="37.416500000" lon="-5.588826000">
        <ele>69.2</ele>
        <time>2020-10-16T15:31:17Z</time>
      </trkpt>
      <trkpt lat="37.416455000" lon="-5.588928000">
        <ele>69.1</ele>
        <time>2020-10-16T15:31:19Z</time>
      </trkpt>
      <trkpt lat="37.416413000" lon="-5.589040000">
        <ele>69.0</ele>
        <time>2020-10-16T15:31:21Z</time>
      </trkpt>
      <trkpt lat="37.416366000" lon="-5.589141000">
        <ele>68.9</ele>
        <time>2020-10-16T15:31:23Z</time>
      </trkpt>
      <trkpt lat="37.416320000" lon="-5.589242000">
        <ele>68.8</ele>
        <time>2020-10-16T15:31:25Z</time>
      </trkpt>
      <trkpt lat="37.416276000" lon="-5.589336000">
        <ele>68.8</ele>
        <time>2020-10-16T15:31:27Z</time>
      </trkpt>
      <trkpt lat="37.416226000" lon="-5.589431000">
        <ele>68.8</ele>
        <time>2020-10-16T15:31:29Z</time>
      </trkpt>
      <trkpt lat="37.416175000" lon="-5.589528000">
        <ele>68.9</ele>
        <time>2020-10-16T15:31:31Z</time>
      </trkpt>
      <trkpt lat="37.416128000" lon="-5.589615000">
        <ele>69.1</ele>
        <time>2020-10-16T15:31:33Z</time>
      </trkpt>
      <trkpt lat="37.416087000" lon="-5.589708000">
        <ele>69.4</ele>
        <time>2020-10-16T15:31:35Z</time>
      </trkpt>
      <trkpt lat="37.416044000" lon="-5.589798000">
        <ele>69.6</ele>
        <time>2020-10-16T15:31:37Z</time>
      </trkpt>
      <trkpt lat="37.415976000" lon="-5.589923000">
        <ele>69.9</ele>
        <time>2020-10-16T15:31:40Z</time>
      </trkpt>
      <trkpt lat="37.415906000" lon="-5.590041000">
        <ele>70.2</ele>
        <time>2020-10-16T15:31:43Z</time>
      </trkpt>
      <trkpt lat="37.415836000" lon="-5.590161000">
        <ele>70.5</ele>
        <time>2020-10-16T15:31:46Z</time>
      </trkpt>
      <trkpt lat="37.415765000" lon="-5.590261000">
        <ele>70.7</ele>
        <time>2020-10-16T15:31:49Z</time>
      </trkpt>
      <trkpt lat="37.415713000" lon="-5.590348000">
        <ele>71.0</ele>
        <time>2020-10-16T15:31:52Z</time>
      </trkpt>
      <trkpt lat="37.415657000" lon="-5.590453000">
        <ele>71.2</ele>
        <time>2020-10-16T15:31:55Z</time>
      </trkpt>
      <trkpt lat="37.415593000" lon="-5.590567000">
        <ele>71.5</ele>
        <time>2020-10-16T15:31:58Z</time>
      </trkpt>
      <trkpt lat="37.415531000" lon="-5.590683000">
        <ele>71.5</ele>
        <time>2020-10-16T15:32:01Z</time>
      </trkpt>
      <trkpt lat="37.415472000" lon="-5.590795000">
        <ele>71.6</ele>
        <time>2020-10-16T15:32:04Z</time>
      </trkpt>
      <trkpt lat="37.415415000" lon="-5.590908000">
        <ele>71.6</ele>
        <time>2020-10-16T15:32:07Z</time>
      </trkpt>
      <trkpt lat="37.415363000" lon="-5.591032000">
        <ele>71.6</ele>
        <time>2020-10-16T15:32:10Z</time>
      </trkpt>
      <trkpt lat="37.415312000" lon="-5.591154000">
        <ele>71.6</ele>
        <time>2020-10-16T15:32:13Z</time>
      </trkpt>
      <trkpt lat="37.415257000" lon="-5.591280000">
        <ele>71.6</ele>
        <time>2020-10-16T15:32:16Z</time>
      </trkpt>
      <trkpt lat="37.415198000" lon="-5.591407000">
        <ele>71.6</ele>
        <time>2020-10-16T15:32:19Z</time>
      </trkpt>
      <trkpt lat="37.415134000" lon="-5.591531000">
        <ele>71.5</ele>
        <time>2020-10-16T15:32:22Z</time>
      </trkpt>
      <trkpt lat="37.415071000" lon="-5.591655000">
        <ele>71.5</ele>
        <time>2020-10-16T15:32:25Z</time>
      </trkpt>
      <trkpt lat="37.415014000" lon="-5.591779000">
        <ele>71.3</ele>
        <time>2020-10-16T15:32:28Z</time>
      </trkpt>
      <trkpt lat="37.414959000" lon="-5.591901000">
        <ele>71.0</ele>
        <time>2020-10-16T15:32:31Z</time>
      </trkpt>
      <trkpt lat="37.414901000" lon="-5.592014000">
        <ele>70.8</ele>
        <time>2020-10-16T15:32:34Z</time>
      </trkpt>
      <trkpt lat="37.414851000" lon="-5.592137000">
        <ele>70.5</ele>
        <time>2020-10-16T15:32:37Z</time>
      </trkpt>
      <trkpt lat="37.414789000" lon="-5.592262000">
        <ele>70.4</ele>
        <time>2020-10-16T15:32:40Z</time>
      </trkpt>
      <trkpt lat="37.414729000" lon="-5.592382000">
        <ele>70.2</ele>
        <time>2020-10-16T15:32:43Z</time>
      </trkpt>
      <trkpt lat="37.414664000" lon="-5.592490000">
        <ele>70.1</ele>
        <time>2020-10-16T15:32:46Z</time>
      </trkpt>
      <trkpt lat="37.414592000" lon="-5.592593000">
        <ele>70.0</ele>
        <time>2020-10-16T15:32:49Z</time>
      </trkpt>
      <trkpt lat="37.414522000" lon="-5.592695000">
        <ele>69.9</ele>
        <time>2020-10-16T15:32:52Z</time>
      </trkpt>
      <trkpt lat="37.414453000" lon="-5.592788000">
        <ele>69.9</ele>
        <time>2020-10-16T15:32:55Z</time>
      </trkpt>
      <trkpt lat="37.414384000" lon="-5.592872000">
        <ele>69.9</ele>
        <time>2020-10-16T15:32:58Z</time>
      </trkpt>
      <trkpt lat="37.414317000" lon="-5.592958000">
        <ele>70.1</ele>
        <time>2020-10-16T15:33:01Z</time>
      </trkpt>
      <trkpt lat="37.414260000" lon="-5.593041000">
        <ele>70.4</ele>
        <time>2020-10-16T15:33:04Z</time>
      </trkpt>
      <trkpt lat="37.414204000" lon="-5.593139000">
        <ele>70.6</ele>
        <time>2020-10-16T15:33:08Z</time>
      </trkpt>
      <trkpt lat="37.414147000" lon="-5.593226000">
        <ele>71.1</ele>
        <time>2020-10-16T15:33:22Z</time>
      </trkpt>
      <trkpt lat="37.414112000" lon="-5.593328000">
        <ele>71.5</ele>
        <time>2020-10-16T15:33:26Z</time>
      </trkpt>
      <trkpt lat="37.414076000" lon="-5.593431000">
        <ele>72.0</ele>
        <time>2020-10-16T15:33:29Z</time>
      </trkpt>
      <trkpt lat="37.414034000" lon="-5.593535000">
        <ele>72.4</ele>
        <time>2020-10-16T15:33:32Z</time>
      </trkpt>
      <trkpt lat="37.413978000" lon="-5.593637000">
        <ele>72.7</ele>
        <time>2020-10-16T15:33:35Z</time>
      </trkpt>
      <trkpt lat="37.413923000" lon="-5.593741000">
        <ele>73.1</ele>
        <time>2020-10-16T15:33:38Z</time>
      </trkpt>
      <trkpt lat="37.413867000" lon="-5.593834000">
        <ele>73.3</ele>
        <time>2020-10-16T15:33:41Z</time>
      </trkpt>
      <trkpt lat="37.413811000" lon="-5.593914000">
        <ele>73.5</ele>
        <time>2020-10-16T15:33:44Z</time>
      </trkpt>
      <trkpt lat="37.413756000" lon="-5.594002000">
        <ele>73.5</ele>
        <time>2020-10-16T15:33:47Z</time>
      </trkpt>
      <trkpt lat="37.413704000" lon="-5.594102000">
        <ele>73.4</ele>
        <time>2020-10-16T15:33:50Z</time>
      </trkpt>
      <trkpt lat="37.413653000" lon="-5.594201000">
        <ele>73.2</ele>
        <time>2020-10-16T15:33:53Z</time>
      </trkpt>
      <trkpt lat="37.413591000" lon="-5.594303000">
        <ele>72.9</ele>
        <time>2020-10-16T15:33:56Z</time>
      </trkpt>
      <trkpt lat="37.413537000" lon="-5.594415000">
        <ele>72.6</ele>
        <time>2020-10-16T15:33:59Z</time>
      </trkpt>
      <trkpt lat="37.413489000" lon="-5.594522000">
        <ele>72.4</ele>
        <time>2020-10-16T15:34:02Z</time>
      </trkpt>
      <trkpt lat="37.413443000" lon="-5.594630000">
        <ele>72.0</ele>
        <time>2020-10-16T15:34:05Z</time>
      </trkpt>
      <trkpt lat="37.413402000" lon="-5.594758000">
        <ele>71.6</ele>
        <time>2020-10-16T15:34:08Z</time>
      </trkpt>
      <trkpt lat="37.413371000" lon="-5.594858000">
        <ele>71.3</ele>
        <time>2020-10-16T15:34:10Z</time>
      </trkpt>
      <trkpt lat="37.413340000" lon="-5.594994000">
        <ele>71.0</ele>
        <time>2020-10-16T15:34:13Z</time>
      </trkpt>
      <trkpt lat="37.413317000" lon="-5.595122000">
        <ele>70.7</ele>
        <time>2020-10-16T15:34:16Z</time>
      </trkpt>
      <trkpt lat="37.413305000" lon="-5.595263000">
        <ele>70.5</ele>
        <time>2020-10-16T15:34:19Z</time>
      </trkpt>
      <trkpt lat="37.413283000" lon="-5.595385000">
        <ele>70.4</ele>
        <time>2020-10-16T15:34:22Z</time>
      </trkpt>
      <trkpt lat="37.413261000" lon="-5.595507000">
        <ele>70.3</ele>
        <time>2020-10-16T15:34:27Z</time>
      </trkpt>
      <trkpt lat="37.413228000" lon="-5.595635000">
        <ele>70.2</ele>
        <time>2020-10-16T15:34:31Z</time>
      </trkpt>
      <trkpt lat="37.413194000" lon="-5.595758000">
        <ele>70.0</ele>
        <time>2020-10-16T15:34:34Z</time>
      </trkpt>
      <trkpt lat="37.413148000" lon="-5.595880000">
        <ele>69.8</ele>
        <time>2020-10-16T15:34:37Z</time>
      </trkpt>
      <trkpt lat="37.413100000" lon="-5.595989000">
        <ele>69.7</ele>
        <time>2020-10-16T15:34:40Z</time>
      </trkpt>
      <trkpt lat="37.413054000" lon="-5.596097000">
        <ele>69.6</ele>
        <time>2020-10-16T15:34:43Z</time>
      </trkpt>
      <trkpt lat="37.413013000" lon="-5.596208000">
        <ele>69.5</ele>
        <time>2020-10-16T15:34:46Z</time>
      </trkpt>
      <trkpt lat="37.412984000" lon="-5.596310000">
        <ele>69.5</ele>
        <time>2020-10-16T15:34:49Z</time>
      </trkpt>
      <trkpt lat="37.412957000" lon="-5.596425000">
        <ele>69.4</ele>
        <time>2020-10-16T15:34:52Z</time>
      </trkpt>
      <trkpt lat="37.412932000" lon="-5.596545000">
        <ele>69.3</ele>
        <time>2020-10-16T15:34:55Z</time>
      </trkpt>
      <trkpt lat="37.412909000" lon="-5.596673000">
        <ele>69.3</ele>
        <time>2020-10-16T15:34:58Z</time>
      </trkpt>
      <trkpt lat="37.412885000" lon="-5.596807000">
        <ele>69.3</ele>
        <time>2020-10-16T15:35:01Z</time>
      </trkpt>
      <trkpt lat="37.412859000" lon="-5.596946000">
        <ele>69.3</ele>
        <time>2020-10-16T15:35:04Z</time>
      </trkpt>
      <trkpt lat="37.412834000" lon="-5.597090000">
        <ele>69.4</ele>
        <time>2020-10-16T15:35:07Z</time>
      </trkpt>
      <trkpt lat="37.412802000" lon="-5.597228000">
        <ele>69.5</ele>
        <time>2020-10-16T15:35:10Z</time>
      </trkpt>
      <trkpt lat="37.412759000" lon="-5.597369000">
        <ele>69.5</ele>
        <time>2020-10-16T15:35:13Z</time>
      </trkpt>
      <trkpt lat="37.412729000" lon="-5.597466000">
        <ele>69.5</ele>
        <time>2020-10-16T15:35:15Z</time>
      </trkpt>
      <trkpt lat="37.412702000" lon="-5.597570000">
        <ele>69.5</ele>
        <time>2020-10-16T15:35:17Z</time>
      </trkpt>
      <trkpt lat="37.412673000" lon="-5.597671000">
        <ele>69.5</ele>
        <time>2020-10-16T15:35:19Z</time>
      </trkpt>
      <trkpt lat="37.412649000" lon="-5.597769000">
        <ele>69.5</ele>
        <time>2020-10-16T15:35:21Z</time>
      </trkpt>
      <trkpt lat="37.412623000" lon="-5.597871000">
        <ele>69.5</ele>
        <time>2020-10-16T15:35:23Z</time>
      </trkpt>
      <trkpt lat="37.412596000" lon="-5.597968000">
        <ele>69.5</ele>
        <time>2020-10-16T15:35:25Z</time>
      </trkpt>
      <trkpt lat="37.412567000" lon="-5.598071000">
        <ele>69.5</ele>
        <time>2020-10-16T15:35:27Z</time>
      </trkpt>
      <trkpt lat="37.412537000" lon="-5.598170000">
        <ele>69.5</ele>
        <time>2020-10-16T15:35:29Z</time>
      </trkpt>
      <trkpt lat="37.412507000" lon="-5.598269000">
        <ele>69.6</ele>
        <time>2020-10-16T15:35:31Z</time>
      </trkpt>
      <trkpt lat="37.412477000" lon="-5.598364000">
        <ele>69.7</ele>
        <time>2020-10-16T15:35:33Z</time>
      </trkpt>
      <trkpt lat="37.412432000" lon="-5.598504000">
        <ele>69.9</ele>
        <time>2020-10-16T15:35:36Z</time>
      </trkpt>
      <trkpt lat="37.412387000" lon="-5.598643000">
        <ele>70.1</ele>
        <time>2020-10-16T15:35:39Z</time>
      </trkpt>
      <trkpt lat="37.412348000" lon="-5.598783000">
        <ele>70.3</ele>
        <time>2020-10-16T15:35:42Z</time>
      </trkpt>
      <trkpt lat="37.412305000" lon="-5.598922000">
        <ele>70.4</ele>
        <time>2020-10-16T15:35:45Z</time>
      </trkpt>
      <trkpt lat="37.412274000" lon="-5.599018000">
        <ele>70.5</ele>
        <time>2020-10-16T15:35:47Z</time>
      </trkpt>
      <trkpt lat="37.412241000" lon="-5.599114000">
        <ele>70.7</ele>
        <time>2020-10-16T15:35:49Z</time>
      </trkpt>
      <trkpt lat="37.412201000" lon="-5.599210000">
        <ele>70.8</ele>
        <time>2020-10-16T15:35:51Z</time>
      </trkpt>
      <trkpt lat="37.412168000" lon="-5.599311000">
        <ele>71.0</ele>
        <time>2020-10-16T15:35:53Z</time>
      </trkpt>
      <trkpt lat="37.412141000" lon="-5.599451000">
        <ele>71.1</ele>
        <time>2020-10-16T15:35:56Z</time>
      </trkpt>
      <trkpt lat="37.412110000" lon="-5.599579000">
        <ele>71.2</ele>
        <time>2020-10-16T15:35:59Z</time>
      </trkpt>
      <trkpt lat="37.412077000" lon="-5.599706000">
        <ele>71.3</ele>
        <time>2020-10-16T15:36:02Z</time>
      </trkpt>
      <trkpt lat="37.412045000" lon="-5.599836000">
        <ele>71.3</ele>
        <time>2020-10-16T15:36:05Z</time>
      </trkpt>
      <trkpt lat="37.412011000" lon="-5.599961000">
        <ele>71.2</ele>
        <time>2020-10-16T15:36:08Z</time>
      </trkpt>
      <trkpt lat="37.411986000" lon="-5.600077000">
        <ele>71.1</ele>
        <time>2020-10-16T15:36:11Z</time>
      </trkpt>
      <trkpt lat="37.411967000" lon="-5.600207000">
        <ele>71.1</ele>
        <time>2020-10-16T15:36:14Z</time>
      </trkpt>
      <trkpt lat="37.411951000" lon="-5.600309000">
        <ele>71.0</ele>
        <time>2020-10-16T15:36:16Z</time>
      </trkpt>
      <trkpt lat="37.411934000" lon="-5.600434000">
        <ele>70.9</ele>
        <time>2020-10-16T15:36:19Z</time>
      </trkpt>
      <trkpt lat="37.411916000" lon="-5.600557000">
        <ele>70.8</ele>
        <time>2020-10-16T15:36:22Z</time>
      </trkpt>
      <trkpt lat="37.411898000" lon="-5.600659000">
        <ele>70.6</ele>
        <time>2020-10-16T15:36:24Z</time>
      </trkpt>
      <trkpt lat="37.411875000" lon="-5.600796000">
        <ele>70.5</ele>
        <time>2020-10-16T15:36:27Z</time>
      </trkpt>
      <trkpt lat="37.411845000" lon="-5.600913000">
        <ele>70.5</ele>
        <time>2020-10-16T15:36:30Z</time>
      </trkpt>
      <trkpt lat="37.411819000" lon="-5.601056000">
        <ele>70.4</ele>
        <time>2020-10-16T15:36:33Z</time>
      </trkpt>
      <trkpt lat="37.411797000" lon="-5.601177000">
        <ele>70.5</ele>
        <time>2020-10-16T15:36:36Z</time>
      </trkpt>
      <trkpt lat="37.411777000" lon="-5.601284000">
        <ele>70.6</ele>
        <time>2020-10-16T15:36:39Z</time>
      </trkpt>
      <trkpt lat="37.411748000" lon="-5.601423000">
        <ele>70.7</ele>
        <time>2020-10-16T15:36:42Z</time>
      </trkpt>
      <trkpt lat="37.411725000" lon="-5.601568000">
        <ele>70.8</ele>
        <time>2020-10-16T15:36:45Z</time>
      </trkpt>
      <trkpt lat="37.411703000" lon="-5.601716000">
        <ele>70.8</ele>
        <time>2020-10-16T15:36:48Z</time>
      </trkpt>
      <trkpt lat="37.411676000" lon="-5.601864000">
        <ele>70.8</ele>
        <time>2020-10-16T15:36:51Z</time>
      </trkpt>
      <trkpt lat="37.411646000" lon="-5.602005000">
        <ele>70.8</ele>
        <time>2020-10-16T15:36:54Z</time>
      </trkpt>
      <trkpt lat="37.411623000" lon="-5.602149000">
        <ele>70.8</ele>
        <time>2020-10-16T15:36:57Z</time>
      </trkpt>
      <trkpt lat="37.411604000" lon="-5.602250000">
        <ele>70.7</ele>
        <time>2020-10-16T15:36:59Z</time>
      </trkpt>
      <trkpt lat="37.411585000" lon="-5.602352000">
        <ele>70.6</ele>
        <time>2020-10-16T15:37:01Z</time>
      </trkpt>
      <trkpt lat="37.411560000" lon="-5.602493000">
        <ele>70.6</ele>
        <time>2020-10-16T15:37:04Z</time>
      </trkpt>
      <trkpt lat="37.411546000" lon="-5.602594000">
        <ele>70.5</ele>
        <time>2020-10-16T15:37:06Z</time>
      </trkpt>
      <trkpt lat="37.411531000" lon="-5.602702000">
        <ele>70.5</ele>
        <time>2020-10-16T15:37:08Z</time>
      </trkpt>
      <trkpt lat="37.411513000" lon="-5.602812000">
        <ele>70.5</ele>
        <time>2020-10-16T15:37:10Z</time>
      </trkpt>
      <trkpt lat="37.411490000" lon="-5.602928000">
        <ele>70.5</ele>
        <time>2020-10-16T15:37:12Z</time>
      </trkpt>
      <trkpt lat="37.411466000" lon="-5.603054000">
        <ele>70.5</ele>
        <time>2020-10-16T15:37:14Z</time>
      </trkpt>
      <trkpt lat="37.411444000" lon="-5.603179000">
        <ele>70.6</ele>
        <time>2020-10-16T15:37:16Z</time>
      </trkpt>
      <trkpt lat="37.411423000" lon="-5.603303000">
        <ele>70.7</ele>
        <time>2020-10-16T15:37:18Z</time>
      </trkpt>
      <trkpt lat="37.411403000" lon="-5.603428000">
        <ele>70.9</ele>
        <time>2020-10-16T15:37:20Z</time>
      </trkpt>
      <trkpt lat="37.411382000" lon="-5.603555000">
        <ele>71.1</ele>
        <time>2020-10-16T15:37:22Z</time>
      </trkpt>
      <trkpt lat="37.411354000" lon="-5.603680000">
        <ele>71.3</ele>
        <time>2020-10-16T15:37:24Z</time>
      </trkpt>
      <trkpt lat="37.411331000" lon="-5.603805000">
        <ele>71.4</ele>
        <time>2020-10-16T15:37:26Z</time>
      </trkpt>
      <trkpt lat="37.411310000" lon="-5.603929000">
        <ele>71.4</ele>
        <time>2020-10-16T15:37:28Z</time>
      </trkpt>
      <trkpt lat="37.411289000" lon="-5.604045000">
        <ele>71.4</ele>
        <time>2020-10-16T15:37:30Z</time>
      </trkpt>
      <trkpt lat="37.411272000" lon="-5.604169000">
        <ele>71.3</ele>
        <time>2020-10-16T15:37:32Z</time>
      </trkpt>
      <trkpt lat="37.411246000" lon="-5.604282000">
        <ele>71.1</ele>
        <time>2020-10-16T15:37:34Z</time>
      </trkpt>
      <trkpt lat="37.411226000" lon="-5.604401000">
        <ele>70.8</ele>
        <time>2020-10-16T15:37:36Z</time>
      </trkpt>
      <trkpt lat="37.411204000" lon="-5.604519000">
        <ele>70.5</ele>
        <time>2020-10-16T15:37:38Z</time>
      </trkpt>
      <trkpt lat="37.411181000" lon="-5.604638000">
        <ele>70.3</ele>
        <time>2020-10-16T15:37:40Z</time>
      </trkpt>
      <trkpt lat="37.411161000" lon="-5.604759000">
        <ele>69.9</ele>
        <time>2020-10-16T15:37:42Z</time>
      </trkpt>
      <trkpt lat="37.411140000" lon="-5.604872000">
        <ele>69.5</ele>
        <time>2020-10-16T15:37:44Z</time>
      </trkpt>
      <trkpt lat="37.411121000" lon="-5.604990000">
        <ele>69.2</ele>
        <time>2020-10-16T15:37:46Z</time>
      </trkpt>
      <trkpt lat="37.411104000" lon="-5.605098000">
        <ele>68.9</ele>
        <time>2020-10-16T15:37:48Z</time>
      </trkpt>
      <trkpt lat="37.411092000" lon="-5.605210000">
        <ele>68.7</ele>
        <time>2020-10-16T15:37:50Z</time>
      </trkpt>
      <trkpt lat="37.411077000" lon="-5.605324000">
        <ele>68.6</ele>
        <time>2020-10-16T15:37:52Z</time>
      </trkpt>
      <trkpt lat="37.411065000" lon="-5.605436000">
        <ele>68.6</ele>
        <time>2020-10-16T15:37:54Z</time>
      </trkpt>
      <trkpt lat="37.411047000" lon="-5.605545000">
        <ele>68.7</ele>
        <time>2020-10-16T15:37:56Z</time>
      </trkpt>
      <trkpt lat="37.411016000" lon="-5.605653000">
        <ele>68.8</ele>
        <time>2020-10-16T15:37:58Z</time>
      </trkpt>
      <trkpt lat="37.410983000" lon="-5.605749000">
        <ele>68.8</ele>
        <time>2020-10-16T15:38:00Z</time>
      </trkpt>
      <trkpt lat="37.410934000" lon="-5.605882000">
        <ele>68.9</ele>
        <time>2020-10-16T15:38:03Z</time>
      </trkpt>
      <trkpt lat="37.410880000" lon="-5.606015000">
        <ele>69.0</ele>
        <time>2020-10-16T15:38:06Z</time>
      </trkpt>
      <trkpt lat="37.410822000" lon="-5.606143000">
        <ele>69.1</ele>
        <time>2020-10-16T15:38:09Z</time>
      </trkpt>
      <trkpt lat="37.410767000" lon="-5.606269000">
        <ele>69.3</ele>
        <time>2020-10-16T15:38:12Z</time>
      </trkpt>
      <trkpt lat="37.410724000" lon="-5.606398000">
        <ele>69.4</ele>
        <time>2020-10-16T15:38:15Z</time>
      </trkpt>
      <trkpt lat="37.410680000" lon="-5.606522000">
        <ele>69.5</ele>
        <time>2020-10-16T15:38:18Z</time>
      </trkpt>
      <trkpt lat="37.410643000" lon="-5.606644000">
        <ele>69.4</ele>
        <time>2020-10-16T15:38:21Z</time>
      </trkpt>
      <trkpt lat="37.410591000" lon="-5.606762000">
        <ele>69.3</ele>
        <time>2020-10-16T15:38:24Z</time>
      </trkpt>
      <trkpt lat="37.410532000" lon="-5.606885000">
        <ele>69.2</ele>
        <time>2020-10-16T15:38:27Z</time>
      </trkpt>
      <trkpt lat="37.410473000" lon="-5.607007000">
        <ele>69.2</ele>
        <time>2020-10-16T15:38:30Z</time>
      </trkpt>
      <trkpt lat="37.410410000" lon="-5.607126000">
        <ele>69.3</ele>
        <time>2020-10-16T15:38:33Z</time>
      </trkpt>
      <trkpt lat="37.410349000" lon="-5.607245000">
        <ele>69.3</ele>
        <time>2020-10-16T15:38:36Z</time>
      </trkpt>
      <trkpt lat="37.410283000" lon="-5.607369000">
        <ele>69.2</ele>
        <time>2020-10-16T15:38:39Z</time>
      </trkpt>
      <trkpt lat="37.410219000" lon="-5.607497000">
        <ele>69.1</ele>
        <time>2020-10-16T15:38:42Z</time>
      </trkpt>
      <trkpt lat="37.410171000" lon="-5.607633000">
        <ele>68.9</ele>
        <time>2020-10-16T15:38:45Z</time>
      </trkpt>
      <trkpt lat="37.410130000" lon="-5.607775000">
        <ele>68.7</ele>
        <time>2020-10-16T15:38:48Z</time>
      </trkpt>
      <trkpt lat="37.410103000" lon="-5.607875000">
        <ele>68.5</ele>
        <time>2020-10-16T15:38:50Z</time>
      </trkpt>
      <trkpt lat="37.410074000" lon="-5.607974000">
        <ele>68.5</ele>
        <time>2020-10-16T15:38:52Z</time>
      </trkpt>
      <trkpt lat="37.410042000" lon="-5.608068000">
        <ele>68.5</ele>
        <time>2020-10-16T15:38:54Z</time>
      </trkpt>
      <trkpt lat="37.410011000" lon="-5.608164000">
        <ele>68.5</ele>
        <time>2020-10-16T15:38:56Z</time>
      </trkpt>
      <trkpt lat="37.409981000" lon="-5.608261000">
        <ele>68.5</ele>
        <time>2020-10-16T15:38:58Z</time>
      </trkpt>
      <trkpt lat="37.409951000" lon="-5.608358000">
        <ele>68.5</ele>
        <time>2020-10-16T15:39:00Z</time>
      </trkpt>
      <trkpt lat="37.409907000" lon="-5.608497000">
        <ele>68.6</ele>
        <time>2020-10-16T15:39:03Z</time>
      </trkpt>
      <trkpt lat="37.409861000" lon="-5.608632000">
        <ele>68.7</ele>
        <time>2020-10-16T15:39:06Z</time>
      </trkpt>
      <trkpt lat="37.409812000" lon="-5.608768000">
        <ele>68.8</ele>
        <time>2020-10-16T15:39:09Z</time>
      </trkpt>
      <trkpt lat="37.409765000" lon="-5.608901000">
        <ele>68.8</ele>
        <time>2020-10-16T15:39:12Z</time>
      </trkpt>
      <trkpt lat="37.409717000" lon="-5.609034000">
        <ele>68.8</ele>
        <time>2020-10-16T15:39:15Z</time>
      </trkpt>
      <trkpt lat="37.409672000" lon="-5.609169000">
        <ele>68.8</ele>
        <time>2020-10-16T15:39:18Z</time>
      </trkpt>
      <trkpt lat="37.409632000" lon="-5.609308000">
        <ele>68.8</ele>
        <time>2020-10-16T15:39:21Z</time>
      </trkpt>
      <trkpt lat="37.409591000" lon="-5.609450000">
        <ele>68.7</ele>
        <time>2020-10-16T15:39:24Z</time>
      </trkpt>
      <trkpt lat="37.409539000" lon="-5.609587000">
        <ele>68.7</ele>
        <time>2020-10-16T15:39:27Z</time>
      </trkpt>
      <trkpt lat="37.409477000" lon="-5.609710000">
        <ele>68.6</ele>
        <time>2020-10-16T15:39:30Z</time>
      </trkpt>
      <trkpt lat="37.409403000" lon="-5.609825000">
        <ele>68.5</ele>
        <time>2020-10-16T15:39:33Z</time>
      </trkpt>
      <trkpt lat="37.409352000" lon="-5.609927000">
        <ele>68.3</ele>
        <time>2020-10-16T15:39:36Z</time>
      </trkpt>
      <trkpt lat="37.409326000" lon="-5.610033000">
        <ele>68.1</ele>
        <time>2020-10-16T15:39:39Z</time>
      </trkpt>
      <trkpt lat="37.409299000" lon="-5.610132000">
        <ele>67.9</ele>
        <time>2020-10-16T15:40:03Z</time>
      </trkpt>
      <trkpt lat="37.409385000" lon="-5.610201000">
        <ele>67.8</ele>
        <time>2020-10-16T15:40:15Z</time>
      </trkpt>
      <trkpt lat="37.409464000" lon="-5.610234000">
        <ele>67.7</ele>
        <time>2020-10-16T15:40:18Z</time>
      </trkpt>
      <trkpt lat="37.409557000" lon="-5.610271000">
        <ele>67.7</ele>
        <time>2020-10-16T15:40:21Z</time>
      </trkpt>
      <trkpt lat="37.409656000" lon="-5.610308000">
        <ele>67.8</ele>
        <time>2020-10-16T15:40:24Z</time>
      </trkpt>
      <trkpt lat="37.409753000" lon="-5.610348000">
        <ele>68.1</ele>
        <time>2020-10-16T15:40:27Z</time>
      </trkpt>
      <trkpt lat="37.409851000" lon="-5.610384000">
        <ele>68.3</ele>
        <time>2020-10-16T15:40:30Z</time>
      </trkpt>
      <trkpt lat="37.409952000" lon="-5.610419000">
        <ele>68.6</ele>
        <time>2020-10-16T15:40:33Z</time>
      </trkpt>
      <trkpt lat="37.410054000" lon="-5.610456000">
        <ele>69.0</ele>
        <time>2020-10-16T15:40:36Z</time>
      </trkpt>
      <trkpt lat="37.410157000" lon="-5.610498000">
        <ele>69.3</ele>
        <time>2020-10-16T15:40:39Z</time>
      </trkpt>
      <trkpt lat="37.410261000" lon="-5.610531000">
        <ele>69.6</ele>
        <time>2020-10-16T15:40:42Z</time>
      </trkpt>
      <trkpt lat="37.410369000" lon="-5.610563000">
        <ele>70.0</ele>
        <time>2020-10-16T15:40:45Z</time>
      </trkpt>
      <trkpt lat="37.410482000" lon="-5.610601000">
        <ele>70.4</ele>
        <time>2020-10-16T15:40:48Z</time>
      </trkpt>
      <trkpt lat="37.410563000" lon="-5.610626000">
        <ele>70.6</ele>
        <time>2020-10-16T15:40:50Z</time>
      </trkpt>
      <trkpt lat="37.410646000" lon="-5.610651000">
        <ele>70.8</ele>
        <time>2020-10-16T15:40:52Z</time>
      </trkpt>
      <trkpt lat="37.410732000" lon="-5.610679000">
        <ele>70.9</ele>
        <time>2020-10-16T15:40:54Z</time>
      </trkpt>
      <trkpt lat="37.410823000" lon="-5.610705000">
        <ele>70.8</ele>
        <time>2020-10-16T15:40:56Z</time>
      </trkpt>
      <trkpt lat="37.410914000" lon="-5.610732000">
        <ele>70.7</ele>
        <time>2020-10-16T15:40:58Z</time>
      </trkpt>
      <trkpt lat="37.411004000" lon="-5.610758000">
        <ele>70.5</ele>
        <time>2020-10-16T15:41:00Z</time>
      </trkpt>
      <trkpt lat="37.411096000" lon="-5.610785000">
        <ele>70.5</ele>
        <time>2020-10-16T15:41:02Z</time>
      </trkpt>
      <trkpt lat="37.411184000" lon="-5.610814000">
        <ele>70.5</ele>
        <time>2020-10-16T15:41:04Z</time>
      </trkpt>
      <trkpt lat="37.411273000" lon="-5.610836000">
        <ele>70.5</ele>
        <time>2020-10-16T15:41:06Z</time>
      </trkpt>
      <trkpt lat="37.411360000" lon="-5.610865000">
        <ele>70.4</ele>
        <time>2020-10-16T15:41:08Z</time>
      </trkpt>
      <trkpt lat="37.411444000" lon="-5.610887000">
        <ele>70.3</ele>
        <time>2020-10-16T15:41:10Z</time>
      </trkpt>
      <trkpt lat="37.411529000" lon="-5.610912000">
        <ele>70.2</ele>
        <time>2020-10-16T15:41:12Z</time>
      </trkpt>
      <trkpt lat="37.411612000" lon="-5.610939000">
        <ele>70.1</ele>
        <time>2020-10-16T15:41:14Z</time>
      </trkpt>
      <trkpt lat="37.411696000" lon="-5.610964000">
        <ele>69.9</ele>
        <time>2020-10-16T15:41:16Z</time>
      </trkpt>
      <trkpt lat="37.411779000" lon="-5.610991000">
        <ele>69.7</ele>
        <time>2020-10-16T15:41:18Z</time>
      </trkpt>
      <trkpt lat="37.411860000" lon="-5.611020000">
        <ele>69.5</ele>
        <time>2020-10-16T15:41:20Z</time>
      </trkpt>
      <trkpt lat="37.411942000" lon="-5.611044000">
        <ele>69.3</ele>
        <time>2020-10-16T15:41:22Z</time>
      </trkpt>
      <trkpt lat="37.412024000" lon="-5.611068000">
        <ele>68.9</ele>
        <time>2020-10-16T15:41:24Z</time>
      </trkpt>
      <trkpt lat="37.412104000" lon="-5.611093000">
        <ele>68.5</ele>
        <time>2020-10-16T15:41:26Z</time>
      </trkpt>
      <trkpt lat="37.412183000" lon="-5.611119000">
        <ele>68.2</ele>
        <time>2020-10-16T15:41:28Z</time>
      </trkpt>
      <trkpt lat="37.412300000" lon="-5.611155000">
        <ele>67.9</ele>
        <time>2020-10-16T15:41:31Z</time>
      </trkpt>
      <trkpt lat="37.412380000" lon="-5.611179000">
        <ele>67.6</ele>
        <time>2020-10-16T15:41:33Z</time>
      </trkpt>
      <trkpt lat="37.412459000" lon="-5.611204000">
        <ele>67.5</ele>
        <time>2020-10-16T15:41:35Z</time>
      </trkpt>
      <trkpt lat="37.412539000" lon="-5.611229000">
        <ele>67.4</ele>
        <time>2020-10-16T15:41:37Z</time>
      </trkpt>
      <trkpt lat="37.412620000" lon="-5.611254000">
        <ele>67.4</ele>
        <time>2020-10-16T15:41:39Z</time>
      </trkpt>
      <trkpt lat="37.412703000" lon="-5.611279000">
        <ele>67.4</ele>
        <time>2020-10-16T15:41:41Z</time>
      </trkpt>
      <trkpt lat="37.412786000" lon="-5.611305000">
        <ele>67.3</ele>
        <time>2020-10-16T15:41:43Z</time>
      </trkpt>
      <trkpt lat="37.412871000" lon="-5.611332000">
        <ele>67.3</ele>
        <time>2020-10-16T15:41:45Z</time>
      </trkpt>
      <trkpt lat="37.412955000" lon="-5.611356000">
        <ele>67.3</ele>
        <time>2020-10-16T15:41:47Z</time>
      </trkpt>
      <trkpt lat="37.413041000" lon="-5.611380000">
        <ele>67.3</ele>
        <time>2020-10-16T15:41:49Z</time>
      </trkpt>
      <trkpt lat="37.413134000" lon="-5.611405000">
        <ele>67.3</ele>
        <time>2020-10-16T15:41:51Z</time>
      </trkpt>
      <trkpt lat="37.413223000" lon="-5.611432000">
        <ele>67.3</ele>
        <time>2020-10-16T15:41:53Z</time>
      </trkpt>
      <trkpt lat="37.413308000" lon="-5.611458000">
        <ele>67.4</ele>
        <time>2020-10-16T15:41:55Z</time>
      </trkpt>
      <trkpt lat="37.413398000" lon="-5.611489000">
        <ele>67.5</ele>
        <time>2020-10-16T15:41:57Z</time>
      </trkpt>
      <trkpt lat="37.413495000" lon="-5.611522000">
        <ele>67.5</ele>
        <time>2020-10-16T15:41:59Z</time>
      </trkpt>
      <trkpt lat="37.413590000" lon="-5.611549000">
        <ele>67.5</ele>
        <time>2020-10-16T15:42:01Z</time>
      </trkpt>
      <trkpt lat="37.413684000" lon="-5.611580000">
        <ele>67.5</ele>
        <time>2020-10-16T15:42:03Z</time>
      </trkpt>
      <trkpt lat="37.413772000" lon="-5.611609000">
        <ele>67.5</ele>
        <time>2020-10-16T15:42:05Z</time>
      </trkpt>
      <trkpt lat="37.413862000" lon="-5.611636000">
        <ele>67.5</ele>
        <time>2020-10-16T15:42:07Z</time>
      </trkpt>
      <trkpt lat="37.413950000" lon="-5.611661000">
        <ele>67.5</ele>
        <time>2020-10-16T15:42:09Z</time>
      </trkpt>
      <trkpt lat="37.414044000" lon="-5.611685000">
        <ele>67.5</ele>
        <time>2020-10-16T15:42:11Z</time>
      </trkpt>
      <trkpt lat="37.414142000" lon="-5.611716000">
        <ele>67.4</ele>
        <time>2020-10-16T15:42:13Z</time>
      </trkpt>
      <trkpt lat="37.414241000" lon="-5.611745000">
        <ele>67.3</ele>
        <time>2020-10-16T15:42:15Z</time>
      </trkpt>
      <trkpt lat="37.414332000" lon="-5.611774000">
        <ele>67.1</ele>
        <time>2020-10-16T15:42:17Z</time>
      </trkpt>
      <trkpt lat="37.414430000" lon="-5.611803000">
        <ele>67.0</ele>
        <time>2020-10-16T15:42:19Z</time>
      </trkpt>
      <trkpt lat="37.414529000" lon="-5.611833000">
        <ele>66.9</ele>
        <time>2020-10-16T15:42:21Z</time>
      </trkpt>
      <trkpt lat="37.414626000" lon="-5.611862000">
        <ele>66.9</ele>
        <time>2020-10-16T15:42:23Z</time>
      </trkpt>
      <trkpt lat="37.414726000" lon="-5.611885000">
        <ele>67.0</ele>
        <time>2020-10-16T15:42:25Z</time>
      </trkpt>
      <trkpt lat="37.414822000" lon="-5.611919000">
        <ele>67.1</ele>
        <time>2020-10-16T15:42:27Z</time>
      </trkpt>
      <trkpt lat="37.414916000" lon="-5.611945000">
        <ele>67.3</ele>
        <time>2020-10-16T15:42:29Z</time>
      </trkpt>
      <trkpt lat="37.415010000" lon="-5.611975000">
        <ele>67.5</ele>
        <time>2020-10-16T15:42:31Z</time>
      </trkpt>
      <trkpt lat="37.415104000" lon="-5.612007000">
        <ele>67.8</ele>
        <time>2020-10-16T15:42:33Z</time>
      </trkpt>
      <trkpt lat="37.415193000" lon="-5.612034000">
        <ele>68.2</ele>
        <time>2020-10-16T15:42:35Z</time>
      </trkpt>
      <trkpt lat="37.415290000" lon="-5.612063000">
        <ele>68.5</ele>
        <time>2020-10-16T15:42:37Z</time>
      </trkpt>
      <trkpt lat="37.415383000" lon="-5.612091000">
        <ele>68.9</ele>
        <time>2020-10-16T15:42:39Z</time>
      </trkpt>
      <trkpt lat="37.415478000" lon="-5.612119000">
        <ele>69.1</ele>
        <time>2020-10-16T15:42:41Z</time>
      </trkpt>
      <trkpt lat="37.415562000" lon="-5.612143000">
        <ele>69.3</ele>
        <time>2020-10-16T15:42:43Z</time>
      </trkpt>
      <trkpt lat="37.415658000" lon="-5.612170000">
        <ele>69.4</ele>
        <time>2020-10-16T15:42:45Z</time>
      </trkpt>
      <trkpt lat="37.415755000" lon="-5.612200000">
        <ele>69.4</ele>
        <time>2020-10-16T15:42:47Z</time>
      </trkpt>
      <trkpt lat="37.415858000" lon="-5.612228000">
        <ele>69.4</ele>
        <time>2020-10-16T15:42:49Z</time>
      </trkpt>
      <trkpt lat="37.415954000" lon="-5.612257000">
        <ele>69.4</ele>
        <time>2020-10-16T15:42:51Z</time>
      </trkpt>
      <trkpt lat="37.416048000" lon="-5.612289000">
        <ele>69.4</ele>
        <time>2020-10-16T15:42:53Z</time>
      </trkpt>
      <trkpt lat="37.416134000" lon="-5.612320000">
        <ele>69.4</ele>
        <time>2020-10-16T15:42:55Z</time>
      </trkpt>
      <trkpt lat="37.416219000" lon="-5.612343000">
        <ele>69.4</ele>
        <time>2020-10-16T15:42:57Z</time>
      </trkpt>
      <trkpt lat="37.416309000" lon="-5.612369000">
        <ele>69.4</ele>
        <time>2020-10-16T15:42:59Z</time>
      </trkpt>
      <trkpt lat="37.416395000" lon="-5.612396000">
        <ele>69.4</ele>
        <time>2020-10-16T15:43:01Z</time>
      </trkpt>
      <trkpt lat="37.416481000" lon="-5.612424000">
        <ele>69.5</ele>
        <time>2020-10-16T15:43:03Z</time>
      </trkpt>
      <trkpt lat="37.416561000" lon="-5.612455000">
        <ele>69.5</ele>
        <time>2020-10-16T15:43:05Z</time>
      </trkpt>
      <trkpt lat="37.416641000" lon="-5.612480000">
        <ele>69.6</ele>
        <time>2020-10-16T15:43:07Z</time>
      </trkpt>
      <trkpt lat="37.416725000" lon="-5.612505000">
        <ele>69.7</ele>
        <time>2020-10-16T15:43:09Z</time>
      </trkpt>
      <trkpt lat="37.416807000" lon="-5.612531000">
        <ele>69.8</ele>
        <time>2020-10-16T15:43:11Z</time>
      </trkpt>
      <trkpt lat="37.416892000" lon="-5.612551000">
        <ele>69.9</ele>
        <time>2020-10-16T15:43:13Z</time>
      </trkpt>
      <trkpt lat="37.416975000" lon="-5.612573000">
        <ele>70.0</ele>
        <time>2020-10-16T15:43:15Z</time>
      </trkpt>
      <trkpt lat="37.417057000" lon="-5.612599000">
        <ele>69.9</ele>
        <time>2020-10-16T15:43:17Z</time>
      </trkpt>
      <trkpt lat="37.417137000" lon="-5.612624000">
        <ele>69.8</ele>
        <time>2020-10-16T15:43:19Z</time>
      </trkpt>
      <trkpt lat="37.417217000" lon="-5.612649000">
        <ele>69.8</ele>
        <time>2020-10-16T15:43:21Z</time>
      </trkpt>
      <trkpt lat="37.417299000" lon="-5.612676000">
        <ele>69.8</ele>
        <time>2020-10-16T15:43:23Z</time>
      </trkpt>
      <trkpt lat="37.417381000" lon="-5.612700000">
        <ele>69.9</ele>
        <time>2020-10-16T15:43:25Z</time>
      </trkpt>
      <trkpt lat="37.417464000" lon="-5.612729000">
        <ele>70.0</ele>
        <time>2020-10-16T15:43:27Z</time>
      </trkpt>
      <trkpt lat="37.417548000" lon="-5.612757000">
        <ele>70.2</ele>
        <time>2020-10-16T15:43:29Z</time>
      </trkpt>
      <trkpt lat="37.417632000" lon="-5.612784000">
        <ele>70.4</ele>
        <time>2020-10-16T15:43:31Z</time>
      </trkpt>
      <trkpt lat="37.417715000" lon="-5.612811000">
        <ele>70.6</ele>
        <time>2020-10-16T15:43:33Z</time>
      </trkpt>
      <trkpt lat="37.417798000" lon="-5.612838000">
        <ele>70.9</ele>
        <time>2020-10-16T15:43:35Z</time>
      </trkpt>
      <trkpt lat="37.417882000" lon="-5.612863000">
        <ele>71.2</ele>
        <time>2020-10-16T15:43:37Z</time>
      </trkpt>
      <trkpt lat="37.417966000" lon="-5.612889000">
        <ele>71.5</ele>
        <time>2020-10-16T15:43:39Z</time>
      </trkpt>
      <trkpt lat="37.418049000" lon="-5.612912000">
        <ele>71.9</ele>
        <time>2020-10-16T15:43:41Z</time>
      </trkpt>
      <trkpt lat="37.418132000" lon="-5.612936000">
        <ele>72.1</ele>
        <time>2020-10-16T15:43:43Z</time>
      </trkpt>
      <trkpt lat="37.418215000" lon="-5.612960000">
        <ele>72.3</ele>
        <time>2020-10-16T15:43:45Z</time>
      </trkpt>
      <trkpt lat="37.418296000" lon="-5.612986000">
        <ele>72.3</ele>
        <time>2020-10-16T15:43:47Z</time>
      </trkpt>
      <trkpt lat="37.418380000" lon="-5.613010000">
        <ele>72.3</ele>
        <time>2020-10-16T15:43:49Z</time>
      </trkpt>
      <trkpt lat="37.418466000" lon="-5.613033000">
        <ele>72.1</ele>
        <time>2020-10-16T15:43:51Z</time>
      </trkpt>
      <trkpt lat="37.418551000" lon="-5.613059000">
        <ele>71.9</ele>
        <time>2020-10-16T15:43:53Z</time>
      </trkpt>
      <trkpt lat="37.418637000" lon="-5.613085000">
        <ele>71.6</ele>
        <time>2020-10-16T15:43:55Z</time>
      </trkpt>
      <trkpt lat="37.418724000" lon="-5.613110000">
        <ele>71.3</ele>
        <time>2020-10-16T15:43:57Z</time>
      </trkpt>
      <trkpt lat="37.418810000" lon="-5.613136000">
        <ele>71.0</ele>
        <time>2020-10-16T15:43:59Z</time>
      </trkpt>
      <trkpt lat="37.418897000" lon="-5.613160000">
        <ele>70.7</ele>
        <time>2020-10-16T15:44:01Z</time>
      </trkpt>
      <trkpt lat="37.418982000" lon="-5.613185000">
        <ele>70.5</ele>
        <time>2020-10-16T15:44:03Z</time>
      </trkpt>
      <trkpt lat="37.419065000" lon="-5.613213000">
        <ele>70.5</ele>
        <time>2020-10-16T15:44:05Z</time>
      </trkpt>
      <trkpt lat="37.419158000" lon="-5.613240000">
        <ele>70.5</ele>
        <time>2020-10-16T15:44:07Z</time>
      </trkpt>
      <trkpt lat="37.419244000" lon="-5.613270000">
        <ele>70.6</ele>
        <time>2020-10-16T15:44:09Z</time>
      </trkpt>
      <trkpt lat="37.419330000" lon="-5.613296000">
        <ele>70.8</ele>
        <time>2020-10-16T15:44:11Z</time>
      </trkpt>
      <trkpt lat="37.419414000" lon="-5.613322000">
        <ele>71.1</ele>
        <time>2020-10-16T15:44:13Z</time>
      </trkpt>
      <trkpt lat="37.419501000" lon="-5.613346000">
        <ele>71.5</ele>
        <time>2020-10-16T15:44:15Z</time>
      </trkpt>
      <trkpt lat="37.419589000" lon="-5.613372000">
        <ele>71.8</ele>
        <time>2020-10-16T15:44:17Z</time>
      </trkpt>
      <trkpt lat="37.419677000" lon="-5.613400000">
        <ele>72.3</ele>
        <time>2020-10-16T15:44:19Z</time>
      </trkpt>
      <trkpt lat="37.419772000" lon="-5.613428000">
        <ele>72.6</ele>
        <time>2020-10-16T15:44:21Z</time>
      </trkpt>
      <trkpt lat="37.419871000" lon="-5.613459000">
        <ele>73.0</ele>
        <time>2020-10-16T15:44:23Z</time>
      </trkpt>
      <trkpt lat="37.419955000" lon="-5.613488000">
        <ele>73.3</ele>
        <time>2020-10-16T15:44:25Z</time>
      </trkpt>
      <trkpt lat="37.420040000" lon="-5.613516000">
        <ele>73.5</ele>
        <time>2020-10-16T15:44:27Z</time>
      </trkpt>
      <trkpt lat="37.420130000" lon="-5.613541000">
        <ele>73.5</ele>
        <time>2020-10-16T15:44:29Z</time>
      </trkpt>
      <trkpt lat="37.420217000" lon="-5.613569000">
        <ele>73.5</ele>
        <time>2020-10-16T15:44:31Z</time>
      </trkpt>
      <trkpt lat="37.420307000" lon="-5.613593000">
        <ele>73.5</ele>
        <time>2020-10-16T15:44:33Z</time>
      </trkpt>
      <trkpt lat="37.420398000" lon="-5.613623000">
        <ele>73.5</ele>
        <time>2020-10-16T15:44:35Z</time>
      </trkpt>
      <trkpt lat="37.420487000" lon="-5.613652000">
        <ele>73.5</ele>
        <time>2020-10-16T15:44:37Z</time>
      </trkpt>
      <trkpt lat="37.420577000" lon="-5.613684000">
        <ele>73.4</ele>
        <time>2020-10-16T15:44:39Z</time>
      </trkpt>
      <trkpt lat="37.420670000" lon="-5.613715000">
        <ele>73.3</ele>
        <time>2020-10-16T15:44:41Z</time>
      </trkpt>
      <trkpt lat="37.420761000" lon="-5.613750000">
        <ele>73.2</ele>
        <time>2020-10-16T15:44:43Z</time>
      </trkpt>
      <trkpt lat="37.420850000" lon="-5.613787000">
        <ele>73.1</ele>
        <time>2020-10-16T15:44:45Z</time>
      </trkpt>
      <trkpt lat="37.420936000" lon="-5.613828000">
        <ele>72.9</ele>
        <time>2020-10-16T15:44:47Z</time>
      </trkpt>
      <trkpt lat="37.421019000" lon="-5.613873000">
        <ele>72.8</ele>
        <time>2020-10-16T15:44:49Z</time>
      </trkpt>
      <trkpt lat="37.421109000" lon="-5.613917000">
        <ele>72.8</ele>
        <time>2020-10-16T15:44:51Z</time>
      </trkpt>
      <trkpt lat="37.421194000" lon="-5.613958000">
        <ele>72.8</ele>
        <time>2020-10-16T15:44:53Z</time>
      </trkpt>
      <trkpt lat="37.421281000" lon="-5.613999000">
        <ele>72.8</ele>
        <time>2020-10-16T15:44:55Z</time>
      </trkpt>
      <trkpt lat="37.421362000" lon="-5.614040000">
        <ele>72.7</ele>
        <time>2020-10-16T15:44:57Z</time>
      </trkpt>
      <trkpt lat="37.421448000" lon="-5.614089000">
        <ele>72.6</ele>
        <time>2020-10-16T15:44:59Z</time>
      </trkpt>
      <trkpt lat="37.421526000" lon="-5.614133000">
        <ele>72.5</ele>
        <time>2020-10-16T15:45:01Z</time>
      </trkpt>
      <trkpt lat="37.421605000" lon="-5.614172000">
        <ele>72.5</ele>
        <time>2020-10-16T15:45:03Z</time>
      </trkpt>
      <trkpt lat="37.421689000" lon="-5.614215000">
        <ele>72.3</ele>
        <time>2020-10-16T15:45:05Z</time>
      </trkpt>
      <trkpt lat="37.421768000" lon="-5.614254000">
        <ele>72.1</ele>
        <time>2020-10-16T15:45:07Z</time>
      </trkpt>
      <trkpt lat="37.421848000" lon="-5.614299000">
        <ele>72.0</ele>
        <time>2020-10-16T15:45:09Z</time>
      </trkpt>
      <trkpt lat="37.421939000" lon="-5.614342000">
        <ele>71.9</ele>
        <time>2020-10-16T15:45:11Z</time>
      </trkpt>
      <trkpt lat="37.422028000" lon="-5.614382000">
        <ele>71.6</ele>
        <time>2020-10-16T15:45:14Z</time>
      </trkpt>
      <trkpt lat="37.422114000" lon="-5.614432000">
        <ele>71.5</ele>
        <time>2020-10-16T15:45:15Z</time>
      </trkpt>
      <trkpt lat="37.422197000" lon="-5.614481000">
        <ele>71.3</ele>
        <time>2020-10-16T15:45:17Z</time>
      </trkpt>
      <trkpt lat="37.422295000" lon="-5.614526000">
        <ele>71.3</ele>
        <time>2020-10-16T15:45:19Z</time>
      </trkpt>
      <trkpt lat="37.422393000" lon="-5.614576000">
        <ele>71.3</ele>
        <time>2020-10-16T15:45:21Z</time>
      </trkpt>
      <trkpt lat="37.422499000" lon="-5.614631000">
        <ele>71.3</ele>
        <time>2020-10-16T15:45:23Z</time>
      </trkpt>
      <trkpt lat="37.422605000" lon="-5.614683000">
        <ele>71.3</ele>
        <time>2020-10-16T15:45:25Z</time>
      </trkpt>
      <trkpt lat="37.422709000" lon="-5.614733000">
        <ele>71.3</ele>
        <time>2020-10-16T15:45:27Z</time>
      </trkpt>
      <trkpt lat="37.422812000" lon="-5.614788000">
        <ele>71.3</ele>
        <time>2020-10-16T15:45:29Z</time>
      </trkpt>
      <trkpt lat="37.422912000" lon="-5.614838000">
        <ele>71.3</ele>
        <time>2020-10-16T15:45:31Z</time>
      </trkpt>
      <trkpt lat="37.423016000" lon="-5.614891000">
        <ele>71.2</ele>
        <time>2020-10-16T15:45:33Z</time>
      </trkpt>
      <trkpt lat="37.423126000" lon="-5.614949000">
        <ele>71.2</ele>
        <time>2020-10-16T15:45:35Z</time>
      </trkpt>
      <trkpt lat="37.423242000" lon="-5.615001000">
        <ele>71.1</ele>
        <time>2020-10-16T15:45:37Z</time>
      </trkpt>
      <trkpt lat="37.423351000" lon="-5.615059000">
        <ele>71.0</ele>
        <time>2020-10-16T15:45:39Z</time>
      </trkpt>
      <trkpt lat="37.423464000" lon="-5.615119000">
        <ele>70.8</ele>
        <time>2020-10-16T15:45:41Z</time>
      </trkpt>
      <trkpt lat="37.423572000" lon="-5.615178000">
        <ele>70.5</ele>
        <time>2020-10-16T15:45:43Z</time>
      </trkpt>
      <trkpt lat="37.423681000" lon="-5.615229000">
        <ele>70.3</ele>
        <time>2020-10-16T15:45:45Z</time>
      </trkpt>
      <trkpt lat="37.423787000" lon="-5.615279000">
        <ele>70.0</ele>
        <time>2020-10-16T15:45:47Z</time>
      </trkpt>
      <trkpt lat="37.423885000" lon="-5.615332000">
        <ele>69.8</ele>
        <time>2020-10-16T15:45:49Z</time>
      </trkpt>
      <trkpt lat="37.423976000" lon="-5.615381000">
        <ele>69.6</ele>
        <time>2020-10-16T15:45:51Z</time>
      </trkpt>
      <trkpt lat="37.424074000" lon="-5.615434000">
        <ele>69.5</ele>
        <time>2020-10-16T15:45:53Z</time>
      </trkpt>
      <trkpt lat="37.424177000" lon="-5.615485000">
        <ele>69.4</ele>
        <time>2020-10-16T15:45:55Z</time>
      </trkpt>
      <trkpt lat="37.424281000" lon="-5.615533000">
        <ele>69.3</ele>
        <time>2020-10-16T15:45:57Z</time>
      </trkpt>
      <trkpt lat="37.424394000" lon="-5.615589000">
        <ele>69.2</ele>
        <time>2020-10-16T15:45:59Z</time>
      </trkpt>
      <trkpt lat="37.424513000" lon="-5.615643000">
        <ele>69.1</ele>
        <time>2020-10-16T15:46:01Z</time>
      </trkpt>
      <trkpt lat="37.424629000" lon="-5.615702000">
        <ele>69.0</ele>
        <time>2020-10-16T15:46:03Z</time>
      </trkpt>
      <trkpt lat="37.424739000" lon="-5.615758000">
        <ele>69.1</ele>
        <time>2020-10-16T15:46:05Z</time>
      </trkpt>
      <trkpt lat="37.424847000" lon="-5.615819000">
        <ele>69.2</ele>
        <time>2020-10-16T15:46:07Z</time>
      </trkpt>
      <trkpt lat="37.424951000" lon="-5.615874000">
        <ele>69.3</ele>
        <time>2020-10-16T15:46:09Z</time>
      </trkpt>
      <trkpt lat="37.425057000" lon="-5.615933000">
        <ele>69.4</ele>
        <time>2020-10-16T15:46:11Z</time>
      </trkpt>
      <trkpt lat="37.425165000" lon="-5.615992000">
        <ele>69.5</ele>
        <time>2020-10-16T15:46:13Z</time>
      </trkpt>
      <trkpt lat="37.425270000" lon="-5.616045000">
        <ele>69.7</ele>
        <time>2020-10-16T15:46:15Z</time>
      </trkpt>
      <trkpt lat="37.425370000" lon="-5.616100000">
        <ele>69.9</ele>
        <time>2020-10-16T15:46:17Z</time>
      </trkpt>
      <trkpt lat="37.425470000" lon="-5.616158000">
        <ele>70.2</ele>
        <time>2020-10-16T15:46:19Z</time>
      </trkpt>
      <trkpt lat="37.425569000" lon="-5.616223000">
        <ele>70.5</ele>
        <time>2020-10-16T15:46:21Z</time>
      </trkpt>
      <trkpt lat="37.425664000" lon="-5.616281000">
        <ele>70.7</ele>
        <time>2020-10-16T15:46:23Z</time>
      </trkpt>
      <trkpt lat="37.425755000" lon="-5.616342000">
        <ele>71.0</ele>
        <time>2020-10-16T15:46:25Z</time>
      </trkpt>
      <trkpt lat="37.425846000" lon="-5.616398000">
        <ele>71.3</ele>
        <time>2020-10-16T15:46:27Z</time>
      </trkpt>
      <trkpt lat="37.425934000" lon="-5.616453000">
        <ele>71.5</ele>
        <time>2020-10-16T15:46:29Z</time>
      </trkpt>
      <trkpt lat="37.426015000" lon="-5.616515000">
        <ele>71.8</ele>
        <time>2020-10-16T15:46:31Z</time>
      </trkpt>
      <trkpt lat="37.426098000" lon="-5.616572000">
        <ele>72.1</ele>
        <time>2020-10-16T15:46:33Z</time>
      </trkpt>
      <trkpt lat="37.426181000" lon="-5.616628000">
        <ele>72.3</ele>
        <time>2020-10-16T15:46:35Z</time>
      </trkpt>
      <trkpt lat="37.426258000" lon="-5.616675000">
        <ele>72.5</ele>
        <time>2020-10-16T15:46:37Z</time>
      </trkpt>
      <trkpt lat="37.426360000" lon="-5.616740000">
        <ele>72.6</ele>
        <time>2020-10-16T15:46:40Z</time>
      </trkpt>
      <trkpt lat="37.426465000" lon="-5.616813000">
        <ele>72.7</ele>
        <time>2020-10-16T15:46:43Z</time>
      </trkpt>
      <trkpt lat="37.426570000" lon="-5.616890000">
        <ele>72.8</ele>
        <time>2020-10-16T15:46:46Z</time>
      </trkpt>
      <trkpt lat="37.426647000" lon="-5.616944000">
        <ele>72.9</ele>
        <time>2020-10-16T15:46:48Z</time>
      </trkpt>
      <trkpt lat="37.426724000" lon="-5.616997000">
        <ele>73.1</ele>
        <time>2020-10-16T15:46:50Z</time>
      </trkpt>
      <trkpt lat="37.426796000" lon="-5.617053000">
        <ele>73.2</ele>
        <time>2020-10-16T15:46:52Z</time>
      </trkpt>
      <trkpt lat="37.426894000" lon="-5.617139000">
        <ele>73.3</ele>
        <time>2020-10-16T15:46:55Z</time>
      </trkpt>
      <trkpt lat="37.426982000" lon="-5.617217000">
        <ele>73.4</ele>
        <time>2020-10-16T15:46:58Z</time>
      </trkpt>
      <trkpt lat="37.427075000" lon="-5.617310000">
        <ele>73.4</ele>
        <time>2020-10-16T15:47:01Z</time>
      </trkpt>
      <trkpt lat="37.427139000" lon="-5.617379000">
        <ele>73.4</ele>
        <time>2020-10-16T15:47:03Z</time>
      </trkpt>
      <trkpt lat="37.427210000" lon="-5.617453000">
        <ele>73.4</ele>
        <time>2020-10-16T15:47:05Z</time>
      </trkpt>
      <trkpt lat="37.427280000" lon="-5.617528000">
        <ele>73.3</ele>
        <time>2020-10-16T15:47:07Z</time>
      </trkpt>
      <trkpt lat="37.427356000" lon="-5.617607000">
        <ele>73.2</ele>
        <time>2020-10-16T15:47:09Z</time>
      </trkpt>
      <trkpt lat="37.427432000" lon="-5.617690000">
        <ele>73.1</ele>
        <time>2020-10-16T15:47:11Z</time>
      </trkpt>
      <trkpt lat="37.427509000" lon="-5.617768000">
        <ele>73.0</ele>
        <time>2020-10-16T15:47:13Z</time>
      </trkpt>
      <trkpt lat="37.427585000" lon="-5.617852000">
        <ele>72.7</ele>
        <time>2020-10-16T15:47:15Z</time>
      </trkpt>
      <trkpt lat="37.427655000" lon="-5.617928000">
        <ele>72.5</ele>
        <time>2020-10-16T15:47:17Z</time>
      </trkpt>
      <trkpt lat="37.427732000" lon="-5.618014000">
        <ele>72.2</ele>
        <time>2020-10-16T15:47:19Z</time>
      </trkpt>
      <trkpt lat="37.427818000" lon="-5.618104000">
        <ele>71.9</ele>
        <time>2020-10-16T15:47:21Z</time>
      </trkpt>
      <trkpt lat="37.427897000" lon="-5.618184000">
        <ele>71.7</ele>
        <time>2020-10-16T15:47:23Z</time>
      </trkpt>
      <trkpt lat="37.427973000" lon="-5.618260000">
        <ele>71.5</ele>
        <time>2020-10-16T15:47:25Z</time>
      </trkpt>
      <trkpt lat="37.428042000" lon="-5.618334000">
        <ele>71.4</ele>
        <time>2020-10-16T15:47:27Z</time>
      </trkpt>
      <trkpt lat="37.428105000" lon="-5.618406000">
        <ele>71.3</ele>
        <time>2020-10-16T15:47:29Z</time>
      </trkpt>
      <trkpt lat="37.428169000" lon="-5.618479000">
        <ele>71.2</ele>
        <time>2020-10-16T15:47:31Z</time>
      </trkpt>
      <trkpt lat="37.428240000" lon="-5.618556000">
        <ele>71.1</ele>
        <time>2020-10-16T15:47:33Z</time>
      </trkpt>
      <trkpt lat="37.428321000" lon="-5.618643000">
        <ele>71.0</ele>
        <time>2020-10-16T15:47:35Z</time>
      </trkpt>
      <trkpt lat="37.428399000" lon="-5.618730000">
        <ele>71.0</ele>
        <time>2020-10-16T15:47:37Z</time>
      </trkpt>
      <trkpt lat="37.428480000" lon="-5.618812000">
        <ele>71.1</ele>
        <time>2020-10-16T15:47:39Z</time>
      </trkpt>
      <trkpt lat="37.428557000" lon="-5.618893000">
        <ele>71.2</ele>
        <time>2020-10-16T15:47:41Z</time>
      </trkpt>
      <trkpt lat="37.428627000" lon="-5.618969000">
        <ele>71.3</ele>
        <time>2020-10-16T15:47:43Z</time>
      </trkpt>
      <trkpt lat="37.428692000" lon="-5.619042000">
        <ele>71.3</ele>
        <time>2020-10-16T15:47:45Z</time>
      </trkpt>
      <trkpt lat="37.428769000" lon="-5.619122000">
        <ele>71.3</ele>
        <time>2020-10-16T15:47:47Z</time>
      </trkpt>
      <trkpt lat="37.428847000" lon="-5.619205000">
        <ele>71.3</ele>
        <time>2020-10-16T15:47:49Z</time>
      </trkpt>
      <trkpt lat="37.428924000" lon="-5.619293000">
        <ele>71.3</ele>
        <time>2020-10-16T15:47:51Z</time>
      </trkpt>
      <trkpt lat="37.428999000" lon="-5.619365000">
        <ele>71.3</ele>
        <time>2020-10-16T15:47:53Z</time>
      </trkpt>
      <trkpt lat="37.429064000" lon="-5.619433000">
        <ele>71.3</ele>
        <time>2020-10-16T15:47:55Z</time>
      </trkpt>
      <trkpt lat="37.429127000" lon="-5.619504000">
        <ele>71.3</ele>
        <time>2020-10-16T15:47:57Z</time>
      </trkpt>
      <trkpt lat="37.429220000" lon="-5.619604000">
        <ele>71.3</ele>
        <time>2020-10-16T15:48:00Z</time>
      </trkpt>
      <trkpt lat="37.429285000" lon="-5.619670000">
        <ele>71.3</ele>
        <time>2020-10-16T15:48:02Z</time>
      </trkpt>
      <trkpt lat="37.429350000" lon="-5.619748000">
        <ele>71.3</ele>
        <time>2020-10-16T15:48:04Z</time>
      </trkpt>
      <trkpt lat="37.429417000" lon="-5.619819000">
        <ele>71.3</ele>
        <time>2020-10-16T15:48:06Z</time>
      </trkpt>
      <trkpt lat="37.429485000" lon="-5.619891000">
        <ele>71.5</ele>
        <time>2020-10-16T15:48:08Z</time>
      </trkpt>
      <trkpt lat="37.429559000" lon="-5.619971000">
        <ele>71.6</ele>
        <time>2020-10-16T15:48:10Z</time>
      </trkpt>
      <trkpt lat="37.429625000" lon="-5.620046000">
        <ele>71.8</ele>
        <time>2020-10-16T15:48:12Z</time>
      </trkpt>
      <trkpt lat="37.429694000" lon="-5.620125000">
        <ele>72.0</ele>
        <time>2020-10-16T15:48:14Z</time>
      </trkpt>
      <trkpt lat="37.429767000" lon="-5.620204000">
        <ele>72.2</ele>
        <time>2020-10-16T15:48:16Z</time>
      </trkpt>
      <trkpt lat="37.429840000" lon="-5.620282000">
        <ele>72.4</ele>
        <time>2020-10-16T15:48:18Z</time>
      </trkpt>
      <trkpt lat="37.429909000" lon="-5.620354000">
        <ele>72.5</ele>
        <time>2020-10-16T15:48:20Z</time>
      </trkpt>
      <trkpt lat="37.429982000" lon="-5.620431000">
        <ele>72.7</ele>
        <time>2020-10-16T15:48:22Z</time>
      </trkpt>
      <trkpt lat="37.430052000" lon="-5.620505000">
        <ele>72.8</ele>
        <time>2020-10-16T15:48:24Z</time>
      </trkpt>
      <trkpt lat="37.430124000" lon="-5.620588000">
        <ele>72.9</ele>
        <time>2020-10-16T15:48:26Z</time>
      </trkpt>
      <trkpt lat="37.430200000" lon="-5.620665000">
        <ele>73.0</ele>
        <time>2020-10-16T15:48:28Z</time>
      </trkpt>
      <trkpt lat="37.430272000" lon="-5.620744000">
        <ele>73.0</ele>
        <time>2020-10-16T15:48:30Z</time>
      </trkpt>
      <trkpt lat="37.430344000" lon="-5.620818000">
        <ele>73.0</ele>
        <time>2020-10-16T15:48:32Z</time>
      </trkpt>
      <trkpt lat="37.430417000" lon="-5.620895000">
        <ele>72.9</ele>
        <time>2020-10-16T15:48:34Z</time>
      </trkpt>
      <trkpt lat="37.430489000" lon="-5.620975000">
        <ele>72.8</ele>
        <time>2020-10-16T15:48:36Z</time>
      </trkpt>
      <trkpt lat="37.430561000" lon="-5.621052000">
        <ele>72.6</ele>
        <time>2020-10-16T15:48:38Z</time>
      </trkpt>
      <trkpt lat="37.430631000" lon="-5.621124000">
        <ele>72.5</ele>
        <time>2020-10-16T15:48:40Z</time>
      </trkpt>
      <trkpt lat="37.430702000" lon="-5.621204000">
        <ele>72.2</ele>
        <time>2020-10-16T15:48:42Z</time>
      </trkpt>
      <trkpt lat="37.430766000" lon="-5.621277000">
        <ele>71.8</ele>
        <time>2020-10-16T15:48:44Z</time>
      </trkpt>
      <trkpt lat="37.430839000" lon="-5.621349000">
        <ele>71.5</ele>
        <time>2020-10-16T15:48:46Z</time>
      </trkpt>
      <trkpt lat="37.430908000" lon="-5.621425000">
        <ele>71.1</ele>
        <time>2020-10-16T15:48:48Z</time>
      </trkpt>
      <trkpt lat="37.430977000" lon="-5.621503000">
        <ele>70.7</ele>
        <time>2020-10-16T15:48:50Z</time>
      </trkpt>
      <trkpt lat="37.431052000" lon="-5.621581000">
        <ele>70.4</ele>
        <time>2020-10-16T15:48:52Z</time>
      </trkpt>
      <trkpt lat="37.431125000" lon="-5.621656000">
        <ele>70.1</ele>
        <time>2020-10-16T15:48:54Z</time>
      </trkpt>
      <trkpt lat="37.431200000" lon="-5.621727000">
        <ele>69.9</ele>
        <time>2020-10-16T15:48:56Z</time>
      </trkpt>
      <trkpt lat="37.431279000" lon="-5.621797000">
        <ele>69.7</ele>
        <time>2020-10-16T15:48:58Z</time>
      </trkpt>
      <trkpt lat="37.431361000" lon="-5.621863000">
        <ele>69.7</ele>
        <time>2020-10-16T15:49:00Z</time>
      </trkpt>
      <trkpt lat="37.431443000" lon="-5.621920000">
        <ele>69.7</ele>
        <time>2020-10-16T15:49:02Z</time>
      </trkpt>
      <trkpt lat="37.431525000" lon="-5.621967000">
        <ele>69.8</ele>
        <time>2020-10-16T15:49:04Z</time>
      </trkpt>
      <trkpt lat="37.431612000" lon="-5.622018000">
        <ele>70.0</ele>
        <time>2020-10-16T15:49:06Z</time>
      </trkpt>
      <trkpt lat="37.431697000" lon="-5.622066000">
        <ele>70.3</ele>
        <time>2020-10-16T15:49:08Z</time>
      </trkpt>
      <trkpt lat="37.431777000" lon="-5.622116000">
        <ele>70.5</ele>
        <time>2020-10-16T15:49:10Z</time>
      </trkpt>
      <trkpt lat="37.431863000" lon="-5.622166000">
        <ele>70.8</ele>
        <time>2020-10-16T15:49:12Z</time>
      </trkpt>
      <trkpt lat="37.431949000" lon="-5.622218000">
        <ele>71.2</ele>
        <time>2020-10-16T15:49:14Z</time>
      </trkpt>
      <trkpt lat="37.432035000" lon="-5.622264000">
        <ele>71.5</ele>
        <time>2020-10-16T15:49:16Z</time>
      </trkpt>
      <trkpt lat="37.432121000" lon="-5.622312000">
        <ele>71.7</ele>
        <time>2020-10-16T15:49:18Z</time>
      </trkpt>
      <trkpt lat="37.432199000" lon="-5.622364000">
        <ele>72.0</ele>
        <time>2020-10-16T15:49:20Z</time>
      </trkpt>
      <trkpt lat="37.432283000" lon="-5.622405000">
        <ele>72.2</ele>
        <time>2020-10-16T15:49:22Z</time>
      </trkpt>
      <trkpt lat="37.432358000" lon="-5.622448000">
        <ele>72.4</ele>
        <time>2020-10-16T15:49:24Z</time>
      </trkpt>
      <trkpt lat="37.432440000" lon="-5.622505000">
        <ele>72.5</ele>
        <time>2020-10-16T15:49:26Z</time>
      </trkpt>
      <trkpt lat="37.432528000" lon="-5.622556000">
        <ele>72.8</ele>
        <time>2020-10-16T15:49:28Z</time>
      </trkpt>
      <trkpt lat="37.432613000" lon="-5.622604000">
        <ele>73.0</ele>
        <time>2020-10-16T15:49:30Z</time>
      </trkpt>
      <trkpt lat="37.432698000" lon="-5.622650000">
        <ele>73.2</ele>
        <time>2020-10-16T15:49:32Z</time>
      </trkpt>
      <trkpt lat="37.432782000" lon="-5.622704000">
        <ele>73.4</ele>
        <time>2020-10-16T15:49:34Z</time>
      </trkpt>
      <trkpt lat="37.432873000" lon="-5.622754000">
        <ele>73.5</ele>
        <time>2020-10-16T15:49:36Z</time>
      </trkpt>
      <trkpt lat="37.432957000" lon="-5.622803000">
        <ele>73.5</ele>
        <time>2020-10-16T15:49:38Z</time>
      </trkpt>
      <trkpt lat="37.433041000" lon="-5.622855000">
        <ele>73.6</ele>
        <time>2020-10-16T15:49:40Z</time>
      </trkpt>
      <trkpt lat="37.433127000" lon="-5.622900000">
        <ele>73.6</ele>
        <time>2020-10-16T15:49:42Z</time>
      </trkpt>
      <trkpt lat="37.433215000" lon="-5.622946000">
        <ele>73.7</ele>
        <time>2020-10-16T15:49:44Z</time>
      </trkpt>
      <trkpt lat="37.433302000" lon="-5.622992000">
        <ele>73.8</ele>
        <time>2020-10-16T15:49:46Z</time>
      </trkpt>
      <trkpt lat="37.433386000" lon="-5.623044000">
        <ele>73.9</ele>
        <time>2020-10-16T15:49:48Z</time>
      </trkpt>
      <trkpt lat="37.433472000" lon="-5.623094000">
        <ele>73.9</ele>
        <time>2020-10-16T15:49:50Z</time>
      </trkpt>
      <trkpt lat="37.433559000" lon="-5.623145000">
        <ele>74.0</ele>
        <time>2020-10-16T15:49:52Z</time>
      </trkpt>
      <trkpt lat="37.433645000" lon="-5.623198000">
        <ele>74.1</ele>
        <time>2020-10-16T15:49:54Z</time>
      </trkpt>
      <trkpt lat="37.433733000" lon="-5.623248000">
        <ele>74.2</ele>
        <time>2020-10-16T15:49:56Z</time>
      </trkpt>
      <trkpt lat="37.433814000" lon="-5.623294000">
        <ele>74.3</ele>
        <time>2020-10-16T15:49:58Z</time>
      </trkpt>
      <trkpt lat="37.433894000" lon="-5.623342000">
        <ele>74.4</ele>
        <time>2020-10-16T15:50:00Z</time>
      </trkpt>
      <trkpt lat="37.433972000" lon="-5.623388000">
        <ele>74.5</ele>
        <time>2020-10-16T15:50:02Z</time>
      </trkpt>
      <trkpt lat="37.434048000" lon="-5.623431000">
        <ele>74.6</ele>
        <time>2020-10-16T15:50:04Z</time>
      </trkpt>
      <trkpt lat="37.434121000" lon="-5.623479000">
        <ele>74.7</ele>
        <time>2020-10-16T15:50:06Z</time>
      </trkpt>
      <trkpt lat="37.434208000" lon="-5.623527000">
        <ele>74.7</ele>
        <time>2020-10-16T15:50:08Z</time>
      </trkpt>
      <trkpt lat="37.434304000" lon="-5.623586000">
        <ele>74.7</ele>
        <time>2020-10-16T15:50:10Z</time>
      </trkpt>
      <trkpt lat="37.434385000" lon="-5.623631000">
        <ele>74.6</ele>
        <time>2020-10-16T15:50:12Z</time>
      </trkpt>
      <trkpt lat="37.434461000" lon="-5.623677000">
        <ele>74.5</ele>
        <time>2020-10-16T15:50:14Z</time>
      </trkpt>
      <trkpt lat="37.434571000" lon="-5.623736000">
        <ele>74.2</ele>
        <time>2020-10-16T15:50:17Z</time>
      </trkpt>
      <trkpt lat="37.434659000" lon="-5.623782000">
        <ele>73.9</ele>
        <time>2020-10-16T15:50:19Z</time>
      </trkpt>
      <trkpt lat="37.434740000" lon="-5.623831000">
        <ele>73.6</ele>
        <time>2020-10-16T15:50:21Z</time>
      </trkpt>
      <trkpt lat="37.434823000" lon="-5.623880000">
        <ele>73.3</ele>
        <time>2020-10-16T15:50:23Z</time>
      </trkpt>
      <trkpt lat="37.434914000" lon="-5.623933000">
        <ele>73.0</ele>
        <time>2020-10-16T15:50:25Z</time>
      </trkpt>
      <trkpt lat="37.435001000" lon="-5.623982000">
        <ele>72.8</ele>
        <time>2020-10-16T15:50:27Z</time>
      </trkpt>
      <trkpt lat="37.435089000" lon="-5.624031000">
        <ele>72.7</ele>
        <time>2020-10-16T15:50:29Z</time>
      </trkpt>
      <trkpt lat="37.435173000" lon="-5.624082000">
        <ele>72.7</ele>
        <time>2020-10-16T15:50:31Z</time>
      </trkpt>
      <trkpt lat="37.435255000" lon="-5.624134000">
        <ele>72.8</ele>
        <time>2020-10-16T15:50:33Z</time>
      </trkpt>
      <trkpt lat="37.435340000" lon="-5.624185000">
        <ele>73.1</ele>
        <time>2020-10-16T15:50:35Z</time>
      </trkpt>
      <trkpt lat="37.435427000" lon="-5.624230000">
        <ele>73.5</ele>
        <time>2020-10-16T15:50:37Z</time>
      </trkpt>
      <trkpt lat="37.435511000" lon="-5.624277000">
        <ele>73.8</ele>
        <time>2020-10-16T15:50:39Z</time>
      </trkpt>
      <trkpt lat="37.435593000" lon="-5.624331000">
        <ele>74.2</ele>
        <time>2020-10-16T15:50:41Z</time>
      </trkpt>
      <trkpt lat="37.435677000" lon="-5.624384000">
        <ele>74.5</ele>
        <time>2020-10-16T15:50:43Z</time>
      </trkpt>
      <trkpt lat="37.435759000" lon="-5.624439000">
        <ele>74.8</ele>
        <time>2020-10-16T15:50:45Z</time>
      </trkpt>
      <trkpt lat="37.435848000" lon="-5.624490000">
        <ele>75.0</ele>
        <time>2020-10-16T15:50:47Z</time>
      </trkpt>
      <trkpt lat="37.435930000" lon="-5.624538000">
        <ele>75.1</ele>
        <time>2020-10-16T15:50:49Z</time>
      </trkpt>
      <trkpt lat="37.436010000" lon="-5.624594000">
        <ele>75.1</ele>
        <time>2020-10-16T15:50:51Z</time>
      </trkpt>
      <trkpt lat="37.436094000" lon="-5.624653000">
        <ele>75.1</ele>
        <time>2020-10-16T15:50:53Z</time>
      </trkpt>
      <trkpt lat="37.436174000" lon="-5.624709000">
        <ele>75.1</ele>
        <time>2020-10-16T15:50:55Z</time>
      </trkpt>
      <trkpt lat="37.436257000" lon="-5.624774000">
        <ele>75.0</ele>
        <time>2020-10-16T15:50:57Z</time>
      </trkpt>
      <trkpt lat="37.436337000" lon="-5.624832000">
        <ele>74.7</ele>
        <time>2020-10-16T15:50:59Z</time>
      </trkpt>
      <trkpt lat="37.436416000" lon="-5.624894000">
        <ele>74.5</ele>
        <time>2020-10-16T15:51:01Z</time>
      </trkpt>
      <trkpt lat="37.436493000" lon="-5.624962000">
        <ele>74.4</ele>
        <time>2020-10-16T15:51:03Z</time>
      </trkpt>
      <trkpt lat="37.436573000" lon="-5.625023000">
        <ele>74.3</ele>
        <time>2020-10-16T15:51:05Z</time>
      </trkpt>
      <trkpt lat="37.436652000" lon="-5.625086000">
        <ele>74.3</ele>
        <time>2020-10-16T15:51:07Z</time>
      </trkpt>
      <trkpt lat="37.436731000" lon="-5.625153000">
        <ele>74.4</ele>
        <time>2020-10-16T15:51:09Z</time>
      </trkpt>
      <trkpt lat="37.436809000" lon="-5.625224000">
        <ele>74.5</ele>
        <time>2020-10-16T15:51:11Z</time>
      </trkpt>
      <trkpt lat="37.436888000" lon="-5.625294000">
        <ele>74.5</ele>
        <time>2020-10-16T15:51:13Z</time>
      </trkpt>
      <trkpt lat="37.436959000" lon="-5.625364000">
        <ele>74.7</ele>
        <time>2020-10-16T15:51:15Z</time>
      </trkpt>
      <trkpt lat="37.437043000" lon="-5.625433000">
        <ele>74.8</ele>
        <time>2020-10-16T15:51:17Z</time>
      </trkpt>
      <trkpt lat="37.437125000" lon="-5.625505000">
        <ele>74.9</ele>
        <time>2020-10-16T15:51:19Z</time>
      </trkpt>
      <trkpt lat="37.437200000" lon="-5.625578000">
        <ele>75.1</ele>
        <time>2020-10-16T15:51:21Z</time>
      </trkpt>
      <trkpt lat="37.437276000" lon="-5.625645000">
        <ele>75.3</ele>
        <time>2020-10-16T15:51:23Z</time>
      </trkpt>
      <trkpt lat="37.437356000" lon="-5.625716000">
        <ele>75.5</ele>
        <time>2020-10-16T15:51:25Z</time>
      </trkpt>
      <trkpt lat="37.437436000" lon="-5.625785000">
        <ele>75.6</ele>
        <time>2020-10-16T15:51:27Z</time>
      </trkpt>
      <trkpt lat="37.437510000" lon="-5.625855000">
        <ele>75.7</ele>
        <time>2020-10-16T15:51:29Z</time>
      </trkpt>
      <trkpt lat="37.437585000" lon="-5.625923000">
        <ele>75.9</ele>
        <time>2020-10-16T15:51:31Z</time>
      </trkpt>
      <trkpt lat="37.437667000" lon="-5.625988000">
        <ele>76.1</ele>
        <time>2020-10-16T15:51:33Z</time>
      </trkpt>
      <trkpt lat="37.437746000" lon="-5.626057000">
        <ele>76.3</ele>
        <time>2020-10-16T15:51:35Z</time>
      </trkpt>
      <trkpt lat="37.437821000" lon="-5.626127000">
        <ele>76.4</ele>
        <time>2020-10-16T15:51:37Z</time>
      </trkpt>
      <trkpt lat="37.437902000" lon="-5.626199000">
        <ele>76.5</ele>
        <time>2020-10-16T15:51:39Z</time>
      </trkpt>
      <trkpt lat="37.437983000" lon="-5.626271000">
        <ele>76.5</ele>
        <time>2020-10-16T15:51:41Z</time>
      </trkpt>
      <trkpt lat="37.438062000" lon="-5.626338000">
        <ele>76.6</ele>
        <time>2020-10-16T15:51:43Z</time>
      </trkpt>
      <trkpt lat="37.438140000" lon="-5.626406000">
        <ele>76.7</ele>
        <time>2020-10-16T15:51:45Z</time>
      </trkpt>
      <trkpt lat="37.438216000" lon="-5.626477000">
        <ele>76.8</ele>
        <time>2020-10-16T15:51:47Z</time>
      </trkpt>
      <trkpt lat="37.438295000" lon="-5.626545000">
        <ele>76.9</ele>
        <time>2020-10-16T15:51:49Z</time>
      </trkpt>
      <trkpt lat="37.438370000" lon="-5.626615000">
        <ele>77.0</ele>
        <time>2020-10-16T15:51:51Z</time>
      </trkpt>
      <trkpt lat="37.438453000" lon="-5.626685000">
        <ele>76.9</ele>
        <time>2020-10-16T15:51:53Z</time>
      </trkpt>
      <trkpt lat="37.438529000" lon="-5.626753000">
        <ele>76.9</ele>
        <time>2020-10-16T15:51:55Z</time>
      </trkpt>
      <trkpt lat="37.438610000" lon="-5.626824000">
        <ele>76.9</ele>
        <time>2020-10-16T15:51:57Z</time>
      </trkpt>
      <trkpt lat="37.438682000" lon="-5.626895000">
        <ele>76.8</ele>
        <time>2020-10-16T15:51:59Z</time>
      </trkpt>
      <trkpt lat="37.438763000" lon="-5.626968000">
        <ele>76.7</ele>
        <time>2020-10-16T15:52:01Z</time>
      </trkpt>
      <trkpt lat="37.438841000" lon="-5.627035000">
        <ele>76.6</ele>
        <time>2020-10-16T15:52:03Z</time>
      </trkpt>
      <trkpt lat="37.438919000" lon="-5.627100000">
        <ele>76.5</ele>
        <time>2020-10-16T15:52:05Z</time>
      </trkpt>
      <trkpt lat="37.438989000" lon="-5.627168000">
        <ele>76.5</ele>
        <time>2020-10-16T15:52:07Z</time>
      </trkpt>
      <trkpt lat="37.439063000" lon="-5.627236000">
        <ele>76.3</ele>
        <time>2020-10-16T15:52:09Z</time>
      </trkpt>
      <trkpt lat="37.439133000" lon="-5.627300000">
        <ele>76.1</ele>
        <time>2020-10-16T15:52:11Z</time>
      </trkpt>
      <trkpt lat="37.439201000" lon="-5.627364000">
        <ele>75.9</ele>
        <time>2020-10-16T15:52:13Z</time>
      </trkpt>
      <trkpt lat="37.439273000" lon="-5.627424000">
        <ele>75.8</ele>
        <time>2020-10-16T15:52:15Z</time>
      </trkpt>
      <trkpt lat="37.439354000" lon="-5.627497000">
        <ele>75.6</ele>
        <time>2020-10-16T15:52:17Z</time>
      </trkpt>
      <trkpt lat="37.439432000" lon="-5.627567000">
        <ele>75.5</ele>
        <time>2020-10-16T15:52:19Z</time>
      </trkpt>
      <trkpt lat="37.439502000" lon="-5.627627000">
        <ele>75.5</ele>
        <time>2020-10-16T15:52:21Z</time>
      </trkpt>
      <trkpt lat="37.439571000" lon="-5.627687000">
        <ele>75.6</ele>
        <time>2020-10-16T15:52:23Z</time>
      </trkpt>
      <trkpt lat="37.439663000" lon="-5.627770000">
        <ele>75.7</ele>
        <time>2020-10-16T15:52:26Z</time>
      </trkpt>
      <trkpt lat="37.439737000" lon="-5.627832000">
        <ele>75.8</ele>
        <time>2020-10-16T15:52:28Z</time>
      </trkpt>
      <trkpt lat="37.439813000" lon="-5.627899000">
        <ele>75.9</ele>
        <time>2020-10-16T15:52:30Z</time>
      </trkpt>
      <trkpt lat="37.439892000" lon="-5.627969000">
        <ele>76.2</ele>
        <time>2020-10-16T15:52:32Z</time>
      </trkpt>
      <trkpt lat="37.439967000" lon="-5.628023000">
        <ele>76.5</ele>
        <time>2020-10-16T15:52:34Z</time>
      </trkpt>
      <trkpt lat="37.440040000" lon="-5.628073000">
        <ele>76.8</ele>
        <time>2020-10-16T15:52:36Z</time>
      </trkpt>
      <trkpt lat="37.440144000" lon="-5.628143000">
        <ele>77.2</ele>
        <time>2020-10-16T15:52:39Z</time>
      </trkpt>
      <trkpt lat="37.440224000" lon="-5.628189000">
        <ele>77.5</ele>
        <time>2020-10-16T15:52:41Z</time>
      </trkpt>
      <trkpt lat="37.440310000" lon="-5.628238000">
        <ele>77.8</ele>
        <time>2020-10-16T15:52:43Z</time>
      </trkpt>
      <trkpt lat="37.440391000" lon="-5.628287000">
        <ele>78.2</ele>
        <time>2020-10-16T15:52:45Z</time>
      </trkpt>
      <trkpt lat="37.440492000" lon="-5.628345000">
        <ele>78.5</ele>
        <time>2020-10-16T15:52:48Z</time>
      </trkpt>
      <trkpt lat="37.440570000" lon="-5.628381000">
        <ele>78.7</ele>
        <time>2020-10-16T15:52:50Z</time>
      </trkpt>
      <trkpt lat="37.440649000" lon="-5.628427000">
        <ele>79.0</ele>
        <time>2020-10-16T15:52:52Z</time>
      </trkpt>
      <trkpt lat="37.440735000" lon="-5.628470000">
        <ele>79.3</ele>
        <time>2020-10-16T15:52:54Z</time>
      </trkpt>
      <trkpt lat="37.440814000" lon="-5.628511000">
        <ele>79.5</ele>
        <time>2020-10-16T15:52:56Z</time>
      </trkpt>
      <trkpt lat="37.440929000" lon="-5.628571000">
        <ele>79.6</ele>
        <time>2020-10-16T15:52:59Z</time>
      </trkpt>
      <trkpt lat="37.441038000" lon="-5.628631000">
        <ele>79.7</ele>
        <time>2020-10-16T15:53:02Z</time>
      </trkpt>
      <trkpt lat="37.441114000" lon="-5.628671000">
        <ele>79.9</ele>
        <time>2020-10-16T15:53:04Z</time>
      </trkpt>
      <trkpt lat="37.441191000" lon="-5.628712000">
        <ele>80.1</ele>
        <time>2020-10-16T15:53:06Z</time>
      </trkpt>
      <trkpt lat="37.441267000" lon="-5.628754000">
        <ele>80.3</ele>
        <time>2020-10-16T15:53:08Z</time>
      </trkpt>
      <trkpt lat="37.441377000" lon="-5.628815000">
        <ele>80.4</ele>
        <time>2020-10-16T15:53:11Z</time>
      </trkpt>
      <trkpt lat="37.441486000" lon="-5.628875000">
        <ele>80.5</ele>
        <time>2020-10-16T15:53:14Z</time>
      </trkpt>
      <trkpt lat="37.441592000" lon="-5.628935000">
        <ele>80.5</ele>
        <time>2020-10-16T15:53:17Z</time>
      </trkpt>
      <trkpt lat="37.441702000" lon="-5.628990000">
        <ele>80.6</ele>
        <time>2020-10-16T15:53:20Z</time>
      </trkpt>
      <trkpt lat="37.441810000" lon="-5.629049000">
        <ele>80.7</ele>
        <time>2020-10-16T15:53:23Z</time>
      </trkpt>
      <trkpt lat="37.441921000" lon="-5.629108000">
        <ele>80.9</ele>
        <time>2020-10-16T15:53:26Z</time>
      </trkpt>
      <trkpt lat="37.442031000" lon="-5.629170000">
        <ele>81.1</ele>
        <time>2020-10-16T15:53:29Z</time>
      </trkpt>
      <trkpt lat="37.442143000" lon="-5.629233000">
        <ele>81.3</ele>
        <time>2020-10-16T15:53:32Z</time>
      </trkpt>
      <trkpt lat="37.442219000" lon="-5.629271000">
        <ele>81.4</ele>
        <time>2020-10-16T15:53:34Z</time>
      </trkpt>
      <trkpt lat="37.442295000" lon="-5.629312000">
        <ele>81.5</ele>
        <time>2020-10-16T15:53:36Z</time>
      </trkpt>
      <trkpt lat="37.442372000" lon="-5.629350000">
        <ele>81.5</ele>
        <time>2020-10-16T15:53:38Z</time>
      </trkpt>
      <trkpt lat="37.442449000" lon="-5.629390000">
        <ele>81.6</ele>
        <time>2020-10-16T15:53:40Z</time>
      </trkpt>
      <trkpt lat="37.442524000" lon="-5.629429000">
        <ele>81.7</ele>
        <time>2020-10-16T15:53:42Z</time>
      </trkpt>
      <trkpt lat="37.442599000" lon="-5.629470000">
        <ele>81.8</ele>
        <time>2020-10-16T15:53:44Z</time>
      </trkpt>
      <trkpt lat="37.442674000" lon="-5.629513000">
        <ele>81.9</ele>
        <time>2020-10-16T15:53:46Z</time>
      </trkpt>
      <trkpt lat="37.442749000" lon="-5.629553000">
        <ele>82.1</ele>
        <time>2020-10-16T15:53:48Z</time>
      </trkpt>
      <trkpt lat="37.442858000" lon="-5.629610000">
        <ele>82.2</ele>
        <time>2020-10-16T15:53:51Z</time>
      </trkpt>
      <trkpt lat="37.442969000" lon="-5.629670000">
        <ele>82.4</ele>
        <time>2020-10-16T15:53:54Z</time>
      </trkpt>
      <trkpt lat="37.443079000" lon="-5.629730000">
        <ele>82.5</ele>
        <time>2020-10-16T15:53:57Z</time>
      </trkpt>
      <trkpt lat="37.443188000" lon="-5.629790000">
        <ele>82.7</ele>
        <time>2020-10-16T15:54:00Z</time>
      </trkpt>
      <trkpt lat="37.443295000" lon="-5.629848000">
        <ele>82.9</ele>
        <time>2020-10-16T15:54:03Z</time>
      </trkpt>
      <trkpt lat="37.443397000" lon="-5.629907000">
        <ele>83.1</ele>
        <time>2020-10-16T15:54:06Z</time>
      </trkpt>
      <trkpt lat="37.443492000" lon="-5.629961000">
        <ele>83.4</ele>
        <time>2020-10-16T15:54:09Z</time>
      </trkpt>
      <trkpt lat="37.443582000" lon="-5.630011000">
        <ele>83.6</ele>
        <time>2020-10-16T15:54:12Z</time>
      </trkpt>
      <trkpt lat="37.443670000" lon="-5.630056000">
        <ele>83.9</ele>
        <time>2020-10-16T15:54:15Z</time>
      </trkpt>
      <trkpt lat="37.443762000" lon="-5.630105000">
        <ele>84.2</ele>
        <time>2020-10-16T15:54:18Z</time>
      </trkpt>
      <trkpt lat="37.443861000" lon="-5.630150000">
        <ele>84.4</ele>
        <time>2020-10-16T15:54:21Z</time>
      </trkpt>
      <trkpt lat="37.443952000" lon="-5.630197000">
        <ele>84.5</ele>
        <time>2020-10-16T15:54:24Z</time>
      </trkpt>
      <trkpt lat="37.444030000" lon="-5.630236000">
        <ele>84.7</ele>
        <time>2020-10-16T15:54:27Z</time>
      </trkpt>
      <trkpt lat="37.444122000" lon="-5.630285000">
        <ele>84.9</ele>
        <time>2020-10-16T15:54:31Z</time>
      </trkpt>
      <trkpt lat="37.444219000" lon="-5.630328000">
        <ele>85.2</ele>
        <time>2020-10-16T15:54:35Z</time>
      </trkpt>
      <trkpt lat="37.444321000" lon="-5.630369000">
        <ele>85.5</ele>
        <time>2020-10-16T15:54:39Z</time>
      </trkpt>
      <trkpt lat="37.444403000" lon="-5.630400000">
        <ele>85.7</ele>
        <time>2020-10-16T15:54:42Z</time>
      </trkpt>
      <trkpt lat="37.444489000" lon="-5.630438000">
        <ele>85.8</ele>
        <time>2020-10-16T15:54:45Z</time>
      </trkpt>
      <trkpt lat="37.444578000" lon="-5.630479000">
        <ele>85.9</ele>
        <time>2020-10-16T15:54:48Z</time>
      </trkpt>
      <trkpt lat="37.444673000" lon="-5.630523000">
        <ele>86.0</ele>
        <time>2020-10-16T15:54:51Z</time>
      </trkpt>
      <trkpt lat="37.444774000" lon="-5.630567000">
        <ele>86.1</ele>
        <time>2020-10-16T15:54:54Z</time>
      </trkpt>
      <trkpt lat="37.444859000" lon="-5.630601000">
        <ele>86.2</ele>
        <time>2020-10-16T15:54:56Z</time>
      </trkpt>
      <trkpt lat="37.444945000" lon="-5.630634000">
        <ele>86.3</ele>
        <time>2020-10-16T15:54:58Z</time>
      </trkpt>
      <trkpt lat="37.445028000" lon="-5.630668000">
        <ele>86.3</ele>
        <time>2020-10-16T15:55:00Z</time>
      </trkpt>
      <trkpt lat="37.445114000" lon="-5.630702000">
        <ele>86.4</ele>
        <time>2020-10-16T15:55:02Z</time>
      </trkpt>
      <trkpt lat="37.445200000" lon="-5.630733000">
        <ele>86.4</ele>
        <time>2020-10-16T15:55:04Z</time>
      </trkpt>
      <trkpt lat="37.445283000" lon="-5.630762000">
        <ele>86.4</ele>
        <time>2020-10-16T15:55:06Z</time>
      </trkpt>
      <trkpt lat="37.445362000" lon="-5.630789000">
        <ele>86.4</ele>
        <time>2020-10-16T15:55:08Z</time>
      </trkpt>
      <trkpt lat="37.445447000" lon="-5.630821000">
        <ele>86.5</ele>
        <time>2020-10-16T15:55:10Z</time>
      </trkpt>
      <trkpt lat="37.445538000" lon="-5.630858000">
        <ele>86.5</ele>
        <time>2020-10-16T15:55:12Z</time>
      </trkpt>
      <trkpt lat="37.445625000" lon="-5.630894000">
        <ele>86.5</ele>
        <time>2020-10-16T15:55:14Z</time>
      </trkpt>
      <trkpt lat="37.445715000" lon="-5.630934000">
        <ele>86.5</ele>
        <time>2020-10-16T15:55:16Z</time>
      </trkpt>
      <trkpt lat="37.445802000" lon="-5.630963000">
        <ele>86.5</ele>
        <time>2020-10-16T15:55:18Z</time>
      </trkpt>
      <trkpt lat="37.445890000" lon="-5.630998000">
        <ele>86.5</ele>
        <time>2020-10-16T15:55:20Z</time>
      </trkpt>
      <trkpt lat="37.445969000" lon="-5.631027000">
        <ele>86.4</ele>
        <time>2020-10-16T15:55:22Z</time>
      </trkpt>
      <trkpt lat="37.446058000" lon="-5.631058000">
        <ele>86.2</ele>
        <time>2020-10-16T15:55:24Z</time>
      </trkpt>
      <trkpt lat="37.446141000" lon="-5.631091000">
        <ele>86.0</ele>
        <time>2020-10-16T15:55:26Z</time>
      </trkpt>
      <trkpt lat="37.446257000" lon="-5.631134000">
        <ele>85.9</ele>
        <time>2020-10-16T15:55:29Z</time>
      </trkpt>
      <trkpt lat="37.446336000" lon="-5.631162000">
        <ele>85.9</ele>
        <time>2020-10-16T15:55:31Z</time>
      </trkpt>
      <trkpt lat="37.446416000" lon="-5.631190000">
        <ele>85.9</ele>
        <time>2020-10-16T15:55:33Z</time>
      </trkpt>
      <trkpt lat="37.446494000" lon="-5.631219000">
        <ele>85.9</ele>
        <time>2020-10-16T15:55:35Z</time>
      </trkpt>
      <trkpt lat="37.446609000" lon="-5.631263000">
        <ele>86.0</ele>
        <time>2020-10-16T15:55:38Z</time>
      </trkpt>
      <trkpt lat="37.446721000" lon="-5.631312000">
        <ele>86.2</ele>
        <time>2020-10-16T15:55:41Z</time>
      </trkpt>
      <trkpt lat="37.446836000" lon="-5.631357000">
        <ele>86.4</ele>
        <time>2020-10-16T15:55:44Z</time>
      </trkpt>
      <trkpt lat="37.446915000" lon="-5.631387000">
        <ele>86.6</ele>
        <time>2020-10-16T15:55:46Z</time>
      </trkpt>
      <trkpt lat="37.446994000" lon="-5.631420000">
        <ele>87.0</ele>
        <time>2020-10-16T15:55:48Z</time>
      </trkpt>
      <trkpt lat="37.447076000" lon="-5.631455000">
        <ele>87.4</ele>
        <time>2020-10-16T15:55:50Z</time>
      </trkpt>
      <trkpt lat="37.447158000" lon="-5.631486000">
        <ele>87.7</ele>
        <time>2020-10-16T15:55:52Z</time>
      </trkpt>
      <trkpt lat="37.447240000" lon="-5.631518000">
        <ele>88.1</ele>
        <time>2020-10-16T15:55:54Z</time>
      </trkpt>
      <trkpt lat="37.447325000" lon="-5.631550000">
        <ele>88.4</ele>
        <time>2020-10-16T15:55:56Z</time>
      </trkpt>
      <trkpt lat="37.447410000" lon="-5.631580000">
        <ele>88.6</ele>
        <time>2020-10-16T15:55:58Z</time>
      </trkpt>
      <trkpt lat="37.447499000" lon="-5.631616000">
        <ele>88.8</ele>
        <time>2020-10-16T15:56:00Z</time>
      </trkpt>
      <trkpt lat="37.447590000" lon="-5.631650000">
        <ele>89.0</ele>
        <time>2020-10-16T15:56:02Z</time>
      </trkpt>
      <trkpt lat="37.447683000" lon="-5.631682000">
        <ele>89.1</ele>
        <time>2020-10-16T15:56:04Z</time>
      </trkpt>
      <trkpt lat="37.447771000" lon="-5.631716000">
        <ele>89.1</ele>
        <time>2020-10-16T15:56:06Z</time>
      </trkpt>
      <trkpt lat="37.447862000" lon="-5.631746000">
        <ele>89.1</ele>
        <time>2020-10-16T15:56:08Z</time>
      </trkpt>
      <trkpt lat="37.447946000" lon="-5.631782000">
        <ele>89.0</ele>
        <time>2020-10-16T15:56:10Z</time>
      </trkpt>
      <trkpt lat="37.448034000" lon="-5.631809000">
        <ele>88.9</ele>
        <time>2020-10-16T15:56:12Z</time>
      </trkpt>
      <trkpt lat="37.448119000" lon="-5.631846000">
        <ele>88.9</ele>
        <time>2020-10-16T15:56:14Z</time>
      </trkpt>
      <trkpt lat="37.448203000" lon="-5.631878000">
        <ele>88.8</ele>
        <time>2020-10-16T15:56:16Z</time>
      </trkpt>
      <trkpt lat="37.448284000" lon="-5.631911000">
        <ele>88.7</ele>
        <time>2020-10-16T15:56:18Z</time>
      </trkpt>
      <trkpt lat="37.448366000" lon="-5.631947000">
        <ele>88.6</ele>
        <time>2020-10-16T15:56:20Z</time>
      </trkpt>
      <trkpt lat="37.448446000" lon="-5.631981000">
        <ele>88.6</ele>
        <time>2020-10-16T15:56:22Z</time>
      </trkpt>
      <trkpt lat="37.448526000" lon="-5.632011000">
        <ele>88.6</ele>
        <time>2020-10-16T15:56:24Z</time>
      </trkpt>
      <trkpt lat="37.448608000" lon="-5.632040000">
        <ele>88.6</ele>
        <time>2020-10-16T15:56:26Z</time>
      </trkpt>
      <trkpt lat="37.448690000" lon="-5.632069000">
        <ele>88.6</ele>
        <time>2020-10-16T15:56:28Z</time>
      </trkpt>
      <trkpt lat="37.448773000" lon="-5.632101000">
        <ele>88.6</ele>
        <time>2020-10-16T15:56:30Z</time>
      </trkpt>
      <trkpt lat="37.448854000" lon="-5.632135000">
        <ele>88.7</ele>
        <time>2020-10-16T15:56:32Z</time>
      </trkpt>
      <trkpt lat="37.448935000" lon="-5.632165000">
        <ele>88.8</ele>
        <time>2020-10-16T15:56:34Z</time>
      </trkpt>
      <trkpt lat="37.449016000" lon="-5.632196000">
        <ele>88.9</ele>
        <time>2020-10-16T15:56:36Z</time>
      </trkpt>
      <trkpt lat="37.449094000" lon="-5.632228000">
        <ele>89.0</ele>
        <time>2020-10-16T15:56:38Z</time>
      </trkpt>
      <trkpt lat="37.449172000" lon="-5.632258000">
        <ele>89.1</ele>
        <time>2020-10-16T15:56:40Z</time>
      </trkpt>
      <trkpt lat="37.449285000" lon="-5.632301000">
        <ele>89.2</ele>
        <time>2020-10-16T15:56:43Z</time>
      </trkpt>
      <trkpt lat="37.449399000" lon="-5.632342000">
        <ele>89.4</ele>
        <time>2020-10-16T15:56:46Z</time>
      </trkpt>
      <trkpt lat="37.449517000" lon="-5.632390000">
        <ele>89.5</ele>
        <time>2020-10-16T15:56:49Z</time>
      </trkpt>
      <trkpt lat="37.449613000" lon="-5.632430000">
        <ele>89.7</ele>
        <time>2020-10-16T15:56:51Z</time>
      </trkpt>
      <trkpt lat="37.449706000" lon="-5.632466000">
        <ele>90.1</ele>
        <time>2020-10-16T15:56:53Z</time>
      </trkpt>
      <trkpt lat="37.449796000" lon="-5.632499000">
        <ele>90.5</ele>
        <time>2020-10-16T15:56:55Z</time>
      </trkpt>
      <trkpt lat="37.449878000" lon="-5.632529000">
        <ele>90.7</ele>
        <time>2020-10-16T15:56:57Z</time>
      </trkpt>
      <trkpt lat="37.449963000" lon="-5.632569000">
        <ele>91.0</ele>
        <time>2020-10-16T15:56:59Z</time>
      </trkpt>
      <trkpt lat="37.450046000" lon="-5.632601000">
        <ele>91.2</ele>
        <time>2020-10-16T15:57:01Z</time>
      </trkpt>
      <trkpt lat="37.450129000" lon="-5.632629000">
        <ele>91.4</ele>
        <time>2020-10-16T15:57:03Z</time>
      </trkpt>
      <trkpt lat="37.450216000" lon="-5.632662000">
        <ele>91.5</ele>
        <time>2020-10-16T15:57:05Z</time>
      </trkpt>
      <trkpt lat="37.450300000" lon="-5.632697000">
        <ele>91.7</ele>
        <time>2020-10-16T15:57:07Z</time>
      </trkpt>
      <trkpt lat="37.450383000" lon="-5.632726000">
        <ele>91.7</ele>
        <time>2020-10-16T15:57:09Z</time>
      </trkpt>
      <trkpt lat="37.450463000" lon="-5.632758000">
        <ele>91.8</ele>
        <time>2020-10-16T15:57:11Z</time>
      </trkpt>
      <trkpt lat="37.450575000" lon="-5.632799000">
        <ele>91.9</ele>
        <time>2020-10-16T15:57:14Z</time>
      </trkpt>
      <trkpt lat="37.450681000" lon="-5.632842000">
        <ele>91.9</ele>
        <time>2020-10-16T15:57:17Z</time>
      </trkpt>
      <trkpt lat="37.450782000" lon="-5.632886000">
        <ele>91.9</ele>
        <time>2020-10-16T15:57:20Z</time>
      </trkpt>
      <trkpt lat="37.450879000" lon="-5.632930000">
        <ele>91.9</ele>
        <time>2020-10-16T15:57:23Z</time>
      </trkpt>
      <trkpt lat="37.450979000" lon="-5.632960000">
        <ele>91.9</ele>
        <time>2020-10-16T15:57:26Z</time>
      </trkpt>
      <trkpt lat="37.451078000" lon="-5.633002000">
        <ele>91.9</ele>
        <time>2020-10-16T15:57:29Z</time>
      </trkpt>
      <trkpt lat="37.451157000" lon="-5.633032000">
        <ele>91.9</ele>
        <time>2020-10-16T15:57:31Z</time>
      </trkpt>
      <trkpt lat="37.451239000" lon="-5.633062000">
        <ele>91.9</ele>
        <time>2020-10-16T15:57:33Z</time>
      </trkpt>
      <trkpt lat="37.451343000" lon="-5.633097000">
        <ele>91.9</ele>
        <time>2020-10-16T15:57:36Z</time>
      </trkpt>
      <trkpt lat="37.451445000" lon="-5.633133000">
        <ele>92.0</ele>
        <time>2020-10-16T15:57:39Z</time>
      </trkpt>
      <trkpt lat="37.451524000" lon="-5.633159000">
        <ele>92.1</ele>
        <time>2020-10-16T15:57:41Z</time>
      </trkpt>
      <trkpt lat="37.451634000" lon="-5.633203000">
        <ele>92.2</ele>
        <time>2020-10-16T15:57:44Z</time>
      </trkpt>
      <trkpt lat="37.451715000" lon="-5.633237000">
        <ele>92.3</ele>
        <time>2020-10-16T15:57:47Z</time>
      </trkpt>
      <trkpt lat="37.451808000" lon="-5.633272000">
        <ele>92.4</ele>
        <time>2020-10-16T15:57:50Z</time>
      </trkpt>
      <trkpt lat="37.451915000" lon="-5.633322000">
        <ele>92.5</ele>
        <time>2020-10-16T15:57:53Z</time>
      </trkpt>
      <trkpt lat="37.452015000" lon="-5.633371000">
        <ele>92.7</ele>
        <time>2020-10-16T15:57:56Z</time>
      </trkpt>
      <trkpt lat="37.452103000" lon="-5.633417000">
        <ele>92.9</ele>
        <time>2020-10-16T15:57:59Z</time>
      </trkpt>
      <trkpt lat="37.452183000" lon="-5.633463000">
        <ele>93.2</ele>
        <time>2020-10-16T15:58:02Z</time>
      </trkpt>
      <trkpt lat="37.452260000" lon="-5.633512000">
        <ele>93.5</ele>
        <time>2020-10-16T15:58:05Z</time>
      </trkpt>
      <trkpt lat="37.452340000" lon="-5.633563000">
        <ele>93.7</ele>
        <time>2020-10-16T15:58:08Z</time>
      </trkpt>
      <trkpt lat="37.452423000" lon="-5.633613000">
        <ele>94.0</ele>
        <time>2020-10-16T15:58:11Z</time>
      </trkpt>
      <trkpt lat="37.452504000" lon="-5.633664000">
        <ele>94.3</ele>
        <time>2020-10-16T15:58:14Z</time>
      </trkpt>
      <trkpt lat="37.452587000" lon="-5.633704000">
        <ele>94.5</ele>
        <time>2020-10-16T15:58:17Z</time>
      </trkpt>
      <trkpt lat="37.452666000" lon="-5.633748000">
        <ele>94.8</ele>
        <time>2020-10-16T15:58:20Z</time>
      </trkpt>
      <trkpt lat="37.452758000" lon="-5.633801000">
        <ele>95.0</ele>
        <time>2020-10-16T15:58:23Z</time>
      </trkpt>
      <trkpt lat="37.452862000" lon="-5.633862000">
        <ele>95.1</ele>
        <time>2020-10-16T15:58:26Z</time>
      </trkpt>
      <trkpt lat="37.452955000" lon="-5.633917000">
        <ele>95.2</ele>
        <time>2020-10-16T15:58:29Z</time>
      </trkpt>
      <trkpt lat="37.453042000" lon="-5.633966000">
        <ele>95.3</ele>
        <time>2020-10-16T15:58:32Z</time>
      </trkpt>
      <trkpt lat="37.453126000" lon="-5.634010000">
        <ele>95.3</ele>
        <time>2020-10-16T15:58:35Z</time>
      </trkpt>
      <trkpt lat="37.453204000" lon="-5.634050000">
        <ele>95.4</ele>
        <time>2020-10-16T15:58:38Z</time>
      </trkpt>
      <trkpt lat="37.453300000" lon="-5.634108000">
        <ele>95.5</ele>
        <time>2020-10-16T15:58:42Z</time>
      </trkpt>
      <trkpt lat="37.453377000" lon="-5.634155000">
        <ele>95.6</ele>
        <time>2020-10-16T15:58:45Z</time>
      </trkpt>
      <trkpt lat="37.453471000" lon="-5.634208000">
        <ele>95.8</ele>
        <time>2020-10-16T15:58:49Z</time>
      </trkpt>
      <trkpt lat="37.453558000" lon="-5.634260000">
        <ele>96.1</ele>
        <time>2020-10-16T15:58:53Z</time>
      </trkpt>
      <trkpt lat="37.453639000" lon="-5.634311000">
        <ele>96.4</ele>
        <time>2020-10-16T15:58:57Z</time>
      </trkpt>
      <trkpt lat="37.453731000" lon="-5.634358000">
        <ele>96.8</ele>
        <time>2020-10-16T15:59:02Z</time>
      </trkpt>
      <trkpt lat="37.453806000" lon="-5.634402000">
        <ele>97.4</ele>
        <time>2020-10-16T15:59:06Z</time>
      </trkpt>
      <trkpt lat="37.453882000" lon="-5.634452000">
        <ele>97.9</ele>
        <time>2020-10-16T15:59:10Z</time>
      </trkpt>
      <trkpt lat="37.453962000" lon="-5.634501000">
        <ele>98.5</ele>
        <time>2020-10-16T15:59:14Z</time>
      </trkpt>
      <trkpt lat="37.454042000" lon="-5.634554000">
        <ele>99.0</ele>
        <time>2020-10-16T15:59:18Z</time>
      </trkpt>
      <trkpt lat="37.454119000" lon="-5.634607000">
        <ele>99.5</ele>
        <time>2020-10-16T15:59:22Z</time>
      </trkpt>
      <trkpt lat="37.454200000" lon="-5.634662000">
        <ele>99.9</ele>
        <time>2020-10-16T15:59:26Z</time>
      </trkpt>
      <trkpt lat="37.454290000" lon="-5.634708000">
        <ele>100.4</ele>
        <time>2020-10-16T15:59:30Z</time>
      </trkpt>
      <trkpt lat="37.454386000" lon="-5.634765000">
        <ele>100.7</ele>
        <time>2020-10-16T15:59:34Z</time>
      </trkpt>
      <trkpt lat="37.454459000" lon="-5.634811000">
        <ele>101.0</ele>
        <time>2020-10-16T15:59:37Z</time>
      </trkpt>
      <trkpt lat="37.454537000" lon="-5.634855000">
        <ele>101.3</ele>
        <time>2020-10-16T15:59:40Z</time>
      </trkpt>
      <trkpt lat="37.454617000" lon="-5.634907000">
        <ele>101.5</ele>
        <time>2020-10-16T15:59:43Z</time>
      </trkpt>
      <trkpt lat="37.454696000" lon="-5.634954000">
        <ele>101.5</ele>
        <time>2020-10-16T15:59:46Z</time>
      </trkpt>
      <trkpt lat="37.454775000" lon="-5.635002000">
        <ele>101.6</ele>
        <time>2020-10-16T15:59:49Z</time>
      </trkpt>
      <trkpt lat="37.454854000" lon="-5.635049000">
        <ele>101.8</ele>
        <time>2020-10-16T15:59:52Z</time>
      </trkpt>
      <trkpt lat="37.454935000" lon="-5.635094000">
        <ele>102.1</ele>
        <time>2020-10-16T15:59:55Z</time>
      </trkpt>
      <trkpt lat="37.455021000" lon="-5.635143000">
        <ele>102.5</ele>
        <time>2020-10-16T15:59:58Z</time>
      </trkpt>
      <trkpt lat="37.455110000" lon="-5.635196000">
        <ele>102.9</ele>
        <time>2020-10-16T16:00:01Z</time>
      </trkpt>
      <trkpt lat="37.455206000" lon="-5.635256000">
        <ele>103.4</ele>
        <time>2020-10-16T16:00:04Z</time>
      </trkpt>
      <trkpt lat="37.455312000" lon="-5.635316000">
        <ele>103.9</ele>
        <time>2020-10-16T16:00:07Z</time>
      </trkpt>
      <trkpt lat="37.455386000" lon="-5.635364000">
        <ele>104.6</ele>
        <time>2020-10-16T16:00:09Z</time>
      </trkpt>
      <trkpt lat="37.455463000" lon="-5.635414000">
        <ele>105.4</ele>
        <time>2020-10-16T16:00:11Z</time>
      </trkpt>
      <trkpt lat="37.455538000" lon="-5.635460000">
        <ele>106.1</ele>
        <time>2020-10-16T16:00:13Z</time>
      </trkpt>
      <trkpt lat="37.455613000" lon="-5.635505000">
        <ele>106.8</ele>
        <time>2020-10-16T16:00:15Z</time>
      </trkpt>
      <trkpt lat="37.455689000" lon="-5.635552000">
        <ele>107.5</ele>
        <time>2020-10-16T16:00:17Z</time>
      </trkpt>
      <trkpt lat="37.455794000" lon="-5.635613000">
        <ele>108.2</ele>
        <time>2020-10-16T16:00:20Z</time>
      </trkpt>
      <trkpt lat="37.455895000" lon="-5.635671000">
        <ele>108.7</ele>
        <time>2020-10-16T16:00:23Z</time>
      </trkpt>
      <trkpt lat="37.455988000" lon="-5.635725000">
        <ele>109.2</ele>
        <time>2020-10-16T16:00:26Z</time>
      </trkpt>
      <trkpt lat="37.456072000" lon="-5.635776000">
        <ele>109.5</ele>
        <time>2020-10-16T16:00:29Z</time>
      </trkpt>
      <trkpt lat="37.456156000" lon="-5.635824000">
        <ele>109.9</ele>
        <time>2020-10-16T16:00:32Z</time>
      </trkpt>
      <trkpt lat="37.456244000" lon="-5.635875000">
        <ele>110.2</ele>
        <time>2020-10-16T16:00:35Z</time>
      </trkpt>
      <trkpt lat="37.456325000" lon="-5.635928000">
        <ele>110.3</ele>
        <time>2020-10-16T16:00:38Z</time>
      </trkpt>
      <trkpt lat="37.456409000" lon="-5.635980000">
        <ele>110.5</ele>
        <time>2020-10-16T16:00:41Z</time>
      </trkpt>
      <trkpt lat="37.456503000" lon="-5.636034000">
        <ele>110.6</ele>
        <time>2020-10-16T16:00:44Z</time>
      </trkpt>
      <trkpt lat="37.456593000" lon="-5.636085000">
        <ele>110.9</ele>
        <time>2020-10-16T16:00:48Z</time>
      </trkpt>
      <trkpt lat="37.456678000" lon="-5.636135000">
        <ele>111.2</ele>
        <time>2020-10-16T16:00:52Z</time>
      </trkpt>
      <trkpt lat="37.456763000" lon="-5.636183000">
        <ele>111.5</ele>
        <time>2020-10-16T16:00:56Z</time>
      </trkpt>
      <trkpt lat="37.456841000" lon="-5.636220000">
        <ele>111.9</ele>
        <time>2020-10-16T16:01:01Z</time>
      </trkpt>
      <trkpt lat="37.456920000" lon="-5.636272000">
        <ele>112.3</ele>
        <time>2020-10-16T16:01:06Z</time>
      </trkpt>
      <trkpt lat="37.457007000" lon="-5.636330000">
        <ele>112.7</ele>
        <time>2020-10-16T16:01:11Z</time>
      </trkpt>
      <trkpt lat="37.457070000" lon="-5.636397000">
        <ele>113.2</ele>
        <time>2020-10-16T16:09:01Z</time>
      </trkpt>
      <trkpt lat="37.457146000" lon="-5.636472000">
        <ele>113.7</ele>
        <time>2020-10-16T16:09:09Z</time>
      </trkpt>
      <trkpt lat="37.457226000" lon="-5.636540000">
        <ele>114.4</ele>
        <time>2020-10-16T16:09:14Z</time>
      </trkpt>
      <trkpt lat="37.457303000" lon="-5.636611000">
        <ele>115.0</ele>
        <time>2020-10-16T16:09:19Z</time>
      </trkpt>
      <trkpt lat="37.457367000" lon="-5.636691000">
        <ele>115.7</ele>
        <time>2020-10-16T16:09:23Z</time>
      </trkpt>
      <trkpt lat="37.457432000" lon="-5.636783000">
        <ele>116.5</ele>
        <time>2020-10-16T16:09:29Z</time>
      </trkpt>
      <trkpt lat="37.457499000" lon="-5.636871000">
        <ele>117.2</ele>
        <time>2020-10-16T16:09:34Z</time>
      </trkpt>
      <trkpt lat="37.457554000" lon="-5.636947000">
        <ele>117.9</ele>
        <time>2020-10-16T16:09:38Z</time>
      </trkpt>
      <trkpt lat="37.457618000" lon="-5.637033000">
        <ele>118.6</ele>
        <time>2020-10-16T16:09:43Z</time>
      </trkpt>
      <trkpt lat="37.457687000" lon="-5.637111000">
        <ele>119.4</ele>
        <time>2020-10-16T16:09:48Z</time>
      </trkpt>
      <trkpt lat="37.457753000" lon="-5.637191000">
        <ele>120.1</ele>
        <time>2020-10-16T16:09:53Z</time>
      </trkpt>
      <trkpt lat="37.457825000" lon="-5.637268000">
        <ele>120.8</ele>
        <time>2020-10-16T16:09:59Z</time>
      </trkpt>
      <trkpt lat="37.457856000" lon="-5.637374000">
        <ele>121.5</ele>
        <time>2020-10-16T16:10:05Z</time>
      </trkpt>
      <trkpt lat="37.457942000" lon="-5.637423000">
        <ele>122.3</ele>
        <time>2020-10-16T16:10:10Z</time>
      </trkpt>
      <trkpt lat="37.457986000" lon="-5.637516000">
        <ele>123.0</ele>
        <time>2020-10-16T16:10:15Z</time>
      </trkpt>
      <trkpt lat="37.458054000" lon="-5.637585000">
        <ele>123.7</ele>
        <time>2020-10-16T16:10:20Z</time>
      </trkpt>
      <trkpt lat="37.458090000" lon="-5.637683000">
        <ele>124.5</ele>
        <time>2020-10-16T16:10:25Z</time>
      </trkpt>
      <trkpt lat="37.458161000" lon="-5.637762000">
        <ele>125.3</ele>
        <time>2020-10-16T16:10:31Z</time>
      </trkpt>
      <trkpt lat="37.458208000" lon="-5.637870000">
        <ele>126.2</ele>
        <time>2020-10-16T16:10:36Z</time>
      </trkpt>
      <trkpt lat="37.458206000" lon="-5.637973000">
        <ele>127.2</ele>
        <time>2020-10-16T16:10:40Z</time>
      </trkpt>
      <trkpt lat="37.458283000" lon="-5.638035000">
        <ele>128.1</ele>
        <time>2020-10-16T16:10:45Z</time>
      </trkpt>
      <trkpt lat="37.458356000" lon="-5.638105000">
        <ele>128.9</ele>
        <time>2020-10-16T16:10:51Z</time>
      </trkpt>
      <trkpt lat="37.458439000" lon="-5.638115000">
        <ele>129.6</ele>
        <time>2020-10-16T16:10:59Z</time>
      </trkpt>
      <trkpt lat="37.458527000" lon="-5.638094000">
        <ele>130.3</ele>
        <time>2020-10-16T16:11:04Z</time>
      </trkpt>
      <trkpt lat="37.458602000" lon="-5.638026000">
        <ele>130.8</ele>
        <time>2020-10-16T16:11:09Z</time>
      </trkpt>
      <trkpt lat="37.458646000" lon="-5.637913000">
        <ele>131.3</ele>
        <time>2020-10-16T16:11:14Z</time>
      </trkpt>
      <trkpt lat="37.458707000" lon="-5.637845000">
        <ele>131.7</ele>
        <time>2020-10-16T16:11:18Z</time>
      </trkpt>
      <trkpt lat="37.458771000" lon="-5.637774000">
        <ele>132.2</ele>
        <time>2020-10-16T16:11:22Z</time>
      </trkpt>
      <trkpt lat="37.458839000" lon="-5.637705000">
        <ele>132.7</ele>
        <time>2020-10-16T16:11:26Z</time>
      </trkpt>
      <trkpt lat="37.458916000" lon="-5.637642000">
        <ele>133.2</ele>
        <time>2020-10-16T16:11:30Z</time>
      </trkpt>
      <trkpt lat="37.458993000" lon="-5.637590000">
        <ele>133.7</ele>
        <time>2020-10-16T16:11:34Z</time>
      </trkpt>
      <trkpt lat="37.459077000" lon="-5.637573000">
        <ele>134.5</ele>
        <time>2020-10-16T16:11:38Z</time>
      </trkpt>
      <trkpt lat="37.459163000" lon="-5.637583000">
        <ele>135.4</ele>
        <time>2020-10-16T16:11:42Z</time>
      </trkpt>
      <trkpt lat="37.459252000" lon="-5.637595000">
        <ele>136.4</ele>
        <time>2020-10-16T16:11:46Z</time>
      </trkpt>
      <trkpt lat="37.459346000" lon="-5.637613000">
        <ele>137.5</ele>
        <time>2020-10-16T16:11:50Z</time>
      </trkpt>
      <trkpt lat="37.459433000" lon="-5.637629000">
        <ele>138.8</ele>
        <time>2020-10-16T16:11:54Z</time>
      </trkpt>
      <trkpt lat="37.459520000" lon="-5.637646000">
        <ele>140.2</ele>
        <time>2020-10-16T16:11:58Z</time>
      </trkpt>
      <trkpt lat="37.459607000" lon="-5.637661000">
        <ele>141.6</ele>
        <time>2020-10-16T16:12:02Z</time>
      </trkpt>
      <trkpt lat="37.459699000" lon="-5.637696000">
        <ele>143.1</ele>
        <time>2020-10-16T16:12:07Z</time>
      </trkpt>
      <trkpt lat="37.459794000" lon="-5.637727000">
        <ele>144.4</ele>
        <time>2020-10-16T16:12:12Z</time>
      </trkpt>
      <trkpt lat="37.459878000" lon="-5.637744000">
        <ele>145.5</ele>
        <time>2020-10-16T16:12:16Z</time>
      </trkpt>
      <trkpt lat="37.459958000" lon="-5.637772000">
        <ele>146.5</ele>
        <time>2020-10-16T16:12:20Z</time>
      </trkpt>
      <trkpt lat="37.460053000" lon="-5.637808000">
        <ele>147.2</ele>
        <time>2020-10-16T16:12:25Z</time>
      </trkpt>
      <trkpt lat="37.460151000" lon="-5.637822000">
        <ele>147.7</ele>
        <time>2020-10-16T16:12:30Z</time>
      </trkpt>
      <trkpt lat="37.460236000" lon="-5.637821000">
        <ele>148.2</ele>
        <time>2020-10-16T16:12:35Z</time>
      </trkpt>
      <trkpt lat="37.460329000" lon="-5.637792000">
        <ele>148.5</ele>
        <time>2020-10-16T16:12:40Z</time>
      </trkpt>
      <trkpt lat="37.460429000" lon="-5.637772000">
        <ele>148.9</ele>
        <time>2020-10-16T16:12:45Z</time>
      </trkpt>
      <trkpt lat="37.460520000" lon="-5.637755000">
        <ele>149.4</ele>
        <time>2020-10-16T16:12:50Z</time>
      </trkpt>
      <trkpt lat="37.460604000" lon="-5.637749000">
        <ele>149.7</ele>
        <time>2020-10-16T16:12:55Z</time>
      </trkpt>
      <trkpt lat="37.460693000" lon="-5.637768000">
        <ele>150.1</ele>
        <time>2020-10-16T16:13:00Z</time>
      </trkpt>
      <trkpt lat="37.460780000" lon="-5.637797000">
        <ele>150.6</ele>
        <time>2020-10-16T16:13:05Z</time>
      </trkpt>
      <trkpt lat="37.460866000" lon="-5.637834000">
        <ele>151.4</ele>
        <time>2020-10-16T16:13:10Z</time>
      </trkpt>
      <trkpt lat="37.460945000" lon="-5.637874000">
        <ele>152.4</ele>
        <time>2020-10-16T16:13:15Z</time>
      </trkpt>
      <trkpt lat="37.461024000" lon="-5.637923000">
        <ele>153.6</ele>
        <time>2020-10-16T16:13:20Z</time>
      </trkpt>
      <trkpt lat="37.461104000" lon="-5.637972000">
        <ele>155.0</ele>
        <time>2020-10-16T16:13:25Z</time>
      </trkpt>
      <trkpt lat="37.461182000" lon="-5.638030000">
        <ele>156.5</ele>
        <time>2020-10-16T16:13:30Z</time>
      </trkpt>
      <trkpt lat="37.461260000" lon="-5.638112000">
        <ele>157.9</ele>
        <time>2020-10-16T16:13:35Z</time>
      </trkpt>
      <trkpt lat="37.461334000" lon="-5.638193000">
        <ele>159.4</ele>
        <time>2020-10-16T16:13:40Z</time>
      </trkpt>
      <trkpt lat="37.461404000" lon="-5.638271000">
        <ele>160.6</ele>
        <time>2020-10-16T16:13:45Z</time>
      </trkpt>
      <trkpt lat="37.461481000" lon="-5.638336000">
        <ele>161.9</ele>
        <time>2020-10-16T16:13:50Z</time>
      </trkpt>
      <trkpt lat="37.461559000" lon="-5.638385000">
        <ele>163.2</ele>
        <time>2020-10-16T16:13:55Z</time>
      </trkpt>
      <trkpt lat="37.461653000" lon="-5.638387000">
        <ele>164.4</ele>
        <time>2020-10-16T16:14:00Z</time>
      </trkpt>
      <trkpt lat="37.461734000" lon="-5.638370000">
        <ele>165.5</ele>
        <time>2020-10-16T16:14:04Z</time>
      </trkpt>
      <trkpt lat="37.461821000" lon="-5.638357000">
        <ele>166.5</ele>
        <time>2020-10-16T16:14:08Z</time>
      </trkpt>
      <trkpt lat="37.461923000" lon="-5.638354000">
        <ele>167.4</ele>
        <time>2020-10-16T16:14:13Z</time>
      </trkpt>
      <trkpt lat="37.462026000" lon="-5.638359000">
        <ele>168.1</ele>
        <time>2020-10-16T16:14:18Z</time>
      </trkpt>
      <trkpt lat="37.462115000" lon="-5.638380000">
        <ele>168.7</ele>
        <time>2020-10-16T16:14:23Z</time>
      </trkpt>
      <trkpt lat="37.462194000" lon="-5.638406000">
        <ele>169.2</ele>
        <time>2020-10-16T16:14:27Z</time>
      </trkpt>
      <trkpt lat="37.462277000" lon="-5.638430000">
        <ele>169.5</ele>
        <time>2020-10-16T16:14:31Z</time>
      </trkpt>
      <trkpt lat="37.462352000" lon="-5.638477000">
        <ele>169.7</ele>
        <time>2020-10-16T16:14:35Z</time>
      </trkpt>
      <trkpt lat="37.462440000" lon="-5.638533000">
        <ele>169.9</ele>
        <time>2020-10-16T16:14:40Z</time>
      </trkpt>
      <trkpt lat="37.462509000" lon="-5.638595000">
        <ele>170.1</ele>
        <time>2020-10-16T16:14:45Z</time>
      </trkpt>
      <trkpt lat="37.462582000" lon="-5.638653000">
        <ele>170.4</ele>
        <time>2020-10-16T16:14:49Z</time>
      </trkpt>
      <trkpt lat="37.462666000" lon="-5.638716000">
        <ele>170.5</ele>
        <time>2020-10-16T16:14:53Z</time>
      </trkpt>
      <trkpt lat="37.462750000" lon="-5.638775000">
        <ele>170.8</ele>
        <time>2020-10-16T16:14:58Z</time>
      </trkpt>
      <trkpt lat="37.462820000" lon="-5.638838000">
        <ele>171.2</ele>
        <time>2020-10-16T16:15:02Z</time>
      </trkpt>
      <trkpt lat="37.462900000" lon="-5.638908000">
        <ele>171.5</ele>
        <time>2020-10-16T16:15:06Z</time>
      </trkpt>
      <trkpt lat="37.462983000" lon="-5.638984000">
        <ele>172.0</ele>
        <time>2020-10-16T16:15:10Z</time>
      </trkpt>
      <trkpt lat="37.463065000" lon="-5.639069000">
        <ele>172.5</ele>
        <time>2020-10-16T16:15:15Z</time>
      </trkpt>
      <trkpt lat="37.463148000" lon="-5.639155000">
        <ele>173.2</ele>
        <time>2020-10-16T16:15:18Z</time>
      </trkpt>
      <trkpt lat="37.463213000" lon="-5.639222000">
        <ele>173.8</ele>
        <time>2020-10-16T16:15:21Z</time>
      </trkpt>
      <trkpt lat="37.463281000" lon="-5.639293000">
        <ele>174.5</ele>
        <time>2020-10-16T16:15:24Z</time>
      </trkpt>
      <trkpt lat="37.463363000" lon="-5.639367000">
        <ele>174.9</ele>
        <time>2020-10-16T16:15:27Z</time>
      </trkpt>
      <trkpt lat="37.463450000" lon="-5.639441000">
        <ele>175.2</ele>
        <time>2020-10-16T16:15:30Z</time>
      </trkpt>
      <trkpt lat="37.463544000" lon="-5.639506000">
        <ele>175.3</ele>
        <time>2020-10-16T16:15:33Z</time>
      </trkpt>
      <trkpt lat="37.463642000" lon="-5.639565000">
        <ele>175.2</ele>
        <time>2020-10-16T16:15:36Z</time>
      </trkpt>
      <trkpt lat="37.463748000" lon="-5.639633000">
        <ele>174.9</ele>
        <time>2020-10-16T16:15:39Z</time>
      </trkpt>
      <trkpt lat="37.463824000" lon="-5.639680000">
        <ele>174.6</ele>
        <time>2020-10-16T16:15:41Z</time>
      </trkpt>
      <trkpt lat="37.463901000" lon="-5.639727000">
        <ele>174.4</ele>
        <time>2020-10-16T16:15:43Z</time>
      </trkpt>
      <trkpt lat="37.463980000" lon="-5.639775000">
        <ele>174.1</ele>
        <time>2020-10-16T16:15:45Z</time>
      </trkpt>
      <trkpt lat="37.464066000" lon="-5.639820000">
        <ele>173.7</ele>
        <time>2020-10-16T16:15:47Z</time>
      </trkpt>
      <trkpt lat="37.464152000" lon="-5.639875000">
        <ele>173.4</ele>
        <time>2020-10-16T16:15:49Z</time>
      </trkpt>
      <trkpt lat="37.464239000" lon="-5.639930000">
        <ele>173.1</ele>
        <time>2020-10-16T16:15:51Z</time>
      </trkpt>
      <trkpt lat="37.464324000" lon="-5.639984000">
        <ele>173.0</ele>
        <time>2020-10-16T16:15:53Z</time>
      </trkpt>
      <trkpt lat="37.464401000" lon="-5.640029000">
        <ele>173.0</ele>
        <time>2020-10-16T16:15:55Z</time>
      </trkpt>
      <trkpt lat="37.464485000" lon="-5.640074000">
        <ele>173.2</ele>
        <time>2020-10-16T16:15:57Z</time>
      </trkpt>
      <trkpt lat="37.464562000" lon="-5.640138000">
        <ele>173.5</ele>
        <time>2020-10-16T16:16:00Z</time>
      </trkpt>
      <trkpt lat="37.464622000" lon="-5.640211000">
        <ele>174.1</ele>
        <time>2020-10-16T16:16:03Z</time>
      </trkpt>
      <trkpt lat="37.464676000" lon="-5.640288000">
        <ele>174.7</ele>
        <time>2020-10-16T16:16:06Z</time>
      </trkpt>
      <trkpt lat="37.464739000" lon="-5.640356000">
        <ele>175.3</ele>
        <time>2020-10-16T16:16:09Z</time>
      </trkpt>
      <trkpt lat="37.464805000" lon="-5.640448000">
        <ele>175.8</ele>
        <time>2020-10-16T16:16:12Z</time>
      </trkpt>
      <trkpt lat="37.464895000" lon="-5.640538000">
        <ele>176.5</ele>
        <time>2020-10-16T16:16:15Z</time>
      </trkpt>
      <trkpt lat="37.465002000" lon="-5.640589000">
        <ele>177.4</ele>
        <time>2020-10-16T16:16:18Z</time>
      </trkpt>
      <trkpt lat="37.465101000" lon="-5.640618000">
        <ele>178.2</ele>
        <time>2020-10-16T16:16:21Z</time>
      </trkpt>
      <trkpt lat="37.465184000" lon="-5.640629000">
        <ele>178.9</ele>
        <time>2020-10-16T16:16:25Z</time>
      </trkpt>
      <trkpt lat="37.465280000" lon="-5.640639000">
        <ele>179.6</ele>
        <time>2020-10-16T16:16:30Z</time>
      </trkpt>
      <trkpt lat="37.465369000" lon="-5.640640000">
        <ele>180.4</ele>
        <time>2020-10-16T16:16:34Z</time>
      </trkpt>
      <trkpt lat="37.465458000" lon="-5.640649000">
        <ele>181.0</ele>
        <time>2020-10-16T16:16:38Z</time>
      </trkpt>
      <trkpt lat="37.465554000" lon="-5.640644000">
        <ele>181.6</ele>
        <time>2020-10-16T16:16:42Z</time>
      </trkpt>
      <trkpt lat="37.465637000" lon="-5.640641000">
        <ele>182.3</ele>
        <time>2020-10-16T16:16:48Z</time>
      </trkpt>
      <trkpt lat="37.465728000" lon="-5.640618000">
        <ele>183.0</ele>
        <time>2020-10-16T16:16:53Z</time>
      </trkpt>
      <trkpt lat="37.465811000" lon="-5.640596000">
        <ele>183.8</ele>
        <time>2020-10-16T16:16:58Z</time>
      </trkpt>
      <trkpt lat="37.465908000" lon="-5.640590000">
        <ele>184.6</ele>
        <time>2020-10-16T16:17:03Z</time>
      </trkpt>
      <trkpt lat="37.466001000" lon="-5.640588000">
        <ele>185.5</ele>
        <time>2020-10-16T16:17:07Z</time>
      </trkpt>
      <trkpt lat="37.466095000" lon="-5.640600000">
        <ele>186.5</ele>
        <time>2020-10-16T16:17:12Z</time>
      </trkpt>
      <trkpt lat="37.466179000" lon="-5.640620000">
        <ele>187.6</ele>
        <time>2020-10-16T16:17:16Z</time>
      </trkpt>
      <trkpt lat="37.466261000" lon="-5.640649000">
        <ele>188.7</ele>
        <time>2020-10-16T16:17:20Z</time>
      </trkpt>
      <trkpt lat="37.466342000" lon="-5.640702000">
        <ele>189.6</ele>
        <time>2020-10-16T16:17:24Z</time>
      </trkpt>
      <trkpt lat="37.466431000" lon="-5.640750000">
        <ele>190.5</ele>
        <time>2020-10-16T16:17:28Z</time>
      </trkpt>
      <trkpt lat="37.466517000" lon="-5.640811000">
        <ele>191.4</ele>
        <time>2020-10-16T16:17:32Z</time>
      </trkpt>
      <trkpt lat="37.466600000" lon="-5.640867000">
        <ele>192.2</ele>
        <time>2020-10-16T16:17:36Z</time>
      </trkpt>
      <trkpt lat="37.466672000" lon="-5.640938000">
        <ele>192.9</ele>
        <time>2020-10-16T16:17:41Z</time>
      </trkpt>
      <trkpt lat="37.466756000" lon="-5.640976000">
        <ele>193.6</ele>
        <time>2020-10-16T16:17:45Z</time>
      </trkpt>
      <trkpt lat="37.466838000" lon="-5.641017000">
        <ele>194.5</ele>
        <time>2020-10-16T16:17:49Z</time>
      </trkpt>
      <trkpt lat="37.466928000" lon="-5.641065000">
        <ele>195.2</ele>
        <time>2020-10-16T16:17:53Z</time>
      </trkpt>
      <trkpt lat="37.467012000" lon="-5.641104000">
        <ele>195.8</ele>
        <time>2020-10-16T16:17:57Z</time>
      </trkpt>
      <trkpt lat="37.467099000" lon="-5.641145000">
        <ele>196.5</ele>
        <time>2020-10-16T16:18:01Z</time>
      </trkpt>
      <trkpt lat="37.467182000" lon="-5.641189000">
        <ele>197.0</ele>
        <time>2020-10-16T16:18:05Z</time>
      </trkpt>
      <trkpt lat="37.467265000" lon="-5.641238000">
        <ele>197.6</ele>
        <time>2020-10-16T16:18:09Z</time>
      </trkpt>
      <trkpt lat="37.467349000" lon="-5.641264000">
        <ele>198.2</ele>
        <time>2020-10-16T16:18:13Z</time>
      </trkpt>
      <trkpt lat="37.467443000" lon="-5.641308000">
        <ele>198.7</ele>
        <time>2020-10-16T16:18:17Z</time>
      </trkpt>
      <trkpt lat="37.467529000" lon="-5.641350000">
        <ele>199.1</ele>
        <time>2020-10-16T16:18:21Z</time>
      </trkpt>
      <trkpt lat="37.467616000" lon="-5.641392000">
        <ele>199.4</ele>
        <time>2020-10-16T16:18:25Z</time>
      </trkpt>
      <trkpt lat="37.467716000" lon="-5.641431000">
        <ele>199.5</ele>
        <time>2020-10-16T16:18:29Z</time>
      </trkpt>
      <trkpt lat="37.467822000" lon="-5.641466000">
        <ele>199.5</ele>
        <time>2020-10-16T16:18:33Z</time>
      </trkpt>
      <trkpt lat="37.467911000" lon="-5.641496000">
        <ele>199.5</ele>
        <time>2020-10-16T16:18:36Z</time>
      </trkpt>
      <trkpt lat="37.467996000" lon="-5.641521000">
        <ele>199.4</ele>
        <time>2020-10-16T16:18:39Z</time>
      </trkpt>
      <trkpt lat="37.468084000" lon="-5.641531000">
        <ele>199.3</ele>
        <time>2020-10-16T16:18:42Z</time>
      </trkpt>
      <trkpt lat="37.468173000" lon="-5.641532000">
        <ele>199.3</ele>
        <time>2020-10-16T16:18:45Z</time>
      </trkpt>
      <trkpt lat="37.468254000" lon="-5.641543000">
        <ele>199.5</ele>
        <time>2020-10-16T16:18:48Z</time>
      </trkpt>
      <trkpt lat="37.468340000" lon="-5.641564000">
        <ele>199.8</ele>
        <time>2020-10-16T16:18:52Z</time>
      </trkpt>
      <trkpt lat="37.468423000" lon="-5.641613000">
        <ele>200.2</ele>
        <time>2020-10-16T16:19:41Z</time>
      </trkpt>
      <trkpt lat="37.468503000" lon="-5.641661000">
        <ele>200.7</ele>
        <time>2020-10-16T16:19:44Z</time>
      </trkpt>
      <trkpt lat="37.468590000" lon="-5.641724000">
        <ele>201.4</ele>
        <time>2020-10-16T16:19:47Z</time>
      </trkpt>
      <trkpt lat="37.468683000" lon="-5.641782000">
        <ele>202.0</ele>
        <time>2020-10-16T16:19:50Z</time>
      </trkpt>
      <trkpt lat="37.468770000" lon="-5.641835000">
        <ele>202.6</ele>
        <time>2020-10-16T16:19:53Z</time>
      </trkpt>
      <trkpt lat="37.468869000" lon="-5.641884000">
        <ele>203.3</ele>
        <time>2020-10-16T16:19:56Z</time>
      </trkpt>
      <trkpt lat="37.468956000" lon="-5.641928000">
        <ele>203.8</ele>
        <time>2020-10-16T16:19:59Z</time>
      </trkpt>
      <trkpt lat="37.469040000" lon="-5.641976000">
        <ele>204.3</ele>
        <time>2020-10-16T16:20:02Z</time>
      </trkpt>
      <trkpt lat="37.469131000" lon="-5.642025000">
        <ele>204.6</ele>
        <time>2020-10-16T16:20:05Z</time>
      </trkpt>
      <trkpt lat="37.469213000" lon="-5.642074000">
        <ele>204.8</ele>
        <time>2020-10-16T16:20:08Z</time>
      </trkpt>
      <trkpt lat="37.469289000" lon="-5.642121000">
        <ele>204.9</ele>
        <time>2020-10-16T16:20:11Z</time>
      </trkpt>
      <trkpt lat="37.469369000" lon="-5.642163000">
        <ele>205.0</ele>
        <time>2020-10-16T16:20:14Z</time>
      </trkpt>
      <trkpt lat="37.469451000" lon="-5.642195000">
        <ele>205.0</ele>
        <time>2020-10-16T16:20:17Z</time>
      </trkpt>
      <trkpt lat="37.469543000" lon="-5.642218000">
        <ele>205.0</ele>
        <time>2020-10-16T16:20:20Z</time>
      </trkpt>
      <trkpt lat="37.469626000" lon="-5.642229000">
        <ele>205.0</ele>
        <time>2020-10-16T16:20:23Z</time>
      </trkpt>
      <trkpt lat="37.469722000" lon="-5.642217000">
        <ele>205.1</ele>
        <time>2020-10-16T16:20:26Z</time>
      </trkpt>
      <trkpt lat="37.469813000" lon="-5.642172000">
        <ele>205.2</ele>
        <time>2020-10-16T16:20:29Z</time>
      </trkpt>
      <trkpt lat="37.469893000" lon="-5.642127000">
        <ele>205.4</ele>
        <time>2020-10-16T16:20:32Z</time>
      </trkpt>
      <trkpt lat="37.469986000" lon="-5.642075000">
        <ele>205.6</ele>
        <time>2020-10-16T16:20:36Z</time>
      </trkpt>
      <trkpt lat="37.470068000" lon="-5.642015000">
        <ele>206.0</ele>
        <time>2020-10-16T16:20:40Z</time>
      </trkpt>
      <trkpt lat="37.470159000" lon="-5.641964000">
        <ele>206.5</ele>
        <time>2020-10-16T16:20:44Z</time>
      </trkpt>
      <trkpt lat="37.470247000" lon="-5.641915000">
        <ele>207.2</ele>
        <time>2020-10-16T16:20:48Z</time>
      </trkpt>
      <trkpt lat="37.470332000" lon="-5.641872000">
        <ele>208.1</ele>
        <time>2020-10-16T16:20:52Z</time>
      </trkpt>
      <trkpt lat="37.470414000" lon="-5.641822000">
        <ele>209.3</ele>
        <time>2020-10-16T16:20:56Z</time>
      </trkpt>
      <trkpt lat="37.470492000" lon="-5.641775000">
        <ele>210.6</ele>
        <time>2020-10-16T16:21:00Z</time>
      </trkpt>
      <trkpt lat="37.470589000" lon="-5.641748000">
        <ele>212.1</ele>
        <time>2020-10-16T16:21:05Z</time>
      </trkpt>
      <trkpt lat="37.470679000" lon="-5.641737000">
        <ele>213.6</ele>
        <time>2020-10-16T16:21:10Z</time>
      </trkpt>
      <trkpt lat="37.470771000" lon="-5.641729000">
        <ele>215.3</ele>
        <time>2020-10-16T16:21:15Z</time>
      </trkpt>
      <trkpt lat="37.470861000" lon="-5.641730000">
        <ele>216.9</ele>
        <time>2020-10-16T16:21:20Z</time>
      </trkpt>
      <trkpt lat="37.470957000" lon="-5.641711000">
        <ele>218.4</ele>
        <time>2020-10-16T16:21:26Z</time>
      </trkpt>
      <trkpt lat="37.471035000" lon="-5.641679000">
        <ele>219.5</ele>
        <time>2020-10-16T16:21:30Z</time>
      </trkpt>
      <trkpt lat="37.471113000" lon="-5.641636000">
        <ele>220.5</ele>
        <time>2020-10-16T16:21:35Z</time>
      </trkpt>
      <trkpt lat="37.471200000" lon="-5.641619000">
        <ele>221.3</ele>
        <time>2020-10-16T16:21:40Z</time>
      </trkpt>
      <trkpt lat="37.471281000" lon="-5.641588000">
        <ele>221.8</ele>
        <time>2020-10-16T16:21:46Z</time>
      </trkpt>
      <trkpt lat="37.471323000" lon="-5.641696000">
        <ele>222.0</ele>
        <time>2020-10-16T16:22:08Z</time>
      </trkpt>
      <trkpt lat="37.471234000" lon="-5.641846000">
        <ele>221.9</ele>
        <time>2020-10-16T16:22:11Z</time>
      </trkpt>
      <trkpt lat="37.471187000" lon="-5.641985000">
        <ele>221.7</ele>
        <time>2020-10-16T16:22:13Z</time>
      </trkpt>
      <trkpt lat="37.471172000" lon="-5.642121000">
        <ele>221.3</ele>
        <time>2020-10-16T16:22:15Z</time>
      </trkpt>
      <trkpt lat="37.471158000" lon="-5.642251000">
        <ele>220.7</ele>
        <time>2020-10-16T16:22:17Z</time>
      </trkpt>
      <trkpt lat="37.471146000" lon="-5.642368000">
        <ele>220.1</ele>
        <time>2020-10-16T16:22:19Z</time>
      </trkpt>
      <trkpt lat="37.471139000" lon="-5.642481000">
        <ele>219.5</ele>
        <time>2020-10-16T16:22:21Z</time>
      </trkpt>
      <trkpt lat="37.471127000" lon="-5.642598000">
        <ele>219.1</ele>
        <time>2020-10-16T16:22:23Z</time>
      </trkpt>
      <trkpt lat="37.471101000" lon="-5.642732000">
        <ele>218.8</ele>
        <time>2020-10-16T16:22:26Z</time>
      </trkpt>
      <trkpt lat="37.471058000" lon="-5.642869000">
        <ele>218.5</ele>
        <time>2020-10-16T16:22:29Z</time>
      </trkpt>
      <trkpt lat="37.471028000" lon="-5.643006000">
        <ele>218.3</ele>
        <time>2020-10-16T16:22:32Z</time>
      </trkpt>
      <trkpt lat="37.471045000" lon="-5.643106000">
        <ele>218.2</ele>
        <time>2020-10-16T16:23:09Z</time>
      </trkpt>
      <trkpt lat="37.471029000" lon="-5.642993000">
        <ele>218.2</ele>
        <time>2020-10-16T16:23:26Z</time>
      </trkpt>
      <trkpt lat="37.471080000" lon="-5.642890000">
        <ele>218.3</ele>
        <time>2020-10-16T16:23:30Z</time>
      </trkpt>
      <trkpt lat="37.471094000" lon="-5.642760000">
        <ele>218.5</ele>
        <time>2020-10-16T16:23:34Z</time>
      </trkpt>
      <trkpt lat="37.471108000" lon="-5.642656000">
        <ele>218.8</ele>
        <time>2020-10-16T16:23:37Z</time>
      </trkpt>
      <trkpt lat="37.471127000" lon="-5.642549000">
        <ele>219.1</ele>
        <time>2020-10-16T16:23:40Z</time>
      </trkpt>
      <trkpt lat="37.471140000" lon="-5.642436000">
        <ele>219.5</ele>
        <time>2020-10-16T16:23:43Z</time>
      </trkpt>
      <trkpt lat="37.471156000" lon="-5.642331000">
        <ele>219.8</ele>
        <time>2020-10-16T16:23:46Z</time>
      </trkpt>
      <trkpt lat="37.471179000" lon="-5.642202000">
        <ele>220.3</ele>
        <time>2020-10-16T16:23:50Z</time>
      </trkpt>
      <trkpt lat="37.471180000" lon="-5.642090000">
        <ele>220.9</ele>
        <time>2020-10-16T16:23:54Z</time>
      </trkpt>
      <trkpt lat="37.471157000" lon="-5.641978000">
        <ele>221.5</ele>
        <time>2020-10-16T16:23:59Z</time>
      </trkpt>
      <trkpt lat="37.471114000" lon="-5.641887000">
        <ele>222.2</ele>
        <time>2020-10-16T16:24:34Z</time>
      </trkpt>
      <trkpt lat="37.471112000" lon="-5.641762000">
        <ele>222.9</ele>
        <time>2020-10-16T16:25:02Z</time>
      </trkpt>
      <trkpt lat="37.471156000" lon="-5.641646000">
        <ele>223.6</ele>
        <time>2020-10-16T16:25:06Z</time>
      </trkpt>
      <trkpt lat="37.471219000" lon="-5.641556000">
        <ele>224.3</ele>
        <time>2020-10-16T16:25:11Z</time>
      </trkpt>
      <trkpt lat="37.471206000" lon="-5.641439000">
        <ele>224.9</ele>
        <time>2020-10-16T16:25:17Z</time>
      </trkpt>
      <trkpt lat="37.471179000" lon="-5.641317000">
        <ele>225.5</ele>
        <time>2020-10-16T16:26:00Z</time>
      </trkpt>
      <trkpt lat="37.471153000" lon="-5.641201000">
        <ele>226.2</ele>
        <time>2020-10-16T16:26:03Z</time>
      </trkpt>
      <trkpt lat="37.471132000" lon="-5.641101000">
        <ele>226.7</ele>
        <time>2020-10-16T16:26:06Z</time>
      </trkpt>
      <trkpt lat="37.471091000" lon="-5.641012000">
        <ele>227.2</ele>
        <time>2020-10-16T16:26:10Z</time>
      </trkpt>
      <trkpt lat="37.471045000" lon="-5.640914000">
        <ele>227.5</ele>
        <time>2020-10-16T16:26:14Z</time>
      </trkpt>
      <trkpt lat="37.471050000" lon="-5.640809000">
        <ele>227.7</ele>
        <time>2020-10-16T16:26:17Z</time>
      </trkpt>
      <trkpt lat="37.471074000" lon="-5.640694000">
        <ele>227.8</ele>
        <time>2020-10-16T16:26:20Z</time>
      </trkpt>
      <trkpt lat="37.471088000" lon="-5.640579000">
        <ele>227.8</ele>
        <time>2020-10-16T16:26:23Z</time>
      </trkpt>
      <trkpt lat="37.471087000" lon="-5.640463000">
        <ele>227.8</ele>
        <time>2020-10-16T16:26:26Z</time>
      </trkpt>
      <trkpt lat="37.471093000" lon="-5.640349000">
        <ele>227.9</ele>
        <time>2020-10-16T16:26:29Z</time>
      </trkpt>
      <trkpt lat="37.471085000" lon="-5.640215000">
        <ele>228.1</ele>
        <time>2020-10-16T16:26:33Z</time>
      </trkpt>
      <trkpt lat="37.471053000" lon="-5.640121000">
        <ele>228.4</ele>
        <time>2020-10-16T16:26:38Z</time>
      </trkpt>
      <trkpt lat="37.471000000" lon="-5.640034000">
        <ele>228.7</ele>
        <time>2020-10-16T16:26:44Z</time>
      </trkpt>
      <trkpt lat="37.471055000" lon="-5.639940000">
        <ele>229.2</ele>
        <time>2020-10-16T16:26:52Z</time>
      </trkpt>
      <trkpt lat="37.471119000" lon="-5.639865000">
        <ele>229.7</ele>
        <time>2020-10-16T16:26:56Z</time>
      </trkpt>
      <trkpt lat="37.471167000" lon="-5.639750000">
        <ele>230.5</ele>
        <time>2020-10-16T16:26:59Z</time>
      </trkpt>
      <trkpt lat="37.471184000" lon="-5.639645000">
        <ele>231.3</ele>
        <time>2020-10-16T16:27:03Z</time>
      </trkpt>
      <trkpt lat="37.471257000" lon="-5.639575000">
        <ele>232.3</ele>
        <time>2020-10-16T16:27:09Z</time>
      </trkpt>
      <trkpt lat="37.471328000" lon="-5.639523000">
        <ele>233.4</ele>
        <time>2020-10-16T16:27:11Z</time>
      </trkpt>
      <trkpt lat="37.471390000" lon="-5.639411000">
        <ele>234.4</ele>
        <time>2020-10-16T16:27:14Z</time>
      </trkpt>
      <trkpt lat="37.471404000" lon="-5.639295000">
        <ele>235.3</ele>
        <time>2020-10-16T16:27:17Z</time>
      </trkpt>
      <trkpt lat="37.471463000" lon="-5.639214000">
        <ele>236.1</ele>
        <time>2020-10-16T16:27:25Z</time>
      </trkpt>
      <trkpt lat="37.471600000" lon="-5.639039000">
        <ele>236.9</ele>
        <time>2020-10-16T16:27:27Z</time>
      </trkpt>
      <trkpt lat="37.471676000" lon="-5.638975000">
        <ele>237.6</ele>
        <time>2020-10-16T16:27:31Z</time>
      </trkpt>
      <trkpt lat="37.471719000" lon="-5.638875000">
        <ele>238.3</ele>
        <time>2020-10-16T16:27:35Z</time>
      </trkpt>
      <trkpt lat="37.471769000" lon="-5.638777000">
        <ele>238.8</ele>
        <time>2020-10-16T16:27:42Z</time>
      </trkpt>
      <trkpt lat="37.471825000" lon="-5.638703000">
        <ele>239.2</ele>
        <time>2020-10-16T16:27:46Z</time>
      </trkpt>
      <trkpt lat="37.471839000" lon="-5.638589000">
        <ele>239.5</ele>
        <time>2020-10-16T16:27:51Z</time>
      </trkpt>
      <trkpt lat="37.471881000" lon="-5.638481000">
        <ele>239.8</ele>
        <time>2020-10-16T16:27:56Z</time>
      </trkpt>
      <trkpt lat="37.471912000" lon="-5.638379000">
        <ele>240.0</ele>
        <time>2020-10-16T16:28:00Z</time>
      </trkpt>
      <trkpt lat="37.471923000" lon="-5.638278000">
        <ele>240.1</ele>
        <time>2020-10-16T16:28:05Z</time>
      </trkpt>
      <trkpt lat="37.472002000" lon="-5.638234000">
        <ele>240.2</ele>
        <time>2020-10-16T16:28:13Z</time>
      </trkpt>
      <trkpt lat="37.472069000" lon="-5.638148000">
        <ele>240.3</ele>
        <time>2020-10-16T16:28:17Z</time>
      </trkpt>
      <trkpt lat="37.471989000" lon="-5.638109000">
        <ele>240.3</ele>
        <time>2020-10-16T16:28:39Z</time>
      </trkpt>
      <trkpt lat="37.471923000" lon="-5.638170000">
        <ele>240.4</ele>
        <time>2020-10-16T16:28:47Z</time>
      </trkpt>
      <trkpt lat="37.471849000" lon="-5.638215000">
        <ele>240.4</ele>
        <time>2020-10-16T16:29:04Z</time>
      </trkpt>
      <trkpt lat="37.471821000" lon="-5.638191000">
        <ele>240.5</ele>
        <time>2020-10-16T16:30:23Z</time>
      </trkpt>
      <trkpt lat="37.469038000" lon="-5.646758000">
        <ele>229.7</ele>
        <time>2020-10-17T07:32:43Z</time>
      </trkpt>
      <trkpt lat="37.468930000" lon="-5.646788000">
        <ele>229.4</ele>
        <time>2020-10-17T07:32:46Z</time>
      </trkpt>
      <trkpt lat="37.468849000" lon="-5.646829000">
        <ele>229.1</ele>
        <time>2020-10-17T07:32:48Z</time>
      </trkpt>
      <trkpt lat="37.468769000" lon="-5.646932000">
        <ele>228.7</ele>
        <time>2020-10-17T07:32:51Z</time>
      </trkpt>
      <trkpt lat="37.468718000" lon="-5.647041000">
        <ele>228.3</ele>
        <time>2020-10-17T07:32:54Z</time>
      </trkpt>
      <trkpt lat="37.468680000" lon="-5.647165000">
        <ele>227.9</ele>
        <time>2020-10-17T07:32:57Z</time>
      </trkpt>
      <trkpt lat="37.468640000" lon="-5.647303000">
        <ele>227.5</ele>
        <time>2020-10-17T07:33:00Z</time>
      </trkpt>
      <trkpt lat="37.468589000" lon="-5.647430000">
        <ele>226.9</ele>
        <time>2020-10-17T07:33:03Z</time>
      </trkpt>
      <trkpt lat="37.468533000" lon="-5.647537000">
        <ele>226.4</ele>
        <time>2020-10-17T07:33:06Z</time>
      </trkpt>
      <trkpt lat="37.468479000" lon="-5.647663000">
        <ele>225.8</ele>
        <time>2020-10-17T07:33:09Z</time>
      </trkpt>
      <trkpt lat="37.468436000" lon="-5.647790000">
        <ele>225.3</ele>
        <time>2020-10-17T07:33:12Z</time>
      </trkpt>
      <trkpt lat="37.468384000" lon="-5.647920000">
        <ele>224.8</ele>
        <time>2020-10-17T07:33:15Z</time>
      </trkpt>
      <trkpt lat="37.468341000" lon="-5.648011000">
        <ele>224.5</ele>
        <time>2020-10-17T07:33:17Z</time>
      </trkpt>
      <trkpt lat="37.468293000" lon="-5.648103000">
        <ele>224.2</ele>
        <time>2020-10-17T07:33:19Z</time>
      </trkpt>
      <trkpt lat="37.468248000" lon="-5.648193000">
        <ele>224.1</ele>
        <time>2020-10-17T07:33:21Z</time>
      </trkpt>
      <trkpt lat="37.468211000" lon="-5.648319000">
        <ele>224.0</ele>
        <time>2020-10-17T07:33:24Z</time>
      </trkpt>
      <trkpt lat="37.468259000" lon="-5.648421000">
        <ele>224.0</ele>
        <time>2020-10-17T07:33:27Z</time>
      </trkpt>
      <trkpt lat="37.468322000" lon="-5.648492000">
        <ele>224.1</ele>
        <time>2020-10-17T07:33:31Z</time>
      </trkpt>
      <trkpt lat="37.468429000" lon="-5.648522000">
        <ele>224.2</ele>
        <time>2020-10-17T07:33:35Z</time>
      </trkpt>
      <trkpt lat="37.468519000" lon="-5.648551000">
        <ele>224.3</ele>
        <time>2020-10-17T07:33:38Z</time>
      </trkpt>
      <trkpt lat="37.468606000" lon="-5.648579000">
        <ele>224.4</ele>
        <time>2020-10-17T07:33:41Z</time>
      </trkpt>
      <trkpt lat="37.468686000" lon="-5.648604000">
        <ele>224.5</ele>
        <time>2020-10-17T07:33:44Z</time>
      </trkpt>
      <trkpt lat="37.468771000" lon="-5.648605000">
        <ele>224.5</ele>
        <time>2020-10-17T07:33:47Z</time>
      </trkpt>
      <trkpt lat="37.468858000" lon="-5.648618000">
        <ele>224.6</ele>
        <time>2020-10-17T07:33:50Z</time>
      </trkpt>
      <trkpt lat="37.468954000" lon="-5.648657000">
        <ele>224.7</ele>
        <time>2020-10-17T07:33:54Z</time>
      </trkpt>
      <trkpt lat="37.468974000" lon="-5.648777000">
        <ele>224.9</ele>
        <time>2020-10-17T07:33:59Z</time>
      </trkpt>
      <trkpt lat="37.468942000" lon="-5.648899000">
        <ele>225.1</ele>
        <time>2020-10-17T07:34:03Z</time>
      </trkpt>
      <trkpt lat="37.468928000" lon="-5.649025000">
        <ele>225.4</ele>
        <time>2020-10-17T07:34:07Z</time>
      </trkpt>
      <trkpt lat="37.468957000" lon="-5.649135000">
        <ele>225.6</ele>
        <time>2020-10-17T07:34:11Z</time>
      </trkpt>
      <trkpt lat="37.468950000" lon="-5.649242000">
        <ele>225.9</ele>
        <time>2020-10-17T07:34:14Z</time>
      </trkpt>
      <trkpt lat="37.468940000" lon="-5.649368000">
        <ele>226.3</ele>
        <time>2020-10-17T07:34:17Z</time>
      </trkpt>
      <trkpt lat="37.468937000" lon="-5.649498000">
        <ele>226.5</ele>
        <time>2020-10-17T07:34:20Z</time>
      </trkpt>
      <trkpt lat="37.468918000" lon="-5.649621000">
        <ele>226.7</ele>
        <time>2020-10-17T07:34:23Z</time>
      </trkpt>
      <trkpt lat="37.468902000" lon="-5.649729000">
        <ele>226.8</ele>
        <time>2020-10-17T07:34:26Z</time>
      </trkpt>
      <trkpt lat="37.468880000" lon="-5.649836000">
        <ele>226.8</ele>
        <time>2020-10-17T07:34:29Z</time>
      </trkpt>
      <trkpt lat="37.468859000" lon="-5.649962000">
        <ele>226.7</ele>
        <time>2020-10-17T07:34:32Z</time>
      </trkpt>
      <trkpt lat="37.468839000" lon="-5.650082000">
        <ele>226.5</ele>
        <time>2020-10-17T07:34:35Z</time>
      </trkpt>
      <trkpt lat="37.468833000" lon="-5.650212000">
        <ele>226.4</ele>
        <time>2020-10-17T07:34:38Z</time>
      </trkpt>
      <trkpt lat="37.468841000" lon="-5.650336000">
        <ele>226.1</ele>
        <time>2020-10-17T07:34:41Z</time>
      </trkpt>
      <trkpt lat="37.468844000" lon="-5.650453000">
        <ele>225.7</ele>
        <time>2020-10-17T07:34:44Z</time>
      </trkpt>
      <trkpt lat="37.468859000" lon="-5.650555000">
        <ele>225.4</ele>
        <time>2020-10-17T07:34:47Z</time>
      </trkpt>
      <trkpt lat="37.468883000" lon="-5.650655000">
        <ele>224.9</ele>
        <time>2020-10-17T07:34:50Z</time>
      </trkpt>
      <trkpt lat="37.468904000" lon="-5.650787000">
        <ele>224.5</ele>
        <time>2020-10-17T07:34:54Z</time>
      </trkpt>
      <trkpt lat="37.468932000" lon="-5.650912000">
        <ele>224.3</ele>
        <time>2020-10-17T07:34:58Z</time>
      </trkpt>
      <trkpt lat="37.468950000" lon="-5.651026000">
        <ele>224.1</ele>
        <time>2020-10-17T07:35:02Z</time>
      </trkpt>
      <trkpt lat="37.468975000" lon="-5.651124000">
        <ele>224.0</ele>
        <time>2020-10-17T07:35:05Z</time>
      </trkpt>
      <trkpt lat="37.468990000" lon="-5.651233000">
        <ele>223.9</ele>
        <time>2020-10-17T07:35:08Z</time>
      </trkpt>
      <trkpt lat="37.468992000" lon="-5.651343000">
        <ele>223.7</ele>
        <time>2020-10-17T07:35:11Z</time>
      </trkpt>
      <trkpt lat="37.469001000" lon="-5.651479000">
        <ele>223.5</ele>
        <time>2020-10-17T07:35:14Z</time>
      </trkpt>
      <trkpt lat="37.469025000" lon="-5.651578000">
        <ele>223.2</ele>
        <time>2020-10-17T07:35:16Z</time>
      </trkpt>
      <trkpt lat="37.469035000" lon="-5.651699000">
        <ele>222.9</ele>
        <time>2020-10-17T07:35:18Z</time>
      </trkpt>
      <trkpt lat="37.469026000" lon="-5.651824000">
        <ele>222.5</ele>
        <time>2020-10-17T07:35:20Z</time>
      </trkpt>
      <trkpt lat="37.469008000" lon="-5.651955000">
        <ele>222.2</ele>
        <time>2020-10-17T07:35:22Z</time>
      </trkpt>
      <trkpt lat="37.468977000" lon="-5.652074000">
        <ele>221.8</ele>
        <time>2020-10-17T07:35:24Z</time>
      </trkpt>
      <trkpt lat="37.468951000" lon="-5.652190000">
        <ele>221.5</ele>
        <time>2020-10-17T07:35:26Z</time>
      </trkpt>
      <trkpt lat="37.468918000" lon="-5.652301000">
        <ele>221.1</ele>
        <time>2020-10-17T07:35:28Z</time>
      </trkpt>
      <trkpt lat="37.468904000" lon="-5.652404000">
        <ele>220.7</ele>
        <time>2020-10-17T07:35:30Z</time>
      </trkpt>
      <trkpt lat="37.468877000" lon="-5.652543000">
        <ele>220.5</ele>
        <time>2020-10-17T07:35:33Z</time>
      </trkpt>
      <trkpt lat="37.468844000" lon="-5.652674000">
        <ele>220.5</ele>
        <time>2020-10-17T07:35:36Z</time>
      </trkpt>
      <trkpt lat="37.468807000" lon="-5.652786000">
        <ele>220.4</ele>
        <time>2020-10-17T07:35:39Z</time>
      </trkpt>
      <trkpt lat="37.468842000" lon="-5.652881000">
        <ele>220.2</ele>
        <time>2020-10-17T07:35:44Z</time>
      </trkpt>
      <trkpt lat="37.468933000" lon="-5.652910000">
        <ele>219.9</ele>
        <time>2020-10-17T07:35:48Z</time>
      </trkpt>
      <trkpt lat="37.469039000" lon="-5.652949000">
        <ele>219.6</ele>
        <time>2020-10-17T07:35:52Z</time>
      </trkpt>
      <trkpt lat="37.469118000" lon="-5.652973000">
        <ele>219.2</ele>
        <time>2020-10-17T07:35:54Z</time>
      </trkpt>
      <trkpt lat="37.469198000" lon="-5.652997000">
        <ele>218.6</ele>
        <time>2020-10-17T07:35:56Z</time>
      </trkpt>
      <trkpt lat="37.469309000" lon="-5.653014000">
        <ele>218.0</ele>
        <time>2020-10-17T07:36:00Z</time>
      </trkpt>
      <trkpt lat="37.469410000" lon="-5.653035000">
        <ele>217.4</ele>
        <time>2020-10-17T07:36:03Z</time>
      </trkpt>
      <trkpt lat="37.469498000" lon="-5.653062000">
        <ele>216.7</ele>
        <time>2020-10-17T07:36:06Z</time>
      </trkpt>
      <trkpt lat="37.469602000" lon="-5.653089000">
        <ele>216.0</ele>
        <time>2020-10-17T07:36:10Z</time>
      </trkpt>
      <trkpt lat="37.469682000" lon="-5.653135000">
        <ele>215.3</ele>
        <time>2020-10-17T07:36:14Z</time>
      </trkpt>
      <trkpt lat="37.469728000" lon="-5.653273000">
        <ele>214.6</ele>
        <time>2020-10-17T07:36:17Z</time>
      </trkpt>
      <trkpt lat="37.469759000" lon="-5.653385000">
        <ele>214.1</ele>
        <time>2020-10-17T07:36:19Z</time>
      </trkpt>
      <trkpt lat="37.469786000" lon="-5.653508000">
        <ele>213.6</ele>
        <time>2020-10-17T07:36:21Z</time>
      </trkpt>
      <trkpt lat="37.469819000" lon="-5.653619000">
        <ele>213.3</ele>
        <time>2020-10-17T07:36:23Z</time>
      </trkpt>
      <trkpt lat="37.469863000" lon="-5.653735000">
        <ele>213.1</ele>
        <time>2020-10-17T07:36:25Z</time>
      </trkpt>
      <trkpt lat="37.469913000" lon="-5.653843000">
        <ele>213.0</ele>
        <time>2020-10-17T07:36:27Z</time>
      </trkpt>
      <trkpt lat="37.469972000" lon="-5.653946000">
        <ele>212.9</ele>
        <time>2020-10-17T07:36:29Z</time>
      </trkpt>
      <trkpt lat="37.470019000" lon="-5.654061000">
        <ele>212.6</ele>
        <time>2020-10-17T07:36:31Z</time>
      </trkpt>
      <trkpt lat="37.470067000" lon="-5.654166000">
        <ele>212.2</ele>
        <time>2020-10-17T07:36:33Z</time>
      </trkpt>
      <trkpt lat="37.470113000" lon="-5.654252000">
        <ele>211.6</ele>
        <time>2020-10-17T07:36:35Z</time>
      </trkpt>
      <trkpt lat="37.470186000" lon="-5.654339000">
        <ele>211.0</ele>
        <time>2020-10-17T07:36:38Z</time>
      </trkpt>
      <trkpt lat="37.470297000" lon="-5.654306000">
        <ele>210.4</ele>
        <time>2020-10-17T07:36:41Z</time>
      </trkpt>
      <trkpt lat="37.470392000" lon="-5.654266000">
        <ele>209.7</ele>
        <time>2020-10-17T07:36:43Z</time>
      </trkpt>
      <trkpt lat="37.470501000" lon="-5.654215000">
        <ele>209.2</ele>
        <time>2020-10-17T07:36:45Z</time>
      </trkpt>
      <trkpt lat="37.470618000" lon="-5.654156000">
        <ele>208.7</ele>
        <time>2020-10-17T07:36:47Z</time>
      </trkpt>
      <trkpt lat="37.470730000" lon="-5.654087000">
        <ele>208.3</ele>
        <time>2020-10-17T07:36:49Z</time>
      </trkpt>
      <trkpt lat="37.470849000" lon="-5.654036000">
        <ele>207.9</ele>
        <time>2020-10-17T07:36:51Z</time>
      </trkpt>
      <trkpt lat="37.470956000" lon="-5.653973000">
        <ele>207.6</ele>
        <time>2020-10-17T07:36:53Z</time>
      </trkpt>
      <trkpt lat="37.471065000" lon="-5.653915000">
        <ele>207.5</ele>
        <time>2020-10-17T07:36:55Z</time>
      </trkpt>
      <trkpt lat="37.471161000" lon="-5.653861000">
        <ele>207.6</ele>
        <time>2020-10-17T07:36:57Z</time>
      </trkpt>
      <trkpt lat="37.471241000" lon="-5.653789000">
        <ele>207.8</ele>
        <time>2020-10-17T07:36:59Z</time>
      </trkpt>
      <trkpt lat="37.471319000" lon="-5.653710000">
        <ele>208.1</ele>
        <time>2020-10-17T07:37:01Z</time>
      </trkpt>
      <trkpt lat="37.471392000" lon="-5.653643000">
        <ele>208.4</ele>
        <time>2020-10-17T07:37:03Z</time>
      </trkpt>
      <trkpt lat="37.471456000" lon="-5.653571000">
        <ele>208.6</ele>
        <time>2020-10-17T07:37:05Z</time>
      </trkpt>
      <trkpt lat="37.471526000" lon="-5.653518000">
        <ele>208.8</ele>
        <time>2020-10-17T07:37:07Z</time>
      </trkpt>
      <trkpt lat="37.471606000" lon="-5.653426000">
        <ele>208.9</ele>
        <time>2020-10-17T07:37:10Z</time>
      </trkpt>
      <trkpt lat="37.471668000" lon="-5.653358000">
        <ele>209.0</ele>
        <time>2020-10-17T07:37:13Z</time>
      </trkpt>
      <trkpt lat="37.471723000" lon="-5.653271000">
        <ele>209.0</ele>
        <time>2020-10-17T07:37:18Z</time>
      </trkpt>
      <trkpt lat="37.471782000" lon="-5.653191000">
        <ele>209.0</ele>
        <time>2020-10-17T07:37:33Z</time>
      </trkpt>
      <trkpt lat="37.471823000" lon="-5.653099000">
        <ele>209.0</ele>
        <time>2020-10-17T07:37:36Z</time>
      </trkpt>
      <trkpt lat="37.471874000" lon="-5.652972000">
        <ele>209.0</ele>
        <time>2020-10-17T07:37:39Z</time>
      </trkpt>
      <trkpt lat="37.471925000" lon="-5.652854000">
        <ele>209.0</ele>
        <time>2020-10-17T07:37:42Z</time>
      </trkpt>
      <trkpt lat="37.471964000" lon="-5.652738000">
        <ele>208.9</ele>
        <time>2020-10-17T07:37:45Z</time>
      </trkpt>
      <trkpt lat="37.472033000" lon="-5.652663000">
        <ele>208.7</ele>
        <time>2020-10-17T07:37:48Z</time>
      </trkpt>
      <trkpt lat="37.472146000" lon="-5.652699000">
        <ele>208.5</ele>
        <time>2020-10-17T07:37:51Z</time>
      </trkpt>
      <trkpt lat="37.472253000" lon="-5.652749000">
        <ele>208.4</ele>
        <time>2020-10-17T07:37:53Z</time>
      </trkpt>
      <trkpt lat="37.472343000" lon="-5.652802000">
        <ele>208.1</ele>
        <time>2020-10-17T07:37:55Z</time>
      </trkpt>
      <trkpt lat="37.472434000" lon="-5.652859000">
        <ele>207.6</ele>
        <time>2020-10-17T07:37:57Z</time>
      </trkpt>
      <trkpt lat="37.472531000" lon="-5.652909000">
        <ele>207.1</ele>
        <time>2020-10-17T07:37:59Z</time>
      </trkpt>
      <trkpt lat="37.472634000" lon="-5.652954000">
        <ele>206.5</ele>
        <time>2020-10-17T07:38:01Z</time>
      </trkpt>
      <trkpt lat="37.472724000" lon="-5.653014000">
        <ele>205.8</ele>
        <time>2020-10-17T07:38:03Z</time>
      </trkpt>
      <trkpt lat="37.472821000" lon="-5.653083000">
        <ele>205.2</ele>
        <time>2020-10-17T07:38:05Z</time>
      </trkpt>
      <trkpt lat="37.472914000" lon="-5.653130000">
        <ele>204.5</ele>
        <time>2020-10-17T07:38:07Z</time>
      </trkpt>
      <trkpt lat="37.472994000" lon="-5.653176000">
        <ele>203.7</ele>
        <time>2020-10-17T07:38:09Z</time>
      </trkpt>
      <trkpt lat="37.473089000" lon="-5.653183000">
        <ele>203.0</ele>
        <time>2020-10-17T07:38:12Z</time>
      </trkpt>
      <trkpt lat="37.473130000" lon="-5.653075000">
        <ele>202.2</ele>
        <time>2020-10-17T07:38:15Z</time>
      </trkpt>
      <trkpt lat="37.473163000" lon="-5.652940000">
        <ele>201.3</ele>
        <time>2020-10-17T07:38:18Z</time>
      </trkpt>
      <trkpt lat="37.473194000" lon="-5.652837000">
        <ele>200.4</ele>
        <time>2020-10-17T07:38:21Z</time>
      </trkpt>
      <trkpt lat="37.473293000" lon="-5.652822000">
        <ele>199.5</ele>
        <time>2020-10-17T07:38:25Z</time>
      </trkpt>
      <trkpt lat="37.473409000" lon="-5.652868000">
        <ele>198.7</ele>
        <time>2020-10-17T07:38:28Z</time>
      </trkpt>
      <trkpt lat="37.473492000" lon="-5.652915000">
        <ele>198.0</ele>
        <time>2020-10-17T07:38:30Z</time>
      </trkpt>
      <trkpt lat="37.473563000" lon="-5.653002000">
        <ele>197.2</ele>
        <time>2020-10-17T07:38:33Z</time>
      </trkpt>
      <trkpt lat="37.473611000" lon="-5.653134000">
        <ele>196.3</ele>
        <time>2020-10-17T07:38:36Z</time>
      </trkpt>
      <trkpt lat="37.473698000" lon="-5.653219000">
        <ele>195.4</ele>
        <time>2020-10-17T07:38:39Z</time>
      </trkpt>
      <trkpt lat="37.473778000" lon="-5.653251000">
        <ele>194.5</ele>
        <time>2020-10-17T07:38:44Z</time>
      </trkpt>
      <trkpt lat="37.473845000" lon="-5.653176000">
        <ele>193.6</ele>
        <time>2020-10-17T07:38:48Z</time>
      </trkpt>
      <trkpt lat="37.473926000" lon="-5.653182000">
        <ele>192.8</ele>
        <time>2020-10-17T07:38:53Z</time>
      </trkpt>
      <trkpt lat="37.474008000" lon="-5.653257000">
        <ele>192.1</ele>
        <time>2020-10-17T07:38:56Z</time>
      </trkpt>
      <trkpt lat="37.474090000" lon="-5.653312000">
        <ele>191.5</ele>
        <time>2020-10-17T07:38:59Z</time>
      </trkpt>
      <trkpt lat="37.474156000" lon="-5.653377000">
        <ele>191.1</ele>
        <time>2020-10-17T07:39:02Z</time>
      </trkpt>
      <trkpt lat="37.474250000" lon="-5.653461000">
        <ele>190.8</ele>
        <time>2020-10-17T07:39:05Z</time>
      </trkpt>
      <trkpt lat="37.474337000" lon="-5.653559000">
        <ele>190.5</ele>
        <time>2020-10-17T07:39:07Z</time>
      </trkpt>
      <trkpt lat="37.474421000" lon="-5.653635000">
        <ele>190.2</ele>
        <time>2020-10-17T07:39:09Z</time>
      </trkpt>
      <trkpt lat="37.474514000" lon="-5.653713000">
        <ele>190.0</ele>
        <time>2020-10-17T07:39:11Z</time>
      </trkpt>
      <trkpt lat="37.474608000" lon="-5.653794000">
        <ele>189.8</ele>
        <time>2020-10-17T07:39:13Z</time>
      </trkpt>
      <trkpt lat="37.474712000" lon="-5.653892000">
        <ele>189.6</ele>
        <time>2020-10-17T07:39:15Z</time>
      </trkpt>
      <trkpt lat="37.474817000" lon="-5.653983000">
        <ele>189.5</ele>
        <time>2020-10-17T07:39:17Z</time>
      </trkpt>
      <trkpt lat="37.474916000" lon="-5.654075000">
        <ele>189.4</ele>
        <time>2020-10-17T07:39:19Z</time>
      </trkpt>
      <trkpt lat="37.475001000" lon="-5.654149000">
        <ele>189.3</ele>
        <time>2020-10-17T07:39:21Z</time>
      </trkpt>
      <trkpt lat="37.475083000" lon="-5.654226000">
        <ele>189.1</ele>
        <time>2020-10-17T07:39:25Z</time>
      </trkpt>
      <trkpt lat="37.475156000" lon="-5.654302000">
        <ele>188.8</ele>
        <time>2020-10-17T07:39:26Z</time>
      </trkpt>
      <trkpt lat="37.475115000" lon="-5.654403000">
        <ele>188.4</ele>
        <time>2020-10-17T07:39:30Z</time>
      </trkpt>
      <trkpt lat="37.475054000" lon="-5.654488000">
        <ele>188.0</ele>
        <time>2020-10-17T07:39:33Z</time>
      </trkpt>
      <trkpt lat="37.474988000" lon="-5.654588000">
        <ele>187.5</ele>
        <time>2020-10-17T07:39:36Z</time>
      </trkpt>
      <trkpt lat="37.475022000" lon="-5.654683000">
        <ele>187.1</ele>
        <time>2020-10-17T07:39:41Z</time>
      </trkpt>
      <trkpt lat="37.475078000" lon="-5.654759000">
        <ele>186.8</ele>
        <time>2020-10-17T07:39:44Z</time>
      </trkpt>
      <trkpt lat="37.475098000" lon="-5.654881000">
        <ele>186.6</ele>
        <time>2020-10-17T07:39:46Z</time>
      </trkpt>
      <trkpt lat="37.475089000" lon="-5.655021000">
        <ele>186.5</ele>
        <time>2020-10-17T07:39:48Z</time>
      </trkpt>
      <trkpt lat="37.475078000" lon="-5.655166000">
        <ele>186.3</ele>
        <time>2020-10-17T07:39:50Z</time>
      </trkpt>
      <trkpt lat="37.475061000" lon="-5.655317000">
        <ele>186.2</ele>
        <time>2020-10-17T07:39:52Z</time>
      </trkpt>
      <trkpt lat="37.475039000" lon="-5.655465000">
        <ele>186.1</ele>
        <time>2020-10-17T07:39:54Z</time>
      </trkpt>
      <trkpt lat="37.475014000" lon="-5.655617000">
        <ele>186.0</ele>
        <time>2020-10-17T07:39:56Z</time>
      </trkpt>
      <trkpt lat="37.474983000" lon="-5.655765000">
        <ele>185.9</ele>
        <time>2020-10-17T07:39:58Z</time>
      </trkpt>
      <trkpt lat="37.474960000" lon="-5.655917000">
        <ele>185.7</ele>
        <time>2020-10-17T07:40:00Z</time>
      </trkpt>
      <trkpt lat="37.474931000" lon="-5.656081000">
        <ele>185.5</ele>
        <time>2020-10-17T07:40:02Z</time>
      </trkpt>
      <trkpt lat="37.474913000" lon="-5.656247000">
        <ele>185.3</ele>
        <time>2020-10-17T07:40:04Z</time>
      </trkpt>
      <trkpt lat="37.474914000" lon="-5.656404000">
        <ele>184.8</ele>
        <time>2020-10-17T07:40:06Z</time>
      </trkpt>
      <trkpt lat="37.474929000" lon="-5.656565000">
        <ele>184.4</ele>
        <time>2020-10-17T07:40:08Z</time>
      </trkpt>
      <trkpt lat="37.474951000" lon="-5.656721000">
        <ele>183.9</ele>
        <time>2020-10-17T07:40:10Z</time>
      </trkpt>
      <trkpt lat="37.474977000" lon="-5.656866000">
        <ele>183.4</ele>
        <time>2020-10-17T07:40:12Z</time>
      </trkpt>
      <trkpt lat="37.474994000" lon="-5.656988000">
        <ele>182.7</ele>
        <time>2020-10-17T07:40:14Z</time>
      </trkpt>
      <trkpt lat="37.474985000" lon="-5.657109000">
        <ele>182.0</ele>
        <time>2020-10-17T07:40:16Z</time>
      </trkpt>
      <trkpt lat="37.474979000" lon="-5.657221000">
        <ele>181.3</ele>
        <time>2020-10-17T07:40:18Z</time>
      </trkpt>
      <trkpt lat="37.474971000" lon="-5.657344000">
        <ele>180.5</ele>
        <time>2020-10-17T07:40:20Z</time>
      </trkpt>
      <trkpt lat="37.474967000" lon="-5.657486000">
        <ele>179.8</ele>
        <time>2020-10-17T07:40:22Z</time>
      </trkpt>
      <trkpt lat="37.474967000" lon="-5.657627000">
        <ele>179.2</ele>
        <time>2020-10-17T07:40:24Z</time>
      </trkpt>
      <trkpt lat="37.474965000" lon="-5.657772000">
        <ele>178.6</ele>
        <time>2020-10-17T07:40:26Z</time>
      </trkpt>
      <trkpt lat="37.474951000" lon="-5.657912000">
        <ele>178.2</ele>
        <time>2020-10-17T07:40:28Z</time>
      </trkpt>
      <trkpt lat="37.474945000" lon="-5.658052000">
        <ele>177.7</ele>
        <time>2020-10-17T07:40:30Z</time>
      </trkpt>
      <trkpt lat="37.474941000" lon="-5.658186000">
        <ele>177.3</ele>
        <time>2020-10-17T07:40:32Z</time>
      </trkpt>
      <trkpt lat="37.474929000" lon="-5.658324000">
        <ele>176.9</ele>
        <time>2020-10-17T07:40:34Z</time>
      </trkpt>
      <trkpt lat="37.474914000" lon="-5.658462000">
        <ele>176.5</ele>
        <time>2020-10-17T07:40:36Z</time>
      </trkpt>
      <trkpt lat="37.474899000" lon="-5.658598000">
        <ele>176.3</ele>
        <time>2020-10-17T07:40:38Z</time>
      </trkpt>
      <trkpt lat="37.474889000" lon="-5.658737000">
        <ele>176.0</ele>
        <time>2020-10-17T07:40:40Z</time>
      </trkpt>
      <trkpt lat="37.474877000" lon="-5.658874000">
        <ele>175.8</ele>
        <time>2020-10-17T07:40:42Z</time>
      </trkpt>
      <trkpt lat="37.474860000" lon="-5.659004000">
        <ele>175.7</ele>
        <time>2020-10-17T07:40:44Z</time>
      </trkpt>
      <trkpt lat="37.474838000" lon="-5.659138000">
        <ele>175.5</ele>
        <time>2020-10-17T07:40:46Z</time>
      </trkpt>
      <trkpt lat="37.474817000" lon="-5.659279000">
        <ele>175.4</ele>
        <time>2020-10-17T07:40:48Z</time>
      </trkpt>
      <trkpt lat="37.474789000" lon="-5.659412000">
        <ele>175.3</ele>
        <time>2020-10-17T07:40:50Z</time>
      </trkpt>
      <trkpt lat="37.474764000" lon="-5.659518000">
        <ele>175.1</ele>
        <time>2020-10-17T07:40:54Z</time>
      </trkpt>
      <trkpt lat="37.474727000" lon="-5.659617000">
        <ele>174.9</ele>
        <time>2020-10-17T07:40:58Z</time>
      </trkpt>
      <trkpt lat="37.474700000" lon="-5.659737000">
        <ele>174.6</ele>
        <time>2020-10-17T07:41:01Z</time>
      </trkpt>
      <trkpt lat="37.474646000" lon="-5.659873000">
        <ele>174.3</ele>
        <time>2020-10-17T07:41:04Z</time>
      </trkpt>
      <trkpt lat="37.474594000" lon="-5.659974000">
        <ele>173.9</ele>
        <time>2020-10-17T07:41:06Z</time>
      </trkpt>
      <trkpt lat="37.474534000" lon="-5.660076000">
        <ele>173.5</ele>
        <time>2020-10-17T07:41:08Z</time>
      </trkpt>
      <trkpt lat="37.474471000" lon="-5.660181000">
        <ele>173.1</ele>
        <time>2020-10-17T07:41:10Z</time>
      </trkpt>
      <trkpt lat="37.474409000" lon="-5.660291000">
        <ele>172.6</ele>
        <time>2020-10-17T07:41:12Z</time>
      </trkpt>
      <trkpt lat="37.474347000" lon="-5.660399000">
        <ele>172.3</ele>
        <time>2020-10-17T07:41:14Z</time>
      </trkpt>
      <trkpt lat="37.474292000" lon="-5.660519000">
        <ele>172.0</ele>
        <time>2020-10-17T07:41:16Z</time>
      </trkpt>
      <trkpt lat="37.474242000" lon="-5.660642000">
        <ele>171.6</ele>
        <time>2020-10-17T07:41:18Z</time>
      </trkpt>
      <trkpt lat="37.474193000" lon="-5.660762000">
        <ele>171.5</ele>
        <time>2020-10-17T07:41:20Z</time>
      </trkpt>
      <trkpt lat="37.474147000" lon="-5.660881000">
        <ele>171.3</ele>
        <time>2020-10-17T07:41:22Z</time>
      </trkpt>
      <trkpt lat="37.474098000" lon="-5.660983000">
        <ele>171.3</ele>
        <time>2020-10-17T07:41:24Z</time>
      </trkpt>
      <trkpt lat="37.474056000" lon="-5.661081000">
        <ele>171.4</ele>
        <time>2020-10-17T07:41:26Z</time>
      </trkpt>
      <trkpt lat="37.474010000" lon="-5.661188000">
        <ele>171.5</ele>
        <time>2020-10-17T07:41:28Z</time>
      </trkpt>
      <trkpt lat="37.473975000" lon="-5.661289000">
        <ele>171.8</ele>
        <time>2020-10-17T07:41:30Z</time>
      </trkpt>
      <trkpt lat="37.473940000" lon="-5.661393000">
        <ele>172.3</ele>
        <time>2020-10-17T07:41:32Z</time>
      </trkpt>
      <trkpt lat="37.473905000" lon="-5.661492000">
        <ele>172.7</ele>
        <time>2020-10-17T07:41:34Z</time>
      </trkpt>
      <trkpt lat="37.473862000" lon="-5.661589000">
        <ele>173.2</ele>
        <time>2020-10-17T07:41:36Z</time>
      </trkpt>
      <trkpt lat="37.473825000" lon="-5.661692000">
        <ele>173.6</ele>
        <time>2020-10-17T07:41:38Z</time>
      </trkpt>
      <trkpt lat="37.473778000" lon="-5.661786000">
        <ele>174.1</ele>
        <time>2020-10-17T07:41:40Z</time>
      </trkpt>
      <trkpt lat="37.473740000" lon="-5.661884000">
        <ele>174.5</ele>
        <time>2020-10-17T07:41:42Z</time>
      </trkpt>
      <trkpt lat="37.473699000" lon="-5.661974000">
        <ele>175.1</ele>
        <time>2020-10-17T07:41:44Z</time>
      </trkpt>
      <trkpt lat="37.473666000" lon="-5.662068000">
        <ele>175.6</ele>
        <time>2020-10-17T07:41:46Z</time>
      </trkpt>
      <trkpt lat="37.473617000" lon="-5.662205000">
        <ele>176.2</ele>
        <time>2020-10-17T07:41:49Z</time>
      </trkpt>
      <trkpt lat="37.473589000" lon="-5.662301000">
        <ele>176.7</ele>
        <time>2020-10-17T07:41:51Z</time>
      </trkpt>
      <trkpt lat="37.473555000" lon="-5.662400000">
        <ele>177.3</ele>
        <time>2020-10-17T07:41:53Z</time>
      </trkpt>
      <trkpt lat="37.473512000" lon="-5.662540000">
        <ele>177.8</ele>
        <time>2020-10-17T07:41:56Z</time>
      </trkpt>
      <trkpt lat="37.473479000" lon="-5.662670000">
        <ele>178.5</ele>
        <time>2020-10-17T07:41:59Z</time>
      </trkpt>
      <trkpt lat="37.473453000" lon="-5.662784000">
        <ele>179.1</ele>
        <time>2020-10-17T07:42:02Z</time>
      </trkpt>
      <trkpt lat="37.473431000" lon="-5.662911000">
        <ele>179.7</ele>
        <time>2020-10-17T07:42:06Z</time>
      </trkpt>
      <trkpt lat="37.473410000" lon="-5.663046000">
        <ele>180.4</ele>
        <time>2020-10-17T07:42:10Z</time>
      </trkpt>
      <trkpt lat="37.473389000" lon="-5.663175000">
        <ele>180.8</ele>
        <time>2020-10-17T07:42:14Z</time>
      </trkpt>
      <trkpt lat="37.473367000" lon="-5.663296000">
        <ele>181.2</ele>
        <time>2020-10-17T07:42:18Z</time>
      </trkpt>
      <trkpt lat="37.473338000" lon="-5.663415000">
        <ele>181.5</ele>
        <time>2020-10-17T07:42:22Z</time>
      </trkpt>
      <trkpt lat="37.473320000" lon="-5.663546000">
        <ele>181.7</ele>
        <time>2020-10-17T07:42:26Z</time>
      </trkpt>
      <trkpt lat="37.473312000" lon="-5.663671000">
        <ele>181.9</ele>
        <time>2020-10-17T07:42:30Z</time>
      </trkpt>
      <trkpt lat="37.473297000" lon="-5.663805000">
        <ele>182.1</ele>
        <time>2020-10-17T07:42:34Z</time>
      </trkpt>
      <trkpt lat="37.473282000" lon="-5.663916000">
        <ele>182.2</ele>
        <time>2020-10-17T07:42:37Z</time>
      </trkpt>
      <trkpt lat="37.473281000" lon="-5.664032000">
        <ele>182.1</ele>
        <time>2020-10-17T07:42:40Z</time>
      </trkpt>
      <trkpt lat="37.473306000" lon="-5.664156000">
        <ele>181.9</ele>
        <time>2020-10-17T07:42:43Z</time>
      </trkpt>
      <trkpt lat="37.473331000" lon="-5.664254000">
        <ele>181.6</ele>
        <time>2020-10-17T07:42:45Z</time>
      </trkpt>
      <trkpt lat="37.473379000" lon="-5.664370000">
        <ele>181.3</ele>
        <time>2020-10-17T07:42:47Z</time>
      </trkpt>
      <trkpt lat="37.473412000" lon="-5.664489000">
        <ele>181.0</ele>
        <time>2020-10-17T07:42:49Z</time>
      </trkpt>
      <trkpt lat="37.473439000" lon="-5.664610000">
        <ele>180.6</ele>
        <time>2020-10-17T07:42:51Z</time>
      </trkpt>
      <trkpt lat="37.473471000" lon="-5.664745000">
        <ele>180.3</ele>
        <time>2020-10-17T07:42:53Z</time>
      </trkpt>
      <trkpt lat="37.473486000" lon="-5.664873000">
        <ele>179.8</ele>
        <time>2020-10-17T07:42:55Z</time>
      </trkpt>
      <trkpt lat="37.473498000" lon="-5.664994000">
        <ele>179.4</ele>
        <time>2020-10-17T07:42:57Z</time>
      </trkpt>
      <trkpt lat="37.473490000" lon="-5.665115000">
        <ele>178.9</ele>
        <time>2020-10-17T07:42:59Z</time>
      </trkpt>
      <trkpt lat="37.473498000" lon="-5.665236000">
        <ele>178.4</ele>
        <time>2020-10-17T07:43:01Z</time>
      </trkpt>
      <trkpt lat="37.473529000" lon="-5.665350000">
        <ele>177.9</ele>
        <time>2020-10-17T07:43:03Z</time>
      </trkpt>
      <trkpt lat="37.473568000" lon="-5.665467000">
        <ele>177.5</ele>
        <time>2020-10-17T07:43:05Z</time>
      </trkpt>
      <trkpt lat="37.473613000" lon="-5.665585000">
        <ele>177.0</ele>
        <time>2020-10-17T07:43:07Z</time>
      </trkpt>
      <trkpt lat="37.473650000" lon="-5.665704000">
        <ele>176.5</ele>
        <time>2020-10-17T07:43:09Z</time>
      </trkpt>
      <trkpt lat="37.473671000" lon="-5.665825000">
        <ele>176.1</ele>
        <time>2020-10-17T07:43:11Z</time>
      </trkpt>
      <trkpt lat="37.473691000" lon="-5.665943000">
        <ele>175.6</ele>
        <time>2020-10-17T07:43:13Z</time>
      </trkpt>
      <trkpt lat="37.473715000" lon="-5.666063000">
        <ele>175.2</ele>
        <time>2020-10-17T07:43:15Z</time>
      </trkpt>
      <trkpt lat="37.473746000" lon="-5.666178000">
        <ele>174.8</ele>
        <time>2020-10-17T07:43:17Z</time>
      </trkpt>
      <trkpt lat="37.473768000" lon="-5.666297000">
        <ele>174.5</ele>
        <time>2020-10-17T07:43:19Z</time>
      </trkpt>
      <trkpt lat="37.473794000" lon="-5.666414000">
        <ele>174.1</ele>
        <time>2020-10-17T07:43:21Z</time>
      </trkpt>
      <trkpt lat="37.473822000" lon="-5.666529000">
        <ele>173.7</ele>
        <time>2020-10-17T07:43:23Z</time>
      </trkpt>
      <trkpt lat="37.473840000" lon="-5.666632000">
        <ele>173.4</ele>
        <time>2020-10-17T07:43:25Z</time>
      </trkpt>
      <trkpt lat="37.473876000" lon="-5.666764000">
        <ele>173.1</ele>
        <time>2020-10-17T07:43:28Z</time>
      </trkpt>
      <trkpt lat="37.473892000" lon="-5.666890000">
        <ele>172.8</ele>
        <time>2020-10-17T07:43:31Z</time>
      </trkpt>
      <trkpt lat="37.473886000" lon="-5.666997000">
        <ele>172.6</ele>
        <time>2020-10-17T07:43:35Z</time>
      </trkpt>
      <trkpt lat="37.473866000" lon="-5.667130000">
        <ele>172.4</ele>
        <time>2020-10-17T07:43:39Z</time>
      </trkpt>
      <trkpt lat="37.473860000" lon="-5.667233000">
        <ele>172.2</ele>
        <time>2020-10-17T07:43:42Z</time>
      </trkpt>
      <trkpt lat="37.473849000" lon="-5.667352000">
        <ele>171.9</ele>
        <time>2020-10-17T07:43:47Z</time>
      </trkpt>
      <trkpt lat="37.473831000" lon="-5.667486000">
        <ele>171.6</ele>
        <time>2020-10-17T07:43:50Z</time>
      </trkpt>
      <trkpt lat="37.473818000" lon="-5.667591000">
        <ele>171.4</ele>
        <time>2020-10-17T07:43:52Z</time>
      </trkpt>
      <trkpt lat="37.473831000" lon="-5.667718000">
        <ele>171.1</ele>
        <time>2020-10-17T07:43:54Z</time>
      </trkpt>
      <trkpt lat="37.473838000" lon="-5.667838000">
        <ele>170.9</ele>
        <time>2020-10-17T07:43:56Z</time>
      </trkpt>
      <trkpt lat="37.473844000" lon="-5.667962000">
        <ele>170.7</ele>
        <time>2020-10-17T07:43:58Z</time>
      </trkpt>
      <trkpt lat="37.473856000" lon="-5.668089000">
        <ele>170.5</ele>
        <time>2020-10-17T07:44:00Z</time>
      </trkpt>
      <trkpt lat="37.473870000" lon="-5.668217000">
        <ele>170.3</ele>
        <time>2020-10-17T07:44:02Z</time>
      </trkpt>
      <trkpt lat="37.473887000" lon="-5.668341000">
        <ele>170.0</ele>
        <time>2020-10-17T07:44:04Z</time>
      </trkpt>
      <trkpt lat="37.473903000" lon="-5.668468000">
        <ele>169.7</ele>
        <time>2020-10-17T07:44:06Z</time>
      </trkpt>
      <trkpt lat="37.473927000" lon="-5.668591000">
        <ele>169.5</ele>
        <time>2020-10-17T07:44:08Z</time>
      </trkpt>
      <trkpt lat="37.473945000" lon="-5.668707000">
        <ele>169.2</ele>
        <time>2020-10-17T07:44:10Z</time>
      </trkpt>
      <trkpt lat="37.473957000" lon="-5.668825000">
        <ele>168.9</ele>
        <time>2020-10-17T07:44:12Z</time>
      </trkpt>
      <trkpt lat="37.473974000" lon="-5.668931000">
        <ele>168.6</ele>
        <time>2020-10-17T07:44:14Z</time>
      </trkpt>
      <trkpt lat="37.473996000" lon="-5.669037000">
        <ele>168.4</ele>
        <time>2020-10-17T07:44:16Z</time>
      </trkpt>
      <trkpt lat="37.474020000" lon="-5.669192000">
        <ele>168.1</ele>
        <time>2020-10-17T07:44:19Z</time>
      </trkpt>
      <trkpt lat="37.474025000" lon="-5.669301000">
        <ele>167.8</ele>
        <time>2020-10-17T07:44:21Z</time>
      </trkpt>
      <trkpt lat="37.474033000" lon="-5.669415000">
        <ele>167.5</ele>
        <time>2020-10-17T07:44:23Z</time>
      </trkpt>
      <trkpt lat="37.474041000" lon="-5.669538000">
        <ele>167.4</ele>
        <time>2020-10-17T07:44:25Z</time>
      </trkpt>
      <trkpt lat="37.474049000" lon="-5.669665000">
        <ele>167.1</ele>
        <time>2020-10-17T07:44:27Z</time>
      </trkpt>
      <trkpt lat="37.474058000" lon="-5.669806000">
        <ele>166.9</ele>
        <time>2020-10-17T07:44:29Z</time>
      </trkpt>
      <trkpt lat="37.474067000" lon="-5.669953000">
        <ele>166.6</ele>
        <time>2020-10-17T07:44:31Z</time>
      </trkpt>
      <trkpt lat="37.474077000" lon="-5.670096000">
        <ele>166.4</ele>
        <time>2020-10-17T07:44:33Z</time>
      </trkpt>
      <trkpt lat="37.474077000" lon="-5.670241000">
        <ele>166.0</ele>
        <time>2020-10-17T07:44:35Z</time>
      </trkpt>
      <trkpt lat="37.474087000" lon="-5.670389000">
        <ele>165.6</ele>
        <time>2020-10-17T07:44:37Z</time>
      </trkpt>
      <trkpt lat="37.474095000" lon="-5.670529000">
        <ele>165.2</ele>
        <time>2020-10-17T07:44:39Z</time>
      </trkpt>
      <trkpt lat="37.474097000" lon="-5.670676000">
        <ele>164.6</ele>
        <time>2020-10-17T07:44:41Z</time>
      </trkpt>
      <trkpt lat="37.474097000" lon="-5.670824000">
        <ele>164.1</ele>
        <time>2020-10-17T07:44:43Z</time>
      </trkpt>
      <trkpt lat="37.474111000" lon="-5.670978000">
        <ele>163.5</ele>
        <time>2020-10-17T07:44:45Z</time>
      </trkpt>
      <trkpt lat="37.474131000" lon="-5.671134000">
        <ele>163.0</ele>
        <time>2020-10-17T07:44:47Z</time>
      </trkpt>
      <trkpt lat="37.474157000" lon="-5.671290000">
        <ele>162.6</ele>
        <time>2020-10-17T07:44:49Z</time>
      </trkpt>
      <trkpt lat="37.474188000" lon="-5.671438000">
        <ele>162.2</ele>
        <time>2020-10-17T07:44:51Z</time>
      </trkpt>
      <trkpt lat="37.474229000" lon="-5.671576000">
        <ele>161.8</ele>
        <time>2020-10-17T07:44:53Z</time>
      </trkpt>
      <trkpt lat="37.474262000" lon="-5.671707000">
        <ele>161.4</ele>
        <time>2020-10-17T07:44:55Z</time>
      </trkpt>
      <trkpt lat="37.474298000" lon="-5.671828000">
        <ele>160.9</ele>
        <time>2020-10-17T07:44:57Z</time>
      </trkpt>
      <trkpt lat="37.474335000" lon="-5.671949000">
        <ele>160.4</ele>
        <time>2020-10-17T07:44:59Z</time>
      </trkpt>
      <trkpt lat="37.474365000" lon="-5.672076000">
        <ele>159.9</ele>
        <time>2020-10-17T07:45:01Z</time>
      </trkpt>
      <trkpt lat="37.474385000" lon="-5.672209000">
        <ele>159.5</ele>
        <time>2020-10-17T07:45:03Z</time>
      </trkpt>
      <trkpt lat="37.474405000" lon="-5.672347000">
        <ele>159.1</ele>
        <time>2020-10-17T07:45:05Z</time>
      </trkpt>
      <trkpt lat="37.474418000" lon="-5.672490000">
        <ele>158.5</ele>
        <time>2020-10-17T07:45:07Z</time>
      </trkpt>
      <trkpt lat="37.474420000" lon="-5.672628000">
        <ele>157.9</ele>
        <time>2020-10-17T07:45:09Z</time>
      </trkpt>
      <trkpt lat="37.474420000" lon="-5.672766000">
        <ele>157.2</ele>
        <time>2020-10-17T07:45:11Z</time>
      </trkpt>
      <trkpt lat="37.474423000" lon="-5.672902000">
        <ele>156.5</ele>
        <time>2020-10-17T07:45:13Z</time>
      </trkpt>
      <trkpt lat="37.474426000" lon="-5.673041000">
        <ele>155.8</ele>
        <time>2020-10-17T07:45:15Z</time>
      </trkpt>
      <trkpt lat="37.474429000" lon="-5.673190000">
        <ele>155.3</ele>
        <time>2020-10-17T07:45:17Z</time>
      </trkpt>
      <trkpt lat="37.474419000" lon="-5.673335000">
        <ele>154.8</ele>
        <time>2020-10-17T07:45:19Z</time>
      </trkpt>
      <trkpt lat="37.474400000" lon="-5.673482000">
        <ele>154.4</ele>
        <time>2020-10-17T07:45:21Z</time>
      </trkpt>
      <trkpt lat="37.474376000" lon="-5.673627000">
        <ele>153.9</ele>
        <time>2020-10-17T07:45:23Z</time>
      </trkpt>
      <trkpt lat="37.474334000" lon="-5.673758000">
        <ele>153.4</ele>
        <time>2020-10-17T07:45:25Z</time>
      </trkpt>
      <trkpt lat="37.474287000" lon="-5.673880000">
        <ele>152.9</ele>
        <time>2020-10-17T07:45:27Z</time>
      </trkpt>
      <trkpt lat="37.474244000" lon="-5.674009000">
        <ele>152.5</ele>
        <time>2020-10-17T07:45:29Z</time>
      </trkpt>
      <trkpt lat="37.474199000" lon="-5.674139000">
        <ele>152.3</ele>
        <time>2020-10-17T07:45:31Z</time>
      </trkpt>
      <trkpt lat="37.474148000" lon="-5.674277000">
        <ele>151.9</ele>
        <time>2020-10-17T07:45:33Z</time>
      </trkpt>
      <trkpt lat="37.474089000" lon="-5.674412000">
        <ele>151.5</ele>
        <time>2020-10-17T07:45:35Z</time>
      </trkpt>
      <trkpt lat="37.474037000" lon="-5.674551000">
        <ele>151.2</ele>
        <time>2020-10-17T07:45:37Z</time>
      </trkpt>
      <trkpt lat="37.473984000" lon="-5.674694000">
        <ele>150.8</ele>
        <time>2020-10-17T07:45:39Z</time>
      </trkpt>
      <trkpt lat="37.473933000" lon="-5.674826000">
        <ele>150.4</ele>
        <time>2020-10-17T07:45:41Z</time>
      </trkpt>
      <trkpt lat="37.473908000" lon="-5.674964000">
        <ele>150.0</ele>
        <time>2020-10-17T07:45:43Z</time>
      </trkpt>
      <trkpt lat="37.473897000" lon="-5.675094000">
        <ele>149.6</ele>
        <time>2020-10-17T07:45:45Z</time>
      </trkpt>
      <trkpt lat="37.473898000" lon="-5.675230000">
        <ele>149.4</ele>
        <time>2020-10-17T07:45:47Z</time>
      </trkpt>
      <trkpt lat="37.473893000" lon="-5.675356000">
        <ele>149.1</ele>
        <time>2020-10-17T07:45:49Z</time>
      </trkpt>
      <trkpt lat="37.473897000" lon="-5.675480000">
        <ele>148.7</ele>
        <time>2020-10-17T07:45:51Z</time>
      </trkpt>
      <trkpt lat="37.473905000" lon="-5.675596000">
        <ele>148.4</ele>
        <time>2020-10-17T07:45:53Z</time>
      </trkpt>
      <trkpt lat="37.473914000" lon="-5.675706000">
        <ele>148.1</ele>
        <time>2020-10-17T07:45:55Z</time>
      </trkpt>
      <trkpt lat="37.473917000" lon="-5.675820000">
        <ele>147.8</ele>
        <time>2020-10-17T07:45:57Z</time>
      </trkpt>
      <trkpt lat="37.473926000" lon="-5.675936000">
        <ele>147.6</ele>
        <time>2020-10-17T07:45:59Z</time>
      </trkpt>
      <trkpt lat="37.473927000" lon="-5.676067000">
        <ele>147.5</ele>
        <time>2020-10-17T07:46:01Z</time>
      </trkpt>
      <trkpt lat="37.473937000" lon="-5.676198000">
        <ele>147.5</ele>
        <time>2020-10-17T07:46:03Z</time>
      </trkpt>
      <trkpt lat="37.473933000" lon="-5.676302000">
        <ele>147.4</ele>
        <time>2020-10-17T07:46:05Z</time>
      </trkpt>
      <trkpt lat="37.473942000" lon="-5.676449000">
        <ele>147.2</ele>
        <time>2020-10-17T07:46:08Z</time>
      </trkpt>
      <trkpt lat="37.473952000" lon="-5.676603000">
        <ele>146.8</ele>
        <time>2020-10-17T07:46:11Z</time>
      </trkpt>
      <trkpt lat="37.473970000" lon="-5.676704000">
        <ele>146.5</ele>
        <time>2020-10-17T07:46:13Z</time>
      </trkpt>
      <trkpt lat="37.473990000" lon="-5.676845000">
        <ele>146.1</ele>
        <time>2020-10-17T07:46:14Z</time>
      </trkpt>
      <trkpt lat="37.473997000" lon="-5.676986000">
        <ele>145.8</ele>
        <time>2020-10-17T07:46:15Z</time>
      </trkpt>
      <trkpt lat="37.474001000" lon="-5.677089000">
        <ele>145.5</ele>
        <time>2020-10-17T07:46:16Z</time>
      </trkpt>
      <trkpt lat="37.474002000" lon="-5.677244000">
        <ele>145.2</ele>
        <time>2020-10-17T07:46:18Z</time>
      </trkpt>
      <trkpt lat="37.473984000" lon="-5.677399000">
        <ele>144.8</ele>
        <time>2020-10-17T07:46:20Z</time>
      </trkpt>
      <trkpt lat="37.473967000" lon="-5.677558000">
        <ele>144.3</ele>
        <time>2020-10-17T07:46:22Z</time>
      </trkpt>
      <trkpt lat="37.473940000" lon="-5.677708000">
        <ele>143.8</ele>
        <time>2020-10-17T07:46:24Z</time>
      </trkpt>
      <trkpt lat="37.473918000" lon="-5.677858000">
        <ele>143.4</ele>
        <time>2020-10-17T07:46:26Z</time>
      </trkpt>
      <trkpt lat="37.473900000" lon="-5.677998000">
        <ele>142.9</ele>
        <time>2020-10-17T07:46:28Z</time>
      </trkpt>
      <trkpt lat="37.473876000" lon="-5.678141000">
        <ele>142.6</ele>
        <time>2020-10-17T07:46:30Z</time>
      </trkpt>
      <trkpt lat="37.473860000" lon="-5.678281000">
        <ele>142.3</ele>
        <time>2020-10-17T07:46:32Z</time>
      </trkpt>
      <trkpt lat="37.473838000" lon="-5.678421000">
        <ele>142.0</ele>
        <time>2020-10-17T07:46:34Z</time>
      </trkpt>
      <trkpt lat="37.473814000" lon="-5.678563000">
        <ele>141.6</ele>
        <time>2020-10-17T07:46:36Z</time>
      </trkpt>
      <trkpt lat="37.473795000" lon="-5.678713000">
        <ele>141.3</ele>
        <time>2020-10-17T07:46:38Z</time>
      </trkpt>
      <trkpt lat="37.473777000" lon="-5.678863000">
        <ele>141.0</ele>
        <time>2020-10-17T07:46:40Z</time>
      </trkpt>
      <trkpt lat="37.473758000" lon="-5.679020000">
        <ele>140.7</ele>
        <time>2020-10-17T07:46:42Z</time>
      </trkpt>
      <trkpt lat="37.473735000" lon="-5.679170000">
        <ele>140.6</ele>
        <time>2020-10-17T07:46:44Z</time>
      </trkpt>
      <trkpt lat="37.473693000" lon="-5.679305000">
        <ele>140.5</ele>
        <time>2020-10-17T07:46:46Z</time>
      </trkpt>
      <trkpt lat="37.473652000" lon="-5.679430000">
        <ele>140.5</ele>
        <time>2020-10-17T07:46:48Z</time>
      </trkpt>
      <trkpt lat="37.473602000" lon="-5.679553000">
        <ele>140.4</ele>
        <time>2020-10-17T07:46:50Z</time>
      </trkpt>
      <trkpt lat="37.473568000" lon="-5.679681000">
        <ele>140.3</ele>
        <time>2020-10-17T07:46:52Z</time>
      </trkpt>
      <trkpt lat="37.473543000" lon="-5.679820000">
        <ele>140.3</ele>
        <time>2020-10-17T07:46:54Z</time>
      </trkpt>
      <trkpt lat="37.473541000" lon="-5.679957000">
        <ele>140.3</ele>
        <time>2020-10-17T07:46:56Z</time>
      </trkpt>
      <trkpt lat="37.473550000" lon="-5.680088000">
        <ele>140.3</ele>
        <time>2020-10-17T07:46:58Z</time>
      </trkpt>
      <trkpt lat="37.473564000" lon="-5.680202000">
        <ele>140.4</ele>
        <time>2020-10-17T07:47:00Z</time>
      </trkpt>
      <trkpt lat="37.473585000" lon="-5.680317000">
        <ele>140.5</ele>
        <time>2020-10-17T07:47:02Z</time>
      </trkpt>
      <trkpt lat="37.473617000" lon="-5.680441000">
        <ele>140.6</ele>
        <time>2020-10-17T07:47:04Z</time>
      </trkpt>
      <trkpt lat="37.473652000" lon="-5.680562000">
        <ele>140.7</ele>
        <time>2020-10-17T07:47:06Z</time>
      </trkpt>
      <trkpt lat="37.473697000" lon="-5.680664000">
        <ele>140.9</ele>
        <time>2020-10-17T07:47:08Z</time>
      </trkpt>
      <trkpt lat="37.473736000" lon="-5.680763000">
        <ele>141.1</ele>
        <time>2020-10-17T07:47:10Z</time>
      </trkpt>
      <trkpt lat="37.473798000" lon="-5.680850000">
        <ele>141.4</ele>
        <time>2020-10-17T07:47:12Z</time>
      </trkpt>
      <trkpt lat="37.473857000" lon="-5.680929000">
        <ele>141.7</ele>
        <time>2020-10-17T07:47:14Z</time>
      </trkpt>
      <trkpt lat="37.473920000" lon="-5.681052000">
        <ele>142.1</ele>
        <time>2020-10-17T07:47:17Z</time>
      </trkpt>
      <trkpt lat="37.473948000" lon="-5.681160000">
        <ele>142.5</ele>
        <time>2020-10-17T07:47:20Z</time>
      </trkpt>
      <trkpt lat="37.473969000" lon="-5.681263000">
        <ele>142.7</ele>
        <time>2020-10-17T07:47:23Z</time>
      </trkpt>
      <trkpt lat="37.473978000" lon="-5.681375000">
        <ele>142.9</ele>
        <time>2020-10-17T07:47:26Z</time>
      </trkpt>
      <trkpt lat="37.473965000" lon="-5.681498000">
        <ele>143.1</ele>
        <time>2020-10-17T07:47:29Z</time>
      </trkpt>
      <trkpt lat="37.473955000" lon="-5.681618000">
        <ele>143.2</ele>
        <time>2020-10-17T07:47:32Z</time>
      </trkpt>
      <trkpt lat="37.473939000" lon="-5.681741000">
        <ele>143.3</ele>
        <time>2020-10-17T07:47:35Z</time>
      </trkpt>
      <trkpt lat="37.473932000" lon="-5.681889000">
        <ele>143.3</ele>
        <time>2020-10-17T07:47:38Z</time>
      </trkpt>
      <trkpt lat="37.473914000" lon="-5.682000000">
        <ele>143.2</ele>
        <time>2020-10-17T07:47:40Z</time>
      </trkpt>
      <trkpt lat="37.473903000" lon="-5.682118000">
        <ele>143.0</ele>
        <time>2020-10-17T07:47:42Z</time>
      </trkpt>
      <trkpt lat="37.473893000" lon="-5.682250000">
        <ele>142.6</ele>
        <time>2020-10-17T07:47:44Z</time>
      </trkpt>
      <trkpt lat="37.473891000" lon="-5.682380000">
        <ele>142.2</ele>
        <time>2020-10-17T07:47:46Z</time>
      </trkpt>
      <trkpt lat="37.473881000" lon="-5.682514000">
        <ele>141.7</ele>
        <time>2020-10-17T07:47:48Z</time>
      </trkpt>
      <trkpt lat="37.473876000" lon="-5.682660000">
        <ele>141.4</ele>
        <time>2020-10-17T07:47:50Z</time>
      </trkpt>
      <trkpt lat="37.473881000" lon="-5.682806000">
        <ele>141.0</ele>
        <time>2020-10-17T07:47:52Z</time>
      </trkpt>
      <trkpt lat="37.473886000" lon="-5.682949000">
        <ele>140.6</ele>
        <time>2020-10-17T07:47:54Z</time>
      </trkpt>
      <trkpt lat="37.473891000" lon="-5.683095000">
        <ele>140.3</ele>
        <time>2020-10-17T07:47:56Z</time>
      </trkpt>
      <trkpt lat="37.473903000" lon="-5.683241000">
        <ele>139.8</ele>
        <time>2020-10-17T07:47:58Z</time>
      </trkpt>
      <trkpt lat="37.473919000" lon="-5.683387000">
        <ele>139.4</ele>
        <time>2020-10-17T07:48:00Z</time>
      </trkpt>
      <trkpt lat="37.473943000" lon="-5.683533000">
        <ele>138.9</ele>
        <time>2020-10-17T07:48:02Z</time>
      </trkpt>
      <trkpt lat="37.473971000" lon="-5.683681000">
        <ele>138.5</ele>
        <time>2020-10-17T07:48:04Z</time>
      </trkpt>
      <trkpt lat="37.473996000" lon="-5.683832000">
        <ele>138.3</ele>
        <time>2020-10-17T07:48:06Z</time>
      </trkpt>
      <trkpt lat="37.474020000" lon="-5.683991000">
        <ele>138.0</ele>
        <time>2020-10-17T07:48:08Z</time>
      </trkpt>
      <trkpt lat="37.474044000" lon="-5.684151000">
        <ele>137.5</ele>
        <time>2020-10-17T07:48:10Z</time>
      </trkpt>
      <trkpt lat="37.474064000" lon="-5.684308000">
        <ele>137.0</ele>
        <time>2020-10-17T07:48:12Z</time>
      </trkpt>
      <trkpt lat="37.474076000" lon="-5.684470000">
        <ele>136.5</ele>
        <time>2020-10-17T07:48:14Z</time>
      </trkpt>
      <trkpt lat="37.474080000" lon="-5.684633000">
        <ele>135.9</ele>
        <time>2020-10-17T07:48:16Z</time>
      </trkpt>
      <trkpt lat="37.474084000" lon="-5.684794000">
        <ele>135.4</ele>
        <time>2020-10-17T07:48:18Z</time>
      </trkpt>
      <trkpt lat="37.474090000" lon="-5.684960000">
        <ele>134.9</ele>
        <time>2020-10-17T07:48:20Z</time>
      </trkpt>
      <trkpt lat="37.474100000" lon="-5.685108000">
        <ele>134.4</ele>
        <time>2020-10-17T07:48:22Z</time>
      </trkpt>
      <trkpt lat="37.474110000" lon="-5.685259000">
        <ele>133.8</ele>
        <time>2020-10-17T07:48:24Z</time>
      </trkpt>
      <trkpt lat="37.474119000" lon="-5.685404000">
        <ele>133.2</ele>
        <time>2020-10-17T07:48:26Z</time>
      </trkpt>
      <trkpt lat="37.474116000" lon="-5.685546000">
        <ele>132.5</ele>
        <time>2020-10-17T07:48:28Z</time>
      </trkpt>
      <trkpt lat="37.474107000" lon="-5.685695000">
        <ele>132.0</ele>
        <time>2020-10-17T07:48:30Z</time>
      </trkpt>
      <trkpt lat="37.474099000" lon="-5.685845000">
        <ele>131.6</ele>
        <time>2020-10-17T07:48:32Z</time>
      </trkpt>
      <trkpt lat="37.474103000" lon="-5.686001000">
        <ele>131.3</ele>
        <time>2020-10-17T07:48:34Z</time>
      </trkpt>
      <trkpt lat="37.474125000" lon="-5.686166000">
        <ele>130.9</ele>
        <time>2020-10-17T07:48:36Z</time>
      </trkpt>
      <trkpt lat="37.474145000" lon="-5.686334000">
        <ele>130.5</ele>
        <time>2020-10-17T07:48:38Z</time>
      </trkpt>
      <trkpt lat="37.474167000" lon="-5.686497000">
        <ele>130.0</ele>
        <time>2020-10-17T07:48:40Z</time>
      </trkpt>
      <trkpt lat="37.474193000" lon="-5.686657000">
        <ele>129.5</ele>
        <time>2020-10-17T07:48:42Z</time>
      </trkpt>
      <trkpt lat="37.474220000" lon="-5.686805000">
        <ele>129.2</ele>
        <time>2020-10-17T07:48:44Z</time>
      </trkpt>
      <trkpt lat="37.474238000" lon="-5.686954000">
        <ele>128.9</ele>
        <time>2020-10-17T07:48:46Z</time>
      </trkpt>
      <trkpt lat="37.474250000" lon="-5.687086000">
        <ele>128.7</ele>
        <time>2020-10-17T07:48:48Z</time>
      </trkpt>
      <trkpt lat="37.474271000" lon="-5.687213000">
        <ele>128.5</ele>
        <time>2020-10-17T07:48:50Z</time>
      </trkpt>
      <trkpt lat="37.474287000" lon="-5.687333000">
        <ele>128.5</ele>
        <time>2020-10-17T07:48:52Z</time>
      </trkpt>
      <trkpt lat="37.474300000" lon="-5.687438000">
        <ele>128.4</ele>
        <time>2020-10-17T07:48:54Z</time>
      </trkpt>
      <trkpt lat="37.474313000" lon="-5.687552000">
        <ele>128.4</ele>
        <time>2020-10-17T07:48:56Z</time>
      </trkpt>
      <trkpt lat="37.474345000" lon="-5.687664000">
        <ele>128.3</ele>
        <time>2020-10-17T07:48:58Z</time>
      </trkpt>
      <trkpt lat="37.474366000" lon="-5.687782000">
        <ele>128.3</ele>
        <time>2020-10-17T07:49:00Z</time>
      </trkpt>
      <trkpt lat="37.474383000" lon="-5.687902000">
        <ele>128.3</ele>
        <time>2020-10-17T07:49:02Z</time>
      </trkpt>
      <trkpt lat="37.474411000" lon="-5.688019000">
        <ele>128.2</ele>
        <time>2020-10-17T07:49:04Z</time>
      </trkpt>
      <trkpt lat="37.474441000" lon="-5.688141000">
        <ele>128.1</ele>
        <time>2020-10-17T07:49:06Z</time>
      </trkpt>
      <trkpt lat="37.474472000" lon="-5.688252000">
        <ele>128.0</ele>
        <time>2020-10-17T07:49:08Z</time>
      </trkpt>
      <trkpt lat="37.474499000" lon="-5.688360000">
        <ele>127.9</ele>
        <time>2020-10-17T07:49:10Z</time>
      </trkpt>
      <trkpt lat="37.474523000" lon="-5.688459000">
        <ele>127.8</ele>
        <time>2020-10-17T07:49:12Z</time>
      </trkpt>
      <trkpt lat="37.474557000" lon="-5.688563000">
        <ele>127.6</ele>
        <time>2020-10-17T07:49:14Z</time>
      </trkpt>
      <trkpt lat="37.474591000" lon="-5.688682000">
        <ele>127.5</ele>
        <time>2020-10-17T07:49:16Z</time>
      </trkpt>
      <trkpt lat="37.474640000" lon="-5.688809000">
        <ele>127.3</ele>
        <time>2020-10-17T07:49:19Z</time>
      </trkpt>
      <trkpt lat="37.474672000" lon="-5.688941000">
        <ele>127.3</ele>
        <time>2020-10-17T07:49:22Z</time>
      </trkpt>
      <trkpt lat="37.474693000" lon="-5.689086000">
        <ele>127.4</ele>
        <time>2020-10-17T07:49:25Z</time>
      </trkpt>
      <trkpt lat="37.474727000" lon="-5.689231000">
        <ele>127.5</ele>
        <time>2020-10-17T07:49:28Z</time>
      </trkpt>
      <trkpt lat="37.474751000" lon="-5.689330000">
        <ele>127.8</ele>
        <time>2020-10-17T07:49:30Z</time>
      </trkpt>
      <trkpt lat="37.474781000" lon="-5.689431000">
        <ele>128.1</ele>
        <time>2020-10-17T07:49:32Z</time>
      </trkpt>
      <trkpt lat="37.474805000" lon="-5.689533000">
        <ele>128.4</ele>
        <time>2020-10-17T07:49:34Z</time>
      </trkpt>
      <trkpt lat="37.474832000" lon="-5.689639000">
        <ele>128.6</ele>
        <time>2020-10-17T07:49:36Z</time>
      </trkpt>
      <trkpt lat="37.474852000" lon="-5.689746000">
        <ele>128.9</ele>
        <time>2020-10-17T07:49:38Z</time>
      </trkpt>
      <trkpt lat="37.474871000" lon="-5.689853000">
        <ele>129.1</ele>
        <time>2020-10-17T07:49:40Z</time>
      </trkpt>
      <trkpt lat="37.474886000" lon="-5.689968000">
        <ele>129.3</ele>
        <time>2020-10-17T07:49:42Z</time>
      </trkpt>
      <trkpt lat="37.474897000" lon="-5.690081000">
        <ele>129.5</ele>
        <time>2020-10-17T07:49:44Z</time>
      </trkpt>
      <trkpt lat="37.474899000" lon="-5.690195000">
        <ele>129.6</ele>
        <time>2020-10-17T07:49:46Z</time>
      </trkpt>
      <trkpt lat="37.474904000" lon="-5.690309000">
        <ele>129.7</ele>
        <time>2020-10-17T07:49:48Z</time>
      </trkpt>
      <trkpt lat="37.474909000" lon="-5.690426000">
        <ele>129.6</ele>
        <time>2020-10-17T07:49:50Z</time>
      </trkpt>
      <trkpt lat="37.474917000" lon="-5.690541000">
        <ele>129.5</ele>
        <time>2020-10-17T07:49:52Z</time>
      </trkpt>
      <trkpt lat="37.474921000" lon="-5.690663000">
        <ele>129.4</ele>
        <time>2020-10-17T07:49:54Z</time>
      </trkpt>
      <trkpt lat="37.474929000" lon="-5.690781000">
        <ele>129.2</ele>
        <time>2020-10-17T07:49:56Z</time>
      </trkpt>
      <trkpt lat="37.474935000" lon="-5.690906000">
        <ele>129.0</ele>
        <time>2020-10-17T07:49:58Z</time>
      </trkpt>
      <trkpt lat="37.474934000" lon="-5.691030000">
        <ele>128.7</ele>
        <time>2020-10-17T07:50:00Z</time>
      </trkpt>
      <trkpt lat="37.474938000" lon="-5.691155000">
        <ele>128.5</ele>
        <time>2020-10-17T07:50:02Z</time>
      </trkpt>
      <trkpt lat="37.474946000" lon="-5.691275000">
        <ele>128.4</ele>
        <time>2020-10-17T07:50:04Z</time>
      </trkpt>
      <trkpt lat="37.474941000" lon="-5.691397000">
        <ele>128.2</ele>
        <time>2020-10-17T07:50:06Z</time>
      </trkpt>
      <trkpt lat="37.474949000" lon="-5.691521000">
        <ele>128.0</ele>
        <time>2020-10-17T07:50:08Z</time>
      </trkpt>
      <trkpt lat="37.474959000" lon="-5.691647000">
        <ele>127.8</ele>
        <time>2020-10-17T07:50:10Z</time>
      </trkpt>
      <trkpt lat="37.474969000" lon="-5.691773000">
        <ele>127.7</ele>
        <time>2020-10-17T07:50:12Z</time>
      </trkpt>
      <trkpt lat="37.474980000" lon="-5.691895000">
        <ele>127.6</ele>
        <time>2020-10-17T07:50:14Z</time>
      </trkpt>
      <trkpt lat="37.474994000" lon="-5.692029000">
        <ele>127.6</ele>
        <time>2020-10-17T07:50:16Z</time>
      </trkpt>
      <trkpt lat="37.475002000" lon="-5.692153000">
        <ele>127.6</ele>
        <time>2020-10-17T07:50:18Z</time>
      </trkpt>
      <trkpt lat="37.475008000" lon="-5.692285000">
        <ele>127.5</ele>
        <time>2020-10-17T07:50:20Z</time>
      </trkpt>
      <trkpt lat="37.475010000" lon="-5.692420000">
        <ele>127.5</ele>
        <time>2020-10-17T07:50:22Z</time>
      </trkpt>
      <trkpt lat="37.475014000" lon="-5.692555000">
        <ele>127.3</ele>
        <time>2020-10-17T07:50:25Z</time>
      </trkpt>
      <trkpt lat="37.475010000" lon="-5.692696000">
        <ele>127.1</ele>
        <time>2020-10-17T07:50:26Z</time>
      </trkpt>
      <trkpt lat="37.475003000" lon="-5.692838000">
        <ele>126.9</ele>
        <time>2020-10-17T07:50:28Z</time>
      </trkpt>
      <trkpt lat="37.475005000" lon="-5.692991000">
        <ele>126.6</ele>
        <time>2020-10-17T07:50:30Z</time>
      </trkpt>
      <trkpt lat="37.475012000" lon="-5.693140000">
        <ele>126.4</ele>
        <time>2020-10-17T07:50:32Z</time>
      </trkpt>
      <trkpt lat="37.475029000" lon="-5.693289000">
        <ele>126.1</ele>
        <time>2020-10-17T07:50:34Z</time>
      </trkpt>
      <trkpt lat="37.475044000" lon="-5.693444000">
        <ele>125.8</ele>
        <time>2020-10-17T07:50:36Z</time>
      </trkpt>
      <trkpt lat="37.475053000" lon="-5.693594000">
        <ele>125.5</ele>
        <time>2020-10-17T07:50:38Z</time>
      </trkpt>
      <trkpt lat="37.475061000" lon="-5.693747000">
        <ele>125.3</ele>
        <time>2020-10-17T07:50:40Z</time>
      </trkpt>
      <trkpt lat="37.475072000" lon="-5.693901000">
        <ele>125.1</ele>
        <time>2020-10-17T07:50:42Z</time>
      </trkpt>
      <trkpt lat="37.475081000" lon="-5.694053000">
        <ele>125.0</ele>
        <time>2020-10-17T07:50:44Z</time>
      </trkpt>
      <trkpt lat="37.475088000" lon="-5.694198000">
        <ele>124.9</ele>
        <time>2020-10-17T07:50:46Z</time>
      </trkpt>
      <trkpt lat="37.475102000" lon="-5.694347000">
        <ele>124.8</ele>
        <time>2020-10-17T07:50:48Z</time>
      </trkpt>
      <trkpt lat="37.475124000" lon="-5.694485000">
        <ele>124.6</ele>
        <time>2020-10-17T07:50:50Z</time>
      </trkpt>
      <trkpt lat="37.475147000" lon="-5.694621000">
        <ele>124.5</ele>
        <time>2020-10-17T07:50:52Z</time>
      </trkpt>
      <trkpt lat="37.475167000" lon="-5.694755000">
        <ele>124.3</ele>
        <time>2020-10-17T07:50:54Z</time>
      </trkpt>
      <trkpt lat="37.475196000" lon="-5.694887000">
        <ele>124.1</ele>
        <time>2020-10-17T07:50:56Z</time>
      </trkpt>
      <trkpt lat="37.475229000" lon="-5.695027000">
        <ele>123.9</ele>
        <time>2020-10-17T07:50:58Z</time>
      </trkpt>
      <trkpt lat="37.475272000" lon="-5.695168000">
        <ele>123.8</ele>
        <time>2020-10-17T07:51:00Z</time>
      </trkpt>
      <trkpt lat="37.475312000" lon="-5.695300000">
        <ele>123.7</ele>
        <time>2020-10-17T07:51:02Z</time>
      </trkpt>
      <trkpt lat="37.475356000" lon="-5.695423000">
        <ele>123.7</ele>
        <time>2020-10-17T07:51:04Z</time>
      </trkpt>
      <trkpt lat="37.475391000" lon="-5.695549000">
        <ele>123.7</ele>
        <time>2020-10-17T07:51:06Z</time>
      </trkpt>
      <trkpt lat="37.475422000" lon="-5.695681000">
        <ele>123.8</ele>
        <time>2020-10-17T07:51:08Z</time>
      </trkpt>
      <trkpt lat="37.475448000" lon="-5.695821000">
        <ele>123.9</ele>
        <time>2020-10-17T07:51:10Z</time>
      </trkpt>
      <trkpt lat="37.475472000" lon="-5.695964000">
        <ele>124.1</ele>
        <time>2020-10-17T07:51:12Z</time>
      </trkpt>
      <trkpt lat="37.475497000" lon="-5.696104000">
        <ele>124.2</ele>
        <time>2020-10-17T07:51:14Z</time>
      </trkpt>
      <trkpt lat="37.475533000" lon="-5.696239000">
        <ele>124.2</ele>
        <time>2020-10-17T07:51:16Z</time>
      </trkpt>
      <trkpt lat="37.475560000" lon="-5.696378000">
        <ele>124.1</ele>
        <time>2020-10-17T07:51:18Z</time>
      </trkpt>
      <trkpt lat="37.475586000" lon="-5.696522000">
        <ele>124.0</ele>
        <time>2020-10-17T07:51:20Z</time>
      </trkpt>
      <trkpt lat="37.475612000" lon="-5.696670000">
        <ele>123.8</ele>
        <time>2020-10-17T07:51:22Z</time>
      </trkpt>
      <trkpt lat="37.475636000" lon="-5.696813000">
        <ele>123.5</ele>
        <time>2020-10-17T07:51:24Z</time>
      </trkpt>
      <trkpt lat="37.475664000" lon="-5.696960000">
        <ele>123.1</ele>
        <time>2020-10-17T07:51:26Z</time>
      </trkpt>
      <trkpt lat="37.475693000" lon="-5.697116000">
        <ele>122.6</ele>
        <time>2020-10-17T07:51:28Z</time>
      </trkpt>
      <trkpt lat="37.475723000" lon="-5.697264000">
        <ele>122.1</ele>
        <time>2020-10-17T07:51:30Z</time>
      </trkpt>
      <trkpt lat="37.475755000" lon="-5.697419000">
        <ele>121.5</ele>
        <time>2020-10-17T07:51:32Z</time>
      </trkpt>
      <trkpt lat="37.475782000" lon="-5.697575000">
        <ele>120.7</ele>
        <time>2020-10-17T07:51:34Z</time>
      </trkpt>
      <trkpt lat="37.475809000" lon="-5.697725000">
        <ele>120.1</ele>
        <time>2020-10-17T07:51:36Z</time>
      </trkpt>
      <trkpt lat="37.475840000" lon="-5.697879000">
        <ele>119.5</ele>
        <time>2020-10-17T07:51:38Z</time>
      </trkpt>
      <trkpt lat="37.475866000" lon="-5.698035000">
        <ele>119.1</ele>
        <time>2020-10-17T07:51:40Z</time>
      </trkpt>
      <trkpt lat="37.475898000" lon="-5.698191000">
        <ele>118.7</ele>
        <time>2020-10-17T07:51:42Z</time>
      </trkpt>
      <trkpt lat="37.475926000" lon="-5.698346000">
        <ele>118.5</ele>
        <time>2020-10-17T07:51:44Z</time>
      </trkpt>
      <trkpt lat="37.475955000" lon="-5.698496000">
        <ele>118.3</ele>
        <time>2020-10-17T07:51:46Z</time>
      </trkpt>
      <trkpt lat="37.475980000" lon="-5.698653000">
        <ele>118.3</ele>
        <time>2020-10-17T07:51:48Z</time>
      </trkpt>
      <trkpt lat="37.476010000" lon="-5.698803000">
        <ele>118.3</ele>
        <time>2020-10-17T07:51:50Z</time>
      </trkpt>
      <trkpt lat="37.476044000" lon="-5.698961000">
        <ele>118.5</ele>
        <time>2020-10-17T07:51:52Z</time>
      </trkpt>
      <trkpt lat="37.476053000" lon="-5.699124000">
        <ele>118.7</ele>
        <time>2020-10-17T07:51:54Z</time>
      </trkpt>
      <trkpt lat="37.476045000" lon="-5.699284000">
        <ele>119.2</ele>
        <time>2020-10-17T07:51:56Z</time>
      </trkpt>
      <trkpt lat="37.476013000" lon="-5.699440000">
        <ele>119.6</ele>
        <time>2020-10-17T07:51:58Z</time>
      </trkpt>
      <trkpt lat="37.475981000" lon="-5.699600000">
        <ele>120.1</ele>
        <time>2020-10-17T07:52:00Z</time>
      </trkpt>
      <trkpt lat="37.475958000" lon="-5.699761000">
        <ele>120.5</ele>
        <time>2020-10-17T07:52:02Z</time>
      </trkpt>
      <trkpt lat="37.475962000" lon="-5.699921000">
        <ele>121.0</ele>
        <time>2020-10-17T07:52:04Z</time>
      </trkpt>
      <trkpt lat="37.475996000" lon="-5.700055000">
        <ele>121.4</ele>
        <time>2020-10-17T07:52:06Z</time>
      </trkpt>
      <trkpt lat="37.476037000" lon="-5.700182000">
        <ele>121.6</ele>
        <time>2020-10-17T07:52:08Z</time>
      </trkpt>
      <trkpt lat="37.476079000" lon="-5.700304000">
        <ele>121.8</ele>
        <time>2020-10-17T07:52:10Z</time>
      </trkpt>
      <trkpt lat="37.476114000" lon="-5.700420000">
        <ele>122.0</ele>
        <time>2020-10-17T07:52:12Z</time>
      </trkpt>
      <trkpt lat="37.476150000" lon="-5.700541000">
        <ele>122.1</ele>
        <time>2020-10-17T07:52:14Z</time>
      </trkpt>
      <trkpt lat="37.476191000" lon="-5.700652000">
        <ele>122.2</ele>
        <time>2020-10-17T07:52:16Z</time>
      </trkpt>
      <trkpt lat="37.476233000" lon="-5.700763000">
        <ele>122.3</ele>
        <time>2020-10-17T07:52:18Z</time>
      </trkpt>
      <trkpt lat="37.476268000" lon="-5.700869000">
        <ele>122.4</ele>
        <time>2020-10-17T07:52:20Z</time>
      </trkpt>
      <trkpt lat="37.476309000" lon="-5.700970000">
        <ele>122.5</ele>
        <time>2020-10-17T07:52:22Z</time>
      </trkpt>
      <trkpt lat="37.476342000" lon="-5.701068000">
        <ele>122.7</ele>
        <time>2020-10-17T07:52:24Z</time>
      </trkpt>
      <trkpt lat="37.476374000" lon="-5.701169000">
        <ele>122.8</ele>
        <time>2020-10-17T07:52:26Z</time>
      </trkpt>
      <trkpt lat="37.476411000" lon="-5.701263000">
        <ele>122.9</ele>
        <time>2020-10-17T07:52:28Z</time>
      </trkpt>
      <trkpt lat="37.476442000" lon="-5.701358000">
        <ele>123.1</ele>
        <time>2020-10-17T07:52:30Z</time>
      </trkpt>
      <trkpt lat="37.476474000" lon="-5.701504000">
        <ele>123.3</ele>
        <time>2020-10-17T07:52:33Z</time>
      </trkpt>
      <trkpt lat="37.476503000" lon="-5.701644000">
        <ele>123.5</ele>
        <time>2020-10-17T07:52:36Z</time>
      </trkpt>
      <trkpt lat="37.476524000" lon="-5.701780000">
        <ele>123.6</ele>
        <time>2020-10-17T07:52:39Z</time>
      </trkpt>
      <trkpt lat="37.476536000" lon="-5.701905000">
        <ele>123.8</ele>
        <time>2020-10-17T07:52:42Z</time>
      </trkpt>
      <trkpt lat="37.476547000" lon="-5.702020000">
        <ele>123.9</ele>
        <time>2020-10-17T07:52:45Z</time>
      </trkpt>
      <trkpt lat="37.476556000" lon="-5.702147000">
        <ele>124.0</ele>
        <time>2020-10-17T07:52:48Z</time>
      </trkpt>
      <trkpt lat="37.476559000" lon="-5.702270000">
        <ele>124.0</ele>
        <time>2020-10-17T07:52:51Z</time>
      </trkpt>
      <trkpt lat="37.476561000" lon="-5.702391000">
        <ele>123.9</ele>
        <time>2020-10-17T07:52:54Z</time>
      </trkpt>
      <trkpt lat="37.476555000" lon="-5.702521000">
        <ele>123.8</ele>
        <time>2020-10-17T07:52:57Z</time>
      </trkpt>
      <trkpt lat="37.476552000" lon="-5.702665000">
        <ele>123.7</ele>
        <time>2020-10-17T07:53:00Z</time>
      </trkpt>
      <trkpt lat="37.476549000" lon="-5.702768000">
        <ele>123.6</ele>
        <time>2020-10-17T07:53:02Z</time>
      </trkpt>
      <trkpt lat="37.476541000" lon="-5.702876000">
        <ele>123.5</ele>
        <time>2020-10-17T07:53:04Z</time>
      </trkpt>
      <trkpt lat="37.476528000" lon="-5.702984000">
        <ele>123.4</ele>
        <time>2020-10-17T07:53:06Z</time>
      </trkpt>
      <trkpt lat="37.476518000" lon="-5.703097000">
        <ele>123.2</ele>
        <time>2020-10-17T07:53:08Z</time>
      </trkpt>
      <trkpt lat="37.476502000" lon="-5.703210000">
        <ele>122.9</ele>
        <time>2020-10-17T07:53:10Z</time>
      </trkpt>
      <trkpt lat="37.476485000" lon="-5.703324000">
        <ele>122.6</ele>
        <time>2020-10-17T07:53:12Z</time>
      </trkpt>
      <trkpt lat="37.476467000" lon="-5.703433000">
        <ele>122.3</ele>
        <time>2020-10-17T07:53:14Z</time>
      </trkpt>
      <trkpt lat="37.476444000" lon="-5.703549000">
        <ele>121.9</ele>
        <time>2020-10-17T07:53:16Z</time>
      </trkpt>
      <trkpt lat="37.476423000" lon="-5.703668000">
        <ele>121.5</ele>
        <time>2020-10-17T07:53:18Z</time>
      </trkpt>
      <trkpt lat="37.476403000" lon="-5.703794000">
        <ele>121.2</ele>
        <time>2020-10-17T07:53:20Z</time>
      </trkpt>
      <trkpt lat="37.476388000" lon="-5.703927000">
        <ele>120.8</ele>
        <time>2020-10-17T07:53:22Z</time>
      </trkpt>
      <trkpt lat="37.476383000" lon="-5.704059000">
        <ele>120.5</ele>
        <time>2020-10-17T07:53:24Z</time>
      </trkpt>
      <trkpt lat="37.476375000" lon="-5.704194000">
        <ele>120.1</ele>
        <time>2020-10-17T07:53:26Z</time>
      </trkpt>
      <trkpt lat="37.476372000" lon="-5.704322000">
        <ele>119.8</ele>
        <time>2020-10-17T07:53:28Z</time>
      </trkpt>
      <trkpt lat="37.476374000" lon="-5.704449000">
        <ele>119.5</ele>
        <time>2020-10-17T07:53:30Z</time>
      </trkpt>
      <trkpt lat="37.476374000" lon="-5.704581000">
        <ele>119.5</ele>
        <time>2020-10-17T07:53:32Z</time>
      </trkpt>
      <trkpt lat="37.476365000" lon="-5.704699000">
        <ele>119.4</ele>
        <time>2020-10-17T07:53:34Z</time>
      </trkpt>
      <trkpt lat="37.476368000" lon="-5.704818000">
        <ele>119.4</ele>
        <time>2020-10-17T07:53:36Z</time>
      </trkpt>
      <trkpt lat="37.476380000" lon="-5.704941000">
        <ele>119.4</ele>
        <time>2020-10-17T07:53:38Z</time>
      </trkpt>
      <trkpt lat="37.476394000" lon="-5.705067000">
        <ele>119.5</ele>
        <time>2020-10-17T07:53:40Z</time>
      </trkpt>
      <trkpt lat="37.476397000" lon="-5.705179000">
        <ele>119.5</ele>
        <time>2020-10-17T07:53:42Z</time>
      </trkpt>
      <trkpt lat="37.476409000" lon="-5.705287000">
        <ele>119.6</ele>
        <time>2020-10-17T07:53:44Z</time>
      </trkpt>
      <trkpt lat="37.476427000" lon="-5.705393000">
        <ele>119.7</ele>
        <time>2020-10-17T07:53:46Z</time>
      </trkpt>
      <trkpt lat="37.476446000" lon="-5.705493000">
        <ele>119.8</ele>
        <time>2020-10-17T07:53:48Z</time>
      </trkpt>
      <trkpt lat="37.476486000" lon="-5.705632000">
        <ele>119.9</ele>
        <time>2020-10-17T07:53:51Z</time>
      </trkpt>
      <trkpt lat="37.476523000" lon="-5.705728000">
        <ele>119.9</ele>
        <time>2020-10-17T07:53:53Z</time>
      </trkpt>
      <trkpt lat="37.476560000" lon="-5.705825000">
        <ele>119.8</ele>
        <time>2020-10-17T07:53:55Z</time>
      </trkpt>
      <trkpt lat="37.476599000" lon="-5.705928000">
        <ele>119.6</ele>
        <time>2020-10-17T07:53:57Z</time>
      </trkpt>
      <trkpt lat="37.476646000" lon="-5.706037000">
        <ele>119.5</ele>
        <time>2020-10-17T07:53:59Z</time>
      </trkpt>
      <trkpt lat="37.476686000" lon="-5.706144000">
        <ele>119.3</ele>
        <time>2020-10-17T07:54:01Z</time>
      </trkpt>
      <trkpt lat="37.476725000" lon="-5.706260000">
        <ele>119.1</ele>
        <time>2020-10-17T07:54:03Z</time>
      </trkpt>
      <trkpt lat="37.476764000" lon="-5.706372000">
        <ele>118.8</ele>
        <time>2020-10-17T07:54:05Z</time>
      </trkpt>
      <trkpt lat="37.476801000" lon="-5.706480000">
        <ele>118.5</ele>
        <time>2020-10-17T07:54:07Z</time>
      </trkpt>
      <trkpt lat="37.476821000" lon="-5.706583000">
        <ele>118.3</ele>
        <time>2020-10-17T07:54:09Z</time>
      </trkpt>
      <trkpt lat="37.476855000" lon="-5.706678000">
        <ele>118.0</ele>
        <time>2020-10-17T07:54:11Z</time>
      </trkpt>
      <trkpt lat="37.476894000" lon="-5.706769000">
        <ele>117.7</ele>
        <time>2020-10-17T07:54:13Z</time>
      </trkpt>
      <trkpt lat="37.476940000" lon="-5.706861000">
        <ele>117.5</ele>
        <time>2020-10-17T07:54:15Z</time>
      </trkpt>
      <trkpt lat="37.476980000" lon="-5.706954000">
        <ele>117.4</ele>
        <time>2020-10-17T07:54:17Z</time>
      </trkpt>
      <trkpt lat="37.477034000" lon="-5.707049000">
        <ele>117.3</ele>
        <time>2020-10-17T07:54:19Z</time>
      </trkpt>
      <trkpt lat="37.477087000" lon="-5.707148000">
        <ele>117.2</ele>
        <time>2020-10-17T07:54:21Z</time>
      </trkpt>
      <trkpt lat="37.477139000" lon="-5.707248000">
        <ele>117.1</ele>
        <time>2020-10-17T07:54:23Z</time>
      </trkpt>
      <trkpt lat="37.477193000" lon="-5.707347000">
        <ele>117.0</ele>
        <time>2020-10-17T07:54:25Z</time>
      </trkpt>
      <trkpt lat="37.477250000" lon="-5.707457000">
        <ele>117.1</ele>
        <time>2020-10-17T07:54:27Z</time>
      </trkpt>
      <trkpt lat="37.477291000" lon="-5.707573000">
        <ele>117.2</ele>
        <time>2020-10-17T07:54:29Z</time>
      </trkpt>
      <trkpt lat="37.477331000" lon="-5.707697000">
        <ele>117.2</ele>
        <time>2020-10-17T07:54:31Z</time>
      </trkpt>
      <trkpt lat="37.477379000" lon="-5.707823000">
        <ele>117.2</ele>
        <time>2020-10-17T07:54:33Z</time>
      </trkpt>
      <trkpt lat="37.477426000" lon="-5.707948000">
        <ele>117.1</ele>
        <time>2020-10-17T07:54:35Z</time>
      </trkpt>
      <trkpt lat="37.477475000" lon="-5.708066000">
        <ele>116.9</ele>
        <time>2020-10-17T07:54:37Z</time>
      </trkpt>
      <trkpt lat="37.477529000" lon="-5.708169000">
        <ele>116.7</ele>
        <time>2020-10-17T07:54:39Z</time>
      </trkpt>
      <trkpt lat="37.477580000" lon="-5.708271000">
        <ele>116.5</ele>
        <time>2020-10-17T07:54:41Z</time>
      </trkpt>
      <trkpt lat="37.477630000" lon="-5.708375000">
        <ele>116.2</ele>
        <time>2020-10-17T07:54:43Z</time>
      </trkpt>
      <trkpt lat="37.477689000" lon="-5.708479000">
        <ele>115.8</ele>
        <time>2020-10-17T07:54:45Z</time>
      </trkpt>
      <trkpt lat="37.477736000" lon="-5.708588000">
        <ele>115.5</ele>
        <time>2020-10-17T07:54:47Z</time>
      </trkpt>
      <trkpt lat="37.477785000" lon="-5.708699000">
        <ele>115.0</ele>
        <time>2020-10-17T07:54:49Z</time>
      </trkpt>
      <trkpt lat="37.477835000" lon="-5.708811000">
        <ele>114.5</ele>
        <time>2020-10-17T07:54:51Z</time>
      </trkpt>
      <trkpt lat="37.477881000" lon="-5.708932000">
        <ele>114.2</ele>
        <time>2020-10-17T07:54:53Z</time>
      </trkpt>
      <trkpt lat="37.477923000" lon="-5.709052000">
        <ele>113.9</ele>
        <time>2020-10-17T07:54:55Z</time>
      </trkpt>
      <trkpt lat="37.477970000" lon="-5.709173000">
        <ele>113.7</ele>
        <time>2020-10-17T07:54:57Z</time>
      </trkpt>
      <trkpt lat="37.478022000" lon="-5.709295000">
        <ele>113.7</ele>
        <time>2020-10-17T07:54:59Z</time>
      </trkpt>
      <trkpt lat="37.478072000" lon="-5.709414000">
        <ele>113.8</ele>
        <time>2020-10-17T07:55:01Z</time>
      </trkpt>
      <trkpt lat="37.478127000" lon="-5.709536000">
        <ele>114.0</ele>
        <time>2020-10-17T07:55:03Z</time>
      </trkpt>
      <trkpt lat="37.478166000" lon="-5.709655000">
        <ele>114.1</ele>
        <time>2020-10-17T07:55:05Z</time>
      </trkpt>
      <trkpt lat="37.478212000" lon="-5.709771000">
        <ele>114.2</ele>
        <time>2020-10-17T07:55:07Z</time>
      </trkpt>
      <trkpt lat="37.478259000" lon="-5.709895000">
        <ele>114.2</ele>
        <time>2020-10-17T07:55:09Z</time>
      </trkpt>
      <trkpt lat="37.478314000" lon="-5.710022000">
        <ele>114.1</ele>
        <time>2020-10-17T07:55:11Z</time>
      </trkpt>
      <trkpt lat="37.478369000" lon="-5.710140000">
        <ele>113.9</ele>
        <time>2020-10-17T07:55:13Z</time>
      </trkpt>
      <trkpt lat="37.478421000" lon="-5.710256000">
        <ele>113.7</ele>
        <time>2020-10-17T07:55:15Z</time>
      </trkpt>
      <trkpt lat="37.478471000" lon="-5.710373000">
        <ele>113.5</ele>
        <time>2020-10-17T07:55:17Z</time>
      </trkpt>
      <trkpt lat="37.478522000" lon="-5.710489000">
        <ele>113.2</ele>
        <time>2020-10-17T07:55:19Z</time>
      </trkpt>
      <trkpt lat="37.478567000" lon="-5.710609000">
        <ele>112.7</ele>
        <time>2020-10-17T07:55:21Z</time>
      </trkpt>
      <trkpt lat="37.478613000" lon="-5.710734000">
        <ele>112.2</ele>
        <time>2020-10-17T07:55:23Z</time>
      </trkpt>
      <trkpt lat="37.478658000" lon="-5.710855000">
        <ele>111.6</ele>
        <time>2020-10-17T07:55:25Z</time>
      </trkpt>
      <trkpt lat="37.478695000" lon="-5.710971000">
        <ele>111.2</ele>
        <time>2020-10-17T07:55:27Z</time>
      </trkpt>
      <trkpt lat="37.478736000" lon="-5.711093000">
        <ele>110.8</ele>
        <time>2020-10-17T07:55:29Z</time>
      </trkpt>
      <trkpt lat="37.478780000" lon="-5.711204000">
        <ele>110.5</ele>
        <time>2020-10-17T07:55:31Z</time>
      </trkpt>
      <trkpt lat="37.478849000" lon="-5.711315000">
        <ele>110.5</ele>
        <time>2020-10-17T07:55:33Z</time>
      </trkpt>
      <trkpt lat="37.478930000" lon="-5.711413000">
        <ele>110.5</ele>
        <time>2020-10-17T07:55:35Z</time>
      </trkpt>
      <trkpt lat="37.479009000" lon="-5.711504000">
        <ele>110.5</ele>
        <time>2020-10-17T07:55:37Z</time>
      </trkpt>
      <trkpt lat="37.479090000" lon="-5.711601000">
        <ele>110.4</ele>
        <time>2020-10-17T07:55:39Z</time>
      </trkpt>
      <trkpt lat="37.479165000" lon="-5.711699000">
        <ele>110.2</ele>
        <time>2020-10-17T07:55:41Z</time>
      </trkpt>
      <trkpt lat="37.479244000" lon="-5.711793000">
        <ele>110.0</ele>
        <time>2020-10-17T07:55:43Z</time>
      </trkpt>
      <trkpt lat="37.479323000" lon="-5.711891000">
        <ele>109.8</ele>
        <time>2020-10-17T07:55:45Z</time>
      </trkpt>
      <trkpt lat="37.479403000" lon="-5.711986000">
        <ele>109.5</ele>
        <time>2020-10-17T07:55:47Z</time>
      </trkpt>
      <trkpt lat="37.479484000" lon="-5.712073000">
        <ele>109.3</ele>
        <time>2020-10-17T07:55:49Z</time>
      </trkpt>
      <trkpt lat="37.479573000" lon="-5.712159000">
        <ele>108.9</ele>
        <time>2020-10-17T07:55:51Z</time>
      </trkpt>
      <trkpt lat="37.479666000" lon="-5.712244000">
        <ele>108.5</ele>
        <time>2020-10-17T07:55:53Z</time>
      </trkpt>
      <trkpt lat="37.479758000" lon="-5.712338000">
        <ele>108.1</ele>
        <time>2020-10-17T07:55:55Z</time>
      </trkpt>
      <trkpt lat="37.479845000" lon="-5.712443000">
        <ele>107.6</ele>
        <time>2020-10-17T07:55:57Z</time>
      </trkpt>
      <trkpt lat="37.479926000" lon="-5.712550000">
        <ele>107.2</ele>
        <time>2020-10-17T07:55:59Z</time>
      </trkpt>
      <trkpt lat="37.480008000" lon="-5.712657000">
        <ele>106.8</ele>
        <time>2020-10-17T07:56:01Z</time>
      </trkpt>
      <trkpt lat="37.480092000" lon="-5.712767000">
        <ele>106.5</ele>
        <time>2020-10-17T07:56:03Z</time>
      </trkpt>
      <trkpt lat="37.480169000" lon="-5.712886000">
        <ele>106.3</ele>
        <time>2020-10-17T07:56:05Z</time>
      </trkpt>
      <trkpt lat="37.480234000" lon="-5.713004000">
        <ele>106.0</ele>
        <time>2020-10-17T07:56:07Z</time>
      </trkpt>
      <trkpt lat="37.480295000" lon="-5.713127000">
        <ele>105.9</ele>
        <time>2020-10-17T07:56:09Z</time>
      </trkpt>
      <trkpt lat="37.480351000" lon="-5.713257000">
        <ele>105.8</ele>
        <time>2020-10-17T07:56:11Z</time>
      </trkpt>
      <trkpt lat="37.480408000" lon="-5.713385000">
        <ele>105.8</ele>
        <time>2020-10-17T07:56:13Z</time>
      </trkpt>
      <trkpt lat="37.480467000" lon="-5.713511000">
        <ele>105.8</ele>
        <time>2020-10-17T07:56:15Z</time>
      </trkpt>
      <trkpt lat="37.480517000" lon="-5.713635000">
        <ele>105.7</ele>
        <time>2020-10-17T07:56:17Z</time>
      </trkpt>
      <trkpt lat="37.480539000" lon="-5.713763000">
        <ele>105.6</ele>
        <time>2020-10-17T07:56:19Z</time>
      </trkpt>
      <trkpt lat="37.480551000" lon="-5.713900000">
        <ele>105.5</ele>
        <time>2020-10-17T07:56:21Z</time>
      </trkpt>
      <trkpt lat="37.480590000" lon="-5.714028000">
        <ele>105.3</ele>
        <time>2020-10-17T07:56:23Z</time>
      </trkpt>
      <trkpt lat="37.480633000" lon="-5.714149000">
        <ele>105.0</ele>
        <time>2020-10-17T07:56:25Z</time>
      </trkpt>
      <trkpt lat="37.480688000" lon="-5.714272000">
        <ele>104.8</ele>
        <time>2020-10-17T07:56:27Z</time>
      </trkpt>
      <trkpt lat="37.480738000" lon="-5.714400000">
        <ele>104.5</ele>
        <time>2020-10-17T07:56:29Z</time>
      </trkpt>
      <trkpt lat="37.480774000" lon="-5.714521000">
        <ele>104.2</ele>
        <time>2020-10-17T07:56:31Z</time>
      </trkpt>
      <trkpt lat="37.480808000" lon="-5.714642000">
        <ele>103.8</ele>
        <time>2020-10-17T07:56:33Z</time>
      </trkpt>
      <trkpt lat="37.480838000" lon="-5.714743000">
        <ele>103.5</ele>
        <time>2020-10-17T07:56:35Z</time>
      </trkpt>
      <trkpt lat="37.480867000" lon="-5.714843000">
        <ele>103.4</ele>
        <time>2020-10-17T07:56:37Z</time>
      </trkpt>
      <trkpt lat="37.480889000" lon="-5.714961000">
        <ele>103.3</ele>
        <time>2020-10-17T07:56:39Z</time>
      </trkpt>
      <trkpt lat="37.480916000" lon="-5.715089000">
        <ele>103.3</ele>
        <time>2020-10-17T07:56:41Z</time>
      </trkpt>
      <trkpt lat="37.480945000" lon="-5.715218000">
        <ele>103.4</ele>
        <time>2020-10-17T07:56:43Z</time>
      </trkpt>
      <trkpt lat="37.480968000" lon="-5.715351000">
        <ele>103.5</ele>
        <time>2020-10-17T07:56:45Z</time>
      </trkpt>
      <trkpt lat="37.481003000" lon="-5.715486000">
        <ele>103.5</ele>
        <time>2020-10-17T07:56:47Z</time>
      </trkpt>
      <trkpt lat="37.481031000" lon="-5.715630000">
        <ele>103.5</ele>
        <time>2020-10-17T07:56:49Z</time>
      </trkpt>
      <trkpt lat="37.481060000" lon="-5.715773000">
        <ele>103.5</ele>
        <time>2020-10-17T07:56:51Z</time>
      </trkpt>
      <trkpt lat="37.481090000" lon="-5.715914000">
        <ele>103.5</ele>
        <time>2020-10-17T07:56:53Z</time>
      </trkpt>
      <trkpt lat="37.481121000" lon="-5.716055000">
        <ele>103.5</ele>
        <time>2020-10-17T07:56:55Z</time>
      </trkpt>
      <trkpt lat="37.481140000" lon="-5.716195000">
        <ele>103.5</ele>
        <time>2020-10-17T07:56:57Z</time>
      </trkpt>
      <trkpt lat="37.481157000" lon="-5.716347000">
        <ele>103.2</ele>
        <time>2020-10-17T07:56:59Z</time>
      </trkpt>
      <trkpt lat="37.481173000" lon="-5.716495000">
        <ele>102.9</ele>
        <time>2020-10-17T07:57:01Z</time>
      </trkpt>
      <trkpt lat="37.481188000" lon="-5.716643000">
        <ele>102.5</ele>
        <time>2020-10-17T07:57:03Z</time>
      </trkpt>
      <trkpt lat="37.481202000" lon="-5.716791000">
        <ele>102.2</ele>
        <time>2020-10-17T07:57:05Z</time>
      </trkpt>
      <trkpt lat="37.481214000" lon="-5.716944000">
        <ele>101.8</ele>
        <time>2020-10-17T07:57:07Z</time>
      </trkpt>
      <trkpt lat="37.481223000" lon="-5.717098000">
        <ele>101.5</ele>
        <time>2020-10-17T07:57:09Z</time>
      </trkpt>
      <trkpt lat="37.481232000" lon="-5.717252000">
        <ele>101.5</ele>
        <time>2020-10-17T07:57:11Z</time>
      </trkpt>
      <trkpt lat="37.481239000" lon="-5.717413000">
        <ele>101.5</ele>
        <time>2020-10-17T07:57:13Z</time>
      </trkpt>
      <trkpt lat="37.481242000" lon="-5.717573000">
        <ele>101.5</ele>
        <time>2020-10-17T07:57:15Z</time>
      </trkpt>
      <trkpt lat="37.481250000" lon="-5.717725000">
        <ele>101.5</ele>
        <time>2020-10-17T07:57:17Z</time>
      </trkpt>
      <trkpt lat="37.481258000" lon="-5.717883000">
        <ele>101.5</ele>
        <time>2020-10-17T07:57:19Z</time>
      </trkpt>
      <trkpt lat="37.481269000" lon="-5.718036000">
        <ele>101.6</ele>
        <time>2020-10-17T07:57:21Z</time>
      </trkpt>
      <trkpt lat="37.481276000" lon="-5.718193000">
        <ele>101.7</ele>
        <time>2020-10-17T07:57:23Z</time>
      </trkpt>
      <trkpt lat="37.481284000" lon="-5.718353000">
        <ele>101.8</ele>
        <time>2020-10-17T07:57:25Z</time>
      </trkpt>
      <trkpt lat="37.481285000" lon="-5.718508000">
        <ele>101.8</ele>
        <time>2020-10-17T07:57:27Z</time>
      </trkpt>
      <trkpt lat="37.481289000" lon="-5.718669000">
        <ele>101.8</ele>
        <time>2020-10-17T07:57:29Z</time>
      </trkpt>
      <trkpt lat="37.481293000" lon="-5.718829000">
        <ele>101.7</ele>
        <time>2020-10-17T07:57:31Z</time>
      </trkpt>
      <trkpt lat="37.481295000" lon="-5.718987000">
        <ele>101.5</ele>
        <time>2020-10-17T07:57:33Z</time>
      </trkpt>
      <trkpt lat="37.481294000" lon="-5.719149000">
        <ele>101.4</ele>
        <time>2020-10-17T07:57:35Z</time>
      </trkpt>
      <trkpt lat="37.481289000" lon="-5.719311000">
        <ele>101.2</ele>
        <time>2020-10-17T07:57:37Z</time>
      </trkpt>
      <trkpt lat="37.481292000" lon="-5.719472000">
        <ele>101.1</ele>
        <time>2020-10-17T07:57:39Z</time>
      </trkpt>
      <trkpt lat="37.481291000" lon="-5.719634000">
        <ele>101.0</ele>
        <time>2020-10-17T07:57:41Z</time>
      </trkpt>
      <trkpt lat="37.481287000" lon="-5.719792000">
        <ele>100.9</ele>
        <time>2020-10-17T07:57:43Z</time>
      </trkpt>
      <trkpt lat="37.481284000" lon="-5.719957000">
        <ele>100.7</ele>
        <time>2020-10-17T07:57:45Z</time>
      </trkpt>
      <trkpt lat="37.481279000" lon="-5.720123000">
        <ele>100.5</ele>
        <time>2020-10-17T07:57:47Z</time>
      </trkpt>
      <trkpt lat="37.481268000" lon="-5.720287000">
        <ele>100.3</ele>
        <time>2020-10-17T07:57:49Z</time>
      </trkpt>
      <trkpt lat="37.481268000" lon="-5.720456000">
        <ele>100.0</ele>
        <time>2020-10-17T07:57:51Z</time>
      </trkpt>
      <trkpt lat="37.481265000" lon="-5.720623000">
        <ele>99.8</ele>
        <time>2020-10-17T07:57:53Z</time>
      </trkpt>
      <trkpt lat="37.481270000" lon="-5.720788000">
        <ele>99.6</ele>
        <time>2020-10-17T07:57:55Z</time>
      </trkpt>
      <trkpt lat="37.481275000" lon="-5.720945000">
        <ele>99.5</ele>
        <time>2020-10-17T07:57:57Z</time>
      </trkpt>
      <trkpt lat="37.481278000" lon="-5.721111000">
        <ele>99.2</ele>
        <time>2020-10-17T07:57:59Z</time>
      </trkpt>
      <trkpt lat="37.481282000" lon="-5.721279000">
        <ele>98.9</ele>
        <time>2020-10-17T07:58:01Z</time>
      </trkpt>
      <trkpt lat="37.481286000" lon="-5.721448000">
        <ele>98.6</ele>
        <time>2020-10-17T07:58:03Z</time>
      </trkpt>
      <trkpt lat="37.481294000" lon="-5.721619000">
        <ele>98.4</ele>
        <time>2020-10-17T07:58:05Z</time>
      </trkpt>
      <trkpt lat="37.481295000" lon="-5.721791000">
        <ele>98.2</ele>
        <time>2020-10-17T07:58:07Z</time>
      </trkpt>
      <trkpt lat="37.481294000" lon="-5.721963000">
        <ele>98.1</ele>
        <time>2020-10-17T07:58:09Z</time>
      </trkpt>
      <trkpt lat="37.481294000" lon="-5.722135000">
        <ele>98.0</ele>
        <time>2020-10-17T07:58:11Z</time>
      </trkpt>
      <trkpt lat="37.481293000" lon="-5.722310000">
        <ele>97.9</ele>
        <time>2020-10-17T07:58:13Z</time>
      </trkpt>
      <trkpt lat="37.481292000" lon="-5.722487000">
        <ele>97.8</ele>
        <time>2020-10-17T07:58:15Z</time>
      </trkpt>
      <trkpt lat="37.481285000" lon="-5.722662000">
        <ele>97.7</ele>
        <time>2020-10-17T07:58:17Z</time>
      </trkpt>
      <trkpt lat="37.481275000" lon="-5.722838000">
        <ele>97.6</ele>
        <time>2020-10-17T07:58:19Z</time>
      </trkpt>
      <trkpt lat="37.481250000" lon="-5.723007000">
        <ele>97.5</ele>
        <time>2020-10-17T07:58:21Z</time>
      </trkpt>
      <trkpt lat="37.481223000" lon="-5.723174000">
        <ele>97.5</ele>
        <time>2020-10-17T07:58:23Z</time>
      </trkpt>
      <trkpt lat="37.481208000" lon="-5.723341000">
        <ele>97.4</ele>
        <time>2020-10-17T07:58:25Z</time>
      </trkpt>
      <trkpt lat="37.481202000" lon="-5.723509000">
        <ele>97.3</ele>
        <time>2020-10-17T07:58:27Z</time>
      </trkpt>
      <trkpt lat="37.481192000" lon="-5.723668000">
        <ele>97.2</ele>
        <time>2020-10-17T07:58:29Z</time>
      </trkpt>
      <trkpt lat="37.481174000" lon="-5.723819000">
        <ele>97.1</ele>
        <time>2020-10-17T07:58:31Z</time>
      </trkpt>
      <trkpt lat="37.481144000" lon="-5.723960000">
        <ele>96.9</ele>
        <time>2020-10-17T07:58:33Z</time>
      </trkpt>
      <trkpt lat="37.481109000" lon="-5.724097000">
        <ele>96.8</ele>
        <time>2020-10-17T07:58:35Z</time>
      </trkpt>
      <trkpt lat="37.481071000" lon="-5.724240000">
        <ele>96.7</ele>
        <time>2020-10-17T07:58:37Z</time>
      </trkpt>
      <trkpt lat="37.481033000" lon="-5.724378000">
        <ele>96.6</ele>
        <time>2020-10-17T07:58:39Z</time>
      </trkpt>
      <trkpt lat="37.481004000" lon="-5.724519000">
        <ele>96.5</ele>
        <time>2020-10-17T07:58:41Z</time>
      </trkpt>
      <trkpt lat="37.480975000" lon="-5.724668000">
        <ele>96.3</ele>
        <time>2020-10-17T07:58:43Z</time>
      </trkpt>
      <trkpt lat="37.480950000" lon="-5.724812000">
        <ele>96.1</ele>
        <time>2020-10-17T07:58:45Z</time>
      </trkpt>
      <trkpt lat="37.480930000" lon="-5.724967000">
        <ele>95.9</ele>
        <time>2020-10-17T07:58:47Z</time>
      </trkpt>
      <trkpt lat="37.480915000" lon="-5.725118000">
        <ele>95.7</ele>
        <time>2020-10-17T07:58:49Z</time>
      </trkpt>
      <trkpt lat="37.480903000" lon="-5.725278000">
        <ele>95.5</ele>
        <time>2020-10-17T07:58:51Z</time>
      </trkpt>
      <trkpt lat="37.480893000" lon="-5.725437000">
        <ele>95.2</ele>
        <time>2020-10-17T07:58:53Z</time>
      </trkpt>
      <trkpt lat="37.480881000" lon="-5.725599000">
        <ele>95.0</ele>
        <time>2020-10-17T07:58:55Z</time>
      </trkpt>
      <trkpt lat="37.480874000" lon="-5.725756000">
        <ele>94.8</ele>
        <time>2020-10-17T07:58:57Z</time>
      </trkpt>
      <trkpt lat="37.480861000" lon="-5.725907000">
        <ele>94.6</ele>
        <time>2020-10-17T07:58:59Z</time>
      </trkpt>
      <trkpt lat="37.480844000" lon="-5.726062000">
        <ele>94.5</ele>
        <time>2020-10-17T07:59:01Z</time>
      </trkpt>
      <trkpt lat="37.480832000" lon="-5.726212000">
        <ele>94.4</ele>
        <time>2020-10-17T07:59:03Z</time>
      </trkpt>
      <trkpt lat="37.480826000" lon="-5.726366000">
        <ele>94.3</ele>
        <time>2020-10-17T07:59:05Z</time>
      </trkpt>
      <trkpt lat="37.480842000" lon="-5.726519000">
        <ele>94.2</ele>
        <time>2020-10-17T07:59:07Z</time>
      </trkpt>
      <trkpt lat="37.480868000" lon="-5.726672000">
        <ele>94.0</ele>
        <time>2020-10-17T07:59:09Z</time>
      </trkpt>
      <trkpt lat="37.480894000" lon="-5.726823000">
        <ele>93.8</ele>
        <time>2020-10-17T07:59:11Z</time>
      </trkpt>
      <trkpt lat="37.480906000" lon="-5.726976000">
        <ele>93.7</ele>
        <time>2020-10-17T07:59:13Z</time>
      </trkpt>
      <trkpt lat="37.480901000" lon="-5.727125000">
        <ele>93.6</ele>
        <time>2020-10-17T07:59:15Z</time>
      </trkpt>
      <trkpt lat="37.480875000" lon="-5.727278000">
        <ele>93.5</ele>
        <time>2020-10-17T07:59:17Z</time>
      </trkpt>
      <trkpt lat="37.480849000" lon="-5.727433000">
        <ele>93.5</ele>
        <time>2020-10-17T07:59:19Z</time>
      </trkpt>
      <trkpt lat="37.480824000" lon="-5.727588000">
        <ele>93.5</ele>
        <time>2020-10-17T07:59:21Z</time>
      </trkpt>
      <trkpt lat="37.480796000" lon="-5.727740000">
        <ele>93.5</ele>
        <time>2020-10-17T07:59:23Z</time>
      </trkpt>
      <trkpt lat="37.480765000" lon="-5.727896000">
        <ele>93.4</ele>
        <time>2020-10-17T07:59:25Z</time>
      </trkpt>
      <trkpt lat="37.480738000" lon="-5.728050000">
        <ele>93.3</ele>
        <time>2020-10-17T07:59:27Z</time>
      </trkpt>
      <trkpt lat="37.480709000" lon="-5.728208000">
        <ele>93.2</ele>
        <time>2020-10-17T07:59:29Z</time>
      </trkpt>
      <trkpt lat="37.480680000" lon="-5.728370000">
        <ele>93.1</ele>
        <time>2020-10-17T07:59:31Z</time>
      </trkpt>
      <trkpt lat="37.480656000" lon="-5.728532000">
        <ele>93.0</ele>
        <time>2020-10-17T07:59:33Z</time>
      </trkpt>
      <trkpt lat="37.480659000" lon="-5.728697000">
        <ele>92.9</ele>
        <time>2020-10-17T07:59:35Z</time>
      </trkpt>
      <trkpt lat="37.480665000" lon="-5.728868000">
        <ele>92.8</ele>
        <time>2020-10-17T07:59:37Z</time>
      </trkpt>
      <trkpt lat="37.480664000" lon="-5.729030000">
        <ele>92.7</ele>
        <time>2020-10-17T07:59:39Z</time>
      </trkpt>
      <trkpt lat="37.480662000" lon="-5.729194000">
        <ele>92.5</ele>
        <time>2020-10-17T07:59:41Z</time>
      </trkpt>
      <trkpt lat="37.480649000" lon="-5.729350000">
        <ele>92.3</ele>
        <time>2020-10-17T07:59:43Z</time>
      </trkpt>
      <trkpt lat="37.480628000" lon="-5.729504000">
        <ele>92.0</ele>
        <time>2020-10-17T07:59:45Z</time>
      </trkpt>
      <trkpt lat="37.480612000" lon="-5.729662000">
        <ele>91.7</ele>
        <time>2020-10-17T07:59:47Z</time>
      </trkpt>
      <trkpt lat="37.480610000" lon="-5.729811000">
        <ele>91.5</ele>
        <time>2020-10-17T07:59:49Z</time>
      </trkpt>
      <trkpt lat="37.480625000" lon="-5.729960000">
        <ele>91.4</ele>
        <time>2020-10-17T07:59:51Z</time>
      </trkpt>
      <trkpt lat="37.480647000" lon="-5.730099000">
        <ele>91.3</ele>
        <time>2020-10-17T07:59:53Z</time>
      </trkpt>
      <trkpt lat="37.480667000" lon="-5.730234000">
        <ele>91.2</ele>
        <time>2020-10-17T07:59:55Z</time>
      </trkpt>
      <trkpt lat="37.480682000" lon="-5.730370000">
        <ele>91.0</ele>
        <time>2020-10-17T07:59:57Z</time>
      </trkpt>
      <trkpt lat="37.480701000" lon="-5.730496000">
        <ele>90.8</ele>
        <time>2020-10-17T07:59:59Z</time>
      </trkpt>
      <trkpt lat="37.480718000" lon="-5.730619000">
        <ele>90.5</ele>
        <time>2020-10-17T08:00:01Z</time>
      </trkpt>
      <trkpt lat="37.480735000" lon="-5.730735000">
        <ele>90.4</ele>
        <time>2020-10-17T08:00:03Z</time>
      </trkpt>
      <trkpt lat="37.480757000" lon="-5.730889000">
        <ele>90.1</ele>
        <time>2020-10-17T08:00:06Z</time>
      </trkpt>
      <trkpt lat="37.480768000" lon="-5.730996000">
        <ele>89.7</ele>
        <time>2020-10-17T08:00:08Z</time>
      </trkpt>
      <trkpt lat="37.480775000" lon="-5.731120000">
        <ele>89.4</ele>
        <time>2020-10-17T08:00:10Z</time>
      </trkpt>
      <trkpt lat="37.480776000" lon="-5.731256000">
        <ele>88.9</ele>
        <time>2020-10-17T08:00:12Z</time>
      </trkpt>
      <trkpt lat="37.480774000" lon="-5.731396000">
        <ele>88.5</ele>
        <time>2020-10-17T08:00:14Z</time>
      </trkpt>
      <trkpt lat="37.480779000" lon="-5.731546000">
        <ele>88.0</ele>
        <time>2020-10-17T08:00:16Z</time>
      </trkpt>
      <trkpt lat="37.480784000" lon="-5.731691000">
        <ele>87.6</ele>
        <time>2020-10-17T08:00:18Z</time>
      </trkpt>
      <trkpt lat="37.480793000" lon="-5.731832000">
        <ele>87.4</ele>
        <time>2020-10-17T08:00:20Z</time>
      </trkpt>
      <trkpt lat="37.480805000" lon="-5.731967000">
        <ele>87.1</ele>
        <time>2020-10-17T08:00:22Z</time>
      </trkpt>
      <trkpt lat="37.480827000" lon="-5.732101000">
        <ele>86.9</ele>
        <time>2020-10-17T08:00:24Z</time>
      </trkpt>
      <trkpt lat="37.480853000" lon="-5.732224000">
        <ele>86.7</ele>
        <time>2020-10-17T08:00:26Z</time>
      </trkpt>
      <trkpt lat="37.480883000" lon="-5.732339000">
        <ele>86.7</ele>
        <time>2020-10-17T08:00:28Z</time>
      </trkpt>
      <trkpt lat="37.480916000" lon="-5.732455000">
        <ele>86.8</ele>
        <time>2020-10-17T08:00:30Z</time>
      </trkpt>
      <trkpt lat="37.480959000" lon="-5.732567000">
        <ele>87.0</ele>
        <time>2020-10-17T08:00:32Z</time>
      </trkpt>
      <trkpt lat="37.481003000" lon="-5.732679000">
        <ele>87.2</ele>
        <time>2020-10-17T08:00:34Z</time>
      </trkpt>
      <trkpt lat="37.481045000" lon="-5.732789000">
        <ele>87.4</ele>
        <time>2020-10-17T08:00:36Z</time>
      </trkpt>
      <trkpt lat="37.481079000" lon="-5.732909000">
        <ele>87.5</ele>
        <time>2020-10-17T08:00:38Z</time>
      </trkpt>
      <trkpt lat="37.481108000" lon="-5.733031000">
        <ele>87.6</ele>
        <time>2020-10-17T08:00:40Z</time>
      </trkpt>
      <trkpt lat="37.481135000" lon="-5.733158000">
        <ele>87.7</ele>
        <time>2020-10-17T08:00:42Z</time>
      </trkpt>
      <trkpt lat="37.481154000" lon="-5.733287000">
        <ele>87.9</ele>
        <time>2020-10-17T08:00:44Z</time>
      </trkpt>
      <trkpt lat="37.481178000" lon="-5.733405000">
        <ele>88.1</ele>
        <time>2020-10-17T08:00:46Z</time>
      </trkpt>
      <trkpt lat="37.481211000" lon="-5.733523000">
        <ele>88.3</ele>
        <time>2020-10-17T08:00:48Z</time>
      </trkpt>
      <trkpt lat="37.481255000" lon="-5.733623000">
        <ele>88.4</ele>
        <time>2020-10-17T08:00:50Z</time>
      </trkpt>
      <trkpt lat="37.481301000" lon="-5.733726000">
        <ele>88.5</ele>
        <time>2020-10-17T08:00:52Z</time>
      </trkpt>
      <trkpt lat="37.481347000" lon="-5.733834000">
        <ele>88.5</ele>
        <time>2020-10-17T08:00:54Z</time>
      </trkpt>
      <trkpt lat="37.481392000" lon="-5.733946000">
        <ele>88.5</ele>
        <time>2020-10-17T08:00:56Z</time>
      </trkpt>
      <trkpt lat="37.481433000" lon="-5.734057000">
        <ele>88.5</ele>
        <time>2020-10-17T08:00:58Z</time>
      </trkpt>
      <trkpt lat="37.481461000" lon="-5.734162000">
        <ele>88.5</ele>
        <time>2020-10-17T08:01:00Z</time>
      </trkpt>
      <trkpt lat="37.481491000" lon="-5.734262000">
        <ele>88.5</ele>
        <time>2020-10-17T08:01:02Z</time>
      </trkpt>
      <trkpt lat="37.481529000" lon="-5.734405000">
        <ele>88.5</ele>
        <time>2020-10-17T08:01:05Z</time>
      </trkpt>
      <trkpt lat="37.481548000" lon="-5.734514000">
        <ele>88.5</ele>
        <time>2020-10-17T08:01:07Z</time>
      </trkpt>
      <trkpt lat="37.481569000" lon="-5.734624000">
        <ele>88.4</ele>
        <time>2020-10-17T08:01:09Z</time>
      </trkpt>
      <trkpt lat="37.481572000" lon="-5.734738000">
        <ele>88.3</ele>
        <time>2020-10-17T08:01:11Z</time>
      </trkpt>
      <trkpt lat="37.481558000" lon="-5.734855000">
        <ele>88.3</ele>
        <time>2020-10-17T08:01:13Z</time>
      </trkpt>
      <trkpt lat="37.481543000" lon="-5.734960000">
        <ele>88.3</ele>
        <time>2020-10-17T08:01:15Z</time>
      </trkpt>
      <trkpt lat="37.481533000" lon="-5.735069000">
        <ele>88.4</ele>
        <time>2020-10-17T08:01:17Z</time>
      </trkpt>
      <trkpt lat="37.481526000" lon="-5.735183000">
        <ele>88.4</ele>
        <time>2020-10-17T08:01:19Z</time>
      </trkpt>
      <trkpt lat="37.481513000" lon="-5.735293000">
        <ele>88.4</ele>
        <time>2020-10-17T08:01:21Z</time>
      </trkpt>
      <trkpt lat="37.481496000" lon="-5.735412000">
        <ele>88.3</ele>
        <time>2020-10-17T08:01:23Z</time>
      </trkpt>
      <trkpt lat="37.481479000" lon="-5.735531000">
        <ele>88.2</ele>
        <time>2020-10-17T08:01:25Z</time>
      </trkpt>
      <trkpt lat="37.481460000" lon="-5.735655000">
        <ele>88.0</ele>
        <time>2020-10-17T08:01:27Z</time>
      </trkpt>
      <trkpt lat="37.481444000" lon="-5.735779000">
        <ele>87.7</ele>
        <time>2020-10-17T08:01:29Z</time>
      </trkpt>
      <trkpt lat="37.481431000" lon="-5.735916000">
        <ele>87.6</ele>
        <time>2020-10-17T08:01:31Z</time>
      </trkpt>
      <trkpt lat="37.481407000" lon="-5.736043000">
        <ele>87.5</ele>
        <time>2020-10-17T08:01:33Z</time>
      </trkpt>
      <trkpt lat="37.481387000" lon="-5.736175000">
        <ele>87.4</ele>
        <time>2020-10-17T08:01:35Z</time>
      </trkpt>
      <trkpt lat="37.481367000" lon="-5.736305000">
        <ele>87.1</ele>
        <time>2020-10-17T08:01:37Z</time>
      </trkpt>
      <trkpt lat="37.481344000" lon="-5.736442000">
        <ele>86.8</ele>
        <time>2020-10-17T08:01:39Z</time>
      </trkpt>
      <trkpt lat="37.481323000" lon="-5.736579000">
        <ele>86.5</ele>
        <time>2020-10-17T08:01:41Z</time>
      </trkpt>
      <trkpt lat="37.481305000" lon="-5.736711000">
        <ele>86.3</ele>
        <time>2020-10-17T08:01:43Z</time>
      </trkpt>
      <trkpt lat="37.481285000" lon="-5.736845000">
        <ele>86.1</ele>
        <time>2020-10-17T08:01:45Z</time>
      </trkpt>
      <trkpt lat="37.481265000" lon="-5.736969000">
        <ele>85.9</ele>
        <time>2020-10-17T08:01:47Z</time>
      </trkpt>
      <trkpt lat="37.481242000" lon="-5.737083000">
        <ele>85.8</ele>
        <time>2020-10-17T08:01:49Z</time>
      </trkpt>
      <trkpt lat="37.481208000" lon="-5.737196000">
        <ele>85.7</ele>
        <time>2020-10-17T08:01:51Z</time>
      </trkpt>
      <trkpt lat="37.481154000" lon="-5.737301000">
        <ele>85.5</ele>
        <time>2020-10-17T08:01:53Z</time>
      </trkpt>
      <trkpt lat="37.481098000" lon="-5.737403000">
        <ele>85.4</ele>
        <time>2020-10-17T08:01:55Z</time>
      </trkpt>
      <trkpt lat="37.481050000" lon="-5.737512000">
        <ele>85.2</ele>
        <time>2020-10-17T08:01:57Z</time>
      </trkpt>
      <trkpt lat="37.481011000" lon="-5.737628000">
        <ele>85.1</ele>
        <time>2020-10-17T08:01:59Z</time>
      </trkpt>
      <trkpt lat="37.480986000" lon="-5.737744000">
        <ele>85.0</ele>
        <time>2020-10-17T08:02:01Z</time>
      </trkpt>
      <trkpt lat="37.480965000" lon="-5.737843000">
        <ele>85.0</ele>
        <time>2020-10-17T08:02:03Z</time>
      </trkpt>
      <trkpt lat="37.480960000" lon="-5.737956000">
        <ele>85.1</ele>
        <time>2020-10-17T08:02:05Z</time>
      </trkpt>
      <trkpt lat="37.480936000" lon="-5.738102000">
        <ele>85.2</ele>
        <time>2020-10-17T08:02:08Z</time>
      </trkpt>
      <trkpt lat="37.480913000" lon="-5.738203000">
        <ele>85.3</ele>
        <time>2020-10-17T08:02:10Z</time>
      </trkpt>
      <trkpt lat="37.480898000" lon="-5.738304000">
        <ele>85.3</ele>
        <time>2020-10-17T08:02:12Z</time>
      </trkpt>
      <trkpt lat="37.480890000" lon="-5.738409000">
        <ele>85.3</ele>
        <time>2020-10-17T08:02:14Z</time>
      </trkpt>
      <trkpt lat="37.480883000" lon="-5.738520000">
        <ele>85.3</ele>
        <time>2020-10-17T08:02:16Z</time>
      </trkpt>
      <trkpt lat="37.480878000" lon="-5.738638000">
        <ele>85.3</ele>
        <time>2020-10-17T08:02:18Z</time>
      </trkpt>
      <trkpt lat="37.480860000" lon="-5.738750000">
        <ele>85.3</ele>
        <time>2020-10-17T08:02:20Z</time>
      </trkpt>
      <trkpt lat="37.480837000" lon="-5.738867000">
        <ele>85.4</ele>
        <time>2020-10-17T08:02:22Z</time>
      </trkpt>
      <trkpt lat="37.480820000" lon="-5.738988000">
        <ele>85.5</ele>
        <time>2020-10-17T08:02:24Z</time>
      </trkpt>
      <trkpt lat="37.480794000" lon="-5.739107000">
        <ele>85.5</ele>
        <time>2020-10-17T08:02:26Z</time>
      </trkpt>
      <trkpt lat="37.480767000" lon="-5.739227000">
        <ele>85.6</ele>
        <time>2020-10-17T08:02:28Z</time>
      </trkpt>
      <trkpt lat="37.480743000" lon="-5.739338000">
        <ele>85.6</ele>
        <time>2020-10-17T08:02:30Z</time>
      </trkpt>
      <trkpt lat="37.480721000" lon="-5.739443000">
        <ele>85.6</ele>
        <time>2020-10-17T08:02:32Z</time>
      </trkpt>
      <trkpt lat="37.480715000" lon="-5.739552000">
        <ele>85.7</ele>
        <time>2020-10-17T08:02:34Z</time>
      </trkpt>
      <trkpt lat="37.480754000" lon="-5.739656000">
        <ele>85.8</ele>
        <time>2020-10-17T08:02:36Z</time>
      </trkpt>
      <trkpt lat="37.480810000" lon="-5.739739000">
        <ele>85.9</ele>
        <time>2020-10-17T08:02:38Z</time>
      </trkpt>
      <trkpt lat="37.480868000" lon="-5.739874000">
        <ele>85.9</ele>
        <time>2020-10-17T08:02:41Z</time>
      </trkpt>
      <trkpt lat="37.480857000" lon="-5.739991000">
        <ele>85.9</ele>
        <time>2020-10-17T08:02:43Z</time>
      </trkpt>
      <trkpt lat="37.480805000" lon="-5.740085000">
        <ele>85.8</ele>
        <time>2020-10-17T08:02:45Z</time>
      </trkpt>
      <trkpt lat="37.480757000" lon="-5.740181000">
        <ele>85.7</ele>
        <time>2020-10-17T08:02:47Z</time>
      </trkpt>
      <trkpt lat="37.480739000" lon="-5.740289000">
        <ele>85.6</ele>
        <time>2020-10-17T08:02:49Z</time>
      </trkpt>
      <trkpt lat="37.480721000" lon="-5.740392000">
        <ele>85.4</ele>
        <time>2020-10-17T08:02:51Z</time>
      </trkpt>
      <trkpt lat="37.480725000" lon="-5.740502000">
        <ele>85.2</ele>
        <time>2020-10-17T08:02:53Z</time>
      </trkpt>
      <trkpt lat="37.480730000" lon="-5.740614000">
        <ele>84.9</ele>
        <time>2020-10-17T08:02:55Z</time>
      </trkpt>
      <trkpt lat="37.480719000" lon="-5.740723000">
        <ele>84.7</ele>
        <time>2020-10-17T08:02:57Z</time>
      </trkpt>
      <trkpt lat="37.480701000" lon="-5.740833000">
        <ele>84.5</ele>
        <time>2020-10-17T08:02:59Z</time>
      </trkpt>
      <trkpt lat="37.480678000" lon="-5.740942000">
        <ele>84.4</ele>
        <time>2020-10-17T08:03:01Z</time>
      </trkpt>
      <trkpt lat="37.480653000" lon="-5.741051000">
        <ele>84.2</ele>
        <time>2020-10-17T08:03:03Z</time>
      </trkpt>
      <trkpt lat="37.480634000" lon="-5.741162000">
        <ele>84.0</ele>
        <time>2020-10-17T08:03:05Z</time>
      </trkpt>
      <trkpt lat="37.480612000" lon="-5.741272000">
        <ele>83.9</ele>
        <time>2020-10-17T08:03:07Z</time>
      </trkpt>
      <trkpt lat="37.480588000" lon="-5.741383000">
        <ele>83.8</ele>
        <time>2020-10-17T08:03:09Z</time>
      </trkpt>
      <trkpt lat="37.480565000" lon="-5.741501000">
        <ele>83.8</ele>
        <time>2020-10-17T08:03:11Z</time>
      </trkpt>
      <trkpt lat="37.480539000" lon="-5.741623000">
        <ele>83.9</ele>
        <time>2020-10-17T08:03:13Z</time>
      </trkpt>
      <trkpt lat="37.480497000" lon="-5.741751000">
        <ele>84.0</ele>
        <time>2020-10-17T08:03:15Z</time>
      </trkpt>
      <trkpt lat="37.480449000" lon="-5.741877000">
        <ele>84.2</ele>
        <time>2020-10-17T08:03:17Z</time>
      </trkpt>
      <trkpt lat="37.480391000" lon="-5.741995000">
        <ele>84.3</ele>
        <time>2020-10-17T08:03:19Z</time>
      </trkpt>
      <trkpt lat="37.480343000" lon="-5.742110000">
        <ele>84.4</ele>
        <time>2020-10-17T08:03:21Z</time>
      </trkpt>
      <trkpt lat="37.480299000" lon="-5.742218000">
        <ele>84.4</ele>
        <time>2020-10-17T08:03:23Z</time>
      </trkpt>
      <trkpt lat="37.480266000" lon="-5.742329000">
        <ele>84.5</ele>
        <time>2020-10-17T08:03:25Z</time>
      </trkpt>
      <trkpt lat="37.480235000" lon="-5.742442000">
        <ele>84.6</ele>
        <time>2020-10-17T08:03:27Z</time>
      </trkpt>
      <trkpt lat="37.480209000" lon="-5.742557000">
        <ele>84.7</ele>
        <time>2020-10-17T08:03:29Z</time>
      </trkpt>
      <trkpt lat="37.480188000" lon="-5.742675000">
        <ele>84.8</ele>
        <time>2020-10-17T08:03:31Z</time>
      </trkpt>
      <trkpt lat="37.480173000" lon="-5.742790000">
        <ele>84.9</ele>
        <time>2020-10-17T08:03:33Z</time>
      </trkpt>
      <trkpt lat="37.480162000" lon="-5.742907000">
        <ele>85.0</ele>
        <time>2020-10-17T08:03:35Z</time>
      </trkpt>
      <trkpt lat="37.480157000" lon="-5.743022000">
        <ele>85.2</ele>
        <time>2020-10-17T08:03:37Z</time>
      </trkpt>
      <trkpt lat="37.480151000" lon="-5.743139000">
        <ele>85.5</ele>
        <time>2020-10-17T08:03:39Z</time>
      </trkpt>
      <trkpt lat="37.480149000" lon="-5.743256000">
        <ele>85.7</ele>
        <time>2020-10-17T08:03:41Z</time>
      </trkpt>
      <trkpt lat="37.480150000" lon="-5.743386000">
        <ele>85.9</ele>
        <time>2020-10-17T08:03:43Z</time>
      </trkpt>
      <trkpt lat="37.480143000" lon="-5.743512000">
        <ele>86.2</ele>
        <time>2020-10-17T08:03:45Z</time>
      </trkpt>
      <trkpt lat="37.480128000" lon="-5.743645000">
        <ele>86.5</ele>
        <time>2020-10-17T08:03:47Z</time>
      </trkpt>
      <trkpt lat="37.480102000" lon="-5.743765000">
        <ele>86.6</ele>
        <time>2020-10-17T08:03:49Z</time>
      </trkpt>
      <trkpt lat="37.480079000" lon="-5.743873000">
        <ele>86.8</ele>
        <time>2020-10-17T08:03:51Z</time>
      </trkpt>
      <trkpt lat="37.480047000" lon="-5.743981000">
        <ele>87.0</ele>
        <time>2020-10-17T08:03:53Z</time>
      </trkpt>
      <trkpt lat="37.480020000" lon="-5.744088000">
        <ele>87.1</ele>
        <time>2020-10-17T08:03:55Z</time>
      </trkpt>
      <trkpt lat="37.479999000" lon="-5.744198000">
        <ele>87.2</ele>
        <time>2020-10-17T08:03:57Z</time>
      </trkpt>
      <trkpt lat="37.479986000" lon="-5.744303000">
        <ele>87.2</ele>
        <time>2020-10-17T08:03:59Z</time>
      </trkpt>
      <trkpt lat="37.479977000" lon="-5.744410000">
        <ele>87.0</ele>
        <time>2020-10-17T08:04:01Z</time>
      </trkpt>
      <trkpt lat="37.479976000" lon="-5.744518000">
        <ele>86.8</ele>
        <time>2020-10-17T08:04:03Z</time>
      </trkpt>
      <trkpt lat="37.479979000" lon="-5.744626000">
        <ele>86.8</ele>
        <time>2020-10-17T08:04:05Z</time>
      </trkpt>
      <trkpt lat="37.479990000" lon="-5.744731000">
        <ele>86.8</ele>
        <time>2020-10-17T08:04:07Z</time>
      </trkpt>
      <trkpt lat="37.480004000" lon="-5.744836000">
        <ele>86.8</ele>
        <time>2020-10-17T08:04:09Z</time>
      </trkpt>
      <trkpt lat="37.480023000" lon="-5.744936000">
        <ele>86.8</ele>
        <time>2020-10-17T08:04:11Z</time>
      </trkpt>
      <trkpt lat="37.480064000" lon="-5.745074000">
        <ele>86.8</ele>
        <time>2020-10-17T08:04:14Z</time>
      </trkpt>
      <trkpt lat="37.480092000" lon="-5.745215000">
        <ele>86.7</ele>
        <time>2020-10-17T08:04:17Z</time>
      </trkpt>
      <trkpt lat="37.480106000" lon="-5.745317000">
        <ele>86.6</ele>
        <time>2020-10-17T08:04:19Z</time>
      </trkpt>
      <trkpt lat="37.480112000" lon="-5.745427000">
        <ele>86.5</ele>
        <time>2020-10-17T08:04:21Z</time>
      </trkpt>
      <trkpt lat="37.480106000" lon="-5.745540000">
        <ele>86.3</ele>
        <time>2020-10-17T08:04:23Z</time>
      </trkpt>
      <trkpt lat="37.480095000" lon="-5.745656000">
        <ele>86.1</ele>
        <time>2020-10-17T08:04:25Z</time>
      </trkpt>
      <trkpt lat="37.480077000" lon="-5.745773000">
        <ele>85.9</ele>
        <time>2020-10-17T08:04:27Z</time>
      </trkpt>
      <trkpt lat="37.480049000" lon="-5.745879000">
        <ele>85.5</ele>
        <time>2020-10-17T08:04:29Z</time>
      </trkpt>
      <trkpt lat="37.480023000" lon="-5.745996000">
        <ele>85.2</ele>
        <time>2020-10-17T08:04:31Z</time>
      </trkpt>
      <trkpt lat="37.479995000" lon="-5.746115000">
        <ele>84.8</ele>
        <time>2020-10-17T08:04:33Z</time>
      </trkpt>
      <trkpt lat="37.479983000" lon="-5.746245000">
        <ele>84.5</ele>
        <time>2020-10-17T08:04:35Z</time>
      </trkpt>
      <trkpt lat="37.479991000" lon="-5.746386000">
        <ele>84.1</ele>
        <time>2020-10-17T08:04:37Z</time>
      </trkpt>
      <trkpt lat="37.480014000" lon="-5.746533000">
        <ele>83.9</ele>
        <time>2020-10-17T08:04:39Z</time>
      </trkpt>
      <trkpt lat="37.480045000" lon="-5.746679000">
        <ele>83.8</ele>
        <time>2020-10-17T08:04:41Z</time>
      </trkpt>
      <trkpt lat="37.480078000" lon="-5.746817000">
        <ele>83.8</ele>
        <time>2020-10-17T08:04:43Z</time>
      </trkpt>
      <trkpt lat="37.480106000" lon="-5.746924000">
        <ele>83.9</ele>
        <time>2020-10-17T08:04:45Z</time>
      </trkpt>
      <trkpt lat="37.480135000" lon="-5.747024000">
        <ele>84.1</ele>
        <time>2020-10-17T08:04:47Z</time>
      </trkpt>
      <trkpt lat="37.480169000" lon="-5.747125000">
        <ele>84.3</ele>
        <time>2020-10-17T08:04:49Z</time>
      </trkpt>
      <trkpt lat="37.480204000" lon="-5.747225000">
        <ele>84.6</ele>
        <time>2020-10-17T08:04:51Z</time>
      </trkpt>
      <trkpt lat="37.480245000" lon="-5.747317000">
        <ele>85.0</ele>
        <time>2020-10-17T08:04:53Z</time>
      </trkpt>
      <trkpt lat="37.480309000" lon="-5.747444000">
        <ele>85.4</ele>
        <time>2020-10-17T08:04:56Z</time>
      </trkpt>
      <trkpt lat="37.480383000" lon="-5.747557000">
        <ele>85.7</ele>
        <time>2020-10-17T08:04:59Z</time>
      </trkpt>
      <trkpt lat="37.480458000" lon="-5.747666000">
        <ele>86.1</ele>
        <time>2020-10-17T08:05:02Z</time>
      </trkpt>
      <trkpt lat="37.480538000" lon="-5.747767000">
        <ele>86.4</ele>
        <time>2020-10-17T08:05:05Z</time>
      </trkpt>
      <trkpt lat="37.480602000" lon="-5.747888000">
        <ele>86.5</ele>
        <time>2020-10-17T08:05:08Z</time>
      </trkpt>
      <trkpt lat="37.480641000" lon="-5.747978000">
        <ele>86.5</ele>
        <time>2020-10-17T08:05:10Z</time>
      </trkpt>
      <trkpt lat="37.480673000" lon="-5.748077000">
        <ele>86.5</ele>
        <time>2020-10-17T08:05:12Z</time>
      </trkpt>
      <trkpt lat="37.480694000" lon="-5.748184000">
        <ele>86.4</ele>
        <time>2020-10-17T08:05:14Z</time>
      </trkpt>
      <trkpt lat="37.480698000" lon="-5.748303000">
        <ele>86.3</ele>
        <time>2020-10-17T08:05:16Z</time>
      </trkpt>
      <trkpt lat="37.480701000" lon="-5.748416000">
        <ele>86.1</ele>
        <time>2020-10-17T08:05:18Z</time>
      </trkpt>
      <trkpt lat="37.480702000" lon="-5.748537000">
        <ele>85.9</ele>
        <time>2020-10-17T08:05:20Z</time>
      </trkpt>
      <trkpt lat="37.480700000" lon="-5.748651000">
        <ele>85.7</ele>
        <time>2020-10-17T08:05:22Z</time>
      </trkpt>
      <trkpt lat="37.480695000" lon="-5.748764000">
        <ele>85.5</ele>
        <time>2020-10-17T08:05:24Z</time>
      </trkpt>
      <trkpt lat="37.480686000" lon="-5.748877000">
        <ele>85.4</ele>
        <time>2020-10-17T08:05:26Z</time>
      </trkpt>
      <trkpt lat="37.480679000" lon="-5.748999000">
        <ele>85.2</ele>
        <time>2020-10-17T08:05:28Z</time>
      </trkpt>
      <trkpt lat="37.480662000" lon="-5.749114000">
        <ele>85.1</ele>
        <time>2020-10-17T08:05:30Z</time>
      </trkpt>
      <trkpt lat="37.480638000" lon="-5.749229000">
        <ele>84.9</ele>
        <time>2020-10-17T08:05:32Z</time>
      </trkpt>
      <trkpt lat="37.480613000" lon="-5.749340000">
        <ele>84.8</ele>
        <time>2020-10-17T08:05:34Z</time>
      </trkpt>
      <trkpt lat="37.480579000" lon="-5.749452000">
        <ele>84.7</ele>
        <time>2020-10-17T08:05:36Z</time>
      </trkpt>
      <trkpt lat="37.480532000" lon="-5.749552000">
        <ele>84.6</ele>
        <time>2020-10-17T08:05:38Z</time>
      </trkpt>
      <trkpt lat="37.480480000" lon="-5.749649000">
        <ele>84.5</ele>
        <time>2020-10-17T08:05:40Z</time>
      </trkpt>
      <trkpt lat="37.480417000" lon="-5.749733000">
        <ele>84.3</ele>
        <time>2020-10-17T08:05:42Z</time>
      </trkpt>
      <trkpt lat="37.480346000" lon="-5.749806000">
        <ele>84.2</ele>
        <time>2020-10-17T08:05:44Z</time>
      </trkpt>
      <trkpt lat="37.480271000" lon="-5.749872000">
        <ele>84.1</ele>
        <time>2020-10-17T08:05:46Z</time>
      </trkpt>
      <trkpt lat="37.480198000" lon="-5.749937000">
        <ele>84.0</ele>
        <time>2020-10-17T08:05:48Z</time>
      </trkpt>
      <trkpt lat="37.480130000" lon="-5.750004000">
        <ele>83.9</ele>
        <time>2020-10-17T08:05:50Z</time>
      </trkpt>
      <trkpt lat="37.480064000" lon="-5.750089000">
        <ele>83.8</ele>
        <time>2020-10-17T08:05:52Z</time>
      </trkpt>
      <trkpt lat="37.479995000" lon="-5.750177000">
        <ele>83.8</ele>
        <time>2020-10-17T08:05:54Z</time>
      </trkpt>
      <trkpt lat="37.479917000" lon="-5.750255000">
        <ele>83.8</ele>
        <time>2020-10-17T08:05:56Z</time>
      </trkpt>
      <trkpt lat="37.479840000" lon="-5.750344000">
        <ele>83.7</ele>
        <time>2020-10-17T08:05:58Z</time>
      </trkpt>
      <trkpt lat="37.479763000" lon="-5.750436000">
        <ele>83.5</ele>
        <time>2020-10-17T08:06:00Z</time>
      </trkpt>
      <trkpt lat="37.479689000" lon="-5.750547000">
        <ele>83.5</ele>
        <time>2020-10-17T08:06:02Z</time>
      </trkpt>
      <trkpt lat="37.479637000" lon="-5.750674000">
        <ele>83.4</ele>
        <time>2020-10-17T08:06:04Z</time>
      </trkpt>
      <trkpt lat="37.479597000" lon="-5.750804000">
        <ele>83.2</ele>
        <time>2020-10-17T08:06:06Z</time>
      </trkpt>
      <trkpt lat="37.479584000" lon="-5.750943000">
        <ele>83.0</ele>
        <time>2020-10-17T08:06:08Z</time>
      </trkpt>
      <trkpt lat="37.479593000" lon="-5.751082000">
        <ele>82.8</ele>
        <time>2020-10-17T08:06:10Z</time>
      </trkpt>
      <trkpt lat="37.479625000" lon="-5.751215000">
        <ele>82.6</ele>
        <time>2020-10-17T08:06:12Z</time>
      </trkpt>
      <trkpt lat="37.479669000" lon="-5.751341000">
        <ele>82.5</ele>
        <time>2020-10-17T08:06:14Z</time>
      </trkpt>
      <trkpt lat="37.479716000" lon="-5.751469000">
        <ele>82.3</ele>
        <time>2020-10-17T08:06:16Z</time>
      </trkpt>
      <trkpt lat="37.479759000" lon="-5.751592000">
        <ele>82.1</ele>
        <time>2020-10-17T08:06:18Z</time>
      </trkpt>
      <trkpt lat="37.479800000" lon="-5.751718000">
        <ele>81.9</ele>
        <time>2020-10-17T08:06:20Z</time>
      </trkpt>
      <trkpt lat="37.479840000" lon="-5.751848000">
        <ele>81.8</ele>
        <time>2020-10-17T08:06:22Z</time>
      </trkpt>
      <trkpt lat="37.479874000" lon="-5.751978000">
        <ele>81.7</ele>
        <time>2020-10-17T08:06:24Z</time>
      </trkpt>
      <trkpt lat="37.479907000" lon="-5.752116000">
        <ele>81.6</ele>
        <time>2020-10-17T08:06:26Z</time>
      </trkpt>
      <trkpt lat="37.479940000" lon="-5.752252000">
        <ele>81.5</ele>
        <time>2020-10-17T08:06:28Z</time>
      </trkpt>
      <trkpt lat="37.479970000" lon="-5.752387000">
        <ele>81.3</ele>
        <time>2020-10-17T08:06:30Z</time>
      </trkpt>
      <trkpt lat="37.480005000" lon="-5.752522000">
        <ele>81.0</ele>
        <time>2020-10-17T08:06:32Z</time>
      </trkpt>
      <trkpt lat="37.480033000" lon="-5.752663000">
        <ele>80.7</ele>
        <time>2020-10-17T08:06:34Z</time>
      </trkpt>
      <trkpt lat="37.480066000" lon="-5.752801000">
        <ele>80.4</ele>
        <time>2020-10-17T08:06:36Z</time>
      </trkpt>
      <trkpt lat="37.480094000" lon="-5.752939000">
        <ele>80.0</ele>
        <time>2020-10-17T08:06:38Z</time>
      </trkpt>
      <trkpt lat="37.480119000" lon="-5.753075000">
        <ele>79.5</ele>
        <time>2020-10-17T08:06:40Z</time>
      </trkpt>
      <trkpt lat="37.480137000" lon="-5.753206000">
        <ele>79.2</ele>
        <time>2020-10-17T08:06:42Z</time>
      </trkpt>
      <trkpt lat="37.480149000" lon="-5.753335000">
        <ele>78.8</ele>
        <time>2020-10-17T08:06:44Z</time>
      </trkpt>
      <trkpt lat="37.480167000" lon="-5.753462000">
        <ele>78.5</ele>
        <time>2020-10-17T08:06:46Z</time>
      </trkpt>
      <trkpt lat="37.480192000" lon="-5.753585000">
        <ele>78.1</ele>
        <time>2020-10-17T08:06:48Z</time>
      </trkpt>
      <trkpt lat="37.480219000" lon="-5.753718000">
        <ele>77.8</ele>
        <time>2020-10-17T08:06:50Z</time>
      </trkpt>
      <trkpt lat="37.480264000" lon="-5.753841000">
        <ele>77.5</ele>
        <time>2020-10-17T08:06:52Z</time>
      </trkpt>
      <trkpt lat="37.480319000" lon="-5.753954000">
        <ele>77.4</ele>
        <time>2020-10-17T08:06:54Z</time>
      </trkpt>
      <trkpt lat="37.480384000" lon="-5.754058000">
        <ele>77.2</ele>
        <time>2020-10-17T08:06:56Z</time>
      </trkpt>
      <trkpt lat="37.480469000" lon="-5.754143000">
        <ele>77.1</ele>
        <time>2020-10-17T08:06:58Z</time>
      </trkpt>
      <trkpt lat="37.480546000" lon="-5.754203000">
        <ele>77.0</ele>
        <time>2020-10-17T08:07:00Z</time>
      </trkpt>
      <trkpt lat="37.480626000" lon="-5.754265000">
        <ele>77.0</ele>
        <time>2020-10-17T08:07:02Z</time>
      </trkpt>
      <trkpt lat="37.480702000" lon="-5.754334000">
        <ele>77.0</ele>
        <time>2020-10-17T08:07:04Z</time>
      </trkpt>
      <trkpt lat="37.480765000" lon="-5.754416000">
        <ele>77.0</ele>
        <time>2020-10-17T08:07:06Z</time>
      </trkpt>
      <trkpt lat="37.480813000" lon="-5.754512000">
        <ele>77.0</ele>
        <time>2020-10-17T08:07:08Z</time>
      </trkpt>
      <trkpt lat="37.480849000" lon="-5.754622000">
        <ele>77.1</ele>
        <time>2020-10-17T08:07:10Z</time>
      </trkpt>
      <trkpt lat="37.480885000" lon="-5.754735000">
        <ele>77.2</ele>
        <time>2020-10-17T08:07:12Z</time>
      </trkpt>
      <trkpt lat="37.480913000" lon="-5.754855000">
        <ele>77.3</ele>
        <time>2020-10-17T08:07:14Z</time>
      </trkpt>
      <trkpt lat="37.480928000" lon="-5.754984000">
        <ele>77.3</ele>
        <time>2020-10-17T08:07:16Z</time>
      </trkpt>
      <trkpt lat="37.480942000" lon="-5.755102000">
        <ele>77.3</ele>
        <time>2020-10-17T08:07:18Z</time>
      </trkpt>
      <trkpt lat="37.480961000" lon="-5.755226000">
        <ele>77.3</ele>
        <time>2020-10-17T08:07:20Z</time>
      </trkpt>
      <trkpt lat="37.480976000" lon="-5.755347000">
        <ele>77.2</ele>
        <time>2020-10-17T08:07:22Z</time>
      </trkpt>
      <trkpt lat="37.480997000" lon="-5.755476000">
        <ele>77.1</ele>
        <time>2020-10-17T08:07:24Z</time>
      </trkpt>
      <trkpt lat="37.481010000" lon="-5.755617000">
        <ele>76.9</ele>
        <time>2020-10-17T08:07:26Z</time>
      </trkpt>
      <trkpt lat="37.481026000" lon="-5.755757000">
        <ele>76.6</ele>
        <time>2020-10-17T08:07:28Z</time>
      </trkpt>
      <trkpt lat="37.481049000" lon="-5.755900000">
        <ele>76.4</ele>
        <time>2020-10-17T08:07:30Z</time>
      </trkpt>
      <trkpt lat="37.481082000" lon="-5.756045000">
        <ele>76.0</ele>
        <time>2020-10-17T08:07:32Z</time>
      </trkpt>
      <trkpt lat="37.481116000" lon="-5.756179000">
        <ele>75.6</ele>
        <time>2020-10-17T08:07:34Z</time>
      </trkpt>
      <trkpt lat="37.481148000" lon="-5.756317000">
        <ele>75.4</ele>
        <time>2020-10-17T08:07:36Z</time>
      </trkpt>
      <trkpt lat="37.481177000" lon="-5.756466000">
        <ele>75.2</ele>
        <time>2020-10-17T08:07:38Z</time>
      </trkpt>
      <trkpt lat="37.481210000" lon="-5.756587000">
        <ele>75.0</ele>
        <time>2020-10-17T08:07:40Z</time>
      </trkpt>
      <trkpt lat="37.481232000" lon="-5.756705000">
        <ele>74.8</ele>
        <time>2020-10-17T08:07:42Z</time>
      </trkpt>
      <trkpt lat="37.481256000" lon="-5.756818000">
        <ele>74.8</ele>
        <time>2020-10-17T08:07:44Z</time>
      </trkpt>
      <trkpt lat="37.481283000" lon="-5.756933000">
        <ele>74.8</ele>
        <time>2020-10-17T08:07:46Z</time>
      </trkpt>
      <trkpt lat="37.481313000" lon="-5.757046000">
        <ele>75.0</ele>
        <time>2020-10-17T08:07:48Z</time>
      </trkpt>
      <trkpt lat="37.481349000" lon="-5.757156000">
        <ele>75.3</ele>
        <time>2020-10-17T08:07:50Z</time>
      </trkpt>
      <trkpt lat="37.481391000" lon="-5.757259000">
        <ele>75.6</ele>
        <time>2020-10-17T08:07:52Z</time>
      </trkpt>
      <trkpt lat="37.481428000" lon="-5.757365000">
        <ele>75.9</ele>
        <time>2020-10-17T08:07:54Z</time>
      </trkpt>
      <trkpt lat="37.481469000" lon="-5.757477000">
        <ele>76.2</ele>
        <time>2020-10-17T08:07:56Z</time>
      </trkpt>
      <trkpt lat="37.481514000" lon="-5.757584000">
        <ele>76.4</ele>
        <time>2020-10-17T08:07:58Z</time>
      </trkpt>
      <trkpt lat="37.481561000" lon="-5.757695000">
        <ele>76.5</ele>
        <time>2020-10-17T08:08:00Z</time>
      </trkpt>
      <trkpt lat="37.481605000" lon="-5.757802000">
        <ele>76.5</ele>
        <time>2020-10-17T08:08:02Z</time>
      </trkpt>
      <trkpt lat="37.481644000" lon="-5.757907000">
        <ele>76.6</ele>
        <time>2020-10-17T08:08:04Z</time>
      </trkpt>
      <trkpt lat="37.481680000" lon="-5.758010000">
        <ele>76.6</ele>
        <time>2020-10-17T08:08:06Z</time>
      </trkpt>
      <trkpt lat="37.481721000" lon="-5.758113000">
        <ele>76.6</ele>
        <time>2020-10-17T08:08:08Z</time>
      </trkpt>
      <trkpt lat="37.481761000" lon="-5.758219000">
        <ele>76.5</ele>
        <time>2020-10-17T08:08:10Z</time>
      </trkpt>
      <trkpt lat="37.481797000" lon="-5.758314000">
        <ele>76.5</ele>
        <time>2020-10-17T08:08:12Z</time>
      </trkpt>
      <trkpt lat="37.481829000" lon="-5.758420000">
        <ele>76.3</ele>
        <time>2020-10-17T08:08:14Z</time>
      </trkpt>
      <trkpt lat="37.481860000" lon="-5.758523000">
        <ele>76.2</ele>
        <time>2020-10-17T08:08:16Z</time>
      </trkpt>
      <trkpt lat="37.481893000" lon="-5.758629000">
        <ele>76.1</ele>
        <time>2020-10-17T08:08:18Z</time>
      </trkpt>
      <trkpt lat="37.481918000" lon="-5.758750000">
        <ele>75.9</ele>
        <time>2020-10-17T08:08:20Z</time>
      </trkpt>
      <trkpt lat="37.481943000" lon="-5.758879000">
        <ele>75.8</ele>
        <time>2020-10-17T08:08:22Z</time>
      </trkpt>
      <trkpt lat="37.481964000" lon="-5.759013000">
        <ele>75.6</ele>
        <time>2020-10-17T08:08:24Z</time>
      </trkpt>
      <trkpt lat="37.481981000" lon="-5.759147000">
        <ele>75.5</ele>
        <time>2020-10-17T08:08:26Z</time>
      </trkpt>
      <trkpt lat="37.481990000" lon="-5.759284000">
        <ele>75.3</ele>
        <time>2020-10-17T08:08:28Z</time>
      </trkpt>
      <trkpt lat="37.481996000" lon="-5.759418000">
        <ele>75.1</ele>
        <time>2020-10-17T08:08:30Z</time>
      </trkpt>
      <trkpt lat="37.481997000" lon="-5.759545000">
        <ele>74.8</ele>
        <time>2020-10-17T08:08:32Z</time>
      </trkpt>
      <trkpt lat="37.481982000" lon="-5.759672000">
        <ele>74.5</ele>
        <time>2020-10-17T08:08:34Z</time>
      </trkpt>
      <trkpt lat="37.481941000" lon="-5.759798000">
        <ele>74.3</ele>
        <time>2020-10-17T08:08:36Z</time>
      </trkpt>
      <trkpt lat="37.481902000" lon="-5.759921000">
        <ele>74.1</ele>
        <time>2020-10-17T08:08:38Z</time>
      </trkpt>
      <trkpt lat="37.481854000" lon="-5.760045000">
        <ele>73.9</ele>
        <time>2020-10-17T08:08:40Z</time>
      </trkpt>
      <trkpt lat="37.481804000" lon="-5.760157000">
        <ele>73.8</ele>
        <time>2020-10-17T08:08:42Z</time>
      </trkpt>
      <trkpt lat="37.481746000" lon="-5.760266000">
        <ele>73.7</ele>
        <time>2020-10-17T08:08:44Z</time>
      </trkpt>
      <trkpt lat="37.481683000" lon="-5.760372000">
        <ele>73.7</ele>
        <time>2020-10-17T08:08:46Z</time>
      </trkpt>
      <trkpt lat="37.481627000" lon="-5.760477000">
        <ele>73.7</ele>
        <time>2020-10-17T08:08:48Z</time>
      </trkpt>
      <trkpt lat="37.481577000" lon="-5.760595000">
        <ele>73.7</ele>
        <time>2020-10-17T08:08:50Z</time>
      </trkpt>
      <trkpt lat="37.481548000" lon="-5.760714000">
        <ele>73.7</ele>
        <time>2020-10-17T08:08:52Z</time>
      </trkpt>
      <trkpt lat="37.481534000" lon="-5.760837000">
        <ele>73.8</ele>
        <time>2020-10-17T08:08:54Z</time>
      </trkpt>
      <trkpt lat="37.481530000" lon="-5.760963000">
        <ele>73.9</ele>
        <time>2020-10-17T08:08:56Z</time>
      </trkpt>
      <trkpt lat="37.481532000" lon="-5.761079000">
        <ele>74.1</ele>
        <time>2020-10-17T08:08:58Z</time>
      </trkpt>
      <trkpt lat="37.481548000" lon="-5.761184000">
        <ele>74.2</ele>
        <time>2020-10-17T08:09:00Z</time>
      </trkpt>
      <trkpt lat="37.481562000" lon="-5.761302000">
        <ele>74.4</ele>
        <time>2020-10-17T08:09:02Z</time>
      </trkpt>
      <trkpt lat="37.481571000" lon="-5.761430000">
        <ele>74.5</ele>
        <time>2020-10-17T08:09:04Z</time>
      </trkpt>
      <trkpt lat="37.481582000" lon="-5.761551000">
        <ele>74.7</ele>
        <time>2020-10-17T08:09:06Z</time>
      </trkpt>
      <trkpt lat="37.481593000" lon="-5.761675000">
        <ele>75.0</ele>
        <time>2020-10-17T08:09:08Z</time>
      </trkpt>
      <trkpt lat="37.481606000" lon="-5.761801000">
        <ele>75.3</ele>
        <time>2020-10-17T08:09:10Z</time>
      </trkpt>
      <trkpt lat="37.481619000" lon="-5.761936000">
        <ele>75.5</ele>
        <time>2020-10-17T08:09:12Z</time>
      </trkpt>
      <trkpt lat="37.481633000" lon="-5.762081000">
        <ele>75.6</ele>
        <time>2020-10-17T08:09:14Z</time>
      </trkpt>
      <trkpt lat="37.481645000" lon="-5.762229000">
        <ele>75.7</ele>
        <time>2020-10-17T08:09:16Z</time>
      </trkpt>
      <trkpt lat="37.481656000" lon="-5.762371000">
        <ele>75.8</ele>
        <time>2020-10-17T08:09:18Z</time>
      </trkpt>
      <trkpt lat="37.481662000" lon="-5.762511000">
        <ele>75.8</ele>
        <time>2020-10-17T08:09:20Z</time>
      </trkpt>
      <trkpt lat="37.481664000" lon="-5.762647000">
        <ele>75.7</ele>
        <time>2020-10-17T08:09:22Z</time>
      </trkpt>
      <trkpt lat="37.481657000" lon="-5.762783000">
        <ele>75.5</ele>
        <time>2020-10-17T08:09:24Z</time>
      </trkpt>
      <trkpt lat="37.481648000" lon="-5.762919000">
        <ele>75.4</ele>
        <time>2020-10-17T08:09:26Z</time>
      </trkpt>
      <trkpt lat="37.481635000" lon="-5.763053000">
        <ele>75.2</ele>
        <time>2020-10-17T08:09:28Z</time>
      </trkpt>
      <trkpt lat="37.481617000" lon="-5.763192000">
        <ele>74.8</ele>
        <time>2020-10-17T08:09:30Z</time>
      </trkpt>
      <trkpt lat="37.481601000" lon="-5.763333000">
        <ele>74.5</ele>
        <time>2020-10-17T08:09:32Z</time>
      </trkpt>
      <trkpt lat="37.481590000" lon="-5.763472000">
        <ele>74.4</ele>
        <time>2020-10-17T08:09:34Z</time>
      </trkpt>
      <trkpt lat="37.481577000" lon="-5.763621000">
        <ele>74.2</ele>
        <time>2020-10-17T08:09:36Z</time>
      </trkpt>
      <trkpt lat="37.481568000" lon="-5.763776000">
        <ele>74.1</ele>
        <time>2020-10-17T08:09:38Z</time>
      </trkpt>
      <trkpt lat="37.481555000" lon="-5.763932000">
        <ele>73.9</ele>
        <time>2020-10-17T08:09:40Z</time>
      </trkpt>
      <trkpt lat="37.481545000" lon="-5.764089000">
        <ele>73.8</ele>
        <time>2020-10-17T08:09:42Z</time>
      </trkpt>
      <trkpt lat="37.481533000" lon="-5.764251000">
        <ele>73.8</ele>
        <time>2020-10-17T08:09:44Z</time>
      </trkpt>
      <trkpt lat="37.481520000" lon="-5.764413000">
        <ele>73.8</ele>
        <time>2020-10-17T08:09:46Z</time>
      </trkpt>
      <trkpt lat="37.481505000" lon="-5.764573000">
        <ele>73.8</ele>
        <time>2020-10-17T08:09:48Z</time>
      </trkpt>
      <trkpt lat="37.481495000" lon="-5.764732000">
        <ele>73.8</ele>
        <time>2020-10-17T08:09:50Z</time>
      </trkpt>
      <trkpt lat="37.481483000" lon="-5.764874000">
        <ele>74.0</ele>
        <time>2020-10-17T08:09:52Z</time>
      </trkpt>
      <trkpt lat="37.481481000" lon="-5.765010000">
        <ele>74.1</ele>
        <time>2020-10-17T08:09:54Z</time>
      </trkpt>
      <trkpt lat="37.481482000" lon="-5.765141000">
        <ele>74.2</ele>
        <time>2020-10-17T08:09:56Z</time>
      </trkpt>
      <trkpt lat="37.481486000" lon="-5.765274000">
        <ele>74.3</ele>
        <time>2020-10-17T08:09:58Z</time>
      </trkpt>
      <trkpt lat="37.481483000" lon="-5.765404000">
        <ele>74.3</ele>
        <time>2020-10-17T08:10:00Z</time>
      </trkpt>
      <trkpt lat="37.481486000" lon="-5.765537000">
        <ele>74.4</ele>
        <time>2020-10-17T08:10:02Z</time>
      </trkpt>
      <trkpt lat="37.481489000" lon="-5.765675000">
        <ele>74.3</ele>
        <time>2020-10-17T08:10:04Z</time>
      </trkpt>
      <trkpt lat="37.481485000" lon="-5.765816000">
        <ele>74.2</ele>
        <time>2020-10-17T08:10:06Z</time>
      </trkpt>
      <trkpt lat="37.481486000" lon="-5.765956000">
        <ele>74.0</ele>
        <time>2020-10-17T08:10:08Z</time>
      </trkpt>
      <trkpt lat="37.481488000" lon="-5.766097000">
        <ele>73.9</ele>
        <time>2020-10-17T08:10:10Z</time>
      </trkpt>
      <trkpt lat="37.481487000" lon="-5.766236000">
        <ele>73.8</ele>
        <time>2020-10-17T08:10:12Z</time>
      </trkpt>
      <trkpt lat="37.481490000" lon="-5.766378000">
        <ele>73.6</ele>
        <time>2020-10-17T08:10:14Z</time>
      </trkpt>
      <trkpt lat="37.481501000" lon="-5.766518000">
        <ele>73.4</ele>
        <time>2020-10-17T08:10:16Z</time>
      </trkpt>
      <trkpt lat="37.481515000" lon="-5.766660000">
        <ele>73.1</ele>
        <time>2020-10-17T08:10:18Z</time>
      </trkpt>
      <trkpt lat="37.481530000" lon="-5.766801000">
        <ele>72.8</ele>
        <time>2020-10-17T08:10:20Z</time>
      </trkpt>
      <trkpt lat="37.481545000" lon="-5.766946000">
        <ele>72.6</ele>
        <time>2020-10-17T08:10:22Z</time>
      </trkpt>
      <trkpt lat="37.481542000" lon="-5.767097000">
        <ele>72.5</ele>
        <time>2020-10-17T08:10:24Z</time>
      </trkpt>
      <trkpt lat="37.481526000" lon="-5.767236000">
        <ele>72.4</ele>
        <time>2020-10-17T08:10:26Z</time>
      </trkpt>
      <trkpt lat="37.481488000" lon="-5.767355000">
        <ele>72.3</ele>
        <time>2020-10-17T08:10:28Z</time>
      </trkpt>
      <trkpt lat="37.481447000" lon="-5.767469000">
        <ele>72.2</ele>
        <time>2020-10-17T08:10:30Z</time>
      </trkpt>
      <trkpt lat="37.481396000" lon="-5.767581000">
        <ele>72.0</ele>
        <time>2020-10-17T08:10:32Z</time>
      </trkpt>
      <trkpt lat="37.481352000" lon="-5.767704000">
        <ele>71.8</ele>
        <time>2020-10-17T08:10:34Z</time>
      </trkpt>
      <trkpt lat="37.481302000" lon="-5.767813000">
        <ele>71.6</ele>
        <time>2020-10-17T08:10:36Z</time>
      </trkpt>
      <trkpt lat="37.481256000" lon="-5.767915000">
        <ele>71.5</ele>
        <time>2020-10-17T08:10:38Z</time>
      </trkpt>
      <trkpt lat="37.481208000" lon="-5.768016000">
        <ele>71.5</ele>
        <time>2020-10-17T08:10:40Z</time>
      </trkpt>
      <trkpt lat="37.481172000" lon="-5.768120000">
        <ele>71.4</ele>
        <time>2020-10-17T08:10:42Z</time>
      </trkpt>
      <trkpt lat="37.481130000" lon="-5.768213000">
        <ele>71.4</ele>
        <time>2020-10-17T08:10:44Z</time>
      </trkpt>
      <trkpt lat="37.481092000" lon="-5.768306000">
        <ele>71.4</ele>
        <time>2020-10-17T08:10:46Z</time>
      </trkpt>
      <trkpt lat="37.481053000" lon="-5.768402000">
        <ele>71.4</ele>
        <time>2020-10-17T08:10:48Z</time>
      </trkpt>
      <trkpt lat="37.481012000" lon="-5.768496000">
        <ele>71.4</ele>
        <time>2020-10-17T08:10:50Z</time>
      </trkpt>
      <trkpt lat="37.480957000" lon="-5.768628000">
        <ele>71.5</ele>
        <time>2020-10-17T08:10:53Z</time>
      </trkpt>
      <trkpt lat="37.480910000" lon="-5.768741000">
        <ele>71.5</ele>
        <time>2020-10-17T08:10:56Z</time>
      </trkpt>
      <trkpt lat="37.480866000" lon="-5.768845000">
        <ele>71.6</ele>
        <time>2020-10-17T08:11:45Z</time>
      </trkpt>
      <trkpt lat="37.480828000" lon="-5.768952000">
        <ele>71.6</ele>
        <time>2020-10-17T08:11:48Z</time>
      </trkpt>
      <trkpt lat="37.480774000" lon="-5.769082000">
        <ele>71.6</ele>
        <time>2020-10-17T08:11:51Z</time>
      </trkpt>
      <trkpt lat="37.480732000" lon="-5.769192000">
        <ele>71.6</ele>
        <time>2020-10-17T08:11:53Z</time>
      </trkpt>
      <trkpt lat="37.480686000" lon="-5.769307000">
        <ele>71.6</ele>
        <time>2020-10-17T08:11:55Z</time>
      </trkpt>
      <trkpt lat="37.480638000" lon="-5.769437000">
        <ele>71.5</ele>
        <time>2020-10-17T08:11:57Z</time>
      </trkpt>
      <trkpt lat="37.480590000" lon="-5.769584000">
        <ele>71.5</ele>
        <time>2020-10-17T08:11:59Z</time>
      </trkpt>
      <trkpt lat="37.480546000" lon="-5.769740000">
        <ele>71.4</ele>
        <time>2020-10-17T08:12:01Z</time>
      </trkpt>
      <trkpt lat="37.480507000" lon="-5.769894000">
        <ele>71.3</ele>
        <time>2020-10-17T08:12:03Z</time>
      </trkpt>
      <trkpt lat="37.480463000" lon="-5.770037000">
        <ele>71.3</ele>
        <time>2020-10-17T08:12:05Z</time>
      </trkpt>
      <trkpt lat="37.480424000" lon="-5.770180000">
        <ele>71.3</ele>
        <time>2020-10-17T08:12:07Z</time>
      </trkpt>
      <trkpt lat="37.480396000" lon="-5.770317000">
        <ele>71.3</ele>
        <time>2020-10-17T08:12:09Z</time>
      </trkpt>
      <trkpt lat="37.480371000" lon="-5.770447000">
        <ele>71.5</ele>
        <time>2020-10-17T08:12:11Z</time>
      </trkpt>
      <trkpt lat="37.480359000" lon="-5.770569000">
        <ele>71.6</ele>
        <time>2020-10-17T08:12:13Z</time>
      </trkpt>
      <trkpt lat="37.480346000" lon="-5.770682000">
        <ele>71.8</ele>
        <time>2020-10-17T08:12:15Z</time>
      </trkpt>
      <trkpt lat="37.480344000" lon="-5.770795000">
        <ele>72.0</ele>
        <time>2020-10-17T08:12:17Z</time>
      </trkpt>
      <trkpt lat="37.480348000" lon="-5.770914000">
        <ele>72.1</ele>
        <time>2020-10-17T08:12:19Z</time>
      </trkpt>
      <trkpt lat="37.480349000" lon="-5.771040000">
        <ele>72.2</ele>
        <time>2020-10-17T08:12:21Z</time>
      </trkpt>
      <trkpt lat="37.480347000" lon="-5.771169000">
        <ele>72.3</ele>
        <time>2020-10-17T08:12:23Z</time>
      </trkpt>
      <trkpt lat="37.480337000" lon="-5.771295000">
        <ele>72.3</ele>
        <time>2020-10-17T08:12:25Z</time>
      </trkpt>
      <trkpt lat="37.480319000" lon="-5.771410000">
        <ele>72.2</ele>
        <time>2020-10-17T08:12:27Z</time>
      </trkpt>
      <trkpt lat="37.480293000" lon="-5.771523000">
        <ele>72.2</ele>
        <time>2020-10-17T08:12:29Z</time>
      </trkpt>
      <trkpt lat="37.480264000" lon="-5.771632000">
        <ele>72.2</ele>
        <time>2020-10-17T08:12:31Z</time>
      </trkpt>
      <trkpt lat="37.480242000" lon="-5.771741000">
        <ele>72.1</ele>
        <time>2020-10-17T08:12:33Z</time>
      </trkpt>
      <trkpt lat="37.480218000" lon="-5.771852000">
        <ele>72.1</ele>
        <time>2020-10-17T08:12:35Z</time>
      </trkpt>
      <trkpt lat="37.480197000" lon="-5.771963000">
        <ele>72.1</ele>
        <time>2020-10-17T08:12:37Z</time>
      </trkpt>
      <trkpt lat="37.480178000" lon="-5.772067000">
        <ele>72.2</ele>
        <time>2020-10-17T08:12:39Z</time>
      </trkpt>
      <trkpt lat="37.480161000" lon="-5.772171000">
        <ele>72.4</ele>
        <time>2020-10-17T08:12:41Z</time>
      </trkpt>
      <trkpt lat="37.480144000" lon="-5.772281000">
        <ele>72.5</ele>
        <time>2020-10-17T08:12:43Z</time>
      </trkpt>
      <trkpt lat="37.480134000" lon="-5.772389000">
        <ele>72.7</ele>
        <time>2020-10-17T08:12:45Z</time>
      </trkpt>
      <trkpt lat="37.480133000" lon="-5.772501000">
        <ele>73.1</ele>
        <time>2020-10-17T08:12:47Z</time>
      </trkpt>
      <trkpt lat="37.480134000" lon="-5.772615000">
        <ele>73.4</ele>
        <time>2020-10-17T08:12:49Z</time>
      </trkpt>
      <trkpt lat="37.480136000" lon="-5.772723000">
        <ele>73.5</ele>
        <time>2020-10-17T08:12:51Z</time>
      </trkpt>
      <trkpt lat="37.480141000" lon="-5.772835000">
        <ele>73.7</ele>
        <time>2020-10-17T08:12:53Z</time>
      </trkpt>
      <trkpt lat="37.480143000" lon="-5.772942000">
        <ele>73.9</ele>
        <time>2020-10-17T08:12:55Z</time>
      </trkpt>
      <trkpt lat="37.480147000" lon="-5.773051000">
        <ele>74.0</ele>
        <time>2020-10-17T08:12:57Z</time>
      </trkpt>
      <trkpt lat="37.480150000" lon="-5.773158000">
        <ele>74.1</ele>
        <time>2020-10-17T08:12:59Z</time>
      </trkpt>
      <trkpt lat="37.480150000" lon="-5.773265000">
        <ele>74.1</ele>
        <time>2020-10-17T08:13:01Z</time>
      </trkpt>
      <trkpt lat="37.480153000" lon="-5.773372000">
        <ele>74.1</ele>
        <time>2020-10-17T08:13:03Z</time>
      </trkpt>
      <trkpt lat="37.480156000" lon="-5.773479000">
        <ele>74.1</ele>
        <time>2020-10-17T08:13:05Z</time>
      </trkpt>
      <trkpt lat="37.480157000" lon="-5.773590000">
        <ele>74.1</ele>
        <time>2020-10-17T08:13:07Z</time>
      </trkpt>
      <trkpt lat="37.480156000" lon="-5.773707000">
        <ele>74.1</ele>
        <time>2020-10-17T08:13:09Z</time>
      </trkpt>
      <trkpt lat="37.480158000" lon="-5.773826000">
        <ele>74.2</ele>
        <time>2020-10-17T08:13:11Z</time>
      </trkpt>
      <trkpt lat="37.480148000" lon="-5.773938000">
        <ele>74.3</ele>
        <time>2020-10-17T08:13:13Z</time>
      </trkpt>
      <trkpt lat="37.480129000" lon="-5.774055000">
        <ele>74.4</ele>
        <time>2020-10-17T08:13:15Z</time>
      </trkpt>
      <trkpt lat="37.480104000" lon="-5.774175000">
        <ele>74.5</ele>
        <time>2020-10-17T08:13:17Z</time>
      </trkpt>
      <trkpt lat="37.480076000" lon="-5.774290000">
        <ele>74.5</ele>
        <time>2020-10-17T08:13:19Z</time>
      </trkpt>
      <trkpt lat="37.480048000" lon="-5.774402000">
        <ele>74.6</ele>
        <time>2020-10-17T08:13:21Z</time>
      </trkpt>
      <trkpt lat="37.480013000" lon="-5.774510000">
        <ele>74.8</ele>
        <time>2020-10-17T08:13:23Z</time>
      </trkpt>
      <trkpt lat="37.479980000" lon="-5.774613000">
        <ele>75.0</ele>
        <time>2020-10-17T08:13:25Z</time>
      </trkpt>
      <trkpt lat="37.479950000" lon="-5.774714000">
        <ele>75.2</ele>
        <time>2020-10-17T08:13:27Z</time>
      </trkpt>
      <trkpt lat="37.479917000" lon="-5.774812000">
        <ele>75.4</ele>
        <time>2020-10-17T08:13:29Z</time>
      </trkpt>
      <trkpt lat="37.479888000" lon="-5.774908000">
        <ele>75.4</ele>
        <time>2020-10-17T08:13:31Z</time>
      </trkpt>
      <trkpt lat="37.479860000" lon="-5.775006000">
        <ele>75.4</ele>
        <time>2020-10-17T08:13:33Z</time>
      </trkpt>
      <trkpt lat="37.479828000" lon="-5.775108000">
        <ele>75.4</ele>
        <time>2020-10-17T08:13:35Z</time>
      </trkpt>
      <trkpt lat="37.479790000" lon="-5.775215000">
        <ele>75.3</ele>
        <time>2020-10-17T08:13:37Z</time>
      </trkpt>
      <trkpt lat="37.479751000" lon="-5.775324000">
        <ele>75.2</ele>
        <time>2020-10-17T08:13:39Z</time>
      </trkpt>
      <trkpt lat="37.479709000" lon="-5.775429000">
        <ele>75.0</ele>
        <time>2020-10-17T08:13:41Z</time>
      </trkpt>
      <trkpt lat="37.479672000" lon="-5.775527000">
        <ele>74.8</ele>
        <time>2020-10-17T08:13:43Z</time>
      </trkpt>
      <trkpt lat="37.479622000" lon="-5.775633000">
        <ele>74.5</ele>
        <time>2020-10-17T08:13:45Z</time>
      </trkpt>
      <trkpt lat="37.479570000" lon="-5.775748000">
        <ele>74.3</ele>
        <time>2020-10-17T08:13:47Z</time>
      </trkpt>
      <trkpt lat="37.479531000" lon="-5.775843000">
        <ele>74.0</ele>
        <time>2020-10-17T08:13:49Z</time>
      </trkpt>
      <trkpt lat="37.479469000" lon="-5.775945000">
        <ele>73.7</ele>
        <time>2020-10-17T08:13:51Z</time>
      </trkpt>
      <trkpt lat="37.479409000" lon="-5.776055000">
        <ele>73.5</ele>
        <time>2020-10-17T08:13:53Z</time>
      </trkpt>
      <trkpt lat="37.479349000" lon="-5.776160000">
        <ele>73.4</ele>
        <time>2020-10-17T08:13:55Z</time>
      </trkpt>
      <trkpt lat="37.479287000" lon="-5.776265000">
        <ele>73.2</ele>
        <time>2020-10-17T08:13:57Z</time>
      </trkpt>
      <trkpt lat="37.479226000" lon="-5.776362000">
        <ele>73.1</ele>
        <time>2020-10-17T08:13:59Z</time>
      </trkpt>
      <trkpt lat="37.479157000" lon="-5.776455000">
        <ele>73.0</ele>
        <time>2020-10-17T08:14:01Z</time>
      </trkpt>
      <trkpt lat="37.479092000" lon="-5.776554000">
        <ele>72.9</ele>
        <time>2020-10-17T08:14:03Z</time>
      </trkpt>
      <trkpt lat="37.479019000" lon="-5.776652000">
        <ele>72.8</ele>
        <time>2020-10-17T08:14:05Z</time>
      </trkpt>
      <trkpt lat="37.478950000" lon="-5.776761000">
        <ele>72.7</ele>
        <time>2020-10-17T08:14:07Z</time>
      </trkpt>
      <trkpt lat="37.478892000" lon="-5.776874000">
        <ele>72.6</ele>
        <time>2020-10-17T08:14:09Z</time>
      </trkpt>
      <trkpt lat="37.478840000" lon="-5.776995000">
        <ele>72.5</ele>
        <time>2020-10-17T08:14:11Z</time>
      </trkpt>
      <trkpt lat="37.478802000" lon="-5.777123000">
        <ele>72.5</ele>
        <time>2020-10-17T08:14:13Z</time>
      </trkpt>
      <trkpt lat="37.478777000" lon="-5.777269000">
        <ele>72.4</ele>
        <time>2020-10-17T08:14:15Z</time>
      </trkpt>
      <trkpt lat="37.478773000" lon="-5.777402000">
        <ele>72.3</ele>
        <time>2020-10-17T08:14:17Z</time>
      </trkpt>
      <trkpt lat="37.478779000" lon="-5.777533000">
        <ele>72.2</ele>
        <time>2020-10-17T08:14:19Z</time>
      </trkpt>
      <trkpt lat="37.478793000" lon="-5.777660000">
        <ele>72.2</ele>
        <time>2020-10-17T08:14:21Z</time>
      </trkpt>
      <trkpt lat="37.478818000" lon="-5.777784000">
        <ele>72.2</ele>
        <time>2020-10-17T08:14:23Z</time>
      </trkpt>
      <trkpt lat="37.478843000" lon="-5.777897000">
        <ele>72.3</ele>
        <time>2020-10-17T08:14:25Z</time>
      </trkpt>
      <trkpt lat="37.478875000" lon="-5.778012000">
        <ele>72.4</ele>
        <time>2020-10-17T08:14:27Z</time>
      </trkpt>
      <trkpt lat="37.478905000" lon="-5.778120000">
        <ele>72.5</ele>
        <time>2020-10-17T08:14:29Z</time>
      </trkpt>
      <trkpt lat="37.478940000" lon="-5.778223000">
        <ele>72.5</ele>
        <time>2020-10-17T08:14:31Z</time>
      </trkpt>
      <trkpt lat="37.478974000" lon="-5.778329000">
        <ele>72.5</ele>
        <time>2020-10-17T08:14:33Z</time>
      </trkpt>
      <trkpt lat="37.479007000" lon="-5.778431000">
        <ele>72.5</ele>
        <time>2020-10-17T08:14:35Z</time>
      </trkpt>
      <trkpt lat="37.479037000" lon="-5.778529000">
        <ele>72.5</ele>
        <time>2020-10-17T08:14:37Z</time>
      </trkpt>
      <trkpt lat="37.479066000" lon="-5.778628000">
        <ele>72.5</ele>
        <time>2020-10-17T08:14:39Z</time>
      </trkpt>
      <trkpt lat="37.479092000" lon="-5.778729000">
        <ele>72.5</ele>
        <time>2020-10-17T08:14:41Z</time>
      </trkpt>
      <trkpt lat="37.479114000" lon="-5.778835000">
        <ele>72.5</ele>
        <time>2020-10-17T08:14:43Z</time>
      </trkpt>
      <trkpt lat="37.479133000" lon="-5.778947000">
        <ele>72.4</ele>
        <time>2020-10-17T08:14:45Z</time>
      </trkpt>
      <trkpt lat="37.479146000" lon="-5.779069000">
        <ele>72.3</ele>
        <time>2020-10-17T08:14:47Z</time>
      </trkpt>
      <trkpt lat="37.479155000" lon="-5.779197000">
        <ele>72.0</ele>
        <time>2020-10-17T08:14:49Z</time>
      </trkpt>
      <trkpt lat="37.479162000" lon="-5.779331000">
        <ele>71.7</ele>
        <time>2020-10-17T08:14:51Z</time>
      </trkpt>
      <trkpt lat="37.479170000" lon="-5.779475000">
        <ele>71.4</ele>
        <time>2020-10-17T08:14:53Z</time>
      </trkpt>
      <trkpt lat="37.479173000" lon="-5.779625000">
        <ele>71.1</ele>
        <time>2020-10-17T08:14:55Z</time>
      </trkpt>
      <trkpt lat="37.479183000" lon="-5.779783000">
        <ele>70.8</ele>
        <time>2020-10-17T08:14:57Z</time>
      </trkpt>
      <trkpt lat="37.479190000" lon="-5.779947000">
        <ele>70.5</ele>
        <time>2020-10-17T08:14:59Z</time>
      </trkpt>
      <trkpt lat="37.479197000" lon="-5.780099000">
        <ele>70.4</ele>
        <time>2020-10-17T08:15:01Z</time>
      </trkpt>
      <trkpt lat="37.479199000" lon="-5.780228000">
        <ele>70.2</ele>
        <time>2020-10-17T08:15:03Z</time>
      </trkpt>
      <trkpt lat="37.479185000" lon="-5.780362000">
        <ele>70.0</ele>
        <time>2020-10-17T08:15:05Z</time>
      </trkpt>
      <trkpt lat="37.479165000" lon="-5.780487000">
        <ele>69.7</ele>
        <time>2020-10-17T08:15:07Z</time>
      </trkpt>
      <trkpt lat="37.479141000" lon="-5.780608000">
        <ele>69.5</ele>
        <time>2020-10-17T08:15:09Z</time>
      </trkpt>
      <trkpt lat="37.479114000" lon="-5.780727000">
        <ele>69.4</ele>
        <time>2020-10-17T08:15:11Z</time>
      </trkpt>
      <trkpt lat="37.479077000" lon="-5.780840000">
        <ele>69.3</ele>
        <time>2020-10-17T08:15:13Z</time>
      </trkpt>
      <trkpt lat="37.479036000" lon="-5.780953000">
        <ele>69.3</ele>
        <time>2020-10-17T08:15:15Z</time>
      </trkpt>
      <trkpt lat="37.478998000" lon="-5.781066000">
        <ele>69.3</ele>
        <time>2020-10-17T08:15:17Z</time>
      </trkpt>
      <trkpt lat="37.478963000" lon="-5.781184000">
        <ele>69.3</ele>
        <time>2020-10-17T08:15:19Z</time>
      </trkpt>
      <trkpt lat="37.478936000" lon="-5.781313000">
        <ele>69.3</ele>
        <time>2020-10-17T08:15:21Z</time>
      </trkpt>
      <trkpt lat="37.478922000" lon="-5.781440000">
        <ele>69.3</ele>
        <time>2020-10-17T08:15:23Z</time>
      </trkpt>
      <trkpt lat="37.478908000" lon="-5.781566000">
        <ele>69.3</ele>
        <time>2020-10-17T08:15:25Z</time>
      </trkpt>
      <trkpt lat="37.478898000" lon="-5.781690000">
        <ele>69.3</ele>
        <time>2020-10-17T08:15:27Z</time>
      </trkpt>
      <trkpt lat="37.478897000" lon="-5.781819000">
        <ele>69.3</ele>
        <time>2020-10-17T08:15:29Z</time>
      </trkpt>
      <trkpt lat="37.478906000" lon="-5.781948000">
        <ele>69.3</ele>
        <time>2020-10-17T08:15:31Z</time>
      </trkpt>
      <trkpt lat="37.478922000" lon="-5.782077000">
        <ele>69.3</ele>
        <time>2020-10-17T08:15:33Z</time>
      </trkpt>
      <trkpt lat="37.478938000" lon="-5.782207000">
        <ele>69.3</ele>
        <time>2020-10-17T08:15:35Z</time>
      </trkpt>
      <trkpt lat="37.478942000" lon="-5.782342000">
        <ele>69.2</ele>
        <time>2020-10-17T08:15:37Z</time>
      </trkpt>
      <trkpt lat="37.478941000" lon="-5.782467000">
        <ele>69.1</ele>
        <time>2020-10-17T08:15:39Z</time>
      </trkpt>
      <trkpt lat="37.478937000" lon="-5.782578000">
        <ele>69.0</ele>
        <time>2020-10-17T08:15:42Z</time>
      </trkpt>
      <trkpt lat="37.478926000" lon="-5.782708000">
        <ele>68.8</ele>
        <time>2020-10-17T08:17:31Z</time>
      </trkpt>
      <trkpt lat="37.478906000" lon="-5.782834000">
        <ele>68.5</ele>
        <time>2020-10-17T08:17:34Z</time>
      </trkpt>
      <trkpt lat="37.478886000" lon="-5.782939000">
        <ele>68.2</ele>
        <time>2020-10-17T08:17:36Z</time>
      </trkpt>
      <trkpt lat="37.478849000" lon="-5.783061000">
        <ele>67.8</ele>
        <time>2020-10-17T08:17:38Z</time>
      </trkpt>
      <trkpt lat="37.478816000" lon="-5.783185000">
        <ele>67.5</ele>
        <time>2020-10-17T08:17:40Z</time>
      </trkpt>
      <trkpt lat="37.478771000" lon="-5.783318000">
        <ele>67.3</ele>
        <time>2020-10-17T08:17:42Z</time>
      </trkpt>
      <trkpt lat="37.478714000" lon="-5.783447000">
        <ele>67.0</ele>
        <time>2020-10-17T08:17:44Z</time>
      </trkpt>
      <trkpt lat="37.478648000" lon="-5.783570000">
        <ele>66.7</ele>
        <time>2020-10-17T08:17:46Z</time>
      </trkpt>
      <trkpt lat="37.478583000" lon="-5.783694000">
        <ele>66.5</ele>
        <time>2020-10-17T08:17:48Z</time>
      </trkpt>
      <trkpt lat="37.478526000" lon="-5.783830000">
        <ele>66.4</ele>
        <time>2020-10-17T08:17:50Z</time>
      </trkpt>
      <trkpt lat="37.478474000" lon="-5.783964000">
        <ele>66.1</ele>
        <time>2020-10-17T08:17:52Z</time>
      </trkpt>
      <trkpt lat="37.478426000" lon="-5.784099000">
        <ele>65.8</ele>
        <time>2020-10-17T08:17:54Z</time>
      </trkpt>
      <trkpt lat="37.478375000" lon="-5.784234000">
        <ele>65.5</ele>
        <time>2020-10-17T08:17:56Z</time>
      </trkpt>
      <trkpt lat="37.478328000" lon="-5.784375000">
        <ele>65.2</ele>
        <time>2020-10-17T08:17:58Z</time>
      </trkpt>
      <trkpt lat="37.478283000" lon="-5.784519000">
        <ele>64.9</ele>
        <time>2020-10-17T08:18:00Z</time>
      </trkpt>
      <trkpt lat="37.478230000" lon="-5.784658000">
        <ele>64.6</ele>
        <time>2020-10-17T08:18:02Z</time>
      </trkpt>
      <trkpt lat="37.478181000" lon="-5.784798000">
        <ele>64.4</ele>
        <time>2020-10-17T08:18:04Z</time>
      </trkpt>
      <trkpt lat="37.478139000" lon="-5.784945000">
        <ele>64.1</ele>
        <time>2020-10-17T08:18:06Z</time>
      </trkpt>
      <trkpt lat="37.478100000" lon="-5.785101000">
        <ele>63.8</ele>
        <time>2020-10-17T08:18:08Z</time>
      </trkpt>
      <trkpt lat="37.478074000" lon="-5.785254000">
        <ele>63.5</ele>
        <time>2020-10-17T08:18:10Z</time>
      </trkpt>
      <trkpt lat="37.478047000" lon="-5.785403000">
        <ele>63.3</ele>
        <time>2020-10-17T08:18:12Z</time>
      </trkpt>
      <trkpt lat="37.478030000" lon="-5.785550000">
        <ele>63.2</ele>
        <time>2020-10-17T08:18:14Z</time>
      </trkpt>
      <trkpt lat="37.478018000" lon="-5.785688000">
        <ele>63.2</ele>
        <time>2020-10-17T08:18:16Z</time>
      </trkpt>
      <trkpt lat="37.478010000" lon="-5.785822000">
        <ele>63.3</ele>
        <time>2020-10-17T08:18:18Z</time>
      </trkpt>
      <trkpt lat="37.477993000" lon="-5.785950000">
        <ele>63.4</ele>
        <time>2020-10-17T08:18:20Z</time>
      </trkpt>
      <trkpt lat="37.477967000" lon="-5.786078000">
        <ele>63.5</ele>
        <time>2020-10-17T08:18:22Z</time>
      </trkpt>
      <trkpt lat="37.477944000" lon="-5.786215000">
        <ele>63.5</ele>
        <time>2020-10-17T08:18:24Z</time>
      </trkpt>
      <trkpt lat="37.477902000" lon="-5.786351000">
        <ele>63.4</ele>
        <time>2020-10-17T08:18:26Z</time>
      </trkpt>
      <trkpt lat="37.477853000" lon="-5.786486000">
        <ele>63.2</ele>
        <time>2020-10-17T08:18:28Z</time>
      </trkpt>
      <trkpt lat="37.477806000" lon="-5.786613000">
        <ele>62.9</ele>
        <time>2020-10-17T08:18:30Z</time>
      </trkpt>
      <trkpt lat="37.477747000" lon="-5.786740000">
        <ele>62.5</ele>
        <time>2020-10-17T08:18:32Z</time>
      </trkpt>
      <trkpt lat="37.477684000" lon="-5.786873000">
        <ele>62.2</ele>
        <time>2020-10-17T08:18:34Z</time>
      </trkpt>
      <trkpt lat="37.477622000" lon="-5.787010000">
        <ele>61.7</ele>
        <time>2020-10-17T08:18:36Z</time>
      </trkpt>
      <trkpt lat="37.477563000" lon="-5.787144000">
        <ele>61.2</ele>
        <time>2020-10-17T08:18:38Z</time>
      </trkpt>
      <trkpt lat="37.477493000" lon="-5.787276000">
        <ele>60.6</ele>
        <time>2020-10-17T08:18:40Z</time>
      </trkpt>
      <trkpt lat="37.477415000" lon="-5.787395000">
        <ele>60.1</ele>
        <time>2020-10-17T08:18:42Z</time>
      </trkpt>
      <trkpt lat="37.477326000" lon="-5.787492000">
        <ele>59.5</ele>
        <time>2020-10-17T08:18:44Z</time>
      </trkpt>
      <trkpt lat="37.477228000" lon="-5.787593000">
        <ele>59.1</ele>
        <time>2020-10-17T08:18:46Z</time>
      </trkpt>
      <trkpt lat="37.477126000" lon="-5.787685000">
        <ele>58.7</ele>
        <time>2020-10-17T08:18:48Z</time>
      </trkpt>
      <trkpt lat="37.477045000" lon="-5.787771000">
        <ele>58.4</ele>
        <time>2020-10-17T08:18:50Z</time>
      </trkpt>
      <trkpt lat="37.476987000" lon="-5.787845000">
        <ele>58.1</ele>
        <time>2020-10-17T08:18:52Z</time>
      </trkpt>
      <trkpt lat="37.476921000" lon="-5.787943000">
        <ele>57.8</ele>
        <time>2020-10-17T08:18:55Z</time>
      </trkpt>
      <trkpt lat="37.476858000" lon="-5.788063000">
        <ele>57.5</ele>
        <time>2020-10-17T08:18:58Z</time>
      </trkpt>
      <trkpt lat="37.476815000" lon="-5.788171000">
        <ele>57.1</ele>
        <time>2020-10-17T08:19:00Z</time>
      </trkpt>
      <trkpt lat="37.476765000" lon="-5.788283000">
        <ele>56.8</ele>
        <time>2020-10-17T08:19:02Z</time>
      </trkpt>
      <trkpt lat="37.476714000" lon="-5.788389000">
        <ele>56.5</ele>
        <time>2020-10-17T08:19:04Z</time>
      </trkpt>
      <trkpt lat="37.476675000" lon="-5.788482000">
        <ele>56.3</ele>
        <time>2020-10-17T08:19:06Z</time>
      </trkpt>
      <trkpt lat="37.476611000" lon="-5.788615000">
        <ele>56.1</ele>
        <time>2020-10-17T08:19:09Z</time>
      </trkpt>
      <trkpt lat="37.476565000" lon="-5.788699000">
        <ele>55.9</ele>
        <time>2020-10-17T08:19:11Z</time>
      </trkpt>
      <trkpt lat="37.476516000" lon="-5.788795000">
        <ele>55.7</ele>
        <time>2020-10-17T08:19:13Z</time>
      </trkpt>
      <trkpt lat="37.476468000" lon="-5.788883000">
        <ele>55.6</ele>
        <time>2020-10-17T08:19:17Z</time>
      </trkpt>
      <trkpt lat="37.476415000" lon="-5.788995000">
        <ele>55.5</ele>
        <time>2020-10-17T08:19:20Z</time>
      </trkpt>
      <trkpt lat="37.476362000" lon="-5.789098000">
        <ele>55.5</ele>
        <time>2020-10-17T08:19:23Z</time>
      </trkpt>
      <trkpt lat="37.476320000" lon="-5.789188000">
        <ele>55.5</ele>
        <time>2020-10-17T08:19:27Z</time>
      </trkpt>
      <trkpt lat="37.476273000" lon="-5.789302000">
        <ele>55.5</ele>
        <time>2020-10-17T08:19:32Z</time>
      </trkpt>
      <trkpt lat="37.476229000" lon="-5.789396000">
        <ele>55.4</ele>
        <time>2020-10-17T08:19:36Z</time>
      </trkpt>
      <trkpt lat="37.476176000" lon="-5.789503000">
        <ele>55.3</ele>
        <time>2020-10-17T08:20:28Z</time>
      </trkpt>
      <trkpt lat="37.476119000" lon="-5.789579000">
        <ele>55.2</ele>
        <time>2020-10-17T08:20:31Z</time>
      </trkpt>
      <trkpt lat="37.476033000" lon="-5.789692000">
        <ele>55.1</ele>
        <time>2020-10-17T08:20:34Z</time>
      </trkpt>
      <trkpt lat="37.475973000" lon="-5.789766000">
        <ele>55.0</ele>
        <time>2020-10-17T08:20:36Z</time>
      </trkpt>
      <trkpt lat="37.475898000" lon="-5.789855000">
        <ele>55.0</ele>
        <time>2020-10-17T08:20:39Z</time>
      </trkpt>
      <trkpt lat="37.475807000" lon="-5.789951000">
        <ele>55.0</ele>
        <time>2020-10-17T08:20:42Z</time>
      </trkpt>
      <trkpt lat="37.475730000" lon="-5.790028000">
        <ele>55.0</ele>
        <time>2020-10-17T08:20:44Z</time>
      </trkpt>
      <trkpt lat="37.475645000" lon="-5.790098000">
        <ele>55.1</ele>
        <time>2020-10-17T08:20:46Z</time>
      </trkpt>
      <trkpt lat="37.475575000" lon="-5.790164000">
        <ele>55.4</ele>
        <time>2020-10-17T08:20:48Z</time>
      </trkpt>
      <trkpt lat="37.475496000" lon="-5.790202000">
        <ele>55.8</ele>
        <time>2020-10-17T08:20:50Z</time>
      </trkpt>
      <trkpt lat="37.475393000" lon="-5.790264000">
        <ele>56.3</ele>
        <time>2020-10-17T08:20:53Z</time>
      </trkpt>
      <trkpt lat="37.475297000" lon="-5.790328000">
        <ele>56.8</ele>
        <time>2020-10-17T08:20:56Z</time>
      </trkpt>
      <trkpt lat="37.475215000" lon="-5.790380000">
        <ele>57.5</ele>
        <time>2020-10-17T08:20:59Z</time>
      </trkpt>
      <trkpt lat="37.475126000" lon="-5.790435000">
        <ele>58.1</ele>
        <time>2020-10-17T08:21:03Z</time>
      </trkpt>
      <trkpt lat="37.475040000" lon="-5.790507000">
        <ele>58.7</ele>
        <time>2020-10-17T08:21:07Z</time>
      </trkpt>
      <trkpt lat="37.474972000" lon="-5.790562000">
        <ele>59.4</ele>
        <time>2020-10-17T08:21:10Z</time>
      </trkpt>
      <trkpt lat="37.474889000" lon="-5.790643000">
        <ele>60.1</ele>
        <time>2020-10-17T08:21:14Z</time>
      </trkpt>
      <trkpt lat="37.474811000" lon="-5.790727000">
        <ele>60.8</ele>
        <time>2020-10-17T08:21:18Z</time>
      </trkpt>
      <trkpt lat="37.474741000" lon="-5.790789000">
        <ele>61.5</ele>
        <time>2020-10-17T08:21:23Z</time>
      </trkpt>
      <trkpt lat="37.474686000" lon="-5.790880000">
        <ele>62.3</ele>
        <time>2020-10-17T08:21:29Z</time>
      </trkpt>
      <trkpt lat="37.474632000" lon="-5.790970000">
        <ele>62.9</ele>
        <time>2020-10-17T08:21:34Z</time>
      </trkpt>
      <trkpt lat="37.474597000" lon="-5.791084000">
        <ele>63.5</ele>
        <time>2020-10-17T08:21:39Z</time>
      </trkpt>
      <trkpt lat="37.474549000" lon="-5.791182000">
        <ele>64.2</ele>
        <time>2020-10-17T08:21:44Z</time>
      </trkpt>
      <trkpt lat="37.474503000" lon="-5.791284000">
        <ele>64.7</ele>
        <time>2020-10-17T08:21:49Z</time>
      </trkpt>
      <trkpt lat="37.474453000" lon="-5.791391000">
        <ele>65.2</ele>
        <time>2020-10-17T08:21:54Z</time>
      </trkpt>
      <trkpt lat="37.474399000" lon="-5.791479000">
        <ele>65.6</ele>
        <time>2020-10-17T08:21:58Z</time>
      </trkpt>
      <trkpt lat="37.474338000" lon="-5.791574000">
        <ele>66.0</ele>
        <time>2020-10-17T08:22:02Z</time>
      </trkpt>
      <trkpt lat="37.474292000" lon="-5.791658000">
        <ele>66.3</ele>
        <time>2020-10-17T08:22:05Z</time>
      </trkpt>
      <trkpt lat="37.474241000" lon="-5.791753000">
        <ele>66.5</ele>
        <time>2020-10-17T08:22:08Z</time>
      </trkpt>
      <trkpt lat="37.474184000" lon="-5.791866000">
        <ele>66.8</ele>
        <time>2020-10-17T08:22:11Z</time>
      </trkpt>
      <trkpt lat="37.474123000" lon="-5.791988000">
        <ele>67.0</ele>
        <time>2020-10-17T08:22:14Z</time>
      </trkpt>
      <trkpt lat="37.474053000" lon="-5.792114000">
        <ele>67.2</ele>
        <time>2020-10-17T08:22:17Z</time>
      </trkpt>
      <trkpt lat="37.473996000" lon="-5.792203000">
        <ele>67.5</ele>
        <time>2020-10-17T08:22:19Z</time>
      </trkpt>
      <trkpt lat="37.473937000" lon="-5.792292000">
        <ele>67.7</ele>
        <time>2020-10-17T08:22:21Z</time>
      </trkpt>
      <trkpt lat="37.473883000" lon="-5.792381000">
        <ele>68.0</ele>
        <time>2020-10-17T08:22:23Z</time>
      </trkpt>
      <trkpt lat="37.473823000" lon="-5.792465000">
        <ele>68.3</ele>
        <time>2020-10-17T08:22:25Z</time>
      </trkpt>
      <trkpt lat="37.473761000" lon="-5.792542000">
        <ele>68.5</ele>
        <time>2020-10-17T08:22:27Z</time>
      </trkpt>
      <trkpt lat="37.473684000" lon="-5.792655000">
        <ele>68.8</ele>
        <time>2020-10-17T08:22:30Z</time>
      </trkpt>
      <trkpt lat="37.473621000" lon="-5.792759000">
        <ele>69.1</ele>
        <time>2020-10-17T08:22:33Z</time>
      </trkpt>
      <trkpt lat="37.473565000" lon="-5.792865000">
        <ele>69.4</ele>
        <time>2020-10-17T08:22:36Z</time>
      </trkpt>
      <trkpt lat="37.473516000" lon="-5.792971000">
        <ele>69.5</ele>
        <time>2020-10-17T08:22:39Z</time>
      </trkpt>
      <trkpt lat="37.473471000" lon="-5.793079000">
        <ele>69.7</ele>
        <time>2020-10-17T08:22:42Z</time>
      </trkpt>
      <trkpt lat="37.473435000" lon="-5.793185000">
        <ele>69.9</ele>
        <time>2020-10-17T08:22:45Z</time>
      </trkpt>
      <trkpt lat="37.473411000" lon="-5.793290000">
        <ele>69.9</ele>
        <time>2020-10-17T08:22:48Z</time>
      </trkpt>
      <trkpt lat="37.473410000" lon="-5.793416000">
        <ele>69.8</ele>
        <time>2020-10-17T08:22:52Z</time>
      </trkpt>
      <trkpt lat="37.473446000" lon="-5.793531000">
        <ele>69.8</ele>
        <time>2020-10-17T08:22:56Z</time>
      </trkpt>
      <trkpt lat="37.473478000" lon="-5.793627000">
        <ele>69.8</ele>
        <time>2020-10-17T08:22:59Z</time>
      </trkpt>
      <trkpt lat="37.473481000" lon="-5.793745000">
        <ele>69.8</ele>
        <time>2020-10-17T08:23:02Z</time>
      </trkpt>
      <trkpt lat="37.473441000" lon="-5.793864000">
        <ele>69.9</ele>
        <time>2020-10-17T08:23:05Z</time>
      </trkpt>
      <trkpt lat="37.473389000" lon="-5.793982000">
        <ele>70.0</ele>
        <time>2020-10-17T08:23:08Z</time>
      </trkpt>
      <trkpt lat="37.473348000" lon="-5.794093000">
        <ele>70.1</ele>
        <time>2020-10-17T08:23:11Z</time>
      </trkpt>
      <trkpt lat="37.473295000" lon="-5.794210000">
        <ele>70.2</ele>
        <time>2020-10-17T08:23:14Z</time>
      </trkpt>
      <trkpt lat="37.473242000" lon="-5.794331000">
        <ele>70.3</ele>
        <time>2020-10-17T08:23:21Z</time>
      </trkpt>
      <trkpt lat="37.473186000" lon="-5.794464000">
        <ele>70.3</ele>
        <time>2020-10-17T08:23:21Z</time>
      </trkpt>
      <trkpt lat="37.473083000" lon="-5.794684000">
        <ele>70.4</ele>
        <time>2020-10-17T08:23:34Z</time>
      </trkpt>
      <trkpt lat="37.473041000" lon="-5.794778000">
        <ele>70.4</ele>
        <time>2020-10-17T08:23:34Z</time>
      </trkpt>
      <trkpt lat="37.472983000" lon="-5.794867000">
        <ele>70.2</ele>
        <time>2020-10-17T08:23:51Z</time>
      </trkpt>
      <trkpt lat="37.472944000" lon="-5.794978000">
        <ele>70.0</ele>
        <time>2020-10-17T08:23:54Z</time>
      </trkpt>
      <trkpt lat="37.472885000" lon="-5.795111000">
        <ele>69.8</ele>
        <time>2020-10-17T08:23:58Z</time>
      </trkpt>
      <trkpt lat="37.472841000" lon="-5.795208000">
        <ele>69.5</ele>
        <time>2020-10-17T08:23:59Z</time>
      </trkpt>
      <trkpt lat="37.472790000" lon="-5.795314000">
        <ele>69.3</ele>
        <time>2020-10-17T08:24:01Z</time>
      </trkpt>
      <trkpt lat="37.472757000" lon="-5.795412000">
        <ele>69.0</ele>
        <time>2020-10-17T08:24:03Z</time>
      </trkpt>
      <trkpt lat="37.472715000" lon="-5.795509000">
        <ele>68.7</ele>
        <time>2020-10-17T08:24:05Z</time>
      </trkpt>
      <trkpt lat="37.472670000" lon="-5.795607000">
        <ele>68.5</ele>
        <time>2020-10-17T08:24:07Z</time>
      </trkpt>
      <trkpt lat="37.472630000" lon="-5.795704000">
        <ele>68.2</ele>
        <time>2020-10-17T08:24:09Z</time>
      </trkpt>
      <trkpt lat="37.472590000" lon="-5.795809000">
        <ele>67.8</ele>
        <time>2020-10-17T08:24:11Z</time>
      </trkpt>
      <trkpt lat="37.472544000" lon="-5.795912000">
        <ele>67.5</ele>
        <time>2020-10-17T08:24:13Z</time>
      </trkpt>
      <trkpt lat="37.472499000" lon="-5.796012000">
        <ele>67.3</ele>
        <time>2020-10-17T08:24:15Z</time>
      </trkpt>
      <trkpt lat="37.472446000" lon="-5.796122000">
        <ele>66.9</ele>
        <time>2020-10-17T08:24:17Z</time>
      </trkpt>
      <trkpt lat="37.472389000" lon="-5.796241000">
        <ele>66.4</ele>
        <time>2020-10-17T08:24:19Z</time>
      </trkpt>
      <trkpt lat="37.472325000" lon="-5.796363000">
        <ele>65.7</ele>
        <time>2020-10-17T08:24:21Z</time>
      </trkpt>
      <trkpt lat="37.472262000" lon="-5.796488000">
        <ele>65.0</ele>
        <time>2020-10-17T08:24:23Z</time>
      </trkpt>
      <trkpt lat="37.472200000" lon="-5.796613000">
        <ele>64.2</ele>
        <time>2020-10-17T08:24:25Z</time>
      </trkpt>
      <trkpt lat="37.472141000" lon="-5.796738000">
        <ele>63.4</ele>
        <time>2020-10-17T08:24:27Z</time>
      </trkpt>
      <trkpt lat="37.472074000" lon="-5.796863000">
        <ele>62.5</ele>
        <time>2020-10-17T08:24:29Z</time>
      </trkpt>
      <trkpt lat="37.472005000" lon="-5.796992000">
        <ele>61.8</ele>
        <time>2020-10-17T08:24:31Z</time>
      </trkpt>
      <trkpt lat="37.471932000" lon="-5.797125000">
        <ele>61.3</ele>
        <time>2020-10-17T08:24:33Z</time>
      </trkpt>
      <trkpt lat="37.471865000" lon="-5.797259000">
        <ele>60.8</ele>
        <time>2020-10-17T08:24:35Z</time>
      </trkpt>
      <trkpt lat="37.471796000" lon="-5.797383000">
        <ele>60.5</ele>
        <time>2020-10-17T08:24:38Z</time>
      </trkpt>
      <trkpt lat="37.471735000" lon="-5.797494000">
        <ele>60.2</ele>
        <time>2020-10-17T08:24:39Z</time>
      </trkpt>
      <trkpt lat="37.471690000" lon="-5.797590000">
        <ele>60.1</ele>
        <time>2020-10-17T08:24:42Z</time>
      </trkpt>
      <trkpt lat="37.471630000" lon="-5.797674000">
        <ele>60.0</ele>
        <time>2020-10-17T08:24:43Z</time>
      </trkpt>
      <trkpt lat="37.471532000" lon="-5.797748000">
        <ele>60.0</ele>
        <time>2020-10-17T08:24:46Z</time>
      </trkpt>
      <trkpt lat="37.471434000" lon="-5.797736000">
        <ele>60.1</ele>
        <time>2020-10-17T08:24:49Z</time>
      </trkpt>
      <trkpt lat="37.471337000" lon="-5.797647000">
        <ele>60.3</ele>
        <time>2020-10-17T08:24:52Z</time>
      </trkpt>
      <trkpt lat="37.471272000" lon="-5.797576000">
        <ele>60.5</ele>
        <time>2020-10-17T08:24:54Z</time>
      </trkpt>
      <trkpt lat="37.471207000" lon="-5.797504000">
        <ele>60.7</ele>
        <time>2020-10-17T08:24:56Z</time>
      </trkpt>
      <trkpt lat="37.471145000" lon="-5.797428000">
        <ele>61.0</ele>
        <time>2020-10-17T08:24:58Z</time>
      </trkpt>
      <trkpt lat="37.471074000" lon="-5.797362000">
        <ele>61.2</ele>
        <time>2020-10-17T08:25:00Z</time>
      </trkpt>
      <trkpt lat="37.471004000" lon="-5.797284000">
        <ele>61.4</ele>
        <time>2020-10-17T08:25:02Z</time>
      </trkpt>
      <trkpt lat="37.470939000" lon="-5.797204000">
        <ele>61.5</ele>
        <time>2020-10-17T08:25:04Z</time>
      </trkpt>
      <trkpt lat="37.470874000" lon="-5.797123000">
        <ele>61.7</ele>
        <time>2020-10-17T08:25:06Z</time>
      </trkpt>
      <trkpt lat="37.470809000" lon="-5.797040000">
        <ele>62.0</ele>
        <time>2020-10-17T08:25:08Z</time>
      </trkpt>
      <trkpt lat="37.470750000" lon="-5.796958000">
        <ele>62.4</ele>
        <time>2020-10-17T08:25:10Z</time>
      </trkpt>
      <trkpt lat="37.470684000" lon="-5.796881000">
        <ele>62.7</ele>
        <time>2020-10-17T08:25:12Z</time>
      </trkpt>
      <trkpt lat="37.470624000" lon="-5.796802000">
        <ele>63.1</ele>
        <time>2020-10-17T08:25:15Z</time>
      </trkpt>
      <trkpt lat="37.470566000" lon="-5.796722000">
        <ele>63.5</ele>
        <time>2020-10-17T08:25:16Z</time>
      </trkpt>
      <trkpt lat="37.470508000" lon="-5.796648000">
        <ele>63.8</ele>
        <time>2020-10-17T08:25:18Z</time>
      </trkpt>
      <trkpt lat="37.470448000" lon="-5.796575000">
        <ele>64.1</ele>
        <time>2020-10-17T08:25:20Z</time>
      </trkpt>
      <trkpt lat="37.470361000" lon="-5.796463000">
        <ele>64.4</ele>
        <time>2020-10-17T08:25:23Z</time>
      </trkpt>
      <trkpt lat="37.470299000" lon="-5.796385000">
        <ele>64.6</ele>
        <time>2020-10-17T08:25:25Z</time>
      </trkpt>
      <trkpt lat="37.470231000" lon="-5.796310000">
        <ele>64.8</ele>
        <time>2020-10-17T08:25:27Z</time>
      </trkpt>
      <trkpt lat="37.470165000" lon="-5.796230000">
        <ele>65.0</ele>
        <time>2020-10-17T08:25:29Z</time>
      </trkpt>
      <trkpt lat="37.470098000" lon="-5.796150000">
        <ele>65.2</ele>
        <time>2020-10-17T08:25:31Z</time>
      </trkpt>
      <trkpt lat="37.470022000" lon="-5.796076000">
        <ele>65.3</ele>
        <time>2020-10-17T08:25:33Z</time>
      </trkpt>
      <trkpt lat="37.469949000" lon="-5.796002000">
        <ele>65.4</ele>
        <time>2020-10-17T08:25:35Z</time>
      </trkpt>
      <trkpt lat="37.469864000" lon="-5.795945000">
        <ele>65.4</ele>
        <time>2020-10-17T08:25:37Z</time>
      </trkpt>
      <trkpt lat="37.469778000" lon="-5.795892000">
        <ele>65.4</ele>
        <time>2020-10-17T08:25:39Z</time>
      </trkpt>
      <trkpt lat="37.469702000" lon="-5.795829000">
        <ele>65.3</ele>
        <time>2020-10-17T08:25:41Z</time>
      </trkpt>
      <trkpt lat="37.469631000" lon="-5.795778000">
        <ele>65.3</ele>
        <time>2020-10-17T08:25:43Z</time>
      </trkpt>
      <trkpt lat="37.469529000" lon="-5.795702000">
        <ele>65.4</ele>
        <time>2020-10-17T08:25:46Z</time>
      </trkpt>
      <trkpt lat="37.469442000" lon="-5.795638000">
        <ele>65.5</ele>
        <time>2020-10-17T08:25:49Z</time>
      </trkpt>
      <trkpt lat="37.469363000" lon="-5.795599000">
        <ele>65.6</ele>
        <time>2020-10-17T08:25:54Z</time>
      </trkpt>
      <trkpt lat="37.469429000" lon="-5.795677000">
        <ele>65.7</ele>
        <time>2020-10-17T08:26:04Z</time>
      </trkpt>
      <trkpt lat="37.469411000" lon="-5.795793000">
        <ele>65.8</ele>
        <time>2020-10-17T08:26:08Z</time>
      </trkpt>
      <trkpt lat="37.469361000" lon="-5.795893000">
        <ele>65.8</ele>
        <time>2020-10-17T08:26:14Z</time>
      </trkpt>
      <trkpt lat="37.469326000" lon="-5.796005000">
        <ele>65.8</ele>
        <time>2020-10-17T08:26:19Z</time>
      </trkpt>
      <trkpt lat="37.469340000" lon="-5.795877000">
        <ele>65.9</ele>
        <time>2020-10-17T08:26:31Z</time>
      </trkpt>
      <trkpt lat="37.469365000" lon="-5.795780000">
        <ele>66.0</ele>
        <time>2020-10-17T08:26:33Z</time>
      </trkpt>
      <trkpt lat="37.469399000" lon="-5.795675000">
        <ele>66.1</ele>
        <time>2020-10-17T08:26:35Z</time>
      </trkpt>
      <trkpt lat="37.469357000" lon="-5.795564000">
        <ele>66.1</ele>
        <time>2020-10-17T08:26:38Z</time>
      </trkpt>
      <trkpt lat="37.469285000" lon="-5.795512000">
        <ele>66.0</ele>
        <time>2020-10-17T08:26:40Z</time>
      </trkpt>
      <trkpt lat="37.469202000" lon="-5.795456000">
        <ele>66.0</ele>
        <time>2020-10-17T08:26:42Z</time>
      </trkpt>
      <trkpt lat="37.469119000" lon="-5.795410000">
        <ele>66.0</ele>
        <time>2020-10-17T08:26:44Z</time>
      </trkpt>
      <trkpt lat="37.469033000" lon="-5.795368000">
        <ele>66.2</ele>
        <time>2020-10-17T08:26:46Z</time>
      </trkpt>
      <trkpt lat="37.468954000" lon="-5.795327000">
        <ele>66.4</ele>
        <time>2020-10-17T08:26:48Z</time>
      </trkpt>
      <trkpt lat="37.468870000" lon="-5.795289000">
        <ele>66.6</ele>
        <time>2020-10-17T08:26:50Z</time>
      </trkpt>
      <trkpt lat="37.468787000" lon="-5.795256000">
        <ele>66.9</ele>
        <time>2020-10-17T08:26:52Z</time>
      </trkpt>
      <trkpt lat="37.468702000" lon="-5.795229000">
        <ele>67.1</ele>
        <time>2020-10-17T08:26:54Z</time>
      </trkpt>
      <trkpt lat="37.468616000" lon="-5.795204000">
        <ele>67.3</ele>
        <time>2020-10-17T08:26:56Z</time>
      </trkpt>
      <trkpt lat="37.468531000" lon="-5.795177000">
        <ele>67.5</ele>
        <time>2020-10-17T08:26:58Z</time>
      </trkpt>
      <trkpt lat="37.468448000" lon="-5.795157000">
        <ele>67.6</ele>
        <time>2020-10-17T08:27:00Z</time>
      </trkpt>
      <trkpt lat="37.468366000" lon="-5.795139000">
        <ele>67.9</ele>
        <time>2020-10-17T08:27:02Z</time>
      </trkpt>
      <trkpt lat="37.468253000" lon="-5.795104000">
        <ele>68.1</ele>
        <time>2020-10-17T08:27:05Z</time>
      </trkpt>
      <trkpt lat="37.468133000" lon="-5.795068000">
        <ele>68.3</ele>
        <time>2020-10-17T08:27:08Z</time>
      </trkpt>
      <trkpt lat="37.468050000" lon="-5.795037000">
        <ele>68.4</ele>
        <time>2020-10-17T08:27:10Z</time>
      </trkpt>
      <trkpt lat="37.467962000" lon="-5.794989000">
        <ele>68.5</ele>
        <time>2020-10-17T08:27:12Z</time>
      </trkpt>
      <trkpt lat="37.467874000" lon="-5.794938000">
        <ele>68.5</ele>
        <time>2020-10-17T08:27:14Z</time>
      </trkpt>
      <trkpt lat="37.467786000" lon="-5.794884000">
        <ele>68.6</ele>
        <time>2020-10-17T08:27:16Z</time>
      </trkpt>
      <trkpt lat="37.467694000" lon="-5.794825000">
        <ele>68.7</ele>
        <time>2020-10-17T08:27:18Z</time>
      </trkpt>
      <trkpt lat="37.467609000" lon="-5.794776000">
        <ele>68.8</ele>
        <time>2020-10-17T08:27:20Z</time>
      </trkpt>
      <trkpt lat="37.467520000" lon="-5.794721000">
        <ele>69.0</ele>
        <time>2020-10-17T08:27:22Z</time>
      </trkpt>
      <trkpt lat="37.467433000" lon="-5.794663000">
        <ele>69.3</ele>
        <time>2020-10-17T08:27:24Z</time>
      </trkpt>
      <trkpt lat="37.467347000" lon="-5.794601000">
        <ele>69.5</ele>
        <time>2020-10-17T08:27:26Z</time>
      </trkpt>
      <trkpt lat="37.467256000" lon="-5.794546000">
        <ele>69.7</ele>
        <time>2020-10-17T08:27:28Z</time>
      </trkpt>
      <trkpt lat="37.467163000" lon="-5.794487000">
        <ele>70.0</ele>
        <time>2020-10-17T08:27:30Z</time>
      </trkpt>
      <trkpt lat="37.467066000" lon="-5.794433000">
        <ele>70.3</ele>
        <time>2020-10-17T08:27:32Z</time>
      </trkpt>
      <trkpt lat="37.466969000" lon="-5.794389000">
        <ele>70.6</ele>
        <time>2020-10-17T08:27:34Z</time>
      </trkpt>
      <trkpt lat="37.466869000" lon="-5.794343000">
        <ele>71.0</ele>
        <time>2020-10-17T08:27:36Z</time>
      </trkpt>
      <trkpt lat="37.466777000" lon="-5.794306000">
        <ele>71.4</ele>
        <time>2020-10-17T08:27:38Z</time>
      </trkpt>
      <trkpt lat="37.466691000" lon="-5.794259000">
        <ele>71.7</ele>
        <time>2020-10-17T08:27:40Z</time>
      </trkpt>
      <trkpt lat="37.466606000" lon="-5.794226000">
        <ele>72.1</ele>
        <time>2020-10-17T08:27:42Z</time>
      </trkpt>
      <trkpt lat="37.466521000" lon="-5.794197000">
        <ele>72.4</ele>
        <time>2020-10-17T08:27:44Z</time>
      </trkpt>
      <trkpt lat="37.466432000" lon="-5.794161000">
        <ele>72.5</ele>
        <time>2020-10-17T08:27:46Z</time>
      </trkpt>
      <trkpt lat="37.466350000" lon="-5.794124000">
        <ele>72.8</ele>
        <time>2020-10-17T08:27:48Z</time>
      </trkpt>
      <trkpt lat="37.466269000" lon="-5.794088000">
        <ele>73.0</ele>
        <time>2020-10-17T08:27:50Z</time>
      </trkpt>
      <trkpt lat="37.466191000" lon="-5.794054000">
        <ele>73.2</ele>
        <time>2020-10-17T08:27:52Z</time>
      </trkpt>
      <trkpt lat="37.466113000" lon="-5.794015000">
        <ele>73.4</ele>
        <time>2020-10-17T08:27:54Z</time>
      </trkpt>
      <trkpt lat="37.466031000" lon="-5.793981000">
        <ele>73.5</ele>
        <time>2020-10-17T08:27:56Z</time>
      </trkpt>
      <trkpt lat="37.465951000" lon="-5.793942000">
        <ele>73.5</ele>
        <time>2020-10-17T08:27:58Z</time>
      </trkpt>
      <trkpt lat="37.465874000" lon="-5.793901000">
        <ele>73.6</ele>
        <time>2020-10-17T08:28:00Z</time>
      </trkpt>
      <trkpt lat="37.465765000" lon="-5.793834000">
        <ele>73.6</ele>
        <time>2020-10-17T08:28:03Z</time>
      </trkpt>
      <trkpt lat="37.465690000" lon="-5.793786000">
        <ele>73.6</ele>
        <time>2020-10-17T08:28:05Z</time>
      </trkpt>
      <trkpt lat="37.465615000" lon="-5.793731000">
        <ele>73.5</ele>
        <time>2020-10-17T08:28:07Z</time>
      </trkpt>
      <trkpt lat="37.465540000" lon="-5.793677000">
        <ele>73.5</ele>
        <time>2020-10-17T08:28:09Z</time>
      </trkpt>
      <trkpt lat="37.465466000" lon="-5.793617000">
        <ele>73.2</ele>
        <time>2020-10-17T08:28:11Z</time>
      </trkpt>
      <trkpt lat="37.465390000" lon="-5.793556000">
        <ele>72.9</ele>
        <time>2020-10-17T08:28:15Z</time>
      </trkpt>
      <trkpt lat="37.465316000" lon="-5.793492000">
        <ele>72.6</ele>
        <time>2020-10-17T08:28:15Z</time>
      </trkpt>
      <trkpt lat="37.465243000" lon="-5.793425000">
        <ele>72.4</ele>
        <time>2020-10-17T08:28:17Z</time>
      </trkpt>
      <trkpt lat="37.465164000" lon="-5.793356000">
        <ele>72.2</ele>
        <time>2020-10-17T08:28:19Z</time>
      </trkpt>
      <trkpt lat="37.465081000" lon="-5.793289000">
        <ele>72.1</ele>
        <time>2020-10-17T08:28:24Z</time>
      </trkpt>
      <trkpt lat="37.464917000" lon="-5.793152000">
        <ele>72.1</ele>
        <time>2020-10-17T08:28:25Z</time>
      </trkpt>
      <trkpt lat="37.464831000" lon="-5.793080000">
        <ele>72.2</ele>
        <time>2020-10-17T08:28:27Z</time>
      </trkpt>
      <trkpt lat="37.464743000" lon="-5.793006000">
        <ele>72.3</ele>
        <time>2020-10-17T08:28:29Z</time>
      </trkpt>
      <trkpt lat="37.464655000" lon="-5.792930000">
        <ele>72.5</ele>
        <time>2020-10-17T08:28:31Z</time>
      </trkpt>
      <trkpt lat="37.464561000" lon="-5.792866000">
        <ele>72.6</ele>
        <time>2020-10-17T08:28:33Z</time>
      </trkpt>
      <trkpt lat="37.464461000" lon="-5.792800000">
        <ele>72.8</ele>
        <time>2020-10-17T08:28:35Z</time>
      </trkpt>
      <trkpt lat="37.464366000" lon="-5.792740000">
        <ele>73.0</ele>
        <time>2020-10-17T08:28:37Z</time>
      </trkpt>
      <trkpt lat="37.464277000" lon="-5.792681000">
        <ele>73.2</ele>
        <time>2020-10-17T08:28:39Z</time>
      </trkpt>
      <trkpt lat="37.464195000" lon="-5.792631000">
        <ele>73.4</ele>
        <time>2020-10-17T08:28:41Z</time>
      </trkpt>
      <trkpt lat="37.464118000" lon="-5.792699000">
        <ele>73.4</ele>
        <time>2020-10-17T08:28:44Z</time>
      </trkpt>
      <trkpt lat="37.464054000" lon="-5.792827000">
        <ele>73.3</ele>
        <time>2020-10-17T08:28:47Z</time>
      </trkpt>
      <trkpt lat="37.464006000" lon="-5.792920000">
        <ele>73.1</ele>
        <time>2020-10-17T08:28:49Z</time>
      </trkpt>
      <trkpt lat="37.463956000" lon="-5.793015000">
        <ele>72.9</ele>
        <time>2020-10-17T08:28:51Z</time>
      </trkpt>
      <trkpt lat="37.463909000" lon="-5.793111000">
        <ele>72.7</ele>
        <time>2020-10-17T08:28:53Z</time>
      </trkpt>
      <trkpt lat="37.463860000" lon="-5.793213000">
        <ele>72.5</ele>
        <time>2020-10-17T08:28:55Z</time>
      </trkpt>
      <trkpt lat="37.463805000" lon="-5.793316000">
        <ele>72.3</ele>
        <time>2020-10-17T08:28:57Z</time>
      </trkpt>
      <trkpt lat="37.463753000" lon="-5.793428000">
        <ele>72.1</ele>
        <time>2020-10-17T08:28:59Z</time>
      </trkpt>
      <trkpt lat="37.463705000" lon="-5.793529000">
        <ele>71.8</ele>
        <time>2020-10-17T08:29:01Z</time>
      </trkpt>
      <trkpt lat="37.463661000" lon="-5.793619000">
        <ele>71.5</ele>
        <time>2020-10-17T08:29:03Z</time>
      </trkpt>
      <trkpt lat="37.463609000" lon="-5.793719000">
        <ele>71.4</ele>
        <time>2020-10-17T08:29:05Z</time>
      </trkpt>
      <trkpt lat="37.463561000" lon="-5.793821000">
        <ele>71.3</ele>
        <time>2020-10-17T08:29:07Z</time>
      </trkpt>
      <trkpt lat="37.463502000" lon="-5.793927000">
        <ele>71.2</ele>
        <time>2020-10-17T08:29:09Z</time>
      </trkpt>
      <trkpt lat="37.463447000" lon="-5.794053000">
        <ele>71.2</ele>
        <time>2020-10-17T08:29:11Z</time>
      </trkpt>
      <trkpt lat="37.463378000" lon="-5.794173000">
        <ele>71.2</ele>
        <time>2020-10-17T08:29:13Z</time>
      </trkpt>
      <trkpt lat="37.463310000" lon="-5.794299000">
        <ele>71.1</ele>
        <time>2020-10-17T08:29:15Z</time>
      </trkpt>
      <trkpt lat="37.463242000" lon="-5.794427000">
        <ele>71.0</ele>
        <time>2020-10-17T08:29:17Z</time>
      </trkpt>
      <trkpt lat="37.463172000" lon="-5.794547000">
        <ele>71.0</ele>
        <time>2020-10-17T08:29:19Z</time>
      </trkpt>
      <trkpt lat="37.463111000" lon="-5.794666000">
        <ele>70.9</ele>
        <time>2020-10-17T08:29:21Z</time>
      </trkpt>
      <trkpt lat="37.463053000" lon="-5.794776000">
        <ele>70.9</ele>
        <time>2020-10-17T08:29:23Z</time>
      </trkpt>
      <trkpt lat="37.463009000" lon="-5.794878000">
        <ele>70.9</ele>
        <time>2020-10-17T08:29:25Z</time>
      </trkpt>
      <trkpt lat="37.462953000" lon="-5.794989000">
        <ele>70.8</ele>
        <time>2020-10-17T08:29:27Z</time>
      </trkpt>
      <trkpt lat="37.462896000" lon="-5.795097000">
        <ele>70.8</ele>
        <time>2020-10-17T08:29:29Z</time>
      </trkpt>
      <trkpt lat="37.462848000" lon="-5.795214000">
        <ele>70.8</ele>
        <time>2020-10-17T08:29:31Z</time>
      </trkpt>
      <trkpt lat="37.462794000" lon="-5.795327000">
        <ele>70.7</ele>
        <time>2020-10-17T08:29:33Z</time>
      </trkpt>
      <trkpt lat="37.462742000" lon="-5.795433000">
        <ele>70.6</ele>
        <time>2020-10-17T08:29:35Z</time>
      </trkpt>
      <trkpt lat="37.462698000" lon="-5.795530000">
        <ele>70.5</ele>
        <time>2020-10-17T08:29:37Z</time>
      </trkpt>
      <trkpt lat="37.462645000" lon="-5.795632000">
        <ele>70.5</ele>
        <time>2020-10-17T08:29:39Z</time>
      </trkpt>
      <trkpt lat="37.462589000" lon="-5.795725000">
        <ele>70.4</ele>
        <time>2020-10-17T08:29:42Z</time>
      </trkpt>
      <trkpt lat="37.462543000" lon="-5.795828000">
        <ele>70.3</ele>
        <time>2020-10-17T08:29:43Z</time>
      </trkpt>
      <trkpt lat="37.462491000" lon="-5.795926000">
        <ele>70.2</ele>
        <time>2020-10-17T08:29:45Z</time>
      </trkpt>
      <trkpt lat="37.462444000" lon="-5.796014000">
        <ele>70.2</ele>
        <time>2020-10-17T08:29:47Z</time>
      </trkpt>
      <trkpt lat="37.462375000" lon="-5.796143000">
        <ele>70.2</ele>
        <time>2020-10-17T08:29:50Z</time>
      </trkpt>
      <trkpt lat="37.462325000" lon="-5.796235000">
        <ele>70.1</ele>
        <time>2020-10-17T08:29:52Z</time>
      </trkpt>
      <trkpt lat="37.462273000" lon="-5.796342000">
        <ele>70.0</ele>
        <time>2020-10-17T08:29:54Z</time>
      </trkpt>
      <trkpt lat="37.462218000" lon="-5.796448000">
        <ele>69.9</ele>
        <time>2020-10-17T08:29:56Z</time>
      </trkpt>
      <trkpt lat="37.462172000" lon="-5.796552000">
        <ele>69.8</ele>
        <time>2020-10-17T08:29:58Z</time>
      </trkpt>
      <trkpt lat="37.462123000" lon="-5.796643000">
        <ele>69.8</ele>
        <time>2020-10-17T08:30:00Z</time>
      </trkpt>
      <trkpt lat="37.462070000" lon="-5.796729000">
        <ele>69.8</ele>
        <time>2020-10-17T08:30:02Z</time>
      </trkpt>
      <trkpt lat="37.462019000" lon="-5.796817000">
        <ele>69.7</ele>
        <time>2020-10-17T08:30:04Z</time>
      </trkpt>
      <trkpt lat="37.461954000" lon="-5.796930000">
        <ele>69.7</ele>
        <time>2020-10-17T08:30:07Z</time>
      </trkpt>
      <trkpt lat="37.461905000" lon="-5.797017000">
        <ele>69.7</ele>
        <time>2020-10-17T08:30:09Z</time>
      </trkpt>
      <trkpt lat="37.461863000" lon="-5.797127000">
        <ele>69.6</ele>
        <time>2020-10-17T08:30:11Z</time>
      </trkpt>
      <trkpt lat="37.461808000" lon="-5.797243000">
        <ele>69.5</ele>
        <time>2020-10-17T08:30:13Z</time>
      </trkpt>
      <trkpt lat="37.461751000" lon="-5.797354000">
        <ele>69.5</ele>
        <time>2020-10-17T08:30:15Z</time>
      </trkpt>
      <trkpt lat="37.461696000" lon="-5.797461000">
        <ele>69.5</ele>
        <time>2020-10-17T08:30:17Z</time>
      </trkpt>
      <trkpt lat="37.461636000" lon="-5.797576000">
        <ele>69.5</ele>
        <time>2020-10-17T08:30:19Z</time>
      </trkpt>
      <trkpt lat="37.461581000" lon="-5.797678000">
        <ele>69.5</ele>
        <time>2020-10-17T08:30:21Z</time>
      </trkpt>
      <trkpt lat="37.461515000" lon="-5.797794000">
        <ele>69.5</ele>
        <time>2020-10-17T08:30:23Z</time>
      </trkpt>
      <trkpt lat="37.461452000" lon="-5.797898000">
        <ele>69.5</ele>
        <time>2020-10-17T08:30:25Z</time>
      </trkpt>
      <trkpt lat="37.461395000" lon="-5.798015000">
        <ele>69.6</ele>
        <time>2020-10-17T08:30:27Z</time>
      </trkpt>
      <trkpt lat="37.461337000" lon="-5.798126000">
        <ele>69.6</ele>
        <time>2020-10-17T08:30:29Z</time>
      </trkpt>
      <trkpt lat="37.461278000" lon="-5.798237000">
        <ele>69.6</ele>
        <time>2020-10-17T08:30:31Z</time>
      </trkpt>
      <trkpt lat="37.461226000" lon="-5.798352000">
        <ele>69.5</ele>
        <time>2020-10-17T08:30:33Z</time>
      </trkpt>
      <trkpt lat="37.461164000" lon="-5.798467000">
        <ele>69.5</ele>
        <time>2020-10-17T08:30:35Z</time>
      </trkpt>
      <trkpt lat="37.461109000" lon="-5.798583000">
        <ele>69.3</ele>
        <time>2020-10-17T08:30:37Z</time>
      </trkpt>
      <trkpt lat="37.461060000" lon="-5.798710000">
        <ele>69.0</ele>
        <time>2020-10-17T08:30:39Z</time>
      </trkpt>
      <trkpt lat="37.461006000" lon="-5.798823000">
        <ele>68.6</ele>
        <time>2020-10-17T08:30:41Z</time>
      </trkpt>
      <trkpt lat="37.460957000" lon="-5.798932000">
        <ele>68.3</ele>
        <time>2020-10-17T08:30:43Z</time>
      </trkpt>
      <trkpt lat="37.460907000" lon="-5.799023000">
        <ele>67.8</ele>
        <time>2020-10-17T08:30:45Z</time>
      </trkpt>
      <trkpt lat="37.460854000" lon="-5.799126000">
        <ele>67.5</ele>
        <time>2020-10-17T08:30:47Z</time>
      </trkpt>
      <trkpt lat="37.460797000" lon="-5.799239000">
        <ele>67.2</ele>
        <time>2020-10-17T08:30:49Z</time>
      </trkpt>
      <trkpt lat="37.460737000" lon="-5.799361000">
        <ele>67.0</ele>
        <time>2020-10-17T08:30:51Z</time>
      </trkpt>
      <trkpt lat="37.460671000" lon="-5.799488000">
        <ele>66.8</ele>
        <time>2020-10-17T08:30:53Z</time>
      </trkpt>
      <trkpt lat="37.460617000" lon="-5.799622000">
        <ele>66.8</ele>
        <time>2020-10-17T08:30:55Z</time>
      </trkpt>
      <trkpt lat="37.460569000" lon="-5.799754000">
        <ele>66.8</ele>
        <time>2020-10-17T08:30:57Z</time>
      </trkpt>
      <trkpt lat="37.460518000" lon="-5.799879000">
        <ele>66.9</ele>
        <time>2020-10-17T08:30:59Z</time>
      </trkpt>
      <trkpt lat="37.460472000" lon="-5.799996000">
        <ele>67.0</ele>
        <time>2020-10-17T08:31:01Z</time>
      </trkpt>
      <trkpt lat="37.460427000" lon="-5.800101000">
        <ele>67.2</ele>
        <time>2020-10-17T08:31:03Z</time>
      </trkpt>
      <trkpt lat="37.460399000" lon="-5.800202000">
        <ele>67.4</ele>
        <time>2020-10-17T08:31:05Z</time>
      </trkpt>
      <trkpt lat="37.460357000" lon="-5.800296000">
        <ele>67.5</ele>
        <time>2020-10-17T08:31:07Z</time>
      </trkpt>
      <trkpt lat="37.460317000" lon="-5.800393000">
        <ele>67.6</ele>
        <time>2020-10-17T08:31:09Z</time>
      </trkpt>
      <trkpt lat="37.460277000" lon="-5.800493000">
        <ele>67.6</ele>
        <time>2020-10-17T08:31:11Z</time>
      </trkpt>
      <trkpt lat="37.460240000" lon="-5.800595000">
        <ele>67.5</ele>
        <time>2020-10-17T08:31:13Z</time>
      </trkpt>
      <trkpt lat="37.460195000" lon="-5.800699000">
        <ele>67.4</ele>
        <time>2020-10-17T08:31:15Z</time>
      </trkpt>
      <trkpt lat="37.460154000" lon="-5.800801000">
        <ele>67.1</ele>
        <time>2020-10-17T08:31:17Z</time>
      </trkpt>
      <trkpt lat="37.460117000" lon="-5.800909000">
        <ele>66.8</ele>
        <time>2020-10-17T08:31:19Z</time>
      </trkpt>
      <trkpt lat="37.460081000" lon="-5.801032000">
        <ele>66.5</ele>
        <time>2020-10-17T08:31:21Z</time>
      </trkpt>
      <trkpt lat="37.460037000" lon="-5.801144000">
        <ele>66.4</ele>
        <time>2020-10-17T08:31:23Z</time>
      </trkpt>
      <trkpt lat="37.460001000" lon="-5.801259000">
        <ele>66.2</ele>
        <time>2020-10-17T08:31:25Z</time>
      </trkpt>
      <trkpt lat="37.459969000" lon="-5.801376000">
        <ele>66.1</ele>
        <time>2020-10-17T08:31:27Z</time>
      </trkpt>
      <trkpt lat="37.459928000" lon="-5.801483000">
        <ele>66.1</ele>
        <time>2020-10-17T08:31:29Z</time>
      </trkpt>
      <trkpt lat="37.459886000" lon="-5.801597000">
        <ele>66.2</ele>
        <time>2020-10-17T08:31:31Z</time>
      </trkpt>
      <trkpt lat="37.459854000" lon="-5.801723000">
        <ele>66.4</ele>
        <time>2020-10-17T08:31:33Z</time>
      </trkpt>
      <trkpt lat="37.459826000" lon="-5.801853000">
        <ele>66.6</ele>
        <time>2020-10-17T08:31:35Z</time>
      </trkpt>
      <trkpt lat="37.459797000" lon="-5.801989000">
        <ele>67.0</ele>
        <time>2020-10-17T08:31:37Z</time>
      </trkpt>
      <trkpt lat="37.459777000" lon="-5.802131000">
        <ele>67.5</ele>
        <time>2020-10-17T08:31:39Z</time>
      </trkpt>
      <trkpt lat="37.459747000" lon="-5.802258000">
        <ele>67.8</ele>
        <time>2020-10-17T08:31:41Z</time>
      </trkpt>
      <trkpt lat="37.459718000" lon="-5.802378000">
        <ele>68.2</ele>
        <time>2020-10-17T08:31:43Z</time>
      </trkpt>
      <trkpt lat="37.459693000" lon="-5.802497000">
        <ele>68.5</ele>
        <time>2020-10-17T08:31:45Z</time>
      </trkpt>
      <trkpt lat="37.459657000" lon="-5.802608000">
        <ele>68.7</ele>
        <time>2020-10-17T08:31:47Z</time>
      </trkpt>
      <trkpt lat="37.459630000" lon="-5.802726000">
        <ele>69.0</ele>
        <time>2020-10-17T08:31:49Z</time>
      </trkpt>
      <trkpt lat="37.459603000" lon="-5.802844000">
        <ele>69.2</ele>
        <time>2020-10-17T08:31:51Z</time>
      </trkpt>
      <trkpt lat="37.459580000" lon="-5.802967000">
        <ele>69.4</ele>
        <time>2020-10-17T08:31:53Z</time>
      </trkpt>
      <trkpt lat="37.459552000" lon="-5.803083000">
        <ele>69.5</ele>
        <time>2020-10-17T08:31:55Z</time>
      </trkpt>
      <trkpt lat="37.459521000" lon="-5.803207000">
        <ele>69.5</ele>
        <time>2020-10-17T08:31:57Z</time>
      </trkpt>
      <trkpt lat="37.459497000" lon="-5.803324000">
        <ele>69.5</ele>
        <time>2020-10-17T08:31:59Z</time>
      </trkpt>
      <trkpt lat="37.459471000" lon="-5.803457000">
        <ele>69.4</ele>
        <time>2020-10-17T08:32:01Z</time>
      </trkpt>
      <trkpt lat="37.459456000" lon="-5.803592000">
        <ele>69.4</ele>
        <time>2020-10-17T08:32:03Z</time>
      </trkpt>
      <trkpt lat="37.459444000" lon="-5.803730000">
        <ele>69.4</ele>
        <time>2020-10-17T08:32:05Z</time>
      </trkpt>
      <trkpt lat="37.459452000" lon="-5.803865000">
        <ele>69.4</ele>
        <time>2020-10-17T08:32:07Z</time>
      </trkpt>
      <trkpt lat="37.459467000" lon="-5.804007000">
        <ele>69.4</ele>
        <time>2020-10-17T08:32:09Z</time>
      </trkpt>
      <trkpt lat="37.459480000" lon="-5.804147000">
        <ele>69.3</ele>
        <time>2020-10-17T08:32:11Z</time>
      </trkpt>
      <trkpt lat="37.459490000" lon="-5.804289000">
        <ele>69.3</ele>
        <time>2020-10-17T08:32:13Z</time>
      </trkpt>
      <trkpt lat="37.459500000" lon="-5.804430000">
        <ele>69.3</ele>
        <time>2020-10-17T08:32:15Z</time>
      </trkpt>
      <trkpt lat="37.459501000" lon="-5.804570000">
        <ele>69.3</ele>
        <time>2020-10-17T08:32:17Z</time>
      </trkpt>
      <trkpt lat="37.459502000" lon="-5.804708000">
        <ele>69.4</ele>
        <time>2020-10-17T08:32:19Z</time>
      </trkpt>
      <trkpt lat="37.459503000" lon="-5.804850000">
        <ele>69.5</ele>
        <time>2020-10-17T08:32:21Z</time>
      </trkpt>
      <trkpt lat="37.459500000" lon="-5.804989000">
        <ele>69.5</ele>
        <time>2020-10-17T08:32:23Z</time>
      </trkpt>
      <trkpt lat="37.459488000" lon="-5.805128000">
        <ele>69.6</ele>
        <time>2020-10-17T08:32:25Z</time>
      </trkpt>
      <trkpt lat="37.459469000" lon="-5.805265000">
        <ele>69.7</ele>
        <time>2020-10-17T08:32:27Z</time>
      </trkpt>
      <trkpt lat="37.459452000" lon="-5.805404000">
        <ele>69.7</ele>
        <time>2020-10-17T08:32:29Z</time>
      </trkpt>
      <trkpt lat="37.459438000" lon="-5.805536000">
        <ele>69.7</ele>
        <time>2020-10-17T08:32:31Z</time>
      </trkpt>
      <trkpt lat="37.459425000" lon="-5.805648000">
        <ele>69.8</ele>
        <time>2020-10-17T08:32:33Z</time>
      </trkpt>
      <trkpt lat="37.459413000" lon="-5.805761000">
        <ele>69.8</ele>
        <time>2020-10-17T08:32:35Z</time>
      </trkpt>
      <trkpt lat="37.459398000" lon="-5.805907000">
        <ele>69.8</ele>
        <time>2020-10-17T08:32:38Z</time>
      </trkpt>
      <trkpt lat="37.459374000" lon="-5.806053000">
        <ele>69.8</ele>
        <time>2020-10-17T08:32:41Z</time>
      </trkpt>
      <trkpt lat="37.459341000" lon="-5.806155000">
        <ele>69.8</ele>
        <time>2020-10-17T08:32:43Z</time>
      </trkpt>
      <trkpt lat="37.459300000" lon="-5.806253000">
        <ele>69.9</ele>
        <time>2020-10-17T08:32:45Z</time>
      </trkpt>
      <trkpt lat="37.459249000" lon="-5.806338000">
        <ele>70.0</ele>
        <time>2020-10-17T08:32:47Z</time>
      </trkpt>
      <trkpt lat="37.459167000" lon="-5.806425000">
        <ele>70.1</ele>
        <time>2020-10-17T08:32:50Z</time>
      </trkpt>
      <trkpt lat="37.459106000" lon="-5.806531000">
        <ele>70.2</ele>
        <time>2020-10-17T08:32:53Z</time>
      </trkpt>
      <trkpt lat="37.459046000" lon="-5.806659000">
        <ele>70.3</ele>
        <time>2020-10-17T08:32:56Z</time>
      </trkpt>
      <trkpt lat="37.459001000" lon="-5.806749000">
        <ele>70.4</ele>
        <time>2020-10-17T08:32:58Z</time>
      </trkpt>
      <trkpt lat="37.458956000" lon="-5.806845000">
        <ele>70.4</ele>
        <time>2020-10-17T08:33:00Z</time>
      </trkpt>
      <trkpt lat="37.458916000" lon="-5.806937000">
        <ele>70.4</ele>
        <time>2020-10-17T08:33:02Z</time>
      </trkpt>
      <trkpt lat="37.458869000" lon="-5.807021000">
        <ele>70.4</ele>
        <time>2020-10-17T08:33:04Z</time>
      </trkpt>
      <trkpt lat="37.458789000" lon="-5.807135000">
        <ele>70.4</ele>
        <time>2020-10-17T08:33:07Z</time>
      </trkpt>
      <trkpt lat="37.458739000" lon="-5.807225000">
        <ele>70.4</ele>
        <time>2020-10-17T08:33:09Z</time>
      </trkpt>
      <trkpt lat="37.458681000" lon="-5.807326000">
        <ele>70.3</ele>
        <time>2020-10-17T08:33:11Z</time>
      </trkpt>
      <trkpt lat="37.458620000" lon="-5.807430000">
        <ele>70.1</ele>
        <time>2020-10-17T08:33:13Z</time>
      </trkpt>
      <trkpt lat="37.458558000" lon="-5.807529000">
        <ele>69.9</ele>
        <time>2020-10-17T08:33:15Z</time>
      </trkpt>
      <trkpt lat="37.458496000" lon="-5.807623000">
        <ele>69.7</ele>
        <time>2020-10-17T08:33:17Z</time>
      </trkpt>
      <trkpt lat="37.458424000" lon="-5.807722000">
        <ele>69.6</ele>
        <time>2020-10-17T08:33:19Z</time>
      </trkpt>
      <trkpt lat="37.458352000" lon="-5.807825000">
        <ele>69.5</ele>
        <time>2020-10-17T08:33:21Z</time>
      </trkpt>
      <trkpt lat="37.458284000" lon="-5.807936000">
        <ele>69.5</ele>
        <time>2020-10-17T08:33:23Z</time>
      </trkpt>
      <trkpt lat="37.458203000" lon="-5.808042000">
        <ele>69.5</ele>
        <time>2020-10-17T08:33:25Z</time>
      </trkpt>
      <trkpt lat="37.458128000" lon="-5.808151000">
        <ele>69.4</ele>
        <time>2020-10-17T08:33:27Z</time>
      </trkpt>
      <trkpt lat="37.458061000" lon="-5.808266000">
        <ele>69.3</ele>
        <time>2020-10-17T08:33:29Z</time>
      </trkpt>
      <trkpt lat="37.457996000" lon="-5.808382000">
        <ele>69.2</ele>
        <time>2020-10-17T08:33:31Z</time>
      </trkpt>
      <trkpt lat="37.457938000" lon="-5.808501000">
        <ele>69.2</ele>
        <time>2020-10-17T08:33:33Z</time>
      </trkpt>
      <trkpt lat="37.457873000" lon="-5.808605000">
        <ele>69.3</ele>
        <time>2020-10-17T08:33:35Z</time>
      </trkpt>
      <trkpt lat="37.457816000" lon="-5.808716000">
        <ele>69.4</ele>
        <time>2020-10-17T08:33:37Z</time>
      </trkpt>
      <trkpt lat="37.457764000" lon="-5.808820000">
        <ele>69.5</ele>
        <time>2020-10-17T08:33:39Z</time>
      </trkpt>
      <trkpt lat="37.457703000" lon="-5.808929000">
        <ele>69.5</ele>
        <time>2020-10-17T08:33:41Z</time>
      </trkpt>
      <trkpt lat="37.457638000" lon="-5.809034000">
        <ele>69.6</ele>
        <time>2020-10-17T08:33:43Z</time>
      </trkpt>
      <trkpt lat="37.457569000" lon="-5.809126000">
        <ele>69.6</ele>
        <time>2020-10-17T08:33:45Z</time>
      </trkpt>
      <trkpt lat="37.457506000" lon="-5.809222000">
        <ele>69.7</ele>
        <time>2020-10-17T08:33:47Z</time>
      </trkpt>
      <trkpt lat="37.457446000" lon="-5.809315000">
        <ele>69.8</ele>
        <time>2020-10-17T08:33:49Z</time>
      </trkpt>
      <trkpt lat="37.457392000" lon="-5.809424000">
        <ele>69.9</ele>
        <time>2020-10-17T08:33:51Z</time>
      </trkpt>
      <trkpt lat="37.457348000" lon="-5.809534000">
        <ele>70.0</ele>
        <time>2020-10-17T08:33:53Z</time>
      </trkpt>
      <trkpt lat="37.457303000" lon="-5.809635000">
        <ele>70.0</ele>
        <time>2020-10-17T08:33:55Z</time>
      </trkpt>
      <trkpt lat="37.457265000" lon="-5.809734000">
        <ele>70.0</ele>
        <time>2020-10-17T08:33:57Z</time>
      </trkpt>
      <trkpt lat="37.457236000" lon="-5.809837000">
        <ele>70.0</ele>
        <time>2020-10-17T08:33:59Z</time>
      </trkpt>
      <trkpt lat="37.457208000" lon="-5.809947000">
        <ele>69.9</ele>
        <time>2020-10-17T08:34:01Z</time>
      </trkpt>
      <trkpt lat="37.457180000" lon="-5.810063000">
        <ele>69.8</ele>
        <time>2020-10-17T08:34:03Z</time>
      </trkpt>
      <trkpt lat="37.457154000" lon="-5.810181000">
        <ele>69.7</ele>
        <time>2020-10-17T08:34:05Z</time>
      </trkpt>
      <trkpt lat="37.457135000" lon="-5.810311000">
        <ele>69.6</ele>
        <time>2020-10-17T08:34:07Z</time>
      </trkpt>
      <trkpt lat="37.457110000" lon="-5.810436000">
        <ele>69.5</ele>
        <time>2020-10-17T08:34:09Z</time>
      </trkpt>
      <trkpt lat="37.457082000" lon="-5.810564000">
        <ele>69.5</ele>
        <time>2020-10-17T08:34:11Z</time>
      </trkpt>
      <trkpt lat="37.457058000" lon="-5.810686000">
        <ele>69.4</ele>
        <time>2020-10-17T08:34:13Z</time>
      </trkpt>
      <trkpt lat="37.457032000" lon="-5.810804000">
        <ele>69.3</ele>
        <time>2020-10-17T08:34:15Z</time>
      </trkpt>
      <trkpt lat="37.457001000" lon="-5.810916000">
        <ele>69.2</ele>
        <time>2020-10-17T08:34:17Z</time>
      </trkpt>
      <trkpt lat="37.456961000" lon="-5.811007000">
        <ele>69.1</ele>
        <time>2020-10-17T08:34:19Z</time>
      </trkpt>
      <trkpt lat="37.456920000" lon="-5.811102000">
        <ele>69.0</ele>
        <time>2020-10-17T08:34:21Z</time>
      </trkpt>
      <trkpt lat="37.456871000" lon="-5.811189000">
        <ele>68.9</ele>
        <time>2020-10-17T08:34:23Z</time>
      </trkpt>
      <trkpt lat="37.456821000" lon="-5.811276000">
        <ele>68.8</ele>
        <time>2020-10-17T08:34:25Z</time>
      </trkpt>
      <trkpt lat="37.456751000" lon="-5.811398000">
        <ele>68.6</ele>
        <time>2020-10-17T08:34:28Z</time>
      </trkpt>
      <trkpt lat="37.456662000" lon="-5.811494000">
        <ele>68.5</ele>
        <time>2020-10-17T08:34:31Z</time>
      </trkpt>
      <trkpt lat="37.456581000" lon="-5.811592000">
        <ele>68.3</ele>
        <time>2020-10-17T08:34:34Z</time>
      </trkpt>
      <trkpt lat="37.456491000" lon="-5.811672000">
        <ele>68.1</ele>
        <time>2020-10-17T08:34:37Z</time>
      </trkpt>
      <trkpt lat="37.456393000" lon="-5.811724000">
        <ele>67.9</ele>
        <time>2020-10-17T08:34:40Z</time>
      </trkpt>
      <trkpt lat="37.456293000" lon="-5.811778000">
        <ele>67.7</ele>
        <time>2020-10-17T08:34:43Z</time>
      </trkpt>
      <trkpt lat="37.456173000" lon="-5.811821000">
        <ele>67.5</ele>
        <time>2020-10-17T08:34:46Z</time>
      </trkpt>
      <trkpt lat="37.456089000" lon="-5.811847000">
        <ele>67.3</ele>
        <time>2020-10-17T08:34:48Z</time>
      </trkpt>
      <trkpt lat="37.456005000" lon="-5.811870000">
        <ele>67.0</ele>
        <time>2020-10-17T08:34:50Z</time>
      </trkpt>
      <trkpt lat="37.455924000" lon="-5.811895000">
        <ele>66.8</ele>
        <time>2020-10-17T08:34:52Z</time>
      </trkpt>
      <trkpt lat="37.455844000" lon="-5.811922000">
        <ele>66.6</ele>
        <time>2020-10-17T08:34:54Z</time>
      </trkpt>
      <trkpt lat="37.455768000" lon="-5.811963000">
        <ele>66.5</ele>
        <time>2020-10-17T08:34:56Z</time>
      </trkpt>
      <trkpt lat="37.455691000" lon="-5.812010000">
        <ele>66.4</ele>
        <time>2020-10-17T08:34:58Z</time>
      </trkpt>
      <trkpt lat="37.455623000" lon="-5.812074000">
        <ele>66.2</ele>
        <time>2020-10-17T08:35:00Z</time>
      </trkpt>
      <trkpt lat="37.455587000" lon="-5.812170000">
        <ele>66.0</ele>
        <time>2020-10-17T08:35:02Z</time>
      </trkpt>
      <trkpt lat="37.455577000" lon="-5.812278000">
        <ele>65.9</ele>
        <time>2020-10-17T08:35:04Z</time>
      </trkpt>
      <trkpt lat="37.455588000" lon="-5.812398000">
        <ele>65.8</ele>
        <time>2020-10-17T08:35:06Z</time>
      </trkpt>
      <trkpt lat="37.455598000" lon="-5.812527000">
        <ele>65.7</ele>
        <time>2020-10-17T08:35:08Z</time>
      </trkpt>
      <trkpt lat="37.455609000" lon="-5.812652000">
        <ele>65.7</ele>
        <time>2020-10-17T08:35:10Z</time>
      </trkpt>
      <trkpt lat="37.455620000" lon="-5.812771000">
        <ele>65.7</ele>
        <time>2020-10-17T08:35:12Z</time>
      </trkpt>
      <trkpt lat="37.455635000" lon="-5.812900000">
        <ele>65.6</ele>
        <time>2020-10-17T08:35:14Z</time>
      </trkpt>
      <trkpt lat="37.455648000" lon="-5.813028000">
        <ele>65.5</ele>
        <time>2020-10-17T08:35:16Z</time>
      </trkpt>
      <trkpt lat="37.455657000" lon="-5.813143000">
        <ele>65.3</ele>
        <time>2020-10-17T08:35:18Z</time>
      </trkpt>
      <trkpt lat="37.455670000" lon="-5.813246000">
        <ele>65.2</ele>
        <time>2020-10-17T08:35:20Z</time>
      </trkpt>
      <trkpt lat="37.455686000" lon="-5.813362000">
        <ele>65.0</ele>
        <time>2020-10-17T08:35:22Z</time>
      </trkpt>
      <trkpt lat="37.455697000" lon="-5.813477000">
        <ele>64.8</ele>
        <time>2020-10-17T08:35:24Z</time>
      </trkpt>
      <trkpt lat="37.455715000" lon="-5.813597000">
        <ele>64.5</ele>
        <time>2020-10-17T08:35:26Z</time>
      </trkpt>
      <trkpt lat="37.455726000" lon="-5.813701000">
        <ele>64.2</ele>
        <time>2020-10-17T08:35:28Z</time>
      </trkpt>
      <trkpt lat="37.455743000" lon="-5.813818000">
        <ele>63.8</ele>
        <time>2020-10-17T08:35:30Z</time>
      </trkpt>
      <trkpt lat="37.455760000" lon="-5.813947000">
        <ele>63.5</ele>
        <time>2020-10-17T08:35:32Z</time>
      </trkpt>
      <trkpt lat="37.455769000" lon="-5.814085000">
        <ele>63.1</ele>
        <time>2020-10-17T08:35:34Z</time>
      </trkpt>
      <trkpt lat="37.455776000" lon="-5.814229000">
        <ele>62.8</ele>
        <time>2020-10-17T08:35:36Z</time>
      </trkpt>
      <trkpt lat="37.455788000" lon="-5.814382000">
        <ele>62.5</ele>
        <time>2020-10-17T08:35:38Z</time>
      </trkpt>
      <trkpt lat="37.455804000" lon="-5.814531000">
        <ele>62.3</ele>
        <time>2020-10-17T08:35:40Z</time>
      </trkpt>
      <trkpt lat="37.455814000" lon="-5.814685000">
        <ele>62.0</ele>
        <time>2020-10-17T08:35:42Z</time>
      </trkpt>
      <trkpt lat="37.455828000" lon="-5.814841000">
        <ele>61.8</ele>
        <time>2020-10-17T08:35:44Z</time>
      </trkpt>
      <trkpt lat="37.455844000" lon="-5.814999000">
        <ele>61.5</ele>
        <time>2020-10-17T08:35:46Z</time>
      </trkpt>
      <trkpt lat="37.455862000" lon="-5.815159000">
        <ele>61.3</ele>
        <time>2020-10-17T08:35:48Z</time>
      </trkpt>
      <trkpt lat="37.455877000" lon="-5.815313000">
        <ele>61.0</ele>
        <time>2020-10-17T08:35:50Z</time>
      </trkpt>
      <trkpt lat="37.455886000" lon="-5.815471000">
        <ele>60.7</ele>
        <time>2020-10-17T08:35:52Z</time>
      </trkpt>
      <trkpt lat="37.455896000" lon="-5.815624000">
        <ele>60.5</ele>
        <time>2020-10-17T08:35:54Z</time>
      </trkpt>
      <trkpt lat="37.455896000" lon="-5.815774000">
        <ele>60.2</ele>
        <time>2020-10-17T08:35:56Z</time>
      </trkpt>
      <trkpt lat="37.455901000" lon="-5.815919000">
        <ele>59.9</ele>
        <time>2020-10-17T08:35:58Z</time>
      </trkpt>
      <trkpt lat="37.455899000" lon="-5.816057000">
        <ele>59.7</ele>
        <time>2020-10-17T08:36:00Z</time>
      </trkpt>
      <trkpt lat="37.455887000" lon="-5.816199000">
        <ele>59.5</ele>
        <time>2020-10-17T08:36:02Z</time>
      </trkpt>
      <trkpt lat="37.455868000" lon="-5.816329000">
        <ele>59.4</ele>
        <time>2020-10-17T08:36:04Z</time>
      </trkpt>
      <trkpt lat="37.455839000" lon="-5.816454000">
        <ele>59.2</ele>
        <time>2020-10-17T08:36:06Z</time>
      </trkpt>
      <trkpt lat="37.455815000" lon="-5.816571000">
        <ele>59.1</ele>
        <time>2020-10-17T08:36:08Z</time>
      </trkpt>
      <trkpt lat="37.455785000" lon="-5.816678000">
        <ele>59.0</ele>
        <time>2020-10-17T08:36:10Z</time>
      </trkpt>
      <trkpt lat="37.455753000" lon="-5.816798000">
        <ele>59.0</ele>
        <time>2020-10-17T08:36:12Z</time>
      </trkpt>
      <trkpt lat="37.455718000" lon="-5.816914000">
        <ele>59.0</ele>
        <time>2020-10-17T08:36:14Z</time>
      </trkpt>
      <trkpt lat="37.455691000" lon="-5.817035000">
        <ele>58.9</ele>
        <time>2020-10-17T08:36:16Z</time>
      </trkpt>
      <trkpt lat="37.455657000" lon="-5.817166000">
        <ele>58.8</ele>
        <time>2020-10-17T08:36:18Z</time>
      </trkpt>
      <trkpt lat="37.455623000" lon="-5.817293000">
        <ele>58.7</ele>
        <time>2020-10-17T08:36:20Z</time>
      </trkpt>
      <trkpt lat="37.455588000" lon="-5.817417000">
        <ele>58.6</ele>
        <time>2020-10-17T08:36:22Z</time>
      </trkpt>
      <trkpt lat="37.455552000" lon="-5.817533000">
        <ele>58.5</ele>
        <time>2020-10-17T08:36:24Z</time>
      </trkpt>
      <trkpt lat="37.455518000" lon="-5.817644000">
        <ele>58.4</ele>
        <time>2020-10-17T08:36:26Z</time>
      </trkpt>
      <trkpt lat="37.455490000" lon="-5.817752000">
        <ele>58.2</ele>
        <time>2020-10-17T08:36:28Z</time>
      </trkpt>
      <trkpt lat="37.455453000" lon="-5.817854000">
        <ele>57.9</ele>
        <time>2020-10-17T08:36:30Z</time>
      </trkpt>
      <trkpt lat="37.455413000" lon="-5.817965000">
        <ele>57.5</ele>
        <time>2020-10-17T08:36:32Z</time>
      </trkpt>
      <trkpt lat="37.455377000" lon="-5.818075000">
        <ele>57.2</ele>
        <time>2020-10-17T08:36:34Z</time>
      </trkpt>
      <trkpt lat="37.455350000" lon="-5.818196000">
        <ele>56.7</ele>
        <time>2020-10-17T08:36:36Z</time>
      </trkpt>
      <trkpt lat="37.455324000" lon="-5.818320000">
        <ele>56.4</ele>
        <time>2020-10-17T08:36:38Z</time>
      </trkpt>
      <trkpt lat="37.455311000" lon="-5.818441000">
        <ele>56.0</ele>
        <time>2020-10-17T08:36:40Z</time>
      </trkpt>
      <trkpt lat="37.455291000" lon="-5.818560000">
        <ele>55.5</ele>
        <time>2020-10-17T08:36:42Z</time>
      </trkpt>
      <trkpt lat="37.455273000" lon="-5.818677000">
        <ele>55.1</ele>
        <time>2020-10-17T08:36:44Z</time>
      </trkpt>
      <trkpt lat="37.455261000" lon="-5.818791000">
        <ele>54.7</ele>
        <time>2020-10-17T08:36:46Z</time>
      </trkpt>
      <trkpt lat="37.455247000" lon="-5.818899000">
        <ele>54.5</ele>
        <time>2020-10-17T08:36:48Z</time>
      </trkpt>
      <trkpt lat="37.455227000" lon="-5.819000000">
        <ele>54.3</ele>
        <time>2020-10-17T08:36:50Z</time>
      </trkpt>
      <trkpt lat="37.455196000" lon="-5.819154000">
        <ele>54.3</ele>
        <time>2020-10-17T08:36:53Z</time>
      </trkpt>
      <trkpt lat="37.455168000" lon="-5.819253000">
        <ele>54.4</ele>
        <time>2020-10-17T08:36:55Z</time>
      </trkpt>
      <trkpt lat="37.455126000" lon="-5.819386000">
        <ele>54.5</ele>
        <time>2020-10-17T08:36:58Z</time>
      </trkpt>
      <trkpt lat="37.455110000" lon="-5.819486000">
        <ele>54.8</ele>
        <time>2020-10-17T08:37:00Z</time>
      </trkpt>
      <trkpt lat="37.455097000" lon="-5.819589000">
        <ele>55.0</ele>
        <time>2020-10-17T08:37:02Z</time>
      </trkpt>
      <trkpt lat="37.455083000" lon="-5.819701000">
        <ele>55.1</ele>
        <time>2020-10-17T08:37:04Z</time>
      </trkpt>
      <trkpt lat="37.455059000" lon="-5.819822000">
        <ele>55.3</ele>
        <time>2020-10-17T08:37:06Z</time>
      </trkpt>
      <trkpt lat="37.455025000" lon="-5.819938000">
        <ele>55.5</ele>
        <time>2020-10-17T08:37:08Z</time>
      </trkpt>
      <trkpt lat="37.454993000" lon="-5.820056000">
        <ele>55.5</ele>
        <time>2020-10-17T08:37:10Z</time>
      </trkpt>
      <trkpt lat="37.454960000" lon="-5.820169000">
        <ele>55.5</ele>
        <time>2020-10-17T08:37:12Z</time>
      </trkpt>
      <trkpt lat="37.454934000" lon="-5.820273000">
        <ele>55.5</ele>
        <time>2020-10-17T08:37:14Z</time>
      </trkpt>
      <trkpt lat="37.454916000" lon="-5.820376000">
        <ele>55.3</ele>
        <time>2020-10-17T08:37:16Z</time>
      </trkpt>
      <trkpt lat="37.454905000" lon="-5.820478000">
        <ele>55.1</ele>
        <time>2020-10-17T08:37:18Z</time>
      </trkpt>
      <trkpt lat="37.454887000" lon="-5.820579000">
        <ele>54.8</ele>
        <time>2020-10-17T08:37:20Z</time>
      </trkpt>
      <trkpt lat="37.454850000" lon="-5.820720000">
        <ele>54.5</ele>
        <time>2020-10-17T08:37:23Z</time>
      </trkpt>
      <trkpt lat="37.454829000" lon="-5.820819000">
        <ele>54.4</ele>
        <time>2020-10-17T08:37:25Z</time>
      </trkpt>
      <trkpt lat="37.454809000" lon="-5.820928000">
        <ele>54.3</ele>
        <time>2020-10-17T08:37:27Z</time>
      </trkpt>
      <trkpt lat="37.454783000" lon="-5.821031000">
        <ele>54.1</ele>
        <time>2020-10-17T08:37:29Z</time>
      </trkpt>
      <trkpt lat="37.454756000" lon="-5.821132000">
        <ele>53.9</ele>
        <time>2020-10-17T08:37:31Z</time>
      </trkpt>
      <trkpt lat="37.454734000" lon="-5.821231000">
        <ele>53.8</ele>
        <time>2020-10-17T08:37:33Z</time>
      </trkpt>
      <trkpt lat="37.454701000" lon="-5.821373000">
        <ele>53.8</ele>
        <time>2020-10-17T08:37:36Z</time>
      </trkpt>
      <trkpt lat="37.454701000" lon="-5.821511000">
        <ele>53.8</ele>
        <time>2020-10-17T08:37:40Z</time>
      </trkpt>
      <trkpt lat="37.454689000" lon="-5.821631000">
        <ele>53.8</ele>
        <time>2020-10-17T08:37:42Z</time>
      </trkpt>
      <trkpt lat="37.454664000" lon="-5.821741000">
        <ele>53.8</ele>
        <time>2020-10-17T08:37:45Z</time>
      </trkpt>
      <trkpt lat="37.454614000" lon="-5.821841000">
        <ele>53.8</ele>
        <time>2020-10-17T08:37:48Z</time>
      </trkpt>
      <trkpt lat="37.454538000" lon="-5.821964000">
        <ele>53.8</ele>
        <time>2020-10-17T08:37:51Z</time>
      </trkpt>
      <trkpt lat="37.454483000" lon="-5.822042000">
        <ele>53.8</ele>
        <time>2020-10-17T08:37:53Z</time>
      </trkpt>
      <trkpt lat="37.454398000" lon="-5.822145000">
        <ele>53.9</ele>
        <time>2020-10-17T08:37:56Z</time>
      </trkpt>
      <trkpt lat="37.454336000" lon="-5.822259000">
        <ele>54.1</ele>
        <time>2020-10-17T08:37:59Z</time>
      </trkpt>
      <trkpt lat="37.454271000" lon="-5.822359000">
        <ele>54.3</ele>
        <time>2020-10-17T08:38:02Z</time>
      </trkpt>
      <trkpt lat="37.454196000" lon="-5.822475000">
        <ele>54.3</ele>
        <time>2020-10-17T08:38:05Z</time>
      </trkpt>
      <trkpt lat="37.454130000" lon="-5.822557000">
        <ele>54.3</ele>
        <time>2020-10-17T08:38:07Z</time>
      </trkpt>
      <trkpt lat="37.454083000" lon="-5.822648000">
        <ele>54.3</ele>
        <time>2020-10-17T08:38:09Z</time>
      </trkpt>
      <trkpt lat="37.454023000" lon="-5.822726000">
        <ele>54.3</ele>
        <time>2020-10-17T08:38:11Z</time>
      </trkpt>
      <trkpt lat="37.453974000" lon="-5.822863000">
        <ele>54.2</ele>
        <time>2020-10-17T08:38:14Z</time>
      </trkpt>
      <trkpt lat="37.453931000" lon="-5.822953000">
        <ele>54.1</ele>
        <time>2020-10-17T08:38:16Z</time>
      </trkpt>
      <trkpt lat="37.453864000" lon="-5.823076000">
        <ele>54.0</ele>
        <time>2020-10-17T08:38:19Z</time>
      </trkpt>
      <trkpt lat="37.453806000" lon="-5.823200000">
        <ele>53.9</ele>
        <time>2020-10-17T08:38:22Z</time>
      </trkpt>
      <trkpt lat="37.453765000" lon="-5.823288000">
        <ele>53.8</ele>
        <time>2020-10-17T08:38:24Z</time>
      </trkpt>
      <trkpt lat="37.453722000" lon="-5.823392000">
        <ele>53.7</ele>
        <time>2020-10-17T08:38:26Z</time>
      </trkpt>
      <trkpt lat="37.453678000" lon="-5.823491000">
        <ele>53.6</ele>
        <time>2020-10-17T08:38:28Z</time>
      </trkpt>
      <trkpt lat="37.453636000" lon="-5.823589000">
        <ele>53.6</ele>
        <time>2020-10-17T08:38:30Z</time>
      </trkpt>
      <trkpt lat="37.453597000" lon="-5.823683000">
        <ele>53.6</ele>
        <time>2020-10-17T08:38:32Z</time>
      </trkpt>
      <trkpt lat="37.453560000" lon="-5.823775000">
        <ele>53.6</ele>
        <time>2020-10-17T08:38:34Z</time>
      </trkpt>
      <trkpt lat="37.453525000" lon="-5.823878000">
        <ele>53.5</ele>
        <time>2020-10-17T08:38:36Z</time>
      </trkpt>
      <trkpt lat="37.453487000" lon="-5.823978000">
        <ele>53.5</ele>
        <time>2020-10-17T08:38:38Z</time>
      </trkpt>
      <trkpt lat="37.453445000" lon="-5.824081000">
        <ele>53.5</ele>
        <time>2020-10-17T08:38:40Z</time>
      </trkpt>
      <trkpt lat="37.453409000" lon="-5.824188000">
        <ele>53.4</ele>
        <time>2020-10-17T08:38:42Z</time>
      </trkpt>
      <trkpt lat="37.453378000" lon="-5.824296000">
        <ele>53.3</ele>
        <time>2020-10-17T08:38:44Z</time>
      </trkpt>
      <trkpt lat="37.453346000" lon="-5.824407000">
        <ele>53.0</ele>
        <time>2020-10-17T08:38:46Z</time>
      </trkpt>
      <trkpt lat="37.453320000" lon="-5.824518000">
        <ele>52.7</ele>
        <time>2020-10-17T08:38:49Z</time>
      </trkpt>
      <trkpt lat="37.453292000" lon="-5.824630000">
        <ele>52.5</ele>
        <time>2020-10-17T08:38:50Z</time>
      </trkpt>
      <trkpt lat="37.453265000" lon="-5.824739000">
        <ele>52.2</ele>
        <time>2020-10-17T08:38:52Z</time>
      </trkpt>
      <trkpt lat="37.453241000" lon="-5.824848000">
        <ele>51.9</ele>
        <time>2020-10-17T08:38:54Z</time>
      </trkpt>
      <trkpt lat="37.453214000" lon="-5.824954000">
        <ele>51.6</ele>
        <time>2020-10-17T08:38:56Z</time>
      </trkpt>
      <trkpt lat="37.453191000" lon="-5.825068000">
        <ele>51.5</ele>
        <time>2020-10-17T08:38:59Z</time>
      </trkpt>
      <trkpt lat="37.453179000" lon="-5.825185000">
        <ele>51.3</ele>
        <time>2020-10-17T08:39:03Z</time>
      </trkpt>
      <trkpt lat="37.453183000" lon="-5.825301000">
        <ele>51.2</ele>
        <time>2020-10-17T08:39:17Z</time>
      </trkpt>
      <trkpt lat="37.453074000" lon="-5.825448000">
        <ele>51.1</ele>
        <time>2020-10-17T08:39:18Z</time>
      </trkpt>
      <trkpt lat="37.453021000" lon="-5.825527000">
        <ele>51.1</ele>
        <time>2020-10-17T08:39:21Z</time>
      </trkpt>
      <trkpt lat="37.452961000" lon="-5.825626000">
        <ele>51.1</ele>
        <time>2020-10-17T08:39:24Z</time>
      </trkpt>
      <trkpt lat="37.452890000" lon="-5.825737000">
        <ele>51.1</ele>
        <time>2020-10-17T08:39:27Z</time>
      </trkpt>
      <trkpt lat="37.452824000" lon="-5.825862000">
        <ele>51.1</ele>
        <time>2020-10-17T08:39:30Z</time>
      </trkpt>
      <trkpt lat="37.452777000" lon="-5.825953000">
        <ele>51.1</ele>
        <time>2020-10-17T08:39:32Z</time>
      </trkpt>
      <trkpt lat="37.452737000" lon="-5.826059000">
        <ele>51.1</ele>
        <time>2020-10-17T08:39:34Z</time>
      </trkpt>
      <trkpt lat="37.452701000" lon="-5.826164000">
        <ele>51.1</ele>
        <time>2020-10-17T08:39:36Z</time>
      </trkpt>
      <trkpt lat="37.452674000" lon="-5.826274000">
        <ele>51.1</ele>
        <time>2020-10-17T08:39:38Z</time>
      </trkpt>
      <trkpt lat="37.452642000" lon="-5.826388000">
        <ele>51.1</ele>
        <time>2020-10-17T08:39:40Z</time>
      </trkpt>
      <trkpt lat="37.452617000" lon="-5.826505000">
        <ele>51.1</ele>
        <time>2020-10-17T08:39:42Z</time>
      </trkpt>
      <trkpt lat="37.452609000" lon="-5.826623000">
        <ele>51.1</ele>
        <time>2020-10-17T08:39:44Z</time>
      </trkpt>
      <trkpt lat="37.452601000" lon="-5.826748000">
        <ele>51.0</ele>
        <time>2020-10-17T08:39:46Z</time>
      </trkpt>
      <trkpt lat="37.452593000" lon="-5.826872000">
        <ele>50.9</ele>
        <time>2020-10-17T08:39:48Z</time>
      </trkpt>
      <trkpt lat="37.452590000" lon="-5.826993000">
        <ele>50.8</ele>
        <time>2020-10-17T08:39:50Z</time>
      </trkpt>
      <trkpt lat="37.452581000" lon="-5.827110000">
        <ele>50.8</ele>
        <time>2020-10-17T08:39:52Z</time>
      </trkpt>
      <trkpt lat="37.452573000" lon="-5.827227000">
        <ele>50.8</ele>
        <time>2020-10-17T08:39:54Z</time>
      </trkpt>
      <trkpt lat="37.452574000" lon="-5.827345000">
        <ele>50.8</ele>
        <time>2020-10-17T08:39:56Z</time>
      </trkpt>
      <trkpt lat="37.452568000" lon="-5.827459000">
        <ele>50.8</ele>
        <time>2020-10-17T08:39:58Z</time>
      </trkpt>
      <trkpt lat="37.452560000" lon="-5.827564000">
        <ele>50.8</ele>
        <time>2020-10-17T08:40:00Z</time>
      </trkpt>
      <trkpt lat="37.452556000" lon="-5.827675000">
        <ele>50.8</ele>
        <time>2020-10-17T08:40:02Z</time>
      </trkpt>
      <trkpt lat="37.452556000" lon="-5.827788000">
        <ele>50.9</ele>
        <time>2020-10-17T08:40:04Z</time>
      </trkpt>
      <trkpt lat="37.452556000" lon="-5.827897000">
        <ele>50.9</ele>
        <time>2020-10-17T08:40:06Z</time>
      </trkpt>
      <trkpt lat="37.452553000" lon="-5.828004000">
        <ele>50.9</ele>
        <time>2020-10-17T08:40:08Z</time>
      </trkpt>
      <trkpt lat="37.452550000" lon="-5.828114000">
        <ele>51.0</ele>
        <time>2020-10-17T08:40:10Z</time>
      </trkpt>
      <trkpt lat="37.452547000" lon="-5.828222000">
        <ele>51.1</ele>
        <time>2020-10-17T08:40:12Z</time>
      </trkpt>
      <trkpt lat="37.452547000" lon="-5.828329000">
        <ele>51.1</ele>
        <time>2020-10-17T08:40:14Z</time>
      </trkpt>
      <trkpt lat="37.452544000" lon="-5.828435000">
        <ele>51.1</ele>
        <time>2020-10-17T08:40:16Z</time>
      </trkpt>
      <trkpt lat="37.452544000" lon="-5.828540000">
        <ele>51.2</ele>
        <time>2020-10-17T08:40:18Z</time>
      </trkpt>
      <trkpt lat="37.452540000" lon="-5.828646000">
        <ele>51.3</ele>
        <time>2020-10-17T08:40:20Z</time>
      </trkpt>
      <trkpt lat="37.452534000" lon="-5.828755000">
        <ele>51.4</ele>
        <time>2020-10-17T08:40:22Z</time>
      </trkpt>
      <trkpt lat="37.452526000" lon="-5.828865000">
        <ele>51.5</ele>
        <time>2020-10-17T08:40:24Z</time>
      </trkpt>
      <trkpt lat="37.452516000" lon="-5.828974000">
        <ele>51.6</ele>
        <time>2020-10-17T08:40:26Z</time>
      </trkpt>
      <trkpt lat="37.452513000" lon="-5.829085000">
        <ele>51.9</ele>
        <time>2020-10-17T08:40:28Z</time>
      </trkpt>
      <trkpt lat="37.452508000" lon="-5.829193000">
        <ele>52.2</ele>
        <time>2020-10-17T08:40:30Z</time>
      </trkpt>
      <trkpt lat="37.452496000" lon="-5.829298000">
        <ele>52.5</ele>
        <time>2020-10-17T08:40:32Z</time>
      </trkpt>
      <trkpt lat="37.452481000" lon="-5.829402000">
        <ele>52.7</ele>
        <time>2020-10-17T08:40:34Z</time>
      </trkpt>
      <trkpt lat="37.452464000" lon="-5.829539000">
        <ele>53.0</ele>
        <time>2020-10-17T08:40:37Z</time>
      </trkpt>
      <trkpt lat="37.452453000" lon="-5.829641000">
        <ele>53.3</ele>
        <time>2020-10-17T08:40:40Z</time>
      </trkpt>
      <trkpt lat="37.452437000" lon="-5.829755000">
        <ele>53.5</ele>
        <time>2020-10-17T08:40:44Z</time>
      </trkpt>
      <trkpt lat="37.452419000" lon="-5.829885000">
        <ele>53.6</ele>
        <time>2020-10-17T08:40:48Z</time>
      </trkpt>
      <trkpt lat="37.452412000" lon="-5.830007000">
        <ele>53.8</ele>
        <time>2020-10-17T08:41:32Z</time>
      </trkpt>
      <trkpt lat="37.452400000" lon="-5.830121000">
        <ele>53.9</ele>
        <time>2020-10-17T08:41:35Z</time>
      </trkpt>
      <trkpt lat="37.452382000" lon="-5.830270000">
        <ele>54.1</ele>
        <time>2020-10-17T08:41:38Z</time>
      </trkpt>
      <trkpt lat="37.452370000" lon="-5.830423000">
        <ele>54.2</ele>
        <time>2020-10-17T08:41:41Z</time>
      </trkpt>
      <trkpt lat="37.452360000" lon="-5.830529000">
        <ele>54.3</ele>
        <time>2020-10-17T08:41:43Z</time>
      </trkpt>
      <trkpt lat="37.452353000" lon="-5.830638000">
        <ele>54.3</ele>
        <time>2020-10-17T08:41:45Z</time>
      </trkpt>
      <trkpt lat="37.452344000" lon="-5.830748000">
        <ele>54.3</ele>
        <time>2020-10-17T08:41:47Z</time>
      </trkpt>
      <trkpt lat="37.452332000" lon="-5.830864000">
        <ele>54.3</ele>
        <time>2020-10-17T08:41:49Z</time>
      </trkpt>
      <trkpt lat="37.452320000" lon="-5.830981000">
        <ele>54.2</ele>
        <time>2020-10-17T08:41:51Z</time>
      </trkpt>
      <trkpt lat="37.452314000" lon="-5.831094000">
        <ele>54.1</ele>
        <time>2020-10-17T08:41:53Z</time>
      </trkpt>
      <trkpt lat="37.452299000" lon="-5.831207000">
        <ele>54.0</ele>
        <time>2020-10-17T08:41:55Z</time>
      </trkpt>
      <trkpt lat="37.452288000" lon="-5.831323000">
        <ele>53.8</ele>
        <time>2020-10-17T08:41:57Z</time>
      </trkpt>
      <trkpt lat="37.452276000" lon="-5.831446000">
        <ele>53.6</ele>
        <time>2020-10-17T08:41:59Z</time>
      </trkpt>
      <trkpt lat="37.452264000" lon="-5.831569000">
        <ele>53.5</ele>
        <time>2020-10-17T08:42:01Z</time>
      </trkpt>
      <trkpt lat="37.452245000" lon="-5.831685000">
        <ele>53.2</ele>
        <time>2020-10-17T08:42:03Z</time>
      </trkpt>
      <trkpt lat="37.452230000" lon="-5.831808000">
        <ele>52.9</ele>
        <time>2020-10-17T08:42:05Z</time>
      </trkpt>
      <trkpt lat="37.452208000" lon="-5.831935000">
        <ele>52.7</ele>
        <time>2020-10-17T08:42:07Z</time>
      </trkpt>
      <trkpt lat="37.452186000" lon="-5.832069000">
        <ele>52.5</ele>
        <time>2020-10-17T08:42:09Z</time>
      </trkpt>
      <trkpt lat="37.452165000" lon="-5.832203000">
        <ele>52.3</ele>
        <time>2020-10-17T08:42:11Z</time>
      </trkpt>
      <trkpt lat="37.452141000" lon="-5.832335000">
        <ele>52.1</ele>
        <time>2020-10-17T08:42:13Z</time>
      </trkpt>
      <trkpt lat="37.452118000" lon="-5.832458000">
        <ele>51.8</ele>
        <time>2020-10-17T08:42:15Z</time>
      </trkpt>
      <trkpt lat="37.452094000" lon="-5.832579000">
        <ele>51.5</ele>
        <time>2020-10-17T08:42:17Z</time>
      </trkpt>
      <trkpt lat="37.452063000" lon="-5.832703000">
        <ele>51.4</ele>
        <time>2020-10-17T08:42:19Z</time>
      </trkpt>
      <trkpt lat="37.452041000" lon="-5.832823000">
        <ele>51.2</ele>
        <time>2020-10-17T08:42:21Z</time>
      </trkpt>
      <trkpt lat="37.452019000" lon="-5.832947000">
        <ele>50.8</ele>
        <time>2020-10-17T08:42:23Z</time>
      </trkpt>
      <trkpt lat="37.451998000" lon="-5.833074000">
        <ele>50.5</ele>
        <time>2020-10-17T08:42:25Z</time>
      </trkpt>
      <trkpt lat="37.451969000" lon="-5.833197000">
        <ele>50.2</ele>
        <time>2020-10-17T08:42:27Z</time>
      </trkpt>
      <trkpt lat="37.451936000" lon="-5.833320000">
        <ele>49.8</ele>
        <time>2020-10-17T08:42:29Z</time>
      </trkpt>
      <trkpt lat="37.451904000" lon="-5.833438000">
        <ele>49.5</ele>
        <time>2020-10-17T08:42:31Z</time>
      </trkpt>
      <trkpt lat="37.451872000" lon="-5.833558000">
        <ele>49.3</ele>
        <time>2020-10-17T08:42:33Z</time>
      </trkpt>
      <trkpt lat="37.451838000" lon="-5.833681000">
        <ele>49.1</ele>
        <time>2020-10-17T08:42:35Z</time>
      </trkpt>
      <trkpt lat="37.451806000" lon="-5.833806000">
        <ele>49.1</ele>
        <time>2020-10-17T08:42:37Z</time>
      </trkpt>
      <trkpt lat="37.451767000" lon="-5.833917000">
        <ele>49.1</ele>
        <time>2020-10-17T08:42:39Z</time>
      </trkpt>
      <trkpt lat="37.451727000" lon="-5.834019000">
        <ele>49.0</ele>
        <time>2020-10-17T08:42:41Z</time>
      </trkpt>
      <trkpt lat="37.451680000" lon="-5.834119000">
        <ele>48.8</ele>
        <time>2020-10-17T08:42:43Z</time>
      </trkpt>
      <trkpt lat="37.451652000" lon="-5.834231000">
        <ele>48.7</ele>
        <time>2020-10-17T08:42:45Z</time>
      </trkpt>
      <trkpt lat="37.451628000" lon="-5.834335000">
        <ele>48.6</ele>
        <time>2020-10-17T08:42:47Z</time>
      </trkpt>
      <trkpt lat="37.451565000" lon="-5.834467000">
        <ele>48.6</ele>
        <time>2020-10-17T08:42:50Z</time>
      </trkpt>
      <trkpt lat="37.451522000" lon="-5.834572000">
        <ele>48.5</ele>
        <time>2020-10-17T08:42:52Z</time>
      </trkpt>
      <trkpt lat="37.451478000" lon="-5.834682000">
        <ele>48.5</ele>
        <time>2020-10-17T08:42:54Z</time>
      </trkpt>
      <trkpt lat="37.451435000" lon="-5.834795000">
        <ele>48.3</ele>
        <time>2020-10-17T08:42:56Z</time>
      </trkpt>
      <trkpt lat="37.451392000" lon="-5.834910000">
        <ele>48.1</ele>
        <time>2020-10-17T08:42:58Z</time>
      </trkpt>
      <trkpt lat="37.451351000" lon="-5.835036000">
        <ele>47.8</ele>
        <time>2020-10-17T08:43:00Z</time>
      </trkpt>
      <trkpt lat="37.451308000" lon="-5.835161000">
        <ele>47.5</ele>
        <time>2020-10-17T08:43:02Z</time>
      </trkpt>
      <trkpt lat="37.451261000" lon="-5.835289000">
        <ele>47.4</ele>
        <time>2020-10-17T08:43:04Z</time>
      </trkpt>
      <trkpt lat="37.451216000" lon="-5.835419000">
        <ele>47.3</ele>
        <time>2020-10-17T08:43:06Z</time>
      </trkpt>
      <trkpt lat="37.451170000" lon="-5.835542000">
        <ele>47.3</ele>
        <time>2020-10-17T08:43:08Z</time>
      </trkpt>
      <trkpt lat="37.451123000" lon="-5.835667000">
        <ele>47.3</ele>
        <time>2020-10-17T08:43:10Z</time>
      </trkpt>
      <trkpt lat="37.451075000" lon="-5.835794000">
        <ele>47.3</ele>
        <time>2020-10-17T08:43:12Z</time>
      </trkpt>
      <trkpt lat="37.451024000" lon="-5.835926000">
        <ele>47.3</ele>
        <time>2020-10-17T08:43:14Z</time>
      </trkpt>
      <trkpt lat="37.450966000" lon="-5.836059000">
        <ele>47.3</ele>
        <time>2020-10-17T08:43:16Z</time>
      </trkpt>
      <trkpt lat="37.450905000" lon="-5.836192000">
        <ele>47.3</ele>
        <time>2020-10-17T08:43:18Z</time>
      </trkpt>
      <trkpt lat="37.450840000" lon="-5.836317000">
        <ele>47.3</ele>
        <time>2020-10-17T08:43:20Z</time>
      </trkpt>
      <trkpt lat="37.450775000" lon="-5.836444000">
        <ele>47.3</ele>
        <time>2020-10-17T08:43:22Z</time>
      </trkpt>
      <trkpt lat="37.450701000" lon="-5.836571000">
        <ele>47.3</ele>
        <time>2020-10-17T08:43:24Z</time>
      </trkpt>
      <trkpt lat="37.450627000" lon="-5.836690000">
        <ele>47.3</ele>
        <time>2020-10-17T08:43:26Z</time>
      </trkpt>
      <trkpt lat="37.450554000" lon="-5.836804000">
        <ele>47.3</ele>
        <time>2020-10-17T08:43:28Z</time>
      </trkpt>
      <trkpt lat="37.450485000" lon="-5.836916000">
        <ele>47.2</ele>
        <time>2020-10-17T08:43:30Z</time>
      </trkpt>
      <trkpt lat="37.450417000" lon="-5.837023000">
        <ele>47.1</ele>
        <time>2020-10-17T08:43:32Z</time>
      </trkpt>
      <trkpt lat="37.450341000" lon="-5.837136000">
        <ele>47.0</ele>
        <time>2020-10-17T08:43:34Z</time>
      </trkpt>
      <trkpt lat="37.450271000" lon="-5.837246000">
        <ele>47.0</ele>
        <time>2020-10-17T08:43:36Z</time>
      </trkpt>
      <trkpt lat="37.450195000" lon="-5.837360000">
        <ele>47.0</ele>
        <time>2020-10-17T08:43:38Z</time>
      </trkpt>
      <trkpt lat="37.450127000" lon="-5.837474000">
        <ele>47.0</ele>
        <time>2020-10-17T08:43:40Z</time>
      </trkpt>
      <trkpt lat="37.450056000" lon="-5.837590000">
        <ele>46.6</ele>
        <time>2020-10-17T08:43:42Z</time>
      </trkpt>
      <trkpt lat="37.449989000" lon="-5.837707000">
        <ele>46.3</ele>
        <time>2020-10-17T08:43:44Z</time>
      </trkpt>
      <trkpt lat="37.449909000" lon="-5.837826000">
        <ele>46.0</ele>
        <time>2020-10-17T08:43:46Z</time>
      </trkpt>
      <trkpt lat="37.449834000" lon="-5.837948000">
        <ele>45.8</ele>
        <time>2020-10-17T08:43:48Z</time>
      </trkpt>
      <trkpt lat="37.449771000" lon="-5.838055000">
        <ele>45.6</ele>
        <time>2020-10-17T08:44:05Z</time>
      </trkpt>
      <trkpt lat="37.449047000" lon="-5.839117000">
        <ele>45.5</ele>
        <time>2020-10-17T08:44:08Z</time>
      </trkpt>
      <trkpt lat="37.448970000" lon="-5.839236000">
        <ele>45.5</ele>
        <time>2020-10-17T08:44:10Z</time>
      </trkpt>
      <trkpt lat="37.448894000" lon="-5.839345000">
        <ele>45.5</ele>
        <time>2020-10-17T08:44:12Z</time>
      </trkpt>
      <trkpt lat="37.448820000" lon="-5.839457000">
        <ele>45.5</ele>
        <time>2020-10-17T08:44:14Z</time>
      </trkpt>
      <trkpt lat="37.448747000" lon="-5.839567000">
        <ele>45.5</ele>
        <time>2020-10-17T08:44:16Z</time>
      </trkpt>
      <trkpt lat="37.448678000" lon="-5.839677000">
        <ele>45.4</ele>
        <time>2020-10-17T08:44:18Z</time>
      </trkpt>
      <trkpt lat="37.448611000" lon="-5.839781000">
        <ele>45.6</ele>
        <time>2020-10-17T08:44:20Z</time>
      </trkpt>
      <trkpt lat="37.448543000" lon="-5.839884000">
        <ele>45.8</ele>
        <time>2020-10-17T08:44:22Z</time>
      </trkpt>
      <trkpt lat="37.448481000" lon="-5.839982000">
        <ele>45.8</ele>
        <time>2020-10-17T08:44:24Z</time>
      </trkpt>
      <trkpt lat="37.448418000" lon="-5.840089000">
        <ele>45.6</ele>
        <time>2020-10-17T08:44:26Z</time>
      </trkpt>
      <trkpt lat="37.448352000" lon="-5.840190000">
        <ele>45.5</ele>
        <time>2020-10-17T08:44:28Z</time>
      </trkpt>
      <trkpt lat="37.448281000" lon="-5.840299000">
        <ele>45.2</ele>
        <time>2020-10-17T08:44:30Z</time>
      </trkpt>
      <trkpt lat="37.448205000" lon="-5.840412000">
        <ele>44.8</ele>
        <time>2020-10-17T08:44:32Z</time>
      </trkpt>
      <trkpt lat="37.448133000" lon="-5.840534000">
        <ele>44.5</ele>
        <time>2020-10-17T08:44:34Z</time>
      </trkpt>
      <trkpt lat="37.448050000" lon="-5.840660000">
        <ele>44.0</ele>
        <time>2020-10-17T08:44:36Z</time>
      </trkpt>
      <trkpt lat="37.447971000" lon="-5.840777000">
        <ele>43.6</ele>
        <time>2020-10-17T08:44:38Z</time>
      </trkpt>
      <trkpt lat="37.447905000" lon="-5.840883000">
        <ele>43.3</ele>
        <time>2020-10-17T08:44:40Z</time>
      </trkpt>
      <trkpt lat="37.447834000" lon="-5.840992000">
        <ele>42.9</ele>
        <time>2020-10-17T08:44:42Z</time>
      </trkpt>
      <trkpt lat="37.447770000" lon="-5.841101000">
        <ele>42.6</ele>
        <time>2020-10-17T08:44:44Z</time>
      </trkpt>
      <trkpt lat="37.447705000" lon="-5.841202000">
        <ele>42.5</ele>
        <time>2020-10-17T08:44:46Z</time>
      </trkpt>
      <trkpt lat="37.447636000" lon="-5.841304000">
        <ele>42.4</ele>
        <time>2020-10-17T08:44:48Z</time>
      </trkpt>
      <trkpt lat="37.447565000" lon="-5.841396000">
        <ele>42.4</ele>
        <time>2020-10-17T08:44:50Z</time>
      </trkpt>
      <trkpt lat="37.447496000" lon="-5.841496000">
        <ele>42.4</ele>
        <time>2020-10-17T08:44:52Z</time>
      </trkpt>
      <trkpt lat="37.447434000" lon="-5.841587000">
        <ele>42.4</ele>
        <time>2020-10-17T08:44:54Z</time>
      </trkpt>
      <trkpt lat="37.447383000" lon="-5.841679000">
        <ele>42.5</ele>
        <time>2020-10-17T08:44:56Z</time>
      </trkpt>
      <trkpt lat="37.447320000" lon="-5.841772000">
        <ele>42.6</ele>
        <time>2020-10-17T08:44:58Z</time>
      </trkpt>
      <trkpt lat="37.447258000" lon="-5.841857000">
        <ele>42.8</ele>
        <time>2020-10-17T08:45:00Z</time>
      </trkpt>
      <trkpt lat="37.447195000" lon="-5.841947000">
        <ele>43.1</ele>
        <time>2020-10-17T08:45:02Z</time>
      </trkpt>
      <trkpt lat="37.447145000" lon="-5.842033000">
        <ele>43.4</ele>
        <time>2020-10-17T08:45:04Z</time>
      </trkpt>
      <trkpt lat="37.447083000" lon="-5.842116000">
        <ele>43.7</ele>
        <time>2020-10-17T08:45:06Z</time>
      </trkpt>
      <trkpt lat="37.447018000" lon="-5.842200000">
        <ele>44.2</ele>
        <time>2020-10-17T08:45:08Z</time>
      </trkpt>
      <trkpt lat="37.446959000" lon="-5.842284000">
        <ele>44.6</ele>
        <time>2020-10-17T08:45:10Z</time>
      </trkpt>
      <trkpt lat="37.446904000" lon="-5.842362000">
        <ele>45.0</ele>
        <time>2020-10-17T08:45:12Z</time>
      </trkpt>
      <trkpt lat="37.446849000" lon="-5.842445000">
        <ele>45.4</ele>
        <time>2020-10-17T08:45:14Z</time>
      </trkpt>
      <trkpt lat="37.446794000" lon="-5.842522000">
        <ele>45.7</ele>
        <time>2020-10-17T08:45:16Z</time>
      </trkpt>
      <trkpt lat="37.446741000" lon="-5.842602000">
        <ele>46.0</ele>
        <time>2020-10-17T08:45:18Z</time>
      </trkpt>
      <trkpt lat="37.446686000" lon="-5.842685000">
        <ele>46.3</ele>
        <time>2020-10-17T08:45:20Z</time>
      </trkpt>
      <trkpt lat="37.446628000" lon="-5.842767000">
        <ele>46.5</ele>
        <time>2020-10-17T08:45:22Z</time>
      </trkpt>
      <trkpt lat="37.446569000" lon="-5.842849000">
        <ele>46.6</ele>
        <time>2020-10-17T08:45:24Z</time>
      </trkpt>
      <trkpt lat="37.446516000" lon="-5.842941000">
        <ele>46.7</ele>
        <time>2020-10-17T08:45:26Z</time>
      </trkpt>
      <trkpt lat="37.446470000" lon="-5.843036000">
        <ele>46.7</ele>
        <time>2020-10-17T08:45:28Z</time>
      </trkpt>
      <trkpt lat="37.446420000" lon="-5.843124000">
        <ele>46.5</ele>
        <time>2020-10-17T08:45:30Z</time>
      </trkpt>
      <trkpt lat="37.446369000" lon="-5.843209000">
        <ele>46.4</ele>
        <time>2020-10-17T08:45:32Z</time>
      </trkpt>
      <trkpt lat="37.446313000" lon="-5.843290000">
        <ele>46.2</ele>
        <time>2020-10-17T08:45:34Z</time>
      </trkpt>
      <trkpt lat="37.446255000" lon="-5.843368000">
        <ele>46.0</ele>
        <time>2020-10-17T08:45:36Z</time>
      </trkpt>
      <trkpt lat="37.446199000" lon="-5.843446000">
        <ele>45.8</ele>
        <time>2020-10-17T08:45:38Z</time>
      </trkpt>
      <trkpt lat="37.446126000" lon="-5.843564000">
        <ele>45.6</ele>
        <time>2020-10-17T08:45:41Z</time>
      </trkpt>
      <trkpt lat="37.446073000" lon="-5.843644000">
        <ele>45.5</ele>
        <time>2020-10-17T08:45:43Z</time>
      </trkpt>
      <trkpt lat="37.446019000" lon="-5.843727000">
        <ele>45.3</ele>
        <time>2020-10-17T08:45:45Z</time>
      </trkpt>
      <trkpt lat="37.445963000" lon="-5.843812000">
        <ele>45.2</ele>
        <time>2020-10-17T08:45:47Z</time>
      </trkpt>
      <trkpt lat="37.445906000" lon="-5.843899000">
        <ele>45.1</ele>
        <time>2020-10-17T08:45:49Z</time>
      </trkpt>
      <trkpt lat="37.445844000" lon="-5.843981000">
        <ele>45.0</ele>
        <time>2020-10-17T08:45:51Z</time>
      </trkpt>
      <trkpt lat="37.445783000" lon="-5.844065000">
        <ele>45.0</ele>
        <time>2020-10-17T08:45:53Z</time>
      </trkpt>
      <trkpt lat="37.445711000" lon="-5.844176000">
        <ele>45.0</ele>
        <time>2020-10-17T08:45:56Z</time>
      </trkpt>
      <trkpt lat="37.445663000" lon="-5.844264000">
        <ele>45.0</ele>
        <time>2020-10-17T08:45:58Z</time>
      </trkpt>
      <trkpt lat="37.445609000" lon="-5.844341000">
        <ele>45.0</ele>
        <time>2020-10-17T08:46:00Z</time>
      </trkpt>
      <trkpt lat="37.445557000" lon="-5.844423000">
        <ele>45.1</ele>
        <time>2020-10-17T08:46:02Z</time>
      </trkpt>
      <trkpt lat="37.445479000" lon="-5.844538000">
        <ele>45.1</ele>
        <time>2020-10-17T08:46:11Z</time>
      </trkpt>
      <trkpt lat="37.445425000" lon="-5.844621000">
        <ele>45.1</ele>
        <time>2020-10-17T08:46:11Z</time>
      </trkpt>
      <trkpt lat="37.445364000" lon="-5.844711000">
        <ele>45.0</ele>
        <time>2020-10-17T08:46:12Z</time>
      </trkpt>
      <trkpt lat="37.445274000" lon="-5.844846000">
        <ele>44.9</ele>
        <time>2020-10-17T08:46:12Z</time>
      </trkpt>
      <trkpt lat="37.445189000" lon="-5.844996000">
        <ele>44.8</ele>
        <time>2020-10-17T08:46:15Z</time>
      </trkpt>
      <trkpt lat="37.445129000" lon="-5.845083000">
        <ele>44.7</ele>
        <time>2020-10-17T08:46:17Z</time>
      </trkpt>
      <trkpt lat="37.445068000" lon="-5.845180000">
        <ele>44.6</ele>
        <time>2020-10-17T08:46:19Z</time>
      </trkpt>
      <trkpt lat="37.445013000" lon="-5.845281000">
        <ele>44.6</ele>
        <time>2020-10-17T08:46:21Z</time>
      </trkpt>
      <trkpt lat="37.444951000" lon="-5.845382000">
        <ele>44.6</ele>
        <time>2020-10-17T08:46:23Z</time>
      </trkpt>
      <trkpt lat="37.444885000" lon="-5.845478000">
        <ele>44.6</ele>
        <time>2020-10-17T08:46:25Z</time>
      </trkpt>
      <trkpt lat="37.444815000" lon="-5.845564000">
        <ele>44.6</ele>
        <time>2020-10-17T08:46:27Z</time>
      </trkpt>
      <trkpt lat="37.444757000" lon="-5.845658000">
        <ele>44.7</ele>
        <time>2020-10-17T08:46:29Z</time>
      </trkpt>
      <trkpt lat="37.444685000" lon="-5.845749000">
        <ele>44.8</ele>
        <time>2020-10-17T08:46:31Z</time>
      </trkpt>
      <trkpt lat="37.444617000" lon="-5.845845000">
        <ele>45.0</ele>
        <time>2020-10-17T08:46:33Z</time>
      </trkpt>
      <trkpt lat="37.444550000" lon="-5.845940000">
        <ele>45.1</ele>
        <time>2020-10-17T08:46:35Z</time>
      </trkpt>
      <trkpt lat="37.444488000" lon="-5.846037000">
        <ele>45.1</ele>
        <time>2020-10-17T08:46:37Z</time>
      </trkpt>
      <trkpt lat="37.444422000" lon="-5.846149000">
        <ele>45.1</ele>
        <time>2020-10-17T08:46:39Z</time>
      </trkpt>
      <trkpt lat="37.444356000" lon="-5.846265000">
        <ele>45.2</ele>
        <time>2020-10-17T08:46:41Z</time>
      </trkpt>
      <trkpt lat="37.444291000" lon="-5.846380000">
        <ele>45.2</ele>
        <time>2020-10-17T08:46:43Z</time>
      </trkpt>
      <trkpt lat="37.444229000" lon="-5.846492000">
        <ele>45.3</ele>
        <time>2020-10-17T08:46:45Z</time>
      </trkpt>
      <trkpt lat="37.444175000" lon="-5.846598000">
        <ele>45.4</ele>
        <time>2020-10-17T08:46:47Z</time>
      </trkpt>
      <trkpt lat="37.444119000" lon="-5.846699000">
        <ele>45.5</ele>
        <time>2020-10-17T08:46:49Z</time>
      </trkpt>
      <trkpt lat="37.444064000" lon="-5.846797000">
        <ele>45.5</ele>
        <time>2020-10-17T08:46:51Z</time>
      </trkpt>
      <trkpt lat="37.444005000" lon="-5.846893000">
        <ele>45.6</ele>
        <time>2020-10-17T08:46:53Z</time>
      </trkpt>
      <trkpt lat="37.443945000" lon="-5.846987000">
        <ele>45.8</ele>
        <time>2020-10-17T08:46:55Z</time>
      </trkpt>
      <trkpt lat="37.443888000" lon="-5.847081000">
        <ele>46.1</ele>
        <time>2020-10-17T08:46:57Z</time>
      </trkpt>
      <trkpt lat="37.443827000" lon="-5.847175000">
        <ele>46.5</ele>
        <time>2020-10-17T08:46:59Z</time>
      </trkpt>
      <trkpt lat="37.443771000" lon="-5.847264000">
        <ele>46.7</ele>
        <time>2020-10-17T08:47:01Z</time>
      </trkpt>
      <trkpt lat="37.443726000" lon="-5.847362000">
        <ele>46.9</ele>
        <time>2020-10-17T08:47:03Z</time>
      </trkpt>
      <trkpt lat="37.443678000" lon="-5.847450000">
        <ele>47.0</ele>
        <time>2020-10-17T08:47:05Z</time>
      </trkpt>
      <trkpt lat="37.443618000" lon="-5.847573000">
        <ele>47.0</ele>
        <time>2020-10-17T08:47:08Z</time>
      </trkpt>
      <trkpt lat="37.443546000" lon="-5.847694000">
        <ele>47.0</ele>
        <time>2020-10-17T08:47:11Z</time>
      </trkpt>
      <trkpt lat="37.443482000" lon="-5.847800000">
        <ele>46.8</ele>
        <time>2020-10-17T08:47:14Z</time>
      </trkpt>
      <trkpt lat="37.443413000" lon="-5.847899000">
        <ele>46.5</ele>
        <time>2020-10-17T08:47:17Z</time>
      </trkpt>
      <trkpt lat="37.443342000" lon="-5.848007000">
        <ele>46.3</ele>
        <time>2020-10-17T08:47:20Z</time>
      </trkpt>
      <trkpt lat="37.443269000" lon="-5.848114000">
        <ele>45.9</ele>
        <time>2020-10-17T08:47:23Z</time>
      </trkpt>
      <trkpt lat="37.443195000" lon="-5.848213000">
        <ele>45.5</ele>
        <time>2020-10-17T08:47:26Z</time>
      </trkpt>
      <trkpt lat="37.443135000" lon="-5.848316000">
        <ele>45.2</ele>
        <time>2020-10-17T08:47:29Z</time>
      </trkpt>
      <trkpt lat="37.443097000" lon="-5.848435000">
        <ele>45.0</ele>
        <time>2020-10-17T08:47:32Z</time>
      </trkpt>
      <trkpt lat="37.443059000" lon="-5.848577000">
        <ele>44.8</ele>
        <time>2020-10-17T08:47:35Z</time>
      </trkpt>
      <trkpt lat="37.443006000" lon="-5.848705000">
        <ele>44.7</ele>
        <time>2020-10-17T08:47:38Z</time>
      </trkpt>
      <trkpt lat="37.442963000" lon="-5.848792000">
        <ele>44.6</ele>
        <time>2020-10-17T08:47:40Z</time>
      </trkpt>
      <trkpt lat="37.442924000" lon="-5.848884000">
        <ele>44.5</ele>
        <time>2020-10-17T08:47:42Z</time>
      </trkpt>
      <trkpt lat="37.442886000" lon="-5.848981000">
        <ele>44.4</ele>
        <time>2020-10-17T08:47:44Z</time>
      </trkpt>
      <trkpt lat="37.442849000" lon="-5.849077000">
        <ele>44.4</ele>
        <time>2020-10-17T08:47:46Z</time>
      </trkpt>
      <trkpt lat="37.442812000" lon="-5.849168000">
        <ele>44.4</ele>
        <time>2020-10-17T08:47:48Z</time>
      </trkpt>
      <trkpt lat="37.442763000" lon="-5.849300000">
        <ele>44.4</ele>
        <time>2020-10-17T08:47:51Z</time>
      </trkpt>
      <trkpt lat="37.442703000" lon="-5.849436000">
        <ele>44.5</ele>
        <time>2020-10-17T08:47:54Z</time>
      </trkpt>
      <trkpt lat="37.442654000" lon="-5.849523000">
        <ele>44.5</ele>
        <time>2020-10-17T08:48:00Z</time>
      </trkpt>
      <trkpt lat="37.442599000" lon="-5.849610000">
        <ele>44.5</ele>
        <time>2020-10-17T08:48:01Z</time>
      </trkpt>
      <trkpt lat="37.442547000" lon="-5.849698000">
        <ele>44.5</ele>
        <time>2020-10-17T08:48:01Z</time>
      </trkpt>
      <trkpt lat="37.442503000" lon="-5.849791000">
        <ele>44.4</ele>
        <time>2020-10-17T08:48:02Z</time>
      </trkpt>
      <trkpt lat="37.442459000" lon="-5.849889000">
        <ele>44.3</ele>
        <time>2020-10-17T08:48:04Z</time>
      </trkpt>
      <trkpt lat="37.442415000" lon="-5.849988000">
        <ele>44.4</ele>
        <time>2020-10-17T08:48:06Z</time>
      </trkpt>
      <trkpt lat="37.442355000" lon="-5.850075000">
        <ele>44.5</ele>
        <time>2020-10-17T08:48:08Z</time>
      </trkpt>
      <trkpt lat="37.442289000" lon="-5.850152000">
        <ele>44.7</ele>
        <time>2020-10-17T08:48:10Z</time>
      </trkpt>
      <trkpt lat="37.442234000" lon="-5.850231000">
        <ele>45.0</ele>
        <time>2020-10-17T08:48:12Z</time>
      </trkpt>
      <trkpt lat="37.442165000" lon="-5.850346000">
        <ele>45.3</ele>
        <time>2020-10-17T08:48:15Z</time>
      </trkpt>
      <trkpt lat="37.442122000" lon="-5.850451000">
        <ele>45.4</ele>
        <time>2020-10-17T08:48:18Z</time>
      </trkpt>
      <trkpt lat="37.442075000" lon="-5.850570000">
        <ele>45.5</ele>
        <time>2020-10-17T08:48:26Z</time>
      </trkpt>
      <trkpt lat="37.442016000" lon="-5.850700000">
        <ele>45.5</ele>
        <time>2020-10-17T08:48:26Z</time>
      </trkpt>
      <trkpt lat="37.441971000" lon="-5.850792000">
        <ele>45.6</ele>
        <time>2020-10-17T08:48:27Z</time>
      </trkpt>
      <trkpt lat="37.441914000" lon="-5.850888000">
        <ele>45.6</ele>
        <time>2020-10-17T08:48:28Z</time>
      </trkpt>
      <trkpt lat="37.441850000" lon="-5.850963000">
        <ele>45.6</ele>
        <time>2020-10-17T08:48:30Z</time>
      </trkpt>
      <trkpt lat="37.441797000" lon="-5.851044000">
        <ele>45.5</ele>
        <time>2020-10-17T08:48:32Z</time>
      </trkpt>
      <trkpt lat="37.441741000" lon="-5.851175000">
        <ele>45.4</ele>
        <time>2020-10-17T08:48:35Z</time>
      </trkpt>
      <trkpt lat="37.441678000" lon="-5.851249000">
        <ele>45.2</ele>
        <time>2020-10-17T08:48:37Z</time>
      </trkpt>
      <trkpt lat="37.441620000" lon="-5.851330000">
        <ele>44.9</ele>
        <time>2020-10-17T08:48:39Z</time>
      </trkpt>
      <trkpt lat="37.441575000" lon="-5.851429000">
        <ele>44.7</ele>
        <time>2020-10-17T08:48:41Z</time>
      </trkpt>
      <trkpt lat="37.441520000" lon="-5.851520000">
        <ele>44.6</ele>
        <time>2020-10-17T08:48:43Z</time>
      </trkpt>
      <trkpt lat="37.441456000" lon="-5.851601000">
        <ele>44.5</ele>
        <time>2020-10-17T08:48:45Z</time>
      </trkpt>
      <trkpt lat="37.441385000" lon="-5.851674000">
        <ele>44.5</ele>
        <time>2020-10-17T08:48:47Z</time>
      </trkpt>
      <trkpt lat="37.441320000" lon="-5.851752000">
        <ele>44.4</ele>
        <time>2020-10-17T08:48:52Z</time>
      </trkpt>
      <trkpt lat="37.441269000" lon="-5.851853000">
        <ele>44.4</ele>
        <time>2020-10-17T08:48:52Z</time>
      </trkpt>
      <trkpt lat="37.441150000" lon="-5.852048000">
        <ele>44.4</ele>
        <time>2020-10-17T08:48:55Z</time>
      </trkpt>
      <trkpt lat="37.441085000" lon="-5.852135000">
        <ele>44.4</ele>
        <time>2020-10-17T08:48:57Z</time>
      </trkpt>
      <trkpt lat="37.441021000" lon="-5.852211000">
        <ele>44.3</ele>
        <time>2020-10-17T08:48:59Z</time>
      </trkpt>
      <trkpt lat="37.440952000" lon="-5.852280000">
        <ele>44.2</ele>
        <time>2020-10-17T08:49:01Z</time>
      </trkpt>
      <trkpt lat="37.440885000" lon="-5.852352000">
        <ele>44.0</ele>
        <time>2020-10-17T08:49:03Z</time>
      </trkpt>
      <trkpt lat="37.440817000" lon="-5.852429000">
        <ele>43.7</ele>
        <time>2020-10-17T08:49:05Z</time>
      </trkpt>
      <trkpt lat="37.440746000" lon="-5.852512000">
        <ele>43.5</ele>
        <time>2020-10-17T08:49:07Z</time>
      </trkpt>
      <trkpt lat="37.440681000" lon="-5.852602000">
        <ele>43.1</ele>
        <time>2020-10-17T08:49:09Z</time>
      </trkpt>
      <trkpt lat="37.440613000" lon="-5.852691000">
        <ele>42.7</ele>
        <time>2020-10-17T08:49:11Z</time>
      </trkpt>
      <trkpt lat="37.440547000" lon="-5.852776000">
        <ele>42.5</ele>
        <time>2020-10-17T08:49:13Z</time>
      </trkpt>
      <trkpt lat="37.440484000" lon="-5.852866000">
        <ele>42.2</ele>
        <time>2020-10-17T08:49:15Z</time>
      </trkpt>
      <trkpt lat="37.440427000" lon="-5.852956000">
        <ele>42.0</ele>
        <time>2020-10-17T08:49:17Z</time>
      </trkpt>
      <trkpt lat="37.440361000" lon="-5.853048000">
        <ele>41.7</ele>
        <time>2020-10-17T08:49:19Z</time>
      </trkpt>
      <trkpt lat="37.440291000" lon="-5.853141000">
        <ele>41.5</ele>
        <time>2020-10-17T08:49:21Z</time>
      </trkpt>
      <trkpt lat="37.440220000" lon="-5.853233000">
        <ele>41.4</ele>
        <time>2020-10-17T08:49:23Z</time>
      </trkpt>
      <trkpt lat="37.440142000" lon="-5.853334000">
        <ele>41.3</ele>
        <time>2020-10-17T08:49:25Z</time>
      </trkpt>
      <trkpt lat="37.440064000" lon="-5.853428000">
        <ele>41.2</ele>
        <time>2020-10-17T08:49:27Z</time>
      </trkpt>
      <trkpt lat="37.439992000" lon="-5.853518000">
        <ele>41.1</ele>
        <time>2020-10-17T08:49:29Z</time>
      </trkpt>
      <trkpt lat="37.439923000" lon="-5.853613000">
        <ele>41.1</ele>
        <time>2020-10-17T08:49:31Z</time>
      </trkpt>
      <trkpt lat="37.439859000" lon="-5.853708000">
        <ele>41.1</ele>
        <time>2020-10-17T08:49:33Z</time>
      </trkpt>
      <trkpt lat="37.439798000" lon="-5.853796000">
        <ele>41.1</ele>
        <time>2020-10-17T08:49:35Z</time>
      </trkpt>
      <trkpt lat="37.439730000" lon="-5.853873000">
        <ele>41.0</ele>
        <time>2020-10-17T08:49:37Z</time>
      </trkpt>
      <trkpt lat="37.439658000" lon="-5.853944000">
        <ele>40.8</ele>
        <time>2020-10-17T08:49:39Z</time>
      </trkpt>
      <trkpt lat="37.439589000" lon="-5.854029000">
        <ele>40.6</ele>
        <time>2020-10-17T08:49:44Z</time>
      </trkpt>
      <trkpt lat="37.439526000" lon="-5.854110000">
        <ele>40.5</ele>
        <time>2020-10-17T08:49:44Z</time>
      </trkpt>
      <trkpt lat="37.439473000" lon="-5.854192000">
        <ele>40.2</ele>
        <time>2020-10-17T08:49:45Z</time>
      </trkpt>
      <trkpt lat="37.439418000" lon="-5.854287000">
        <ele>39.9</ele>
        <time>2020-10-17T08:49:47Z</time>
      </trkpt>
      <trkpt lat="37.439364000" lon="-5.854384000">
        <ele>39.5</ele>
        <time>2020-10-17T08:49:49Z</time>
      </trkpt>
      <trkpt lat="37.439309000" lon="-5.854488000">
        <ele>39.2</ele>
        <time>2020-10-17T08:49:51Z</time>
      </trkpt>
      <trkpt lat="37.439253000" lon="-5.854597000">
        <ele>38.8</ele>
        <time>2020-10-17T08:49:53Z</time>
      </trkpt>
      <trkpt lat="37.439201000" lon="-5.854699000">
        <ele>38.4</ele>
        <time>2020-10-17T08:49:55Z</time>
      </trkpt>
      <trkpt lat="37.439153000" lon="-5.854793000">
        <ele>37.9</ele>
        <time>2020-10-17T08:49:57Z</time>
      </trkpt>
      <trkpt lat="37.439102000" lon="-5.854899000">
        <ele>37.5</ele>
        <time>2020-10-17T08:50:00Z</time>
      </trkpt>
      <trkpt lat="37.439070000" lon="-5.855010000">
        <ele>37.0</ele>
        <time>2020-10-17T08:50:03Z</time>
      </trkpt>
      <trkpt lat="37.439007000" lon="-5.855106000">
        <ele>36.6</ele>
        <time>2020-10-17T08:50:06Z</time>
      </trkpt>
      <trkpt lat="37.438980000" lon="-5.855204000">
        <ele>36.3</ele>
        <time>2020-10-17T08:50:22Z</time>
      </trkpt>
      <trkpt lat="37.438955000" lon="-5.855309000">
        <ele>36.0</ele>
        <time>2020-10-17T08:50:33Z</time>
      </trkpt>
      <trkpt lat="37.438945000" lon="-5.855417000">
        <ele>35.7</ele>
        <time>2020-10-17T08:50:33Z</time>
      </trkpt>
      <trkpt lat="37.438926000" lon="-5.855524000">
        <ele>35.6</ele>
        <time>2020-10-17T08:50:35Z</time>
      </trkpt>
      <trkpt lat="37.438916000" lon="-5.855627000">
        <ele>35.5</ele>
        <time>2020-10-17T08:50:38Z</time>
      </trkpt>
      <trkpt lat="37.438898000" lon="-5.855745000">
        <ele>35.5</ele>
        <time>2020-10-17T08:50:41Z</time>
      </trkpt>
      <trkpt lat="37.438862000" lon="-5.855853000">
        <ele>35.5</ele>
        <time>2020-10-17T08:50:44Z</time>
      </trkpt>
      <trkpt lat="37.438772000" lon="-5.855912000">
        <ele>35.5</ele>
        <time>2020-10-17T08:50:50Z</time>
      </trkpt>
      <trkpt lat="37.438721000" lon="-5.856019000">
        <ele>35.5</ele>
        <time>2020-10-17T08:50:52Z</time>
      </trkpt>
      <trkpt lat="37.438683000" lon="-5.856150000">
        <ele>35.6</ele>
        <time>2020-10-17T08:50:55Z</time>
      </trkpt>
      <trkpt lat="37.438656000" lon="-5.856249000">
        <ele>35.6</ele>
        <time>2020-10-17T08:50:57Z</time>
      </trkpt>
      <trkpt lat="37.438623000" lon="-5.856356000">
        <ele>35.6</ele>
        <time>2020-10-17T08:51:00Z</time>
      </trkpt>
      <trkpt lat="37.438596000" lon="-5.856469000">
        <ele>35.6</ele>
        <time>2020-10-17T08:51:01Z</time>
      </trkpt>
      <trkpt lat="37.438570000" lon="-5.856592000">
        <ele>35.6</ele>
        <time>2020-10-17T08:51:03Z</time>
      </trkpt>
      <trkpt lat="37.438544000" lon="-5.856719000">
        <ele>35.5</ele>
        <time>2020-10-17T08:51:05Z</time>
      </trkpt>
      <trkpt lat="37.438514000" lon="-5.856848000">
        <ele>35.3</ele>
        <time>2020-10-17T08:51:07Z</time>
      </trkpt>
      <trkpt lat="37.438481000" lon="-5.856981000">
        <ele>35.0</ele>
        <time>2020-10-17T08:51:09Z</time>
      </trkpt>
      <trkpt lat="37.438448000" lon="-5.857113000">
        <ele>34.7</ele>
        <time>2020-10-17T08:51:11Z</time>
      </trkpt>
      <trkpt lat="37.438409000" lon="-5.857247000">
        <ele>34.4</ele>
        <time>2020-10-17T08:51:13Z</time>
      </trkpt>
      <trkpt lat="37.438379000" lon="-5.857386000">
        <ele>34.0</ele>
        <time>2020-10-17T08:51:15Z</time>
      </trkpt>
      <trkpt lat="37.438351000" lon="-5.857533000">
        <ele>33.6</ele>
        <time>2020-10-17T08:51:18Z</time>
      </trkpt>
      <trkpt lat="37.438315000" lon="-5.857670000">
        <ele>33.4</ele>
        <time>2020-10-17T08:51:19Z</time>
      </trkpt>
      <trkpt lat="37.438284000" lon="-5.857811000">
        <ele>33.1</ele>
        <time>2020-10-17T08:51:21Z</time>
      </trkpt>
      <trkpt lat="37.438249000" lon="-5.857953000">
        <ele>32.8</ele>
        <time>2020-10-17T08:51:23Z</time>
      </trkpt>
      <trkpt lat="37.438225000" lon="-5.858089000">
        <ele>32.6</ele>
        <time>2020-10-17T08:51:25Z</time>
      </trkpt>
      <trkpt lat="37.438195000" lon="-5.858227000">
        <ele>32.5</ele>
        <time>2020-10-17T08:51:27Z</time>
      </trkpt>
      <trkpt lat="37.438163000" lon="-5.858358000">
        <ele>32.5</ele>
        <time>2020-10-17T08:51:29Z</time>
      </trkpt>
      <trkpt lat="37.438130000" lon="-5.858490000">
        <ele>32.5</ele>
        <time>2020-10-17T08:51:31Z</time>
      </trkpt>
      <trkpt lat="37.438109000" lon="-5.858617000">
        <ele>32.6</ele>
        <time>2020-10-17T08:51:34Z</time>
      </trkpt>
      <trkpt lat="37.438087000" lon="-5.858739000">
        <ele>32.7</ele>
        <time>2020-10-17T08:51:35Z</time>
      </trkpt>
      <trkpt lat="37.438064000" lon="-5.858856000">
        <ele>32.8</ele>
        <time>2020-10-17T08:51:37Z</time>
      </trkpt>
      <trkpt lat="37.438052000" lon="-5.858968000">
        <ele>32.8</ele>
        <time>2020-10-17T08:51:39Z</time>
      </trkpt>
      <trkpt lat="37.438046000" lon="-5.859073000">
        <ele>32.7</ele>
        <time>2020-10-17T08:51:41Z</time>
      </trkpt>
      <trkpt lat="37.438043000" lon="-5.859188000">
        <ele>32.5</ele>
        <time>2020-10-17T08:51:43Z</time>
      </trkpt>
      <trkpt lat="37.438031000" lon="-5.859311000">
        <ele>32.4</ele>
        <time>2020-10-17T08:51:45Z</time>
      </trkpt>
      <trkpt lat="37.438018000" lon="-5.859432000">
        <ele>32.1</ele>
        <time>2020-10-17T08:51:47Z</time>
      </trkpt>
      <trkpt lat="37.438010000" lon="-5.859564000">
        <ele>31.8</ele>
        <time>2020-10-17T08:51:49Z</time>
      </trkpt>
      <trkpt lat="37.437993000" lon="-5.859690000">
        <ele>31.5</ele>
        <time>2020-10-17T08:51:51Z</time>
      </trkpt>
      <trkpt lat="37.437979000" lon="-5.859821000">
        <ele>31.1</ele>
        <time>2020-10-17T08:51:53Z</time>
      </trkpt>
      <trkpt lat="37.437963000" lon="-5.859954000">
        <ele>30.6</ele>
        <time>2020-10-17T08:51:55Z</time>
      </trkpt>
      <trkpt lat="37.437955000" lon="-5.860091000">
        <ele>30.3</ele>
        <time>2020-10-17T08:51:57Z</time>
      </trkpt>
      <trkpt lat="37.437938000" lon="-5.860224000">
        <ele>29.9</ele>
        <time>2020-10-17T08:51:59Z</time>
      </trkpt>
      <trkpt lat="37.437917000" lon="-5.860357000">
        <ele>29.6</ele>
        <time>2020-10-17T08:52:01Z</time>
      </trkpt>
      <trkpt lat="37.437908000" lon="-5.860478000">
        <ele>29.5</ele>
        <time>2020-10-17T08:52:03Z</time>
      </trkpt>
      <trkpt lat="37.437896000" lon="-5.860596000">
        <ele>29.4</ele>
        <time>2020-10-17T08:52:05Z</time>
      </trkpt>
      <trkpt lat="37.437879000" lon="-5.860710000">
        <ele>29.4</ele>
        <time>2020-10-17T08:52:07Z</time>
      </trkpt>
      <trkpt lat="37.437868000" lon="-5.860815000">
        <ele>29.5</ele>
        <time>2020-10-17T08:52:09Z</time>
      </trkpt>
      <trkpt lat="37.437859000" lon="-5.860934000">
        <ele>29.5</ele>
        <time>2020-10-17T08:52:11Z</time>
      </trkpt>
      <trkpt lat="37.437858000" lon="-5.861039000">
        <ele>29.6</ele>
        <time>2020-10-17T08:52:13Z</time>
      </trkpt>
      <trkpt lat="37.437857000" lon="-5.861146000">
        <ele>29.8</ele>
        <time>2020-10-17T08:52:15Z</time>
      </trkpt>
      <trkpt lat="37.437857000" lon="-5.861297000">
        <ele>30.0</ele>
        <time>2020-10-17T08:52:18Z</time>
      </trkpt>
      <trkpt lat="37.437869000" lon="-5.861443000">
        <ele>30.2</ele>
        <time>2020-10-17T08:52:21Z</time>
      </trkpt>
      <trkpt lat="37.437881000" lon="-5.861594000">
        <ele>30.4</ele>
        <time>2020-10-17T08:52:24Z</time>
      </trkpt>
      <trkpt lat="37.437881000" lon="-5.861705000">
        <ele>30.5</ele>
        <time>2020-10-17T08:52:26Z</time>
      </trkpt>
      <trkpt lat="37.437871000" lon="-5.861825000">
        <ele>30.7</ele>
        <time>2020-10-17T08:52:28Z</time>
      </trkpt>
      <trkpt lat="37.437872000" lon="-5.861931000">
        <ele>30.9</ele>
        <time>2020-10-17T08:52:30Z</time>
      </trkpt>
      <trkpt lat="37.437881000" lon="-5.862040000">
        <ele>31.0</ele>
        <time>2020-10-17T08:52:32Z</time>
      </trkpt>
      <trkpt lat="37.437878000" lon="-5.862161000">
        <ele>31.0</ele>
        <time>2020-10-17T08:52:34Z</time>
      </trkpt>
      <trkpt lat="37.437879000" lon="-5.862266000">
        <ele>31.0</ele>
        <time>2020-10-17T08:52:36Z</time>
      </trkpt>
      <trkpt lat="37.437879000" lon="-5.862376000">
        <ele>30.9</ele>
        <time>2020-10-17T08:52:38Z</time>
      </trkpt>
      <trkpt lat="37.437888000" lon="-5.862537000">
        <ele>30.8</ele>
        <time>2020-10-17T08:52:41Z</time>
      </trkpt>
      <trkpt lat="37.437915000" lon="-5.862678000">
        <ele>30.7</ele>
        <time>2020-10-17T08:52:46Z</time>
      </trkpt>
      <trkpt lat="37.437913000" lon="-5.862810000">
        <ele>30.6</ele>
        <time>2020-10-17T08:52:47Z</time>
      </trkpt>
      <trkpt lat="37.437917000" lon="-5.862940000">
        <ele>30.5</ele>
        <time>2020-10-17T08:52:48Z</time>
      </trkpt>
      <trkpt lat="37.437922000" lon="-5.863055000">
        <ele>30.5</ele>
        <time>2020-10-17T08:52:50Z</time>
      </trkpt>
      <trkpt lat="37.437920000" lon="-5.863185000">
        <ele>30.3</ele>
        <time>2020-10-17T08:52:52Z</time>
      </trkpt>
      <trkpt lat="37.437919000" lon="-5.863301000">
        <ele>30.1</ele>
        <time>2020-10-17T08:52:54Z</time>
      </trkpt>
      <trkpt lat="37.437925000" lon="-5.863408000">
        <ele>29.9</ele>
        <time>2020-10-17T08:52:56Z</time>
      </trkpt>
      <trkpt lat="37.437925000" lon="-5.863519000">
        <ele>29.7</ele>
        <time>2020-10-17T08:52:58Z</time>
      </trkpt>
      <trkpt lat="37.437921000" lon="-5.863622000">
        <ele>29.5</ele>
        <time>2020-10-17T08:53:00Z</time>
      </trkpt>
      <trkpt lat="37.437885000" lon="-5.863734000">
        <ele>29.5</ele>
        <time>2020-10-17T08:53:03Z</time>
      </trkpt>
      <trkpt lat="37.437802000" lon="-5.863785000">
        <ele>29.3</ele>
        <time>2020-10-17T08:53:06Z</time>
      </trkpt>
      <trkpt lat="37.437704000" lon="-5.863782000">
        <ele>29.2</ele>
        <time>2020-10-17T08:53:09Z</time>
      </trkpt>
      <trkpt lat="37.437610000" lon="-5.863780000">
        <ele>29.1</ele>
        <time>2020-10-17T08:53:12Z</time>
      </trkpt>
      <trkpt lat="37.437515000" lon="-5.863787000">
        <ele>29.0</ele>
        <time>2020-10-17T08:53:15Z</time>
      </trkpt>
      <trkpt lat="37.437406000" lon="-5.863792000">
        <ele>28.9</ele>
        <time>2020-10-17T08:53:18Z</time>
      </trkpt>
      <trkpt lat="37.437328000" lon="-5.863825000">
        <ele>28.9</ele>
        <time>2020-10-17T08:53:22Z</time>
      </trkpt>
      <trkpt lat="37.437434000" lon="-5.863806000">
        <ele>28.9</ele>
        <time>2020-10-17T08:55:24Z</time>
      </trkpt>
      <trkpt lat="37.437540000" lon="-5.863801000">
        <ele>29.0</ele>
        <time>2020-10-17T08:55:27Z</time>
      </trkpt>
      <trkpt lat="37.437621000" lon="-5.863793000">
        <ele>29.1</ele>
        <time>2020-10-17T08:55:29Z</time>
      </trkpt>
      <trkpt lat="37.437702000" lon="-5.863789000">
        <ele>29.2</ele>
        <time>2020-10-17T08:55:31Z</time>
      </trkpt>
      <trkpt lat="37.437815000" lon="-5.863782000">
        <ele>29.3</ele>
        <time>2020-10-17T08:55:34Z</time>
      </trkpt>
      <trkpt lat="37.437909000" lon="-5.863777000">
        <ele>29.5</ele>
        <time>2020-10-17T08:55:37Z</time>
      </trkpt>
      <trkpt lat="37.437995000" lon="-5.863793000">
        <ele>29.5</ele>
        <time>2020-10-17T08:55:48Z</time>
      </trkpt>
      <trkpt lat="37.438070000" lon="-5.863730000">
        <ele>29.6</ele>
        <time>2020-10-17T08:55:56Z</time>
      </trkpt>
      <trkpt lat="37.438150000" lon="-5.863750000">
        <ele>29.7</ele>
        <time>2020-10-17T08:56:38Z</time>
      </trkpt>
      <trkpt lat="37.438169000" lon="-5.863865000">
        <ele>29.8</ele>
        <time>2020-10-17T08:56:42Z</time>
      </trkpt>
      <trkpt lat="37.438150000" lon="-5.863989000">
        <ele>29.9</ele>
        <time>2020-10-17T08:56:45Z</time>
      </trkpt>
      <trkpt lat="37.438124000" lon="-5.864131000">
        <ele>30.0</ele>
        <time>2020-10-17T08:56:48Z</time>
      </trkpt>
      <trkpt lat="37.438119000" lon="-5.864235000">
        <ele>30.0</ele>
        <time>2020-10-17T08:56:50Z</time>
      </trkpt>
      <trkpt lat="37.438112000" lon="-5.864343000">
        <ele>30.0</ele>
        <time>2020-10-17T08:56:52Z</time>
      </trkpt>
      <trkpt lat="37.438110000" lon="-5.864456000">
        <ele>30.0</ele>
        <time>2020-10-17T08:56:54Z</time>
      </trkpt>
      <trkpt lat="37.438106000" lon="-5.864572000">
        <ele>30.1</ele>
        <time>2020-10-17T08:56:56Z</time>
      </trkpt>
      <trkpt lat="37.438103000" lon="-5.864690000">
        <ele>30.2</ele>
        <time>2020-10-17T08:56:58Z</time>
      </trkpt>
      <trkpt lat="37.438101000" lon="-5.864814000">
        <ele>30.3</ele>
        <time>2020-10-17T08:57:00Z</time>
      </trkpt>
      <trkpt lat="37.438098000" lon="-5.864940000">
        <ele>30.4</ele>
        <time>2020-10-17T08:57:02Z</time>
      </trkpt>
      <trkpt lat="37.438092000" lon="-5.865057000">
        <ele>30.5</ele>
        <time>2020-10-17T08:57:04Z</time>
      </trkpt>
      <trkpt lat="37.438084000" lon="-5.865180000">
        <ele>30.5</ele>
        <time>2020-10-17T08:57:06Z</time>
      </trkpt>
      <trkpt lat="37.438082000" lon="-5.865306000">
        <ele>30.6</ele>
        <time>2020-10-17T08:57:08Z</time>
      </trkpt>
      <trkpt lat="37.438075000" lon="-5.865438000">
        <ele>30.8</ele>
        <time>2020-10-17T08:57:10Z</time>
      </trkpt>
      <trkpt lat="37.438068000" lon="-5.865564000">
        <ele>30.9</ele>
        <time>2020-10-17T08:57:12Z</time>
      </trkpt>
      <trkpt lat="37.438059000" lon="-5.865691000">
        <ele>31.0</ele>
        <time>2020-10-17T08:57:14Z</time>
      </trkpt>
      <trkpt lat="37.438041000" lon="-5.865817000">
        <ele>31.1</ele>
        <time>2020-10-17T08:57:16Z</time>
      </trkpt>
      <trkpt lat="37.438017000" lon="-5.865939000">
        <ele>31.0</ele>
        <time>2020-10-17T08:57:18Z</time>
      </trkpt>
      <trkpt lat="37.437994000" lon="-5.866064000">
        <ele>30.8</ele>
        <time>2020-10-17T08:57:20Z</time>
      </trkpt>
      <trkpt lat="37.437962000" lon="-5.866183000">
        <ele>30.6</ele>
        <time>2020-10-17T08:57:22Z</time>
      </trkpt>
      <trkpt lat="37.437935000" lon="-5.866299000">
        <ele>30.4</ele>
        <time>2020-10-17T08:57:24Z</time>
      </trkpt>
      <trkpt lat="37.437906000" lon="-5.866418000">
        <ele>30.1</ele>
        <time>2020-10-17T08:57:26Z</time>
      </trkpt>
      <trkpt lat="37.437877000" lon="-5.866539000">
        <ele>29.8</ele>
        <time>2020-10-17T08:57:28Z</time>
      </trkpt>
      <trkpt lat="37.437848000" lon="-5.866661000">
        <ele>29.5</ele>
        <time>2020-10-17T08:57:30Z</time>
      </trkpt>
      <trkpt lat="37.437821000" lon="-5.866775000">
        <ele>29.2</ele>
        <time>2020-10-17T08:57:32Z</time>
      </trkpt>
      <trkpt lat="37.437791000" lon="-5.866895000">
        <ele>28.9</ele>
        <time>2020-10-17T08:57:34Z</time>
      </trkpt>
      <trkpt lat="37.437760000" lon="-5.867015000">
        <ele>28.6</ele>
        <time>2020-10-17T08:57:36Z</time>
      </trkpt>
      <trkpt lat="37.437731000" lon="-5.867132000">
        <ele>28.4</ele>
        <time>2020-10-17T08:57:38Z</time>
      </trkpt>
      <trkpt lat="37.437703000" lon="-5.867250000">
        <ele>28.2</ele>
        <time>2020-10-17T08:57:40Z</time>
      </trkpt>
      <trkpt lat="37.437674000" lon="-5.867367000">
        <ele>28.2</ele>
        <time>2020-10-17T08:57:42Z</time>
      </trkpt>
      <trkpt lat="37.437644000" lon="-5.867484000">
        <ele>28.3</ele>
        <time>2020-10-17T08:57:44Z</time>
      </trkpt>
      <trkpt lat="37.437603000" lon="-5.867598000">
        <ele>28.5</ele>
        <time>2020-10-17T08:57:46Z</time>
      </trkpt>
      <trkpt lat="37.437564000" lon="-5.867710000">
        <ele>28.6</ele>
        <time>2020-10-17T08:57:48Z</time>
      </trkpt>
      <trkpt lat="37.437524000" lon="-5.867815000">
        <ele>28.9</ele>
        <time>2020-10-17T08:57:50Z</time>
      </trkpt>
      <trkpt lat="37.437479000" lon="-5.867919000">
        <ele>29.2</ele>
        <time>2020-10-17T08:57:52Z</time>
      </trkpt>
      <trkpt lat="37.437425000" lon="-5.868009000">
        <ele>29.4</ele>
        <time>2020-10-17T08:57:54Z</time>
      </trkpt>
      <trkpt lat="37.437374000" lon="-5.868111000">
        <ele>29.5</ele>
        <time>2020-10-17T08:57:57Z</time>
      </trkpt>
      <trkpt lat="37.437304000" lon="-5.868208000">
        <ele>29.7</ele>
        <time>2020-10-17T08:58:29Z</time>
      </trkpt>
      <trkpt lat="37.437245000" lon="-5.868306000">
        <ele>29.9</ele>
        <time>2020-10-17T08:58:32Z</time>
      </trkpt>
      <trkpt lat="37.437167000" lon="-5.868425000">
        <ele>30.1</ele>
        <time>2020-10-17T08:58:35Z</time>
      </trkpt>
      <trkpt lat="37.437103000" lon="-5.868524000">
        <ele>30.2</ele>
        <time>2020-10-17T08:58:37Z</time>
      </trkpt>
      <trkpt lat="37.437033000" lon="-5.868619000">
        <ele>30.2</ele>
        <time>2020-10-17T08:58:39Z</time>
      </trkpt>
      <trkpt lat="37.436968000" lon="-5.868716000">
        <ele>30.3</ele>
        <time>2020-10-17T08:58:41Z</time>
      </trkpt>
      <trkpt lat="37.436910000" lon="-5.868798000">
        <ele>30.5</ele>
        <time>2020-10-17T08:58:43Z</time>
      </trkpt>
      <trkpt lat="37.436851000" lon="-5.868875000">
        <ele>30.6</ele>
        <time>2020-10-17T08:58:45Z</time>
      </trkpt>
      <trkpt lat="37.436791000" lon="-5.869016000">
        <ele>30.9</ele>
        <time>2020-10-17T08:58:48Z</time>
      </trkpt>
      <trkpt lat="37.436757000" lon="-5.869132000">
        <ele>31.4</ele>
        <time>2020-10-17T08:58:50Z</time>
      </trkpt>
      <trkpt lat="37.436726000" lon="-5.869252000">
        <ele>31.8</ele>
        <time>2020-10-17T08:58:52Z</time>
      </trkpt>
      <trkpt lat="37.436710000" lon="-5.869371000">
        <ele>32.4</ele>
        <time>2020-10-17T08:58:54Z</time>
      </trkpt>
      <trkpt lat="37.436672000" lon="-5.869519000">
        <ele>32.9</ele>
        <time>2020-10-17T08:58:57Z</time>
      </trkpt>
      <trkpt lat="37.436638000" lon="-5.869622000">
        <ele>33.4</ele>
        <time>2020-10-17T08:58:59Z</time>
      </trkpt>
      <trkpt lat="37.436597000" lon="-5.869752000">
        <ele>33.8</ele>
        <time>2020-10-17T08:59:01Z</time>
      </trkpt>
      <trkpt lat="37.436551000" lon="-5.869872000">
        <ele>34.2</ele>
        <time>2020-10-17T08:59:03Z</time>
      </trkpt>
      <trkpt lat="37.436504000" lon="-5.869977000">
        <ele>34.5</ele>
        <time>2020-10-17T08:59:05Z</time>
      </trkpt>
      <trkpt lat="37.436451000" lon="-5.870096000">
        <ele>34.6</ele>
        <time>2020-10-17T08:59:07Z</time>
      </trkpt>
      <trkpt lat="37.436412000" lon="-5.870211000">
        <ele>34.8</ele>
        <time>2020-10-17T08:59:09Z</time>
      </trkpt>
      <trkpt lat="37.436371000" lon="-5.870305000">
        <ele>34.9</ele>
        <time>2020-10-17T08:59:11Z</time>
      </trkpt>
      <trkpt lat="37.436328000" lon="-5.870394000">
        <ele>35.0</ele>
        <time>2020-10-17T08:59:13Z</time>
      </trkpt>
      <trkpt lat="37.436285000" lon="-5.870490000">
        <ele>35.1</ele>
        <time>2020-10-17T08:59:15Z</time>
      </trkpt>
      <trkpt lat="37.436247000" lon="-5.870584000">
        <ele>35.1</ele>
        <time>2020-10-17T08:59:17Z</time>
      </trkpt>
      <trkpt lat="37.436191000" lon="-5.870704000">
        <ele>35.1</ele>
        <time>2020-10-17T08:59:19Z</time>
      </trkpt>
      <trkpt lat="37.436148000" lon="-5.870814000">
        <ele>35.2</ele>
        <time>2020-10-17T08:59:21Z</time>
      </trkpt>
      <trkpt lat="37.436106000" lon="-5.870919000">
        <ele>35.3</ele>
        <time>2020-10-17T08:59:23Z</time>
      </trkpt>
      <trkpt lat="37.436070000" lon="-5.871023000">
        <ele>35.4</ele>
        <time>2020-10-17T08:59:25Z</time>
      </trkpt>
      <trkpt lat="37.436027000" lon="-5.871143000">
        <ele>35.5</ele>
        <time>2020-10-17T08:59:27Z</time>
      </trkpt>
      <trkpt lat="37.435997000" lon="-5.871245000">
        <ele>35.4</ele>
        <time>2020-10-17T08:59:29Z</time>
      </trkpt>
      <trkpt lat="37.435961000" lon="-5.871349000">
        <ele>35.1</ele>
        <time>2020-10-17T08:59:31Z</time>
      </trkpt>
      <trkpt lat="37.435923000" lon="-5.871487000">
        <ele>34.6</ele>
        <time>2020-10-17T08:59:34Z</time>
      </trkpt>
      <trkpt lat="37.435898000" lon="-5.871589000">
        <ele>34.0</ele>
        <time>2020-10-17T08:59:36Z</time>
      </trkpt>
      <trkpt lat="37.435869000" lon="-5.871725000">
        <ele>33.4</ele>
        <time>2020-10-17T08:59:39Z</time>
      </trkpt>
      <trkpt lat="37.435844000" lon="-5.871848000">
        <ele>32.7</ele>
        <time>2020-10-17T08:59:42Z</time>
      </trkpt>
      <trkpt lat="37.435810000" lon="-5.871971000">
        <ele>32.1</ele>
        <time>2020-10-17T08:59:46Z</time>
      </trkpt>
      <trkpt lat="37.435769000" lon="-5.872090000">
        <ele>31.5</ele>
        <time>2020-10-17T08:59:49Z</time>
      </trkpt>
      <trkpt lat="37.435718000" lon="-5.872227000">
        <ele>30.8</ele>
        <time>2020-10-17T08:59:52Z</time>
      </trkpt>
      <trkpt lat="37.435650000" lon="-5.872354000">
        <ele>30.3</ele>
        <time>2020-10-17T08:59:55Z</time>
      </trkpt>
      <trkpt lat="37.435605000" lon="-5.872460000">
        <ele>29.7</ele>
        <time>2020-10-17T08:59:57Z</time>
      </trkpt>
      <trkpt lat="37.435567000" lon="-5.872565000">
        <ele>29.5</ele>
        <time>2020-10-17T08:59:59Z</time>
      </trkpt>
      <trkpt lat="37.435515000" lon="-5.872662000">
        <ele>29.3</ele>
        <time>2020-10-17T09:00:01Z</time>
      </trkpt>
      <trkpt lat="37.435463000" lon="-5.872760000">
        <ele>29.2</ele>
        <time>2020-10-17T09:00:03Z</time>
      </trkpt>
      <trkpt lat="37.435412000" lon="-5.872864000">
        <ele>29.2</ele>
        <time>2020-10-17T09:00:05Z</time>
      </trkpt>
      <trkpt lat="37.435366000" lon="-5.872965000">
        <ele>29.2</ele>
        <time>2020-10-17T09:00:07Z</time>
      </trkpt>
      <trkpt lat="37.435317000" lon="-5.873065000">
        <ele>29.2</ele>
        <time>2020-10-17T09:00:09Z</time>
      </trkpt>
      <trkpt lat="37.435259000" lon="-5.873168000">
        <ele>29.2</ele>
        <time>2020-10-17T09:00:11Z</time>
      </trkpt>
      <trkpt lat="37.435191000" lon="-5.873259000">
        <ele>29.2</ele>
        <time>2020-10-17T09:00:13Z</time>
      </trkpt>
      <trkpt lat="37.435129000" lon="-5.873346000">
        <ele>29.2</ele>
        <time>2020-10-17T09:00:15Z</time>
      </trkpt>
      <trkpt lat="37.435066000" lon="-5.873432000">
        <ele>29.2</ele>
        <time>2020-10-17T09:00:17Z</time>
      </trkpt>
      <trkpt lat="37.434996000" lon="-5.873516000">
        <ele>29.2</ele>
        <time>2020-10-17T09:00:19Z</time>
      </trkpt>
      <trkpt lat="37.434920000" lon="-5.873594000">
        <ele>29.1</ele>
        <time>2020-10-17T09:00:21Z</time>
      </trkpt>
      <trkpt lat="37.434851000" lon="-5.873682000">
        <ele>29.0</ele>
        <time>2020-10-17T09:00:23Z</time>
      </trkpt>
      <trkpt lat="37.434779000" lon="-5.873763000">
        <ele>29.0</ele>
        <time>2020-10-17T09:00:25Z</time>
      </trkpt>
      <trkpt lat="37.434700000" lon="-5.873857000">
        <ele>29.0</ele>
        <time>2020-10-17T09:00:27Z</time>
      </trkpt>
      <trkpt lat="37.434625000" lon="-5.873954000">
        <ele>28.9</ele>
        <time>2020-10-17T09:00:29Z</time>
      </trkpt>
      <trkpt lat="37.434558000" lon="-5.874056000">
        <ele>28.8</ele>
        <time>2020-10-17T09:00:31Z</time>
      </trkpt>
      <trkpt lat="37.434496000" lon="-5.874170000">
        <ele>28.7</ele>
        <time>2020-10-17T09:00:33Z</time>
      </trkpt>
      <trkpt lat="37.434433000" lon="-5.874294000">
        <ele>28.6</ele>
        <time>2020-10-17T09:00:35Z</time>
      </trkpt>
      <trkpt lat="37.434376000" lon="-5.874416000">
        <ele>28.5</ele>
        <time>2020-10-17T09:00:37Z</time>
      </trkpt>
      <trkpt lat="37.434315000" lon="-5.874544000">
        <ele>28.5</ele>
        <time>2020-10-17T09:00:39Z</time>
      </trkpt>
      <trkpt lat="37.434252000" lon="-5.874675000">
        <ele>28.3</ele>
        <time>2020-10-17T09:00:41Z</time>
      </trkpt>
      <trkpt lat="37.434185000" lon="-5.874800000">
        <ele>28.2</ele>
        <time>2020-10-17T09:00:43Z</time>
      </trkpt>
      <trkpt lat="37.434119000" lon="-5.874936000">
        <ele>28.1</ele>
        <time>2020-10-17T09:00:45Z</time>
      </trkpt>
      <trkpt lat="37.434053000" lon="-5.875070000">
        <ele>28.0</ele>
        <time>2020-10-17T09:00:47Z</time>
      </trkpt>
      <trkpt lat="37.433990000" lon="-5.875197000">
        <ele>28.0</ele>
        <time>2020-10-17T09:00:49Z</time>
      </trkpt>
      <trkpt lat="37.433931000" lon="-5.875320000">
        <ele>28.1</ele>
        <time>2020-10-17T09:00:51Z</time>
      </trkpt>
      <trkpt lat="37.433869000" lon="-5.875431000">
        <ele>28.3</ele>
        <time>2020-10-17T09:00:53Z</time>
      </trkpt>
      <trkpt lat="37.433818000" lon="-5.875544000">
        <ele>28.5</ele>
        <time>2020-10-17T09:00:55Z</time>
      </trkpt>
      <trkpt lat="37.433787000" lon="-5.875664000">
        <ele>28.6</ele>
        <time>2020-10-17T09:00:57Z</time>
      </trkpt>
      <trkpt lat="37.433797000" lon="-5.875784000">
        <ele>28.8</ele>
        <time>2020-10-17T09:00:59Z</time>
      </trkpt>
      <trkpt lat="37.433841000" lon="-5.875886000">
        <ele>29.0</ele>
        <time>2020-10-17T09:01:01Z</time>
      </trkpt>
      <trkpt lat="37.433888000" lon="-5.875984000">
        <ele>29.3</ele>
        <time>2020-10-17T09:01:03Z</time>
      </trkpt>
      <trkpt lat="37.433938000" lon="-5.876093000">
        <ele>29.5</ele>
        <time>2020-10-17T09:01:05Z</time>
      </trkpt>
      <trkpt lat="37.433992000" lon="-5.876204000">
        <ele>29.6</ele>
        <time>2020-10-17T09:01:07Z</time>
      </trkpt>
      <trkpt lat="37.434045000" lon="-5.876317000">
        <ele>29.9</ele>
        <time>2020-10-17T09:01:09Z</time>
      </trkpt>
      <trkpt lat="37.434097000" lon="-5.876434000">
        <ele>30.1</ele>
        <time>2020-10-17T09:01:11Z</time>
      </trkpt>
      <trkpt lat="37.434144000" lon="-5.876545000">
        <ele>30.4</ele>
        <time>2020-10-17T09:01:13Z</time>
      </trkpt>
      <trkpt lat="37.434189000" lon="-5.876658000">
        <ele>30.5</ele>
        <time>2020-10-17T09:01:15Z</time>
      </trkpt>
      <trkpt lat="37.434241000" lon="-5.876774000">
        <ele>30.7</ele>
        <time>2020-10-17T09:01:17Z</time>
      </trkpt>
      <trkpt lat="37.434285000" lon="-5.876888000">
        <ele>30.8</ele>
        <time>2020-10-17T09:01:19Z</time>
      </trkpt>
      <trkpt lat="37.434331000" lon="-5.877003000">
        <ele>30.9</ele>
        <time>2020-10-17T09:01:21Z</time>
      </trkpt>
      <trkpt lat="37.434382000" lon="-5.877114000">
        <ele>31.0</ele>
        <time>2020-10-17T09:01:23Z</time>
      </trkpt>
      <trkpt lat="37.434435000" lon="-5.877230000">
        <ele>31.0</ele>
        <time>2020-10-17T09:01:25Z</time>
      </trkpt>
      <trkpt lat="37.434488000" lon="-5.877337000">
        <ele>31.0</ele>
        <time>2020-10-17T09:01:27Z</time>
      </trkpt>
      <trkpt lat="37.434544000" lon="-5.877438000">
        <ele>30.9</ele>
        <time>2020-10-17T09:01:29Z</time>
      </trkpt>
      <trkpt lat="37.434599000" lon="-5.877540000">
        <ele>30.7</ele>
        <time>2020-10-17T09:01:31Z</time>
      </trkpt>
      <trkpt lat="37.434657000" lon="-5.877644000">
        <ele>30.5</ele>
        <time>2020-10-17T09:01:33Z</time>
      </trkpt>
      <trkpt lat="37.434720000" lon="-5.877745000">
        <ele>30.3</ele>
        <time>2020-10-17T09:01:35Z</time>
      </trkpt>
      <trkpt lat="37.434786000" lon="-5.877841000">
        <ele>30.1</ele>
        <time>2020-10-17T09:01:37Z</time>
      </trkpt>
      <trkpt lat="37.434842000" lon="-5.877945000">
        <ele>29.9</ele>
        <time>2020-10-17T09:01:39Z</time>
      </trkpt>
      <trkpt lat="37.434902000" lon="-5.878025000">
        <ele>29.9</ele>
        <time>2020-10-17T09:01:42Z</time>
      </trkpt>
      <trkpt lat="37.434963000" lon="-5.878122000">
        <ele>30.0</ele>
        <time>2020-10-17T09:02:12Z</time>
      </trkpt>
      <trkpt lat="37.435027000" lon="-5.878218000">
        <ele>30.1</ele>
        <time>2020-10-17T09:02:15Z</time>
      </trkpt>
      <trkpt lat="37.435105000" lon="-5.878328000">
        <ele>30.3</ele>
        <time>2020-10-17T09:02:18Z</time>
      </trkpt>
      <trkpt lat="37.435158000" lon="-5.878409000">
        <ele>30.5</ele>
        <time>2020-10-17T09:02:20Z</time>
      </trkpt>
      <trkpt lat="37.435210000" lon="-5.878495000">
        <ele>30.7</ele>
        <time>2020-10-17T09:02:22Z</time>
      </trkpt>
      <trkpt lat="37.435262000" lon="-5.878581000">
        <ele>31.0</ele>
        <time>2020-10-17T09:02:24Z</time>
      </trkpt>
      <trkpt lat="37.435317000" lon="-5.878658000">
        <ele>31.3</ele>
        <time>2020-10-17T09:02:26Z</time>
      </trkpt>
      <trkpt lat="37.435410000" lon="-5.878749000">
        <ele>31.5</ele>
        <time>2020-10-17T09:02:29Z</time>
      </trkpt>
      <trkpt lat="37.435502000" lon="-5.878777000">
        <ele>31.6</ele>
        <time>2020-10-17T09:02:32Z</time>
      </trkpt>
      <trkpt lat="37.435585000" lon="-5.878789000">
        <ele>31.7</ele>
        <time>2020-10-17T09:02:36Z</time>
      </trkpt>
      <trkpt lat="37.435655000" lon="-5.878868000">
        <ele>31.8</ele>
        <time>2020-10-17T09:02:39Z</time>
      </trkpt>
      <trkpt lat="37.435692000" lon="-5.878978000">
        <ele>31.8</ele>
        <time>2020-10-17T09:02:42Z</time>
      </trkpt>
      <trkpt lat="37.435703000" lon="-5.879096000">
        <ele>31.7</ele>
        <time>2020-10-17T09:02:45Z</time>
      </trkpt>
      <trkpt lat="37.435701000" lon="-5.879217000">
        <ele>31.6</ele>
        <time>2020-10-17T09:02:48Z</time>
      </trkpt>
      <trkpt lat="37.435647000" lon="-5.879315000">
        <ele>31.5</ele>
        <time>2020-10-17T09:03:00Z</time>
      </trkpt>
      <trkpt lat="37.435555000" lon="-5.879354000">
        <ele>31.5</ele>
        <time>2020-10-17T09:03:03Z</time>
      </trkpt>
      <trkpt lat="37.435467000" lon="-5.879439000">
        <ele>31.4</ele>
        <time>2020-10-17T09:03:06Z</time>
      </trkpt>
      <trkpt lat="37.435361000" lon="-5.879509000">
        <ele>31.3</ele>
        <time>2020-10-17T09:03:09Z</time>
      </trkpt>
      <trkpt lat="37.435261000" lon="-5.879584000">
        <ele>31.1</ele>
        <time>2020-10-17T09:03:12Z</time>
      </trkpt>
      <trkpt lat="37.435222000" lon="-5.879693000">
        <ele>31.0</ele>
        <time>2020-10-17T09:03:15Z</time>
      </trkpt>
      <trkpt lat="37.435240000" lon="-5.879822000">
        <ele>30.9</ele>
        <time>2020-10-17T09:03:18Z</time>
      </trkpt>
      <trkpt lat="37.435256000" lon="-5.879926000">
        <ele>30.8</ele>
        <time>2020-10-17T09:03:20Z</time>
      </trkpt>
      <trkpt lat="37.435269000" lon="-5.880035000">
        <ele>30.7</ele>
        <time>2020-10-17T09:03:22Z</time>
      </trkpt>
      <trkpt lat="37.435279000" lon="-5.880150000">
        <ele>30.7</ele>
        <time>2020-10-17T09:03:24Z</time>
      </trkpt>
      <trkpt lat="37.435285000" lon="-5.880268000">
        <ele>30.8</ele>
        <time>2020-10-17T09:03:26Z</time>
      </trkpt>
      <trkpt lat="37.435288000" lon="-5.880381000">
        <ele>30.9</ele>
        <time>2020-10-17T09:03:28Z</time>
      </trkpt>
      <trkpt lat="37.435287000" lon="-5.880491000">
        <ele>31.1</ele>
        <time>2020-10-17T09:03:30Z</time>
      </trkpt>
      <trkpt lat="37.435281000" lon="-5.880598000">
        <ele>31.3</ele>
        <time>2020-10-17T09:03:32Z</time>
      </trkpt>
      <trkpt lat="37.435267000" lon="-5.880704000">
        <ele>31.5</ele>
        <time>2020-10-17T09:03:34Z</time>
      </trkpt>
      <trkpt lat="37.435249000" lon="-5.880818000">
        <ele>31.6</ele>
        <time>2020-10-17T09:03:36Z</time>
      </trkpt>
      <trkpt lat="37.435235000" lon="-5.880922000">
        <ele>31.7</ele>
        <time>2020-10-17T09:03:38Z</time>
      </trkpt>
      <trkpt lat="37.435215000" lon="-5.881024000">
        <ele>31.8</ele>
        <time>2020-10-17T09:03:40Z</time>
      </trkpt>
      <trkpt lat="37.435194000" lon="-5.881131000">
        <ele>31.7</ele>
        <time>2020-10-17T09:03:42Z</time>
      </trkpt>
      <trkpt lat="37.435167000" lon="-5.881236000">
        <ele>31.6</ele>
        <time>2020-10-17T09:03:44Z</time>
      </trkpt>
      <trkpt lat="37.435146000" lon="-5.881335000">
        <ele>31.5</ele>
        <time>2020-10-17T09:03:46Z</time>
      </trkpt>
      <trkpt lat="37.435121000" lon="-5.881463000">
        <ele>31.2</ele>
        <time>2020-10-17T09:03:49Z</time>
      </trkpt>
      <trkpt lat="37.435081000" lon="-5.881584000">
        <ele>30.8</ele>
        <time>2020-10-17T09:03:52Z</time>
      </trkpt>
      <trkpt lat="37.435009000" lon="-5.881697000">
        <ele>30.4</ele>
        <time>2020-10-17T09:03:55Z</time>
      </trkpt>
      <trkpt lat="37.434972000" lon="-5.881792000">
        <ele>29.8</ele>
        <time>2020-10-17T09:03:57Z</time>
      </trkpt>
      <trkpt lat="37.434942000" lon="-5.881896000">
        <ele>29.3</ele>
        <time>2020-10-17T09:03:59Z</time>
      </trkpt>
      <trkpt lat="37.434934000" lon="-5.882014000">
        <ele>28.7</ele>
        <time>2020-10-17T09:04:01Z</time>
      </trkpt>
      <trkpt lat="37.434934000" lon="-5.882130000">
        <ele>28.2</ele>
        <time>2020-10-17T09:04:03Z</time>
      </trkpt>
      <trkpt lat="37.434925000" lon="-5.882250000">
        <ele>27.6</ele>
        <time>2020-10-17T09:04:05Z</time>
      </trkpt>
      <trkpt lat="37.434907000" lon="-5.882377000">
        <ele>27.1</ele>
        <time>2020-10-17T09:04:07Z</time>
      </trkpt>
      <trkpt lat="37.434878000" lon="-5.882512000">
        <ele>26.6</ele>
        <time>2020-10-17T09:04:09Z</time>
      </trkpt>
      <trkpt lat="37.434845000" lon="-5.882657000">
        <ele>26.3</ele>
        <time>2020-10-17T09:04:11Z</time>
      </trkpt>
      <trkpt lat="37.434809000" lon="-5.882805000">
        <ele>25.9</ele>
        <time>2020-10-17T09:04:13Z</time>
      </trkpt>
      <trkpt lat="37.434772000" lon="-5.882957000">
        <ele>25.7</ele>
        <time>2020-10-17T09:04:15Z</time>
      </trkpt>
      <trkpt lat="37.434735000" lon="-5.883109000">
        <ele>25.5</ele>
        <time>2020-10-17T09:04:17Z</time>
      </trkpt>
      <trkpt lat="37.434694000" lon="-5.883263000">
        <ele>25.5</ele>
        <time>2020-10-17T09:04:19Z</time>
      </trkpt>
      <trkpt lat="37.434653000" lon="-5.883421000">
        <ele>25.5</ele>
        <time>2020-10-17T09:04:21Z</time>
      </trkpt>
      <trkpt lat="37.434610000" lon="-5.883576000">
        <ele>25.6</ele>
        <time>2020-10-17T09:04:23Z</time>
      </trkpt>
      <trkpt lat="37.434555000" lon="-5.883728000">
        <ele>25.8</ele>
        <time>2020-10-17T09:04:25Z</time>
      </trkpt>
      <trkpt lat="37.434501000" lon="-5.883885000">
        <ele>26.1</ele>
        <time>2020-10-17T09:04:27Z</time>
      </trkpt>
      <trkpt lat="37.434450000" lon="-5.884042000">
        <ele>26.5</ele>
        <time>2020-10-17T09:04:29Z</time>
      </trkpt>
      <trkpt lat="37.434395000" lon="-5.884200000">
        <ele>26.6</ele>
        <time>2020-10-17T09:04:31Z</time>
      </trkpt>
      <trkpt lat="37.434340000" lon="-5.884351000">
        <ele>26.8</ele>
        <time>2020-10-17T09:04:33Z</time>
      </trkpt>
      <trkpt lat="37.434288000" lon="-5.884499000">
        <ele>26.9</ele>
        <time>2020-10-17T09:04:35Z</time>
      </trkpt>
      <trkpt lat="37.434236000" lon="-5.884640000">
        <ele>26.9</ele>
        <time>2020-10-17T09:04:37Z</time>
      </trkpt>
      <trkpt lat="37.434189000" lon="-5.884767000">
        <ele>26.8</ele>
        <time>2020-10-17T09:04:39Z</time>
      </trkpt>
      <trkpt lat="37.434138000" lon="-5.884898000">
        <ele>26.6</ele>
        <time>2020-10-17T09:04:41Z</time>
      </trkpt>
      <trkpt lat="37.434083000" lon="-5.885027000">
        <ele>26.5</ele>
        <time>2020-10-17T09:04:43Z</time>
      </trkpt>
      <trkpt lat="37.434024000" lon="-5.885156000">
        <ele>26.5</ele>
        <time>2020-10-17T09:04:45Z</time>
      </trkpt>
      <trkpt lat="37.433962000" lon="-5.885286000">
        <ele>26.5</ele>
        <time>2020-10-17T09:04:47Z</time>
      </trkpt>
      <trkpt lat="37.433900000" lon="-5.885416000">
        <ele>26.2</ele>
        <time>2020-10-17T09:04:49Z</time>
      </trkpt>
      <trkpt lat="37.433838000" lon="-5.885545000">
        <ele>25.9</ele>
        <time>2020-10-17T09:04:51Z</time>
      </trkpt>
      <trkpt lat="37.433781000" lon="-5.885674000">
        <ele>25.7</ele>
        <time>2020-10-17T09:04:53Z</time>
      </trkpt>
      <trkpt lat="37.433720000" lon="-5.885799000">
        <ele>25.5</ele>
        <time>2020-10-17T09:04:55Z</time>
      </trkpt>
      <trkpt lat="37.433656000" lon="-5.885922000">
        <ele>25.4</ele>
        <time>2020-10-17T09:04:57Z</time>
      </trkpt>
      <trkpt lat="37.433597000" lon="-5.886047000">
        <ele>25.2</ele>
        <time>2020-10-17T09:04:59Z</time>
      </trkpt>
      <trkpt lat="37.433540000" lon="-5.886165000">
        <ele>25.1</ele>
        <time>2020-10-17T09:05:01Z</time>
      </trkpt>
      <trkpt lat="37.433492000" lon="-5.886286000">
        <ele>25.0</ele>
        <time>2020-10-17T09:05:03Z</time>
      </trkpt>
      <trkpt lat="37.433437000" lon="-5.886390000">
        <ele>24.7</ele>
        <time>2020-10-17T09:05:05Z</time>
      </trkpt>
      <trkpt lat="37.433379000" lon="-5.886506000">
        <ele>24.4</ele>
        <time>2020-10-17T09:05:07Z</time>
      </trkpt>
      <trkpt lat="37.433319000" lon="-5.886619000">
        <ele>24.1</ele>
        <time>2020-10-17T09:05:09Z</time>
      </trkpt>
      <trkpt lat="37.433253000" lon="-5.886734000">
        <ele>23.9</ele>
        <time>2020-10-17T09:05:11Z</time>
      </trkpt>
      <trkpt lat="37.433193000" lon="-5.886855000">
        <ele>23.7</ele>
        <time>2020-10-17T09:05:13Z</time>
      </trkpt>
      <trkpt lat="37.433131000" lon="-5.886976000">
        <ele>23.6</ele>
        <time>2020-10-17T09:05:15Z</time>
      </trkpt>
      <trkpt lat="37.433073000" lon="-5.887098000">
        <ele>23.5</ele>
        <time>2020-10-17T09:05:17Z</time>
      </trkpt>
      <trkpt lat="37.433010000" lon="-5.887218000">
        <ele>23.6</ele>
        <time>2020-10-17T09:05:19Z</time>
      </trkpt>
      <trkpt lat="37.432949000" lon="-5.887336000">
        <ele>23.7</ele>
        <time>2020-10-17T09:05:21Z</time>
      </trkpt>
      <trkpt lat="37.432888000" lon="-5.887456000">
        <ele>23.8</ele>
        <time>2020-10-17T09:05:23Z</time>
      </trkpt>
      <trkpt lat="37.432826000" lon="-5.887583000">
        <ele>24.0</ele>
        <time>2020-10-17T09:05:25Z</time>
      </trkpt>
      <trkpt lat="37.432765000" lon="-5.887702000">
        <ele>24.4</ele>
        <time>2020-10-17T09:05:27Z</time>
      </trkpt>
      <trkpt lat="37.432708000" lon="-5.887826000">
        <ele>24.7</ele>
        <time>2020-10-17T09:05:29Z</time>
      </trkpt>
      <trkpt lat="37.432652000" lon="-5.887953000">
        <ele>25.1</ele>
        <time>2020-10-17T09:05:31Z</time>
      </trkpt>
      <trkpt lat="37.432594000" lon="-5.888078000">
        <ele>25.5</ele>
        <time>2020-10-17T09:05:33Z</time>
      </trkpt>
      <trkpt lat="37.432535000" lon="-5.888205000">
        <ele>25.9</ele>
        <time>2020-10-17T09:05:35Z</time>
      </trkpt>
      <trkpt lat="37.432474000" lon="-5.888326000">
        <ele>26.3</ele>
        <time>2020-10-17T09:05:37Z</time>
      </trkpt>
      <trkpt lat="37.432409000" lon="-5.888443000">
        <ele>26.6</ele>
        <time>2020-10-17T09:05:39Z</time>
      </trkpt>
      <trkpt lat="37.432348000" lon="-5.888570000">
        <ele>26.9</ele>
        <time>2020-10-17T09:05:41Z</time>
      </trkpt>
      <trkpt lat="37.432291000" lon="-5.888692000">
        <ele>27.2</ele>
        <time>2020-10-17T09:05:43Z</time>
      </trkpt>
      <trkpt lat="37.432232000" lon="-5.888817000">
        <ele>27.5</ele>
        <time>2020-10-17T09:05:45Z</time>
      </trkpt>
      <trkpt lat="37.432177000" lon="-5.888941000">
        <ele>27.6</ele>
        <time>2020-10-17T09:05:47Z</time>
      </trkpt>
      <trkpt lat="37.432120000" lon="-5.889061000">
        <ele>27.7</ele>
        <time>2020-10-17T09:05:49Z</time>
      </trkpt>
      <trkpt lat="37.432061000" lon="-5.889180000">
        <ele>27.7</ele>
        <time>2020-10-17T09:05:51Z</time>
      </trkpt>
      <trkpt lat="37.432005000" lon="-5.889300000">
        <ele>27.7</ele>
        <time>2020-10-17T09:05:53Z</time>
      </trkpt>
      <trkpt lat="37.431950000" lon="-5.889423000">
        <ele>27.6</ele>
        <time>2020-10-17T09:05:55Z</time>
      </trkpt>
      <trkpt lat="37.431893000" lon="-5.889546000">
        <ele>27.5</ele>
        <time>2020-10-17T09:05:57Z</time>
      </trkpt>
      <trkpt lat="37.431833000" lon="-5.889668000">
        <ele>27.3</ele>
        <time>2020-10-17T09:05:59Z</time>
      </trkpt>
      <trkpt lat="37.431776000" lon="-5.889791000">
        <ele>27.1</ele>
        <time>2020-10-17T09:06:01Z</time>
      </trkpt>
      <trkpt lat="37.431719000" lon="-5.889912000">
        <ele>26.9</ele>
        <time>2020-10-17T09:06:03Z</time>
      </trkpt>
      <trkpt lat="37.431659000" lon="-5.890036000">
        <ele>26.7</ele>
        <time>2020-10-17T09:06:05Z</time>
      </trkpt>
      <trkpt lat="37.431600000" lon="-5.890157000">
        <ele>26.5</ele>
        <time>2020-10-17T09:06:07Z</time>
      </trkpt>
      <trkpt lat="37.431543000" lon="-5.890273000">
        <ele>26.4</ele>
        <time>2020-10-17T09:06:09Z</time>
      </trkpt>
      <trkpt lat="37.431484000" lon="-5.890394000">
        <ele>26.1</ele>
        <time>2020-10-17T09:06:11Z</time>
      </trkpt>
      <trkpt lat="37.431428000" lon="-5.890516000">
        <ele>25.9</ele>
        <time>2020-10-17T09:06:13Z</time>
      </trkpt>
      <trkpt lat="37.431367000" lon="-5.890635000">
        <ele>25.7</ele>
        <time>2020-10-17T09:06:15Z</time>
      </trkpt>
      <trkpt lat="37.431312000" lon="-5.890749000">
        <ele>25.6</ele>
        <time>2020-10-17T09:06:17Z</time>
      </trkpt>
      <trkpt lat="37.431262000" lon="-5.890854000">
        <ele>25.6</ele>
        <time>2020-10-17T09:06:19Z</time>
      </trkpt>
      <trkpt lat="37.431215000" lon="-5.890955000">
        <ele>25.6</ele>
        <time>2020-10-17T09:06:21Z</time>
      </trkpt>
      <trkpt lat="37.431168000" lon="-5.891057000">
        <ele>25.6</ele>
        <time>2020-10-17T09:06:23Z</time>
      </trkpt>
      <trkpt lat="37.431123000" lon="-5.891158000">
        <ele>25.6</ele>
        <time>2020-10-17T09:06:25Z</time>
      </trkpt>
      <trkpt lat="37.431070000" lon="-5.891254000">
        <ele>25.6</ele>
        <time>2020-10-17T09:06:27Z</time>
      </trkpt>
      <trkpt lat="37.431015000" lon="-5.891357000">
        <ele>25.6</ele>
        <time>2020-10-17T09:06:29Z</time>
      </trkpt>
      <trkpt lat="37.430970000" lon="-5.891459000">
        <ele>25.6</ele>
        <time>2020-10-17T09:06:31Z</time>
      </trkpt>
      <trkpt lat="37.430915000" lon="-5.891557000">
        <ele>25.7</ele>
        <time>2020-10-17T09:06:33Z</time>
      </trkpt>
      <trkpt lat="37.430862000" lon="-5.891662000">
        <ele>25.8</ele>
        <time>2020-10-17T09:06:35Z</time>
      </trkpt>
      <trkpt lat="37.430824000" lon="-5.891776000">
        <ele>25.9</ele>
        <time>2020-10-17T09:06:37Z</time>
      </trkpt>
      <trkpt lat="37.430780000" lon="-5.891880000">
        <ele>26.0</ele>
        <time>2020-10-17T09:06:39Z</time>
      </trkpt>
      <trkpt lat="37.430725000" lon="-5.891983000">
        <ele>26.0</ele>
        <time>2020-10-17T09:06:41Z</time>
      </trkpt>
      <trkpt lat="37.430669000" lon="-5.892090000">
        <ele>26.1</ele>
        <time>2020-10-17T09:06:43Z</time>
      </trkpt>
      <trkpt lat="37.430617000" lon="-5.892202000">
        <ele>26.2</ele>
        <time>2020-10-17T09:06:45Z</time>
      </trkpt>
      <trkpt lat="37.430567000" lon="-5.892305000">
        <ele>26.3</ele>
        <time>2020-10-17T09:06:47Z</time>
      </trkpt>
      <trkpt lat="37.430521000" lon="-5.892411000">
        <ele>26.5</ele>
        <time>2020-10-17T09:06:50Z</time>
      </trkpt>
      <trkpt lat="37.430467000" lon="-5.892503000">
        <ele>26.6</ele>
        <time>2020-10-17T09:07:21Z</time>
      </trkpt>
      <trkpt lat="37.430419000" lon="-5.892625000">
        <ele>26.7</ele>
        <time>2020-10-17T09:07:25Z</time>
      </trkpt>
      <trkpt lat="37.430363000" lon="-5.892757000">
        <ele>26.8</ele>
        <time>2020-10-17T09:07:28Z</time>
      </trkpt>
      <trkpt lat="37.430316000" lon="-5.892853000">
        <ele>26.9</ele>
        <time>2020-10-17T09:07:30Z</time>
      </trkpt>
      <trkpt lat="37.430269000" lon="-5.892949000">
        <ele>26.9</ele>
        <time>2020-10-17T09:07:32Z</time>
      </trkpt>
      <trkpt lat="37.430215000" lon="-5.893048000">
        <ele>26.8</ele>
        <time>2020-10-17T09:07:34Z</time>
      </trkpt>
      <trkpt lat="37.430159000" lon="-5.893161000">
        <ele>26.7</ele>
        <time>2020-10-17T09:07:36Z</time>
      </trkpt>
      <trkpt lat="37.430106000" lon="-5.893271000">
        <ele>26.5</ele>
        <time>2020-10-17T09:07:38Z</time>
      </trkpt>
      <trkpt lat="37.430052000" lon="-5.893382000">
        <ele>26.2</ele>
        <time>2020-10-17T09:07:40Z</time>
      </trkpt>
      <trkpt lat="37.429999000" lon="-5.893493000">
        <ele>25.8</ele>
        <time>2020-10-17T09:07:42Z</time>
      </trkpt>
      <trkpt lat="37.429942000" lon="-5.893608000">
        <ele>25.4</ele>
        <time>2020-10-17T09:07:44Z</time>
      </trkpt>
      <trkpt lat="37.429895000" lon="-5.893724000">
        <ele>24.9</ele>
        <time>2020-10-17T09:07:46Z</time>
      </trkpt>
      <trkpt lat="37.429839000" lon="-5.893838000">
        <ele>24.5</ele>
        <time>2020-10-17T09:07:48Z</time>
      </trkpt>
      <trkpt lat="37.429787000" lon="-5.893951000">
        <ele>24.2</ele>
        <time>2020-10-17T09:07:50Z</time>
      </trkpt>
      <trkpt lat="37.429735000" lon="-5.894055000">
        <ele>23.9</ele>
        <time>2020-10-17T09:07:52Z</time>
      </trkpt>
      <trkpt lat="37.429685000" lon="-5.894168000">
        <ele>23.7</ele>
        <time>2020-10-17T09:07:54Z</time>
      </trkpt>
      <trkpt lat="37.429629000" lon="-5.894276000">
        <ele>23.6</ele>
        <time>2020-10-17T09:07:56Z</time>
      </trkpt>
      <trkpt lat="37.429576000" lon="-5.894380000">
        <ele>23.5</ele>
        <time>2020-10-17T09:07:58Z</time>
      </trkpt>
      <trkpt lat="37.429523000" lon="-5.894481000">
        <ele>23.5</ele>
        <time>2020-10-17T09:08:00Z</time>
      </trkpt>
      <trkpt lat="37.429478000" lon="-5.894581000">
        <ele>23.5</ele>
        <time>2020-10-17T09:08:02Z</time>
      </trkpt>
      <trkpt lat="37.429473000" lon="-5.894732000">
        <ele>23.7</ele>
        <time>2020-10-17T09:08:05Z</time>
      </trkpt>
      <trkpt lat="37.429501000" lon="-5.894845000">
        <ele>23.9</ele>
        <time>2020-10-17T09:08:07Z</time>
      </trkpt>
      <trkpt lat="37.429533000" lon="-5.894960000">
        <ele>24.1</ele>
        <time>2020-10-17T09:08:09Z</time>
      </trkpt>
      <trkpt lat="37.429560000" lon="-5.895077000">
        <ele>24.4</ele>
        <time>2020-10-17T09:08:11Z</time>
      </trkpt>
      <trkpt lat="37.429593000" lon="-5.895204000">
        <ele>24.6</ele>
        <time>2020-10-17T09:08:13Z</time>
      </trkpt>
      <trkpt lat="37.429625000" lon="-5.895322000">
        <ele>24.8</ele>
        <time>2020-10-17T09:08:15Z</time>
      </trkpt>
      <trkpt lat="37.429661000" lon="-5.895447000">
        <ele>25.0</ele>
        <time>2020-10-17T09:08:17Z</time>
      </trkpt>
      <trkpt lat="37.429696000" lon="-5.895572000">
        <ele>25.2</ele>
        <time>2020-10-17T09:08:19Z</time>
      </trkpt>
      <trkpt lat="37.429738000" lon="-5.895689000">
        <ele>25.4</ele>
        <time>2020-10-17T09:08:21Z</time>
      </trkpt>
      <trkpt lat="37.429788000" lon="-5.895810000">
        <ele>25.5</ele>
        <time>2020-10-17T09:08:23Z</time>
      </trkpt>
      <trkpt lat="37.429842000" lon="-5.895926000">
        <ele>25.5</ele>
        <time>2020-10-17T09:08:25Z</time>
      </trkpt>
      <trkpt lat="37.429901000" lon="-5.896049000">
        <ele>25.5</ele>
        <time>2020-10-17T09:08:27Z</time>
      </trkpt>
      <trkpt lat="37.429965000" lon="-5.896166000">
        <ele>25.3</ele>
        <time>2020-10-17T09:08:29Z</time>
      </trkpt>
      <trkpt lat="37.430029000" lon="-5.896280000">
        <ele>25.1</ele>
        <time>2020-10-17T09:08:31Z</time>
      </trkpt>
      <trkpt lat="37.430085000" lon="-5.896396000">
        <ele>24.8</ele>
        <time>2020-10-17T09:08:33Z</time>
      </trkpt>
      <trkpt lat="37.430146000" lon="-5.896507000">
        <ele>24.5</ele>
        <time>2020-10-17T09:08:35Z</time>
      </trkpt>
      <trkpt lat="37.430201000" lon="-5.896614000">
        <ele>24.1</ele>
        <time>2020-10-17T09:08:37Z</time>
      </trkpt>
      <trkpt lat="37.430261000" lon="-5.896723000">
        <ele>23.7</ele>
        <time>2020-10-17T09:08:39Z</time>
      </trkpt>
      <trkpt lat="37.430322000" lon="-5.896842000">
        <ele>23.5</ele>
        <time>2020-10-17T09:08:41Z</time>
      </trkpt>
      <trkpt lat="37.430371000" lon="-5.896963000">
        <ele>23.2</ele>
        <time>2020-10-17T09:08:43Z</time>
      </trkpt>
      <trkpt lat="37.430427000" lon="-5.897088000">
        <ele>23.1</ele>
        <time>2020-10-17T09:08:45Z</time>
      </trkpt>
      <trkpt lat="37.430487000" lon="-5.897204000">
        <ele>23.0</ele>
        <time>2020-10-17T09:08:47Z</time>
      </trkpt>
      <trkpt lat="37.430549000" lon="-5.897325000">
        <ele>22.9</ele>
        <time>2020-10-17T09:08:49Z</time>
      </trkpt>
      <trkpt lat="37.430610000" lon="-5.897445000">
        <ele>22.9</ele>
        <time>2020-10-17T09:08:51Z</time>
      </trkpt>
      <trkpt lat="37.430670000" lon="-5.897575000">
        <ele>22.8</ele>
        <time>2020-10-17T09:08:53Z</time>
      </trkpt>
      <trkpt lat="37.430737000" lon="-5.897706000">
        <ele>22.7</ele>
        <time>2020-10-17T09:08:55Z</time>
      </trkpt>
      <trkpt lat="37.430803000" lon="-5.897835000">
        <ele>22.8</ele>
        <time>2020-10-17T09:08:57Z</time>
      </trkpt>
      <trkpt lat="37.430865000" lon="-5.897972000">
        <ele>22.9</ele>
        <time>2020-10-17T09:08:59Z</time>
      </trkpt>
      <trkpt lat="37.430929000" lon="-5.898107000">
        <ele>23.1</ele>
        <time>2020-10-17T09:09:01Z</time>
      </trkpt>
      <trkpt lat="37.430990000" lon="-5.898249000">
        <ele>23.2</ele>
        <time>2020-10-17T09:09:03Z</time>
      </trkpt>
      <trkpt lat="37.431053000" lon="-5.898387000">
        <ele>23.3</ele>
        <time>2020-10-17T09:09:05Z</time>
      </trkpt>
      <trkpt lat="37.431114000" lon="-5.898523000">
        <ele>23.3</ele>
        <time>2020-10-17T09:09:07Z</time>
      </trkpt>
      <trkpt lat="37.431175000" lon="-5.898659000">
        <ele>23.4</ele>
        <time>2020-10-17T09:09:09Z</time>
      </trkpt>
      <trkpt lat="37.431238000" lon="-5.898789000">
        <ele>23.5</ele>
        <time>2020-10-17T09:09:11Z</time>
      </trkpt>
      <trkpt lat="37.431301000" lon="-5.898919000">
        <ele>23.7</ele>
        <time>2020-10-17T09:09:13Z</time>
      </trkpt>
      <trkpt lat="37.431361000" lon="-5.899045000">
        <ele>24.0</ele>
        <time>2020-10-17T09:09:15Z</time>
      </trkpt>
      <trkpt lat="37.431413000" lon="-5.899177000">
        <ele>24.3</ele>
        <time>2020-10-17T09:09:17Z</time>
      </trkpt>
      <trkpt lat="37.431466000" lon="-5.899307000">
        <ele>24.5</ele>
        <time>2020-10-17T09:09:19Z</time>
      </trkpt>
      <trkpt lat="37.431513000" lon="-5.899439000">
        <ele>24.6</ele>
        <time>2020-10-17T09:09:21Z</time>
      </trkpt>
      <trkpt lat="37.431554000" lon="-5.899576000">
        <ele>24.7</ele>
        <time>2020-10-17T09:09:23Z</time>
      </trkpt>
      <trkpt lat="37.431598000" lon="-5.899704000">
        <ele>24.8</ele>
        <time>2020-10-17T09:09:25Z</time>
      </trkpt>
      <trkpt lat="37.431642000" lon="-5.899827000">
        <ele>24.9</ele>
        <time>2020-10-17T09:09:27Z</time>
      </trkpt>
      <trkpt lat="37.431680000" lon="-5.899958000">
        <ele>24.9</ele>
        <time>2020-10-17T09:09:29Z</time>
      </trkpt>
      <trkpt lat="37.431726000" lon="-5.900081000">
        <ele>24.8</ele>
        <time>2020-10-17T09:09:31Z</time>
      </trkpt>
      <trkpt lat="37.431778000" lon="-5.900199000">
        <ele>24.7</ele>
        <time>2020-10-17T09:09:33Z</time>
      </trkpt>
      <trkpt lat="37.431831000" lon="-5.900316000">
        <ele>24.5</ele>
        <time>2020-10-17T09:09:35Z</time>
      </trkpt>
      <trkpt lat="37.431883000" lon="-5.900426000">
        <ele>24.4</ele>
        <time>2020-10-17T09:09:37Z</time>
      </trkpt>
      <trkpt lat="37.431932000" lon="-5.900539000">
        <ele>24.2</ele>
        <time>2020-10-17T09:09:39Z</time>
      </trkpt>
      <trkpt lat="37.431988000" lon="-5.900651000">
        <ele>24.0</ele>
        <time>2020-10-17T09:09:41Z</time>
      </trkpt>
      <trkpt lat="37.432045000" lon="-5.900763000">
        <ele>23.9</ele>
        <time>2020-10-17T09:09:43Z</time>
      </trkpt>
      <trkpt lat="37.432100000" lon="-5.900880000">
        <ele>23.7</ele>
        <time>2020-10-17T09:09:45Z</time>
      </trkpt>
      <trkpt lat="37.432156000" lon="-5.900996000">
        <ele>23.5</ele>
        <time>2020-10-17T09:09:47Z</time>
      </trkpt>
      <trkpt lat="37.432212000" lon="-5.901115000">
        <ele>23.4</ele>
        <time>2020-10-17T09:09:49Z</time>
      </trkpt>
      <trkpt lat="37.432267000" lon="-5.901234000">
        <ele>23.3</ele>
        <time>2020-10-17T09:09:51Z</time>
      </trkpt>
      <trkpt lat="37.432320000" lon="-5.901354000">
        <ele>23.2</ele>
        <time>2020-10-17T09:09:53Z</time>
      </trkpt>
      <trkpt lat="37.432367000" lon="-5.901479000">
        <ele>23.1</ele>
        <time>2020-10-17T09:09:55Z</time>
      </trkpt>
      <trkpt lat="37.432414000" lon="-5.901608000">
        <ele>23.1</ele>
        <time>2020-10-17T09:09:57Z</time>
      </trkpt>
      <trkpt lat="37.432458000" lon="-5.901736000">
        <ele>23.1</ele>
        <time>2020-10-17T09:09:59Z</time>
      </trkpt>
      <trkpt lat="37.432493000" lon="-5.901874000">
        <ele>23.1</ele>
        <time>2020-10-17T09:10:01Z</time>
      </trkpt>
      <trkpt lat="37.432527000" lon="-5.902013000">
        <ele>23.0</ele>
        <time>2020-10-17T09:10:03Z</time>
      </trkpt>
      <trkpt lat="37.432567000" lon="-5.902140000">
        <ele>22.8</ele>
        <time>2020-10-17T09:10:05Z</time>
      </trkpt>
      <trkpt lat="37.432601000" lon="-5.902271000">
        <ele>22.7</ele>
        <time>2020-10-17T09:10:07Z</time>
      </trkpt>
      <trkpt lat="37.432639000" lon="-5.902394000">
        <ele>22.5</ele>
        <time>2020-10-17T09:10:09Z</time>
      </trkpt>
      <trkpt lat="37.432688000" lon="-5.902518000">
        <ele>22.4</ele>
        <time>2020-10-17T09:10:11Z</time>
      </trkpt>
      <trkpt lat="37.432736000" lon="-5.902635000">
        <ele>22.2</ele>
        <time>2020-10-17T09:10:13Z</time>
      </trkpt>
      <trkpt lat="37.432780000" lon="-5.902762000">
        <ele>22.0</ele>
        <time>2020-10-17T09:10:15Z</time>
      </trkpt>
      <trkpt lat="37.432812000" lon="-5.902902000">
        <ele>21.8</ele>
        <time>2020-10-17T09:10:17Z</time>
      </trkpt>
      <trkpt lat="37.432841000" lon="-5.903042000">
        <ele>21.6</ele>
        <time>2020-10-17T09:10:19Z</time>
      </trkpt>
      <trkpt lat="37.432870000" lon="-5.903177000">
        <ele>21.5</ele>
        <time>2020-10-17T09:10:21Z</time>
      </trkpt>
      <trkpt lat="37.432901000" lon="-5.903315000">
        <ele>21.3</ele>
        <time>2020-10-17T09:10:23Z</time>
      </trkpt>
      <trkpt lat="37.432934000" lon="-5.903452000">
        <ele>21.2</ele>
        <time>2020-10-17T09:10:25Z</time>
      </trkpt>
      <trkpt lat="37.432958000" lon="-5.903600000">
        <ele>21.1</ele>
        <time>2020-10-17T09:10:27Z</time>
      </trkpt>
      <trkpt lat="37.432983000" lon="-5.903744000">
        <ele>21.0</ele>
        <time>2020-10-17T09:10:29Z</time>
      </trkpt>
      <trkpt lat="37.433013000" lon="-5.903882000">
        <ele>21.1</ele>
        <time>2020-10-17T09:10:31Z</time>
      </trkpt>
      <trkpt lat="37.433036000" lon="-5.904019000">
        <ele>21.2</ele>
        <time>2020-10-17T09:10:33Z</time>
      </trkpt>
      <trkpt lat="37.433065000" lon="-5.904154000">
        <ele>21.3</ele>
        <time>2020-10-17T09:10:35Z</time>
      </trkpt>
      <trkpt lat="37.433094000" lon="-5.904290000">
        <ele>21.4</ele>
        <time>2020-10-17T09:10:37Z</time>
      </trkpt>
      <trkpt lat="37.433121000" lon="-5.904433000">
        <ele>21.5</ele>
        <time>2020-10-17T09:10:39Z</time>
      </trkpt>
      <trkpt lat="37.433151000" lon="-5.904575000">
        <ele>21.5</ele>
        <time>2020-10-17T09:10:41Z</time>
      </trkpt>
      <trkpt lat="37.433183000" lon="-5.904718000">
        <ele>21.6</ele>
        <time>2020-10-17T09:10:43Z</time>
      </trkpt>
      <trkpt lat="37.433217000" lon="-5.904854000">
        <ele>21.7</ele>
        <time>2020-10-17T09:10:45Z</time>
      </trkpt>
      <trkpt lat="37.433246000" lon="-5.905006000">
        <ele>21.8</ele>
        <time>2020-10-17T09:10:47Z</time>
      </trkpt>
      <trkpt lat="37.433278000" lon="-5.905163000">
        <ele>22.0</ele>
        <time>2020-10-17T09:10:49Z</time>
      </trkpt>
      <trkpt lat="37.433310000" lon="-5.905315000">
        <ele>22.2</ele>
        <time>2020-10-17T09:10:51Z</time>
      </trkpt>
      <trkpt lat="37.433340000" lon="-5.905460000">
        <ele>22.3</ele>
        <time>2020-10-17T09:10:53Z</time>
      </trkpt>
      <trkpt lat="37.433377000" lon="-5.905598000">
        <ele>22.4</ele>
        <time>2020-10-17T09:10:55Z</time>
      </trkpt>
      <trkpt lat="37.433409000" lon="-5.905738000">
        <ele>22.5</ele>
        <time>2020-10-17T09:10:57Z</time>
      </trkpt>
      <trkpt lat="37.433449000" lon="-5.905867000">
        <ele>22.5</ele>
        <time>2020-10-17T09:10:59Z</time>
      </trkpt>
      <trkpt lat="37.433478000" lon="-5.906004000">
        <ele>22.5</ele>
        <time>2020-10-17T09:11:01Z</time>
      </trkpt>
      <trkpt lat="37.433499000" lon="-5.906142000">
        <ele>22.5</ele>
        <time>2020-10-17T09:11:03Z</time>
      </trkpt>
      <trkpt lat="37.433510000" lon="-5.906288000">
        <ele>22.3</ele>
        <time>2020-10-17T09:11:05Z</time>
      </trkpt>
      <trkpt lat="37.433511000" lon="-5.906436000">
        <ele>22.1</ele>
        <time>2020-10-17T09:11:07Z</time>
      </trkpt>
      <trkpt lat="37.433509000" lon="-5.906581000">
        <ele>21.9</ele>
        <time>2020-10-17T09:11:09Z</time>
      </trkpt>
      <trkpt lat="37.433502000" lon="-5.906729000">
        <ele>21.6</ele>
        <time>2020-10-17T09:11:11Z</time>
      </trkpt>
      <trkpt lat="37.433496000" lon="-5.906877000">
        <ele>21.4</ele>
        <time>2020-10-17T09:11:13Z</time>
      </trkpt>
      <trkpt lat="37.433489000" lon="-5.907023000">
        <ele>21.1</ele>
        <time>2020-10-17T09:11:15Z</time>
      </trkpt>
      <trkpt lat="37.433481000" lon="-5.907167000">
        <ele>20.8</ele>
        <time>2020-10-17T09:11:17Z</time>
      </trkpt>
      <trkpt lat="37.433485000" lon="-5.907309000">
        <ele>20.6</ele>
        <time>2020-10-17T09:11:19Z</time>
      </trkpt>
      <trkpt lat="37.433503000" lon="-5.907443000">
        <ele>20.5</ele>
        <time>2020-10-17T09:11:21Z</time>
      </trkpt>
      <trkpt lat="37.433526000" lon="-5.907576000">
        <ele>20.4</ele>
        <time>2020-10-17T09:11:23Z</time>
      </trkpt>
      <trkpt lat="37.433536000" lon="-5.907714000">
        <ele>20.4</ele>
        <time>2020-10-17T09:11:25Z</time>
      </trkpt>
      <trkpt lat="37.433527000" lon="-5.907845000">
        <ele>20.4</ele>
        <time>2020-10-17T09:11:27Z</time>
      </trkpt>
      <trkpt lat="37.433503000" lon="-5.907977000">
        <ele>20.4</ele>
        <time>2020-10-17T09:11:29Z</time>
      </trkpt>
      <trkpt lat="37.433472000" lon="-5.908115000">
        <ele>20.3</ele>
        <time>2020-10-17T09:11:31Z</time>
      </trkpt>
      <trkpt lat="37.433432000" lon="-5.908253000">
        <ele>20.2</ele>
        <time>2020-10-17T09:11:33Z</time>
      </trkpt>
      <trkpt lat="37.433395000" lon="-5.908397000">
        <ele>20.1</ele>
        <time>2020-10-17T09:11:35Z</time>
      </trkpt>
      <trkpt lat="37.433356000" lon="-5.908539000">
        <ele>20.0</ele>
        <time>2020-10-17T09:11:37Z</time>
      </trkpt>
      <trkpt lat="37.433320000" lon="-5.908673000">
        <ele>19.8</ele>
        <time>2020-10-17T09:11:39Z</time>
      </trkpt>
      <trkpt lat="37.433290000" lon="-5.908802000">
        <ele>19.5</ele>
        <time>2020-10-17T09:11:41Z</time>
      </trkpt>
      <trkpt lat="37.433261000" lon="-5.908938000">
        <ele>19.1</ele>
        <time>2020-10-17T09:11:43Z</time>
      </trkpt>
      <trkpt lat="37.433231000" lon="-5.909068000">
        <ele>18.7</ele>
        <time>2020-10-17T09:11:45Z</time>
      </trkpt>
      <trkpt lat="37.433196000" lon="-5.909203000">
        <ele>18.5</ele>
        <time>2020-10-17T09:11:47Z</time>
      </trkpt>
      <trkpt lat="37.433160000" lon="-5.909335000">
        <ele>18.3</ele>
        <time>2020-10-17T09:11:49Z</time>
      </trkpt>
      <trkpt lat="37.433102000" lon="-5.909458000">
        <ele>18.1</ele>
        <time>2020-10-17T09:11:51Z</time>
      </trkpt>
      <trkpt lat="37.433027000" lon="-5.909571000">
        <ele>18.0</ele>
        <time>2020-10-17T09:11:53Z</time>
      </trkpt>
      <trkpt lat="37.432968000" lon="-5.909697000">
        <ele>17.9</ele>
        <time>2020-10-17T09:11:55Z</time>
      </trkpt>
      <trkpt lat="37.432911000" lon="-5.909828000">
        <ele>17.8</ele>
        <time>2020-10-17T09:11:57Z</time>
      </trkpt>
      <trkpt lat="37.432848000" lon="-5.909953000">
        <ele>17.7</ele>
        <time>2020-10-17T09:11:59Z</time>
      </trkpt>
      <trkpt lat="37.432789000" lon="-5.910088000">
        <ele>17.7</ele>
        <time>2020-10-17T09:12:01Z</time>
      </trkpt>
      <trkpt lat="37.432735000" lon="-5.910228000">
        <ele>17.8</ele>
        <time>2020-10-17T09:12:03Z</time>
      </trkpt>
      <trkpt lat="37.432687000" lon="-5.910368000">
        <ele>17.9</ele>
        <time>2020-10-17T09:12:05Z</time>
      </trkpt>
      <trkpt lat="37.432649000" lon="-5.910513000">
        <ele>18.0</ele>
        <time>2020-10-17T09:12:07Z</time>
      </trkpt>
      <trkpt lat="37.432622000" lon="-5.910663000">
        <ele>18.0</ele>
        <time>2020-10-17T09:12:09Z</time>
      </trkpt>
      <trkpt lat="37.432600000" lon="-5.910808000">
        <ele>18.0</ele>
        <time>2020-10-17T09:12:11Z</time>
      </trkpt>
      <trkpt lat="37.432572000" lon="-5.910942000">
        <ele>18.0</ele>
        <time>2020-10-17T09:12:13Z</time>
      </trkpt>
      <trkpt lat="37.432529000" lon="-5.911072000">
        <ele>18.0</ele>
        <time>2020-10-17T09:12:15Z</time>
      </trkpt>
      <trkpt lat="37.432469000" lon="-5.911199000">
        <ele>18.0</ele>
        <time>2020-10-17T09:12:17Z</time>
      </trkpt>
      <trkpt lat="37.432411000" lon="-5.911316000">
        <ele>18.0</ele>
        <time>2020-10-17T09:12:19Z</time>
      </trkpt>
      <trkpt lat="37.432352000" lon="-5.911429000">
        <ele>18.0</ele>
        <time>2020-10-17T09:12:21Z</time>
      </trkpt>
      <trkpt lat="37.432301000" lon="-5.911544000">
        <ele>18.1</ele>
        <time>2020-10-17T09:12:23Z</time>
      </trkpt>
      <trkpt lat="37.432257000" lon="-5.911661000">
        <ele>18.2</ele>
        <time>2020-10-17T09:12:25Z</time>
      </trkpt>
      <trkpt lat="37.432223000" lon="-5.911798000">
        <ele>18.3</ele>
        <time>2020-10-17T09:12:27Z</time>
      </trkpt>
      <trkpt lat="37.432194000" lon="-5.911929000">
        <ele>18.4</ele>
        <time>2020-10-17T09:12:29Z</time>
      </trkpt>
      <trkpt lat="37.432162000" lon="-5.912071000">
        <ele>18.5</ele>
        <time>2020-10-17T09:12:31Z</time>
      </trkpt>
      <trkpt lat="37.432139000" lon="-5.912212000">
        <ele>18.5</ele>
        <time>2020-10-17T09:12:33Z</time>
      </trkpt>
      <trkpt lat="37.432131000" lon="-5.912348000">
        <ele>18.5</ele>
        <time>2020-10-17T09:12:35Z</time>
      </trkpt>
      <trkpt lat="37.432116000" lon="-5.912483000">
        <ele>18.5</ele>
        <time>2020-10-17T09:12:37Z</time>
      </trkpt>
      <trkpt lat="37.432098000" lon="-5.912620000">
        <ele>18.5</ele>
        <time>2020-10-17T09:12:39Z</time>
      </trkpt>
      <trkpt lat="37.432080000" lon="-5.912758000">
        <ele>18.4</ele>
        <time>2020-10-17T09:12:41Z</time>
      </trkpt>
      <trkpt lat="37.432056000" lon="-5.912895000">
        <ele>18.3</ele>
        <time>2020-10-17T09:12:43Z</time>
      </trkpt>
      <trkpt lat="37.432013000" lon="-5.913032000">
        <ele>18.1</ele>
        <time>2020-10-17T09:12:45Z</time>
      </trkpt>
      <trkpt lat="37.431958000" lon="-5.913180000">
        <ele>17.8</ele>
        <time>2020-10-17T09:12:47Z</time>
      </trkpt>
      <trkpt lat="37.431915000" lon="-5.913324000">
        <ele>17.5</ele>
        <time>2020-10-17T09:12:49Z</time>
      </trkpt>
      <trkpt lat="37.431897000" lon="-5.913481000">
        <ele>17.3</ele>
        <time>2020-10-17T09:12:51Z</time>
      </trkpt>
      <trkpt lat="37.431894000" lon="-5.913639000">
        <ele>17.1</ele>
        <time>2020-10-17T09:12:53Z</time>
      </trkpt>
      <trkpt lat="37.431896000" lon="-5.913789000">
        <ele>16.9</ele>
        <time>2020-10-17T09:12:55Z</time>
      </trkpt>
      <trkpt lat="37.431892000" lon="-5.913940000">
        <ele>16.9</ele>
        <time>2020-10-17T09:12:57Z</time>
      </trkpt>
      <trkpt lat="37.431884000" lon="-5.914089000">
        <ele>16.9</ele>
        <time>2020-10-17T09:12:59Z</time>
      </trkpt>
      <trkpt lat="37.431865000" lon="-5.914235000">
        <ele>17.0</ele>
        <time>2020-10-17T09:13:01Z</time>
      </trkpt>
      <trkpt lat="37.431843000" lon="-5.914376000">
        <ele>17.1</ele>
        <time>2020-10-17T09:13:03Z</time>
      </trkpt>
      <trkpt lat="37.431823000" lon="-5.914512000">
        <ele>17.1</ele>
        <time>2020-10-17T09:13:05Z</time>
      </trkpt>
      <trkpt lat="37.431795000" lon="-5.914642000">
        <ele>17.1</ele>
        <time>2020-10-17T09:13:07Z</time>
      </trkpt>
      <trkpt lat="37.431766000" lon="-5.914769000">
        <ele>17.2</ele>
        <time>2020-10-17T09:13:09Z</time>
      </trkpt>
      <trkpt lat="37.431740000" lon="-5.914901000">
        <ele>17.3</ele>
        <time>2020-10-17T09:13:11Z</time>
      </trkpt>
      <trkpt lat="37.431713000" lon="-5.915029000">
        <ele>17.4</ele>
        <time>2020-10-17T09:13:13Z</time>
      </trkpt>
      <trkpt lat="37.431690000" lon="-5.915158000">
        <ele>17.3</ele>
        <time>2020-10-17T09:13:15Z</time>
      </trkpt>
      <trkpt lat="37.431671000" lon="-5.915284000">
        <ele>17.3</ele>
        <time>2020-10-17T09:13:17Z</time>
      </trkpt>
      <trkpt lat="37.431656000" lon="-5.915413000">
        <ele>17.2</ele>
        <time>2020-10-17T09:13:19Z</time>
      </trkpt>
      <trkpt lat="37.431640000" lon="-5.915535000">
        <ele>17.1</ele>
        <time>2020-10-17T09:13:21Z</time>
      </trkpt>
      <trkpt lat="37.431633000" lon="-5.915665000">
        <ele>17.1</ele>
        <time>2020-10-17T09:13:23Z</time>
      </trkpt>
      <trkpt lat="37.431625000" lon="-5.915798000">
        <ele>17.1</ele>
        <time>2020-10-17T09:13:25Z</time>
      </trkpt>
      <trkpt lat="37.431614000" lon="-5.915926000">
        <ele>17.2</ele>
        <time>2020-10-17T09:13:27Z</time>
      </trkpt>
      <trkpt lat="37.431608000" lon="-5.916059000">
        <ele>17.3</ele>
        <time>2020-10-17T09:13:29Z</time>
      </trkpt>
      <trkpt lat="37.431601000" lon="-5.916183000">
        <ele>17.4</ele>
        <time>2020-10-17T09:13:31Z</time>
      </trkpt>
      <trkpt lat="37.431589000" lon="-5.916314000">
        <ele>17.5</ele>
        <time>2020-10-17T09:13:33Z</time>
      </trkpt>
      <trkpt lat="37.431581000" lon="-5.916445000">
        <ele>17.7</ele>
        <time>2020-10-17T09:13:35Z</time>
      </trkpt>
      <trkpt lat="37.431575000" lon="-5.916568000">
        <ele>18.0</ele>
        <time>2020-10-17T09:13:37Z</time>
      </trkpt>
      <trkpt lat="37.431566000" lon="-5.916689000">
        <ele>18.2</ele>
        <time>2020-10-17T09:13:39Z</time>
      </trkpt>
      <trkpt lat="37.431557000" lon="-5.916809000">
        <ele>18.5</ele>
        <time>2020-10-17T09:13:41Z</time>
      </trkpt>
      <trkpt lat="37.431556000" lon="-5.916930000">
        <ele>18.7</ele>
        <time>2020-10-17T09:13:43Z</time>
      </trkpt>
      <trkpt lat="37.431555000" lon="-5.917046000">
        <ele>18.9</ele>
        <time>2020-10-17T09:13:45Z</time>
      </trkpt>
      <trkpt lat="37.431551000" lon="-5.917157000">
        <ele>19.1</ele>
        <time>2020-10-17T09:13:47Z</time>
      </trkpt>
      <trkpt lat="37.431547000" lon="-5.917274000">
        <ele>19.3</ele>
        <time>2020-10-17T09:13:49Z</time>
      </trkpt>
      <trkpt lat="37.431540000" lon="-5.917413000">
        <ele>19.5</ele>
        <time>2020-10-17T09:13:51Z</time>
      </trkpt>
      <trkpt lat="37.431531000" lon="-5.917547000">
        <ele>19.6</ele>
        <time>2020-10-17T09:13:53Z</time>
      </trkpt>
      <trkpt lat="37.431522000" lon="-5.917677000">
        <ele>19.6</ele>
        <time>2020-10-17T09:13:55Z</time>
      </trkpt>
      <trkpt lat="37.431512000" lon="-5.917787000">
        <ele>19.6</ele>
        <time>2020-10-17T09:13:57Z</time>
      </trkpt>
      <trkpt lat="37.431496000" lon="-5.917896000">
        <ele>19.7</ele>
        <time>2020-10-17T09:13:59Z</time>
      </trkpt>
      <trkpt lat="37.431481000" lon="-5.918013000">
        <ele>19.8</ele>
        <time>2020-10-17T09:14:01Z</time>
      </trkpt>
      <trkpt lat="37.431463000" lon="-5.918148000">
        <ele>19.8</ele>
        <time>2020-10-17T09:14:03Z</time>
      </trkpt>
      <trkpt lat="37.431446000" lon="-5.918273000">
        <ele>19.8</ele>
        <time>2020-10-17T09:14:05Z</time>
      </trkpt>
      <trkpt lat="37.431430000" lon="-5.918387000">
        <ele>19.8</ele>
        <time>2020-10-17T09:14:07Z</time>
      </trkpt>
      <trkpt lat="37.431415000" lon="-5.918508000">
        <ele>19.9</ele>
        <time>2020-10-17T09:14:09Z</time>
      </trkpt>
      <trkpt lat="37.431406000" lon="-5.918630000">
        <ele>20.0</ele>
        <time>2020-10-17T09:14:11Z</time>
      </trkpt>
      <trkpt lat="37.431400000" lon="-5.918752000">
        <ele>20.1</ele>
        <time>2020-10-17T09:14:13Z</time>
      </trkpt>
      <trkpt lat="37.431387000" lon="-5.918871000">
        <ele>20.2</ele>
        <time>2020-10-17T09:14:15Z</time>
      </trkpt>
      <trkpt lat="37.431383000" lon="-5.918995000">
        <ele>20.3</ele>
        <time>2020-10-17T09:14:17Z</time>
      </trkpt>
      <trkpt lat="37.431376000" lon="-5.919115000">
        <ele>20.3</ele>
        <time>2020-10-17T09:14:19Z</time>
      </trkpt>
      <trkpt lat="37.431369000" lon="-5.919231000">
        <ele>20.1</ele>
        <time>2020-10-17T09:14:21Z</time>
      </trkpt>
      <trkpt lat="37.431351000" lon="-5.919347000">
        <ele>19.9</ele>
        <time>2020-10-17T09:14:23Z</time>
      </trkpt>
      <trkpt lat="37.431332000" lon="-5.919468000">
        <ele>19.6</ele>
        <time>2020-10-17T09:14:25Z</time>
      </trkpt>
      <trkpt lat="37.431321000" lon="-5.919593000">
        <ele>19.5</ele>
        <time>2020-10-17T09:14:27Z</time>
      </trkpt>
      <trkpt lat="37.431305000" lon="-5.919721000">
        <ele>19.2</ele>
        <time>2020-10-17T09:14:29Z</time>
      </trkpt>
      <trkpt lat="37.431290000" lon="-5.919849000">
        <ele>18.8</ele>
        <time>2020-10-17T09:14:31Z</time>
      </trkpt>
      <trkpt lat="37.431272000" lon="-5.919971000">
        <ele>18.4</ele>
        <time>2020-10-17T09:14:33Z</time>
      </trkpt>
      <trkpt lat="37.431262000" lon="-5.920096000">
        <ele>17.9</ele>
        <time>2020-10-17T09:14:35Z</time>
      </trkpt>
      <trkpt lat="37.431249000" lon="-5.920223000">
        <ele>17.5</ele>
        <time>2020-10-17T09:14:37Z</time>
      </trkpt>
      <trkpt lat="37.431238000" lon="-5.920358000">
        <ele>17.1</ele>
        <time>2020-10-17T09:14:39Z</time>
      </trkpt>
      <trkpt lat="37.431231000" lon="-5.920490000">
        <ele>16.8</ele>
        <time>2020-10-17T09:14:41Z</time>
      </trkpt>
      <trkpt lat="37.431222000" lon="-5.920627000">
        <ele>16.7</ele>
        <time>2020-10-17T09:14:43Z</time>
      </trkpt>
      <trkpt lat="37.431209000" lon="-5.920769000">
        <ele>16.7</ele>
        <time>2020-10-17T09:14:45Z</time>
      </trkpt>
      <trkpt lat="37.431202000" lon="-5.920907000">
        <ele>16.9</ele>
        <time>2020-10-17T09:14:47Z</time>
      </trkpt>
      <trkpt lat="37.431194000" lon="-5.921040000">
        <ele>17.1</ele>
        <time>2020-10-17T09:14:49Z</time>
      </trkpt>
      <trkpt lat="37.431180000" lon="-5.921178000">
        <ele>17.4</ele>
        <time>2020-10-17T09:14:51Z</time>
      </trkpt>
      <trkpt lat="37.431173000" lon="-5.921308000">
        <ele>17.7</ele>
        <time>2020-10-17T09:14:53Z</time>
      </trkpt>
      <trkpt lat="37.431166000" lon="-5.921436000">
        <ele>18.1</ele>
        <time>2020-10-17T09:14:55Z</time>
      </trkpt>
      <trkpt lat="37.431157000" lon="-5.921553000">
        <ele>18.5</ele>
        <time>2020-10-17T09:14:57Z</time>
      </trkpt>
      <trkpt lat="37.431146000" lon="-5.921664000">
        <ele>18.7</ele>
        <time>2020-10-17T09:14:59Z</time>
      </trkpt>
      <trkpt lat="37.431135000" lon="-5.921800000">
        <ele>19.0</ele>
        <time>2020-10-17T09:15:02Z</time>
      </trkpt>
      <trkpt lat="37.431123000" lon="-5.921944000">
        <ele>19.2</ele>
        <time>2020-10-17T09:15:05Z</time>
      </trkpt>
      <trkpt lat="37.431104000" lon="-5.922098000">
        <ele>19.3</ele>
        <time>2020-10-17T09:15:08Z</time>
      </trkpt>
      <trkpt lat="37.431091000" lon="-5.922204000">
        <ele>19.3</ele>
        <time>2020-10-17T09:15:10Z</time>
      </trkpt>
      <trkpt lat="37.431079000" lon="-5.922318000">
        <ele>19.2</ele>
        <time>2020-10-17T09:15:12Z</time>
      </trkpt>
      <trkpt lat="37.431071000" lon="-5.922435000">
        <ele>19.0</ele>
        <time>2020-10-17T09:15:14Z</time>
      </trkpt>
      <trkpt lat="37.431058000" lon="-5.922546000">
        <ele>18.8</ele>
        <time>2020-10-17T09:15:16Z</time>
      </trkpt>
      <trkpt lat="37.431049000" lon="-5.922664000">
        <ele>18.6</ele>
        <time>2020-10-17T09:15:18Z</time>
      </trkpt>
      <trkpt lat="37.431037000" lon="-5.922783000">
        <ele>18.5</ele>
        <time>2020-10-17T09:15:20Z</time>
      </trkpt>
      <trkpt lat="37.431025000" lon="-5.922904000">
        <ele>18.5</ele>
        <time>2020-10-17T09:15:22Z</time>
      </trkpt>
      <trkpt lat="37.431013000" lon="-5.923026000">
        <ele>18.7</ele>
        <time>2020-10-17T09:15:24Z</time>
      </trkpt>
      <trkpt lat="37.431017000" lon="-5.923154000">
        <ele>18.9</ele>
        <time>2020-10-17T09:15:26Z</time>
      </trkpt>
      <trkpt lat="37.431018000" lon="-5.923283000">
        <ele>19.3</ele>
        <time>2020-10-17T09:15:28Z</time>
      </trkpt>
      <trkpt lat="37.431018000" lon="-5.923411000">
        <ele>19.6</ele>
        <time>2020-10-17T09:15:30Z</time>
      </trkpt>
      <trkpt lat="37.431017000" lon="-5.923532000">
        <ele>20.0</ele>
        <time>2020-10-17T09:15:32Z</time>
      </trkpt>
      <trkpt lat="37.431017000" lon="-5.923650000">
        <ele>20.3</ele>
        <time>2020-10-17T09:15:34Z</time>
      </trkpt>
      <trkpt lat="37.431024000" lon="-5.923775000">
        <ele>20.5</ele>
        <time>2020-10-17T09:15:36Z</time>
      </trkpt>
      <trkpt lat="37.431025000" lon="-5.923898000">
        <ele>20.7</ele>
        <time>2020-10-17T09:15:38Z</time>
      </trkpt>
      <trkpt lat="37.431023000" lon="-5.924020000">
        <ele>20.8</ele>
        <time>2020-10-17T09:15:40Z</time>
      </trkpt>
      <trkpt lat="37.431015000" lon="-5.924148000">
        <ele>20.9</ele>
        <time>2020-10-17T09:15:42Z</time>
      </trkpt>
      <trkpt lat="37.431006000" lon="-5.924275000">
        <ele>20.9</ele>
        <time>2020-10-17T09:15:44Z</time>
      </trkpt>
      <trkpt lat="37.431000000" lon="-5.924397000">
        <ele>20.8</ele>
        <time>2020-10-17T09:15:46Z</time>
      </trkpt>
      <trkpt lat="37.431008000" lon="-5.924527000">
        <ele>20.8</ele>
        <time>2020-10-17T09:15:48Z</time>
      </trkpt>
      <trkpt lat="37.431011000" lon="-5.924660000">
        <ele>20.7</ele>
        <time>2020-10-17T09:15:50Z</time>
      </trkpt>
      <trkpt lat="37.431009000" lon="-5.924794000">
        <ele>20.6</ele>
        <time>2020-10-17T09:15:52Z</time>
      </trkpt>
      <trkpt lat="37.431002000" lon="-5.924919000">
        <ele>20.5</ele>
        <time>2020-10-17T09:15:54Z</time>
      </trkpt>
      <trkpt lat="37.430995000" lon="-5.925045000">
        <ele>20.5</ele>
        <time>2020-10-17T09:15:56Z</time>
      </trkpt>
      <trkpt lat="37.431002000" lon="-5.925147000">
        <ele>20.4</ele>
        <time>2020-10-17T09:15:58Z</time>
      </trkpt>
      <trkpt lat="37.431003000" lon="-5.925259000">
        <ele>20.4</ele>
        <time>2020-10-17T09:16:00Z</time>
      </trkpt>
      <trkpt lat="37.431000000" lon="-5.925370000">
        <ele>20.4</ele>
        <time>2020-10-17T09:16:02Z</time>
      </trkpt>
      <trkpt lat="37.430994000" lon="-5.925483000">
        <ele>20.5</ele>
        <time>2020-10-17T09:16:04Z</time>
      </trkpt>
      <trkpt lat="37.430988000" lon="-5.925603000">
        <ele>20.5</ele>
        <time>2020-10-17T09:16:06Z</time>
      </trkpt>
      <trkpt lat="37.430986000" lon="-5.925712000">
        <ele>20.6</ele>
        <time>2020-10-17T09:16:08Z</time>
      </trkpt>
      <trkpt lat="37.430981000" lon="-5.925853000">
        <ele>20.5</ele>
        <time>2020-10-17T09:16:11Z</time>
      </trkpt>
      <trkpt lat="37.430915000" lon="-5.925928000">
        <ele>20.5</ele>
        <time>2020-10-17T09:16:15Z</time>
      </trkpt>
      <trkpt lat="37.430841000" lon="-5.925886000">
        <ele>20.3</ele>
        <time>2020-10-17T09:16:18Z</time>
      </trkpt>
      <trkpt lat="37.430754000" lon="-5.925828000">
        <ele>20.1</ele>
        <time>2020-10-17T09:16:22Z</time>
      </trkpt>
      <trkpt lat="37.430849000" lon="-5.925817000">
        <ele>20.0</ele>
        <time>2020-10-17T09:16:34Z</time>
      </trkpt>
      <trkpt lat="37.430930000" lon="-5.925885000">
        <ele>19.9</ele>
        <time>2020-10-17T09:16:37Z</time>
      </trkpt>
      <trkpt lat="37.431016000" lon="-5.925959000">
        <ele>19.8</ele>
        <time>2020-10-17T09:16:40Z</time>
      </trkpt>
      <trkpt lat="37.431072000" lon="-5.926047000">
        <ele>19.6</ele>
        <time>2020-10-17T09:16:43Z</time>
      </trkpt>
      <trkpt lat="37.431147000" lon="-5.926134000">
        <ele>19.3</ele>
        <time>2020-10-17T09:16:46Z</time>
      </trkpt>
      <trkpt lat="37.431224000" lon="-5.926210000">
        <ele>18.9</ele>
        <time>2020-10-17T09:16:49Z</time>
      </trkpt>
      <trkpt lat="37.431262000" lon="-5.926329000">
        <ele>18.5</ele>
        <time>2020-10-17T09:16:53Z</time>
      </trkpt>
      <trkpt lat="37.431237000" lon="-5.926430000">
        <ele>18.1</ele>
        <time>2020-10-17T09:16:56Z</time>
      </trkpt>
      <trkpt lat="37.431191000" lon="-5.926549000">
        <ele>17.8</ele>
        <time>2020-10-17T09:16:59Z</time>
      </trkpt>
      <trkpt lat="37.431138000" lon="-5.926674000">
        <ele>17.6</ele>
        <time>2020-10-17T09:17:02Z</time>
      </trkpt>
      <trkpt lat="37.431086000" lon="-5.926811000">
        <ele>17.5</ele>
        <time>2020-10-17T09:17:05Z</time>
      </trkpt>
      <trkpt lat="37.431052000" lon="-5.926907000">
        <ele>17.3</ele>
        <time>2020-10-17T09:17:07Z</time>
      </trkpt>
      <trkpt lat="37.431004000" lon="-5.927040000">
        <ele>17.1</ele>
        <time>2020-10-17T09:17:10Z</time>
      </trkpt>
      <trkpt lat="37.430947000" lon="-5.927172000">
        <ele>17.0</ele>
        <time>2020-10-17T09:17:13Z</time>
      </trkpt>
      <trkpt lat="37.430914000" lon="-5.927271000">
        <ele>17.0</ele>
        <time>2020-10-17T09:17:15Z</time>
      </trkpt>
      <trkpt lat="37.430887000" lon="-5.927371000">
        <ele>17.1</ele>
        <time>2020-10-17T09:17:17Z</time>
      </trkpt>
      <trkpt lat="37.430852000" lon="-5.927469000">
        <ele>17.3</ele>
        <time>2020-10-17T09:17:19Z</time>
      </trkpt>
      <trkpt lat="37.430805000" lon="-5.927575000">
        <ele>17.5</ele>
        <time>2020-10-17T09:17:21Z</time>
      </trkpt>
      <trkpt lat="37.430769000" lon="-5.927675000">
        <ele>17.8</ele>
        <time>2020-10-17T09:17:23Z</time>
      </trkpt>
      <trkpt lat="37.430725000" lon="-5.927773000">
        <ele>18.0</ele>
        <time>2020-10-17T09:17:25Z</time>
      </trkpt>
      <trkpt lat="37.430680000" lon="-5.927876000">
        <ele>18.2</ele>
        <time>2020-10-17T09:17:27Z</time>
      </trkpt>
      <trkpt lat="37.430622000" lon="-5.927971000">
        <ele>18.5</ele>
        <time>2020-10-17T09:17:29Z</time>
      </trkpt>
      <trkpt lat="37.430573000" lon="-5.928074000">
        <ele>18.7</ele>
        <time>2020-10-17T09:17:31Z</time>
      </trkpt>
      <trkpt lat="37.430533000" lon="-5.928164000">
        <ele>19.0</ele>
        <time>2020-10-17T09:17:33Z</time>
      </trkpt>
      <trkpt lat="37.430475000" lon="-5.928278000">
        <ele>19.2</ele>
        <time>2020-10-17T09:17:36Z</time>
      </trkpt>
      <trkpt lat="37.430439000" lon="-5.928370000">
        <ele>19.4</ele>
        <time>2020-10-17T09:17:38Z</time>
      </trkpt>
      <trkpt lat="37.430394000" lon="-5.928481000">
        <ele>19.5</ele>
        <time>2020-10-17T09:17:40Z</time>
      </trkpt>
      <trkpt lat="37.430348000" lon="-5.928587000">
        <ele>19.6</ele>
        <time>2020-10-17T09:17:42Z</time>
      </trkpt>
      <trkpt lat="37.430302000" lon="-5.928683000">
        <ele>19.6</ele>
        <time>2020-10-17T09:17:44Z</time>
      </trkpt>
      <trkpt lat="37.430259000" lon="-5.928770000">
        <ele>19.6</ele>
        <time>2020-10-17T09:17:46Z</time>
      </trkpt>
      <trkpt lat="37.430208000" lon="-5.928902000">
        <ele>19.6</ele>
        <time>2020-10-17T09:17:49Z</time>
      </trkpt>
      <trkpt lat="37.430156000" lon="-5.929022000">
        <ele>19.5</ele>
        <time>2020-10-17T09:17:52Z</time>
      </trkpt>
      <trkpt lat="37.430113000" lon="-5.929158000">
        <ele>19.4</ele>
        <time>2020-10-17T09:17:55Z</time>
      </trkpt>
      <trkpt lat="37.430074000" lon="-5.929253000">
        <ele>19.2</ele>
        <time>2020-10-17T09:17:57Z</time>
      </trkpt>
      <trkpt lat="37.430033000" lon="-5.929348000">
        <ele>19.0</ele>
        <time>2020-10-17T09:17:59Z</time>
      </trkpt>
      <trkpt lat="37.429991000" lon="-5.929453000">
        <ele>18.7</ele>
        <time>2020-10-17T09:18:01Z</time>
      </trkpt>
      <trkpt lat="37.429948000" lon="-5.929563000">
        <ele>18.5</ele>
        <time>2020-10-17T09:18:03Z</time>
      </trkpt>
      <trkpt lat="37.429906000" lon="-5.929673000">
        <ele>18.2</ele>
        <time>2020-10-17T09:18:05Z</time>
      </trkpt>
      <trkpt lat="37.429860000" lon="-5.929777000">
        <ele>17.9</ele>
        <time>2020-10-17T09:18:07Z</time>
      </trkpt>
      <trkpt lat="37.429820000" lon="-5.929891000">
        <ele>17.8</ele>
        <time>2020-10-17T09:18:09Z</time>
      </trkpt>
      <trkpt lat="37.429777000" lon="-5.930000000">
        <ele>17.7</ele>
        <time>2020-10-17T09:18:11Z</time>
      </trkpt>
      <trkpt lat="37.429734000" lon="-5.930110000">
        <ele>17.7</ele>
        <time>2020-10-17T09:18:13Z</time>
      </trkpt>
      <trkpt lat="37.429689000" lon="-5.930219000">
        <ele>17.8</ele>
        <time>2020-10-17T09:18:15Z</time>
      </trkpt>
      <trkpt lat="37.429644000" lon="-5.930327000">
        <ele>17.9</ele>
        <time>2020-10-17T09:18:17Z</time>
      </trkpt>
      <trkpt lat="37.429602000" lon="-5.930430000">
        <ele>18.0</ele>
        <time>2020-10-17T09:18:19Z</time>
      </trkpt>
      <trkpt lat="37.429559000" lon="-5.930531000">
        <ele>18.2</ele>
        <time>2020-10-17T09:18:21Z</time>
      </trkpt>
      <trkpt lat="37.429511000" lon="-5.930620000">
        <ele>18.5</ele>
        <time>2020-10-17T09:18:23Z</time>
      </trkpt>
      <trkpt lat="37.429460000" lon="-5.930701000">
        <ele>18.8</ele>
        <time>2020-10-17T09:18:25Z</time>
      </trkpt>
      <trkpt lat="37.429409000" lon="-5.930782000">
        <ele>19.1</ele>
        <time>2020-10-17T09:18:27Z</time>
      </trkpt>
      <trkpt lat="37.429354000" lon="-5.930892000">
        <ele>19.4</ele>
        <time>2020-10-17T09:18:30Z</time>
      </trkpt>
      <trkpt lat="37.429303000" lon="-5.930975000">
        <ele>19.5</ele>
        <time>2020-10-17T09:18:41Z</time>
      </trkpt>
      <trkpt lat="37.429232000" lon="-5.931070000">
        <ele>19.7</ele>
        <time>2020-10-17T09:18:45Z</time>
      </trkpt>
      <trkpt lat="37.429172000" lon="-5.931157000">
        <ele>19.7</ele>
        <time>2020-10-17T09:18:49Z</time>
      </trkpt>
      <trkpt lat="37.429111000" lon="-5.931280000">
        <ele>19.7</ele>
        <time>2020-10-17T09:18:53Z</time>
      </trkpt>
      <trkpt lat="37.429072000" lon="-5.931420000">
        <ele>19.7</ele>
        <time>2020-10-17T09:18:56Z</time>
      </trkpt>
      <trkpt lat="37.429040000" lon="-5.931520000">
        <ele>19.7</ele>
        <time>2020-10-17T09:18:58Z</time>
      </trkpt>
      <trkpt lat="37.429007000" lon="-5.931621000">
        <ele>19.5</ele>
        <time>2020-10-17T09:19:00Z</time>
      </trkpt>
      <trkpt lat="37.428977000" lon="-5.931725000">
        <ele>19.4</ele>
        <time>2020-10-17T09:19:02Z</time>
      </trkpt>
      <trkpt lat="37.428953000" lon="-5.931832000">
        <ele>19.1</ele>
        <time>2020-10-17T09:19:04Z</time>
      </trkpt>
      <trkpt lat="37.428928000" lon="-5.931948000">
        <ele>18.9</ele>
        <time>2020-10-17T09:19:06Z</time>
      </trkpt>
      <trkpt lat="37.428895000" lon="-5.932067000">
        <ele>18.6</ele>
        <time>2020-10-17T09:19:08Z</time>
      </trkpt>
      <trkpt lat="37.428866000" lon="-5.932189000">
        <ele>18.4</ele>
        <time>2020-10-17T09:19:10Z</time>
      </trkpt>
      <trkpt lat="37.428837000" lon="-5.932316000">
        <ele>18.1</ele>
        <time>2020-10-17T09:19:12Z</time>
      </trkpt>
      <trkpt lat="37.428803000" lon="-5.932446000">
        <ele>17.9</ele>
        <time>2020-10-17T09:19:14Z</time>
      </trkpt>
      <trkpt lat="37.428764000" lon="-5.932575000">
        <ele>17.6</ele>
        <time>2020-10-17T09:19:16Z</time>
      </trkpt>
      <trkpt lat="37.428730000" lon="-5.932711000">
        <ele>17.4</ele>
        <time>2020-10-17T09:19:18Z</time>
      </trkpt>
      <trkpt lat="37.428696000" lon="-5.932836000">
        <ele>17.1</ele>
        <time>2020-10-17T09:19:20Z</time>
      </trkpt>
      <trkpt lat="37.428665000" lon="-5.932972000">
        <ele>17.0</ele>
        <time>2020-10-17T09:19:22Z</time>
      </trkpt>
      <trkpt lat="37.428628000" lon="-5.933107000">
        <ele>16.9</ele>
        <time>2020-10-17T09:19:24Z</time>
      </trkpt>
      <trkpt lat="37.428594000" lon="-5.933238000">
        <ele>16.8</ele>
        <time>2020-10-17T09:19:26Z</time>
      </trkpt>
      <trkpt lat="37.428564000" lon="-5.933367000">
        <ele>16.7</ele>
        <time>2020-10-17T09:19:28Z</time>
      </trkpt>
      <trkpt lat="37.428536000" lon="-5.933495000">
        <ele>16.7</ele>
        <time>2020-10-17T09:19:30Z</time>
      </trkpt>
      <trkpt lat="37.428502000" lon="-5.933614000">
        <ele>16.7</ele>
        <time>2020-10-17T09:19:32Z</time>
      </trkpt>
      <trkpt lat="37.428478000" lon="-5.933735000">
        <ele>16.8</ele>
        <time>2020-10-17T09:19:34Z</time>
      </trkpt>
      <trkpt lat="37.428451000" lon="-5.933860000">
        <ele>16.9</ele>
        <time>2020-10-17T09:19:36Z</time>
      </trkpt>
      <trkpt lat="37.428427000" lon="-5.933971000">
        <ele>17.1</ele>
        <time>2020-10-17T09:19:38Z</time>
      </trkpt>
      <trkpt lat="37.428398000" lon="-5.934089000">
        <ele>17.4</ele>
        <time>2020-10-17T09:19:40Z</time>
      </trkpt>
      <trkpt lat="37.428368000" lon="-5.934200000">
        <ele>17.6</ele>
        <time>2020-10-17T09:19:42Z</time>
      </trkpt>
      <trkpt lat="37.428337000" lon="-5.934312000">
        <ele>17.9</ele>
        <time>2020-10-17T09:19:44Z</time>
      </trkpt>
      <trkpt lat="37.428308000" lon="-5.934421000">
        <ele>18.2</ele>
        <time>2020-10-17T09:19:46Z</time>
      </trkpt>
      <trkpt lat="37.428283000" lon="-5.934526000">
        <ele>18.5</ele>
        <time>2020-10-17T09:19:48Z</time>
      </trkpt>
      <trkpt lat="37.428253000" lon="-5.934639000">
        <ele>18.8</ele>
        <time>2020-10-17T09:19:50Z</time>
      </trkpt>
      <trkpt lat="37.428216000" lon="-5.934754000">
        <ele>19.2</ele>
        <time>2020-10-17T09:19:52Z</time>
      </trkpt>
      <trkpt lat="37.428188000" lon="-5.934864000">
        <ele>19.5</ele>
        <time>2020-10-17T09:19:54Z</time>
      </trkpt>
      <trkpt lat="37.428164000" lon="-5.934975000">
        <ele>19.6</ele>
        <time>2020-10-17T09:19:56Z</time>
      </trkpt>
      <trkpt lat="37.428137000" lon="-5.935091000">
        <ele>19.7</ele>
        <time>2020-10-17T09:19:58Z</time>
      </trkpt>
      <trkpt lat="37.428114000" lon="-5.935198000">
        <ele>19.6</ele>
        <time>2020-10-17T09:20:00Z</time>
      </trkpt>
      <trkpt lat="37.428090000" lon="-5.935318000">
        <ele>19.4</ele>
        <time>2020-10-17T09:20:02Z</time>
      </trkpt>
      <trkpt lat="37.428068000" lon="-5.935435000">
        <ele>19.0</ele>
        <time>2020-10-17T09:20:04Z</time>
      </trkpt>
      <trkpt lat="37.428040000" lon="-5.935574000">
        <ele>18.5</ele>
        <time>2020-10-17T09:20:06Z</time>
      </trkpt>
      <trkpt lat="37.428004000" lon="-5.935729000">
        <ele>18.2</ele>
        <time>2020-10-17T09:20:08Z</time>
      </trkpt>
      <trkpt lat="37.427958000" lon="-5.935889000">
        <ele>17.8</ele>
        <time>2020-10-17T09:20:10Z</time>
      </trkpt>
      <trkpt lat="37.427905000" lon="-5.936060000">
        <ele>17.4</ele>
        <time>2020-10-17T09:20:12Z</time>
      </trkpt>
      <trkpt lat="37.427831000" lon="-5.936238000">
        <ele>16.9</ele>
        <time>2020-10-17T09:20:14Z</time>
      </trkpt>
      <trkpt lat="37.427746000" lon="-5.936415000">
        <ele>16.5</ele>
        <time>2020-10-17T09:20:16Z</time>
      </trkpt>
      <trkpt lat="37.427697000" lon="-5.936500000">
        <ele>16.2</ele>
        <time>2020-10-17T09:20:17Z</time>
      </trkpt>
      <trkpt lat="37.427646000" lon="-5.936579000">
        <ele>15.8</ele>
        <time>2020-10-17T09:20:18Z</time>
      </trkpt>
      <trkpt lat="37.427593000" lon="-5.936669000">
        <ele>15.6</ele>
        <time>2020-10-17T09:20:19Z</time>
      </trkpt>
      <trkpt lat="37.427540000" lon="-5.936751000">
        <ele>15.5</ele>
        <time>2020-10-17T09:20:20Z</time>
      </trkpt>
      <trkpt lat="37.427489000" lon="-5.936834000">
        <ele>15.5</ele>
        <time>2020-10-17T09:20:21Z</time>
      </trkpt>
      <trkpt lat="37.427438000" lon="-5.936916000">
        <ele>15.4</ele>
        <time>2020-10-17T09:20:22Z</time>
      </trkpt>
      <trkpt lat="37.427339000" lon="-5.937068000">
        <ele>15.3</ele>
        <time>2020-10-17T09:20:24Z</time>
      </trkpt>
      <trkpt lat="37.427246000" lon="-5.937225000">
        <ele>15.3</ele>
        <time>2020-10-17T09:20:26Z</time>
      </trkpt>
      <trkpt lat="37.427153000" lon="-5.937373000">
        <ele>15.3</ele>
        <time>2020-10-17T09:20:28Z</time>
      </trkpt>
      <trkpt lat="37.427061000" lon="-5.937514000">
        <ele>15.2</ele>
        <time>2020-10-17T09:20:30Z</time>
      </trkpt>
      <trkpt lat="37.426968000" lon="-5.937651000">
        <ele>15.1</ele>
        <time>2020-10-17T09:20:32Z</time>
      </trkpt>
      <trkpt lat="37.426888000" lon="-5.937789000">
        <ele>15.0</ele>
        <time>2020-10-17T09:20:34Z</time>
      </trkpt>
      <trkpt lat="37.426805000" lon="-5.937925000">
        <ele>14.9</ele>
        <time>2020-10-17T09:20:36Z</time>
      </trkpt>
      <trkpt lat="37.426718000" lon="-5.938058000">
        <ele>14.8</ele>
        <time>2020-10-17T09:20:38Z</time>
      </trkpt>
      <trkpt lat="37.426629000" lon="-5.938186000">
        <ele>14.7</ele>
        <time>2020-10-17T09:20:40Z</time>
      </trkpt>
      <trkpt lat="37.426536000" lon="-5.938305000">
        <ele>14.7</ele>
        <time>2020-10-17T09:20:42Z</time>
      </trkpt>
      <trkpt lat="37.426438000" lon="-5.938419000">
        <ele>14.6</ele>
        <time>2020-10-17T09:20:44Z</time>
      </trkpt>
      <trkpt lat="37.426341000" lon="-5.938536000">
        <ele>14.5</ele>
        <time>2020-10-17T09:20:46Z</time>
      </trkpt>
      <trkpt lat="37.426241000" lon="-5.938649000">
        <ele>14.2</ele>
        <time>2020-10-17T09:20:48Z</time>
      </trkpt>
      <trkpt lat="37.426139000" lon="-5.938765000">
        <ele>14.0</ele>
        <time>2020-10-17T09:20:50Z</time>
      </trkpt>
      <trkpt lat="37.426038000" lon="-5.938884000">
        <ele>13.9</ele>
        <time>2020-10-17T09:20:52Z</time>
      </trkpt>
      <trkpt lat="37.425940000" lon="-5.939007000">
        <ele>13.7</ele>
        <time>2020-10-17T09:20:54Z</time>
      </trkpt>
      <trkpt lat="37.425857000" lon="-5.939135000">
        <ele>13.5</ele>
        <time>2020-10-17T09:20:56Z</time>
      </trkpt>
      <trkpt lat="37.425792000" lon="-5.939270000">
        <ele>13.5</ele>
        <time>2020-10-17T09:20:58Z</time>
      </trkpt>
      <trkpt lat="37.425744000" lon="-5.939402000">
        <ele>13.4</ele>
        <time>2020-10-17T09:21:00Z</time>
      </trkpt>
      <trkpt lat="37.425697000" lon="-5.939526000">
        <ele>13.3</ele>
        <time>2020-10-17T09:21:02Z</time>
      </trkpt>
      <trkpt lat="37.425662000" lon="-5.939661000">
        <ele>13.2</ele>
        <time>2020-10-17T09:21:04Z</time>
      </trkpt>
      <trkpt lat="37.425623000" lon="-5.939793000">
        <ele>13.2</ele>
        <time>2020-10-17T09:21:06Z</time>
      </trkpt>
      <trkpt lat="37.425586000" lon="-5.939921000">
        <ele>13.2</ele>
        <time>2020-10-17T09:21:08Z</time>
      </trkpt>
      <trkpt lat="37.425547000" lon="-5.940054000">
        <ele>13.3</ele>
        <time>2020-10-17T09:21:10Z</time>
      </trkpt>
      <trkpt lat="37.425509000" lon="-5.940186000">
        <ele>13.4</ele>
        <time>2020-10-17T09:21:12Z</time>
      </trkpt>
      <trkpt lat="37.425474000" lon="-5.940325000">
        <ele>13.5</ele>
        <time>2020-10-17T09:21:14Z</time>
      </trkpt>
      <trkpt lat="37.425441000" lon="-5.940460000">
        <ele>13.8</ele>
        <time>2020-10-17T09:21:16Z</time>
      </trkpt>
      <trkpt lat="37.425399000" lon="-5.940593000">
        <ele>14.0</ele>
        <time>2020-10-17T09:21:18Z</time>
      </trkpt>
      <trkpt lat="37.425363000" lon="-5.940727000">
        <ele>14.1</ele>
        <time>2020-10-17T09:21:20Z</time>
      </trkpt>
      <trkpt lat="37.425320000" lon="-5.940870000">
        <ele>14.1</ele>
        <time>2020-10-17T09:21:22Z</time>
      </trkpt>
      <trkpt lat="37.425282000" lon="-5.941006000">
        <ele>14.1</ele>
        <time>2020-10-17T09:21:24Z</time>
      </trkpt>
      <trkpt lat="37.425243000" lon="-5.941147000">
        <ele>14.0</ele>
        <time>2020-10-17T09:21:26Z</time>
      </trkpt>
      <trkpt lat="37.425207000" lon="-5.941294000">
        <ele>13.9</ele>
        <time>2020-10-17T09:21:28Z</time>
      </trkpt>
      <trkpt lat="37.425168000" lon="-5.941436000">
        <ele>13.8</ele>
        <time>2020-10-17T09:21:30Z</time>
      </trkpt>
      <trkpt lat="37.425127000" lon="-5.941577000">
        <ele>13.6</ele>
        <time>2020-10-17T09:21:32Z</time>
      </trkpt>
      <trkpt lat="37.425086000" lon="-5.941720000">
        <ele>13.4</ele>
        <time>2020-10-17T09:21:34Z</time>
      </trkpt>
      <trkpt lat="37.425044000" lon="-5.941864000">
        <ele>13.0</ele>
        <time>2020-10-17T09:21:36Z</time>
      </trkpt>
      <trkpt lat="37.425009000" lon="-5.942004000">
        <ele>12.6</ele>
        <time>2020-10-17T09:21:38Z</time>
      </trkpt>
      <trkpt lat="37.424965000" lon="-5.942152000">
        <ele>12.4</ele>
        <time>2020-10-17T09:21:40Z</time>
      </trkpt>
      <trkpt lat="37.424926000" lon="-5.942294000">
        <ele>12.2</ele>
        <time>2020-10-17T09:21:42Z</time>
      </trkpt>
      <trkpt lat="37.424888000" lon="-5.942435000">
        <ele>12.0</ele>
        <time>2020-10-17T09:21:44Z</time>
      </trkpt>
      <trkpt lat="37.424850000" lon="-5.942570000">
        <ele>11.8</ele>
        <time>2020-10-17T09:21:46Z</time>
      </trkpt>
      <trkpt lat="37.424812000" lon="-5.942712000">
        <ele>11.8</ele>
        <time>2020-10-17T09:21:48Z</time>
      </trkpt>
      <trkpt lat="37.424773000" lon="-5.942843000">
        <ele>11.8</ele>
        <time>2020-10-17T09:21:50Z</time>
      </trkpt>
      <trkpt lat="37.424733000" lon="-5.942972000">
        <ele>11.9</ele>
        <time>2020-10-17T09:21:52Z</time>
      </trkpt>
      <trkpt lat="37.424694000" lon="-5.943096000">
        <ele>12.0</ele>
        <time>2020-10-17T09:21:54Z</time>
      </trkpt>
      <trkpt lat="37.424664000" lon="-5.943228000">
        <ele>12.2</ele>
        <time>2020-10-17T09:21:56Z</time>
      </trkpt>
      <trkpt lat="37.424628000" lon="-5.943365000">
        <ele>12.5</ele>
        <time>2020-10-17T09:21:58Z</time>
      </trkpt>
      <trkpt lat="37.424596000" lon="-5.943480000">
        <ele>12.8</ele>
        <time>2020-10-17T09:22:00Z</time>
      </trkpt>
      <trkpt lat="37.424557000" lon="-5.943595000">
        <ele>13.2</ele>
        <time>2020-10-17T09:22:02Z</time>
      </trkpt>
      <trkpt lat="37.424526000" lon="-5.943711000">
        <ele>13.5</ele>
        <time>2020-10-17T09:22:04Z</time>
      </trkpt>
      <trkpt lat="37.424494000" lon="-5.943833000">
        <ele>14.1</ele>
        <time>2020-10-17T09:22:06Z</time>
      </trkpt>
      <trkpt lat="37.424464000" lon="-5.943953000">
        <ele>14.6</ele>
        <time>2020-10-17T09:22:08Z</time>
      </trkpt>
      <trkpt lat="37.424435000" lon="-5.944066000">
        <ele>15.2</ele>
        <time>2020-10-17T09:22:10Z</time>
      </trkpt>
      <trkpt lat="37.424405000" lon="-5.944178000">
        <ele>15.7</ele>
        <time>2020-10-17T09:22:12Z</time>
      </trkpt>
      <trkpt lat="37.424373000" lon="-5.944283000">
        <ele>16.2</ele>
        <time>2020-10-17T09:22:14Z</time>
      </trkpt>
      <trkpt lat="37.424341000" lon="-5.944387000">
        <ele>16.6</ele>
        <time>2020-10-17T09:22:16Z</time>
      </trkpt>
      <trkpt lat="37.424307000" lon="-5.944494000">
        <ele>17.0</ele>
        <time>2020-10-17T09:22:18Z</time>
      </trkpt>
      <trkpt lat="37.424279000" lon="-5.944595000">
        <ele>17.4</ele>
        <time>2020-10-17T09:22:20Z</time>
      </trkpt>
      <trkpt lat="37.424252000" lon="-5.944692000">
        <ele>17.5</ele>
        <time>2020-10-17T09:22:22Z</time>
      </trkpt>
      <trkpt lat="37.424224000" lon="-5.944793000">
        <ele>17.7</ele>
        <time>2020-10-17T09:22:24Z</time>
      </trkpt>
      <trkpt lat="37.424177000" lon="-5.944933000">
        <ele>17.8</ele>
        <time>2020-10-17T09:22:27Z</time>
      </trkpt>
      <trkpt lat="37.424135000" lon="-5.945070000">
        <ele>17.8</ele>
        <time>2020-10-17T09:22:30Z</time>
      </trkpt>
      <trkpt lat="37.424084000" lon="-5.945202000">
        <ele>17.7</ele>
        <time>2020-10-17T09:22:33Z</time>
      </trkpt>
      <trkpt lat="37.424027000" lon="-5.945332000">
        <ele>17.5</ele>
        <time>2020-10-17T09:22:36Z</time>
      </trkpt>
      <trkpt lat="37.423986000" lon="-5.945432000">
        <ele>17.3</ele>
        <time>2020-10-17T09:22:38Z</time>
      </trkpt>
      <trkpt lat="37.423937000" lon="-5.945544000">
        <ele>17.0</ele>
        <time>2020-10-17T09:22:40Z</time>
      </trkpt>
      <trkpt lat="37.423883000" lon="-5.945660000">
        <ele>16.7</ele>
        <time>2020-10-17T09:22:42Z</time>
      </trkpt>
      <trkpt lat="37.423827000" lon="-5.945776000">
        <ele>16.5</ele>
        <time>2020-10-17T09:22:44Z</time>
      </trkpt>
      <trkpt lat="37.423768000" lon="-5.945887000">
        <ele>16.0</ele>
        <time>2020-10-17T09:22:46Z</time>
      </trkpt>
      <trkpt lat="37.423699000" lon="-5.945995000">
        <ele>15.6</ele>
        <time>2020-10-17T09:22:48Z</time>
      </trkpt>
      <trkpt lat="37.423634000" lon="-5.946104000">
        <ele>15.3</ele>
        <time>2020-10-17T09:22:50Z</time>
      </trkpt>
      <trkpt lat="37.423564000" lon="-5.946206000">
        <ele>15.0</ele>
        <time>2020-10-17T09:22:52Z</time>
      </trkpt>
      <trkpt lat="37.423494000" lon="-5.946297000">
        <ele>14.7</ele>
        <time>2020-10-17T09:22:54Z</time>
      </trkpt>
      <trkpt lat="37.423427000" lon="-5.946379000">
        <ele>14.5</ele>
        <time>2020-10-17T09:22:56Z</time>
      </trkpt>
      <trkpt lat="37.423356000" lon="-5.946458000">
        <ele>14.1</ele>
        <time>2020-10-17T09:22:58Z</time>
      </trkpt>
      <trkpt lat="37.423282000" lon="-5.946542000">
        <ele>13.8</ele>
        <time>2020-10-17T09:23:00Z</time>
      </trkpt>
      <trkpt lat="37.423209000" lon="-5.946616000">
        <ele>13.5</ele>
        <time>2020-10-17T09:23:02Z</time>
      </trkpt>
      <trkpt lat="37.423149000" lon="-5.946698000">
        <ele>13.3</ele>
        <time>2020-10-17T09:23:04Z</time>
      </trkpt>
      <trkpt lat="37.423064000" lon="-5.946803000">
        <ele>13.1</ele>
        <time>2020-10-17T09:23:07Z</time>
      </trkpt>
      <trkpt lat="37.422984000" lon="-5.946906000">
        <ele>13.1</ele>
        <time>2020-10-17T09:23:10Z</time>
      </trkpt>
      <trkpt lat="37.422920000" lon="-5.946987000">
        <ele>13.2</ele>
        <time>2020-10-17T09:23:13Z</time>
      </trkpt>
      <trkpt lat="37.422868000" lon="-5.947081000">
        <ele>13.3</ele>
        <time>2020-10-17T09:23:37Z</time>
      </trkpt>
      <trkpt lat="37.422780000" lon="-5.947181000">
        <ele>13.5</ele>
        <time>2020-10-17T09:23:40Z</time>
      </trkpt>
      <trkpt lat="37.422688000" lon="-5.947275000">
        <ele>13.7</ele>
        <time>2020-10-17T09:23:42Z</time>
      </trkpt>
      <trkpt lat="37.422607000" lon="-5.947375000">
        <ele>14.1</ele>
        <time>2020-10-17T09:23:44Z</time>
      </trkpt>
      <trkpt lat="37.422524000" lon="-5.947477000">
        <ele>14.5</ele>
        <time>2020-10-17T09:23:46Z</time>
      </trkpt>
      <trkpt lat="37.422443000" lon="-5.947579000">
        <ele>14.8</ele>
        <time>2020-10-17T09:23:48Z</time>
      </trkpt>
      <trkpt lat="37.422363000" lon="-5.947680000">
        <ele>15.2</ele>
        <time>2020-10-17T09:23:50Z</time>
      </trkpt>
      <trkpt lat="37.422288000" lon="-5.947768000">
        <ele>15.5</ele>
        <time>2020-10-17T09:23:52Z</time>
      </trkpt>
      <trkpt lat="37.422200000" lon="-5.947871000">
        <ele>15.6</ele>
        <time>2020-10-17T09:23:55Z</time>
      </trkpt>
      <trkpt lat="37.422119000" lon="-5.947974000">
        <ele>15.7</ele>
        <time>2020-10-17T09:23:58Z</time>
      </trkpt>
      <trkpt lat="37.422051000" lon="-5.948060000">
        <ele>15.7</ele>
        <time>2020-10-17T09:24:01Z</time>
      </trkpt>
      <trkpt lat="37.421978000" lon="-5.948140000">
        <ele>15.6</ele>
        <time>2020-10-17T09:24:04Z</time>
      </trkpt>
      <trkpt lat="37.421912000" lon="-5.948227000">
        <ele>15.5</ele>
        <time>2020-10-17T09:24:07Z</time>
      </trkpt>
      <trkpt lat="37.421841000" lon="-5.948305000">
        <ele>15.4</ele>
        <time>2020-10-17T09:24:10Z</time>
      </trkpt>
      <trkpt lat="37.421775000" lon="-5.948376000">
        <ele>15.3</ele>
        <time>2020-10-17T09:24:13Z</time>
      </trkpt>
      <trkpt lat="37.421715000" lon="-5.948452000">
        <ele>15.3</ele>
        <time>2020-10-17T09:24:16Z</time>
      </trkpt>
      <trkpt lat="37.421651000" lon="-5.948535000">
        <ele>15.4</ele>
        <time>2020-10-17T09:24:19Z</time>
      </trkpt>
      <trkpt lat="37.421585000" lon="-5.948619000">
        <ele>15.5</ele>
        <time>2020-10-17T09:24:22Z</time>
      </trkpt>
      <trkpt lat="37.421512000" lon="-5.948696000">
        <ele>15.7</ele>
        <time>2020-10-17T09:24:25Z</time>
      </trkpt>
      <trkpt lat="37.421439000" lon="-5.948776000">
        <ele>16.1</ele>
        <time>2020-10-17T09:24:28Z</time>
      </trkpt>
      <trkpt lat="37.421364000" lon="-5.948864000">
        <ele>16.5</ele>
        <time>2020-10-17T09:24:31Z</time>
      </trkpt>
      <trkpt lat="37.421287000" lon="-5.948955000">
        <ele>16.9</ele>
        <time>2020-10-17T09:24:34Z</time>
      </trkpt>
      <trkpt lat="37.421212000" lon="-5.949048000">
        <ele>17.5</ele>
        <time>2020-10-17T09:24:37Z</time>
      </trkpt>
      <trkpt lat="37.421124000" lon="-5.949151000">
        <ele>17.9</ele>
        <time>2020-10-17T09:24:40Z</time>
      </trkpt>
      <trkpt lat="37.421056000" lon="-5.949225000">
        <ele>18.4</ele>
        <time>2020-10-17T09:24:42Z</time>
      </trkpt>
      <trkpt lat="37.420987000" lon="-5.949306000">
        <ele>18.6</ele>
        <time>2020-10-17T09:24:44Z</time>
      </trkpt>
      <trkpt lat="37.420918000" lon="-5.949390000">
        <ele>18.8</ele>
        <time>2020-10-17T09:24:46Z</time>
      </trkpt>
      <trkpt lat="37.420849000" lon="-5.949475000">
        <ele>18.9</ele>
        <time>2020-10-17T09:24:48Z</time>
      </trkpt>
      <trkpt lat="37.420786000" lon="-5.949554000">
        <ele>19.0</ele>
        <time>2020-10-17T09:24:51Z</time>
      </trkpt>
      <trkpt lat="37.420717000" lon="-5.949632000">
        <ele>19.1</ele>
        <time>2020-10-17T09:25:09Z</time>
      </trkpt>
      <trkpt lat="37.420619000" lon="-5.949747000">
        <ele>19.2</ele>
        <time>2020-10-17T09:25:12Z</time>
      </trkpt>
      <trkpt lat="37.420534000" lon="-5.949847000">
        <ele>19.2</ele>
        <time>2020-10-17T09:25:14Z</time>
      </trkpt>
      <trkpt lat="37.420437000" lon="-5.949957000">
        <ele>19.1</ele>
        <time>2020-10-17T09:25:16Z</time>
      </trkpt>
      <trkpt lat="37.420331000" lon="-5.950071000">
        <ele>19.0</ele>
        <time>2020-10-17T09:25:18Z</time>
      </trkpt>
      <trkpt lat="37.420205000" lon="-5.950194000">
        <ele>18.9</ele>
        <time>2020-10-17T09:25:20Z</time>
      </trkpt>
      <trkpt lat="37.420095000" lon="-5.950318000">
        <ele>18.7</ele>
        <time>2020-10-17T09:25:22Z</time>
      </trkpt>
      <trkpt lat="37.419978000" lon="-5.950441000">
        <ele>18.6</ele>
        <time>2020-10-17T09:25:24Z</time>
      </trkpt>
      <trkpt lat="37.419866000" lon="-5.950554000">
        <ele>18.6</ele>
        <time>2020-10-17T09:25:26Z</time>
      </trkpt>
      <trkpt lat="37.419747000" lon="-5.950630000">
        <ele>18.6</ele>
        <time>2020-10-17T09:25:28Z</time>
      </trkpt>
      <trkpt lat="37.419635000" lon="-5.950684000">
        <ele>18.6</ele>
        <time>2020-10-17T09:25:30Z</time>
      </trkpt>
      <trkpt lat="37.419522000" lon="-5.950732000">
        <ele>18.6</ele>
        <time>2020-10-17T09:25:32Z</time>
      </trkpt>
      <trkpt lat="37.419413000" lon="-5.950777000">
        <ele>18.6</ele>
        <time>2020-10-17T09:25:34Z</time>
      </trkpt>
      <trkpt lat="37.419310000" lon="-5.950816000">
        <ele>18.7</ele>
        <time>2020-10-17T09:25:36Z</time>
      </trkpt>
      <trkpt lat="37.419211000" lon="-5.950853000">
        <ele>18.9</ele>
        <time>2020-10-17T09:25:38Z</time>
      </trkpt>
      <trkpt lat="37.419111000" lon="-5.950895000">
        <ele>19.1</ele>
        <time>2020-10-17T09:25:40Z</time>
      </trkpt>
      <trkpt lat="37.419011000" lon="-5.950932000">
        <ele>19.2</ele>
        <time>2020-10-17T09:25:42Z</time>
      </trkpt>
      <trkpt lat="37.418915000" lon="-5.950972000">
        <ele>19.3</ele>
        <time>2020-10-17T09:25:44Z</time>
      </trkpt>
      <trkpt lat="37.418831000" lon="-5.951028000">
        <ele>19.3</ele>
        <time>2020-10-17T09:25:46Z</time>
      </trkpt>
      <trkpt lat="37.418744000" lon="-5.951083000">
        <ele>19.2</ele>
        <time>2020-10-17T09:25:48Z</time>
      </trkpt>
      <trkpt lat="37.418669000" lon="-5.951153000">
        <ele>19.0</ele>
        <time>2020-10-17T09:25:50Z</time>
      </trkpt>
      <trkpt lat="37.418602000" lon="-5.951236000">
        <ele>18.8</ele>
        <time>2020-10-17T09:25:52Z</time>
      </trkpt>
      <trkpt lat="37.418552000" lon="-5.951327000">
        <ele>18.5</ele>
        <time>2020-10-17T09:25:54Z</time>
      </trkpt>
      <trkpt lat="37.418507000" lon="-5.951418000">
        <ele>18.0</ele>
        <time>2020-10-17T09:25:56Z</time>
      </trkpt>
      <trkpt lat="37.418469000" lon="-5.951518000">
        <ele>17.5</ele>
        <time>2020-10-17T09:25:58Z</time>
      </trkpt>
      <trkpt lat="37.418442000" lon="-5.951621000">
        <ele>16.9</ele>
        <time>2020-10-17T09:26:00Z</time>
      </trkpt>
      <trkpt lat="37.418394000" lon="-5.951754000">
        <ele>16.3</ele>
        <time>2020-10-17T09:26:03Z</time>
      </trkpt>
      <trkpt lat="37.418352000" lon="-5.951883000">
        <ele>15.7</ele>
        <time>2020-10-17T09:26:06Z</time>
      </trkpt>
      <trkpt lat="37.418312000" lon="-5.952029000">
        <ele>15.2</ele>
        <time>2020-10-17T09:26:09Z</time>
      </trkpt>
      <trkpt lat="37.418283000" lon="-5.952131000">
        <ele>14.6</ele>
        <time>2020-10-17T09:26:11Z</time>
      </trkpt>
      <trkpt lat="37.418253000" lon="-5.952242000">
        <ele>14.2</ele>
        <time>2020-10-17T09:26:13Z</time>
      </trkpt>
      <trkpt lat="37.418217000" lon="-5.952356000">
        <ele>13.7</ele>
        <time>2020-10-17T09:26:15Z</time>
      </trkpt>
      <trkpt lat="37.418181000" lon="-5.952479000">
        <ele>13.3</ele>
        <time>2020-10-17T09:26:17Z</time>
      </trkpt>
      <trkpt lat="37.418142000" lon="-5.952607000">
        <ele>13.0</ele>
        <time>2020-10-17T09:26:19Z</time>
      </trkpt>
      <trkpt lat="37.418105000" lon="-5.952741000">
        <ele>12.8</ele>
        <time>2020-10-17T09:26:21Z</time>
      </trkpt>
      <trkpt lat="37.418063000" lon="-5.952876000">
        <ele>12.8</ele>
        <time>2020-10-17T09:26:23Z</time>
      </trkpt>
      <trkpt lat="37.418013000" lon="-5.953013000">
        <ele>13.0</ele>
        <time>2020-10-17T09:26:25Z</time>
      </trkpt>
      <trkpt lat="37.417963000" lon="-5.953157000">
        <ele>13.3</ele>
        <time>2020-10-17T09:26:27Z</time>
      </trkpt>
      <trkpt lat="37.417908000" lon="-5.953309000">
        <ele>13.5</ele>
        <time>2020-10-17T09:26:29Z</time>
      </trkpt>
      <trkpt lat="37.417837000" lon="-5.953459000">
        <ele>13.9</ele>
        <time>2020-10-17T09:26:31Z</time>
      </trkpt>
      <trkpt lat="37.417758000" lon="-5.953616000">
        <ele>14.4</ele>
        <time>2020-10-17T09:26:33Z</time>
      </trkpt>
      <trkpt lat="37.417676000" lon="-5.953777000">
        <ele>14.8</ele>
        <time>2020-10-17T09:26:35Z</time>
      </trkpt>
      <trkpt lat="37.417586000" lon="-5.953941000">
        <ele>15.4</ele>
        <time>2020-10-17T09:26:37Z</time>
      </trkpt>
      <trkpt lat="37.417500000" lon="-5.954103000">
        <ele>15.9</ele>
        <time>2020-10-17T09:26:39Z</time>
      </trkpt>
      <trkpt lat="37.417424000" lon="-5.954280000">
        <ele>16.4</ele>
        <time>2020-10-17T09:26:41Z</time>
      </trkpt>
      <trkpt lat="37.417348000" lon="-5.954452000">
        <ele>16.7</ele>
        <time>2020-10-17T09:26:43Z</time>
      </trkpt>
      <trkpt lat="37.417300000" lon="-5.954604000">
        <ele>17.0</ele>
        <time>2020-10-17T09:26:45Z</time>
      </trkpt>
      <trkpt lat="37.417250000" lon="-5.954754000">
        <ele>17.2</ele>
        <time>2020-10-17T09:26:47Z</time>
      </trkpt>
      <trkpt lat="37.417208000" lon="-5.954900000">
        <ele>17.3</ele>
        <time>2020-10-17T09:26:49Z</time>
      </trkpt>
      <trkpt lat="37.417170000" lon="-5.955032000">
        <ele>17.4</ele>
        <time>2020-10-17T09:26:51Z</time>
      </trkpt>
      <trkpt lat="37.417124000" lon="-5.955152000">
        <ele>17.5</ele>
        <time>2020-10-17T09:26:53Z</time>
      </trkpt>
      <trkpt lat="37.417071000" lon="-5.955261000">
        <ele>17.7</ele>
        <time>2020-10-17T09:26:55Z</time>
      </trkpt>
      <trkpt lat="37.417015000" lon="-5.955362000">
        <ele>18.0</ele>
        <time>2020-10-17T09:26:57Z</time>
      </trkpt>
      <trkpt lat="37.416968000" lon="-5.955452000">
        <ele>18.2</ele>
        <time>2020-10-17T09:26:59Z</time>
      </trkpt>
      <trkpt lat="37.416906000" lon="-5.955573000">
        <ele>18.4</ele>
        <time>2020-10-17T09:27:02Z</time>
      </trkpt>
      <trkpt lat="37.416857000" lon="-5.955695000">
        <ele>18.5</ele>
        <time>2020-10-17T09:27:05Z</time>
      </trkpt>
      <trkpt lat="37.416808000" lon="-5.955805000">
        <ele>18.5</ele>
        <time>2020-10-17T09:27:08Z</time>
      </trkpt>
      <trkpt lat="37.416763000" lon="-5.955902000">
        <ele>18.5</ele>
        <time>2020-10-17T09:27:11Z</time>
      </trkpt>
      <trkpt lat="37.416844000" lon="-5.955852000">
        <ele>18.5</ele>
        <time>2020-10-17T09:28:04Z</time>
      </trkpt>
      <trkpt lat="37.416895000" lon="-5.955742000">
        <ele>18.4</ele>
        <time>2020-10-17T09:28:07Z</time>
      </trkpt>
      <trkpt lat="37.416946000" lon="-5.955615000">
        <ele>18.2</ele>
        <time>2020-10-17T09:28:10Z</time>
      </trkpt>
      <trkpt lat="37.417004000" lon="-5.955487000">
        <ele>17.9</ele>
        <time>2020-10-17T09:28:13Z</time>
      </trkpt>
      <trkpt lat="37.417047000" lon="-5.955400000">
        <ele>17.5</ele>
        <time>2020-10-17T09:28:15Z</time>
      </trkpt>
      <trkpt lat="37.417101000" lon="-5.955281000">
        <ele>17.0</ele>
        <time>2020-10-17T09:28:18Z</time>
      </trkpt>
      <trkpt lat="37.417192000" lon="-5.955207000">
        <ele>16.5</ele>
        <time>2020-10-17T09:28:21Z</time>
      </trkpt>
      <trkpt lat="37.417289000" lon="-5.955126000">
        <ele>16.1</ele>
        <time>2020-10-17T09:28:24Z</time>
      </trkpt>
      <trkpt lat="37.417371000" lon="-5.955107000">
        <ele>15.6</ele>
        <time>2020-10-17T09:28:26Z</time>
      </trkpt>
      <trkpt lat="37.417491000" lon="-5.955097000">
        <ele>15.2</ele>
        <time>2020-10-17T09:28:29Z</time>
      </trkpt>
      <trkpt lat="37.417607000" lon="-5.955083000">
        <ele>14.7</ele>
        <time>2020-10-17T09:28:32Z</time>
      </trkpt>
      <trkpt lat="37.417692000" lon="-5.955068000">
        <ele>14.4</ele>
        <time>2020-10-17T09:28:34Z</time>
      </trkpt>
      <trkpt lat="37.417777000" lon="-5.955057000">
        <ele>14.1</ele>
        <time>2020-10-17T09:28:36Z</time>
      </trkpt>
      <trkpt lat="37.417808000" lon="-5.955163000">
        <ele>14.0</ele>
        <time>2020-10-17T09:28:46Z</time>
      </trkpt>
      <trkpt lat="37.417765000" lon="-5.955260000">
        <ele>13.9</ele>
        <time>2020-10-17T09:28:52Z</time>
      </trkpt>
      <trkpt lat="37.417684000" lon="-5.955317000">
        <ele>14.0</ele>
        <time>2020-10-17T09:28:56Z</time>
      </trkpt>
      <trkpt lat="37.417581000" lon="-5.955359000">
        <ele>14.2</ele>
        <time>2020-10-17T09:28:59Z</time>
      </trkpt>
      <trkpt lat="37.417508000" lon="-5.955406000">
        <ele>14.5</ele>
        <time>2020-10-17T09:29:01Z</time>
      </trkpt>
      <trkpt lat="37.417424000" lon="-5.955514000">
        <ele>14.8</ele>
        <time>2020-10-17T09:29:04Z</time>
      </trkpt>
      <trkpt lat="37.417374000" lon="-5.955595000">
        <ele>15.3</ele>
        <time>2020-10-17T09:29:06Z</time>
      </trkpt>
      <trkpt lat="37.417319000" lon="-5.955676000">
        <ele>15.7</ele>
        <time>2020-10-17T09:29:08Z</time>
      </trkpt>
      <trkpt lat="37.417261000" lon="-5.955758000">
        <ele>16.2</ele>
        <time>2020-10-17T09:29:10Z</time>
      </trkpt>
      <trkpt lat="37.417199000" lon="-5.955848000">
        <ele>16.6</ele>
        <time>2020-10-17T09:29:12Z</time>
      </trkpt>
      <trkpt lat="37.417145000" lon="-5.955945000">
        <ele>17.0</ele>
        <time>2020-10-17T09:29:14Z</time>
      </trkpt>
      <trkpt lat="37.417089000" lon="-5.956040000">
        <ele>17.2</ele>
        <time>2020-10-17T09:29:16Z</time>
      </trkpt>
      <trkpt lat="37.417036000" lon="-5.956137000">
        <ele>17.3</ele>
        <time>2020-10-17T09:29:18Z</time>
      </trkpt>
      <trkpt lat="37.416982000" lon="-5.956232000">
        <ele>17.3</ele>
        <time>2020-10-17T09:29:20Z</time>
      </trkpt>
      <trkpt lat="37.416930000" lon="-5.956328000">
        <ele>17.3</ele>
        <time>2020-10-17T09:29:22Z</time>
      </trkpt>
      <trkpt lat="37.416883000" lon="-5.956430000">
        <ele>17.2</ele>
        <time>2020-10-17T09:29:24Z</time>
      </trkpt>
      <trkpt lat="37.416834000" lon="-5.956520000">
        <ele>17.0</ele>
        <time>2020-10-17T09:29:26Z</time>
      </trkpt>
      <trkpt lat="37.416779000" lon="-5.956613000">
        <ele>16.9</ele>
        <time>2020-10-17T09:29:28Z</time>
      </trkpt>
      <trkpt lat="37.416718000" lon="-5.956701000">
        <ele>16.8</ele>
        <time>2020-10-17T09:29:30Z</time>
      </trkpt>
      <trkpt lat="37.416665000" lon="-5.956786000">
        <ele>16.7</ele>
        <time>2020-10-17T09:29:32Z</time>
      </trkpt>
      <trkpt lat="37.416626000" lon="-5.956880000">
        <ele>16.6</ele>
        <time>2020-10-17T09:29:34Z</time>
      </trkpt>
      <trkpt lat="37.416645000" lon="-5.957012000">
        <ele>16.5</ele>
        <time>2020-10-17T09:29:37Z</time>
      </trkpt>
      <trkpt lat="37.416676000" lon="-5.957107000">
        <ele>16.6</ele>
        <time>2020-10-17T09:29:39Z</time>
      </trkpt>
      <trkpt lat="37.416731000" lon="-5.957244000">
        <ele>16.8</ele>
        <time>2020-10-17T09:29:42Z</time>
      </trkpt>
      <trkpt lat="37.416782000" lon="-5.957333000">
        <ele>17.0</ele>
        <time>2020-10-17T09:29:44Z</time>
      </trkpt>
      <trkpt lat="37.416852000" lon="-5.957423000">
        <ele>17.2</ele>
        <time>2020-10-17T09:29:46Z</time>
      </trkpt>
      <trkpt lat="37.416925000" lon="-5.957505000">
        <ele>17.4</ele>
        <time>2020-10-17T09:29:48Z</time>
      </trkpt>
      <trkpt lat="37.417001000" lon="-5.957565000">
        <ele>17.5</ele>
        <time>2020-10-17T09:29:50Z</time>
      </trkpt>
      <trkpt lat="37.417086000" lon="-5.957613000">
        <ele>17.6</ele>
        <time>2020-10-17T09:29:52Z</time>
      </trkpt>
      <trkpt lat="37.417172000" lon="-5.957649000">
        <ele>17.7</ele>
        <time>2020-10-17T09:29:54Z</time>
      </trkpt>
      <trkpt lat="37.417261000" lon="-5.957671000">
        <ele>17.8</ele>
        <time>2020-10-17T09:29:56Z</time>
      </trkpt>
      <trkpt lat="37.417356000" lon="-5.957671000">
        <ele>17.8</ele>
        <time>2020-10-17T09:29:58Z</time>
      </trkpt>
      <trkpt lat="37.417455000" lon="-5.957649000">
        <ele>17.8</ele>
        <time>2020-10-17T09:30:00Z</time>
      </trkpt>
      <trkpt lat="37.417553000" lon="-5.957600000">
        <ele>17.8</ele>
        <time>2020-10-17T09:30:02Z</time>
      </trkpt>
      <trkpt lat="37.417636000" lon="-5.957523000">
        <ele>17.8</ele>
        <time>2020-10-17T09:30:04Z</time>
      </trkpt>
      <trkpt lat="37.417712000" lon="-5.957422000">
        <ele>17.8</ele>
        <time>2020-10-17T09:30:06Z</time>
      </trkpt>
      <trkpt lat="37.417769000" lon="-5.957330000">
        <ele>17.7</ele>
        <time>2020-10-17T09:30:08Z</time>
      </trkpt>
      <trkpt lat="37.417877000" lon="-5.957284000">
        <ele>17.6</ele>
        <time>2020-10-17T09:30:11Z</time>
      </trkpt>
      <trkpt lat="37.417862000" lon="-5.957401000">
        <ele>17.5</ele>
        <time>2020-10-17T09:30:16Z</time>
      </trkpt>
      <trkpt lat="37.417812000" lon="-5.957510000">
        <ele>17.5</ele>
        <time>2020-10-17T09:30:19Z</time>
      </trkpt>
      <trkpt lat="37.417779000" lon="-5.957632000">
        <ele>17.5</ele>
        <time>2020-10-17T09:30:22Z</time>
      </trkpt>
      <trkpt lat="37.417743000" lon="-5.957771000">
        <ele>17.5</ele>
        <time>2020-10-17T09:30:25Z</time>
      </trkpt>
      <trkpt lat="37.417711000" lon="-5.957875000">
        <ele>17.7</ele>
        <time>2020-10-17T09:30:27Z</time>
      </trkpt>
      <trkpt lat="37.417674000" lon="-5.957984000">
        <ele>18.0</ele>
        <time>2020-10-17T09:30:29Z</time>
      </trkpt>
      <trkpt lat="37.417635000" lon="-5.958084000">
        <ele>18.2</ele>
        <time>2020-10-17T09:30:31Z</time>
      </trkpt>
      <trkpt lat="37.417593000" lon="-5.958180000">
        <ele>18.4</ele>
        <time>2020-10-17T09:30:33Z</time>
      </trkpt>
      <trkpt lat="37.417548000" lon="-5.958275000">
        <ele>18.4</ele>
        <time>2020-10-17T09:30:35Z</time>
      </trkpt>
      <trkpt lat="37.417502000" lon="-5.958368000">
        <ele>18.4</ele>
        <time>2020-10-17T09:30:37Z</time>
      </trkpt>
      <trkpt lat="37.417453000" lon="-5.958458000">
        <ele>18.3</ele>
        <time>2020-10-17T09:30:39Z</time>
      </trkpt>
      <trkpt lat="37.417402000" lon="-5.958543000">
        <ele>18.1</ele>
        <time>2020-10-17T09:30:41Z</time>
      </trkpt>
      <trkpt lat="37.417344000" lon="-5.958621000">
        <ele>17.9</ele>
        <time>2020-10-17T09:30:43Z</time>
      </trkpt>
      <trkpt lat="37.417263000" lon="-5.958717000">
        <ele>17.5</ele>
        <time>2020-10-17T09:30:46Z</time>
      </trkpt>
      <trkpt lat="37.417200000" lon="-5.958792000">
        <ele>17.2</ele>
        <time>2020-10-17T09:30:49Z</time>
      </trkpt>
      <trkpt lat="37.417133000" lon="-5.958852000">
        <ele>16.8</ele>
        <time>2020-10-17T09:30:52Z</time>
      </trkpt>
      <trkpt lat="37.417038000" lon="-5.958895000">
        <ele>16.4</ele>
        <time>2020-10-17T09:30:56Z</time>
      </trkpt>
      <trkpt lat="37.416955000" lon="-5.958953000">
        <ele>15.8</ele>
        <time>2020-10-17T09:30:59Z</time>
      </trkpt>
      <trkpt lat="37.416863000" lon="-5.959002000">
        <ele>15.3</ele>
        <time>2020-10-17T09:31:02Z</time>
      </trkpt>
      <trkpt lat="37.416762000" lon="-5.959035000">
        <ele>14.8</ele>
        <time>2020-10-17T09:31:05Z</time>
      </trkpt>
      <trkpt lat="37.416647000" lon="-5.959014000">
        <ele>14.5</ele>
        <time>2020-10-17T09:31:08Z</time>
      </trkpt>
      <trkpt lat="37.416543000" lon="-5.958987000">
        <ele>14.2</ele>
        <time>2020-10-17T09:31:10Z</time>
      </trkpt>
      <trkpt lat="37.416418000" lon="-5.958965000">
        <ele>14.0</ele>
        <time>2020-10-17T09:31:12Z</time>
      </trkpt>
      <trkpt lat="37.416278000" lon="-5.958956000">
        <ele>13.9</ele>
        <time>2020-10-17T09:31:14Z</time>
      </trkpt>
      <trkpt lat="37.416140000" lon="-5.958949000">
        <ele>13.9</ele>
        <time>2020-10-17T09:31:16Z</time>
      </trkpt>
      <trkpt lat="37.416007000" lon="-5.958944000">
        <ele>13.8</ele>
        <time>2020-10-17T09:31:18Z</time>
      </trkpt>
      <trkpt lat="37.415871000" lon="-5.958947000">
        <ele>13.7</ele>
        <time>2020-10-17T09:31:20Z</time>
      </trkpt>
      <trkpt lat="37.415743000" lon="-5.958981000">
        <ele>13.6</ele>
        <time>2020-10-17T09:31:22Z</time>
      </trkpt>
      <trkpt lat="37.415643000" lon="-5.959056000">
        <ele>13.6</ele>
        <time>2020-10-17T09:31:24Z</time>
      </trkpt>
      <trkpt lat="37.415587000" lon="-5.959179000">
        <ele>13.6</ele>
        <time>2020-10-17T09:31:26Z</time>
      </trkpt>
      <trkpt lat="37.415538000" lon="-5.959314000">
        <ele>13.8</ele>
        <time>2020-10-17T09:31:28Z</time>
      </trkpt>
      <trkpt lat="37.415488000" lon="-5.959455000">
        <ele>14.0</ele>
        <time>2020-10-17T09:31:30Z</time>
      </trkpt>
      <trkpt lat="37.415438000" lon="-5.959584000">
        <ele>14.2</ele>
        <time>2020-10-17T09:31:32Z</time>
      </trkpt>
      <trkpt lat="37.415377000" lon="-5.959701000">
        <ele>14.4</ele>
        <time>2020-10-17T09:31:34Z</time>
      </trkpt>
      <trkpt lat="37.415314000" lon="-5.959819000">
        <ele>14.5</ele>
        <time>2020-10-17T09:31:36Z</time>
      </trkpt>
      <trkpt lat="37.415233000" lon="-5.959927000">
        <ele>14.7</ele>
        <time>2020-10-17T09:31:38Z</time>
      </trkpt>
      <trkpt lat="37.415149000" lon="-5.960030000">
        <ele>15.0</ele>
        <time>2020-10-17T09:31:40Z</time>
      </trkpt>
      <trkpt lat="37.415061000" lon="-5.960159000">
        <ele>15.2</ele>
        <time>2020-10-17T09:31:42Z</time>
      </trkpt>
      <trkpt lat="37.414991000" lon="-5.960309000">
        <ele>15.3</ele>
        <time>2020-10-17T09:31:44Z</time>
      </trkpt>
      <trkpt lat="37.414933000" lon="-5.960463000">
        <ele>15.4</ele>
        <time>2020-10-17T09:31:46Z</time>
      </trkpt>
      <trkpt lat="37.414876000" lon="-5.960615000">
        <ele>15.5</ele>
        <time>2020-10-17T09:31:48Z</time>
      </trkpt>
      <trkpt lat="37.414814000" lon="-5.960766000">
        <ele>15.5</ele>
        <time>2020-10-17T09:31:50Z</time>
      </trkpt>
      <trkpt lat="37.414758000" lon="-5.960905000">
        <ele>15.4</ele>
        <time>2020-10-17T09:31:52Z</time>
      </trkpt>
      <trkpt lat="37.414715000" lon="-5.961057000">
        <ele>15.4</ele>
        <time>2020-10-17T09:31:54Z</time>
      </trkpt>
      <trkpt lat="37.414675000" lon="-5.961204000">
        <ele>15.4</ele>
        <time>2020-10-17T09:31:56Z</time>
      </trkpt>
      <trkpt lat="37.414622000" lon="-5.961347000">
        <ele>15.2</ele>
        <time>2020-10-17T09:31:58Z</time>
      </trkpt>
      <trkpt lat="37.414573000" lon="-5.961490000">
        <ele>15.0</ele>
        <time>2020-10-17T09:32:00Z</time>
      </trkpt>
      <trkpt lat="37.414546000" lon="-5.961612000">
        <ele>14.7</ele>
        <time>2020-10-17T09:32:02Z</time>
      </trkpt>
      <trkpt lat="37.414463000" lon="-5.961580000">
        <ele>14.5</ele>
        <time>2020-10-17T09:32:09Z</time>
      </trkpt>
      <trkpt lat="37.414354000" lon="-5.961557000">
        <ele>14.3</ele>
        <time>2020-10-17T09:32:13Z</time>
      </trkpt>
      <trkpt lat="37.414245000" lon="-5.961537000">
        <ele>14.1</ele>
        <time>2020-10-17T09:32:16Z</time>
      </trkpt>
      <trkpt lat="37.414163000" lon="-5.961526000">
        <ele>14.0</ele>
        <time>2020-10-17T09:32:18Z</time>
      </trkpt>
      <trkpt lat="37.414070000" lon="-5.961524000">
        <ele>14.0</ele>
        <time>2020-10-17T09:32:20Z</time>
      </trkpt>
      <trkpt lat="37.413966000" lon="-5.961549000">
        <ele>14.1</ele>
        <time>2020-10-17T09:32:22Z</time>
      </trkpt>
      <trkpt lat="37.413877000" lon="-5.961545000">
        <ele>14.2</ele>
        <time>2020-10-17T09:32:24Z</time>
      </trkpt>
      <trkpt lat="37.413791000" lon="-5.961538000">
        <ele>14.4</ele>
        <time>2020-10-17T09:32:26Z</time>
      </trkpt>
      <trkpt lat="37.413700000" lon="-5.961534000">
        <ele>14.6</ele>
        <time>2020-10-17T09:32:28Z</time>
      </trkpt>
      <trkpt lat="37.413607000" lon="-5.961526000">
        <ele>14.9</ele>
        <time>2020-10-17T09:32:30Z</time>
      </trkpt>
      <trkpt lat="37.413518000" lon="-5.961534000">
        <ele>15.2</ele>
        <time>2020-10-17T09:32:32Z</time>
      </trkpt>
      <trkpt lat="37.413429000" lon="-5.961528000">
        <ele>15.5</ele>
        <time>2020-10-17T09:32:34Z</time>
      </trkpt>
      <trkpt lat="37.413333000" lon="-5.961532000">
        <ele>15.5</ele>
        <time>2020-10-17T09:32:36Z</time>
      </trkpt>
      <trkpt lat="37.413245000" lon="-5.961534000">
        <ele>15.5</ele>
        <time>2020-10-17T09:32:38Z</time>
      </trkpt>
      <trkpt lat="37.413161000" lon="-5.961529000">
        <ele>15.5</ele>
        <time>2020-10-17T09:32:40Z</time>
      </trkpt>
      <trkpt lat="37.413073000" lon="-5.961521000">
        <ele>15.2</ele>
        <time>2020-10-17T09:32:42Z</time>
      </trkpt>
      <trkpt lat="37.412955000" lon="-5.961559000">
        <ele>14.9</ele>
        <time>2020-10-17T09:32:45Z</time>
      </trkpt>
      <trkpt lat="37.412875000" lon="-5.961611000">
        <ele>14.5</ele>
        <time>2020-10-17T09:32:47Z</time>
      </trkpt>
      <trkpt lat="37.412793000" lon="-5.961662000">
        <ele>14.1</ele>
        <time>2020-10-17T09:32:49Z</time>
      </trkpt>
      <trkpt lat="37.412718000" lon="-5.961712000">
        <ele>13.5</ele>
        <time>2020-10-17T09:32:51Z</time>
      </trkpt>
      <trkpt lat="37.412603000" lon="-5.961743000">
        <ele>13.0</ele>
        <time>2020-10-17T09:32:54Z</time>
      </trkpt>
      <trkpt lat="37.412482000" lon="-5.961755000">
        <ele>12.5</ele>
        <time>2020-10-17T09:32:57Z</time>
      </trkpt>
      <trkpt lat="37.412361000" lon="-5.961766000">
        <ele>12.0</ele>
        <time>2020-10-17T09:33:00Z</time>
      </trkpt>
      <trkpt lat="37.412281000" lon="-5.961781000">
        <ele>11.8</ele>
        <time>2020-10-17T09:33:02Z</time>
      </trkpt>
      <trkpt lat="37.412196000" lon="-5.961800000">
        <ele>11.7</ele>
        <time>2020-10-17T09:33:05Z</time>
      </trkpt>
      <trkpt lat="37.412114000" lon="-5.961820000">
        <ele>11.7</ele>
        <time>2020-10-17T09:33:09Z</time>
      </trkpt>
      <trkpt lat="37.412029000" lon="-5.961749000">
        <ele>11.8</ele>
        <time>2020-10-17T09:33:14Z</time>
      </trkpt>
      <trkpt lat="37.411989000" lon="-5.961658000">
        <ele>11.9</ele>
        <time>2020-10-17T09:33:17Z</time>
      </trkpt>
      <trkpt lat="37.411955000" lon="-5.961559000">
        <ele>11.9</ele>
        <time>2020-10-17T09:33:20Z</time>
      </trkpt>
      <trkpt lat="37.411905000" lon="-5.961467000">
        <ele>11.8</ele>
        <time>2020-10-17T09:33:24Z</time>
      </trkpt>
      <trkpt lat="37.411851000" lon="-5.961376000">
        <ele>11.8</ele>
        <time>2020-10-17T09:33:29Z</time>
      </trkpt>
      <trkpt lat="37.411755000" lon="-5.961362000">
        <ele>11.7</ele>
        <time>2020-10-17T09:33:35Z</time>
      </trkpt>
      <trkpt lat="37.411664000" lon="-5.961413000">
        <ele>11.6</ele>
        <time>2020-10-17T09:33:39Z</time>
      </trkpt>
      <trkpt lat="37.411582000" lon="-5.961456000">
        <ele>11.5</ele>
        <time>2020-10-17T09:33:42Z</time>
      </trkpt>
      <trkpt lat="37.411482000" lon="-5.961513000">
        <ele>11.5</ele>
        <time>2020-10-17T09:33:45Z</time>
      </trkpt>
      <trkpt lat="37.411378000" lon="-5.961561000">
        <ele>11.6</ele>
        <time>2020-10-17T09:33:48Z</time>
      </trkpt>
      <trkpt lat="37.411270000" lon="-5.961615000">
        <ele>11.8</ele>
        <time>2020-10-17T09:33:51Z</time>
      </trkpt>
      <trkpt lat="37.411194000" lon="-5.961656000">
        <ele>12.1</ele>
        <time>2020-10-17T09:33:53Z</time>
      </trkpt>
      <trkpt lat="37.411113000" lon="-5.961697000">
        <ele>12.4</ele>
        <time>2020-10-17T09:33:55Z</time>
      </trkpt>
      <trkpt lat="37.411033000" lon="-5.961737000">
        <ele>12.8</ele>
        <time>2020-10-17T09:33:57Z</time>
      </trkpt>
      <trkpt lat="37.410952000" lon="-5.961774000">
        <ele>13.4</ele>
        <time>2020-10-17T09:33:59Z</time>
      </trkpt>
      <trkpt lat="37.410879000" lon="-5.961818000">
        <ele>13.8</ele>
        <time>2020-10-17T09:34:01Z</time>
      </trkpt>
      <trkpt lat="37.410805000" lon="-5.961860000">
        <ele>14.4</ele>
        <time>2020-10-17T09:34:03Z</time>
      </trkpt>
      <trkpt lat="37.410709000" lon="-5.961893000">
        <ele>14.9</ele>
        <time>2020-10-17T09:34:05Z</time>
      </trkpt>
      <trkpt lat="37.410621000" lon="-5.961943000">
        <ele>15.4</ele>
        <time>2020-10-17T09:34:07Z</time>
      </trkpt>
      <trkpt lat="37.410538000" lon="-5.961979000">
        <ele>15.6</ele>
        <time>2020-10-17T09:34:09Z</time>
      </trkpt>
      <trkpt lat="37.410423000" lon="-5.962032000">
        <ele>15.7</ele>
        <time>2020-10-17T09:34:12Z</time>
      </trkpt>
      <trkpt lat="37.410333000" lon="-5.962090000">
        <ele>15.5</ele>
        <time>2020-10-17T09:34:14Z</time>
      </trkpt>
      <trkpt lat="37.410251000" lon="-5.962142000">
        <ele>15.2</ele>
        <time>2020-10-17T09:34:16Z</time>
      </trkpt>
      <trkpt lat="37.410179000" lon="-5.962192000">
        <ele>14.8</ele>
        <time>2020-10-17T09:34:18Z</time>
      </trkpt>
      <trkpt lat="37.410054000" lon="-5.962240000">
        <ele>14.3</ele>
        <time>2020-10-17T09:34:21Z</time>
      </trkpt>
      <trkpt lat="37.409958000" lon="-5.962296000">
        <ele>13.8</ele>
        <time>2020-10-17T09:34:23Z</time>
      </trkpt>
      <trkpt lat="37.409846000" lon="-5.962361000">
        <ele>13.5</ele>
        <time>2020-10-17T09:34:26Z</time>
      </trkpt>
      <trkpt lat="37.409761000" lon="-5.962411000">
        <ele>13.3</ele>
        <time>2020-10-17T09:34:28Z</time>
      </trkpt>
      <trkpt lat="37.409684000" lon="-5.962452000">
        <ele>13.2</ele>
        <time>2020-10-17T09:34:30Z</time>
      </trkpt>
      <trkpt lat="37.409611000" lon="-5.962505000">
        <ele>13.3</ele>
        <time>2020-10-17T09:34:32Z</time>
      </trkpt>
      <trkpt lat="37.409521000" lon="-5.962562000">
        <ele>13.4</ele>
        <time>2020-10-17T09:34:34Z</time>
      </trkpt>
      <trkpt lat="37.409439000" lon="-5.962599000">
        <ele>13.5</ele>
        <time>2020-10-17T09:34:36Z</time>
      </trkpt>
      <trkpt lat="37.409358000" lon="-5.962669000">
        <ele>13.8</ele>
        <time>2020-10-17T09:34:38Z</time>
      </trkpt>
      <trkpt lat="37.409274000" lon="-5.962721000">
        <ele>14.2</ele>
        <time>2020-10-17T09:34:40Z</time>
      </trkpt>
      <trkpt lat="37.409184000" lon="-5.962772000">
        <ele>14.5</ele>
        <time>2020-10-17T09:34:42Z</time>
      </trkpt>
      <trkpt lat="37.409109000" lon="-5.962826000">
        <ele>14.8</ele>
        <time>2020-10-17T09:34:44Z</time>
      </trkpt>
      <trkpt lat="37.409030000" lon="-5.962880000">
        <ele>15.0</ele>
        <time>2020-10-17T09:34:46Z</time>
      </trkpt>
      <trkpt lat="37.408947000" lon="-5.962930000">
        <ele>15.3</ele>
        <time>2020-10-17T09:34:48Z</time>
      </trkpt>
      <trkpt lat="37.408873000" lon="-5.962987000">
        <ele>15.4</ele>
        <time>2020-10-17T09:34:50Z</time>
      </trkpt>
      <trkpt lat="37.408773000" lon="-5.963022000">
        <ele>15.4</ele>
        <time>2020-10-17T09:34:52Z</time>
      </trkpt>
      <trkpt lat="37.408673000" lon="-5.963096000">
        <ele>15.4</ele>
        <time>2020-10-17T09:34:54Z</time>
      </trkpt>
      <trkpt lat="37.408575000" lon="-5.963161000">
        <ele>15.5</ele>
        <time>2020-10-17T09:34:56Z</time>
      </trkpt>
      <trkpt lat="37.408481000" lon="-5.963219000">
        <ele>15.6</ele>
        <time>2020-10-17T09:34:58Z</time>
      </trkpt>
      <trkpt lat="37.408385000" lon="-5.963279000">
        <ele>15.8</ele>
        <time>2020-10-17T09:35:00Z</time>
      </trkpt>
      <trkpt lat="37.408302000" lon="-5.963325000">
        <ele>16.0</ele>
        <time>2020-10-17T09:35:02Z</time>
      </trkpt>
      <trkpt lat="37.408221000" lon="-5.963370000">
        <ele>16.3</ele>
        <time>2020-10-17T09:35:04Z</time>
      </trkpt>
      <trkpt lat="37.408116000" lon="-5.963436000">
        <ele>16.5</ele>
        <time>2020-10-17T09:35:06Z</time>
      </trkpt>
      <trkpt lat="37.408027000" lon="-5.963493000">
        <ele>16.7</ele>
        <time>2020-10-17T09:35:08Z</time>
      </trkpt>
      <trkpt lat="37.407928000" lon="-5.963550000">
        <ele>16.8</ele>
        <time>2020-10-17T09:35:10Z</time>
      </trkpt>
      <trkpt lat="37.407844000" lon="-5.963609000">
        <ele>16.8</ele>
        <time>2020-10-17T09:35:12Z</time>
      </trkpt>
      <trkpt lat="37.407767000" lon="-5.963646000">
        <ele>16.8</ele>
        <time>2020-10-17T09:35:14Z</time>
      </trkpt>
      <trkpt lat="37.407681000" lon="-5.963691000">
        <ele>16.6</ele>
        <time>2020-10-17T09:35:16Z</time>
      </trkpt>
      <trkpt lat="37.407600000" lon="-5.963745000">
        <ele>16.4</ele>
        <time>2020-10-17T09:35:18Z</time>
      </trkpt>
      <trkpt lat="37.407513000" lon="-5.963774000">
        <ele>16.0</ele>
        <time>2020-10-17T09:35:20Z</time>
      </trkpt>
      <trkpt lat="37.407414000" lon="-5.963814000">
        <ele>15.5</ele>
        <time>2020-10-17T09:35:22Z</time>
      </trkpt>
      <trkpt lat="37.407341000" lon="-5.963871000">
        <ele>15.1</ele>
        <time>2020-10-17T09:35:24Z</time>
      </trkpt>
      <trkpt lat="37.407237000" lon="-5.963947000">
        <ele>14.5</ele>
        <time>2020-10-17T09:35:27Z</time>
      </trkpt>
      <trkpt lat="37.407162000" lon="-5.963988000">
        <ele>14.1</ele>
        <time>2020-10-17T09:35:29Z</time>
      </trkpt>
      <trkpt lat="37.407056000" lon="-5.964040000">
        <ele>13.6</ele>
        <time>2020-10-17T09:35:32Z</time>
      </trkpt>
      <trkpt lat="37.406958000" lon="-5.964058000">
        <ele>13.2</ele>
        <time>2020-10-17T09:35:35Z</time>
      </trkpt>
      <trkpt lat="37.406838000" lon="-5.964045000">
        <ele>12.8</ele>
        <time>2020-10-17T09:35:38Z</time>
      </trkpt>
      <trkpt lat="37.406756000" lon="-5.964014000">
        <ele>12.4</ele>
        <time>2020-10-17T09:35:40Z</time>
      </trkpt>
      <trkpt lat="37.406678000" lon="-5.963973000">
        <ele>12.0</ele>
        <time>2020-10-17T09:35:42Z</time>
      </trkpt>
      <trkpt lat="37.406603000" lon="-5.963923000">
        <ele>11.6</ele>
        <time>2020-10-17T09:35:44Z</time>
      </trkpt>
      <trkpt lat="37.406527000" lon="-5.963873000">
        <ele>11.3</ele>
        <time>2020-10-17T09:35:46Z</time>
      </trkpt>
      <trkpt lat="37.406454000" lon="-5.963816000">
        <ele>11.0</ele>
        <time>2020-10-17T09:35:48Z</time>
      </trkpt>
      <trkpt lat="37.406385000" lon="-5.963759000">
        <ele>10.8</ele>
        <time>2020-10-17T09:35:50Z</time>
      </trkpt>
      <trkpt lat="37.406303000" lon="-5.963706000">
        <ele>10.7</ele>
        <time>2020-10-17T09:35:52Z</time>
      </trkpt>
      <trkpt lat="37.406228000" lon="-5.963653000">
        <ele>10.6</ele>
        <time>2020-10-17T09:35:54Z</time>
      </trkpt>
      <trkpt lat="37.406123000" lon="-5.963567000">
        <ele>10.5</ele>
        <time>2020-10-17T09:35:57Z</time>
      </trkpt>
      <trkpt lat="37.406050000" lon="-5.963512000">
        <ele>10.5</ele>
        <time>2020-10-17T09:35:59Z</time>
      </trkpt>
      <trkpt lat="37.405971000" lon="-5.963466000">
        <ele>10.5</ele>
        <time>2020-10-17T09:36:01Z</time>
      </trkpt>
      <trkpt lat="37.405888000" lon="-5.963422000">
        <ele>10.7</ele>
        <time>2020-10-17T09:36:03Z</time>
      </trkpt>
      <trkpt lat="37.405806000" lon="-5.963395000">
        <ele>10.9</ele>
        <time>2020-10-17T09:36:05Z</time>
      </trkpt>
      <trkpt lat="37.405715000" lon="-5.963385000">
        <ele>11.2</ele>
        <time>2020-10-17T09:36:07Z</time>
      </trkpt>
      <trkpt lat="37.405629000" lon="-5.963379000">
        <ele>11.5</ele>
        <time>2020-10-17T09:36:09Z</time>
      </trkpt>
      <trkpt lat="37.405545000" lon="-5.963373000">
        <ele>11.6</ele>
        <time>2020-10-17T09:36:11Z</time>
      </trkpt>
      <trkpt lat="37.405440000" lon="-5.963359000">
        <ele>11.7</ele>
        <time>2020-10-17T09:36:14Z</time>
      </trkpt>
      <trkpt lat="37.405340000" lon="-5.963357000">
        <ele>11.8</ele>
        <time>2020-10-17T09:36:17Z</time>
      </trkpt>
      <trkpt lat="37.405252000" lon="-5.963359000">
        <ele>11.9</ele>
        <time>2020-10-17T09:36:20Z</time>
      </trkpt>
      <trkpt lat="37.405174000" lon="-5.963431000">
        <ele>12.0</ele>
        <time>2020-10-17T09:36:23Z</time>
      </trkpt>
      <trkpt lat="37.405154000" lon="-5.963543000">
        <ele>12.1</ele>
        <time>2020-10-17T09:36:26Z</time>
      </trkpt>
      <trkpt lat="37.405117000" lon="-5.963661000">
        <ele>12.3</ele>
        <time>2020-10-17T09:36:30Z</time>
      </trkpt>
      <trkpt lat="37.405033000" lon="-5.963668000">
        <ele>12.4</ele>
        <time>2020-10-17T09:36:34Z</time>
      </trkpt>
      <trkpt lat="37.404985000" lon="-5.963775000">
        <ele>12.5</ele>
        <time>2020-10-17T09:36:39Z</time>
      </trkpt>
      <trkpt lat="37.404958000" lon="-5.963884000">
        <ele>12.5</ele>
        <time>2020-10-17T09:36:42Z</time>
      </trkpt>
      <trkpt lat="37.404926000" lon="-5.964003000">
        <ele>12.4</ele>
        <time>2020-10-17T09:36:45Z</time>
      </trkpt>
      <trkpt lat="37.404898000" lon="-5.964104000">
        <ele>12.3</ele>
        <time>2020-10-17T09:36:48Z</time>
      </trkpt>
      <trkpt lat="37.404855000" lon="-5.964214000">
        <ele>12.2</ele>
        <time>2020-10-17T09:36:52Z</time>
      </trkpt>
      <trkpt lat="37.404771000" lon="-5.964216000">
        <ele>12.1</ele>
        <time>2020-10-17T09:37:11Z</time>
      </trkpt>
      <trkpt lat="37.404726000" lon="-5.964118000">
        <ele>12.0</ele>
        <time>2020-10-17T09:37:17Z</time>
      </trkpt>
      <trkpt lat="37.404756000" lon="-5.963994000">
        <ele>11.9</ele>
        <time>2020-10-17T09:37:22Z</time>
      </trkpt>
      <trkpt lat="37.404772000" lon="-5.963867000">
        <ele>11.9</ele>
        <time>2020-10-17T09:37:26Z</time>
      </trkpt>
      <trkpt lat="37.404783000" lon="-5.963765000">
        <ele>11.9</ele>
        <time>2020-10-17T09:37:30Z</time>
      </trkpt>
      <trkpt lat="37.404826000" lon="-5.963666000">
        <ele>12.0</ele>
        <time>2020-10-17T09:37:37Z</time>
      </trkpt>
      <trkpt lat="37.404804000" lon="-5.963774000">
        <ele>12.2</ele>
        <time>2020-10-17T09:37:52Z</time>
      </trkpt>
      <trkpt lat="37.404786000" lon="-5.963895000">
        <ele>12.4</ele>
        <time>2020-10-17T09:37:55Z</time>
      </trkpt>
      <trkpt lat="37.404754000" lon="-5.964035000">
        <ele>12.5</ele>
        <time>2020-10-17T09:37:58Z</time>
      </trkpt>
      <trkpt lat="37.404721000" lon="-5.964165000">
        <ele>12.8</ele>
        <time>2020-10-17T09:38:01Z</time>
      </trkpt>
      <trkpt lat="37.404627000" lon="-5.964206000">
        <ele>13.0</ele>
        <time>2020-10-17T09:38:04Z</time>
      </trkpt>
      <trkpt lat="37.404510000" lon="-5.964187000">
        <ele>13.2</ele>
        <time>2020-10-17T09:38:07Z</time>
      </trkpt>
      <trkpt lat="37.404430000" lon="-5.964168000">
        <ele>13.3</ele>
        <time>2020-10-17T09:38:09Z</time>
      </trkpt>
      <trkpt lat="37.404342000" lon="-5.964138000">
        <ele>13.3</ele>
        <time>2020-10-17T09:38:11Z</time>
      </trkpt>
      <trkpt lat="37.404256000" lon="-5.964120000">
        <ele>13.2</ele>
        <time>2020-10-17T09:38:13Z</time>
      </trkpt>
      <trkpt lat="37.404145000" lon="-5.964102000">
        <ele>12.9</ele>
        <time>2020-10-17T09:38:16Z</time>
      </trkpt>
      <trkpt lat="37.404058000" lon="-5.964101000">
        <ele>12.5</ele>
        <time>2020-10-17T09:38:19Z</time>
      </trkpt>
      <trkpt lat="37.403960000" lon="-5.964104000">
        <ele>11.9</ele>
        <time>2020-10-17T09:38:23Z</time>
      </trkpt>
      <trkpt lat="37.403873000" lon="-5.964116000">
        <ele>11.4</ele>
        <time>2020-10-17T09:38:26Z</time>
      </trkpt>
      <trkpt lat="37.403773000" lon="-5.964140000">
        <ele>10.9</ele>
        <time>2020-10-17T09:38:29Z</time>
      </trkpt>
      <trkpt lat="37.403658000" lon="-5.964161000">
        <ele>10.5</ele>
        <time>2020-10-17T09:38:32Z</time>
      </trkpt>
      <trkpt lat="37.403554000" lon="-5.964191000">
        <ele>10.2</ele>
        <time>2020-10-17T09:38:35Z</time>
      </trkpt>
      <trkpt lat="37.403478000" lon="-5.964229000">
        <ele>9.9</ele>
        <time>2020-10-17T09:38:40Z</time>
      </trkpt>
      <trkpt lat="37.403397000" lon="-5.964300000">
        <ele>9.7</ele>
        <time>2020-10-17T09:38:44Z</time>
      </trkpt>
      <trkpt lat="37.403328000" lon="-5.964367000">
        <ele>9.6</ele>
        <time>2020-10-17T09:38:47Z</time>
      </trkpt>
      <trkpt lat="37.403235000" lon="-5.964413000">
        <ele>9.5</ele>
        <time>2020-10-17T09:38:51Z</time>
      </trkpt>
      <trkpt lat="37.403166000" lon="-5.964493000">
        <ele>9.5</ele>
        <time>2020-10-17T09:38:55Z</time>
      </trkpt>
      <trkpt lat="37.403148000" lon="-5.964618000">
        <ele>9.6</ele>
        <time>2020-10-17T09:38:59Z</time>
      </trkpt>
      <trkpt lat="37.403144000" lon="-5.964736000">
        <ele>9.6</ele>
        <time>2020-10-17T09:39:03Z</time>
      </trkpt>
      <trkpt lat="37.403119000" lon="-5.964612000">
        <ele>9.7</ele>
        <time>2020-10-17T09:40:05Z</time>
      </trkpt>
      <trkpt lat="37.403130000" lon="-5.964491000">
        <ele>9.8</ele>
        <time>2020-10-17T09:40:08Z</time>
      </trkpt>
      <trkpt lat="37.403137000" lon="-5.964355000">
        <ele>10.0</ele>
        <time>2020-10-17T09:40:11Z</time>
      </trkpt>
      <trkpt lat="37.403159000" lon="-5.964226000">
        <ele>10.2</ele>
        <time>2020-10-17T09:40:14Z</time>
      </trkpt>
      <trkpt lat="37.403191000" lon="-5.964114000">
        <ele>10.5</ele>
        <time>2020-10-17T09:40:18Z</time>
      </trkpt>
      <trkpt lat="37.403084000" lon="-5.964115000">
        <ele>10.6</ele>
        <time>2020-10-17T09:41:05Z</time>
      </trkpt>
      <trkpt lat="37.403006000" lon="-5.964145000">
        <ele>10.8</ele>
        <time>2020-10-17T09:41:07Z</time>
      </trkpt>
      <trkpt lat="37.402927000" lon="-5.964180000">
        <ele>11.0</ele>
        <time>2020-10-17T09:41:09Z</time>
      </trkpt>
      <trkpt lat="37.402847000" lon="-5.964211000">
        <ele>11.2</ele>
        <time>2020-10-17T09:41:11Z</time>
      </trkpt>
      <trkpt lat="37.402738000" lon="-5.964256000">
        <ele>11.4</ele>
        <time>2020-10-17T09:41:14Z</time>
      </trkpt>
      <trkpt lat="37.402661000" lon="-5.964308000">
        <ele>11.6</ele>
        <time>2020-10-17T09:41:17Z</time>
      </trkpt>
      <trkpt lat="37.402595000" lon="-5.964378000">
        <ele>11.8</ele>
        <time>2020-10-17T09:41:21Z</time>
      </trkpt>
      <trkpt lat="37.402506000" lon="-5.964465000">
        <ele>12.1</ele>
        <time>2020-10-17T09:41:31Z</time>
      </trkpt>
      <trkpt lat="37.402430000" lon="-5.964545000">
        <ele>12.4</ele>
        <time>2020-10-17T09:41:33Z</time>
      </trkpt>
      <trkpt lat="37.402347000" lon="-5.964624000">
        <ele>12.6</ele>
        <time>2020-10-17T09:41:35Z</time>
      </trkpt>
      <trkpt lat="37.402278000" lon="-5.964720000">
        <ele>12.7</ele>
        <time>2020-10-17T09:41:37Z</time>
      </trkpt>
      <trkpt lat="37.402205000" lon="-5.964821000">
        <ele>12.9</ele>
        <time>2020-10-17T09:41:39Z</time>
      </trkpt>
      <trkpt lat="37.402121000" lon="-5.964907000">
        <ele>13.1</ele>
        <time>2020-10-17T09:41:41Z</time>
      </trkpt>
      <trkpt lat="37.402041000" lon="-5.965010000">
        <ele>13.3</ele>
        <time>2020-10-17T09:41:43Z</time>
      </trkpt>
      <trkpt lat="37.401967000" lon="-5.965102000">
        <ele>13.4</ele>
        <time>2020-10-17T09:41:45Z</time>
      </trkpt>
      <trkpt lat="37.401895000" lon="-5.965201000">
        <ele>13.5</ele>
        <time>2020-10-17T09:41:47Z</time>
      </trkpt>
      <trkpt lat="37.401816000" lon="-5.965300000">
        <ele>13.8</ele>
        <time>2020-10-17T09:41:49Z</time>
      </trkpt>
      <trkpt lat="37.401742000" lon="-5.965397000">
        <ele>14.1</ele>
        <time>2020-10-17T09:41:51Z</time>
      </trkpt>
      <trkpt lat="37.401657000" lon="-5.965484000">
        <ele>14.3</ele>
        <time>2020-10-17T09:41:53Z</time>
      </trkpt>
      <trkpt lat="37.401571000" lon="-5.965580000">
        <ele>14.3</ele>
        <time>2020-10-17T09:41:55Z</time>
      </trkpt>
      <trkpt lat="37.401486000" lon="-5.965678000">
        <ele>14.2</ele>
        <time>2020-10-17T09:41:57Z</time>
      </trkpt>
      <trkpt lat="37.401404000" lon="-5.965766000">
        <ele>14.2</ele>
        <time>2020-10-17T09:41:59Z</time>
      </trkpt>
      <trkpt lat="37.401320000" lon="-5.965870000">
        <ele>14.3</ele>
        <time>2020-10-17T09:42:01Z</time>
      </trkpt>
      <trkpt lat="37.401234000" lon="-5.965981000">
        <ele>14.4</ele>
        <time>2020-10-17T09:42:03Z</time>
      </trkpt>
      <trkpt lat="37.401155000" lon="-5.966086000">
        <ele>14.5</ele>
        <time>2020-10-17T09:42:05Z</time>
      </trkpt>
      <trkpt lat="37.401074000" lon="-5.966193000">
        <ele>14.6</ele>
        <time>2020-10-17T09:42:07Z</time>
      </trkpt>
      <trkpt lat="37.401002000" lon="-5.966286000">
        <ele>14.7</ele>
        <time>2020-10-17T09:42:09Z</time>
      </trkpt>
      <trkpt lat="37.400941000" lon="-5.966378000">
        <ele>14.8</ele>
        <time>2020-10-17T09:42:11Z</time>
      </trkpt>
      <trkpt lat="37.400871000" lon="-5.966470000">
        <ele>14.9</ele>
        <time>2020-10-17T09:42:13Z</time>
      </trkpt>
      <trkpt lat="37.400795000" lon="-5.966567000">
        <ele>15.0</ele>
        <time>2020-10-17T09:42:15Z</time>
      </trkpt>
      <trkpt lat="37.400727000" lon="-5.966663000">
        <ele>15.2</ele>
        <time>2020-10-17T09:42:17Z</time>
      </trkpt>
      <trkpt lat="37.400656000" lon="-5.966749000">
        <ele>15.3</ele>
        <time>2020-10-17T09:42:19Z</time>
      </trkpt>
      <trkpt lat="37.400578000" lon="-5.966842000">
        <ele>15.3</ele>
        <time>2020-10-17T09:42:21Z</time>
      </trkpt>
      <trkpt lat="37.400505000" lon="-5.966949000">
        <ele>15.0</ele>
        <time>2020-10-17T09:42:23Z</time>
      </trkpt>
      <trkpt lat="37.400422000" lon="-5.967049000">
        <ele>14.6</ele>
        <time>2020-10-17T09:42:25Z</time>
      </trkpt>
      <trkpt lat="37.400347000" lon="-5.967153000">
        <ele>14.2</ele>
        <time>2020-10-17T09:42:27Z</time>
      </trkpt>
      <trkpt lat="37.400274000" lon="-5.967240000">
        <ele>13.6</ele>
        <time>2020-10-17T09:42:29Z</time>
      </trkpt>
      <trkpt lat="37.400201000" lon="-5.967340000">
        <ele>13.1</ele>
        <time>2020-10-17T09:42:31Z</time>
      </trkpt>
      <trkpt lat="37.400134000" lon="-5.967446000">
        <ele>12.5</ele>
        <time>2020-10-17T09:42:33Z</time>
      </trkpt>
      <trkpt lat="37.400066000" lon="-5.967533000">
        <ele>11.8</ele>
        <time>2020-10-17T09:42:35Z</time>
      </trkpt>
      <trkpt lat="37.400000000" lon="-5.967620000">
        <ele>11.3</ele>
        <time>2020-10-17T09:42:37Z</time>
      </trkpt>
      <trkpt lat="37.399941000" lon="-5.967693000">
        <ele>10.8</ele>
        <time>2020-10-17T09:42:39Z</time>
      </trkpt>
      <trkpt lat="37.399887000" lon="-5.967771000">
        <ele>10.6</ele>
        <time>2020-10-17T09:42:41Z</time>
      </trkpt>
      <trkpt lat="37.399826000" lon="-5.967848000">
        <ele>10.6</ele>
        <time>2020-10-17T09:42:43Z</time>
      </trkpt>
      <trkpt lat="37.399764000" lon="-5.967918000">
        <ele>10.9</ele>
        <time>2020-10-17T09:42:45Z</time>
      </trkpt>
      <trkpt lat="37.399703000" lon="-5.967988000">
        <ele>11.3</ele>
        <time>2020-10-17T09:42:47Z</time>
      </trkpt>
      <trkpt lat="37.399634000" lon="-5.968085000">
        <ele>11.8</ele>
        <time>2020-10-17T09:42:50Z</time>
      </trkpt>
      <trkpt lat="37.399567000" lon="-5.968185000">
        <ele>12.5</ele>
        <time>2020-10-17T09:42:54Z</time>
      </trkpt>
      <trkpt lat="37.399513000" lon="-5.968263000">
        <ele>13.1</ele>
        <time>2020-10-17T09:42:57Z</time>
      </trkpt>
      <trkpt lat="37.399461000" lon="-5.968351000">
        <ele>13.6</ele>
        <time>2020-10-17T09:43:00Z</time>
      </trkpt>
      <trkpt lat="37.399405000" lon="-5.968457000">
        <ele>14.2</ele>
        <time>2020-10-17T09:43:04Z</time>
      </trkpt>
      <trkpt lat="37.399435000" lon="-5.968566000">
        <ele>14.6</ele>
        <time>2020-10-17T09:43:09Z</time>
      </trkpt>
      <trkpt lat="37.399464000" lon="-5.968697000">
        <ele>15.2</ele>
        <time>2020-10-17T09:43:13Z</time>
      </trkpt>
      <trkpt lat="37.399475000" lon="-5.968809000">
        <ele>15.6</ele>
        <time>2020-10-17T09:43:16Z</time>
      </trkpt>
      <trkpt lat="37.399508000" lon="-5.968913000">
        <ele>16.1</ele>
        <time>2020-10-17T09:43:48Z</time>
      </trkpt>
      <trkpt lat="37.399471000" lon="-5.969036000">
        <ele>16.5</ele>
        <time>2020-10-17T09:43:52Z</time>
      </trkpt>
      <trkpt lat="37.399372000" lon="-5.969076000">
        <ele>17.1</ele>
        <time>2020-10-17T09:43:56Z</time>
      </trkpt>
      <trkpt lat="37.399263000" lon="-5.969083000">
        <ele>17.5</ele>
        <time>2020-10-17T09:43:59Z</time>
      </trkpt>
      <trkpt lat="37.399147000" lon="-5.969065000">
        <ele>17.8</ele>
        <time>2020-10-17T09:44:02Z</time>
      </trkpt>
      <trkpt lat="37.399038000" lon="-5.969051000">
        <ele>18.2</ele>
        <time>2020-10-17T09:44:05Z</time>
      </trkpt>
      <trkpt lat="37.398946000" lon="-5.969067000">
        <ele>18.5</ele>
        <time>2020-10-17T09:44:08Z</time>
      </trkpt>
      <trkpt lat="37.398877000" lon="-5.969154000">
        <ele>18.6</ele>
        <time>2020-10-17T09:44:11Z</time>
      </trkpt>
      <trkpt lat="37.398796000" lon="-5.969253000">
        <ele>18.6</ele>
        <time>2020-10-17T09:44:14Z</time>
      </trkpt>
      <trkpt lat="37.398720000" lon="-5.969347000">
        <ele>18.3</ele>
        <time>2020-10-17T09:44:17Z</time>
      </trkpt>
      <trkpt lat="37.398654000" lon="-5.969438000">
        <ele>17.7</ele>
        <time>2020-10-17T09:44:20Z</time>
      </trkpt>
      <trkpt lat="37.398564000" lon="-5.969524000">
        <ele>17.0</ele>
        <time>2020-10-17T09:44:23Z</time>
      </trkpt>
      <trkpt lat="37.398474000" lon="-5.969586000">
        <ele>16.2</ele>
        <time>2020-10-17T09:44:26Z</time>
      </trkpt>
      <trkpt lat="37.398435000" lon="-5.969679000">
        <ele>15.2</ele>
        <time>2020-10-17T09:44:28Z</time>
      </trkpt>
      <trkpt lat="37.398392000" lon="-5.969769000">
        <ele>14.2</ele>
        <time>2020-10-17T09:44:30Z</time>
      </trkpt>
      <trkpt lat="37.398340000" lon="-5.969854000">
        <ele>13.2</ele>
        <time>2020-10-17T09:44:32Z</time>
      </trkpt>
      <trkpt lat="37.398286000" lon="-5.969941000">
        <ele>12.3</ele>
        <time>2020-10-17T09:44:34Z</time>
      </trkpt>
      <trkpt lat="37.398230000" lon="-5.970023000">
        <ele>11.5</ele>
        <time>2020-10-17T09:44:36Z</time>
      </trkpt>
      <trkpt lat="37.398149000" lon="-5.970130000">
        <ele>10.9</ele>
        <time>2020-10-17T09:44:39Z</time>
      </trkpt>
      <trkpt lat="37.398074000" lon="-5.970229000">
        <ele>10.5</ele>
        <time>2020-10-17T09:44:42Z</time>
      </trkpt>
      <trkpt lat="37.398009000" lon="-5.970350000">
        <ele>10.2</ele>
        <time>2020-10-17T09:44:45Z</time>
      </trkpt>
      <trkpt lat="37.397957000" lon="-5.970436000">
        <ele>10.0</ele>
        <time>2020-10-17T09:44:47Z</time>
      </trkpt>
      <trkpt lat="37.397904000" lon="-5.970529000">
        <ele>9.9</ele>
        <time>2020-10-17T09:44:49Z</time>
      </trkpt>
      <trkpt lat="37.397851000" lon="-5.970665000">
        <ele>9.7</ele>
        <time>2020-10-17T09:44:52Z</time>
      </trkpt>
      <trkpt lat="37.397797000" lon="-5.970751000">
        <ele>9.7</ele>
        <time>2020-10-17T09:44:54Z</time>
      </trkpt>
      <trkpt lat="37.397772000" lon="-5.970858000">
        <ele>9.8</ele>
        <time>2020-10-17T09:44:57Z</time>
      </trkpt>
      <trkpt lat="37.397692000" lon="-5.970950000">
        <ele>9.9</ele>
        <time>2020-10-17T09:44:59Z</time>
      </trkpt>
      <trkpt lat="37.397616000" lon="-5.971044000">
        <ele>9.9</ele>
        <time>2020-10-17T09:45:02Z</time>
      </trkpt>
      <trkpt lat="37.397536000" lon="-5.971139000">
        <ele>9.8</ele>
        <time>2020-10-17T09:45:05Z</time>
      </trkpt>
      <trkpt lat="37.397458000" lon="-5.971240000">
        <ele>9.7</ele>
        <time>2020-10-17T09:45:08Z</time>
      </trkpt>
      <trkpt lat="37.397373000" lon="-5.971332000">
        <ele>9.5</ele>
        <time>2020-10-17T09:45:11Z</time>
      </trkpt>
      <trkpt lat="37.397301000" lon="-5.971394000">
        <ele>9.5</ele>
        <time>2020-10-17T09:45:13Z</time>
      </trkpt>
      <trkpt lat="37.397206000" lon="-5.971489000">
        <ele>9.5</ele>
        <time>2020-10-17T09:45:16Z</time>
      </trkpt>
      <trkpt lat="37.397119000" lon="-5.971587000">
        <ele>9.5</ele>
        <time>2020-10-17T09:45:19Z</time>
      </trkpt>
      <trkpt lat="37.397039000" lon="-5.971674000">
        <ele>9.9</ele>
        <time>2020-10-17T09:45:22Z</time>
      </trkpt>
      <trkpt lat="37.396951000" lon="-5.971783000">
        <ele>10.3</ele>
        <time>2020-10-17T09:45:25Z</time>
      </trkpt>
      <trkpt lat="37.396863000" lon="-5.971896000">
        <ele>10.7</ele>
        <time>2020-10-17T09:45:27Z</time>
      </trkpt>
      <trkpt lat="37.396795000" lon="-5.971978000">
        <ele>11.3</ele>
        <time>2020-10-17T09:45:29Z</time>
      </trkpt>
      <trkpt lat="37.396728000" lon="-5.972051000">
        <ele>11.8</ele>
        <time>2020-10-17T09:45:31Z</time>
      </trkpt>
      <trkpt lat="37.396654000" lon="-5.972135000">
        <ele>12.3</ele>
        <time>2020-10-17T09:45:33Z</time>
      </trkpt>
      <trkpt lat="37.396585000" lon="-5.972214000">
        <ele>12.6</ele>
        <time>2020-10-17T09:45:35Z</time>
      </trkpt>
      <trkpt lat="37.396487000" lon="-5.972316000">
        <ele>13.0</ele>
        <time>2020-10-17T09:45:38Z</time>
      </trkpt>
      <trkpt lat="37.396429000" lon="-5.972388000">
        <ele>13.2</ele>
        <time>2020-10-17T09:45:40Z</time>
      </trkpt>
      <trkpt lat="37.396363000" lon="-5.972472000">
        <ele>13.2</ele>
        <time>2020-10-17T09:45:42Z</time>
      </trkpt>
      <trkpt lat="37.396295000" lon="-5.972555000">
        <ele>13.0</ele>
        <time>2020-10-17T09:45:44Z</time>
      </trkpt>
      <trkpt lat="37.396231000" lon="-5.972622000">
        <ele>12.6</ele>
        <time>2020-10-17T09:45:46Z</time>
      </trkpt>
      <trkpt lat="37.396148000" lon="-5.972713000">
        <ele>12.2</ele>
        <time>2020-10-17T09:45:49Z</time>
      </trkpt>
      <trkpt lat="37.396065000" lon="-5.972798000">
        <ele>11.6</ele>
        <time>2020-10-17T09:45:52Z</time>
      </trkpt>
      <trkpt lat="37.395984000" lon="-5.972885000">
        <ele>11.0</ele>
        <time>2020-10-17T09:45:55Z</time>
      </trkpt>
      <trkpt lat="37.395916000" lon="-5.972955000">
        <ele>10.4</ele>
        <time>2020-10-17T09:45:58Z</time>
      </trkpt>
      <trkpt lat="37.395852000" lon="-5.973031000">
        <ele>9.9</ele>
        <time>2020-10-17T09:46:01Z</time>
      </trkpt>
      <trkpt lat="37.395770000" lon="-5.973119000">
        <ele>9.5</ele>
        <time>2020-10-17T09:46:04Z</time>
      </trkpt>
      <trkpt lat="37.395684000" lon="-5.973215000">
        <ele>9.3</ele>
        <time>2020-10-17T09:46:07Z</time>
      </trkpt>
      <trkpt lat="37.395603000" lon="-5.973314000">
        <ele>9.1</ele>
        <time>2020-10-17T09:46:10Z</time>
      </trkpt>
      <trkpt lat="37.395525000" lon="-5.973407000">
        <ele>9.1</ele>
        <time>2020-10-17T09:46:13Z</time>
      </trkpt>
      <trkpt lat="37.395474000" lon="-5.973489000">
        <ele>9.3</ele>
        <time>2020-10-17T09:46:16Z</time>
      </trkpt>
      <trkpt lat="37.395407000" lon="-5.973561000">
        <ele>9.5</ele>
        <time>2020-10-17T09:46:19Z</time>
      </trkpt>
      <trkpt lat="37.395326000" lon="-5.973581000">
        <ele>9.6</ele>
        <time>2020-10-17T09:46:22Z</time>
      </trkpt>
      <trkpt lat="37.395266000" lon="-5.973654000">
        <ele>9.8</ele>
        <time>2020-10-17T09:46:25Z</time>
      </trkpt>
      <trkpt lat="37.395217000" lon="-5.973740000">
        <ele>10.1</ele>
        <time>2020-10-17T09:46:28Z</time>
      </trkpt>
      <trkpt lat="37.395215000" lon="-5.973883000">
        <ele>10.4</ele>
        <time>2020-10-17T09:46:32Z</time>
      </trkpt>
      <trkpt lat="37.395162000" lon="-5.973998000">
        <ele>10.7</ele>
        <time>2020-10-17T09:46:35Z</time>
      </trkpt>
      <trkpt lat="37.395084000" lon="-5.974111000">
        <ele>11.1</ele>
        <time>2020-10-17T09:46:38Z</time>
      </trkpt>
      <trkpt lat="37.395025000" lon="-5.974185000">
        <ele>11.5</ele>
        <time>2020-10-17T09:46:40Z</time>
      </trkpt>
      <trkpt lat="37.394971000" lon="-5.974260000">
        <ele>12.0</ele>
        <time>2020-10-17T09:46:42Z</time>
      </trkpt>
      <trkpt lat="37.394913000" lon="-5.974340000">
        <ele>12.4</ele>
        <time>2020-10-17T09:46:44Z</time>
      </trkpt>
      <trkpt lat="37.394851000" lon="-5.974430000">
        <ele>12.6</ele>
        <time>2020-10-17T09:46:46Z</time>
      </trkpt>
      <trkpt lat="37.394780000" lon="-5.974509000">
        <ele>12.8</ele>
        <time>2020-10-17T09:46:48Z</time>
      </trkpt>
      <trkpt lat="37.394717000" lon="-5.974591000">
        <ele>12.9</ele>
        <time>2020-10-17T09:46:50Z</time>
      </trkpt>
      <trkpt lat="37.394644000" lon="-5.974680000">
        <ele>12.9</ele>
        <time>2020-10-17T09:46:52Z</time>
      </trkpt>
      <trkpt lat="37.394567000" lon="-5.974770000">
        <ele>12.8</ele>
        <time>2020-10-17T09:46:54Z</time>
      </trkpt>
      <trkpt lat="37.394495000" lon="-5.974855000">
        <ele>12.6</ele>
        <time>2020-10-17T09:46:56Z</time>
      </trkpt>
      <trkpt lat="37.394426000" lon="-5.974936000">
        <ele>12.4</ele>
        <time>2020-10-17T09:46:58Z</time>
      </trkpt>
      <trkpt lat="37.394367000" lon="-5.975027000">
        <ele>12.1</ele>
        <time>2020-10-17T09:47:00Z</time>
      </trkpt>
      <trkpt lat="37.394303000" lon="-5.975107000">
        <ele>11.6</ele>
        <time>2020-10-17T09:47:02Z</time>
      </trkpt>
      <trkpt lat="37.394244000" lon="-5.975194000">
        <ele>11.2</ele>
        <time>2020-10-17T09:47:04Z</time>
      </trkpt>
      <trkpt lat="37.394183000" lon="-5.975280000">
        <ele>10.7</ele>
        <time>2020-10-17T09:47:06Z</time>
      </trkpt>
      <trkpt lat="37.394118000" lon="-5.975350000">
        <ele>10.3</ele>
        <time>2020-10-17T09:47:08Z</time>
      </trkpt>
      <trkpt lat="37.394062000" lon="-5.975431000">
        <ele>9.9</ele>
        <time>2020-10-17T09:47:10Z</time>
      </trkpt>
      <trkpt lat="37.393999000" lon="-5.975499000">
        <ele>9.5</ele>
        <time>2020-10-17T09:47:12Z</time>
      </trkpt>
      <trkpt lat="37.393915000" lon="-5.975593000">
        <ele>9.2</ele>
        <time>2020-10-17T09:47:15Z</time>
      </trkpt>
      <trkpt lat="37.393842000" lon="-5.975682000">
        <ele>8.7</ele>
        <time>2020-10-17T09:47:18Z</time>
      </trkpt>
      <trkpt lat="37.393780000" lon="-5.975766000">
        <ele>8.4</ele>
        <time>2020-10-17T09:47:21Z</time>
      </trkpt>
      <trkpt lat="37.393717000" lon="-5.975855000">
        <ele>7.9</ele>
        <time>2020-10-17T09:47:24Z</time>
      </trkpt>
      <trkpt lat="37.393655000" lon="-5.975937000">
        <ele>7.5</ele>
        <time>2020-10-17T09:47:27Z</time>
      </trkpt>
      <trkpt lat="37.393596000" lon="-5.976052000">
        <ele>7.1</ele>
        <time>2020-10-17T09:47:31Z</time>
      </trkpt>
      <trkpt lat="37.393518000" lon="-5.976136000">
        <ele>6.7</ele>
        <time>2020-10-17T09:47:34Z</time>
      </trkpt>
      <trkpt lat="37.393433000" lon="-5.976233000">
        <ele>6.4</ele>
        <time>2020-10-17T09:47:37Z</time>
      </trkpt>
      <trkpt lat="37.393373000" lon="-5.976305000">
        <ele>6.1</ele>
        <time>2020-10-17T09:47:39Z</time>
      </trkpt>
      <trkpt lat="37.393292000" lon="-5.976406000">
        <ele>5.9</ele>
        <time>2020-10-17T09:47:42Z</time>
      </trkpt>
      <trkpt lat="37.393213000" lon="-5.976494000">
        <ele>5.8</ele>
        <time>2020-10-17T09:47:45Z</time>
      </trkpt>
      <trkpt lat="37.393128000" lon="-5.976598000">
        <ele>5.8</ele>
        <time>2020-10-17T09:47:48Z</time>
      </trkpt>
      <trkpt lat="37.393069000" lon="-5.976676000">
        <ele>5.9</ele>
        <time>2020-10-17T09:47:50Z</time>
      </trkpt>
      <trkpt lat="37.393009000" lon="-5.976758000">
        <ele>6.0</ele>
        <time>2020-10-17T09:47:52Z</time>
      </trkpt>
      <trkpt lat="37.392947000" lon="-5.976843000">
        <ele>6.2</ele>
        <time>2020-10-17T09:47:54Z</time>
      </trkpt>
      <trkpt lat="37.392879000" lon="-5.976921000">
        <ele>6.3</ele>
        <time>2020-10-17T09:47:56Z</time>
      </trkpt>
      <trkpt lat="37.392814000" lon="-5.977007000">
        <ele>6.4</ele>
        <time>2020-10-17T09:47:58Z</time>
      </trkpt>
      <trkpt lat="37.392749000" lon="-5.977096000">
        <ele>6.4</ele>
        <time>2020-10-17T09:48:00Z</time>
      </trkpt>
      <trkpt lat="37.392687000" lon="-5.977177000">
        <ele>6.3</ele>
        <time>2020-10-17T09:48:02Z</time>
      </trkpt>
      <trkpt lat="37.392621000" lon="-5.977261000">
        <ele>6.1</ele>
        <time>2020-10-17T09:48:04Z</time>
      </trkpt>
      <trkpt lat="37.392557000" lon="-5.977344000">
        <ele>5.7</ele>
        <time>2020-10-17T09:48:06Z</time>
      </trkpt>
      <trkpt lat="37.392490000" lon="-5.977428000">
        <ele>5.5</ele>
        <time>2020-10-17T09:48:08Z</time>
      </trkpt>
      <trkpt lat="37.392426000" lon="-5.977506000">
        <ele>5.3</ele>
        <time>2020-10-17T09:48:10Z</time>
      </trkpt>
      <trkpt lat="37.392366000" lon="-5.977582000">
        <ele>5.1</ele>
        <time>2020-10-17T09:48:12Z</time>
      </trkpt>
      <trkpt lat="37.392287000" lon="-5.977686000">
        <ele>5.0</ele>
        <time>2020-10-17T09:48:15Z</time>
      </trkpt>
      <trkpt lat="37.392204000" lon="-5.977786000">
        <ele>5.0</ele>
        <time>2020-10-17T09:48:18Z</time>
      </trkpt>
      <trkpt lat="37.392132000" lon="-5.977881000">
        <ele>5.2</ele>
        <time>2020-10-17T09:48:21Z</time>
      </trkpt>
      <trkpt lat="37.392076000" lon="-5.977972000">
        <ele>5.5</ele>
        <time>2020-10-17T09:48:24Z</time>
      </trkpt>
      <trkpt lat="37.392037000" lon="-5.978085000">
        <ele>5.8</ele>
        <time>2020-10-17T09:48:28Z</time>
      </trkpt>
      <trkpt lat="37.392020000" lon="-5.978188000">
        <ele>6.5</ele>
        <time>2020-10-17T09:49:18Z</time>
      </trkpt>
      <trkpt lat="37.392001000" lon="-5.978317000">
        <ele>7.1</ele>
        <time>2020-10-17T09:49:22Z</time>
      </trkpt>
      <trkpt lat="37.392012000" lon="-5.978447000">
        <ele>7.9</ele>
        <time>2020-10-17T09:49:25Z</time>
      </trkpt>
      <trkpt lat="37.392042000" lon="-5.978595000">
        <ele>8.7</ele>
        <time>2020-10-17T09:49:28Z</time>
      </trkpt>
      <trkpt lat="37.392087000" lon="-5.978689000">
        <ele>9.6</ele>
        <time>2020-10-17T09:49:30Z</time>
      </trkpt>
      <trkpt lat="37.392126000" lon="-5.978800000">
        <ele>10.6</ele>
        <time>2020-10-17T09:49:32Z</time>
      </trkpt>
      <trkpt lat="37.392176000" lon="-5.978895000">
        <ele>11.7</ele>
        <time>2020-10-17T09:49:34Z</time>
      </trkpt>
      <trkpt lat="37.392219000" lon="-5.979005000">
        <ele>12.8</ele>
        <time>2020-10-17T09:49:36Z</time>
      </trkpt>
      <trkpt lat="37.392259000" lon="-5.979108000">
        <ele>13.9</ele>
        <time>2020-10-17T09:49:38Z</time>
      </trkpt>
      <trkpt lat="37.392301000" lon="-5.979213000">
        <ele>15.0</ele>
        <time>2020-10-17T09:49:40Z</time>
      </trkpt>
      <trkpt lat="37.392346000" lon="-5.979307000">
        <ele>16.0</ele>
        <time>2020-10-17T09:49:42Z</time>
      </trkpt>
      <trkpt lat="37.392425000" lon="-5.979415000">
        <ele>16.8</ele>
        <time>2020-10-17T09:49:45Z</time>
      </trkpt>
      <trkpt lat="37.392449000" lon="-5.979531000">
        <ele>17.6</ele>
        <time>2020-10-17T09:49:48Z</time>
      </trkpt>
      <trkpt lat="37.392503000" lon="-5.979650000">
        <ele>18.4</ele>
        <time>2020-10-17T09:49:51Z</time>
      </trkpt>
      <trkpt lat="37.392560000" lon="-5.979768000">
        <ele>19.0</ele>
        <time>2020-10-17T09:49:54Z</time>
      </trkpt>
      <trkpt lat="37.392603000" lon="-5.979865000">
        <ele>19.5</ele>
        <time>2020-10-17T09:49:56Z</time>
      </trkpt>
      <trkpt lat="37.392648000" lon="-5.979956000">
        <ele>19.8</ele>
        <time>2020-10-17T09:49:58Z</time>
      </trkpt>
      <trkpt lat="37.392708000" lon="-5.980033000">
        <ele>20.0</ele>
        <time>2020-10-17T09:50:00Z</time>
      </trkpt>
      <trkpt lat="37.392752000" lon="-5.980169000">
        <ele>20.1</ele>
        <time>2020-10-17T09:50:03Z</time>
      </trkpt>
      <trkpt lat="37.392774000" lon="-5.980268000">
        <ele>20.2</ele>
        <time>2020-10-17T09:50:05Z</time>
      </trkpt>
      <trkpt lat="37.392822000" lon="-5.980371000">
        <ele>20.2</ele>
        <time>2020-10-17T09:50:08Z</time>
      </trkpt>
      <trkpt lat="37.392846000" lon="-5.980476000">
        <ele>20.3</ele>
        <time>2020-10-17T09:50:27Z</time>
      </trkpt>
      <trkpt lat="37.392879000" lon="-5.980576000">
        <ele>20.5</ele>
        <time>2020-10-17T09:50:30Z</time>
      </trkpt>
      <trkpt lat="37.392927000" lon="-5.980659000">
        <ele>20.6</ele>
        <time>2020-10-17T09:50:32Z</time>
      </trkpt>
      <trkpt lat="37.392998000" lon="-5.980754000">
        <ele>20.7</ele>
        <time>2020-10-17T09:50:35Z</time>
      </trkpt>
      <trkpt lat="37.393053000" lon="-5.980832000">
        <ele>20.7</ele>
        <time>2020-10-17T09:50:37Z</time>
      </trkpt>
      <trkpt lat="37.393122000" lon="-5.980911000">
        <ele>20.7</ele>
        <time>2020-10-17T09:50:39Z</time>
      </trkpt>
      <trkpt lat="37.393174000" lon="-5.981009000">
        <ele>20.5</ele>
        <time>2020-10-17T09:50:41Z</time>
      </trkpt>
      <trkpt lat="37.393223000" lon="-5.981111000">
        <ele>20.3</ele>
        <time>2020-10-17T09:50:43Z</time>
      </trkpt>
      <trkpt lat="37.393254000" lon="-5.981221000">
        <ele>19.8</ele>
        <time>2020-10-17T09:50:45Z</time>
      </trkpt>
      <trkpt lat="37.393293000" lon="-5.981322000">
        <ele>19.3</ele>
        <time>2020-10-17T09:50:47Z</time>
      </trkpt>
      <trkpt lat="37.393339000" lon="-5.981417000">
        <ele>18.7</ele>
        <time>2020-10-17T09:50:49Z</time>
      </trkpt>
      <trkpt lat="37.393390000" lon="-5.981510000">
        <ele>18.2</ele>
        <time>2020-10-17T09:50:51Z</time>
      </trkpt>
      <trkpt lat="37.393439000" lon="-5.981595000">
        <ele>17.6</ele>
        <time>2020-10-17T09:50:53Z</time>
      </trkpt>
      <trkpt lat="37.393510000" lon="-5.981715000">
        <ele>17.1</ele>
        <time>2020-10-17T09:50:56Z</time>
      </trkpt>
      <trkpt lat="37.393537000" lon="-5.981862000">
        <ele>16.5</ele>
        <time>2020-10-17T09:50:59Z</time>
      </trkpt>
      <trkpt lat="37.393567000" lon="-5.981957000">
        <ele>16.1</ele>
        <time>2020-10-17T09:51:01Z</time>
      </trkpt>
      <trkpt lat="37.393604000" lon="-5.982060000">
        <ele>15.6</ele>
        <time>2020-10-17T09:51:03Z</time>
      </trkpt>
      <trkpt lat="37.393632000" lon="-5.982184000">
        <ele>15.3</ele>
        <time>2020-10-17T09:51:05Z</time>
      </trkpt>
      <trkpt lat="37.393677000" lon="-5.982289000">
        <ele>15.0</ele>
        <time>2020-10-17T09:51:07Z</time>
      </trkpt>
      <trkpt lat="37.393729000" lon="-5.982371000">
        <ele>14.9</ele>
        <time>2020-10-17T09:51:09Z</time>
      </trkpt>
      <trkpt lat="37.393792000" lon="-5.982490000">
        <ele>14.9</ele>
        <time>2020-10-17T09:51:12Z</time>
      </trkpt>
      <trkpt lat="37.393839000" lon="-5.982575000">
        <ele>14.8</ele>
        <time>2020-10-17T09:51:14Z</time>
      </trkpt>
      <trkpt lat="37.393887000" lon="-5.982674000">
        <ele>14.8</ele>
        <time>2020-10-17T09:51:17Z</time>
      </trkpt>
      <trkpt lat="37.393915000" lon="-5.982806000">
        <ele>14.7</ele>
        <time>2020-10-17T09:51:20Z</time>
      </trkpt>
      <trkpt lat="37.393969000" lon="-5.982926000">
        <ele>14.6</ele>
        <time>2020-10-17T09:51:23Z</time>
      </trkpt>
      <trkpt lat="37.394015000" lon="-5.983058000">
        <ele>14.6</ele>
        <time>2020-10-17T09:51:26Z</time>
      </trkpt>
      <trkpt lat="37.394063000" lon="-5.983186000">
        <ele>14.5</ele>
        <time>2020-10-17T09:51:29Z</time>
      </trkpt>
      <trkpt lat="37.394103000" lon="-5.983314000">
        <ele>14.5</ele>
        <time>2020-10-17T09:51:32Z</time>
      </trkpt>
      <trkpt lat="37.394147000" lon="-5.983416000">
        <ele>14.5</ele>
        <time>2020-10-17T09:51:36Z</time>
      </trkpt>
      <trkpt lat="37.394078000" lon="-5.983472000">
        <ele>14.5</ele>
        <time>2020-10-17T09:51:43Z</time>
      </trkpt>
      <trkpt lat="37.394003000" lon="-5.983513000">
        <ele>14.5</ele>
        <time>2020-10-17T09:51:47Z</time>
      </trkpt>
      <trkpt lat="37.393917000" lon="-5.983551000">
        <ele>14.4</ele>
        <time>2020-10-17T09:51:53Z</time>
      </trkpt>
      <trkpt lat="37.393847000" lon="-5.983612000">
        <ele>14.3</ele>
        <time>2020-10-17T09:51:57Z</time>
      </trkpt>
      <trkpt lat="37.393763000" lon="-5.983679000">
        <ele>14.1</ele>
        <time>2020-10-17T09:52:00Z</time>
      </trkpt>
      <trkpt lat="37.393672000" lon="-5.983726000">
        <ele>13.9</ele>
        <time>2020-10-17T09:52:03Z</time>
      </trkpt>
      <trkpt lat="37.393567000" lon="-5.983780000">
        <ele>13.7</ele>
        <time>2020-10-17T09:52:06Z</time>
      </trkpt>
      <trkpt lat="37.393459000" lon="-5.983829000">
        <ele>13.5</ele>
        <time>2020-10-17T09:52:09Z</time>
      </trkpt>
      <trkpt lat="37.393373000" lon="-5.983863000">
        <ele>13.3</ele>
        <time>2020-10-17T09:52:12Z</time>
      </trkpt>
      <trkpt lat="37.393270000" lon="-5.983899000">
        <ele>13.0</ele>
        <time>2020-10-17T09:52:16Z</time>
      </trkpt>
      <trkpt lat="37.393189000" lon="-5.983901000">
        <ele>12.7</ele>
        <time>2020-10-17T09:52:28Z</time>
      </trkpt>
      <trkpt lat="37.393135000" lon="-5.983993000">
        <ele>12.5</ele>
        <time>2020-10-17T09:53:44Z</time>
      </trkpt>
      <trkpt lat="37.393119000" lon="-5.984113000">
        <ele>12.2</ele>
        <time>2020-10-17T09:53:49Z</time>
      </trkpt>
      <trkpt lat="37.393156000" lon="-5.984243000">
        <ele>11.9</ele>
        <time>2020-10-17T09:53:52Z</time>
      </trkpt>
      <trkpt lat="37.393183000" lon="-5.984340000">
        <ele>11.8</ele>
        <time>2020-10-17T09:53:54Z</time>
      </trkpt>
      <trkpt lat="37.393207000" lon="-5.984442000">
        <ele>11.8</ele>
        <time>2020-10-17T09:53:56Z</time>
      </trkpt>
      <trkpt lat="37.393228000" lon="-5.984549000">
        <ele>11.9</ele>
        <time>2020-10-17T09:53:58Z</time>
      </trkpt>
      <trkpt lat="37.393267000" lon="-5.984684000">
        <ele>12.1</ele>
        <time>2020-10-17T09:54:01Z</time>
      </trkpt>
      <trkpt lat="37.393312000" lon="-5.984778000">
        <ele>12.5</ele>
        <time>2020-10-17T09:54:12Z</time>
      </trkpt>
      <trkpt lat="37.393357000" lon="-5.984899000">
        <ele>12.8</ele>
        <time>2020-10-17T09:54:16Z</time>
      </trkpt>
      <trkpt lat="37.393435000" lon="-5.984954000">
        <ele>13.3</ele>
        <time>2020-10-17T09:54:19Z</time>
      </trkpt>
      <trkpt lat="37.393530000" lon="-5.984995000">
        <ele>13.8</ele>
        <time>2020-10-17T09:54:22Z</time>
      </trkpt>
      <trkpt lat="37.393624000" lon="-5.985066000">
        <ele>14.5</ele>
        <time>2020-10-17T09:54:25Z</time>
      </trkpt>
      <trkpt lat="37.393632000" lon="-5.985186000">
        <ele>15.1</ele>
        <time>2020-10-17T09:54:28Z</time>
      </trkpt>
      <trkpt lat="37.393594000" lon="-5.985303000">
        <ele>15.7</ele>
        <time>2020-10-17T09:54:31Z</time>
      </trkpt>
      <trkpt lat="37.393538000" lon="-5.985438000">
        <ele>16.3</ele>
        <time>2020-10-17T09:54:34Z</time>
      </trkpt>
      <trkpt lat="37.393467000" lon="-5.985554000">
        <ele>16.7</ele>
        <time>2020-10-17T09:54:36Z</time>
      </trkpt>
      <trkpt lat="37.393428000" lon="-5.985672000">
        <ele>17.1</ele>
        <time>2020-10-17T09:54:38Z</time>
      </trkpt>
      <trkpt lat="37.393392000" lon="-5.985802000">
        <ele>17.3</ele>
        <time>2020-10-17T09:54:40Z</time>
      </trkpt>
      <trkpt lat="37.393391000" lon="-5.985939000">
        <ele>17.4</ele>
        <time>2020-10-17T09:54:42Z</time>
      </trkpt>
      <trkpt lat="37.393380000" lon="-5.986073000">
        <ele>17.4</ele>
        <time>2020-10-17T09:54:44Z</time>
      </trkpt>
      <trkpt lat="37.393360000" lon="-5.986216000">
        <ele>17.3</ele>
        <time>2020-10-17T09:54:46Z</time>
      </trkpt>
      <trkpt lat="37.393335000" lon="-5.986342000">
        <ele>17.1</ele>
        <time>2020-10-17T09:54:48Z</time>
      </trkpt>
      <trkpt lat="37.393297000" lon="-5.986475000">
        <ele>16.9</ele>
        <time>2020-10-17T09:54:50Z</time>
      </trkpt>
      <trkpt lat="37.393261000" lon="-5.986608000">
        <ele>16.8</ele>
        <time>2020-10-17T09:54:52Z</time>
      </trkpt>
      <trkpt lat="37.393239000" lon="-5.986729000">
        <ele>16.7</ele>
        <time>2020-10-17T09:54:54Z</time>
      </trkpt>
      <trkpt lat="37.393219000" lon="-5.986846000">
        <ele>16.6</ele>
        <time>2020-10-17T09:54:56Z</time>
      </trkpt>
      <trkpt lat="37.393190000" lon="-5.986965000">
        <ele>16.5</ele>
        <time>2020-10-17T09:54:58Z</time>
      </trkpt>
      <trkpt lat="37.393175000" lon="-5.987075000">
        <ele>16.5</ele>
        <time>2020-10-17T09:55:00Z</time>
      </trkpt>
      <trkpt lat="37.393146000" lon="-5.987178000">
        <ele>16.5</ele>
        <time>2020-10-17T09:55:02Z</time>
      </trkpt>
      <trkpt lat="37.393115000" lon="-5.987289000">
        <ele>16.5</ele>
        <time>2020-10-17T09:55:04Z</time>
      </trkpt>
      <trkpt lat="37.393085000" lon="-5.987393000">
        <ele>16.5</ele>
        <time>2020-10-17T09:55:06Z</time>
      </trkpt>
      <trkpt lat="37.393058000" lon="-5.987498000">
        <ele>16.7</ele>
        <time>2020-10-17T09:55:08Z</time>
      </trkpt>
      <trkpt lat="37.393026000" lon="-5.987598000">
        <ele>16.9</ele>
        <time>2020-10-17T09:55:10Z</time>
      </trkpt>
      <trkpt lat="37.393002000" lon="-5.987709000">
        <ele>17.0</ele>
        <time>2020-10-17T09:55:12Z</time>
      </trkpt>
      <trkpt lat="37.392981000" lon="-5.987824000">
        <ele>17.1</ele>
        <time>2020-10-17T09:55:14Z</time>
      </trkpt>
      <trkpt lat="37.392956000" lon="-5.987967000">
        <ele>17.4</ele>
        <time>2020-10-17T09:55:17Z</time>
      </trkpt>
      <trkpt lat="37.392921000" lon="-5.988070000">
        <ele>17.7</ele>
        <time>2020-10-17T09:55:22Z</time>
      </trkpt>
      <trkpt lat="37.392894000" lon="-5.988190000">
        <ele>18.0</ele>
        <time>2020-10-17T09:55:26Z</time>
      </trkpt>
      <trkpt lat="37.392884000" lon="-5.988314000">
        <ele>18.4</ele>
        <time>2020-10-17T09:55:29Z</time>
      </trkpt>
      <trkpt lat="37.392858000" lon="-5.988424000">
        <ele>18.8</ele>
        <time>2020-10-17T09:55:32Z</time>
      </trkpt>
      <trkpt lat="37.392841000" lon="-5.988538000">
        <ele>19.4</ele>
        <time>2020-10-17T09:55:36Z</time>
      </trkpt>
      <trkpt lat="37.392805000" lon="-5.988639000">
        <ele>20.0</ele>
        <time>2020-10-17T10:04:15Z</time>
      </trkpt>
      <trkpt lat="37.392885000" lon="-5.988565000">
        <ele>20.6</ele>
        <time>2020-10-17T10:07:26Z</time>
      </trkpt>
      <trkpt lat="37.392884000" lon="-5.988686000">
        <ele>21.3</ele>
        <time>2020-10-17T10:11:50Z</time>
      </trkpt>
      <trkpt lat="37.392838000" lon="-5.988800000">
        <ele>21.9</ele>
        <time>2020-10-17T10:11:53Z</time>
      </trkpt>
      <trkpt lat="37.392785000" lon="-5.988910000">
        <ele>22.5</ele>
        <time>2020-10-17T10:11:56Z</time>
      </trkpt>
      <trkpt lat="37.392734000" lon="-5.989013000">
        <ele>22.8</ele>
        <time>2020-10-17T10:11:59Z</time>
      </trkpt>
      <trkpt lat="37.392669000" lon="-5.989121000">
        <ele>23.0</ele>
        <time>2020-10-17T10:12:02Z</time>
      </trkpt>
      <trkpt lat="37.392619000" lon="-5.989203000">
        <ele>23.3</ele>
        <time>2020-10-17T10:12:04Z</time>
      </trkpt>
      <trkpt lat="37.392569000" lon="-5.989324000">
        <ele>23.4</ele>
        <time>2020-10-17T10:12:07Z</time>
      </trkpt>
      <trkpt lat="37.392527000" lon="-5.989445000">
        <ele>23.4</ele>
        <time>2020-10-17T10:12:10Z</time>
      </trkpt>
      <trkpt lat="37.392497000" lon="-5.989542000">
        <ele>23.3</ele>
        <time>2020-10-17T10:12:13Z</time>
      </trkpt>
      <trkpt lat="37.392484000" lon="-5.989659000">
        <ele>23.1</ele>
        <time>2020-10-17T10:12:15Z</time>
      </trkpt>
      <trkpt lat="37.392480000" lon="-5.989780000">
        <ele>22.9</ele>
        <time>2020-10-17T10:12:17Z</time>
      </trkpt>
      <trkpt lat="37.392473000" lon="-5.989938000">
        <ele>22.8</ele>
        <time>2020-10-17T10:12:19Z</time>
      </trkpt>
      <trkpt lat="37.392470000" lon="-5.990053000">
        <ele>22.8</ele>
        <time>2020-10-17T10:12:21Z</time>
      </trkpt>
      <trkpt lat="37.392494000" lon="-5.990157000">
        <ele>22.9</ele>
        <time>2020-10-17T10:12:23Z</time>
      </trkpt>
      <trkpt lat="37.392521000" lon="-5.990270000">
        <ele>23.0</ele>
        <time>2020-10-17T10:12:25Z</time>
      </trkpt>
      <trkpt lat="37.392534000" lon="-5.990391000">
        <ele>23.2</ele>
        <time>2020-10-17T10:12:27Z</time>
      </trkpt>
      <trkpt lat="37.392546000" lon="-5.990493000">
        <ele>23.4</ele>
        <time>2020-10-17T10:12:29Z</time>
      </trkpt>
      <trkpt lat="37.392573000" lon="-5.990627000">
        <ele>23.5</ele>
        <time>2020-10-17T10:12:32Z</time>
      </trkpt>
      <trkpt lat="37.392606000" lon="-5.990752000">
        <ele>23.5</ele>
        <time>2020-10-17T10:12:35Z</time>
      </trkpt>
      <trkpt lat="37.392635000" lon="-5.990888000">
        <ele>23.3</ele>
        <time>2020-10-17T10:12:38Z</time>
      </trkpt>
      <trkpt lat="37.392659000" lon="-5.991016000">
        <ele>23.0</ele>
        <time>2020-10-17T10:12:41Z</time>
      </trkpt>
      <trkpt lat="37.392681000" lon="-5.991118000">
        <ele>22.6</ele>
        <time>2020-10-17T10:12:44Z</time>
      </trkpt>
      <trkpt lat="37.392707000" lon="-5.991236000">
        <ele>22.1</ele>
        <time>2020-10-17T10:12:47Z</time>
      </trkpt>
      <trkpt lat="37.392727000" lon="-5.991360000">
        <ele>21.5</ele>
        <time>2020-10-17T10:12:50Z</time>
      </trkpt>
      <trkpt lat="37.392746000" lon="-5.991485000">
        <ele>20.7</ele>
        <time>2020-10-17T10:12:53Z</time>
      </trkpt>
      <trkpt lat="37.392759000" lon="-5.991618000">
        <ele>20.0</ele>
        <time>2020-10-17T10:12:56Z</time>
      </trkpt>
      <trkpt lat="37.392768000" lon="-5.991722000">
        <ele>19.4</ele>
        <time>2020-10-17T10:12:58Z</time>
      </trkpt>
      <trkpt lat="37.392777000" lon="-5.991837000">
        <ele>18.7</ele>
        <time>2020-10-17T10:13:00Z</time>
      </trkpt>
      <trkpt lat="37.392782000" lon="-5.991951000">
        <ele>18.4</ele>
        <time>2020-10-17T10:13:02Z</time>
      </trkpt>
      <trkpt lat="37.392787000" lon="-5.992096000">
        <ele>18.1</ele>
        <time>2020-10-17T10:13:05Z</time>
      </trkpt>
      <trkpt lat="37.392787000" lon="-5.992214000">
        <ele>18.0</ele>
        <time>2020-10-17T10:13:08Z</time>
      </trkpt>
      <trkpt lat="37.392742000" lon="-5.992325000">
        <ele>18.1</ele>
        <time>2020-10-17T10:13:12Z</time>
      </trkpt>
      <trkpt lat="37.392801000" lon="-5.992396000">
        <ele>18.3</ele>
        <time>2020-10-17T10:14:11Z</time>
      </trkpt>
      <trkpt lat="37.392816000" lon="-5.992533000">
        <ele>18.5</ele>
        <time>2020-10-17T10:14:15Z</time>
      </trkpt>
      <trkpt lat="37.392809000" lon="-5.992657000">
        <ele>18.9</ele>
        <time>2020-10-17T10:14:18Z</time>
      </trkpt>
      <trkpt lat="37.392798000" lon="-5.992778000">
        <ele>19.4</ele>
        <time>2020-10-17T10:14:21Z</time>
      </trkpt>
      <trkpt lat="37.392790000" lon="-5.992900000">
        <ele>19.9</ele>
        <time>2020-10-17T10:14:24Z</time>
      </trkpt>
      <trkpt lat="37.392794000" lon="-5.993037000">
        <ele>20.4</ele>
        <time>2020-10-17T10:14:27Z</time>
      </trkpt>
      <trkpt lat="37.392791000" lon="-5.993151000">
        <ele>20.8</ele>
        <time>2020-10-17T10:14:30Z</time>
      </trkpt>
      <trkpt lat="37.392790000" lon="-5.993280000">
        <ele>21.2</ele>
        <time>2020-10-17T10:14:33Z</time>
      </trkpt>
      <trkpt lat="37.392792000" lon="-5.993405000">
        <ele>21.5</ele>
        <time>2020-10-17T10:14:36Z</time>
      </trkpt>
      <trkpt lat="37.392802000" lon="-5.993550000">
        <ele>21.8</ele>
        <time>2020-10-17T10:14:39Z</time>
      </trkpt>
      <trkpt lat="37.392815000" lon="-5.993651000">
        <ele>22.0</ele>
        <time>2020-10-17T10:14:42Z</time>
      </trkpt>
      <trkpt lat="37.392818000" lon="-5.993772000">
        <ele>22.2</ele>
        <time>2020-10-17T10:14:45Z</time>
      </trkpt>
      <trkpt lat="37.392808000" lon="-5.993875000">
        <ele>22.3</ele>
        <time>2020-10-17T10:14:48Z</time>
      </trkpt>
      <trkpt lat="37.392805000" lon="-5.994007000">
        <ele>22.2</ele>
        <time>2020-10-17T10:14:52Z</time>
      </trkpt>
      <trkpt lat="37.392805000" lon="-5.994126000">
        <ele>21.9</ele>
        <time>2020-10-17T10:14:55Z</time>
      </trkpt>
      <trkpt lat="37.392801000" lon="-5.994263000">
        <ele>21.5</ele>
        <time>2020-10-17T10:14:58Z</time>
      </trkpt>
      <trkpt lat="37.392779000" lon="-5.994392000">
        <ele>20.9</ele>
        <time>2020-10-17T10:15:01Z</time>
      </trkpt>
      <trkpt lat="37.392749000" lon="-5.994529000">
        <ele>20.4</ele>
        <time>2020-10-17T10:15:04Z</time>
      </trkpt>
      <trkpt lat="37.392724000" lon="-5.994674000">
        <ele>19.7</ele>
        <time>2020-10-17T10:15:07Z</time>
      </trkpt>
      <trkpt lat="37.392719000" lon="-5.994815000">
        <ele>19.0</ele>
        <time>2020-10-17T10:15:10Z</time>
      </trkpt>
      <trkpt lat="37.392716000" lon="-5.994958000">
        <ele>18.3</ele>
        <time>2020-10-17T10:15:13Z</time>
      </trkpt>
      <trkpt lat="37.392714000" lon="-5.995091000">
        <ele>17.5</ele>
        <time>2020-10-17T10:15:16Z</time>
      </trkpt>
      <trkpt lat="37.392708000" lon="-5.995219000">
        <ele>16.6</ele>
        <time>2020-10-17T10:15:19Z</time>
      </trkpt>
      <trkpt lat="37.392700000" lon="-5.995343000">
        <ele>16.0</ele>
        <time>2020-10-17T10:15:22Z</time>
      </trkpt>
      <trkpt lat="37.392695000" lon="-5.995451000">
        <ele>15.5</ele>
        <time>2020-10-17T10:15:25Z</time>
      </trkpt>
      <trkpt lat="37.392710000" lon="-5.995578000">
        <ele>15.4</ele>
        <time>2020-10-17T10:15:28Z</time>
      </trkpt>
      <trkpt lat="37.392705000" lon="-5.995702000">
        <ele>15.5</ele>
        <time>2020-10-17T10:15:32Z</time>
      </trkpt>
      <trkpt lat="37.392701000" lon="-5.995837000">
        <ele>15.8</ele>
        <time>2020-10-17T10:15:36Z</time>
      </trkpt>
      <trkpt lat="37.392697000" lon="-5.995941000">
        <ele>16.3</ele>
        <time>2020-10-17T10:15:39Z</time>
      </trkpt>
      <trkpt lat="37.392711000" lon="-5.996060000">
        <ele>17.0</ele>
        <time>2020-10-17T10:15:42Z</time>
      </trkpt>
      <trkpt lat="37.392742000" lon="-5.996162000">
        <ele>17.7</ele>
        <time>2020-10-17T10:15:44Z</time>
      </trkpt>
      <trkpt lat="37.392781000" lon="-5.996294000">
        <ele>18.5</ele>
        <time>2020-10-17T10:15:47Z</time>
      </trkpt>
      <trkpt lat="37.392820000" lon="-5.996409000">
        <ele>19.4</ele>
        <time>2020-10-17T10:15:50Z</time>
      </trkpt>
      <trkpt lat="37.392860000" lon="-5.996526000">
        <ele>20.1</ele>
        <time>2020-10-17T10:15:53Z</time>
      </trkpt>
      <trkpt lat="37.392878000" lon="-5.996665000">
        <ele>20.6</ele>
        <time>2020-10-17T10:15:56Z</time>
      </trkpt>
      <trkpt lat="37.392874000" lon="-5.996774000">
        <ele>21.0</ele>
        <time>2020-10-17T10:15:59Z</time>
      </trkpt>
      <trkpt lat="37.392882000" lon="-5.996927000">
        <ele>21.2</ele>
        <time>2020-10-17T10:16:02Z</time>
      </trkpt>
      <trkpt lat="37.392886000" lon="-5.997041000">
        <ele>21.2</ele>
        <time>2020-10-17T10:16:04Z</time>
      </trkpt>
      <trkpt lat="37.392894000" lon="-5.997155000">
        <ele>21.0</ele>
        <time>2020-10-17T10:16:06Z</time>
      </trkpt>
      <trkpt lat="37.392899000" lon="-5.997278000">
        <ele>20.7</ele>
        <time>2020-10-17T10:16:08Z</time>
      </trkpt>
      <trkpt lat="37.392907000" lon="-5.997404000">
        <ele>20.3</ele>
        <time>2020-10-17T10:16:10Z</time>
      </trkpt>
      <trkpt lat="37.392912000" lon="-5.997538000">
        <ele>19.8</ele>
        <time>2020-10-17T10:16:12Z</time>
      </trkpt>
      <trkpt lat="37.392882000" lon="-5.997661000">
        <ele>19.4</ele>
        <time>2020-10-17T10:16:13Z</time>
      </trkpt>
      <trkpt lat="37.392892000" lon="-5.997783000">
        <ele>18.9</ele>
        <time>2020-10-17T10:16:15Z</time>
      </trkpt>
      <trkpt lat="37.392923000" lon="-5.997906000">
        <ele>18.5</ele>
        <time>2020-10-17T10:16:17Z</time>
      </trkpt>
      <trkpt lat="37.392931000" lon="-5.998032000">
        <ele>18.2</ele>
        <time>2020-10-17T10:16:19Z</time>
      </trkpt>
      <trkpt lat="37.392959000" lon="-5.998153000">
        <ele>17.9</ele>
        <time>2020-10-17T10:16:21Z</time>
      </trkpt>
      <trkpt lat="37.392970000" lon="-5.998296000">
        <ele>17.6</ele>
        <time>2020-10-17T10:16:23Z</time>
      </trkpt>
      <trkpt lat="37.392960000" lon="-5.998433000">
        <ele>17.4</ele>
        <time>2020-10-17T10:16:25Z</time>
      </trkpt>
      <trkpt lat="37.392973000" lon="-5.998548000">
        <ele>17.1</ele>
        <time>2020-10-17T10:16:27Z</time>
      </trkpt>
      <trkpt lat="37.393001000" lon="-5.998656000">
        <ele>16.8</ele>
        <time>2020-10-17T10:16:29Z</time>
      </trkpt>
      <trkpt lat="37.393002000" lon="-5.998795000">
        <ele>16.5</ele>
        <time>2020-10-17T10:16:32Z</time>
      </trkpt>
      <trkpt lat="37.393023000" lon="-5.998899000">
        <ele>16.2</ele>
        <time>2020-10-17T10:16:34Z</time>
      </trkpt>
      <trkpt lat="37.393041000" lon="-5.999030000">
        <ele>15.8</ele>
        <time>2020-10-17T10:16:36Z</time>
      </trkpt>
      <trkpt lat="37.393030000" lon="-5.999138000">
        <ele>15.5</ele>
        <time>2020-10-17T10:16:38Z</time>
      </trkpt>
      <trkpt lat="37.393046000" lon="-5.999240000">
        <ele>15.0</ele>
        <time>2020-10-17T10:16:40Z</time>
      </trkpt>
      <trkpt lat="37.393061000" lon="-5.999348000">
        <ele>14.6</ele>
        <time>2020-10-17T10:16:42Z</time>
      </trkpt>
      <trkpt lat="37.393075000" lon="-5.999460000">
        <ele>14.2</ele>
        <time>2020-10-17T10:16:44Z</time>
      </trkpt>
      <trkpt lat="37.393091000" lon="-5.999566000">
        <ele>13.8</ele>
        <time>2020-10-17T10:16:46Z</time>
      </trkpt>
      <trkpt lat="37.393109000" lon="-5.999668000">
        <ele>13.5</ele>
        <time>2020-10-17T10:16:48Z</time>
      </trkpt>
      <trkpt lat="37.393125000" lon="-5.999778000">
        <ele>13.4</ele>
        <time>2020-10-17T10:16:50Z</time>
      </trkpt>
      <trkpt lat="37.393142000" lon="-5.999881000">
        <ele>13.3</ele>
        <time>2020-10-17T10:16:52Z</time>
      </trkpt>
      <trkpt lat="37.393175000" lon="-6.000005000">
        <ele>13.3</ele>
        <time>2020-10-17T10:16:55Z</time>
      </trkpt>
      <trkpt lat="37.393209000" lon="-6.000135000">
        <ele>13.3</ele>
        <time>2020-10-17T10:16:58Z</time>
      </trkpt>
      <trkpt lat="37.393227000" lon="-6.000237000">
        <ele>13.4</ele>
        <time>2020-10-17T10:17:00Z</time>
      </trkpt>
      <trkpt lat="37.393245000" lon="-6.000386000">
        <ele>13.5</ele>
        <time>2020-10-17T10:17:03Z</time>
      </trkpt>
      <trkpt lat="37.393277000" lon="-6.000518000">
        <ele>13.6</ele>
        <time>2020-10-17T10:17:06Z</time>
      </trkpt>
      <trkpt lat="37.393294000" lon="-6.000634000">
        <ele>13.7</ele>
        <time>2020-10-17T10:17:09Z</time>
      </trkpt>
      <trkpt lat="37.393307000" lon="-6.000779000">
        <ele>13.8</ele>
        <time>2020-10-17T10:17:12Z</time>
      </trkpt>
      <trkpt lat="37.393329000" lon="-6.000912000">
        <ele>13.8</ele>
        <time>2020-10-17T10:17:15Z</time>
      </trkpt>
      <trkpt lat="37.393353000" lon="-6.001049000">
        <ele>13.7</ele>
        <time>2020-10-17T10:17:18Z</time>
      </trkpt>
      <trkpt lat="37.393385000" lon="-6.001144000">
        <ele>13.6</ele>
        <time>2020-10-17T10:17:25Z</time>
      </trkpt>
      <trkpt lat="37.393369000" lon="-6.001244000">
        <ele>13.5</ele>
        <time>2020-10-17T10:17:41Z</time>
      </trkpt>
      <trkpt lat="37.393357000" lon="-6.001361000">
        <ele>13.3</ele>
        <time>2020-10-17T10:17:45Z</time>
      </trkpt>
      <trkpt lat="37.393378000" lon="-6.001484000">
        <ele>13.1</ele>
        <time>2020-10-17T10:17:48Z</time>
      </trkpt>
      <trkpt lat="37.393375000" lon="-6.001601000">
        <ele>12.8</ele>
        <time>2020-10-17T10:17:51Z</time>
      </trkpt>
      <trkpt lat="37.393367000" lon="-6.001727000">
        <ele>12.7</ele>
        <time>2020-10-17T10:17:54Z</time>
      </trkpt>
      <trkpt lat="37.393362000" lon="-6.001831000">
        <ele>12.6</ele>
        <time>2020-10-17T10:17:57Z</time>
      </trkpt>
      <trkpt lat="37.393353000" lon="-6.001934000">
        <ele>12.6</ele>
        <time>2020-10-17T10:18:00Z</time>
      </trkpt>
      <trkpt lat="37.393342000" lon="-6.002068000">
        <ele>12.6</ele>
        <time>2020-10-17T10:18:04Z</time>
      </trkpt>
      <trkpt lat="37.393354000" lon="-6.002189000">
        <ele>12.5</ele>
        <time>2020-10-17T10:18:08Z</time>
      </trkpt>
      <trkpt lat="37.393398000" lon="-6.002284000">
        <ele>12.5</ele>
        <time>2020-10-17T10:18:14Z</time>
      </trkpt>
      <trkpt lat="37.393381000" lon="-6.002394000">
        <ele>12.2</ele>
        <time>2020-10-17T10:18:17Z</time>
      </trkpt>
      <trkpt lat="37.393374000" lon="-6.002514000">
        <ele>11.9</ele>
        <time>2020-10-17T10:18:20Z</time>
      </trkpt>
      <trkpt lat="37.393372000" lon="-6.002643000">
        <ele>11.5</ele>
        <time>2020-10-17T10:18:23Z</time>
      </trkpt>
      <trkpt lat="37.393377000" lon="-6.002776000">
        <ele>11.2</ele>
        <time>2020-10-17T10:18:27Z</time>
      </trkpt>
      <trkpt lat="37.393367000" lon="-6.002882000">
        <ele>10.9</ele>
        <time>2020-10-17T10:18:30Z</time>
      </trkpt>
      <trkpt lat="37.393358000" lon="-6.003025000">
        <ele>10.5</ele>
        <time>2020-10-17T10:18:34Z</time>
      </trkpt>
      <trkpt lat="37.393348000" lon="-6.003148000">
        <ele>10.2</ele>
        <time>2020-10-17T10:18:37Z</time>
      </trkpt>
      <trkpt lat="37.393334000" lon="-6.003268000">
        <ele>9.9</ele>
        <time>2020-10-17T10:18:40Z</time>
      </trkpt>
      <trkpt lat="37.393332000" lon="-6.003372000">
        <ele>9.7</ele>
        <time>2020-10-17T10:18:43Z</time>
      </trkpt>
      <trkpt lat="37.393350000" lon="-6.003475000">
        <ele>9.5</ele>
        <time>2020-10-17T10:18:47Z</time>
      </trkpt>
      <trkpt lat="37.393363000" lon="-6.003588000">
        <ele>9.4</ele>
        <time>2020-10-17T10:19:39Z</time>
      </trkpt>
      <trkpt lat="37.393364000" lon="-6.003702000">
        <ele>9.3</ele>
        <time>2020-10-17T10:19:42Z</time>
      </trkpt>
      <trkpt lat="37.393361000" lon="-6.003816000">
        <ele>9.2</ele>
        <time>2020-10-17T10:19:45Z</time>
      </trkpt>
      <trkpt lat="37.393357000" lon="-6.003921000">
        <ele>9.1</ele>
        <time>2020-10-17T10:19:48Z</time>
      </trkpt>
      <trkpt lat="37.393452000" lon="-6.003943000">
        <ele>9.0</ele>
        <time>2020-10-17T10:19:52Z</time>
      </trkpt>
      <trkpt lat="37.393566000" lon="-6.003938000">
        <ele>9.0</ele>
        <time>2020-10-17T10:19:55Z</time>
      </trkpt>
      <trkpt lat="37.393649000" lon="-6.003929000">
        <ele>9.0</ele>
        <time>2020-10-17T10:19:57Z</time>
      </trkpt>
      <trkpt lat="37.393738000" lon="-6.003918000">
        <ele>9.0</ele>
        <time>2020-10-17T10:19:59Z</time>
      </trkpt>
      <trkpt lat="37.393827000" lon="-6.003907000">
        <ele>9.0</ele>
        <time>2020-10-17T10:20:01Z</time>
      </trkpt>
      <trkpt lat="37.393948000" lon="-6.003881000">
        <ele>9.0</ele>
        <time>2020-10-17T10:20:04Z</time>
      </trkpt>
      <trkpt lat="37.394038000" lon="-6.003856000">
        <ele>9.2</ele>
        <time>2020-10-17T10:20:06Z</time>
      </trkpt>
      <trkpt lat="37.394126000" lon="-6.003829000">
        <ele>9.3</ele>
        <time>2020-10-17T10:20:08Z</time>
      </trkpt>
      <trkpt lat="37.394209000" lon="-6.003796000">
        <ele>9.4</ele>
        <time>2020-10-17T10:20:10Z</time>
      </trkpt>
      <trkpt lat="37.394290000" lon="-6.003768000">
        <ele>9.4</ele>
        <time>2020-10-17T10:20:12Z</time>
      </trkpt>
      <trkpt lat="37.394372000" lon="-6.003736000">
        <ele>9.5</ele>
        <time>2020-10-17T10:20:14Z</time>
      </trkpt>
      <trkpt lat="37.394451000" lon="-6.003698000">
        <ele>9.5</ele>
        <time>2020-10-17T10:20:16Z</time>
      </trkpt>
      <trkpt lat="37.394530000" lon="-6.003662000">
        <ele>9.5</ele>
        <time>2020-10-17T10:20:18Z</time>
      </trkpt>
      <trkpt lat="37.394609000" lon="-6.003620000">
        <ele>9.5</ele>
        <time>2020-10-17T10:20:20Z</time>
      </trkpt>
      <trkpt lat="37.394691000" lon="-6.003576000">
        <ele>9.4</ele>
        <time>2020-10-17T10:20:22Z</time>
      </trkpt>
      <trkpt lat="37.394788000" lon="-6.003520000">
        <ele>9.2</ele>
        <time>2020-10-17T10:20:24Z</time>
      </trkpt>
      <trkpt lat="37.394873000" lon="-6.003463000">
        <ele>8.9</ele>
        <time>2020-10-17T10:20:26Z</time>
      </trkpt>
      <trkpt lat="37.394946000" lon="-6.003401000">
        <ele>8.5</ele>
        <time>2020-10-17T10:20:28Z</time>
      </trkpt>
      <trkpt lat="37.395023000" lon="-6.003349000">
        <ele>8.3</ele>
        <time>2020-10-17T10:20:30Z</time>
      </trkpt>
      <trkpt lat="37.395101000" lon="-6.003297000">
        <ele>8.0</ele>
        <time>2020-10-17T10:20:32Z</time>
      </trkpt>
      <trkpt lat="37.395181000" lon="-6.003242000">
        <ele>7.8</ele>
        <time>2020-10-17T10:20:34Z</time>
      </trkpt>
      <trkpt lat="37.395261000" lon="-6.003184000">
        <ele>7.7</ele>
        <time>2020-10-17T10:20:36Z</time>
      </trkpt>
      <trkpt lat="37.395342000" lon="-6.003124000">
        <ele>7.6</ele>
        <time>2020-10-17T10:20:38Z</time>
      </trkpt>
      <trkpt lat="37.395415000" lon="-6.003069000">
        <ele>7.5</ele>
        <time>2020-10-17T10:20:40Z</time>
      </trkpt>
      <trkpt lat="37.395512000" lon="-6.002994000">
        <ele>7.5</ele>
        <time>2020-10-17T10:20:43Z</time>
      </trkpt>
      <trkpt lat="37.395595000" lon="-6.002942000">
        <ele>7.3</ele>
        <time>2020-10-17T10:21:04Z</time>
      </trkpt>
      <trkpt lat="37.395682000" lon="-6.002865000">
        <ele>6.9</ele>
        <time>2020-10-17T10:21:08Z</time>
      </trkpt>
      <trkpt lat="37.395767000" lon="-6.002809000">
        <ele>6.6</ele>
        <time>2020-10-17T10:21:11Z</time>
      </trkpt>
      <trkpt lat="37.395859000" lon="-6.002742000">
        <ele>6.4</ele>
        <time>2020-10-17T10:21:14Z</time>
      </trkpt>
      <trkpt lat="37.395958000" lon="-6.002671000">
        <ele>6.1</ele>
        <time>2020-10-17T10:21:17Z</time>
      </trkpt>
      <trkpt lat="37.396029000" lon="-6.002613000">
        <ele>5.8</ele>
        <time>2020-10-17T10:21:19Z</time>
      </trkpt>
      <trkpt lat="37.396105000" lon="-6.002557000">
        <ele>5.5</ele>
        <time>2020-10-17T10:21:21Z</time>
      </trkpt>
      <trkpt lat="37.396186000" lon="-6.002501000">
        <ele>5.3</ele>
        <time>2020-10-17T10:21:23Z</time>
      </trkpt>
      <trkpt lat="37.396259000" lon="-6.002448000">
        <ele>5.0</ele>
        <time>2020-10-17T10:21:25Z</time>
      </trkpt>
      <trkpt lat="37.396338000" lon="-6.002389000">
        <ele>4.8</ele>
        <time>2020-10-17T10:21:27Z</time>
      </trkpt>
      <trkpt lat="37.396419000" lon="-6.002335000">
        <ele>4.7</ele>
        <time>2020-10-17T10:21:29Z</time>
      </trkpt>
      <trkpt lat="37.396497000" lon="-6.002277000">
        <ele>4.7</ele>
        <time>2020-10-17T10:21:31Z</time>
      </trkpt>
      <trkpt lat="37.396582000" lon="-6.002215000">
        <ele>4.9</ele>
        <time>2020-10-17T10:21:33Z</time>
      </trkpt>
      <trkpt lat="37.396668000" lon="-6.002151000">
        <ele>5.1</ele>
        <time>2020-10-17T10:21:35Z</time>
      </trkpt>
      <trkpt lat="37.396754000" lon="-6.002093000">
        <ele>5.4</ele>
        <time>2020-10-17T10:21:37Z</time>
      </trkpt>
      <trkpt lat="37.396826000" lon="-6.002031000">
        <ele>5.7</ele>
        <time>2020-10-17T10:21:39Z</time>
      </trkpt>
      <trkpt lat="37.396902000" lon="-6.001967000">
        <ele>6.0</ele>
        <time>2020-10-17T10:21:41Z</time>
      </trkpt>
      <trkpt lat="37.396980000" lon="-6.001913000">
        <ele>6.1</ele>
        <time>2020-10-17T10:21:43Z</time>
      </trkpt>
      <trkpt lat="37.397051000" lon="-6.001857000">
        <ele>6.1</ele>
        <time>2020-10-17T10:21:45Z</time>
      </trkpt>
      <trkpt lat="37.397139000" lon="-6.001797000">
        <ele>6.0</ele>
        <time>2020-10-17T10:21:47Z</time>
      </trkpt>
      <trkpt lat="37.397212000" lon="-6.001740000">
        <ele>5.8</ele>
        <time>2020-10-17T10:21:49Z</time>
      </trkpt>
      <trkpt lat="37.397287000" lon="-6.001691000">
        <ele>5.5</ele>
        <time>2020-10-17T10:21:51Z</time>
      </trkpt>
      <trkpt lat="37.397362000" lon="-6.001636000">
        <ele>5.3</ele>
        <time>2020-10-17T10:21:53Z</time>
      </trkpt>
      <trkpt lat="37.397458000" lon="-6.001565000">
        <ele>5.1</ele>
        <time>2020-10-17T10:21:55Z</time>
      </trkpt>
      <trkpt lat="37.397535000" lon="-6.001508000">
        <ele>5.0</ele>
        <time>2020-10-17T10:21:57Z</time>
      </trkpt>
      <trkpt lat="37.397612000" lon="-6.001452000">
        <ele>4.8</ele>
        <time>2020-10-17T10:21:59Z</time>
      </trkpt>
      <trkpt lat="37.397697000" lon="-6.001386000">
        <ele>4.5</ele>
        <time>2020-10-17T10:22:01Z</time>
      </trkpt>
      <trkpt lat="37.397775000" lon="-6.001331000">
        <ele>4.1</ele>
        <time>2020-10-17T10:22:03Z</time>
      </trkpt>
      <trkpt lat="37.397849000" lon="-6.001279000">
        <ele>3.9</ele>
        <time>2020-10-17T10:22:05Z</time>
      </trkpt>
      <trkpt lat="37.397949000" lon="-6.001205000">
        <ele>3.6</ele>
        <time>2020-10-17T10:22:08Z</time>
      </trkpt>
      <trkpt lat="37.398041000" lon="-6.001189000">
        <ele>3.5</ele>
        <time>2020-10-17T10:22:11Z</time>
      </trkpt>
      <trkpt lat="37.398140000" lon="-6.001206000">
        <ele>3.3</ele>
        <time>2020-10-17T10:22:15Z</time>
      </trkpt>
      <trkpt lat="37.398215000" lon="-6.001166000">
        <ele>3.2</ele>
        <time>2020-10-17T10:22:20Z</time>
      </trkpt>
      <trkpt lat="37.398291000" lon="-6.001119000">
        <ele>3.2</ele>
        <time>2020-10-17T10:22:24Z</time>
      </trkpt>
      <trkpt lat="37.398368000" lon="-6.001054000">
        <ele>3.2</ele>
        <time>2020-10-17T10:22:27Z</time>
      </trkpt>
      <trkpt lat="37.398460000" lon="-6.000987000">
        <ele>3.2</ele>
        <time>2020-10-17T10:22:30Z</time>
      </trkpt>
      <trkpt lat="37.398548000" lon="-6.000923000">
        <ele>3.5</ele>
        <time>2020-10-17T10:22:33Z</time>
      </trkpt>
      <trkpt lat="37.398629000" lon="-6.000867000">
        <ele>4.1</ele>
        <time>2020-10-17T10:22:36Z</time>
      </trkpt>
      <trkpt lat="37.398719000" lon="-6.000830000">
        <ele>5.1</ele>
        <time>2020-10-17T10:22:39Z</time>
      </trkpt>
      <trkpt lat="37.398817000" lon="-6.000805000">
        <ele>6.4</ele>
        <time>2020-10-17T10:22:43Z</time>
      </trkpt>
      <trkpt lat="37.398915000" lon="-6.000795000">
        <ele>7.9</ele>
        <time>2020-10-17T10:22:48Z</time>
      </trkpt>
      <trkpt lat="37.398991000" lon="-6.000755000">
        <ele>9.5</ele>
        <time>2020-10-17T10:22:51Z</time>
      </trkpt>
      <trkpt lat="37.399081000" lon="-6.000710000">
        <ele>11.0</ele>
        <time>2020-10-17T10:22:56Z</time>
      </trkpt>
      <trkpt lat="37.399164000" lon="-6.000627000">
        <ele>12.3</ele>
        <time>2020-10-17T10:23:01Z</time>
      </trkpt>
      <trkpt lat="37.399235000" lon="-6.000559000">
        <ele>13.4</ele>
        <time>2020-10-17T10:23:04Z</time>
      </trkpt>
      <trkpt lat="37.399303000" lon="-6.000487000">
        <ele>14.3</ele>
        <time>2020-10-17T10:23:07Z</time>
      </trkpt>
      <trkpt lat="37.399376000" lon="-6.000404000">
        <ele>15.0</ele>
        <time>2020-10-17T10:23:11Z</time>
      </trkpt>
      <trkpt lat="37.399449000" lon="-6.000350000">
        <ele>15.3</ele>
        <time>2020-10-17T10:23:15Z</time>
      </trkpt>
      <trkpt lat="37.399481000" lon="-6.000230000">
        <ele>15.1</ele>
        <time>2020-10-17T10:23:20Z</time>
      </trkpt>
      <trkpt lat="37.399503000" lon="-6.000110000">
        <ele>14.5</ele>
        <time>2020-10-17T10:23:26Z</time>
      </trkpt>
      <trkpt lat="37.399565000" lon="-6.000029000">
        <ele>13.7</ele>
        <time>2020-10-17T10:23:29Z</time>
      </trkpt>
      <trkpt lat="37.399568000" lon="-5.999904000">
        <ele>12.6</ele>
        <time>2020-10-17T10:23:32Z</time>
      </trkpt>
      <trkpt lat="37.399631000" lon="-5.999791000">
        <ele>11.5</ele>
        <time>2020-10-17T10:23:35Z</time>
      </trkpt>
      <trkpt lat="37.399695000" lon="-5.999723000">
        <ele>10.4</ele>
        <time>2020-10-17T10:23:37Z</time>
      </trkpt>
      <trkpt lat="37.399759000" lon="-5.999656000">
        <ele>9.5</ele>
        <time>2020-10-17T10:23:39Z</time>
      </trkpt>
      <trkpt lat="37.399828000" lon="-5.999591000">
        <ele>8.8</ele>
        <time>2020-10-17T10:23:41Z</time>
      </trkpt>
      <trkpt lat="37.399893000" lon="-5.999531000">
        <ele>8.2</ele>
        <time>2020-10-17T10:23:43Z</time>
      </trkpt>
      <trkpt lat="37.399964000" lon="-5.999465000">
        <ele>7.6</ele>
        <time>2020-10-17T10:23:45Z</time>
      </trkpt>
      <trkpt lat="37.400036000" lon="-5.999407000">
        <ele>7.3</ele>
        <time>2020-10-17T10:23:47Z</time>
      </trkpt>
      <trkpt lat="37.400127000" lon="-5.999307000">
        <ele>7.1</ele>
        <time>2020-10-17T10:23:50Z</time>
      </trkpt>
      <trkpt lat="37.400226000" lon="-5.999214000">
        <ele>7.0</ele>
        <time>2020-10-17T10:23:53Z</time>
      </trkpt>
      <trkpt lat="37.400295000" lon="-5.999154000">
        <ele>6.9</ele>
        <time>2020-10-17T10:23:55Z</time>
      </trkpt>
      <trkpt lat="37.400360000" lon="-5.999093000">
        <ele>6.9</ele>
        <time>2020-10-17T10:23:57Z</time>
      </trkpt>
      <trkpt lat="37.400432000" lon="-5.999029000">
        <ele>6.9</ele>
        <time>2020-10-17T10:23:59Z</time>
      </trkpt>
      <trkpt lat="37.400503000" lon="-5.998963000">
        <ele>7.0</ele>
        <time>2020-10-17T10:24:01Z</time>
      </trkpt>
      <trkpt lat="37.400569000" lon="-5.998895000">
        <ele>7.1</ele>
        <time>2020-10-17T10:24:03Z</time>
      </trkpt>
      <trkpt lat="37.400638000" lon="-5.998831000">
        <ele>7.3</ele>
        <time>2020-10-17T10:24:05Z</time>
      </trkpt>
      <trkpt lat="37.400706000" lon="-5.998745000">
        <ele>7.5</ele>
        <time>2020-10-17T10:24:07Z</time>
      </trkpt>
      <trkpt lat="37.400776000" lon="-5.998670000">
        <ele>7.8</ele>
        <time>2020-10-17T10:24:09Z</time>
      </trkpt>
      <trkpt lat="37.400851000" lon="-5.998594000">
        <ele>8.2</ele>
        <time>2020-10-17T10:24:11Z</time>
      </trkpt>
      <trkpt lat="37.400929000" lon="-5.998528000">
        <ele>8.5</ele>
        <time>2020-10-17T10:24:13Z</time>
      </trkpt>
      <trkpt lat="37.401003000" lon="-5.998457000">
        <ele>8.9</ele>
        <time>2020-10-17T10:24:15Z</time>
      </trkpt>
      <trkpt lat="37.401072000" lon="-5.998378000">
        <ele>9.2</ele>
        <time>2020-10-17T10:24:17Z</time>
      </trkpt>
      <trkpt lat="37.401150000" lon="-5.998309000">
        <ele>9.5</ele>
        <time>2020-10-17T10:24:19Z</time>
      </trkpt>
      <trkpt lat="37.401222000" lon="-5.998231000">
        <ele>9.7</ele>
        <time>2020-10-17T10:24:21Z</time>
      </trkpt>
      <trkpt lat="37.401297000" lon="-5.998163000">
        <ele>10.0</ele>
        <time>2020-10-17T10:24:23Z</time>
      </trkpt>
      <trkpt lat="37.401362000" lon="-5.998094000">
        <ele>10.1</ele>
        <time>2020-10-17T10:24:25Z</time>
      </trkpt>
      <trkpt lat="37.401437000" lon="-5.998026000">
        <ele>10.1</ele>
        <time>2020-10-17T10:24:27Z</time>
      </trkpt>
      <trkpt lat="37.401508000" lon="-5.997953000">
        <ele>10.1</ele>
        <time>2020-10-17T10:24:29Z</time>
      </trkpt>
      <trkpt lat="37.401585000" lon="-5.997879000">
        <ele>10.1</ele>
        <time>2020-10-17T10:24:31Z</time>
      </trkpt>
      <trkpt lat="37.401660000" lon="-5.997811000">
        <ele>9.9</ele>
        <time>2020-10-17T10:24:33Z</time>
      </trkpt>
      <trkpt lat="37.401732000" lon="-5.997739000">
        <ele>9.5</ele>
        <time>2020-10-17T10:24:35Z</time>
      </trkpt>
      <trkpt lat="37.401801000" lon="-5.997666000">
        <ele>9.3</ele>
        <time>2020-10-17T10:24:37Z</time>
      </trkpt>
      <trkpt lat="37.401867000" lon="-5.997595000">
        <ele>9.2</ele>
        <time>2020-10-17T10:24:39Z</time>
      </trkpt>
      <trkpt lat="37.401956000" lon="-5.997510000">
        <ele>9.1</ele>
        <time>2020-10-17T10:24:42Z</time>
      </trkpt>
      <trkpt lat="37.402032000" lon="-5.997466000">
        <ele>9.0</ele>
        <time>2020-10-17T10:24:45Z</time>
      </trkpt>
      <trkpt lat="37.402116000" lon="-5.997506000">
        <ele>8.9</ele>
        <time>2020-10-17T10:24:50Z</time>
      </trkpt>
      <trkpt lat="37.402167000" lon="-5.997411000">
        <ele>8.9</ele>
        <time>2020-10-17T10:29:11Z</time>
      </trkpt>
      <trkpt lat="37.402192000" lon="-5.997309000">
        <ele>8.9</ele>
        <time>2020-10-17T10:29:16Z</time>
      </trkpt>
      <trkpt lat="37.402272000" lon="-5.997217000">
        <ele>8.8</ele>
        <time>2020-10-17T10:29:20Z</time>
      </trkpt>
      <trkpt lat="37.402357000" lon="-5.997133000">
        <ele>8.7</ele>
        <time>2020-10-17T10:29:23Z</time>
      </trkpt>
      <trkpt lat="37.402443000" lon="-5.997050000">
        <ele>8.7</ele>
        <time>2020-10-17T10:29:26Z</time>
      </trkpt>
      <trkpt lat="37.402510000" lon="-5.996983000">
        <ele>8.8</ele>
        <time>2020-10-17T10:29:28Z</time>
      </trkpt>
      <trkpt lat="37.402577000" lon="-5.996921000">
        <ele>8.8</ele>
        <time>2020-10-17T10:29:30Z</time>
      </trkpt>
      <trkpt lat="37.402644000" lon="-5.996855000">
        <ele>8.7</ele>
        <time>2020-10-17T10:29:32Z</time>
      </trkpt>
      <trkpt lat="37.402713000" lon="-5.996789000">
        <ele>8.7</ele>
        <time>2020-10-17T10:29:34Z</time>
      </trkpt>
      <trkpt lat="37.402782000" lon="-5.996725000">
        <ele>8.8</ele>
        <time>2020-10-17T10:29:36Z</time>
      </trkpt>
      <trkpt lat="37.402851000" lon="-5.996653000">
        <ele>9.0</ele>
        <time>2020-10-17T10:29:38Z</time>
      </trkpt>
      <trkpt lat="37.402918000" lon="-5.996583000">
        <ele>9.2</ele>
        <time>2020-10-17T10:29:40Z</time>
      </trkpt>
      <trkpt lat="37.402986000" lon="-5.996516000">
        <ele>9.5</ele>
        <time>2020-10-17T10:29:42Z</time>
      </trkpt>
      <trkpt lat="37.403077000" lon="-5.996426000">
        <ele>9.6</ele>
        <time>2020-10-17T10:29:45Z</time>
      </trkpt>
      <trkpt lat="37.403170000" lon="-5.996338000">
        <ele>9.8</ele>
        <time>2020-10-17T10:29:48Z</time>
      </trkpt>
      <trkpt lat="37.403251000" lon="-5.996250000">
        <ele>9.9</ele>
        <time>2020-10-17T10:29:51Z</time>
      </trkpt>
      <trkpt lat="37.403332000" lon="-5.996173000">
        <ele>10.1</ele>
        <time>2020-10-17T10:29:54Z</time>
      </trkpt>
      <trkpt lat="37.403402000" lon="-5.996106000">
        <ele>10.4</ele>
        <time>2020-10-17T10:29:57Z</time>
      </trkpt>
      <trkpt lat="37.403483000" lon="-5.996042000">
        <ele>10.6</ele>
        <time>2020-10-17T10:30:01Z</time>
      </trkpt>
      <trkpt lat="37.403566000" lon="-5.996061000">
        <ele>10.9</ele>
        <time>2020-10-17T10:30:09Z</time>
      </trkpt>
      <trkpt lat="37.403645000" lon="-5.996014000">
        <ele>11.0</ele>
        <time>2020-10-17T10:30:27Z</time>
      </trkpt>
      <trkpt lat="37.403707000" lon="-5.995927000">
        <ele>11.0</ele>
        <time>2020-10-17T10:30:30Z</time>
      </trkpt>
      <trkpt lat="37.403739000" lon="-5.995812000">
        <ele>11.0</ele>
        <time>2020-10-17T10:30:33Z</time>
      </trkpt>
      <trkpt lat="37.403820000" lon="-5.995722000">
        <ele>10.9</ele>
        <time>2020-10-17T10:30:36Z</time>
      </trkpt>
      <trkpt lat="37.403911000" lon="-5.995635000">
        <ele>10.8</ele>
        <time>2020-10-17T10:30:39Z</time>
      </trkpt>
      <trkpt lat="37.404001000" lon="-5.995556000">
        <ele>10.7</ele>
        <time>2020-10-17T10:30:42Z</time>
      </trkpt>
      <trkpt lat="37.404081000" lon="-5.995468000">
        <ele>10.6</ele>
        <time>2020-10-17T10:30:45Z</time>
      </trkpt>
      <trkpt lat="37.404177000" lon="-5.995392000">
        <ele>10.5</ele>
        <time>2020-10-17T10:30:48Z</time>
      </trkpt>
      <trkpt lat="37.404270000" lon="-5.995325000">
        <ele>10.3</ele>
        <time>2020-10-17T10:30:51Z</time>
      </trkpt>
      <trkpt lat="37.404373000" lon="-5.995247000">
        <ele>10.0</ele>
        <time>2020-10-17T10:30:54Z</time>
      </trkpt>
      <trkpt lat="37.404444000" lon="-5.995193000">
        <ele>9.6</ele>
        <time>2020-10-17T10:30:56Z</time>
      </trkpt>
      <trkpt lat="37.404516000" lon="-5.995140000">
        <ele>9.3</ele>
        <time>2020-10-17T10:30:58Z</time>
      </trkpt>
      <trkpt lat="37.404588000" lon="-5.995088000">
        <ele>8.9</ele>
        <time>2020-10-17T10:31:00Z</time>
      </trkpt>
      <trkpt lat="37.404657000" lon="-5.995034000">
        <ele>8.5</ele>
        <time>2020-10-17T10:31:02Z</time>
      </trkpt>
      <trkpt lat="37.404748000" lon="-5.994956000">
        <ele>8.2</ele>
        <time>2020-10-17T10:31:05Z</time>
      </trkpt>
      <trkpt lat="37.404844000" lon="-5.994872000">
        <ele>7.9</ele>
        <time>2020-10-17T10:31:08Z</time>
      </trkpt>
      <trkpt lat="37.404947000" lon="-5.994794000">
        <ele>7.7</ele>
        <time>2020-10-17T10:31:11Z</time>
      </trkpt>
      <trkpt lat="37.405020000" lon="-5.994735000">
        <ele>7.7</ele>
        <time>2020-10-17T10:31:13Z</time>
      </trkpt>
      <trkpt lat="37.405092000" lon="-5.994679000">
        <ele>7.7</ele>
        <time>2020-10-17T10:31:15Z</time>
      </trkpt>
      <trkpt lat="37.405164000" lon="-5.994628000">
        <ele>7.8</ele>
        <time>2020-10-17T10:31:17Z</time>
      </trkpt>
      <trkpt lat="37.405268000" lon="-5.994556000">
        <ele>7.9</ele>
        <time>2020-10-17T10:31:20Z</time>
      </trkpt>
      <trkpt lat="37.405362000" lon="-5.994490000">
        <ele>7.9</ele>
        <time>2020-10-17T10:31:23Z</time>
      </trkpt>
      <trkpt lat="37.405453000" lon="-5.994411000">
        <ele>8.0</ele>
        <time>2020-10-17T10:31:26Z</time>
      </trkpt>
      <trkpt lat="37.405540000" lon="-5.994340000">
        <ele>8.1</ele>
        <time>2020-10-17T10:31:29Z</time>
      </trkpt>
      <trkpt lat="37.405616000" lon="-5.994286000">
        <ele>8.2</ele>
        <time>2020-10-17T10:31:32Z</time>
      </trkpt>
      <trkpt lat="37.405683000" lon="-5.994223000">
        <ele>8.3</ele>
        <time>2020-10-17T10:31:35Z</time>
      </trkpt>
      <trkpt lat="37.405766000" lon="-5.994181000">
        <ele>8.4</ele>
        <time>2020-10-17T10:32:01Z</time>
      </trkpt>
      <trkpt lat="37.405830000" lon="-5.994115000">
        <ele>8.4</ele>
        <time>2020-10-17T10:32:05Z</time>
      </trkpt>
      <trkpt lat="37.405909000" lon="-5.994043000">
        <ele>8.3</ele>
        <time>2020-10-17T10:32:08Z</time>
      </trkpt>
      <trkpt lat="37.405990000" lon="-5.993979000">
        <ele>8.2</ele>
        <time>2020-10-17T10:32:11Z</time>
      </trkpt>
      <trkpt lat="37.406071000" lon="-5.993927000">
        <ele>8.0</ele>
        <time>2020-10-17T10:32:14Z</time>
      </trkpt>
      <trkpt lat="37.406158000" lon="-5.993871000">
        <ele>7.8</ele>
        <time>2020-10-17T10:32:17Z</time>
      </trkpt>
      <trkpt lat="37.406239000" lon="-5.993820000">
        <ele>7.8</ele>
        <time>2020-10-17T10:32:20Z</time>
      </trkpt>
      <trkpt lat="37.406317000" lon="-5.993770000">
        <ele>7.8</ele>
        <time>2020-10-17T10:32:24Z</time>
      </trkpt>
      <trkpt lat="37.406402000" lon="-5.993710000">
        <ele>7.7</ele>
        <time>2020-10-17T10:32:27Z</time>
      </trkpt>
      <trkpt lat="37.406492000" lon="-5.993640000">
        <ele>7.6</ele>
        <time>2020-10-17T10:32:30Z</time>
      </trkpt>
      <trkpt lat="37.406567000" lon="-5.993582000">
        <ele>7.5</ele>
        <time>2020-10-17T10:32:33Z</time>
      </trkpt>
      <trkpt lat="37.406667000" lon="-5.993502000">
        <ele>7.5</ele>
        <time>2020-10-17T10:32:36Z</time>
      </trkpt>
      <trkpt lat="37.406738000" lon="-5.993448000">
        <ele>7.5</ele>
        <time>2020-10-17T10:32:38Z</time>
      </trkpt>
      <trkpt lat="37.406816000" lon="-5.993393000">
        <ele>7.5</ele>
        <time>2020-10-17T10:32:40Z</time>
      </trkpt>
      <trkpt lat="37.406892000" lon="-5.993345000">
        <ele>7.5</ele>
        <time>2020-10-17T10:32:42Z</time>
      </trkpt>
      <trkpt lat="37.406986000" lon="-5.993276000">
        <ele>7.4</ele>
        <time>2020-10-17T10:32:45Z</time>
      </trkpt>
      <trkpt lat="37.407078000" lon="-5.993209000">
        <ele>7.2</ele>
        <time>2020-10-17T10:32:48Z</time>
      </trkpt>
      <trkpt lat="37.407186000" lon="-5.993132000">
        <ele>6.9</ele>
        <time>2020-10-17T10:32:51Z</time>
      </trkpt>
      <trkpt lat="37.407278000" lon="-5.993068000">
        <ele>6.7</ele>
        <time>2020-10-17T10:32:53Z</time>
      </trkpt>
      <trkpt lat="37.407367000" lon="-5.993003000">
        <ele>6.6</ele>
        <time>2020-10-17T10:32:55Z</time>
      </trkpt>
      <trkpt lat="37.407440000" lon="-5.992938000">
        <ele>6.5</ele>
        <time>2020-10-17T10:32:57Z</time>
      </trkpt>
      <trkpt lat="37.407542000" lon="-5.992866000">
        <ele>6.3</ele>
        <time>2020-10-17T10:33:00Z</time>
      </trkpt>
      <trkpt lat="37.407631000" lon="-5.992796000">
        <ele>6.1</ele>
        <time>2020-10-17T10:33:03Z</time>
      </trkpt>
      <trkpt lat="37.407727000" lon="-5.992733000">
        <ele>6.0</ele>
        <time>2020-10-17T10:33:06Z</time>
      </trkpt>
      <trkpt lat="37.407814000" lon="-5.992670000">
        <ele>5.9</ele>
        <time>2020-10-17T10:33:09Z</time>
      </trkpt>
      <trkpt lat="37.407897000" lon="-5.992613000">
        <ele>6.0</ele>
        <time>2020-10-17T10:33:13Z</time>
      </trkpt>
      <trkpt lat="37.407971000" lon="-5.992567000">
        <ele>6.2</ele>
        <time>2020-10-17T10:33:19Z</time>
      </trkpt>
      <trkpt lat="37.408058000" lon="-5.992510000">
        <ele>6.5</ele>
        <time>2020-10-17T10:33:33Z</time>
      </trkpt>
      <trkpt lat="37.408156000" lon="-5.992433000">
        <ele>6.7</ele>
        <time>2020-10-17T10:33:36Z</time>
      </trkpt>
      <trkpt lat="37.408227000" lon="-5.992371000">
        <ele>6.9</ele>
        <time>2020-10-17T10:33:38Z</time>
      </trkpt>
      <trkpt lat="37.408303000" lon="-5.992316000">
        <ele>7.0</ele>
        <time>2020-10-17T10:33:40Z</time>
      </trkpt>
      <trkpt lat="37.408397000" lon="-5.992238000">
        <ele>7.2</ele>
        <time>2020-10-17T10:33:43Z</time>
      </trkpt>
      <trkpt lat="37.408480000" lon="-5.992174000">
        <ele>7.3</ele>
        <time>2020-10-17T10:33:46Z</time>
      </trkpt>
      <trkpt lat="37.408571000" lon="-5.992112000">
        <ele>7.3</ele>
        <time>2020-10-17T10:33:49Z</time>
      </trkpt>
      <trkpt lat="37.408657000" lon="-5.992045000">
        <ele>7.2</ele>
        <time>2020-10-17T10:33:52Z</time>
      </trkpt>
      <trkpt lat="37.408745000" lon="-5.991981000">
        <ele>7.1</ele>
        <time>2020-10-17T10:33:55Z</time>
      </trkpt>
      <trkpt lat="37.408835000" lon="-5.991914000">
        <ele>6.9</ele>
        <time>2020-10-17T10:33:58Z</time>
      </trkpt>
      <trkpt lat="37.408914000" lon="-5.991855000">
        <ele>6.7</ele>
        <time>2020-10-17T10:34:01Z</time>
      </trkpt>
      <trkpt lat="37.408991000" lon="-5.991791000">
        <ele>6.5</ele>
        <time>2020-10-17T10:35:30Z</time>
      </trkpt>
      <trkpt lat="37.409080000" lon="-5.991721000">
        <ele>6.4</ele>
        <time>2020-10-17T10:35:34Z</time>
      </trkpt>
      <trkpt lat="37.409168000" lon="-5.991648000">
        <ele>6.2</ele>
        <time>2020-10-17T10:35:37Z</time>
      </trkpt>
      <trkpt lat="37.409253000" lon="-5.991581000">
        <ele>6.0</ele>
        <time>2020-10-17T10:35:40Z</time>
      </trkpt>
      <trkpt lat="37.409335000" lon="-5.991536000">
        <ele>5.9</ele>
        <time>2020-10-17T10:35:43Z</time>
      </trkpt>
      <trkpt lat="37.409424000" lon="-5.991479000">
        <ele>6.0</ele>
        <time>2020-10-17T10:35:47Z</time>
      </trkpt>
      <trkpt lat="37.409422000" lon="-5.991369000">
        <ele>6.2</ele>
        <time>2020-10-17T10:35:52Z</time>
      </trkpt>
      <trkpt lat="37.409381000" lon="-5.991275000">
        <ele>6.5</ele>
        <time>2020-10-17T10:35:55Z</time>
      </trkpt>
      <trkpt lat="37.409341000" lon="-5.991185000">
        <ele>6.8</ele>
        <time>2020-10-17T10:35:58Z</time>
      </trkpt>
      <trkpt lat="37.409316000" lon="-5.991064000">
        <ele>7.4</ele>
        <time>2020-10-17T10:36:02Z</time>
      </trkpt>
      <trkpt lat="37.409361000" lon="-5.990966000">
        <ele>7.9</ele>
        <time>2020-10-17T10:36:06Z</time>
      </trkpt>
      <trkpt lat="37.409340000" lon="-5.990864000">
        <ele>8.5</ele>
        <time>2020-10-17T10:36:10Z</time>
      </trkpt>
      <trkpt lat="37.409296000" lon="-5.990758000">
        <ele>9.0</ele>
        <time>2020-10-17T10:36:13Z</time>
      </trkpt>
      <trkpt lat="37.409257000" lon="-5.990657000">
        <ele>9.5</ele>
        <time>2020-10-17T10:36:16Z</time>
      </trkpt>
      <trkpt lat="37.409203000" lon="-5.990576000">
        <ele>10.2</ele>
        <time>2020-10-17T10:36:19Z</time>
      </trkpt>
      <trkpt lat="37.409128000" lon="-5.990477000">
        <ele>10.7</ele>
        <time>2020-10-17T10:36:22Z</time>
      </trkpt>
      <trkpt lat="37.409076000" lon="-5.990372000">
        <ele>11.2</ele>
        <time>2020-10-17T10:36:25Z</time>
      </trkpt>
      <trkpt lat="37.409006000" lon="-5.990278000">
        <ele>11.5</ele>
        <time>2020-10-17T10:36:28Z</time>
      </trkpt>
      <trkpt lat="37.408958000" lon="-5.990141000">
        <ele>11.8</ele>
        <time>2020-10-17T10:36:31Z</time>
      </trkpt>
      <trkpt lat="37.408939000" lon="-5.990026000">
        <ele>12.0</ele>
        <time>2020-10-17T10:36:33Z</time>
      </trkpt>
      <trkpt lat="37.408924000" lon="-5.989912000">
        <ele>12.0</ele>
        <time>2020-10-17T10:36:35Z</time>
      </trkpt>
      <trkpt lat="37.408916000" lon="-5.989810000">
        <ele>12.0</ele>
        <time>2020-10-17T10:36:37Z</time>
      </trkpt>
      <trkpt lat="37.408905000" lon="-5.989671000">
        <ele>12.0</ele>
        <time>2020-10-17T10:36:40Z</time>
      </trkpt>
      <trkpt lat="37.408892000" lon="-5.989527000">
        <ele>12.1</ele>
        <time>2020-10-17T10:36:43Z</time>
      </trkpt>
      <trkpt lat="37.408872000" lon="-5.989421000">
        <ele>12.2</ele>
        <time>2020-10-17T10:36:45Z</time>
      </trkpt>
      <trkpt lat="37.408850000" lon="-5.989320000">
        <ele>12.3</ele>
        <time>2020-10-17T10:36:47Z</time>
      </trkpt>
      <trkpt lat="37.408815000" lon="-5.989195000">
        <ele>12.4</ele>
        <time>2020-10-17T10:36:50Z</time>
      </trkpt>
      <trkpt lat="37.408775000" lon="-5.989076000">
        <ele>12.5</ele>
        <time>2020-10-17T10:36:53Z</time>
      </trkpt>
      <trkpt lat="37.408717000" lon="-5.988961000">
        <ele>12.5</ele>
        <time>2020-10-17T10:36:56Z</time>
      </trkpt>
      <trkpt lat="37.408647000" lon="-5.988851000">
        <ele>12.6</ele>
        <time>2020-10-17T10:36:59Z</time>
      </trkpt>
      <trkpt lat="37.408568000" lon="-5.988752000">
        <ele>12.7</ele>
        <time>2020-10-17T10:37:02Z</time>
      </trkpt>
      <trkpt lat="37.408504000" lon="-5.988665000">
        <ele>12.8</ele>
        <time>2020-10-17T10:37:05Z</time>
      </trkpt>
      <trkpt lat="37.408445000" lon="-5.988590000">
        <ele>13.0</ele>
        <time>2020-10-17T10:37:08Z</time>
      </trkpt>
      <trkpt lat="37.408383000" lon="-5.988509000">
        <ele>13.1</ele>
        <time>2020-10-17T10:37:10Z</time>
      </trkpt>
      <trkpt lat="37.408323000" lon="-5.988421000">
        <ele>13.1</ele>
        <time>2020-10-17T10:37:12Z</time>
      </trkpt>
      <trkpt lat="37.408281000" lon="-5.988294000">
        <ele>13.1</ele>
        <time>2020-10-17T10:37:15Z</time>
      </trkpt>
      <trkpt lat="37.408321000" lon="-5.988204000">
        <ele>13.1</ele>
        <time>2020-10-17T10:37:18Z</time>
      </trkpt>
      <trkpt lat="37.408409000" lon="-5.988114000">
        <ele>13.1</ele>
        <time>2020-10-17T10:37:21Z</time>
      </trkpt>
      <trkpt lat="37.408481000" lon="-5.988054000">
        <ele>13.1</ele>
        <time>2020-10-17T10:37:23Z</time>
      </trkpt>
      <trkpt lat="37.408586000" lon="-5.988005000">
        <ele>13.1</ele>
        <time>2020-10-17T10:37:25Z</time>
      </trkpt>
      <trkpt lat="37.408655000" lon="-5.987948000">
        <ele>13.1</ele>
        <time>2020-10-17T10:37:27Z</time>
      </trkpt>
      <trkpt lat="37.408743000" lon="-5.987899000">
        <ele>13.1</ele>
        <time>2020-10-17T10:37:29Z</time>
      </trkpt>
      <trkpt lat="37.408819000" lon="-5.987847000">
        <ele>13.1</ele>
        <time>2020-10-17T10:37:31Z</time>
      </trkpt>
      <trkpt lat="37.408890000" lon="-5.987793000">
        <ele>13.0</ele>
        <time>2020-10-17T10:37:33Z</time>
      </trkpt>
      <trkpt lat="37.408941000" lon="-5.987756000">
        <ele>13.0</ele>
        <time>2020-10-17T10:38:44Z</time>
      </trkpt>
    </trkseg>
  </trk>
</gpx>
